<?xml version="1.0" encoding="UTF-8" standalone="no" ?>
<gpx xmlns="http://www.topografix.com/GPX/1/1" xmlns:xsi="http://www.w3.org/2001/XMLSchema-instance" xsi:schemaLocation="http://www.topografix.com/GPX/1/1 http://www.topografix.com/GPX/1/1/gpx.xsd" version="1.1" creator="VisuGPX - https://www.visugpx.com">
  <metadata>
    <name>Châlons/Saône-Lyon</name>
    <desc><![CDATA[Première itinérance avec Laurence
Première étape Pont de Vaux
Deuxième étape Trévoux

]]></desc>
  </metadata>
  <trk>
    <name><![CDATA[3ème étape: arrivée Lyon]]></name>
    <extensions>
      <line xmlns="http://www.topografix.com/GPX/gpx_style/0/2">
        <color>0000FF</color>
        <width>4</width>
      </line>
    </extensions>
    <trkseg>
      <trkpt lat="45.93966" lon="4.77029">
        <ele>171.2</ele>
        <time>2024-09-20T07:28:07Z</time>
      </trkpt>
      <trkpt lat="45.93966" lon="4.77029">
        <ele>171.2</ele>
        <time>2024-09-20T07:28:52Z</time>
      </trkpt>
      <trkpt lat="45.93966" lon="4.77031">
        <ele>171.2</ele>
        <time>2024-09-20T07:28:53Z</time>
      </trkpt>
      <trkpt lat="45.93967" lon="4.77034">
        <ele>171.2</ele>
        <time>2024-09-20T07:28:54Z</time>
      </trkpt>
      <trkpt lat="45.93968" lon="4.77036">
        <ele>171.2</ele>
        <time>2024-09-20T07:28:55Z</time>
      </trkpt>
      <trkpt lat="45.93969" lon="4.77039">
        <ele>171.2</ele>
        <time>2024-09-20T07:28:56Z</time>
      </trkpt>
      <trkpt lat="45.9397" lon="4.77042">
        <ele>171.2</ele>
        <time>2024-09-20T07:28:57Z</time>
      </trkpt>
      <trkpt lat="45.93971" lon="4.77045">
        <ele>171.2</ele>
        <time>2024-09-20T07:28:58Z</time>
      </trkpt>
      <trkpt lat="45.93973" lon="4.77048">
        <ele>171.2</ele>
        <time>2024-09-20T07:28:59Z</time>
      </trkpt>
      <trkpt lat="45.93974" lon="4.77051">
        <ele>171.2</ele>
        <time>2024-09-20T07:29:00Z</time>
      </trkpt>
      <trkpt lat="45.93975" lon="4.77055">
        <ele>171.2</ele>
        <time>2024-09-20T07:29:01Z</time>
      </trkpt>
      <trkpt lat="45.93976" lon="4.77059">
        <ele>171.2</ele>
        <time>2024-09-20T07:29:02Z</time>
      </trkpt>
      <trkpt lat="45.93977" lon="4.77064">
        <ele>171.4</ele>
        <time>2024-09-20T07:29:03Z</time>
      </trkpt>
      <trkpt lat="45.93978" lon="4.77068">
        <ele>171.4</ele>
        <time>2024-09-20T07:29:04Z</time>
      </trkpt>
      <trkpt lat="45.93979" lon="4.77072">
        <ele>171.4</ele>
        <time>2024-09-20T07:29:05Z</time>
      </trkpt>
      <trkpt lat="45.9398" lon="4.77076">
        <ele>171.4</ele>
        <time>2024-09-20T07:29:06Z</time>
      </trkpt>
      <trkpt lat="45.93981" lon="4.7708">
        <ele>171.4</ele>
        <time>2024-09-20T07:29:07Z</time>
      </trkpt>
      <trkpt lat="45.93982" lon="4.77085">
        <ele>171.4</ele>
        <time>2024-09-20T07:29:08Z</time>
      </trkpt>
      <trkpt lat="45.93984" lon="4.77089">
        <ele>171.4</ele>
        <time>2024-09-20T07:29:09Z</time>
      </trkpt>
      <trkpt lat="45.93985" lon="4.77094">
        <ele>171.2</ele>
        <time>2024-09-20T07:29:10Z</time>
      </trkpt>
      <trkpt lat="45.93987" lon="4.77098">
        <ele>171.2</ele>
        <time>2024-09-20T07:29:11Z</time>
      </trkpt>
      <trkpt lat="45.93988" lon="4.77103">
        <ele>171.2</ele>
        <time>2024-09-20T07:29:12Z</time>
      </trkpt>
      <trkpt lat="45.93989" lon="4.77107">
        <ele>171.2</ele>
        <time>2024-09-20T07:29:13Z</time>
      </trkpt>
      <trkpt lat="45.93991" lon="4.77112">
        <ele>171.2</ele>
        <time>2024-09-20T07:29:14Z</time>
      </trkpt>
      <trkpt lat="45.93992" lon="4.77117">
        <ele>171.6</ele>
        <time>2024-09-20T07:29:15Z</time>
      </trkpt>
      <trkpt lat="45.93993" lon="4.77121">
        <ele>171.6</ele>
        <time>2024-09-20T07:29:16Z</time>
      </trkpt>
      <trkpt lat="45.93994" lon="4.77126">
        <ele>171.6</ele>
        <time>2024-09-20T07:29:17Z</time>
      </trkpt>
      <trkpt lat="45.93995" lon="4.7713">
        <ele>171.6</ele>
        <time>2024-09-20T07:29:18Z</time>
      </trkpt>
      <trkpt lat="45.93996" lon="4.77134">
        <ele>171.6</ele>
        <time>2024-09-20T07:29:19Z</time>
      </trkpt>
      <trkpt lat="45.93997" lon="4.77139">
        <ele>171.6</ele>
        <time>2024-09-20T07:29:20Z</time>
      </trkpt>
      <trkpt lat="45.93998" lon="4.77144">
        <ele>171.6</ele>
        <time>2024-09-20T07:29:21Z</time>
      </trkpt>
      <trkpt lat="45.93998" lon="4.77149">
        <ele>171.6</ele>
        <time>2024-09-20T07:29:22Z</time>
      </trkpt>
      <trkpt lat="45.93998" lon="4.77154">
        <ele>171.6</ele>
        <time>2024-09-20T07:29:23Z</time>
      </trkpt>
      <trkpt lat="45.93999" lon="4.77159">
        <ele>171.8</ele>
        <time>2024-09-20T07:29:24Z</time>
      </trkpt>
      <trkpt lat="45.93999" lon="4.77164">
        <ele>171.8</ele>
        <time>2024-09-20T07:29:25Z</time>
      </trkpt>
      <trkpt lat="45.94" lon="4.77169">
        <ele>171.8</ele>
        <time>2024-09-20T07:29:26Z</time>
      </trkpt>
      <trkpt lat="45.94" lon="4.77174">
        <ele>171.8</ele>
        <time>2024-09-20T07:29:27Z</time>
      </trkpt>
      <trkpt lat="45.94" lon="4.7718">
        <ele>171.8</ele>
        <time>2024-09-20T07:29:28Z</time>
      </trkpt>
      <trkpt lat="45.94" lon="4.77186">
        <ele>171.6</ele>
        <time>2024-09-20T07:29:29Z</time>
      </trkpt>
      <trkpt lat="45.94" lon="4.77191">
        <ele>171.6</ele>
        <time>2024-09-20T07:29:30Z</time>
      </trkpt>
      <trkpt lat="45.94" lon="4.77197">
        <ele>171.6</ele>
        <time>2024-09-20T07:29:31Z</time>
      </trkpt>
      <trkpt lat="45.94001" lon="4.77202">
        <ele>171.6</ele>
        <time>2024-09-20T07:29:32Z</time>
      </trkpt>
      <trkpt lat="45.94003" lon="4.77207">
        <ele>171.6</ele>
        <time>2024-09-20T07:29:33Z</time>
      </trkpt>
      <trkpt lat="45.94004" lon="4.77212">
        <ele>171.6</ele>
        <time>2024-09-20T07:29:34Z</time>
      </trkpt>
      <trkpt lat="45.94004" lon="4.77216">
        <ele>171.6</ele>
        <time>2024-09-20T07:29:35Z</time>
      </trkpt>
      <trkpt lat="45.94004" lon="4.77221">
        <ele>171.6</ele>
        <time>2024-09-20T07:29:36Z</time>
      </trkpt>
      <trkpt lat="45.94003" lon="4.77226">
        <ele>171.6</ele>
        <time>2024-09-20T07:29:37Z</time>
      </trkpt>
      <trkpt lat="45.94002" lon="4.7723">
        <ele>171.8</ele>
        <time>2024-09-20T07:29:38Z</time>
      </trkpt>
      <trkpt lat="45.94002" lon="4.77235">
        <ele>171.8</ele>
        <time>2024-09-20T07:29:39Z</time>
      </trkpt>
      <trkpt lat="45.94001" lon="4.7724">
        <ele>171.6</ele>
        <time>2024-09-20T07:29:40Z</time>
      </trkpt>
      <trkpt lat="45.94001" lon="4.77245">
        <ele>171.6</ele>
        <time>2024-09-20T07:29:41Z</time>
      </trkpt>
      <trkpt lat="45.94001" lon="4.77247">
        <ele>171.8</ele>
        <time>2024-09-20T07:29:42Z</time>
      </trkpt>
      <trkpt lat="45.94001" lon="4.77248">
        <ele>171.8</ele>
        <time>2024-09-20T07:29:43Z</time>
      </trkpt>
      <trkpt lat="45.94001" lon="4.77249">
        <ele>171.8</ele>
        <time>2024-09-20T07:29:44Z</time>
      </trkpt>
      <trkpt lat="45.94001" lon="4.77249">
        <ele>171.8</ele>
        <time>2024-09-20T07:29:45Z</time>
      </trkpt>
      <trkpt lat="45.94" lon="4.77253">
        <ele>171.6</ele>
        <time>2024-09-20T07:30:01Z</time>
      </trkpt>
      <trkpt lat="45.93999" lon="4.77256">
        <ele>171.6</ele>
        <time>2024-09-20T07:30:02Z</time>
      </trkpt>
      <trkpt lat="45.94" lon="4.7726">
        <ele>171.6</ele>
        <time>2024-09-20T07:30:03Z</time>
      </trkpt>
      <trkpt lat="45.94001" lon="4.77264">
        <ele>171.4</ele>
        <time>2024-09-20T07:30:04Z</time>
      </trkpt>
      <trkpt lat="45.94002" lon="4.77268">
        <ele>171.4</ele>
        <time>2024-09-20T07:30:05Z</time>
      </trkpt>
      <trkpt lat="45.94002" lon="4.77272">
        <ele>171.4</ele>
        <time>2024-09-20T07:30:06Z</time>
      </trkpt>
      <trkpt lat="45.94003" lon="4.77278">
        <ele>171.4</ele>
        <time>2024-09-20T07:30:07Z</time>
      </trkpt>
      <trkpt lat="45.94003" lon="4.77282">
        <ele>171.8</ele>
        <time>2024-09-20T07:30:08Z</time>
      </trkpt>
      <trkpt lat="45.94003" lon="4.77286">
        <ele>171.8</ele>
        <time>2024-09-20T07:30:09Z</time>
      </trkpt>
      <trkpt lat="45.94002" lon="4.7729">
        <ele>171.8</ele>
        <time>2024-09-20T07:30:10Z</time>
      </trkpt>
      <trkpt lat="45.94002" lon="4.77293">
        <ele>171.8</ele>
        <time>2024-09-20T07:30:11Z</time>
      </trkpt>
      <trkpt lat="45.94001" lon="4.77296">
        <ele>172.6</ele>
        <time>2024-09-20T07:30:12Z</time>
      </trkpt>
      <trkpt lat="45.94" lon="4.773">
        <ele>172.6</ele>
        <time>2024-09-20T07:30:13Z</time>
      </trkpt>
      <trkpt lat="45.94" lon="4.77302">
        <ele>172.8</ele>
        <time>2024-09-20T07:30:14Z</time>
      </trkpt>
      <trkpt lat="45.94" lon="4.77305">
        <ele>172.8</ele>
        <time>2024-09-20T07:30:15Z</time>
      </trkpt>
      <trkpt lat="45.94002" lon="4.77307">
        <ele>173.2</ele>
        <time>2024-09-20T07:30:16Z</time>
      </trkpt>
      <trkpt lat="45.94003" lon="4.7731">
        <ele>173.2</ele>
        <time>2024-09-20T07:30:17Z</time>
      </trkpt>
      <trkpt lat="45.94003" lon="4.77314">
        <ele>173.2</ele>
        <time>2024-09-20T07:30:18Z</time>
      </trkpt>
      <trkpt lat="45.94003" lon="4.77318">
        <ele>173.2</ele>
        <time>2024-09-20T07:30:19Z</time>
      </trkpt>
      <trkpt lat="45.94002" lon="4.77323">
        <ele>173.2</ele>
        <time>2024-09-20T07:30:20Z</time>
      </trkpt>
      <trkpt lat="45.94001" lon="4.77327">
        <ele>173.2</ele>
        <time>2024-09-20T07:30:21Z</time>
      </trkpt>
      <trkpt lat="45.94001" lon="4.77332">
        <ele>173.2</ele>
        <time>2024-09-20T07:30:22Z</time>
      </trkpt>
      <trkpt lat="45.94" lon="4.77337">
        <ele>173.2</ele>
        <time>2024-09-20T07:30:23Z</time>
      </trkpt>
      <trkpt lat="45.94" lon="4.77342">
        <ele>173.2</ele>
        <time>2024-09-20T07:30:24Z</time>
      </trkpt>
      <trkpt lat="45.93999" lon="4.77348">
        <ele>173.2</ele>
        <time>2024-09-20T07:30:25Z</time>
      </trkpt>
      <trkpt lat="45.93999" lon="4.77353">
        <ele>173.2</ele>
        <time>2024-09-20T07:30:26Z</time>
      </trkpt>
      <trkpt lat="45.93998" lon="4.77358">
        <ele>173.2</ele>
        <time>2024-09-20T07:30:27Z</time>
      </trkpt>
      <trkpt lat="45.93997" lon="4.77362">
        <ele>173.2</ele>
        <time>2024-09-20T07:30:28Z</time>
      </trkpt>
      <trkpt lat="45.93997" lon="4.77367">
        <ele>173.4</ele>
        <time>2024-09-20T07:30:29Z</time>
      </trkpt>
      <trkpt lat="45.93996" lon="4.77372">
        <ele>173.4</ele>
        <time>2024-09-20T07:30:30Z</time>
      </trkpt>
      <trkpt lat="45.93997" lon="4.77376">
        <ele>173.4</ele>
        <time>2024-09-20T07:30:31Z</time>
      </trkpt>
      <trkpt lat="45.93999" lon="4.77378">
        <ele>173.4</ele>
        <time>2024-09-20T07:30:32Z</time>
      </trkpt>
      <trkpt lat="45.94001" lon="4.77379">
        <ele>173.4</ele>
        <time>2024-09-20T07:30:33Z</time>
      </trkpt>
      <trkpt lat="45.94003" lon="4.77382">
        <ele>173.4</ele>
        <time>2024-09-20T07:30:34Z</time>
      </trkpt>
      <trkpt lat="45.94002" lon="4.77386">
        <ele>173.6</ele>
        <time>2024-09-20T07:30:35Z</time>
      </trkpt>
      <trkpt lat="45.94002" lon="4.77389">
        <ele>173.6</ele>
        <time>2024-09-20T07:30:36Z</time>
      </trkpt>
      <trkpt lat="45.94001" lon="4.77393">
        <ele>173.6</ele>
        <time>2024-09-20T07:30:37Z</time>
      </trkpt>
      <trkpt lat="45.94001" lon="4.77397">
        <ele>173.6</ele>
        <time>2024-09-20T07:30:38Z</time>
      </trkpt>
      <trkpt lat="45.94" lon="4.77402">
        <ele>173.6</ele>
        <time>2024-09-20T07:30:39Z</time>
      </trkpt>
      <trkpt lat="45.93999" lon="4.77406">
        <ele>173.6</ele>
        <time>2024-09-20T07:30:40Z</time>
      </trkpt>
      <trkpt lat="45.93999" lon="4.77412">
        <ele>173.6</ele>
        <time>2024-09-20T07:30:41Z</time>
      </trkpt>
      <trkpt lat="45.93998" lon="4.77417">
        <ele>173.6</ele>
        <time>2024-09-20T07:30:42Z</time>
      </trkpt>
      <trkpt lat="45.93998" lon="4.77423">
        <ele>173.6</ele>
        <time>2024-09-20T07:30:43Z</time>
      </trkpt>
      <trkpt lat="45.93997" lon="4.77428">
        <ele>173.6</ele>
        <time>2024-09-20T07:30:44Z</time>
      </trkpt>
      <trkpt lat="45.93996" lon="4.77433">
        <ele>173.6</ele>
        <time>2024-09-20T07:30:45Z</time>
      </trkpt>
      <trkpt lat="45.93995" lon="4.77439">
        <ele>173.6</ele>
        <time>2024-09-20T07:30:46Z</time>
      </trkpt>
      <trkpt lat="45.93995" lon="4.77444">
        <ele>173.6</ele>
        <time>2024-09-20T07:30:47Z</time>
      </trkpt>
      <trkpt lat="45.93994" lon="4.7745">
        <ele>173.6</ele>
        <time>2024-09-20T07:30:48Z</time>
      </trkpt>
      <trkpt lat="45.93993" lon="4.77455">
        <ele>173.4</ele>
        <time>2024-09-20T07:30:49Z</time>
      </trkpt>
      <trkpt lat="45.93993" lon="4.7746">
        <ele>173.4</ele>
        <time>2024-09-20T07:30:50Z</time>
      </trkpt>
      <trkpt lat="45.93992" lon="4.77465">
        <ele>173.4</ele>
        <time>2024-09-20T07:30:51Z</time>
      </trkpt>
      <trkpt lat="45.93991" lon="4.7747">
        <ele>173.6</ele>
        <time>2024-09-20T07:30:52Z</time>
      </trkpt>
      <trkpt lat="45.9399" lon="4.77475">
        <ele>173.6</ele>
        <time>2024-09-20T07:30:53Z</time>
      </trkpt>
      <trkpt lat="45.9399" lon="4.77479">
        <ele>173.6</ele>
        <time>2024-09-20T07:30:54Z</time>
      </trkpt>
      <trkpt lat="45.93989" lon="4.77484">
        <ele>173.6</ele>
        <time>2024-09-20T07:30:55Z</time>
      </trkpt>
      <trkpt lat="45.93988" lon="4.77489">
        <ele>173.6</ele>
        <time>2024-09-20T07:30:56Z</time>
      </trkpt>
      <trkpt lat="45.93987" lon="4.77494">
        <ele>173.6</ele>
        <time>2024-09-20T07:30:57Z</time>
      </trkpt>
      <trkpt lat="45.93987" lon="4.775">
        <ele>173.4</ele>
        <time>2024-09-20T07:30:58Z</time>
      </trkpt>
      <trkpt lat="45.93986" lon="4.77506">
        <ele>173.4</ele>
        <time>2024-09-20T07:30:59Z</time>
      </trkpt>
      <trkpt lat="45.93985" lon="4.77512">
        <ele>173.4</ele>
        <time>2024-09-20T07:31:00Z</time>
      </trkpt>
      <trkpt lat="45.93984" lon="4.77518">
        <ele>173.4</ele>
        <time>2024-09-20T07:31:01Z</time>
      </trkpt>
      <trkpt lat="45.93983" lon="4.77524">
        <ele>173.4</ele>
        <time>2024-09-20T07:31:02Z</time>
      </trkpt>
      <trkpt lat="45.93982" lon="4.7753">
        <ele>173.4</ele>
        <time>2024-09-20T07:31:03Z</time>
      </trkpt>
      <trkpt lat="45.93981" lon="4.77536">
        <ele>173.4</ele>
        <time>2024-09-20T07:31:04Z</time>
      </trkpt>
      <trkpt lat="45.9398" lon="4.77542">
        <ele>173.4</ele>
        <time>2024-09-20T07:31:05Z</time>
      </trkpt>
      <trkpt lat="45.93979" lon="4.77547">
        <ele>173.4</ele>
        <time>2024-09-20T07:31:06Z</time>
      </trkpt>
      <trkpt lat="45.93978" lon="4.77553">
        <ele>173.4</ele>
        <time>2024-09-20T07:31:07Z</time>
      </trkpt>
      <trkpt lat="45.93977" lon="4.77559">
        <ele>173.4</ele>
        <time>2024-09-20T07:31:08Z</time>
      </trkpt>
      <trkpt lat="45.93976" lon="4.77565">
        <ele>173.4</ele>
        <time>2024-09-20T07:31:09Z</time>
      </trkpt>
      <trkpt lat="45.93976" lon="4.77572">
        <ele>173.4</ele>
        <time>2024-09-20T07:31:10Z</time>
      </trkpt>
      <trkpt lat="45.93975" lon="4.77578">
        <ele>173.4</ele>
        <time>2024-09-20T07:31:11Z</time>
      </trkpt>
      <trkpt lat="45.93974" lon="4.77584">
        <ele>173.4</ele>
        <time>2024-09-20T07:31:12Z</time>
      </trkpt>
      <trkpt lat="45.93973" lon="4.7759">
        <ele>173.4</ele>
        <time>2024-09-20T07:31:13Z</time>
      </trkpt>
      <trkpt lat="45.93972" lon="4.77596">
        <ele>173.4</ele>
        <time>2024-09-20T07:31:14Z</time>
      </trkpt>
      <trkpt lat="45.93971" lon="4.77601">
        <ele>173.4</ele>
        <time>2024-09-20T07:31:15Z</time>
      </trkpt>
      <trkpt lat="45.9397" lon="4.77607">
        <ele>173.4</ele>
        <time>2024-09-20T07:31:16Z</time>
      </trkpt>
      <trkpt lat="45.93969" lon="4.77613">
        <ele>173.4</ele>
        <time>2024-09-20T07:31:17Z</time>
      </trkpt>
      <trkpt lat="45.93968" lon="4.77619">
        <ele>173.4</ele>
        <time>2024-09-20T07:31:18Z</time>
      </trkpt>
      <trkpt lat="45.93967" lon="4.77625">
        <ele>173.4</ele>
        <time>2024-09-20T07:31:19Z</time>
      </trkpt>
      <trkpt lat="45.93966" lon="4.77631">
        <ele>173.4</ele>
        <time>2024-09-20T07:31:20Z</time>
      </trkpt>
      <trkpt lat="45.93965" lon="4.77637">
        <ele>173.4</ele>
        <time>2024-09-20T07:31:21Z</time>
      </trkpt>
      <trkpt lat="45.93964" lon="4.77643">
        <ele>173.4</ele>
        <time>2024-09-20T07:31:22Z</time>
      </trkpt>
      <trkpt lat="45.93962" lon="4.77648">
        <ele>173.4</ele>
        <time>2024-09-20T07:31:23Z</time>
      </trkpt>
      <trkpt lat="45.93961" lon="4.77654">
        <ele>173.4</ele>
        <time>2024-09-20T07:31:24Z</time>
      </trkpt>
      <trkpt lat="45.9396" lon="4.77661">
        <ele>173.6</ele>
        <time>2024-09-20T07:31:25Z</time>
      </trkpt>
      <trkpt lat="45.93958" lon="4.77666">
        <ele>173.6</ele>
        <time>2024-09-20T07:31:26Z</time>
      </trkpt>
      <trkpt lat="45.93957" lon="4.77672">
        <ele>173.6</ele>
        <time>2024-09-20T07:31:27Z</time>
      </trkpt>
      <trkpt lat="45.93955" lon="4.77678">
        <ele>173.4</ele>
        <time>2024-09-20T07:31:28Z</time>
      </trkpt>
      <trkpt lat="45.93953" lon="4.77684">
        <ele>173.4</ele>
        <time>2024-09-20T07:31:29Z</time>
      </trkpt>
      <trkpt lat="45.93951" lon="4.7769">
        <ele>173.4</ele>
        <time>2024-09-20T07:31:30Z</time>
      </trkpt>
      <trkpt lat="45.93949" lon="4.77695">
        <ele>173.4</ele>
        <time>2024-09-20T07:31:31Z</time>
      </trkpt>
      <trkpt lat="45.93948" lon="4.777">
        <ele>173.4</ele>
        <time>2024-09-20T07:31:32Z</time>
      </trkpt>
      <trkpt lat="45.93945" lon="4.77706">
        <ele>173.4</ele>
        <time>2024-09-20T07:31:33Z</time>
      </trkpt>
      <trkpt lat="45.93943" lon="4.77711">
        <ele>173.4</ele>
        <time>2024-09-20T07:31:34Z</time>
      </trkpt>
      <trkpt lat="45.93941" lon="4.77717">
        <ele>173.4</ele>
        <time>2024-09-20T07:31:35Z</time>
      </trkpt>
      <trkpt lat="45.93939" lon="4.77722">
        <ele>173.4</ele>
        <time>2024-09-20T07:31:36Z</time>
      </trkpt>
      <trkpt lat="45.93937" lon="4.77728">
        <ele>173.4</ele>
        <time>2024-09-20T07:31:37Z</time>
      </trkpt>
      <trkpt lat="45.93934" lon="4.77733">
        <ele>173.6</ele>
        <time>2024-09-20T07:31:38Z</time>
      </trkpt>
      <trkpt lat="45.93932" lon="4.77739">
        <ele>173.6</ele>
        <time>2024-09-20T07:31:39Z</time>
      </trkpt>
      <trkpt lat="45.93929" lon="4.77744">
        <ele>173.6</ele>
        <time>2024-09-20T07:31:40Z</time>
      </trkpt>
      <trkpt lat="45.93927" lon="4.7775">
        <ele>173.6</ele>
        <time>2024-09-20T07:31:41Z</time>
      </trkpt>
      <trkpt lat="45.93925" lon="4.77755">
        <ele>173.6</ele>
        <time>2024-09-20T07:31:42Z</time>
      </trkpt>
      <trkpt lat="45.93923" lon="4.77761">
        <ele>173.6</ele>
        <time>2024-09-20T07:31:43Z</time>
      </trkpt>
      <trkpt lat="45.9392" lon="4.77766">
        <ele>173.6</ele>
        <time>2024-09-20T07:31:44Z</time>
      </trkpt>
      <trkpt lat="45.93918" lon="4.77771">
        <ele>173.6</ele>
        <time>2024-09-20T07:31:45Z</time>
      </trkpt>
      <trkpt lat="45.93916" lon="4.77777">
        <ele>173.6</ele>
        <time>2024-09-20T07:31:46Z</time>
      </trkpt>
      <trkpt lat="45.93914" lon="4.77782">
        <ele>173.8</ele>
        <time>2024-09-20T07:31:47Z</time>
      </trkpt>
      <trkpt lat="45.93912" lon="4.77787">
        <ele>173.8</ele>
        <time>2024-09-20T07:31:48Z</time>
      </trkpt>
      <trkpt lat="45.93909" lon="4.77793">
        <ele>173.8</ele>
        <time>2024-09-20T07:31:49Z</time>
      </trkpt>
      <trkpt lat="45.93907" lon="4.77798">
        <ele>173.8</ele>
        <time>2024-09-20T07:31:50Z</time>
      </trkpt>
      <trkpt lat="45.93905" lon="4.77804">
        <ele>173.8</ele>
        <time>2024-09-20T07:31:51Z</time>
      </trkpt>
      <trkpt lat="45.93904" lon="4.77809">
        <ele>174</ele>
        <time>2024-09-20T07:31:52Z</time>
      </trkpt>
      <trkpt lat="45.93902" lon="4.77814">
        <ele>174</ele>
        <time>2024-09-20T07:31:53Z</time>
      </trkpt>
      <trkpt lat="45.939" lon="4.77819">
        <ele>174</ele>
        <time>2024-09-20T07:31:54Z</time>
      </trkpt>
      <trkpt lat="45.93899" lon="4.77824">
        <ele>174.4</ele>
        <time>2024-09-20T07:31:55Z</time>
      </trkpt>
      <trkpt lat="45.93897" lon="4.77829">
        <ele>174.4</ele>
        <time>2024-09-20T07:31:56Z</time>
      </trkpt>
      <trkpt lat="45.93896" lon="4.77835">
        <ele>174.4</ele>
        <time>2024-09-20T07:31:57Z</time>
      </trkpt>
      <trkpt lat="45.93894" lon="4.7784">
        <ele>174.4</ele>
        <time>2024-09-20T07:31:58Z</time>
      </trkpt>
      <trkpt lat="45.93893" lon="4.77845">
        <ele>174.4</ele>
        <time>2024-09-20T07:31:59Z</time>
      </trkpt>
      <trkpt lat="45.93891" lon="4.77851">
        <ele>174.8</ele>
        <time>2024-09-20T07:32:00Z</time>
      </trkpt>
      <trkpt lat="45.93889" lon="4.77856">
        <ele>175</ele>
        <time>2024-09-20T07:32:01Z</time>
      </trkpt>
      <trkpt lat="45.93888" lon="4.77861">
        <ele>175</ele>
        <time>2024-09-20T07:32:02Z</time>
      </trkpt>
      <trkpt lat="45.93886" lon="4.77866">
        <ele>175</ele>
        <time>2024-09-20T07:32:03Z</time>
      </trkpt>
      <trkpt lat="45.93884" lon="4.7787">
        <ele>175</ele>
        <time>2024-09-20T07:32:04Z</time>
      </trkpt>
      <trkpt lat="45.93881" lon="4.77875">
        <ele>175</ele>
        <time>2024-09-20T07:32:05Z</time>
      </trkpt>
      <trkpt lat="45.93877" lon="4.77881">
        <ele>174.4</ele>
        <time>2024-09-20T07:32:06Z</time>
      </trkpt>
      <trkpt lat="45.93873" lon="4.77887">
        <ele>174.4</ele>
        <time>2024-09-20T07:32:07Z</time>
      </trkpt>
      <trkpt lat="45.93868" lon="4.77894">
        <ele>174.4</ele>
        <time>2024-09-20T07:32:08Z</time>
      </trkpt>
      <trkpt lat="45.93864" lon="4.77901">
        <ele>173.4</ele>
        <time>2024-09-20T07:32:09Z</time>
      </trkpt>
      <trkpt lat="45.93859" lon="4.77908">
        <ele>172.8</ele>
        <time>2024-09-20T07:32:10Z</time>
      </trkpt>
      <trkpt lat="45.93854" lon="4.77914">
        <ele>172.8</ele>
        <time>2024-09-20T07:32:11Z</time>
      </trkpt>
      <trkpt lat="45.9385" lon="4.77922">
        <ele>172.8</ele>
        <time>2024-09-20T07:32:12Z</time>
      </trkpt>
      <trkpt lat="45.93845" lon="4.77928">
        <ele>172.4</ele>
        <time>2024-09-20T07:32:13Z</time>
      </trkpt>
      <trkpt lat="45.93841" lon="4.77935">
        <ele>172.4</ele>
        <time>2024-09-20T07:32:14Z</time>
      </trkpt>
      <trkpt lat="45.93837" lon="4.7794">
        <ele>172.4</ele>
        <time>2024-09-20T07:32:15Z</time>
      </trkpt>
      <trkpt lat="45.93833" lon="4.77946">
        <ele>172.4</ele>
        <time>2024-09-20T07:32:16Z</time>
      </trkpt>
      <trkpt lat="45.93828" lon="4.77953">
        <ele>172.4</ele>
        <time>2024-09-20T07:32:17Z</time>
      </trkpt>
      <trkpt lat="45.93824" lon="4.77958">
        <ele>172.4</ele>
        <time>2024-09-20T07:32:18Z</time>
      </trkpt>
      <trkpt lat="45.9382" lon="4.77964">
        <ele>172.4</ele>
        <time>2024-09-20T07:32:19Z</time>
      </trkpt>
      <trkpt lat="45.93816" lon="4.77969">
        <ele>172.4</ele>
        <time>2024-09-20T07:32:20Z</time>
      </trkpt>
      <trkpt lat="45.93812" lon="4.77974">
        <ele>172.4</ele>
        <time>2024-09-20T07:32:21Z</time>
      </trkpt>
      <trkpt lat="45.93808" lon="4.77979">
        <ele>172.2</ele>
        <time>2024-09-20T07:32:22Z</time>
      </trkpt>
      <trkpt lat="45.93804" lon="4.77984">
        <ele>172.4</ele>
        <time>2024-09-20T07:32:23Z</time>
      </trkpt>
      <trkpt lat="45.938" lon="4.77988">
        <ele>172.4</ele>
        <time>2024-09-20T07:32:24Z</time>
      </trkpt>
      <trkpt lat="45.93796" lon="4.77993">
        <ele>172.4</ele>
        <time>2024-09-20T07:32:25Z</time>
      </trkpt>
      <trkpt lat="45.93792" lon="4.77998">
        <ele>172.2</ele>
        <time>2024-09-20T07:32:26Z</time>
      </trkpt>
      <trkpt lat="45.93789" lon="4.78002">
        <ele>172.2</ele>
        <time>2024-09-20T07:32:27Z</time>
      </trkpt>
      <trkpt lat="45.93785" lon="4.78006">
        <ele>172.2</ele>
        <time>2024-09-20T07:32:28Z</time>
      </trkpt>
      <trkpt lat="45.93781" lon="4.7801">
        <ele>172.2</ele>
        <time>2024-09-20T07:32:29Z</time>
      </trkpt>
      <trkpt lat="45.93778" lon="4.78014">
        <ele>172.2</ele>
        <time>2024-09-20T07:32:30Z</time>
      </trkpt>
      <trkpt lat="45.93774" lon="4.78019">
        <ele>171.8</ele>
        <time>2024-09-20T07:32:31Z</time>
      </trkpt>
      <trkpt lat="45.93771" lon="4.78024">
        <ele>171.8</ele>
        <time>2024-09-20T07:32:32Z</time>
      </trkpt>
      <trkpt lat="45.93767" lon="4.78028">
        <ele>172</ele>
        <time>2024-09-20T07:32:33Z</time>
      </trkpt>
      <trkpt lat="45.93763" lon="4.78033">
        <ele>172</ele>
        <time>2024-09-20T07:32:34Z</time>
      </trkpt>
      <trkpt lat="45.93759" lon="4.78038">
        <ele>172</ele>
        <time>2024-09-20T07:32:35Z</time>
      </trkpt>
      <trkpt lat="45.93755" lon="4.78043">
        <ele>172</ele>
        <time>2024-09-20T07:32:36Z</time>
      </trkpt>
      <trkpt lat="45.93751" lon="4.78048">
        <ele>172</ele>
        <time>2024-09-20T07:32:37Z</time>
      </trkpt>
      <trkpt lat="45.93748" lon="4.78052">
        <ele>172</ele>
        <time>2024-09-20T07:32:38Z</time>
      </trkpt>
      <trkpt lat="45.93744" lon="4.78057">
        <ele>172</ele>
        <time>2024-09-20T07:32:39Z</time>
      </trkpt>
      <trkpt lat="45.9374" lon="4.78062">
        <ele>171.8</ele>
        <time>2024-09-20T07:32:40Z</time>
      </trkpt>
      <trkpt lat="45.93736" lon="4.78067">
        <ele>171.8</ele>
        <time>2024-09-20T07:32:41Z</time>
      </trkpt>
      <trkpt lat="45.93732" lon="4.78072">
        <ele>171.8</ele>
        <time>2024-09-20T07:32:42Z</time>
      </trkpt>
      <trkpt lat="45.93728" lon="4.78077">
        <ele>171.8</ele>
        <time>2024-09-20T07:32:43Z</time>
      </trkpt>
      <trkpt lat="45.93724" lon="4.78082">
        <ele>171.8</ele>
        <time>2024-09-20T07:32:44Z</time>
      </trkpt>
      <trkpt lat="45.93721" lon="4.78088">
        <ele>171.8</ele>
        <time>2024-09-20T07:32:45Z</time>
      </trkpt>
      <trkpt lat="45.93717" lon="4.78093">
        <ele>171.6</ele>
        <time>2024-09-20T07:32:46Z</time>
      </trkpt>
      <trkpt lat="45.93713" lon="4.78098">
        <ele>171.6</ele>
        <time>2024-09-20T07:32:47Z</time>
      </trkpt>
      <trkpt lat="45.93709" lon="4.78103">
        <ele>171.6</ele>
        <time>2024-09-20T07:32:48Z</time>
      </trkpt>
      <trkpt lat="45.93705" lon="4.78108">
        <ele>171.8</ele>
        <time>2024-09-20T07:32:49Z</time>
      </trkpt>
      <trkpt lat="45.93701" lon="4.78112">
        <ele>171.8</ele>
        <time>2024-09-20T07:32:50Z</time>
      </trkpt>
      <trkpt lat="45.93697" lon="4.78116">
        <ele>172</ele>
        <time>2024-09-20T07:32:51Z</time>
      </trkpt>
      <trkpt lat="45.93693" lon="4.7812">
        <ele>172</ele>
        <time>2024-09-20T07:32:52Z</time>
      </trkpt>
      <trkpt lat="45.93689" lon="4.78124">
        <ele>172</ele>
        <time>2024-09-20T07:32:53Z</time>
      </trkpt>
      <trkpt lat="45.93685" lon="4.78129">
        <ele>172</ele>
        <time>2024-09-20T07:32:54Z</time>
      </trkpt>
      <trkpt lat="45.9368" lon="4.78132">
        <ele>171.8</ele>
        <time>2024-09-20T07:32:55Z</time>
      </trkpt>
      <trkpt lat="45.93676" lon="4.78135">
        <ele>171.8</ele>
        <time>2024-09-20T07:32:56Z</time>
      </trkpt>
      <trkpt lat="45.93671" lon="4.78139">
        <ele>171.8</ele>
        <time>2024-09-20T07:32:57Z</time>
      </trkpt>
      <trkpt lat="45.93667" lon="4.78142">
        <ele>171.8</ele>
        <time>2024-09-20T07:32:58Z</time>
      </trkpt>
      <trkpt lat="45.93662" lon="4.78145">
        <ele>171.8</ele>
        <time>2024-09-20T07:32:59Z</time>
      </trkpt>
      <trkpt lat="45.93658" lon="4.78148">
        <ele>171.8</ele>
        <time>2024-09-20T07:33:00Z</time>
      </trkpt>
      <trkpt lat="45.93653" lon="4.78151">
        <ele>171.8</ele>
        <time>2024-09-20T07:33:01Z</time>
      </trkpt>
      <trkpt lat="45.93648" lon="4.78153">
        <ele>171.8</ele>
        <time>2024-09-20T07:33:02Z</time>
      </trkpt>
      <trkpt lat="45.93644" lon="4.78156">
        <ele>171.8</ele>
        <time>2024-09-20T07:33:03Z</time>
      </trkpt>
      <trkpt lat="45.93639" lon="4.78159">
        <ele>171.8</ele>
        <time>2024-09-20T07:33:04Z</time>
      </trkpt>
      <trkpt lat="45.93634" lon="4.78162">
        <ele>171.8</ele>
        <time>2024-09-20T07:33:05Z</time>
      </trkpt>
      <trkpt lat="45.93629" lon="4.78164">
        <ele>171.8</ele>
        <time>2024-09-20T07:33:06Z</time>
      </trkpt>
      <trkpt lat="45.93624" lon="4.78167">
        <ele>171.8</ele>
        <time>2024-09-20T07:33:07Z</time>
      </trkpt>
      <trkpt lat="45.93619" lon="4.7817">
        <ele>171.6</ele>
        <time>2024-09-20T07:33:08Z</time>
      </trkpt>
      <trkpt lat="45.93614" lon="4.78173">
        <ele>171.6</ele>
        <time>2024-09-20T07:33:09Z</time>
      </trkpt>
      <trkpt lat="45.93609" lon="4.78176">
        <ele>171.6</ele>
        <time>2024-09-20T07:33:10Z</time>
      </trkpt>
      <trkpt lat="45.93604" lon="4.78178">
        <ele>171.6</ele>
        <time>2024-09-20T07:33:11Z</time>
      </trkpt>
      <trkpt lat="45.93599" lon="4.78181">
        <ele>171.8</ele>
        <time>2024-09-20T07:33:12Z</time>
      </trkpt>
      <trkpt lat="45.93594" lon="4.78183">
        <ele>171.8</ele>
        <time>2024-09-20T07:33:13Z</time>
      </trkpt>
      <trkpt lat="45.93589" lon="4.78186">
        <ele>171.8</ele>
        <time>2024-09-20T07:33:14Z</time>
      </trkpt>
      <trkpt lat="45.93585" lon="4.78189">
        <ele>171.6</ele>
        <time>2024-09-20T07:33:15Z</time>
      </trkpt>
      <trkpt lat="45.9358" lon="4.78191">
        <ele>171.6</ele>
        <time>2024-09-20T07:33:16Z</time>
      </trkpt>
      <trkpt lat="45.93575" lon="4.78194">
        <ele>171.6</ele>
        <time>2024-09-20T07:33:17Z</time>
      </trkpt>
      <trkpt lat="45.93571" lon="4.78197">
        <ele>171.6</ele>
        <time>2024-09-20T07:33:18Z</time>
      </trkpt>
      <trkpt lat="45.93567" lon="4.78201">
        <ele>171.6</ele>
        <time>2024-09-20T07:33:19Z</time>
      </trkpt>
      <trkpt lat="45.93562" lon="4.78203">
        <ele>171.6</ele>
        <time>2024-09-20T07:33:20Z</time>
      </trkpt>
      <trkpt lat="45.93557" lon="4.78204">
        <ele>171.8</ele>
        <time>2024-09-20T07:33:21Z</time>
      </trkpt>
      <trkpt lat="45.93553" lon="4.78206">
        <ele>171.8</ele>
        <time>2024-09-20T07:33:22Z</time>
      </trkpt>
      <trkpt lat="45.93549" lon="4.78209">
        <ele>171.8</ele>
        <time>2024-09-20T07:33:23Z</time>
      </trkpt>
      <trkpt lat="45.93545" lon="4.78213">
        <ele>171.8</ele>
        <time>2024-09-20T07:33:24Z</time>
      </trkpt>
      <trkpt lat="45.93541" lon="4.78216">
        <ele>171.8</ele>
        <time>2024-09-20T07:33:25Z</time>
      </trkpt>
      <trkpt lat="45.93537" lon="4.78219">
        <ele>171.8</ele>
        <time>2024-09-20T07:33:26Z</time>
      </trkpt>
      <trkpt lat="45.93533" lon="4.78223">
        <ele>171.8</ele>
        <time>2024-09-20T07:33:27Z</time>
      </trkpt>
      <trkpt lat="45.93529" lon="4.78226">
        <ele>171.8</ele>
        <time>2024-09-20T07:33:28Z</time>
      </trkpt>
      <trkpt lat="45.93525" lon="4.7823">
        <ele>171.8</ele>
        <time>2024-09-20T07:33:29Z</time>
      </trkpt>
      <trkpt lat="45.93521" lon="4.78233">
        <ele>171.8</ele>
        <time>2024-09-20T07:33:30Z</time>
      </trkpt>
      <trkpt lat="45.93517" lon="4.78237">
        <ele>171.8</ele>
        <time>2024-09-20T07:33:31Z</time>
      </trkpt>
      <trkpt lat="45.93514" lon="4.78241">
        <ele>171.8</ele>
        <time>2024-09-20T07:33:32Z</time>
      </trkpt>
      <trkpt lat="45.9351" lon="4.78244">
        <ele>171.8</ele>
        <time>2024-09-20T07:33:33Z</time>
      </trkpt>
      <trkpt lat="45.93506" lon="4.78247">
        <ele>171.8</ele>
        <time>2024-09-20T07:33:34Z</time>
      </trkpt>
      <trkpt lat="45.93503" lon="4.78251">
        <ele>171.6</ele>
        <time>2024-09-20T07:33:35Z</time>
      </trkpt>
      <trkpt lat="45.93499" lon="4.78255">
        <ele>171.6</ele>
        <time>2024-09-20T07:33:36Z</time>
      </trkpt>
      <trkpt lat="45.93496" lon="4.78259">
        <ele>171.6</ele>
        <time>2024-09-20T07:33:37Z</time>
      </trkpt>
      <trkpt lat="45.93492" lon="4.78263">
        <ele>171.6</ele>
        <time>2024-09-20T07:33:38Z</time>
      </trkpt>
      <trkpt lat="45.93488" lon="4.78267">
        <ele>171.4</ele>
        <time>2024-09-20T07:33:39Z</time>
      </trkpt>
      <trkpt lat="45.93484" lon="4.7827">
        <ele>171.4</ele>
        <time>2024-09-20T07:33:40Z</time>
      </trkpt>
      <trkpt lat="45.9348" lon="4.78274">
        <ele>171.4</ele>
        <time>2024-09-20T07:33:41Z</time>
      </trkpt>
      <trkpt lat="45.93476" lon="4.78278">
        <ele>171.4</ele>
        <time>2024-09-20T07:33:42Z</time>
      </trkpt>
      <trkpt lat="45.93472" lon="4.78282">
        <ele>171.4</ele>
        <time>2024-09-20T07:33:43Z</time>
      </trkpt>
      <trkpt lat="45.93469" lon="4.78286">
        <ele>171.4</ele>
        <time>2024-09-20T07:33:44Z</time>
      </trkpt>
      <trkpt lat="45.93465" lon="4.7829">
        <ele>171.4</ele>
        <time>2024-09-20T07:33:45Z</time>
      </trkpt>
      <trkpt lat="45.9346" lon="4.78293">
        <ele>171.4</ele>
        <time>2024-09-20T07:33:46Z</time>
      </trkpt>
      <trkpt lat="45.93456" lon="4.78297">
        <ele>171.6</ele>
        <time>2024-09-20T07:33:47Z</time>
      </trkpt>
      <trkpt lat="45.93452" lon="4.78301">
        <ele>171.2</ele>
        <time>2024-09-20T07:33:48Z</time>
      </trkpt>
      <trkpt lat="45.93448" lon="4.78305">
        <ele>171.2</ele>
        <time>2024-09-20T07:33:49Z</time>
      </trkpt>
      <trkpt lat="45.93444" lon="4.78308">
        <ele>171.2</ele>
        <time>2024-09-20T07:33:50Z</time>
      </trkpt>
      <trkpt lat="45.9344" lon="4.78311">
        <ele>171.2</ele>
        <time>2024-09-20T07:33:51Z</time>
      </trkpt>
      <trkpt lat="45.93435" lon="4.78314">
        <ele>171</ele>
        <time>2024-09-20T07:33:52Z</time>
      </trkpt>
      <trkpt lat="45.93431" lon="4.78317">
        <ele>171</ele>
        <time>2024-09-20T07:33:53Z</time>
      </trkpt>
      <trkpt lat="45.93426" lon="4.7832">
        <ele>171</ele>
        <time>2024-09-20T07:33:54Z</time>
      </trkpt>
      <trkpt lat="45.93422" lon="4.78323">
        <ele>171.4</ele>
        <time>2024-09-20T07:33:55Z</time>
      </trkpt>
      <trkpt lat="45.93417" lon="4.78326">
        <ele>171.4</ele>
        <time>2024-09-20T07:33:56Z</time>
      </trkpt>
      <trkpt lat="45.93412" lon="4.78328">
        <ele>171.4</ele>
        <time>2024-09-20T07:33:57Z</time>
      </trkpt>
      <trkpt lat="45.93408" lon="4.78331">
        <ele>171.4</ele>
        <time>2024-09-20T07:33:58Z</time>
      </trkpt>
      <trkpt lat="45.93403" lon="4.78334">
        <ele>171.4</ele>
        <time>2024-09-20T07:33:59Z</time>
      </trkpt>
      <trkpt lat="45.93399" lon="4.78337">
        <ele>171.2</ele>
        <time>2024-09-20T07:34:00Z</time>
      </trkpt>
      <trkpt lat="45.93394" lon="4.78339">
        <ele>171.4</ele>
        <time>2024-09-20T07:34:01Z</time>
      </trkpt>
      <trkpt lat="45.9339" lon="4.78342">
        <ele>171.4</ele>
        <time>2024-09-20T07:34:02Z</time>
      </trkpt>
      <trkpt lat="45.93386" lon="4.78345">
        <ele>171.4</ele>
        <time>2024-09-20T07:34:03Z</time>
      </trkpt>
      <trkpt lat="45.93381" lon="4.78348">
        <ele>171.4</ele>
        <time>2024-09-20T07:34:04Z</time>
      </trkpt>
      <trkpt lat="45.93377" lon="4.78351">
        <ele>171.4</ele>
        <time>2024-09-20T07:34:05Z</time>
      </trkpt>
      <trkpt lat="45.93372" lon="4.78354">
        <ele>171.4</ele>
        <time>2024-09-20T07:34:06Z</time>
      </trkpt>
      <trkpt lat="45.93368" lon="4.78357">
        <ele>171.4</ele>
        <time>2024-09-20T07:34:07Z</time>
      </trkpt>
      <trkpt lat="45.93364" lon="4.7836">
        <ele>171.4</ele>
        <time>2024-09-20T07:34:08Z</time>
      </trkpt>
      <trkpt lat="45.93359" lon="4.78363">
        <ele>171.4</ele>
        <time>2024-09-20T07:34:09Z</time>
      </trkpt>
      <trkpt lat="45.93355" lon="4.78366">
        <ele>171.4</ele>
        <time>2024-09-20T07:34:10Z</time>
      </trkpt>
      <trkpt lat="45.9335" lon="4.78369">
        <ele>171.2</ele>
        <time>2024-09-20T07:34:11Z</time>
      </trkpt>
      <trkpt lat="45.93346" lon="4.78372">
        <ele>171.2</ele>
        <time>2024-09-20T07:34:12Z</time>
      </trkpt>
      <trkpt lat="45.93342" lon="4.78375">
        <ele>171.2</ele>
        <time>2024-09-20T07:34:13Z</time>
      </trkpt>
      <trkpt lat="45.93337" lon="4.78378">
        <ele>171.2</ele>
        <time>2024-09-20T07:34:14Z</time>
      </trkpt>
      <trkpt lat="45.93333" lon="4.78382">
        <ele>171</ele>
        <time>2024-09-20T07:34:15Z</time>
      </trkpt>
      <trkpt lat="45.93329" lon="4.78385">
        <ele>171</ele>
        <time>2024-09-20T07:34:16Z</time>
      </trkpt>
      <trkpt lat="45.93324" lon="4.78388">
        <ele>171</ele>
        <time>2024-09-20T07:34:17Z</time>
      </trkpt>
      <trkpt lat="45.9332" lon="4.78391">
        <ele>171</ele>
        <time>2024-09-20T07:34:18Z</time>
      </trkpt>
      <trkpt lat="45.93316" lon="4.78393">
        <ele>171.2</ele>
        <time>2024-09-20T07:34:19Z</time>
      </trkpt>
      <trkpt lat="45.93312" lon="4.78397">
        <ele>171.2</ele>
        <time>2024-09-20T07:34:20Z</time>
      </trkpt>
      <trkpt lat="45.93309" lon="4.784">
        <ele>171.2</ele>
        <time>2024-09-20T07:34:21Z</time>
      </trkpt>
      <trkpt lat="45.93305" lon="4.78403">
        <ele>171.2</ele>
        <time>2024-09-20T07:34:22Z</time>
      </trkpt>
      <trkpt lat="45.93301" lon="4.78405">
        <ele>171.2</ele>
        <time>2024-09-20T07:34:23Z</time>
      </trkpt>
      <trkpt lat="45.93297" lon="4.78408">
        <ele>171.4</ele>
        <time>2024-09-20T07:34:24Z</time>
      </trkpt>
      <trkpt lat="45.93294" lon="4.7841">
        <ele>171.4</ele>
        <time>2024-09-20T07:34:25Z</time>
      </trkpt>
      <trkpt lat="45.9329" lon="4.78413">
        <ele>171.4</ele>
        <time>2024-09-20T07:34:26Z</time>
      </trkpt>
      <trkpt lat="45.93286" lon="4.78416">
        <ele>171.4</ele>
        <time>2024-09-20T07:34:27Z</time>
      </trkpt>
      <trkpt lat="45.93282" lon="4.78419">
        <ele>171.4</ele>
        <time>2024-09-20T07:34:28Z</time>
      </trkpt>
      <trkpt lat="45.93279" lon="4.78421">
        <ele>171.2</ele>
        <time>2024-09-20T07:34:29Z</time>
      </trkpt>
      <trkpt lat="45.93276" lon="4.78424">
        <ele>171.2</ele>
        <time>2024-09-20T07:34:30Z</time>
      </trkpt>
      <trkpt lat="45.93272" lon="4.78426">
        <ele>171.2</ele>
        <time>2024-09-20T07:34:31Z</time>
      </trkpt>
      <trkpt lat="45.93268" lon="4.78429">
        <ele>171.2</ele>
        <time>2024-09-20T07:34:32Z</time>
      </trkpt>
      <trkpt lat="45.93264" lon="4.78431">
        <ele>171.2</ele>
        <time>2024-09-20T07:34:33Z</time>
      </trkpt>
      <trkpt lat="45.9326" lon="4.78434">
        <ele>171.2</ele>
        <time>2024-09-20T07:34:34Z</time>
      </trkpt>
      <trkpt lat="45.93256" lon="4.78436">
        <ele>171.2</ele>
        <time>2024-09-20T07:34:35Z</time>
      </trkpt>
      <trkpt lat="45.93252" lon="4.78439">
        <ele>171.2</ele>
        <time>2024-09-20T07:34:36Z</time>
      </trkpt>
      <trkpt lat="45.93248" lon="4.78442">
        <ele>171.2</ele>
        <time>2024-09-20T07:34:37Z</time>
      </trkpt>
      <trkpt lat="45.93244" lon="4.78445">
        <ele>171.4</ele>
        <time>2024-09-20T07:34:38Z</time>
      </trkpt>
      <trkpt lat="45.9324" lon="4.78448">
        <ele>171.4</ele>
        <time>2024-09-20T07:34:39Z</time>
      </trkpt>
      <trkpt lat="45.93236" lon="4.78451">
        <ele>171</ele>
        <time>2024-09-20T07:34:40Z</time>
      </trkpt>
      <trkpt lat="45.93232" lon="4.78454">
        <ele>171</ele>
        <time>2024-09-20T07:34:41Z</time>
      </trkpt>
      <trkpt lat="45.93228" lon="4.78456">
        <ele>171</ele>
        <time>2024-09-20T07:34:42Z</time>
      </trkpt>
      <trkpt lat="45.93224" lon="4.78459">
        <ele>171</ele>
        <time>2024-09-20T07:34:43Z</time>
      </trkpt>
      <trkpt lat="45.9322" lon="4.78462">
        <ele>171</ele>
        <time>2024-09-20T07:34:44Z</time>
      </trkpt>
      <trkpt lat="45.93215" lon="4.78465">
        <ele>171</ele>
        <time>2024-09-20T07:34:45Z</time>
      </trkpt>
      <trkpt lat="45.93211" lon="4.78468">
        <ele>171</ele>
        <time>2024-09-20T07:34:46Z</time>
      </trkpt>
      <trkpt lat="45.93207" lon="4.78471">
        <ele>171</ele>
        <time>2024-09-20T07:34:47Z</time>
      </trkpt>
      <trkpt lat="45.93203" lon="4.78474">
        <ele>171</ele>
        <time>2024-09-20T07:34:48Z</time>
      </trkpt>
      <trkpt lat="45.93199" lon="4.78477">
        <ele>171</ele>
        <time>2024-09-20T07:34:49Z</time>
      </trkpt>
      <trkpt lat="45.93194" lon="4.7848">
        <ele>171.2</ele>
        <time>2024-09-20T07:34:50Z</time>
      </trkpt>
      <trkpt lat="45.9319" lon="4.78483">
        <ele>171.2</ele>
        <time>2024-09-20T07:34:51Z</time>
      </trkpt>
      <trkpt lat="45.93186" lon="4.78486">
        <ele>171.2</ele>
        <time>2024-09-20T07:34:52Z</time>
      </trkpt>
      <trkpt lat="45.93181" lon="4.78489">
        <ele>171.2</ele>
        <time>2024-09-20T07:34:53Z</time>
      </trkpt>
      <trkpt lat="45.93177" lon="4.78492">
        <ele>170.8</ele>
        <time>2024-09-20T07:34:54Z</time>
      </trkpt>
      <trkpt lat="45.93173" lon="4.78495">
        <ele>170.8</ele>
        <time>2024-09-20T07:34:55Z</time>
      </trkpt>
      <trkpt lat="45.93168" lon="4.78499">
        <ele>170.8</ele>
        <time>2024-09-20T07:34:56Z</time>
      </trkpt>
      <trkpt lat="45.93164" lon="4.78502">
        <ele>170.8</ele>
        <time>2024-09-20T07:34:57Z</time>
      </trkpt>
      <trkpt lat="45.93159" lon="4.78505">
        <ele>170.8</ele>
        <time>2024-09-20T07:34:58Z</time>
      </trkpt>
      <trkpt lat="45.93155" lon="4.78508">
        <ele>171</ele>
        <time>2024-09-20T07:34:59Z</time>
      </trkpt>
      <trkpt lat="45.93151" lon="4.78511">
        <ele>171</ele>
        <time>2024-09-20T07:35:00Z</time>
      </trkpt>
      <trkpt lat="45.93146" lon="4.78515">
        <ele>171</ele>
        <time>2024-09-20T07:35:01Z</time>
      </trkpt>
      <trkpt lat="45.93141" lon="4.78517">
        <ele>171</ele>
        <time>2024-09-20T07:35:02Z</time>
      </trkpt>
      <trkpt lat="45.93137" lon="4.7852">
        <ele>171</ele>
        <time>2024-09-20T07:35:03Z</time>
      </trkpt>
      <trkpt lat="45.93133" lon="4.78524">
        <ele>171.2</ele>
        <time>2024-09-20T07:35:04Z</time>
      </trkpt>
      <trkpt lat="45.93129" lon="4.78527">
        <ele>171.2</ele>
        <time>2024-09-20T07:35:05Z</time>
      </trkpt>
      <trkpt lat="45.93125" lon="4.7853">
        <ele>171.2</ele>
        <time>2024-09-20T07:35:06Z</time>
      </trkpt>
      <trkpt lat="45.9312" lon="4.78533">
        <ele>171.2</ele>
        <time>2024-09-20T07:35:07Z</time>
      </trkpt>
      <trkpt lat="45.93116" lon="4.78536">
        <ele>171.2</ele>
        <time>2024-09-20T07:35:08Z</time>
      </trkpt>
      <trkpt lat="45.93112" lon="4.78539">
        <ele>171.2</ele>
        <time>2024-09-20T07:35:09Z</time>
      </trkpt>
      <trkpt lat="45.93108" lon="4.78543">
        <ele>171.2</ele>
        <time>2024-09-20T07:35:10Z</time>
      </trkpt>
      <trkpt lat="45.93103" lon="4.78546">
        <ele>171.2</ele>
        <time>2024-09-20T07:35:11Z</time>
      </trkpt>
      <trkpt lat="45.93099" lon="4.78549">
        <ele>171.2</ele>
        <time>2024-09-20T07:35:12Z</time>
      </trkpt>
      <trkpt lat="45.93094" lon="4.78552">
        <ele>171.2</ele>
        <time>2024-09-20T07:35:13Z</time>
      </trkpt>
      <trkpt lat="45.9309" lon="4.78556">
        <ele>171.2</ele>
        <time>2024-09-20T07:35:14Z</time>
      </trkpt>
      <trkpt lat="45.93086" lon="4.78559">
        <ele>171.2</ele>
        <time>2024-09-20T07:35:15Z</time>
      </trkpt>
      <trkpt lat="45.93081" lon="4.78562">
        <ele>171.2</ele>
        <time>2024-09-20T07:35:16Z</time>
      </trkpt>
      <trkpt lat="45.93077" lon="4.78565">
        <ele>171</ele>
        <time>2024-09-20T07:35:17Z</time>
      </trkpt>
      <trkpt lat="45.93072" lon="4.78568">
        <ele>171</ele>
        <time>2024-09-20T07:35:18Z</time>
      </trkpt>
      <trkpt lat="45.93068" lon="4.78571">
        <ele>171</ele>
        <time>2024-09-20T07:35:19Z</time>
      </trkpt>
      <trkpt lat="45.93063" lon="4.78575">
        <ele>171</ele>
        <time>2024-09-20T07:35:20Z</time>
      </trkpt>
      <trkpt lat="45.93059" lon="4.78578">
        <ele>171</ele>
        <time>2024-09-20T07:35:21Z</time>
      </trkpt>
      <trkpt lat="45.93054" lon="4.78581">
        <ele>171</ele>
        <time>2024-09-20T07:35:22Z</time>
      </trkpt>
      <trkpt lat="45.9305" lon="4.78584">
        <ele>171</ele>
        <time>2024-09-20T07:35:23Z</time>
      </trkpt>
      <trkpt lat="45.93045" lon="4.78588">
        <ele>171</ele>
        <time>2024-09-20T07:35:24Z</time>
      </trkpt>
      <trkpt lat="45.93041" lon="4.78591">
        <ele>171</ele>
        <time>2024-09-20T07:35:25Z</time>
      </trkpt>
      <trkpt lat="45.93036" lon="4.78594">
        <ele>171.2</ele>
        <time>2024-09-20T07:35:26Z</time>
      </trkpt>
      <trkpt lat="45.93032" lon="4.78597">
        <ele>171.2</ele>
        <time>2024-09-20T07:35:27Z</time>
      </trkpt>
      <trkpt lat="45.93028" lon="4.786">
        <ele>171.2</ele>
        <time>2024-09-20T07:35:28Z</time>
      </trkpt>
      <trkpt lat="45.93023" lon="4.78603">
        <ele>171</ele>
        <time>2024-09-20T07:35:29Z</time>
      </trkpt>
      <trkpt lat="45.93019" lon="4.78606">
        <ele>171</ele>
        <time>2024-09-20T07:35:30Z</time>
      </trkpt>
      <trkpt lat="45.93014" lon="4.78609">
        <ele>171</ele>
        <time>2024-09-20T07:35:31Z</time>
      </trkpt>
      <trkpt lat="45.9301" lon="4.78612">
        <ele>171</ele>
        <time>2024-09-20T07:35:32Z</time>
      </trkpt>
      <trkpt lat="45.93005" lon="4.78616">
        <ele>171</ele>
        <time>2024-09-20T07:35:33Z</time>
      </trkpt>
      <trkpt lat="45.93" lon="4.78619">
        <ele>171</ele>
        <time>2024-09-20T07:35:34Z</time>
      </trkpt>
      <trkpt lat="45.92996" lon="4.78623">
        <ele>171</ele>
        <time>2024-09-20T07:35:35Z</time>
      </trkpt>
      <trkpt lat="45.92992" lon="4.78626">
        <ele>171.2</ele>
        <time>2024-09-20T07:35:36Z</time>
      </trkpt>
      <trkpt lat="45.92987" lon="4.7863">
        <ele>171.2</ele>
        <time>2024-09-20T07:35:37Z</time>
      </trkpt>
      <trkpt lat="45.92983" lon="4.78633">
        <ele>171.2</ele>
        <time>2024-09-20T07:35:38Z</time>
      </trkpt>
      <trkpt lat="45.92979" lon="4.78637">
        <ele>171.2</ele>
        <time>2024-09-20T07:35:39Z</time>
      </trkpt>
      <trkpt lat="45.92974" lon="4.7864">
        <ele>171</ele>
        <time>2024-09-20T07:35:40Z</time>
      </trkpt>
      <trkpt lat="45.9297" lon="4.78644">
        <ele>171</ele>
        <time>2024-09-20T07:35:41Z</time>
      </trkpt>
      <trkpt lat="45.92966" lon="4.78648">
        <ele>171</ele>
        <time>2024-09-20T07:35:42Z</time>
      </trkpt>
      <trkpt lat="45.92961" lon="4.78651">
        <ele>171.2</ele>
        <time>2024-09-20T07:35:43Z</time>
      </trkpt>
      <trkpt lat="45.92957" lon="4.78655">
        <ele>171.4</ele>
        <time>2024-09-20T07:35:44Z</time>
      </trkpt>
      <trkpt lat="45.92953" lon="4.78658">
        <ele>171.4</ele>
        <time>2024-09-20T07:35:45Z</time>
      </trkpt>
      <trkpt lat="45.92948" lon="4.78662">
        <ele>171.4</ele>
        <time>2024-09-20T07:35:46Z</time>
      </trkpt>
      <trkpt lat="45.92944" lon="4.78665">
        <ele>171.4</ele>
        <time>2024-09-20T07:35:47Z</time>
      </trkpt>
      <trkpt lat="45.92939" lon="4.78668">
        <ele>171.2</ele>
        <time>2024-09-20T07:35:48Z</time>
      </trkpt>
      <trkpt lat="45.92935" lon="4.78671">
        <ele>171.2</ele>
        <time>2024-09-20T07:35:49Z</time>
      </trkpt>
      <trkpt lat="45.9293" lon="4.78675">
        <ele>171.2</ele>
        <time>2024-09-20T07:35:50Z</time>
      </trkpt>
      <trkpt lat="45.92926" lon="4.78678">
        <ele>171.2</ele>
        <time>2024-09-20T07:35:51Z</time>
      </trkpt>
      <trkpt lat="45.92921" lon="4.78682">
        <ele>171</ele>
        <time>2024-09-20T07:35:52Z</time>
      </trkpt>
      <trkpt lat="45.92917" lon="4.78685">
        <ele>171.2</ele>
        <time>2024-09-20T07:35:53Z</time>
      </trkpt>
      <trkpt lat="45.92912" lon="4.78688">
        <ele>171.2</ele>
        <time>2024-09-20T07:35:54Z</time>
      </trkpt>
      <trkpt lat="45.92908" lon="4.78692">
        <ele>171.2</ele>
        <time>2024-09-20T07:35:55Z</time>
      </trkpt>
      <trkpt lat="45.92903" lon="4.78695">
        <ele>171.2</ele>
        <time>2024-09-20T07:35:56Z</time>
      </trkpt>
      <trkpt lat="45.92899" lon="4.78699">
        <ele>171</ele>
        <time>2024-09-20T07:35:57Z</time>
      </trkpt>
      <trkpt lat="45.92894" lon="4.78702">
        <ele>171</ele>
        <time>2024-09-20T07:35:58Z</time>
      </trkpt>
      <trkpt lat="45.9289" lon="4.78705">
        <ele>171</ele>
        <time>2024-09-20T07:35:59Z</time>
      </trkpt>
      <trkpt lat="45.92885" lon="4.78709">
        <ele>171</ele>
        <time>2024-09-20T07:36:00Z</time>
      </trkpt>
      <trkpt lat="45.92881" lon="4.78712">
        <ele>171</ele>
        <time>2024-09-20T07:36:01Z</time>
      </trkpt>
      <trkpt lat="45.92876" lon="4.78715">
        <ele>171.2</ele>
        <time>2024-09-20T07:36:02Z</time>
      </trkpt>
      <trkpt lat="45.92872" lon="4.78718">
        <ele>171.2</ele>
        <time>2024-09-20T07:36:03Z</time>
      </trkpt>
      <trkpt lat="45.92867" lon="4.78721">
        <ele>171.2</ele>
        <time>2024-09-20T07:36:04Z</time>
      </trkpt>
      <trkpt lat="45.92863" lon="4.78724">
        <ele>171</ele>
        <time>2024-09-20T07:36:05Z</time>
      </trkpt>
      <trkpt lat="45.92858" lon="4.78728">
        <ele>171</ele>
        <time>2024-09-20T07:36:06Z</time>
      </trkpt>
      <trkpt lat="45.92854" lon="4.78731">
        <ele>170.8</ele>
        <time>2024-09-20T07:36:07Z</time>
      </trkpt>
      <trkpt lat="45.92849" lon="4.78734">
        <ele>170.8</ele>
        <time>2024-09-20T07:36:08Z</time>
      </trkpt>
      <trkpt lat="45.92845" lon="4.78737">
        <ele>170.8</ele>
        <time>2024-09-20T07:36:09Z</time>
      </trkpt>
      <trkpt lat="45.92841" lon="4.7874">
        <ele>170.8</ele>
        <time>2024-09-20T07:36:10Z</time>
      </trkpt>
      <trkpt lat="45.92836" lon="4.78743">
        <ele>170.8</ele>
        <time>2024-09-20T07:36:11Z</time>
      </trkpt>
      <trkpt lat="45.92832" lon="4.78747">
        <ele>170.8</ele>
        <time>2024-09-20T07:36:12Z</time>
      </trkpt>
      <trkpt lat="45.92828" lon="4.7875">
        <ele>170.8</ele>
        <time>2024-09-20T07:36:13Z</time>
      </trkpt>
      <trkpt lat="45.92823" lon="4.78753">
        <ele>170.8</ele>
        <time>2024-09-20T07:36:14Z</time>
      </trkpt>
      <trkpt lat="45.92819" lon="4.78756">
        <ele>170.8</ele>
        <time>2024-09-20T07:36:15Z</time>
      </trkpt>
      <trkpt lat="45.92815" lon="4.78759">
        <ele>170.8</ele>
        <time>2024-09-20T07:36:16Z</time>
      </trkpt>
      <trkpt lat="45.9281" lon="4.78761">
        <ele>170.8</ele>
        <time>2024-09-20T07:36:17Z</time>
      </trkpt>
      <trkpt lat="45.92806" lon="4.78765">
        <ele>170.8</ele>
        <time>2024-09-20T07:36:18Z</time>
      </trkpt>
      <trkpt lat="45.92801" lon="4.78768">
        <ele>170.8</ele>
        <time>2024-09-20T07:36:19Z</time>
      </trkpt>
      <trkpt lat="45.92797" lon="4.78771">
        <ele>170.8</ele>
        <time>2024-09-20T07:36:20Z</time>
      </trkpt>
      <trkpt lat="45.92792" lon="4.78774">
        <ele>171.2</ele>
        <time>2024-09-20T07:36:21Z</time>
      </trkpt>
      <trkpt lat="45.92788" lon="4.78777">
        <ele>171.2</ele>
        <time>2024-09-20T07:36:22Z</time>
      </trkpt>
      <trkpt lat="45.92783" lon="4.7878">
        <ele>171.2</ele>
        <time>2024-09-20T07:36:23Z</time>
      </trkpt>
      <trkpt lat="45.92778" lon="4.78783">
        <ele>171</ele>
        <time>2024-09-20T07:36:24Z</time>
      </trkpt>
      <trkpt lat="45.92774" lon="4.78786">
        <ele>171</ele>
        <time>2024-09-20T07:36:25Z</time>
      </trkpt>
      <trkpt lat="45.92769" lon="4.78789">
        <ele>171</ele>
        <time>2024-09-20T07:36:26Z</time>
      </trkpt>
      <trkpt lat="45.92764" lon="4.78793">
        <ele>171</ele>
        <time>2024-09-20T07:36:27Z</time>
      </trkpt>
      <trkpt lat="45.9276" lon="4.78796">
        <ele>171</ele>
        <time>2024-09-20T07:36:28Z</time>
      </trkpt>
      <trkpt lat="45.92755" lon="4.788">
        <ele>170.8</ele>
        <time>2024-09-20T07:36:29Z</time>
      </trkpt>
      <trkpt lat="45.9275" lon="4.78803">
        <ele>170.8</ele>
        <time>2024-09-20T07:36:30Z</time>
      </trkpt>
      <trkpt lat="45.92746" lon="4.78806">
        <ele>170.8</ele>
        <time>2024-09-20T07:36:31Z</time>
      </trkpt>
      <trkpt lat="45.92741" lon="4.7881">
        <ele>170.8</ele>
        <time>2024-09-20T07:36:32Z</time>
      </trkpt>
      <trkpt lat="45.92736" lon="4.78813">
        <ele>170.8</ele>
        <time>2024-09-20T07:36:33Z</time>
      </trkpt>
      <trkpt lat="45.92732" lon="4.78817">
        <ele>171</ele>
        <time>2024-09-20T07:36:34Z</time>
      </trkpt>
      <trkpt lat="45.92727" lon="4.7882">
        <ele>171</ele>
        <time>2024-09-20T07:36:35Z</time>
      </trkpt>
      <trkpt lat="45.92723" lon="4.78822">
        <ele>171</ele>
        <time>2024-09-20T07:36:36Z</time>
      </trkpt>
      <trkpt lat="45.92719" lon="4.78825">
        <ele>171</ele>
        <time>2024-09-20T07:36:37Z</time>
      </trkpt>
      <trkpt lat="45.92715" lon="4.78827">
        <ele>171</ele>
        <time>2024-09-20T07:36:38Z</time>
      </trkpt>
      <trkpt lat="45.92711" lon="4.7883">
        <ele>171</ele>
        <time>2024-09-20T07:36:39Z</time>
      </trkpt>
      <trkpt lat="45.92707" lon="4.78833">
        <ele>171</ele>
        <time>2024-09-20T07:36:40Z</time>
      </trkpt>
      <trkpt lat="45.92703" lon="4.78835">
        <ele>171</ele>
        <time>2024-09-20T07:36:41Z</time>
      </trkpt>
      <trkpt lat="45.92699" lon="4.78838">
        <ele>171</ele>
        <time>2024-09-20T07:36:42Z</time>
      </trkpt>
      <trkpt lat="45.92696" lon="4.7884">
        <ele>171</ele>
        <time>2024-09-20T07:36:43Z</time>
      </trkpt>
      <trkpt lat="45.92692" lon="4.78843">
        <ele>171</ele>
        <time>2024-09-20T07:36:44Z</time>
      </trkpt>
      <trkpt lat="45.92688" lon="4.78845">
        <ele>171</ele>
        <time>2024-09-20T07:36:45Z</time>
      </trkpt>
      <trkpt lat="45.92683" lon="4.78848">
        <ele>171</ele>
        <time>2024-09-20T07:36:46Z</time>
      </trkpt>
      <trkpt lat="45.92679" lon="4.7885">
        <ele>171</ele>
        <time>2024-09-20T07:36:47Z</time>
      </trkpt>
      <trkpt lat="45.92675" lon="4.78853">
        <ele>171</ele>
        <time>2024-09-20T07:36:48Z</time>
      </trkpt>
      <trkpt lat="45.9267" lon="4.78856">
        <ele>171</ele>
        <time>2024-09-20T07:36:49Z</time>
      </trkpt>
      <trkpt lat="45.92666" lon="4.78859">
        <ele>171</ele>
        <time>2024-09-20T07:36:50Z</time>
      </trkpt>
      <trkpt lat="45.92661" lon="4.78862">
        <ele>171</ele>
        <time>2024-09-20T07:36:51Z</time>
      </trkpt>
      <trkpt lat="45.92657" lon="4.78865">
        <ele>170.8</ele>
        <time>2024-09-20T07:36:52Z</time>
      </trkpt>
      <trkpt lat="45.92653" lon="4.78867">
        <ele>170.8</ele>
        <time>2024-09-20T07:36:53Z</time>
      </trkpt>
      <trkpt lat="45.92648" lon="4.7887">
        <ele>170.8</ele>
        <time>2024-09-20T07:36:54Z</time>
      </trkpt>
      <trkpt lat="45.92644" lon="4.78872">
        <ele>170.8</ele>
        <time>2024-09-20T07:36:55Z</time>
      </trkpt>
      <trkpt lat="45.92639" lon="4.78875">
        <ele>170.8</ele>
        <time>2024-09-20T07:36:56Z</time>
      </trkpt>
      <trkpt lat="45.92635" lon="4.78877">
        <ele>170.8</ele>
        <time>2024-09-20T07:36:57Z</time>
      </trkpt>
      <trkpt lat="45.92631" lon="4.7888">
        <ele>170.8</ele>
        <time>2024-09-20T07:36:58Z</time>
      </trkpt>
      <trkpt lat="45.92626" lon="4.78882">
        <ele>170.8</ele>
        <time>2024-09-20T07:36:59Z</time>
      </trkpt>
      <trkpt lat="45.92622" lon="4.78885">
        <ele>170.8</ele>
        <time>2024-09-20T07:37:00Z</time>
      </trkpt>
      <trkpt lat="45.92617" lon="4.78888">
        <ele>171</ele>
        <time>2024-09-20T07:37:01Z</time>
      </trkpt>
      <trkpt lat="45.92613" lon="4.7889">
        <ele>171</ele>
        <time>2024-09-20T07:37:02Z</time>
      </trkpt>
      <trkpt lat="45.92609" lon="4.78893">
        <ele>171</ele>
        <time>2024-09-20T07:37:03Z</time>
      </trkpt>
      <trkpt lat="45.92605" lon="4.78895">
        <ele>171</ele>
        <time>2024-09-20T07:37:04Z</time>
      </trkpt>
      <trkpt lat="45.926" lon="4.78898">
        <ele>171</ele>
        <time>2024-09-20T07:37:05Z</time>
      </trkpt>
      <trkpt lat="45.92596" lon="4.789">
        <ele>170.8</ele>
        <time>2024-09-20T07:37:06Z</time>
      </trkpt>
      <trkpt lat="45.92591" lon="4.78902">
        <ele>170.8</ele>
        <time>2024-09-20T07:37:07Z</time>
      </trkpt>
      <trkpt lat="45.92587" lon="4.78904">
        <ele>170.8</ele>
        <time>2024-09-20T07:37:08Z</time>
      </trkpt>
      <trkpt lat="45.92582" lon="4.78906">
        <ele>170.8</ele>
        <time>2024-09-20T07:37:09Z</time>
      </trkpt>
      <trkpt lat="45.92578" lon="4.78908">
        <ele>171</ele>
        <time>2024-09-20T07:37:10Z</time>
      </trkpt>
      <trkpt lat="45.92573" lon="4.7891">
        <ele>171</ele>
        <time>2024-09-20T07:37:11Z</time>
      </trkpt>
      <trkpt lat="45.92569" lon="4.78911">
        <ele>171</ele>
        <time>2024-09-20T07:37:12Z</time>
      </trkpt>
      <trkpt lat="45.92564" lon="4.78913">
        <ele>171</ele>
        <time>2024-09-20T07:37:13Z</time>
      </trkpt>
      <trkpt lat="45.9256" lon="4.78915">
        <ele>171</ele>
        <time>2024-09-20T07:37:14Z</time>
      </trkpt>
      <trkpt lat="45.92555" lon="4.78917">
        <ele>171</ele>
        <time>2024-09-20T07:37:15Z</time>
      </trkpt>
      <trkpt lat="45.92551" lon="4.7892">
        <ele>171</ele>
        <time>2024-09-20T07:37:16Z</time>
      </trkpt>
      <trkpt lat="45.92547" lon="4.78923">
        <ele>171</ele>
        <time>2024-09-20T07:37:17Z</time>
      </trkpt>
      <trkpt lat="45.92542" lon="4.78925">
        <ele>171</ele>
        <time>2024-09-20T07:37:18Z</time>
      </trkpt>
      <trkpt lat="45.92538" lon="4.78928">
        <ele>171</ele>
        <time>2024-09-20T07:37:19Z</time>
      </trkpt>
      <trkpt lat="45.92533" lon="4.78931">
        <ele>171</ele>
        <time>2024-09-20T07:37:20Z</time>
      </trkpt>
      <trkpt lat="45.92528" lon="4.78934">
        <ele>171</ele>
        <time>2024-09-20T07:37:21Z</time>
      </trkpt>
      <trkpt lat="45.92524" lon="4.78937">
        <ele>171</ele>
        <time>2024-09-20T07:37:22Z</time>
      </trkpt>
      <trkpt lat="45.92519" lon="4.7894">
        <ele>171</ele>
        <time>2024-09-20T07:37:23Z</time>
      </trkpt>
      <trkpt lat="45.92515" lon="4.78943">
        <ele>171</ele>
        <time>2024-09-20T07:37:24Z</time>
      </trkpt>
      <trkpt lat="45.9251" lon="4.78947">
        <ele>171</ele>
        <time>2024-09-20T07:37:25Z</time>
      </trkpt>
      <trkpt lat="45.92506" lon="4.7895">
        <ele>171</ele>
        <time>2024-09-20T07:37:26Z</time>
      </trkpt>
      <trkpt lat="45.92501" lon="4.78954">
        <ele>171</ele>
        <time>2024-09-20T07:37:27Z</time>
      </trkpt>
      <trkpt lat="45.92497" lon="4.78958">
        <ele>171</ele>
        <time>2024-09-20T07:37:28Z</time>
      </trkpt>
      <trkpt lat="45.92493" lon="4.78962">
        <ele>171</ele>
        <time>2024-09-20T07:37:29Z</time>
      </trkpt>
      <trkpt lat="45.92488" lon="4.78966">
        <ele>171</ele>
        <time>2024-09-20T07:37:30Z</time>
      </trkpt>
      <trkpt lat="45.92484" lon="4.7897">
        <ele>171</ele>
        <time>2024-09-20T07:37:31Z</time>
      </trkpt>
      <trkpt lat="45.9248" lon="4.78974">
        <ele>171</ele>
        <time>2024-09-20T07:37:32Z</time>
      </trkpt>
      <trkpt lat="45.92476" lon="4.78978">
        <ele>171</ele>
        <time>2024-09-20T07:37:33Z</time>
      </trkpt>
      <trkpt lat="45.92472" lon="4.78982">
        <ele>171</ele>
        <time>2024-09-20T07:37:34Z</time>
      </trkpt>
      <trkpt lat="45.92468" lon="4.78986">
        <ele>171.2</ele>
        <time>2024-09-20T07:37:35Z</time>
      </trkpt>
      <trkpt lat="45.92464" lon="4.7899">
        <ele>171</ele>
        <time>2024-09-20T07:37:36Z</time>
      </trkpt>
      <trkpt lat="45.9246" lon="4.78994">
        <ele>171</ele>
        <time>2024-09-20T07:37:37Z</time>
      </trkpt>
      <trkpt lat="45.92456" lon="4.78999">
        <ele>171</ele>
        <time>2024-09-20T07:37:38Z</time>
      </trkpt>
      <trkpt lat="45.92452" lon="4.79003">
        <ele>171</ele>
        <time>2024-09-20T07:37:39Z</time>
      </trkpt>
      <trkpt lat="45.92448" lon="4.79007">
        <ele>171.2</ele>
        <time>2024-09-20T07:37:40Z</time>
      </trkpt>
      <trkpt lat="45.92444" lon="4.79012">
        <ele>171.2</ele>
        <time>2024-09-20T07:37:41Z</time>
      </trkpt>
      <trkpt lat="45.9244" lon="4.79016">
        <ele>171.2</ele>
        <time>2024-09-20T07:37:42Z</time>
      </trkpt>
      <trkpt lat="45.92436" lon="4.79021">
        <ele>171.2</ele>
        <time>2024-09-20T07:37:43Z</time>
      </trkpt>
      <trkpt lat="45.92433" lon="4.79026">
        <ele>171.2</ele>
        <time>2024-09-20T07:37:44Z</time>
      </trkpt>
      <trkpt lat="45.92429" lon="4.79031">
        <ele>171.2</ele>
        <time>2024-09-20T07:37:45Z</time>
      </trkpt>
      <trkpt lat="45.92426" lon="4.79036">
        <ele>171.2</ele>
        <time>2024-09-20T07:37:46Z</time>
      </trkpt>
      <trkpt lat="45.92423" lon="4.79042">
        <ele>171.2</ele>
        <time>2024-09-20T07:37:47Z</time>
      </trkpt>
      <trkpt lat="45.9242" lon="4.79047">
        <ele>171.2</ele>
        <time>2024-09-20T07:37:48Z</time>
      </trkpt>
      <trkpt lat="45.92417" lon="4.79052">
        <ele>171.2</ele>
        <time>2024-09-20T07:37:49Z</time>
      </trkpt>
      <trkpt lat="45.92413" lon="4.79057">
        <ele>171</ele>
        <time>2024-09-20T07:37:50Z</time>
      </trkpt>
      <trkpt lat="45.9241" lon="4.79063">
        <ele>171</ele>
        <time>2024-09-20T07:37:51Z</time>
      </trkpt>
      <trkpt lat="45.92407" lon="4.79068">
        <ele>171</ele>
        <time>2024-09-20T07:37:52Z</time>
      </trkpt>
      <trkpt lat="45.92403" lon="4.79072">
        <ele>171</ele>
        <time>2024-09-20T07:37:53Z</time>
      </trkpt>
      <trkpt lat="45.924" lon="4.79077">
        <ele>171.2</ele>
        <time>2024-09-20T07:37:54Z</time>
      </trkpt>
      <trkpt lat="45.92397" lon="4.79082">
        <ele>171.2</ele>
        <time>2024-09-20T07:37:55Z</time>
      </trkpt>
      <trkpt lat="45.92393" lon="4.79088">
        <ele>171.2</ele>
        <time>2024-09-20T07:37:56Z</time>
      </trkpt>
      <trkpt lat="45.9239" lon="4.79093">
        <ele>171.2</ele>
        <time>2024-09-20T07:37:57Z</time>
      </trkpt>
      <trkpt lat="45.92387" lon="4.79098">
        <ele>171.2</ele>
        <time>2024-09-20T07:37:58Z</time>
      </trkpt>
      <trkpt lat="45.92383" lon="4.79103">
        <ele>171.2</ele>
        <time>2024-09-20T07:37:59Z</time>
      </trkpt>
      <trkpt lat="45.9238" lon="4.79108">
        <ele>171.2</ele>
        <time>2024-09-20T07:38:00Z</time>
      </trkpt>
      <trkpt lat="45.92378" lon="4.79113">
        <ele>171.2</ele>
        <time>2024-09-20T07:38:01Z</time>
      </trkpt>
      <trkpt lat="45.92375" lon="4.79118">
        <ele>171.2</ele>
        <time>2024-09-20T07:38:02Z</time>
      </trkpt>
      <trkpt lat="45.92372" lon="4.79123">
        <ele>171.2</ele>
        <time>2024-09-20T07:38:03Z</time>
      </trkpt>
      <trkpt lat="45.92369" lon="4.79128">
        <ele>171.2</ele>
        <time>2024-09-20T07:38:04Z</time>
      </trkpt>
      <trkpt lat="45.92367" lon="4.79133">
        <ele>171.2</ele>
        <time>2024-09-20T07:38:05Z</time>
      </trkpt>
      <trkpt lat="45.92364" lon="4.79138">
        <ele>171.2</ele>
        <time>2024-09-20T07:38:06Z</time>
      </trkpt>
      <trkpt lat="45.92361" lon="4.79143">
        <ele>171</ele>
        <time>2024-09-20T07:38:07Z</time>
      </trkpt>
      <trkpt lat="45.92358" lon="4.79149">
        <ele>171</ele>
        <time>2024-09-20T07:38:08Z</time>
      </trkpt>
      <trkpt lat="45.92356" lon="4.79154">
        <ele>171</ele>
        <time>2024-09-20T07:38:09Z</time>
      </trkpt>
      <trkpt lat="45.92353" lon="4.7916">
        <ele>171</ele>
        <time>2024-09-20T07:38:10Z</time>
      </trkpt>
      <trkpt lat="45.9235" lon="4.79165">
        <ele>171</ele>
        <time>2024-09-20T07:38:11Z</time>
      </trkpt>
      <trkpt lat="45.92348" lon="4.7917">
        <ele>170.8</ele>
        <time>2024-09-20T07:38:12Z</time>
      </trkpt>
      <trkpt lat="45.92345" lon="4.79176">
        <ele>170.8</ele>
        <time>2024-09-20T07:38:13Z</time>
      </trkpt>
      <trkpt lat="45.92343" lon="4.79182">
        <ele>170.8</ele>
        <time>2024-09-20T07:38:14Z</time>
      </trkpt>
      <trkpt lat="45.9234" lon="4.79188">
        <ele>170.8</ele>
        <time>2024-09-20T07:38:15Z</time>
      </trkpt>
      <trkpt lat="45.92338" lon="4.79194">
        <ele>171.2</ele>
        <time>2024-09-20T07:38:16Z</time>
      </trkpt>
      <trkpt lat="45.92336" lon="4.792">
        <ele>171.2</ele>
        <time>2024-09-20T07:38:17Z</time>
      </trkpt>
      <trkpt lat="45.92334" lon="4.79206">
        <ele>171.2</ele>
        <time>2024-09-20T07:38:18Z</time>
      </trkpt>
      <trkpt lat="45.92332" lon="4.79212">
        <ele>171.2</ele>
        <time>2024-09-20T07:38:19Z</time>
      </trkpt>
      <trkpt lat="45.9233" lon="4.79218">
        <ele>171.2</ele>
        <time>2024-09-20T07:38:20Z</time>
      </trkpt>
      <trkpt lat="45.92328" lon="4.79224">
        <ele>171.2</ele>
        <time>2024-09-20T07:38:21Z</time>
      </trkpt>
      <trkpt lat="45.92326" lon="4.7923">
        <ele>171.2</ele>
        <time>2024-09-20T07:38:22Z</time>
      </trkpt>
      <trkpt lat="45.92325" lon="4.79237">
        <ele>171.2</ele>
        <time>2024-09-20T07:38:23Z</time>
      </trkpt>
      <trkpt lat="45.92323" lon="4.79242">
        <ele>171.2</ele>
        <time>2024-09-20T07:38:24Z</time>
      </trkpt>
      <trkpt lat="45.92322" lon="4.79249">
        <ele>171.2</ele>
        <time>2024-09-20T07:38:25Z</time>
      </trkpt>
      <trkpt lat="45.92321" lon="4.79255">
        <ele>171.2</ele>
        <time>2024-09-20T07:38:26Z</time>
      </trkpt>
      <trkpt lat="45.9232" lon="4.79262">
        <ele>171.2</ele>
        <time>2024-09-20T07:38:27Z</time>
      </trkpt>
      <trkpt lat="45.92319" lon="4.79269">
        <ele>171.2</ele>
        <time>2024-09-20T07:38:28Z</time>
      </trkpt>
      <trkpt lat="45.92319" lon="4.79276">
        <ele>171.2</ele>
        <time>2024-09-20T07:38:29Z</time>
      </trkpt>
      <trkpt lat="45.92318" lon="4.79283">
        <ele>171.2</ele>
        <time>2024-09-20T07:38:30Z</time>
      </trkpt>
      <trkpt lat="45.92318" lon="4.79289">
        <ele>171</ele>
        <time>2024-09-20T07:38:31Z</time>
      </trkpt>
      <trkpt lat="45.92318" lon="4.79296">
        <ele>171</ele>
        <time>2024-09-20T07:38:32Z</time>
      </trkpt>
      <trkpt lat="45.92318" lon="4.79303">
        <ele>171</ele>
        <time>2024-09-20T07:38:33Z</time>
      </trkpt>
      <trkpt lat="45.92318" lon="4.7931">
        <ele>171</ele>
        <time>2024-09-20T07:38:34Z</time>
      </trkpt>
      <trkpt lat="45.92317" lon="4.79317">
        <ele>171.2</ele>
        <time>2024-09-20T07:38:35Z</time>
      </trkpt>
      <trkpt lat="45.92317" lon="4.79324">
        <ele>171.2</ele>
        <time>2024-09-20T07:38:36Z</time>
      </trkpt>
      <trkpt lat="45.92317" lon="4.79331">
        <ele>171.2</ele>
        <time>2024-09-20T07:38:37Z</time>
      </trkpt>
      <trkpt lat="45.92317" lon="4.79338">
        <ele>171.2</ele>
        <time>2024-09-20T07:38:38Z</time>
      </trkpt>
      <trkpt lat="45.92316" lon="4.79345">
        <ele>171.2</ele>
        <time>2024-09-20T07:38:39Z</time>
      </trkpt>
      <trkpt lat="45.92316" lon="4.79352">
        <ele>171.2</ele>
        <time>2024-09-20T07:38:40Z</time>
      </trkpt>
      <trkpt lat="45.92317" lon="4.79358">
        <ele>171.2</ele>
        <time>2024-09-20T07:38:41Z</time>
      </trkpt>
      <trkpt lat="45.92317" lon="4.79365">
        <ele>171.2</ele>
        <time>2024-09-20T07:38:42Z</time>
      </trkpt>
      <trkpt lat="45.92316" lon="4.79371">
        <ele>170.8</ele>
        <time>2024-09-20T07:38:43Z</time>
      </trkpt>
      <trkpt lat="45.92316" lon="4.79379">
        <ele>170.8</ele>
        <time>2024-09-20T07:38:44Z</time>
      </trkpt>
      <trkpt lat="45.92316" lon="4.79385">
        <ele>171.2</ele>
        <time>2024-09-20T07:38:45Z</time>
      </trkpt>
      <trkpt lat="45.92316" lon="4.79393">
        <ele>171.2</ele>
        <time>2024-09-20T07:38:46Z</time>
      </trkpt>
      <trkpt lat="45.92316" lon="4.794">
        <ele>171</ele>
        <time>2024-09-20T07:38:47Z</time>
      </trkpt>
      <trkpt lat="45.92316" lon="4.79406">
        <ele>171</ele>
        <time>2024-09-20T07:38:48Z</time>
      </trkpt>
      <trkpt lat="45.92316" lon="4.79413">
        <ele>171</ele>
        <time>2024-09-20T07:38:49Z</time>
      </trkpt>
      <trkpt lat="45.92317" lon="4.7942">
        <ele>171</ele>
        <time>2024-09-20T07:38:50Z</time>
      </trkpt>
      <trkpt lat="45.92317" lon="4.79427">
        <ele>171</ele>
        <time>2024-09-20T07:38:51Z</time>
      </trkpt>
      <trkpt lat="45.92318" lon="4.79433">
        <ele>171</ele>
        <time>2024-09-20T07:38:52Z</time>
      </trkpt>
      <trkpt lat="45.92319" lon="4.79439">
        <ele>170.8</ele>
        <time>2024-09-20T07:38:53Z</time>
      </trkpt>
      <trkpt lat="45.92319" lon="4.79446">
        <ele>170.8</ele>
        <time>2024-09-20T07:38:54Z</time>
      </trkpt>
      <trkpt lat="45.9232" lon="4.79452">
        <ele>170.8</ele>
        <time>2024-09-20T07:38:55Z</time>
      </trkpt>
      <trkpt lat="45.92321" lon="4.79459">
        <ele>171.2</ele>
        <time>2024-09-20T07:38:56Z</time>
      </trkpt>
      <trkpt lat="45.92322" lon="4.79466">
        <ele>171.6</ele>
        <time>2024-09-20T07:38:57Z</time>
      </trkpt>
      <trkpt lat="45.92323" lon="4.79473">
        <ele>171.6</ele>
        <time>2024-09-20T07:38:58Z</time>
      </trkpt>
      <trkpt lat="45.92324" lon="4.79479">
        <ele>171.6</ele>
        <time>2024-09-20T07:38:59Z</time>
      </trkpt>
      <trkpt lat="45.92325" lon="4.79485">
        <ele>171.2</ele>
        <time>2024-09-20T07:39:00Z</time>
      </trkpt>
      <trkpt lat="45.92326" lon="4.79492">
        <ele>171.2</ele>
        <time>2024-09-20T07:39:01Z</time>
      </trkpt>
      <trkpt lat="45.92327" lon="4.79499">
        <ele>171.2</ele>
        <time>2024-09-20T07:39:02Z</time>
      </trkpt>
      <trkpt lat="45.92328" lon="4.79506">
        <ele>171.2</ele>
        <time>2024-09-20T07:39:03Z</time>
      </trkpt>
      <trkpt lat="45.92329" lon="4.79513">
        <ele>171.2</ele>
        <time>2024-09-20T07:39:04Z</time>
      </trkpt>
      <trkpt lat="45.9233" lon="4.7952">
        <ele>171.2</ele>
        <time>2024-09-20T07:39:05Z</time>
      </trkpt>
      <trkpt lat="45.92331" lon="4.79527">
        <ele>171.2</ele>
        <time>2024-09-20T07:39:06Z</time>
      </trkpt>
      <trkpt lat="45.92332" lon="4.79535">
        <ele>171.2</ele>
        <time>2024-09-20T07:39:07Z</time>
      </trkpt>
      <trkpt lat="45.92332" lon="4.79542">
        <ele>171.2</ele>
        <time>2024-09-20T07:39:08Z</time>
      </trkpt>
      <trkpt lat="45.92333" lon="4.79549">
        <ele>171.2</ele>
        <time>2024-09-20T07:39:09Z</time>
      </trkpt>
      <trkpt lat="45.92334" lon="4.79557">
        <ele>171.2</ele>
        <time>2024-09-20T07:39:10Z</time>
      </trkpt>
      <trkpt lat="45.92334" lon="4.79564">
        <ele>171.2</ele>
        <time>2024-09-20T07:39:11Z</time>
      </trkpt>
      <trkpt lat="45.92335" lon="4.79571">
        <ele>171.2</ele>
        <time>2024-09-20T07:39:12Z</time>
      </trkpt>
      <trkpt lat="45.92336" lon="4.79578">
        <ele>171.2</ele>
        <time>2024-09-20T07:39:13Z</time>
      </trkpt>
      <trkpt lat="45.92337" lon="4.79584">
        <ele>171.4</ele>
        <time>2024-09-20T07:39:14Z</time>
      </trkpt>
      <trkpt lat="45.92337" lon="4.79591">
        <ele>171.4</ele>
        <time>2024-09-20T07:39:15Z</time>
      </trkpt>
      <trkpt lat="45.92338" lon="4.79597">
        <ele>171.4</ele>
        <time>2024-09-20T07:39:16Z</time>
      </trkpt>
      <trkpt lat="45.92339" lon="4.79604">
        <ele>171.4</ele>
        <time>2024-09-20T07:39:17Z</time>
      </trkpt>
      <trkpt lat="45.92339" lon="4.7961">
        <ele>171.4</ele>
        <time>2024-09-20T07:39:18Z</time>
      </trkpt>
      <trkpt lat="45.9234" lon="4.79615">
        <ele>171.4</ele>
        <time>2024-09-20T07:39:19Z</time>
      </trkpt>
      <trkpt lat="45.9234" lon="4.79621">
        <ele>171.6</ele>
        <time>2024-09-20T07:39:20Z</time>
      </trkpt>
      <trkpt lat="45.92342" lon="4.79627">
        <ele>171.6</ele>
        <time>2024-09-20T07:39:21Z</time>
      </trkpt>
      <trkpt lat="45.92342" lon="4.79633">
        <ele>171.6</ele>
        <time>2024-09-20T07:39:22Z</time>
      </trkpt>
      <trkpt lat="45.92343" lon="4.79639">
        <ele>171.6</ele>
        <time>2024-09-20T07:39:23Z</time>
      </trkpt>
      <trkpt lat="45.92343" lon="4.79645">
        <ele>171.4</ele>
        <time>2024-09-20T07:39:24Z</time>
      </trkpt>
      <trkpt lat="45.92344" lon="4.79651">
        <ele>171.4</ele>
        <time>2024-09-20T07:39:25Z</time>
      </trkpt>
      <trkpt lat="45.92345" lon="4.79658">
        <ele>171.4</ele>
        <time>2024-09-20T07:39:26Z</time>
      </trkpt>
      <trkpt lat="45.92347" lon="4.79665">
        <ele>171.4</ele>
        <time>2024-09-20T07:39:27Z</time>
      </trkpt>
      <trkpt lat="45.92348" lon="4.79671">
        <ele>171</ele>
        <time>2024-09-20T07:39:28Z</time>
      </trkpt>
      <trkpt lat="45.92349" lon="4.79677">
        <ele>171.4</ele>
        <time>2024-09-20T07:39:29Z</time>
      </trkpt>
      <trkpt lat="45.9235" lon="4.79683">
        <ele>171.4</ele>
        <time>2024-09-20T07:39:30Z</time>
      </trkpt>
      <trkpt lat="45.92351" lon="4.7969">
        <ele>171.4</ele>
        <time>2024-09-20T07:39:31Z</time>
      </trkpt>
      <trkpt lat="45.92351" lon="4.79696">
        <ele>171.2</ele>
        <time>2024-09-20T07:39:32Z</time>
      </trkpt>
      <trkpt lat="45.92352" lon="4.79703">
        <ele>171.2</ele>
        <time>2024-09-20T07:39:33Z</time>
      </trkpt>
      <trkpt lat="45.92353" lon="4.7971">
        <ele>171.2</ele>
        <time>2024-09-20T07:39:34Z</time>
      </trkpt>
      <trkpt lat="45.92353" lon="4.79716">
        <ele>171.2</ele>
        <time>2024-09-20T07:39:35Z</time>
      </trkpt>
      <trkpt lat="45.92354" lon="4.79723">
        <ele>171.2</ele>
        <time>2024-09-20T07:39:36Z</time>
      </trkpt>
      <trkpt lat="45.92354" lon="4.7973">
        <ele>171</ele>
        <time>2024-09-20T07:39:37Z</time>
      </trkpt>
      <trkpt lat="45.92354" lon="4.79737">
        <ele>171</ele>
        <time>2024-09-20T07:39:38Z</time>
      </trkpt>
      <trkpt lat="45.92354" lon="4.79743">
        <ele>171</ele>
        <time>2024-09-20T07:39:39Z</time>
      </trkpt>
      <trkpt lat="45.92355" lon="4.7975">
        <ele>171</ele>
        <time>2024-09-20T07:39:40Z</time>
      </trkpt>
      <trkpt lat="45.92355" lon="4.79758">
        <ele>171.2</ele>
        <time>2024-09-20T07:39:41Z</time>
      </trkpt>
      <trkpt lat="45.92355" lon="4.79764">
        <ele>171.2</ele>
        <time>2024-09-20T07:39:42Z</time>
      </trkpt>
      <trkpt lat="45.92356" lon="4.7977">
        <ele>171.2</ele>
        <time>2024-09-20T07:39:43Z</time>
      </trkpt>
      <trkpt lat="45.92357" lon="4.79777">
        <ele>171.2</ele>
        <time>2024-09-20T07:39:44Z</time>
      </trkpt>
      <trkpt lat="45.92357" lon="4.79784">
        <ele>171.2</ele>
        <time>2024-09-20T07:39:45Z</time>
      </trkpt>
      <trkpt lat="45.92358" lon="4.79791">
        <ele>171</ele>
        <time>2024-09-20T07:39:46Z</time>
      </trkpt>
      <trkpt lat="45.92358" lon="4.79798">
        <ele>171</ele>
        <time>2024-09-20T07:39:47Z</time>
      </trkpt>
      <trkpt lat="45.92359" lon="4.79806">
        <ele>171</ele>
        <time>2024-09-20T07:39:48Z</time>
      </trkpt>
      <trkpt lat="45.9236" lon="4.79813">
        <ele>171</ele>
        <time>2024-09-20T07:39:49Z</time>
      </trkpt>
      <trkpt lat="45.92361" lon="4.7982">
        <ele>171.4</ele>
        <time>2024-09-20T07:39:50Z</time>
      </trkpt>
      <trkpt lat="45.92361" lon="4.79828">
        <ele>171.4</ele>
        <time>2024-09-20T07:39:51Z</time>
      </trkpt>
      <trkpt lat="45.92362" lon="4.79834">
        <ele>171.4</ele>
        <time>2024-09-20T07:39:52Z</time>
      </trkpt>
      <trkpt lat="45.92362" lon="4.79841">
        <ele>171.4</ele>
        <time>2024-09-20T07:39:53Z</time>
      </trkpt>
      <trkpt lat="45.92363" lon="4.79847">
        <ele>171.4</ele>
        <time>2024-09-20T07:39:54Z</time>
      </trkpt>
      <trkpt lat="45.92364" lon="4.79853">
        <ele>171.4</ele>
        <time>2024-09-20T07:39:55Z</time>
      </trkpt>
      <trkpt lat="45.92365" lon="4.79858">
        <ele>171.8</ele>
        <time>2024-09-20T07:39:56Z</time>
      </trkpt>
      <trkpt lat="45.92365" lon="4.79864">
        <ele>171.8</ele>
        <time>2024-09-20T07:39:57Z</time>
      </trkpt>
      <trkpt lat="45.92366" lon="4.79869">
        <ele>171.8</ele>
        <time>2024-09-20T07:39:58Z</time>
      </trkpt>
      <trkpt lat="45.92367" lon="4.79875">
        <ele>172</ele>
        <time>2024-09-20T07:39:59Z</time>
      </trkpt>
      <trkpt lat="45.92367" lon="4.7988">
        <ele>172</ele>
        <time>2024-09-20T07:40:00Z</time>
      </trkpt>
      <trkpt lat="45.92368" lon="4.79886">
        <ele>172</ele>
        <time>2024-09-20T07:40:01Z</time>
      </trkpt>
      <trkpt lat="45.92367" lon="4.79892">
        <ele>172</ele>
        <time>2024-09-20T07:40:02Z</time>
      </trkpt>
      <trkpt lat="45.92367" lon="4.79898">
        <ele>172.2</ele>
        <time>2024-09-20T07:40:03Z</time>
      </trkpt>
      <trkpt lat="45.92367" lon="4.79904">
        <ele>172.6</ele>
        <time>2024-09-20T07:40:04Z</time>
      </trkpt>
      <trkpt lat="45.92367" lon="4.79909">
        <ele>172.6</ele>
        <time>2024-09-20T07:40:05Z</time>
      </trkpt>
      <trkpt lat="45.92367" lon="4.79915">
        <ele>172.6</ele>
        <time>2024-09-20T07:40:06Z</time>
      </trkpt>
      <trkpt lat="45.92367" lon="4.7992">
        <ele>172.6</ele>
        <time>2024-09-20T07:40:07Z</time>
      </trkpt>
      <trkpt lat="45.92367" lon="4.79925">
        <ele>172.6</ele>
        <time>2024-09-20T07:40:08Z</time>
      </trkpt>
      <trkpt lat="45.92367" lon="4.79931">
        <ele>172.4</ele>
        <time>2024-09-20T07:40:09Z</time>
      </trkpt>
      <trkpt lat="45.92368" lon="4.79937">
        <ele>172.4</ele>
        <time>2024-09-20T07:40:10Z</time>
      </trkpt>
      <trkpt lat="45.92368" lon="4.79943">
        <ele>172.4</ele>
        <time>2024-09-20T07:40:11Z</time>
      </trkpt>
      <trkpt lat="45.92369" lon="4.79949">
        <ele>172.2</ele>
        <time>2024-09-20T07:40:12Z</time>
      </trkpt>
      <trkpt lat="45.92369" lon="4.79955">
        <ele>172.4</ele>
        <time>2024-09-20T07:40:13Z</time>
      </trkpt>
      <trkpt lat="45.9237" lon="4.79961">
        <ele>172.4</ele>
        <time>2024-09-20T07:40:14Z</time>
      </trkpt>
      <trkpt lat="45.9237" lon="4.79968">
        <ele>172.4</ele>
        <time>2024-09-20T07:40:15Z</time>
      </trkpt>
      <trkpt lat="45.9237" lon="4.79974">
        <ele>172</ele>
        <time>2024-09-20T07:40:16Z</time>
      </trkpt>
      <trkpt lat="45.92371" lon="4.7998">
        <ele>172</ele>
        <time>2024-09-20T07:40:17Z</time>
      </trkpt>
      <trkpt lat="45.92371" lon="4.79987">
        <ele>171.8</ele>
        <time>2024-09-20T07:40:18Z</time>
      </trkpt>
      <trkpt lat="45.92372" lon="4.79994">
        <ele>171.8</ele>
        <time>2024-09-20T07:40:19Z</time>
      </trkpt>
      <trkpt lat="45.92372" lon="4.8">
        <ele>171.8</ele>
        <time>2024-09-20T07:40:20Z</time>
      </trkpt>
      <trkpt lat="45.92373" lon="4.80007">
        <ele>172</ele>
        <time>2024-09-20T07:40:21Z</time>
      </trkpt>
      <trkpt lat="45.92373" lon="4.80013">
        <ele>171.8</ele>
        <time>2024-09-20T07:40:22Z</time>
      </trkpt>
      <trkpt lat="45.92374" lon="4.8002">
        <ele>171.8</ele>
        <time>2024-09-20T07:40:23Z</time>
      </trkpt>
      <trkpt lat="45.92374" lon="4.80027">
        <ele>171.8</ele>
        <time>2024-09-20T07:40:24Z</time>
      </trkpt>
      <trkpt lat="45.92374" lon="4.80033">
        <ele>171.8</ele>
        <time>2024-09-20T07:40:25Z</time>
      </trkpt>
      <trkpt lat="45.92375" lon="4.80039">
        <ele>171.8</ele>
        <time>2024-09-20T07:40:26Z</time>
      </trkpt>
      <trkpt lat="45.92375" lon="4.80045">
        <ele>171.8</ele>
        <time>2024-09-20T07:40:27Z</time>
      </trkpt>
      <trkpt lat="45.92376" lon="4.80051">
        <ele>171.8</ele>
        <time>2024-09-20T07:40:28Z</time>
      </trkpt>
      <trkpt lat="45.92376" lon="4.80057">
        <ele>171.8</ele>
        <time>2024-09-20T07:40:29Z</time>
      </trkpt>
      <trkpt lat="45.92377" lon="4.80063">
        <ele>171.8</ele>
        <time>2024-09-20T07:40:30Z</time>
      </trkpt>
      <trkpt lat="45.92377" lon="4.80069">
        <ele>172</ele>
        <time>2024-09-20T07:40:31Z</time>
      </trkpt>
      <trkpt lat="45.92377" lon="4.80076">
        <ele>172</ele>
        <time>2024-09-20T07:40:32Z</time>
      </trkpt>
      <trkpt lat="45.92377" lon="4.80082">
        <ele>172</ele>
        <time>2024-09-20T07:40:33Z</time>
      </trkpt>
      <trkpt lat="45.92377" lon="4.80089">
        <ele>172</ele>
        <time>2024-09-20T07:40:34Z</time>
      </trkpt>
      <trkpt lat="45.92378" lon="4.80095">
        <ele>172</ele>
        <time>2024-09-20T07:40:35Z</time>
      </trkpt>
      <trkpt lat="45.92378" lon="4.80102">
        <ele>171.8</ele>
        <time>2024-09-20T07:40:36Z</time>
      </trkpt>
      <trkpt lat="45.92378" lon="4.80109">
        <ele>171.8</ele>
        <time>2024-09-20T07:40:37Z</time>
      </trkpt>
      <trkpt lat="45.92377" lon="4.80116">
        <ele>171.8</ele>
        <time>2024-09-20T07:40:38Z</time>
      </trkpt>
      <trkpt lat="45.92377" lon="4.80122">
        <ele>171.8</ele>
        <time>2024-09-20T07:40:39Z</time>
      </trkpt>
      <trkpt lat="45.92377" lon="4.80129">
        <ele>171.8</ele>
        <time>2024-09-20T07:40:40Z</time>
      </trkpt>
      <trkpt lat="45.92376" lon="4.80136">
        <ele>171.8</ele>
        <time>2024-09-20T07:40:41Z</time>
      </trkpt>
      <trkpt lat="45.92376" lon="4.80143">
        <ele>171.8</ele>
        <time>2024-09-20T07:40:42Z</time>
      </trkpt>
      <trkpt lat="45.92375" lon="4.8015">
        <ele>171.4</ele>
        <time>2024-09-20T07:40:43Z</time>
      </trkpt>
      <trkpt lat="45.92375" lon="4.80157">
        <ele>171.4</ele>
        <time>2024-09-20T07:40:44Z</time>
      </trkpt>
      <trkpt lat="45.92374" lon="4.80163">
        <ele>171.6</ele>
        <time>2024-09-20T07:40:45Z</time>
      </trkpt>
      <trkpt lat="45.92374" lon="4.8017">
        <ele>171.6</ele>
        <time>2024-09-20T07:40:46Z</time>
      </trkpt>
      <trkpt lat="45.92373" lon="4.80177">
        <ele>171.6</ele>
        <time>2024-09-20T07:40:47Z</time>
      </trkpt>
      <trkpt lat="45.92372" lon="4.80183">
        <ele>171.2</ele>
        <time>2024-09-20T07:40:48Z</time>
      </trkpt>
      <trkpt lat="45.92372" lon="4.8019">
        <ele>171.2</ele>
        <time>2024-09-20T07:40:49Z</time>
      </trkpt>
      <trkpt lat="45.92371" lon="4.80196">
        <ele>171.2</ele>
        <time>2024-09-20T07:40:50Z</time>
      </trkpt>
      <trkpt lat="45.9237" lon="4.80202">
        <ele>171.2</ele>
        <time>2024-09-20T07:40:51Z</time>
      </trkpt>
      <trkpt lat="45.92369" lon="4.80209">
        <ele>171.6</ele>
        <time>2024-09-20T07:40:52Z</time>
      </trkpt>
      <trkpt lat="45.92368" lon="4.80215">
        <ele>171.4</ele>
        <time>2024-09-20T07:40:53Z</time>
      </trkpt>
      <trkpt lat="45.92367" lon="4.80222">
        <ele>171.4</ele>
        <time>2024-09-20T07:40:54Z</time>
      </trkpt>
      <trkpt lat="45.92366" lon="4.80228">
        <ele>171.4</ele>
        <time>2024-09-20T07:40:55Z</time>
      </trkpt>
      <trkpt lat="45.92365" lon="4.80235">
        <ele>171.4</ele>
        <time>2024-09-20T07:40:56Z</time>
      </trkpt>
      <trkpt lat="45.92364" lon="4.80241">
        <ele>171.4</ele>
        <time>2024-09-20T07:40:57Z</time>
      </trkpt>
      <trkpt lat="45.92362" lon="4.80248">
        <ele>171.2</ele>
        <time>2024-09-20T07:40:58Z</time>
      </trkpt>
      <trkpt lat="45.92361" lon="4.80255">
        <ele>171.2</ele>
        <time>2024-09-20T07:40:59Z</time>
      </trkpt>
      <trkpt lat="45.9236" lon="4.80261">
        <ele>171.2</ele>
        <time>2024-09-20T07:41:00Z</time>
      </trkpt>
      <trkpt lat="45.92359" lon="4.80267">
        <ele>171.2</ele>
        <time>2024-09-20T07:41:01Z</time>
      </trkpt>
      <trkpt lat="45.92358" lon="4.80272">
        <ele>171.4</ele>
        <time>2024-09-20T07:41:02Z</time>
      </trkpt>
      <trkpt lat="45.92357" lon="4.80276">
        <ele>171.4</ele>
        <time>2024-09-20T07:41:03Z</time>
      </trkpt>
      <trkpt lat="45.92356" lon="4.80279">
        <ele>171.4</ele>
        <time>2024-09-20T07:41:04Z</time>
      </trkpt>
      <trkpt lat="45.92356" lon="4.80281">
        <ele>171.4</ele>
        <time>2024-09-20T07:41:05Z</time>
      </trkpt>
      <trkpt lat="45.92356" lon="4.80282">
        <ele>171.4</ele>
        <time>2024-09-20T07:41:06Z</time>
      </trkpt>
      <trkpt lat="45.92356" lon="4.80282">
        <ele>171.4</ele>
        <time>2024-09-20T07:41:07Z</time>
      </trkpt>
      <trkpt lat="45.92356" lon="4.80282">
        <ele>171.4</ele>
        <time>2024-09-20T07:41:08Z</time>
      </trkpt>
      <trkpt lat="45.92358" lon="4.8029">
        <ele>171.2</ele>
        <time>2024-09-20T07:41:52Z</time>
      </trkpt>
      <trkpt lat="45.92357" lon="4.80293">
        <ele>171.2</ele>
        <time>2024-09-20T07:41:53Z</time>
      </trkpt>
      <trkpt lat="45.92356" lon="4.80297">
        <ele>171.2</ele>
        <time>2024-09-20T07:41:54Z</time>
      </trkpt>
      <trkpt lat="45.92355" lon="4.80301">
        <ele>171.2</ele>
        <time>2024-09-20T07:41:55Z</time>
      </trkpt>
      <trkpt lat="45.92355" lon="4.80305">
        <ele>171.2</ele>
        <time>2024-09-20T07:41:56Z</time>
      </trkpt>
      <trkpt lat="45.92354" lon="4.80311">
        <ele>171.2</ele>
        <time>2024-09-20T07:41:57Z</time>
      </trkpt>
      <trkpt lat="45.92353" lon="4.80317">
        <ele>171.2</ele>
        <time>2024-09-20T07:41:58Z</time>
      </trkpt>
      <trkpt lat="45.92352" lon="4.80322">
        <ele>171.4</ele>
        <time>2024-09-20T07:41:59Z</time>
      </trkpt>
      <trkpt lat="45.9235" lon="4.80328">
        <ele>171.4</ele>
        <time>2024-09-20T07:42:00Z</time>
      </trkpt>
      <trkpt lat="45.92349" lon="4.80334">
        <ele>171.4</ele>
        <time>2024-09-20T07:42:01Z</time>
      </trkpt>
      <trkpt lat="45.92348" lon="4.8034">
        <ele>171.4</ele>
        <time>2024-09-20T07:42:02Z</time>
      </trkpt>
      <trkpt lat="45.92347" lon="4.80346">
        <ele>171.4</ele>
        <time>2024-09-20T07:42:03Z</time>
      </trkpt>
      <trkpt lat="45.92346" lon="4.80352">
        <ele>171.4</ele>
        <time>2024-09-20T07:42:04Z</time>
      </trkpt>
      <trkpt lat="45.92344" lon="4.80359">
        <ele>171.4</ele>
        <time>2024-09-20T07:42:05Z</time>
      </trkpt>
      <trkpt lat="45.92343" lon="4.80365">
        <ele>171.4</ele>
        <time>2024-09-20T07:42:06Z</time>
      </trkpt>
      <trkpt lat="45.92342" lon="4.80372">
        <ele>171.6</ele>
        <time>2024-09-20T07:42:07Z</time>
      </trkpt>
      <trkpt lat="45.92341" lon="4.80378">
        <ele>171.6</ele>
        <time>2024-09-20T07:42:08Z</time>
      </trkpt>
      <trkpt lat="45.9234" lon="4.80385">
        <ele>171.8</ele>
        <time>2024-09-20T07:42:09Z</time>
      </trkpt>
      <trkpt lat="45.92339" lon="4.80392">
        <ele>171.8</ele>
        <time>2024-09-20T07:42:10Z</time>
      </trkpt>
      <trkpt lat="45.92338" lon="4.80399">
        <ele>171.6</ele>
        <time>2024-09-20T07:42:11Z</time>
      </trkpt>
      <trkpt lat="45.92337" lon="4.80405">
        <ele>171.6</ele>
        <time>2024-09-20T07:42:12Z</time>
      </trkpt>
      <trkpt lat="45.92336" lon="4.80412">
        <ele>171.6</ele>
        <time>2024-09-20T07:42:13Z</time>
      </trkpt>
      <trkpt lat="45.92335" lon="4.80419">
        <ele>171.6</ele>
        <time>2024-09-20T07:42:14Z</time>
      </trkpt>
      <trkpt lat="45.92333" lon="4.80425">
        <ele>171.6</ele>
        <time>2024-09-20T07:42:15Z</time>
      </trkpt>
      <trkpt lat="45.92333" lon="4.80432">
        <ele>171.6</ele>
        <time>2024-09-20T07:42:16Z</time>
      </trkpt>
      <trkpt lat="45.92332" lon="4.80439">
        <ele>171.6</ele>
        <time>2024-09-20T07:42:17Z</time>
      </trkpt>
      <trkpt lat="45.92331" lon="4.80445">
        <ele>171.6</ele>
        <time>2024-09-20T07:42:18Z</time>
      </trkpt>
      <trkpt lat="45.9233" lon="4.80451">
        <ele>171.6</ele>
        <time>2024-09-20T07:42:19Z</time>
      </trkpt>
      <trkpt lat="45.92329" lon="4.80457">
        <ele>171.6</ele>
        <time>2024-09-20T07:42:20Z</time>
      </trkpt>
      <trkpt lat="45.92328" lon="4.80464">
        <ele>171.6</ele>
        <time>2024-09-20T07:42:21Z</time>
      </trkpt>
      <trkpt lat="45.92327" lon="4.8047">
        <ele>171.6</ele>
        <time>2024-09-20T07:42:22Z</time>
      </trkpt>
      <trkpt lat="45.92326" lon="4.80477">
        <ele>171.6</ele>
        <time>2024-09-20T07:42:23Z</time>
      </trkpt>
      <trkpt lat="45.92325" lon="4.80483">
        <ele>171.6</ele>
        <time>2024-09-20T07:42:24Z</time>
      </trkpt>
      <trkpt lat="45.92324" lon="4.8049">
        <ele>171.6</ele>
        <time>2024-09-20T07:42:25Z</time>
      </trkpt>
      <trkpt lat="45.92323" lon="4.80496">
        <ele>171.6</ele>
        <time>2024-09-20T07:42:26Z</time>
      </trkpt>
      <trkpt lat="45.92322" lon="4.80503">
        <ele>171.6</ele>
        <time>2024-09-20T07:42:27Z</time>
      </trkpt>
      <trkpt lat="45.92321" lon="4.80509">
        <ele>171.6</ele>
        <time>2024-09-20T07:42:28Z</time>
      </trkpt>
      <trkpt lat="45.92319" lon="4.80516">
        <ele>171.4</ele>
        <time>2024-09-20T07:42:29Z</time>
      </trkpt>
      <trkpt lat="45.92318" lon="4.80523">
        <ele>171.2</ele>
        <time>2024-09-20T07:42:30Z</time>
      </trkpt>
      <trkpt lat="45.92317" lon="4.80529">
        <ele>171.2</ele>
        <time>2024-09-20T07:42:31Z</time>
      </trkpt>
      <trkpt lat="45.92316" lon="4.80536">
        <ele>171.2</ele>
        <time>2024-09-20T07:42:32Z</time>
      </trkpt>
      <trkpt lat="45.92315" lon="4.80543">
        <ele>171.4</ele>
        <time>2024-09-20T07:42:33Z</time>
      </trkpt>
      <trkpt lat="45.92314" lon="4.80549">
        <ele>171.4</ele>
        <time>2024-09-20T07:42:34Z</time>
      </trkpt>
      <trkpt lat="45.92313" lon="4.80554">
        <ele>171.4</ele>
        <time>2024-09-20T07:42:35Z</time>
      </trkpt>
      <trkpt lat="45.92312" lon="4.80561">
        <ele>171.4</ele>
        <time>2024-09-20T07:42:36Z</time>
      </trkpt>
      <trkpt lat="45.9231" lon="4.80567">
        <ele>171.4</ele>
        <time>2024-09-20T07:42:37Z</time>
      </trkpt>
      <trkpt lat="45.92309" lon="4.80573">
        <ele>171.4</ele>
        <time>2024-09-20T07:42:38Z</time>
      </trkpt>
      <trkpt lat="45.92308" lon="4.8058">
        <ele>171.4</ele>
        <time>2024-09-20T07:42:39Z</time>
      </trkpt>
      <trkpt lat="45.92307" lon="4.80587">
        <ele>171.6</ele>
        <time>2024-09-20T07:42:40Z</time>
      </trkpt>
      <trkpt lat="45.92306" lon="4.80594">
        <ele>171.6</ele>
        <time>2024-09-20T07:42:41Z</time>
      </trkpt>
      <trkpt lat="45.92304" lon="4.806">
        <ele>171.6</ele>
        <time>2024-09-20T07:42:42Z</time>
      </trkpt>
      <trkpt lat="45.92303" lon="4.80607">
        <ele>171.2</ele>
        <time>2024-09-20T07:42:43Z</time>
      </trkpt>
      <trkpt lat="45.92301" lon="4.80613">
        <ele>171.2</ele>
        <time>2024-09-20T07:42:44Z</time>
      </trkpt>
      <trkpt lat="45.923" lon="4.8062">
        <ele>171.2</ele>
        <time>2024-09-20T07:42:45Z</time>
      </trkpt>
      <trkpt lat="45.92298" lon="4.80626">
        <ele>171.2</ele>
        <time>2024-09-20T07:42:46Z</time>
      </trkpt>
      <trkpt lat="45.92297" lon="4.80633">
        <ele>171.2</ele>
        <time>2024-09-20T07:42:47Z</time>
      </trkpt>
      <trkpt lat="45.92296" lon="4.80639">
        <ele>171.2</ele>
        <time>2024-09-20T07:42:48Z</time>
      </trkpt>
      <trkpt lat="45.92294" lon="4.80646">
        <ele>171.2</ele>
        <time>2024-09-20T07:42:49Z</time>
      </trkpt>
      <trkpt lat="45.92293" lon="4.80653">
        <ele>171.2</ele>
        <time>2024-09-20T07:42:50Z</time>
      </trkpt>
      <trkpt lat="45.92291" lon="4.80659">
        <ele>171.2</ele>
        <time>2024-09-20T07:42:51Z</time>
      </trkpt>
      <trkpt lat="45.9229" lon="4.80665">
        <ele>171.2</ele>
        <time>2024-09-20T07:42:52Z</time>
      </trkpt>
      <trkpt lat="45.92288" lon="4.80672">
        <ele>171.2</ele>
        <time>2024-09-20T07:42:53Z</time>
      </trkpt>
      <trkpt lat="45.92287" lon="4.80679">
        <ele>171.2</ele>
        <time>2024-09-20T07:42:54Z</time>
      </trkpt>
      <trkpt lat="45.92285" lon="4.80685">
        <ele>171.2</ele>
        <time>2024-09-20T07:42:55Z</time>
      </trkpt>
      <trkpt lat="45.92284" lon="4.80692">
        <ele>171.2</ele>
        <time>2024-09-20T07:42:56Z</time>
      </trkpt>
      <trkpt lat="45.92283" lon="4.80698">
        <ele>171.2</ele>
        <time>2024-09-20T07:42:57Z</time>
      </trkpt>
      <trkpt lat="45.92281" lon="4.80705">
        <ele>171.2</ele>
        <time>2024-09-20T07:42:58Z</time>
      </trkpt>
      <trkpt lat="45.92279" lon="4.80711">
        <ele>171.2</ele>
        <time>2024-09-20T07:42:59Z</time>
      </trkpt>
      <trkpt lat="45.92277" lon="4.80718">
        <ele>171.2</ele>
        <time>2024-09-20T07:43:00Z</time>
      </trkpt>
      <trkpt lat="45.92276" lon="4.80724">
        <ele>171</ele>
        <time>2024-09-20T07:43:01Z</time>
      </trkpt>
      <trkpt lat="45.92274" lon="4.80731">
        <ele>171</ele>
        <time>2024-09-20T07:43:02Z</time>
      </trkpt>
      <trkpt lat="45.92272" lon="4.80737">
        <ele>171</ele>
        <time>2024-09-20T07:43:03Z</time>
      </trkpt>
      <trkpt lat="45.9227" lon="4.80743">
        <ele>171</ele>
        <time>2024-09-20T07:43:04Z</time>
      </trkpt>
      <trkpt lat="45.92268" lon="4.80749">
        <ele>171.4</ele>
        <time>2024-09-20T07:43:05Z</time>
      </trkpt>
      <trkpt lat="45.92266" lon="4.80755">
        <ele>171.2</ele>
        <time>2024-09-20T07:43:06Z</time>
      </trkpt>
      <trkpt lat="45.92264" lon="4.80761">
        <ele>171.2</ele>
        <time>2024-09-20T07:43:07Z</time>
      </trkpt>
      <trkpt lat="45.92261" lon="4.80768">
        <ele>171.2</ele>
        <time>2024-09-20T07:43:08Z</time>
      </trkpt>
      <trkpt lat="45.92259" lon="4.80774">
        <ele>171.2</ele>
        <time>2024-09-20T07:43:09Z</time>
      </trkpt>
      <trkpt lat="45.92257" lon="4.8078">
        <ele>171.2</ele>
        <time>2024-09-20T07:43:10Z</time>
      </trkpt>
      <trkpt lat="45.92255" lon="4.80786">
        <ele>171.2</ele>
        <time>2024-09-20T07:43:11Z</time>
      </trkpt>
      <trkpt lat="45.92252" lon="4.80792">
        <ele>171.2</ele>
        <time>2024-09-20T07:43:12Z</time>
      </trkpt>
      <trkpt lat="45.9225" lon="4.80798">
        <ele>171.2</ele>
        <time>2024-09-20T07:43:13Z</time>
      </trkpt>
      <trkpt lat="45.92247" lon="4.80804">
        <ele>171.2</ele>
        <time>2024-09-20T07:43:14Z</time>
      </trkpt>
      <trkpt lat="45.92244" lon="4.80809">
        <ele>171.2</ele>
        <time>2024-09-20T07:43:15Z</time>
      </trkpt>
      <trkpt lat="45.92242" lon="4.80815">
        <ele>171.2</ele>
        <time>2024-09-20T07:43:16Z</time>
      </trkpt>
      <trkpt lat="45.92239" lon="4.8082">
        <ele>171.2</ele>
        <time>2024-09-20T07:43:17Z</time>
      </trkpt>
      <trkpt lat="45.92237" lon="4.80826">
        <ele>171.2</ele>
        <time>2024-09-20T07:43:18Z</time>
      </trkpt>
      <trkpt lat="45.92234" lon="4.80832">
        <ele>171</ele>
        <time>2024-09-20T07:43:19Z</time>
      </trkpt>
      <trkpt lat="45.92231" lon="4.80837">
        <ele>171.2</ele>
        <time>2024-09-20T07:43:20Z</time>
      </trkpt>
      <trkpt lat="45.92229" lon="4.80843">
        <ele>171.2</ele>
        <time>2024-09-20T07:43:21Z</time>
      </trkpt>
      <trkpt lat="45.92226" lon="4.80847">
        <ele>171.2</ele>
        <time>2024-09-20T07:43:22Z</time>
      </trkpt>
      <trkpt lat="45.92223" lon="4.80852">
        <ele>171.2</ele>
        <time>2024-09-20T07:43:23Z</time>
      </trkpt>
      <trkpt lat="45.9222" lon="4.80856">
        <ele>171.2</ele>
        <time>2024-09-20T07:43:24Z</time>
      </trkpt>
      <trkpt lat="45.92218" lon="4.8086">
        <ele>171.2</ele>
        <time>2024-09-20T07:43:25Z</time>
      </trkpt>
      <trkpt lat="45.92215" lon="4.80864">
        <ele>171.2</ele>
        <time>2024-09-20T07:43:26Z</time>
      </trkpt>
      <trkpt lat="45.92212" lon="4.80869">
        <ele>171</ele>
        <time>2024-09-20T07:43:27Z</time>
      </trkpt>
      <trkpt lat="45.9221" lon="4.80874">
        <ele>171</ele>
        <time>2024-09-20T07:43:28Z</time>
      </trkpt>
      <trkpt lat="45.92207" lon="4.80879">
        <ele>171.2</ele>
        <time>2024-09-20T07:43:29Z</time>
      </trkpt>
      <trkpt lat="45.92204" lon="4.80885">
        <ele>171.2</ele>
        <time>2024-09-20T07:43:30Z</time>
      </trkpt>
      <trkpt lat="45.92202" lon="4.8089">
        <ele>171.2</ele>
        <time>2024-09-20T07:43:31Z</time>
      </trkpt>
      <trkpt lat="45.92199" lon="4.80895">
        <ele>171.2</ele>
        <time>2024-09-20T07:43:32Z</time>
      </trkpt>
      <trkpt lat="45.92196" lon="4.809">
        <ele>171.2</ele>
        <time>2024-09-20T07:43:33Z</time>
      </trkpt>
      <trkpt lat="45.92193" lon="4.80905">
        <ele>171.2</ele>
        <time>2024-09-20T07:43:34Z</time>
      </trkpt>
      <trkpt lat="45.9219" lon="4.80909">
        <ele>171.2</ele>
        <time>2024-09-20T07:43:35Z</time>
      </trkpt>
      <trkpt lat="45.92187" lon="4.80914">
        <ele>171.2</ele>
        <time>2024-09-20T07:43:36Z</time>
      </trkpt>
      <trkpt lat="45.92185" lon="4.80919">
        <ele>171.2</ele>
        <time>2024-09-20T07:43:37Z</time>
      </trkpt>
      <trkpt lat="45.92183" lon="4.80925">
        <ele>171.2</ele>
        <time>2024-09-20T07:43:38Z</time>
      </trkpt>
      <trkpt lat="45.92181" lon="4.8093">
        <ele>171.2</ele>
        <time>2024-09-20T07:43:39Z</time>
      </trkpt>
      <trkpt lat="45.92178" lon="4.80935">
        <ele>171.2</ele>
        <time>2024-09-20T07:43:40Z</time>
      </trkpt>
      <trkpt lat="45.92175" lon="4.80939">
        <ele>171.2</ele>
        <time>2024-09-20T07:43:41Z</time>
      </trkpt>
      <trkpt lat="45.92172" lon="4.80942">
        <ele>171.8</ele>
        <time>2024-09-20T07:43:42Z</time>
      </trkpt>
      <trkpt lat="45.92168" lon="4.80944">
        <ele>171.8</ele>
        <time>2024-09-20T07:43:43Z</time>
      </trkpt>
      <trkpt lat="45.92165" lon="4.80946">
        <ele>171.8</ele>
        <time>2024-09-20T07:43:44Z</time>
      </trkpt>
      <trkpt lat="45.92163" lon="4.8095">
        <ele>171.6</ele>
        <time>2024-09-20T07:43:45Z</time>
      </trkpt>
      <trkpt lat="45.9216" lon="4.80953">
        <ele>171.2</ele>
        <time>2024-09-20T07:43:46Z</time>
      </trkpt>
      <trkpt lat="45.92157" lon="4.80957">
        <ele>171.2</ele>
        <time>2024-09-20T07:43:47Z</time>
      </trkpt>
      <trkpt lat="45.92154" lon="4.8096">
        <ele>171.2</ele>
        <time>2024-09-20T07:43:48Z</time>
      </trkpt>
      <trkpt lat="45.92151" lon="4.80962">
        <ele>171.2</ele>
        <time>2024-09-20T07:43:49Z</time>
      </trkpt>
      <trkpt lat="45.92148" lon="4.80965">
        <ele>171.4</ele>
        <time>2024-09-20T07:43:50Z</time>
      </trkpt>
      <trkpt lat="45.92145" lon="4.80967">
        <ele>171.4</ele>
        <time>2024-09-20T07:43:51Z</time>
      </trkpt>
      <trkpt lat="45.92141" lon="4.80969">
        <ele>171.4</ele>
        <time>2024-09-20T07:43:52Z</time>
      </trkpt>
      <trkpt lat="45.92137" lon="4.80971">
        <ele>171.4</ele>
        <time>2024-09-20T07:43:53Z</time>
      </trkpt>
      <trkpt lat="45.92133" lon="4.80974">
        <ele>171.4</ele>
        <time>2024-09-20T07:43:54Z</time>
      </trkpt>
      <trkpt lat="45.9213" lon="4.80977">
        <ele>171</ele>
        <time>2024-09-20T07:43:55Z</time>
      </trkpt>
      <trkpt lat="45.92126" lon="4.80981">
        <ele>171</ele>
        <time>2024-09-20T07:43:56Z</time>
      </trkpt>
      <trkpt lat="45.92123" lon="4.80985">
        <ele>171</ele>
        <time>2024-09-20T07:43:57Z</time>
      </trkpt>
      <trkpt lat="45.92119" lon="4.80988">
        <ele>171.2</ele>
        <time>2024-09-20T07:43:58Z</time>
      </trkpt>
      <trkpt lat="45.92116" lon="4.80993">
        <ele>171.4</ele>
        <time>2024-09-20T07:43:59Z</time>
      </trkpt>
      <trkpt lat="45.92113" lon="4.80997">
        <ele>171.4</ele>
        <time>2024-09-20T07:44:00Z</time>
      </trkpt>
      <trkpt lat="45.9211" lon="4.81001">
        <ele>171.4</ele>
        <time>2024-09-20T07:44:01Z</time>
      </trkpt>
      <trkpt lat="45.92107" lon="4.81005">
        <ele>171.4</ele>
        <time>2024-09-20T07:44:02Z</time>
      </trkpt>
      <trkpt lat="45.92104" lon="4.81009">
        <ele>171.4</ele>
        <time>2024-09-20T07:44:03Z</time>
      </trkpt>
      <trkpt lat="45.921" lon="4.81013">
        <ele>171.4</ele>
        <time>2024-09-20T07:44:04Z</time>
      </trkpt>
      <trkpt lat="45.92097" lon="4.81016">
        <ele>171</ele>
        <time>2024-09-20T07:44:05Z</time>
      </trkpt>
      <trkpt lat="45.92093" lon="4.8102">
        <ele>171</ele>
        <time>2024-09-20T07:44:06Z</time>
      </trkpt>
      <trkpt lat="45.92089" lon="4.81024">
        <ele>171</ele>
        <time>2024-09-20T07:44:07Z</time>
      </trkpt>
      <trkpt lat="45.92084" lon="4.81028">
        <ele>171</ele>
        <time>2024-09-20T07:44:08Z</time>
      </trkpt>
      <trkpt lat="45.9208" lon="4.81032">
        <ele>170.6</ele>
        <time>2024-09-20T07:44:09Z</time>
      </trkpt>
      <trkpt lat="45.92076" lon="4.81036">
        <ele>170.6</ele>
        <time>2024-09-20T07:44:10Z</time>
      </trkpt>
      <trkpt lat="45.92073" lon="4.81039">
        <ele>170.6</ele>
        <time>2024-09-20T07:44:11Z</time>
      </trkpt>
      <trkpt lat="45.92069" lon="4.81043">
        <ele>170.8</ele>
        <time>2024-09-20T07:44:12Z</time>
      </trkpt>
      <trkpt lat="45.92065" lon="4.81046">
        <ele>170.8</ele>
        <time>2024-09-20T07:44:13Z</time>
      </trkpt>
      <trkpt lat="45.92062" lon="4.8105">
        <ele>170.8</ele>
        <time>2024-09-20T07:44:14Z</time>
      </trkpt>
      <trkpt lat="45.92058" lon="4.81054">
        <ele>170.8</ele>
        <time>2024-09-20T07:44:15Z</time>
      </trkpt>
      <trkpt lat="45.92054" lon="4.81058">
        <ele>170.8</ele>
        <time>2024-09-20T07:44:16Z</time>
      </trkpt>
      <trkpt lat="45.92051" lon="4.81061">
        <ele>170.8</ele>
        <time>2024-09-20T07:44:17Z</time>
      </trkpt>
      <trkpt lat="45.92048" lon="4.81065">
        <ele>170.8</ele>
        <time>2024-09-20T07:44:18Z</time>
      </trkpt>
      <trkpt lat="45.92044" lon="4.81067">
        <ele>170.8</ele>
        <time>2024-09-20T07:44:19Z</time>
      </trkpt>
      <trkpt lat="45.92041" lon="4.81071">
        <ele>170.8</ele>
        <time>2024-09-20T07:44:20Z</time>
      </trkpt>
      <trkpt lat="45.92037" lon="4.81074">
        <ele>171</ele>
        <time>2024-09-20T07:44:21Z</time>
      </trkpt>
      <trkpt lat="45.92034" lon="4.81077">
        <ele>170.8</ele>
        <time>2024-09-20T07:44:22Z</time>
      </trkpt>
      <trkpt lat="45.9203" lon="4.8108">
        <ele>170.8</ele>
        <time>2024-09-20T07:44:23Z</time>
      </trkpt>
      <trkpt lat="45.92027" lon="4.81082">
        <ele>170.8</ele>
        <time>2024-09-20T07:44:24Z</time>
      </trkpt>
      <trkpt lat="45.92023" lon="4.81084">
        <ele>170.8</ele>
        <time>2024-09-20T07:44:25Z</time>
      </trkpt>
      <trkpt lat="45.92019" lon="4.81084">
        <ele>170.8</ele>
        <time>2024-09-20T07:44:26Z</time>
      </trkpt>
      <trkpt lat="45.92014" lon="4.81086">
        <ele>170.8</ele>
        <time>2024-09-20T07:44:27Z</time>
      </trkpt>
      <trkpt lat="45.9201" lon="4.81088">
        <ele>170.8</ele>
        <time>2024-09-20T07:44:28Z</time>
      </trkpt>
      <trkpt lat="45.92007" lon="4.81091">
        <ele>170.8</ele>
        <time>2024-09-20T07:44:29Z</time>
      </trkpt>
      <trkpt lat="45.92003" lon="4.81094">
        <ele>170.8</ele>
        <time>2024-09-20T07:44:30Z</time>
      </trkpt>
      <trkpt lat="45.92" lon="4.81098">
        <ele>170.4</ele>
        <time>2024-09-20T07:44:31Z</time>
      </trkpt>
      <trkpt lat="45.91997" lon="4.81101">
        <ele>170.4</ele>
        <time>2024-09-20T07:44:32Z</time>
      </trkpt>
      <trkpt lat="45.91994" lon="4.81103">
        <ele>170.4</ele>
        <time>2024-09-20T07:44:33Z</time>
      </trkpt>
      <trkpt lat="45.91991" lon="4.81106">
        <ele>170.4</ele>
        <time>2024-09-20T07:44:34Z</time>
      </trkpt>
      <trkpt lat="45.91987" lon="4.81108">
        <ele>170.4</ele>
        <time>2024-09-20T07:44:35Z</time>
      </trkpt>
      <trkpt lat="45.91983" lon="4.8111">
        <ele>170.4</ele>
        <time>2024-09-20T07:44:36Z</time>
      </trkpt>
      <trkpt lat="45.91979" lon="4.81112">
        <ele>170.4</ele>
        <time>2024-09-20T07:44:37Z</time>
      </trkpt>
      <trkpt lat="45.91975" lon="4.81114">
        <ele>170.4</ele>
        <time>2024-09-20T07:44:38Z</time>
      </trkpt>
      <trkpt lat="45.91971" lon="4.81117">
        <ele>170.4</ele>
        <time>2024-09-20T07:44:39Z</time>
      </trkpt>
      <trkpt lat="45.91967" lon="4.8112">
        <ele>170.4</ele>
        <time>2024-09-20T07:44:40Z</time>
      </trkpt>
      <trkpt lat="45.91963" lon="4.81123">
        <ele>170.4</ele>
        <time>2024-09-20T07:44:41Z</time>
      </trkpt>
      <trkpt lat="45.91959" lon="4.81125">
        <ele>170.4</ele>
        <time>2024-09-20T07:44:42Z</time>
      </trkpt>
      <trkpt lat="45.91955" lon="4.81127">
        <ele>170.4</ele>
        <time>2024-09-20T07:44:43Z</time>
      </trkpt>
      <trkpt lat="45.91951" lon="4.8113">
        <ele>170.4</ele>
        <time>2024-09-20T07:44:44Z</time>
      </trkpt>
      <trkpt lat="45.91946" lon="4.81132">
        <ele>170.2</ele>
        <time>2024-09-20T07:44:45Z</time>
      </trkpt>
      <trkpt lat="45.91942" lon="4.81134">
        <ele>170.2</ele>
        <time>2024-09-20T07:44:46Z</time>
      </trkpt>
      <trkpt lat="45.91938" lon="4.81136">
        <ele>170.2</ele>
        <time>2024-09-20T07:44:47Z</time>
      </trkpt>
      <trkpt lat="45.91934" lon="4.81138">
        <ele>170.4</ele>
        <time>2024-09-20T07:44:48Z</time>
      </trkpt>
      <trkpt lat="45.91929" lon="4.8114">
        <ele>170.4</ele>
        <time>2024-09-20T07:44:49Z</time>
      </trkpt>
      <trkpt lat="45.91925" lon="4.81142">
        <ele>170</ele>
        <time>2024-09-20T07:44:50Z</time>
      </trkpt>
      <trkpt lat="45.91921" lon="4.81144">
        <ele>170</ele>
        <time>2024-09-20T07:44:51Z</time>
      </trkpt>
      <trkpt lat="45.91917" lon="4.81146">
        <ele>170</ele>
        <time>2024-09-20T07:44:52Z</time>
      </trkpt>
      <trkpt lat="45.91913" lon="4.81148">
        <ele>170</ele>
        <time>2024-09-20T07:44:53Z</time>
      </trkpt>
      <trkpt lat="45.9191" lon="4.8115">
        <ele>170.6</ele>
        <time>2024-09-20T07:44:54Z</time>
      </trkpt>
      <trkpt lat="45.91907" lon="4.81152">
        <ele>170.6</ele>
        <time>2024-09-20T07:44:55Z</time>
      </trkpt>
      <trkpt lat="45.91904" lon="4.81153">
        <ele>170.6</ele>
        <time>2024-09-20T07:44:56Z</time>
      </trkpt>
      <trkpt lat="45.91902" lon="4.81155">
        <ele>170.4</ele>
        <time>2024-09-20T07:44:57Z</time>
      </trkpt>
      <trkpt lat="45.91901" lon="4.81157">
        <ele>170.4</ele>
        <time>2024-09-20T07:44:58Z</time>
      </trkpt>
      <trkpt lat="45.91899" lon="4.81159">
        <ele>170.4</ele>
        <time>2024-09-20T07:44:59Z</time>
      </trkpt>
      <trkpt lat="45.91897" lon="4.81161">
        <ele>170.4</ele>
        <time>2024-09-20T07:45:00Z</time>
      </trkpt>
      <trkpt lat="45.91895" lon="4.81162">
        <ele>170.4</ele>
        <time>2024-09-20T07:45:01Z</time>
      </trkpt>
      <trkpt lat="45.91893" lon="4.81163">
        <ele>170.4</ele>
        <time>2024-09-20T07:45:02Z</time>
      </trkpt>
      <trkpt lat="45.91891" lon="4.81164">
        <ele>170.6</ele>
        <time>2024-09-20T07:45:03Z</time>
      </trkpt>
      <trkpt lat="45.91888" lon="4.81165">
        <ele>170.6</ele>
        <time>2024-09-20T07:45:04Z</time>
      </trkpt>
      <trkpt lat="45.91885" lon="4.81166">
        <ele>170.6</ele>
        <time>2024-09-20T07:45:05Z</time>
      </trkpt>
      <trkpt lat="45.91882" lon="4.81166">
        <ele>170.4</ele>
        <time>2024-09-20T07:45:06Z</time>
      </trkpt>
      <trkpt lat="45.91878" lon="4.81167">
        <ele>170.4</ele>
        <time>2024-09-20T07:45:07Z</time>
      </trkpt>
      <trkpt lat="45.91874" lon="4.81168">
        <ele>170.4</ele>
        <time>2024-09-20T07:45:08Z</time>
      </trkpt>
      <trkpt lat="45.91871" lon="4.81169">
        <ele>170.4</ele>
        <time>2024-09-20T07:45:09Z</time>
      </trkpt>
      <trkpt lat="45.91868" lon="4.8117">
        <ele>170.4</ele>
        <time>2024-09-20T07:45:10Z</time>
      </trkpt>
      <trkpt lat="45.91865" lon="4.81171">
        <ele>170.6</ele>
        <time>2024-09-20T07:45:11Z</time>
      </trkpt>
      <trkpt lat="45.91862" lon="4.81172">
        <ele>170.6</ele>
        <time>2024-09-20T07:45:12Z</time>
      </trkpt>
      <trkpt lat="45.91859" lon="4.81172">
        <ele>170.6</ele>
        <time>2024-09-20T07:45:13Z</time>
      </trkpt>
      <trkpt lat="45.91856" lon="4.81173">
        <ele>170.6</ele>
        <time>2024-09-20T07:45:14Z</time>
      </trkpt>
      <trkpt lat="45.91852" lon="4.81174">
        <ele>170.6</ele>
        <time>2024-09-20T07:45:15Z</time>
      </trkpt>
      <trkpt lat="45.91849" lon="4.81175">
        <ele>170.2</ele>
        <time>2024-09-20T07:45:16Z</time>
      </trkpt>
      <trkpt lat="45.91846" lon="4.81176">
        <ele>170.2</ele>
        <time>2024-09-20T07:45:17Z</time>
      </trkpt>
      <trkpt lat="45.91842" lon="4.81176">
        <ele>170.2</ele>
        <time>2024-09-20T07:45:18Z</time>
      </trkpt>
      <trkpt lat="45.91839" lon="4.81176">
        <ele>170.8</ele>
        <time>2024-09-20T07:45:19Z</time>
      </trkpt>
      <trkpt lat="45.91835" lon="4.81177">
        <ele>170.4</ele>
        <time>2024-09-20T07:45:20Z</time>
      </trkpt>
      <trkpt lat="45.91831" lon="4.81177">
        <ele>170.4</ele>
        <time>2024-09-20T07:45:21Z</time>
      </trkpt>
      <trkpt lat="45.91827" lon="4.81178">
        <ele>170.4</ele>
        <time>2024-09-20T07:45:22Z</time>
      </trkpt>
      <trkpt lat="45.91823" lon="4.81179">
        <ele>170.4</ele>
        <time>2024-09-20T07:45:23Z</time>
      </trkpt>
      <trkpt lat="45.91819" lon="4.8118">
        <ele>170</ele>
        <time>2024-09-20T07:45:24Z</time>
      </trkpt>
      <trkpt lat="45.91815" lon="4.8118">
        <ele>170</ele>
        <time>2024-09-20T07:45:25Z</time>
      </trkpt>
      <trkpt lat="45.91811" lon="4.81181">
        <ele>170</ele>
        <time>2024-09-20T07:45:26Z</time>
      </trkpt>
      <trkpt lat="45.91806" lon="4.81181">
        <ele>170</ele>
        <time>2024-09-20T07:45:27Z</time>
      </trkpt>
      <trkpt lat="45.91801" lon="4.81181">
        <ele>170</ele>
        <time>2024-09-20T07:45:28Z</time>
      </trkpt>
      <trkpt lat="45.91797" lon="4.81182">
        <ele>170</ele>
        <time>2024-09-20T07:45:29Z</time>
      </trkpt>
      <trkpt lat="45.91793" lon="4.81183">
        <ele>169.8</ele>
        <time>2024-09-20T07:45:30Z</time>
      </trkpt>
      <trkpt lat="45.91788" lon="4.81183">
        <ele>169.8</ele>
        <time>2024-09-20T07:45:31Z</time>
      </trkpt>
      <trkpt lat="45.91784" lon="4.81184">
        <ele>169.8</ele>
        <time>2024-09-20T07:45:32Z</time>
      </trkpt>
      <trkpt lat="45.9178" lon="4.81185">
        <ele>169.8</ele>
        <time>2024-09-20T07:45:33Z</time>
      </trkpt>
      <trkpt lat="45.91775" lon="4.81186">
        <ele>170.4</ele>
        <time>2024-09-20T07:45:34Z</time>
      </trkpt>
      <trkpt lat="45.91771" lon="4.81188">
        <ele>170.4</ele>
        <time>2024-09-20T07:45:35Z</time>
      </trkpt>
      <trkpt lat="45.91767" lon="4.81189">
        <ele>170.4</ele>
        <time>2024-09-20T07:45:36Z</time>
      </trkpt>
      <trkpt lat="45.91763" lon="4.81189">
        <ele>170.4</ele>
        <time>2024-09-20T07:45:37Z</time>
      </trkpt>
      <trkpt lat="45.91759" lon="4.8119">
        <ele>170.6</ele>
        <time>2024-09-20T07:45:38Z</time>
      </trkpt>
      <trkpt lat="45.91755" lon="4.81192">
        <ele>170.6</ele>
        <time>2024-09-20T07:45:39Z</time>
      </trkpt>
      <trkpt lat="45.91751" lon="4.81192">
        <ele>170.6</ele>
        <time>2024-09-20T07:45:40Z</time>
      </trkpt>
      <trkpt lat="45.91747" lon="4.81194">
        <ele>170.6</ele>
        <time>2024-09-20T07:45:41Z</time>
      </trkpt>
      <trkpt lat="45.91742" lon="4.81195">
        <ele>170.6</ele>
        <time>2024-09-20T07:45:42Z</time>
      </trkpt>
      <trkpt lat="45.91738" lon="4.81196">
        <ele>170</ele>
        <time>2024-09-20T07:45:43Z</time>
      </trkpt>
      <trkpt lat="45.91734" lon="4.81197">
        <ele>170</ele>
        <time>2024-09-20T07:45:44Z</time>
      </trkpt>
      <trkpt lat="45.9173" lon="4.81198">
        <ele>170</ele>
        <time>2024-09-20T07:45:45Z</time>
      </trkpt>
      <trkpt lat="45.91725" lon="4.81198">
        <ele>171</ele>
        <time>2024-09-20T07:45:46Z</time>
      </trkpt>
      <trkpt lat="45.91721" lon="4.81199">
        <ele>170.2</ele>
        <time>2024-09-20T07:45:47Z</time>
      </trkpt>
      <trkpt lat="45.91717" lon="4.812">
        <ele>170.2</ele>
        <time>2024-09-20T07:45:48Z</time>
      </trkpt>
      <trkpt lat="45.91713" lon="4.812">
        <ele>170.2</ele>
        <time>2024-09-20T07:45:49Z</time>
      </trkpt>
      <trkpt lat="45.91709" lon="4.81201">
        <ele>170.2</ele>
        <time>2024-09-20T07:45:50Z</time>
      </trkpt>
      <trkpt lat="45.91705" lon="4.81202">
        <ele>170.2</ele>
        <time>2024-09-20T07:45:51Z</time>
      </trkpt>
      <trkpt lat="45.91701" lon="4.81203">
        <ele>170.6</ele>
        <time>2024-09-20T07:45:52Z</time>
      </trkpt>
      <trkpt lat="45.91697" lon="4.81204">
        <ele>170.6</ele>
        <time>2024-09-20T07:45:53Z</time>
      </trkpt>
      <trkpt lat="45.91694" lon="4.81204">
        <ele>170.6</ele>
        <time>2024-09-20T07:45:54Z</time>
      </trkpt>
      <trkpt lat="45.9169" lon="4.81205">
        <ele>170.6</ele>
        <time>2024-09-20T07:45:55Z</time>
      </trkpt>
      <trkpt lat="45.91685" lon="4.81205">
        <ele>170.2</ele>
        <time>2024-09-20T07:45:56Z</time>
      </trkpt>
      <trkpt lat="45.91681" lon="4.81205">
        <ele>170.2</ele>
        <time>2024-09-20T07:45:57Z</time>
      </trkpt>
      <trkpt lat="45.91677" lon="4.81205">
        <ele>170.2</ele>
        <time>2024-09-20T07:45:58Z</time>
      </trkpt>
      <trkpt lat="45.91673" lon="4.81205">
        <ele>171.2</ele>
        <time>2024-09-20T07:45:59Z</time>
      </trkpt>
      <trkpt lat="45.91668" lon="4.81205">
        <ele>170.4</ele>
        <time>2024-09-20T07:46:00Z</time>
      </trkpt>
      <trkpt lat="45.91664" lon="4.81205">
        <ele>170.4</ele>
        <time>2024-09-20T07:46:01Z</time>
      </trkpt>
      <trkpt lat="45.9166" lon="4.81205">
        <ele>170.4</ele>
        <time>2024-09-20T07:46:02Z</time>
      </trkpt>
      <trkpt lat="45.91656" lon="4.81205">
        <ele>170.4</ele>
        <time>2024-09-20T07:46:03Z</time>
      </trkpt>
      <trkpt lat="45.91651" lon="4.81205">
        <ele>170.4</ele>
        <time>2024-09-20T07:46:04Z</time>
      </trkpt>
      <trkpt lat="45.91647" lon="4.81205">
        <ele>170.4</ele>
        <time>2024-09-20T07:46:05Z</time>
      </trkpt>
      <trkpt lat="45.91643" lon="4.81205">
        <ele>170.6</ele>
        <time>2024-09-20T07:46:06Z</time>
      </trkpt>
      <trkpt lat="45.91639" lon="4.81206">
        <ele>170.6</ele>
        <time>2024-09-20T07:46:07Z</time>
      </trkpt>
      <trkpt lat="45.91635" lon="4.81206">
        <ele>170.6</ele>
        <time>2024-09-20T07:46:08Z</time>
      </trkpt>
      <trkpt lat="45.91631" lon="4.81206">
        <ele>170</ele>
        <time>2024-09-20T07:46:09Z</time>
      </trkpt>
      <trkpt lat="45.91627" lon="4.81206">
        <ele>170</ele>
        <time>2024-09-20T07:46:10Z</time>
      </trkpt>
      <trkpt lat="45.91623" lon="4.81206">
        <ele>170</ele>
        <time>2024-09-20T07:46:11Z</time>
      </trkpt>
      <trkpt lat="45.91618" lon="4.81206">
        <ele>170</ele>
        <time>2024-09-20T07:46:12Z</time>
      </trkpt>
      <trkpt lat="45.91614" lon="4.81207">
        <ele>171</ele>
        <time>2024-09-20T07:46:13Z</time>
      </trkpt>
      <trkpt lat="45.9161" lon="4.81208">
        <ele>170.2</ele>
        <time>2024-09-20T07:46:14Z</time>
      </trkpt>
      <trkpt lat="45.91606" lon="4.81208">
        <ele>170.2</ele>
        <time>2024-09-20T07:46:15Z</time>
      </trkpt>
      <trkpt lat="45.91601" lon="4.81209">
        <ele>170.2</ele>
        <time>2024-09-20T07:46:16Z</time>
      </trkpt>
      <trkpt lat="45.91597" lon="4.8121">
        <ele>170.2</ele>
        <time>2024-09-20T07:46:17Z</time>
      </trkpt>
      <trkpt lat="45.91593" lon="4.8121">
        <ele>170.2</ele>
        <time>2024-09-20T07:46:18Z</time>
      </trkpt>
      <trkpt lat="45.91588" lon="4.8121">
        <ele>170.8</ele>
        <time>2024-09-20T07:46:19Z</time>
      </trkpt>
      <trkpt lat="45.91584" lon="4.8121">
        <ele>170.8</ele>
        <time>2024-09-20T07:46:20Z</time>
      </trkpt>
      <trkpt lat="45.9158" lon="4.81211">
        <ele>170.8</ele>
        <time>2024-09-20T07:46:21Z</time>
      </trkpt>
      <trkpt lat="45.91576" lon="4.81211">
        <ele>170.8</ele>
        <time>2024-09-20T07:46:22Z</time>
      </trkpt>
      <trkpt lat="45.91572" lon="4.81211">
        <ele>170.6</ele>
        <time>2024-09-20T07:46:23Z</time>
      </trkpt>
      <trkpt lat="45.91568" lon="4.81211">
        <ele>170.6</ele>
        <time>2024-09-20T07:46:24Z</time>
      </trkpt>
      <trkpt lat="45.91564" lon="4.81211">
        <ele>170.6</ele>
        <time>2024-09-20T07:46:25Z</time>
      </trkpt>
      <trkpt lat="45.9156" lon="4.81211">
        <ele>170.6</ele>
        <time>2024-09-20T07:46:26Z</time>
      </trkpt>
      <trkpt lat="45.91556" lon="4.81211">
        <ele>170.4</ele>
        <time>2024-09-20T07:46:27Z</time>
      </trkpt>
      <trkpt lat="45.91552" lon="4.81211">
        <ele>170.4</ele>
        <time>2024-09-20T07:46:28Z</time>
      </trkpt>
      <trkpt lat="45.91548" lon="4.81211">
        <ele>170.4</ele>
        <time>2024-09-20T07:46:29Z</time>
      </trkpt>
      <trkpt lat="45.91544" lon="4.81211">
        <ele>170.4</ele>
        <time>2024-09-20T07:46:30Z</time>
      </trkpt>
      <trkpt lat="45.9154" lon="4.81212">
        <ele>170.4</ele>
        <time>2024-09-20T07:46:31Z</time>
      </trkpt>
      <trkpt lat="45.91536" lon="4.81212">
        <ele>170.2</ele>
        <time>2024-09-20T07:46:32Z</time>
      </trkpt>
      <trkpt lat="45.91532" lon="4.81212">
        <ele>170.2</ele>
        <time>2024-09-20T07:46:33Z</time>
      </trkpt>
      <trkpt lat="45.91528" lon="4.81213">
        <ele>170.2</ele>
        <time>2024-09-20T07:46:34Z</time>
      </trkpt>
      <trkpt lat="45.91524" lon="4.81213">
        <ele>170.2</ele>
        <time>2024-09-20T07:46:35Z</time>
      </trkpt>
      <trkpt lat="45.9152" lon="4.81213">
        <ele>170.2</ele>
        <time>2024-09-20T07:46:36Z</time>
      </trkpt>
      <trkpt lat="45.91516" lon="4.81213">
        <ele>170.2</ele>
        <time>2024-09-20T07:46:37Z</time>
      </trkpt>
      <trkpt lat="45.91512" lon="4.81214">
        <ele>170.2</ele>
        <time>2024-09-20T07:46:38Z</time>
      </trkpt>
      <trkpt lat="45.91507" lon="4.81214">
        <ele>170.2</ele>
        <time>2024-09-20T07:46:39Z</time>
      </trkpt>
      <trkpt lat="45.91503" lon="4.81214">
        <ele>170.2</ele>
        <time>2024-09-20T07:46:40Z</time>
      </trkpt>
      <trkpt lat="45.91499" lon="4.81215">
        <ele>170.6</ele>
        <time>2024-09-20T07:46:41Z</time>
      </trkpt>
      <trkpt lat="45.91494" lon="4.81215">
        <ele>170.6</ele>
        <time>2024-09-20T07:46:42Z</time>
      </trkpt>
      <trkpt lat="45.9149" lon="4.81215">
        <ele>170.6</ele>
        <time>2024-09-20T07:46:43Z</time>
      </trkpt>
      <trkpt lat="45.91486" lon="4.81215">
        <ele>170.6</ele>
        <time>2024-09-20T07:46:44Z</time>
      </trkpt>
      <trkpt lat="45.91482" lon="4.81215">
        <ele>170.6</ele>
        <time>2024-09-20T07:46:45Z</time>
      </trkpt>
      <trkpt lat="45.91478" lon="4.81215">
        <ele>170.6</ele>
        <time>2024-09-20T07:46:46Z</time>
      </trkpt>
      <trkpt lat="45.91474" lon="4.81215">
        <ele>170.6</ele>
        <time>2024-09-20T07:46:47Z</time>
      </trkpt>
      <trkpt lat="45.91471" lon="4.81215">
        <ele>170.6</ele>
        <time>2024-09-20T07:46:48Z</time>
      </trkpt>
      <trkpt lat="45.91467" lon="4.81215">
        <ele>170.2</ele>
        <time>2024-09-20T07:46:49Z</time>
      </trkpt>
      <trkpt lat="45.91463" lon="4.81214">
        <ele>170.2</ele>
        <time>2024-09-20T07:46:50Z</time>
      </trkpt>
      <trkpt lat="45.91459" lon="4.81213">
        <ele>170.2</ele>
        <time>2024-09-20T07:46:51Z</time>
      </trkpt>
      <trkpt lat="45.91455" lon="4.81212">
        <ele>170.2</ele>
        <time>2024-09-20T07:46:52Z</time>
      </trkpt>
      <trkpt lat="45.91451" lon="4.81211">
        <ele>170.2</ele>
        <time>2024-09-20T07:46:53Z</time>
      </trkpt>
      <trkpt lat="45.91448" lon="4.81209">
        <ele>170.6</ele>
        <time>2024-09-20T07:46:54Z</time>
      </trkpt>
      <trkpt lat="45.91444" lon="4.81206">
        <ele>169.4</ele>
        <time>2024-09-20T07:46:55Z</time>
      </trkpt>
      <trkpt lat="45.9144" lon="4.81204">
        <ele>169.4</ele>
        <time>2024-09-20T07:46:56Z</time>
      </trkpt>
      <trkpt lat="45.91436" lon="4.81202">
        <ele>169.4</ele>
        <time>2024-09-20T07:46:57Z</time>
      </trkpt>
      <trkpt lat="45.91433" lon="4.81199">
        <ele>170.4</ele>
        <time>2024-09-20T07:46:58Z</time>
      </trkpt>
      <trkpt lat="45.91429" lon="4.81196">
        <ele>171.4</ele>
        <time>2024-09-20T07:46:59Z</time>
      </trkpt>
      <trkpt lat="45.91426" lon="4.81193">
        <ele>171.4</ele>
        <time>2024-09-20T07:47:00Z</time>
      </trkpt>
      <trkpt lat="45.91422" lon="4.8119">
        <ele>171.4</ele>
        <time>2024-09-20T07:47:01Z</time>
      </trkpt>
      <trkpt lat="45.91419" lon="4.81187">
        <ele>170.8</ele>
        <time>2024-09-20T07:47:02Z</time>
      </trkpt>
      <trkpt lat="45.91415" lon="4.81184">
        <ele>170.8</ele>
        <time>2024-09-20T07:47:03Z</time>
      </trkpt>
      <trkpt lat="45.91411" lon="4.81182">
        <ele>170.8</ele>
        <time>2024-09-20T07:47:04Z</time>
      </trkpt>
      <trkpt lat="45.91407" lon="4.81179">
        <ele>170.8</ele>
        <time>2024-09-20T07:47:05Z</time>
      </trkpt>
      <trkpt lat="45.91404" lon="4.81177">
        <ele>170.8</ele>
        <time>2024-09-20T07:47:06Z</time>
      </trkpt>
      <trkpt lat="45.914" lon="4.81175">
        <ele>170.8</ele>
        <time>2024-09-20T07:47:07Z</time>
      </trkpt>
      <trkpt lat="45.91396" lon="4.81173">
        <ele>171</ele>
        <time>2024-09-20T07:47:08Z</time>
      </trkpt>
      <trkpt lat="45.91392" lon="4.81171">
        <ele>171</ele>
        <time>2024-09-20T07:47:09Z</time>
      </trkpt>
      <trkpt lat="45.91388" lon="4.81169">
        <ele>171</ele>
        <time>2024-09-20T07:47:10Z</time>
      </trkpt>
      <trkpt lat="45.91384" lon="4.81167">
        <ele>171</ele>
        <time>2024-09-20T07:47:11Z</time>
      </trkpt>
      <trkpt lat="45.91379" lon="4.81166">
        <ele>170.6</ele>
        <time>2024-09-20T07:47:12Z</time>
      </trkpt>
      <trkpt lat="45.91375" lon="4.81164">
        <ele>170.6</ele>
        <time>2024-09-20T07:47:13Z</time>
      </trkpt>
      <trkpt lat="45.91371" lon="4.81163">
        <ele>170.6</ele>
        <time>2024-09-20T07:47:14Z</time>
      </trkpt>
      <trkpt lat="45.91367" lon="4.81161">
        <ele>170.6</ele>
        <time>2024-09-20T07:47:15Z</time>
      </trkpt>
      <trkpt lat="45.91362" lon="4.8116">
        <ele>170.6</ele>
        <time>2024-09-20T07:47:16Z</time>
      </trkpt>
      <trkpt lat="45.91358" lon="4.8116">
        <ele>170.8</ele>
        <time>2024-09-20T07:47:17Z</time>
      </trkpt>
      <trkpt lat="45.91354" lon="4.81159">
        <ele>170.8</ele>
        <time>2024-09-20T07:47:18Z</time>
      </trkpt>
      <trkpt lat="45.9135" lon="4.8116">
        <ele>170.8</ele>
        <time>2024-09-20T07:47:19Z</time>
      </trkpt>
      <trkpt lat="45.91345" lon="4.8116">
        <ele>170.8</ele>
        <time>2024-09-20T07:47:20Z</time>
      </trkpt>
      <trkpt lat="45.91341" lon="4.8116">
        <ele>170.8</ele>
        <time>2024-09-20T07:47:21Z</time>
      </trkpt>
      <trkpt lat="45.91337" lon="4.8116">
        <ele>170.8</ele>
        <time>2024-09-20T07:47:22Z</time>
      </trkpt>
      <trkpt lat="45.91333" lon="4.81161">
        <ele>170.8</ele>
        <time>2024-09-20T07:47:23Z</time>
      </trkpt>
      <trkpt lat="45.91329" lon="4.81162">
        <ele>170.8</ele>
        <time>2024-09-20T07:47:24Z</time>
      </trkpt>
      <trkpt lat="45.91325" lon="4.81162">
        <ele>170.8</ele>
        <time>2024-09-20T07:47:25Z</time>
      </trkpt>
      <trkpt lat="45.91321" lon="4.81162">
        <ele>170.8</ele>
        <time>2024-09-20T07:47:26Z</time>
      </trkpt>
      <trkpt lat="45.91317" lon="4.81162">
        <ele>170.8</ele>
        <time>2024-09-20T07:47:27Z</time>
      </trkpt>
      <trkpt lat="45.91312" lon="4.81162">
        <ele>170.8</ele>
        <time>2024-09-20T07:47:28Z</time>
      </trkpt>
      <trkpt lat="45.91308" lon="4.81161">
        <ele>170.8</ele>
        <time>2024-09-20T07:47:29Z</time>
      </trkpt>
      <trkpt lat="45.91304" lon="4.81161">
        <ele>170.8</ele>
        <time>2024-09-20T07:47:30Z</time>
      </trkpt>
      <trkpt lat="45.913" lon="4.8116">
        <ele>171</ele>
        <time>2024-09-20T07:47:31Z</time>
      </trkpt>
      <trkpt lat="45.91296" lon="4.8116">
        <ele>171</ele>
        <time>2024-09-20T07:47:32Z</time>
      </trkpt>
      <trkpt lat="45.91292" lon="4.81159">
        <ele>171</ele>
        <time>2024-09-20T07:47:33Z</time>
      </trkpt>
      <trkpt lat="45.91287" lon="4.81159">
        <ele>170.6</ele>
        <time>2024-09-20T07:47:34Z</time>
      </trkpt>
      <trkpt lat="45.91283" lon="4.81158">
        <ele>170.6</ele>
        <time>2024-09-20T07:47:35Z</time>
      </trkpt>
      <trkpt lat="45.91279" lon="4.81158">
        <ele>170.6</ele>
        <time>2024-09-20T07:47:36Z</time>
      </trkpt>
      <trkpt lat="45.91275" lon="4.81158">
        <ele>170.6</ele>
        <time>2024-09-20T07:47:37Z</time>
      </trkpt>
      <trkpt lat="45.9127" lon="4.81158">
        <ele>170.6</ele>
        <time>2024-09-20T07:47:38Z</time>
      </trkpt>
      <trkpt lat="45.91266" lon="4.81158">
        <ele>170.6</ele>
        <time>2024-09-20T07:47:39Z</time>
      </trkpt>
      <trkpt lat="45.91262" lon="4.81158">
        <ele>171</ele>
        <time>2024-09-20T07:47:40Z</time>
      </trkpt>
      <trkpt lat="45.91258" lon="4.81158">
        <ele>171</ele>
        <time>2024-09-20T07:47:41Z</time>
      </trkpt>
      <trkpt lat="45.91254" lon="4.81158">
        <ele>171</ele>
        <time>2024-09-20T07:47:42Z</time>
      </trkpt>
      <trkpt lat="45.9125" lon="4.81159">
        <ele>170.8</ele>
        <time>2024-09-20T07:47:43Z</time>
      </trkpt>
      <trkpt lat="45.91246" lon="4.81159">
        <ele>171</ele>
        <time>2024-09-20T07:47:44Z</time>
      </trkpt>
      <trkpt lat="45.91242" lon="4.81159">
        <ele>171</ele>
        <time>2024-09-20T07:47:45Z</time>
      </trkpt>
      <trkpt lat="45.91238" lon="4.81159">
        <ele>171</ele>
        <time>2024-09-20T07:47:46Z</time>
      </trkpt>
      <trkpt lat="45.91234" lon="4.81159">
        <ele>171</ele>
        <time>2024-09-20T07:47:47Z</time>
      </trkpt>
      <trkpt lat="45.9123" lon="4.81159">
        <ele>170.8</ele>
        <time>2024-09-20T07:47:48Z</time>
      </trkpt>
      <trkpt lat="45.91226" lon="4.8116">
        <ele>170.8</ele>
        <time>2024-09-20T07:47:49Z</time>
      </trkpt>
      <trkpt lat="45.91223" lon="4.8116">
        <ele>170.8</ele>
        <time>2024-09-20T07:47:50Z</time>
      </trkpt>
      <trkpt lat="45.91219" lon="4.8116">
        <ele>170.8</ele>
        <time>2024-09-20T07:47:51Z</time>
      </trkpt>
      <trkpt lat="45.91215" lon="4.8116">
        <ele>170.8</ele>
        <time>2024-09-20T07:47:52Z</time>
      </trkpt>
      <trkpt lat="45.91211" lon="4.8116">
        <ele>170.8</ele>
        <time>2024-09-20T07:47:53Z</time>
      </trkpt>
      <trkpt lat="45.91207" lon="4.81161">
        <ele>170.8</ele>
        <time>2024-09-20T07:47:54Z</time>
      </trkpt>
      <trkpt lat="45.91203" lon="4.81161">
        <ele>170.8</ele>
        <time>2024-09-20T07:47:55Z</time>
      </trkpt>
      <trkpt lat="45.91198" lon="4.81162">
        <ele>170.8</ele>
        <time>2024-09-20T07:47:56Z</time>
      </trkpt>
      <trkpt lat="45.91194" lon="4.81162">
        <ele>171</ele>
        <time>2024-09-20T07:47:57Z</time>
      </trkpt>
      <trkpt lat="45.9119" lon="4.81162">
        <ele>171</ele>
        <time>2024-09-20T07:47:58Z</time>
      </trkpt>
      <trkpt lat="45.91185" lon="4.81163">
        <ele>171</ele>
        <time>2024-09-20T07:47:59Z</time>
      </trkpt>
      <trkpt lat="45.91181" lon="4.81164">
        <ele>171</ele>
        <time>2024-09-20T07:48:00Z</time>
      </trkpt>
      <trkpt lat="45.91177" lon="4.81164">
        <ele>170.8</ele>
        <time>2024-09-20T07:48:01Z</time>
      </trkpt>
      <trkpt lat="45.91172" lon="4.81165">
        <ele>170.8</ele>
        <time>2024-09-20T07:48:02Z</time>
      </trkpt>
      <trkpt lat="45.91168" lon="4.81165">
        <ele>170.8</ele>
        <time>2024-09-20T07:48:03Z</time>
      </trkpt>
      <trkpt lat="45.91164" lon="4.81166">
        <ele>170.8</ele>
        <time>2024-09-20T07:48:04Z</time>
      </trkpt>
      <trkpt lat="45.91159" lon="4.81166">
        <ele>170.8</ele>
        <time>2024-09-20T07:48:05Z</time>
      </trkpt>
      <trkpt lat="45.91155" lon="4.81167">
        <ele>170.8</ele>
        <time>2024-09-20T07:48:06Z</time>
      </trkpt>
      <trkpt lat="45.9115" lon="4.81167">
        <ele>170.8</ele>
        <time>2024-09-20T07:48:07Z</time>
      </trkpt>
      <trkpt lat="45.91146" lon="4.81168">
        <ele>170.8</ele>
        <time>2024-09-20T07:48:08Z</time>
      </trkpt>
      <trkpt lat="45.91141" lon="4.81168">
        <ele>170.8</ele>
        <time>2024-09-20T07:48:09Z</time>
      </trkpt>
      <trkpt lat="45.91137" lon="4.81169">
        <ele>170.8</ele>
        <time>2024-09-20T07:48:10Z</time>
      </trkpt>
      <trkpt lat="45.91132" lon="4.81169">
        <ele>170.8</ele>
        <time>2024-09-20T07:48:11Z</time>
      </trkpt>
      <trkpt lat="45.91128" lon="4.8117">
        <ele>170.8</ele>
        <time>2024-09-20T07:48:12Z</time>
      </trkpt>
      <trkpt lat="45.91124" lon="4.8117">
        <ele>170.8</ele>
        <time>2024-09-20T07:48:13Z</time>
      </trkpt>
      <trkpt lat="45.91119" lon="4.81171">
        <ele>171</ele>
        <time>2024-09-20T07:48:14Z</time>
      </trkpt>
      <trkpt lat="45.91115" lon="4.81171">
        <ele>171</ele>
        <time>2024-09-20T07:48:15Z</time>
      </trkpt>
      <trkpt lat="45.9111" lon="4.81171">
        <ele>171</ele>
        <time>2024-09-20T07:48:16Z</time>
      </trkpt>
      <trkpt lat="45.91106" lon="4.81171">
        <ele>171</ele>
        <time>2024-09-20T07:48:17Z</time>
      </trkpt>
      <trkpt lat="45.91101" lon="4.81172">
        <ele>171</ele>
        <time>2024-09-20T07:48:18Z</time>
      </trkpt>
      <trkpt lat="45.91096" lon="4.81172">
        <ele>170.8</ele>
        <time>2024-09-20T07:48:19Z</time>
      </trkpt>
      <trkpt lat="45.91091" lon="4.81172">
        <ele>171</ele>
        <time>2024-09-20T07:48:20Z</time>
      </trkpt>
      <trkpt lat="45.91087" lon="4.81173">
        <ele>171</ele>
        <time>2024-09-20T07:48:21Z</time>
      </trkpt>
      <trkpt lat="45.91082" lon="4.81173">
        <ele>171</ele>
        <time>2024-09-20T07:48:22Z</time>
      </trkpt>
      <trkpt lat="45.91077" lon="4.81174">
        <ele>171</ele>
        <time>2024-09-20T07:48:23Z</time>
      </trkpt>
      <trkpt lat="45.91073" lon="4.81175">
        <ele>170.8</ele>
        <time>2024-09-20T07:48:24Z</time>
      </trkpt>
      <trkpt lat="45.91068" lon="4.81177">
        <ele>170.8</ele>
        <time>2024-09-20T07:48:25Z</time>
      </trkpt>
      <trkpt lat="45.91064" lon="4.81179">
        <ele>170.8</ele>
        <time>2024-09-20T07:48:26Z</time>
      </trkpt>
      <trkpt lat="45.9106" lon="4.81181">
        <ele>170.8</ele>
        <time>2024-09-20T07:48:27Z</time>
      </trkpt>
      <trkpt lat="45.91055" lon="4.81183">
        <ele>170.8</ele>
        <time>2024-09-20T07:48:28Z</time>
      </trkpt>
      <trkpt lat="45.91051" lon="4.81186">
        <ele>170.8</ele>
        <time>2024-09-20T07:48:29Z</time>
      </trkpt>
      <trkpt lat="45.91048" lon="4.81189">
        <ele>170.8</ele>
        <time>2024-09-20T07:48:30Z</time>
      </trkpt>
      <trkpt lat="45.91044" lon="4.81192">
        <ele>170.8</ele>
        <time>2024-09-20T07:48:31Z</time>
      </trkpt>
      <trkpt lat="45.9104" lon="4.81196">
        <ele>170.8</ele>
        <time>2024-09-20T07:48:32Z</time>
      </trkpt>
      <trkpt lat="45.91037" lon="4.812">
        <ele>171</ele>
        <time>2024-09-20T07:48:33Z</time>
      </trkpt>
      <trkpt lat="45.91034" lon="4.81205">
        <ele>171</ele>
        <time>2024-09-20T07:48:34Z</time>
      </trkpt>
      <trkpt lat="45.91031" lon="4.81209">
        <ele>171</ele>
        <time>2024-09-20T07:48:35Z</time>
      </trkpt>
      <trkpt lat="45.91029" lon="4.81214">
        <ele>170.6</ele>
        <time>2024-09-20T07:48:36Z</time>
      </trkpt>
      <trkpt lat="45.91026" lon="4.81219">
        <ele>170.4</ele>
        <time>2024-09-20T07:48:37Z</time>
      </trkpt>
      <trkpt lat="45.91022" lon="4.81223">
        <ele>170.4</ele>
        <time>2024-09-20T07:48:38Z</time>
      </trkpt>
      <trkpt lat="45.91019" lon="4.81228">
        <ele>170.4</ele>
        <time>2024-09-20T07:48:39Z</time>
      </trkpt>
      <trkpt lat="45.91015" lon="4.81232">
        <ele>170.4</ele>
        <time>2024-09-20T07:48:40Z</time>
      </trkpt>
      <trkpt lat="45.91012" lon="4.81235">
        <ele>170.4</ele>
        <time>2024-09-20T07:48:41Z</time>
      </trkpt>
      <trkpt lat="45.91008" lon="4.81239">
        <ele>170.8</ele>
        <time>2024-09-20T07:48:42Z</time>
      </trkpt>
      <trkpt lat="45.91003" lon="4.81242">
        <ele>170.8</ele>
        <time>2024-09-20T07:48:43Z</time>
      </trkpt>
      <trkpt lat="45.90999" lon="4.81243">
        <ele>170.8</ele>
        <time>2024-09-20T07:48:44Z</time>
      </trkpt>
      <trkpt lat="45.90994" lon="4.81244">
        <ele>170.8</ele>
        <time>2024-09-20T07:48:45Z</time>
      </trkpt>
      <trkpt lat="45.9099" lon="4.81244">
        <ele>170.8</ele>
        <time>2024-09-20T07:48:46Z</time>
      </trkpt>
      <trkpt lat="45.90986" lon="4.81244">
        <ele>170.6</ele>
        <time>2024-09-20T07:48:47Z</time>
      </trkpt>
      <trkpt lat="45.90982" lon="4.81243">
        <ele>170.6</ele>
        <time>2024-09-20T07:48:48Z</time>
      </trkpt>
      <trkpt lat="45.90978" lon="4.81242">
        <ele>170.6</ele>
        <time>2024-09-20T07:48:49Z</time>
      </trkpt>
      <trkpt lat="45.90973" lon="4.81241">
        <ele>170.6</ele>
        <time>2024-09-20T07:48:50Z</time>
      </trkpt>
      <trkpt lat="45.90969" lon="4.8124">
        <ele>170.4</ele>
        <time>2024-09-20T07:48:51Z</time>
      </trkpt>
      <trkpt lat="45.90964" lon="4.81239">
        <ele>170.4</ele>
        <time>2024-09-20T07:48:52Z</time>
      </trkpt>
      <trkpt lat="45.9096" lon="4.81238">
        <ele>170.4</ele>
        <time>2024-09-20T07:48:53Z</time>
      </trkpt>
      <trkpt lat="45.90956" lon="4.81237">
        <ele>170.4</ele>
        <time>2024-09-20T07:48:54Z</time>
      </trkpt>
      <trkpt lat="45.90952" lon="4.81237">
        <ele>170.4</ele>
        <time>2024-09-20T07:48:55Z</time>
      </trkpt>
      <trkpt lat="45.90947" lon="4.81236">
        <ele>170.4</ele>
        <time>2024-09-20T07:48:56Z</time>
      </trkpt>
      <trkpt lat="45.90943" lon="4.81235">
        <ele>170.4</ele>
        <time>2024-09-20T07:48:57Z</time>
      </trkpt>
      <trkpt lat="45.90938" lon="4.81234">
        <ele>170.4</ele>
        <time>2024-09-20T07:48:58Z</time>
      </trkpt>
      <trkpt lat="45.90934" lon="4.81233">
        <ele>170.4</ele>
        <time>2024-09-20T07:48:59Z</time>
      </trkpt>
      <trkpt lat="45.90929" lon="4.81232">
        <ele>170.4</ele>
        <time>2024-09-20T07:49:00Z</time>
      </trkpt>
      <trkpt lat="45.90925" lon="4.81231">
        <ele>170.4</ele>
        <time>2024-09-20T07:49:01Z</time>
      </trkpt>
      <trkpt lat="45.90921" lon="4.8123">
        <ele>170.4</ele>
        <time>2024-09-20T07:49:02Z</time>
      </trkpt>
      <trkpt lat="45.90916" lon="4.81229">
        <ele>170.4</ele>
        <time>2024-09-20T07:49:03Z</time>
      </trkpt>
      <trkpt lat="45.90912" lon="4.81228">
        <ele>170.2</ele>
        <time>2024-09-20T07:49:04Z</time>
      </trkpt>
      <trkpt lat="45.90907" lon="4.81227">
        <ele>170.8</ele>
        <time>2024-09-20T07:49:05Z</time>
      </trkpt>
      <trkpt lat="45.90903" lon="4.81226">
        <ele>170.8</ele>
        <time>2024-09-20T07:49:06Z</time>
      </trkpt>
      <trkpt lat="45.90898" lon="4.81225">
        <ele>170.8</ele>
        <time>2024-09-20T07:49:07Z</time>
      </trkpt>
      <trkpt lat="45.90894" lon="4.81224">
        <ele>170.2</ele>
        <time>2024-09-20T07:49:08Z</time>
      </trkpt>
      <trkpt lat="45.90889" lon="4.81223">
        <ele>170.6</ele>
        <time>2024-09-20T07:49:09Z</time>
      </trkpt>
      <trkpt lat="45.90885" lon="4.81221">
        <ele>170.6</ele>
        <time>2024-09-20T07:49:10Z</time>
      </trkpt>
      <trkpt lat="45.9088" lon="4.8122">
        <ele>170.6</ele>
        <time>2024-09-20T07:49:11Z</time>
      </trkpt>
      <trkpt lat="45.90876" lon="4.81219">
        <ele>170.4</ele>
        <time>2024-09-20T07:49:12Z</time>
      </trkpt>
      <trkpt lat="45.90871" lon="4.81217">
        <ele>170.4</ele>
        <time>2024-09-20T07:49:13Z</time>
      </trkpt>
      <trkpt lat="45.90866" lon="4.81216">
        <ele>170.4</ele>
        <time>2024-09-20T07:49:14Z</time>
      </trkpt>
      <trkpt lat="45.90862" lon="4.81215">
        <ele>170.4</ele>
        <time>2024-09-20T07:49:15Z</time>
      </trkpt>
      <trkpt lat="45.90857" lon="4.81214">
        <ele>170.4</ele>
        <time>2024-09-20T07:49:16Z</time>
      </trkpt>
      <trkpt lat="45.90853" lon="4.81213">
        <ele>170.4</ele>
        <time>2024-09-20T07:49:17Z</time>
      </trkpt>
      <trkpt lat="45.90848" lon="4.81211">
        <ele>170.6</ele>
        <time>2024-09-20T07:49:18Z</time>
      </trkpt>
      <trkpt lat="45.90843" lon="4.8121">
        <ele>170.6</ele>
        <time>2024-09-20T07:49:19Z</time>
      </trkpt>
      <trkpt lat="45.90839" lon="4.81209">
        <ele>170.6</ele>
        <time>2024-09-20T07:49:20Z</time>
      </trkpt>
      <trkpt lat="45.90834" lon="4.81207">
        <ele>170.6</ele>
        <time>2024-09-20T07:49:21Z</time>
      </trkpt>
      <trkpt lat="45.90829" lon="4.81206">
        <ele>170.4</ele>
        <time>2024-09-20T07:49:22Z</time>
      </trkpt>
      <trkpt lat="45.90824" lon="4.81205">
        <ele>170.4</ele>
        <time>2024-09-20T07:49:23Z</time>
      </trkpt>
      <trkpt lat="45.9082" lon="4.81203">
        <ele>170.4</ele>
        <time>2024-09-20T07:49:24Z</time>
      </trkpt>
      <trkpt lat="45.90815" lon="4.81202">
        <ele>170.2</ele>
        <time>2024-09-20T07:49:25Z</time>
      </trkpt>
      <trkpt lat="45.9081" lon="4.812">
        <ele>170.2</ele>
        <time>2024-09-20T07:49:26Z</time>
      </trkpt>
      <trkpt lat="45.90805" lon="4.81199">
        <ele>170.2</ele>
        <time>2024-09-20T07:49:27Z</time>
      </trkpt>
      <trkpt lat="45.90801" lon="4.81198">
        <ele>170.2</ele>
        <time>2024-09-20T07:49:28Z</time>
      </trkpt>
      <trkpt lat="45.90796" lon="4.81197">
        <ele>170.2</ele>
        <time>2024-09-20T07:49:29Z</time>
      </trkpt>
      <trkpt lat="45.90792" lon="4.81196">
        <ele>170.2</ele>
        <time>2024-09-20T07:49:30Z</time>
      </trkpt>
      <trkpt lat="45.90788" lon="4.81195">
        <ele>170.4</ele>
        <time>2024-09-20T07:49:31Z</time>
      </trkpt>
      <trkpt lat="45.90784" lon="4.81193">
        <ele>170.4</ele>
        <time>2024-09-20T07:49:32Z</time>
      </trkpt>
      <trkpt lat="45.9078" lon="4.81192">
        <ele>170.4</ele>
        <time>2024-09-20T07:49:33Z</time>
      </trkpt>
      <trkpt lat="45.90776" lon="4.81191">
        <ele>170.4</ele>
        <time>2024-09-20T07:49:34Z</time>
      </trkpt>
      <trkpt lat="45.90772" lon="4.81189">
        <ele>170.2</ele>
        <time>2024-09-20T07:49:35Z</time>
      </trkpt>
      <trkpt lat="45.90769" lon="4.81188">
        <ele>170.2</ele>
        <time>2024-09-20T07:49:36Z</time>
      </trkpt>
      <trkpt lat="45.90765" lon="4.81186">
        <ele>170.2</ele>
        <time>2024-09-20T07:49:37Z</time>
      </trkpt>
      <trkpt lat="45.90762" lon="4.81185">
        <ele>170.2</ele>
        <time>2024-09-20T07:49:38Z</time>
      </trkpt>
      <trkpt lat="45.90758" lon="4.81183">
        <ele>170.2</ele>
        <time>2024-09-20T07:49:39Z</time>
      </trkpt>
      <trkpt lat="45.90755" lon="4.81182">
        <ele>170.2</ele>
        <time>2024-09-20T07:49:40Z</time>
      </trkpt>
      <trkpt lat="45.90751" lon="4.81181">
        <ele>170.2</ele>
        <time>2024-09-20T07:49:41Z</time>
      </trkpt>
      <trkpt lat="45.90748" lon="4.81179">
        <ele>170.2</ele>
        <time>2024-09-20T07:49:42Z</time>
      </trkpt>
      <trkpt lat="45.90744" lon="4.81178">
        <ele>170.2</ele>
        <time>2024-09-20T07:49:43Z</time>
      </trkpt>
      <trkpt lat="45.9074" lon="4.81176">
        <ele>170.2</ele>
        <time>2024-09-20T07:49:44Z</time>
      </trkpt>
      <trkpt lat="45.90737" lon="4.81174">
        <ele>170.2</ele>
        <time>2024-09-20T07:49:45Z</time>
      </trkpt>
      <trkpt lat="45.90733" lon="4.81173">
        <ele>170.2</ele>
        <time>2024-09-20T07:49:46Z</time>
      </trkpt>
      <trkpt lat="45.90729" lon="4.81171">
        <ele>170.2</ele>
        <time>2024-09-20T07:49:47Z</time>
      </trkpt>
      <trkpt lat="45.90726" lon="4.81169">
        <ele>170.2</ele>
        <time>2024-09-20T07:49:48Z</time>
      </trkpt>
      <trkpt lat="45.90722" lon="4.81168">
        <ele>170.2</ele>
        <time>2024-09-20T07:49:49Z</time>
      </trkpt>
      <trkpt lat="45.90719" lon="4.81167">
        <ele>170.2</ele>
        <time>2024-09-20T07:49:50Z</time>
      </trkpt>
      <trkpt lat="45.90715" lon="4.81165">
        <ele>170.2</ele>
        <time>2024-09-20T07:49:51Z</time>
      </trkpt>
      <trkpt lat="45.90711" lon="4.81163">
        <ele>170.2</ele>
        <time>2024-09-20T07:49:52Z</time>
      </trkpt>
      <trkpt lat="45.90707" lon="4.81161">
        <ele>170.2</ele>
        <time>2024-09-20T07:49:53Z</time>
      </trkpt>
      <trkpt lat="45.90703" lon="4.81159">
        <ele>170.4</ele>
        <time>2024-09-20T07:49:54Z</time>
      </trkpt>
      <trkpt lat="45.907" lon="4.81156">
        <ele>170.4</ele>
        <time>2024-09-20T07:49:55Z</time>
      </trkpt>
      <trkpt lat="45.90696" lon="4.81154">
        <ele>170.4</ele>
        <time>2024-09-20T07:49:56Z</time>
      </trkpt>
      <trkpt lat="45.90692" lon="4.81151">
        <ele>170.4</ele>
        <time>2024-09-20T07:49:57Z</time>
      </trkpt>
      <trkpt lat="45.90688" lon="4.81148">
        <ele>170.4</ele>
        <time>2024-09-20T07:49:58Z</time>
      </trkpt>
      <trkpt lat="45.90684" lon="4.81145">
        <ele>170.4</ele>
        <time>2024-09-20T07:49:59Z</time>
      </trkpt>
      <trkpt lat="45.9068" lon="4.81143">
        <ele>170.4</ele>
        <time>2024-09-20T07:50:00Z</time>
      </trkpt>
      <trkpt lat="45.90676" lon="4.8114">
        <ele>170.4</ele>
        <time>2024-09-20T07:50:01Z</time>
      </trkpt>
      <trkpt lat="45.90672" lon="4.81137">
        <ele>170.2</ele>
        <time>2024-09-20T07:50:02Z</time>
      </trkpt>
      <trkpt lat="45.90668" lon="4.81134">
        <ele>170.2</ele>
        <time>2024-09-20T07:50:03Z</time>
      </trkpt>
      <trkpt lat="45.90664" lon="4.81131">
        <ele>170.2</ele>
        <time>2024-09-20T07:50:04Z</time>
      </trkpt>
      <trkpt lat="45.90661" lon="4.81128">
        <ele>170.2</ele>
        <time>2024-09-20T07:50:05Z</time>
      </trkpt>
      <trkpt lat="45.90657" lon="4.81125">
        <ele>170.2</ele>
        <time>2024-09-20T07:50:06Z</time>
      </trkpt>
      <trkpt lat="45.90653" lon="4.81121">
        <ele>170.2</ele>
        <time>2024-09-20T07:50:07Z</time>
      </trkpt>
      <trkpt lat="45.90649" lon="4.81118">
        <ele>170.2</ele>
        <time>2024-09-20T07:50:08Z</time>
      </trkpt>
      <trkpt lat="45.90646" lon="4.81115">
        <ele>170.2</ele>
        <time>2024-09-20T07:50:09Z</time>
      </trkpt>
      <trkpt lat="45.90642" lon="4.81112">
        <ele>170.2</ele>
        <time>2024-09-20T07:50:10Z</time>
      </trkpt>
      <trkpt lat="45.90639" lon="4.81108">
        <ele>170.2</ele>
        <time>2024-09-20T07:50:11Z</time>
      </trkpt>
      <trkpt lat="45.90635" lon="4.81105">
        <ele>170.2</ele>
        <time>2024-09-20T07:50:12Z</time>
      </trkpt>
      <trkpt lat="45.90631" lon="4.81101">
        <ele>170.2</ele>
        <time>2024-09-20T07:50:13Z</time>
      </trkpt>
      <trkpt lat="45.90628" lon="4.81097">
        <ele>170.2</ele>
        <time>2024-09-20T07:50:14Z</time>
      </trkpt>
      <trkpt lat="45.90624" lon="4.81094">
        <ele>170.2</ele>
        <time>2024-09-20T07:50:15Z</time>
      </trkpt>
      <trkpt lat="45.90621" lon="4.8109">
        <ele>170.2</ele>
        <time>2024-09-20T07:50:16Z</time>
      </trkpt>
      <trkpt lat="45.90617" lon="4.81086">
        <ele>170.2</ele>
        <time>2024-09-20T07:50:17Z</time>
      </trkpt>
      <trkpt lat="45.90613" lon="4.81083">
        <ele>170.2</ele>
        <time>2024-09-20T07:50:18Z</time>
      </trkpt>
      <trkpt lat="45.9061" lon="4.81079">
        <ele>170.2</ele>
        <time>2024-09-20T07:50:19Z</time>
      </trkpt>
      <trkpt lat="45.90606" lon="4.81075">
        <ele>170.2</ele>
        <time>2024-09-20T07:50:20Z</time>
      </trkpt>
      <trkpt lat="45.90603" lon="4.81072">
        <ele>170.2</ele>
        <time>2024-09-20T07:50:21Z</time>
      </trkpt>
      <trkpt lat="45.90599" lon="4.81068">
        <ele>170.2</ele>
        <time>2024-09-20T07:50:22Z</time>
      </trkpt>
      <trkpt lat="45.90596" lon="4.81064">
        <ele>170.2</ele>
        <time>2024-09-20T07:50:23Z</time>
      </trkpt>
      <trkpt lat="45.90593" lon="4.8106">
        <ele>170.4</ele>
        <time>2024-09-20T07:50:24Z</time>
      </trkpt>
      <trkpt lat="45.90589" lon="4.81056">
        <ele>170.4</ele>
        <time>2024-09-20T07:50:25Z</time>
      </trkpt>
      <trkpt lat="45.90586" lon="4.81052">
        <ele>170.4</ele>
        <time>2024-09-20T07:50:26Z</time>
      </trkpt>
      <trkpt lat="45.90583" lon="4.81047">
        <ele>170.4</ele>
        <time>2024-09-20T07:50:27Z</time>
      </trkpt>
      <trkpt lat="45.90579" lon="4.81043">
        <ele>170.2</ele>
        <time>2024-09-20T07:50:28Z</time>
      </trkpt>
      <trkpt lat="45.90575" lon="4.81041">
        <ele>170.2</ele>
        <time>2024-09-20T07:50:29Z</time>
      </trkpt>
      <trkpt lat="45.90572" lon="4.81037">
        <ele>170.2</ele>
        <time>2024-09-20T07:50:30Z</time>
      </trkpt>
      <trkpt lat="45.90568" lon="4.81033">
        <ele>170.2</ele>
        <time>2024-09-20T07:50:31Z</time>
      </trkpt>
      <trkpt lat="45.90565" lon="4.81029">
        <ele>170.2</ele>
        <time>2024-09-20T07:50:32Z</time>
      </trkpt>
      <trkpt lat="45.90562" lon="4.81025">
        <ele>170.2</ele>
        <time>2024-09-20T07:50:33Z</time>
      </trkpt>
      <trkpt lat="45.90559" lon="4.81021">
        <ele>169.8</ele>
        <time>2024-09-20T07:50:34Z</time>
      </trkpt>
      <trkpt lat="45.90556" lon="4.81017">
        <ele>169.8</ele>
        <time>2024-09-20T07:50:35Z</time>
      </trkpt>
      <trkpt lat="45.90553" lon="4.81013">
        <ele>169.8</ele>
        <time>2024-09-20T07:50:36Z</time>
      </trkpt>
      <trkpt lat="45.9055" lon="4.81008">
        <ele>169.8</ele>
        <time>2024-09-20T07:50:37Z</time>
      </trkpt>
      <trkpt lat="45.90547" lon="4.81003">
        <ele>169.6</ele>
        <time>2024-09-20T07:50:38Z</time>
      </trkpt>
      <trkpt lat="45.90543" lon="4.81">
        <ele>169.6</ele>
        <time>2024-09-20T07:50:39Z</time>
      </trkpt>
      <trkpt lat="45.9054" lon="4.80997">
        <ele>169.6</ele>
        <time>2024-09-20T07:50:40Z</time>
      </trkpt>
      <trkpt lat="45.90536" lon="4.80993">
        <ele>169.6</ele>
        <time>2024-09-20T07:50:41Z</time>
      </trkpt>
      <trkpt lat="45.90533" lon="4.80989">
        <ele>169.6</ele>
        <time>2024-09-20T07:50:42Z</time>
      </trkpt>
      <trkpt lat="45.9053" lon="4.80985">
        <ele>169.4</ele>
        <time>2024-09-20T07:50:43Z</time>
      </trkpt>
      <trkpt lat="45.90527" lon="4.8098">
        <ele>169.4</ele>
        <time>2024-09-20T07:50:44Z</time>
      </trkpt>
      <trkpt lat="45.90523" lon="4.80977">
        <ele>169.4</ele>
        <time>2024-09-20T07:50:45Z</time>
      </trkpt>
      <trkpt lat="45.9052" lon="4.80973">
        <ele>169.4</ele>
        <time>2024-09-20T07:50:46Z</time>
      </trkpt>
      <trkpt lat="45.90516" lon="4.80969">
        <ele>169.2</ele>
        <time>2024-09-20T07:50:47Z</time>
      </trkpt>
      <trkpt lat="45.90513" lon="4.80965">
        <ele>169.2</ele>
        <time>2024-09-20T07:50:48Z</time>
      </trkpt>
      <trkpt lat="45.90509" lon="4.8096">
        <ele>169.2</ele>
        <time>2024-09-20T07:50:49Z</time>
      </trkpt>
      <trkpt lat="45.90505" lon="4.80956">
        <ele>169.4</ele>
        <time>2024-09-20T07:50:50Z</time>
      </trkpt>
      <trkpt lat="45.90501" lon="4.80952">
        <ele>169.6</ele>
        <time>2024-09-20T07:50:51Z</time>
      </trkpt>
      <trkpt lat="45.90498" lon="4.80948">
        <ele>169.6</ele>
        <time>2024-09-20T07:50:52Z</time>
      </trkpt>
      <trkpt lat="45.90495" lon="4.80944">
        <ele>169.6</ele>
        <time>2024-09-20T07:50:53Z</time>
      </trkpt>
      <trkpt lat="45.90491" lon="4.8094">
        <ele>169.6</ele>
        <time>2024-09-20T07:50:54Z</time>
      </trkpt>
      <trkpt lat="45.90488" lon="4.80935">
        <ele>169.6</ele>
        <time>2024-09-20T07:50:55Z</time>
      </trkpt>
      <trkpt lat="45.90485" lon="4.8093">
        <ele>169.6</ele>
        <time>2024-09-20T07:50:56Z</time>
      </trkpt>
      <trkpt lat="45.90482" lon="4.80924">
        <ele>169.6</ele>
        <time>2024-09-20T07:50:57Z</time>
      </trkpt>
      <trkpt lat="45.90479" lon="4.80919">
        <ele>169.6</ele>
        <time>2024-09-20T07:50:58Z</time>
      </trkpt>
      <trkpt lat="45.90476" lon="4.80913">
        <ele>169.4</ele>
        <time>2024-09-20T07:50:59Z</time>
      </trkpt>
      <trkpt lat="45.90473" lon="4.80907">
        <ele>169.2</ele>
        <time>2024-09-20T07:51:00Z</time>
      </trkpt>
      <trkpt lat="45.90471" lon="4.80902">
        <ele>169.2</ele>
        <time>2024-09-20T07:51:01Z</time>
      </trkpt>
      <trkpt lat="45.90468" lon="4.80896">
        <ele>169.2</ele>
        <time>2024-09-20T07:51:02Z</time>
      </trkpt>
      <trkpt lat="45.90465" lon="4.8089">
        <ele>169.6</ele>
        <time>2024-09-20T07:51:03Z</time>
      </trkpt>
      <trkpt lat="45.90463" lon="4.80884">
        <ele>169</ele>
        <time>2024-09-20T07:51:04Z</time>
      </trkpt>
      <trkpt lat="45.9046" lon="4.80878">
        <ele>169</ele>
        <time>2024-09-20T07:51:05Z</time>
      </trkpt>
      <trkpt lat="45.90458" lon="4.80873">
        <ele>169</ele>
        <time>2024-09-20T07:51:06Z</time>
      </trkpt>
      <trkpt lat="45.90455" lon="4.80868">
        <ele>169</ele>
        <time>2024-09-20T07:51:07Z</time>
      </trkpt>
      <trkpt lat="45.90453" lon="4.80863">
        <ele>169</ele>
        <time>2024-09-20T07:51:08Z</time>
      </trkpt>
      <trkpt lat="45.90451" lon="4.80858">
        <ele>169.4</ele>
        <time>2024-09-20T07:51:09Z</time>
      </trkpt>
      <trkpt lat="45.90449" lon="4.80852">
        <ele>168.8</ele>
        <time>2024-09-20T07:51:10Z</time>
      </trkpt>
      <trkpt lat="45.90446" lon="4.80847">
        <ele>168.8</ele>
        <time>2024-09-20T07:51:11Z</time>
      </trkpt>
      <trkpt lat="45.90443" lon="4.80842">
        <ele>168.8</ele>
        <time>2024-09-20T07:51:12Z</time>
      </trkpt>
      <trkpt lat="45.90441" lon="4.80838">
        <ele>169.2</ele>
        <time>2024-09-20T07:51:13Z</time>
      </trkpt>
      <trkpt lat="45.90439" lon="4.80833">
        <ele>169.6</ele>
        <time>2024-09-20T07:51:14Z</time>
      </trkpt>
      <trkpt lat="45.90436" lon="4.80829">
        <ele>169.6</ele>
        <time>2024-09-20T07:51:15Z</time>
      </trkpt>
      <trkpt lat="45.90434" lon="4.80824">
        <ele>169.6</ele>
        <time>2024-09-20T07:51:16Z</time>
      </trkpt>
      <trkpt lat="45.90432" lon="4.8082">
        <ele>169.4</ele>
        <time>2024-09-20T07:51:17Z</time>
      </trkpt>
      <trkpt lat="45.9043" lon="4.80815">
        <ele>169.6</ele>
        <time>2024-09-20T07:51:18Z</time>
      </trkpt>
      <trkpt lat="45.90428" lon="4.8081">
        <ele>169.6</ele>
        <time>2024-09-20T07:51:19Z</time>
      </trkpt>
      <trkpt lat="45.90425" lon="4.80805">
        <ele>169.6</ele>
        <time>2024-09-20T07:51:20Z</time>
      </trkpt>
      <trkpt lat="45.90422" lon="4.808">
        <ele>169.6</ele>
        <time>2024-09-20T07:51:21Z</time>
      </trkpt>
      <trkpt lat="45.90419" lon="4.80794">
        <ele>169.6</ele>
        <time>2024-09-20T07:51:22Z</time>
      </trkpt>
      <trkpt lat="45.90416" lon="4.80789">
        <ele>169.6</ele>
        <time>2024-09-20T07:51:23Z</time>
      </trkpt>
      <trkpt lat="45.90413" lon="4.80784">
        <ele>169.6</ele>
        <time>2024-09-20T07:51:24Z</time>
      </trkpt>
      <trkpt lat="45.9041" lon="4.8078">
        <ele>169.6</ele>
        <time>2024-09-20T07:51:25Z</time>
      </trkpt>
      <trkpt lat="45.90407" lon="4.80775">
        <ele>169.6</ele>
        <time>2024-09-20T07:51:26Z</time>
      </trkpt>
      <trkpt lat="45.90404" lon="4.80769">
        <ele>169.6</ele>
        <time>2024-09-20T07:51:27Z</time>
      </trkpt>
      <trkpt lat="45.90401" lon="4.80764">
        <ele>169.6</ele>
        <time>2024-09-20T07:51:28Z</time>
      </trkpt>
      <trkpt lat="45.90398" lon="4.80758">
        <ele>169.6</ele>
        <time>2024-09-20T07:51:29Z</time>
      </trkpt>
      <trkpt lat="45.90395" lon="4.80753">
        <ele>169.6</ele>
        <time>2024-09-20T07:51:30Z</time>
      </trkpt>
      <trkpt lat="45.90392" lon="4.80748">
        <ele>169.6</ele>
        <time>2024-09-20T07:51:31Z</time>
      </trkpt>
      <trkpt lat="45.90388" lon="4.80742">
        <ele>169.8</ele>
        <time>2024-09-20T07:51:32Z</time>
      </trkpt>
      <trkpt lat="45.90385" lon="4.80736">
        <ele>169.8</ele>
        <time>2024-09-20T07:51:33Z</time>
      </trkpt>
      <trkpt lat="45.90382" lon="4.80731">
        <ele>169.8</ele>
        <time>2024-09-20T07:51:34Z</time>
      </trkpt>
      <trkpt lat="45.90379" lon="4.80725">
        <ele>169.6</ele>
        <time>2024-09-20T07:51:35Z</time>
      </trkpt>
      <trkpt lat="45.90375" lon="4.8072">
        <ele>169.6</ele>
        <time>2024-09-20T07:51:36Z</time>
      </trkpt>
      <trkpt lat="45.90372" lon="4.80715">
        <ele>169.6</ele>
        <time>2024-09-20T07:51:37Z</time>
      </trkpt>
      <trkpt lat="45.90368" lon="4.8071">
        <ele>169.6</ele>
        <time>2024-09-20T07:51:38Z</time>
      </trkpt>
      <trkpt lat="45.90365" lon="4.80705">
        <ele>169.6</ele>
        <time>2024-09-20T07:51:39Z</time>
      </trkpt>
      <trkpt lat="45.90361" lon="4.80701">
        <ele>169.6</ele>
        <time>2024-09-20T07:51:40Z</time>
      </trkpt>
      <trkpt lat="45.90358" lon="4.80697">
        <ele>169.6</ele>
        <time>2024-09-20T07:51:41Z</time>
      </trkpt>
      <trkpt lat="45.90354" lon="4.80692">
        <ele>169.6</ele>
        <time>2024-09-20T07:51:42Z</time>
      </trkpt>
      <trkpt lat="45.90351" lon="4.80688">
        <ele>169.6</ele>
        <time>2024-09-20T07:51:43Z</time>
      </trkpt>
      <trkpt lat="45.90348" lon="4.80683">
        <ele>169.6</ele>
        <time>2024-09-20T07:51:44Z</time>
      </trkpt>
      <trkpt lat="45.90345" lon="4.8068">
        <ele>170</ele>
        <time>2024-09-20T07:51:45Z</time>
      </trkpt>
      <trkpt lat="45.90342" lon="4.80677">
        <ele>170</ele>
        <time>2024-09-20T07:51:46Z</time>
      </trkpt>
      <trkpt lat="45.90339" lon="4.80672">
        <ele>170</ele>
        <time>2024-09-20T07:51:47Z</time>
      </trkpt>
      <trkpt lat="45.90334" lon="4.80667">
        <ele>169.8</ele>
        <time>2024-09-20T07:51:48Z</time>
      </trkpt>
      <trkpt lat="45.9033" lon="4.80663">
        <ele>169.8</ele>
        <time>2024-09-20T07:51:49Z</time>
      </trkpt>
      <trkpt lat="45.90327" lon="4.80659">
        <ele>169.8</ele>
        <time>2024-09-20T07:51:50Z</time>
      </trkpt>
      <trkpt lat="45.90323" lon="4.80655">
        <ele>169.8</ele>
        <time>2024-09-20T07:51:51Z</time>
      </trkpt>
      <trkpt lat="45.9032" lon="4.80651">
        <ele>169.8</ele>
        <time>2024-09-20T07:51:52Z</time>
      </trkpt>
      <trkpt lat="45.90317" lon="4.80647">
        <ele>170</ele>
        <time>2024-09-20T07:51:53Z</time>
      </trkpt>
      <trkpt lat="45.90313" lon="4.80643">
        <ele>169.8</ele>
        <time>2024-09-20T07:51:54Z</time>
      </trkpt>
      <trkpt lat="45.90309" lon="4.80639">
        <ele>169.8</ele>
        <time>2024-09-20T07:51:55Z</time>
      </trkpt>
      <trkpt lat="45.90306" lon="4.80636">
        <ele>169.8</ele>
        <time>2024-09-20T07:51:56Z</time>
      </trkpt>
      <trkpt lat="45.90302" lon="4.80632">
        <ele>169.8</ele>
        <time>2024-09-20T07:51:57Z</time>
      </trkpt>
      <trkpt lat="45.90298" lon="4.80628">
        <ele>169.8</ele>
        <time>2024-09-20T07:51:58Z</time>
      </trkpt>
      <trkpt lat="45.90294" lon="4.80625">
        <ele>170</ele>
        <time>2024-09-20T07:51:59Z</time>
      </trkpt>
      <trkpt lat="45.9029" lon="4.80622">
        <ele>170</ele>
        <time>2024-09-20T07:52:00Z</time>
      </trkpt>
      <trkpt lat="45.90286" lon="4.80618">
        <ele>170</ele>
        <time>2024-09-20T07:52:01Z</time>
      </trkpt>
      <trkpt lat="45.90282" lon="4.80615">
        <ele>170</ele>
        <time>2024-09-20T07:52:02Z</time>
      </trkpt>
      <trkpt lat="45.90279" lon="4.80612">
        <ele>170.2</ele>
        <time>2024-09-20T07:52:03Z</time>
      </trkpt>
      <trkpt lat="45.90275" lon="4.80609">
        <ele>170.2</ele>
        <time>2024-09-20T07:52:04Z</time>
      </trkpt>
      <trkpt lat="45.90271" lon="4.80605">
        <ele>170.2</ele>
        <time>2024-09-20T07:52:05Z</time>
      </trkpt>
      <trkpt lat="45.90267" lon="4.80602">
        <ele>169.8</ele>
        <time>2024-09-20T07:52:06Z</time>
      </trkpt>
      <trkpt lat="45.90263" lon="4.806">
        <ele>169.8</ele>
        <time>2024-09-20T07:52:07Z</time>
      </trkpt>
      <trkpt lat="45.90259" lon="4.80597">
        <ele>169.8</ele>
        <time>2024-09-20T07:52:08Z</time>
      </trkpt>
      <trkpt lat="45.90255" lon="4.80594">
        <ele>169.8</ele>
        <time>2024-09-20T07:52:09Z</time>
      </trkpt>
      <trkpt lat="45.90251" lon="4.80591">
        <ele>169.8</ele>
        <time>2024-09-20T07:52:10Z</time>
      </trkpt>
      <trkpt lat="45.90247" lon="4.80588">
        <ele>169.8</ele>
        <time>2024-09-20T07:52:11Z</time>
      </trkpt>
      <trkpt lat="45.90242" lon="4.80585">
        <ele>169.6</ele>
        <time>2024-09-20T07:52:12Z</time>
      </trkpt>
      <trkpt lat="45.90238" lon="4.80582">
        <ele>169.6</ele>
        <time>2024-09-20T07:52:13Z</time>
      </trkpt>
      <trkpt lat="45.90234" lon="4.80579">
        <ele>169.6</ele>
        <time>2024-09-20T07:52:14Z</time>
      </trkpt>
      <trkpt lat="45.9023" lon="4.80576">
        <ele>169.8</ele>
        <time>2024-09-20T07:52:15Z</time>
      </trkpt>
      <trkpt lat="45.90226" lon="4.80573">
        <ele>169.8</ele>
        <time>2024-09-20T07:52:16Z</time>
      </trkpt>
      <trkpt lat="45.90221" lon="4.80571">
        <ele>169.8</ele>
        <time>2024-09-20T07:52:17Z</time>
      </trkpt>
      <trkpt lat="45.90217" lon="4.80568">
        <ele>169.8</ele>
        <time>2024-09-20T07:52:18Z</time>
      </trkpt>
      <trkpt lat="45.90213" lon="4.80566">
        <ele>169.8</ele>
        <time>2024-09-20T07:52:19Z</time>
      </trkpt>
      <trkpt lat="45.90209" lon="4.80563">
        <ele>169.8</ele>
        <time>2024-09-20T07:52:20Z</time>
      </trkpt>
      <trkpt lat="45.90205" lon="4.80561">
        <ele>169.8</ele>
        <time>2024-09-20T07:52:21Z</time>
      </trkpt>
      <trkpt lat="45.90201" lon="4.80559">
        <ele>169.8</ele>
        <time>2024-09-20T07:52:22Z</time>
      </trkpt>
      <trkpt lat="45.90197" lon="4.80557">
        <ele>169.8</ele>
        <time>2024-09-20T07:52:23Z</time>
      </trkpt>
      <trkpt lat="45.90193" lon="4.80554">
        <ele>169.8</ele>
        <time>2024-09-20T07:52:24Z</time>
      </trkpt>
      <trkpt lat="45.90189" lon="4.80552">
        <ele>169.8</ele>
        <time>2024-09-20T07:52:25Z</time>
      </trkpt>
      <trkpt lat="45.90186" lon="4.8055">
        <ele>169.8</ele>
        <time>2024-09-20T07:52:26Z</time>
      </trkpt>
      <trkpt lat="45.90182" lon="4.80549">
        <ele>169.8</ele>
        <time>2024-09-20T07:52:27Z</time>
      </trkpt>
      <trkpt lat="45.90178" lon="4.80547">
        <ele>169.8</ele>
        <time>2024-09-20T07:52:28Z</time>
      </trkpt>
      <trkpt lat="45.90174" lon="4.80545">
        <ele>169.6</ele>
        <time>2024-09-20T07:52:29Z</time>
      </trkpt>
      <trkpt lat="45.9017" lon="4.80543">
        <ele>169.6</ele>
        <time>2024-09-20T07:52:30Z</time>
      </trkpt>
      <trkpt lat="45.90166" lon="4.80542">
        <ele>169.6</ele>
        <time>2024-09-20T07:52:31Z</time>
      </trkpt>
      <trkpt lat="45.90162" lon="4.8054">
        <ele>169.8</ele>
        <time>2024-09-20T07:52:32Z</time>
      </trkpt>
      <trkpt lat="45.90158" lon="4.80538">
        <ele>169.8</ele>
        <time>2024-09-20T07:52:33Z</time>
      </trkpt>
      <trkpt lat="45.90153" lon="4.80536">
        <ele>169.8</ele>
        <time>2024-09-20T07:52:34Z</time>
      </trkpt>
      <trkpt lat="45.90149" lon="4.80534">
        <ele>170</ele>
        <time>2024-09-20T07:52:35Z</time>
      </trkpt>
      <trkpt lat="45.90145" lon="4.80533">
        <ele>170</ele>
        <time>2024-09-20T07:52:36Z</time>
      </trkpt>
      <trkpt lat="45.9014" lon="4.80531">
        <ele>170</ele>
        <time>2024-09-20T07:52:37Z</time>
      </trkpt>
      <trkpt lat="45.90135" lon="4.80529">
        <ele>170.2</ele>
        <time>2024-09-20T07:52:38Z</time>
      </trkpt>
      <trkpt lat="45.90131" lon="4.80528">
        <ele>170.2</ele>
        <time>2024-09-20T07:52:39Z</time>
      </trkpt>
      <trkpt lat="45.90126" lon="4.80527">
        <ele>170.2</ele>
        <time>2024-09-20T07:52:40Z</time>
      </trkpt>
      <trkpt lat="45.90121" lon="4.80525">
        <ele>170.2</ele>
        <time>2024-09-20T07:52:41Z</time>
      </trkpt>
      <trkpt lat="45.90117" lon="4.80524">
        <ele>170.2</ele>
        <time>2024-09-20T07:52:42Z</time>
      </trkpt>
      <trkpt lat="45.90112" lon="4.80523">
        <ele>169.8</ele>
        <time>2024-09-20T07:52:43Z</time>
      </trkpt>
      <trkpt lat="45.90108" lon="4.80522">
        <ele>169.8</ele>
        <time>2024-09-20T07:52:44Z</time>
      </trkpt>
      <trkpt lat="45.90103" lon="4.80521">
        <ele>169.8</ele>
        <time>2024-09-20T07:52:45Z</time>
      </trkpt>
      <trkpt lat="45.90099" lon="4.8052">
        <ele>169.8</ele>
        <time>2024-09-20T07:52:46Z</time>
      </trkpt>
      <trkpt lat="45.90095" lon="4.80519">
        <ele>169.8</ele>
        <time>2024-09-20T07:52:47Z</time>
      </trkpt>
      <trkpt lat="45.9009" lon="4.80518">
        <ele>170</ele>
        <time>2024-09-20T07:52:48Z</time>
      </trkpt>
      <trkpt lat="45.90085" lon="4.80517">
        <ele>170</ele>
        <time>2024-09-20T07:52:49Z</time>
      </trkpt>
      <trkpt lat="45.90081" lon="4.80517">
        <ele>170</ele>
        <time>2024-09-20T07:52:50Z</time>
      </trkpt>
      <trkpt lat="45.90076" lon="4.80516">
        <ele>170</ele>
        <time>2024-09-20T07:52:51Z</time>
      </trkpt>
      <trkpt lat="45.90071" lon="4.80516">
        <ele>170</ele>
        <time>2024-09-20T07:52:52Z</time>
      </trkpt>
      <trkpt lat="45.90066" lon="4.80515">
        <ele>169.8</ele>
        <time>2024-09-20T07:52:53Z</time>
      </trkpt>
      <trkpt lat="45.90062" lon="4.80514">
        <ele>169.8</ele>
        <time>2024-09-20T07:52:54Z</time>
      </trkpt>
      <trkpt lat="45.90057" lon="4.80514">
        <ele>169.8</ele>
        <time>2024-09-20T07:52:55Z</time>
      </trkpt>
      <trkpt lat="45.90053" lon="4.80513">
        <ele>170</ele>
        <time>2024-09-20T07:52:56Z</time>
      </trkpt>
      <trkpt lat="45.90049" lon="4.80513">
        <ele>170</ele>
        <time>2024-09-20T07:52:57Z</time>
      </trkpt>
      <trkpt lat="45.90044" lon="4.80512">
        <ele>170</ele>
        <time>2024-09-20T07:52:58Z</time>
      </trkpt>
      <trkpt lat="45.9004" lon="4.80512">
        <ele>169.8</ele>
        <time>2024-09-20T07:52:59Z</time>
      </trkpt>
      <trkpt lat="45.90035" lon="4.80511">
        <ele>169.8</ele>
        <time>2024-09-20T07:53:00Z</time>
      </trkpt>
      <trkpt lat="45.9003" lon="4.8051">
        <ele>169.8</ele>
        <time>2024-09-20T07:53:01Z</time>
      </trkpt>
      <trkpt lat="45.90026" lon="4.80509">
        <ele>169.8</ele>
        <time>2024-09-20T07:53:02Z</time>
      </trkpt>
      <trkpt lat="45.90021" lon="4.80509">
        <ele>169.8</ele>
        <time>2024-09-20T07:53:03Z</time>
      </trkpt>
      <trkpt lat="45.90017" lon="4.80509">
        <ele>169.8</ele>
        <time>2024-09-20T07:53:04Z</time>
      </trkpt>
      <trkpt lat="45.90012" lon="4.80509">
        <ele>169.8</ele>
        <time>2024-09-20T07:53:05Z</time>
      </trkpt>
      <trkpt lat="45.90008" lon="4.80509">
        <ele>169.8</ele>
        <time>2024-09-20T07:53:06Z</time>
      </trkpt>
      <trkpt lat="45.90003" lon="4.80509">
        <ele>169.8</ele>
        <time>2024-09-20T07:53:07Z</time>
      </trkpt>
      <trkpt lat="45.89999" lon="4.80509">
        <ele>170</ele>
        <time>2024-09-20T07:53:08Z</time>
      </trkpt>
      <trkpt lat="45.89994" lon="4.80509">
        <ele>170</ele>
        <time>2024-09-20T07:53:09Z</time>
      </trkpt>
      <trkpt lat="45.89989" lon="4.80509">
        <ele>170</ele>
        <time>2024-09-20T07:53:10Z</time>
      </trkpt>
      <trkpt lat="45.89985" lon="4.80509">
        <ele>170</ele>
        <time>2024-09-20T07:53:11Z</time>
      </trkpt>
      <trkpt lat="45.8998" lon="4.8051">
        <ele>170</ele>
        <time>2024-09-20T07:53:12Z</time>
      </trkpt>
      <trkpt lat="45.89976" lon="4.8051">
        <ele>170</ele>
        <time>2024-09-20T07:53:13Z</time>
      </trkpt>
      <trkpt lat="45.89971" lon="4.8051">
        <ele>169.8</ele>
        <time>2024-09-20T07:53:14Z</time>
      </trkpt>
      <trkpt lat="45.89966" lon="4.80511">
        <ele>169.8</ele>
        <time>2024-09-20T07:53:15Z</time>
      </trkpt>
      <trkpt lat="45.89961" lon="4.80511">
        <ele>169.8</ele>
        <time>2024-09-20T07:53:16Z</time>
      </trkpt>
      <trkpt lat="45.89956" lon="4.80512">
        <ele>169.8</ele>
        <time>2024-09-20T07:53:17Z</time>
      </trkpt>
      <trkpt lat="45.89951" lon="4.80513">
        <ele>169.8</ele>
        <time>2024-09-20T07:53:18Z</time>
      </trkpt>
      <trkpt lat="45.89947" lon="4.80514">
        <ele>169.6</ele>
        <time>2024-09-20T07:53:19Z</time>
      </trkpt>
      <trkpt lat="45.89942" lon="4.80515">
        <ele>169.6</ele>
        <time>2024-09-20T07:53:20Z</time>
      </trkpt>
      <trkpt lat="45.89937" lon="4.80516">
        <ele>169.6</ele>
        <time>2024-09-20T07:53:21Z</time>
      </trkpt>
      <trkpt lat="45.89933" lon="4.80517">
        <ele>169.8</ele>
        <time>2024-09-20T07:53:22Z</time>
      </trkpt>
      <trkpt lat="45.89928" lon="4.80519">
        <ele>169.8</ele>
        <time>2024-09-20T07:53:23Z</time>
      </trkpt>
      <trkpt lat="45.89924" lon="4.80521">
        <ele>170</ele>
        <time>2024-09-20T07:53:24Z</time>
      </trkpt>
      <trkpt lat="45.89919" lon="4.80523">
        <ele>170</ele>
        <time>2024-09-20T07:53:25Z</time>
      </trkpt>
      <trkpt lat="45.89915" lon="4.80525">
        <ele>170</ele>
        <time>2024-09-20T07:53:26Z</time>
      </trkpt>
      <trkpt lat="45.89911" lon="4.80527">
        <ele>170</ele>
        <time>2024-09-20T07:53:27Z</time>
      </trkpt>
      <trkpt lat="45.89907" lon="4.8053">
        <ele>170</ele>
        <time>2024-09-20T07:53:28Z</time>
      </trkpt>
      <trkpt lat="45.89903" lon="4.80533">
        <ele>170</ele>
        <time>2024-09-20T07:53:29Z</time>
      </trkpt>
      <trkpt lat="45.89899" lon="4.80535">
        <ele>170</ele>
        <time>2024-09-20T07:53:30Z</time>
      </trkpt>
      <trkpt lat="45.89895" lon="4.80538">
        <ele>170</ele>
        <time>2024-09-20T07:53:31Z</time>
      </trkpt>
      <trkpt lat="45.89891" lon="4.8054">
        <ele>169.8</ele>
        <time>2024-09-20T07:53:32Z</time>
      </trkpt>
      <trkpt lat="45.89887" lon="4.80543">
        <ele>169.8</ele>
        <time>2024-09-20T07:53:33Z</time>
      </trkpt>
      <trkpt lat="45.89883" lon="4.80545">
        <ele>169.8</ele>
        <time>2024-09-20T07:53:34Z</time>
      </trkpt>
      <trkpt lat="45.89879" lon="4.80548">
        <ele>169.8</ele>
        <time>2024-09-20T07:53:35Z</time>
      </trkpt>
      <trkpt lat="45.89875" lon="4.8055">
        <ele>170</ele>
        <time>2024-09-20T07:53:36Z</time>
      </trkpt>
      <trkpt lat="45.89871" lon="4.80553">
        <ele>170</ele>
        <time>2024-09-20T07:53:37Z</time>
      </trkpt>
      <trkpt lat="45.89867" lon="4.80555">
        <ele>170</ele>
        <time>2024-09-20T07:53:38Z</time>
      </trkpt>
      <trkpt lat="45.89863" lon="4.80557">
        <ele>170</ele>
        <time>2024-09-20T07:53:39Z</time>
      </trkpt>
      <trkpt lat="45.89858" lon="4.8056">
        <ele>170</ele>
        <time>2024-09-20T07:53:40Z</time>
      </trkpt>
      <trkpt lat="45.89854" lon="4.80562">
        <ele>169.6</ele>
        <time>2024-09-20T07:53:41Z</time>
      </trkpt>
      <trkpt lat="45.8985" lon="4.80565">
        <ele>169.6</ele>
        <time>2024-09-20T07:53:42Z</time>
      </trkpt>
      <trkpt lat="45.89846" lon="4.80567">
        <ele>169.6</ele>
        <time>2024-09-20T07:53:43Z</time>
      </trkpt>
      <trkpt lat="45.89841" lon="4.80569">
        <ele>169.6</ele>
        <time>2024-09-20T07:53:44Z</time>
      </trkpt>
      <trkpt lat="45.89837" lon="4.80572">
        <ele>169.6</ele>
        <time>2024-09-20T07:53:45Z</time>
      </trkpt>
      <trkpt lat="45.89833" lon="4.80575">
        <ele>169.6</ele>
        <time>2024-09-20T07:53:46Z</time>
      </trkpt>
      <trkpt lat="45.89829" lon="4.80577">
        <ele>169.6</ele>
        <time>2024-09-20T07:53:47Z</time>
      </trkpt>
      <trkpt lat="45.89824" lon="4.8058">
        <ele>169.8</ele>
        <time>2024-09-20T07:53:48Z</time>
      </trkpt>
      <trkpt lat="45.8982" lon="4.80583">
        <ele>169.6</ele>
        <time>2024-09-20T07:53:49Z</time>
      </trkpt>
      <trkpt lat="45.89816" lon="4.80586">
        <ele>169.6</ele>
        <time>2024-09-20T07:53:50Z</time>
      </trkpt>
      <trkpt lat="45.89812" lon="4.80589">
        <ele>169.6</ele>
        <time>2024-09-20T07:53:51Z</time>
      </trkpt>
      <trkpt lat="45.89808" lon="4.80592">
        <ele>169.6</ele>
        <time>2024-09-20T07:53:52Z</time>
      </trkpt>
      <trkpt lat="45.89804" lon="4.80595">
        <ele>169.6</ele>
        <time>2024-09-20T07:53:53Z</time>
      </trkpt>
      <trkpt lat="45.89799" lon="4.80599">
        <ele>169.4</ele>
        <time>2024-09-20T07:53:54Z</time>
      </trkpt>
      <trkpt lat="45.89795" lon="4.80602">
        <ele>169.4</ele>
        <time>2024-09-20T07:53:55Z</time>
      </trkpt>
      <trkpt lat="45.89791" lon="4.80605">
        <ele>169.4</ele>
        <time>2024-09-20T07:53:56Z</time>
      </trkpt>
      <trkpt lat="45.89787" lon="4.80608">
        <ele>169.6</ele>
        <time>2024-09-20T07:53:57Z</time>
      </trkpt>
      <trkpt lat="45.89783" lon="4.80612">
        <ele>169.6</ele>
        <time>2024-09-20T07:53:58Z</time>
      </trkpt>
      <trkpt lat="45.89779" lon="4.80615">
        <ele>169.6</ele>
        <time>2024-09-20T07:53:59Z</time>
      </trkpt>
      <trkpt lat="45.89775" lon="4.80618">
        <ele>169.6</ele>
        <time>2024-09-20T07:54:00Z</time>
      </trkpt>
      <trkpt lat="45.89771" lon="4.80622">
        <ele>169.6</ele>
        <time>2024-09-20T07:54:01Z</time>
      </trkpt>
      <trkpt lat="45.89767" lon="4.80626">
        <ele>169.6</ele>
        <time>2024-09-20T07:54:02Z</time>
      </trkpt>
      <trkpt lat="45.89763" lon="4.80629">
        <ele>169.6</ele>
        <time>2024-09-20T07:54:03Z</time>
      </trkpt>
      <trkpt lat="45.89759" lon="4.80633">
        <ele>169.8</ele>
        <time>2024-09-20T07:54:04Z</time>
      </trkpt>
      <trkpt lat="45.89755" lon="4.80637">
        <ele>169.8</ele>
        <time>2024-09-20T07:54:05Z</time>
      </trkpt>
      <trkpt lat="45.89751" lon="4.80641">
        <ele>169.8</ele>
        <time>2024-09-20T07:54:06Z</time>
      </trkpt>
      <trkpt lat="45.89747" lon="4.80645">
        <ele>169.8</ele>
        <time>2024-09-20T07:54:07Z</time>
      </trkpt>
      <trkpt lat="45.89743" lon="4.80649">
        <ele>169.6</ele>
        <time>2024-09-20T07:54:08Z</time>
      </trkpt>
      <trkpt lat="45.89739" lon="4.80652">
        <ele>169.6</ele>
        <time>2024-09-20T07:54:09Z</time>
      </trkpt>
      <trkpt lat="45.89735" lon="4.80656">
        <ele>169.6</ele>
        <time>2024-09-20T07:54:10Z</time>
      </trkpt>
      <trkpt lat="45.89731" lon="4.80659">
        <ele>169.6</ele>
        <time>2024-09-20T07:54:11Z</time>
      </trkpt>
      <trkpt lat="45.89727" lon="4.80662">
        <ele>169.6</ele>
        <time>2024-09-20T07:54:12Z</time>
      </trkpt>
      <trkpt lat="45.89723" lon="4.80665">
        <ele>169.6</ele>
        <time>2024-09-20T07:54:13Z</time>
      </trkpt>
      <trkpt lat="45.8972" lon="4.80668">
        <ele>169.6</ele>
        <time>2024-09-20T07:54:14Z</time>
      </trkpt>
      <trkpt lat="45.89716" lon="4.8067">
        <ele>169.6</ele>
        <time>2024-09-20T07:54:15Z</time>
      </trkpt>
      <trkpt lat="45.89712" lon="4.80672">
        <ele>170</ele>
        <time>2024-09-20T07:54:16Z</time>
      </trkpt>
      <trkpt lat="45.89708" lon="4.80675">
        <ele>170</ele>
        <time>2024-09-20T07:54:17Z</time>
      </trkpt>
      <trkpt lat="45.89704" lon="4.80677">
        <ele>170</ele>
        <time>2024-09-20T07:54:18Z</time>
      </trkpt>
      <trkpt lat="45.897" lon="4.80678">
        <ele>170</ele>
        <time>2024-09-20T07:54:19Z</time>
      </trkpt>
      <trkpt lat="45.89696" lon="4.8068">
        <ele>170</ele>
        <time>2024-09-20T07:54:20Z</time>
      </trkpt>
      <trkpt lat="45.89692" lon="4.80682">
        <ele>170.2</ele>
        <time>2024-09-20T07:54:21Z</time>
      </trkpt>
      <trkpt lat="45.89689" lon="4.80685">
        <ele>170.2</ele>
        <time>2024-09-20T07:54:22Z</time>
      </trkpt>
      <trkpt lat="45.89685" lon="4.80687">
        <ele>170.2</ele>
        <time>2024-09-20T07:54:23Z</time>
      </trkpt>
      <trkpt lat="45.89681" lon="4.80689">
        <ele>170.2</ele>
        <time>2024-09-20T07:54:24Z</time>
      </trkpt>
      <trkpt lat="45.89678" lon="4.80691">
        <ele>170.2</ele>
        <time>2024-09-20T07:54:25Z</time>
      </trkpt>
      <trkpt lat="45.89674" lon="4.80693">
        <ele>170.2</ele>
        <time>2024-09-20T07:54:26Z</time>
      </trkpt>
      <trkpt lat="45.89669" lon="4.80695">
        <ele>170.2</ele>
        <time>2024-09-20T07:54:27Z</time>
      </trkpt>
      <trkpt lat="45.89665" lon="4.80698">
        <ele>170.2</ele>
        <time>2024-09-20T07:54:28Z</time>
      </trkpt>
      <trkpt lat="45.89661" lon="4.807">
        <ele>170.2</ele>
        <time>2024-09-20T07:54:29Z</time>
      </trkpt>
      <trkpt lat="45.89657" lon="4.80702">
        <ele>170.2</ele>
        <time>2024-09-20T07:54:30Z</time>
      </trkpt>
      <trkpt lat="45.89652" lon="4.80704">
        <ele>170.2</ele>
        <time>2024-09-20T07:54:31Z</time>
      </trkpt>
      <trkpt lat="45.89648" lon="4.80706">
        <ele>170.2</ele>
        <time>2024-09-20T07:54:32Z</time>
      </trkpt>
      <trkpt lat="45.89643" lon="4.80707">
        <ele>170.4</ele>
        <time>2024-09-20T07:54:33Z</time>
      </trkpt>
      <trkpt lat="45.89639" lon="4.80708">
        <ele>170.2</ele>
        <time>2024-09-20T07:54:34Z</time>
      </trkpt>
      <trkpt lat="45.89634" lon="4.80708">
        <ele>170.2</ele>
        <time>2024-09-20T07:54:35Z</time>
      </trkpt>
      <trkpt lat="45.89629" lon="4.80708">
        <ele>170.2</ele>
        <time>2024-09-20T07:54:36Z</time>
      </trkpt>
      <trkpt lat="45.89624" lon="4.80708">
        <ele>170</ele>
        <time>2024-09-20T07:54:37Z</time>
      </trkpt>
      <trkpt lat="45.89619" lon="4.80709">
        <ele>170</ele>
        <time>2024-09-20T07:54:38Z</time>
      </trkpt>
      <trkpt lat="45.89615" lon="4.8071">
        <ele>170</ele>
        <time>2024-09-20T07:54:39Z</time>
      </trkpt>
      <trkpt lat="45.89611" lon="4.8071">
        <ele>170</ele>
        <time>2024-09-20T07:54:40Z</time>
      </trkpt>
      <trkpt lat="45.89606" lon="4.80711">
        <ele>170</ele>
        <time>2024-09-20T07:54:41Z</time>
      </trkpt>
      <trkpt lat="45.89602" lon="4.80713">
        <ele>170</ele>
        <time>2024-09-20T07:54:42Z</time>
      </trkpt>
      <trkpt lat="45.89597" lon="4.80714">
        <ele>170</ele>
        <time>2024-09-20T07:54:43Z</time>
      </trkpt>
      <trkpt lat="45.89592" lon="4.80715">
        <ele>170</ele>
        <time>2024-09-20T07:54:44Z</time>
      </trkpt>
      <trkpt lat="45.89587" lon="4.80716">
        <ele>170</ele>
        <time>2024-09-20T07:54:45Z</time>
      </trkpt>
      <trkpt lat="45.89583" lon="4.80717">
        <ele>170</ele>
        <time>2024-09-20T07:54:46Z</time>
      </trkpt>
      <trkpt lat="45.89578" lon="4.80719">
        <ele>170</ele>
        <time>2024-09-20T07:54:47Z</time>
      </trkpt>
      <trkpt lat="45.89574" lon="4.80721">
        <ele>169.8</ele>
        <time>2024-09-20T07:54:48Z</time>
      </trkpt>
      <trkpt lat="45.89569" lon="4.80723">
        <ele>169.8</ele>
        <time>2024-09-20T07:54:49Z</time>
      </trkpt>
      <trkpt lat="45.89565" lon="4.80725">
        <ele>169.8</ele>
        <time>2024-09-20T07:54:50Z</time>
      </trkpt>
      <trkpt lat="45.8956" lon="4.80727">
        <ele>169.8</ele>
        <time>2024-09-20T07:54:51Z</time>
      </trkpt>
      <trkpt lat="45.89556" lon="4.80728">
        <ele>170</ele>
        <time>2024-09-20T07:54:52Z</time>
      </trkpt>
      <trkpt lat="45.89552" lon="4.8073">
        <ele>170</ele>
        <time>2024-09-20T07:54:53Z</time>
      </trkpt>
      <trkpt lat="45.89548" lon="4.80732">
        <ele>170</ele>
        <time>2024-09-20T07:54:54Z</time>
      </trkpt>
      <trkpt lat="45.89543" lon="4.80735">
        <ele>170</ele>
        <time>2024-09-20T07:54:55Z</time>
      </trkpt>
      <trkpt lat="45.89539" lon="4.80737">
        <ele>170</ele>
        <time>2024-09-20T07:54:56Z</time>
      </trkpt>
      <trkpt lat="45.89535" lon="4.80739">
        <ele>169.8</ele>
        <time>2024-09-20T07:54:57Z</time>
      </trkpt>
      <trkpt lat="45.89531" lon="4.80742">
        <ele>169.8</ele>
        <time>2024-09-20T07:54:58Z</time>
      </trkpt>
      <trkpt lat="45.89528" lon="4.80744">
        <ele>169.8</ele>
        <time>2024-09-20T07:54:59Z</time>
      </trkpt>
      <trkpt lat="45.89524" lon="4.80746">
        <ele>169.8</ele>
        <time>2024-09-20T07:55:00Z</time>
      </trkpt>
      <trkpt lat="45.89519" lon="4.80749">
        <ele>169.8</ele>
        <time>2024-09-20T07:55:01Z</time>
      </trkpt>
      <trkpt lat="45.89514" lon="4.80751">
        <ele>169.8</ele>
        <time>2024-09-20T07:55:02Z</time>
      </trkpt>
      <trkpt lat="45.8951" lon="4.80753">
        <ele>169.8</ele>
        <time>2024-09-20T07:55:03Z</time>
      </trkpt>
      <trkpt lat="45.89506" lon="4.80755">
        <ele>169.8</ele>
        <time>2024-09-20T07:55:04Z</time>
      </trkpt>
      <trkpt lat="45.89502" lon="4.80758">
        <ele>169.8</ele>
        <time>2024-09-20T07:55:05Z</time>
      </trkpt>
      <trkpt lat="45.89497" lon="4.80761">
        <ele>170</ele>
        <time>2024-09-20T07:55:06Z</time>
      </trkpt>
      <trkpt lat="45.89493" lon="4.80763">
        <ele>170</ele>
        <time>2024-09-20T07:55:07Z</time>
      </trkpt>
      <trkpt lat="45.89489" lon="4.80766">
        <ele>170</ele>
        <time>2024-09-20T07:55:08Z</time>
      </trkpt>
      <trkpt lat="45.89484" lon="4.80769">
        <ele>170</ele>
        <time>2024-09-20T07:55:09Z</time>
      </trkpt>
      <trkpt lat="45.8948" lon="4.80771">
        <ele>170</ele>
        <time>2024-09-20T07:55:10Z</time>
      </trkpt>
      <trkpt lat="45.89476" lon="4.80773">
        <ele>170.2</ele>
        <time>2024-09-20T07:55:11Z</time>
      </trkpt>
      <trkpt lat="45.89472" lon="4.80775">
        <ele>170.2</ele>
        <time>2024-09-20T07:55:12Z</time>
      </trkpt>
      <trkpt lat="45.89467" lon="4.80777">
        <ele>170.2</ele>
        <time>2024-09-20T07:55:13Z</time>
      </trkpt>
      <trkpt lat="45.89463" lon="4.8078">
        <ele>170.2</ele>
        <time>2024-09-20T07:55:14Z</time>
      </trkpt>
      <trkpt lat="45.89459" lon="4.80782">
        <ele>170.2</ele>
        <time>2024-09-20T07:55:15Z</time>
      </trkpt>
      <trkpt lat="45.89455" lon="4.80785">
        <ele>170.2</ele>
        <time>2024-09-20T07:55:16Z</time>
      </trkpt>
      <trkpt lat="45.89451" lon="4.80787">
        <ele>170.2</ele>
        <time>2024-09-20T07:55:17Z</time>
      </trkpt>
      <trkpt lat="45.89447" lon="4.80789">
        <ele>170</ele>
        <time>2024-09-20T07:55:18Z</time>
      </trkpt>
      <trkpt lat="45.89442" lon="4.80792">
        <ele>169.8</ele>
        <time>2024-09-20T07:55:19Z</time>
      </trkpt>
      <trkpt lat="45.89438" lon="4.80794">
        <ele>169.8</ele>
        <time>2024-09-20T07:55:20Z</time>
      </trkpt>
      <trkpt lat="45.89434" lon="4.80797">
        <ele>169.8</ele>
        <time>2024-09-20T07:55:21Z</time>
      </trkpt>
      <trkpt lat="45.8943" lon="4.80799">
        <ele>170.2</ele>
        <time>2024-09-20T07:55:22Z</time>
      </trkpt>
      <trkpt lat="45.89427" lon="4.80801">
        <ele>170.2</ele>
        <time>2024-09-20T07:55:23Z</time>
      </trkpt>
      <trkpt lat="45.89423" lon="4.80803">
        <ele>170.4</ele>
        <time>2024-09-20T07:55:24Z</time>
      </trkpt>
      <trkpt lat="45.89419" lon="4.80805">
        <ele>170.4</ele>
        <time>2024-09-20T07:55:25Z</time>
      </trkpt>
      <trkpt lat="45.89415" lon="4.80807">
        <ele>170.4</ele>
        <time>2024-09-20T07:55:26Z</time>
      </trkpt>
      <trkpt lat="45.89412" lon="4.80809">
        <ele>170.4</ele>
        <time>2024-09-20T07:55:27Z</time>
      </trkpt>
      <trkpt lat="45.89408" lon="4.80811">
        <ele>170.2</ele>
        <time>2024-09-20T07:55:28Z</time>
      </trkpt>
      <trkpt lat="45.89404" lon="4.80813">
        <ele>170</ele>
        <time>2024-09-20T07:55:29Z</time>
      </trkpt>
      <trkpt lat="45.894" lon="4.80816">
        <ele>170</ele>
        <time>2024-09-20T07:55:30Z</time>
      </trkpt>
      <trkpt lat="45.89396" lon="4.80818">
        <ele>170</ele>
        <time>2024-09-20T07:55:31Z</time>
      </trkpt>
      <trkpt lat="45.89392" lon="4.8082">
        <ele>170.2</ele>
        <time>2024-09-20T07:55:32Z</time>
      </trkpt>
      <trkpt lat="45.89388" lon="4.80823">
        <ele>170.2</ele>
        <time>2024-09-20T07:55:33Z</time>
      </trkpt>
      <trkpt lat="45.89384" lon="4.80825">
        <ele>170.2</ele>
        <time>2024-09-20T07:55:34Z</time>
      </trkpt>
      <trkpt lat="45.8938" lon="4.80827">
        <ele>170.2</ele>
        <time>2024-09-20T07:55:35Z</time>
      </trkpt>
      <trkpt lat="45.89376" lon="4.80829">
        <ele>170.2</ele>
        <time>2024-09-20T07:55:36Z</time>
      </trkpt>
      <trkpt lat="45.89371" lon="4.80832">
        <ele>170.2</ele>
        <time>2024-09-20T07:55:37Z</time>
      </trkpt>
      <trkpt lat="45.89367" lon="4.80834">
        <ele>170.2</ele>
        <time>2024-09-20T07:55:38Z</time>
      </trkpt>
      <trkpt lat="45.89363" lon="4.80836">
        <ele>170.2</ele>
        <time>2024-09-20T07:55:39Z</time>
      </trkpt>
      <trkpt lat="45.89359" lon="4.80838">
        <ele>170.2</ele>
        <time>2024-09-20T07:55:40Z</time>
      </trkpt>
      <trkpt lat="45.89355" lon="4.8084">
        <ele>170.2</ele>
        <time>2024-09-20T07:55:41Z</time>
      </trkpt>
      <trkpt lat="45.89351" lon="4.80842">
        <ele>170.2</ele>
        <time>2024-09-20T07:55:42Z</time>
      </trkpt>
      <trkpt lat="45.89347" lon="4.80845">
        <ele>170.2</ele>
        <time>2024-09-20T07:55:43Z</time>
      </trkpt>
      <trkpt lat="45.89343" lon="4.80847">
        <ele>170.2</ele>
        <time>2024-09-20T07:55:44Z</time>
      </trkpt>
      <trkpt lat="45.89339" lon="4.8085">
        <ele>170.2</ele>
        <time>2024-09-20T07:55:45Z</time>
      </trkpt>
      <trkpt lat="45.89335" lon="4.80852">
        <ele>170.2</ele>
        <time>2024-09-20T07:55:46Z</time>
      </trkpt>
      <trkpt lat="45.89331" lon="4.80854">
        <ele>170.2</ele>
        <time>2024-09-20T07:55:47Z</time>
      </trkpt>
      <trkpt lat="45.89327" lon="4.80857">
        <ele>170.2</ele>
        <time>2024-09-20T07:55:48Z</time>
      </trkpt>
      <trkpt lat="45.89324" lon="4.80859">
        <ele>170.2</ele>
        <time>2024-09-20T07:55:49Z</time>
      </trkpt>
      <trkpt lat="45.8932" lon="4.80861">
        <ele>170</ele>
        <time>2024-09-20T07:55:50Z</time>
      </trkpt>
      <trkpt lat="45.89316" lon="4.80863">
        <ele>170</ele>
        <time>2024-09-20T07:55:51Z</time>
      </trkpt>
      <trkpt lat="45.89312" lon="4.80866">
        <ele>170</ele>
        <time>2024-09-20T07:55:52Z</time>
      </trkpt>
      <trkpt lat="45.89308" lon="4.80868">
        <ele>170</ele>
        <time>2024-09-20T07:55:53Z</time>
      </trkpt>
      <trkpt lat="45.89304" lon="4.8087">
        <ele>170</ele>
        <time>2024-09-20T07:55:54Z</time>
      </trkpt>
      <trkpt lat="45.89299" lon="4.80873">
        <ele>170.4</ele>
        <time>2024-09-20T07:55:55Z</time>
      </trkpt>
      <trkpt lat="45.89295" lon="4.80875">
        <ele>170.4</ele>
        <time>2024-09-20T07:55:56Z</time>
      </trkpt>
      <trkpt lat="45.89291" lon="4.80878">
        <ele>170.4</ele>
        <time>2024-09-20T07:55:57Z</time>
      </trkpt>
      <trkpt lat="45.89287" lon="4.8088">
        <ele>170.4</ele>
        <time>2024-09-20T07:55:58Z</time>
      </trkpt>
      <trkpt lat="45.89283" lon="4.80882">
        <ele>170.2</ele>
        <time>2024-09-20T07:55:59Z</time>
      </trkpt>
      <trkpt lat="45.89278" lon="4.80885">
        <ele>170.2</ele>
        <time>2024-09-20T07:56:00Z</time>
      </trkpt>
      <trkpt lat="45.89274" lon="4.80887">
        <ele>170.2</ele>
        <time>2024-09-20T07:56:01Z</time>
      </trkpt>
      <trkpt lat="45.8927" lon="4.8089">
        <ele>170.2</ele>
        <time>2024-09-20T07:56:02Z</time>
      </trkpt>
      <trkpt lat="45.89266" lon="4.80892">
        <ele>170.2</ele>
        <time>2024-09-20T07:56:03Z</time>
      </trkpt>
      <trkpt lat="45.89263" lon="4.80895">
        <ele>170.4</ele>
        <time>2024-09-20T07:56:04Z</time>
      </trkpt>
      <trkpt lat="45.89259" lon="4.80898">
        <ele>170.4</ele>
        <time>2024-09-20T07:56:05Z</time>
      </trkpt>
      <trkpt lat="45.89255" lon="4.80901">
        <ele>170.4</ele>
        <time>2024-09-20T07:56:06Z</time>
      </trkpt>
      <trkpt lat="45.89251" lon="4.80904">
        <ele>170.4</ele>
        <time>2024-09-20T07:56:07Z</time>
      </trkpt>
      <trkpt lat="45.89247" lon="4.80908">
        <ele>170.4</ele>
        <time>2024-09-20T07:56:08Z</time>
      </trkpt>
      <trkpt lat="45.89243" lon="4.80911">
        <ele>170.2</ele>
        <time>2024-09-20T07:56:09Z</time>
      </trkpt>
      <trkpt lat="45.8924" lon="4.80915">
        <ele>170.2</ele>
        <time>2024-09-20T07:56:10Z</time>
      </trkpt>
      <trkpt lat="45.89237" lon="4.8092">
        <ele>170.2</ele>
        <time>2024-09-20T07:56:11Z</time>
      </trkpt>
      <trkpt lat="45.89235" lon="4.80924">
        <ele>170.4</ele>
        <time>2024-09-20T07:56:12Z</time>
      </trkpt>
      <trkpt lat="45.89233" lon="4.80928">
        <ele>170.4</ele>
        <time>2024-09-20T07:56:13Z</time>
      </trkpt>
      <trkpt lat="45.8923" lon="4.80931">
        <ele>170.6</ele>
        <time>2024-09-20T07:56:14Z</time>
      </trkpt>
      <trkpt lat="45.89227" lon="4.80932">
        <ele>170.6</ele>
        <time>2024-09-20T07:56:15Z</time>
      </trkpt>
      <trkpt lat="45.89224" lon="4.80933">
        <ele>170.6</ele>
        <time>2024-09-20T07:56:16Z</time>
      </trkpt>
      <trkpt lat="45.8922" lon="4.80934">
        <ele>171.4</ele>
        <time>2024-09-20T07:56:17Z</time>
      </trkpt>
      <trkpt lat="45.89218" lon="4.80935">
        <ele>171.6</ele>
        <time>2024-09-20T07:56:18Z</time>
      </trkpt>
      <trkpt lat="45.89215" lon="4.80937">
        <ele>171.6</ele>
        <time>2024-09-20T07:56:19Z</time>
      </trkpt>
      <trkpt lat="45.89213" lon="4.80939">
        <ele>171.6</ele>
        <time>2024-09-20T07:56:20Z</time>
      </trkpt>
      <trkpt lat="45.8921" lon="4.8094">
        <ele>171.8</ele>
        <time>2024-09-20T07:56:21Z</time>
      </trkpt>
      <trkpt lat="45.89208" lon="4.80941">
        <ele>171.8</ele>
        <time>2024-09-20T07:56:22Z</time>
      </trkpt>
      <trkpt lat="45.89207" lon="4.80941">
        <ele>171.8</ele>
        <time>2024-09-20T07:56:23Z</time>
      </trkpt>
      <trkpt lat="45.89206" lon="4.80941">
        <ele>171.8</ele>
        <time>2024-09-20T07:56:24Z</time>
      </trkpt>
      <trkpt lat="45.89206" lon="4.80941">
        <ele>171.8</ele>
        <time>2024-09-20T07:56:25Z</time>
      </trkpt>
      <trkpt lat="45.89203" lon="4.80945">
        <ele>172</ele>
        <time>2024-09-20T07:57:39Z</time>
      </trkpt>
      <trkpt lat="45.89201" lon="4.80946">
        <ele>172</ele>
        <time>2024-09-20T07:57:40Z</time>
      </trkpt>
      <trkpt lat="45.89199" lon="4.80947">
        <ele>172</ele>
        <time>2024-09-20T07:57:41Z</time>
      </trkpt>
      <trkpt lat="45.89197" lon="4.80949">
        <ele>172.2</ele>
        <time>2024-09-20T07:57:42Z</time>
      </trkpt>
      <trkpt lat="45.89194" lon="4.80951">
        <ele>172</ele>
        <time>2024-09-20T07:57:43Z</time>
      </trkpt>
      <trkpt lat="45.89192" lon="4.80953">
        <ele>172</ele>
        <time>2024-09-20T07:57:44Z</time>
      </trkpt>
      <trkpt lat="45.89189" lon="4.80955">
        <ele>172</ele>
        <time>2024-09-20T07:57:45Z</time>
      </trkpt>
      <trkpt lat="45.89186" lon="4.80957">
        <ele>172</ele>
        <time>2024-09-20T07:57:46Z</time>
      </trkpt>
      <trkpt lat="45.89182" lon="4.8096">
        <ele>172</ele>
        <time>2024-09-20T07:57:47Z</time>
      </trkpt>
      <trkpt lat="45.89179" lon="4.80962">
        <ele>172</ele>
        <time>2024-09-20T07:57:48Z</time>
      </trkpt>
      <trkpt lat="45.89175" lon="4.80964">
        <ele>172</ele>
        <time>2024-09-20T07:57:49Z</time>
      </trkpt>
      <trkpt lat="45.89172" lon="4.80967">
        <ele>172</ele>
        <time>2024-09-20T07:57:50Z</time>
      </trkpt>
      <trkpt lat="45.89168" lon="4.8097">
        <ele>172</ele>
        <time>2024-09-20T07:57:51Z</time>
      </trkpt>
      <trkpt lat="45.89164" lon="4.80972">
        <ele>172.2</ele>
        <time>2024-09-20T07:57:52Z</time>
      </trkpt>
      <trkpt lat="45.89161" lon="4.80975">
        <ele>172.2</ele>
        <time>2024-09-20T07:57:53Z</time>
      </trkpt>
      <trkpt lat="45.89157" lon="4.80978">
        <ele>172.2</ele>
        <time>2024-09-20T07:57:54Z</time>
      </trkpt>
      <trkpt lat="45.89153" lon="4.80981">
        <ele>172.4</ele>
        <time>2024-09-20T07:57:55Z</time>
      </trkpt>
      <trkpt lat="45.89149" lon="4.80984">
        <ele>172.2</ele>
        <time>2024-09-20T07:57:56Z</time>
      </trkpt>
      <trkpt lat="45.89145" lon="4.80987">
        <ele>172.2</ele>
        <time>2024-09-20T07:57:57Z</time>
      </trkpt>
      <trkpt lat="45.89141" lon="4.8099">
        <ele>172.2</ele>
        <time>2024-09-20T07:57:58Z</time>
      </trkpt>
      <trkpt lat="45.89137" lon="4.80993">
        <ele>172.2</ele>
        <time>2024-09-20T07:57:59Z</time>
      </trkpt>
      <trkpt lat="45.89133" lon="4.80995">
        <ele>172.2</ele>
        <time>2024-09-20T07:58:00Z</time>
      </trkpt>
      <trkpt lat="45.89129" lon="4.80998">
        <ele>172.2</ele>
        <time>2024-09-20T07:58:01Z</time>
      </trkpt>
      <trkpt lat="45.89125" lon="4.81001">
        <ele>172.2</ele>
        <time>2024-09-20T07:58:02Z</time>
      </trkpt>
      <trkpt lat="45.89121" lon="4.81004">
        <ele>172.2</ele>
        <time>2024-09-20T07:58:03Z</time>
      </trkpt>
      <trkpt lat="45.89117" lon="4.81007">
        <ele>172.2</ele>
        <time>2024-09-20T07:58:04Z</time>
      </trkpt>
      <trkpt lat="45.89113" lon="4.8101">
        <ele>172.2</ele>
        <time>2024-09-20T07:58:05Z</time>
      </trkpt>
      <trkpt lat="45.89108" lon="4.81013">
        <ele>172.2</ele>
        <time>2024-09-20T07:58:06Z</time>
      </trkpt>
      <trkpt lat="45.89104" lon="4.81016">
        <ele>172</ele>
        <time>2024-09-20T07:58:07Z</time>
      </trkpt>
      <trkpt lat="45.891" lon="4.81019">
        <ele>172</ele>
        <time>2024-09-20T07:58:08Z</time>
      </trkpt>
      <trkpt lat="45.89095" lon="4.81022">
        <ele>172.2</ele>
        <time>2024-09-20T07:58:09Z</time>
      </trkpt>
      <trkpt lat="45.89091" lon="4.81026">
        <ele>172.2</ele>
        <time>2024-09-20T07:58:10Z</time>
      </trkpt>
      <trkpt lat="45.89086" lon="4.81029">
        <ele>172.4</ele>
        <time>2024-09-20T07:58:11Z</time>
      </trkpt>
      <trkpt lat="45.89082" lon="4.81032">
        <ele>172.4</ele>
        <time>2024-09-20T07:58:12Z</time>
      </trkpt>
      <trkpt lat="45.89078" lon="4.81035">
        <ele>172.4</ele>
        <time>2024-09-20T07:58:13Z</time>
      </trkpt>
      <trkpt lat="45.89073" lon="4.81038">
        <ele>172.4</ele>
        <time>2024-09-20T07:58:14Z</time>
      </trkpt>
      <trkpt lat="45.89069" lon="4.81042">
        <ele>172.2</ele>
        <time>2024-09-20T07:58:15Z</time>
      </trkpt>
      <trkpt lat="45.89065" lon="4.81045">
        <ele>172.2</ele>
        <time>2024-09-20T07:58:16Z</time>
      </trkpt>
      <trkpt lat="45.8906" lon="4.81048">
        <ele>172.2</ele>
        <time>2024-09-20T07:58:17Z</time>
      </trkpt>
      <trkpt lat="45.89056" lon="4.81051">
        <ele>172.4</ele>
        <time>2024-09-20T07:58:18Z</time>
      </trkpt>
      <trkpt lat="45.89052" lon="4.81054">
        <ele>172.4</ele>
        <time>2024-09-20T07:58:19Z</time>
      </trkpt>
      <trkpt lat="45.89048" lon="4.81058">
        <ele>172.4</ele>
        <time>2024-09-20T07:58:20Z</time>
      </trkpt>
      <trkpt lat="45.89044" lon="4.81061">
        <ele>172.4</ele>
        <time>2024-09-20T07:58:21Z</time>
      </trkpt>
      <trkpt lat="45.8904" lon="4.81064">
        <ele>172.4</ele>
        <time>2024-09-20T07:58:22Z</time>
      </trkpt>
      <trkpt lat="45.89036" lon="4.81068">
        <ele>172.4</ele>
        <time>2024-09-20T07:58:23Z</time>
      </trkpt>
      <trkpt lat="45.89032" lon="4.81071">
        <ele>172.4</ele>
        <time>2024-09-20T07:58:24Z</time>
      </trkpt>
      <trkpt lat="45.89029" lon="4.81074">
        <ele>172.4</ele>
        <time>2024-09-20T07:58:25Z</time>
      </trkpt>
      <trkpt lat="45.89025" lon="4.81076">
        <ele>172.4</ele>
        <time>2024-09-20T07:58:26Z</time>
      </trkpt>
      <trkpt lat="45.89023" lon="4.81077">
        <ele>172.2</ele>
        <time>2024-09-20T07:58:27Z</time>
      </trkpt>
      <trkpt lat="45.89021" lon="4.81078">
        <ele>172.2</ele>
        <time>2024-09-20T07:58:28Z</time>
      </trkpt>
      <trkpt lat="45.8902" lon="4.81079">
        <ele>172.2</ele>
        <time>2024-09-20T07:58:29Z</time>
      </trkpt>
      <trkpt lat="45.8902" lon="4.81079">
        <ele>172.2</ele>
        <time>2024-09-20T07:58:30Z</time>
      </trkpt>
      <trkpt lat="45.89016" lon="4.81082">
        <ele>172.4</ele>
        <time>2024-09-20T07:58:59Z</time>
      </trkpt>
      <trkpt lat="45.89014" lon="4.81084">
        <ele>172.4</ele>
        <time>2024-09-20T07:59:00Z</time>
      </trkpt>
      <trkpt lat="45.89012" lon="4.81085">
        <ele>172.6</ele>
        <time>2024-09-20T07:59:01Z</time>
      </trkpt>
      <trkpt lat="45.89009" lon="4.81087">
        <ele>172.6</ele>
        <time>2024-09-20T07:59:02Z</time>
      </trkpt>
      <trkpt lat="45.89007" lon="4.8109">
        <ele>172.6</ele>
        <time>2024-09-20T07:59:03Z</time>
      </trkpt>
      <trkpt lat="45.89004" lon="4.81092">
        <ele>172.6</ele>
        <time>2024-09-20T07:59:04Z</time>
      </trkpt>
      <trkpt lat="45.89001" lon="4.81094">
        <ele>172.6</ele>
        <time>2024-09-20T07:59:05Z</time>
      </trkpt>
      <trkpt lat="45.88998" lon="4.81096">
        <ele>172.6</ele>
        <time>2024-09-20T07:59:06Z</time>
      </trkpt>
      <trkpt lat="45.88995" lon="4.81099">
        <ele>172.6</ele>
        <time>2024-09-20T07:59:07Z</time>
      </trkpt>
      <trkpt lat="45.88992" lon="4.81101">
        <ele>172.6</ele>
        <time>2024-09-20T07:59:08Z</time>
      </trkpt>
      <trkpt lat="45.88989" lon="4.81104">
        <ele>172.6</ele>
        <time>2024-09-20T07:59:09Z</time>
      </trkpt>
      <trkpt lat="45.88986" lon="4.81106">
        <ele>172.6</ele>
        <time>2024-09-20T07:59:10Z</time>
      </trkpt>
      <trkpt lat="45.88983" lon="4.81108">
        <ele>172.6</ele>
        <time>2024-09-20T07:59:11Z</time>
      </trkpt>
      <trkpt lat="45.88979" lon="4.8111">
        <ele>172.8</ele>
        <time>2024-09-20T07:59:12Z</time>
      </trkpt>
      <trkpt lat="45.88976" lon="4.81113">
        <ele>172.8</ele>
        <time>2024-09-20T07:59:13Z</time>
      </trkpt>
      <trkpt lat="45.88972" lon="4.81115">
        <ele>172.8</ele>
        <time>2024-09-20T07:59:14Z</time>
      </trkpt>
      <trkpt lat="45.88968" lon="4.81118">
        <ele>172.6</ele>
        <time>2024-09-20T07:59:15Z</time>
      </trkpt>
      <trkpt lat="45.88965" lon="4.81121">
        <ele>172.6</ele>
        <time>2024-09-20T07:59:16Z</time>
      </trkpt>
      <trkpt lat="45.88961" lon="4.81124">
        <ele>172.6</ele>
        <time>2024-09-20T07:59:17Z</time>
      </trkpt>
      <trkpt lat="45.88957" lon="4.81126">
        <ele>172.6</ele>
        <time>2024-09-20T07:59:18Z</time>
      </trkpt>
      <trkpt lat="45.88953" lon="4.81129">
        <ele>172.6</ele>
        <time>2024-09-20T07:59:19Z</time>
      </trkpt>
      <trkpt lat="45.88949" lon="4.81132">
        <ele>172.4</ele>
        <time>2024-09-20T07:59:20Z</time>
      </trkpt>
      <trkpt lat="45.88945" lon="4.81135">
        <ele>172.6</ele>
        <time>2024-09-20T07:59:21Z</time>
      </trkpt>
      <trkpt lat="45.88941" lon="4.81138">
        <ele>172.6</ele>
        <time>2024-09-20T07:59:22Z</time>
      </trkpt>
      <trkpt lat="45.88937" lon="4.81141">
        <ele>172.6</ele>
        <time>2024-09-20T07:59:23Z</time>
      </trkpt>
      <trkpt lat="45.88932" lon="4.81144">
        <ele>172.6</ele>
        <time>2024-09-20T07:59:24Z</time>
      </trkpt>
      <trkpt lat="45.88928" lon="4.81147">
        <ele>172.6</ele>
        <time>2024-09-20T07:59:25Z</time>
      </trkpt>
      <trkpt lat="45.88924" lon="4.8115">
        <ele>172.6</ele>
        <time>2024-09-20T07:59:26Z</time>
      </trkpt>
      <trkpt lat="45.8892" lon="4.81153">
        <ele>172.6</ele>
        <time>2024-09-20T07:59:27Z</time>
      </trkpt>
      <trkpt lat="45.88916" lon="4.81156">
        <ele>172.6</ele>
        <time>2024-09-20T07:59:28Z</time>
      </trkpt>
      <trkpt lat="45.88912" lon="4.81159">
        <ele>172.6</ele>
        <time>2024-09-20T07:59:29Z</time>
      </trkpt>
      <trkpt lat="45.88908" lon="4.81162">
        <ele>172.6</ele>
        <time>2024-09-20T07:59:30Z</time>
      </trkpt>
      <trkpt lat="45.88904" lon="4.81166">
        <ele>172.6</ele>
        <time>2024-09-20T07:59:31Z</time>
      </trkpt>
      <trkpt lat="45.88899" lon="4.81169">
        <ele>172.6</ele>
        <time>2024-09-20T07:59:32Z</time>
      </trkpt>
      <trkpt lat="45.88895" lon="4.81173">
        <ele>172.6</ele>
        <time>2024-09-20T07:59:33Z</time>
      </trkpt>
      <trkpt lat="45.88891" lon="4.81176">
        <ele>172.8</ele>
        <time>2024-09-20T07:59:34Z</time>
      </trkpt>
      <trkpt lat="45.88887" lon="4.81179">
        <ele>172.8</ele>
        <time>2024-09-20T07:59:35Z</time>
      </trkpt>
      <trkpt lat="45.88883" lon="4.81182">
        <ele>172.8</ele>
        <time>2024-09-20T07:59:36Z</time>
      </trkpt>
      <trkpt lat="45.88879" lon="4.81186">
        <ele>172.8</ele>
        <time>2024-09-20T07:59:37Z</time>
      </trkpt>
      <trkpt lat="45.88875" lon="4.81189">
        <ele>172.8</ele>
        <time>2024-09-20T07:59:38Z</time>
      </trkpt>
      <trkpt lat="45.88872" lon="4.81193">
        <ele>172.8</ele>
        <time>2024-09-20T07:59:39Z</time>
      </trkpt>
      <trkpt lat="45.88868" lon="4.81197">
        <ele>172.8</ele>
        <time>2024-09-20T07:59:40Z</time>
      </trkpt>
      <trkpt lat="45.88864" lon="4.812">
        <ele>172.8</ele>
        <time>2024-09-20T07:59:41Z</time>
      </trkpt>
      <trkpt lat="45.88859" lon="4.81204">
        <ele>172.8</ele>
        <time>2024-09-20T07:59:42Z</time>
      </trkpt>
      <trkpt lat="45.88855" lon="4.81207">
        <ele>172.6</ele>
        <time>2024-09-20T07:59:43Z</time>
      </trkpt>
      <trkpt lat="45.88851" lon="4.8121">
        <ele>172.6</ele>
        <time>2024-09-20T07:59:44Z</time>
      </trkpt>
      <trkpt lat="45.88847" lon="4.81214">
        <ele>172.6</ele>
        <time>2024-09-20T07:59:45Z</time>
      </trkpt>
      <trkpt lat="45.88843" lon="4.81218">
        <ele>172.8</ele>
        <time>2024-09-20T07:59:46Z</time>
      </trkpt>
      <trkpt lat="45.88839" lon="4.81222">
        <ele>172.8</ele>
        <time>2024-09-20T07:59:47Z</time>
      </trkpt>
      <trkpt lat="45.88835" lon="4.81225">
        <ele>172.8</ele>
        <time>2024-09-20T07:59:48Z</time>
      </trkpt>
      <trkpt lat="45.88831" lon="4.81229">
        <ele>172.8</ele>
        <time>2024-09-20T07:59:49Z</time>
      </trkpt>
      <trkpt lat="45.88827" lon="4.81233">
        <ele>172.8</ele>
        <time>2024-09-20T07:59:50Z</time>
      </trkpt>
      <trkpt lat="45.88823" lon="4.81237">
        <ele>172.8</ele>
        <time>2024-09-20T07:59:51Z</time>
      </trkpt>
      <trkpt lat="45.88819" lon="4.81241">
        <ele>172.6</ele>
        <time>2024-09-20T07:59:52Z</time>
      </trkpt>
      <trkpt lat="45.88816" lon="4.81245">
        <ele>172.6</ele>
        <time>2024-09-20T07:59:53Z</time>
      </trkpt>
      <trkpt lat="45.88812" lon="4.81249">
        <ele>172.6</ele>
        <time>2024-09-20T07:59:54Z</time>
      </trkpt>
      <trkpt lat="45.88808" lon="4.81253">
        <ele>172.6</ele>
        <time>2024-09-20T07:59:55Z</time>
      </trkpt>
      <trkpt lat="45.88803" lon="4.81257">
        <ele>173</ele>
        <time>2024-09-20T07:59:56Z</time>
      </trkpt>
      <trkpt lat="45.88799" lon="4.81261">
        <ele>173</ele>
        <time>2024-09-20T07:59:57Z</time>
      </trkpt>
      <trkpt lat="45.88795" lon="4.81266">
        <ele>173</ele>
        <time>2024-09-20T07:59:58Z</time>
      </trkpt>
      <trkpt lat="45.88791" lon="4.8127">
        <ele>173</ele>
        <time>2024-09-20T07:59:59Z</time>
      </trkpt>
      <trkpt lat="45.88787" lon="4.81275">
        <ele>173</ele>
        <time>2024-09-20T08:00:00Z</time>
      </trkpt>
      <trkpt lat="45.88783" lon="4.81279">
        <ele>173</ele>
        <time>2024-09-20T08:00:01Z</time>
      </trkpt>
      <trkpt lat="45.88779" lon="4.81283">
        <ele>173</ele>
        <time>2024-09-20T08:00:02Z</time>
      </trkpt>
      <trkpt lat="45.88776" lon="4.81288">
        <ele>173</ele>
        <time>2024-09-20T08:00:03Z</time>
      </trkpt>
      <trkpt lat="45.88772" lon="4.81292">
        <ele>173</ele>
        <time>2024-09-20T08:00:04Z</time>
      </trkpt>
      <trkpt lat="45.88768" lon="4.81296">
        <ele>173</ele>
        <time>2024-09-20T08:00:05Z</time>
      </trkpt>
      <trkpt lat="45.88764" lon="4.813">
        <ele>173</ele>
        <time>2024-09-20T08:00:06Z</time>
      </trkpt>
      <trkpt lat="45.8876" lon="4.81305">
        <ele>173</ele>
        <time>2024-09-20T08:00:07Z</time>
      </trkpt>
      <trkpt lat="45.88757" lon="4.81309">
        <ele>173</ele>
        <time>2024-09-20T08:00:08Z</time>
      </trkpt>
      <trkpt lat="45.88753" lon="4.81314">
        <ele>173.2</ele>
        <time>2024-09-20T08:00:09Z</time>
      </trkpt>
      <trkpt lat="45.88749" lon="4.81319">
        <ele>173.2</ele>
        <time>2024-09-20T08:00:10Z</time>
      </trkpt>
      <trkpt lat="45.88745" lon="4.81323">
        <ele>173.2</ele>
        <time>2024-09-20T08:00:11Z</time>
      </trkpt>
      <trkpt lat="45.88742" lon="4.81328">
        <ele>173.2</ele>
        <time>2024-09-20T08:00:12Z</time>
      </trkpt>
      <trkpt lat="45.88738" lon="4.81333">
        <ele>173.2</ele>
        <time>2024-09-20T08:00:13Z</time>
      </trkpt>
      <trkpt lat="45.88734" lon="4.81337">
        <ele>173.2</ele>
        <time>2024-09-20T08:00:14Z</time>
      </trkpt>
      <trkpt lat="45.8873" lon="4.81342">
        <ele>173.4</ele>
        <time>2024-09-20T08:00:15Z</time>
      </trkpt>
      <trkpt lat="45.88727" lon="4.81346">
        <ele>173.4</ele>
        <time>2024-09-20T08:00:16Z</time>
      </trkpt>
      <trkpt lat="45.88723" lon="4.81351">
        <ele>173.4</ele>
        <time>2024-09-20T08:00:17Z</time>
      </trkpt>
      <trkpt lat="45.88719" lon="4.81356">
        <ele>173.2</ele>
        <time>2024-09-20T08:00:18Z</time>
      </trkpt>
      <trkpt lat="45.88716" lon="4.8136">
        <ele>173.2</ele>
        <time>2024-09-20T08:00:19Z</time>
      </trkpt>
      <trkpt lat="45.88712" lon="4.81365">
        <ele>173.2</ele>
        <time>2024-09-20T08:00:20Z</time>
      </trkpt>
      <trkpt lat="45.88709" lon="4.8137">
        <ele>173.2</ele>
        <time>2024-09-20T08:00:21Z</time>
      </trkpt>
      <trkpt lat="45.88706" lon="4.81374">
        <ele>173.2</ele>
        <time>2024-09-20T08:00:22Z</time>
      </trkpt>
      <trkpt lat="45.88702" lon="4.81379">
        <ele>173.2</ele>
        <time>2024-09-20T08:00:23Z</time>
      </trkpt>
      <trkpt lat="45.88699" lon="4.81384">
        <ele>173.2</ele>
        <time>2024-09-20T08:00:24Z</time>
      </trkpt>
      <trkpt lat="45.88695" lon="4.81389">
        <ele>173.2</ele>
        <time>2024-09-20T08:00:25Z</time>
      </trkpt>
      <trkpt lat="45.88692" lon="4.81393">
        <ele>173.2</ele>
        <time>2024-09-20T08:00:26Z</time>
      </trkpt>
      <trkpt lat="45.88688" lon="4.81397">
        <ele>173</ele>
        <time>2024-09-20T08:00:27Z</time>
      </trkpt>
      <trkpt lat="45.88685" lon="4.81402">
        <ele>173</ele>
        <time>2024-09-20T08:00:28Z</time>
      </trkpt>
      <trkpt lat="45.88681" lon="4.81407">
        <ele>173</ele>
        <time>2024-09-20T08:00:29Z</time>
      </trkpt>
      <trkpt lat="45.88678" lon="4.81411">
        <ele>173</ele>
        <time>2024-09-20T08:00:30Z</time>
      </trkpt>
      <trkpt lat="45.88674" lon="4.81416">
        <ele>173</ele>
        <time>2024-09-20T08:00:31Z</time>
      </trkpt>
      <trkpt lat="45.88671" lon="4.81421">
        <ele>173</ele>
        <time>2024-09-20T08:00:32Z</time>
      </trkpt>
      <trkpt lat="45.88668" lon="4.81426">
        <ele>173</ele>
        <time>2024-09-20T08:00:33Z</time>
      </trkpt>
      <trkpt lat="45.88664" lon="4.8143">
        <ele>173</ele>
        <time>2024-09-20T08:00:34Z</time>
      </trkpt>
      <trkpt lat="45.88661" lon="4.81434">
        <ele>173</ele>
        <time>2024-09-20T08:00:35Z</time>
      </trkpt>
      <trkpt lat="45.88657" lon="4.81438">
        <ele>173</ele>
        <time>2024-09-20T08:00:36Z</time>
      </trkpt>
      <trkpt lat="45.88654" lon="4.81441">
        <ele>173</ele>
        <time>2024-09-20T08:00:37Z</time>
      </trkpt>
      <trkpt lat="45.88651" lon="4.81445">
        <ele>173</ele>
        <time>2024-09-20T08:00:38Z</time>
      </trkpt>
      <trkpt lat="45.88647" lon="4.81449">
        <ele>173</ele>
        <time>2024-09-20T08:00:39Z</time>
      </trkpt>
      <trkpt lat="45.88644" lon="4.81454">
        <ele>173</ele>
        <time>2024-09-20T08:00:40Z</time>
      </trkpt>
      <trkpt lat="45.88641" lon="4.81458">
        <ele>172.8</ele>
        <time>2024-09-20T08:00:41Z</time>
      </trkpt>
      <trkpt lat="45.88638" lon="4.81462">
        <ele>172.8</ele>
        <time>2024-09-20T08:00:42Z</time>
      </trkpt>
      <trkpt lat="45.88634" lon="4.81466">
        <ele>172.8</ele>
        <time>2024-09-20T08:00:43Z</time>
      </trkpt>
      <trkpt lat="45.88631" lon="4.81471">
        <ele>173</ele>
        <time>2024-09-20T08:00:44Z</time>
      </trkpt>
      <trkpt lat="45.88628" lon="4.81475">
        <ele>173</ele>
        <time>2024-09-20T08:00:45Z</time>
      </trkpt>
      <trkpt lat="45.88624" lon="4.81479">
        <ele>173</ele>
        <time>2024-09-20T08:00:46Z</time>
      </trkpt>
      <trkpt lat="45.88621" lon="4.81484">
        <ele>173</ele>
        <time>2024-09-20T08:00:47Z</time>
      </trkpt>
      <trkpt lat="45.88618" lon="4.81488">
        <ele>173</ele>
        <time>2024-09-20T08:00:48Z</time>
      </trkpt>
      <trkpt lat="45.88615" lon="4.81492">
        <ele>173</ele>
        <time>2024-09-20T08:00:49Z</time>
      </trkpt>
      <trkpt lat="45.88611" lon="4.81497">
        <ele>173</ele>
        <time>2024-09-20T08:00:50Z</time>
      </trkpt>
      <trkpt lat="45.88608" lon="4.81501">
        <ele>173</ele>
        <time>2024-09-20T08:00:51Z</time>
      </trkpt>
      <trkpt lat="45.88605" lon="4.81505">
        <ele>173</ele>
        <time>2024-09-20T08:00:52Z</time>
      </trkpt>
      <trkpt lat="45.88601" lon="4.81509">
        <ele>173</ele>
        <time>2024-09-20T08:00:53Z</time>
      </trkpt>
      <trkpt lat="45.88598" lon="4.81513">
        <ele>172.8</ele>
        <time>2024-09-20T08:00:54Z</time>
      </trkpt>
      <trkpt lat="45.88595" lon="4.81518">
        <ele>172.8</ele>
        <time>2024-09-20T08:00:55Z</time>
      </trkpt>
      <trkpt lat="45.88591" lon="4.81522">
        <ele>172.8</ele>
        <time>2024-09-20T08:00:56Z</time>
      </trkpt>
      <trkpt lat="45.88588" lon="4.81527">
        <ele>172.8</ele>
        <time>2024-09-20T08:00:57Z</time>
      </trkpt>
      <trkpt lat="45.88584" lon="4.81531">
        <ele>172.6</ele>
        <time>2024-09-20T08:00:58Z</time>
      </trkpt>
      <trkpt lat="45.88581" lon="4.81536">
        <ele>172.6</ele>
        <time>2024-09-20T08:00:59Z</time>
      </trkpt>
      <trkpt lat="45.88578" lon="4.8154">
        <ele>172.6</ele>
        <time>2024-09-20T08:01:00Z</time>
      </trkpt>
      <trkpt lat="45.88574" lon="4.81545">
        <ele>172.8</ele>
        <time>2024-09-20T08:01:01Z</time>
      </trkpt>
      <trkpt lat="45.88571" lon="4.81549">
        <ele>173</ele>
        <time>2024-09-20T08:01:02Z</time>
      </trkpt>
      <trkpt lat="45.88568" lon="4.81553">
        <ele>173</ele>
        <time>2024-09-20T08:01:03Z</time>
      </trkpt>
      <trkpt lat="45.88564" lon="4.81557">
        <ele>173</ele>
        <time>2024-09-20T08:01:04Z</time>
      </trkpt>
      <trkpt lat="45.88561" lon="4.81562">
        <ele>173</ele>
        <time>2024-09-20T08:01:05Z</time>
      </trkpt>
      <trkpt lat="45.88558" lon="4.81566">
        <ele>173</ele>
        <time>2024-09-20T08:01:06Z</time>
      </trkpt>
      <trkpt lat="45.88555" lon="4.8157">
        <ele>173</ele>
        <time>2024-09-20T08:01:07Z</time>
      </trkpt>
      <trkpt lat="45.88552" lon="4.81574">
        <ele>173</ele>
        <time>2024-09-20T08:01:08Z</time>
      </trkpt>
      <trkpt lat="45.88548" lon="4.81578">
        <ele>173</ele>
        <time>2024-09-20T08:01:09Z</time>
      </trkpt>
      <trkpt lat="45.88545" lon="4.81583">
        <ele>172.8</ele>
        <time>2024-09-20T08:01:10Z</time>
      </trkpt>
      <trkpt lat="45.88542" lon="4.81587">
        <ele>172.8</ele>
        <time>2024-09-20T08:01:11Z</time>
      </trkpt>
      <trkpt lat="45.88538" lon="4.81591">
        <ele>172.8</ele>
        <time>2024-09-20T08:01:12Z</time>
      </trkpt>
      <trkpt lat="45.88535" lon="4.81595">
        <ele>172.8</ele>
        <time>2024-09-20T08:01:13Z</time>
      </trkpt>
      <trkpt lat="45.88532" lon="4.81599">
        <ele>172.8</ele>
        <time>2024-09-20T08:01:14Z</time>
      </trkpt>
      <trkpt lat="45.88528" lon="4.81604">
        <ele>172.8</ele>
        <time>2024-09-20T08:01:15Z</time>
      </trkpt>
      <trkpt lat="45.88525" lon="4.81608">
        <ele>172.8</ele>
        <time>2024-09-20T08:01:16Z</time>
      </trkpt>
      <trkpt lat="45.88522" lon="4.81612">
        <ele>172.8</ele>
        <time>2024-09-20T08:01:17Z</time>
      </trkpt>
      <trkpt lat="45.88518" lon="4.81617">
        <ele>172.8</ele>
        <time>2024-09-20T08:01:18Z</time>
      </trkpt>
      <trkpt lat="45.88515" lon="4.81621">
        <ele>172.8</ele>
        <time>2024-09-20T08:01:19Z</time>
      </trkpt>
      <trkpt lat="45.88512" lon="4.81625">
        <ele>172.8</ele>
        <time>2024-09-20T08:01:20Z</time>
      </trkpt>
      <trkpt lat="45.88508" lon="4.81629">
        <ele>172.8</ele>
        <time>2024-09-20T08:01:21Z</time>
      </trkpt>
      <trkpt lat="45.88505" lon="4.81633">
        <ele>172.8</ele>
        <time>2024-09-20T08:01:22Z</time>
      </trkpt>
      <trkpt lat="45.88501" lon="4.81638">
        <ele>172.8</ele>
        <time>2024-09-20T08:01:23Z</time>
      </trkpt>
      <trkpt lat="45.88498" lon="4.81642">
        <ele>172.8</ele>
        <time>2024-09-20T08:01:24Z</time>
      </trkpt>
      <trkpt lat="45.88494" lon="4.81646">
        <ele>173</ele>
        <time>2024-09-20T08:01:25Z</time>
      </trkpt>
      <trkpt lat="45.88491" lon="4.8165">
        <ele>173</ele>
        <time>2024-09-20T08:01:26Z</time>
      </trkpt>
      <trkpt lat="45.88488" lon="4.81654">
        <ele>173</ele>
        <time>2024-09-20T08:01:27Z</time>
      </trkpt>
      <trkpt lat="45.88484" lon="4.81658">
        <ele>173</ele>
        <time>2024-09-20T08:01:28Z</time>
      </trkpt>
      <trkpt lat="45.88481" lon="4.81662">
        <ele>173</ele>
        <time>2024-09-20T08:01:29Z</time>
      </trkpt>
      <trkpt lat="45.88477" lon="4.81666">
        <ele>173</ele>
        <time>2024-09-20T08:01:30Z</time>
      </trkpt>
      <trkpt lat="45.88473" lon="4.81669">
        <ele>173</ele>
        <time>2024-09-20T08:01:31Z</time>
      </trkpt>
      <trkpt lat="45.8847" lon="4.81673">
        <ele>173</ele>
        <time>2024-09-20T08:01:32Z</time>
      </trkpt>
      <trkpt lat="45.88466" lon="4.81677">
        <ele>173</ele>
        <time>2024-09-20T08:01:33Z</time>
      </trkpt>
      <trkpt lat="45.88463" lon="4.81682">
        <ele>172.8</ele>
        <time>2024-09-20T08:01:34Z</time>
      </trkpt>
      <trkpt lat="45.8846" lon="4.81686">
        <ele>172.8</ele>
        <time>2024-09-20T08:01:35Z</time>
      </trkpt>
      <trkpt lat="45.88456" lon="4.81691">
        <ele>172.8</ele>
        <time>2024-09-20T08:01:36Z</time>
      </trkpt>
      <trkpt lat="45.88453" lon="4.81695">
        <ele>172.8</ele>
        <time>2024-09-20T08:01:37Z</time>
      </trkpt>
      <trkpt lat="45.88449" lon="4.817">
        <ele>172.8</ele>
        <time>2024-09-20T08:01:38Z</time>
      </trkpt>
      <trkpt lat="45.88446" lon="4.81705">
        <ele>172.8</ele>
        <time>2024-09-20T08:01:39Z</time>
      </trkpt>
      <trkpt lat="45.88443" lon="4.8171">
        <ele>172.8</ele>
        <time>2024-09-20T08:01:40Z</time>
      </trkpt>
      <trkpt lat="45.8844" lon="4.81715">
        <ele>172.8</ele>
        <time>2024-09-20T08:01:41Z</time>
      </trkpt>
      <trkpt lat="45.88437" lon="4.8172">
        <ele>172.8</ele>
        <time>2024-09-20T08:01:42Z</time>
      </trkpt>
      <trkpt lat="45.88435" lon="4.81725">
        <ele>173</ele>
        <time>2024-09-20T08:01:43Z</time>
      </trkpt>
      <trkpt lat="45.88432" lon="4.8173">
        <ele>173</ele>
        <time>2024-09-20T08:01:44Z</time>
      </trkpt>
      <trkpt lat="45.88429" lon="4.81734">
        <ele>173</ele>
        <time>2024-09-20T08:01:45Z</time>
      </trkpt>
      <trkpt lat="45.88425" lon="4.81738">
        <ele>172.8</ele>
        <time>2024-09-20T08:01:46Z</time>
      </trkpt>
      <trkpt lat="45.88422" lon="4.81742">
        <ele>172.8</ele>
        <time>2024-09-20T08:01:47Z</time>
      </trkpt>
      <trkpt lat="45.8842" lon="4.81746">
        <ele>172.8</ele>
        <time>2024-09-20T08:01:48Z</time>
      </trkpt>
      <trkpt lat="45.88417" lon="4.81751">
        <ele>172.8</ele>
        <time>2024-09-20T08:01:49Z</time>
      </trkpt>
      <trkpt lat="45.88414" lon="4.81755">
        <ele>172.8</ele>
        <time>2024-09-20T08:01:50Z</time>
      </trkpt>
      <trkpt lat="45.88412" lon="4.8176">
        <ele>173</ele>
        <time>2024-09-20T08:01:51Z</time>
      </trkpt>
      <trkpt lat="45.88409" lon="4.81764">
        <ele>173</ele>
        <time>2024-09-20T08:01:52Z</time>
      </trkpt>
      <trkpt lat="45.88407" lon="4.81769">
        <ele>173</ele>
        <time>2024-09-20T08:01:53Z</time>
      </trkpt>
      <trkpt lat="45.88404" lon="4.81774">
        <ele>173</ele>
        <time>2024-09-20T08:01:54Z</time>
      </trkpt>
      <trkpt lat="45.88401" lon="4.81779">
        <ele>173</ele>
        <time>2024-09-20T08:01:55Z</time>
      </trkpt>
      <trkpt lat="45.88399" lon="4.81784">
        <ele>173</ele>
        <time>2024-09-20T08:01:56Z</time>
      </trkpt>
      <trkpt lat="45.88397" lon="4.8179">
        <ele>172.6</ele>
        <time>2024-09-20T08:01:57Z</time>
      </trkpt>
      <trkpt lat="45.88394" lon="4.81794">
        <ele>172.6</ele>
        <time>2024-09-20T08:01:58Z</time>
      </trkpt>
      <trkpt lat="45.88392" lon="4.818">
        <ele>172.6</ele>
        <time>2024-09-20T08:01:59Z</time>
      </trkpt>
      <trkpt lat="45.88389" lon="4.81805">
        <ele>172.6</ele>
        <time>2024-09-20T08:02:00Z</time>
      </trkpt>
      <trkpt lat="45.88386" lon="4.8181">
        <ele>172.4</ele>
        <time>2024-09-20T08:02:01Z</time>
      </trkpt>
      <trkpt lat="45.88384" lon="4.81815">
        <ele>172.4</ele>
        <time>2024-09-20T08:02:02Z</time>
      </trkpt>
      <trkpt lat="45.88381" lon="4.8182">
        <ele>172.4</ele>
        <time>2024-09-20T08:02:03Z</time>
      </trkpt>
      <trkpt lat="45.88379" lon="4.81825">
        <ele>172.4</ele>
        <time>2024-09-20T08:02:04Z</time>
      </trkpt>
      <trkpt lat="45.88377" lon="4.8183">
        <ele>172.6</ele>
        <time>2024-09-20T08:02:05Z</time>
      </trkpt>
      <trkpt lat="45.88374" lon="4.81835">
        <ele>172.2</ele>
        <time>2024-09-20T08:02:06Z</time>
      </trkpt>
      <trkpt lat="45.88372" lon="4.81841">
        <ele>172.2</ele>
        <time>2024-09-20T08:02:07Z</time>
      </trkpt>
      <trkpt lat="45.8837" lon="4.81846">
        <ele>172.2</ele>
        <time>2024-09-20T08:02:08Z</time>
      </trkpt>
      <trkpt lat="45.88367" lon="4.81852">
        <ele>172.2</ele>
        <time>2024-09-20T08:02:09Z</time>
      </trkpt>
      <trkpt lat="45.88365" lon="4.81857">
        <ele>172.8</ele>
        <time>2024-09-20T08:02:10Z</time>
      </trkpt>
      <trkpt lat="45.88362" lon="4.81862">
        <ele>172.8</ele>
        <time>2024-09-20T08:02:11Z</time>
      </trkpt>
      <trkpt lat="45.8836" lon="4.81867">
        <ele>172.8</ele>
        <time>2024-09-20T08:02:12Z</time>
      </trkpt>
      <trkpt lat="45.88357" lon="4.81873">
        <ele>172.4</ele>
        <time>2024-09-20T08:02:13Z</time>
      </trkpt>
      <trkpt lat="45.88355" lon="4.81878">
        <ele>172.6</ele>
        <time>2024-09-20T08:02:14Z</time>
      </trkpt>
      <trkpt lat="45.88352" lon="4.81882">
        <ele>172.6</ele>
        <time>2024-09-20T08:02:15Z</time>
      </trkpt>
      <trkpt lat="45.8835" lon="4.81887">
        <ele>172.6</ele>
        <time>2024-09-20T08:02:16Z</time>
      </trkpt>
      <trkpt lat="45.88347" lon="4.81892">
        <ele>172.6</ele>
        <time>2024-09-20T08:02:17Z</time>
      </trkpt>
      <trkpt lat="45.88344" lon="4.81898">
        <ele>172.6</ele>
        <time>2024-09-20T08:02:18Z</time>
      </trkpt>
      <trkpt lat="45.88342" lon="4.81903">
        <ele>172.4</ele>
        <time>2024-09-20T08:02:19Z</time>
      </trkpt>
      <trkpt lat="45.88339" lon="4.81908">
        <ele>172.4</ele>
        <time>2024-09-20T08:02:20Z</time>
      </trkpt>
      <trkpt lat="45.88337" lon="4.81914">
        <ele>172.4</ele>
        <time>2024-09-20T08:02:21Z</time>
      </trkpt>
      <trkpt lat="45.88335" lon="4.81919">
        <ele>172.4</ele>
        <time>2024-09-20T08:02:22Z</time>
      </trkpt>
      <trkpt lat="45.88333" lon="4.81924">
        <ele>172</ele>
        <time>2024-09-20T08:02:23Z</time>
      </trkpt>
      <trkpt lat="45.8833" lon="4.8193">
        <ele>172</ele>
        <time>2024-09-20T08:02:24Z</time>
      </trkpt>
      <trkpt lat="45.88328" lon="4.81935">
        <ele>172</ele>
        <time>2024-09-20T08:02:25Z</time>
      </trkpt>
      <trkpt lat="45.88326" lon="4.8194">
        <ele>172.8</ele>
        <time>2024-09-20T08:02:26Z</time>
      </trkpt>
      <trkpt lat="45.88323" lon="4.81945">
        <ele>172.6</ele>
        <time>2024-09-20T08:02:27Z</time>
      </trkpt>
      <trkpt lat="45.88321" lon="4.81951">
        <ele>172.6</ele>
        <time>2024-09-20T08:02:28Z</time>
      </trkpt>
      <trkpt lat="45.88319" lon="4.81957">
        <ele>172.6</ele>
        <time>2024-09-20T08:02:29Z</time>
      </trkpt>
      <trkpt lat="45.88317" lon="4.81962">
        <ele>172.6</ele>
        <time>2024-09-20T08:02:30Z</time>
      </trkpt>
      <trkpt lat="45.88314" lon="4.81968">
        <ele>172.6</ele>
        <time>2024-09-20T08:02:31Z</time>
      </trkpt>
      <trkpt lat="45.88312" lon="4.81973">
        <ele>172.8</ele>
        <time>2024-09-20T08:02:32Z</time>
      </trkpt>
      <trkpt lat="45.8831" lon="4.81979">
        <ele>172.8</ele>
        <time>2024-09-20T08:02:33Z</time>
      </trkpt>
      <trkpt lat="45.88308" lon="4.81985">
        <ele>172.8</ele>
        <time>2024-09-20T08:02:34Z</time>
      </trkpt>
      <trkpt lat="45.88305" lon="4.8199">
        <ele>172.8</ele>
        <time>2024-09-20T08:02:35Z</time>
      </trkpt>
      <trkpt lat="45.88303" lon="4.81996">
        <ele>172.8</ele>
        <time>2024-09-20T08:02:36Z</time>
      </trkpt>
      <trkpt lat="45.88301" lon="4.82002">
        <ele>172.8</ele>
        <time>2024-09-20T08:02:37Z</time>
      </trkpt>
      <trkpt lat="45.88299" lon="4.82008">
        <ele>172.8</ele>
        <time>2024-09-20T08:02:38Z</time>
      </trkpt>
      <trkpt lat="45.88297" lon="4.82014">
        <ele>172.8</ele>
        <time>2024-09-20T08:02:39Z</time>
      </trkpt>
      <trkpt lat="45.88294" lon="4.8202">
        <ele>172.8</ele>
        <time>2024-09-20T08:02:40Z</time>
      </trkpt>
      <trkpt lat="45.88292" lon="4.82026">
        <ele>172.8</ele>
        <time>2024-09-20T08:02:41Z</time>
      </trkpt>
      <trkpt lat="45.88289" lon="4.82032">
        <ele>172.4</ele>
        <time>2024-09-20T08:02:42Z</time>
      </trkpt>
      <trkpt lat="45.88287" lon="4.82037">
        <ele>172.4</ele>
        <time>2024-09-20T08:02:43Z</time>
      </trkpt>
      <trkpt lat="45.88285" lon="4.82043">
        <ele>172.4</ele>
        <time>2024-09-20T08:02:44Z</time>
      </trkpt>
      <trkpt lat="45.88283" lon="4.82049">
        <ele>172.4</ele>
        <time>2024-09-20T08:02:45Z</time>
      </trkpt>
      <trkpt lat="45.88281" lon="4.82055">
        <ele>172.6</ele>
        <time>2024-09-20T08:02:46Z</time>
      </trkpt>
      <trkpt lat="45.88279" lon="4.82062">
        <ele>172.6</ele>
        <time>2024-09-20T08:02:47Z</time>
      </trkpt>
      <trkpt lat="45.88277" lon="4.82068">
        <ele>172.6</ele>
        <time>2024-09-20T08:02:48Z</time>
      </trkpt>
      <trkpt lat="45.88275" lon="4.82074">
        <ele>172.6</ele>
        <time>2024-09-20T08:02:49Z</time>
      </trkpt>
      <trkpt lat="45.88273" lon="4.82081">
        <ele>172.8</ele>
        <time>2024-09-20T08:02:50Z</time>
      </trkpt>
      <trkpt lat="45.88271" lon="4.82087">
        <ele>172.8</ele>
        <time>2024-09-20T08:02:51Z</time>
      </trkpt>
      <trkpt lat="45.88268" lon="4.82093">
        <ele>172.8</ele>
        <time>2024-09-20T08:02:52Z</time>
      </trkpt>
      <trkpt lat="45.88266" lon="4.82099">
        <ele>172.8</ele>
        <time>2024-09-20T08:02:53Z</time>
      </trkpt>
      <trkpt lat="45.88264" lon="4.82105">
        <ele>172.6</ele>
        <time>2024-09-20T08:02:54Z</time>
      </trkpt>
      <trkpt lat="45.88262" lon="4.82111">
        <ele>172.8</ele>
        <time>2024-09-20T08:02:55Z</time>
      </trkpt>
      <trkpt lat="45.88259" lon="4.82117">
        <ele>172.8</ele>
        <time>2024-09-20T08:02:56Z</time>
      </trkpt>
      <trkpt lat="45.88257" lon="4.82123">
        <ele>172.8</ele>
        <time>2024-09-20T08:02:57Z</time>
      </trkpt>
      <trkpt lat="45.88255" lon="4.82129">
        <ele>172.8</ele>
        <time>2024-09-20T08:02:58Z</time>
      </trkpt>
      <trkpt lat="45.88253" lon="4.82134">
        <ele>173</ele>
        <time>2024-09-20T08:02:59Z</time>
      </trkpt>
      <trkpt lat="45.88251" lon="4.8214">
        <ele>173</ele>
        <time>2024-09-20T08:03:00Z</time>
      </trkpt>
      <trkpt lat="45.88249" lon="4.82145">
        <ele>173</ele>
        <time>2024-09-20T08:03:01Z</time>
      </trkpt>
      <trkpt lat="45.88246" lon="4.82151">
        <ele>173</ele>
        <time>2024-09-20T08:03:02Z</time>
      </trkpt>
      <trkpt lat="45.88245" lon="4.82156">
        <ele>173.2</ele>
        <time>2024-09-20T08:03:03Z</time>
      </trkpt>
      <trkpt lat="45.88243" lon="4.82161">
        <ele>173.2</ele>
        <time>2024-09-20T08:03:04Z</time>
      </trkpt>
      <trkpt lat="45.88241" lon="4.82167">
        <ele>173.2</ele>
        <time>2024-09-20T08:03:05Z</time>
      </trkpt>
      <trkpt lat="45.88238" lon="4.82172">
        <ele>173.2</ele>
        <time>2024-09-20T08:03:06Z</time>
      </trkpt>
      <trkpt lat="45.88237" lon="4.82177">
        <ele>172.6</ele>
        <time>2024-09-20T08:03:07Z</time>
      </trkpt>
      <trkpt lat="45.88235" lon="4.82183">
        <ele>172.6</ele>
        <time>2024-09-20T08:03:08Z</time>
      </trkpt>
      <trkpt lat="45.88233" lon="4.82188">
        <ele>172.6</ele>
        <time>2024-09-20T08:03:09Z</time>
      </trkpt>
      <trkpt lat="45.88232" lon="4.82194">
        <ele>172.6</ele>
        <time>2024-09-20T08:03:10Z</time>
      </trkpt>
      <trkpt lat="45.8823" lon="4.82199">
        <ele>172.4</ele>
        <time>2024-09-20T08:03:11Z</time>
      </trkpt>
      <trkpt lat="45.88229" lon="4.82205">
        <ele>172.6</ele>
        <time>2024-09-20T08:03:12Z</time>
      </trkpt>
      <trkpt lat="45.88227" lon="4.82211">
        <ele>172.6</ele>
        <time>2024-09-20T08:03:13Z</time>
      </trkpt>
      <trkpt lat="45.88226" lon="4.82217">
        <ele>172.6</ele>
        <time>2024-09-20T08:03:14Z</time>
      </trkpt>
      <trkpt lat="45.88224" lon="4.82223">
        <ele>172.6</ele>
        <time>2024-09-20T08:03:15Z</time>
      </trkpt>
      <trkpt lat="45.88222" lon="4.82228">
        <ele>172.6</ele>
        <time>2024-09-20T08:03:16Z</time>
      </trkpt>
      <trkpt lat="45.88221" lon="4.82234">
        <ele>172.6</ele>
        <time>2024-09-20T08:03:17Z</time>
      </trkpt>
      <trkpt lat="45.88219" lon="4.8224">
        <ele>172.6</ele>
        <time>2024-09-20T08:03:18Z</time>
      </trkpt>
      <trkpt lat="45.88217" lon="4.82246">
        <ele>172.6</ele>
        <time>2024-09-20T08:03:19Z</time>
      </trkpt>
      <trkpt lat="45.88215" lon="4.82252">
        <ele>172.6</ele>
        <time>2024-09-20T08:03:20Z</time>
      </trkpt>
      <trkpt lat="45.88214" lon="4.82257">
        <ele>173</ele>
        <time>2024-09-20T08:03:21Z</time>
      </trkpt>
      <trkpt lat="45.88212" lon="4.82263">
        <ele>173</ele>
        <time>2024-09-20T08:03:22Z</time>
      </trkpt>
      <trkpt lat="45.8821" lon="4.82269">
        <ele>172.8</ele>
        <time>2024-09-20T08:03:23Z</time>
      </trkpt>
      <trkpt lat="45.88208" lon="4.82275">
        <ele>172.8</ele>
        <time>2024-09-20T08:03:24Z</time>
      </trkpt>
      <trkpt lat="45.88207" lon="4.82282">
        <ele>173</ele>
        <time>2024-09-20T08:03:25Z</time>
      </trkpt>
      <trkpt lat="45.88205" lon="4.82288">
        <ele>173</ele>
        <time>2024-09-20T08:03:26Z</time>
      </trkpt>
      <trkpt lat="45.88203" lon="4.82294">
        <ele>173</ele>
        <time>2024-09-20T08:03:27Z</time>
      </trkpt>
      <trkpt lat="45.88202" lon="4.823">
        <ele>173</ele>
        <time>2024-09-20T08:03:28Z</time>
      </trkpt>
      <trkpt lat="45.882" lon="4.82306">
        <ele>173</ele>
        <time>2024-09-20T08:03:29Z</time>
      </trkpt>
      <trkpt lat="45.88198" lon="4.82312">
        <ele>173</ele>
        <time>2024-09-20T08:03:30Z</time>
      </trkpt>
      <trkpt lat="45.88197" lon="4.82319">
        <ele>173</ele>
        <time>2024-09-20T08:03:31Z</time>
      </trkpt>
      <trkpt lat="45.88195" lon="4.82325">
        <ele>173</ele>
        <time>2024-09-20T08:03:32Z</time>
      </trkpt>
      <trkpt lat="45.88194" lon="4.82331">
        <ele>173</ele>
        <time>2024-09-20T08:03:33Z</time>
      </trkpt>
      <trkpt lat="45.88192" lon="4.82338">
        <ele>173</ele>
        <time>2024-09-20T08:03:34Z</time>
      </trkpt>
      <trkpt lat="45.8819" lon="4.82344">
        <ele>172.8</ele>
        <time>2024-09-20T08:03:35Z</time>
      </trkpt>
      <trkpt lat="45.88189" lon="4.8235">
        <ele>172.8</ele>
        <time>2024-09-20T08:03:36Z</time>
      </trkpt>
      <trkpt lat="45.88187" lon="4.82357">
        <ele>172.8</ele>
        <time>2024-09-20T08:03:37Z</time>
      </trkpt>
      <trkpt lat="45.88186" lon="4.82363">
        <ele>173</ele>
        <time>2024-09-20T08:03:38Z</time>
      </trkpt>
      <trkpt lat="45.88184" lon="4.82369">
        <ele>172.8</ele>
        <time>2024-09-20T08:03:39Z</time>
      </trkpt>
      <trkpt lat="45.88182" lon="4.82375">
        <ele>172.8</ele>
        <time>2024-09-20T08:03:40Z</time>
      </trkpt>
      <trkpt lat="45.88181" lon="4.82382">
        <ele>172.8</ele>
        <time>2024-09-20T08:03:41Z</time>
      </trkpt>
      <trkpt lat="45.88179" lon="4.82388">
        <ele>173</ele>
        <time>2024-09-20T08:03:42Z</time>
      </trkpt>
      <trkpt lat="45.88178" lon="4.82394">
        <ele>173</ele>
        <time>2024-09-20T08:03:43Z</time>
      </trkpt>
      <trkpt lat="45.88176" lon="4.82401">
        <ele>173</ele>
        <time>2024-09-20T08:03:44Z</time>
      </trkpt>
      <trkpt lat="45.88175" lon="4.82407">
        <ele>173</ele>
        <time>2024-09-20T08:03:45Z</time>
      </trkpt>
      <trkpt lat="45.88173" lon="4.82414">
        <ele>173</ele>
        <time>2024-09-20T08:03:46Z</time>
      </trkpt>
      <trkpt lat="45.88172" lon="4.8242">
        <ele>173</ele>
        <time>2024-09-20T08:03:47Z</time>
      </trkpt>
      <trkpt lat="45.8817" lon="4.82426">
        <ele>173</ele>
        <time>2024-09-20T08:03:48Z</time>
      </trkpt>
      <trkpt lat="45.88169" lon="4.82432">
        <ele>173</ele>
        <time>2024-09-20T08:03:49Z</time>
      </trkpt>
      <trkpt lat="45.88167" lon="4.82439">
        <ele>173</ele>
        <time>2024-09-20T08:03:50Z</time>
      </trkpt>
      <trkpt lat="45.88166" lon="4.82445">
        <ele>173.2</ele>
        <time>2024-09-20T08:03:51Z</time>
      </trkpt>
      <trkpt lat="45.88164" lon="4.82451">
        <ele>173.2</ele>
        <time>2024-09-20T08:03:52Z</time>
      </trkpt>
      <trkpt lat="45.88163" lon="4.82458">
        <ele>173.2</ele>
        <time>2024-09-20T08:03:53Z</time>
      </trkpt>
      <trkpt lat="45.88161" lon="4.82464">
        <ele>173.2</ele>
        <time>2024-09-20T08:03:54Z</time>
      </trkpt>
      <trkpt lat="45.8816" lon="4.82471">
        <ele>173.2</ele>
        <time>2024-09-20T08:03:55Z</time>
      </trkpt>
      <trkpt lat="45.88158" lon="4.82477">
        <ele>173.2</ele>
        <time>2024-09-20T08:03:56Z</time>
      </trkpt>
      <trkpt lat="45.88157" lon="4.82483">
        <ele>173.4</ele>
        <time>2024-09-20T08:03:57Z</time>
      </trkpt>
      <trkpt lat="45.88155" lon="4.8249">
        <ele>173.4</ele>
        <time>2024-09-20T08:03:58Z</time>
      </trkpt>
      <trkpt lat="45.88153" lon="4.82496">
        <ele>173.4</ele>
        <time>2024-09-20T08:03:59Z</time>
      </trkpt>
      <trkpt lat="45.88152" lon="4.82502">
        <ele>173.4</ele>
        <time>2024-09-20T08:04:00Z</time>
      </trkpt>
      <trkpt lat="45.8815" lon="4.82509">
        <ele>173.4</ele>
        <time>2024-09-20T08:04:01Z</time>
      </trkpt>
      <trkpt lat="45.88148" lon="4.82515">
        <ele>173.4</ele>
        <time>2024-09-20T08:04:02Z</time>
      </trkpt>
      <trkpt lat="45.88147" lon="4.82521">
        <ele>173.4</ele>
        <time>2024-09-20T08:04:03Z</time>
      </trkpt>
      <trkpt lat="45.88145" lon="4.82527">
        <ele>173.4</ele>
        <time>2024-09-20T08:04:04Z</time>
      </trkpt>
      <trkpt lat="45.88143" lon="4.82533">
        <ele>173</ele>
        <time>2024-09-20T08:04:05Z</time>
      </trkpt>
      <trkpt lat="45.88142" lon="4.82539">
        <ele>173.2</ele>
        <time>2024-09-20T08:04:06Z</time>
      </trkpt>
      <trkpt lat="45.8814" lon="4.82545">
        <ele>173.2</ele>
        <time>2024-09-20T08:04:07Z</time>
      </trkpt>
      <trkpt lat="45.88138" lon="4.82552">
        <ele>173.2</ele>
        <time>2024-09-20T08:04:08Z</time>
      </trkpt>
      <trkpt lat="45.88136" lon="4.82558">
        <ele>173.2</ele>
        <time>2024-09-20T08:04:09Z</time>
      </trkpt>
      <trkpt lat="45.88135" lon="4.82564">
        <ele>173</ele>
        <time>2024-09-20T08:04:10Z</time>
      </trkpt>
      <trkpt lat="45.88133" lon="4.82571">
        <ele>173</ele>
        <time>2024-09-20T08:04:11Z</time>
      </trkpt>
      <trkpt lat="45.88132" lon="4.82577">
        <ele>173</ele>
        <time>2024-09-20T08:04:12Z</time>
      </trkpt>
      <trkpt lat="45.8813" lon="4.82583">
        <ele>173</ele>
        <time>2024-09-20T08:04:13Z</time>
      </trkpt>
      <trkpt lat="45.88129" lon="4.82589">
        <ele>173</ele>
        <time>2024-09-20T08:04:14Z</time>
      </trkpt>
      <trkpt lat="45.88127" lon="4.82595">
        <ele>173</ele>
        <time>2024-09-20T08:04:15Z</time>
      </trkpt>
      <trkpt lat="45.88126" lon="4.82601">
        <ele>172.6</ele>
        <time>2024-09-20T08:04:16Z</time>
      </trkpt>
      <trkpt lat="45.88125" lon="4.82607">
        <ele>172.6</ele>
        <time>2024-09-20T08:04:17Z</time>
      </trkpt>
      <trkpt lat="45.88123" lon="4.82613">
        <ele>172.8</ele>
        <time>2024-09-20T08:04:18Z</time>
      </trkpt>
      <trkpt lat="45.88121" lon="4.82619">
        <ele>173</ele>
        <time>2024-09-20T08:04:19Z</time>
      </trkpt>
      <trkpt lat="45.8812" lon="4.82625">
        <ele>173</ele>
        <time>2024-09-20T08:04:20Z</time>
      </trkpt>
      <trkpt lat="45.88118" lon="4.82632">
        <ele>173</ele>
        <time>2024-09-20T08:04:21Z</time>
      </trkpt>
      <trkpt lat="45.88117" lon="4.82638">
        <ele>173</ele>
        <time>2024-09-20T08:04:22Z</time>
      </trkpt>
      <trkpt lat="45.88115" lon="4.82644">
        <ele>173</ele>
        <time>2024-09-20T08:04:23Z</time>
      </trkpt>
      <trkpt lat="45.88113" lon="4.82651">
        <ele>173</ele>
        <time>2024-09-20T08:04:24Z</time>
      </trkpt>
      <trkpt lat="45.88112" lon="4.82657">
        <ele>173</ele>
        <time>2024-09-20T08:04:25Z</time>
      </trkpt>
      <trkpt lat="45.8811" lon="4.82663">
        <ele>173</ele>
        <time>2024-09-20T08:04:26Z</time>
      </trkpt>
      <trkpt lat="45.88108" lon="4.82669">
        <ele>173</ele>
        <time>2024-09-20T08:04:27Z</time>
      </trkpt>
      <trkpt lat="45.88107" lon="4.82676">
        <ele>173</ele>
        <time>2024-09-20T08:04:28Z</time>
      </trkpt>
      <trkpt lat="45.88105" lon="4.82682">
        <ele>173</ele>
        <time>2024-09-20T08:04:29Z</time>
      </trkpt>
      <trkpt lat="45.88103" lon="4.82688">
        <ele>173</ele>
        <time>2024-09-20T08:04:30Z</time>
      </trkpt>
      <trkpt lat="45.88102" lon="4.82694">
        <ele>173</ele>
        <time>2024-09-20T08:04:31Z</time>
      </trkpt>
      <trkpt lat="45.881" lon="4.827">
        <ele>173</ele>
        <time>2024-09-20T08:04:32Z</time>
      </trkpt>
      <trkpt lat="45.88099" lon="4.82707">
        <ele>173</ele>
        <time>2024-09-20T08:04:33Z</time>
      </trkpt>
      <trkpt lat="45.88097" lon="4.82713">
        <ele>173</ele>
        <time>2024-09-20T08:04:34Z</time>
      </trkpt>
      <trkpt lat="45.88096" lon="4.82719">
        <ele>173</ele>
        <time>2024-09-20T08:04:35Z</time>
      </trkpt>
      <trkpt lat="45.88095" lon="4.82725">
        <ele>173</ele>
        <time>2024-09-20T08:04:36Z</time>
      </trkpt>
      <trkpt lat="45.88094" lon="4.82731">
        <ele>172.8</ele>
        <time>2024-09-20T08:04:37Z</time>
      </trkpt>
      <trkpt lat="45.88093" lon="4.82737">
        <ele>172.8</ele>
        <time>2024-09-20T08:04:38Z</time>
      </trkpt>
      <trkpt lat="45.88092" lon="4.82743">
        <ele>172.8</ele>
        <time>2024-09-20T08:04:39Z</time>
      </trkpt>
      <trkpt lat="45.88092" lon="4.82748">
        <ele>172.8</ele>
        <time>2024-09-20T08:04:40Z</time>
      </trkpt>
      <trkpt lat="45.88091" lon="4.82753">
        <ele>173.2</ele>
        <time>2024-09-20T08:04:41Z</time>
      </trkpt>
      <trkpt lat="45.8809" lon="4.82759">
        <ele>173.2</ele>
        <time>2024-09-20T08:04:42Z</time>
      </trkpt>
      <trkpt lat="45.88089" lon="4.82765">
        <ele>173.2</ele>
        <time>2024-09-20T08:04:43Z</time>
      </trkpt>
      <trkpt lat="45.88088" lon="4.82771">
        <ele>173.2</ele>
        <time>2024-09-20T08:04:44Z</time>
      </trkpt>
      <trkpt lat="45.88086" lon="4.82778">
        <ele>172.4</ele>
        <time>2024-09-20T08:04:45Z</time>
      </trkpt>
      <trkpt lat="45.88085" lon="4.82785">
        <ele>172.4</ele>
        <time>2024-09-20T08:04:46Z</time>
      </trkpt>
      <trkpt lat="45.88084" lon="4.82792">
        <ele>172.4</ele>
        <time>2024-09-20T08:04:47Z</time>
      </trkpt>
      <trkpt lat="45.88083" lon="4.828">
        <ele>172.4</ele>
        <time>2024-09-20T08:04:48Z</time>
      </trkpt>
      <trkpt lat="45.88082" lon="4.82807">
        <ele>172.4</ele>
        <time>2024-09-20T08:04:49Z</time>
      </trkpt>
      <trkpt lat="45.88081" lon="4.82815">
        <ele>172.4</ele>
        <time>2024-09-20T08:04:50Z</time>
      </trkpt>
      <trkpt lat="45.8808" lon="4.82822">
        <ele>172.2</ele>
        <time>2024-09-20T08:04:51Z</time>
      </trkpt>
      <trkpt lat="45.88078" lon="4.8283">
        <ele>172.2</ele>
        <time>2024-09-20T08:04:52Z</time>
      </trkpt>
      <trkpt lat="45.88077" lon="4.82837">
        <ele>172.2</ele>
        <time>2024-09-20T08:04:53Z</time>
      </trkpt>
      <trkpt lat="45.88076" lon="4.82844">
        <ele>172.2</ele>
        <time>2024-09-20T08:04:54Z</time>
      </trkpt>
      <trkpt lat="45.88075" lon="4.82851">
        <ele>171.8</ele>
        <time>2024-09-20T08:04:55Z</time>
      </trkpt>
      <trkpt lat="45.88074" lon="4.82858">
        <ele>171.8</ele>
        <time>2024-09-20T08:04:56Z</time>
      </trkpt>
      <trkpt lat="45.88073" lon="4.82865">
        <ele>171.8</ele>
        <time>2024-09-20T08:04:57Z</time>
      </trkpt>
      <trkpt lat="45.88072" lon="4.82872">
        <ele>172</ele>
        <time>2024-09-20T08:04:58Z</time>
      </trkpt>
      <trkpt lat="45.88071" lon="4.82879">
        <ele>171.8</ele>
        <time>2024-09-20T08:04:59Z</time>
      </trkpt>
      <trkpt lat="45.8807" lon="4.82886">
        <ele>171.8</ele>
        <time>2024-09-20T08:05:00Z</time>
      </trkpt>
      <trkpt lat="45.88069" lon="4.82892">
        <ele>171.8</ele>
        <time>2024-09-20T08:05:01Z</time>
      </trkpt>
      <trkpt lat="45.88068" lon="4.82899">
        <ele>171.8</ele>
        <time>2024-09-20T08:05:02Z</time>
      </trkpt>
      <trkpt lat="45.88067" lon="4.82906">
        <ele>172</ele>
        <time>2024-09-20T08:05:03Z</time>
      </trkpt>
      <trkpt lat="45.88066" lon="4.82913">
        <ele>172</ele>
        <time>2024-09-20T08:05:04Z</time>
      </trkpt>
      <trkpt lat="45.88065" lon="4.8292">
        <ele>171.6</ele>
        <time>2024-09-20T08:05:05Z</time>
      </trkpt>
      <trkpt lat="45.88064" lon="4.82927">
        <ele>171.6</ele>
        <time>2024-09-20T08:05:06Z</time>
      </trkpt>
      <trkpt lat="45.88063" lon="4.82933">
        <ele>171.8</ele>
        <time>2024-09-20T08:05:07Z</time>
      </trkpt>
      <trkpt lat="45.88063" lon="4.8294">
        <ele>171.8</ele>
        <time>2024-09-20T08:05:08Z</time>
      </trkpt>
      <trkpt lat="45.88062" lon="4.82947">
        <ele>171.8</ele>
        <time>2024-09-20T08:05:09Z</time>
      </trkpt>
      <trkpt lat="45.88061" lon="4.82954">
        <ele>171.8</ele>
        <time>2024-09-20T08:05:10Z</time>
      </trkpt>
      <trkpt lat="45.88059" lon="4.8296">
        <ele>171.8</ele>
        <time>2024-09-20T08:05:11Z</time>
      </trkpt>
      <trkpt lat="45.88058" lon="4.82967">
        <ele>171.6</ele>
        <time>2024-09-20T08:05:12Z</time>
      </trkpt>
      <trkpt lat="45.88057" lon="4.82973">
        <ele>171.6</ele>
        <time>2024-09-20T08:05:13Z</time>
      </trkpt>
      <trkpt lat="45.88056" lon="4.82979">
        <ele>171.6</ele>
        <time>2024-09-20T08:05:14Z</time>
      </trkpt>
      <trkpt lat="45.88056" lon="4.82986">
        <ele>171.6</ele>
        <time>2024-09-20T08:05:15Z</time>
      </trkpt>
      <trkpt lat="45.88055" lon="4.82993">
        <ele>171.6</ele>
        <time>2024-09-20T08:05:16Z</time>
      </trkpt>
      <trkpt lat="45.88054" lon="4.82999">
        <ele>171.8</ele>
        <time>2024-09-20T08:05:17Z</time>
      </trkpt>
      <trkpt lat="45.88053" lon="4.83005">
        <ele>171.8</ele>
        <time>2024-09-20T08:05:18Z</time>
      </trkpt>
      <trkpt lat="45.88052" lon="4.83012">
        <ele>171.8</ele>
        <time>2024-09-20T08:05:19Z</time>
      </trkpt>
      <trkpt lat="45.88051" lon="4.83018">
        <ele>172</ele>
        <time>2024-09-20T08:05:20Z</time>
      </trkpt>
      <trkpt lat="45.88051" lon="4.83024">
        <ele>171.8</ele>
        <time>2024-09-20T08:05:21Z</time>
      </trkpt>
      <trkpt lat="45.8805" lon="4.8303">
        <ele>171.8</ele>
        <time>2024-09-20T08:05:22Z</time>
      </trkpt>
      <trkpt lat="45.88049" lon="4.83036">
        <ele>171.8</ele>
        <time>2024-09-20T08:05:23Z</time>
      </trkpt>
      <trkpt lat="45.88049" lon="4.83042">
        <ele>172</ele>
        <time>2024-09-20T08:05:24Z</time>
      </trkpt>
      <trkpt lat="45.88048" lon="4.83048">
        <ele>172</ele>
        <time>2024-09-20T08:05:25Z</time>
      </trkpt>
      <trkpt lat="45.88048" lon="4.83054">
        <ele>172</ele>
        <time>2024-09-20T08:05:26Z</time>
      </trkpt>
      <trkpt lat="45.88047" lon="4.83061">
        <ele>172.2</ele>
        <time>2024-09-20T08:05:27Z</time>
      </trkpt>
      <trkpt lat="45.88046" lon="4.83067">
        <ele>172.2</ele>
        <time>2024-09-20T08:05:28Z</time>
      </trkpt>
      <trkpt lat="45.88045" lon="4.83073">
        <ele>172.2</ele>
        <time>2024-09-20T08:05:29Z</time>
      </trkpt>
      <trkpt lat="45.88044" lon="4.83079">
        <ele>172</ele>
        <time>2024-09-20T08:05:30Z</time>
      </trkpt>
      <trkpt lat="45.88043" lon="4.83085">
        <ele>172</ele>
        <time>2024-09-20T08:05:31Z</time>
      </trkpt>
      <trkpt lat="45.88042" lon="4.83092">
        <ele>172</ele>
        <time>2024-09-20T08:05:32Z</time>
      </trkpt>
      <trkpt lat="45.88041" lon="4.83098">
        <ele>172</ele>
        <time>2024-09-20T08:05:33Z</time>
      </trkpt>
      <trkpt lat="45.8804" lon="4.83105">
        <ele>171.8</ele>
        <time>2024-09-20T08:05:34Z</time>
      </trkpt>
      <trkpt lat="45.8804" lon="4.83111">
        <ele>171.8</ele>
        <time>2024-09-20T08:05:35Z</time>
      </trkpt>
      <trkpt lat="45.8804" lon="4.83117">
        <ele>171.8</ele>
        <time>2024-09-20T08:05:36Z</time>
      </trkpt>
      <trkpt lat="45.88039" lon="4.83123">
        <ele>171.8</ele>
        <time>2024-09-20T08:05:37Z</time>
      </trkpt>
      <trkpt lat="45.88039" lon="4.83129">
        <ele>172</ele>
        <time>2024-09-20T08:05:38Z</time>
      </trkpt>
      <trkpt lat="45.88038" lon="4.83136">
        <ele>172</ele>
        <time>2024-09-20T08:05:39Z</time>
      </trkpt>
      <trkpt lat="45.88037" lon="4.83142">
        <ele>171.6</ele>
        <time>2024-09-20T08:05:40Z</time>
      </trkpt>
      <trkpt lat="45.88036" lon="4.83149">
        <ele>171.6</ele>
        <time>2024-09-20T08:05:41Z</time>
      </trkpt>
      <trkpt lat="45.88035" lon="4.83156">
        <ele>171.6</ele>
        <time>2024-09-20T08:05:42Z</time>
      </trkpt>
      <trkpt lat="45.88034" lon="4.83162">
        <ele>171.6</ele>
        <time>2024-09-20T08:05:43Z</time>
      </trkpt>
      <trkpt lat="45.88033" lon="4.83169">
        <ele>171.6</ele>
        <time>2024-09-20T08:05:44Z</time>
      </trkpt>
      <trkpt lat="45.88032" lon="4.83174">
        <ele>171.8</ele>
        <time>2024-09-20T08:05:45Z</time>
      </trkpt>
      <trkpt lat="45.88031" lon="4.8318">
        <ele>171.8</ele>
        <time>2024-09-20T08:05:46Z</time>
      </trkpt>
      <trkpt lat="45.88031" lon="4.83187">
        <ele>171.6</ele>
        <time>2024-09-20T08:05:47Z</time>
      </trkpt>
      <trkpt lat="45.8803" lon="4.83192">
        <ele>171.6</ele>
        <time>2024-09-20T08:05:48Z</time>
      </trkpt>
      <trkpt lat="45.88029" lon="4.83198">
        <ele>171.6</ele>
        <time>2024-09-20T08:05:49Z</time>
      </trkpt>
      <trkpt lat="45.88028" lon="4.83204">
        <ele>171.6</ele>
        <time>2024-09-20T08:05:50Z</time>
      </trkpt>
      <trkpt lat="45.88027" lon="4.8321">
        <ele>171.6</ele>
        <time>2024-09-20T08:05:51Z</time>
      </trkpt>
      <trkpt lat="45.88027" lon="4.83216">
        <ele>171</ele>
        <time>2024-09-20T08:05:52Z</time>
      </trkpt>
      <trkpt lat="45.88027" lon="4.83221">
        <ele>171.4</ele>
        <time>2024-09-20T08:05:53Z</time>
      </trkpt>
      <trkpt lat="45.88027" lon="4.83227">
        <ele>171.4</ele>
        <time>2024-09-20T08:05:54Z</time>
      </trkpt>
      <trkpt lat="45.88026" lon="4.83233">
        <ele>171.4</ele>
        <time>2024-09-20T08:05:55Z</time>
      </trkpt>
      <trkpt lat="45.88026" lon="4.83239">
        <ele>171.4</ele>
        <time>2024-09-20T08:05:56Z</time>
      </trkpt>
      <trkpt lat="45.88025" lon="4.83245">
        <ele>171.4</ele>
        <time>2024-09-20T08:05:57Z</time>
      </trkpt>
      <trkpt lat="45.88025" lon="4.83251">
        <ele>171.4</ele>
        <time>2024-09-20T08:05:58Z</time>
      </trkpt>
      <trkpt lat="45.88024" lon="4.83257">
        <ele>171.4</ele>
        <time>2024-09-20T08:05:59Z</time>
      </trkpt>
      <trkpt lat="45.88023" lon="4.83263">
        <ele>171.4</ele>
        <time>2024-09-20T08:06:00Z</time>
      </trkpt>
      <trkpt lat="45.88022" lon="4.83269">
        <ele>171.4</ele>
        <time>2024-09-20T08:06:01Z</time>
      </trkpt>
      <trkpt lat="45.8802" lon="4.83275">
        <ele>171.6</ele>
        <time>2024-09-20T08:06:02Z</time>
      </trkpt>
      <trkpt lat="45.8802" lon="4.83281">
        <ele>171.6</ele>
        <time>2024-09-20T08:06:03Z</time>
      </trkpt>
      <trkpt lat="45.88019" lon="4.83287">
        <ele>171.6</ele>
        <time>2024-09-20T08:06:04Z</time>
      </trkpt>
      <trkpt lat="45.88018" lon="4.83294">
        <ele>171.2</ele>
        <time>2024-09-20T08:06:05Z</time>
      </trkpt>
      <trkpt lat="45.88017" lon="4.833">
        <ele>171.2</ele>
        <time>2024-09-20T08:06:06Z</time>
      </trkpt>
      <trkpt lat="45.88016" lon="4.83306">
        <ele>171.2</ele>
        <time>2024-09-20T08:06:07Z</time>
      </trkpt>
      <trkpt lat="45.88016" lon="4.83313">
        <ele>171.2</ele>
        <time>2024-09-20T08:06:08Z</time>
      </trkpt>
      <trkpt lat="45.88015" lon="4.8332">
        <ele>171.6</ele>
        <time>2024-09-20T08:06:09Z</time>
      </trkpt>
      <trkpt lat="45.88014" lon="4.83326">
        <ele>171.6</ele>
        <time>2024-09-20T08:06:10Z</time>
      </trkpt>
      <trkpt lat="45.88014" lon="4.83333">
        <ele>171.6</ele>
        <time>2024-09-20T08:06:11Z</time>
      </trkpt>
      <trkpt lat="45.88013" lon="4.83339">
        <ele>171.6</ele>
        <time>2024-09-20T08:06:12Z</time>
      </trkpt>
      <trkpt lat="45.88012" lon="4.83345">
        <ele>171.6</ele>
        <time>2024-09-20T08:06:13Z</time>
      </trkpt>
      <trkpt lat="45.88012" lon="4.83351">
        <ele>171.6</ele>
        <time>2024-09-20T08:06:14Z</time>
      </trkpt>
      <trkpt lat="45.88011" lon="4.83357">
        <ele>171.4</ele>
        <time>2024-09-20T08:06:15Z</time>
      </trkpt>
      <trkpt lat="45.8801" lon="4.83363">
        <ele>171.2</ele>
        <time>2024-09-20T08:06:16Z</time>
      </trkpt>
      <trkpt lat="45.88009" lon="4.83368">
        <ele>171.2</ele>
        <time>2024-09-20T08:06:17Z</time>
      </trkpt>
      <trkpt lat="45.88008" lon="4.83374">
        <ele>171.2</ele>
        <time>2024-09-20T08:06:18Z</time>
      </trkpt>
      <trkpt lat="45.88007" lon="4.8338">
        <ele>171.2</ele>
        <time>2024-09-20T08:06:19Z</time>
      </trkpt>
      <trkpt lat="45.88006" lon="4.83386">
        <ele>171.4</ele>
        <time>2024-09-20T08:06:20Z</time>
      </trkpt>
      <trkpt lat="45.88005" lon="4.83392">
        <ele>171.4</ele>
        <time>2024-09-20T08:06:21Z</time>
      </trkpt>
      <trkpt lat="45.88004" lon="4.83398">
        <ele>171.4</ele>
        <time>2024-09-20T08:06:22Z</time>
      </trkpt>
      <trkpt lat="45.88003" lon="4.83404">
        <ele>171.4</ele>
        <time>2024-09-20T08:06:23Z</time>
      </trkpt>
      <trkpt lat="45.88001" lon="4.83411">
        <ele>171.6</ele>
        <time>2024-09-20T08:06:24Z</time>
      </trkpt>
      <trkpt lat="45.88" lon="4.83416">
        <ele>171.6</ele>
        <time>2024-09-20T08:06:25Z</time>
      </trkpt>
      <trkpt lat="45.87998" lon="4.83423">
        <ele>171.6</ele>
        <time>2024-09-20T08:06:26Z</time>
      </trkpt>
      <trkpt lat="45.87997" lon="4.83429">
        <ele>171.6</ele>
        <time>2024-09-20T08:06:27Z</time>
      </trkpt>
      <trkpt lat="45.87995" lon="4.83435">
        <ele>171.4</ele>
        <time>2024-09-20T08:06:28Z</time>
      </trkpt>
      <trkpt lat="45.87993" lon="4.83442">
        <ele>171.4</ele>
        <time>2024-09-20T08:06:29Z</time>
      </trkpt>
      <trkpt lat="45.87992" lon="4.83448">
        <ele>171.4</ele>
        <time>2024-09-20T08:06:30Z</time>
      </trkpt>
      <trkpt lat="45.8799" lon="4.83455">
        <ele>171.4</ele>
        <time>2024-09-20T08:06:31Z</time>
      </trkpt>
      <trkpt lat="45.87988" lon="4.83461">
        <ele>171.4</ele>
        <time>2024-09-20T08:06:32Z</time>
      </trkpt>
      <trkpt lat="45.87986" lon="4.83468">
        <ele>171.6</ele>
        <time>2024-09-20T08:06:33Z</time>
      </trkpt>
      <trkpt lat="45.87985" lon="4.83475">
        <ele>171.6</ele>
        <time>2024-09-20T08:06:34Z</time>
      </trkpt>
      <trkpt lat="45.87983" lon="4.83481">
        <ele>171.6</ele>
        <time>2024-09-20T08:06:35Z</time>
      </trkpt>
      <trkpt lat="45.87982" lon="4.83488">
        <ele>171.4</ele>
        <time>2024-09-20T08:06:36Z</time>
      </trkpt>
      <trkpt lat="45.87981" lon="4.83494">
        <ele>171.4</ele>
        <time>2024-09-20T08:06:37Z</time>
      </trkpt>
      <trkpt lat="45.87979" lon="4.835">
        <ele>171.4</ele>
        <time>2024-09-20T08:06:38Z</time>
      </trkpt>
      <trkpt lat="45.87978" lon="4.83507">
        <ele>171.4</ele>
        <time>2024-09-20T08:06:39Z</time>
      </trkpt>
      <trkpt lat="45.87976" lon="4.83513">
        <ele>171.4</ele>
        <time>2024-09-20T08:06:40Z</time>
      </trkpt>
      <trkpt lat="45.87975" lon="4.83518">
        <ele>171.4</ele>
        <time>2024-09-20T08:06:41Z</time>
      </trkpt>
      <trkpt lat="45.87973" lon="4.83524">
        <ele>171.4</ele>
        <time>2024-09-20T08:06:42Z</time>
      </trkpt>
      <trkpt lat="45.87972" lon="4.8353">
        <ele>171.4</ele>
        <time>2024-09-20T08:06:43Z</time>
      </trkpt>
      <trkpt lat="45.8797" lon="4.83536">
        <ele>171.4</ele>
        <time>2024-09-20T08:06:44Z</time>
      </trkpt>
      <trkpt lat="45.87968" lon="4.83542">
        <ele>171.6</ele>
        <time>2024-09-20T08:06:45Z</time>
      </trkpt>
      <trkpt lat="45.87967" lon="4.83548">
        <ele>171.8</ele>
        <time>2024-09-20T08:06:46Z</time>
      </trkpt>
      <trkpt lat="45.87964" lon="4.83554">
        <ele>171.8</ele>
        <time>2024-09-20T08:06:47Z</time>
      </trkpt>
      <trkpt lat="45.87962" lon="4.83559">
        <ele>171.8</ele>
        <time>2024-09-20T08:06:48Z</time>
      </trkpt>
      <trkpt lat="45.87959" lon="4.83564">
        <ele>171.8</ele>
        <time>2024-09-20T08:06:49Z</time>
      </trkpt>
      <trkpt lat="45.87957" lon="4.8357">
        <ele>171.6</ele>
        <time>2024-09-20T08:06:50Z</time>
      </trkpt>
      <trkpt lat="45.87955" lon="4.83576">
        <ele>171.6</ele>
        <time>2024-09-20T08:06:51Z</time>
      </trkpt>
      <trkpt lat="45.87953" lon="4.83582">
        <ele>171.6</ele>
        <time>2024-09-20T08:06:52Z</time>
      </trkpt>
      <trkpt lat="45.87951" lon="4.83588">
        <ele>171.6</ele>
        <time>2024-09-20T08:06:53Z</time>
      </trkpt>
      <trkpt lat="45.87949" lon="4.83594">
        <ele>171.6</ele>
        <time>2024-09-20T08:06:54Z</time>
      </trkpt>
      <trkpt lat="45.87947" lon="4.83599">
        <ele>171.6</ele>
        <time>2024-09-20T08:06:55Z</time>
      </trkpt>
      <trkpt lat="45.87945" lon="4.83602">
        <ele>171.6</ele>
        <time>2024-09-20T08:06:56Z</time>
      </trkpt>
      <trkpt lat="45.87943" lon="4.83602">
        <ele>171.6</ele>
        <time>2024-09-20T08:06:57Z</time>
      </trkpt>
      <trkpt lat="45.8794" lon="4.83603">
        <ele>171.6</ele>
        <time>2024-09-20T08:06:58Z</time>
      </trkpt>
      <trkpt lat="45.87938" lon="4.83604">
        <ele>171.4</ele>
        <time>2024-09-20T08:06:59Z</time>
      </trkpt>
      <trkpt lat="45.87936" lon="4.83607">
        <ele>171.4</ele>
        <time>2024-09-20T08:07:00Z</time>
      </trkpt>
      <trkpt lat="45.87935" lon="4.8361">
        <ele>171.4</ele>
        <time>2024-09-20T08:07:01Z</time>
      </trkpt>
      <trkpt lat="45.87933" lon="4.83614">
        <ele>171.4</ele>
        <time>2024-09-20T08:07:02Z</time>
      </trkpt>
      <trkpt lat="45.87931" lon="4.83617">
        <ele>171.4</ele>
        <time>2024-09-20T08:07:03Z</time>
      </trkpt>
      <trkpt lat="45.87929" lon="4.83621">
        <ele>171.4</ele>
        <time>2024-09-20T08:07:04Z</time>
      </trkpt>
      <trkpt lat="45.87926" lon="4.83624">
        <ele>171.2</ele>
        <time>2024-09-20T08:07:05Z</time>
      </trkpt>
      <trkpt lat="45.87924" lon="4.83628">
        <ele>171.2</ele>
        <time>2024-09-20T08:07:06Z</time>
      </trkpt>
      <trkpt lat="45.87922" lon="4.83633">
        <ele>171.2</ele>
        <time>2024-09-20T08:07:07Z</time>
      </trkpt>
      <trkpt lat="45.87919" lon="4.83637">
        <ele>171.2</ele>
        <time>2024-09-20T08:07:08Z</time>
      </trkpt>
      <trkpt lat="45.87917" lon="4.83641">
        <ele>171.2</ele>
        <time>2024-09-20T08:07:09Z</time>
      </trkpt>
      <trkpt lat="45.87914" lon="4.83645">
        <ele>171.2</ele>
        <time>2024-09-20T08:07:10Z</time>
      </trkpt>
      <trkpt lat="45.87911" lon="4.83649">
        <ele>171.2</ele>
        <time>2024-09-20T08:07:11Z</time>
      </trkpt>
      <trkpt lat="45.87909" lon="4.83653">
        <ele>171.2</ele>
        <time>2024-09-20T08:07:12Z</time>
      </trkpt>
      <trkpt lat="45.87906" lon="4.83657">
        <ele>171.2</ele>
        <time>2024-09-20T08:07:13Z</time>
      </trkpt>
      <trkpt lat="45.87903" lon="4.8366">
        <ele>171.2</ele>
        <time>2024-09-20T08:07:14Z</time>
      </trkpt>
      <trkpt lat="45.879" lon="4.83664">
        <ele>171.2</ele>
        <time>2024-09-20T08:07:15Z</time>
      </trkpt>
      <trkpt lat="45.87897" lon="4.83668">
        <ele>171.2</ele>
        <time>2024-09-20T08:07:16Z</time>
      </trkpt>
      <trkpt lat="45.87895" lon="4.83672">
        <ele>171</ele>
        <time>2024-09-20T08:07:17Z</time>
      </trkpt>
      <trkpt lat="45.87892" lon="4.83675">
        <ele>171</ele>
        <time>2024-09-20T08:07:18Z</time>
      </trkpt>
      <trkpt lat="45.8789" lon="4.83679">
        <ele>171</ele>
        <time>2024-09-20T08:07:19Z</time>
      </trkpt>
      <trkpt lat="45.87887" lon="4.83683">
        <ele>171</ele>
        <time>2024-09-20T08:07:20Z</time>
      </trkpt>
      <trkpt lat="45.87884" lon="4.83686">
        <ele>171</ele>
        <time>2024-09-20T08:07:21Z</time>
      </trkpt>
      <trkpt lat="45.87882" lon="4.8369">
        <ele>171</ele>
        <time>2024-09-20T08:07:22Z</time>
      </trkpt>
      <trkpt lat="45.87879" lon="4.83693">
        <ele>171</ele>
        <time>2024-09-20T08:07:23Z</time>
      </trkpt>
      <trkpt lat="45.87876" lon="4.83696">
        <ele>171</ele>
        <time>2024-09-20T08:07:24Z</time>
      </trkpt>
      <trkpt lat="45.87874" lon="4.837">
        <ele>171</ele>
        <time>2024-09-20T08:07:25Z</time>
      </trkpt>
      <trkpt lat="45.87872" lon="4.83703">
        <ele>171</ele>
        <time>2024-09-20T08:07:26Z</time>
      </trkpt>
      <trkpt lat="45.8787" lon="4.83705">
        <ele>171</ele>
        <time>2024-09-20T08:07:27Z</time>
      </trkpt>
      <trkpt lat="45.87869" lon="4.83706">
        <ele>171</ele>
        <time>2024-09-20T08:07:28Z</time>
      </trkpt>
      <trkpt lat="45.87867" lon="4.83707">
        <ele>171</ele>
        <time>2024-09-20T08:07:29Z</time>
      </trkpt>
      <trkpt lat="45.87866" lon="4.83709">
        <ele>171</ele>
        <time>2024-09-20T08:07:30Z</time>
      </trkpt>
      <trkpt lat="45.87865" lon="4.83711">
        <ele>170.8</ele>
        <time>2024-09-20T08:07:31Z</time>
      </trkpt>
      <trkpt lat="45.87864" lon="4.83713">
        <ele>170.8</ele>
        <time>2024-09-20T08:07:32Z</time>
      </trkpt>
      <trkpt lat="45.87863" lon="4.83714">
        <ele>170.8</ele>
        <time>2024-09-20T08:07:33Z</time>
      </trkpt>
      <trkpt lat="45.87862" lon="4.83716">
        <ele>171</ele>
        <time>2024-09-20T08:07:34Z</time>
      </trkpt>
      <trkpt lat="45.8786" lon="4.83718">
        <ele>170.8</ele>
        <time>2024-09-20T08:07:35Z</time>
      </trkpt>
      <trkpt lat="45.87858" lon="4.8372">
        <ele>170.8</ele>
        <time>2024-09-20T08:07:36Z</time>
      </trkpt>
      <trkpt lat="45.87855" lon="4.83722">
        <ele>170.8</ele>
        <time>2024-09-20T08:07:37Z</time>
      </trkpt>
      <trkpt lat="45.87853" lon="4.83724">
        <ele>170.8</ele>
        <time>2024-09-20T08:07:38Z</time>
      </trkpt>
      <trkpt lat="45.8785" lon="4.83727">
        <ele>170.8</ele>
        <time>2024-09-20T08:07:39Z</time>
      </trkpt>
      <trkpt lat="45.87847" lon="4.83729">
        <ele>170.8</ele>
        <time>2024-09-20T08:07:40Z</time>
      </trkpt>
      <trkpt lat="45.87844" lon="4.83731">
        <ele>170.6</ele>
        <time>2024-09-20T08:07:41Z</time>
      </trkpt>
      <trkpt lat="45.87842" lon="4.83733">
        <ele>170.6</ele>
        <time>2024-09-20T08:07:42Z</time>
      </trkpt>
      <trkpt lat="45.87839" lon="4.83736">
        <ele>170.6</ele>
        <time>2024-09-20T08:07:43Z</time>
      </trkpt>
      <trkpt lat="45.87836" lon="4.83739">
        <ele>170.6</ele>
        <time>2024-09-20T08:07:44Z</time>
      </trkpt>
      <trkpt lat="45.87833" lon="4.83742">
        <ele>170.6</ele>
        <time>2024-09-20T08:07:45Z</time>
      </trkpt>
      <trkpt lat="45.8783" lon="4.83744">
        <ele>170.6</ele>
        <time>2024-09-20T08:07:46Z</time>
      </trkpt>
      <trkpt lat="45.87827" lon="4.83747">
        <ele>170.6</ele>
        <time>2024-09-20T08:07:47Z</time>
      </trkpt>
      <trkpt lat="45.87824" lon="4.83749">
        <ele>170.6</ele>
        <time>2024-09-20T08:07:48Z</time>
      </trkpt>
      <trkpt lat="45.87821" lon="4.83752">
        <ele>170.6</ele>
        <time>2024-09-20T08:07:49Z</time>
      </trkpt>
      <trkpt lat="45.87818" lon="4.83754">
        <ele>171</ele>
        <time>2024-09-20T08:07:50Z</time>
      </trkpt>
      <trkpt lat="45.87815" lon="4.83756">
        <ele>171</ele>
        <time>2024-09-20T08:07:51Z</time>
      </trkpt>
      <trkpt lat="45.87811" lon="4.83759">
        <ele>171</ele>
        <time>2024-09-20T08:07:52Z</time>
      </trkpt>
      <trkpt lat="45.87808" lon="4.83761">
        <ele>170.8</ele>
        <time>2024-09-20T08:07:53Z</time>
      </trkpt>
      <trkpt lat="45.87805" lon="4.83763">
        <ele>170.8</ele>
        <time>2024-09-20T08:07:54Z</time>
      </trkpt>
      <trkpt lat="45.87802" lon="4.83766">
        <ele>170.6</ele>
        <time>2024-09-20T08:07:55Z</time>
      </trkpt>
      <trkpt lat="45.87798" lon="4.83768">
        <ele>170.6</ele>
        <time>2024-09-20T08:07:56Z</time>
      </trkpt>
      <trkpt lat="45.87795" lon="4.8377">
        <ele>170.4</ele>
        <time>2024-09-20T08:07:57Z</time>
      </trkpt>
      <trkpt lat="45.87791" lon="4.83772">
        <ele>170.4</ele>
        <time>2024-09-20T08:07:58Z</time>
      </trkpt>
      <trkpt lat="45.87788" lon="4.83775">
        <ele>170.4</ele>
        <time>2024-09-20T08:07:59Z</time>
      </trkpt>
      <trkpt lat="45.87784" lon="4.83777">
        <ele>170.4</ele>
        <time>2024-09-20T08:08:00Z</time>
      </trkpt>
      <trkpt lat="45.8778" lon="4.83779">
        <ele>170.4</ele>
        <time>2024-09-20T08:08:01Z</time>
      </trkpt>
      <trkpt lat="45.87777" lon="4.8378">
        <ele>170.6</ele>
        <time>2024-09-20T08:08:02Z</time>
      </trkpt>
      <trkpt lat="45.87773" lon="4.83782">
        <ele>170.6</ele>
        <time>2024-09-20T08:08:03Z</time>
      </trkpt>
      <trkpt lat="45.87769" lon="4.83784">
        <ele>170.6</ele>
        <time>2024-09-20T08:08:04Z</time>
      </trkpt>
      <trkpt lat="45.87766" lon="4.83786">
        <ele>170.6</ele>
        <time>2024-09-20T08:08:05Z</time>
      </trkpt>
      <trkpt lat="45.87761" lon="4.83787">
        <ele>170.6</ele>
        <time>2024-09-20T08:08:06Z</time>
      </trkpt>
      <trkpt lat="45.87757" lon="4.83788">
        <ele>170.6</ele>
        <time>2024-09-20T08:08:07Z</time>
      </trkpt>
      <trkpt lat="45.87753" lon="4.83789">
        <ele>170.6</ele>
        <time>2024-09-20T08:08:08Z</time>
      </trkpt>
      <trkpt lat="45.8775" lon="4.8379">
        <ele>170.6</ele>
        <time>2024-09-20T08:08:09Z</time>
      </trkpt>
      <trkpt lat="45.87746" lon="4.83792">
        <ele>170.6</ele>
        <time>2024-09-20T08:08:10Z</time>
      </trkpt>
      <trkpt lat="45.87742" lon="4.83793">
        <ele>170.6</ele>
        <time>2024-09-20T08:08:11Z</time>
      </trkpt>
      <trkpt lat="45.87738" lon="4.83795">
        <ele>170.4</ele>
        <time>2024-09-20T08:08:12Z</time>
      </trkpt>
      <trkpt lat="45.87734" lon="4.83796">
        <ele>170.4</ele>
        <time>2024-09-20T08:08:13Z</time>
      </trkpt>
      <trkpt lat="45.8773" lon="4.83797">
        <ele>170.4</ele>
        <time>2024-09-20T08:08:14Z</time>
      </trkpt>
      <trkpt lat="45.87727" lon="4.83797">
        <ele>170.2</ele>
        <time>2024-09-20T08:08:15Z</time>
      </trkpt>
      <trkpt lat="45.87724" lon="4.83797">
        <ele>170.2</ele>
        <time>2024-09-20T08:08:16Z</time>
      </trkpt>
      <trkpt lat="45.87722" lon="4.83796">
        <ele>170.2</ele>
        <time>2024-09-20T08:08:17Z</time>
      </trkpt>
      <trkpt lat="45.87719" lon="4.83796">
        <ele>170.2</ele>
        <time>2024-09-20T08:08:18Z</time>
      </trkpt>
      <trkpt lat="45.87716" lon="4.83796">
        <ele>170.2</ele>
        <time>2024-09-20T08:08:19Z</time>
      </trkpt>
      <trkpt lat="45.87713" lon="4.83797">
        <ele>170.2</ele>
        <time>2024-09-20T08:08:20Z</time>
      </trkpt>
      <trkpt lat="45.8771" lon="4.83797">
        <ele>170.4</ele>
        <time>2024-09-20T08:08:21Z</time>
      </trkpt>
      <trkpt lat="45.87707" lon="4.83798">
        <ele>170.2</ele>
        <time>2024-09-20T08:08:22Z</time>
      </trkpt>
      <trkpt lat="45.87704" lon="4.83799">
        <ele>170.2</ele>
        <time>2024-09-20T08:08:23Z</time>
      </trkpt>
      <trkpt lat="45.87702" lon="4.838">
        <ele>170.2</ele>
        <time>2024-09-20T08:08:24Z</time>
      </trkpt>
      <trkpt lat="45.877" lon="4.838">
        <ele>170.2</ele>
        <time>2024-09-20T08:08:25Z</time>
      </trkpt>
      <trkpt lat="45.87697" lon="4.838">
        <ele>170.6</ele>
        <time>2024-09-20T08:08:26Z</time>
      </trkpt>
      <trkpt lat="45.87694" lon="4.83799">
        <ele>170.6</ele>
        <time>2024-09-20T08:08:27Z</time>
      </trkpt>
      <trkpt lat="45.87692" lon="4.83798">
        <ele>170.6</ele>
        <time>2024-09-20T08:08:28Z</time>
      </trkpt>
      <trkpt lat="45.87689" lon="4.83796">
        <ele>170.6</ele>
        <time>2024-09-20T08:08:29Z</time>
      </trkpt>
      <trkpt lat="45.87687" lon="4.83793">
        <ele>170</ele>
        <time>2024-09-20T08:08:30Z</time>
      </trkpt>
      <trkpt lat="45.87684" lon="4.83791">
        <ele>170</ele>
        <time>2024-09-20T08:08:31Z</time>
      </trkpt>
      <trkpt lat="45.87681" lon="4.8379">
        <ele>170</ele>
        <time>2024-09-20T08:08:32Z</time>
      </trkpt>
      <trkpt lat="45.87678" lon="4.83789">
        <ele>169.8</ele>
        <time>2024-09-20T08:08:33Z</time>
      </trkpt>
      <trkpt lat="45.87674" lon="4.83789">
        <ele>169.8</ele>
        <time>2024-09-20T08:08:34Z</time>
      </trkpt>
      <trkpt lat="45.87671" lon="4.83789">
        <ele>169.8</ele>
        <time>2024-09-20T08:08:35Z</time>
      </trkpt>
      <trkpt lat="45.87668" lon="4.83788">
        <ele>169.8</ele>
        <time>2024-09-20T08:08:36Z</time>
      </trkpt>
      <trkpt lat="45.87665" lon="4.83788">
        <ele>169.8</ele>
        <time>2024-09-20T08:08:37Z</time>
      </trkpt>
      <trkpt lat="45.87662" lon="4.83788">
        <ele>169.6</ele>
        <time>2024-09-20T08:08:38Z</time>
      </trkpt>
      <trkpt lat="45.87659" lon="4.83788">
        <ele>169.6</ele>
        <time>2024-09-20T08:08:39Z</time>
      </trkpt>
      <trkpt lat="45.87655" lon="4.83788">
        <ele>169.6</ele>
        <time>2024-09-20T08:08:40Z</time>
      </trkpt>
      <trkpt lat="45.87652" lon="4.83788">
        <ele>169.6</ele>
        <time>2024-09-20T08:08:41Z</time>
      </trkpt>
      <trkpt lat="45.87649" lon="4.83788">
        <ele>169.6</ele>
        <time>2024-09-20T08:08:42Z</time>
      </trkpt>
      <trkpt lat="45.87645" lon="4.83788">
        <ele>169.8</ele>
        <time>2024-09-20T08:08:43Z</time>
      </trkpt>
      <trkpt lat="45.87641" lon="4.83788">
        <ele>169.8</ele>
        <time>2024-09-20T08:08:44Z</time>
      </trkpt>
      <trkpt lat="45.87637" lon="4.83789">
        <ele>169.8</ele>
        <time>2024-09-20T08:08:45Z</time>
      </trkpt>
      <trkpt lat="45.87633" lon="4.83788">
        <ele>169.4</ele>
        <time>2024-09-20T08:08:46Z</time>
      </trkpt>
      <trkpt lat="45.87629" lon="4.83788">
        <ele>169.4</ele>
        <time>2024-09-20T08:08:47Z</time>
      </trkpt>
      <trkpt lat="45.87625" lon="4.83788">
        <ele>169</ele>
        <time>2024-09-20T08:08:48Z</time>
      </trkpt>
      <trkpt lat="45.87621" lon="4.83787">
        <ele>169</ele>
        <time>2024-09-20T08:08:49Z</time>
      </trkpt>
      <trkpt lat="45.87616" lon="4.83786">
        <ele>169</ele>
        <time>2024-09-20T08:08:50Z</time>
      </trkpt>
      <trkpt lat="45.87612" lon="4.83785">
        <ele>169.6</ele>
        <time>2024-09-20T08:08:51Z</time>
      </trkpt>
      <trkpt lat="45.87608" lon="4.83785">
        <ele>169.6</ele>
        <time>2024-09-20T08:08:52Z</time>
      </trkpt>
      <trkpt lat="45.87604" lon="4.83784">
        <ele>169.6</ele>
        <time>2024-09-20T08:08:53Z</time>
      </trkpt>
      <trkpt lat="45.876" lon="4.83783">
        <ele>169.6</ele>
        <time>2024-09-20T08:08:54Z</time>
      </trkpt>
      <trkpt lat="45.87596" lon="4.83783">
        <ele>169.6</ele>
        <time>2024-09-20T08:08:55Z</time>
      </trkpt>
      <trkpt lat="45.87592" lon="4.83782">
        <ele>169.6</ele>
        <time>2024-09-20T08:08:56Z</time>
      </trkpt>
      <trkpt lat="45.87587" lon="4.83782">
        <ele>169.6</ele>
        <time>2024-09-20T08:08:57Z</time>
      </trkpt>
      <trkpt lat="45.87583" lon="4.83781">
        <ele>169.6</ele>
        <time>2024-09-20T08:08:58Z</time>
      </trkpt>
      <trkpt lat="45.87579" lon="4.8378">
        <ele>169.6</ele>
        <time>2024-09-20T08:08:59Z</time>
      </trkpt>
      <trkpt lat="45.87575" lon="4.8378">
        <ele>169.6</ele>
        <time>2024-09-20T08:09:00Z</time>
      </trkpt>
      <trkpt lat="45.87571" lon="4.83781">
        <ele>169.6</ele>
        <time>2024-09-20T08:09:01Z</time>
      </trkpt>
      <trkpt lat="45.87567" lon="4.83782">
        <ele>170</ele>
        <time>2024-09-20T08:09:02Z</time>
      </trkpt>
      <trkpt lat="45.87563" lon="4.83783">
        <ele>170</ele>
        <time>2024-09-20T08:09:03Z</time>
      </trkpt>
      <trkpt lat="45.87559" lon="4.83782">
        <ele>170</ele>
        <time>2024-09-20T08:09:04Z</time>
      </trkpt>
      <trkpt lat="45.87555" lon="4.83782">
        <ele>169.6</ele>
        <time>2024-09-20T08:09:05Z</time>
      </trkpt>
      <trkpt lat="45.87552" lon="4.83781">
        <ele>169.6</ele>
        <time>2024-09-20T08:09:06Z</time>
      </trkpt>
      <trkpt lat="45.87549" lon="4.8378">
        <ele>169.6</ele>
        <time>2024-09-20T08:09:07Z</time>
      </trkpt>
      <trkpt lat="45.87546" lon="4.83779">
        <ele>169.6</ele>
        <time>2024-09-20T08:09:08Z</time>
      </trkpt>
      <trkpt lat="45.87542" lon="4.83778">
        <ele>169.6</ele>
        <time>2024-09-20T08:09:09Z</time>
      </trkpt>
      <trkpt lat="45.87539" lon="4.83778">
        <ele>169.8</ele>
        <time>2024-09-20T08:09:10Z</time>
      </trkpt>
      <trkpt lat="45.87536" lon="4.83777">
        <ele>169.8</ele>
        <time>2024-09-20T08:09:11Z</time>
      </trkpt>
      <trkpt lat="45.87532" lon="4.83776">
        <ele>169.8</ele>
        <time>2024-09-20T08:09:12Z</time>
      </trkpt>
      <trkpt lat="45.87528" lon="4.83775">
        <ele>169.8</ele>
        <time>2024-09-20T08:09:13Z</time>
      </trkpt>
      <trkpt lat="45.87524" lon="4.83774">
        <ele>169.8</ele>
        <time>2024-09-20T08:09:14Z</time>
      </trkpt>
      <trkpt lat="45.87521" lon="4.83773">
        <ele>169.8</ele>
        <time>2024-09-20T08:09:15Z</time>
      </trkpt>
      <trkpt lat="45.87517" lon="4.83773">
        <ele>169.8</ele>
        <time>2024-09-20T08:09:16Z</time>
      </trkpt>
      <trkpt lat="45.87513" lon="4.83772">
        <ele>169.8</ele>
        <time>2024-09-20T08:09:17Z</time>
      </trkpt>
      <trkpt lat="45.87509" lon="4.83772">
        <ele>169.8</ele>
        <time>2024-09-20T08:09:18Z</time>
      </trkpt>
      <trkpt lat="45.87505" lon="4.83771">
        <ele>169.8</ele>
        <time>2024-09-20T08:09:19Z</time>
      </trkpt>
      <trkpt lat="45.87501" lon="4.83771">
        <ele>169.8</ele>
        <time>2024-09-20T08:09:20Z</time>
      </trkpt>
      <trkpt lat="45.87497" lon="4.8377">
        <ele>169.8</ele>
        <time>2024-09-20T08:09:21Z</time>
      </trkpt>
      <trkpt lat="45.87493" lon="4.83769">
        <ele>169.8</ele>
        <time>2024-09-20T08:09:22Z</time>
      </trkpt>
      <trkpt lat="45.8749" lon="4.83769">
        <ele>169.4</ele>
        <time>2024-09-20T08:09:23Z</time>
      </trkpt>
      <trkpt lat="45.87486" lon="4.83768">
        <ele>169.4</ele>
        <time>2024-09-20T08:09:24Z</time>
      </trkpt>
      <trkpt lat="45.87481" lon="4.83768">
        <ele>169.4</ele>
        <time>2024-09-20T08:09:25Z</time>
      </trkpt>
      <trkpt lat="45.87477" lon="4.83769">
        <ele>169.4</ele>
        <time>2024-09-20T08:09:26Z</time>
      </trkpt>
      <trkpt lat="45.87474" lon="4.83768">
        <ele>169.6</ele>
        <time>2024-09-20T08:09:27Z</time>
      </trkpt>
      <trkpt lat="45.8747" lon="4.83767">
        <ele>169.8</ele>
        <time>2024-09-20T08:09:28Z</time>
      </trkpt>
      <trkpt lat="45.87466" lon="4.83766">
        <ele>169.8</ele>
        <time>2024-09-20T08:09:29Z</time>
      </trkpt>
      <trkpt lat="45.87462" lon="4.83765">
        <ele>169.8</ele>
        <time>2024-09-20T08:09:30Z</time>
      </trkpt>
      <trkpt lat="45.87457" lon="4.83765">
        <ele>169.8</ele>
        <time>2024-09-20T08:09:31Z</time>
      </trkpt>
      <trkpt lat="45.87453" lon="4.83764">
        <ele>169.6</ele>
        <time>2024-09-20T08:09:32Z</time>
      </trkpt>
      <trkpt lat="45.87449" lon="4.83763">
        <ele>169.6</ele>
        <time>2024-09-20T08:09:33Z</time>
      </trkpt>
      <trkpt lat="45.87446" lon="4.83763">
        <ele>169.6</ele>
        <time>2024-09-20T08:09:34Z</time>
      </trkpt>
      <trkpt lat="45.87444" lon="4.83763">
        <ele>169.6</ele>
        <time>2024-09-20T08:09:35Z</time>
      </trkpt>
      <trkpt lat="45.87442" lon="4.83762">
        <ele>169.8</ele>
        <time>2024-09-20T08:09:36Z</time>
      </trkpt>
      <trkpt lat="45.8744" lon="4.83762">
        <ele>169.6</ele>
        <time>2024-09-20T08:09:37Z</time>
      </trkpt>
      <trkpt lat="45.87437" lon="4.83761">
        <ele>169.6</ele>
        <time>2024-09-20T08:09:38Z</time>
      </trkpt>
      <trkpt lat="45.87434" lon="4.8376">
        <ele>169.6</ele>
        <time>2024-09-20T08:09:39Z</time>
      </trkpt>
      <trkpt lat="45.87431" lon="4.83759">
        <ele>169.6</ele>
        <time>2024-09-20T08:09:40Z</time>
      </trkpt>
      <trkpt lat="45.87427" lon="4.83758">
        <ele>169.4</ele>
        <time>2024-09-20T08:09:41Z</time>
      </trkpt>
      <trkpt lat="45.87424" lon="4.83758">
        <ele>169.4</ele>
        <time>2024-09-20T08:09:42Z</time>
      </trkpt>
      <trkpt lat="45.87419" lon="4.83758">
        <ele>169.4</ele>
        <time>2024-09-20T08:09:43Z</time>
      </trkpt>
      <trkpt lat="45.87415" lon="4.83758">
        <ele>169.4</ele>
        <time>2024-09-20T08:09:44Z</time>
      </trkpt>
      <trkpt lat="45.87411" lon="4.83758">
        <ele>169.4</ele>
        <time>2024-09-20T08:09:45Z</time>
      </trkpt>
      <trkpt lat="45.87407" lon="4.83758">
        <ele>169.4</ele>
        <time>2024-09-20T08:09:46Z</time>
      </trkpt>
      <trkpt lat="45.87402" lon="4.83758">
        <ele>169.4</ele>
        <time>2024-09-20T08:09:47Z</time>
      </trkpt>
      <trkpt lat="45.87398" lon="4.83757">
        <ele>169.4</ele>
        <time>2024-09-20T08:09:48Z</time>
      </trkpt>
      <trkpt lat="45.87393" lon="4.83756">
        <ele>169.4</ele>
        <time>2024-09-20T08:09:49Z</time>
      </trkpt>
      <trkpt lat="45.87388" lon="4.83755">
        <ele>169.4</ele>
        <time>2024-09-20T08:09:50Z</time>
      </trkpt>
      <trkpt lat="45.87383" lon="4.83754">
        <ele>169.2</ele>
        <time>2024-09-20T08:09:51Z</time>
      </trkpt>
      <trkpt lat="45.87379" lon="4.83753">
        <ele>169.2</ele>
        <time>2024-09-20T08:09:52Z</time>
      </trkpt>
      <trkpt lat="45.87374" lon="4.83751">
        <ele>169.2</ele>
        <time>2024-09-20T08:09:53Z</time>
      </trkpt>
      <trkpt lat="45.87369" lon="4.8375">
        <ele>169.2</ele>
        <time>2024-09-20T08:09:54Z</time>
      </trkpt>
      <trkpt lat="45.87364" lon="4.83748">
        <ele>169.4</ele>
        <time>2024-09-20T08:09:55Z</time>
      </trkpt>
      <trkpt lat="45.8736" lon="4.83747">
        <ele>169.4</ele>
        <time>2024-09-20T08:09:56Z</time>
      </trkpt>
      <trkpt lat="45.87355" lon="4.83747">
        <ele>169.4</ele>
        <time>2024-09-20T08:09:57Z</time>
      </trkpt>
      <trkpt lat="45.8735" lon="4.83746">
        <ele>169.4</ele>
        <time>2024-09-20T08:09:58Z</time>
      </trkpt>
      <trkpt lat="45.87346" lon="4.83746">
        <ele>169.4</ele>
        <time>2024-09-20T08:09:59Z</time>
      </trkpt>
      <trkpt lat="45.87341" lon="4.83745">
        <ele>169.2</ele>
        <time>2024-09-20T08:10:00Z</time>
      </trkpt>
      <trkpt lat="45.87336" lon="4.83745">
        <ele>169.2</ele>
        <time>2024-09-20T08:10:01Z</time>
      </trkpt>
      <trkpt lat="45.87332" lon="4.83744">
        <ele>169.2</ele>
        <time>2024-09-20T08:10:02Z</time>
      </trkpt>
      <trkpt lat="45.87327" lon="4.83744">
        <ele>169.2</ele>
        <time>2024-09-20T08:10:03Z</time>
      </trkpt>
      <trkpt lat="45.87323" lon="4.83743">
        <ele>169.2</ele>
        <time>2024-09-20T08:10:04Z</time>
      </trkpt>
      <trkpt lat="45.87318" lon="4.83742">
        <ele>169.2</ele>
        <time>2024-09-20T08:10:05Z</time>
      </trkpt>
      <trkpt lat="45.87313" lon="4.83741">
        <ele>169.2</ele>
        <time>2024-09-20T08:10:06Z</time>
      </trkpt>
      <trkpt lat="45.87309" lon="4.8374">
        <ele>169.2</ele>
        <time>2024-09-20T08:10:07Z</time>
      </trkpt>
      <trkpt lat="45.87304" lon="4.8374">
        <ele>169.2</ele>
        <time>2024-09-20T08:10:08Z</time>
      </trkpt>
      <trkpt lat="45.873" lon="4.83739">
        <ele>169.2</ele>
        <time>2024-09-20T08:10:09Z</time>
      </trkpt>
      <trkpt lat="45.87295" lon="4.83738">
        <ele>169.2</ele>
        <time>2024-09-20T08:10:10Z</time>
      </trkpt>
      <trkpt lat="45.87291" lon="4.83737">
        <ele>169.4</ele>
        <time>2024-09-20T08:10:11Z</time>
      </trkpt>
      <trkpt lat="45.87286" lon="4.83737">
        <ele>169.4</ele>
        <time>2024-09-20T08:10:12Z</time>
      </trkpt>
      <trkpt lat="45.87282" lon="4.83736">
        <ele>169.4</ele>
        <time>2024-09-20T08:10:13Z</time>
      </trkpt>
      <trkpt lat="45.87277" lon="4.83735">
        <ele>169.4</ele>
        <time>2024-09-20T08:10:14Z</time>
      </trkpt>
      <trkpt lat="45.87273" lon="4.83735">
        <ele>169.4</ele>
        <time>2024-09-20T08:10:15Z</time>
      </trkpt>
      <trkpt lat="45.87268" lon="4.83734">
        <ele>169.2</ele>
        <time>2024-09-20T08:10:16Z</time>
      </trkpt>
      <trkpt lat="45.87263" lon="4.83734">
        <ele>169.4</ele>
        <time>2024-09-20T08:10:17Z</time>
      </trkpt>
      <trkpt lat="45.87259" lon="4.83733">
        <ele>169.4</ele>
        <time>2024-09-20T08:10:18Z</time>
      </trkpt>
      <trkpt lat="45.87254" lon="4.83732">
        <ele>169.4</ele>
        <time>2024-09-20T08:10:19Z</time>
      </trkpt>
      <trkpt lat="45.87249" lon="4.83731">
        <ele>169.4</ele>
        <time>2024-09-20T08:10:20Z</time>
      </trkpt>
      <trkpt lat="45.87245" lon="4.8373">
        <ele>169.6</ele>
        <time>2024-09-20T08:10:21Z</time>
      </trkpt>
      <trkpt lat="45.8724" lon="4.83729">
        <ele>169.6</ele>
        <time>2024-09-20T08:10:22Z</time>
      </trkpt>
      <trkpt lat="45.87236" lon="4.83728">
        <ele>169.6</ele>
        <time>2024-09-20T08:10:23Z</time>
      </trkpt>
      <trkpt lat="45.87231" lon="4.83728">
        <ele>169.2</ele>
        <time>2024-09-20T08:10:24Z</time>
      </trkpt>
      <trkpt lat="45.87226" lon="4.83728">
        <ele>169.2</ele>
        <time>2024-09-20T08:10:25Z</time>
      </trkpt>
      <trkpt lat="45.87221" lon="4.83728">
        <ele>169.2</ele>
        <time>2024-09-20T08:10:26Z</time>
      </trkpt>
      <trkpt lat="45.87217" lon="4.83728">
        <ele>169.4</ele>
        <time>2024-09-20T08:10:27Z</time>
      </trkpt>
      <trkpt lat="45.87213" lon="4.83728">
        <ele>169.4</ele>
        <time>2024-09-20T08:10:28Z</time>
      </trkpt>
      <trkpt lat="45.87209" lon="4.83727">
        <ele>169.4</ele>
        <time>2024-09-20T08:10:29Z</time>
      </trkpt>
      <trkpt lat="45.87204" lon="4.83727">
        <ele>169.6</ele>
        <time>2024-09-20T08:10:30Z</time>
      </trkpt>
      <trkpt lat="45.872" lon="4.83726">
        <ele>169.6</ele>
        <time>2024-09-20T08:10:31Z</time>
      </trkpt>
      <trkpt lat="45.87195" lon="4.83724">
        <ele>169.4</ele>
        <time>2024-09-20T08:10:32Z</time>
      </trkpt>
      <trkpt lat="45.87191" lon="4.83723">
        <ele>169.4</ele>
        <time>2024-09-20T08:10:33Z</time>
      </trkpt>
      <trkpt lat="45.87187" lon="4.83722">
        <ele>169.6</ele>
        <time>2024-09-20T08:10:34Z</time>
      </trkpt>
      <trkpt lat="45.87182" lon="4.83721">
        <ele>169.6</ele>
        <time>2024-09-20T08:10:35Z</time>
      </trkpt>
      <trkpt lat="45.87178" lon="4.8372">
        <ele>169.6</ele>
        <time>2024-09-20T08:10:36Z</time>
      </trkpt>
      <trkpt lat="45.87173" lon="4.83719">
        <ele>169.6</ele>
        <time>2024-09-20T08:10:37Z</time>
      </trkpt>
      <trkpt lat="45.87169" lon="4.83718">
        <ele>169.6</ele>
        <time>2024-09-20T08:10:38Z</time>
      </trkpt>
      <trkpt lat="45.87165" lon="4.83717">
        <ele>169.6</ele>
        <time>2024-09-20T08:10:39Z</time>
      </trkpt>
      <trkpt lat="45.8716" lon="4.83717">
        <ele>169.4</ele>
        <time>2024-09-20T08:10:40Z</time>
      </trkpt>
      <trkpt lat="45.87156" lon="4.83716">
        <ele>169.4</ele>
        <time>2024-09-20T08:10:41Z</time>
      </trkpt>
      <trkpt lat="45.87151" lon="4.83715">
        <ele>169.4</ele>
        <time>2024-09-20T08:10:42Z</time>
      </trkpt>
      <trkpt lat="45.87147" lon="4.83714">
        <ele>169.2</ele>
        <time>2024-09-20T08:10:43Z</time>
      </trkpt>
      <trkpt lat="45.87142" lon="4.83714">
        <ele>169.2</ele>
        <time>2024-09-20T08:10:44Z</time>
      </trkpt>
      <trkpt lat="45.87138" lon="4.83713">
        <ele>169</ele>
        <time>2024-09-20T08:10:45Z</time>
      </trkpt>
      <trkpt lat="45.87133" lon="4.83712">
        <ele>169</ele>
        <time>2024-09-20T08:10:46Z</time>
      </trkpt>
      <trkpt lat="45.87129" lon="4.83712">
        <ele>169</ele>
        <time>2024-09-20T08:10:47Z</time>
      </trkpt>
      <trkpt lat="45.87124" lon="4.83711">
        <ele>169</ele>
        <time>2024-09-20T08:10:48Z</time>
      </trkpt>
      <trkpt lat="45.8712" lon="4.8371">
        <ele>169</ele>
        <time>2024-09-20T08:10:49Z</time>
      </trkpt>
      <trkpt lat="45.87115" lon="4.83709">
        <ele>169</ele>
        <time>2024-09-20T08:10:50Z</time>
      </trkpt>
      <trkpt lat="45.87111" lon="4.83708">
        <ele>169</ele>
        <time>2024-09-20T08:10:51Z</time>
      </trkpt>
      <trkpt lat="45.87106" lon="4.83708">
        <ele>169</ele>
        <time>2024-09-20T08:10:52Z</time>
      </trkpt>
      <trkpt lat="45.87102" lon="4.83707">
        <ele>169</ele>
        <time>2024-09-20T08:10:53Z</time>
      </trkpt>
      <trkpt lat="45.87097" lon="4.83706">
        <ele>168.8</ele>
        <time>2024-09-20T08:10:54Z</time>
      </trkpt>
      <trkpt lat="45.87092" lon="4.83706">
        <ele>168.8</ele>
        <time>2024-09-20T08:10:55Z</time>
      </trkpt>
      <trkpt lat="45.87088" lon="4.83706">
        <ele>168.8</ele>
        <time>2024-09-20T08:10:56Z</time>
      </trkpt>
      <trkpt lat="45.87083" lon="4.83705">
        <ele>168.8</ele>
        <time>2024-09-20T08:10:57Z</time>
      </trkpt>
      <trkpt lat="45.87078" lon="4.83705">
        <ele>168.8</ele>
        <time>2024-09-20T08:10:58Z</time>
      </trkpt>
      <trkpt lat="45.87073" lon="4.83704">
        <ele>168.8</ele>
        <time>2024-09-20T08:10:59Z</time>
      </trkpt>
      <trkpt lat="45.87069" lon="4.83704">
        <ele>168.8</ele>
        <time>2024-09-20T08:11:00Z</time>
      </trkpt>
      <trkpt lat="45.87064" lon="4.83704">
        <ele>168.8</ele>
        <time>2024-09-20T08:11:01Z</time>
      </trkpt>
      <trkpt lat="45.87059" lon="4.83703">
        <ele>168.6</ele>
        <time>2024-09-20T08:11:02Z</time>
      </trkpt>
      <trkpt lat="45.87055" lon="4.83702">
        <ele>168.6</ele>
        <time>2024-09-20T08:11:03Z</time>
      </trkpt>
      <trkpt lat="45.8705" lon="4.83702">
        <ele>168.6</ele>
        <time>2024-09-20T08:11:04Z</time>
      </trkpt>
      <trkpt lat="45.87045" lon="4.83702">
        <ele>168.6</ele>
        <time>2024-09-20T08:11:05Z</time>
      </trkpt>
      <trkpt lat="45.8704" lon="4.83701">
        <ele>168.6</ele>
        <time>2024-09-20T08:11:06Z</time>
      </trkpt>
      <trkpt lat="45.87036" lon="4.83701">
        <ele>168.6</ele>
        <time>2024-09-20T08:11:07Z</time>
      </trkpt>
      <trkpt lat="45.87031" lon="4.83701">
        <ele>168.6</ele>
        <time>2024-09-20T08:11:08Z</time>
      </trkpt>
      <trkpt lat="45.87027" lon="4.83701">
        <ele>168.6</ele>
        <time>2024-09-20T08:11:09Z</time>
      </trkpt>
      <trkpt lat="45.87022" lon="4.837">
        <ele>168.8</ele>
        <time>2024-09-20T08:11:10Z</time>
      </trkpt>
      <trkpt lat="45.87017" lon="4.837">
        <ele>168.8</ele>
        <time>2024-09-20T08:11:11Z</time>
      </trkpt>
      <trkpt lat="45.87013" lon="4.837">
        <ele>168.8</ele>
        <time>2024-09-20T08:11:12Z</time>
      </trkpt>
      <trkpt lat="45.87008" lon="4.837">
        <ele>168.8</ele>
        <time>2024-09-20T08:11:13Z</time>
      </trkpt>
      <trkpt lat="45.87004" lon="4.837">
        <ele>168.8</ele>
        <time>2024-09-20T08:11:14Z</time>
      </trkpt>
      <trkpt lat="45.86999" lon="4.837">
        <ele>168.8</ele>
        <time>2024-09-20T08:11:15Z</time>
      </trkpt>
      <trkpt lat="45.86995" lon="4.837">
        <ele>168.8</ele>
        <time>2024-09-20T08:11:16Z</time>
      </trkpt>
      <trkpt lat="45.8699" lon="4.83701">
        <ele>168.6</ele>
        <time>2024-09-20T08:11:17Z</time>
      </trkpt>
      <trkpt lat="45.86986" lon="4.83701">
        <ele>168.6</ele>
        <time>2024-09-20T08:11:18Z</time>
      </trkpt>
      <trkpt lat="45.86981" lon="4.83702">
        <ele>168.6</ele>
        <time>2024-09-20T08:11:19Z</time>
      </trkpt>
      <trkpt lat="45.86977" lon="4.83702">
        <ele>168.6</ele>
        <time>2024-09-20T08:11:20Z</time>
      </trkpt>
      <trkpt lat="45.86973" lon="4.83702">
        <ele>168.6</ele>
        <time>2024-09-20T08:11:21Z</time>
      </trkpt>
      <trkpt lat="45.86968" lon="4.83701">
        <ele>168.6</ele>
        <time>2024-09-20T08:11:22Z</time>
      </trkpt>
      <trkpt lat="45.86963" lon="4.83701">
        <ele>168.6</ele>
        <time>2024-09-20T08:11:23Z</time>
      </trkpt>
      <trkpt lat="45.86959" lon="4.83701">
        <ele>168.6</ele>
        <time>2024-09-20T08:11:24Z</time>
      </trkpt>
      <trkpt lat="45.86954" lon="4.83701">
        <ele>168.6</ele>
        <time>2024-09-20T08:11:25Z</time>
      </trkpt>
      <trkpt lat="45.8695" lon="4.83702">
        <ele>168.6</ele>
        <time>2024-09-20T08:11:26Z</time>
      </trkpt>
      <trkpt lat="45.86945" lon="4.83703">
        <ele>168.6</ele>
        <time>2024-09-20T08:11:27Z</time>
      </trkpt>
      <trkpt lat="45.86941" lon="4.83703">
        <ele>168.6</ele>
        <time>2024-09-20T08:11:28Z</time>
      </trkpt>
      <trkpt lat="45.86936" lon="4.83704">
        <ele>168.8</ele>
        <time>2024-09-20T08:11:29Z</time>
      </trkpt>
      <trkpt lat="45.86932" lon="4.83705">
        <ele>168.8</ele>
        <time>2024-09-20T08:11:30Z</time>
      </trkpt>
      <trkpt lat="45.86927" lon="4.83706">
        <ele>168.8</ele>
        <time>2024-09-20T08:11:31Z</time>
      </trkpt>
      <trkpt lat="45.86922" lon="4.83707">
        <ele>168.8</ele>
        <time>2024-09-20T08:11:32Z</time>
      </trkpt>
      <trkpt lat="45.86918" lon="4.83709">
        <ele>168.6</ele>
        <time>2024-09-20T08:11:33Z</time>
      </trkpt>
      <trkpt lat="45.86913" lon="4.8371">
        <ele>168.6</ele>
        <time>2024-09-20T08:11:34Z</time>
      </trkpt>
      <trkpt lat="45.86908" lon="4.83711">
        <ele>168.6</ele>
        <time>2024-09-20T08:11:35Z</time>
      </trkpt>
      <trkpt lat="45.86904" lon="4.83711">
        <ele>168.6</ele>
        <time>2024-09-20T08:11:36Z</time>
      </trkpt>
      <trkpt lat="45.86899" lon="4.83713">
        <ele>168.6</ele>
        <time>2024-09-20T08:11:37Z</time>
      </trkpt>
      <trkpt lat="45.86894" lon="4.83714">
        <ele>168.6</ele>
        <time>2024-09-20T08:11:38Z</time>
      </trkpt>
      <trkpt lat="45.86889" lon="4.83715">
        <ele>168.6</ele>
        <time>2024-09-20T08:11:39Z</time>
      </trkpt>
      <trkpt lat="45.86885" lon="4.83717">
        <ele>168.6</ele>
        <time>2024-09-20T08:11:40Z</time>
      </trkpt>
      <trkpt lat="45.8688" lon="4.83718">
        <ele>168.6</ele>
        <time>2024-09-20T08:11:41Z</time>
      </trkpt>
      <trkpt lat="45.86875" lon="4.8372">
        <ele>168.6</ele>
        <time>2024-09-20T08:11:42Z</time>
      </trkpt>
      <trkpt lat="45.86871" lon="4.83722">
        <ele>168.6</ele>
        <time>2024-09-20T08:11:43Z</time>
      </trkpt>
      <trkpt lat="45.86866" lon="4.83725">
        <ele>168.6</ele>
        <time>2024-09-20T08:11:44Z</time>
      </trkpt>
      <trkpt lat="45.86861" lon="4.83728">
        <ele>168.6</ele>
        <time>2024-09-20T08:11:45Z</time>
      </trkpt>
      <trkpt lat="45.86857" lon="4.83731">
        <ele>168.8</ele>
        <time>2024-09-20T08:11:46Z</time>
      </trkpt>
      <trkpt lat="45.86853" lon="4.83734">
        <ele>168.8</ele>
        <time>2024-09-20T08:11:47Z</time>
      </trkpt>
      <trkpt lat="45.86848" lon="4.83737">
        <ele>168.8</ele>
        <time>2024-09-20T08:11:48Z</time>
      </trkpt>
      <trkpt lat="45.86844" lon="4.8374">
        <ele>168.8</ele>
        <time>2024-09-20T08:11:49Z</time>
      </trkpt>
      <trkpt lat="45.86839" lon="4.83743">
        <ele>168.6</ele>
        <time>2024-09-20T08:11:50Z</time>
      </trkpt>
      <trkpt lat="45.86835" lon="4.83746">
        <ele>168.6</ele>
        <time>2024-09-20T08:11:51Z</time>
      </trkpt>
      <trkpt lat="45.86831" lon="4.83749">
        <ele>168.6</ele>
        <time>2024-09-20T08:11:52Z</time>
      </trkpt>
      <trkpt lat="45.86827" lon="4.83752">
        <ele>168.6</ele>
        <time>2024-09-20T08:11:53Z</time>
      </trkpt>
      <trkpt lat="45.86823" lon="4.83755">
        <ele>168.6</ele>
        <time>2024-09-20T08:11:54Z</time>
      </trkpt>
      <trkpt lat="45.86819" lon="4.83758">
        <ele>168.6</ele>
        <time>2024-09-20T08:11:55Z</time>
      </trkpt>
      <trkpt lat="45.86814" lon="4.8376">
        <ele>168.4</ele>
        <time>2024-09-20T08:11:56Z</time>
      </trkpt>
      <trkpt lat="45.8681" lon="4.83763">
        <ele>168.4</ele>
        <time>2024-09-20T08:11:57Z</time>
      </trkpt>
      <trkpt lat="45.86806" lon="4.83766">
        <ele>168.4</ele>
        <time>2024-09-20T08:11:58Z</time>
      </trkpt>
      <trkpt lat="45.86802" lon="4.83769">
        <ele>168.4</ele>
        <time>2024-09-20T08:11:59Z</time>
      </trkpt>
      <trkpt lat="45.86797" lon="4.83771">
        <ele>168.8</ele>
        <time>2024-09-20T08:12:00Z</time>
      </trkpt>
      <trkpt lat="45.86792" lon="4.83774">
        <ele>168.8</ele>
        <time>2024-09-20T08:12:01Z</time>
      </trkpt>
      <trkpt lat="45.86788" lon="4.83777">
        <ele>168.8</ele>
        <time>2024-09-20T08:12:02Z</time>
      </trkpt>
      <trkpt lat="45.86784" lon="4.83779">
        <ele>168.8</ele>
        <time>2024-09-20T08:12:03Z</time>
      </trkpt>
      <trkpt lat="45.86779" lon="4.83782">
        <ele>168.8</ele>
        <time>2024-09-20T08:12:04Z</time>
      </trkpt>
      <trkpt lat="45.86775" lon="4.83785">
        <ele>168.8</ele>
        <time>2024-09-20T08:12:05Z</time>
      </trkpt>
      <trkpt lat="45.86771" lon="4.83789">
        <ele>168.8</ele>
        <time>2024-09-20T08:12:06Z</time>
      </trkpt>
      <trkpt lat="45.86767" lon="4.83792">
        <ele>168.8</ele>
        <time>2024-09-20T08:12:07Z</time>
      </trkpt>
      <trkpt lat="45.86763" lon="4.83796">
        <ele>168.8</ele>
        <time>2024-09-20T08:12:08Z</time>
      </trkpt>
      <trkpt lat="45.86759" lon="4.838">
        <ele>169</ele>
        <time>2024-09-20T08:12:09Z</time>
      </trkpt>
      <trkpt lat="45.86755" lon="4.83804">
        <ele>169</ele>
        <time>2024-09-20T08:12:10Z</time>
      </trkpt>
      <trkpt lat="45.86751" lon="4.83808">
        <ele>169</ele>
        <time>2024-09-20T08:12:11Z</time>
      </trkpt>
      <trkpt lat="45.86747" lon="4.83812">
        <ele>169</ele>
        <time>2024-09-20T08:12:12Z</time>
      </trkpt>
      <trkpt lat="45.86743" lon="4.83816">
        <ele>169</ele>
        <time>2024-09-20T08:12:13Z</time>
      </trkpt>
      <trkpt lat="45.86739" lon="4.8382">
        <ele>169.2</ele>
        <time>2024-09-20T08:12:14Z</time>
      </trkpt>
      <trkpt lat="45.86735" lon="4.83823">
        <ele>169.2</ele>
        <time>2024-09-20T08:12:15Z</time>
      </trkpt>
      <trkpt lat="45.86731" lon="4.83827">
        <ele>169.2</ele>
        <time>2024-09-20T08:12:16Z</time>
      </trkpt>
      <trkpt lat="45.86727" lon="4.8383">
        <ele>169.2</ele>
        <time>2024-09-20T08:12:17Z</time>
      </trkpt>
      <trkpt lat="45.86723" lon="4.83833">
        <ele>169</ele>
        <time>2024-09-20T08:12:18Z</time>
      </trkpt>
      <trkpt lat="45.86719" lon="4.83837">
        <ele>169</ele>
        <time>2024-09-20T08:12:19Z</time>
      </trkpt>
      <trkpt lat="45.86715" lon="4.83841">
        <ele>169</ele>
        <time>2024-09-20T08:12:20Z</time>
      </trkpt>
      <trkpt lat="45.86711" lon="4.83844">
        <ele>169</ele>
        <time>2024-09-20T08:12:21Z</time>
      </trkpt>
      <trkpt lat="45.86707" lon="4.83849">
        <ele>169</ele>
        <time>2024-09-20T08:12:22Z</time>
      </trkpt>
      <trkpt lat="45.86704" lon="4.83853">
        <ele>169</ele>
        <time>2024-09-20T08:12:23Z</time>
      </trkpt>
      <trkpt lat="45.867" lon="4.83857">
        <ele>169</ele>
        <time>2024-09-20T08:12:24Z</time>
      </trkpt>
      <trkpt lat="45.86696" lon="4.83862">
        <ele>169</ele>
        <time>2024-09-20T08:12:25Z</time>
      </trkpt>
      <trkpt lat="45.86693" lon="4.83866">
        <ele>169</ele>
        <time>2024-09-20T08:12:26Z</time>
      </trkpt>
      <trkpt lat="45.86689" lon="4.8387">
        <ele>169</ele>
        <time>2024-09-20T08:12:27Z</time>
      </trkpt>
      <trkpt lat="45.86686" lon="4.83874">
        <ele>169</ele>
        <time>2024-09-20T08:12:28Z</time>
      </trkpt>
      <trkpt lat="45.86682" lon="4.83878">
        <ele>169</ele>
        <time>2024-09-20T08:12:29Z</time>
      </trkpt>
      <trkpt lat="45.86678" lon="4.83883">
        <ele>169.2</ele>
        <time>2024-09-20T08:12:30Z</time>
      </trkpt>
      <trkpt lat="45.86675" lon="4.83887">
        <ele>169.2</ele>
        <time>2024-09-20T08:12:31Z</time>
      </trkpt>
      <trkpt lat="45.86671" lon="4.83891">
        <ele>169</ele>
        <time>2024-09-20T08:12:32Z</time>
      </trkpt>
      <trkpt lat="45.86668" lon="4.83895">
        <ele>169</ele>
        <time>2024-09-20T08:12:33Z</time>
      </trkpt>
      <trkpt lat="45.86665" lon="4.83899">
        <ele>169</ele>
        <time>2024-09-20T08:12:34Z</time>
      </trkpt>
      <trkpt lat="45.86661" lon="4.83903">
        <ele>169</ele>
        <time>2024-09-20T08:12:35Z</time>
      </trkpt>
      <trkpt lat="45.86657" lon="4.83908">
        <ele>169</ele>
        <time>2024-09-20T08:12:36Z</time>
      </trkpt>
      <trkpt lat="45.86653" lon="4.83912">
        <ele>169</ele>
        <time>2024-09-20T08:12:37Z</time>
      </trkpt>
      <trkpt lat="45.8665" lon="4.83916">
        <ele>169</ele>
        <time>2024-09-20T08:12:38Z</time>
      </trkpt>
      <trkpt lat="45.86646" lon="4.8392">
        <ele>169</ele>
        <time>2024-09-20T08:12:39Z</time>
      </trkpt>
      <trkpt lat="45.86643" lon="4.83924">
        <ele>169</ele>
        <time>2024-09-20T08:12:40Z</time>
      </trkpt>
      <trkpt lat="45.86639" lon="4.83928">
        <ele>169</ele>
        <time>2024-09-20T08:12:41Z</time>
      </trkpt>
      <trkpt lat="45.86635" lon="4.83931">
        <ele>169</ele>
        <time>2024-09-20T08:12:42Z</time>
      </trkpt>
      <trkpt lat="45.86632" lon="4.83935">
        <ele>169</ele>
        <time>2024-09-20T08:12:43Z</time>
      </trkpt>
      <trkpt lat="45.86627" lon="4.83939">
        <ele>169</ele>
        <time>2024-09-20T08:12:44Z</time>
      </trkpt>
      <trkpt lat="45.86622" lon="4.83942">
        <ele>169.2</ele>
        <time>2024-09-20T08:12:45Z</time>
      </trkpt>
      <trkpt lat="45.86618" lon="4.83946">
        <ele>169.2</ele>
        <time>2024-09-20T08:12:46Z</time>
      </trkpt>
      <trkpt lat="45.86614" lon="4.83949">
        <ele>169.2</ele>
        <time>2024-09-20T08:12:47Z</time>
      </trkpt>
      <trkpt lat="45.8661" lon="4.83951">
        <ele>169.2</ele>
        <time>2024-09-20T08:12:48Z</time>
      </trkpt>
      <trkpt lat="45.86607" lon="4.83954">
        <ele>169.8</ele>
        <time>2024-09-20T08:12:49Z</time>
      </trkpt>
      <trkpt lat="45.86603" lon="4.83956">
        <ele>169.8</ele>
        <time>2024-09-20T08:12:50Z</time>
      </trkpt>
      <trkpt lat="45.86599" lon="4.83957">
        <ele>170.2</ele>
        <time>2024-09-20T08:12:51Z</time>
      </trkpt>
      <trkpt lat="45.86596" lon="4.83957">
        <ele>170.2</ele>
        <time>2024-09-20T08:12:52Z</time>
      </trkpt>
      <trkpt lat="45.86592" lon="4.83958">
        <ele>170.2</ele>
        <time>2024-09-20T08:12:53Z</time>
      </trkpt>
      <trkpt lat="45.86588" lon="4.83959">
        <ele>170</ele>
        <time>2024-09-20T08:12:54Z</time>
      </trkpt>
      <trkpt lat="45.86584" lon="4.8396">
        <ele>170</ele>
        <time>2024-09-20T08:12:55Z</time>
      </trkpt>
      <trkpt lat="45.8658" lon="4.83962">
        <ele>170</ele>
        <time>2024-09-20T08:12:56Z</time>
      </trkpt>
      <trkpt lat="45.86575" lon="4.83963">
        <ele>170</ele>
        <time>2024-09-20T08:12:57Z</time>
      </trkpt>
      <trkpt lat="45.86571" lon="4.83964">
        <ele>169.8</ele>
        <time>2024-09-20T08:12:58Z</time>
      </trkpt>
      <trkpt lat="45.86566" lon="4.83964">
        <ele>169.8</ele>
        <time>2024-09-20T08:12:59Z</time>
      </trkpt>
      <trkpt lat="45.86562" lon="4.83965">
        <ele>169.8</ele>
        <time>2024-09-20T08:13:00Z</time>
      </trkpt>
      <trkpt lat="45.86557" lon="4.83967">
        <ele>169.8</ele>
        <time>2024-09-20T08:13:01Z</time>
      </trkpt>
      <trkpt lat="45.86553" lon="4.83968">
        <ele>169.8</ele>
        <time>2024-09-20T08:13:02Z</time>
      </trkpt>
      <trkpt lat="45.86549" lon="4.83969">
        <ele>170</ele>
        <time>2024-09-20T08:13:03Z</time>
      </trkpt>
      <trkpt lat="45.86544" lon="4.8397">
        <ele>170</ele>
        <time>2024-09-20T08:13:04Z</time>
      </trkpt>
      <trkpt lat="45.86539" lon="4.83971">
        <ele>170</ele>
        <time>2024-09-20T08:13:05Z</time>
      </trkpt>
      <trkpt lat="45.86535" lon="4.83972">
        <ele>170</ele>
        <time>2024-09-20T08:13:06Z</time>
      </trkpt>
      <trkpt lat="45.8653" lon="4.83974">
        <ele>170</ele>
        <time>2024-09-20T08:13:07Z</time>
      </trkpt>
      <trkpt lat="45.86525" lon="4.83976">
        <ele>169.8</ele>
        <time>2024-09-20T08:13:08Z</time>
      </trkpt>
      <trkpt lat="45.8652" lon="4.83977">
        <ele>169.8</ele>
        <time>2024-09-20T08:13:09Z</time>
      </trkpt>
      <trkpt lat="45.86516" lon="4.83978">
        <ele>169.8</ele>
        <time>2024-09-20T08:13:10Z</time>
      </trkpt>
      <trkpt lat="45.86511" lon="4.8398">
        <ele>169.8</ele>
        <time>2024-09-20T08:13:11Z</time>
      </trkpt>
      <trkpt lat="45.86506" lon="4.83982">
        <ele>169.6</ele>
        <time>2024-09-20T08:13:12Z</time>
      </trkpt>
      <trkpt lat="45.86502" lon="4.83984">
        <ele>169.6</ele>
        <time>2024-09-20T08:13:13Z</time>
      </trkpt>
      <trkpt lat="45.86497" lon="4.83985">
        <ele>169.6</ele>
        <time>2024-09-20T08:13:14Z</time>
      </trkpt>
      <trkpt lat="45.86492" lon="4.83987">
        <ele>169.6</ele>
        <time>2024-09-20T08:13:15Z</time>
      </trkpt>
      <trkpt lat="45.86488" lon="4.83989">
        <ele>169.6</ele>
        <time>2024-09-20T08:13:16Z</time>
      </trkpt>
      <trkpt lat="45.86482" lon="4.8399">
        <ele>169.6</ele>
        <time>2024-09-20T08:13:17Z</time>
      </trkpt>
      <trkpt lat="45.86477" lon="4.83991">
        <ele>169.6</ele>
        <time>2024-09-20T08:13:18Z</time>
      </trkpt>
      <trkpt lat="45.86473" lon="4.83993">
        <ele>169.6</ele>
        <time>2024-09-20T08:13:19Z</time>
      </trkpt>
      <trkpt lat="45.86468" lon="4.83995">
        <ele>169.6</ele>
        <time>2024-09-20T08:13:20Z</time>
      </trkpt>
      <trkpt lat="45.86463" lon="4.83997">
        <ele>169.6</ele>
        <time>2024-09-20T08:13:21Z</time>
      </trkpt>
      <trkpt lat="45.86458" lon="4.83999">
        <ele>169.8</ele>
        <time>2024-09-20T08:13:22Z</time>
      </trkpt>
      <trkpt lat="45.86453" lon="4.84001">
        <ele>169.8</ele>
        <time>2024-09-20T08:13:23Z</time>
      </trkpt>
      <trkpt lat="45.86448" lon="4.84003">
        <ele>169.8</ele>
        <time>2024-09-20T08:13:24Z</time>
      </trkpt>
      <trkpt lat="45.86443" lon="4.84004">
        <ele>169.4</ele>
        <time>2024-09-20T08:13:25Z</time>
      </trkpt>
      <trkpt lat="45.86438" lon="4.84006">
        <ele>169.2</ele>
        <time>2024-09-20T08:13:26Z</time>
      </trkpt>
      <trkpt lat="45.86433" lon="4.84008">
        <ele>169.2</ele>
        <time>2024-09-20T08:13:27Z</time>
      </trkpt>
      <trkpt lat="45.86428" lon="4.8401">
        <ele>169.2</ele>
        <time>2024-09-20T08:13:28Z</time>
      </trkpt>
      <trkpt lat="45.86423" lon="4.84012">
        <ele>169.2</ele>
        <time>2024-09-20T08:13:29Z</time>
      </trkpt>
      <trkpt lat="45.86418" lon="4.84013">
        <ele>169.2</ele>
        <time>2024-09-20T08:13:30Z</time>
      </trkpt>
      <trkpt lat="45.86413" lon="4.84014">
        <ele>169.4</ele>
        <time>2024-09-20T08:13:31Z</time>
      </trkpt>
      <trkpt lat="45.86408" lon="4.84016">
        <ele>169.4</ele>
        <time>2024-09-20T08:13:32Z</time>
      </trkpt>
      <trkpt lat="45.86403" lon="4.84017">
        <ele>169.4</ele>
        <time>2024-09-20T08:13:33Z</time>
      </trkpt>
      <trkpt lat="45.86398" lon="4.84018">
        <ele>169.4</ele>
        <time>2024-09-20T08:13:34Z</time>
      </trkpt>
      <trkpt lat="45.86393" lon="4.8402">
        <ele>169</ele>
        <time>2024-09-20T08:13:35Z</time>
      </trkpt>
      <trkpt lat="45.86388" lon="4.84021">
        <ele>169</ele>
        <time>2024-09-20T08:13:36Z</time>
      </trkpt>
      <trkpt lat="45.86383" lon="4.84022">
        <ele>169</ele>
        <time>2024-09-20T08:13:37Z</time>
      </trkpt>
      <trkpt lat="45.86378" lon="4.84024">
        <ele>170</ele>
        <time>2024-09-20T08:13:38Z</time>
      </trkpt>
      <trkpt lat="45.86373" lon="4.84025">
        <ele>170</ele>
        <time>2024-09-20T08:13:39Z</time>
      </trkpt>
      <trkpt lat="45.86368" lon="4.84026">
        <ele>170</ele>
        <time>2024-09-20T08:13:40Z</time>
      </trkpt>
      <trkpt lat="45.86363" lon="4.84027">
        <ele>170</ele>
        <time>2024-09-20T08:13:41Z</time>
      </trkpt>
      <trkpt lat="45.86358" lon="4.84028">
        <ele>170</ele>
        <time>2024-09-20T08:13:42Z</time>
      </trkpt>
      <trkpt lat="45.86353" lon="4.84029">
        <ele>169.6</ele>
        <time>2024-09-20T08:13:43Z</time>
      </trkpt>
      <trkpt lat="45.86348" lon="4.8403">
        <ele>169.6</ele>
        <time>2024-09-20T08:13:44Z</time>
      </trkpt>
      <trkpt lat="45.86344" lon="4.84032">
        <ele>169.6</ele>
        <time>2024-09-20T08:13:45Z</time>
      </trkpt>
      <trkpt lat="45.86339" lon="4.84033">
        <ele>169.6</ele>
        <time>2024-09-20T08:13:46Z</time>
      </trkpt>
      <trkpt lat="45.86334" lon="4.84034">
        <ele>169.6</ele>
        <time>2024-09-20T08:13:47Z</time>
      </trkpt>
      <trkpt lat="45.86329" lon="4.84035">
        <ele>169.8</ele>
        <time>2024-09-20T08:13:48Z</time>
      </trkpt>
      <trkpt lat="45.86324" lon="4.84037">
        <ele>169.8</ele>
        <time>2024-09-20T08:13:49Z</time>
      </trkpt>
      <trkpt lat="45.86319" lon="4.84038">
        <ele>169.8</ele>
        <time>2024-09-20T08:13:50Z</time>
      </trkpt>
      <trkpt lat="45.86314" lon="4.84039">
        <ele>169.8</ele>
        <time>2024-09-20T08:13:51Z</time>
      </trkpt>
      <trkpt lat="45.86309" lon="4.8404">
        <ele>169.8</ele>
        <time>2024-09-20T08:13:52Z</time>
      </trkpt>
      <trkpt lat="45.86305" lon="4.84041">
        <ele>169.8</ele>
        <time>2024-09-20T08:13:53Z</time>
      </trkpt>
      <trkpt lat="45.863" lon="4.84042">
        <ele>169.8</ele>
        <time>2024-09-20T08:13:54Z</time>
      </trkpt>
      <trkpt lat="45.86295" lon="4.84043">
        <ele>169.8</ele>
        <time>2024-09-20T08:13:55Z</time>
      </trkpt>
      <trkpt lat="45.8629" lon="4.84045">
        <ele>169.8</ele>
        <time>2024-09-20T08:13:56Z</time>
      </trkpt>
      <trkpt lat="45.86286" lon="4.84046">
        <ele>169.8</ele>
        <time>2024-09-20T08:13:57Z</time>
      </trkpt>
      <trkpt lat="45.8628" lon="4.84047">
        <ele>169.4</ele>
        <time>2024-09-20T08:13:58Z</time>
      </trkpt>
      <trkpt lat="45.86275" lon="4.84049">
        <ele>169.4</ele>
        <time>2024-09-20T08:13:59Z</time>
      </trkpt>
      <trkpt lat="45.8627" lon="4.8405">
        <ele>169.4</ele>
        <time>2024-09-20T08:14:00Z</time>
      </trkpt>
      <trkpt lat="45.86265" lon="4.84051">
        <ele>169.4</ele>
        <time>2024-09-20T08:14:01Z</time>
      </trkpt>
      <trkpt lat="45.8626" lon="4.84052">
        <ele>169.4</ele>
        <time>2024-09-20T08:14:02Z</time>
      </trkpt>
      <trkpt lat="45.86255" lon="4.84054">
        <ele>169.4</ele>
        <time>2024-09-20T08:14:03Z</time>
      </trkpt>
      <trkpt lat="45.8625" lon="4.84055">
        <ele>169.4</ele>
        <time>2024-09-20T08:14:04Z</time>
      </trkpt>
      <trkpt lat="45.86245" lon="4.84056">
        <ele>169.4</ele>
        <time>2024-09-20T08:14:05Z</time>
      </trkpt>
      <trkpt lat="45.8624" lon="4.84057">
        <ele>169.4</ele>
        <time>2024-09-20T08:14:06Z</time>
      </trkpt>
      <trkpt lat="45.86235" lon="4.84059">
        <ele>169.4</ele>
        <time>2024-09-20T08:14:07Z</time>
      </trkpt>
      <trkpt lat="45.8623" lon="4.8406">
        <ele>169.4</ele>
        <time>2024-09-20T08:14:08Z</time>
      </trkpt>
      <trkpt lat="45.86226" lon="4.84061">
        <ele>169.4</ele>
        <time>2024-09-20T08:14:09Z</time>
      </trkpt>
      <trkpt lat="45.86221" lon="4.84062">
        <ele>169.4</ele>
        <time>2024-09-20T08:14:10Z</time>
      </trkpt>
      <trkpt lat="45.86216" lon="4.84064">
        <ele>169.4</ele>
        <time>2024-09-20T08:14:11Z</time>
      </trkpt>
      <trkpt lat="45.86211" lon="4.84065">
        <ele>169.4</ele>
        <time>2024-09-20T08:14:12Z</time>
      </trkpt>
      <trkpt lat="45.86206" lon="4.84066">
        <ele>169.4</ele>
        <time>2024-09-20T08:14:13Z</time>
      </trkpt>
      <trkpt lat="45.86202" lon="4.84068">
        <ele>169.6</ele>
        <time>2024-09-20T08:14:14Z</time>
      </trkpt>
      <trkpt lat="45.86197" lon="4.84069">
        <ele>169.6</ele>
        <time>2024-09-20T08:14:15Z</time>
      </trkpt>
      <trkpt lat="45.86192" lon="4.84071">
        <ele>169.6</ele>
        <time>2024-09-20T08:14:16Z</time>
      </trkpt>
      <trkpt lat="45.86187" lon="4.84072">
        <ele>169.6</ele>
        <time>2024-09-20T08:14:17Z</time>
      </trkpt>
      <trkpt lat="45.86182" lon="4.84073">
        <ele>169.6</ele>
        <time>2024-09-20T08:14:18Z</time>
      </trkpt>
      <trkpt lat="45.86177" lon="4.84074">
        <ele>169.6</ele>
        <time>2024-09-20T08:14:19Z</time>
      </trkpt>
      <trkpt lat="45.86172" lon="4.84075">
        <ele>169.6</ele>
        <time>2024-09-20T08:14:20Z</time>
      </trkpt>
      <trkpt lat="45.86167" lon="4.84076">
        <ele>169.6</ele>
        <time>2024-09-20T08:14:21Z</time>
      </trkpt>
      <trkpt lat="45.86162" lon="4.84077">
        <ele>169.6</ele>
        <time>2024-09-20T08:14:22Z</time>
      </trkpt>
      <trkpt lat="45.86157" lon="4.84079">
        <ele>169.4</ele>
        <time>2024-09-20T08:14:23Z</time>
      </trkpt>
      <trkpt lat="45.86152" lon="4.8408">
        <ele>169.4</ele>
        <time>2024-09-20T08:14:24Z</time>
      </trkpt>
      <trkpt lat="45.86147" lon="4.84081">
        <ele>169.4</ele>
        <time>2024-09-20T08:14:25Z</time>
      </trkpt>
      <trkpt lat="45.86142" lon="4.84082">
        <ele>169.4</ele>
        <time>2024-09-20T08:14:26Z</time>
      </trkpt>
      <trkpt lat="45.86137" lon="4.84084">
        <ele>169.4</ele>
        <time>2024-09-20T08:14:27Z</time>
      </trkpt>
      <trkpt lat="45.86132" lon="4.84085">
        <ele>169.4</ele>
        <time>2024-09-20T08:14:28Z</time>
      </trkpt>
      <trkpt lat="45.86127" lon="4.84086">
        <ele>169.4</ele>
        <time>2024-09-20T08:14:29Z</time>
      </trkpt>
      <trkpt lat="45.86121" lon="4.84088">
        <ele>169.2</ele>
        <time>2024-09-20T08:14:30Z</time>
      </trkpt>
      <trkpt lat="45.86116" lon="4.84089">
        <ele>169.2</ele>
        <time>2024-09-20T08:14:31Z</time>
      </trkpt>
      <trkpt lat="45.86111" lon="4.84091">
        <ele>169.2</ele>
        <time>2024-09-20T08:14:32Z</time>
      </trkpt>
      <trkpt lat="45.86106" lon="4.84092">
        <ele>169.8</ele>
        <time>2024-09-20T08:14:33Z</time>
      </trkpt>
      <trkpt lat="45.86101" lon="4.84093">
        <ele>169.8</ele>
        <time>2024-09-20T08:14:34Z</time>
      </trkpt>
      <trkpt lat="45.86096" lon="4.84094">
        <ele>169.8</ele>
        <time>2024-09-20T08:14:35Z</time>
      </trkpt>
      <trkpt lat="45.86091" lon="4.84095">
        <ele>169.8</ele>
        <time>2024-09-20T08:14:36Z</time>
      </trkpt>
      <trkpt lat="45.86085" lon="4.84097">
        <ele>169.4</ele>
        <time>2024-09-20T08:14:37Z</time>
      </trkpt>
      <trkpt lat="45.8608" lon="4.84098">
        <ele>169.4</ele>
        <time>2024-09-20T08:14:38Z</time>
      </trkpt>
      <trkpt lat="45.86075" lon="4.84099">
        <ele>169.4</ele>
        <time>2024-09-20T08:14:39Z</time>
      </trkpt>
      <trkpt lat="45.8607" lon="4.841">
        <ele>169.4</ele>
        <time>2024-09-20T08:14:40Z</time>
      </trkpt>
      <trkpt lat="45.86065" lon="4.84102">
        <ele>169.4</ele>
        <time>2024-09-20T08:14:41Z</time>
      </trkpt>
      <trkpt lat="45.8606" lon="4.84103">
        <ele>169.6</ele>
        <time>2024-09-20T08:14:42Z</time>
      </trkpt>
      <trkpt lat="45.86055" lon="4.84104">
        <ele>169.4</ele>
        <time>2024-09-20T08:14:43Z</time>
      </trkpt>
      <trkpt lat="45.8605" lon="4.84105">
        <ele>169.4</ele>
        <time>2024-09-20T08:14:44Z</time>
      </trkpt>
      <trkpt lat="45.86045" lon="4.84106">
        <ele>169.4</ele>
        <time>2024-09-20T08:14:45Z</time>
      </trkpt>
      <trkpt lat="45.8604" lon="4.84108">
        <ele>169.4</ele>
        <time>2024-09-20T08:14:46Z</time>
      </trkpt>
      <trkpt lat="45.86035" lon="4.84109">
        <ele>169.4</ele>
        <time>2024-09-20T08:14:47Z</time>
      </trkpt>
      <trkpt lat="45.8603" lon="4.84109">
        <ele>169.4</ele>
        <time>2024-09-20T08:14:48Z</time>
      </trkpt>
      <trkpt lat="45.86025" lon="4.8411">
        <ele>169.4</ele>
        <time>2024-09-20T08:14:49Z</time>
      </trkpt>
      <trkpt lat="45.8602" lon="4.84112">
        <ele>169.4</ele>
        <time>2024-09-20T08:14:50Z</time>
      </trkpt>
      <trkpt lat="45.86015" lon="4.84113">
        <ele>169.2</ele>
        <time>2024-09-20T08:14:51Z</time>
      </trkpt>
      <trkpt lat="45.8601" lon="4.84114">
        <ele>169.2</ele>
        <time>2024-09-20T08:14:52Z</time>
      </trkpt>
      <trkpt lat="45.86005" lon="4.84116">
        <ele>169.2</ele>
        <time>2024-09-20T08:14:53Z</time>
      </trkpt>
      <trkpt lat="45.86" lon="4.84117">
        <ele>169.2</ele>
        <time>2024-09-20T08:14:54Z</time>
      </trkpt>
      <trkpt lat="45.85996" lon="4.84118">
        <ele>169.2</ele>
        <time>2024-09-20T08:14:55Z</time>
      </trkpt>
      <trkpt lat="45.85991" lon="4.84119">
        <ele>169.2</ele>
        <time>2024-09-20T08:14:56Z</time>
      </trkpt>
      <trkpt lat="45.85986" lon="4.84121">
        <ele>169.2</ele>
        <time>2024-09-20T08:14:57Z</time>
      </trkpt>
      <trkpt lat="45.85981" lon="4.84122">
        <ele>169.2</ele>
        <time>2024-09-20T08:14:58Z</time>
      </trkpt>
      <trkpt lat="45.85976" lon="4.84123">
        <ele>169.2</ele>
        <time>2024-09-20T08:14:59Z</time>
      </trkpt>
      <trkpt lat="45.85971" lon="4.84124">
        <ele>169.4</ele>
        <time>2024-09-20T08:15:00Z</time>
      </trkpt>
      <trkpt lat="45.85967" lon="4.84125">
        <ele>169.4</ele>
        <time>2024-09-20T08:15:01Z</time>
      </trkpt>
      <trkpt lat="45.85962" lon="4.84126">
        <ele>169.4</ele>
        <time>2024-09-20T08:15:02Z</time>
      </trkpt>
      <trkpt lat="45.85957" lon="4.84127">
        <ele>169.4</ele>
        <time>2024-09-20T08:15:03Z</time>
      </trkpt>
      <trkpt lat="45.85953" lon="4.84128">
        <ele>169</ele>
        <time>2024-09-20T08:15:04Z</time>
      </trkpt>
      <trkpt lat="45.85948" lon="4.84128">
        <ele>169</ele>
        <time>2024-09-20T08:15:05Z</time>
      </trkpt>
      <trkpt lat="45.85943" lon="4.84128">
        <ele>169</ele>
        <time>2024-09-20T08:15:06Z</time>
      </trkpt>
      <trkpt lat="45.85938" lon="4.84129">
        <ele>169</ele>
        <time>2024-09-20T08:15:07Z</time>
      </trkpt>
      <trkpt lat="45.85933" lon="4.84129">
        <ele>169</ele>
        <time>2024-09-20T08:15:08Z</time>
      </trkpt>
      <trkpt lat="45.85928" lon="4.84129">
        <ele>169</ele>
        <time>2024-09-20T08:15:09Z</time>
      </trkpt>
      <trkpt lat="45.85923" lon="4.84129">
        <ele>169</ele>
        <time>2024-09-20T08:15:10Z</time>
      </trkpt>
      <trkpt lat="45.85917" lon="4.84129">
        <ele>169</ele>
        <time>2024-09-20T08:15:11Z</time>
      </trkpt>
      <trkpt lat="45.85912" lon="4.84128">
        <ele>169</ele>
        <time>2024-09-20T08:15:12Z</time>
      </trkpt>
      <trkpt lat="45.85907" lon="4.84128">
        <ele>168.8</ele>
        <time>2024-09-20T08:15:13Z</time>
      </trkpt>
      <trkpt lat="45.85902" lon="4.84127">
        <ele>168.8</ele>
        <time>2024-09-20T08:15:14Z</time>
      </trkpt>
      <trkpt lat="45.85898" lon="4.84126">
        <ele>168.8</ele>
        <time>2024-09-20T08:15:15Z</time>
      </trkpt>
      <trkpt lat="45.85893" lon="4.84125">
        <ele>168.8</ele>
        <time>2024-09-20T08:15:16Z</time>
      </trkpt>
      <trkpt lat="45.85888" lon="4.84124">
        <ele>168.8</ele>
        <time>2024-09-20T08:15:17Z</time>
      </trkpt>
      <trkpt lat="45.85883" lon="4.84123">
        <ele>168.8</ele>
        <time>2024-09-20T08:15:18Z</time>
      </trkpt>
      <trkpt lat="45.85878" lon="4.84122">
        <ele>168.8</ele>
        <time>2024-09-20T08:15:19Z</time>
      </trkpt>
      <trkpt lat="45.85873" lon="4.84121">
        <ele>168.8</ele>
        <time>2024-09-20T08:15:20Z</time>
      </trkpt>
      <trkpt lat="45.85868" lon="4.84119">
        <ele>168.8</ele>
        <time>2024-09-20T08:15:21Z</time>
      </trkpt>
      <trkpt lat="45.85863" lon="4.84117">
        <ele>168.8</ele>
        <time>2024-09-20T08:15:22Z</time>
      </trkpt>
      <trkpt lat="45.85858" lon="4.84116">
        <ele>168.8</ele>
        <time>2024-09-20T08:15:23Z</time>
      </trkpt>
      <trkpt lat="45.85853" lon="4.84113">
        <ele>168.8</ele>
        <time>2024-09-20T08:15:24Z</time>
      </trkpt>
      <trkpt lat="45.85848" lon="4.84111">
        <ele>168.8</ele>
        <time>2024-09-20T08:15:25Z</time>
      </trkpt>
      <trkpt lat="45.85844" lon="4.84109">
        <ele>168.8</ele>
        <time>2024-09-20T08:15:26Z</time>
      </trkpt>
      <trkpt lat="45.85839" lon="4.84107">
        <ele>168.8</ele>
        <time>2024-09-20T08:15:27Z</time>
      </trkpt>
      <trkpt lat="45.85834" lon="4.84104">
        <ele>168.8</ele>
        <time>2024-09-20T08:15:28Z</time>
      </trkpt>
      <trkpt lat="45.8583" lon="4.84102">
        <ele>168.8</ele>
        <time>2024-09-20T08:15:29Z</time>
      </trkpt>
      <trkpt lat="45.85825" lon="4.841">
        <ele>168.6</ele>
        <time>2024-09-20T08:15:30Z</time>
      </trkpt>
      <trkpt lat="45.8582" lon="4.84098">
        <ele>168.6</ele>
        <time>2024-09-20T08:15:31Z</time>
      </trkpt>
      <trkpt lat="45.85816" lon="4.84096">
        <ele>168.8</ele>
        <time>2024-09-20T08:15:32Z</time>
      </trkpt>
      <trkpt lat="45.85811" lon="4.84094">
        <ele>168.8</ele>
        <time>2024-09-20T08:15:33Z</time>
      </trkpt>
      <trkpt lat="45.85806" lon="4.84092">
        <ele>168.8</ele>
        <time>2024-09-20T08:15:34Z</time>
      </trkpt>
      <trkpt lat="45.85802" lon="4.8409">
        <ele>168.6</ele>
        <time>2024-09-20T08:15:35Z</time>
      </trkpt>
      <trkpt lat="45.85797" lon="4.84087">
        <ele>168.8</ele>
        <time>2024-09-20T08:15:36Z</time>
      </trkpt>
      <trkpt lat="45.85792" lon="4.84085">
        <ele>168.8</ele>
        <time>2024-09-20T08:15:37Z</time>
      </trkpt>
      <trkpt lat="45.85787" lon="4.84082">
        <ele>168.8</ele>
        <time>2024-09-20T08:15:38Z</time>
      </trkpt>
      <trkpt lat="45.85783" lon="4.8408">
        <ele>168.8</ele>
        <time>2024-09-20T08:15:39Z</time>
      </trkpt>
      <trkpt lat="45.85778" lon="4.84077">
        <ele>168.8</ele>
        <time>2024-09-20T08:15:40Z</time>
      </trkpt>
      <trkpt lat="45.85773" lon="4.84075">
        <ele>168.6</ele>
        <time>2024-09-20T08:15:41Z</time>
      </trkpt>
      <trkpt lat="45.85768" lon="4.84073">
        <ele>168.6</ele>
        <time>2024-09-20T08:15:42Z</time>
      </trkpt>
      <trkpt lat="45.85763" lon="4.8407">
        <ele>169</ele>
        <time>2024-09-20T08:15:43Z</time>
      </trkpt>
      <trkpt lat="45.85759" lon="4.84068">
        <ele>169</ele>
        <time>2024-09-20T08:15:44Z</time>
      </trkpt>
      <trkpt lat="45.85754" lon="4.84066">
        <ele>169</ele>
        <time>2024-09-20T08:15:45Z</time>
      </trkpt>
      <trkpt lat="45.85749" lon="4.84064">
        <ele>169</ele>
        <time>2024-09-20T08:15:46Z</time>
      </trkpt>
      <trkpt lat="45.85745" lon="4.84062">
        <ele>169</ele>
        <time>2024-09-20T08:15:47Z</time>
      </trkpt>
      <trkpt lat="45.8574" lon="4.84059">
        <ele>168.8</ele>
        <time>2024-09-20T08:15:48Z</time>
      </trkpt>
      <trkpt lat="45.85735" lon="4.84057">
        <ele>169</ele>
        <time>2024-09-20T08:15:49Z</time>
      </trkpt>
      <trkpt lat="45.8573" lon="4.84055">
        <ele>169</ele>
        <time>2024-09-20T08:15:50Z</time>
      </trkpt>
      <trkpt lat="45.85726" lon="4.84053">
        <ele>169</ele>
        <time>2024-09-20T08:15:51Z</time>
      </trkpt>
      <trkpt lat="45.85721" lon="4.8405">
        <ele>168.8</ele>
        <time>2024-09-20T08:15:52Z</time>
      </trkpt>
      <trkpt lat="45.85717" lon="4.84049">
        <ele>169</ele>
        <time>2024-09-20T08:15:53Z</time>
      </trkpt>
      <trkpt lat="45.85713" lon="4.84047">
        <ele>169</ele>
        <time>2024-09-20T08:15:54Z</time>
      </trkpt>
      <trkpt lat="45.85709" lon="4.84045">
        <ele>169</ele>
        <time>2024-09-20T08:15:55Z</time>
      </trkpt>
      <trkpt lat="45.85705" lon="4.84043">
        <ele>169</ele>
        <time>2024-09-20T08:15:56Z</time>
      </trkpt>
      <trkpt lat="45.85701" lon="4.8404">
        <ele>169</ele>
        <time>2024-09-20T08:15:57Z</time>
      </trkpt>
      <trkpt lat="45.85697" lon="4.84038">
        <ele>169</ele>
        <time>2024-09-20T08:15:58Z</time>
      </trkpt>
      <trkpt lat="45.85693" lon="4.84037">
        <ele>169</ele>
        <time>2024-09-20T08:15:59Z</time>
      </trkpt>
      <trkpt lat="45.8569" lon="4.84035">
        <ele>169</ele>
        <time>2024-09-20T08:16:00Z</time>
      </trkpt>
      <trkpt lat="45.85687" lon="4.84034">
        <ele>169.2</ele>
        <time>2024-09-20T08:16:01Z</time>
      </trkpt>
      <trkpt lat="45.85683" lon="4.84033">
        <ele>169.2</ele>
        <time>2024-09-20T08:16:02Z</time>
      </trkpt>
      <trkpt lat="45.8568" lon="4.84031">
        <ele>169.2</ele>
        <time>2024-09-20T08:16:03Z</time>
      </trkpt>
      <trkpt lat="45.85678" lon="4.8403">
        <ele>169.2</ele>
        <time>2024-09-20T08:16:04Z</time>
      </trkpt>
      <trkpt lat="45.85674" lon="4.84029">
        <ele>169.2</ele>
        <time>2024-09-20T08:16:05Z</time>
      </trkpt>
      <trkpt lat="45.85671" lon="4.84028">
        <ele>169.2</ele>
        <time>2024-09-20T08:16:06Z</time>
      </trkpt>
      <trkpt lat="45.85666" lon="4.84026">
        <ele>169.2</ele>
        <time>2024-09-20T08:16:07Z</time>
      </trkpt>
      <trkpt lat="45.85662" lon="4.84024">
        <ele>169.2</ele>
        <time>2024-09-20T08:16:08Z</time>
      </trkpt>
      <trkpt lat="45.85658" lon="4.84022">
        <ele>169.2</ele>
        <time>2024-09-20T08:16:09Z</time>
      </trkpt>
      <trkpt lat="45.85654" lon="4.8402">
        <ele>169.2</ele>
        <time>2024-09-20T08:16:10Z</time>
      </trkpt>
      <trkpt lat="45.8565" lon="4.84017">
        <ele>169.2</ele>
        <time>2024-09-20T08:16:11Z</time>
      </trkpt>
      <trkpt lat="45.85646" lon="4.84015">
        <ele>169.2</ele>
        <time>2024-09-20T08:16:12Z</time>
      </trkpt>
      <trkpt lat="45.85642" lon="4.84013">
        <ele>169.2</ele>
        <time>2024-09-20T08:16:13Z</time>
      </trkpt>
      <trkpt lat="45.85637" lon="4.84011">
        <ele>169.2</ele>
        <time>2024-09-20T08:16:14Z</time>
      </trkpt>
      <trkpt lat="45.85633" lon="4.84009">
        <ele>168.8</ele>
        <time>2024-09-20T08:16:15Z</time>
      </trkpt>
      <trkpt lat="45.85628" lon="4.84007">
        <ele>168.8</ele>
        <time>2024-09-20T08:16:16Z</time>
      </trkpt>
      <trkpt lat="45.85624" lon="4.84005">
        <ele>169</ele>
        <time>2024-09-20T08:16:17Z</time>
      </trkpt>
      <trkpt lat="45.85619" lon="4.84003">
        <ele>169</ele>
        <time>2024-09-20T08:16:18Z</time>
      </trkpt>
      <trkpt lat="45.85615" lon="4.84001">
        <ele>169.4</ele>
        <time>2024-09-20T08:16:19Z</time>
      </trkpt>
      <trkpt lat="45.8561" lon="4.83999">
        <ele>169.4</ele>
        <time>2024-09-20T08:16:20Z</time>
      </trkpt>
      <trkpt lat="45.85606" lon="4.83996">
        <ele>169.4</ele>
        <time>2024-09-20T08:16:21Z</time>
      </trkpt>
      <trkpt lat="45.85602" lon="4.83994">
        <ele>169.4</ele>
        <time>2024-09-20T08:16:22Z</time>
      </trkpt>
      <trkpt lat="45.85597" lon="4.83991">
        <ele>169.4</ele>
        <time>2024-09-20T08:16:23Z</time>
      </trkpt>
      <trkpt lat="45.85593" lon="4.83989">
        <ele>169.6</ele>
        <time>2024-09-20T08:16:24Z</time>
      </trkpt>
      <trkpt lat="45.85588" lon="4.83987">
        <ele>169.6</ele>
        <time>2024-09-20T08:16:25Z</time>
      </trkpt>
      <trkpt lat="45.85584" lon="4.83984">
        <ele>169.6</ele>
        <time>2024-09-20T08:16:26Z</time>
      </trkpt>
      <trkpt lat="45.85579" lon="4.83982">
        <ele>169.6</ele>
        <time>2024-09-20T08:16:27Z</time>
      </trkpt>
      <trkpt lat="45.85574" lon="4.83979">
        <ele>169.2</ele>
        <time>2024-09-20T08:16:28Z</time>
      </trkpt>
      <trkpt lat="45.85569" lon="4.83977">
        <ele>169</ele>
        <time>2024-09-20T08:16:29Z</time>
      </trkpt>
      <trkpt lat="45.85564" lon="4.83975">
        <ele>169</ele>
        <time>2024-09-20T08:16:30Z</time>
      </trkpt>
      <trkpt lat="45.8556" lon="4.83972">
        <ele>169</ele>
        <time>2024-09-20T08:16:31Z</time>
      </trkpt>
      <trkpt lat="45.85555" lon="4.83969">
        <ele>169</ele>
        <time>2024-09-20T08:16:32Z</time>
      </trkpt>
      <trkpt lat="45.85551" lon="4.83967">
        <ele>169</ele>
        <time>2024-09-20T08:16:33Z</time>
      </trkpt>
      <trkpt lat="45.85546" lon="4.83964">
        <ele>169</ele>
        <time>2024-09-20T08:16:34Z</time>
      </trkpt>
      <trkpt lat="45.85541" lon="4.83962">
        <ele>169</ele>
        <time>2024-09-20T08:16:35Z</time>
      </trkpt>
      <trkpt lat="45.85537" lon="4.83959">
        <ele>169</ele>
        <time>2024-09-20T08:16:36Z</time>
      </trkpt>
      <trkpt lat="45.85533" lon="4.83957">
        <ele>168.6</ele>
        <time>2024-09-20T08:16:37Z</time>
      </trkpt>
      <trkpt lat="45.85528" lon="4.83954">
        <ele>169</ele>
        <time>2024-09-20T08:16:38Z</time>
      </trkpt>
      <trkpt lat="45.85524" lon="4.83952">
        <ele>169</ele>
        <time>2024-09-20T08:16:39Z</time>
      </trkpt>
      <trkpt lat="45.85519" lon="4.8395">
        <ele>169</ele>
        <time>2024-09-20T08:16:40Z</time>
      </trkpt>
      <trkpt lat="45.85514" lon="4.83948">
        <ele>169</ele>
        <time>2024-09-20T08:16:41Z</time>
      </trkpt>
      <trkpt lat="45.8551" lon="4.83946">
        <ele>168.8</ele>
        <time>2024-09-20T08:16:42Z</time>
      </trkpt>
      <trkpt lat="45.85505" lon="4.83943">
        <ele>168.8</ele>
        <time>2024-09-20T08:16:43Z</time>
      </trkpt>
      <trkpt lat="45.855" lon="4.83941">
        <ele>168.8</ele>
        <time>2024-09-20T08:16:44Z</time>
      </trkpt>
      <trkpt lat="45.85496" lon="4.83939">
        <ele>168.8</ele>
        <time>2024-09-20T08:16:45Z</time>
      </trkpt>
      <trkpt lat="45.85491" lon="4.83936">
        <ele>169</ele>
        <time>2024-09-20T08:16:46Z</time>
      </trkpt>
      <trkpt lat="45.85486" lon="4.83934">
        <ele>169</ele>
        <time>2024-09-20T08:16:47Z</time>
      </trkpt>
      <trkpt lat="45.85481" lon="4.83931">
        <ele>169</ele>
        <time>2024-09-20T08:16:48Z</time>
      </trkpt>
      <trkpt lat="45.85477" lon="4.83929">
        <ele>169</ele>
        <time>2024-09-20T08:16:49Z</time>
      </trkpt>
      <trkpt lat="45.85472" lon="4.83926">
        <ele>169</ele>
        <time>2024-09-20T08:16:50Z</time>
      </trkpt>
      <trkpt lat="45.85468" lon="4.83923">
        <ele>169.4</ele>
        <time>2024-09-20T08:16:51Z</time>
      </trkpt>
      <trkpt lat="45.85464" lon="4.83921">
        <ele>169.6</ele>
        <time>2024-09-20T08:16:52Z</time>
      </trkpt>
      <trkpt lat="45.85459" lon="4.83918">
        <ele>169.6</ele>
        <time>2024-09-20T08:16:53Z</time>
      </trkpt>
      <trkpt lat="45.85455" lon="4.83915">
        <ele>169.6</ele>
        <time>2024-09-20T08:16:54Z</time>
      </trkpt>
      <trkpt lat="45.8545" lon="4.83913">
        <ele>169.6</ele>
        <time>2024-09-20T08:16:55Z</time>
      </trkpt>
      <trkpt lat="45.85446" lon="4.83911">
        <ele>169.4</ele>
        <time>2024-09-20T08:16:56Z</time>
      </trkpt>
      <trkpt lat="45.85441" lon="4.83908">
        <ele>169.4</ele>
        <time>2024-09-20T08:16:57Z</time>
      </trkpt>
      <trkpt lat="45.85436" lon="4.83907">
        <ele>169.4</ele>
        <time>2024-09-20T08:16:58Z</time>
      </trkpt>
      <trkpt lat="45.85432" lon="4.83905">
        <ele>169.4</ele>
        <time>2024-09-20T08:16:59Z</time>
      </trkpt>
      <trkpt lat="45.85427" lon="4.83903">
        <ele>169.4</ele>
        <time>2024-09-20T08:17:00Z</time>
      </trkpt>
      <trkpt lat="45.85422" lon="4.83901">
        <ele>169.4</ele>
        <time>2024-09-20T08:17:01Z</time>
      </trkpt>
      <trkpt lat="45.85417" lon="4.83899">
        <ele>169.4</ele>
        <time>2024-09-20T08:17:02Z</time>
      </trkpt>
      <trkpt lat="45.85412" lon="4.83897">
        <ele>169.4</ele>
        <time>2024-09-20T08:17:03Z</time>
      </trkpt>
      <trkpt lat="45.85407" lon="4.83894">
        <ele>169.4</ele>
        <time>2024-09-20T08:17:04Z</time>
      </trkpt>
      <trkpt lat="45.85402" lon="4.83892">
        <ele>169.4</ele>
        <time>2024-09-20T08:17:05Z</time>
      </trkpt>
      <trkpt lat="45.85398" lon="4.8389">
        <ele>169.4</ele>
        <time>2024-09-20T08:17:06Z</time>
      </trkpt>
      <trkpt lat="45.85393" lon="4.83888">
        <ele>169.4</ele>
        <time>2024-09-20T08:17:07Z</time>
      </trkpt>
      <trkpt lat="45.85389" lon="4.83885">
        <ele>169.4</ele>
        <time>2024-09-20T08:17:08Z</time>
      </trkpt>
      <trkpt lat="45.85384" lon="4.83883">
        <ele>169.4</ele>
        <time>2024-09-20T08:17:09Z</time>
      </trkpt>
      <trkpt lat="45.85379" lon="4.83881">
        <ele>169.4</ele>
        <time>2024-09-20T08:17:10Z</time>
      </trkpt>
      <trkpt lat="45.85375" lon="4.83878">
        <ele>169.4</ele>
        <time>2024-09-20T08:17:11Z</time>
      </trkpt>
      <trkpt lat="45.8537" lon="4.83875">
        <ele>169.4</ele>
        <time>2024-09-20T08:17:12Z</time>
      </trkpt>
      <trkpt lat="45.85365" lon="4.83873">
        <ele>169.4</ele>
        <time>2024-09-20T08:17:13Z</time>
      </trkpt>
      <trkpt lat="45.8536" lon="4.8387">
        <ele>169.4</ele>
        <time>2024-09-20T08:17:14Z</time>
      </trkpt>
      <trkpt lat="45.85355" lon="4.83868">
        <ele>169.4</ele>
        <time>2024-09-20T08:17:15Z</time>
      </trkpt>
      <trkpt lat="45.8535" lon="4.83866">
        <ele>169.4</ele>
        <time>2024-09-20T08:17:16Z</time>
      </trkpt>
      <trkpt lat="45.85346" lon="4.83864">
        <ele>169.4</ele>
        <time>2024-09-20T08:17:17Z</time>
      </trkpt>
      <trkpt lat="45.85341" lon="4.83862">
        <ele>169.4</ele>
        <time>2024-09-20T08:17:18Z</time>
      </trkpt>
      <trkpt lat="45.85337" lon="4.83859">
        <ele>169.4</ele>
        <time>2024-09-20T08:17:19Z</time>
      </trkpt>
      <trkpt lat="45.85332" lon="4.83857">
        <ele>169.4</ele>
        <time>2024-09-20T08:17:20Z</time>
      </trkpt>
      <trkpt lat="45.85328" lon="4.83854">
        <ele>169.4</ele>
        <time>2024-09-20T08:17:21Z</time>
      </trkpt>
      <trkpt lat="45.85324" lon="4.83852">
        <ele>169.6</ele>
        <time>2024-09-20T08:17:22Z</time>
      </trkpt>
      <trkpt lat="45.85319" lon="4.8385">
        <ele>169.6</ele>
        <time>2024-09-20T08:17:23Z</time>
      </trkpt>
      <trkpt lat="45.85315" lon="4.83849">
        <ele>169.6</ele>
        <time>2024-09-20T08:17:24Z</time>
      </trkpt>
      <trkpt lat="45.85311" lon="4.83846">
        <ele>170</ele>
        <time>2024-09-20T08:17:25Z</time>
      </trkpt>
      <trkpt lat="45.85307" lon="4.83845">
        <ele>170</ele>
        <time>2024-09-20T08:17:26Z</time>
      </trkpt>
      <trkpt lat="45.85303" lon="4.83843">
        <ele>170</ele>
        <time>2024-09-20T08:17:27Z</time>
      </trkpt>
      <trkpt lat="45.85299" lon="4.83841">
        <ele>170</ele>
        <time>2024-09-20T08:17:28Z</time>
      </trkpt>
      <trkpt lat="45.85294" lon="4.83839">
        <ele>170</ele>
        <time>2024-09-20T08:17:29Z</time>
      </trkpt>
      <trkpt lat="45.8529" lon="4.83838">
        <ele>170</ele>
        <time>2024-09-20T08:17:30Z</time>
      </trkpt>
      <trkpt lat="45.85287" lon="4.83838">
        <ele>170</ele>
        <time>2024-09-20T08:17:31Z</time>
      </trkpt>
      <trkpt lat="45.85283" lon="4.83837">
        <ele>170</ele>
        <time>2024-09-20T08:17:32Z</time>
      </trkpt>
      <trkpt lat="45.85279" lon="4.83836">
        <ele>170</ele>
        <time>2024-09-20T08:17:33Z</time>
      </trkpt>
      <trkpt lat="45.85274" lon="4.83835">
        <ele>170</ele>
        <time>2024-09-20T08:17:34Z</time>
      </trkpt>
      <trkpt lat="45.8527" lon="4.83834">
        <ele>169.8</ele>
        <time>2024-09-20T08:17:35Z</time>
      </trkpt>
      <trkpt lat="45.85266" lon="4.83833">
        <ele>169.4</ele>
        <time>2024-09-20T08:17:36Z</time>
      </trkpt>
      <trkpt lat="45.85262" lon="4.83832">
        <ele>169.4</ele>
        <time>2024-09-20T08:17:37Z</time>
      </trkpt>
      <trkpt lat="45.85258" lon="4.83831">
        <ele>169.4</ele>
        <time>2024-09-20T08:17:38Z</time>
      </trkpt>
      <trkpt lat="45.85253" lon="4.83829">
        <ele>169.4</ele>
        <time>2024-09-20T08:17:39Z</time>
      </trkpt>
      <trkpt lat="45.85249" lon="4.83828">
        <ele>169.6</ele>
        <time>2024-09-20T08:17:40Z</time>
      </trkpt>
      <trkpt lat="45.85244" lon="4.83827">
        <ele>169.8</ele>
        <time>2024-09-20T08:17:41Z</time>
      </trkpt>
      <trkpt lat="45.8524" lon="4.83826">
        <ele>169.8</ele>
        <time>2024-09-20T08:17:42Z</time>
      </trkpt>
      <trkpt lat="45.85235" lon="4.83825">
        <ele>169.8</ele>
        <time>2024-09-20T08:17:43Z</time>
      </trkpt>
      <trkpt lat="45.85231" lon="4.83824">
        <ele>169.8</ele>
        <time>2024-09-20T08:17:44Z</time>
      </trkpt>
      <trkpt lat="45.85226" lon="4.83823">
        <ele>169.8</ele>
        <time>2024-09-20T08:17:45Z</time>
      </trkpt>
      <trkpt lat="45.85221" lon="4.83822">
        <ele>169.8</ele>
        <time>2024-09-20T08:17:46Z</time>
      </trkpt>
      <trkpt lat="45.85216" lon="4.83821">
        <ele>169.8</ele>
        <time>2024-09-20T08:17:47Z</time>
      </trkpt>
      <trkpt lat="45.85212" lon="4.83819">
        <ele>169.8</ele>
        <time>2024-09-20T08:17:48Z</time>
      </trkpt>
      <trkpt lat="45.85207" lon="4.83818">
        <ele>169.6</ele>
        <time>2024-09-20T08:17:49Z</time>
      </trkpt>
      <trkpt lat="45.85203" lon="4.83817">
        <ele>169.6</ele>
        <time>2024-09-20T08:17:50Z</time>
      </trkpt>
      <trkpt lat="45.85198" lon="4.83815">
        <ele>169.6</ele>
        <time>2024-09-20T08:17:51Z</time>
      </trkpt>
      <trkpt lat="45.85193" lon="4.83814">
        <ele>169.6</ele>
        <time>2024-09-20T08:17:52Z</time>
      </trkpt>
      <trkpt lat="45.85189" lon="4.83813">
        <ele>169.6</ele>
        <time>2024-09-20T08:17:53Z</time>
      </trkpt>
      <trkpt lat="45.85184" lon="4.83812">
        <ele>169.6</ele>
        <time>2024-09-20T08:17:54Z</time>
      </trkpt>
      <trkpt lat="45.85179" lon="4.8381">
        <ele>169.6</ele>
        <time>2024-09-20T08:17:55Z</time>
      </trkpt>
      <trkpt lat="45.85175" lon="4.83809">
        <ele>169.6</ele>
        <time>2024-09-20T08:17:56Z</time>
      </trkpt>
      <trkpt lat="45.8517" lon="4.83808">
        <ele>169.8</ele>
        <time>2024-09-20T08:17:57Z</time>
      </trkpt>
      <trkpt lat="45.85165" lon="4.83806">
        <ele>169.8</ele>
        <time>2024-09-20T08:17:58Z</time>
      </trkpt>
      <trkpt lat="45.8516" lon="4.83805">
        <ele>169.8</ele>
        <time>2024-09-20T08:17:59Z</time>
      </trkpt>
      <trkpt lat="45.85156" lon="4.83804">
        <ele>169.8</ele>
        <time>2024-09-20T08:18:00Z</time>
      </trkpt>
      <trkpt lat="45.85151" lon="4.83802">
        <ele>169.8</ele>
        <time>2024-09-20T08:18:01Z</time>
      </trkpt>
      <trkpt lat="45.85146" lon="4.838">
        <ele>169.8</ele>
        <time>2024-09-20T08:18:02Z</time>
      </trkpt>
      <trkpt lat="45.85141" lon="4.83799">
        <ele>169.8</ele>
        <time>2024-09-20T08:18:03Z</time>
      </trkpt>
      <trkpt lat="45.85137" lon="4.83799">
        <ele>169.8</ele>
        <time>2024-09-20T08:18:04Z</time>
      </trkpt>
      <trkpt lat="45.85132" lon="4.83798">
        <ele>169.8</ele>
        <time>2024-09-20T08:18:05Z</time>
      </trkpt>
      <trkpt lat="45.85127" lon="4.83796">
        <ele>169.6</ele>
        <time>2024-09-20T08:18:06Z</time>
      </trkpt>
      <trkpt lat="45.85123" lon="4.83795">
        <ele>169.6</ele>
        <time>2024-09-20T08:18:07Z</time>
      </trkpt>
      <trkpt lat="45.85118" lon="4.83793">
        <ele>169.6</ele>
        <time>2024-09-20T08:18:08Z</time>
      </trkpt>
      <trkpt lat="45.85113" lon="4.83792">
        <ele>169.6</ele>
        <time>2024-09-20T08:18:09Z</time>
      </trkpt>
      <trkpt lat="45.85108" lon="4.83791">
        <ele>169.6</ele>
        <time>2024-09-20T08:18:10Z</time>
      </trkpt>
      <trkpt lat="45.85103" lon="4.8379">
        <ele>169.6</ele>
        <time>2024-09-20T08:18:11Z</time>
      </trkpt>
      <trkpt lat="45.85099" lon="4.83788">
        <ele>169.6</ele>
        <time>2024-09-20T08:18:12Z</time>
      </trkpt>
      <trkpt lat="45.85094" lon="4.83787">
        <ele>169.6</ele>
        <time>2024-09-20T08:18:13Z</time>
      </trkpt>
      <trkpt lat="45.85089" lon="4.83785">
        <ele>169.6</ele>
        <time>2024-09-20T08:18:14Z</time>
      </trkpt>
      <trkpt lat="45.85085" lon="4.83784">
        <ele>169.6</ele>
        <time>2024-09-20T08:18:15Z</time>
      </trkpt>
      <trkpt lat="45.8508" lon="4.83782">
        <ele>169.6</ele>
        <time>2024-09-20T08:18:16Z</time>
      </trkpt>
      <trkpt lat="45.85075" lon="4.83781">
        <ele>169.6</ele>
        <time>2024-09-20T08:18:17Z</time>
      </trkpt>
      <trkpt lat="45.8507" lon="4.8378">
        <ele>169.6</ele>
        <time>2024-09-20T08:18:18Z</time>
      </trkpt>
      <trkpt lat="45.85066" lon="4.83779">
        <ele>169.6</ele>
        <time>2024-09-20T08:18:19Z</time>
      </trkpt>
      <trkpt lat="45.85061" lon="4.83777">
        <ele>169.6</ele>
        <time>2024-09-20T08:18:20Z</time>
      </trkpt>
      <trkpt lat="45.85057" lon="4.83776">
        <ele>169.6</ele>
        <time>2024-09-20T08:18:21Z</time>
      </trkpt>
      <trkpt lat="45.85052" lon="4.83774">
        <ele>169.4</ele>
        <time>2024-09-20T08:18:22Z</time>
      </trkpt>
      <trkpt lat="45.85048" lon="4.83772">
        <ele>169.4</ele>
        <time>2024-09-20T08:18:23Z</time>
      </trkpt>
      <trkpt lat="45.85043" lon="4.83769">
        <ele>169.4</ele>
        <time>2024-09-20T08:18:24Z</time>
      </trkpt>
      <trkpt lat="45.85038" lon="4.83767">
        <ele>169.4</ele>
        <time>2024-09-20T08:18:25Z</time>
      </trkpt>
      <trkpt lat="45.85034" lon="4.83766">
        <ele>169.4</ele>
        <time>2024-09-20T08:18:26Z</time>
      </trkpt>
      <trkpt lat="45.85029" lon="4.83764">
        <ele>169.4</ele>
        <time>2024-09-20T08:18:27Z</time>
      </trkpt>
      <trkpt lat="45.85025" lon="4.83763">
        <ele>169.4</ele>
        <time>2024-09-20T08:18:28Z</time>
      </trkpt>
      <trkpt lat="45.8502" lon="4.83761">
        <ele>169.6</ele>
        <time>2024-09-20T08:18:29Z</time>
      </trkpt>
      <trkpt lat="45.85016" lon="4.83759">
        <ele>169.6</ele>
        <time>2024-09-20T08:18:30Z</time>
      </trkpt>
      <trkpt lat="45.85011" lon="4.83757">
        <ele>169.6</ele>
        <time>2024-09-20T08:18:31Z</time>
      </trkpt>
      <trkpt lat="45.85007" lon="4.83755">
        <ele>169.6</ele>
        <time>2024-09-20T08:18:32Z</time>
      </trkpt>
      <trkpt lat="45.85002" lon="4.83753">
        <ele>169.6</ele>
        <time>2024-09-20T08:18:33Z</time>
      </trkpt>
      <trkpt lat="45.84998" lon="4.8375">
        <ele>169.6</ele>
        <time>2024-09-20T08:18:34Z</time>
      </trkpt>
      <trkpt lat="45.84994" lon="4.83748">
        <ele>169.6</ele>
        <time>2024-09-20T08:18:35Z</time>
      </trkpt>
      <trkpt lat="45.8499" lon="4.83744">
        <ele>169.6</ele>
        <time>2024-09-20T08:18:36Z</time>
      </trkpt>
      <trkpt lat="45.84986" lon="4.83739">
        <ele>169.6</ele>
        <time>2024-09-20T08:18:37Z</time>
      </trkpt>
      <trkpt lat="45.84983" lon="4.83734">
        <ele>169.4</ele>
        <time>2024-09-20T08:18:38Z</time>
      </trkpt>
      <trkpt lat="45.84979" lon="4.83729">
        <ele>169.4</ele>
        <time>2024-09-20T08:18:39Z</time>
      </trkpt>
      <trkpt lat="45.84975" lon="4.83727">
        <ele>169.4</ele>
        <time>2024-09-20T08:18:40Z</time>
      </trkpt>
      <trkpt lat="45.8497" lon="4.83725">
        <ele>169.4</ele>
        <time>2024-09-20T08:18:41Z</time>
      </trkpt>
      <trkpt lat="45.84966" lon="4.83726">
        <ele>169.6</ele>
        <time>2024-09-20T08:18:42Z</time>
      </trkpt>
      <trkpt lat="45.84962" lon="4.83728">
        <ele>169.8</ele>
        <time>2024-09-20T08:18:43Z</time>
      </trkpt>
      <trkpt lat="45.84958" lon="4.8373">
        <ele>169.8</ele>
        <time>2024-09-20T08:18:44Z</time>
      </trkpt>
      <trkpt lat="45.84954" lon="4.83731">
        <ele>169.8</ele>
        <time>2024-09-20T08:18:45Z</time>
      </trkpt>
      <trkpt lat="45.8495" lon="4.8373">
        <ele>169.8</ele>
        <time>2024-09-20T08:18:46Z</time>
      </trkpt>
      <trkpt lat="45.84946" lon="4.83729">
        <ele>170</ele>
        <time>2024-09-20T08:18:47Z</time>
      </trkpt>
      <trkpt lat="45.84942" lon="4.83727">
        <ele>170</ele>
        <time>2024-09-20T08:18:48Z</time>
      </trkpt>
      <trkpt lat="45.84938" lon="4.83725">
        <ele>170</ele>
        <time>2024-09-20T08:18:49Z</time>
      </trkpt>
      <trkpt lat="45.84934" lon="4.83723">
        <ele>170</ele>
        <time>2024-09-20T08:18:50Z</time>
      </trkpt>
      <trkpt lat="45.8493" lon="4.83722">
        <ele>169.8</ele>
        <time>2024-09-20T08:18:51Z</time>
      </trkpt>
      <trkpt lat="45.84925" lon="4.83719">
        <ele>169.8</ele>
        <time>2024-09-20T08:18:52Z</time>
      </trkpt>
      <trkpt lat="45.84921" lon="4.83717">
        <ele>169.8</ele>
        <time>2024-09-20T08:18:53Z</time>
      </trkpt>
      <trkpt lat="45.84916" lon="4.83715">
        <ele>169.8</ele>
        <time>2024-09-20T08:18:54Z</time>
      </trkpt>
      <trkpt lat="45.84911" lon="4.83713">
        <ele>169.6</ele>
        <time>2024-09-20T08:18:55Z</time>
      </trkpt>
      <trkpt lat="45.84907" lon="4.8371">
        <ele>169.6</ele>
        <time>2024-09-20T08:18:56Z</time>
      </trkpt>
      <trkpt lat="45.84903" lon="4.83708">
        <ele>169.6</ele>
        <time>2024-09-20T08:18:57Z</time>
      </trkpt>
      <trkpt lat="45.84898" lon="4.83706">
        <ele>169.6</ele>
        <time>2024-09-20T08:18:58Z</time>
      </trkpt>
      <trkpt lat="45.84894" lon="4.83703">
        <ele>169.6</ele>
        <time>2024-09-20T08:18:59Z</time>
      </trkpt>
      <trkpt lat="45.84889" lon="4.83701">
        <ele>169.6</ele>
        <time>2024-09-20T08:19:00Z</time>
      </trkpt>
      <trkpt lat="45.84884" lon="4.83699">
        <ele>169.8</ele>
        <time>2024-09-20T08:19:01Z</time>
      </trkpt>
      <trkpt lat="45.8488" lon="4.83696">
        <ele>169.8</ele>
        <time>2024-09-20T08:19:02Z</time>
      </trkpt>
      <trkpt lat="45.84875" lon="4.83693">
        <ele>169.8</ele>
        <time>2024-09-20T08:19:03Z</time>
      </trkpt>
      <trkpt lat="45.84871" lon="4.83691">
        <ele>169.6</ele>
        <time>2024-09-20T08:19:04Z</time>
      </trkpt>
      <trkpt lat="45.84866" lon="4.83688">
        <ele>169.6</ele>
        <time>2024-09-20T08:19:05Z</time>
      </trkpt>
      <trkpt lat="45.84861" lon="4.83685">
        <ele>169.6</ele>
        <time>2024-09-20T08:19:06Z</time>
      </trkpt>
      <trkpt lat="45.84857" lon="4.83683">
        <ele>169.6</ele>
        <time>2024-09-20T08:19:07Z</time>
      </trkpt>
      <trkpt lat="45.84852" lon="4.8368">
        <ele>169.6</ele>
        <time>2024-09-20T08:19:08Z</time>
      </trkpt>
      <trkpt lat="45.84847" lon="4.83678">
        <ele>169.6</ele>
        <time>2024-09-20T08:19:09Z</time>
      </trkpt>
      <trkpt lat="45.84842" lon="4.83675">
        <ele>169.4</ele>
        <time>2024-09-20T08:19:10Z</time>
      </trkpt>
      <trkpt lat="45.84838" lon="4.83672">
        <ele>169.4</ele>
        <time>2024-09-20T08:19:11Z</time>
      </trkpt>
      <trkpt lat="45.84833" lon="4.8367">
        <ele>169.4</ele>
        <time>2024-09-20T08:19:12Z</time>
      </trkpt>
      <trkpt lat="45.84828" lon="4.83668">
        <ele>169.4</ele>
        <time>2024-09-20T08:19:13Z</time>
      </trkpt>
      <trkpt lat="45.84823" lon="4.83665">
        <ele>169.4</ele>
        <time>2024-09-20T08:19:14Z</time>
      </trkpt>
      <trkpt lat="45.84818" lon="4.83663">
        <ele>169.2</ele>
        <time>2024-09-20T08:19:15Z</time>
      </trkpt>
      <trkpt lat="45.84813" lon="4.8366">
        <ele>169.2</ele>
        <time>2024-09-20T08:19:16Z</time>
      </trkpt>
      <trkpt lat="45.84808" lon="4.83657">
        <ele>169.2</ele>
        <time>2024-09-20T08:19:17Z</time>
      </trkpt>
      <trkpt lat="45.84803" lon="4.83655">
        <ele>169.2</ele>
        <time>2024-09-20T08:19:18Z</time>
      </trkpt>
      <trkpt lat="45.84799" lon="4.83653">
        <ele>169</ele>
        <time>2024-09-20T08:19:19Z</time>
      </trkpt>
      <trkpt lat="45.84794" lon="4.8365">
        <ele>169</ele>
        <time>2024-09-20T08:19:20Z</time>
      </trkpt>
      <trkpt lat="45.84789" lon="4.83648">
        <ele>169</ele>
        <time>2024-09-20T08:19:21Z</time>
      </trkpt>
      <trkpt lat="45.84784" lon="4.83645">
        <ele>169</ele>
        <time>2024-09-20T08:19:22Z</time>
      </trkpt>
      <trkpt lat="45.84779" lon="4.83642">
        <ele>169</ele>
        <time>2024-09-20T08:19:23Z</time>
      </trkpt>
      <trkpt lat="45.84774" lon="4.83639">
        <ele>169</ele>
        <time>2024-09-20T08:19:24Z</time>
      </trkpt>
      <trkpt lat="45.84769" lon="4.83637">
        <ele>169</ele>
        <time>2024-09-20T08:19:25Z</time>
      </trkpt>
      <trkpt lat="45.84764" lon="4.83634">
        <ele>169</ele>
        <time>2024-09-20T08:19:26Z</time>
      </trkpt>
      <trkpt lat="45.84759" lon="4.83631">
        <ele>169</ele>
        <time>2024-09-20T08:19:27Z</time>
      </trkpt>
      <trkpt lat="45.84754" lon="4.83629">
        <ele>168.8</ele>
        <time>2024-09-20T08:19:28Z</time>
      </trkpt>
      <trkpt lat="45.84749" lon="4.83627">
        <ele>168.8</ele>
        <time>2024-09-20T08:19:29Z</time>
      </trkpt>
      <trkpt lat="45.84745" lon="4.83624">
        <ele>168.8</ele>
        <time>2024-09-20T08:19:30Z</time>
      </trkpt>
      <trkpt lat="45.8474" lon="4.83622">
        <ele>168.8</ele>
        <time>2024-09-20T08:19:31Z</time>
      </trkpt>
      <trkpt lat="45.84735" lon="4.83619">
        <ele>169</ele>
        <time>2024-09-20T08:19:32Z</time>
      </trkpt>
      <trkpt lat="45.8473" lon="4.83617">
        <ele>169</ele>
        <time>2024-09-20T08:19:33Z</time>
      </trkpt>
      <trkpt lat="45.84726" lon="4.83615">
        <ele>169</ele>
        <time>2024-09-20T08:19:34Z</time>
      </trkpt>
      <trkpt lat="45.84721" lon="4.83612">
        <ele>168.8</ele>
        <time>2024-09-20T08:19:35Z</time>
      </trkpt>
      <trkpt lat="45.84717" lon="4.83609">
        <ele>168.8</ele>
        <time>2024-09-20T08:19:36Z</time>
      </trkpt>
      <trkpt lat="45.84712" lon="4.83607">
        <ele>168.8</ele>
        <time>2024-09-20T08:19:37Z</time>
      </trkpt>
      <trkpt lat="45.84707" lon="4.83604">
        <ele>168.8</ele>
        <time>2024-09-20T08:19:38Z</time>
      </trkpt>
      <trkpt lat="45.84703" lon="4.83602">
        <ele>168.8</ele>
        <time>2024-09-20T08:19:39Z</time>
      </trkpt>
      <trkpt lat="45.84698" lon="4.836">
        <ele>168.8</ele>
        <time>2024-09-20T08:19:40Z</time>
      </trkpt>
      <trkpt lat="45.84694" lon="4.83597">
        <ele>168.8</ele>
        <time>2024-09-20T08:19:41Z</time>
      </trkpt>
      <trkpt lat="45.8469" lon="4.83595">
        <ele>169</ele>
        <time>2024-09-20T08:19:42Z</time>
      </trkpt>
      <trkpt lat="45.84686" lon="4.83593">
        <ele>169</ele>
        <time>2024-09-20T08:19:43Z</time>
      </trkpt>
      <trkpt lat="45.84681" lon="4.83591">
        <ele>169</ele>
        <time>2024-09-20T08:19:44Z</time>
      </trkpt>
      <trkpt lat="45.84677" lon="4.83588">
        <ele>169</ele>
        <time>2024-09-20T08:19:45Z</time>
      </trkpt>
      <trkpt lat="45.84673" lon="4.83586">
        <ele>169</ele>
        <time>2024-09-20T08:19:46Z</time>
      </trkpt>
      <trkpt lat="45.84669" lon="4.83584">
        <ele>169</ele>
        <time>2024-09-20T08:19:47Z</time>
      </trkpt>
      <trkpt lat="45.84664" lon="4.83582">
        <ele>169</ele>
        <time>2024-09-20T08:19:48Z</time>
      </trkpt>
      <trkpt lat="45.8466" lon="4.8358">
        <ele>169</ele>
        <time>2024-09-20T08:19:49Z</time>
      </trkpt>
      <trkpt lat="45.84656" lon="4.83578">
        <ele>169.2</ele>
        <time>2024-09-20T08:19:50Z</time>
      </trkpt>
      <trkpt lat="45.84652" lon="4.83576">
        <ele>169.2</ele>
        <time>2024-09-20T08:19:51Z</time>
      </trkpt>
      <trkpt lat="45.84648" lon="4.83574">
        <ele>169.2</ele>
        <time>2024-09-20T08:19:52Z</time>
      </trkpt>
      <trkpt lat="45.84644" lon="4.83572">
        <ele>169.2</ele>
        <time>2024-09-20T08:19:53Z</time>
      </trkpt>
      <trkpt lat="45.8464" lon="4.8357">
        <ele>169.2</ele>
        <time>2024-09-20T08:19:54Z</time>
      </trkpt>
      <trkpt lat="45.84636" lon="4.83568">
        <ele>169.2</ele>
        <time>2024-09-20T08:19:55Z</time>
      </trkpt>
      <trkpt lat="45.84631" lon="4.83566">
        <ele>169.2</ele>
        <time>2024-09-20T08:19:56Z</time>
      </trkpt>
      <trkpt lat="45.84627" lon="4.83564">
        <ele>169.2</ele>
        <time>2024-09-20T08:19:57Z</time>
      </trkpt>
      <trkpt lat="45.84623" lon="4.83562">
        <ele>169.2</ele>
        <time>2024-09-20T08:19:58Z</time>
      </trkpt>
      <trkpt lat="45.84619" lon="4.8356">
        <ele>169.2</ele>
        <time>2024-09-20T08:19:59Z</time>
      </trkpt>
      <trkpt lat="45.84615" lon="4.83558">
        <ele>169.2</ele>
        <time>2024-09-20T08:20:00Z</time>
      </trkpt>
      <trkpt lat="45.8461" lon="4.83556">
        <ele>169.2</ele>
        <time>2024-09-20T08:20:01Z</time>
      </trkpt>
      <trkpt lat="45.84606" lon="4.83554">
        <ele>169.2</ele>
        <time>2024-09-20T08:20:02Z</time>
      </trkpt>
      <trkpt lat="45.84601" lon="4.83552">
        <ele>169.4</ele>
        <time>2024-09-20T08:20:03Z</time>
      </trkpt>
      <trkpt lat="45.84597" lon="4.8355">
        <ele>169.4</ele>
        <time>2024-09-20T08:20:04Z</time>
      </trkpt>
      <trkpt lat="45.84593" lon="4.83548">
        <ele>169.4</ele>
        <time>2024-09-20T08:20:05Z</time>
      </trkpt>
      <trkpt lat="45.84589" lon="4.83546">
        <ele>169.4</ele>
        <time>2024-09-20T08:20:06Z</time>
      </trkpt>
      <trkpt lat="45.84585" lon="4.83545">
        <ele>169.4</ele>
        <time>2024-09-20T08:20:07Z</time>
      </trkpt>
      <trkpt lat="45.8458" lon="4.83543">
        <ele>169.6</ele>
        <time>2024-09-20T08:20:08Z</time>
      </trkpt>
      <trkpt lat="45.84576" lon="4.8354">
        <ele>169.6</ele>
        <time>2024-09-20T08:20:09Z</time>
      </trkpt>
      <trkpt lat="45.84572" lon="4.83538">
        <ele>169.6</ele>
        <time>2024-09-20T08:20:10Z</time>
      </trkpt>
      <trkpt lat="45.84569" lon="4.83536">
        <ele>169.6</ele>
        <time>2024-09-20T08:20:11Z</time>
      </trkpt>
      <trkpt lat="45.84565" lon="4.83533">
        <ele>169.6</ele>
        <time>2024-09-20T08:20:12Z</time>
      </trkpt>
      <trkpt lat="45.84561" lon="4.83531">
        <ele>169.6</ele>
        <time>2024-09-20T08:20:13Z</time>
      </trkpt>
      <trkpt lat="45.84558" lon="4.83528">
        <ele>169.6</ele>
        <time>2024-09-20T08:20:14Z</time>
      </trkpt>
      <trkpt lat="45.84554" lon="4.83526">
        <ele>169.6</ele>
        <time>2024-09-20T08:20:15Z</time>
      </trkpt>
      <trkpt lat="45.8455" lon="4.83524">
        <ele>170</ele>
        <time>2024-09-20T08:20:16Z</time>
      </trkpt>
      <trkpt lat="45.84546" lon="4.83521">
        <ele>170.2</ele>
        <time>2024-09-20T08:20:17Z</time>
      </trkpt>
      <trkpt lat="45.84543" lon="4.83519">
        <ele>170.2</ele>
        <time>2024-09-20T08:20:18Z</time>
      </trkpt>
      <trkpt lat="45.84539" lon="4.83517">
        <ele>170.2</ele>
        <time>2024-09-20T08:20:19Z</time>
      </trkpt>
      <trkpt lat="45.84536" lon="4.83514">
        <ele>170.4</ele>
        <time>2024-09-20T08:20:20Z</time>
      </trkpt>
      <trkpt lat="45.84532" lon="4.83512">
        <ele>170.4</ele>
        <time>2024-09-20T08:20:21Z</time>
      </trkpt>
      <trkpt lat="45.84529" lon="4.83509">
        <ele>170.4</ele>
        <time>2024-09-20T08:20:22Z</time>
      </trkpt>
      <trkpt lat="45.84526" lon="4.83508">
        <ele>170.4</ele>
        <time>2024-09-20T08:20:23Z</time>
      </trkpt>
      <trkpt lat="45.84522" lon="4.83506">
        <ele>170.4</ele>
        <time>2024-09-20T08:20:24Z</time>
      </trkpt>
      <trkpt lat="45.84519" lon="4.83505">
        <ele>170.6</ele>
        <time>2024-09-20T08:20:25Z</time>
      </trkpt>
      <trkpt lat="45.84516" lon="4.83503">
        <ele>170.6</ele>
        <time>2024-09-20T08:20:26Z</time>
      </trkpt>
      <trkpt lat="45.84513" lon="4.83502">
        <ele>170.6</ele>
        <time>2024-09-20T08:20:27Z</time>
      </trkpt>
      <trkpt lat="45.8451" lon="4.83501">
        <ele>170.6</ele>
        <time>2024-09-20T08:20:28Z</time>
      </trkpt>
      <trkpt lat="45.84507" lon="4.835">
        <ele>170.6</ele>
        <time>2024-09-20T08:20:29Z</time>
      </trkpt>
      <trkpt lat="45.84505" lon="4.835">
        <ele>170.6</ele>
        <time>2024-09-20T08:20:30Z</time>
      </trkpt>
      <trkpt lat="45.84502" lon="4.83499">
        <ele>170.8</ele>
        <time>2024-09-20T08:20:31Z</time>
      </trkpt>
      <trkpt lat="45.84499" lon="4.83499">
        <ele>170.8</ele>
        <time>2024-09-20T08:20:32Z</time>
      </trkpt>
      <trkpt lat="45.84497" lon="4.83499">
        <ele>170.8</ele>
        <time>2024-09-20T08:20:33Z</time>
      </trkpt>
      <trkpt lat="45.84494" lon="4.83499">
        <ele>171</ele>
        <time>2024-09-20T08:20:34Z</time>
      </trkpt>
      <trkpt lat="45.84492" lon="4.83499">
        <ele>171</ele>
        <time>2024-09-20T08:20:35Z</time>
      </trkpt>
      <trkpt lat="45.84491" lon="4.835">
        <ele>171</ele>
        <time>2024-09-20T08:20:36Z</time>
      </trkpt>
      <trkpt lat="45.84491" lon="4.835">
        <ele>171</ele>
        <time>2024-09-20T08:20:37Z</time>
      </trkpt>
      <trkpt lat="45.84491" lon="4.835">
        <ele>171</ele>
        <time>2024-09-20T08:20:38Z</time>
      </trkpt>
      <trkpt lat="45.84491" lon="4.835">
        <ele>171</ele>
        <time>2024-09-20T08:20:39Z</time>
      </trkpt>
      <trkpt lat="45.84486" lon="4.835">
        <ele>170.8</ele>
        <time>2024-09-20T08:23:57Z</time>
      </trkpt>
      <trkpt lat="45.84484" lon="4.835">
        <ele>170.8</ele>
        <time>2024-09-20T08:23:58Z</time>
      </trkpt>
      <trkpt lat="45.84482" lon="4.835">
        <ele>171.2</ele>
        <time>2024-09-20T08:23:59Z</time>
      </trkpt>
      <trkpt lat="45.8448" lon="4.83499">
        <ele>171</ele>
        <time>2024-09-20T08:24:00Z</time>
      </trkpt>
      <trkpt lat="45.84477" lon="4.83498">
        <ele>171</ele>
        <time>2024-09-20T08:24:01Z</time>
      </trkpt>
      <trkpt lat="45.84475" lon="4.83496">
        <ele>171</ele>
        <time>2024-09-20T08:24:02Z</time>
      </trkpt>
      <trkpt lat="45.84474" lon="4.83493">
        <ele>171</ele>
        <time>2024-09-20T08:24:03Z</time>
      </trkpt>
      <trkpt lat="45.84472" lon="4.83489">
        <ele>171.2</ele>
        <time>2024-09-20T08:24:04Z</time>
      </trkpt>
      <trkpt lat="45.8447" lon="4.83485">
        <ele>171.2</ele>
        <time>2024-09-20T08:24:05Z</time>
      </trkpt>
      <trkpt lat="45.84468" lon="4.83482">
        <ele>171.2</ele>
        <time>2024-09-20T08:24:06Z</time>
      </trkpt>
      <trkpt lat="45.84465" lon="4.83479">
        <ele>171.4</ele>
        <time>2024-09-20T08:24:07Z</time>
      </trkpt>
      <trkpt lat="45.84463" lon="4.83476">
        <ele>171.2</ele>
        <time>2024-09-20T08:24:08Z</time>
      </trkpt>
      <trkpt lat="45.84462" lon="4.83474">
        <ele>171.2</ele>
        <time>2024-09-20T08:24:09Z</time>
      </trkpt>
      <trkpt lat="45.8446" lon="4.83473">
        <ele>171.2</ele>
        <time>2024-09-20T08:24:10Z</time>
      </trkpt>
      <trkpt lat="45.84458" lon="4.83473">
        <ele>171.2</ele>
        <time>2024-09-20T08:24:11Z</time>
      </trkpt>
      <trkpt lat="45.84457" lon="4.83474">
        <ele>171.2</ele>
        <time>2024-09-20T08:24:12Z</time>
      </trkpt>
      <trkpt lat="45.84456" lon="4.83475">
        <ele>171.4</ele>
        <time>2024-09-20T08:24:13Z</time>
      </trkpt>
      <trkpt lat="45.84456" lon="4.83476">
        <ele>171.4</ele>
        <time>2024-09-20T08:24:14Z</time>
      </trkpt>
      <trkpt lat="45.84456" lon="4.83476">
        <ele>171.4</ele>
        <time>2024-09-20T08:24:15Z</time>
      </trkpt>
      <trkpt lat="45.84462" lon="4.83477">
        <ele>171.6</ele>
        <time>2024-09-20T08:25:29Z</time>
      </trkpt>
      <trkpt lat="45.84463" lon="4.83476">
        <ele>171.6</ele>
        <time>2024-09-20T08:25:30Z</time>
      </trkpt>
      <trkpt lat="45.84464" lon="4.83476">
        <ele>171.6</ele>
        <time>2024-09-20T08:25:31Z</time>
      </trkpt>
      <trkpt lat="45.84465" lon="4.83476">
        <ele>171.6</ele>
        <time>2024-09-20T08:25:32Z</time>
      </trkpt>
      <trkpt lat="45.84465" lon="4.83477">
        <ele>171.4</ele>
        <time>2024-09-20T08:25:33Z</time>
      </trkpt>
      <trkpt lat="45.84466" lon="4.83477">
        <ele>171.4</ele>
        <time>2024-09-20T08:25:34Z</time>
      </trkpt>
      <trkpt lat="45.84466" lon="4.83477">
        <ele>171.4</ele>
        <time>2024-09-20T08:25:35Z</time>
      </trkpt>
      <trkpt lat="45.84466" lon="4.83477">
        <ele>171.4</ele>
        <time>2024-09-20T08:25:36Z</time>
      </trkpt>
      <trkpt lat="45.84468" lon="4.83484">
        <ele>171</ele>
        <time>2024-09-20T08:25:46Z</time>
      </trkpt>
      <trkpt lat="45.84469" lon="4.83486">
        <ele>171</ele>
        <time>2024-09-20T08:25:47Z</time>
      </trkpt>
      <trkpt lat="45.84471" lon="4.83487">
        <ele>171</ele>
        <time>2024-09-20T08:25:48Z</time>
      </trkpt>
      <trkpt lat="45.84471" lon="4.83489">
        <ele>171</ele>
        <time>2024-09-20T08:25:49Z</time>
      </trkpt>
      <trkpt lat="45.84472" lon="4.8349">
        <ele>171</ele>
        <time>2024-09-20T08:25:50Z</time>
      </trkpt>
      <trkpt lat="45.84472" lon="4.83492">
        <ele>171</ele>
        <time>2024-09-20T08:25:51Z</time>
      </trkpt>
      <trkpt lat="45.84472" lon="4.83493">
        <ele>171</ele>
        <time>2024-09-20T08:25:52Z</time>
      </trkpt>
      <trkpt lat="45.84472" lon="4.83494">
        <ele>171</ele>
        <time>2024-09-20T08:25:53Z</time>
      </trkpt>
      <trkpt lat="45.84472" lon="4.83496">
        <ele>171</ele>
        <time>2024-09-20T08:25:54Z</time>
      </trkpt>
      <trkpt lat="45.8447" lon="4.83496">
        <ele>171.2</ele>
        <time>2024-09-20T08:25:55Z</time>
      </trkpt>
      <trkpt lat="45.84469" lon="4.83495">
        <ele>171.4</ele>
        <time>2024-09-20T08:25:56Z</time>
      </trkpt>
      <trkpt lat="45.84467" lon="4.83494">
        <ele>171.4</ele>
        <time>2024-09-20T08:25:57Z</time>
      </trkpt>
      <trkpt lat="45.84465" lon="4.83493">
        <ele>171.4</ele>
        <time>2024-09-20T08:25:58Z</time>
      </trkpt>
      <trkpt lat="45.84463" lon="4.83492">
        <ele>171</ele>
        <time>2024-09-20T08:25:59Z</time>
      </trkpt>
      <trkpt lat="45.84461" lon="4.83491">
        <ele>171</ele>
        <time>2024-09-20T08:26:00Z</time>
      </trkpt>
      <trkpt lat="45.84458" lon="4.8349">
        <ele>171</ele>
        <time>2024-09-20T08:26:01Z</time>
      </trkpt>
      <trkpt lat="45.84456" lon="4.83489">
        <ele>171</ele>
        <time>2024-09-20T08:26:02Z</time>
      </trkpt>
      <trkpt lat="45.84454" lon="4.83488">
        <ele>171</ele>
        <time>2024-09-20T08:26:03Z</time>
      </trkpt>
      <trkpt lat="45.84452" lon="4.83488">
        <ele>171</ele>
        <time>2024-09-20T08:26:04Z</time>
      </trkpt>
      <trkpt lat="45.8445" lon="4.83486">
        <ele>171.2</ele>
        <time>2024-09-20T08:26:05Z</time>
      </trkpt>
      <trkpt lat="45.84447" lon="4.83485">
        <ele>171.2</ele>
        <time>2024-09-20T08:26:06Z</time>
      </trkpt>
      <trkpt lat="45.84444" lon="4.83485">
        <ele>171.2</ele>
        <time>2024-09-20T08:26:07Z</time>
      </trkpt>
      <trkpt lat="45.84441" lon="4.83484">
        <ele>171.4</ele>
        <time>2024-09-20T08:26:08Z</time>
      </trkpt>
      <trkpt lat="45.84439" lon="4.83483">
        <ele>171.6</ele>
        <time>2024-09-20T08:26:09Z</time>
      </trkpt>
      <trkpt lat="45.84436" lon="4.83481">
        <ele>171.6</ele>
        <time>2024-09-20T08:26:10Z</time>
      </trkpt>
      <trkpt lat="45.84433" lon="4.8348">
        <ele>171.6</ele>
        <time>2024-09-20T08:26:11Z</time>
      </trkpt>
      <trkpt lat="45.84429" lon="4.83478">
        <ele>171.6</ele>
        <time>2024-09-20T08:26:12Z</time>
      </trkpt>
      <trkpt lat="45.84426" lon="4.83477">
        <ele>171.4</ele>
        <time>2024-09-20T08:26:13Z</time>
      </trkpt>
      <trkpt lat="45.84423" lon="4.83476">
        <ele>171.6</ele>
        <time>2024-09-20T08:26:14Z</time>
      </trkpt>
      <trkpt lat="45.84419" lon="4.83474">
        <ele>171.6</ele>
        <time>2024-09-20T08:26:15Z</time>
      </trkpt>
      <trkpt lat="45.84416" lon="4.83473">
        <ele>171.6</ele>
        <time>2024-09-20T08:26:16Z</time>
      </trkpt>
      <trkpt lat="45.84412" lon="4.83471">
        <ele>171.6</ele>
        <time>2024-09-20T08:26:17Z</time>
      </trkpt>
      <trkpt lat="45.84408" lon="4.8347">
        <ele>171.4</ele>
        <time>2024-09-20T08:26:18Z</time>
      </trkpt>
      <trkpt lat="45.84404" lon="4.83469">
        <ele>171.2</ele>
        <time>2024-09-20T08:26:19Z</time>
      </trkpt>
      <trkpt lat="45.844" lon="4.83468">
        <ele>171.2</ele>
        <time>2024-09-20T08:26:20Z</time>
      </trkpt>
      <trkpt lat="45.84396" lon="4.83466">
        <ele>171.2</ele>
        <time>2024-09-20T08:26:21Z</time>
      </trkpt>
      <trkpt lat="45.84393" lon="4.83465">
        <ele>171.2</ele>
        <time>2024-09-20T08:26:22Z</time>
      </trkpt>
      <trkpt lat="45.84389" lon="4.83463">
        <ele>171</ele>
        <time>2024-09-20T08:26:23Z</time>
      </trkpt>
      <trkpt lat="45.84385" lon="4.83462">
        <ele>171</ele>
        <time>2024-09-20T08:26:24Z</time>
      </trkpt>
      <trkpt lat="45.84381" lon="4.83461">
        <ele>171</ele>
        <time>2024-09-20T08:26:25Z</time>
      </trkpt>
      <trkpt lat="45.84377" lon="4.83459">
        <ele>171</ele>
        <time>2024-09-20T08:26:26Z</time>
      </trkpt>
      <trkpt lat="45.84374" lon="4.83458">
        <ele>171</ele>
        <time>2024-09-20T08:26:27Z</time>
      </trkpt>
      <trkpt lat="45.8437" lon="4.83457">
        <ele>171.2</ele>
        <time>2024-09-20T08:26:28Z</time>
      </trkpt>
      <trkpt lat="45.84365" lon="4.83455">
        <ele>171.2</ele>
        <time>2024-09-20T08:26:29Z</time>
      </trkpt>
      <trkpt lat="45.84361" lon="4.83454">
        <ele>171.2</ele>
        <time>2024-09-20T08:26:30Z</time>
      </trkpt>
      <trkpt lat="45.84357" lon="4.83452">
        <ele>171.2</ele>
        <time>2024-09-20T08:26:31Z</time>
      </trkpt>
      <trkpt lat="45.84353" lon="4.8345">
        <ele>171.2</ele>
        <time>2024-09-20T08:26:32Z</time>
      </trkpt>
      <trkpt lat="45.8435" lon="4.83449">
        <ele>171.2</ele>
        <time>2024-09-20T08:26:33Z</time>
      </trkpt>
      <trkpt lat="45.84345" lon="4.83447">
        <ele>171.2</ele>
        <time>2024-09-20T08:26:34Z</time>
      </trkpt>
      <trkpt lat="45.84342" lon="4.83445">
        <ele>171.2</ele>
        <time>2024-09-20T08:26:35Z</time>
      </trkpt>
      <trkpt lat="45.84338" lon="4.83444">
        <ele>171.8</ele>
        <time>2024-09-20T08:26:36Z</time>
      </trkpt>
      <trkpt lat="45.84334" lon="4.83442">
        <ele>171.8</ele>
        <time>2024-09-20T08:26:37Z</time>
      </trkpt>
      <trkpt lat="45.8433" lon="4.83441">
        <ele>171.8</ele>
        <time>2024-09-20T08:26:38Z</time>
      </trkpt>
      <trkpt lat="45.84326" lon="4.83439">
        <ele>171.8</ele>
        <time>2024-09-20T08:26:39Z</time>
      </trkpt>
      <trkpt lat="45.84322" lon="4.83437">
        <ele>171.4</ele>
        <time>2024-09-20T08:26:40Z</time>
      </trkpt>
      <trkpt lat="45.84318" lon="4.83435">
        <ele>171.4</ele>
        <time>2024-09-20T08:26:41Z</time>
      </trkpt>
      <trkpt lat="45.84314" lon="4.83434">
        <ele>171.2</ele>
        <time>2024-09-20T08:26:42Z</time>
      </trkpt>
      <trkpt lat="45.8431" lon="4.83432">
        <ele>171.2</ele>
        <time>2024-09-20T08:26:43Z</time>
      </trkpt>
      <trkpt lat="45.84306" lon="4.8343">
        <ele>171.2</ele>
        <time>2024-09-20T08:26:44Z</time>
      </trkpt>
      <trkpt lat="45.84301" lon="4.83428">
        <ele>171</ele>
        <time>2024-09-20T08:26:45Z</time>
      </trkpt>
      <trkpt lat="45.84297" lon="4.83426">
        <ele>171</ele>
        <time>2024-09-20T08:26:46Z</time>
      </trkpt>
      <trkpt lat="45.84293" lon="4.83425">
        <ele>171</ele>
        <time>2024-09-20T08:26:47Z</time>
      </trkpt>
      <trkpt lat="45.84288" lon="4.83423">
        <ele>171</ele>
        <time>2024-09-20T08:26:48Z</time>
      </trkpt>
      <trkpt lat="45.84284" lon="4.83421">
        <ele>170.8</ele>
        <time>2024-09-20T08:26:49Z</time>
      </trkpt>
      <trkpt lat="45.8428" lon="4.83418">
        <ele>170.8</ele>
        <time>2024-09-20T08:26:50Z</time>
      </trkpt>
      <trkpt lat="45.84276" lon="4.83416">
        <ele>170.8</ele>
        <time>2024-09-20T08:26:51Z</time>
      </trkpt>
      <trkpt lat="45.84272" lon="4.83414">
        <ele>170.8</ele>
        <time>2024-09-20T08:26:52Z</time>
      </trkpt>
      <trkpt lat="45.84267" lon="4.83412">
        <ele>171</ele>
        <time>2024-09-20T08:26:53Z</time>
      </trkpt>
      <trkpt lat="45.84263" lon="4.83411">
        <ele>171</ele>
        <time>2024-09-20T08:26:54Z</time>
      </trkpt>
      <trkpt lat="45.84259" lon="4.83409">
        <ele>171</ele>
        <time>2024-09-20T08:26:55Z</time>
      </trkpt>
      <trkpt lat="45.84254" lon="4.83407">
        <ele>171</ele>
        <time>2024-09-20T08:26:56Z</time>
      </trkpt>
      <trkpt lat="45.8425" lon="4.83405">
        <ele>171</ele>
        <time>2024-09-20T08:26:57Z</time>
      </trkpt>
      <trkpt lat="45.84246" lon="4.83404">
        <ele>171</ele>
        <time>2024-09-20T08:26:58Z</time>
      </trkpt>
      <trkpt lat="45.84242" lon="4.83402">
        <ele>171</ele>
        <time>2024-09-20T08:26:59Z</time>
      </trkpt>
      <trkpt lat="45.84237" lon="4.834">
        <ele>171</ele>
        <time>2024-09-20T08:27:00Z</time>
      </trkpt>
      <trkpt lat="45.84233" lon="4.83398">
        <ele>171</ele>
        <time>2024-09-20T08:27:01Z</time>
      </trkpt>
      <trkpt lat="45.84229" lon="4.83397">
        <ele>171</ele>
        <time>2024-09-20T08:27:02Z</time>
      </trkpt>
      <trkpt lat="45.84224" lon="4.83395">
        <ele>170.8</ele>
        <time>2024-09-20T08:27:03Z</time>
      </trkpt>
      <trkpt lat="45.8422" lon="4.83394">
        <ele>170.6</ele>
        <time>2024-09-20T08:27:04Z</time>
      </trkpt>
      <trkpt lat="45.84216" lon="4.83392">
        <ele>170.6</ele>
        <time>2024-09-20T08:27:05Z</time>
      </trkpt>
      <trkpt lat="45.84212" lon="4.83391">
        <ele>170.6</ele>
        <time>2024-09-20T08:27:06Z</time>
      </trkpt>
      <trkpt lat="45.84208" lon="4.83389">
        <ele>170.8</ele>
        <time>2024-09-20T08:27:07Z</time>
      </trkpt>
      <trkpt lat="45.84203" lon="4.83388">
        <ele>170.8</ele>
        <time>2024-09-20T08:27:08Z</time>
      </trkpt>
      <trkpt lat="45.84199" lon="4.83387">
        <ele>170.8</ele>
        <time>2024-09-20T08:27:09Z</time>
      </trkpt>
      <trkpt lat="45.84195" lon="4.83386">
        <ele>170.8</ele>
        <time>2024-09-20T08:27:10Z</time>
      </trkpt>
      <trkpt lat="45.8419" lon="4.83385">
        <ele>170.6</ele>
        <time>2024-09-20T08:27:11Z</time>
      </trkpt>
      <trkpt lat="45.84186" lon="4.83384">
        <ele>170.6</ele>
        <time>2024-09-20T08:27:12Z</time>
      </trkpt>
      <trkpt lat="45.84181" lon="4.83382">
        <ele>170.6</ele>
        <time>2024-09-20T08:27:13Z</time>
      </trkpt>
      <trkpt lat="45.84177" lon="4.83381">
        <ele>170.6</ele>
        <time>2024-09-20T08:27:14Z</time>
      </trkpt>
      <trkpt lat="45.84172" lon="4.8338">
        <ele>170.6</ele>
        <time>2024-09-20T08:27:15Z</time>
      </trkpt>
      <trkpt lat="45.84168" lon="4.8338">
        <ele>170.4</ele>
        <time>2024-09-20T08:27:16Z</time>
      </trkpt>
      <trkpt lat="45.84163" lon="4.83379">
        <ele>170.4</ele>
        <time>2024-09-20T08:27:17Z</time>
      </trkpt>
      <trkpt lat="45.84159" lon="4.83378">
        <ele>170.4</ele>
        <time>2024-09-20T08:27:18Z</time>
      </trkpt>
      <trkpt lat="45.84154" lon="4.83377">
        <ele>170.4</ele>
        <time>2024-09-20T08:27:19Z</time>
      </trkpt>
      <trkpt lat="45.8415" lon="4.83376">
        <ele>170.6</ele>
        <time>2024-09-20T08:27:20Z</time>
      </trkpt>
      <trkpt lat="45.84145" lon="4.83375">
        <ele>170.4</ele>
        <time>2024-09-20T08:27:21Z</time>
      </trkpt>
      <trkpt lat="45.84141" lon="4.83375">
        <ele>170.4</ele>
        <time>2024-09-20T08:27:22Z</time>
      </trkpt>
      <trkpt lat="45.84137" lon="4.83375">
        <ele>170.4</ele>
        <time>2024-09-20T08:27:23Z</time>
      </trkpt>
      <trkpt lat="45.84132" lon="4.83374">
        <ele>170.4</ele>
        <time>2024-09-20T08:27:24Z</time>
      </trkpt>
      <trkpt lat="45.84127" lon="4.83374">
        <ele>170.2</ele>
        <time>2024-09-20T08:27:25Z</time>
      </trkpt>
      <trkpt lat="45.84123" lon="4.83374">
        <ele>170.4</ele>
        <time>2024-09-20T08:27:26Z</time>
      </trkpt>
      <trkpt lat="45.84118" lon="4.83374">
        <ele>170.4</ele>
        <time>2024-09-20T08:27:27Z</time>
      </trkpt>
      <trkpt lat="45.84114" lon="4.83373">
        <ele>170.4</ele>
        <time>2024-09-20T08:27:28Z</time>
      </trkpt>
      <trkpt lat="45.84109" lon="4.83373">
        <ele>170.4</ele>
        <time>2024-09-20T08:27:29Z</time>
      </trkpt>
      <trkpt lat="45.84104" lon="4.83373">
        <ele>170.4</ele>
        <time>2024-09-20T08:27:30Z</time>
      </trkpt>
      <trkpt lat="45.84099" lon="4.83373">
        <ele>170.4</ele>
        <time>2024-09-20T08:27:31Z</time>
      </trkpt>
      <trkpt lat="45.84094" lon="4.83373">
        <ele>170.4</ele>
        <time>2024-09-20T08:27:32Z</time>
      </trkpt>
      <trkpt lat="45.84089" lon="4.83374">
        <ele>170.4</ele>
        <time>2024-09-20T08:27:33Z</time>
      </trkpt>
      <trkpt lat="45.84085" lon="4.83374">
        <ele>170.8</ele>
        <time>2024-09-20T08:27:34Z</time>
      </trkpt>
      <trkpt lat="45.8408" lon="4.83373">
        <ele>170.8</ele>
        <time>2024-09-20T08:27:35Z</time>
      </trkpt>
      <trkpt lat="45.84076" lon="4.83374">
        <ele>170.8</ele>
        <time>2024-09-20T08:27:36Z</time>
      </trkpt>
      <trkpt lat="45.84071" lon="4.83374">
        <ele>170.8</ele>
        <time>2024-09-20T08:27:37Z</time>
      </trkpt>
      <trkpt lat="45.84066" lon="4.83374">
        <ele>170.8</ele>
        <time>2024-09-20T08:27:38Z</time>
      </trkpt>
      <trkpt lat="45.84062" lon="4.83374">
        <ele>170.8</ele>
        <time>2024-09-20T08:27:39Z</time>
      </trkpt>
      <trkpt lat="45.84057" lon="4.83374">
        <ele>170.6</ele>
        <time>2024-09-20T08:27:40Z</time>
      </trkpt>
      <trkpt lat="45.84053" lon="4.83374">
        <ele>170.6</ele>
        <time>2024-09-20T08:27:41Z</time>
      </trkpt>
      <trkpt lat="45.84048" lon="4.83374">
        <ele>170.6</ele>
        <time>2024-09-20T08:27:42Z</time>
      </trkpt>
      <trkpt lat="45.84044" lon="4.83373">
        <ele>170.8</ele>
        <time>2024-09-20T08:27:43Z</time>
      </trkpt>
      <trkpt lat="45.8404" lon="4.83373">
        <ele>170.8</ele>
        <time>2024-09-20T08:27:44Z</time>
      </trkpt>
      <trkpt lat="45.84035" lon="4.83372">
        <ele>170.8</ele>
        <time>2024-09-20T08:27:45Z</time>
      </trkpt>
      <trkpt lat="45.84031" lon="4.83372">
        <ele>170.8</ele>
        <time>2024-09-20T08:27:46Z</time>
      </trkpt>
      <trkpt lat="45.84025" lon="4.83372">
        <ele>170.8</ele>
        <time>2024-09-20T08:27:47Z</time>
      </trkpt>
      <trkpt lat="45.8402" lon="4.83371">
        <ele>170.6</ele>
        <time>2024-09-20T08:27:48Z</time>
      </trkpt>
      <trkpt lat="45.84015" lon="4.83371">
        <ele>170.6</ele>
        <time>2024-09-20T08:27:49Z</time>
      </trkpt>
      <trkpt lat="45.8401" lon="4.83371">
        <ele>170.6</ele>
        <time>2024-09-20T08:27:50Z</time>
      </trkpt>
      <trkpt lat="45.84005" lon="4.8337">
        <ele>170.6</ele>
        <time>2024-09-20T08:27:51Z</time>
      </trkpt>
      <trkpt lat="45.84" lon="4.83369">
        <ele>170</ele>
        <time>2024-09-20T08:27:52Z</time>
      </trkpt>
      <trkpt lat="45.83995" lon="4.83369">
        <ele>170.2</ele>
        <time>2024-09-20T08:27:53Z</time>
      </trkpt>
      <trkpt lat="45.83989" lon="4.83368">
        <ele>170.2</ele>
        <time>2024-09-20T08:27:54Z</time>
      </trkpt>
      <trkpt lat="45.83984" lon="4.83368">
        <ele>170.2</ele>
        <time>2024-09-20T08:27:55Z</time>
      </trkpt>
      <trkpt lat="45.83978" lon="4.83368">
        <ele>170.2</ele>
        <time>2024-09-20T08:27:56Z</time>
      </trkpt>
      <trkpt lat="45.83973" lon="4.83367">
        <ele>170.2</ele>
        <time>2024-09-20T08:27:57Z</time>
      </trkpt>
      <trkpt lat="45.83967" lon="4.83367">
        <ele>169.4</ele>
        <time>2024-09-20T08:27:58Z</time>
      </trkpt>
      <trkpt lat="45.8396" lon="4.83367">
        <ele>169.4</ele>
        <time>2024-09-20T08:27:59Z</time>
      </trkpt>
      <trkpt lat="45.83954" lon="4.83367">
        <ele>168.6</ele>
        <time>2024-09-20T08:28:00Z</time>
      </trkpt>
      <trkpt lat="45.83948" lon="4.83366">
        <ele>168.6</ele>
        <time>2024-09-20T08:28:01Z</time>
      </trkpt>
      <trkpt lat="45.83941" lon="4.83366">
        <ele>168.6</ele>
        <time>2024-09-20T08:28:02Z</time>
      </trkpt>
      <trkpt lat="45.83935" lon="4.83365">
        <ele>168.6</ele>
        <time>2024-09-20T08:28:03Z</time>
      </trkpt>
      <trkpt lat="45.83928" lon="4.83365">
        <ele>168.6</ele>
        <time>2024-09-20T08:28:04Z</time>
      </trkpt>
      <trkpt lat="45.83922" lon="4.83364">
        <ele>168</ele>
        <time>2024-09-20T08:28:05Z</time>
      </trkpt>
      <trkpt lat="45.83916" lon="4.83364">
        <ele>167.8</ele>
        <time>2024-09-20T08:28:06Z</time>
      </trkpt>
      <trkpt lat="45.83911" lon="4.83363">
        <ele>167.8</ele>
        <time>2024-09-20T08:28:07Z</time>
      </trkpt>
      <trkpt lat="45.83905" lon="4.83363">
        <ele>167.8</ele>
        <time>2024-09-20T08:28:08Z</time>
      </trkpt>
      <trkpt lat="45.83899" lon="4.83362">
        <ele>167.8</ele>
        <time>2024-09-20T08:28:09Z</time>
      </trkpt>
      <trkpt lat="45.83894" lon="4.83362">
        <ele>167.8</ele>
        <time>2024-09-20T08:28:10Z</time>
      </trkpt>
      <trkpt lat="45.83889" lon="4.83362">
        <ele>168</ele>
        <time>2024-09-20T08:28:11Z</time>
      </trkpt>
      <trkpt lat="45.83883" lon="4.83362">
        <ele>168</ele>
        <time>2024-09-20T08:28:12Z</time>
      </trkpt>
      <trkpt lat="45.83878" lon="4.83362">
        <ele>168</ele>
        <time>2024-09-20T08:28:13Z</time>
      </trkpt>
      <trkpt lat="45.83872" lon="4.83363">
        <ele>167.8</ele>
        <time>2024-09-20T08:28:14Z</time>
      </trkpt>
      <trkpt lat="45.83867" lon="4.83363">
        <ele>167.6</ele>
        <time>2024-09-20T08:28:15Z</time>
      </trkpt>
      <trkpt lat="45.83861" lon="4.83364">
        <ele>167.6</ele>
        <time>2024-09-20T08:28:16Z</time>
      </trkpt>
      <trkpt lat="45.83855" lon="4.83364">
        <ele>167.6</ele>
        <time>2024-09-20T08:28:17Z</time>
      </trkpt>
      <trkpt lat="45.8385" lon="4.83365">
        <ele>167.6</ele>
        <time>2024-09-20T08:28:18Z</time>
      </trkpt>
      <trkpt lat="45.83844" lon="4.83366">
        <ele>167.4</ele>
        <time>2024-09-20T08:28:19Z</time>
      </trkpt>
      <trkpt lat="45.83839" lon="4.83366">
        <ele>167.4</ele>
        <time>2024-09-20T08:28:20Z</time>
      </trkpt>
      <trkpt lat="45.83833" lon="4.83367">
        <ele>167.4</ele>
        <time>2024-09-20T08:28:21Z</time>
      </trkpt>
      <trkpt lat="45.83828" lon="4.83368">
        <ele>167.4</ele>
        <time>2024-09-20T08:28:22Z</time>
      </trkpt>
      <trkpt lat="45.83823" lon="4.83368">
        <ele>167.6</ele>
        <time>2024-09-20T08:28:23Z</time>
      </trkpt>
      <trkpt lat="45.83817" lon="4.83368">
        <ele>167.4</ele>
        <time>2024-09-20T08:28:24Z</time>
      </trkpt>
      <trkpt lat="45.83812" lon="4.8337">
        <ele>167.4</ele>
        <time>2024-09-20T08:28:25Z</time>
      </trkpt>
      <trkpt lat="45.83807" lon="4.83372">
        <ele>167.4</ele>
        <time>2024-09-20T08:28:26Z</time>
      </trkpt>
      <trkpt lat="45.83802" lon="4.83374">
        <ele>167.4</ele>
        <time>2024-09-20T08:28:27Z</time>
      </trkpt>
      <trkpt lat="45.83797" lon="4.83376">
        <ele>167.6</ele>
        <time>2024-09-20T08:28:28Z</time>
      </trkpt>
      <trkpt lat="45.83792" lon="4.83378">
        <ele>167.8</ele>
        <time>2024-09-20T08:28:29Z</time>
      </trkpt>
      <trkpt lat="45.83788" lon="4.83381">
        <ele>167.8</ele>
        <time>2024-09-20T08:28:30Z</time>
      </trkpt>
      <trkpt lat="45.83783" lon="4.83383">
        <ele>167.8</ele>
        <time>2024-09-20T08:28:31Z</time>
      </trkpt>
      <trkpt lat="45.83778" lon="4.83386">
        <ele>167.6</ele>
        <time>2024-09-20T08:28:32Z</time>
      </trkpt>
      <trkpt lat="45.83773" lon="4.83389">
        <ele>167.6</ele>
        <time>2024-09-20T08:28:33Z</time>
      </trkpt>
      <trkpt lat="45.83769" lon="4.83391">
        <ele>167.6</ele>
        <time>2024-09-20T08:28:34Z</time>
      </trkpt>
      <trkpt lat="45.83764" lon="4.83394">
        <ele>167.6</ele>
        <time>2024-09-20T08:28:35Z</time>
      </trkpt>
      <trkpt lat="45.8376" lon="4.83398">
        <ele>167.6</ele>
        <time>2024-09-20T08:28:36Z</time>
      </trkpt>
      <trkpt lat="45.83756" lon="4.83401">
        <ele>167.2</ele>
        <time>2024-09-20T08:28:37Z</time>
      </trkpt>
      <trkpt lat="45.83751" lon="4.83404">
        <ele>167.2</ele>
        <time>2024-09-20T08:28:38Z</time>
      </trkpt>
      <trkpt lat="45.83747" lon="4.83407">
        <ele>167.2</ele>
        <time>2024-09-20T08:28:39Z</time>
      </trkpt>
      <trkpt lat="45.83743" lon="4.83411">
        <ele>167.6</ele>
        <time>2024-09-20T08:28:40Z</time>
      </trkpt>
      <trkpt lat="45.83739" lon="4.83414">
        <ele>167.6</ele>
        <time>2024-09-20T08:28:41Z</time>
      </trkpt>
      <trkpt lat="45.83735" lon="4.83418">
        <ele>167.4</ele>
        <time>2024-09-20T08:28:42Z</time>
      </trkpt>
      <trkpt lat="45.8373" lon="4.83421">
        <ele>167.4</ele>
        <time>2024-09-20T08:28:43Z</time>
      </trkpt>
      <trkpt lat="45.83726" lon="4.83424">
        <ele>167.4</ele>
        <time>2024-09-20T08:28:44Z</time>
      </trkpt>
      <trkpt lat="45.83722" lon="4.83427">
        <ele>167.4</ele>
        <time>2024-09-20T08:28:45Z</time>
      </trkpt>
      <trkpt lat="45.83718" lon="4.83431">
        <ele>167.4</ele>
        <time>2024-09-20T08:28:46Z</time>
      </trkpt>
      <trkpt lat="45.83715" lon="4.83435">
        <ele>167.4</ele>
        <time>2024-09-20T08:28:47Z</time>
      </trkpt>
      <trkpt lat="45.83711" lon="4.83438">
        <ele>167.4</ele>
        <time>2024-09-20T08:28:48Z</time>
      </trkpt>
      <trkpt lat="45.83708" lon="4.83441">
        <ele>167.4</ele>
        <time>2024-09-20T08:28:49Z</time>
      </trkpt>
      <trkpt lat="45.83705" lon="4.83443">
        <ele>167.4</ele>
        <time>2024-09-20T08:28:50Z</time>
      </trkpt>
      <trkpt lat="45.83702" lon="4.83446">
        <ele>167.4</ele>
        <time>2024-09-20T08:28:51Z</time>
      </trkpt>
      <trkpt lat="45.837" lon="4.83448">
        <ele>167.4</ele>
        <time>2024-09-20T08:28:52Z</time>
      </trkpt>
      <trkpt lat="45.83698" lon="4.83451">
        <ele>167.4</ele>
        <time>2024-09-20T08:28:53Z</time>
      </trkpt>
      <trkpt lat="45.83696" lon="4.83453">
        <ele>167.4</ele>
        <time>2024-09-20T08:28:54Z</time>
      </trkpt>
      <trkpt lat="45.83694" lon="4.83456">
        <ele>167.4</ele>
        <time>2024-09-20T08:28:55Z</time>
      </trkpt>
      <trkpt lat="45.83692" lon="4.83458">
        <ele>167.4</ele>
        <time>2024-09-20T08:28:56Z</time>
      </trkpt>
      <trkpt lat="45.8369" lon="4.8346">
        <ele>167.4</ele>
        <time>2024-09-20T08:28:57Z</time>
      </trkpt>
      <trkpt lat="45.83688" lon="4.83462">
        <ele>167.4</ele>
        <time>2024-09-20T08:28:58Z</time>
      </trkpt>
      <trkpt lat="45.83686" lon="4.83465">
        <ele>167.4</ele>
        <time>2024-09-20T08:28:59Z</time>
      </trkpt>
      <trkpt lat="45.83685" lon="4.83467">
        <ele>167.4</ele>
        <time>2024-09-20T08:29:00Z</time>
      </trkpt>
      <trkpt lat="45.83682" lon="4.8347">
        <ele>167.4</ele>
        <time>2024-09-20T08:29:01Z</time>
      </trkpt>
      <trkpt lat="45.8368" lon="4.83473">
        <ele>167.4</ele>
        <time>2024-09-20T08:29:02Z</time>
      </trkpt>
      <trkpt lat="45.83677" lon="4.83476">
        <ele>167.4</ele>
        <time>2024-09-20T08:29:03Z</time>
      </trkpt>
      <trkpt lat="45.83675" lon="4.83479">
        <ele>167.4</ele>
        <time>2024-09-20T08:29:04Z</time>
      </trkpt>
      <trkpt lat="45.83672" lon="4.83482">
        <ele>167.2</ele>
        <time>2024-09-20T08:29:05Z</time>
      </trkpt>
      <trkpt lat="45.83669" lon="4.83484">
        <ele>167.2</ele>
        <time>2024-09-20T08:29:06Z</time>
      </trkpt>
      <trkpt lat="45.83666" lon="4.83487">
        <ele>167.2</ele>
        <time>2024-09-20T08:29:07Z</time>
      </trkpt>
      <trkpt lat="45.83664" lon="4.8349">
        <ele>167.2</ele>
        <time>2024-09-20T08:29:08Z</time>
      </trkpt>
      <trkpt lat="45.83662" lon="4.83493">
        <ele>167.2</ele>
        <time>2024-09-20T08:29:09Z</time>
      </trkpt>
      <trkpt lat="45.8366" lon="4.83497">
        <ele>167.4</ele>
        <time>2024-09-20T08:29:10Z</time>
      </trkpt>
      <trkpt lat="45.83657" lon="4.835">
        <ele>167.4</ele>
        <time>2024-09-20T08:29:11Z</time>
      </trkpt>
      <trkpt lat="45.83655" lon="4.83503">
        <ele>167.2</ele>
        <time>2024-09-20T08:29:12Z</time>
      </trkpt>
      <trkpt lat="45.83653" lon="4.83506">
        <ele>167.4</ele>
        <time>2024-09-20T08:29:13Z</time>
      </trkpt>
      <trkpt lat="45.8365" lon="4.8351">
        <ele>167.4</ele>
        <time>2024-09-20T08:29:14Z</time>
      </trkpt>
      <trkpt lat="45.83648" lon="4.83513">
        <ele>167.4</ele>
        <time>2024-09-20T08:29:15Z</time>
      </trkpt>
      <trkpt lat="45.83646" lon="4.83516">
        <ele>167.4</ele>
        <time>2024-09-20T08:29:16Z</time>
      </trkpt>
      <trkpt lat="45.83644" lon="4.83519">
        <ele>167.2</ele>
        <time>2024-09-20T08:29:17Z</time>
      </trkpt>
      <trkpt lat="45.83642" lon="4.83521">
        <ele>167.2</ele>
        <time>2024-09-20T08:29:18Z</time>
      </trkpt>
      <trkpt lat="45.83641" lon="4.83523">
        <ele>167.2</ele>
        <time>2024-09-20T08:29:19Z</time>
      </trkpt>
      <trkpt lat="45.83639" lon="4.83525">
        <ele>167.2</ele>
        <time>2024-09-20T08:29:20Z</time>
      </trkpt>
      <trkpt lat="45.83638" lon="4.83526">
        <ele>167.2</ele>
        <time>2024-09-20T08:29:21Z</time>
      </trkpt>
      <trkpt lat="45.83636" lon="4.83528">
        <ele>167.2</ele>
        <time>2024-09-20T08:29:22Z</time>
      </trkpt>
      <trkpt lat="45.83635" lon="4.8353">
        <ele>167.2</ele>
        <time>2024-09-20T08:29:23Z</time>
      </trkpt>
      <trkpt lat="45.83635" lon="4.83532">
        <ele>167.2</ele>
        <time>2024-09-20T08:29:24Z</time>
      </trkpt>
      <trkpt lat="45.83636" lon="4.83534">
        <ele>167.2</ele>
        <time>2024-09-20T08:29:25Z</time>
      </trkpt>
      <trkpt lat="45.83637" lon="4.83534">
        <ele>167.2</ele>
        <time>2024-09-20T08:29:26Z</time>
      </trkpt>
      <trkpt lat="45.83639" lon="4.83534">
        <ele>167.2</ele>
        <time>2024-09-20T08:29:27Z</time>
      </trkpt>
      <trkpt lat="45.8364" lon="4.83531">
        <ele>167.2</ele>
        <time>2024-09-20T08:29:28Z</time>
      </trkpt>
      <trkpt lat="45.83642" lon="4.83529">
        <ele>167.2</ele>
        <time>2024-09-20T08:29:29Z</time>
      </trkpt>
      <trkpt lat="45.83643" lon="4.83526">
        <ele>167.2</ele>
        <time>2024-09-20T08:29:30Z</time>
      </trkpt>
      <trkpt lat="45.83646" lon="4.83523">
        <ele>166.8</ele>
        <time>2024-09-20T08:29:31Z</time>
      </trkpt>
      <trkpt lat="45.83648" lon="4.8352">
        <ele>166.8</ele>
        <time>2024-09-20T08:29:32Z</time>
      </trkpt>
      <trkpt lat="45.8365" lon="4.83517">
        <ele>166.8</ele>
        <time>2024-09-20T08:29:33Z</time>
      </trkpt>
      <trkpt lat="45.83653" lon="4.83514">
        <ele>166.8</ele>
        <time>2024-09-20T08:29:34Z</time>
      </trkpt>
      <trkpt lat="45.83655" lon="4.83511">
        <ele>167</ele>
        <time>2024-09-20T08:29:35Z</time>
      </trkpt>
      <trkpt lat="45.83657" lon="4.83506">
        <ele>167</ele>
        <time>2024-09-20T08:29:36Z</time>
      </trkpt>
      <trkpt lat="45.83659" lon="4.83502">
        <ele>167</ele>
        <time>2024-09-20T08:29:37Z</time>
      </trkpt>
      <trkpt lat="45.83661" lon="4.83498">
        <ele>167</ele>
        <time>2024-09-20T08:29:38Z</time>
      </trkpt>
      <trkpt lat="45.83664" lon="4.83494">
        <ele>167</ele>
        <time>2024-09-20T08:29:39Z</time>
      </trkpt>
      <trkpt lat="45.83667" lon="4.8349">
        <ele>167</ele>
        <time>2024-09-20T08:29:40Z</time>
      </trkpt>
      <trkpt lat="45.8367" lon="4.83486">
        <ele>167</ele>
        <time>2024-09-20T08:29:41Z</time>
      </trkpt>
      <trkpt lat="45.83673" lon="4.83483">
        <ele>167</ele>
        <time>2024-09-20T08:29:42Z</time>
      </trkpt>
      <trkpt lat="45.83676" lon="4.83479">
        <ele>167</ele>
        <time>2024-09-20T08:29:43Z</time>
      </trkpt>
      <trkpt lat="45.83679" lon="4.83475">
        <ele>167.4</ele>
        <time>2024-09-20T08:29:44Z</time>
      </trkpt>
      <trkpt lat="45.83683" lon="4.83471">
        <ele>167.4</ele>
        <time>2024-09-20T08:29:45Z</time>
      </trkpt>
      <trkpt lat="45.83686" lon="4.83467">
        <ele>167.4</ele>
        <time>2024-09-20T08:29:46Z</time>
      </trkpt>
      <trkpt lat="45.8369" lon="4.83463">
        <ele>167.4</ele>
        <time>2024-09-20T08:29:47Z</time>
      </trkpt>
      <trkpt lat="45.83693" lon="4.83459">
        <ele>166.8</ele>
        <time>2024-09-20T08:29:48Z</time>
      </trkpt>
      <trkpt lat="45.83696" lon="4.83455">
        <ele>167</ele>
        <time>2024-09-20T08:29:49Z</time>
      </trkpt>
      <trkpt lat="45.837" lon="4.83452">
        <ele>167</ele>
        <time>2024-09-20T08:29:50Z</time>
      </trkpt>
      <trkpt lat="45.83703" lon="4.83448">
        <ele>167</ele>
        <time>2024-09-20T08:29:51Z</time>
      </trkpt>
      <trkpt lat="45.83706" lon="4.83445">
        <ele>167</ele>
        <time>2024-09-20T08:29:52Z</time>
      </trkpt>
      <trkpt lat="45.83709" lon="4.83441">
        <ele>166.6</ele>
        <time>2024-09-20T08:29:53Z</time>
      </trkpt>
      <trkpt lat="45.83713" lon="4.83438">
        <ele>166.6</ele>
        <time>2024-09-20T08:29:54Z</time>
      </trkpt>
      <trkpt lat="45.83716" lon="4.83435">
        <ele>166.6</ele>
        <time>2024-09-20T08:29:55Z</time>
      </trkpt>
      <trkpt lat="45.83719" lon="4.83433">
        <ele>166.6</ele>
        <time>2024-09-20T08:29:56Z</time>
      </trkpt>
      <trkpt lat="45.83721" lon="4.83431">
        <ele>166.6</ele>
        <time>2024-09-20T08:29:57Z</time>
      </trkpt>
      <trkpt lat="45.83724" lon="4.8343">
        <ele>166.8</ele>
        <time>2024-09-20T08:29:58Z</time>
      </trkpt>
      <trkpt lat="45.83726" lon="4.83428">
        <ele>166.8</ele>
        <time>2024-09-20T08:29:59Z</time>
      </trkpt>
      <trkpt lat="45.83728" lon="4.83426">
        <ele>166.8</ele>
        <time>2024-09-20T08:30:00Z</time>
      </trkpt>
      <trkpt lat="45.8373" lon="4.83424">
        <ele>167</ele>
        <time>2024-09-20T08:30:01Z</time>
      </trkpt>
      <trkpt lat="45.83732" lon="4.83423">
        <ele>167</ele>
        <time>2024-09-20T08:30:02Z</time>
      </trkpt>
      <trkpt lat="45.83733" lon="4.83422">
        <ele>167</ele>
        <time>2024-09-20T08:30:03Z</time>
      </trkpt>
      <trkpt lat="45.83735" lon="4.83421">
        <ele>167</ele>
        <time>2024-09-20T08:30:04Z</time>
      </trkpt>
      <trkpt lat="45.83736" lon="4.8342">
        <ele>167</ele>
        <time>2024-09-20T08:30:05Z</time>
      </trkpt>
      <trkpt lat="45.83736" lon="4.8342">
        <ele>167</ele>
        <time>2024-09-20T08:30:06Z</time>
      </trkpt>
      <trkpt lat="45.83736" lon="4.8342">
        <ele>167</ele>
        <time>2024-09-20T08:30:07Z</time>
      </trkpt>
      <trkpt lat="45.83734" lon="4.83421">
        <ele>167</ele>
        <time>2024-09-20T08:30:35Z</time>
      </trkpt>
      <trkpt lat="45.83733" lon="4.83422">
        <ele>167</ele>
        <time>2024-09-20T08:30:36Z</time>
      </trkpt>
      <trkpt lat="45.83732" lon="4.83423">
        <ele>167</ele>
        <time>2024-09-20T08:30:37Z</time>
      </trkpt>
      <trkpt lat="45.83731" lon="4.83424">
        <ele>167</ele>
        <time>2024-09-20T08:30:38Z</time>
      </trkpt>
      <trkpt lat="45.83729" lon="4.83425">
        <ele>167</ele>
        <time>2024-09-20T08:30:39Z</time>
      </trkpt>
      <trkpt lat="45.83728" lon="4.83426">
        <ele>167.2</ele>
        <time>2024-09-20T08:30:40Z</time>
      </trkpt>
      <trkpt lat="45.83726" lon="4.83427">
        <ele>167.2</ele>
        <time>2024-09-20T08:30:41Z</time>
      </trkpt>
      <trkpt lat="45.83725" lon="4.83427">
        <ele>167.2</ele>
        <time>2024-09-20T08:30:42Z</time>
      </trkpt>
      <trkpt lat="45.83724" lon="4.83428">
        <ele>167.2</ele>
        <time>2024-09-20T08:30:43Z</time>
      </trkpt>
      <trkpt lat="45.83723" lon="4.83429">
        <ele>167.4</ele>
        <time>2024-09-20T08:30:44Z</time>
      </trkpt>
      <trkpt lat="45.83722" lon="4.8343">
        <ele>167.4</ele>
        <time>2024-09-20T08:30:45Z</time>
      </trkpt>
      <trkpt lat="45.83721" lon="4.8343">
        <ele>167.2</ele>
        <time>2024-09-20T08:30:46Z</time>
      </trkpt>
      <trkpt lat="45.8372" lon="4.83432">
        <ele>167.2</ele>
        <time>2024-09-20T08:30:47Z</time>
      </trkpt>
      <trkpt lat="45.83719" lon="4.83433">
        <ele>167.2</ele>
        <time>2024-09-20T08:30:48Z</time>
      </trkpt>
      <trkpt lat="45.83718" lon="4.83434">
        <ele>167.2</ele>
        <time>2024-09-20T08:30:49Z</time>
      </trkpt>
      <trkpt lat="45.83717" lon="4.83434">
        <ele>167.2</ele>
        <time>2024-09-20T08:30:50Z</time>
      </trkpt>
      <trkpt lat="45.83716" lon="4.83435">
        <ele>167.2</ele>
        <time>2024-09-20T08:30:51Z</time>
      </trkpt>
      <trkpt lat="45.83716" lon="4.83436">
        <ele>167.2</ele>
        <time>2024-09-20T08:30:52Z</time>
      </trkpt>
      <trkpt lat="45.83715" lon="4.83436">
        <ele>167.2</ele>
        <time>2024-09-20T08:30:53Z</time>
      </trkpt>
      <trkpt lat="45.83713" lon="4.83436">
        <ele>167.2</ele>
        <time>2024-09-20T08:30:54Z</time>
      </trkpt>
      <trkpt lat="45.83712" lon="4.83435">
        <ele>167</ele>
        <time>2024-09-20T08:30:55Z</time>
      </trkpt>
      <trkpt lat="45.83712" lon="4.83433">
        <ele>167</ele>
        <time>2024-09-20T08:30:56Z</time>
      </trkpt>
      <trkpt lat="45.83712" lon="4.83432">
        <ele>167</ele>
        <time>2024-09-20T08:30:57Z</time>
      </trkpt>
      <trkpt lat="45.83713" lon="4.8343">
        <ele>167</ele>
        <time>2024-09-20T08:30:58Z</time>
      </trkpt>
      <trkpt lat="45.83713" lon="4.83429">
        <ele>166.6</ele>
        <time>2024-09-20T08:30:59Z</time>
      </trkpt>
      <trkpt lat="45.83713" lon="4.83427">
        <ele>166.6</ele>
        <time>2024-09-20T08:31:00Z</time>
      </trkpt>
      <trkpt lat="45.83713" lon="4.83425">
        <ele>166</ele>
        <time>2024-09-20T08:31:01Z</time>
      </trkpt>
      <trkpt lat="45.83713" lon="4.83423">
        <ele>166</ele>
        <time>2024-09-20T08:31:02Z</time>
      </trkpt>
      <trkpt lat="45.83713" lon="4.83422">
        <ele>165.8</ele>
        <time>2024-09-20T08:31:03Z</time>
      </trkpt>
      <trkpt lat="45.83714" lon="4.83421">
        <ele>165.8</ele>
        <time>2024-09-20T08:31:04Z</time>
      </trkpt>
      <trkpt lat="45.83715" lon="4.8342">
        <ele>165.8</ele>
        <time>2024-09-20T08:31:05Z</time>
      </trkpt>
      <trkpt lat="45.83716" lon="4.8342">
        <ele>165.8</ele>
        <time>2024-09-20T08:31:06Z</time>
      </trkpt>
      <trkpt lat="45.83717" lon="4.8342">
        <ele>165.8</ele>
        <time>2024-09-20T08:31:07Z</time>
      </trkpt>
      <trkpt lat="45.83718" lon="4.83419">
        <ele>165.8</ele>
        <time>2024-09-20T08:31:08Z</time>
      </trkpt>
      <trkpt lat="45.83719" lon="4.83418">
        <ele>165.8</ele>
        <time>2024-09-20T08:31:09Z</time>
      </trkpt>
      <trkpt lat="45.83719" lon="4.83418">
        <ele>165.8</ele>
        <time>2024-09-20T08:31:10Z</time>
      </trkpt>
      <trkpt lat="45.83719" lon="4.83418">
        <ele>165.8</ele>
        <time>2024-09-20T08:31:11Z</time>
      </trkpt>
      <trkpt lat="45.83719" lon="4.83418">
        <ele>165.8</ele>
        <time>2024-09-20T08:31:12Z</time>
      </trkpt>
      <trkpt lat="45.83722" lon="4.83416">
        <ele>165.2</ele>
        <time>2024-09-20T08:31:17Z</time>
      </trkpt>
      <trkpt lat="45.83723" lon="4.83415">
        <ele>165.2</ele>
        <time>2024-09-20T08:31:18Z</time>
      </trkpt>
      <trkpt lat="45.83723" lon="4.83414">
        <ele>165.2</ele>
        <time>2024-09-20T08:31:19Z</time>
      </trkpt>
      <trkpt lat="45.83719" lon="4.8341">
        <ele>165.4</ele>
        <time>2024-09-20T08:56:34Z</time>
      </trkpt>
      <trkpt lat="45.83718" lon="4.8341">
        <ele>165.4</ele>
        <time>2024-09-20T08:56:35Z</time>
      </trkpt>
      <trkpt lat="45.83718" lon="4.83411">
        <ele>165.4</ele>
        <time>2024-09-20T08:56:36Z</time>
      </trkpt>
      <trkpt lat="45.83718" lon="4.83411">
        <ele>165.4</ele>
        <time>2024-09-20T08:56:37Z</time>
      </trkpt>
      <trkpt lat="45.83713" lon="4.83414">
        <ele>165.6</ele>
        <time>2024-09-20T08:57:18Z</time>
      </trkpt>
      <trkpt lat="45.83712" lon="4.83414">
        <ele>165.6</ele>
        <time>2024-09-20T08:57:19Z</time>
      </trkpt>
      <trkpt lat="45.83712" lon="4.83415">
        <ele>165.6</ele>
        <time>2024-09-20T08:57:20Z</time>
      </trkpt>
      <trkpt lat="45.83711" lon="4.83416">
        <ele>165.6</ele>
        <time>2024-09-20T08:57:21Z</time>
      </trkpt>
      <trkpt lat="45.83711" lon="4.83418">
        <ele>165.6</ele>
        <time>2024-09-20T08:57:22Z</time>
      </trkpt>
      <trkpt lat="45.83711" lon="4.83419">
        <ele>165.6</ele>
        <time>2024-09-20T08:57:23Z</time>
      </trkpt>
      <trkpt lat="45.83711" lon="4.8342">
        <ele>165.6</ele>
        <time>2024-09-20T08:57:24Z</time>
      </trkpt>
      <trkpt lat="45.83711" lon="4.83422">
        <ele>165.6</ele>
        <time>2024-09-20T08:57:25Z</time>
      </trkpt>
      <trkpt lat="45.83711" lon="4.83424">
        <ele>165.6</ele>
        <time>2024-09-20T08:57:26Z</time>
      </trkpt>
      <trkpt lat="45.83711" lon="4.83425">
        <ele>165.6</ele>
        <time>2024-09-20T08:57:27Z</time>
      </trkpt>
      <trkpt lat="45.83712" lon="4.83427">
        <ele>165.6</ele>
        <time>2024-09-20T08:57:28Z</time>
      </trkpt>
      <trkpt lat="45.83712" lon="4.83428">
        <ele>166.2</ele>
        <time>2024-09-20T08:57:29Z</time>
      </trkpt>
      <trkpt lat="45.83712" lon="4.8343">
        <ele>166.4</ele>
        <time>2024-09-20T08:57:30Z</time>
      </trkpt>
      <trkpt lat="45.83712" lon="4.83431">
        <ele>166.4</ele>
        <time>2024-09-20T08:57:31Z</time>
      </trkpt>
      <trkpt lat="45.83712" lon="4.83432">
        <ele>166.4</ele>
        <time>2024-09-20T08:57:32Z</time>
      </trkpt>
      <trkpt lat="45.83711" lon="4.83434">
        <ele>166.6</ele>
        <time>2024-09-20T08:57:33Z</time>
      </trkpt>
      <trkpt lat="45.83711" lon="4.83435">
        <ele>166.6</ele>
        <time>2024-09-20T08:57:34Z</time>
      </trkpt>
      <trkpt lat="45.83711" lon="4.83436">
        <ele>166.6</ele>
        <time>2024-09-20T08:57:35Z</time>
      </trkpt>
      <trkpt lat="45.83711" lon="4.83437">
        <ele>166.6</ele>
        <time>2024-09-20T08:57:36Z</time>
      </trkpt>
      <trkpt lat="45.83711" lon="4.83438">
        <ele>166.6</ele>
        <time>2024-09-20T08:57:37Z</time>
      </trkpt>
      <trkpt lat="45.8371" lon="4.83439">
        <ele>166.8</ele>
        <time>2024-09-20T08:57:38Z</time>
      </trkpt>
      <trkpt lat="45.83709" lon="4.83439">
        <ele>166.8</ele>
        <time>2024-09-20T08:57:39Z</time>
      </trkpt>
      <trkpt lat="45.83709" lon="4.83439">
        <ele>166.8</ele>
        <time>2024-09-20T08:57:40Z</time>
      </trkpt>
      <trkpt lat="45.83706" lon="4.83442">
        <ele>166.8</ele>
        <time>2024-09-20T08:57:56Z</time>
      </trkpt>
      <trkpt lat="45.83706" lon="4.83444">
        <ele>166.8</ele>
        <time>2024-09-20T08:57:57Z</time>
      </trkpt>
      <trkpt lat="45.83705" lon="4.83445">
        <ele>166.8</ele>
        <time>2024-09-20T08:57:58Z</time>
      </trkpt>
      <trkpt lat="45.83704" lon="4.83447">
        <ele>166.8</ele>
        <time>2024-09-20T08:57:59Z</time>
      </trkpt>
      <trkpt lat="45.83702" lon="4.83448">
        <ele>166.8</ele>
        <time>2024-09-20T08:58:00Z</time>
      </trkpt>
      <trkpt lat="45.83701" lon="4.8345">
        <ele>166.8</ele>
        <time>2024-09-20T08:58:01Z</time>
      </trkpt>
      <trkpt lat="45.837" lon="4.83451">
        <ele>166.8</ele>
        <time>2024-09-20T08:58:02Z</time>
      </trkpt>
      <trkpt lat="45.83698" lon="4.83453">
        <ele>166.8</ele>
        <time>2024-09-20T08:58:03Z</time>
      </trkpt>
      <trkpt lat="45.83696" lon="4.83455">
        <ele>166.8</ele>
        <time>2024-09-20T08:58:04Z</time>
      </trkpt>
      <trkpt lat="45.83695" lon="4.83457">
        <ele>166.8</ele>
        <time>2024-09-20T08:58:05Z</time>
      </trkpt>
      <trkpt lat="45.83693" lon="4.83459">
        <ele>167</ele>
        <time>2024-09-20T08:58:06Z</time>
      </trkpt>
      <trkpt lat="45.8369" lon="4.83461">
        <ele>167</ele>
        <time>2024-09-20T08:58:07Z</time>
      </trkpt>
      <trkpt lat="45.83688" lon="4.83464">
        <ele>167</ele>
        <time>2024-09-20T08:58:08Z</time>
      </trkpt>
      <trkpt lat="45.83686" lon="4.83466">
        <ele>167</ele>
        <time>2024-09-20T08:58:09Z</time>
      </trkpt>
      <trkpt lat="45.83683" lon="4.83469">
        <ele>167</ele>
        <time>2024-09-20T08:58:10Z</time>
      </trkpt>
      <trkpt lat="45.83681" lon="4.83472">
        <ele>167</ele>
        <time>2024-09-20T08:58:11Z</time>
      </trkpt>
      <trkpt lat="45.83678" lon="4.83475">
        <ele>167</ele>
        <time>2024-09-20T08:58:12Z</time>
      </trkpt>
      <trkpt lat="45.83676" lon="4.83478">
        <ele>166.8</ele>
        <time>2024-09-20T08:58:13Z</time>
      </trkpt>
      <trkpt lat="45.83674" lon="4.83481">
        <ele>166.8</ele>
        <time>2024-09-20T08:58:14Z</time>
      </trkpt>
      <trkpt lat="45.83671" lon="4.83484">
        <ele>166.8</ele>
        <time>2024-09-20T08:58:15Z</time>
      </trkpt>
      <trkpt lat="45.83668" lon="4.83488">
        <ele>166.8</ele>
        <time>2024-09-20T08:58:16Z</time>
      </trkpt>
      <trkpt lat="45.83666" lon="4.83491">
        <ele>166.8</ele>
        <time>2024-09-20T08:58:17Z</time>
      </trkpt>
      <trkpt lat="45.83663" lon="4.83494">
        <ele>167</ele>
        <time>2024-09-20T08:58:18Z</time>
      </trkpt>
      <trkpt lat="45.8366" lon="4.83498">
        <ele>167</ele>
        <time>2024-09-20T08:58:19Z</time>
      </trkpt>
      <trkpt lat="45.83658" lon="4.83501">
        <ele>166.8</ele>
        <time>2024-09-20T08:58:20Z</time>
      </trkpt>
      <trkpt lat="45.83655" lon="4.83505">
        <ele>166.8</ele>
        <time>2024-09-20T08:58:21Z</time>
      </trkpt>
      <trkpt lat="45.83652" lon="4.83508">
        <ele>167</ele>
        <time>2024-09-20T08:58:22Z</time>
      </trkpt>
      <trkpt lat="45.83649" lon="4.83512">
        <ele>167</ele>
        <time>2024-09-20T08:58:23Z</time>
      </trkpt>
      <trkpt lat="45.83646" lon="4.83516">
        <ele>167</ele>
        <time>2024-09-20T08:58:24Z</time>
      </trkpt>
      <trkpt lat="45.83644" lon="4.8352">
        <ele>167</ele>
        <time>2024-09-20T08:58:25Z</time>
      </trkpt>
      <trkpt lat="45.83641" lon="4.83524">
        <ele>167</ele>
        <time>2024-09-20T08:58:26Z</time>
      </trkpt>
      <trkpt lat="45.83639" lon="4.83528">
        <ele>166.8</ele>
        <time>2024-09-20T08:58:27Z</time>
      </trkpt>
      <trkpt lat="45.83636" lon="4.83533">
        <ele>166.8</ele>
        <time>2024-09-20T08:58:28Z</time>
      </trkpt>
      <trkpt lat="45.83634" lon="4.83537">
        <ele>166.8</ele>
        <time>2024-09-20T08:58:29Z</time>
      </trkpt>
      <trkpt lat="45.83631" lon="4.83541">
        <ele>166.8</ele>
        <time>2024-09-20T08:58:30Z</time>
      </trkpt>
      <trkpt lat="45.83628" lon="4.83545">
        <ele>167</ele>
        <time>2024-09-20T08:58:31Z</time>
      </trkpt>
      <trkpt lat="45.83626" lon="4.8355">
        <ele>167</ele>
        <time>2024-09-20T08:58:32Z</time>
      </trkpt>
      <trkpt lat="45.83623" lon="4.83554">
        <ele>167</ele>
        <time>2024-09-20T08:58:33Z</time>
      </trkpt>
      <trkpt lat="45.83621" lon="4.83559">
        <ele>167</ele>
        <time>2024-09-20T08:58:34Z</time>
      </trkpt>
      <trkpt lat="45.83618" lon="4.83563">
        <ele>167.2</ele>
        <time>2024-09-20T08:58:35Z</time>
      </trkpt>
      <trkpt lat="45.83616" lon="4.83567">
        <ele>167</ele>
        <time>2024-09-20T08:58:36Z</time>
      </trkpt>
      <trkpt lat="45.83613" lon="4.83572">
        <ele>167</ele>
        <time>2024-09-20T08:58:37Z</time>
      </trkpt>
      <trkpt lat="45.83611" lon="4.83576">
        <ele>167</ele>
        <time>2024-09-20T08:58:38Z</time>
      </trkpt>
      <trkpt lat="45.83608" lon="4.83581">
        <ele>167</ele>
        <time>2024-09-20T08:58:39Z</time>
      </trkpt>
      <trkpt lat="45.83606" lon="4.83585">
        <ele>167</ele>
        <time>2024-09-20T08:58:40Z</time>
      </trkpt>
      <trkpt lat="45.83604" lon="4.8359">
        <ele>167</ele>
        <time>2024-09-20T08:58:41Z</time>
      </trkpt>
      <trkpt lat="45.83601" lon="4.83594">
        <ele>166.8</ele>
        <time>2024-09-20T08:58:42Z</time>
      </trkpt>
      <trkpt lat="45.83599" lon="4.83599">
        <ele>166.8</ele>
        <time>2024-09-20T08:58:43Z</time>
      </trkpt>
      <trkpt lat="45.83597" lon="4.83604">
        <ele>166.8</ele>
        <time>2024-09-20T08:58:44Z</time>
      </trkpt>
      <trkpt lat="45.83595" lon="4.83609">
        <ele>166.8</ele>
        <time>2024-09-20T08:58:45Z</time>
      </trkpt>
      <trkpt lat="45.83593" lon="4.83613">
        <ele>166.8</ele>
        <time>2024-09-20T08:58:46Z</time>
      </trkpt>
      <trkpt lat="45.83592" lon="4.83616">
        <ele>166.8</ele>
        <time>2024-09-20T08:58:47Z</time>
      </trkpt>
      <trkpt lat="45.8359" lon="4.83619">
        <ele>166.8</ele>
        <time>2024-09-20T08:58:48Z</time>
      </trkpt>
      <trkpt lat="45.8359" lon="4.8362">
        <ele>166.8</ele>
        <time>2024-09-20T08:58:49Z</time>
      </trkpt>
      <trkpt lat="45.8359" lon="4.8362">
        <ele>167</ele>
        <time>2024-09-20T08:58:50Z</time>
      </trkpt>
      <trkpt lat="45.8359" lon="4.8362">
        <ele>167</ele>
        <time>2024-09-20T08:58:51Z</time>
      </trkpt>
      <trkpt lat="45.8359" lon="4.8362">
        <ele>167</ele>
        <time>2024-09-20T08:58:52Z</time>
      </trkpt>
      <trkpt lat="45.83587" lon="4.83623">
        <ele>166.6</ele>
        <time>2024-09-20T08:59:48Z</time>
      </trkpt>
      <trkpt lat="45.83586" lon="4.83625">
        <ele>166.6</ele>
        <time>2024-09-20T08:59:49Z</time>
      </trkpt>
      <trkpt lat="45.83585" lon="4.83628">
        <ele>166.6</ele>
        <time>2024-09-20T08:59:50Z</time>
      </trkpt>
      <trkpt lat="45.83584" lon="4.83631">
        <ele>166.6</ele>
        <time>2024-09-20T08:59:51Z</time>
      </trkpt>
      <trkpt lat="45.83582" lon="4.83635">
        <ele>166.6</ele>
        <time>2024-09-20T08:59:52Z</time>
      </trkpt>
      <trkpt lat="45.83581" lon="4.83638">
        <ele>166.8</ele>
        <time>2024-09-20T08:59:53Z</time>
      </trkpt>
      <trkpt lat="45.83579" lon="4.83642">
        <ele>166.8</ele>
        <time>2024-09-20T08:59:54Z</time>
      </trkpt>
      <trkpt lat="45.83577" lon="4.83647">
        <ele>166.8</ele>
        <time>2024-09-20T08:59:55Z</time>
      </trkpt>
      <trkpt lat="45.83575" lon="4.83651">
        <ele>166.8</ele>
        <time>2024-09-20T08:59:56Z</time>
      </trkpt>
      <trkpt lat="45.83573" lon="4.83656">
        <ele>166.8</ele>
        <time>2024-09-20T08:59:57Z</time>
      </trkpt>
      <trkpt lat="45.83571" lon="4.83661">
        <ele>167</ele>
        <time>2024-09-20T08:59:58Z</time>
      </trkpt>
      <trkpt lat="45.83569" lon="4.83665">
        <ele>167</ele>
        <time>2024-09-20T08:59:59Z</time>
      </trkpt>
      <trkpt lat="45.83567" lon="4.8367">
        <ele>167</ele>
        <time>2024-09-20T09:00:00Z</time>
      </trkpt>
      <trkpt lat="45.83565" lon="4.83675">
        <ele>167</ele>
        <time>2024-09-20T09:00:01Z</time>
      </trkpt>
      <trkpt lat="45.83563" lon="4.8368">
        <ele>167.2</ele>
        <time>2024-09-20T09:00:02Z</time>
      </trkpt>
      <trkpt lat="45.83561" lon="4.83685">
        <ele>166.8</ele>
        <time>2024-09-20T09:00:03Z</time>
      </trkpt>
      <trkpt lat="45.83559" lon="4.8369">
        <ele>166.8</ele>
        <time>2024-09-20T09:00:04Z</time>
      </trkpt>
      <trkpt lat="45.83557" lon="4.83695">
        <ele>166.8</ele>
        <time>2024-09-20T09:00:05Z</time>
      </trkpt>
      <trkpt lat="45.83555" lon="4.837">
        <ele>167.2</ele>
        <time>2024-09-20T09:00:06Z</time>
      </trkpt>
      <trkpt lat="45.83553" lon="4.83704">
        <ele>167.2</ele>
        <time>2024-09-20T09:00:07Z</time>
      </trkpt>
      <trkpt lat="45.83551" lon="4.83709">
        <ele>167.2</ele>
        <time>2024-09-20T09:00:08Z</time>
      </trkpt>
      <trkpt lat="45.83549" lon="4.83713">
        <ele>167.2</ele>
        <time>2024-09-20T09:00:09Z</time>
      </trkpt>
      <trkpt lat="45.83547" lon="4.83717">
        <ele>167.2</ele>
        <time>2024-09-20T09:00:10Z</time>
      </trkpt>
      <trkpt lat="45.83545" lon="4.83722">
        <ele>167.2</ele>
        <time>2024-09-20T09:00:11Z</time>
      </trkpt>
      <trkpt lat="45.83543" lon="4.83726">
        <ele>167</ele>
        <time>2024-09-20T09:00:12Z</time>
      </trkpt>
      <trkpt lat="45.8354" lon="4.83731">
        <ele>167</ele>
        <time>2024-09-20T09:00:13Z</time>
      </trkpt>
      <trkpt lat="45.83538" lon="4.83735">
        <ele>167</ele>
        <time>2024-09-20T09:00:14Z</time>
      </trkpt>
      <trkpt lat="45.83536" lon="4.83738">
        <ele>167</ele>
        <time>2024-09-20T09:00:15Z</time>
      </trkpt>
      <trkpt lat="45.83534" lon="4.83742">
        <ele>166.6</ele>
        <time>2024-09-20T09:00:16Z</time>
      </trkpt>
      <trkpt lat="45.83532" lon="4.83746">
        <ele>167.2</ele>
        <time>2024-09-20T09:00:17Z</time>
      </trkpt>
      <trkpt lat="45.8353" lon="4.8375">
        <ele>167.2</ele>
        <time>2024-09-20T09:00:18Z</time>
      </trkpt>
      <trkpt lat="45.8353" lon="4.83754">
        <ele>167.2</ele>
        <time>2024-09-20T09:00:19Z</time>
      </trkpt>
      <trkpt lat="45.83529" lon="4.83758">
        <ele>167.2</ele>
        <time>2024-09-20T09:00:20Z</time>
      </trkpt>
      <trkpt lat="45.83527" lon="4.83761">
        <ele>167</ele>
        <time>2024-09-20T09:00:21Z</time>
      </trkpt>
      <trkpt lat="45.83526" lon="4.83764">
        <ele>167</ele>
        <time>2024-09-20T09:00:22Z</time>
      </trkpt>
      <trkpt lat="45.83525" lon="4.83767">
        <ele>167</ele>
        <time>2024-09-20T09:00:23Z</time>
      </trkpt>
      <trkpt lat="45.83524" lon="4.8377">
        <ele>167</ele>
        <time>2024-09-20T09:00:24Z</time>
      </trkpt>
      <trkpt lat="45.83522" lon="4.83774">
        <ele>167</ele>
        <time>2024-09-20T09:00:25Z</time>
      </trkpt>
      <trkpt lat="45.83521" lon="4.83778">
        <ele>167</ele>
        <time>2024-09-20T09:00:26Z</time>
      </trkpt>
      <trkpt lat="45.8352" lon="4.83782">
        <ele>167</ele>
        <time>2024-09-20T09:00:27Z</time>
      </trkpt>
      <trkpt lat="45.83518" lon="4.83786">
        <ele>167</ele>
        <time>2024-09-20T09:00:28Z</time>
      </trkpt>
      <trkpt lat="45.83517" lon="4.8379">
        <ele>167</ele>
        <time>2024-09-20T09:00:29Z</time>
      </trkpt>
      <trkpt lat="45.83515" lon="4.83795">
        <ele>166.8</ele>
        <time>2024-09-20T09:00:30Z</time>
      </trkpt>
      <trkpt lat="45.83514" lon="4.838">
        <ele>166.8</ele>
        <time>2024-09-20T09:00:31Z</time>
      </trkpt>
      <trkpt lat="45.83512" lon="4.83804">
        <ele>166.8</ele>
        <time>2024-09-20T09:00:32Z</time>
      </trkpt>
      <trkpt lat="45.8351" lon="4.83809">
        <ele>166.8</ele>
        <time>2024-09-20T09:00:33Z</time>
      </trkpt>
      <trkpt lat="45.83509" lon="4.83814">
        <ele>167</ele>
        <time>2024-09-20T09:00:34Z</time>
      </trkpt>
      <trkpt lat="45.83507" lon="4.83819">
        <ele>167</ele>
        <time>2024-09-20T09:00:35Z</time>
      </trkpt>
      <trkpt lat="45.83505" lon="4.83824">
        <ele>167</ele>
        <time>2024-09-20T09:00:36Z</time>
      </trkpt>
      <trkpt lat="45.83504" lon="4.83828">
        <ele>167</ele>
        <time>2024-09-20T09:00:37Z</time>
      </trkpt>
      <trkpt lat="45.83503" lon="4.83833">
        <ele>167</ele>
        <time>2024-09-20T09:00:38Z</time>
      </trkpt>
      <trkpt lat="45.83502" lon="4.83837">
        <ele>166.8</ele>
        <time>2024-09-20T09:00:39Z</time>
      </trkpt>
      <trkpt lat="45.83502" lon="4.83843">
        <ele>166.8</ele>
        <time>2024-09-20T09:00:40Z</time>
      </trkpt>
      <trkpt lat="45.83501" lon="4.83848">
        <ele>166.8</ele>
        <time>2024-09-20T09:00:41Z</time>
      </trkpt>
      <trkpt lat="45.835" lon="4.83853">
        <ele>166.8</ele>
        <time>2024-09-20T09:00:42Z</time>
      </trkpt>
      <trkpt lat="45.83499" lon="4.83858">
        <ele>166.8</ele>
        <time>2024-09-20T09:00:43Z</time>
      </trkpt>
      <trkpt lat="45.83497" lon="4.83863">
        <ele>166.8</ele>
        <time>2024-09-20T09:00:44Z</time>
      </trkpt>
      <trkpt lat="45.83496" lon="4.83869">
        <ele>166.8</ele>
        <time>2024-09-20T09:00:45Z</time>
      </trkpt>
      <trkpt lat="45.83495" lon="4.83873">
        <ele>166.8</ele>
        <time>2024-09-20T09:00:46Z</time>
      </trkpt>
      <trkpt lat="45.83494" lon="4.83879">
        <ele>167</ele>
        <time>2024-09-20T09:00:47Z</time>
      </trkpt>
      <trkpt lat="45.83493" lon="4.83884">
        <ele>167</ele>
        <time>2024-09-20T09:00:48Z</time>
      </trkpt>
      <trkpt lat="45.83491" lon="4.8389">
        <ele>167</ele>
        <time>2024-09-20T09:00:49Z</time>
      </trkpt>
      <trkpt lat="45.8349" lon="4.83895">
        <ele>167</ele>
        <time>2024-09-20T09:00:50Z</time>
      </trkpt>
      <trkpt lat="45.83488" lon="4.839">
        <ele>167</ele>
        <time>2024-09-20T09:00:51Z</time>
      </trkpt>
      <trkpt lat="45.83487" lon="4.83905">
        <ele>167</ele>
        <time>2024-09-20T09:00:52Z</time>
      </trkpt>
      <trkpt lat="45.83485" lon="4.83911">
        <ele>167</ele>
        <time>2024-09-20T09:00:53Z</time>
      </trkpt>
      <trkpt lat="45.83484" lon="4.83916">
        <ele>167</ele>
        <time>2024-09-20T09:00:54Z</time>
      </trkpt>
      <trkpt lat="45.83483" lon="4.83922">
        <ele>167</ele>
        <time>2024-09-20T09:00:55Z</time>
      </trkpt>
      <trkpt lat="45.83481" lon="4.83927">
        <ele>167.2</ele>
        <time>2024-09-20T09:00:56Z</time>
      </trkpt>
      <trkpt lat="45.83479" lon="4.83933">
        <ele>167.2</ele>
        <time>2024-09-20T09:00:57Z</time>
      </trkpt>
      <trkpt lat="45.83478" lon="4.83938">
        <ele>167.2</ele>
        <time>2024-09-20T09:00:58Z</time>
      </trkpt>
      <trkpt lat="45.83476" lon="4.83944">
        <ele>167.2</ele>
        <time>2024-09-20T09:00:59Z</time>
      </trkpt>
      <trkpt lat="45.83475" lon="4.8395">
        <ele>167.2</ele>
        <time>2024-09-20T09:01:00Z</time>
      </trkpt>
      <trkpt lat="45.83474" lon="4.83955">
        <ele>167.2</ele>
        <time>2024-09-20T09:01:01Z</time>
      </trkpt>
      <trkpt lat="45.83473" lon="4.83961">
        <ele>167.2</ele>
        <time>2024-09-20T09:01:02Z</time>
      </trkpt>
      <trkpt lat="45.83471" lon="4.83967">
        <ele>167.2</ele>
        <time>2024-09-20T09:01:03Z</time>
      </trkpt>
      <trkpt lat="45.8347" lon="4.83972">
        <ele>167.2</ele>
        <time>2024-09-20T09:01:04Z</time>
      </trkpt>
      <trkpt lat="45.83469" lon="4.83978">
        <ele>167</ele>
        <time>2024-09-20T09:01:05Z</time>
      </trkpt>
      <trkpt lat="45.83468" lon="4.83985">
        <ele>167.2</ele>
        <time>2024-09-20T09:01:06Z</time>
      </trkpt>
      <trkpt lat="45.83466" lon="4.83991">
        <ele>167.2</ele>
        <time>2024-09-20T09:01:07Z</time>
      </trkpt>
      <trkpt lat="45.83465" lon="4.83997">
        <ele>167.2</ele>
        <time>2024-09-20T09:01:08Z</time>
      </trkpt>
      <trkpt lat="45.83464" lon="4.84003">
        <ele>167.2</ele>
        <time>2024-09-20T09:01:09Z</time>
      </trkpt>
      <trkpt lat="45.83462" lon="4.84008">
        <ele>167.2</ele>
        <time>2024-09-20T09:01:10Z</time>
      </trkpt>
      <trkpt lat="45.83461" lon="4.84014">
        <ele>167.2</ele>
        <time>2024-09-20T09:01:11Z</time>
      </trkpt>
      <trkpt lat="45.83459" lon="4.84021">
        <ele>167.2</ele>
        <time>2024-09-20T09:01:12Z</time>
      </trkpt>
      <trkpt lat="45.83458" lon="4.84027">
        <ele>167.2</ele>
        <time>2024-09-20T09:01:13Z</time>
      </trkpt>
      <trkpt lat="45.83457" lon="4.84033">
        <ele>167.2</ele>
        <time>2024-09-20T09:01:14Z</time>
      </trkpt>
      <trkpt lat="45.83455" lon="4.84039">
        <ele>167.2</ele>
        <time>2024-09-20T09:01:15Z</time>
      </trkpt>
      <trkpt lat="45.83454" lon="4.84045">
        <ele>167.2</ele>
        <time>2024-09-20T09:01:16Z</time>
      </trkpt>
      <trkpt lat="45.83452" lon="4.84052">
        <ele>167.2</ele>
        <time>2024-09-20T09:01:17Z</time>
      </trkpt>
      <trkpt lat="45.83451" lon="4.84058">
        <ele>167.2</ele>
        <time>2024-09-20T09:01:18Z</time>
      </trkpt>
      <trkpt lat="45.83449" lon="4.84064">
        <ele>167.2</ele>
        <time>2024-09-20T09:01:19Z</time>
      </trkpt>
      <trkpt lat="45.83447" lon="4.8407">
        <ele>167</ele>
        <time>2024-09-20T09:01:20Z</time>
      </trkpt>
      <trkpt lat="45.83446" lon="4.84076">
        <ele>167</ele>
        <time>2024-09-20T09:01:21Z</time>
      </trkpt>
      <trkpt lat="45.83445" lon="4.84082">
        <ele>167</ele>
        <time>2024-09-20T09:01:22Z</time>
      </trkpt>
      <trkpt lat="45.83443" lon="4.84088">
        <ele>167</ele>
        <time>2024-09-20T09:01:23Z</time>
      </trkpt>
      <trkpt lat="45.83441" lon="4.84093">
        <ele>166.8</ele>
        <time>2024-09-20T09:01:24Z</time>
      </trkpt>
      <trkpt lat="45.83439" lon="4.84098">
        <ele>166.8</ele>
        <time>2024-09-20T09:01:25Z</time>
      </trkpt>
      <trkpt lat="45.83438" lon="4.84104">
        <ele>166.8</ele>
        <time>2024-09-20T09:01:26Z</time>
      </trkpt>
      <trkpt lat="45.83436" lon="4.84109">
        <ele>167.4</ele>
        <time>2024-09-20T09:01:27Z</time>
      </trkpt>
      <trkpt lat="45.83435" lon="4.84115">
        <ele>167.4</ele>
        <time>2024-09-20T09:01:28Z</time>
      </trkpt>
      <trkpt lat="45.83435" lon="4.8412">
        <ele>167.6</ele>
        <time>2024-09-20T09:01:29Z</time>
      </trkpt>
      <trkpt lat="45.83434" lon="4.84125">
        <ele>167.6</ele>
        <time>2024-09-20T09:01:30Z</time>
      </trkpt>
      <trkpt lat="45.83433" lon="4.84131">
        <ele>167.6</ele>
        <time>2024-09-20T09:01:31Z</time>
      </trkpt>
      <trkpt lat="45.83432" lon="4.84136">
        <ele>167.8</ele>
        <time>2024-09-20T09:01:32Z</time>
      </trkpt>
      <trkpt lat="45.83431" lon="4.84141">
        <ele>167.8</ele>
        <time>2024-09-20T09:01:33Z</time>
      </trkpt>
      <trkpt lat="45.8343" lon="4.84145">
        <ele>168</ele>
        <time>2024-09-20T09:01:34Z</time>
      </trkpt>
      <trkpt lat="45.8343" lon="4.84149">
        <ele>168</ele>
        <time>2024-09-20T09:01:35Z</time>
      </trkpt>
      <trkpt lat="45.83429" lon="4.84154">
        <ele>168</ele>
        <time>2024-09-20T09:01:36Z</time>
      </trkpt>
      <trkpt lat="45.83428" lon="4.84157">
        <ele>168.4</ele>
        <time>2024-09-20T09:01:37Z</time>
      </trkpt>
      <trkpt lat="45.83428" lon="4.84162">
        <ele>168.6</ele>
        <time>2024-09-20T09:01:38Z</time>
      </trkpt>
      <trkpt lat="45.83427" lon="4.84165">
        <ele>168.6</ele>
        <time>2024-09-20T09:01:39Z</time>
      </trkpt>
      <trkpt lat="45.83426" lon="4.84169">
        <ele>168.6</ele>
        <time>2024-09-20T09:01:40Z</time>
      </trkpt>
      <trkpt lat="45.83424" lon="4.84173">
        <ele>168.8</ele>
        <time>2024-09-20T09:01:41Z</time>
      </trkpt>
      <trkpt lat="45.83423" lon="4.84178">
        <ele>168.8</ele>
        <time>2024-09-20T09:01:42Z</time>
      </trkpt>
      <trkpt lat="45.83422" lon="4.84181">
        <ele>168.8</ele>
        <time>2024-09-20T09:01:43Z</time>
      </trkpt>
      <trkpt lat="45.83421" lon="4.84184">
        <ele>168.8</ele>
        <time>2024-09-20T09:01:44Z</time>
      </trkpt>
      <trkpt lat="45.83422" lon="4.84187">
        <ele>168.8</ele>
        <time>2024-09-20T09:01:45Z</time>
      </trkpt>
      <trkpt lat="45.83422" lon="4.84189">
        <ele>169.2</ele>
        <time>2024-09-20T09:01:46Z</time>
      </trkpt>
      <trkpt lat="45.83422" lon="4.84192">
        <ele>169.6</ele>
        <time>2024-09-20T09:01:47Z</time>
      </trkpt>
      <trkpt lat="45.83422" lon="4.84194">
        <ele>169.6</ele>
        <time>2024-09-20T09:01:48Z</time>
      </trkpt>
      <trkpt lat="45.83422" lon="4.84197">
        <ele>169.6</ele>
        <time>2024-09-20T09:01:49Z</time>
      </trkpt>
      <trkpt lat="45.83421" lon="4.842">
        <ele>170.2</ele>
        <time>2024-09-20T09:01:50Z</time>
      </trkpt>
      <trkpt lat="45.83421" lon="4.84203">
        <ele>170.4</ele>
        <time>2024-09-20T09:01:51Z</time>
      </trkpt>
      <trkpt lat="45.83421" lon="4.84206">
        <ele>170.4</ele>
        <time>2024-09-20T09:01:52Z</time>
      </trkpt>
      <trkpt lat="45.8342" lon="4.84208">
        <ele>170.4</ele>
        <time>2024-09-20T09:01:53Z</time>
      </trkpt>
      <trkpt lat="45.8342" lon="4.84211">
        <ele>171</ele>
        <time>2024-09-20T09:01:54Z</time>
      </trkpt>
      <trkpt lat="45.83419" lon="4.84213">
        <ele>171</ele>
        <time>2024-09-20T09:01:55Z</time>
      </trkpt>
      <trkpt lat="45.83419" lon="4.84216">
        <ele>171</ele>
        <time>2024-09-20T09:01:56Z</time>
      </trkpt>
      <trkpt lat="45.83418" lon="4.84219">
        <ele>171</ele>
        <time>2024-09-20T09:01:57Z</time>
      </trkpt>
      <trkpt lat="45.83418" lon="4.84223">
        <ele>171</ele>
        <time>2024-09-20T09:01:58Z</time>
      </trkpt>
      <trkpt lat="45.83417" lon="4.84227">
        <ele>171.2</ele>
        <time>2024-09-20T09:01:59Z</time>
      </trkpt>
      <trkpt lat="45.83416" lon="4.84232">
        <ele>171.2</ele>
        <time>2024-09-20T09:02:00Z</time>
      </trkpt>
      <trkpt lat="45.83415" lon="4.84236">
        <ele>171.2</ele>
        <time>2024-09-20T09:02:01Z</time>
      </trkpt>
      <trkpt lat="45.83415" lon="4.84241">
        <ele>171.2</ele>
        <time>2024-09-20T09:02:02Z</time>
      </trkpt>
      <trkpt lat="45.83413" lon="4.84246">
        <ele>171.6</ele>
        <time>2024-09-20T09:02:03Z</time>
      </trkpt>
      <trkpt lat="45.83412" lon="4.84251">
        <ele>171.4</ele>
        <time>2024-09-20T09:02:04Z</time>
      </trkpt>
      <trkpt lat="45.83411" lon="4.84256">
        <ele>171.4</ele>
        <time>2024-09-20T09:02:05Z</time>
      </trkpt>
      <trkpt lat="45.83409" lon="4.8426">
        <ele>171.4</ele>
        <time>2024-09-20T09:02:06Z</time>
      </trkpt>
      <trkpt lat="45.83407" lon="4.84265">
        <ele>171.4</ele>
        <time>2024-09-20T09:02:07Z</time>
      </trkpt>
      <trkpt lat="45.83406" lon="4.8427">
        <ele>171.4</ele>
        <time>2024-09-20T09:02:08Z</time>
      </trkpt>
      <trkpt lat="45.83404" lon="4.84276">
        <ele>171.4</ele>
        <time>2024-09-20T09:02:09Z</time>
      </trkpt>
      <trkpt lat="45.83402" lon="4.84281">
        <ele>171.4</ele>
        <time>2024-09-20T09:02:10Z</time>
      </trkpt>
      <trkpt lat="45.834" lon="4.84286">
        <ele>171.4</ele>
        <time>2024-09-20T09:02:11Z</time>
      </trkpt>
      <trkpt lat="45.83399" lon="4.84292">
        <ele>171.4</ele>
        <time>2024-09-20T09:02:12Z</time>
      </trkpt>
      <trkpt lat="45.83397" lon="4.84297">
        <ele>171.4</ele>
        <time>2024-09-20T09:02:13Z</time>
      </trkpt>
      <trkpt lat="45.83396" lon="4.84303">
        <ele>171.4</ele>
        <time>2024-09-20T09:02:14Z</time>
      </trkpt>
      <trkpt lat="45.83394" lon="4.84309">
        <ele>171.4</ele>
        <time>2024-09-20T09:02:15Z</time>
      </trkpt>
      <trkpt lat="45.83392" lon="4.84315">
        <ele>171.4</ele>
        <time>2024-09-20T09:02:16Z</time>
      </trkpt>
      <trkpt lat="45.8339" lon="4.84321">
        <ele>171.4</ele>
        <time>2024-09-20T09:02:17Z</time>
      </trkpt>
      <trkpt lat="45.83388" lon="4.84327">
        <ele>171.4</ele>
        <time>2024-09-20T09:02:18Z</time>
      </trkpt>
      <trkpt lat="45.83386" lon="4.84333">
        <ele>171.4</ele>
        <time>2024-09-20T09:02:19Z</time>
      </trkpt>
      <trkpt lat="45.83385" lon="4.84339">
        <ele>171.4</ele>
        <time>2024-09-20T09:02:20Z</time>
      </trkpt>
      <trkpt lat="45.83383" lon="4.84345">
        <ele>171.4</ele>
        <time>2024-09-20T09:02:21Z</time>
      </trkpt>
      <trkpt lat="45.83381" lon="4.8435">
        <ele>171.4</ele>
        <time>2024-09-20T09:02:22Z</time>
      </trkpt>
      <trkpt lat="45.8338" lon="4.84355">
        <ele>171.4</ele>
        <time>2024-09-20T09:02:23Z</time>
      </trkpt>
      <trkpt lat="45.83378" lon="4.8436">
        <ele>171.4</ele>
        <time>2024-09-20T09:02:24Z</time>
      </trkpt>
      <trkpt lat="45.83377" lon="4.84365">
        <ele>171.4</ele>
        <time>2024-09-20T09:02:25Z</time>
      </trkpt>
      <trkpt lat="45.83375" lon="4.8437">
        <ele>171.4</ele>
        <time>2024-09-20T09:02:26Z</time>
      </trkpt>
      <trkpt lat="45.83373" lon="4.84376">
        <ele>171.4</ele>
        <time>2024-09-20T09:02:27Z</time>
      </trkpt>
      <trkpt lat="45.83372" lon="4.84382">
        <ele>171.4</ele>
        <time>2024-09-20T09:02:28Z</time>
      </trkpt>
      <trkpt lat="45.8337" lon="4.84388">
        <ele>171.4</ele>
        <time>2024-09-20T09:02:29Z</time>
      </trkpt>
      <trkpt lat="45.83368" lon="4.84394">
        <ele>171.4</ele>
        <time>2024-09-20T09:02:30Z</time>
      </trkpt>
      <trkpt lat="45.83366" lon="4.844">
        <ele>171.6</ele>
        <time>2024-09-20T09:02:31Z</time>
      </trkpt>
      <trkpt lat="45.83365" lon="4.84407">
        <ele>171.6</ele>
        <time>2024-09-20T09:02:32Z</time>
      </trkpt>
      <trkpt lat="45.83363" lon="4.84413">
        <ele>171.6</ele>
        <time>2024-09-20T09:02:33Z</time>
      </trkpt>
      <trkpt lat="45.83361" lon="4.84419">
        <ele>171.6</ele>
        <time>2024-09-20T09:02:34Z</time>
      </trkpt>
      <trkpt lat="45.8336" lon="4.84425">
        <ele>171.4</ele>
        <time>2024-09-20T09:02:35Z</time>
      </trkpt>
      <trkpt lat="45.83358" lon="4.84432">
        <ele>171.4</ele>
        <time>2024-09-20T09:02:36Z</time>
      </trkpt>
      <trkpt lat="45.83357" lon="4.84438">
        <ele>171.2</ele>
        <time>2024-09-20T09:02:37Z</time>
      </trkpt>
      <trkpt lat="45.83355" lon="4.84444">
        <ele>171.2</ele>
        <time>2024-09-20T09:02:38Z</time>
      </trkpt>
      <trkpt lat="45.83353" lon="4.8445">
        <ele>171</ele>
        <time>2024-09-20T09:02:39Z</time>
      </trkpt>
      <trkpt lat="45.83352" lon="4.84456">
        <ele>170.6</ele>
        <time>2024-09-20T09:02:40Z</time>
      </trkpt>
      <trkpt lat="45.8335" lon="4.84462">
        <ele>170.6</ele>
        <time>2024-09-20T09:02:41Z</time>
      </trkpt>
      <trkpt lat="45.83348" lon="4.84468">
        <ele>170.6</ele>
        <time>2024-09-20T09:02:42Z</time>
      </trkpt>
      <trkpt lat="45.83347" lon="4.84474">
        <ele>170.6</ele>
        <time>2024-09-20T09:02:43Z</time>
      </trkpt>
      <trkpt lat="45.83345" lon="4.8448">
        <ele>170.6</ele>
        <time>2024-09-20T09:02:44Z</time>
      </trkpt>
      <trkpt lat="45.83343" lon="4.84486">
        <ele>170.8</ele>
        <time>2024-09-20T09:02:45Z</time>
      </trkpt>
      <trkpt lat="45.83341" lon="4.84492">
        <ele>170.8</ele>
        <time>2024-09-20T09:02:46Z</time>
      </trkpt>
      <trkpt lat="45.8334" lon="4.84499">
        <ele>170.8</ele>
        <time>2024-09-20T09:02:47Z</time>
      </trkpt>
      <trkpt lat="45.83338" lon="4.84505">
        <ele>171.2</ele>
        <time>2024-09-20T09:02:48Z</time>
      </trkpt>
      <trkpt lat="45.83336" lon="4.84511">
        <ele>171</ele>
        <time>2024-09-20T09:02:49Z</time>
      </trkpt>
      <trkpt lat="45.83334" lon="4.84518">
        <ele>171</ele>
        <time>2024-09-20T09:02:50Z</time>
      </trkpt>
      <trkpt lat="45.83332" lon="4.84524">
        <ele>171</ele>
        <time>2024-09-20T09:02:51Z</time>
      </trkpt>
      <trkpt lat="45.83331" lon="4.8453">
        <ele>171</ele>
        <time>2024-09-20T09:02:52Z</time>
      </trkpt>
      <trkpt lat="45.83329" lon="4.84536">
        <ele>170.6</ele>
        <time>2024-09-20T09:02:53Z</time>
      </trkpt>
      <trkpt lat="45.83327" lon="4.84543">
        <ele>170.6</ele>
        <time>2024-09-20T09:02:54Z</time>
      </trkpt>
      <trkpt lat="45.83325" lon="4.84549">
        <ele>170.6</ele>
        <time>2024-09-20T09:02:55Z</time>
      </trkpt>
      <trkpt lat="45.83324" lon="4.84555">
        <ele>170.6</ele>
        <time>2024-09-20T09:02:56Z</time>
      </trkpt>
      <trkpt lat="45.83322" lon="4.84562">
        <ele>170.6</ele>
        <time>2024-09-20T09:02:57Z</time>
      </trkpt>
      <trkpt lat="45.83321" lon="4.84568">
        <ele>170.6</ele>
        <time>2024-09-20T09:02:58Z</time>
      </trkpt>
      <trkpt lat="45.83319" lon="4.84574">
        <ele>170.6</ele>
        <time>2024-09-20T09:02:59Z</time>
      </trkpt>
      <trkpt lat="45.83317" lon="4.8458">
        <ele>170.6</ele>
        <time>2024-09-20T09:03:00Z</time>
      </trkpt>
      <trkpt lat="45.83316" lon="4.84587">
        <ele>170.6</ele>
        <time>2024-09-20T09:03:01Z</time>
      </trkpt>
      <trkpt lat="45.83314" lon="4.84593">
        <ele>170.6</ele>
        <time>2024-09-20T09:03:02Z</time>
      </trkpt>
      <trkpt lat="45.83313" lon="4.84599">
        <ele>170.2</ele>
        <time>2024-09-20T09:03:03Z</time>
      </trkpt>
      <trkpt lat="45.83311" lon="4.84607">
        <ele>170.2</ele>
        <time>2024-09-20T09:03:04Z</time>
      </trkpt>
      <trkpt lat="45.83309" lon="4.84615">
        <ele>170.2</ele>
        <time>2024-09-20T09:03:05Z</time>
      </trkpt>
      <trkpt lat="45.83307" lon="4.84623">
        <ele>169.4</ele>
        <time>2024-09-20T09:03:06Z</time>
      </trkpt>
      <trkpt lat="45.83305" lon="4.8463">
        <ele>169.4</ele>
        <time>2024-09-20T09:03:07Z</time>
      </trkpt>
      <trkpt lat="45.83303" lon="4.84639">
        <ele>169.4</ele>
        <time>2024-09-20T09:03:08Z</time>
      </trkpt>
      <trkpt lat="45.83301" lon="4.84647">
        <ele>169.4</ele>
        <time>2024-09-20T09:03:09Z</time>
      </trkpt>
      <trkpt lat="45.83299" lon="4.84655">
        <ele>169.4</ele>
        <time>2024-09-20T09:03:10Z</time>
      </trkpt>
      <trkpt lat="45.83297" lon="4.84663">
        <ele>169.2</ele>
        <time>2024-09-20T09:03:11Z</time>
      </trkpt>
      <trkpt lat="45.83295" lon="4.84671">
        <ele>169</ele>
        <time>2024-09-20T09:03:12Z</time>
      </trkpt>
      <trkpt lat="45.83293" lon="4.84679">
        <ele>169</ele>
        <time>2024-09-20T09:03:13Z</time>
      </trkpt>
      <trkpt lat="45.83291" lon="4.84687">
        <ele>169</ele>
        <time>2024-09-20T09:03:14Z</time>
      </trkpt>
      <trkpt lat="45.83288" lon="4.84694">
        <ele>169</ele>
        <time>2024-09-20T09:03:15Z</time>
      </trkpt>
      <trkpt lat="45.83286" lon="4.84702">
        <ele>169</ele>
        <time>2024-09-20T09:03:16Z</time>
      </trkpt>
      <trkpt lat="45.83284" lon="4.8471">
        <ele>169</ele>
        <time>2024-09-20T09:03:17Z</time>
      </trkpt>
      <trkpt lat="45.83282" lon="4.84717">
        <ele>169</ele>
        <time>2024-09-20T09:03:18Z</time>
      </trkpt>
      <trkpt lat="45.83279" lon="4.84724">
        <ele>169</ele>
        <time>2024-09-20T09:03:19Z</time>
      </trkpt>
      <trkpt lat="45.83277" lon="4.84731">
        <ele>169</ele>
        <time>2024-09-20T09:03:20Z</time>
      </trkpt>
      <trkpt lat="45.83275" lon="4.84737">
        <ele>169.2</ele>
        <time>2024-09-20T09:03:21Z</time>
      </trkpt>
      <trkpt lat="45.83273" lon="4.84743">
        <ele>169.2</ele>
        <time>2024-09-20T09:03:22Z</time>
      </trkpt>
      <trkpt lat="45.83271" lon="4.84749">
        <ele>169.2</ele>
        <time>2024-09-20T09:03:23Z</time>
      </trkpt>
      <trkpt lat="45.8327" lon="4.84756">
        <ele>169.2</ele>
        <time>2024-09-20T09:03:24Z</time>
      </trkpt>
      <trkpt lat="45.83268" lon="4.84761">
        <ele>169.8</ele>
        <time>2024-09-20T09:03:25Z</time>
      </trkpt>
      <trkpt lat="45.83266" lon="4.84767">
        <ele>169.8</ele>
        <time>2024-09-20T09:03:26Z</time>
      </trkpt>
      <trkpt lat="45.83265" lon="4.84773">
        <ele>169.8</ele>
        <time>2024-09-20T09:03:27Z</time>
      </trkpt>
      <trkpt lat="45.83264" lon="4.84779">
        <ele>169.8</ele>
        <time>2024-09-20T09:03:28Z</time>
      </trkpt>
      <trkpt lat="45.83262" lon="4.84785">
        <ele>170.4</ele>
        <time>2024-09-20T09:03:29Z</time>
      </trkpt>
      <trkpt lat="45.83261" lon="4.8479">
        <ele>170.4</ele>
        <time>2024-09-20T09:03:30Z</time>
      </trkpt>
      <trkpt lat="45.83259" lon="4.84795">
        <ele>170.4</ele>
        <time>2024-09-20T09:03:31Z</time>
      </trkpt>
      <trkpt lat="45.83257" lon="4.848">
        <ele>170.4</ele>
        <time>2024-09-20T09:03:32Z</time>
      </trkpt>
      <trkpt lat="45.83255" lon="4.84805">
        <ele>170.8</ele>
        <time>2024-09-20T09:03:33Z</time>
      </trkpt>
      <trkpt lat="45.83253" lon="4.8481">
        <ele>171</ele>
        <time>2024-09-20T09:03:34Z</time>
      </trkpt>
      <trkpt lat="45.83251" lon="4.84814">
        <ele>171</ele>
        <time>2024-09-20T09:03:35Z</time>
      </trkpt>
      <trkpt lat="45.83249" lon="4.84819">
        <ele>171</ele>
        <time>2024-09-20T09:03:36Z</time>
      </trkpt>
      <trkpt lat="45.83247" lon="4.84823">
        <ele>171</ele>
        <time>2024-09-20T09:03:37Z</time>
      </trkpt>
      <trkpt lat="45.83245" lon="4.84828">
        <ele>171.4</ele>
        <time>2024-09-20T09:03:38Z</time>
      </trkpt>
      <trkpt lat="45.83244" lon="4.84832">
        <ele>171.4</ele>
        <time>2024-09-20T09:03:39Z</time>
      </trkpt>
      <trkpt lat="45.83242" lon="4.84837">
        <ele>171.4</ele>
        <time>2024-09-20T09:03:40Z</time>
      </trkpt>
      <trkpt lat="45.83241" lon="4.84842">
        <ele>171.6</ele>
        <time>2024-09-20T09:03:41Z</time>
      </trkpt>
      <trkpt lat="45.83239" lon="4.84846">
        <ele>171.8</ele>
        <time>2024-09-20T09:03:42Z</time>
      </trkpt>
      <trkpt lat="45.83238" lon="4.84851">
        <ele>171.8</ele>
        <time>2024-09-20T09:03:43Z</time>
      </trkpt>
      <trkpt lat="45.83236" lon="4.84854">
        <ele>171.8</ele>
        <time>2024-09-20T09:03:44Z</time>
      </trkpt>
      <trkpt lat="45.83235" lon="4.84858">
        <ele>171.8</ele>
        <time>2024-09-20T09:03:45Z</time>
      </trkpt>
      <trkpt lat="45.83233" lon="4.8486">
        <ele>171.8</ele>
        <time>2024-09-20T09:03:46Z</time>
      </trkpt>
      <trkpt lat="45.83231" lon="4.8486">
        <ele>172.2</ele>
        <time>2024-09-20T09:03:47Z</time>
      </trkpt>
      <trkpt lat="45.8323" lon="4.84859">
        <ele>172.2</ele>
        <time>2024-09-20T09:03:48Z</time>
      </trkpt>
      <trkpt lat="45.83228" lon="4.84857">
        <ele>172.2</ele>
        <time>2024-09-20T09:03:49Z</time>
      </trkpt>
      <trkpt lat="45.83226" lon="4.84855">
        <ele>172.2</ele>
        <time>2024-09-20T09:03:50Z</time>
      </trkpt>
      <trkpt lat="45.83224" lon="4.84853">
        <ele>172.2</ele>
        <time>2024-09-20T09:03:51Z</time>
      </trkpt>
      <trkpt lat="45.83222" lon="4.8485">
        <ele>172.6</ele>
        <time>2024-09-20T09:03:52Z</time>
      </trkpt>
      <trkpt lat="45.8322" lon="4.84848">
        <ele>172.6</ele>
        <time>2024-09-20T09:03:53Z</time>
      </trkpt>
      <trkpt lat="45.83217" lon="4.84845">
        <ele>172.6</ele>
        <time>2024-09-20T09:03:54Z</time>
      </trkpt>
      <trkpt lat="45.83215" lon="4.84843">
        <ele>172.6</ele>
        <time>2024-09-20T09:03:55Z</time>
      </trkpt>
      <trkpt lat="45.83212" lon="4.84841">
        <ele>173</ele>
        <time>2024-09-20T09:03:56Z</time>
      </trkpt>
      <trkpt lat="45.8321" lon="4.84838">
        <ele>173</ele>
        <time>2024-09-20T09:03:57Z</time>
      </trkpt>
      <trkpt lat="45.83208" lon="4.84836">
        <ele>173</ele>
        <time>2024-09-20T09:03:58Z</time>
      </trkpt>
      <trkpt lat="45.83206" lon="4.84834">
        <ele>173</ele>
        <time>2024-09-20T09:03:59Z</time>
      </trkpt>
      <trkpt lat="45.83203" lon="4.84831">
        <ele>173.4</ele>
        <time>2024-09-20T09:04:00Z</time>
      </trkpt>
      <trkpt lat="45.83201" lon="4.84829">
        <ele>173.4</ele>
        <time>2024-09-20T09:04:01Z</time>
      </trkpt>
      <trkpt lat="45.83198" lon="4.84827">
        <ele>173.6</ele>
        <time>2024-09-20T09:04:02Z</time>
      </trkpt>
      <trkpt lat="45.83195" lon="4.84824">
        <ele>173.6</ele>
        <time>2024-09-20T09:04:03Z</time>
      </trkpt>
      <trkpt lat="45.83192" lon="4.84822">
        <ele>173.6</ele>
        <time>2024-09-20T09:04:04Z</time>
      </trkpt>
      <trkpt lat="45.83188" lon="4.84818">
        <ele>173.6</ele>
        <time>2024-09-20T09:04:05Z</time>
      </trkpt>
      <trkpt lat="45.83186" lon="4.84815">
        <ele>174</ele>
        <time>2024-09-20T09:04:06Z</time>
      </trkpt>
      <trkpt lat="45.83183" lon="4.84813">
        <ele>174</ele>
        <time>2024-09-20T09:04:07Z</time>
      </trkpt>
      <trkpt lat="45.8318" lon="4.8481">
        <ele>174</ele>
        <time>2024-09-20T09:04:08Z</time>
      </trkpt>
      <trkpt lat="45.83177" lon="4.84807">
        <ele>174.6</ele>
        <time>2024-09-20T09:04:09Z</time>
      </trkpt>
      <trkpt lat="45.83174" lon="4.84804">
        <ele>174.6</ele>
        <time>2024-09-20T09:04:10Z</time>
      </trkpt>
      <trkpt lat="45.83171" lon="4.84801">
        <ele>174.6</ele>
        <time>2024-09-20T09:04:11Z</time>
      </trkpt>
      <trkpt lat="45.83169" lon="4.84798">
        <ele>174.6</ele>
        <time>2024-09-20T09:04:12Z</time>
      </trkpt>
      <trkpt lat="45.83167" lon="4.84796">
        <ele>174.6</ele>
        <time>2024-09-20T09:04:13Z</time>
      </trkpt>
      <trkpt lat="45.83165" lon="4.84795">
        <ele>174.6</ele>
        <time>2024-09-20T09:04:14Z</time>
      </trkpt>
      <trkpt lat="45.83164" lon="4.84793">
        <ele>174.6</ele>
        <time>2024-09-20T09:04:15Z</time>
      </trkpt>
      <trkpt lat="45.83163" lon="4.84792">
        <ele>174.6</ele>
        <time>2024-09-20T09:04:16Z</time>
      </trkpt>
      <trkpt lat="45.83163" lon="4.84792">
        <ele>174.6</ele>
        <time>2024-09-20T09:04:17Z</time>
      </trkpt>
      <trkpt lat="45.83163" lon="4.84792">
        <ele>174.6</ele>
        <time>2024-09-20T09:04:18Z</time>
      </trkpt>
      <trkpt lat="45.83159" lon="4.84789">
        <ele>174.4</ele>
        <time>2024-09-20T09:04:53Z</time>
      </trkpt>
      <trkpt lat="45.83157" lon="4.84787">
        <ele>174.4</ele>
        <time>2024-09-20T09:04:54Z</time>
      </trkpt>
      <trkpt lat="45.83154" lon="4.84784">
        <ele>174.4</ele>
        <time>2024-09-20T09:04:55Z</time>
      </trkpt>
      <trkpt lat="45.83152" lon="4.84782">
        <ele>174.4</ele>
        <time>2024-09-20T09:04:56Z</time>
      </trkpt>
      <trkpt lat="45.83149" lon="4.84779">
        <ele>174.4</ele>
        <time>2024-09-20T09:04:57Z</time>
      </trkpt>
      <trkpt lat="45.83145" lon="4.84776">
        <ele>174.4</ele>
        <time>2024-09-20T09:04:58Z</time>
      </trkpt>
      <trkpt lat="45.83142" lon="4.84772">
        <ele>174</ele>
        <time>2024-09-20T09:04:59Z</time>
      </trkpt>
      <trkpt lat="45.83138" lon="4.84768">
        <ele>173.8</ele>
        <time>2024-09-20T09:05:00Z</time>
      </trkpt>
      <trkpt lat="45.83135" lon="4.84764">
        <ele>173.8</ele>
        <time>2024-09-20T09:05:01Z</time>
      </trkpt>
      <trkpt lat="45.83131" lon="4.8476">
        <ele>173.8</ele>
        <time>2024-09-20T09:05:02Z</time>
      </trkpt>
      <trkpt lat="45.83127" lon="4.84756">
        <ele>173.2</ele>
        <time>2024-09-20T09:05:03Z</time>
      </trkpt>
      <trkpt lat="45.83124" lon="4.84753">
        <ele>173</ele>
        <time>2024-09-20T09:05:04Z</time>
      </trkpt>
      <trkpt lat="45.83121" lon="4.8475">
        <ele>173</ele>
        <time>2024-09-20T09:05:05Z</time>
      </trkpt>
      <trkpt lat="45.83119" lon="4.84747">
        <ele>173</ele>
        <time>2024-09-20T09:05:06Z</time>
      </trkpt>
      <trkpt lat="45.83118" lon="4.84744">
        <ele>172.4</ele>
        <time>2024-09-20T09:05:07Z</time>
      </trkpt>
      <trkpt lat="45.83117" lon="4.84741">
        <ele>172.4</ele>
        <time>2024-09-20T09:05:08Z</time>
      </trkpt>
      <trkpt lat="45.83116" lon="4.84738">
        <ele>172.4</ele>
        <time>2024-09-20T09:05:09Z</time>
      </trkpt>
      <trkpt lat="45.83116" lon="4.84734">
        <ele>172.4</ele>
        <time>2024-09-20T09:05:10Z</time>
      </trkpt>
      <trkpt lat="45.83116" lon="4.8473">
        <ele>172.4</ele>
        <time>2024-09-20T09:05:11Z</time>
      </trkpt>
      <trkpt lat="45.83116" lon="4.84726">
        <ele>172.4</ele>
        <time>2024-09-20T09:05:12Z</time>
      </trkpt>
      <trkpt lat="45.83117" lon="4.84722">
        <ele>171.8</ele>
        <time>2024-09-20T09:05:13Z</time>
      </trkpt>
      <trkpt lat="45.83116" lon="4.84719">
        <ele>171.8</ele>
        <time>2024-09-20T09:05:14Z</time>
      </trkpt>
      <trkpt lat="45.83116" lon="4.84715">
        <ele>171.8</ele>
        <time>2024-09-20T09:05:15Z</time>
      </trkpt>
      <trkpt lat="45.83114" lon="4.84713">
        <ele>171.6</ele>
        <time>2024-09-20T09:05:16Z</time>
      </trkpt>
      <trkpt lat="45.83112" lon="4.8471">
        <ele>171.8</ele>
        <time>2024-09-20T09:05:17Z</time>
      </trkpt>
      <trkpt lat="45.8311" lon="4.84708">
        <ele>171.8</ele>
        <time>2024-09-20T09:05:18Z</time>
      </trkpt>
      <trkpt lat="45.83108" lon="4.84706">
        <ele>171.8</ele>
        <time>2024-09-20T09:05:19Z</time>
      </trkpt>
      <trkpt lat="45.83105" lon="4.84705">
        <ele>171.8</ele>
        <time>2024-09-20T09:05:20Z</time>
      </trkpt>
      <trkpt lat="45.83101" lon="4.84706">
        <ele>171.6</ele>
        <time>2024-09-20T09:05:21Z</time>
      </trkpt>
      <trkpt lat="45.83098" lon="4.84706">
        <ele>171.6</ele>
        <time>2024-09-20T09:05:22Z</time>
      </trkpt>
      <trkpt lat="45.83094" lon="4.84707">
        <ele>171.6</ele>
        <time>2024-09-20T09:05:23Z</time>
      </trkpt>
      <trkpt lat="45.8309" lon="4.84708">
        <ele>171.6</ele>
        <time>2024-09-20T09:05:24Z</time>
      </trkpt>
      <trkpt lat="45.83087" lon="4.84709">
        <ele>171.6</ele>
        <time>2024-09-20T09:05:25Z</time>
      </trkpt>
      <trkpt lat="45.83083" lon="4.84712">
        <ele>172</ele>
        <time>2024-09-20T09:05:26Z</time>
      </trkpt>
      <trkpt lat="45.83081" lon="4.84716">
        <ele>172</ele>
        <time>2024-09-20T09:05:27Z</time>
      </trkpt>
      <trkpt lat="45.83079" lon="4.84721">
        <ele>172</ele>
        <time>2024-09-20T09:05:28Z</time>
      </trkpt>
      <trkpt lat="45.83078" lon="4.84726">
        <ele>172</ele>
        <time>2024-09-20T09:05:29Z</time>
      </trkpt>
      <trkpt lat="45.83078" lon="4.84732">
        <ele>172.2</ele>
        <time>2024-09-20T09:05:30Z</time>
      </trkpt>
      <trkpt lat="45.83078" lon="4.84737">
        <ele>172.2</ele>
        <time>2024-09-20T09:05:31Z</time>
      </trkpt>
      <trkpt lat="45.83078" lon="4.84742">
        <ele>172.2</ele>
        <time>2024-09-20T09:05:32Z</time>
      </trkpt>
      <trkpt lat="45.83078" lon="4.84748">
        <ele>172.2</ele>
        <time>2024-09-20T09:05:33Z</time>
      </trkpt>
      <trkpt lat="45.83079" lon="4.84753">
        <ele>172</ele>
        <time>2024-09-20T09:05:34Z</time>
      </trkpt>
      <trkpt lat="45.8308" lon="4.84756">
        <ele>172</ele>
        <time>2024-09-20T09:05:35Z</time>
      </trkpt>
      <trkpt lat="45.83082" lon="4.84758">
        <ele>172</ele>
        <time>2024-09-20T09:05:36Z</time>
      </trkpt>
      <trkpt lat="45.83084" lon="4.8476">
        <ele>172</ele>
        <time>2024-09-20T09:05:37Z</time>
      </trkpt>
      <trkpt lat="45.83086" lon="4.84762">
        <ele>172</ele>
        <time>2024-09-20T09:05:38Z</time>
      </trkpt>
      <trkpt lat="45.83088" lon="4.84765">
        <ele>171.6</ele>
        <time>2024-09-20T09:05:39Z</time>
      </trkpt>
      <trkpt lat="45.83088" lon="4.84768">
        <ele>172</ele>
        <time>2024-09-20T09:05:40Z</time>
      </trkpt>
      <trkpt lat="45.83087" lon="4.84771">
        <ele>172</ele>
        <time>2024-09-20T09:05:41Z</time>
      </trkpt>
      <trkpt lat="45.83085" lon="4.84774">
        <ele>172</ele>
        <time>2024-09-20T09:05:42Z</time>
      </trkpt>
      <trkpt lat="45.83082" lon="4.84777">
        <ele>172</ele>
        <time>2024-09-20T09:05:43Z</time>
      </trkpt>
      <trkpt lat="45.8308" lon="4.84781">
        <ele>172</ele>
        <time>2024-09-20T09:05:44Z</time>
      </trkpt>
      <trkpt lat="45.83077" lon="4.84784">
        <ele>172</ele>
        <time>2024-09-20T09:05:45Z</time>
      </trkpt>
      <trkpt lat="45.83074" lon="4.84788">
        <ele>172</ele>
        <time>2024-09-20T09:05:46Z</time>
      </trkpt>
      <trkpt lat="45.83072" lon="4.84793">
        <ele>172</ele>
        <time>2024-09-20T09:05:47Z</time>
      </trkpt>
      <trkpt lat="45.83069" lon="4.84798">
        <ele>171.6</ele>
        <time>2024-09-20T09:05:48Z</time>
      </trkpt>
      <trkpt lat="45.83066" lon="4.84803">
        <ele>171.6</ele>
        <time>2024-09-20T09:05:49Z</time>
      </trkpt>
      <trkpt lat="45.83063" lon="4.84809">
        <ele>171.6</ele>
        <time>2024-09-20T09:05:50Z</time>
      </trkpt>
      <trkpt lat="45.83061" lon="4.84815">
        <ele>171.6</ele>
        <time>2024-09-20T09:05:51Z</time>
      </trkpt>
      <trkpt lat="45.83058" lon="4.84821">
        <ele>171</ele>
        <time>2024-09-20T09:05:52Z</time>
      </trkpt>
      <trkpt lat="45.83055" lon="4.84827">
        <ele>171</ele>
        <time>2024-09-20T09:05:53Z</time>
      </trkpt>
      <trkpt lat="45.83053" lon="4.84833">
        <ele>171</ele>
        <time>2024-09-20T09:05:54Z</time>
      </trkpt>
      <trkpt lat="45.83049" lon="4.8484">
        <ele>171</ele>
        <time>2024-09-20T09:05:55Z</time>
      </trkpt>
      <trkpt lat="45.83046" lon="4.84846">
        <ele>171</ele>
        <time>2024-09-20T09:05:56Z</time>
      </trkpt>
      <trkpt lat="45.83043" lon="4.84852">
        <ele>170.6</ele>
        <time>2024-09-20T09:05:57Z</time>
      </trkpt>
      <trkpt lat="45.83039" lon="4.84859">
        <ele>170.2</ele>
        <time>2024-09-20T09:05:58Z</time>
      </trkpt>
      <trkpt lat="45.83036" lon="4.84865">
        <ele>170.2</ele>
        <time>2024-09-20T09:05:59Z</time>
      </trkpt>
      <trkpt lat="45.83032" lon="4.84872">
        <ele>170.2</ele>
        <time>2024-09-20T09:06:00Z</time>
      </trkpt>
      <trkpt lat="45.83029" lon="4.84878">
        <ele>170</ele>
        <time>2024-09-20T09:06:01Z</time>
      </trkpt>
      <trkpt lat="45.83025" lon="4.84884">
        <ele>169.8</ele>
        <time>2024-09-20T09:06:02Z</time>
      </trkpt>
      <trkpt lat="45.83021" lon="4.8489">
        <ele>169.8</ele>
        <time>2024-09-20T09:06:03Z</time>
      </trkpt>
      <trkpt lat="45.83017" lon="4.84896">
        <ele>169.8</ele>
        <time>2024-09-20T09:06:04Z</time>
      </trkpt>
      <trkpt lat="45.83013" lon="4.84901">
        <ele>169.6</ele>
        <time>2024-09-20T09:06:05Z</time>
      </trkpt>
      <trkpt lat="45.8301" lon="4.84906">
        <ele>169.6</ele>
        <time>2024-09-20T09:06:06Z</time>
      </trkpt>
      <trkpt lat="45.83006" lon="4.84911">
        <ele>169.6</ele>
        <time>2024-09-20T09:06:07Z</time>
      </trkpt>
      <trkpt lat="45.83002" lon="4.84916">
        <ele>169.6</ele>
        <time>2024-09-20T09:06:08Z</time>
      </trkpt>
      <trkpt lat="45.82998" lon="4.84921">
        <ele>169.6</ele>
        <time>2024-09-20T09:06:09Z</time>
      </trkpt>
      <trkpt lat="45.82995" lon="4.84926">
        <ele>169.6</ele>
        <time>2024-09-20T09:06:10Z</time>
      </trkpt>
      <trkpt lat="45.82991" lon="4.84931">
        <ele>169.6</ele>
        <time>2024-09-20T09:06:11Z</time>
      </trkpt>
      <trkpt lat="45.82987" lon="4.84936">
        <ele>169.6</ele>
        <time>2024-09-20T09:06:12Z</time>
      </trkpt>
      <trkpt lat="45.82984" lon="4.84941">
        <ele>169.6</ele>
        <time>2024-09-20T09:06:13Z</time>
      </trkpt>
      <trkpt lat="45.8298" lon="4.84945">
        <ele>169.6</ele>
        <time>2024-09-20T09:06:14Z</time>
      </trkpt>
      <trkpt lat="45.82977" lon="4.8495">
        <ele>169.6</ele>
        <time>2024-09-20T09:06:15Z</time>
      </trkpt>
      <trkpt lat="45.82973" lon="4.84955">
        <ele>169.6</ele>
        <time>2024-09-20T09:06:16Z</time>
      </trkpt>
      <trkpt lat="45.8297" lon="4.8496">
        <ele>169.6</ele>
        <time>2024-09-20T09:06:17Z</time>
      </trkpt>
      <trkpt lat="45.82966" lon="4.84965">
        <ele>169.6</ele>
        <time>2024-09-20T09:06:18Z</time>
      </trkpt>
      <trkpt lat="45.82962" lon="4.8497">
        <ele>169.6</ele>
        <time>2024-09-20T09:06:19Z</time>
      </trkpt>
      <trkpt lat="45.82958" lon="4.84974">
        <ele>169.6</ele>
        <time>2024-09-20T09:06:20Z</time>
      </trkpt>
      <trkpt lat="45.82954" lon="4.84979">
        <ele>169.6</ele>
        <time>2024-09-20T09:06:21Z</time>
      </trkpt>
      <trkpt lat="45.8295" lon="4.84984">
        <ele>169.6</ele>
        <time>2024-09-20T09:06:22Z</time>
      </trkpt>
      <trkpt lat="45.82946" lon="4.84989">
        <ele>169.6</ele>
        <time>2024-09-20T09:06:23Z</time>
      </trkpt>
      <trkpt lat="45.82942" lon="4.84994">
        <ele>169.2</ele>
        <time>2024-09-20T09:06:24Z</time>
      </trkpt>
      <trkpt lat="45.82938" lon="4.84999">
        <ele>169.4</ele>
        <time>2024-09-20T09:06:25Z</time>
      </trkpt>
      <trkpt lat="45.82934" lon="4.85003">
        <ele>169.4</ele>
        <time>2024-09-20T09:06:26Z</time>
      </trkpt>
      <trkpt lat="45.8293" lon="4.85008">
        <ele>169.4</ele>
        <time>2024-09-20T09:06:27Z</time>
      </trkpt>
      <trkpt lat="45.82927" lon="4.85013">
        <ele>169.8</ele>
        <time>2024-09-20T09:06:28Z</time>
      </trkpt>
      <trkpt lat="45.82923" lon="4.85017">
        <ele>169.6</ele>
        <time>2024-09-20T09:06:29Z</time>
      </trkpt>
      <trkpt lat="45.82919" lon="4.85022">
        <ele>169.6</ele>
        <time>2024-09-20T09:06:30Z</time>
      </trkpt>
      <trkpt lat="45.82915" lon="4.85027">
        <ele>169.6</ele>
        <time>2024-09-20T09:06:31Z</time>
      </trkpt>
      <trkpt lat="45.82911" lon="4.85033">
        <ele>169.6</ele>
        <time>2024-09-20T09:06:32Z</time>
      </trkpt>
      <trkpt lat="45.82907" lon="4.85038">
        <ele>169.6</ele>
        <time>2024-09-20T09:06:33Z</time>
      </trkpt>
      <trkpt lat="45.82903" lon="4.85043">
        <ele>169.4</ele>
        <time>2024-09-20T09:06:34Z</time>
      </trkpt>
      <trkpt lat="45.82899" lon="4.85047">
        <ele>169.4</ele>
        <time>2024-09-20T09:06:35Z</time>
      </trkpt>
      <trkpt lat="45.82895" lon="4.85052">
        <ele>169.4</ele>
        <time>2024-09-20T09:06:36Z</time>
      </trkpt>
      <trkpt lat="45.82891" lon="4.85057">
        <ele>169.8</ele>
        <time>2024-09-20T09:06:37Z</time>
      </trkpt>
      <trkpt lat="45.82887" lon="4.85062">
        <ele>169.6</ele>
        <time>2024-09-20T09:06:38Z</time>
      </trkpt>
      <trkpt lat="45.82883" lon="4.85066">
        <ele>169.6</ele>
        <time>2024-09-20T09:06:39Z</time>
      </trkpt>
      <trkpt lat="45.82879" lon="4.85071">
        <ele>169.6</ele>
        <time>2024-09-20T09:06:40Z</time>
      </trkpt>
      <trkpt lat="45.82874" lon="4.85076">
        <ele>169.6</ele>
        <time>2024-09-20T09:06:41Z</time>
      </trkpt>
      <trkpt lat="45.8287" lon="4.8508">
        <ele>169.6</ele>
        <time>2024-09-20T09:06:42Z</time>
      </trkpt>
      <trkpt lat="45.82866" lon="4.85085">
        <ele>169.6</ele>
        <time>2024-09-20T09:06:43Z</time>
      </trkpt>
      <trkpt lat="45.82862" lon="4.8509">
        <ele>169.6</ele>
        <time>2024-09-20T09:06:44Z</time>
      </trkpt>
      <trkpt lat="45.82857" lon="4.85094">
        <ele>169.6</ele>
        <time>2024-09-20T09:06:45Z</time>
      </trkpt>
      <trkpt lat="45.82853" lon="4.85098">
        <ele>169.6</ele>
        <time>2024-09-20T09:06:46Z</time>
      </trkpt>
      <trkpt lat="45.82849" lon="4.85102">
        <ele>169.6</ele>
        <time>2024-09-20T09:06:47Z</time>
      </trkpt>
      <trkpt lat="45.82844" lon="4.85107">
        <ele>169.6</ele>
        <time>2024-09-20T09:06:48Z</time>
      </trkpt>
      <trkpt lat="45.8284" lon="4.85111">
        <ele>169.6</ele>
        <time>2024-09-20T09:06:49Z</time>
      </trkpt>
      <trkpt lat="45.82835" lon="4.85115">
        <ele>169.6</ele>
        <time>2024-09-20T09:06:50Z</time>
      </trkpt>
      <trkpt lat="45.82831" lon="4.85119">
        <ele>169.6</ele>
        <time>2024-09-20T09:06:51Z</time>
      </trkpt>
      <trkpt lat="45.82827" lon="4.85123">
        <ele>169.6</ele>
        <time>2024-09-20T09:06:52Z</time>
      </trkpt>
      <trkpt lat="45.82822" lon="4.85127">
        <ele>169.6</ele>
        <time>2024-09-20T09:06:53Z</time>
      </trkpt>
      <trkpt lat="45.82818" lon="4.85131">
        <ele>169.6</ele>
        <time>2024-09-20T09:06:54Z</time>
      </trkpt>
      <trkpt lat="45.82814" lon="4.85134">
        <ele>169.6</ele>
        <time>2024-09-20T09:06:55Z</time>
      </trkpt>
      <trkpt lat="45.82809" lon="4.85138">
        <ele>169.6</ele>
        <time>2024-09-20T09:06:56Z</time>
      </trkpt>
      <trkpt lat="45.82805" lon="4.85141">
        <ele>169.4</ele>
        <time>2024-09-20T09:06:57Z</time>
      </trkpt>
      <trkpt lat="45.82801" lon="4.85145">
        <ele>169.4</ele>
        <time>2024-09-20T09:06:58Z</time>
      </trkpt>
      <trkpt lat="45.82796" lon="4.85149">
        <ele>169.6</ele>
        <time>2024-09-20T09:06:59Z</time>
      </trkpt>
      <trkpt lat="45.82792" lon="4.85152">
        <ele>169.6</ele>
        <time>2024-09-20T09:07:00Z</time>
      </trkpt>
      <trkpt lat="45.82787" lon="4.85155">
        <ele>169.6</ele>
        <time>2024-09-20T09:07:01Z</time>
      </trkpt>
      <trkpt lat="45.82783" lon="4.85159">
        <ele>169.6</ele>
        <time>2024-09-20T09:07:02Z</time>
      </trkpt>
      <trkpt lat="45.82778" lon="4.85163">
        <ele>169.6</ele>
        <time>2024-09-20T09:07:03Z</time>
      </trkpt>
      <trkpt lat="45.82774" lon="4.85166">
        <ele>169.6</ele>
        <time>2024-09-20T09:07:04Z</time>
      </trkpt>
      <trkpt lat="45.82769" lon="4.8517">
        <ele>169.6</ele>
        <time>2024-09-20T09:07:05Z</time>
      </trkpt>
      <trkpt lat="45.82765" lon="4.85173">
        <ele>169.6</ele>
        <time>2024-09-20T09:07:06Z</time>
      </trkpt>
      <trkpt lat="45.8276" lon="4.85177">
        <ele>169.6</ele>
        <time>2024-09-20T09:07:07Z</time>
      </trkpt>
      <trkpt lat="45.82755" lon="4.8518">
        <ele>169.6</ele>
        <time>2024-09-20T09:07:08Z</time>
      </trkpt>
      <trkpt lat="45.82751" lon="4.85184">
        <ele>169.6</ele>
        <time>2024-09-20T09:07:09Z</time>
      </trkpt>
      <trkpt lat="45.82747" lon="4.85187">
        <ele>169.4</ele>
        <time>2024-09-20T09:07:10Z</time>
      </trkpt>
      <trkpt lat="45.82742" lon="4.85191">
        <ele>169.4</ele>
        <time>2024-09-20T09:07:11Z</time>
      </trkpt>
      <trkpt lat="45.82738" lon="4.85195">
        <ele>169.4</ele>
        <time>2024-09-20T09:07:12Z</time>
      </trkpt>
      <trkpt lat="45.82733" lon="4.85199">
        <ele>169.8</ele>
        <time>2024-09-20T09:07:13Z</time>
      </trkpt>
      <trkpt lat="45.82729" lon="4.85202">
        <ele>169.6</ele>
        <time>2024-09-20T09:07:14Z</time>
      </trkpt>
      <trkpt lat="45.82724" lon="4.85206">
        <ele>169.6</ele>
        <time>2024-09-20T09:07:15Z</time>
      </trkpt>
      <trkpt lat="45.8272" lon="4.85209">
        <ele>169.6</ele>
        <time>2024-09-20T09:07:16Z</time>
      </trkpt>
      <trkpt lat="45.82715" lon="4.85212">
        <ele>169.6</ele>
        <time>2024-09-20T09:07:17Z</time>
      </trkpt>
      <trkpt lat="45.82711" lon="4.85216">
        <ele>169.6</ele>
        <time>2024-09-20T09:07:18Z</time>
      </trkpt>
      <trkpt lat="45.82707" lon="4.85219">
        <ele>169.6</ele>
        <time>2024-09-20T09:07:19Z</time>
      </trkpt>
      <trkpt lat="45.82703" lon="4.85223">
        <ele>169.6</ele>
        <time>2024-09-20T09:07:20Z</time>
      </trkpt>
      <trkpt lat="45.82698" lon="4.85226">
        <ele>169.6</ele>
        <time>2024-09-20T09:07:21Z</time>
      </trkpt>
      <trkpt lat="45.82694" lon="4.85229">
        <ele>169.4</ele>
        <time>2024-09-20T09:07:22Z</time>
      </trkpt>
      <trkpt lat="45.82689" lon="4.85232">
        <ele>169.4</ele>
        <time>2024-09-20T09:07:23Z</time>
      </trkpt>
      <trkpt lat="45.82685" lon="4.85235">
        <ele>169.2</ele>
        <time>2024-09-20T09:07:24Z</time>
      </trkpt>
      <trkpt lat="45.8268" lon="4.85238">
        <ele>169.2</ele>
        <time>2024-09-20T09:07:25Z</time>
      </trkpt>
      <trkpt lat="45.82676" lon="4.85241">
        <ele>169.2</ele>
        <time>2024-09-20T09:07:26Z</time>
      </trkpt>
      <trkpt lat="45.82672" lon="4.85245">
        <ele>169.2</ele>
        <time>2024-09-20T09:07:27Z</time>
      </trkpt>
      <trkpt lat="45.82667" lon="4.85249">
        <ele>169.2</ele>
        <time>2024-09-20T09:07:28Z</time>
      </trkpt>
      <trkpt lat="45.82663" lon="4.85253">
        <ele>169.2</ele>
        <time>2024-09-20T09:07:29Z</time>
      </trkpt>
      <trkpt lat="45.82658" lon="4.85257">
        <ele>169.2</ele>
        <time>2024-09-20T09:07:30Z</time>
      </trkpt>
      <trkpt lat="45.82654" lon="4.8526">
        <ele>169.6</ele>
        <time>2024-09-20T09:07:31Z</time>
      </trkpt>
      <trkpt lat="45.82649" lon="4.85263">
        <ele>169.2</ele>
        <time>2024-09-20T09:07:32Z</time>
      </trkpt>
      <trkpt lat="45.82645" lon="4.85266">
        <ele>169.2</ele>
        <time>2024-09-20T09:07:33Z</time>
      </trkpt>
      <trkpt lat="45.82641" lon="4.8527">
        <ele>169.2</ele>
        <time>2024-09-20T09:07:34Z</time>
      </trkpt>
      <trkpt lat="45.82636" lon="4.85273">
        <ele>169.6</ele>
        <time>2024-09-20T09:07:35Z</time>
      </trkpt>
      <trkpt lat="45.82632" lon="4.85276">
        <ele>169.2</ele>
        <time>2024-09-20T09:07:36Z</time>
      </trkpt>
      <trkpt lat="45.82628" lon="4.85279">
        <ele>169.2</ele>
        <time>2024-09-20T09:07:37Z</time>
      </trkpt>
      <trkpt lat="45.82624" lon="4.85283">
        <ele>169.2</ele>
        <time>2024-09-20T09:07:38Z</time>
      </trkpt>
      <trkpt lat="45.8262" lon="4.85286">
        <ele>169.6</ele>
        <time>2024-09-20T09:07:39Z</time>
      </trkpt>
      <trkpt lat="45.82616" lon="4.85289">
        <ele>169.6</ele>
        <time>2024-09-20T09:07:40Z</time>
      </trkpt>
      <trkpt lat="45.82612" lon="4.85291">
        <ele>169.6</ele>
        <time>2024-09-20T09:07:41Z</time>
      </trkpt>
      <trkpt lat="45.8261" lon="4.85294">
        <ele>169.6</ele>
        <time>2024-09-20T09:07:42Z</time>
      </trkpt>
      <trkpt lat="45.82607" lon="4.85296">
        <ele>169.6</ele>
        <time>2024-09-20T09:07:43Z</time>
      </trkpt>
      <trkpt lat="45.82604" lon="4.85298">
        <ele>169.8</ele>
        <time>2024-09-20T09:07:44Z</time>
      </trkpt>
      <trkpt lat="45.82601" lon="4.853">
        <ele>169.6</ele>
        <time>2024-09-20T09:07:45Z</time>
      </trkpt>
      <trkpt lat="45.82598" lon="4.85301">
        <ele>169.6</ele>
        <time>2024-09-20T09:07:46Z</time>
      </trkpt>
      <trkpt lat="45.82595" lon="4.85302">
        <ele>169.6</ele>
        <time>2024-09-20T09:07:47Z</time>
      </trkpt>
      <trkpt lat="45.82591" lon="4.85304">
        <ele>169.6</ele>
        <time>2024-09-20T09:07:48Z</time>
      </trkpt>
      <trkpt lat="45.82588" lon="4.85306">
        <ele>169.6</ele>
        <time>2024-09-20T09:07:49Z</time>
      </trkpt>
      <trkpt lat="45.82585" lon="4.85307">
        <ele>169.8</ele>
        <time>2024-09-20T09:07:50Z</time>
      </trkpt>
      <trkpt lat="45.82581" lon="4.8531">
        <ele>169.8</ele>
        <time>2024-09-20T09:07:51Z</time>
      </trkpt>
      <trkpt lat="45.82577" lon="4.85312">
        <ele>169.8</ele>
        <time>2024-09-20T09:07:52Z</time>
      </trkpt>
      <trkpt lat="45.82574" lon="4.85315">
        <ele>169.8</ele>
        <time>2024-09-20T09:07:53Z</time>
      </trkpt>
      <trkpt lat="45.8257" lon="4.85318">
        <ele>170</ele>
        <time>2024-09-20T09:07:54Z</time>
      </trkpt>
      <trkpt lat="45.82567" lon="4.85321">
        <ele>170</ele>
        <time>2024-09-20T09:07:55Z</time>
      </trkpt>
      <trkpt lat="45.82563" lon="4.85323">
        <ele>170</ele>
        <time>2024-09-20T09:07:56Z</time>
      </trkpt>
      <trkpt lat="45.82559" lon="4.85326">
        <ele>170</ele>
        <time>2024-09-20T09:07:57Z</time>
      </trkpt>
      <trkpt lat="45.82555" lon="4.85328">
        <ele>170</ele>
        <time>2024-09-20T09:07:58Z</time>
      </trkpt>
      <trkpt lat="45.82551" lon="4.85331">
        <ele>170</ele>
        <time>2024-09-20T09:07:59Z</time>
      </trkpt>
      <trkpt lat="45.82547" lon="4.85333">
        <ele>170</ele>
        <time>2024-09-20T09:08:00Z</time>
      </trkpt>
      <trkpt lat="45.82543" lon="4.85335">
        <ele>170</ele>
        <time>2024-09-20T09:08:01Z</time>
      </trkpt>
      <trkpt lat="45.82539" lon="4.85338">
        <ele>170.2</ele>
        <time>2024-09-20T09:08:02Z</time>
      </trkpt>
      <trkpt lat="45.82535" lon="4.8534">
        <ele>170.2</ele>
        <time>2024-09-20T09:08:03Z</time>
      </trkpt>
      <trkpt lat="45.82531" lon="4.85343">
        <ele>170.2</ele>
        <time>2024-09-20T09:08:04Z</time>
      </trkpt>
      <trkpt lat="45.82527" lon="4.85345">
        <ele>170.2</ele>
        <time>2024-09-20T09:08:05Z</time>
      </trkpt>
      <trkpt lat="45.82523" lon="4.85348">
        <ele>170.2</ele>
        <time>2024-09-20T09:08:06Z</time>
      </trkpt>
      <trkpt lat="45.8252" lon="4.85351">
        <ele>170.4</ele>
        <time>2024-09-20T09:08:07Z</time>
      </trkpt>
      <trkpt lat="45.82516" lon="4.85354">
        <ele>170.4</ele>
        <time>2024-09-20T09:08:08Z</time>
      </trkpt>
      <trkpt lat="45.82512" lon="4.85357">
        <ele>170.4</ele>
        <time>2024-09-20T09:08:09Z</time>
      </trkpt>
      <trkpt lat="45.82507" lon="4.85359">
        <ele>170.4</ele>
        <time>2024-09-20T09:08:10Z</time>
      </trkpt>
      <trkpt lat="45.82504" lon="4.85362">
        <ele>170.4</ele>
        <time>2024-09-20T09:08:11Z</time>
      </trkpt>
      <trkpt lat="45.825" lon="4.85364">
        <ele>170.6</ele>
        <time>2024-09-20T09:08:12Z</time>
      </trkpt>
      <trkpt lat="45.82495" lon="4.85366">
        <ele>170.6</ele>
        <time>2024-09-20T09:08:13Z</time>
      </trkpt>
      <trkpt lat="45.82491" lon="4.85369">
        <ele>170.6</ele>
        <time>2024-09-20T09:08:14Z</time>
      </trkpt>
      <trkpt lat="45.82487" lon="4.85371">
        <ele>171</ele>
        <time>2024-09-20T09:08:15Z</time>
      </trkpt>
      <trkpt lat="45.82483" lon="4.85374">
        <ele>171</ele>
        <time>2024-09-20T09:08:16Z</time>
      </trkpt>
      <trkpt lat="45.82479" lon="4.85377">
        <ele>171</ele>
        <time>2024-09-20T09:08:17Z</time>
      </trkpt>
      <trkpt lat="45.82475" lon="4.85379">
        <ele>171</ele>
        <time>2024-09-20T09:08:18Z</time>
      </trkpt>
      <trkpt lat="45.8247" lon="4.85382">
        <ele>171</ele>
        <time>2024-09-20T09:08:19Z</time>
      </trkpt>
      <trkpt lat="45.82466" lon="4.85385">
        <ele>171</ele>
        <time>2024-09-20T09:08:20Z</time>
      </trkpt>
      <trkpt lat="45.82462" lon="4.85387">
        <ele>171</ele>
        <time>2024-09-20T09:08:21Z</time>
      </trkpt>
      <trkpt lat="45.82457" lon="4.85389">
        <ele>171</ele>
        <time>2024-09-20T09:08:22Z</time>
      </trkpt>
      <trkpt lat="45.82453" lon="4.85391">
        <ele>171</ele>
        <time>2024-09-20T09:08:23Z</time>
      </trkpt>
      <trkpt lat="45.82449" lon="4.85394">
        <ele>171.2</ele>
        <time>2024-09-20T09:08:24Z</time>
      </trkpt>
      <trkpt lat="45.82444" lon="4.85396">
        <ele>171.2</ele>
        <time>2024-09-20T09:08:25Z</time>
      </trkpt>
      <trkpt lat="45.82439" lon="4.85398">
        <ele>171.2</ele>
        <time>2024-09-20T09:08:26Z</time>
      </trkpt>
      <trkpt lat="45.82435" lon="4.85401">
        <ele>171.2</ele>
        <time>2024-09-20T09:08:27Z</time>
      </trkpt>
      <trkpt lat="45.8243" lon="4.85403">
        <ele>171.2</ele>
        <time>2024-09-20T09:08:28Z</time>
      </trkpt>
      <trkpt lat="45.82426" lon="4.85405">
        <ele>171.2</ele>
        <time>2024-09-20T09:08:29Z</time>
      </trkpt>
      <trkpt lat="45.82421" lon="4.85408">
        <ele>171.2</ele>
        <time>2024-09-20T09:08:30Z</time>
      </trkpt>
      <trkpt lat="45.82416" lon="4.8541">
        <ele>171.4</ele>
        <time>2024-09-20T09:08:31Z</time>
      </trkpt>
      <trkpt lat="45.82412" lon="4.85412">
        <ele>171.4</ele>
        <time>2024-09-20T09:08:32Z</time>
      </trkpt>
      <trkpt lat="45.82407" lon="4.85414">
        <ele>171.4</ele>
        <time>2024-09-20T09:08:33Z</time>
      </trkpt>
      <trkpt lat="45.82402" lon="4.85417">
        <ele>171</ele>
        <time>2024-09-20T09:08:34Z</time>
      </trkpt>
      <trkpt lat="45.82397" lon="4.85419">
        <ele>171</ele>
        <time>2024-09-20T09:08:35Z</time>
      </trkpt>
      <trkpt lat="45.82393" lon="4.85421">
        <ele>171</ele>
        <time>2024-09-20T09:08:36Z</time>
      </trkpt>
      <trkpt lat="45.82388" lon="4.85424">
        <ele>171</ele>
        <time>2024-09-20T09:08:37Z</time>
      </trkpt>
      <trkpt lat="45.82383" lon="4.85426">
        <ele>171</ele>
        <time>2024-09-20T09:08:38Z</time>
      </trkpt>
      <trkpt lat="45.82378" lon="4.85429">
        <ele>171</ele>
        <time>2024-09-20T09:08:39Z</time>
      </trkpt>
      <trkpt lat="45.82373" lon="4.85431">
        <ele>170.8</ele>
        <time>2024-09-20T09:08:40Z</time>
      </trkpt>
      <trkpt lat="45.82368" lon="4.85434">
        <ele>170.8</ele>
        <time>2024-09-20T09:08:41Z</time>
      </trkpt>
      <trkpt lat="45.82363" lon="4.85436">
        <ele>170.8</ele>
        <time>2024-09-20T09:08:42Z</time>
      </trkpt>
      <trkpt lat="45.82358" lon="4.85438">
        <ele>170.8</ele>
        <time>2024-09-20T09:08:43Z</time>
      </trkpt>
      <trkpt lat="45.82352" lon="4.8544">
        <ele>170.6</ele>
        <time>2024-09-20T09:08:44Z</time>
      </trkpt>
      <trkpt lat="45.82347" lon="4.85442">
        <ele>170.6</ele>
        <time>2024-09-20T09:08:45Z</time>
      </trkpt>
      <trkpt lat="45.82342" lon="4.85444">
        <ele>170.6</ele>
        <time>2024-09-20T09:08:46Z</time>
      </trkpt>
      <trkpt lat="45.82337" lon="4.85446">
        <ele>170.4</ele>
        <time>2024-09-20T09:08:47Z</time>
      </trkpt>
      <trkpt lat="45.82332" lon="4.85448">
        <ele>170.4</ele>
        <time>2024-09-20T09:08:48Z</time>
      </trkpt>
      <trkpt lat="45.82327" lon="4.8545">
        <ele>170.4</ele>
        <time>2024-09-20T09:08:49Z</time>
      </trkpt>
      <trkpt lat="45.82322" lon="4.85452">
        <ele>170.4</ele>
        <time>2024-09-20T09:08:50Z</time>
      </trkpt>
      <trkpt lat="45.82317" lon="4.85454">
        <ele>170.4</ele>
        <time>2024-09-20T09:08:51Z</time>
      </trkpt>
      <trkpt lat="45.82312" lon="4.85455">
        <ele>170.4</ele>
        <time>2024-09-20T09:08:52Z</time>
      </trkpt>
      <trkpt lat="45.82307" lon="4.85457">
        <ele>170.2</ele>
        <time>2024-09-20T09:08:53Z</time>
      </trkpt>
      <trkpt lat="45.82302" lon="4.85459">
        <ele>170.2</ele>
        <time>2024-09-20T09:08:54Z</time>
      </trkpt>
      <trkpt lat="45.82297" lon="4.8546">
        <ele>170.2</ele>
        <time>2024-09-20T09:08:55Z</time>
      </trkpt>
      <trkpt lat="45.82291" lon="4.85462">
        <ele>170</ele>
        <time>2024-09-20T09:08:56Z</time>
      </trkpt>
      <trkpt lat="45.82286" lon="4.85464">
        <ele>170.4</ele>
        <time>2024-09-20T09:08:57Z</time>
      </trkpt>
      <trkpt lat="45.82281" lon="4.85466">
        <ele>170.4</ele>
        <time>2024-09-20T09:08:58Z</time>
      </trkpt>
      <trkpt lat="45.82276" lon="4.85467">
        <ele>170.4</ele>
        <time>2024-09-20T09:08:59Z</time>
      </trkpt>
      <trkpt lat="45.8227" lon="4.85469">
        <ele>170.4</ele>
        <time>2024-09-20T09:09:00Z</time>
      </trkpt>
      <trkpt lat="45.82265" lon="4.8547">
        <ele>170</ele>
        <time>2024-09-20T09:09:01Z</time>
      </trkpt>
      <trkpt lat="45.8226" lon="4.85472">
        <ele>170</ele>
        <time>2024-09-20T09:09:02Z</time>
      </trkpt>
      <trkpt lat="45.82255" lon="4.85473">
        <ele>170</ele>
        <time>2024-09-20T09:09:03Z</time>
      </trkpt>
      <trkpt lat="45.8225" lon="4.85474">
        <ele>170</ele>
        <time>2024-09-20T09:09:04Z</time>
      </trkpt>
      <trkpt lat="45.82245" lon="4.85475">
        <ele>170</ele>
        <time>2024-09-20T09:09:05Z</time>
      </trkpt>
      <trkpt lat="45.8224" lon="4.85476">
        <ele>169.6</ele>
        <time>2024-09-20T09:09:06Z</time>
      </trkpt>
      <trkpt lat="45.82235" lon="4.85477">
        <ele>169.6</ele>
        <time>2024-09-20T09:09:07Z</time>
      </trkpt>
      <trkpt lat="45.8223" lon="4.85478">
        <ele>169.6</ele>
        <time>2024-09-20T09:09:08Z</time>
      </trkpt>
      <trkpt lat="45.82225" lon="4.85479">
        <ele>169.8</ele>
        <time>2024-09-20T09:09:09Z</time>
      </trkpt>
      <trkpt lat="45.8222" lon="4.8548">
        <ele>169.8</ele>
        <time>2024-09-20T09:09:10Z</time>
      </trkpt>
      <trkpt lat="45.82215" lon="4.85481">
        <ele>169.8</ele>
        <time>2024-09-20T09:09:11Z</time>
      </trkpt>
      <trkpt lat="45.82209" lon="4.85483">
        <ele>169.8</ele>
        <time>2024-09-20T09:09:12Z</time>
      </trkpt>
      <trkpt lat="45.82204" lon="4.85484">
        <ele>169.8</ele>
        <time>2024-09-20T09:09:13Z</time>
      </trkpt>
      <trkpt lat="45.82198" lon="4.85484">
        <ele>169.8</ele>
        <time>2024-09-20T09:09:14Z</time>
      </trkpt>
      <trkpt lat="45.82193" lon="4.85485">
        <ele>169.8</ele>
        <time>2024-09-20T09:09:15Z</time>
      </trkpt>
      <trkpt lat="45.82187" lon="4.85485">
        <ele>169.6</ele>
        <time>2024-09-20T09:09:16Z</time>
      </trkpt>
      <trkpt lat="45.82182" lon="4.85485">
        <ele>169.6</ele>
        <time>2024-09-20T09:09:17Z</time>
      </trkpt>
      <trkpt lat="45.82177" lon="4.85486">
        <ele>169.6</ele>
        <time>2024-09-20T09:09:18Z</time>
      </trkpt>
      <trkpt lat="45.82172" lon="4.85487">
        <ele>169.6</ele>
        <time>2024-09-20T09:09:19Z</time>
      </trkpt>
      <trkpt lat="45.82166" lon="4.85487">
        <ele>169.6</ele>
        <time>2024-09-20T09:09:20Z</time>
      </trkpt>
      <trkpt lat="45.82161" lon="4.85488">
        <ele>169.4</ele>
        <time>2024-09-20T09:09:21Z</time>
      </trkpt>
      <trkpt lat="45.82156" lon="4.85488">
        <ele>169.4</ele>
        <time>2024-09-20T09:09:22Z</time>
      </trkpt>
      <trkpt lat="45.82151" lon="4.85489">
        <ele>169.4</ele>
        <time>2024-09-20T09:09:23Z</time>
      </trkpt>
      <trkpt lat="45.82145" lon="4.85489">
        <ele>169.6</ele>
        <time>2024-09-20T09:09:24Z</time>
      </trkpt>
      <trkpt lat="45.8214" lon="4.85489">
        <ele>169.8</ele>
        <time>2024-09-20T09:09:25Z</time>
      </trkpt>
      <trkpt lat="45.82135" lon="4.85489">
        <ele>169.8</ele>
        <time>2024-09-20T09:09:26Z</time>
      </trkpt>
      <trkpt lat="45.8213" lon="4.85489">
        <ele>169.8</ele>
        <time>2024-09-20T09:09:27Z</time>
      </trkpt>
      <trkpt lat="45.82124" lon="4.85488">
        <ele>169.8</ele>
        <time>2024-09-20T09:09:28Z</time>
      </trkpt>
      <trkpt lat="45.82119" lon="4.85488">
        <ele>169.6</ele>
        <time>2024-09-20T09:09:29Z</time>
      </trkpt>
      <trkpt lat="45.82113" lon="4.85488">
        <ele>169.6</ele>
        <time>2024-09-20T09:09:30Z</time>
      </trkpt>
      <trkpt lat="45.82108" lon="4.85488">
        <ele>169.6</ele>
        <time>2024-09-20T09:09:31Z</time>
      </trkpt>
      <trkpt lat="45.82103" lon="4.85487">
        <ele>169.6</ele>
        <time>2024-09-20T09:09:32Z</time>
      </trkpt>
      <trkpt lat="45.82097" lon="4.85487">
        <ele>169.6</ele>
        <time>2024-09-20T09:09:33Z</time>
      </trkpt>
      <trkpt lat="45.82092" lon="4.85487">
        <ele>169.6</ele>
        <time>2024-09-20T09:09:34Z</time>
      </trkpt>
      <trkpt lat="45.82087" lon="4.85486">
        <ele>169.6</ele>
        <time>2024-09-20T09:09:35Z</time>
      </trkpt>
      <trkpt lat="45.82082" lon="4.85486">
        <ele>169.6</ele>
        <time>2024-09-20T09:09:36Z</time>
      </trkpt>
      <trkpt lat="45.82077" lon="4.85485">
        <ele>169.6</ele>
        <time>2024-09-20T09:09:37Z</time>
      </trkpt>
      <trkpt lat="45.82071" lon="4.85484">
        <ele>169.6</ele>
        <time>2024-09-20T09:09:38Z</time>
      </trkpt>
      <trkpt lat="45.82066" lon="4.85482">
        <ele>169.6</ele>
        <time>2024-09-20T09:09:39Z</time>
      </trkpt>
      <trkpt lat="45.82061" lon="4.85482">
        <ele>169.6</ele>
        <time>2024-09-20T09:09:40Z</time>
      </trkpt>
      <trkpt lat="45.82056" lon="4.85481">
        <ele>169.4</ele>
        <time>2024-09-20T09:09:41Z</time>
      </trkpt>
      <trkpt lat="45.82051" lon="4.8548">
        <ele>169.4</ele>
        <time>2024-09-20T09:09:42Z</time>
      </trkpt>
      <trkpt lat="45.82046" lon="4.85479">
        <ele>169.4</ele>
        <time>2024-09-20T09:09:43Z</time>
      </trkpt>
      <trkpt lat="45.82041" lon="4.85478">
        <ele>169.4</ele>
        <time>2024-09-20T09:09:44Z</time>
      </trkpt>
      <trkpt lat="45.82037" lon="4.85478">
        <ele>169.4</ele>
        <time>2024-09-20T09:09:45Z</time>
      </trkpt>
      <trkpt lat="45.82032" lon="4.85477">
        <ele>169.4</ele>
        <time>2024-09-20T09:09:46Z</time>
      </trkpt>
      <trkpt lat="45.82027" lon="4.85476">
        <ele>169.4</ele>
        <time>2024-09-20T09:09:47Z</time>
      </trkpt>
      <trkpt lat="45.82021" lon="4.85474">
        <ele>169.4</ele>
        <time>2024-09-20T09:09:48Z</time>
      </trkpt>
      <trkpt lat="45.82016" lon="4.85473">
        <ele>169.4</ele>
        <time>2024-09-20T09:09:49Z</time>
      </trkpt>
      <trkpt lat="45.82011" lon="4.85472">
        <ele>169.2</ele>
        <time>2024-09-20T09:09:50Z</time>
      </trkpt>
      <trkpt lat="45.82006" lon="4.85471">
        <ele>169.2</ele>
        <time>2024-09-20T09:09:51Z</time>
      </trkpt>
      <trkpt lat="45.82001" lon="4.85469">
        <ele>169.2</ele>
        <time>2024-09-20T09:09:52Z</time>
      </trkpt>
      <trkpt lat="45.81996" lon="4.85468">
        <ele>169.2</ele>
        <time>2024-09-20T09:09:53Z</time>
      </trkpt>
      <trkpt lat="45.81991" lon="4.85467">
        <ele>169.2</ele>
        <time>2024-09-20T09:09:54Z</time>
      </trkpt>
      <trkpt lat="45.81986" lon="4.85465">
        <ele>169.2</ele>
        <time>2024-09-20T09:09:55Z</time>
      </trkpt>
      <trkpt lat="45.81981" lon="4.85464">
        <ele>169.2</ele>
        <time>2024-09-20T09:09:56Z</time>
      </trkpt>
      <trkpt lat="45.81976" lon="4.85462">
        <ele>169.2</ele>
        <time>2024-09-20T09:09:57Z</time>
      </trkpt>
      <trkpt lat="45.81972" lon="4.85461">
        <ele>169.2</ele>
        <time>2024-09-20T09:09:58Z</time>
      </trkpt>
      <trkpt lat="45.81967" lon="4.85459">
        <ele>169.2</ele>
        <time>2024-09-20T09:09:59Z</time>
      </trkpt>
      <trkpt lat="45.81963" lon="4.85457">
        <ele>169.2</ele>
        <time>2024-09-20T09:10:00Z</time>
      </trkpt>
      <trkpt lat="45.81958" lon="4.85455">
        <ele>169.6</ele>
        <time>2024-09-20T09:10:01Z</time>
      </trkpt>
      <trkpt lat="45.81954" lon="4.85453">
        <ele>169.6</ele>
        <time>2024-09-20T09:10:02Z</time>
      </trkpt>
      <trkpt lat="45.81949" lon="4.85451">
        <ele>169.6</ele>
        <time>2024-09-20T09:10:03Z</time>
      </trkpt>
      <trkpt lat="45.81945" lon="4.8545">
        <ele>169.6</ele>
        <time>2024-09-20T09:10:04Z</time>
      </trkpt>
      <trkpt lat="45.8194" lon="4.85448">
        <ele>169.6</ele>
        <time>2024-09-20T09:10:05Z</time>
      </trkpt>
      <trkpt lat="45.81935" lon="4.85446">
        <ele>169.4</ele>
        <time>2024-09-20T09:10:06Z</time>
      </trkpt>
      <trkpt lat="45.8193" lon="4.85443">
        <ele>169.4</ele>
        <time>2024-09-20T09:10:07Z</time>
      </trkpt>
      <trkpt lat="45.81926" lon="4.85441">
        <ele>169.4</ele>
        <time>2024-09-20T09:10:08Z</time>
      </trkpt>
      <trkpt lat="45.8192" lon="4.85439">
        <ele>169.4</ele>
        <time>2024-09-20T09:10:09Z</time>
      </trkpt>
      <trkpt lat="45.81916" lon="4.85436">
        <ele>169.4</ele>
        <time>2024-09-20T09:10:10Z</time>
      </trkpt>
      <trkpt lat="45.8191" lon="4.85433">
        <ele>169.2</ele>
        <time>2024-09-20T09:10:11Z</time>
      </trkpt>
      <trkpt lat="45.81905" lon="4.8543">
        <ele>169.2</ele>
        <time>2024-09-20T09:10:12Z</time>
      </trkpt>
      <trkpt lat="45.81901" lon="4.85428">
        <ele>169.2</ele>
        <time>2024-09-20T09:10:13Z</time>
      </trkpt>
      <trkpt lat="45.81896" lon="4.85425">
        <ele>169.2</ele>
        <time>2024-09-20T09:10:14Z</time>
      </trkpt>
      <trkpt lat="45.81891" lon="4.85422">
        <ele>169.2</ele>
        <time>2024-09-20T09:10:15Z</time>
      </trkpt>
      <trkpt lat="45.81886" lon="4.85418">
        <ele>169.2</ele>
        <time>2024-09-20T09:10:16Z</time>
      </trkpt>
      <trkpt lat="45.81881" lon="4.85415">
        <ele>169.2</ele>
        <time>2024-09-20T09:10:17Z</time>
      </trkpt>
      <trkpt lat="45.81877" lon="4.85411">
        <ele>169.2</ele>
        <time>2024-09-20T09:10:18Z</time>
      </trkpt>
      <trkpt lat="45.81872" lon="4.85408">
        <ele>169</ele>
        <time>2024-09-20T09:10:19Z</time>
      </trkpt>
      <trkpt lat="45.81867" lon="4.85405">
        <ele>169</ele>
        <time>2024-09-20T09:10:20Z</time>
      </trkpt>
      <trkpt lat="45.81863" lon="4.85401">
        <ele>169</ele>
        <time>2024-09-20T09:10:21Z</time>
      </trkpt>
      <trkpt lat="45.81859" lon="4.85398">
        <ele>169.2</ele>
        <time>2024-09-20T09:10:22Z</time>
      </trkpt>
      <trkpt lat="45.81854" lon="4.85395">
        <ele>169.2</ele>
        <time>2024-09-20T09:10:23Z</time>
      </trkpt>
      <trkpt lat="45.8185" lon="4.85392">
        <ele>169.2</ele>
        <time>2024-09-20T09:10:24Z</time>
      </trkpt>
      <trkpt lat="45.81846" lon="4.85388">
        <ele>169.2</ele>
        <time>2024-09-20T09:10:25Z</time>
      </trkpt>
      <trkpt lat="45.81842" lon="4.85385">
        <ele>169.2</ele>
        <time>2024-09-20T09:10:26Z</time>
      </trkpt>
      <trkpt lat="45.81837" lon="4.85381">
        <ele>169.2</ele>
        <time>2024-09-20T09:10:27Z</time>
      </trkpt>
      <trkpt lat="45.81833" lon="4.85376">
        <ele>169.2</ele>
        <time>2024-09-20T09:10:28Z</time>
      </trkpt>
      <trkpt lat="45.81829" lon="4.85372">
        <ele>169.2</ele>
        <time>2024-09-20T09:10:29Z</time>
      </trkpt>
      <trkpt lat="45.81825" lon="4.85367">
        <ele>169.2</ele>
        <time>2024-09-20T09:10:30Z</time>
      </trkpt>
      <trkpt lat="45.81821" lon="4.85363">
        <ele>169.2</ele>
        <time>2024-09-20T09:10:31Z</time>
      </trkpt>
      <trkpt lat="45.81817" lon="4.85359">
        <ele>169</ele>
        <time>2024-09-20T09:10:32Z</time>
      </trkpt>
      <trkpt lat="45.81812" lon="4.85354">
        <ele>169</ele>
        <time>2024-09-20T09:10:33Z</time>
      </trkpt>
      <trkpt lat="45.81808" lon="4.8535">
        <ele>169</ele>
        <time>2024-09-20T09:10:34Z</time>
      </trkpt>
      <trkpt lat="45.81804" lon="4.85346">
        <ele>169</ele>
        <time>2024-09-20T09:10:35Z</time>
      </trkpt>
      <trkpt lat="45.81801" lon="4.85342">
        <ele>169</ele>
        <time>2024-09-20T09:10:36Z</time>
      </trkpt>
      <trkpt lat="45.81797" lon="4.85337">
        <ele>169</ele>
        <time>2024-09-20T09:10:37Z</time>
      </trkpt>
      <trkpt lat="45.81794" lon="4.85333">
        <ele>169.2</ele>
        <time>2024-09-20T09:10:38Z</time>
      </trkpt>
      <trkpt lat="45.8179" lon="4.85329">
        <ele>169.2</ele>
        <time>2024-09-20T09:10:39Z</time>
      </trkpt>
      <trkpt lat="45.81787" lon="4.85325">
        <ele>169.2</ele>
        <time>2024-09-20T09:10:40Z</time>
      </trkpt>
      <trkpt lat="45.81783" lon="4.85321">
        <ele>169.2</ele>
        <time>2024-09-20T09:10:41Z</time>
      </trkpt>
      <trkpt lat="45.8178" lon="4.85317">
        <ele>169.2</ele>
        <time>2024-09-20T09:10:42Z</time>
      </trkpt>
      <trkpt lat="45.81776" lon="4.85313">
        <ele>169.2</ele>
        <time>2024-09-20T09:10:43Z</time>
      </trkpt>
      <trkpt lat="45.81773" lon="4.85309">
        <ele>169.2</ele>
        <time>2024-09-20T09:10:44Z</time>
      </trkpt>
      <trkpt lat="45.8177" lon="4.85304">
        <ele>169.2</ele>
        <time>2024-09-20T09:10:45Z</time>
      </trkpt>
      <trkpt lat="45.81767" lon="4.853">
        <ele>169</ele>
        <time>2024-09-20T09:10:46Z</time>
      </trkpt>
      <trkpt lat="45.81763" lon="4.85295">
        <ele>169</ele>
        <time>2024-09-20T09:10:47Z</time>
      </trkpt>
      <trkpt lat="45.8176" lon="4.8529">
        <ele>169</ele>
        <time>2024-09-20T09:10:48Z</time>
      </trkpt>
      <trkpt lat="45.81757" lon="4.85285">
        <ele>169</ele>
        <time>2024-09-20T09:10:49Z</time>
      </trkpt>
      <trkpt lat="45.81754" lon="4.85281">
        <ele>169.2</ele>
        <time>2024-09-20T09:10:50Z</time>
      </trkpt>
      <trkpt lat="45.81751" lon="4.85276">
        <ele>169</ele>
        <time>2024-09-20T09:10:51Z</time>
      </trkpt>
      <trkpt lat="45.81747" lon="4.85271">
        <ele>169</ele>
        <time>2024-09-20T09:10:52Z</time>
      </trkpt>
      <trkpt lat="45.81744" lon="4.85265">
        <ele>169</ele>
        <time>2024-09-20T09:10:53Z</time>
      </trkpt>
      <trkpt lat="45.81741" lon="4.8526">
        <ele>169</ele>
        <time>2024-09-20T09:10:54Z</time>
      </trkpt>
      <trkpt lat="45.81738" lon="4.85255">
        <ele>169</ele>
        <time>2024-09-20T09:10:55Z</time>
      </trkpt>
      <trkpt lat="45.81735" lon="4.8525">
        <ele>169</ele>
        <time>2024-09-20T09:10:56Z</time>
      </trkpt>
      <trkpt lat="45.81732" lon="4.85244">
        <ele>169</ele>
        <time>2024-09-20T09:10:57Z</time>
      </trkpt>
      <trkpt lat="45.81729" lon="4.85239">
        <ele>169</ele>
        <time>2024-09-20T09:10:58Z</time>
      </trkpt>
      <trkpt lat="45.81725" lon="4.85235">
        <ele>169</ele>
        <time>2024-09-20T09:10:59Z</time>
      </trkpt>
      <trkpt lat="45.81723" lon="4.8523">
        <ele>168.8</ele>
        <time>2024-09-20T09:11:00Z</time>
      </trkpt>
      <trkpt lat="45.8172" lon="4.85225">
        <ele>168.8</ele>
        <time>2024-09-20T09:11:01Z</time>
      </trkpt>
      <trkpt lat="45.81718" lon="4.85219">
        <ele>168.8</ele>
        <time>2024-09-20T09:11:02Z</time>
      </trkpt>
      <trkpt lat="45.81716" lon="4.85214">
        <ele>169.2</ele>
        <time>2024-09-20T09:11:03Z</time>
      </trkpt>
      <trkpt lat="45.81713" lon="4.85209">
        <ele>169.2</ele>
        <time>2024-09-20T09:11:04Z</time>
      </trkpt>
      <trkpt lat="45.81711" lon="4.85204">
        <ele>169.2</ele>
        <time>2024-09-20T09:11:05Z</time>
      </trkpt>
      <trkpt lat="45.81708" lon="4.85199">
        <ele>169.2</ele>
        <time>2024-09-20T09:11:06Z</time>
      </trkpt>
      <trkpt lat="45.81706" lon="4.85194">
        <ele>169.2</ele>
        <time>2024-09-20T09:11:07Z</time>
      </trkpt>
      <trkpt lat="45.81703" lon="4.85189">
        <ele>169.2</ele>
        <time>2024-09-20T09:11:08Z</time>
      </trkpt>
      <trkpt lat="45.81701" lon="4.85184">
        <ele>169</ele>
        <time>2024-09-20T09:11:09Z</time>
      </trkpt>
      <trkpt lat="45.81698" lon="4.85179">
        <ele>169</ele>
        <time>2024-09-20T09:11:10Z</time>
      </trkpt>
      <trkpt lat="45.81696" lon="4.85174">
        <ele>169</ele>
        <time>2024-09-20T09:11:11Z</time>
      </trkpt>
      <trkpt lat="45.81693" lon="4.85169">
        <ele>169.2</ele>
        <time>2024-09-20T09:11:12Z</time>
      </trkpt>
      <trkpt lat="45.81691" lon="4.85164">
        <ele>169.2</ele>
        <time>2024-09-20T09:11:13Z</time>
      </trkpt>
      <trkpt lat="45.81688" lon="4.85158">
        <ele>169.2</ele>
        <time>2024-09-20T09:11:14Z</time>
      </trkpt>
      <trkpt lat="45.81686" lon="4.85153">
        <ele>169.2</ele>
        <time>2024-09-20T09:11:15Z</time>
      </trkpt>
      <trkpt lat="45.81683" lon="4.85147">
        <ele>169</ele>
        <time>2024-09-20T09:11:16Z</time>
      </trkpt>
      <trkpt lat="45.81681" lon="4.85142">
        <ele>169</ele>
        <time>2024-09-20T09:11:17Z</time>
      </trkpt>
      <trkpt lat="45.81678" lon="4.85136">
        <ele>169</ele>
        <time>2024-09-20T09:11:18Z</time>
      </trkpt>
      <trkpt lat="45.81676" lon="4.8513">
        <ele>169</ele>
        <time>2024-09-20T09:11:19Z</time>
      </trkpt>
      <trkpt lat="45.81673" lon="4.85124">
        <ele>169</ele>
        <time>2024-09-20T09:11:20Z</time>
      </trkpt>
      <trkpt lat="45.81671" lon="4.85119">
        <ele>169</ele>
        <time>2024-09-20T09:11:21Z</time>
      </trkpt>
      <trkpt lat="45.81668" lon="4.85113">
        <ele>168.8</ele>
        <time>2024-09-20T09:11:22Z</time>
      </trkpt>
      <trkpt lat="45.81666" lon="4.85108">
        <ele>168.8</ele>
        <time>2024-09-20T09:11:23Z</time>
      </trkpt>
      <trkpt lat="45.81663" lon="4.85102">
        <ele>168.8</ele>
        <time>2024-09-20T09:11:24Z</time>
      </trkpt>
      <trkpt lat="45.81661" lon="4.85096">
        <ele>168.8</ele>
        <time>2024-09-20T09:11:25Z</time>
      </trkpt>
      <trkpt lat="45.81658" lon="4.8509">
        <ele>169</ele>
        <time>2024-09-20T09:11:26Z</time>
      </trkpt>
      <trkpt lat="45.81655" lon="4.85084">
        <ele>169.2</ele>
        <time>2024-09-20T09:11:27Z</time>
      </trkpt>
      <trkpt lat="45.81653" lon="4.85077">
        <ele>169.2</ele>
        <time>2024-09-20T09:11:28Z</time>
      </trkpt>
      <trkpt lat="45.8165" lon="4.85071">
        <ele>169.2</ele>
        <time>2024-09-20T09:11:29Z</time>
      </trkpt>
      <trkpt lat="45.81648" lon="4.85065">
        <ele>169.2</ele>
        <time>2024-09-20T09:11:30Z</time>
      </trkpt>
      <trkpt lat="45.81645" lon="4.85059">
        <ele>169.2</ele>
        <time>2024-09-20T09:11:31Z</time>
      </trkpt>
      <trkpt lat="45.81642" lon="4.85052">
        <ele>169.2</ele>
        <time>2024-09-20T09:11:32Z</time>
      </trkpt>
      <trkpt lat="45.8164" lon="4.85046">
        <ele>169.2</ele>
        <time>2024-09-20T09:11:33Z</time>
      </trkpt>
      <trkpt lat="45.81637" lon="4.8504">
        <ele>169.2</ele>
        <time>2024-09-20T09:11:34Z</time>
      </trkpt>
      <trkpt lat="45.81635" lon="4.85034">
        <ele>169.2</ele>
        <time>2024-09-20T09:11:35Z</time>
      </trkpt>
      <trkpt lat="45.81632" lon="4.85028">
        <ele>169</ele>
        <time>2024-09-20T09:11:36Z</time>
      </trkpt>
      <trkpt lat="45.8163" lon="4.85022">
        <ele>169</ele>
        <time>2024-09-20T09:11:37Z</time>
      </trkpt>
      <trkpt lat="45.81627" lon="4.85016">
        <ele>169</ele>
        <time>2024-09-20T09:11:38Z</time>
      </trkpt>
      <trkpt lat="45.81625" lon="4.8501">
        <ele>169</ele>
        <time>2024-09-20T09:11:39Z</time>
      </trkpt>
      <trkpt lat="45.81622" lon="4.85004">
        <ele>169.2</ele>
        <time>2024-09-20T09:11:40Z</time>
      </trkpt>
      <trkpt lat="45.8162" lon="4.84997">
        <ele>169.2</ele>
        <time>2024-09-20T09:11:41Z</time>
      </trkpt>
      <trkpt lat="45.81618" lon="4.84991">
        <ele>169.2</ele>
        <time>2024-09-20T09:11:42Z</time>
      </trkpt>
      <trkpt lat="45.81615" lon="4.84984">
        <ele>168.8</ele>
        <time>2024-09-20T09:11:43Z</time>
      </trkpt>
      <trkpt lat="45.81613" lon="4.84978">
        <ele>168.6</ele>
        <time>2024-09-20T09:11:44Z</time>
      </trkpt>
      <trkpt lat="45.81611" lon="4.84972">
        <ele>168.6</ele>
        <time>2024-09-20T09:11:45Z</time>
      </trkpt>
      <trkpt lat="45.81608" lon="4.84966">
        <ele>168.6</ele>
        <time>2024-09-20T09:11:46Z</time>
      </trkpt>
      <trkpt lat="45.81606" lon="4.8496">
        <ele>168.6</ele>
        <time>2024-09-20T09:11:47Z</time>
      </trkpt>
      <trkpt lat="45.81603" lon="4.84954">
        <ele>168.6</ele>
        <time>2024-09-20T09:11:48Z</time>
      </trkpt>
      <trkpt lat="45.81601" lon="4.84947">
        <ele>168.4</ele>
        <time>2024-09-20T09:11:49Z</time>
      </trkpt>
      <trkpt lat="45.81598" lon="4.84941">
        <ele>168.4</ele>
        <time>2024-09-20T09:11:50Z</time>
      </trkpt>
      <trkpt lat="45.81596" lon="4.84935">
        <ele>168.4</ele>
        <time>2024-09-20T09:11:51Z</time>
      </trkpt>
      <trkpt lat="45.81596" lon="4.84935">
        <ele>168.6</ele>
        <time>2024-09-20T09:11:52Z</time>
      </trkpt>
      <trkpt lat="45.81591" lon="4.84924">
        <ele>168.4</ele>
        <time>2024-09-20T09:11:53Z</time>
      </trkpt>
      <trkpt lat="45.81589" lon="4.84918">
        <ele>168.4</ele>
        <time>2024-09-20T09:11:54Z</time>
      </trkpt>
      <trkpt lat="45.81587" lon="4.84912">
        <ele>168.4</ele>
        <time>2024-09-20T09:11:55Z</time>
      </trkpt>
      <trkpt lat="45.81585" lon="4.84907">
        <ele>168.8</ele>
        <time>2024-09-20T09:11:56Z</time>
      </trkpt>
      <trkpt lat="45.81583" lon="4.84904">
        <ele>168.4</ele>
        <time>2024-09-20T09:11:57Z</time>
      </trkpt>
      <trkpt lat="45.81582" lon="4.849">
        <ele>168.4</ele>
        <time>2024-09-20T09:11:58Z</time>
      </trkpt>
      <trkpt lat="45.81582" lon="4.84897">
        <ele>168.4</ele>
        <time>2024-09-20T09:11:59Z</time>
      </trkpt>
      <trkpt lat="45.81583" lon="4.84893">
        <ele>168.4</ele>
        <time>2024-09-20T09:12:00Z</time>
      </trkpt>
      <trkpt lat="45.81584" lon="4.8489">
        <ele>168.4</ele>
        <time>2024-09-20T09:12:01Z</time>
      </trkpt>
      <trkpt lat="45.81585" lon="4.84886">
        <ele>168.4</ele>
        <time>2024-09-20T09:12:02Z</time>
      </trkpt>
      <trkpt lat="45.81584" lon="4.84881">
        <ele>168.6</ele>
        <time>2024-09-20T09:12:03Z</time>
      </trkpt>
      <trkpt lat="45.81583" lon="4.84876">
        <ele>168.6</ele>
        <time>2024-09-20T09:12:04Z</time>
      </trkpt>
      <trkpt lat="45.81581" lon="4.84872">
        <ele>168.6</ele>
        <time>2024-09-20T09:12:05Z</time>
      </trkpt>
      <trkpt lat="45.81579" lon="4.84867">
        <ele>168.2</ele>
        <time>2024-09-20T09:12:06Z</time>
      </trkpt>
      <trkpt lat="45.81577" lon="4.84862">
        <ele>168.2</ele>
        <time>2024-09-20T09:12:07Z</time>
      </trkpt>
      <trkpt lat="45.81575" lon="4.84856">
        <ele>168.4</ele>
        <time>2024-09-20T09:12:08Z</time>
      </trkpt>
      <trkpt lat="45.81573" lon="4.84851">
        <ele>168.4</ele>
        <time>2024-09-20T09:12:09Z</time>
      </trkpt>
      <trkpt lat="45.81571" lon="4.84845">
        <ele>168.4</ele>
        <time>2024-09-20T09:12:10Z</time>
      </trkpt>
      <trkpt lat="45.81569" lon="4.84839">
        <ele>168.4</ele>
        <time>2024-09-20T09:12:11Z</time>
      </trkpt>
      <trkpt lat="45.81566" lon="4.84833">
        <ele>168.4</ele>
        <time>2024-09-20T09:12:12Z</time>
      </trkpt>
      <trkpt lat="45.81564" lon="4.84827">
        <ele>168.4</ele>
        <time>2024-09-20T09:12:13Z</time>
      </trkpt>
      <trkpt lat="45.81562" lon="4.84821">
        <ele>168.4</ele>
        <time>2024-09-20T09:12:14Z</time>
      </trkpt>
      <trkpt lat="45.8156" lon="4.84815">
        <ele>168.4</ele>
        <time>2024-09-20T09:12:15Z</time>
      </trkpt>
      <trkpt lat="45.81557" lon="4.8481">
        <ele>168.6</ele>
        <time>2024-09-20T09:12:16Z</time>
      </trkpt>
      <trkpt lat="45.81555" lon="4.84804">
        <ele>168.6</ele>
        <time>2024-09-20T09:12:17Z</time>
      </trkpt>
      <trkpt lat="45.81553" lon="4.84798">
        <ele>168.6</ele>
        <time>2024-09-20T09:12:18Z</time>
      </trkpt>
      <trkpt lat="45.8155" lon="4.84791">
        <ele>168.6</ele>
        <time>2024-09-20T09:12:19Z</time>
      </trkpt>
      <trkpt lat="45.81548" lon="4.84785">
        <ele>168.6</ele>
        <time>2024-09-20T09:12:20Z</time>
      </trkpt>
      <trkpt lat="45.81545" lon="4.84779">
        <ele>168.6</ele>
        <time>2024-09-20T09:12:21Z</time>
      </trkpt>
      <trkpt lat="45.81543" lon="4.84773">
        <ele>168.6</ele>
        <time>2024-09-20T09:12:22Z</time>
      </trkpt>
      <trkpt lat="45.81541" lon="4.84767">
        <ele>168.6</ele>
        <time>2024-09-20T09:12:23Z</time>
      </trkpt>
      <trkpt lat="45.8154" lon="4.8476">
        <ele>168.6</ele>
        <time>2024-09-20T09:12:24Z</time>
      </trkpt>
      <trkpt lat="45.81538" lon="4.84754">
        <ele>168.6</ele>
        <time>2024-09-20T09:12:25Z</time>
      </trkpt>
      <trkpt lat="45.81536" lon="4.84748">
        <ele>168.8</ele>
        <time>2024-09-20T09:12:26Z</time>
      </trkpt>
      <trkpt lat="45.81534" lon="4.84741">
        <ele>168.8</ele>
        <time>2024-09-20T09:12:27Z</time>
      </trkpt>
      <trkpt lat="45.81532" lon="4.84735">
        <ele>169</ele>
        <time>2024-09-20T09:12:28Z</time>
      </trkpt>
      <trkpt lat="45.81531" lon="4.84729">
        <ele>169.2</ele>
        <time>2024-09-20T09:12:29Z</time>
      </trkpt>
      <trkpt lat="45.81529" lon="4.84723">
        <ele>169.2</ele>
        <time>2024-09-20T09:12:30Z</time>
      </trkpt>
      <trkpt lat="45.81527" lon="4.84717">
        <ele>169.2</ele>
        <time>2024-09-20T09:12:31Z</time>
      </trkpt>
      <trkpt lat="45.81526" lon="4.84712">
        <ele>169.2</ele>
        <time>2024-09-20T09:12:32Z</time>
      </trkpt>
      <trkpt lat="45.81524" lon="4.84707">
        <ele>169.2</ele>
        <time>2024-09-20T09:12:33Z</time>
      </trkpt>
      <trkpt lat="45.81523" lon="4.84701">
        <ele>169.4</ele>
        <time>2024-09-20T09:12:34Z</time>
      </trkpt>
      <trkpt lat="45.81521" lon="4.84696">
        <ele>169.4</ele>
        <time>2024-09-20T09:12:35Z</time>
      </trkpt>
      <trkpt lat="45.8152" lon="4.8469">
        <ele>169.4</ele>
        <time>2024-09-20T09:12:36Z</time>
      </trkpt>
      <trkpt lat="45.81518" lon="4.84685">
        <ele>169.4</ele>
        <time>2024-09-20T09:12:37Z</time>
      </trkpt>
      <trkpt lat="45.81516" lon="4.8468">
        <ele>170</ele>
        <time>2024-09-20T09:12:38Z</time>
      </trkpt>
      <trkpt lat="45.81514" lon="4.84675">
        <ele>170</ele>
        <time>2024-09-20T09:12:39Z</time>
      </trkpt>
      <trkpt lat="45.81512" lon="4.8467">
        <ele>170</ele>
        <time>2024-09-20T09:12:40Z</time>
      </trkpt>
      <trkpt lat="45.8151" lon="4.84665">
        <ele>170.8</ele>
        <time>2024-09-20T09:12:41Z</time>
      </trkpt>
      <trkpt lat="45.81508" lon="4.8466">
        <ele>170.8</ele>
        <time>2024-09-20T09:12:42Z</time>
      </trkpt>
      <trkpt lat="45.81506" lon="4.84655">
        <ele>170.8</ele>
        <time>2024-09-20T09:12:43Z</time>
      </trkpt>
      <trkpt lat="45.81504" lon="4.84651">
        <ele>170.8</ele>
        <time>2024-09-20T09:12:44Z</time>
      </trkpt>
      <trkpt lat="45.81503" lon="4.84647">
        <ele>170.8</ele>
        <time>2024-09-20T09:12:45Z</time>
      </trkpt>
      <trkpt lat="45.81501" lon="4.84642">
        <ele>170.8</ele>
        <time>2024-09-20T09:12:46Z</time>
      </trkpt>
      <trkpt lat="45.815" lon="4.84638">
        <ele>171.8</ele>
        <time>2024-09-20T09:12:47Z</time>
      </trkpt>
      <trkpt lat="45.81499" lon="4.84633">
        <ele>171.8</ele>
        <time>2024-09-20T09:12:48Z</time>
      </trkpt>
      <trkpt lat="45.81498" lon="4.84628">
        <ele>171.8</ele>
        <time>2024-09-20T09:12:49Z</time>
      </trkpt>
      <trkpt lat="45.81497" lon="4.84623">
        <ele>171.8</ele>
        <time>2024-09-20T09:12:50Z</time>
      </trkpt>
      <trkpt lat="45.81494" lon="4.8462">
        <ele>172</ele>
        <time>2024-09-20T09:12:51Z</time>
      </trkpt>
      <trkpt lat="45.81492" lon="4.84617">
        <ele>172</ele>
        <time>2024-09-20T09:12:52Z</time>
      </trkpt>
      <trkpt lat="45.81488" lon="4.84616">
        <ele>172</ele>
        <time>2024-09-20T09:12:53Z</time>
      </trkpt>
      <trkpt lat="45.81486" lon="4.84616">
        <ele>172</ele>
        <time>2024-09-20T09:12:54Z</time>
      </trkpt>
      <trkpt lat="45.81483" lon="4.84618">
        <ele>172.2</ele>
        <time>2024-09-20T09:12:55Z</time>
      </trkpt>
      <trkpt lat="45.81481" lon="4.84619">
        <ele>172.2</ele>
        <time>2024-09-20T09:12:56Z</time>
      </trkpt>
      <trkpt lat="45.81478" lon="4.8462">
        <ele>172.2</ele>
        <time>2024-09-20T09:12:57Z</time>
      </trkpt>
      <trkpt lat="45.81476" lon="4.8462">
        <ele>172.2</ele>
        <time>2024-09-20T09:12:58Z</time>
      </trkpt>
      <trkpt lat="45.81473" lon="4.84619">
        <ele>172.2</ele>
        <time>2024-09-20T09:12:59Z</time>
      </trkpt>
      <trkpt lat="45.81471" lon="4.84616">
        <ele>171.8</ele>
        <time>2024-09-20T09:13:00Z</time>
      </trkpt>
      <trkpt lat="45.81469" lon="4.84613">
        <ele>171.8</ele>
        <time>2024-09-20T09:13:01Z</time>
      </trkpt>
      <trkpt lat="45.81468" lon="4.8461">
        <ele>171.8</ele>
        <time>2024-09-20T09:13:02Z</time>
      </trkpt>
      <trkpt lat="45.81466" lon="4.84606">
        <ele>171.8</ele>
        <time>2024-09-20T09:13:03Z</time>
      </trkpt>
      <trkpt lat="45.81465" lon="4.84602">
        <ele>171.4</ele>
        <time>2024-09-20T09:13:04Z</time>
      </trkpt>
      <trkpt lat="45.81463" lon="4.84598">
        <ele>171.4</ele>
        <time>2024-09-20T09:13:05Z</time>
      </trkpt>
      <trkpt lat="45.81461" lon="4.84594">
        <ele>171.4</ele>
        <time>2024-09-20T09:13:06Z</time>
      </trkpt>
      <trkpt lat="45.81459" lon="4.8459">
        <ele>171.4</ele>
        <time>2024-09-20T09:13:07Z</time>
      </trkpt>
      <trkpt lat="45.81456" lon="4.84587">
        <ele>171</ele>
        <time>2024-09-20T09:13:08Z</time>
      </trkpt>
      <trkpt lat="45.81453" lon="4.84584">
        <ele>170.8</ele>
        <time>2024-09-20T09:13:09Z</time>
      </trkpt>
      <trkpt lat="45.8145" lon="4.8458">
        <ele>170.8</ele>
        <time>2024-09-20T09:13:10Z</time>
      </trkpt>
      <trkpt lat="45.81448" lon="4.84577">
        <ele>170.8</ele>
        <time>2024-09-20T09:13:11Z</time>
      </trkpt>
      <trkpt lat="45.81445" lon="4.84573">
        <ele>170.8</ele>
        <time>2024-09-20T09:13:12Z</time>
      </trkpt>
      <trkpt lat="45.81442" lon="4.84569">
        <ele>170.4</ele>
        <time>2024-09-20T09:13:13Z</time>
      </trkpt>
      <trkpt lat="45.81438" lon="4.84565">
        <ele>170.4</ele>
        <time>2024-09-20T09:13:14Z</time>
      </trkpt>
      <trkpt lat="45.81434" lon="4.84561">
        <ele>170.4</ele>
        <time>2024-09-20T09:13:15Z</time>
      </trkpt>
      <trkpt lat="45.81431" lon="4.84557">
        <ele>170.4</ele>
        <time>2024-09-20T09:13:16Z</time>
      </trkpt>
      <trkpt lat="45.81427" lon="4.84553">
        <ele>170</ele>
        <time>2024-09-20T09:13:17Z</time>
      </trkpt>
      <trkpt lat="45.81424" lon="4.84548">
        <ele>169.8</ele>
        <time>2024-09-20T09:13:18Z</time>
      </trkpt>
      <trkpt lat="45.8142" lon="4.84544">
        <ele>169.8</ele>
        <time>2024-09-20T09:13:19Z</time>
      </trkpt>
      <trkpt lat="45.81417" lon="4.84539">
        <ele>169.8</ele>
        <time>2024-09-20T09:13:20Z</time>
      </trkpt>
      <trkpt lat="45.81413" lon="4.84534">
        <ele>169.6</ele>
        <time>2024-09-20T09:13:21Z</time>
      </trkpt>
      <trkpt lat="45.81408" lon="4.8453">
        <ele>169.6</ele>
        <time>2024-09-20T09:13:22Z</time>
      </trkpt>
      <trkpt lat="45.81404" lon="4.84525">
        <ele>169.4</ele>
        <time>2024-09-20T09:13:23Z</time>
      </trkpt>
      <trkpt lat="45.814" lon="4.8452">
        <ele>169.4</ele>
        <time>2024-09-20T09:13:24Z</time>
      </trkpt>
      <trkpt lat="45.81396" lon="4.84515">
        <ele>169.4</ele>
        <time>2024-09-20T09:13:25Z</time>
      </trkpt>
      <trkpt lat="45.81392" lon="4.8451">
        <ele>169.2</ele>
        <time>2024-09-20T09:13:26Z</time>
      </trkpt>
      <trkpt lat="45.81387" lon="4.84505">
        <ele>169.2</ele>
        <time>2024-09-20T09:13:27Z</time>
      </trkpt>
      <trkpt lat="45.81383" lon="4.84499">
        <ele>169.2</ele>
        <time>2024-09-20T09:13:28Z</time>
      </trkpt>
      <trkpt lat="45.81379" lon="4.84494">
        <ele>169.2</ele>
        <time>2024-09-20T09:13:29Z</time>
      </trkpt>
      <trkpt lat="45.81375" lon="4.84489">
        <ele>169.2</ele>
        <time>2024-09-20T09:13:30Z</time>
      </trkpt>
      <trkpt lat="45.81371" lon="4.84484">
        <ele>168.8</ele>
        <time>2024-09-20T09:13:31Z</time>
      </trkpt>
      <trkpt lat="45.81367" lon="4.84479">
        <ele>168.8</ele>
        <time>2024-09-20T09:13:32Z</time>
      </trkpt>
      <trkpt lat="45.81363" lon="4.84474">
        <ele>168.8</ele>
        <time>2024-09-20T09:13:33Z</time>
      </trkpt>
      <trkpt lat="45.81359" lon="4.84469">
        <ele>168.8</ele>
        <time>2024-09-20T09:13:34Z</time>
      </trkpt>
      <trkpt lat="45.81355" lon="4.84464">
        <ele>168.8</ele>
        <time>2024-09-20T09:13:35Z</time>
      </trkpt>
      <trkpt lat="45.81351" lon="4.84459">
        <ele>168.8</ele>
        <time>2024-09-20T09:13:36Z</time>
      </trkpt>
      <trkpt lat="45.81347" lon="4.84454">
        <ele>168.6</ele>
        <time>2024-09-20T09:13:37Z</time>
      </trkpt>
      <trkpt lat="45.81343" lon="4.8445">
        <ele>168.6</ele>
        <time>2024-09-20T09:13:38Z</time>
      </trkpt>
      <trkpt lat="45.81339" lon="4.84445">
        <ele>168.6</ele>
        <time>2024-09-20T09:13:39Z</time>
      </trkpt>
      <trkpt lat="45.81335" lon="4.8444">
        <ele>169</ele>
        <time>2024-09-20T09:13:40Z</time>
      </trkpt>
      <trkpt lat="45.81332" lon="4.84436">
        <ele>168.8</ele>
        <time>2024-09-20T09:13:41Z</time>
      </trkpt>
      <trkpt lat="45.81328" lon="4.84432">
        <ele>168.8</ele>
        <time>2024-09-20T09:13:42Z</time>
      </trkpt>
      <trkpt lat="45.81324" lon="4.84428">
        <ele>168.8</ele>
        <time>2024-09-20T09:13:43Z</time>
      </trkpt>
      <trkpt lat="45.8132" lon="4.84423">
        <ele>168.8</ele>
        <time>2024-09-20T09:13:44Z</time>
      </trkpt>
      <trkpt lat="45.81316" lon="4.84419">
        <ele>168.8</ele>
        <time>2024-09-20T09:13:45Z</time>
      </trkpt>
      <trkpt lat="45.81313" lon="4.84415">
        <ele>168.8</ele>
        <time>2024-09-20T09:13:46Z</time>
      </trkpt>
      <trkpt lat="45.81309" lon="4.8441">
        <ele>168.8</ele>
        <time>2024-09-20T09:13:47Z</time>
      </trkpt>
      <trkpt lat="45.81305" lon="4.84406">
        <ele>168.8</ele>
        <time>2024-09-20T09:13:48Z</time>
      </trkpt>
      <trkpt lat="45.81301" lon="4.84401">
        <ele>168.8</ele>
        <time>2024-09-20T09:13:49Z</time>
      </trkpt>
      <trkpt lat="45.81298" lon="4.84396">
        <ele>168.8</ele>
        <time>2024-09-20T09:13:50Z</time>
      </trkpt>
      <trkpt lat="45.81294" lon="4.84392">
        <ele>168.8</ele>
        <time>2024-09-20T09:13:51Z</time>
      </trkpt>
      <trkpt lat="45.8129" lon="4.84387">
        <ele>168.8</ele>
        <time>2024-09-20T09:13:52Z</time>
      </trkpt>
      <trkpt lat="45.81287" lon="4.84382">
        <ele>168.8</ele>
        <time>2024-09-20T09:13:53Z</time>
      </trkpt>
      <trkpt lat="45.81283" lon="4.84377">
        <ele>168.8</ele>
        <time>2024-09-20T09:13:54Z</time>
      </trkpt>
      <trkpt lat="45.81279" lon="4.84372">
        <ele>168.8</ele>
        <time>2024-09-20T09:13:55Z</time>
      </trkpt>
      <trkpt lat="45.81275" lon="4.84367">
        <ele>168.8</ele>
        <time>2024-09-20T09:13:56Z</time>
      </trkpt>
      <trkpt lat="45.81271" lon="4.84363">
        <ele>168.8</ele>
        <time>2024-09-20T09:13:57Z</time>
      </trkpt>
      <trkpt lat="45.81267" lon="4.84358">
        <ele>168.8</ele>
        <time>2024-09-20T09:13:58Z</time>
      </trkpt>
      <trkpt lat="45.81263" lon="4.84353">
        <ele>168.8</ele>
        <time>2024-09-20T09:13:59Z</time>
      </trkpt>
      <trkpt lat="45.81259" lon="4.84349">
        <ele>168.8</ele>
        <time>2024-09-20T09:14:00Z</time>
      </trkpt>
      <trkpt lat="45.81255" lon="4.84345">
        <ele>168.8</ele>
        <time>2024-09-20T09:14:01Z</time>
      </trkpt>
      <trkpt lat="45.8125" lon="4.8434">
        <ele>168.8</ele>
        <time>2024-09-20T09:14:02Z</time>
      </trkpt>
      <trkpt lat="45.81246" lon="4.84336">
        <ele>168.8</ele>
        <time>2024-09-20T09:14:03Z</time>
      </trkpt>
      <trkpt lat="45.81242" lon="4.84333">
        <ele>168.8</ele>
        <time>2024-09-20T09:14:04Z</time>
      </trkpt>
      <trkpt lat="45.81238" lon="4.84329">
        <ele>168.8</ele>
        <time>2024-09-20T09:14:05Z</time>
      </trkpt>
      <trkpt lat="45.81233" lon="4.84324">
        <ele>169</ele>
        <time>2024-09-20T09:14:06Z</time>
      </trkpt>
      <trkpt lat="45.81229" lon="4.8432">
        <ele>169.2</ele>
        <time>2024-09-20T09:14:07Z</time>
      </trkpt>
      <trkpt lat="45.81225" lon="4.84316">
        <ele>169.2</ele>
        <time>2024-09-20T09:14:08Z</time>
      </trkpt>
      <trkpt lat="45.81221" lon="4.84312">
        <ele>169.2</ele>
        <time>2024-09-20T09:14:09Z</time>
      </trkpt>
      <trkpt lat="45.81217" lon="4.84308">
        <ele>169.2</ele>
        <time>2024-09-20T09:14:10Z</time>
      </trkpt>
      <trkpt lat="45.81212" lon="4.84305">
        <ele>169.2</ele>
        <time>2024-09-20T09:14:11Z</time>
      </trkpt>
      <trkpt lat="45.81208" lon="4.84301">
        <ele>168.8</ele>
        <time>2024-09-20T09:14:12Z</time>
      </trkpt>
      <trkpt lat="45.81204" lon="4.84297">
        <ele>169</ele>
        <time>2024-09-20T09:14:13Z</time>
      </trkpt>
      <trkpt lat="45.812" lon="4.84294">
        <ele>169</ele>
        <time>2024-09-20T09:14:14Z</time>
      </trkpt>
      <trkpt lat="45.81195" lon="4.8429">
        <ele>169</ele>
        <time>2024-09-20T09:14:15Z</time>
      </trkpt>
      <trkpt lat="45.81191" lon="4.84286">
        <ele>169</ele>
        <time>2024-09-20T09:14:16Z</time>
      </trkpt>
      <trkpt lat="45.81186" lon="4.84283">
        <ele>168.8</ele>
        <time>2024-09-20T09:14:17Z</time>
      </trkpt>
      <trkpt lat="45.81181" lon="4.84279">
        <ele>168.8</ele>
        <time>2024-09-20T09:14:18Z</time>
      </trkpt>
      <trkpt lat="45.81177" lon="4.84276">
        <ele>168.8</ele>
        <time>2024-09-20T09:14:19Z</time>
      </trkpt>
      <trkpt lat="45.81172" lon="4.84273">
        <ele>168.8</ele>
        <time>2024-09-20T09:14:20Z</time>
      </trkpt>
      <trkpt lat="45.81167" lon="4.8427">
        <ele>169</ele>
        <time>2024-09-20T09:14:21Z</time>
      </trkpt>
      <trkpt lat="45.81162" lon="4.84266">
        <ele>169</ele>
        <time>2024-09-20T09:14:22Z</time>
      </trkpt>
      <trkpt lat="45.81158" lon="4.84263">
        <ele>169</ele>
        <time>2024-09-20T09:14:23Z</time>
      </trkpt>
      <trkpt lat="45.81153" lon="4.8426">
        <ele>169</ele>
        <time>2024-09-20T09:14:24Z</time>
      </trkpt>
      <trkpt lat="45.81148" lon="4.84258">
        <ele>169</ele>
        <time>2024-09-20T09:14:25Z</time>
      </trkpt>
      <trkpt lat="45.81143" lon="4.84255">
        <ele>169</ele>
        <time>2024-09-20T09:14:26Z</time>
      </trkpt>
      <trkpt lat="45.81138" lon="4.84252">
        <ele>168.8</ele>
        <time>2024-09-20T09:14:27Z</time>
      </trkpt>
      <trkpt lat="45.81133" lon="4.84249">
        <ele>168.8</ele>
        <time>2024-09-20T09:14:28Z</time>
      </trkpt>
      <trkpt lat="45.81128" lon="4.84246">
        <ele>169</ele>
        <time>2024-09-20T09:14:29Z</time>
      </trkpt>
      <trkpt lat="45.81123" lon="4.84244">
        <ele>169</ele>
        <time>2024-09-20T09:14:30Z</time>
      </trkpt>
      <trkpt lat="45.81119" lon="4.84241">
        <ele>169</ele>
        <time>2024-09-20T09:14:31Z</time>
      </trkpt>
      <trkpt lat="45.81114" lon="4.84239">
        <ele>169</ele>
        <time>2024-09-20T09:14:32Z</time>
      </trkpt>
      <trkpt lat="45.81109" lon="4.84236">
        <ele>169</ele>
        <time>2024-09-20T09:14:33Z</time>
      </trkpt>
      <trkpt lat="45.81104" lon="4.84234">
        <ele>169</ele>
        <time>2024-09-20T09:14:34Z</time>
      </trkpt>
      <trkpt lat="45.81099" lon="4.84231">
        <ele>168.6</ele>
        <time>2024-09-20T09:14:35Z</time>
      </trkpt>
      <trkpt lat="45.81094" lon="4.84229">
        <ele>168.6</ele>
        <time>2024-09-20T09:14:36Z</time>
      </trkpt>
      <trkpt lat="45.81089" lon="4.84226">
        <ele>168.6</ele>
        <time>2024-09-20T09:14:37Z</time>
      </trkpt>
      <trkpt lat="45.81084" lon="4.84224">
        <ele>168.8</ele>
        <time>2024-09-20T09:14:38Z</time>
      </trkpt>
      <trkpt lat="45.81079" lon="4.84223">
        <ele>168.8</ele>
        <time>2024-09-20T09:14:39Z</time>
      </trkpt>
      <trkpt lat="45.81074" lon="4.84222">
        <ele>168.8</ele>
        <time>2024-09-20T09:14:40Z</time>
      </trkpt>
      <trkpt lat="45.8107" lon="4.8422">
        <ele>168.8</ele>
        <time>2024-09-20T09:14:41Z</time>
      </trkpt>
      <trkpt lat="45.81065" lon="4.84219">
        <ele>168.8</ele>
        <time>2024-09-20T09:14:42Z</time>
      </trkpt>
      <trkpt lat="45.81061" lon="4.84217">
        <ele>168.6</ele>
        <time>2024-09-20T09:14:43Z</time>
      </trkpt>
      <trkpt lat="45.81056" lon="4.84215">
        <ele>168.4</ele>
        <time>2024-09-20T09:14:44Z</time>
      </trkpt>
      <trkpt lat="45.81051" lon="4.84213">
        <ele>168.4</ele>
        <time>2024-09-20T09:14:45Z</time>
      </trkpt>
      <trkpt lat="45.81047" lon="4.84212">
        <ele>168.4</ele>
        <time>2024-09-20T09:14:46Z</time>
      </trkpt>
      <trkpt lat="45.81043" lon="4.8421">
        <ele>169</ele>
        <time>2024-09-20T09:14:47Z</time>
      </trkpt>
      <trkpt lat="45.81038" lon="4.84209">
        <ele>169.2</ele>
        <time>2024-09-20T09:14:48Z</time>
      </trkpt>
      <trkpt lat="45.81033" lon="4.84207">
        <ele>169.2</ele>
        <time>2024-09-20T09:14:49Z</time>
      </trkpt>
      <trkpt lat="45.81029" lon="4.84206">
        <ele>169.2</ele>
        <time>2024-09-20T09:14:50Z</time>
      </trkpt>
      <trkpt lat="45.81024" lon="4.84206">
        <ele>169.2</ele>
        <time>2024-09-20T09:14:51Z</time>
      </trkpt>
      <trkpt lat="45.8102" lon="4.84205">
        <ele>169.2</ele>
        <time>2024-09-20T09:14:52Z</time>
      </trkpt>
      <trkpt lat="45.81015" lon="4.84204">
        <ele>169.2</ele>
        <time>2024-09-20T09:14:53Z</time>
      </trkpt>
      <trkpt lat="45.8101" lon="4.84203">
        <ele>169.2</ele>
        <time>2024-09-20T09:14:54Z</time>
      </trkpt>
      <trkpt lat="45.81006" lon="4.84201">
        <ele>169.2</ele>
        <time>2024-09-20T09:14:55Z</time>
      </trkpt>
      <trkpt lat="45.81001" lon="4.84201">
        <ele>169.2</ele>
        <time>2024-09-20T09:14:56Z</time>
      </trkpt>
      <trkpt lat="45.80996" lon="4.842">
        <ele>169.2</ele>
        <time>2024-09-20T09:14:57Z</time>
      </trkpt>
      <trkpt lat="45.80991" lon="4.842">
        <ele>169.2</ele>
        <time>2024-09-20T09:14:58Z</time>
      </trkpt>
      <trkpt lat="45.80986" lon="4.84199">
        <ele>169.2</ele>
        <time>2024-09-20T09:14:59Z</time>
      </trkpt>
      <trkpt lat="45.80982" lon="4.84198">
        <ele>169.2</ele>
        <time>2024-09-20T09:15:00Z</time>
      </trkpt>
      <trkpt lat="45.80977" lon="4.84198">
        <ele>169.2</ele>
        <time>2024-09-20T09:15:01Z</time>
      </trkpt>
      <trkpt lat="45.80972" lon="4.84198">
        <ele>169.2</ele>
        <time>2024-09-20T09:15:02Z</time>
      </trkpt>
      <trkpt lat="45.80968" lon="4.84197">
        <ele>169.4</ele>
        <time>2024-09-20T09:15:03Z</time>
      </trkpt>
      <trkpt lat="45.80963" lon="4.84197">
        <ele>169.4</ele>
        <time>2024-09-20T09:15:04Z</time>
      </trkpt>
      <trkpt lat="45.80958" lon="4.84197">
        <ele>169.4</ele>
        <time>2024-09-20T09:15:05Z</time>
      </trkpt>
      <trkpt lat="45.80953" lon="4.84197">
        <ele>169.4</ele>
        <time>2024-09-20T09:15:06Z</time>
      </trkpt>
      <trkpt lat="45.80948" lon="4.84197">
        <ele>169.2</ele>
        <time>2024-09-20T09:15:07Z</time>
      </trkpt>
      <trkpt lat="45.80943" lon="4.84196">
        <ele>169.2</ele>
        <time>2024-09-20T09:15:08Z</time>
      </trkpt>
      <trkpt lat="45.80938" lon="4.84196">
        <ele>169.2</ele>
        <time>2024-09-20T09:15:09Z</time>
      </trkpt>
      <trkpt lat="45.80933" lon="4.84195">
        <ele>169.2</ele>
        <time>2024-09-20T09:15:10Z</time>
      </trkpt>
      <trkpt lat="45.80928" lon="4.84195">
        <ele>169.2</ele>
        <time>2024-09-20T09:15:11Z</time>
      </trkpt>
      <trkpt lat="45.80924" lon="4.84195">
        <ele>169.2</ele>
        <time>2024-09-20T09:15:12Z</time>
      </trkpt>
      <trkpt lat="45.80919" lon="4.84195">
        <ele>169.2</ele>
        <time>2024-09-20T09:15:13Z</time>
      </trkpt>
      <trkpt lat="45.80914" lon="4.84195">
        <ele>169.2</ele>
        <time>2024-09-20T09:15:14Z</time>
      </trkpt>
      <trkpt lat="45.80909" lon="4.84195">
        <ele>169.4</ele>
        <time>2024-09-20T09:15:15Z</time>
      </trkpt>
      <trkpt lat="45.80904" lon="4.84195">
        <ele>169.4</ele>
        <time>2024-09-20T09:15:16Z</time>
      </trkpt>
      <trkpt lat="45.80899" lon="4.84195">
        <ele>169.4</ele>
        <time>2024-09-20T09:15:17Z</time>
      </trkpt>
      <trkpt lat="45.80894" lon="4.84195">
        <ele>169.4</ele>
        <time>2024-09-20T09:15:18Z</time>
      </trkpt>
      <trkpt lat="45.8089" lon="4.84195">
        <ele>169.4</ele>
        <time>2024-09-20T09:15:19Z</time>
      </trkpt>
      <trkpt lat="45.80885" lon="4.84195">
        <ele>169.4</ele>
        <time>2024-09-20T09:15:20Z</time>
      </trkpt>
      <trkpt lat="45.8088" lon="4.84195">
        <ele>169.2</ele>
        <time>2024-09-20T09:15:21Z</time>
      </trkpt>
      <trkpt lat="45.80875" lon="4.84196">
        <ele>169.2</ele>
        <time>2024-09-20T09:15:22Z</time>
      </trkpt>
      <trkpt lat="45.8087" lon="4.84195">
        <ele>169.2</ele>
        <time>2024-09-20T09:15:23Z</time>
      </trkpt>
      <trkpt lat="45.80865" lon="4.84195">
        <ele>169.2</ele>
        <time>2024-09-20T09:15:24Z</time>
      </trkpt>
      <trkpt lat="45.8086" lon="4.84196">
        <ele>169.2</ele>
        <time>2024-09-20T09:15:25Z</time>
      </trkpt>
      <trkpt lat="45.80855" lon="4.84195">
        <ele>169.2</ele>
        <time>2024-09-20T09:15:26Z</time>
      </trkpt>
      <trkpt lat="45.8085" lon="4.84195">
        <ele>169.2</ele>
        <time>2024-09-20T09:15:27Z</time>
      </trkpt>
      <trkpt lat="45.80845" lon="4.84195">
        <ele>169.2</ele>
        <time>2024-09-20T09:15:28Z</time>
      </trkpt>
      <trkpt lat="45.8084" lon="4.84195">
        <ele>169</ele>
        <time>2024-09-20T09:15:29Z</time>
      </trkpt>
      <trkpt lat="45.80835" lon="4.84194">
        <ele>169</ele>
        <time>2024-09-20T09:15:30Z</time>
      </trkpt>
      <trkpt lat="45.8083" lon="4.84193">
        <ele>169</ele>
        <time>2024-09-20T09:15:31Z</time>
      </trkpt>
      <trkpt lat="45.80825" lon="4.84193">
        <ele>169</ele>
        <time>2024-09-20T09:15:32Z</time>
      </trkpt>
      <trkpt lat="45.80821" lon="4.84192">
        <ele>169.2</ele>
        <time>2024-09-20T09:15:33Z</time>
      </trkpt>
      <trkpt lat="45.80816" lon="4.84192">
        <ele>169.2</ele>
        <time>2024-09-20T09:15:34Z</time>
      </trkpt>
      <trkpt lat="45.80811" lon="4.84191">
        <ele>169.2</ele>
        <time>2024-09-20T09:15:35Z</time>
      </trkpt>
      <trkpt lat="45.80806" lon="4.8419">
        <ele>169.2</ele>
        <time>2024-09-20T09:15:36Z</time>
      </trkpt>
      <trkpt lat="45.80801" lon="4.8419">
        <ele>169.2</ele>
        <time>2024-09-20T09:15:37Z</time>
      </trkpt>
      <trkpt lat="45.80796" lon="4.84189">
        <ele>169.2</ele>
        <time>2024-09-20T09:15:38Z</time>
      </trkpt>
      <trkpt lat="45.80792" lon="4.84189">
        <ele>169.2</ele>
        <time>2024-09-20T09:15:39Z</time>
      </trkpt>
      <trkpt lat="45.80787" lon="4.84188">
        <ele>169.2</ele>
        <time>2024-09-20T09:15:40Z</time>
      </trkpt>
      <trkpt lat="45.80782" lon="4.84188">
        <ele>169.2</ele>
        <time>2024-09-20T09:15:41Z</time>
      </trkpt>
      <trkpt lat="45.80777" lon="4.84187">
        <ele>169.2</ele>
        <time>2024-09-20T09:15:42Z</time>
      </trkpt>
      <trkpt lat="45.80772" lon="4.84186">
        <ele>169.2</ele>
        <time>2024-09-20T09:15:43Z</time>
      </trkpt>
      <trkpt lat="45.80768" lon="4.84185">
        <ele>169.2</ele>
        <time>2024-09-20T09:15:44Z</time>
      </trkpt>
      <trkpt lat="45.80763" lon="4.84184">
        <ele>169.2</ele>
        <time>2024-09-20T09:15:45Z</time>
      </trkpt>
      <trkpt lat="45.80758" lon="4.84183">
        <ele>169.4</ele>
        <time>2024-09-20T09:15:46Z</time>
      </trkpt>
      <trkpt lat="45.80753" lon="4.84182">
        <ele>169.2</ele>
        <time>2024-09-20T09:15:47Z</time>
      </trkpt>
      <trkpt lat="45.80748" lon="4.84181">
        <ele>169.2</ele>
        <time>2024-09-20T09:15:48Z</time>
      </trkpt>
      <trkpt lat="45.80743" lon="4.84179">
        <ele>169.2</ele>
        <time>2024-09-20T09:15:49Z</time>
      </trkpt>
      <trkpt lat="45.80738" lon="4.84178">
        <ele>169.2</ele>
        <time>2024-09-20T09:15:50Z</time>
      </trkpt>
      <trkpt lat="45.80734" lon="4.84176">
        <ele>169</ele>
        <time>2024-09-20T09:15:51Z</time>
      </trkpt>
      <trkpt lat="45.80729" lon="4.84175">
        <ele>169.4</ele>
        <time>2024-09-20T09:15:52Z</time>
      </trkpt>
      <trkpt lat="45.80724" lon="4.84174">
        <ele>169.4</ele>
        <time>2024-09-20T09:15:53Z</time>
      </trkpt>
      <trkpt lat="45.80719" lon="4.84173">
        <ele>169.4</ele>
        <time>2024-09-20T09:15:54Z</time>
      </trkpt>
      <trkpt lat="45.80714" lon="4.84171">
        <ele>169.4</ele>
        <time>2024-09-20T09:15:55Z</time>
      </trkpt>
      <trkpt lat="45.8071" lon="4.84169">
        <ele>169.4</ele>
        <time>2024-09-20T09:15:56Z</time>
      </trkpt>
      <trkpt lat="45.80705" lon="4.84168">
        <ele>169.8</ele>
        <time>2024-09-20T09:15:57Z</time>
      </trkpt>
      <trkpt lat="45.80701" lon="4.84167">
        <ele>169.8</ele>
        <time>2024-09-20T09:15:58Z</time>
      </trkpt>
      <trkpt lat="45.80696" lon="4.84165">
        <ele>169.8</ele>
        <time>2024-09-20T09:15:59Z</time>
      </trkpt>
      <trkpt lat="45.80692" lon="4.84164">
        <ele>169.4</ele>
        <time>2024-09-20T09:16:00Z</time>
      </trkpt>
      <trkpt lat="45.80687" lon="4.84162">
        <ele>169.2</ele>
        <time>2024-09-20T09:16:01Z</time>
      </trkpt>
      <trkpt lat="45.80683" lon="4.84161">
        <ele>169.2</ele>
        <time>2024-09-20T09:16:02Z</time>
      </trkpt>
      <trkpt lat="45.80678" lon="4.84159">
        <ele>169.2</ele>
        <time>2024-09-20T09:16:03Z</time>
      </trkpt>
      <trkpt lat="45.80674" lon="4.84158">
        <ele>169.2</ele>
        <time>2024-09-20T09:16:04Z</time>
      </trkpt>
      <trkpt lat="45.80669" lon="4.84157">
        <ele>169</ele>
        <time>2024-09-20T09:16:05Z</time>
      </trkpt>
      <trkpt lat="45.80665" lon="4.84156">
        <ele>169</ele>
        <time>2024-09-20T09:16:06Z</time>
      </trkpt>
      <trkpt lat="45.8066" lon="4.84154">
        <ele>169</ele>
        <time>2024-09-20T09:16:07Z</time>
      </trkpt>
      <trkpt lat="45.80656" lon="4.84153">
        <ele>169</ele>
        <time>2024-09-20T09:16:08Z</time>
      </trkpt>
      <trkpt lat="45.80651" lon="4.84151">
        <ele>169</ele>
        <time>2024-09-20T09:16:09Z</time>
      </trkpt>
      <trkpt lat="45.80647" lon="4.84149">
        <ele>169.2</ele>
        <time>2024-09-20T09:16:10Z</time>
      </trkpt>
      <trkpt lat="45.80642" lon="4.84147">
        <ele>169.2</ele>
        <time>2024-09-20T09:16:11Z</time>
      </trkpt>
      <trkpt lat="45.80638" lon="4.84145">
        <ele>169.2</ele>
        <time>2024-09-20T09:16:12Z</time>
      </trkpt>
      <trkpt lat="45.80633" lon="4.84143">
        <ele>169.2</ele>
        <time>2024-09-20T09:16:13Z</time>
      </trkpt>
      <trkpt lat="45.80629" lon="4.84141">
        <ele>169.2</ele>
        <time>2024-09-20T09:16:14Z</time>
      </trkpt>
      <trkpt lat="45.80624" lon="4.84139">
        <ele>169.2</ele>
        <time>2024-09-20T09:16:15Z</time>
      </trkpt>
      <trkpt lat="45.8062" lon="4.84137">
        <ele>169.2</ele>
        <time>2024-09-20T09:16:16Z</time>
      </trkpt>
      <trkpt lat="45.80615" lon="4.84135">
        <ele>169</ele>
        <time>2024-09-20T09:16:17Z</time>
      </trkpt>
      <trkpt lat="45.8061" lon="4.84132">
        <ele>169</ele>
        <time>2024-09-20T09:16:18Z</time>
      </trkpt>
      <trkpt lat="45.80606" lon="4.8413">
        <ele>168.8</ele>
        <time>2024-09-20T09:16:19Z</time>
      </trkpt>
      <trkpt lat="45.80601" lon="4.84127">
        <ele>168.8</ele>
        <time>2024-09-20T09:16:20Z</time>
      </trkpt>
      <trkpt lat="45.80597" lon="4.84125">
        <ele>168.8</ele>
        <time>2024-09-20T09:16:21Z</time>
      </trkpt>
      <trkpt lat="45.80592" lon="4.84122">
        <ele>169.2</ele>
        <time>2024-09-20T09:16:22Z</time>
      </trkpt>
      <trkpt lat="45.80588" lon="4.8412">
        <ele>169</ele>
        <time>2024-09-20T09:16:23Z</time>
      </trkpt>
      <trkpt lat="45.80583" lon="4.84117">
        <ele>169</ele>
        <time>2024-09-20T09:16:24Z</time>
      </trkpt>
      <trkpt lat="45.80578" lon="4.84115">
        <ele>169</ele>
        <time>2024-09-20T09:16:25Z</time>
      </trkpt>
      <trkpt lat="45.80574" lon="4.84112">
        <ele>169</ele>
        <time>2024-09-20T09:16:26Z</time>
      </trkpt>
      <trkpt lat="45.8057" lon="4.8411">
        <ele>169</ele>
        <time>2024-09-20T09:16:27Z</time>
      </trkpt>
      <trkpt lat="45.80565" lon="4.84107">
        <ele>169</ele>
        <time>2024-09-20T09:16:28Z</time>
      </trkpt>
      <trkpt lat="45.80561" lon="4.84105">
        <ele>169</ele>
        <time>2024-09-20T09:16:29Z</time>
      </trkpt>
      <trkpt lat="45.80556" lon="4.84102">
        <ele>169</ele>
        <time>2024-09-20T09:16:30Z</time>
      </trkpt>
      <trkpt lat="45.80552" lon="4.84099">
        <ele>169</ele>
        <time>2024-09-20T09:16:31Z</time>
      </trkpt>
      <trkpt lat="45.80547" lon="4.84096">
        <ele>169</ele>
        <time>2024-09-20T09:16:32Z</time>
      </trkpt>
      <trkpt lat="45.80543" lon="4.84094">
        <ele>169.2</ele>
        <time>2024-09-20T09:16:33Z</time>
      </trkpt>
      <trkpt lat="45.80539" lon="4.84091">
        <ele>169.2</ele>
        <time>2024-09-20T09:16:34Z</time>
      </trkpt>
      <trkpt lat="45.80534" lon="4.84089">
        <ele>169.2</ele>
        <time>2024-09-20T09:16:35Z</time>
      </trkpt>
      <trkpt lat="45.8053" lon="4.84087">
        <ele>169.2</ele>
        <time>2024-09-20T09:16:36Z</time>
      </trkpt>
      <trkpt lat="45.80525" lon="4.84084">
        <ele>169.2</ele>
        <time>2024-09-20T09:16:37Z</time>
      </trkpt>
      <trkpt lat="45.80521" lon="4.84082">
        <ele>169.2</ele>
        <time>2024-09-20T09:16:38Z</time>
      </trkpt>
      <trkpt lat="45.80517" lon="4.84079">
        <ele>169.2</ele>
        <time>2024-09-20T09:16:39Z</time>
      </trkpt>
      <trkpt lat="45.80513" lon="4.84076">
        <ele>170</ele>
        <time>2024-09-20T09:16:40Z</time>
      </trkpt>
      <trkpt lat="45.80509" lon="4.84074">
        <ele>170</ele>
        <time>2024-09-20T09:16:41Z</time>
      </trkpt>
      <trkpt lat="45.80505" lon="4.84072">
        <ele>170</ele>
        <time>2024-09-20T09:16:42Z</time>
      </trkpt>
      <trkpt lat="45.80502" lon="4.8407">
        <ele>170</ele>
        <time>2024-09-20T09:16:43Z</time>
      </trkpt>
      <trkpt lat="45.80498" lon="4.84068">
        <ele>170</ele>
        <time>2024-09-20T09:16:44Z</time>
      </trkpt>
      <trkpt lat="45.80495" lon="4.84067">
        <ele>170.6</ele>
        <time>2024-09-20T09:16:45Z</time>
      </trkpt>
      <trkpt lat="45.80492" lon="4.84065">
        <ele>171</ele>
        <time>2024-09-20T09:16:46Z</time>
      </trkpt>
      <trkpt lat="45.80488" lon="4.84063">
        <ele>171</ele>
        <time>2024-09-20T09:16:47Z</time>
      </trkpt>
      <trkpt lat="45.80485" lon="4.84062">
        <ele>171</ele>
        <time>2024-09-20T09:16:48Z</time>
      </trkpt>
      <trkpt lat="45.80482" lon="4.8406">
        <ele>171.2</ele>
        <time>2024-09-20T09:16:49Z</time>
      </trkpt>
      <trkpt lat="45.80479" lon="4.84059">
        <ele>171.6</ele>
        <time>2024-09-20T09:16:50Z</time>
      </trkpt>
      <trkpt lat="45.80477" lon="4.84059">
        <ele>171.6</ele>
        <time>2024-09-20T09:16:51Z</time>
      </trkpt>
      <trkpt lat="45.80475" lon="4.84058">
        <ele>171.6</ele>
        <time>2024-09-20T09:16:52Z</time>
      </trkpt>
      <trkpt lat="45.80473" lon="4.84057">
        <ele>171.8</ele>
        <time>2024-09-20T09:16:53Z</time>
      </trkpt>
      <trkpt lat="45.80472" lon="4.84055">
        <ele>171.8</ele>
        <time>2024-09-20T09:16:54Z</time>
      </trkpt>
      <trkpt lat="45.80471" lon="4.84052">
        <ele>171.8</ele>
        <time>2024-09-20T09:16:55Z</time>
      </trkpt>
      <trkpt lat="45.8047" lon="4.84049">
        <ele>171.8</ele>
        <time>2024-09-20T09:16:56Z</time>
      </trkpt>
      <trkpt lat="45.80469" lon="4.84045">
        <ele>171.8</ele>
        <time>2024-09-20T09:16:57Z</time>
      </trkpt>
      <trkpt lat="45.80466" lon="4.84043">
        <ele>172.2</ele>
        <time>2024-09-20T09:16:58Z</time>
      </trkpt>
      <trkpt lat="45.80464" lon="4.84042">
        <ele>172.2</ele>
        <time>2024-09-20T09:16:59Z</time>
      </trkpt>
      <trkpt lat="45.80461" lon="4.8404">
        <ele>172.2</ele>
        <time>2024-09-20T09:17:00Z</time>
      </trkpt>
      <trkpt lat="45.80459" lon="4.84039">
        <ele>172.2</ele>
        <time>2024-09-20T09:17:01Z</time>
      </trkpt>
      <trkpt lat="45.80456" lon="4.84037">
        <ele>172.2</ele>
        <time>2024-09-20T09:17:02Z</time>
      </trkpt>
      <trkpt lat="45.80453" lon="4.84035">
        <ele>172.2</ele>
        <time>2024-09-20T09:17:03Z</time>
      </trkpt>
      <trkpt lat="45.80451" lon="4.84033">
        <ele>172.6</ele>
        <time>2024-09-20T09:17:04Z</time>
      </trkpt>
      <trkpt lat="45.80448" lon="4.84031">
        <ele>172.6</ele>
        <time>2024-09-20T09:17:05Z</time>
      </trkpt>
      <trkpt lat="45.80446" lon="4.8403">
        <ele>172.6</ele>
        <time>2024-09-20T09:17:06Z</time>
      </trkpt>
      <trkpt lat="45.80443" lon="4.84028">
        <ele>173</ele>
        <time>2024-09-20T09:17:07Z</time>
      </trkpt>
      <trkpt lat="45.8044" lon="4.84026">
        <ele>173.2</ele>
        <time>2024-09-20T09:17:08Z</time>
      </trkpt>
      <trkpt lat="45.80437" lon="4.84025">
        <ele>173.2</ele>
        <time>2024-09-20T09:17:09Z</time>
      </trkpt>
      <trkpt lat="45.80435" lon="4.84023">
        <ele>173.2</ele>
        <time>2024-09-20T09:17:10Z</time>
      </trkpt>
      <trkpt lat="45.80432" lon="4.84021">
        <ele>173.2</ele>
        <time>2024-09-20T09:17:11Z</time>
      </trkpt>
      <trkpt lat="45.8043" lon="4.84019">
        <ele>173.6</ele>
        <time>2024-09-20T09:17:12Z</time>
      </trkpt>
      <trkpt lat="45.80427" lon="4.84017">
        <ele>173.6</ele>
        <time>2024-09-20T09:17:13Z</time>
      </trkpt>
      <trkpt lat="45.80424" lon="4.84015">
        <ele>173.6</ele>
        <time>2024-09-20T09:17:14Z</time>
      </trkpt>
      <trkpt lat="45.80421" lon="4.84013">
        <ele>173.6</ele>
        <time>2024-09-20T09:17:15Z</time>
      </trkpt>
      <trkpt lat="45.80418" lon="4.84012">
        <ele>174</ele>
        <time>2024-09-20T09:17:16Z</time>
      </trkpt>
      <trkpt lat="45.80415" lon="4.8401">
        <ele>174.4</ele>
        <time>2024-09-20T09:17:17Z</time>
      </trkpt>
      <trkpt lat="45.80412" lon="4.84008">
        <ele>174.4</ele>
        <time>2024-09-20T09:17:18Z</time>
      </trkpt>
      <trkpt lat="45.80409" lon="4.84005">
        <ele>174.4</ele>
        <time>2024-09-20T09:17:19Z</time>
      </trkpt>
      <trkpt lat="45.80406" lon="4.84003">
        <ele>174.4</ele>
        <time>2024-09-20T09:17:20Z</time>
      </trkpt>
      <trkpt lat="45.80404" lon="4.84001">
        <ele>174.4</ele>
        <time>2024-09-20T09:17:21Z</time>
      </trkpt>
      <trkpt lat="45.80401" lon="4.83999">
        <ele>175</ele>
        <time>2024-09-20T09:17:22Z</time>
      </trkpt>
      <trkpt lat="45.80397" lon="4.83997">
        <ele>175</ele>
        <time>2024-09-20T09:17:23Z</time>
      </trkpt>
      <trkpt lat="45.80394" lon="4.83996">
        <ele>175</ele>
        <time>2024-09-20T09:17:24Z</time>
      </trkpt>
      <trkpt lat="45.80392" lon="4.83994">
        <ele>175.6</ele>
        <time>2024-09-20T09:17:25Z</time>
      </trkpt>
      <trkpt lat="45.80389" lon="4.83992">
        <ele>175.8</ele>
        <time>2024-09-20T09:17:26Z</time>
      </trkpt>
      <trkpt lat="45.80386" lon="4.83989">
        <ele>175.8</ele>
        <time>2024-09-20T09:17:27Z</time>
      </trkpt>
      <trkpt lat="45.80384" lon="4.83986">
        <ele>175.8</ele>
        <time>2024-09-20T09:17:28Z</time>
      </trkpt>
      <trkpt lat="45.80381" lon="4.83984">
        <ele>175.8</ele>
        <time>2024-09-20T09:17:29Z</time>
      </trkpt>
      <trkpt lat="45.80378" lon="4.83982">
        <ele>176</ele>
        <time>2024-09-20T09:17:30Z</time>
      </trkpt>
      <trkpt lat="45.80376" lon="4.83979">
        <ele>176.2</ele>
        <time>2024-09-20T09:17:31Z</time>
      </trkpt>
      <trkpt lat="45.80373" lon="4.83977">
        <ele>176.2</ele>
        <time>2024-09-20T09:17:32Z</time>
      </trkpt>
      <trkpt lat="45.8037" lon="4.83975">
        <ele>176.2</ele>
        <time>2024-09-20T09:17:33Z</time>
      </trkpt>
      <trkpt lat="45.80367" lon="4.83973">
        <ele>176.6</ele>
        <time>2024-09-20T09:17:34Z</time>
      </trkpt>
      <trkpt lat="45.80365" lon="4.8397">
        <ele>176.8</ele>
        <time>2024-09-20T09:17:35Z</time>
      </trkpt>
      <trkpt lat="45.80362" lon="4.83967">
        <ele>176.8</ele>
        <time>2024-09-20T09:17:36Z</time>
      </trkpt>
      <trkpt lat="45.80359" lon="4.83965">
        <ele>176.8</ele>
        <time>2024-09-20T09:17:37Z</time>
      </trkpt>
      <trkpt lat="45.80356" lon="4.83962">
        <ele>177.2</ele>
        <time>2024-09-20T09:17:38Z</time>
      </trkpt>
      <trkpt lat="45.80353" lon="4.83959">
        <ele>177.2</ele>
        <time>2024-09-20T09:17:39Z</time>
      </trkpt>
      <trkpt lat="45.8035" lon="4.83956">
        <ele>177.2</ele>
        <time>2024-09-20T09:17:40Z</time>
      </trkpt>
      <trkpt lat="45.80348" lon="4.83953">
        <ele>177.2</ele>
        <time>2024-09-20T09:17:41Z</time>
      </trkpt>
      <trkpt lat="45.80345" lon="4.8395">
        <ele>177.2</ele>
        <time>2024-09-20T09:17:42Z</time>
      </trkpt>
      <trkpt lat="45.80342" lon="4.83948">
        <ele>177.6</ele>
        <time>2024-09-20T09:17:43Z</time>
      </trkpt>
      <trkpt lat="45.8034" lon="4.83945">
        <ele>177.6</ele>
        <time>2024-09-20T09:17:44Z</time>
      </trkpt>
      <trkpt lat="45.80337" lon="4.83941">
        <ele>177.6</ele>
        <time>2024-09-20T09:17:45Z</time>
      </trkpt>
      <trkpt lat="45.80334" lon="4.83938">
        <ele>177.6</ele>
        <time>2024-09-20T09:17:46Z</time>
      </trkpt>
      <trkpt lat="45.80332" lon="4.83935">
        <ele>177.6</ele>
        <time>2024-09-20T09:17:47Z</time>
      </trkpt>
      <trkpt lat="45.80329" lon="4.83932">
        <ele>177.8</ele>
        <time>2024-09-20T09:17:48Z</time>
      </trkpt>
      <trkpt lat="45.80326" lon="4.83928">
        <ele>178</ele>
        <time>2024-09-20T09:17:49Z</time>
      </trkpt>
      <trkpt lat="45.80323" lon="4.83925">
        <ele>178</ele>
        <time>2024-09-20T09:17:50Z</time>
      </trkpt>
      <trkpt lat="45.8032" lon="4.83922">
        <ele>178</ele>
        <time>2024-09-20T09:17:51Z</time>
      </trkpt>
      <trkpt lat="45.80317" lon="4.83919">
        <ele>178</ele>
        <time>2024-09-20T09:17:52Z</time>
      </trkpt>
      <trkpt lat="45.80314" lon="4.83916">
        <ele>178</ele>
        <time>2024-09-20T09:17:53Z</time>
      </trkpt>
      <trkpt lat="45.80311" lon="4.83913">
        <ele>178.2</ele>
        <time>2024-09-20T09:17:54Z</time>
      </trkpt>
      <trkpt lat="45.80308" lon="4.83909">
        <ele>178.2</ele>
        <time>2024-09-20T09:17:55Z</time>
      </trkpt>
      <trkpt lat="45.80305" lon="4.83906">
        <ele>178.2</ele>
        <time>2024-09-20T09:17:56Z</time>
      </trkpt>
      <trkpt lat="45.80303" lon="4.83902">
        <ele>178.2</ele>
        <time>2024-09-20T09:17:57Z</time>
      </trkpt>
      <trkpt lat="45.80299" lon="4.83899">
        <ele>178.4</ele>
        <time>2024-09-20T09:17:58Z</time>
      </trkpt>
      <trkpt lat="45.80296" lon="4.83895">
        <ele>178.4</ele>
        <time>2024-09-20T09:17:59Z</time>
      </trkpt>
      <trkpt lat="45.80292" lon="4.83892">
        <ele>178.4</ele>
        <time>2024-09-20T09:18:00Z</time>
      </trkpt>
      <trkpt lat="45.80289" lon="4.83888">
        <ele>178.6</ele>
        <time>2024-09-20T09:18:01Z</time>
      </trkpt>
      <trkpt lat="45.80287" lon="4.83884">
        <ele>178.4</ele>
        <time>2024-09-20T09:18:02Z</time>
      </trkpt>
      <trkpt lat="45.80285" lon="4.8388">
        <ele>178.4</ele>
        <time>2024-09-20T09:18:03Z</time>
      </trkpt>
      <trkpt lat="45.80283" lon="4.83876">
        <ele>178.4</ele>
        <time>2024-09-20T09:18:04Z</time>
      </trkpt>
      <trkpt lat="45.80281" lon="4.83873">
        <ele>178.4</ele>
        <time>2024-09-20T09:18:05Z</time>
      </trkpt>
      <trkpt lat="45.80278" lon="4.8387">
        <ele>178.2</ele>
        <time>2024-09-20T09:18:06Z</time>
      </trkpt>
      <trkpt lat="45.80275" lon="4.83865">
        <ele>178.2</ele>
        <time>2024-09-20T09:18:07Z</time>
      </trkpt>
      <trkpt lat="45.80271" lon="4.83861">
        <ele>178.2</ele>
        <time>2024-09-20T09:18:08Z</time>
      </trkpt>
      <trkpt lat="45.80266" lon="4.83856">
        <ele>178.2</ele>
        <time>2024-09-20T09:18:09Z</time>
      </trkpt>
      <trkpt lat="45.80261" lon="4.83851">
        <ele>178.2</ele>
        <time>2024-09-20T09:18:10Z</time>
      </trkpt>
      <trkpt lat="45.80257" lon="4.83847">
        <ele>177.4</ele>
        <time>2024-09-20T09:18:11Z</time>
      </trkpt>
      <trkpt lat="45.80252" lon="4.83844">
        <ele>177.4</ele>
        <time>2024-09-20T09:18:12Z</time>
      </trkpt>
      <trkpt lat="45.80247" lon="4.83841">
        <ele>177.4</ele>
        <time>2024-09-20T09:18:13Z</time>
      </trkpt>
      <trkpt lat="45.80242" lon="4.83838">
        <ele>177.4</ele>
        <time>2024-09-20T09:18:14Z</time>
      </trkpt>
      <trkpt lat="45.80237" lon="4.83836">
        <ele>177</ele>
        <time>2024-09-20T09:18:15Z</time>
      </trkpt>
      <trkpt lat="45.80231" lon="4.83834">
        <ele>177</ele>
        <time>2024-09-20T09:18:16Z</time>
      </trkpt>
      <trkpt lat="45.80226" lon="4.83832">
        <ele>177</ele>
        <time>2024-09-20T09:18:17Z</time>
      </trkpt>
      <trkpt lat="45.8022" lon="4.83832">
        <ele>177</ele>
        <time>2024-09-20T09:18:18Z</time>
      </trkpt>
      <trkpt lat="45.80214" lon="4.83832">
        <ele>177</ele>
        <time>2024-09-20T09:18:19Z</time>
      </trkpt>
      <trkpt lat="45.80209" lon="4.83832">
        <ele>176.4</ele>
        <time>2024-09-20T09:18:20Z</time>
      </trkpt>
      <trkpt lat="45.80203" lon="4.83832">
        <ele>176.4</ele>
        <time>2024-09-20T09:18:21Z</time>
      </trkpt>
      <trkpt lat="45.80198" lon="4.83833">
        <ele>176.4</ele>
        <time>2024-09-20T09:18:22Z</time>
      </trkpt>
      <trkpt lat="45.80193" lon="4.83834">
        <ele>175.6</ele>
        <time>2024-09-20T09:18:23Z</time>
      </trkpt>
      <trkpt lat="45.80189" lon="4.83834">
        <ele>175.4</ele>
        <time>2024-09-20T09:18:24Z</time>
      </trkpt>
      <trkpt lat="45.80184" lon="4.83835">
        <ele>175.4</ele>
        <time>2024-09-20T09:18:25Z</time>
      </trkpt>
      <trkpt lat="45.80179" lon="4.83835">
        <ele>175.4</ele>
        <time>2024-09-20T09:18:26Z</time>
      </trkpt>
      <trkpt lat="45.80174" lon="4.83836">
        <ele>174.6</ele>
        <time>2024-09-20T09:18:27Z</time>
      </trkpt>
      <trkpt lat="45.8017" lon="4.83835">
        <ele>174.6</ele>
        <time>2024-09-20T09:18:28Z</time>
      </trkpt>
      <trkpt lat="45.80165" lon="4.83835">
        <ele>174.6</ele>
        <time>2024-09-20T09:18:29Z</time>
      </trkpt>
      <trkpt lat="45.8016" lon="4.83834">
        <ele>174.6</ele>
        <time>2024-09-20T09:18:30Z</time>
      </trkpt>
      <trkpt lat="45.80155" lon="4.83833">
        <ele>174.6</ele>
        <time>2024-09-20T09:18:31Z</time>
      </trkpt>
      <trkpt lat="45.8015" lon="4.8383">
        <ele>174.6</ele>
        <time>2024-09-20T09:18:32Z</time>
      </trkpt>
      <trkpt lat="45.80145" lon="4.83826">
        <ele>173.6</ele>
        <time>2024-09-20T09:18:33Z</time>
      </trkpt>
      <trkpt lat="45.8014" lon="4.83822">
        <ele>173</ele>
        <time>2024-09-20T09:18:34Z</time>
      </trkpt>
      <trkpt lat="45.80135" lon="4.83818">
        <ele>173</ele>
        <time>2024-09-20T09:18:35Z</time>
      </trkpt>
      <trkpt lat="45.8013" lon="4.83814">
        <ele>173</ele>
        <time>2024-09-20T09:18:36Z</time>
      </trkpt>
      <trkpt lat="45.80124" lon="4.83809">
        <ele>173</ele>
        <time>2024-09-20T09:18:37Z</time>
      </trkpt>
      <trkpt lat="45.80119" lon="4.83804">
        <ele>171.4</ele>
        <time>2024-09-20T09:18:38Z</time>
      </trkpt>
      <trkpt lat="45.80113" lon="4.83799">
        <ele>171.4</ele>
        <time>2024-09-20T09:18:39Z</time>
      </trkpt>
      <trkpt lat="45.80108" lon="4.83794">
        <ele>171.4</ele>
        <time>2024-09-20T09:18:40Z</time>
      </trkpt>
      <trkpt lat="45.80103" lon="4.83788">
        <ele>170.8</ele>
        <time>2024-09-20T09:18:41Z</time>
      </trkpt>
      <trkpt lat="45.80097" lon="4.83782">
        <ele>170.8</ele>
        <time>2024-09-20T09:18:42Z</time>
      </trkpt>
      <trkpt lat="45.80092" lon="4.83776">
        <ele>170.6</ele>
        <time>2024-09-20T09:18:43Z</time>
      </trkpt>
      <trkpt lat="45.80087" lon="4.8377">
        <ele>170.6</ele>
        <time>2024-09-20T09:18:44Z</time>
      </trkpt>
      <trkpt lat="45.80081" lon="4.83764">
        <ele>170.6</ele>
        <time>2024-09-20T09:18:45Z</time>
      </trkpt>
      <trkpt lat="45.80076" lon="4.83758">
        <ele>170</ele>
        <time>2024-09-20T09:18:46Z</time>
      </trkpt>
      <trkpt lat="45.80071" lon="4.83751">
        <ele>170</ele>
        <time>2024-09-20T09:18:47Z</time>
      </trkpt>
      <trkpt lat="45.80066" lon="4.83744">
        <ele>170</ele>
        <time>2024-09-20T09:18:48Z</time>
      </trkpt>
      <trkpt lat="45.80061" lon="4.83737">
        <ele>170</ele>
        <time>2024-09-20T09:18:49Z</time>
      </trkpt>
      <trkpt lat="45.80056" lon="4.8373">
        <ele>169.6</ele>
        <time>2024-09-20T09:18:50Z</time>
      </trkpt>
      <trkpt lat="45.80051" lon="4.83723">
        <ele>169.6</ele>
        <time>2024-09-20T09:18:51Z</time>
      </trkpt>
      <trkpt lat="45.80047" lon="4.83716">
        <ele>169.6</ele>
        <time>2024-09-20T09:18:52Z</time>
      </trkpt>
      <trkpt lat="45.80042" lon="4.83709">
        <ele>169.6</ele>
        <time>2024-09-20T09:18:53Z</time>
      </trkpt>
      <trkpt lat="45.80038" lon="4.83703">
        <ele>169.6</ele>
        <time>2024-09-20T09:18:54Z</time>
      </trkpt>
      <trkpt lat="45.80034" lon="4.83696">
        <ele>169.6</ele>
        <time>2024-09-20T09:18:55Z</time>
      </trkpt>
      <trkpt lat="45.80031" lon="4.83689">
        <ele>169.4</ele>
        <time>2024-09-20T09:18:56Z</time>
      </trkpt>
      <trkpt lat="45.80027" lon="4.83683">
        <ele>169.4</ele>
        <time>2024-09-20T09:18:57Z</time>
      </trkpt>
      <trkpt lat="45.80023" lon="4.83676">
        <ele>169.4</ele>
        <time>2024-09-20T09:18:58Z</time>
      </trkpt>
      <trkpt lat="45.8002" lon="4.8367">
        <ele>169.2</ele>
        <time>2024-09-20T09:18:59Z</time>
      </trkpt>
      <trkpt lat="45.80017" lon="4.83663">
        <ele>169</ele>
        <time>2024-09-20T09:19:00Z</time>
      </trkpt>
      <trkpt lat="45.80013" lon="4.83657">
        <ele>169</ele>
        <time>2024-09-20T09:19:01Z</time>
      </trkpt>
      <trkpt lat="45.8001" lon="4.83651">
        <ele>169</ele>
        <time>2024-09-20T09:19:02Z</time>
      </trkpt>
      <trkpt lat="45.80007" lon="4.83644">
        <ele>169</ele>
        <time>2024-09-20T09:19:03Z</time>
      </trkpt>
      <trkpt lat="45.80004" lon="4.83638">
        <ele>169</ele>
        <time>2024-09-20T09:19:04Z</time>
      </trkpt>
      <trkpt lat="45.80002" lon="4.83632">
        <ele>168.8</ele>
        <time>2024-09-20T09:19:05Z</time>
      </trkpt>
      <trkpt lat="45.79999" lon="4.83626">
        <ele>168.8</ele>
        <time>2024-09-20T09:19:06Z</time>
      </trkpt>
      <trkpt lat="45.79996" lon="4.8362">
        <ele>168.8</ele>
        <time>2024-09-20T09:19:07Z</time>
      </trkpt>
      <trkpt lat="45.79994" lon="4.83614">
        <ele>168.8</ele>
        <time>2024-09-20T09:19:08Z</time>
      </trkpt>
      <trkpt lat="45.79991" lon="4.83608">
        <ele>168.8</ele>
        <time>2024-09-20T09:19:09Z</time>
      </trkpt>
      <trkpt lat="45.79988" lon="4.83602">
        <ele>169</ele>
        <time>2024-09-20T09:19:10Z</time>
      </trkpt>
      <trkpt lat="45.79986" lon="4.83596">
        <ele>169</ele>
        <time>2024-09-20T09:19:11Z</time>
      </trkpt>
      <trkpt lat="45.79984" lon="4.8359">
        <ele>169</ele>
        <time>2024-09-20T09:19:12Z</time>
      </trkpt>
      <trkpt lat="45.79983" lon="4.83585">
        <ele>169</ele>
        <time>2024-09-20T09:19:13Z</time>
      </trkpt>
      <trkpt lat="45.79981" lon="4.83579">
        <ele>169</ele>
        <time>2024-09-20T09:19:14Z</time>
      </trkpt>
      <trkpt lat="45.79978" lon="4.83573">
        <ele>168.8</ele>
        <time>2024-09-20T09:19:15Z</time>
      </trkpt>
      <trkpt lat="45.79976" lon="4.83568">
        <ele>168.8</ele>
        <time>2024-09-20T09:19:16Z</time>
      </trkpt>
      <trkpt lat="45.79974" lon="4.83562">
        <ele>168.8</ele>
        <time>2024-09-20T09:19:17Z</time>
      </trkpt>
      <trkpt lat="45.79972" lon="4.83556">
        <ele>168.8</ele>
        <time>2024-09-20T09:19:18Z</time>
      </trkpt>
      <trkpt lat="45.79969" lon="4.8355">
        <ele>168.6</ele>
        <time>2024-09-20T09:19:19Z</time>
      </trkpt>
      <trkpt lat="45.79968" lon="4.83545">
        <ele>168.6</ele>
        <time>2024-09-20T09:19:20Z</time>
      </trkpt>
      <trkpt lat="45.79966" lon="4.83539">
        <ele>168.6</ele>
        <time>2024-09-20T09:19:21Z</time>
      </trkpt>
      <trkpt lat="45.79963" lon="4.83533">
        <ele>168.6</ele>
        <time>2024-09-20T09:19:22Z</time>
      </trkpt>
      <trkpt lat="45.79961" lon="4.83526">
        <ele>168.6</ele>
        <time>2024-09-20T09:19:23Z</time>
      </trkpt>
      <trkpt lat="45.79959" lon="4.8352">
        <ele>168.6</ele>
        <time>2024-09-20T09:19:24Z</time>
      </trkpt>
      <trkpt lat="45.79957" lon="4.83513">
        <ele>168.6</ele>
        <time>2024-09-20T09:19:25Z</time>
      </trkpt>
      <trkpt lat="45.79955" lon="4.83506">
        <ele>168.6</ele>
        <time>2024-09-20T09:19:26Z</time>
      </trkpt>
      <trkpt lat="45.79954" lon="4.835">
        <ele>168.8</ele>
        <time>2024-09-20T09:19:27Z</time>
      </trkpt>
      <trkpt lat="45.79953" lon="4.83494">
        <ele>168.8</ele>
        <time>2024-09-20T09:19:28Z</time>
      </trkpt>
      <trkpt lat="45.79951" lon="4.83488">
        <ele>168.8</ele>
        <time>2024-09-20T09:19:29Z</time>
      </trkpt>
      <trkpt lat="45.79949" lon="4.83482">
        <ele>168.8</ele>
        <time>2024-09-20T09:19:30Z</time>
      </trkpt>
      <trkpt lat="45.79948" lon="4.83476">
        <ele>168.8</ele>
        <time>2024-09-20T09:19:31Z</time>
      </trkpt>
      <trkpt lat="45.79946" lon="4.8347">
        <ele>168.8</ele>
        <time>2024-09-20T09:19:32Z</time>
      </trkpt>
      <trkpt lat="45.79944" lon="4.83464">
        <ele>168.8</ele>
        <time>2024-09-20T09:19:33Z</time>
      </trkpt>
      <trkpt lat="45.79943" lon="4.83459">
        <ele>168.8</ele>
        <time>2024-09-20T09:19:34Z</time>
      </trkpt>
      <trkpt lat="45.79941" lon="4.83453">
        <ele>169</ele>
        <time>2024-09-20T09:19:35Z</time>
      </trkpt>
      <trkpt lat="45.7994" lon="4.83447">
        <ele>169</ele>
        <time>2024-09-20T09:19:36Z</time>
      </trkpt>
      <trkpt lat="45.79938" lon="4.83441">
        <ele>169</ele>
        <time>2024-09-20T09:19:37Z</time>
      </trkpt>
      <trkpt lat="45.79936" lon="4.83435">
        <ele>169</ele>
        <time>2024-09-20T09:19:38Z</time>
      </trkpt>
      <trkpt lat="45.79935" lon="4.8343">
        <ele>169</ele>
        <time>2024-09-20T09:19:39Z</time>
      </trkpt>
      <trkpt lat="45.79933" lon="4.83424">
        <ele>169</ele>
        <time>2024-09-20T09:19:40Z</time>
      </trkpt>
      <trkpt lat="45.79931" lon="4.83417">
        <ele>168.8</ele>
        <time>2024-09-20T09:19:41Z</time>
      </trkpt>
      <trkpt lat="45.79929" lon="4.83411">
        <ele>168.8</ele>
        <time>2024-09-20T09:19:42Z</time>
      </trkpt>
      <trkpt lat="45.79927" lon="4.83405">
        <ele>168.8</ele>
        <time>2024-09-20T09:19:43Z</time>
      </trkpt>
      <trkpt lat="45.79925" lon="4.83399">
        <ele>169</ele>
        <time>2024-09-20T09:19:44Z</time>
      </trkpt>
      <trkpt lat="45.79923" lon="4.83393">
        <ele>169</ele>
        <time>2024-09-20T09:19:45Z</time>
      </trkpt>
      <trkpt lat="45.79922" lon="4.83387">
        <ele>169</ele>
        <time>2024-09-20T09:19:46Z</time>
      </trkpt>
      <trkpt lat="45.79921" lon="4.8338">
        <ele>169</ele>
        <time>2024-09-20T09:19:47Z</time>
      </trkpt>
      <trkpt lat="45.79919" lon="4.83374">
        <ele>169</ele>
        <time>2024-09-20T09:19:48Z</time>
      </trkpt>
      <trkpt lat="45.79917" lon="4.83368">
        <ele>169</ele>
        <time>2024-09-20T09:19:49Z</time>
      </trkpt>
      <trkpt lat="45.79914" lon="4.83361">
        <ele>169</ele>
        <time>2024-09-20T09:19:50Z</time>
      </trkpt>
      <trkpt lat="45.79913" lon="4.83355">
        <ele>169</ele>
        <time>2024-09-20T09:19:51Z</time>
      </trkpt>
      <trkpt lat="45.79911" lon="4.83348">
        <ele>169</ele>
        <time>2024-09-20T09:19:52Z</time>
      </trkpt>
      <trkpt lat="45.79909" lon="4.83342">
        <ele>169</ele>
        <time>2024-09-20T09:19:53Z</time>
      </trkpt>
      <trkpt lat="45.79907" lon="4.83335">
        <ele>169</ele>
        <time>2024-09-20T09:19:54Z</time>
      </trkpt>
      <trkpt lat="45.79905" lon="4.83329">
        <ele>169.2</ele>
        <time>2024-09-20T09:19:55Z</time>
      </trkpt>
      <trkpt lat="45.79903" lon="4.83323">
        <ele>169.2</ele>
        <time>2024-09-20T09:19:56Z</time>
      </trkpt>
      <trkpt lat="45.79901" lon="4.83317">
        <ele>169.2</ele>
        <time>2024-09-20T09:19:57Z</time>
      </trkpt>
      <trkpt lat="45.79899" lon="4.8331">
        <ele>168.8</ele>
        <time>2024-09-20T09:19:58Z</time>
      </trkpt>
      <trkpt lat="45.79898" lon="4.83304">
        <ele>168.8</ele>
        <time>2024-09-20T09:19:59Z</time>
      </trkpt>
      <trkpt lat="45.79896" lon="4.83297">
        <ele>168.8</ele>
        <time>2024-09-20T09:20:00Z</time>
      </trkpt>
      <trkpt lat="45.79893" lon="4.8329">
        <ele>168.8</ele>
        <time>2024-09-20T09:20:01Z</time>
      </trkpt>
      <trkpt lat="45.79891" lon="4.83283">
        <ele>168.8</ele>
        <time>2024-09-20T09:20:02Z</time>
      </trkpt>
      <trkpt lat="45.79889" lon="4.83277">
        <ele>169</ele>
        <time>2024-09-20T09:20:03Z</time>
      </trkpt>
      <trkpt lat="45.79887" lon="4.8327">
        <ele>169</ele>
        <time>2024-09-20T09:20:04Z</time>
      </trkpt>
      <trkpt lat="45.79885" lon="4.83264">
        <ele>169</ele>
        <time>2024-09-20T09:20:05Z</time>
      </trkpt>
      <trkpt lat="45.79882" lon="4.83258">
        <ele>169</ele>
        <time>2024-09-20T09:20:06Z</time>
      </trkpt>
      <trkpt lat="45.79881" lon="4.83252">
        <ele>168.6</ele>
        <time>2024-09-20T09:20:07Z</time>
      </trkpt>
      <trkpt lat="45.79879" lon="4.83246">
        <ele>168.4</ele>
        <time>2024-09-20T09:20:08Z</time>
      </trkpt>
      <trkpt lat="45.79877" lon="4.8324">
        <ele>168.4</ele>
        <time>2024-09-20T09:20:09Z</time>
      </trkpt>
      <trkpt lat="45.79875" lon="4.83233">
        <ele>168.4</ele>
        <time>2024-09-20T09:20:10Z</time>
      </trkpt>
      <trkpt lat="45.79873" lon="4.83227">
        <ele>168.4</ele>
        <time>2024-09-20T09:20:11Z</time>
      </trkpt>
      <trkpt lat="45.79871" lon="4.83221">
        <ele>168.4</ele>
        <time>2024-09-20T09:20:12Z</time>
      </trkpt>
      <trkpt lat="45.79869" lon="4.83215">
        <ele>168.6</ele>
        <time>2024-09-20T09:20:13Z</time>
      </trkpt>
      <trkpt lat="45.79867" lon="4.83208">
        <ele>168.6</ele>
        <time>2024-09-20T09:20:14Z</time>
      </trkpt>
      <trkpt lat="45.79865" lon="4.83202">
        <ele>168.6</ele>
        <time>2024-09-20T09:20:15Z</time>
      </trkpt>
      <trkpt lat="45.79863" lon="4.83195">
        <ele>168.6</ele>
        <time>2024-09-20T09:20:16Z</time>
      </trkpt>
      <trkpt lat="45.7986" lon="4.83189">
        <ele>168.4</ele>
        <time>2024-09-20T09:20:17Z</time>
      </trkpt>
      <trkpt lat="45.79858" lon="4.83183">
        <ele>168.4</ele>
        <time>2024-09-20T09:20:18Z</time>
      </trkpt>
      <trkpt lat="45.79855" lon="4.83177">
        <ele>168.4</ele>
        <time>2024-09-20T09:20:19Z</time>
      </trkpt>
      <trkpt lat="45.79853" lon="4.83171">
        <ele>168.4</ele>
        <time>2024-09-20T09:20:20Z</time>
      </trkpt>
      <trkpt lat="45.7985" lon="4.83165">
        <ele>168.8</ele>
        <time>2024-09-20T09:20:21Z</time>
      </trkpt>
      <trkpt lat="45.79848" lon="4.83159">
        <ele>168.8</ele>
        <time>2024-09-20T09:20:22Z</time>
      </trkpt>
      <trkpt lat="45.79845" lon="4.83153">
        <ele>168.8</ele>
        <time>2024-09-20T09:20:23Z</time>
      </trkpt>
      <trkpt lat="45.79842" lon="4.83147">
        <ele>168.8</ele>
        <time>2024-09-20T09:20:24Z</time>
      </trkpt>
      <trkpt lat="45.79839" lon="4.83141">
        <ele>168.4</ele>
        <time>2024-09-20T09:20:25Z</time>
      </trkpt>
      <trkpt lat="45.79837" lon="4.83134">
        <ele>168.4</ele>
        <time>2024-09-20T09:20:26Z</time>
      </trkpt>
      <trkpt lat="45.79834" lon="4.83128">
        <ele>168.4</ele>
        <time>2024-09-20T09:20:27Z</time>
      </trkpt>
      <trkpt lat="45.79832" lon="4.83122">
        <ele>168.4</ele>
        <time>2024-09-20T09:20:28Z</time>
      </trkpt>
      <trkpt lat="45.79829" lon="4.83116">
        <ele>168.4</ele>
        <time>2024-09-20T09:20:29Z</time>
      </trkpt>
      <trkpt lat="45.79826" lon="4.83109">
        <ele>168.6</ele>
        <time>2024-09-20T09:20:30Z</time>
      </trkpt>
      <trkpt lat="45.79823" lon="4.83103">
        <ele>168.6</ele>
        <time>2024-09-20T09:20:31Z</time>
      </trkpt>
      <trkpt lat="45.79821" lon="4.83097">
        <ele>168.6</ele>
        <time>2024-09-20T09:20:32Z</time>
      </trkpt>
      <trkpt lat="45.79818" lon="4.83091">
        <ele>168.6</ele>
        <time>2024-09-20T09:20:33Z</time>
      </trkpt>
      <trkpt lat="45.79815" lon="4.83085">
        <ele>168.6</ele>
        <time>2024-09-20T09:20:34Z</time>
      </trkpt>
      <trkpt lat="45.79813" lon="4.8308">
        <ele>168.6</ele>
        <time>2024-09-20T09:20:35Z</time>
      </trkpt>
      <trkpt lat="45.79811" lon="4.83075">
        <ele>169.4</ele>
        <time>2024-09-20T09:20:36Z</time>
      </trkpt>
      <trkpt lat="45.79809" lon="4.8307">
        <ele>169.4</ele>
        <time>2024-09-20T09:20:37Z</time>
      </trkpt>
      <trkpt lat="45.79807" lon="4.83065">
        <ele>169.4</ele>
        <time>2024-09-20T09:20:38Z</time>
      </trkpt>
      <trkpt lat="45.79805" lon="4.83062">
        <ele>170.2</ele>
        <time>2024-09-20T09:20:39Z</time>
      </trkpt>
      <trkpt lat="45.79803" lon="4.83058">
        <ele>170.4</ele>
        <time>2024-09-20T09:20:40Z</time>
      </trkpt>
      <trkpt lat="45.79802" lon="4.83053">
        <ele>170.4</ele>
        <time>2024-09-20T09:20:41Z</time>
      </trkpt>
      <trkpt lat="45.79802" lon="4.83049">
        <ele>170.4</ele>
        <time>2024-09-20T09:20:42Z</time>
      </trkpt>
      <trkpt lat="45.79802" lon="4.83044">
        <ele>170.4</ele>
        <time>2024-09-20T09:20:43Z</time>
      </trkpt>
      <trkpt lat="45.79803" lon="4.83041">
        <ele>170.8</ele>
        <time>2024-09-20T09:20:44Z</time>
      </trkpt>
      <trkpt lat="45.79803" lon="4.83037">
        <ele>170.8</ele>
        <time>2024-09-20T09:20:45Z</time>
      </trkpt>
      <trkpt lat="45.79804" lon="4.83035">
        <ele>170.8</ele>
        <time>2024-09-20T09:20:46Z</time>
      </trkpt>
      <trkpt lat="45.79804" lon="4.83034">
        <ele>170.8</ele>
        <time>2024-09-20T09:20:47Z</time>
      </trkpt>
      <trkpt lat="45.79804" lon="4.83033">
        <ele>170.6</ele>
        <time>2024-09-20T09:20:48Z</time>
      </trkpt>
      <trkpt lat="45.79804" lon="4.83033">
        <ele>170.6</ele>
        <time>2024-09-20T09:20:49Z</time>
      </trkpt>
      <trkpt lat="45.79802" lon="4.83019">
        <ele>170.2</ele>
        <time>2024-09-20T09:23:36Z</time>
      </trkpt>
      <trkpt lat="45.79801" lon="4.83018">
        <ele>170.4</ele>
        <time>2024-09-20T09:23:37Z</time>
      </trkpt>
      <trkpt lat="45.79801" lon="4.83017">
        <ele>170.4</ele>
        <time>2024-09-20T09:23:38Z</time>
      </trkpt>
      <trkpt lat="45.798" lon="4.83017">
        <ele>170.6</ele>
        <time>2024-09-20T09:23:39Z</time>
      </trkpt>
      <trkpt lat="45.79799" lon="4.83015">
        <ele>170.6</ele>
        <time>2024-09-20T09:23:40Z</time>
      </trkpt>
      <trkpt lat="45.79797" lon="4.83013">
        <ele>170.4</ele>
        <time>2024-09-20T09:23:41Z</time>
      </trkpt>
      <trkpt lat="45.79795" lon="4.83012">
        <ele>170.4</ele>
        <time>2024-09-20T09:23:42Z</time>
      </trkpt>
      <trkpt lat="45.79793" lon="4.83009">
        <ele>170.2</ele>
        <time>2024-09-20T09:23:43Z</time>
      </trkpt>
      <trkpt lat="45.79791" lon="4.83006">
        <ele>170.2</ele>
        <time>2024-09-20T09:23:44Z</time>
      </trkpt>
      <trkpt lat="45.79788" lon="4.83003">
        <ele>170</ele>
        <time>2024-09-20T09:23:45Z</time>
      </trkpt>
      <trkpt lat="45.79786" lon="4.83">
        <ele>170.2</ele>
        <time>2024-09-20T09:23:46Z</time>
      </trkpt>
      <trkpt lat="45.79783" lon="4.82998">
        <ele>170.2</ele>
        <time>2024-09-20T09:23:47Z</time>
      </trkpt>
      <trkpt lat="45.7978" lon="4.82998">
        <ele>170.2</ele>
        <time>2024-09-20T09:23:48Z</time>
      </trkpt>
      <trkpt lat="45.79777" lon="4.82998">
        <ele>170.2</ele>
        <time>2024-09-20T09:23:49Z</time>
      </trkpt>
      <trkpt lat="45.79776" lon="4.82997">
        <ele>170.2</ele>
        <time>2024-09-20T09:23:50Z</time>
      </trkpt>
      <trkpt lat="45.79774" lon="4.82995">
        <ele>170</ele>
        <time>2024-09-20T09:23:51Z</time>
      </trkpt>
      <trkpt lat="45.79773" lon="4.82994">
        <ele>170</ele>
        <time>2024-09-20T09:23:52Z</time>
      </trkpt>
      <trkpt lat="45.79772" lon="4.82992">
        <ele>170</ele>
        <time>2024-09-20T09:23:53Z</time>
      </trkpt>
      <trkpt lat="45.79771" lon="4.8299">
        <ele>169.8</ele>
        <time>2024-09-20T09:23:54Z</time>
      </trkpt>
      <trkpt lat="45.7977" lon="4.82988">
        <ele>169.8</ele>
        <time>2024-09-20T09:23:55Z</time>
      </trkpt>
      <trkpt lat="45.7977" lon="4.82987">
        <ele>169.8</ele>
        <time>2024-09-20T09:23:56Z</time>
      </trkpt>
      <trkpt lat="45.7977" lon="4.82986">
        <ele>169.8</ele>
        <time>2024-09-20T09:23:57Z</time>
      </trkpt>
      <trkpt lat="45.7977" lon="4.82986">
        <ele>169.8</ele>
        <time>2024-09-20T09:23:58Z</time>
      </trkpt>
      <trkpt lat="45.79769" lon="4.82973">
        <ele>169.6</ele>
        <time>2024-09-20T09:24:38Z</time>
      </trkpt>
      <trkpt lat="45.79768" lon="4.8297">
        <ele>169.6</ele>
        <time>2024-09-20T09:24:39Z</time>
      </trkpt>
      <trkpt lat="45.79766" lon="4.82967">
        <ele>169.6</ele>
        <time>2024-09-20T09:24:40Z</time>
      </trkpt>
      <trkpt lat="45.79764" lon="4.82963">
        <ele>169.6</ele>
        <time>2024-09-20T09:24:41Z</time>
      </trkpt>
      <trkpt lat="45.79762" lon="4.82959">
        <ele>169.6</ele>
        <time>2024-09-20T09:24:42Z</time>
      </trkpt>
      <trkpt lat="45.79759" lon="4.82954">
        <ele>169.4</ele>
        <time>2024-09-20T09:24:43Z</time>
      </trkpt>
      <trkpt lat="45.79757" lon="4.82949">
        <ele>169.4</ele>
        <time>2024-09-20T09:24:44Z</time>
      </trkpt>
      <trkpt lat="45.79755" lon="4.82944">
        <ele>169.4</ele>
        <time>2024-09-20T09:24:45Z</time>
      </trkpt>
      <trkpt lat="45.79752" lon="4.82939">
        <ele>169</ele>
        <time>2024-09-20T09:24:46Z</time>
      </trkpt>
      <trkpt lat="45.79749" lon="4.82934">
        <ele>169</ele>
        <time>2024-09-20T09:24:47Z</time>
      </trkpt>
      <trkpt lat="45.79747" lon="4.82928">
        <ele>169</ele>
        <time>2024-09-20T09:24:48Z</time>
      </trkpt>
      <trkpt lat="45.79744" lon="4.82923">
        <ele>169</ele>
        <time>2024-09-20T09:24:49Z</time>
      </trkpt>
      <trkpt lat="45.79741" lon="4.82917">
        <ele>169</ele>
        <time>2024-09-20T09:24:50Z</time>
      </trkpt>
      <trkpt lat="45.79738" lon="4.82911">
        <ele>169</ele>
        <time>2024-09-20T09:24:51Z</time>
      </trkpt>
      <trkpt lat="45.79734" lon="4.82906">
        <ele>168.8</ele>
        <time>2024-09-20T09:24:52Z</time>
      </trkpt>
      <trkpt lat="45.79731" lon="4.829">
        <ele>168.8</ele>
        <time>2024-09-20T09:24:53Z</time>
      </trkpt>
      <trkpt lat="45.79728" lon="4.82894">
        <ele>168.8</ele>
        <time>2024-09-20T09:24:54Z</time>
      </trkpt>
      <trkpt lat="45.79725" lon="4.82889">
        <ele>168.8</ele>
        <time>2024-09-20T09:24:55Z</time>
      </trkpt>
      <trkpt lat="45.79722" lon="4.82883">
        <ele>168.6</ele>
        <time>2024-09-20T09:24:56Z</time>
      </trkpt>
      <trkpt lat="45.79718" lon="4.82878">
        <ele>168.6</ele>
        <time>2024-09-20T09:24:57Z</time>
      </trkpt>
      <trkpt lat="45.79715" lon="4.82872">
        <ele>168.6</ele>
        <time>2024-09-20T09:24:58Z</time>
      </trkpt>
      <trkpt lat="45.79712" lon="4.82866">
        <ele>168.6</ele>
        <time>2024-09-20T09:24:59Z</time>
      </trkpt>
      <trkpt lat="45.79709" lon="4.8286">
        <ele>168.6</ele>
        <time>2024-09-20T09:25:00Z</time>
      </trkpt>
      <trkpt lat="45.79706" lon="4.82855">
        <ele>168.6</ele>
        <time>2024-09-20T09:25:01Z</time>
      </trkpt>
      <trkpt lat="45.79703" lon="4.82848">
        <ele>168.6</ele>
        <time>2024-09-20T09:25:02Z</time>
      </trkpt>
      <trkpt lat="45.797" lon="4.82843">
        <ele>168.6</ele>
        <time>2024-09-20T09:25:03Z</time>
      </trkpt>
      <trkpt lat="45.79697" lon="4.82837">
        <ele>168.6</ele>
        <time>2024-09-20T09:25:04Z</time>
      </trkpt>
      <trkpt lat="45.79694" lon="4.82831">
        <ele>168.6</ele>
        <time>2024-09-20T09:25:05Z</time>
      </trkpt>
      <trkpt lat="45.79691" lon="4.82826">
        <ele>168.6</ele>
        <time>2024-09-20T09:25:06Z</time>
      </trkpt>
      <trkpt lat="45.79688" lon="4.82821">
        <ele>168.6</ele>
        <time>2024-09-20T09:25:07Z</time>
      </trkpt>
      <trkpt lat="45.79685" lon="4.82816">
        <ele>168.6</ele>
        <time>2024-09-20T09:25:08Z</time>
      </trkpt>
      <trkpt lat="45.79683" lon="4.82811">
        <ele>168.6</ele>
        <time>2024-09-20T09:25:09Z</time>
      </trkpt>
      <trkpt lat="45.7968" lon="4.82806">
        <ele>168.8</ele>
        <time>2024-09-20T09:25:10Z</time>
      </trkpt>
      <trkpt lat="45.79678" lon="4.82801">
        <ele>168.8</ele>
        <time>2024-09-20T09:25:11Z</time>
      </trkpt>
      <trkpt lat="45.79675" lon="4.82796">
        <ele>168.8</ele>
        <time>2024-09-20T09:25:12Z</time>
      </trkpt>
      <trkpt lat="45.79672" lon="4.8279">
        <ele>168.8</ele>
        <time>2024-09-20T09:25:13Z</time>
      </trkpt>
      <trkpt lat="45.79669" lon="4.82785">
        <ele>168.4</ele>
        <time>2024-09-20T09:25:14Z</time>
      </trkpt>
      <trkpt lat="45.79666" lon="4.8278">
        <ele>168.4</ele>
        <time>2024-09-20T09:25:15Z</time>
      </trkpt>
      <trkpt lat="45.79663" lon="4.82775">
        <ele>168.4</ele>
        <time>2024-09-20T09:25:16Z</time>
      </trkpt>
      <trkpt lat="45.79661" lon="4.8277">
        <ele>168.4</ele>
        <time>2024-09-20T09:25:17Z</time>
      </trkpt>
      <trkpt lat="45.79658" lon="4.82765">
        <ele>168.4</ele>
        <time>2024-09-20T09:25:18Z</time>
      </trkpt>
      <trkpt lat="45.79655" lon="4.8276">
        <ele>168.4</ele>
        <time>2024-09-20T09:25:19Z</time>
      </trkpt>
      <trkpt lat="45.79652" lon="4.82756">
        <ele>168.4</ele>
        <time>2024-09-20T09:25:20Z</time>
      </trkpt>
      <trkpt lat="45.7965" lon="4.82751">
        <ele>168.4</ele>
        <time>2024-09-20T09:25:21Z</time>
      </trkpt>
      <trkpt lat="45.79648" lon="4.82747">
        <ele>168.4</ele>
        <time>2024-09-20T09:25:22Z</time>
      </trkpt>
      <trkpt lat="45.79646" lon="4.82743">
        <ele>168</ele>
        <time>2024-09-20T09:25:23Z</time>
      </trkpt>
      <trkpt lat="45.79644" lon="4.82739">
        <ele>168.2</ele>
        <time>2024-09-20T09:25:24Z</time>
      </trkpt>
      <trkpt lat="45.79641" lon="4.82735">
        <ele>168.2</ele>
        <time>2024-09-20T09:25:25Z</time>
      </trkpt>
      <trkpt lat="45.79639" lon="4.8273">
        <ele>168.2</ele>
        <time>2024-09-20T09:25:26Z</time>
      </trkpt>
      <trkpt lat="45.79637" lon="4.82726">
        <ele>168.2</ele>
        <time>2024-09-20T09:25:27Z</time>
      </trkpt>
      <trkpt lat="45.79635" lon="4.82722">
        <ele>168.2</ele>
        <time>2024-09-20T09:25:28Z</time>
      </trkpt>
      <trkpt lat="45.79632" lon="4.82717">
        <ele>168.2</ele>
        <time>2024-09-20T09:25:29Z</time>
      </trkpt>
      <trkpt lat="45.7963" lon="4.82713">
        <ele>168.2</ele>
        <time>2024-09-20T09:25:30Z</time>
      </trkpt>
      <trkpt lat="45.79628" lon="4.82708">
        <ele>168.2</ele>
        <time>2024-09-20T09:25:31Z</time>
      </trkpt>
      <trkpt lat="45.79626" lon="4.82703">
        <ele>168.2</ele>
        <time>2024-09-20T09:25:32Z</time>
      </trkpt>
      <trkpt lat="45.79623" lon="4.82699">
        <ele>168.6</ele>
        <time>2024-09-20T09:25:33Z</time>
      </trkpt>
      <trkpt lat="45.7962" lon="4.82693">
        <ele>168.6</ele>
        <time>2024-09-20T09:25:34Z</time>
      </trkpt>
      <trkpt lat="45.79618" lon="4.82688">
        <ele>168.6</ele>
        <time>2024-09-20T09:25:35Z</time>
      </trkpt>
      <trkpt lat="45.79615" lon="4.82683">
        <ele>168</ele>
        <time>2024-09-20T09:25:36Z</time>
      </trkpt>
      <trkpt lat="45.79612" lon="4.82677">
        <ele>168</ele>
        <time>2024-09-20T09:25:37Z</time>
      </trkpt>
      <trkpt lat="45.79609" lon="4.82672">
        <ele>168.2</ele>
        <time>2024-09-20T09:25:38Z</time>
      </trkpt>
      <trkpt lat="45.79606" lon="4.82667">
        <ele>168.2</ele>
        <time>2024-09-20T09:25:39Z</time>
      </trkpt>
      <trkpt lat="45.79603" lon="4.82662">
        <ele>168.4</ele>
        <time>2024-09-20T09:25:40Z</time>
      </trkpt>
      <trkpt lat="45.796" lon="4.82657">
        <ele>168.4</ele>
        <time>2024-09-20T09:25:41Z</time>
      </trkpt>
      <trkpt lat="45.79597" lon="4.82652">
        <ele>168.4</ele>
        <time>2024-09-20T09:25:42Z</time>
      </trkpt>
      <trkpt lat="45.79594" lon="4.82646">
        <ele>168.4</ele>
        <time>2024-09-20T09:25:43Z</time>
      </trkpt>
      <trkpt lat="45.79591" lon="4.82641">
        <ele>168.6</ele>
        <time>2024-09-20T09:25:44Z</time>
      </trkpt>
      <trkpt lat="45.79588" lon="4.82636">
        <ele>168.6</ele>
        <time>2024-09-20T09:25:45Z</time>
      </trkpt>
      <trkpt lat="45.79586" lon="4.8263">
        <ele>168.6</ele>
        <time>2024-09-20T09:25:46Z</time>
      </trkpt>
      <trkpt lat="45.79583" lon="4.82625">
        <ele>168.6</ele>
        <time>2024-09-20T09:25:47Z</time>
      </trkpt>
      <trkpt lat="45.7958" lon="4.8262">
        <ele>168.6</ele>
        <time>2024-09-20T09:25:48Z</time>
      </trkpt>
      <trkpt lat="45.79578" lon="4.82614">
        <ele>168.4</ele>
        <time>2024-09-20T09:25:49Z</time>
      </trkpt>
      <trkpt lat="45.79575" lon="4.82609">
        <ele>168.4</ele>
        <time>2024-09-20T09:25:50Z</time>
      </trkpt>
      <trkpt lat="45.79572" lon="4.82603">
        <ele>168.4</ele>
        <time>2024-09-20T09:25:51Z</time>
      </trkpt>
      <trkpt lat="45.79569" lon="4.82597">
        <ele>168.4</ele>
        <time>2024-09-20T09:25:52Z</time>
      </trkpt>
      <trkpt lat="45.79566" lon="4.82592">
        <ele>168.4</ele>
        <time>2024-09-20T09:25:53Z</time>
      </trkpt>
      <trkpt lat="45.79564" lon="4.82586">
        <ele>168.4</ele>
        <time>2024-09-20T09:25:54Z</time>
      </trkpt>
      <trkpt lat="45.79561" lon="4.8258">
        <ele>168.4</ele>
        <time>2024-09-20T09:25:55Z</time>
      </trkpt>
      <trkpt lat="45.79558" lon="4.82574">
        <ele>168.4</ele>
        <time>2024-09-20T09:25:56Z</time>
      </trkpt>
      <trkpt lat="45.79555" lon="4.82568">
        <ele>168.4</ele>
        <time>2024-09-20T09:25:57Z</time>
      </trkpt>
      <trkpt lat="45.79552" lon="4.82563">
        <ele>168.4</ele>
        <time>2024-09-20T09:25:58Z</time>
      </trkpt>
      <trkpt lat="45.79549" lon="4.82557">
        <ele>168.6</ele>
        <time>2024-09-20T09:25:59Z</time>
      </trkpt>
      <trkpt lat="45.79546" lon="4.82552">
        <ele>168.6</ele>
        <time>2024-09-20T09:26:00Z</time>
      </trkpt>
      <trkpt lat="45.79544" lon="4.82547">
        <ele>168.6</ele>
        <time>2024-09-20T09:26:01Z</time>
      </trkpt>
      <trkpt lat="45.79541" lon="4.82541">
        <ele>168.6</ele>
        <time>2024-09-20T09:26:02Z</time>
      </trkpt>
      <trkpt lat="45.79539" lon="4.82536">
        <ele>168.6</ele>
        <time>2024-09-20T09:26:03Z</time>
      </trkpt>
      <trkpt lat="45.79536" lon="4.8253">
        <ele>168.6</ele>
        <time>2024-09-20T09:26:04Z</time>
      </trkpt>
      <trkpt lat="45.79533" lon="4.82524">
        <ele>168.6</ele>
        <time>2024-09-20T09:26:05Z</time>
      </trkpt>
      <trkpt lat="45.79529" lon="4.82518">
        <ele>168.6</ele>
        <time>2024-09-20T09:26:06Z</time>
      </trkpt>
      <trkpt lat="45.79526" lon="4.82513">
        <ele>168.4</ele>
        <time>2024-09-20T09:26:07Z</time>
      </trkpt>
      <trkpt lat="45.79523" lon="4.82507">
        <ele>168.4</ele>
        <time>2024-09-20T09:26:08Z</time>
      </trkpt>
      <trkpt lat="45.7952" lon="4.82501">
        <ele>168.4</ele>
        <time>2024-09-20T09:26:09Z</time>
      </trkpt>
      <trkpt lat="45.79517" lon="4.82495">
        <ele>168.4</ele>
        <time>2024-09-20T09:26:10Z</time>
      </trkpt>
      <trkpt lat="45.79514" lon="4.8249">
        <ele>168.4</ele>
        <time>2024-09-20T09:26:11Z</time>
      </trkpt>
      <trkpt lat="45.79511" lon="4.82484">
        <ele>168.4</ele>
        <time>2024-09-20T09:26:12Z</time>
      </trkpt>
      <trkpt lat="45.79508" lon="4.82478">
        <ele>168.4</ele>
        <time>2024-09-20T09:26:13Z</time>
      </trkpt>
      <trkpt lat="45.79505" lon="4.82473">
        <ele>168.4</ele>
        <time>2024-09-20T09:26:14Z</time>
      </trkpt>
      <trkpt lat="45.79502" lon="4.82468">
        <ele>168.4</ele>
        <time>2024-09-20T09:26:15Z</time>
      </trkpt>
      <trkpt lat="45.79499" lon="4.82462">
        <ele>168.4</ele>
        <time>2024-09-20T09:26:16Z</time>
      </trkpt>
      <trkpt lat="45.79496" lon="4.82456">
        <ele>168.4</ele>
        <time>2024-09-20T09:26:17Z</time>
      </trkpt>
      <trkpt lat="45.79493" lon="4.8245">
        <ele>168.6</ele>
        <time>2024-09-20T09:26:18Z</time>
      </trkpt>
      <trkpt lat="45.7949" lon="4.82444">
        <ele>168.6</ele>
        <time>2024-09-20T09:26:19Z</time>
      </trkpt>
      <trkpt lat="45.79487" lon="4.82438">
        <ele>168.4</ele>
        <time>2024-09-20T09:26:20Z</time>
      </trkpt>
      <trkpt lat="45.79484" lon="4.82433">
        <ele>168.4</ele>
        <time>2024-09-20T09:26:21Z</time>
      </trkpt>
      <trkpt lat="45.79481" lon="4.82427">
        <ele>168.4</ele>
        <time>2024-09-20T09:26:22Z</time>
      </trkpt>
      <trkpt lat="45.79478" lon="4.82421">
        <ele>168.4</ele>
        <time>2024-09-20T09:26:23Z</time>
      </trkpt>
      <trkpt lat="45.79475" lon="4.82416">
        <ele>168.4</ele>
        <time>2024-09-20T09:26:24Z</time>
      </trkpt>
      <trkpt lat="45.79472" lon="4.8241">
        <ele>168.4</ele>
        <time>2024-09-20T09:26:25Z</time>
      </trkpt>
      <trkpt lat="45.79469" lon="4.82405">
        <ele>168.6</ele>
        <time>2024-09-20T09:26:26Z</time>
      </trkpt>
      <trkpt lat="45.79467" lon="4.82399">
        <ele>168.6</ele>
        <time>2024-09-20T09:26:27Z</time>
      </trkpt>
      <trkpt lat="45.79463" lon="4.82394">
        <ele>168.6</ele>
        <time>2024-09-20T09:26:28Z</time>
      </trkpt>
      <trkpt lat="45.7946" lon="4.82389">
        <ele>168.6</ele>
        <time>2024-09-20T09:26:29Z</time>
      </trkpt>
      <trkpt lat="45.79457" lon="4.82383">
        <ele>168.6</ele>
        <time>2024-09-20T09:26:30Z</time>
      </trkpt>
      <trkpt lat="45.79453" lon="4.82378">
        <ele>168.6</ele>
        <time>2024-09-20T09:26:31Z</time>
      </trkpt>
      <trkpt lat="45.79451" lon="4.82372">
        <ele>168.6</ele>
        <time>2024-09-20T09:26:32Z</time>
      </trkpt>
      <trkpt lat="45.79447" lon="4.82367">
        <ele>168.6</ele>
        <time>2024-09-20T09:26:33Z</time>
      </trkpt>
      <trkpt lat="45.79444" lon="4.82361">
        <ele>168.6</ele>
        <time>2024-09-20T09:26:34Z</time>
      </trkpt>
      <trkpt lat="45.79441" lon="4.82355">
        <ele>168.2</ele>
        <time>2024-09-20T09:26:35Z</time>
      </trkpt>
      <trkpt lat="45.79438" lon="4.8235">
        <ele>168.2</ele>
        <time>2024-09-20T09:26:36Z</time>
      </trkpt>
      <trkpt lat="45.79435" lon="4.82344">
        <ele>168.2</ele>
        <time>2024-09-20T09:26:37Z</time>
      </trkpt>
      <trkpt lat="45.79432" lon="4.82339">
        <ele>168.4</ele>
        <time>2024-09-20T09:26:38Z</time>
      </trkpt>
      <trkpt lat="45.79429" lon="4.82333">
        <ele>168.4</ele>
        <time>2024-09-20T09:26:39Z</time>
      </trkpt>
      <trkpt lat="45.79426" lon="4.82327">
        <ele>168.4</ele>
        <time>2024-09-20T09:26:40Z</time>
      </trkpt>
      <trkpt lat="45.79423" lon="4.82321">
        <ele>168.4</ele>
        <time>2024-09-20T09:26:41Z</time>
      </trkpt>
      <trkpt lat="45.7942" lon="4.82315">
        <ele>168.4</ele>
        <time>2024-09-20T09:26:42Z</time>
      </trkpt>
      <trkpt lat="45.79416" lon="4.82309">
        <ele>168.4</ele>
        <time>2024-09-20T09:26:43Z</time>
      </trkpt>
      <trkpt lat="45.79413" lon="4.82303">
        <ele>168.4</ele>
        <time>2024-09-20T09:26:44Z</time>
      </trkpt>
      <trkpt lat="45.7941" lon="4.82297">
        <ele>168.4</ele>
        <time>2024-09-20T09:26:45Z</time>
      </trkpt>
      <trkpt lat="45.79407" lon="4.82292">
        <ele>168.4</ele>
        <time>2024-09-20T09:26:46Z</time>
      </trkpt>
      <trkpt lat="45.79403" lon="4.82286">
        <ele>168.4</ele>
        <time>2024-09-20T09:26:47Z</time>
      </trkpt>
      <trkpt lat="45.79401" lon="4.82281">
        <ele>168.6</ele>
        <time>2024-09-20T09:26:48Z</time>
      </trkpt>
      <trkpt lat="45.79398" lon="4.82275">
        <ele>168.6</ele>
        <time>2024-09-20T09:26:49Z</time>
      </trkpt>
      <trkpt lat="45.79395" lon="4.82269">
        <ele>168.6</ele>
        <time>2024-09-20T09:26:50Z</time>
      </trkpt>
      <trkpt lat="45.79392" lon="4.82264">
        <ele>168.6</ele>
        <time>2024-09-20T09:26:51Z</time>
      </trkpt>
      <trkpt lat="45.79389" lon="4.82258">
        <ele>168.6</ele>
        <time>2024-09-20T09:26:52Z</time>
      </trkpt>
      <trkpt lat="45.79386" lon="4.82252">
        <ele>168.6</ele>
        <time>2024-09-20T09:26:53Z</time>
      </trkpt>
      <trkpt lat="45.79383" lon="4.82246">
        <ele>168.6</ele>
        <time>2024-09-20T09:26:54Z</time>
      </trkpt>
      <trkpt lat="45.7938" lon="4.8224">
        <ele>168.6</ele>
        <time>2024-09-20T09:26:55Z</time>
      </trkpt>
      <trkpt lat="45.79376" lon="4.82235">
        <ele>168.6</ele>
        <time>2024-09-20T09:26:56Z</time>
      </trkpt>
      <trkpt lat="45.79374" lon="4.82229">
        <ele>168.6</ele>
        <time>2024-09-20T09:26:57Z</time>
      </trkpt>
      <trkpt lat="45.7937" lon="4.82224">
        <ele>168.6</ele>
        <time>2024-09-20T09:26:58Z</time>
      </trkpt>
      <trkpt lat="45.79367" lon="4.82218">
        <ele>168.6</ele>
        <time>2024-09-20T09:26:59Z</time>
      </trkpt>
      <trkpt lat="45.79363" lon="4.82213">
        <ele>168.6</ele>
        <time>2024-09-20T09:27:00Z</time>
      </trkpt>
      <trkpt lat="45.7936" lon="4.82208">
        <ele>168.6</ele>
        <time>2024-09-20T09:27:01Z</time>
      </trkpt>
      <trkpt lat="45.79356" lon="4.82202">
        <ele>168.6</ele>
        <time>2024-09-20T09:27:02Z</time>
      </trkpt>
      <trkpt lat="45.79353" lon="4.82197">
        <ele>168.6</ele>
        <time>2024-09-20T09:27:03Z</time>
      </trkpt>
      <trkpt lat="45.79349" lon="4.82192">
        <ele>168.6</ele>
        <time>2024-09-20T09:27:04Z</time>
      </trkpt>
      <trkpt lat="45.79345" lon="4.82187">
        <ele>168.6</ele>
        <time>2024-09-20T09:27:05Z</time>
      </trkpt>
      <trkpt lat="45.79341" lon="4.82182">
        <ele>168.8</ele>
        <time>2024-09-20T09:27:06Z</time>
      </trkpt>
      <trkpt lat="45.79337" lon="4.82176">
        <ele>168.8</ele>
        <time>2024-09-20T09:27:07Z</time>
      </trkpt>
      <trkpt lat="45.79333" lon="4.82171">
        <ele>168.8</ele>
        <time>2024-09-20T09:27:08Z</time>
      </trkpt>
      <trkpt lat="45.79329" lon="4.82166">
        <ele>168.8</ele>
        <time>2024-09-20T09:27:09Z</time>
      </trkpt>
      <trkpt lat="45.79325" lon="4.82161">
        <ele>168.8</ele>
        <time>2024-09-20T09:27:10Z</time>
      </trkpt>
      <trkpt lat="45.79321" lon="4.82156">
        <ele>168.4</ele>
        <time>2024-09-20T09:27:11Z</time>
      </trkpt>
      <trkpt lat="45.79317" lon="4.82151">
        <ele>168.4</ele>
        <time>2024-09-20T09:27:12Z</time>
      </trkpt>
      <trkpt lat="45.79312" lon="4.82145">
        <ele>168.4</ele>
        <time>2024-09-20T09:27:13Z</time>
      </trkpt>
      <trkpt lat="45.79308" lon="4.8214">
        <ele>168.6</ele>
        <time>2024-09-20T09:27:14Z</time>
      </trkpt>
      <trkpt lat="45.79305" lon="4.82136">
        <ele>168.6</ele>
        <time>2024-09-20T09:27:15Z</time>
      </trkpt>
      <trkpt lat="45.79301" lon="4.82132">
        <ele>168.6</ele>
        <time>2024-09-20T09:27:16Z</time>
      </trkpt>
      <trkpt lat="45.79298" lon="4.8213">
        <ele>168.6</ele>
        <time>2024-09-20T09:27:17Z</time>
      </trkpt>
      <trkpt lat="45.79296" lon="4.82128">
        <ele>168.6</ele>
        <time>2024-09-20T09:27:18Z</time>
      </trkpt>
      <trkpt lat="45.79294" lon="4.82125">
        <ele>168.4</ele>
        <time>2024-09-20T09:27:19Z</time>
      </trkpt>
      <trkpt lat="45.79293" lon="4.82123">
        <ele>168.4</ele>
        <time>2024-09-20T09:27:20Z</time>
      </trkpt>
      <trkpt lat="45.7929" lon="4.8212">
        <ele>168.4</ele>
        <time>2024-09-20T09:27:21Z</time>
      </trkpt>
      <trkpt lat="45.79288" lon="4.82117">
        <ele>168.4</ele>
        <time>2024-09-20T09:27:22Z</time>
      </trkpt>
      <trkpt lat="45.79286" lon="4.82114">
        <ele>168.4</ele>
        <time>2024-09-20T09:27:23Z</time>
      </trkpt>
      <trkpt lat="45.79283" lon="4.82111">
        <ele>168.4</ele>
        <time>2024-09-20T09:27:24Z</time>
      </trkpt>
      <trkpt lat="45.7928" lon="4.82107">
        <ele>168.4</ele>
        <time>2024-09-20T09:27:25Z</time>
      </trkpt>
      <trkpt lat="45.79278" lon="4.82104">
        <ele>168.4</ele>
        <time>2024-09-20T09:27:26Z</time>
      </trkpt>
      <trkpt lat="45.79275" lon="4.821">
        <ele>168.4</ele>
        <time>2024-09-20T09:27:27Z</time>
      </trkpt>
      <trkpt lat="45.79271" lon="4.82096">
        <ele>168.4</ele>
        <time>2024-09-20T09:27:28Z</time>
      </trkpt>
      <trkpt lat="45.79268" lon="4.82092">
        <ele>168.4</ele>
        <time>2024-09-20T09:27:29Z</time>
      </trkpt>
      <trkpt lat="45.79265" lon="4.82088">
        <ele>168.4</ele>
        <time>2024-09-20T09:27:30Z</time>
      </trkpt>
      <trkpt lat="45.79262" lon="4.82084">
        <ele>168.4</ele>
        <time>2024-09-20T09:27:31Z</time>
      </trkpt>
      <trkpt lat="45.79258" lon="4.82079">
        <ele>168.4</ele>
        <time>2024-09-20T09:27:32Z</time>
      </trkpt>
      <trkpt lat="45.79255" lon="4.82075">
        <ele>168.4</ele>
        <time>2024-09-20T09:27:33Z</time>
      </trkpt>
      <trkpt lat="45.79251" lon="4.8207">
        <ele>168.4</ele>
        <time>2024-09-20T09:27:34Z</time>
      </trkpt>
      <trkpt lat="45.79248" lon="4.82066">
        <ele>168.4</ele>
        <time>2024-09-20T09:27:35Z</time>
      </trkpt>
      <trkpt lat="45.79244" lon="4.82062">
        <ele>168.4</ele>
        <time>2024-09-20T09:27:36Z</time>
      </trkpt>
      <trkpt lat="45.79241" lon="4.82057">
        <ele>168.6</ele>
        <time>2024-09-20T09:27:37Z</time>
      </trkpt>
      <trkpt lat="45.79237" lon="4.82053">
        <ele>168.6</ele>
        <time>2024-09-20T09:27:38Z</time>
      </trkpt>
      <trkpt lat="45.79234" lon="4.82048">
        <ele>168.6</ele>
        <time>2024-09-20T09:27:39Z</time>
      </trkpt>
      <trkpt lat="45.79231" lon="4.82044">
        <ele>168.6</ele>
        <time>2024-09-20T09:27:40Z</time>
      </trkpt>
      <trkpt lat="45.79227" lon="4.8204">
        <ele>168.6</ele>
        <time>2024-09-20T09:27:41Z</time>
      </trkpt>
      <trkpt lat="45.79224" lon="4.82036">
        <ele>168.2</ele>
        <time>2024-09-20T09:27:42Z</time>
      </trkpt>
      <trkpt lat="45.7922" lon="4.82031">
        <ele>168.2</ele>
        <time>2024-09-20T09:27:43Z</time>
      </trkpt>
      <trkpt lat="45.79217" lon="4.82027">
        <ele>168.2</ele>
        <time>2024-09-20T09:27:44Z</time>
      </trkpt>
      <trkpt lat="45.79214" lon="4.82023">
        <ele>168.6</ele>
        <time>2024-09-20T09:27:45Z</time>
      </trkpt>
      <trkpt lat="45.7921" lon="4.82018">
        <ele>168.6</ele>
        <time>2024-09-20T09:27:46Z</time>
      </trkpt>
      <trkpt lat="45.79206" lon="4.82014">
        <ele>168.6</ele>
        <time>2024-09-20T09:27:47Z</time>
      </trkpt>
      <trkpt lat="45.79203" lon="4.82009">
        <ele>168.6</ele>
        <time>2024-09-20T09:27:48Z</time>
      </trkpt>
      <trkpt lat="45.79199" lon="4.82004">
        <ele>168.6</ele>
        <time>2024-09-20T09:27:49Z</time>
      </trkpt>
      <trkpt lat="45.79196" lon="4.82">
        <ele>168.8</ele>
        <time>2024-09-20T09:27:50Z</time>
      </trkpt>
      <trkpt lat="45.79192" lon="4.81996">
        <ele>168.8</ele>
        <time>2024-09-20T09:27:51Z</time>
      </trkpt>
      <trkpt lat="45.79188" lon="4.81991">
        <ele>168.8</ele>
        <time>2024-09-20T09:27:52Z</time>
      </trkpt>
      <trkpt lat="45.79184" lon="4.81987">
        <ele>168.8</ele>
        <time>2024-09-20T09:27:53Z</time>
      </trkpt>
      <trkpt lat="45.7918" lon="4.81982">
        <ele>168.4</ele>
        <time>2024-09-20T09:27:54Z</time>
      </trkpt>
      <trkpt lat="45.79177" lon="4.81978">
        <ele>168.8</ele>
        <time>2024-09-20T09:27:55Z</time>
      </trkpt>
      <trkpt lat="45.79173" lon="4.81973">
        <ele>168.8</ele>
        <time>2024-09-20T09:27:56Z</time>
      </trkpt>
      <trkpt lat="45.79169" lon="4.81968">
        <ele>168.8</ele>
        <time>2024-09-20T09:27:57Z</time>
      </trkpt>
      <trkpt lat="45.79166" lon="4.81964">
        <ele>168.8</ele>
        <time>2024-09-20T09:27:58Z</time>
      </trkpt>
      <trkpt lat="45.79162" lon="4.8196">
        <ele>168.8</ele>
        <time>2024-09-20T09:27:59Z</time>
      </trkpt>
      <trkpt lat="45.79158" lon="4.81955">
        <ele>168.8</ele>
        <time>2024-09-20T09:28:00Z</time>
      </trkpt>
      <trkpt lat="45.79155" lon="4.81951">
        <ele>168.8</ele>
        <time>2024-09-20T09:28:01Z</time>
      </trkpt>
      <trkpt lat="45.79151" lon="4.81946">
        <ele>168.4</ele>
        <time>2024-09-20T09:28:02Z</time>
      </trkpt>
      <trkpt lat="45.79147" lon="4.81941">
        <ele>168.8</ele>
        <time>2024-09-20T09:28:03Z</time>
      </trkpt>
      <trkpt lat="45.79144" lon="4.81937">
        <ele>168.8</ele>
        <time>2024-09-20T09:28:04Z</time>
      </trkpt>
      <trkpt lat="45.7914" lon="4.81932">
        <ele>168.8</ele>
        <time>2024-09-20T09:28:05Z</time>
      </trkpt>
      <trkpt lat="45.79137" lon="4.81927">
        <ele>168.8</ele>
        <time>2024-09-20T09:28:06Z</time>
      </trkpt>
      <trkpt lat="45.79134" lon="4.81922">
        <ele>168.6</ele>
        <time>2024-09-20T09:28:07Z</time>
      </trkpt>
      <trkpt lat="45.79131" lon="4.81918">
        <ele>168.6</ele>
        <time>2024-09-20T09:28:08Z</time>
      </trkpt>
      <trkpt lat="45.79127" lon="4.81913">
        <ele>169</ele>
        <time>2024-09-20T09:28:09Z</time>
      </trkpt>
      <trkpt lat="45.79123" lon="4.81908">
        <ele>169</ele>
        <time>2024-09-20T09:28:10Z</time>
      </trkpt>
      <trkpt lat="45.79119" lon="4.81904">
        <ele>169</ele>
        <time>2024-09-20T09:28:11Z</time>
      </trkpt>
      <trkpt lat="45.79116" lon="4.81899">
        <ele>168.6</ele>
        <time>2024-09-20T09:28:12Z</time>
      </trkpt>
      <trkpt lat="45.79112" lon="4.81894">
        <ele>168.6</ele>
        <time>2024-09-20T09:28:13Z</time>
      </trkpt>
      <trkpt lat="45.79108" lon="4.81889">
        <ele>168.6</ele>
        <time>2024-09-20T09:28:14Z</time>
      </trkpt>
      <trkpt lat="45.79104" lon="4.81883">
        <ele>168.6</ele>
        <time>2024-09-20T09:28:15Z</time>
      </trkpt>
      <trkpt lat="45.791" lon="4.81878">
        <ele>168.6</ele>
        <time>2024-09-20T09:28:16Z</time>
      </trkpt>
      <trkpt lat="45.79097" lon="4.81873">
        <ele>168.8</ele>
        <time>2024-09-20T09:28:17Z</time>
      </trkpt>
      <trkpt lat="45.79093" lon="4.81867">
        <ele>168.6</ele>
        <time>2024-09-20T09:28:18Z</time>
      </trkpt>
      <trkpt lat="45.79089" lon="4.81862">
        <ele>168.6</ele>
        <time>2024-09-20T09:28:19Z</time>
      </trkpt>
      <trkpt lat="45.79085" lon="4.81856">
        <ele>168.6</ele>
        <time>2024-09-20T09:28:20Z</time>
      </trkpt>
      <trkpt lat="45.79082" lon="4.81851">
        <ele>168.6</ele>
        <time>2024-09-20T09:28:21Z</time>
      </trkpt>
      <trkpt lat="45.79077" lon="4.81846">
        <ele>168.6</ele>
        <time>2024-09-20T09:28:22Z</time>
      </trkpt>
      <trkpt lat="45.79073" lon="4.8184">
        <ele>168.6</ele>
        <time>2024-09-20T09:28:23Z</time>
      </trkpt>
      <trkpt lat="45.79069" lon="4.81835">
        <ele>168.6</ele>
        <time>2024-09-20T09:28:24Z</time>
      </trkpt>
      <trkpt lat="45.79066" lon="4.81829">
        <ele>168.6</ele>
        <time>2024-09-20T09:28:25Z</time>
      </trkpt>
      <trkpt lat="45.79062" lon="4.81824">
        <ele>168.6</ele>
        <time>2024-09-20T09:28:26Z</time>
      </trkpt>
      <trkpt lat="45.79059" lon="4.81818">
        <ele>168.6</ele>
        <time>2024-09-20T09:28:27Z</time>
      </trkpt>
      <trkpt lat="45.79055" lon="4.81813">
        <ele>168.6</ele>
        <time>2024-09-20T09:28:28Z</time>
      </trkpt>
      <trkpt lat="45.79051" lon="4.81809">
        <ele>168.6</ele>
        <time>2024-09-20T09:28:29Z</time>
      </trkpt>
      <trkpt lat="45.79047" lon="4.81804">
        <ele>168.6</ele>
        <time>2024-09-20T09:28:30Z</time>
      </trkpt>
      <trkpt lat="45.79044" lon="4.81798">
        <ele>168.4</ele>
        <time>2024-09-20T09:28:31Z</time>
      </trkpt>
      <trkpt lat="45.79039" lon="4.81793">
        <ele>168.4</ele>
        <time>2024-09-20T09:28:32Z</time>
      </trkpt>
      <trkpt lat="45.79035" lon="4.81787">
        <ele>168.4</ele>
        <time>2024-09-20T09:28:33Z</time>
      </trkpt>
      <trkpt lat="45.79032" lon="4.81783">
        <ele>168.4</ele>
        <time>2024-09-20T09:28:34Z</time>
      </trkpt>
      <trkpt lat="45.79028" lon="4.81777">
        <ele>168.4</ele>
        <time>2024-09-20T09:28:35Z</time>
      </trkpt>
      <trkpt lat="45.79025" lon="4.81772">
        <ele>168.4</ele>
        <time>2024-09-20T09:28:36Z</time>
      </trkpt>
      <trkpt lat="45.79021" lon="4.81767">
        <ele>168.4</ele>
        <time>2024-09-20T09:28:37Z</time>
      </trkpt>
      <trkpt lat="45.79017" lon="4.81762">
        <ele>167.8</ele>
        <time>2024-09-20T09:28:38Z</time>
      </trkpt>
      <trkpt lat="45.79014" lon="4.81757">
        <ele>167.8</ele>
        <time>2024-09-20T09:28:39Z</time>
      </trkpt>
      <trkpt lat="45.7901" lon="4.81752">
        <ele>168</ele>
        <time>2024-09-20T09:28:40Z</time>
      </trkpt>
      <trkpt lat="45.79007" lon="4.81747">
        <ele>168</ele>
        <time>2024-09-20T09:28:41Z</time>
      </trkpt>
      <trkpt lat="45.79004" lon="4.81742">
        <ele>168</ele>
        <time>2024-09-20T09:28:42Z</time>
      </trkpt>
      <trkpt lat="45.79" lon="4.81737">
        <ele>168</ele>
        <time>2024-09-20T09:28:43Z</time>
      </trkpt>
      <trkpt lat="45.78996" lon="4.81732">
        <ele>167.8</ele>
        <time>2024-09-20T09:28:44Z</time>
      </trkpt>
      <trkpt lat="45.78993" lon="4.81728">
        <ele>167.8</ele>
        <time>2024-09-20T09:28:45Z</time>
      </trkpt>
      <trkpt lat="45.7899" lon="4.81724">
        <ele>167.8</ele>
        <time>2024-09-20T09:28:46Z</time>
      </trkpt>
      <trkpt lat="45.78986" lon="4.81719">
        <ele>168.2</ele>
        <time>2024-09-20T09:28:47Z</time>
      </trkpt>
      <trkpt lat="45.78983" lon="4.81713">
        <ele>168.2</ele>
        <time>2024-09-20T09:28:48Z</time>
      </trkpt>
      <trkpt lat="45.78979" lon="4.81708">
        <ele>168.4</ele>
        <time>2024-09-20T09:28:49Z</time>
      </trkpt>
      <trkpt lat="45.78975" lon="4.81704">
        <ele>168.4</ele>
        <time>2024-09-20T09:28:50Z</time>
      </trkpt>
      <trkpt lat="45.78972" lon="4.81699">
        <ele>168.4</ele>
        <time>2024-09-20T09:28:51Z</time>
      </trkpt>
      <trkpt lat="45.78969" lon="4.81694">
        <ele>168.2</ele>
        <time>2024-09-20T09:28:52Z</time>
      </trkpt>
      <trkpt lat="45.78965" lon="4.81689">
        <ele>168.4</ele>
        <time>2024-09-20T09:28:53Z</time>
      </trkpt>
      <trkpt lat="45.78962" lon="4.81684">
        <ele>168.4</ele>
        <time>2024-09-20T09:28:54Z</time>
      </trkpt>
      <trkpt lat="45.78959" lon="4.81679">
        <ele>168.4</ele>
        <time>2024-09-20T09:28:55Z</time>
      </trkpt>
      <trkpt lat="45.78956" lon="4.81674">
        <ele>168.4</ele>
        <time>2024-09-20T09:28:56Z</time>
      </trkpt>
      <trkpt lat="45.78952" lon="4.8167">
        <ele>168.4</ele>
        <time>2024-09-20T09:28:57Z</time>
      </trkpt>
      <trkpt lat="45.78949" lon="4.81665">
        <ele>168.4</ele>
        <time>2024-09-20T09:28:58Z</time>
      </trkpt>
      <trkpt lat="45.78946" lon="4.8166">
        <ele>168.4</ele>
        <time>2024-09-20T09:28:59Z</time>
      </trkpt>
      <trkpt lat="45.78942" lon="4.81655">
        <ele>168.4</ele>
        <time>2024-09-20T09:29:00Z</time>
      </trkpt>
      <trkpt lat="45.78938" lon="4.8165">
        <ele>168.4</ele>
        <time>2024-09-20T09:29:01Z</time>
      </trkpt>
      <trkpt lat="45.78934" lon="4.81645">
        <ele>168.4</ele>
        <time>2024-09-20T09:29:02Z</time>
      </trkpt>
      <trkpt lat="45.78931" lon="4.8164">
        <ele>168.4</ele>
        <time>2024-09-20T09:29:03Z</time>
      </trkpt>
      <trkpt lat="45.78928" lon="4.81635">
        <ele>168.4</ele>
        <time>2024-09-20T09:29:04Z</time>
      </trkpt>
      <trkpt lat="45.78924" lon="4.8163">
        <ele>168.4</ele>
        <time>2024-09-20T09:29:05Z</time>
      </trkpt>
      <trkpt lat="45.78921" lon="4.81625">
        <ele>168.4</ele>
        <time>2024-09-20T09:29:06Z</time>
      </trkpt>
      <trkpt lat="45.78917" lon="4.8162">
        <ele>168.2</ele>
        <time>2024-09-20T09:29:07Z</time>
      </trkpt>
      <trkpt lat="45.78913" lon="4.81614">
        <ele>168.2</ele>
        <time>2024-09-20T09:29:08Z</time>
      </trkpt>
      <trkpt lat="45.7891" lon="4.81609">
        <ele>168.2</ele>
        <time>2024-09-20T09:29:09Z</time>
      </trkpt>
      <trkpt lat="45.78906" lon="4.81604">
        <ele>168.4</ele>
        <time>2024-09-20T09:29:10Z</time>
      </trkpt>
      <trkpt lat="45.78902" lon="4.81599">
        <ele>168.6</ele>
        <time>2024-09-20T09:29:11Z</time>
      </trkpt>
      <trkpt lat="45.78898" lon="4.81594">
        <ele>168.6</ele>
        <time>2024-09-20T09:29:12Z</time>
      </trkpt>
      <trkpt lat="45.78894" lon="4.81589">
        <ele>168.6</ele>
        <time>2024-09-20T09:29:13Z</time>
      </trkpt>
      <trkpt lat="45.7889" lon="4.81585">
        <ele>168.6</ele>
        <time>2024-09-20T09:29:14Z</time>
      </trkpt>
      <trkpt lat="45.78886" lon="4.8158">
        <ele>167.6</ele>
        <time>2024-09-20T09:29:15Z</time>
      </trkpt>
      <trkpt lat="45.78882" lon="4.81575">
        <ele>168.6</ele>
        <time>2024-09-20T09:29:16Z</time>
      </trkpt>
      <trkpt lat="45.78878" lon="4.8157">
        <ele>168.6</ele>
        <time>2024-09-20T09:29:17Z</time>
      </trkpt>
      <trkpt lat="45.78875" lon="4.81565">
        <ele>168.6</ele>
        <time>2024-09-20T09:29:18Z</time>
      </trkpt>
      <trkpt lat="45.78871" lon="4.81561">
        <ele>168.6</ele>
        <time>2024-09-20T09:29:19Z</time>
      </trkpt>
      <trkpt lat="45.78867" lon="4.81556">
        <ele>168.6</ele>
        <time>2024-09-20T09:29:20Z</time>
      </trkpt>
      <trkpt lat="45.78863" lon="4.81552">
        <ele>168.6</ele>
        <time>2024-09-20T09:29:21Z</time>
      </trkpt>
      <trkpt lat="45.78858" lon="4.81548">
        <ele>168.6</ele>
        <time>2024-09-20T09:29:22Z</time>
      </trkpt>
      <trkpt lat="45.78854" lon="4.81543">
        <ele>168.6</ele>
        <time>2024-09-20T09:29:23Z</time>
      </trkpt>
      <trkpt lat="45.7885" lon="4.81539">
        <ele>168.4</ele>
        <time>2024-09-20T09:29:24Z</time>
      </trkpt>
      <trkpt lat="45.78846" lon="4.81535">
        <ele>168.4</ele>
        <time>2024-09-20T09:29:25Z</time>
      </trkpt>
      <trkpt lat="45.78842" lon="4.81531">
        <ele>168.4</ele>
        <time>2024-09-20T09:29:26Z</time>
      </trkpt>
      <trkpt lat="45.78838" lon="4.81528">
        <ele>168.4</ele>
        <time>2024-09-20T09:29:27Z</time>
      </trkpt>
      <trkpt lat="45.78834" lon="4.81524">
        <ele>168.4</ele>
        <time>2024-09-20T09:29:28Z</time>
      </trkpt>
      <trkpt lat="45.7883" lon="4.8152">
        <ele>168.4</ele>
        <time>2024-09-20T09:29:29Z</time>
      </trkpt>
      <trkpt lat="45.78826" lon="4.81516">
        <ele>168.4</ele>
        <time>2024-09-20T09:29:30Z</time>
      </trkpt>
      <trkpt lat="45.78822" lon="4.81512">
        <ele>168.4</ele>
        <time>2024-09-20T09:29:31Z</time>
      </trkpt>
      <trkpt lat="45.78818" lon="4.81508">
        <ele>168.4</ele>
        <time>2024-09-20T09:29:32Z</time>
      </trkpt>
      <trkpt lat="45.78815" lon="4.81505">
        <ele>168.4</ele>
        <time>2024-09-20T09:29:33Z</time>
      </trkpt>
      <trkpt lat="45.78811" lon="4.81502">
        <ele>168.4</ele>
        <time>2024-09-20T09:29:34Z</time>
      </trkpt>
      <trkpt lat="45.78807" lon="4.81498">
        <ele>168.4</ele>
        <time>2024-09-20T09:29:35Z</time>
      </trkpt>
      <trkpt lat="45.78803" lon="4.81494">
        <ele>168.4</ele>
        <time>2024-09-20T09:29:36Z</time>
      </trkpt>
      <trkpt lat="45.788" lon="4.81491">
        <ele>168.4</ele>
        <time>2024-09-20T09:29:37Z</time>
      </trkpt>
      <trkpt lat="45.78795" lon="4.81488">
        <ele>168.6</ele>
        <time>2024-09-20T09:29:38Z</time>
      </trkpt>
      <trkpt lat="45.78791" lon="4.81484">
        <ele>168.6</ele>
        <time>2024-09-20T09:29:39Z</time>
      </trkpt>
      <trkpt lat="45.78787" lon="4.81481">
        <ele>168.6</ele>
        <time>2024-09-20T09:29:40Z</time>
      </trkpt>
      <trkpt lat="45.78782" lon="4.81477">
        <ele>168.6</ele>
        <time>2024-09-20T09:29:41Z</time>
      </trkpt>
      <trkpt lat="45.78779" lon="4.81474">
        <ele>168.6</ele>
        <time>2024-09-20T09:29:42Z</time>
      </trkpt>
      <trkpt lat="45.78776" lon="4.81471">
        <ele>168.6</ele>
        <time>2024-09-20T09:29:43Z</time>
      </trkpt>
      <trkpt lat="45.78772" lon="4.81468">
        <ele>168.6</ele>
        <time>2024-09-20T09:29:44Z</time>
      </trkpt>
      <trkpt lat="45.78768" lon="4.81465">
        <ele>168.6</ele>
        <time>2024-09-20T09:29:45Z</time>
      </trkpt>
      <trkpt lat="45.78764" lon="4.81462">
        <ele>168.6</ele>
        <time>2024-09-20T09:29:46Z</time>
      </trkpt>
      <trkpt lat="45.7876" lon="4.81459">
        <ele>168.6</ele>
        <time>2024-09-20T09:29:47Z</time>
      </trkpt>
      <trkpt lat="45.78756" lon="4.81455">
        <ele>168.8</ele>
        <time>2024-09-20T09:29:48Z</time>
      </trkpt>
      <trkpt lat="45.78751" lon="4.81452">
        <ele>168.8</ele>
        <time>2024-09-20T09:29:49Z</time>
      </trkpt>
      <trkpt lat="45.78747" lon="4.8145">
        <ele>168.8</ele>
        <time>2024-09-20T09:29:50Z</time>
      </trkpt>
      <trkpt lat="45.78743" lon="4.81446">
        <ele>168.8</ele>
        <time>2024-09-20T09:29:51Z</time>
      </trkpt>
      <trkpt lat="45.78738" lon="4.81443">
        <ele>168.4</ele>
        <time>2024-09-20T09:29:52Z</time>
      </trkpt>
      <trkpt lat="45.78733" lon="4.8144">
        <ele>168.4</ele>
        <time>2024-09-20T09:29:53Z</time>
      </trkpt>
      <trkpt lat="45.78729" lon="4.81437">
        <ele>168.4</ele>
        <time>2024-09-20T09:29:54Z</time>
      </trkpt>
      <trkpt lat="45.78725" lon="4.81434">
        <ele>168.4</ele>
        <time>2024-09-20T09:29:55Z</time>
      </trkpt>
      <trkpt lat="45.7872" lon="4.81431">
        <ele>168.4</ele>
        <time>2024-09-20T09:29:56Z</time>
      </trkpt>
      <trkpt lat="45.78716" lon="4.81428">
        <ele>168.4</ele>
        <time>2024-09-20T09:29:57Z</time>
      </trkpt>
      <trkpt lat="45.78711" lon="4.81425">
        <ele>168.4</ele>
        <time>2024-09-20T09:29:58Z</time>
      </trkpt>
      <trkpt lat="45.78707" lon="4.81423">
        <ele>168.4</ele>
        <time>2024-09-20T09:29:59Z</time>
      </trkpt>
      <trkpt lat="45.78702" lon="4.8142">
        <ele>168.4</ele>
        <time>2024-09-20T09:30:00Z</time>
      </trkpt>
      <trkpt lat="45.78698" lon="4.81417">
        <ele>168.4</ele>
        <time>2024-09-20T09:30:01Z</time>
      </trkpt>
      <trkpt lat="45.78693" lon="4.81414">
        <ele>168.6</ele>
        <time>2024-09-20T09:30:02Z</time>
      </trkpt>
      <trkpt lat="45.78689" lon="4.81412">
        <ele>168.6</ele>
        <time>2024-09-20T09:30:03Z</time>
      </trkpt>
      <trkpt lat="45.78685" lon="4.81409">
        <ele>169.2</ele>
        <time>2024-09-20T09:30:04Z</time>
      </trkpt>
      <trkpt lat="45.78681" lon="4.81407">
        <ele>169.2</ele>
        <time>2024-09-20T09:30:05Z</time>
      </trkpt>
      <trkpt lat="45.78677" lon="4.81404">
        <ele>168.8</ele>
        <time>2024-09-20T09:30:06Z</time>
      </trkpt>
      <trkpt lat="45.78673" lon="4.81401">
        <ele>168.8</ele>
        <time>2024-09-20T09:30:07Z</time>
      </trkpt>
      <trkpt lat="45.78669" lon="4.81398">
        <ele>168.8</ele>
        <time>2024-09-20T09:30:08Z</time>
      </trkpt>
      <trkpt lat="45.78665" lon="4.81395">
        <ele>168.6</ele>
        <time>2024-09-20T09:30:09Z</time>
      </trkpt>
      <trkpt lat="45.78661" lon="4.81393">
        <ele>168.6</ele>
        <time>2024-09-20T09:30:10Z</time>
      </trkpt>
      <trkpt lat="45.78657" lon="4.8139">
        <ele>168.6</ele>
        <time>2024-09-20T09:30:11Z</time>
      </trkpt>
      <trkpt lat="45.78653" lon="4.81387">
        <ele>168.6</ele>
        <time>2024-09-20T09:30:12Z</time>
      </trkpt>
      <trkpt lat="45.78648" lon="4.81385">
        <ele>168.6</ele>
        <time>2024-09-20T09:30:13Z</time>
      </trkpt>
      <trkpt lat="45.78644" lon="4.81382">
        <ele>168.6</ele>
        <time>2024-09-20T09:30:14Z</time>
      </trkpt>
      <trkpt lat="45.7864" lon="4.81379">
        <ele>168.6</ele>
        <time>2024-09-20T09:30:15Z</time>
      </trkpt>
      <trkpt lat="45.78635" lon="4.81377">
        <ele>168.6</ele>
        <time>2024-09-20T09:30:16Z</time>
      </trkpt>
      <trkpt lat="45.78631" lon="4.81374">
        <ele>168.6</ele>
        <time>2024-09-20T09:30:17Z</time>
      </trkpt>
      <trkpt lat="45.78626" lon="4.81371">
        <ele>168.6</ele>
        <time>2024-09-20T09:30:18Z</time>
      </trkpt>
      <trkpt lat="45.78622" lon="4.81368">
        <ele>168.6</ele>
        <time>2024-09-20T09:30:19Z</time>
      </trkpt>
      <trkpt lat="45.78617" lon="4.81366">
        <ele>168.6</ele>
        <time>2024-09-20T09:30:20Z</time>
      </trkpt>
      <trkpt lat="45.78612" lon="4.81363">
        <ele>168.6</ele>
        <time>2024-09-20T09:30:21Z</time>
      </trkpt>
      <trkpt lat="45.78607" lon="4.81361">
        <ele>168.6</ele>
        <time>2024-09-20T09:30:22Z</time>
      </trkpt>
      <trkpt lat="45.78603" lon="4.81358">
        <ele>168.8</ele>
        <time>2024-09-20T09:30:23Z</time>
      </trkpt>
      <trkpt lat="45.78598" lon="4.81355">
        <ele>168.4</ele>
        <time>2024-09-20T09:30:24Z</time>
      </trkpt>
      <trkpt lat="45.78593" lon="4.81352">
        <ele>168.4</ele>
        <time>2024-09-20T09:30:25Z</time>
      </trkpt>
      <trkpt lat="45.78589" lon="4.81349">
        <ele>168.4</ele>
        <time>2024-09-20T09:30:26Z</time>
      </trkpt>
      <trkpt lat="45.78584" lon="4.81346">
        <ele>168.4</ele>
        <time>2024-09-20T09:30:27Z</time>
      </trkpt>
      <trkpt lat="45.7858" lon="4.81343">
        <ele>168.4</ele>
        <time>2024-09-20T09:30:28Z</time>
      </trkpt>
      <trkpt lat="45.78575" lon="4.8134">
        <ele>168.4</ele>
        <time>2024-09-20T09:30:29Z</time>
      </trkpt>
      <trkpt lat="45.7857" lon="4.81339">
        <ele>168.4</ele>
        <time>2024-09-20T09:30:30Z</time>
      </trkpt>
      <trkpt lat="45.78566" lon="4.81336">
        <ele>168.4</ele>
        <time>2024-09-20T09:30:31Z</time>
      </trkpt>
      <trkpt lat="45.78562" lon="4.81333">
        <ele>168.4</ele>
        <time>2024-09-20T09:30:32Z</time>
      </trkpt>
      <trkpt lat="45.78559" lon="4.8133">
        <ele>168.4</ele>
        <time>2024-09-20T09:30:33Z</time>
      </trkpt>
      <trkpt lat="45.78556" lon="4.81328">
        <ele>168.2</ele>
        <time>2024-09-20T09:30:34Z</time>
      </trkpt>
      <trkpt lat="45.78555" lon="4.81326">
        <ele>168.2</ele>
        <time>2024-09-20T09:30:35Z</time>
      </trkpt>
      <trkpt lat="45.78554" lon="4.81326">
        <ele>168.2</ele>
        <time>2024-09-20T09:30:36Z</time>
      </trkpt>
      <trkpt lat="45.78548" lon="4.81323">
        <ele>168.8</ele>
        <time>2024-09-20T09:30:46Z</time>
      </trkpt>
      <trkpt lat="45.78545" lon="4.81321">
        <ele>168.8</ele>
        <time>2024-09-20T09:30:47Z</time>
      </trkpt>
      <trkpt lat="45.78543" lon="4.8132">
        <ele>168.8</ele>
        <time>2024-09-20T09:30:48Z</time>
      </trkpt>
      <trkpt lat="45.78541" lon="4.81318">
        <ele>168.6</ele>
        <time>2024-09-20T09:30:49Z</time>
      </trkpt>
      <trkpt lat="45.78538" lon="4.81316">
        <ele>168.6</ele>
        <time>2024-09-20T09:30:50Z</time>
      </trkpt>
      <trkpt lat="45.78536" lon="4.81315">
        <ele>168.6</ele>
        <time>2024-09-20T09:30:51Z</time>
      </trkpt>
      <trkpt lat="45.78534" lon="4.81313">
        <ele>168.6</ele>
        <time>2024-09-20T09:30:52Z</time>
      </trkpt>
      <trkpt lat="45.78531" lon="4.81311">
        <ele>168.6</ele>
        <time>2024-09-20T09:30:53Z</time>
      </trkpt>
      <trkpt lat="45.78528" lon="4.8131">
        <ele>168.6</ele>
        <time>2024-09-20T09:30:54Z</time>
      </trkpt>
      <trkpt lat="45.78525" lon="4.81307">
        <ele>169</ele>
        <time>2024-09-20T09:30:55Z</time>
      </trkpt>
      <trkpt lat="45.78522" lon="4.81305">
        <ele>169</ele>
        <time>2024-09-20T09:30:56Z</time>
      </trkpt>
      <trkpt lat="45.78519" lon="4.81303">
        <ele>169</ele>
        <time>2024-09-20T09:30:57Z</time>
      </trkpt>
      <trkpt lat="45.78515" lon="4.81301">
        <ele>169</ele>
        <time>2024-09-20T09:30:58Z</time>
      </trkpt>
      <trkpt lat="45.78512" lon="4.81298">
        <ele>169.2</ele>
        <time>2024-09-20T09:30:59Z</time>
      </trkpt>
      <trkpt lat="45.78508" lon="4.81296">
        <ele>169.2</ele>
        <time>2024-09-20T09:31:00Z</time>
      </trkpt>
      <trkpt lat="45.78505" lon="4.81293">
        <ele>169.2</ele>
        <time>2024-09-20T09:31:01Z</time>
      </trkpt>
      <trkpt lat="45.78502" lon="4.8129">
        <ele>169.2</ele>
        <time>2024-09-20T09:31:02Z</time>
      </trkpt>
      <trkpt lat="45.78498" lon="4.81287">
        <ele>169.2</ele>
        <time>2024-09-20T09:31:03Z</time>
      </trkpt>
      <trkpt lat="45.78495" lon="4.81285">
        <ele>169.2</ele>
        <time>2024-09-20T09:31:04Z</time>
      </trkpt>
      <trkpt lat="45.78492" lon="4.81281">
        <ele>169.2</ele>
        <time>2024-09-20T09:31:05Z</time>
      </trkpt>
      <trkpt lat="45.78488" lon="4.81278">
        <ele>169.2</ele>
        <time>2024-09-20T09:31:06Z</time>
      </trkpt>
      <trkpt lat="45.78485" lon="4.81275">
        <ele>169.2</ele>
        <time>2024-09-20T09:31:07Z</time>
      </trkpt>
      <trkpt lat="45.78481" lon="4.81272">
        <ele>169</ele>
        <time>2024-09-20T09:31:08Z</time>
      </trkpt>
      <trkpt lat="45.78477" lon="4.81269">
        <ele>169</ele>
        <time>2024-09-20T09:31:09Z</time>
      </trkpt>
      <trkpt lat="45.78473" lon="4.81266">
        <ele>169</ele>
        <time>2024-09-20T09:31:10Z</time>
      </trkpt>
      <trkpt lat="45.7847" lon="4.81264">
        <ele>169</ele>
        <time>2024-09-20T09:31:11Z</time>
      </trkpt>
      <trkpt lat="45.78466" lon="4.81261">
        <ele>169</ele>
        <time>2024-09-20T09:31:12Z</time>
      </trkpt>
      <trkpt lat="45.78463" lon="4.81257">
        <ele>168.8</ele>
        <time>2024-09-20T09:31:13Z</time>
      </trkpt>
      <trkpt lat="45.78459" lon="4.81255">
        <ele>168.8</ele>
        <time>2024-09-20T09:31:14Z</time>
      </trkpt>
      <trkpt lat="45.78455" lon="4.81252">
        <ele>168.8</ele>
        <time>2024-09-20T09:31:15Z</time>
      </trkpt>
      <trkpt lat="45.78452" lon="4.81249">
        <ele>168.8</ele>
        <time>2024-09-20T09:31:16Z</time>
      </trkpt>
      <trkpt lat="45.78448" lon="4.81246">
        <ele>168.8</ele>
        <time>2024-09-20T09:31:17Z</time>
      </trkpt>
      <trkpt lat="45.78445" lon="4.81243">
        <ele>168.8</ele>
        <time>2024-09-20T09:31:18Z</time>
      </trkpt>
      <trkpt lat="45.78441" lon="4.8124">
        <ele>168.8</ele>
        <time>2024-09-20T09:31:19Z</time>
      </trkpt>
      <trkpt lat="45.78437" lon="4.81237">
        <ele>168.8</ele>
        <time>2024-09-20T09:31:20Z</time>
      </trkpt>
      <trkpt lat="45.78433" lon="4.81234">
        <ele>168.8</ele>
        <time>2024-09-20T09:31:21Z</time>
      </trkpt>
      <trkpt lat="45.78429" lon="4.81231">
        <ele>169</ele>
        <time>2024-09-20T09:31:22Z</time>
      </trkpt>
      <trkpt lat="45.78425" lon="4.81228">
        <ele>169</ele>
        <time>2024-09-20T09:31:23Z</time>
      </trkpt>
      <trkpt lat="45.78421" lon="4.81225">
        <ele>169</ele>
        <time>2024-09-20T09:31:24Z</time>
      </trkpt>
      <trkpt lat="45.78418" lon="4.81222">
        <ele>169</ele>
        <time>2024-09-20T09:31:25Z</time>
      </trkpt>
      <trkpt lat="45.78414" lon="4.81218">
        <ele>169</ele>
        <time>2024-09-20T09:31:26Z</time>
      </trkpt>
      <trkpt lat="45.7841" lon="4.81216">
        <ele>169</ele>
        <time>2024-09-20T09:31:27Z</time>
      </trkpt>
      <trkpt lat="45.78406" lon="4.81213">
        <ele>169</ele>
        <time>2024-09-20T09:31:28Z</time>
      </trkpt>
      <trkpt lat="45.78402" lon="4.8121">
        <ele>169</ele>
        <time>2024-09-20T09:31:29Z</time>
      </trkpt>
      <trkpt lat="45.78399" lon="4.81207">
        <ele>169</ele>
        <time>2024-09-20T09:31:30Z</time>
      </trkpt>
      <trkpt lat="45.78395" lon="4.81203">
        <ele>169.2</ele>
        <time>2024-09-20T09:31:31Z</time>
      </trkpt>
      <trkpt lat="45.78391" lon="4.812">
        <ele>169.2</ele>
        <time>2024-09-20T09:31:32Z</time>
      </trkpt>
      <trkpt lat="45.78387" lon="4.81197">
        <ele>169.2</ele>
        <time>2024-09-20T09:31:33Z</time>
      </trkpt>
      <trkpt lat="45.78383" lon="4.81194">
        <ele>169</ele>
        <time>2024-09-20T09:31:34Z</time>
      </trkpt>
      <trkpt lat="45.78379" lon="4.8119">
        <ele>169</ele>
        <time>2024-09-20T09:31:35Z</time>
      </trkpt>
      <trkpt lat="45.78375" lon="4.81187">
        <ele>169</ele>
        <time>2024-09-20T09:31:36Z</time>
      </trkpt>
      <trkpt lat="45.78372" lon="4.81184">
        <ele>169</ele>
        <time>2024-09-20T09:31:37Z</time>
      </trkpt>
      <trkpt lat="45.78369" lon="4.81181">
        <ele>169</ele>
        <time>2024-09-20T09:31:38Z</time>
      </trkpt>
      <trkpt lat="45.78365" lon="4.81177">
        <ele>169</ele>
        <time>2024-09-20T09:31:39Z</time>
      </trkpt>
      <trkpt lat="45.78362" lon="4.81174">
        <ele>169</ele>
        <time>2024-09-20T09:31:40Z</time>
      </trkpt>
      <trkpt lat="45.78358" lon="4.8117">
        <ele>169</ele>
        <time>2024-09-20T09:31:41Z</time>
      </trkpt>
      <trkpt lat="45.78355" lon="4.81167">
        <ele>169</ele>
        <time>2024-09-20T09:31:42Z</time>
      </trkpt>
      <trkpt lat="45.78351" lon="4.81164">
        <ele>169</ele>
        <time>2024-09-20T09:31:43Z</time>
      </trkpt>
      <trkpt lat="45.78346" lon="4.81162">
        <ele>169</ele>
        <time>2024-09-20T09:31:44Z</time>
      </trkpt>
      <trkpt lat="45.78342" lon="4.81158">
        <ele>169</ele>
        <time>2024-09-20T09:31:45Z</time>
      </trkpt>
      <trkpt lat="45.78339" lon="4.81155">
        <ele>169</ele>
        <time>2024-09-20T09:31:46Z</time>
      </trkpt>
      <trkpt lat="45.78335" lon="4.81151">
        <ele>169</ele>
        <time>2024-09-20T09:31:47Z</time>
      </trkpt>
      <trkpt lat="45.78332" lon="4.81149">
        <ele>169</ele>
        <time>2024-09-20T09:31:48Z</time>
      </trkpt>
      <trkpt lat="45.78328" lon="4.81146">
        <ele>169</ele>
        <time>2024-09-20T09:31:49Z</time>
      </trkpt>
      <trkpt lat="45.78324" lon="4.81143">
        <ele>169.2</ele>
        <time>2024-09-20T09:31:50Z</time>
      </trkpt>
      <trkpt lat="45.78321" lon="4.8114">
        <ele>169.2</ele>
        <time>2024-09-20T09:31:51Z</time>
      </trkpt>
      <trkpt lat="45.78316" lon="4.81137">
        <ele>169.2</ele>
        <time>2024-09-20T09:31:52Z</time>
      </trkpt>
      <trkpt lat="45.78312" lon="4.81134">
        <ele>169.2</ele>
        <time>2024-09-20T09:31:53Z</time>
      </trkpt>
      <trkpt lat="45.78308" lon="4.81131">
        <ele>169.2</ele>
        <time>2024-09-20T09:31:54Z</time>
      </trkpt>
      <trkpt lat="45.78304" lon="4.81128">
        <ele>169.2</ele>
        <time>2024-09-20T09:31:55Z</time>
      </trkpt>
      <trkpt lat="45.783" lon="4.81126">
        <ele>169.2</ele>
        <time>2024-09-20T09:31:56Z</time>
      </trkpt>
      <trkpt lat="45.78296" lon="4.81124">
        <ele>169.6</ele>
        <time>2024-09-20T09:31:57Z</time>
      </trkpt>
      <trkpt lat="45.78292" lon="4.81122">
        <ele>169.4</ele>
        <time>2024-09-20T09:31:58Z</time>
      </trkpt>
      <trkpt lat="45.78289" lon="4.81119">
        <ele>169.4</ele>
        <time>2024-09-20T09:31:59Z</time>
      </trkpt>
      <trkpt lat="45.78285" lon="4.81117">
        <ele>169.4</ele>
        <time>2024-09-20T09:32:00Z</time>
      </trkpt>
      <trkpt lat="45.78282" lon="4.81114">
        <ele>169.4</ele>
        <time>2024-09-20T09:32:01Z</time>
      </trkpt>
      <trkpt lat="45.78278" lon="4.81111">
        <ele>169.4</ele>
        <time>2024-09-20T09:32:02Z</time>
      </trkpt>
      <trkpt lat="45.78275" lon="4.81108">
        <ele>169.6</ele>
        <time>2024-09-20T09:32:03Z</time>
      </trkpt>
      <trkpt lat="45.78271" lon="4.81105">
        <ele>169.6</ele>
        <time>2024-09-20T09:32:04Z</time>
      </trkpt>
      <trkpt lat="45.78268" lon="4.81102">
        <ele>169.6</ele>
        <time>2024-09-20T09:32:05Z</time>
      </trkpt>
      <trkpt lat="45.78266" lon="4.81098">
        <ele>169.6</ele>
        <time>2024-09-20T09:32:06Z</time>
      </trkpt>
      <trkpt lat="45.78264" lon="4.81093">
        <ele>169.4</ele>
        <time>2024-09-20T09:32:07Z</time>
      </trkpt>
      <trkpt lat="45.78262" lon="4.81088">
        <ele>169.4</ele>
        <time>2024-09-20T09:32:08Z</time>
      </trkpt>
      <trkpt lat="45.78258" lon="4.81085">
        <ele>169.4</ele>
        <time>2024-09-20T09:32:09Z</time>
      </trkpt>
      <trkpt lat="45.78255" lon="4.81082">
        <ele>169.4</ele>
        <time>2024-09-20T09:32:10Z</time>
      </trkpt>
      <trkpt lat="45.78251" lon="4.81079">
        <ele>169.4</ele>
        <time>2024-09-20T09:32:11Z</time>
      </trkpt>
      <trkpt lat="45.78247" lon="4.81076">
        <ele>169.2</ele>
        <time>2024-09-20T09:32:12Z</time>
      </trkpt>
      <trkpt lat="45.78243" lon="4.81073">
        <ele>169.2</ele>
        <time>2024-09-20T09:32:13Z</time>
      </trkpt>
      <trkpt lat="45.7824" lon="4.8107">
        <ele>169.2</ele>
        <time>2024-09-20T09:32:14Z</time>
      </trkpt>
      <trkpt lat="45.78236" lon="4.81067">
        <ele>169</ele>
        <time>2024-09-20T09:32:15Z</time>
      </trkpt>
      <trkpt lat="45.78232" lon="4.81064">
        <ele>169.2</ele>
        <time>2024-09-20T09:32:16Z</time>
      </trkpt>
      <trkpt lat="45.78229" lon="4.81061">
        <ele>169.2</ele>
        <time>2024-09-20T09:32:17Z</time>
      </trkpt>
      <trkpt lat="45.78225" lon="4.81058">
        <ele>169.2</ele>
        <time>2024-09-20T09:32:18Z</time>
      </trkpt>
      <trkpt lat="45.78221" lon="4.81055">
        <ele>169.2</ele>
        <time>2024-09-20T09:32:19Z</time>
      </trkpt>
      <trkpt lat="45.78217" lon="4.81052">
        <ele>169</ele>
        <time>2024-09-20T09:32:20Z</time>
      </trkpt>
      <trkpt lat="45.78214" lon="4.81048">
        <ele>169</ele>
        <time>2024-09-20T09:32:21Z</time>
      </trkpt>
      <trkpt lat="45.7821" lon="4.81045">
        <ele>169</ele>
        <time>2024-09-20T09:32:22Z</time>
      </trkpt>
      <trkpt lat="45.78206" lon="4.81043">
        <ele>169</ele>
        <time>2024-09-20T09:32:23Z</time>
      </trkpt>
      <trkpt lat="45.78202" lon="4.8104">
        <ele>169</ele>
        <time>2024-09-20T09:32:24Z</time>
      </trkpt>
      <trkpt lat="45.78198" lon="4.81037">
        <ele>169.2</ele>
        <time>2024-09-20T09:32:25Z</time>
      </trkpt>
      <trkpt lat="45.78194" lon="4.81034">
        <ele>169.2</ele>
        <time>2024-09-20T09:32:26Z</time>
      </trkpt>
      <trkpt lat="45.78191" lon="4.81031">
        <ele>169.2</ele>
        <time>2024-09-20T09:32:27Z</time>
      </trkpt>
      <trkpt lat="45.78187" lon="4.81028">
        <ele>169.4</ele>
        <time>2024-09-20T09:32:28Z</time>
      </trkpt>
      <trkpt lat="45.78183" lon="4.81025">
        <ele>169.4</ele>
        <time>2024-09-20T09:32:29Z</time>
      </trkpt>
      <trkpt lat="45.78179" lon="4.81022">
        <ele>169.4</ele>
        <time>2024-09-20T09:32:30Z</time>
      </trkpt>
      <trkpt lat="45.78175" lon="4.81019">
        <ele>169.4</ele>
        <time>2024-09-20T09:32:31Z</time>
      </trkpt>
      <trkpt lat="45.78171" lon="4.81016">
        <ele>169.4</ele>
        <time>2024-09-20T09:32:32Z</time>
      </trkpt>
      <trkpt lat="45.78168" lon="4.81013">
        <ele>169.4</ele>
        <time>2024-09-20T09:32:33Z</time>
      </trkpt>
      <trkpt lat="45.78164" lon="4.81009">
        <ele>169.4</ele>
        <time>2024-09-20T09:32:34Z</time>
      </trkpt>
      <trkpt lat="45.7816" lon="4.81006">
        <ele>169.8</ele>
        <time>2024-09-20T09:32:35Z</time>
      </trkpt>
      <trkpt lat="45.78156" lon="4.81003">
        <ele>169.8</ele>
        <time>2024-09-20T09:32:36Z</time>
      </trkpt>
      <trkpt lat="45.78152" lon="4.81">
        <ele>169.8</ele>
        <time>2024-09-20T09:32:37Z</time>
      </trkpt>
      <trkpt lat="45.78149" lon="4.80998">
        <ele>169.4</ele>
        <time>2024-09-20T09:32:38Z</time>
      </trkpt>
      <trkpt lat="45.78145" lon="4.80995">
        <ele>169.4</ele>
        <time>2024-09-20T09:32:39Z</time>
      </trkpt>
      <trkpt lat="45.78141" lon="4.80992">
        <ele>169.4</ele>
        <time>2024-09-20T09:32:40Z</time>
      </trkpt>
      <trkpt lat="45.78137" lon="4.80989">
        <ele>169.4</ele>
        <time>2024-09-20T09:32:41Z</time>
      </trkpt>
      <trkpt lat="45.78134" lon="4.80986">
        <ele>169.4</ele>
        <time>2024-09-20T09:32:42Z</time>
      </trkpt>
      <trkpt lat="45.7813" lon="4.80983">
        <ele>169.4</ele>
        <time>2024-09-20T09:32:43Z</time>
      </trkpt>
      <trkpt lat="45.78126" lon="4.8098">
        <ele>169.6</ele>
        <time>2024-09-20T09:32:44Z</time>
      </trkpt>
      <trkpt lat="45.78123" lon="4.80977">
        <ele>169.6</ele>
        <time>2024-09-20T09:32:45Z</time>
      </trkpt>
      <trkpt lat="45.78119" lon="4.80974">
        <ele>169.6</ele>
        <time>2024-09-20T09:32:46Z</time>
      </trkpt>
      <trkpt lat="45.78116" lon="4.80971">
        <ele>169.6</ele>
        <time>2024-09-20T09:32:47Z</time>
      </trkpt>
      <trkpt lat="45.78112" lon="4.80968">
        <ele>169.8</ele>
        <time>2024-09-20T09:32:48Z</time>
      </trkpt>
      <trkpt lat="45.78109" lon="4.80965">
        <ele>169.8</ele>
        <time>2024-09-20T09:32:49Z</time>
      </trkpt>
      <trkpt lat="45.78105" lon="4.80962">
        <ele>169.8</ele>
        <time>2024-09-20T09:32:50Z</time>
      </trkpt>
      <trkpt lat="45.78102" lon="4.80959">
        <ele>170</ele>
        <time>2024-09-20T09:32:51Z</time>
      </trkpt>
      <trkpt lat="45.78098" lon="4.80956">
        <ele>170</ele>
        <time>2024-09-20T09:32:52Z</time>
      </trkpt>
      <trkpt lat="45.78095" lon="4.80953">
        <ele>170</ele>
        <time>2024-09-20T09:32:53Z</time>
      </trkpt>
      <trkpt lat="45.78091" lon="4.8095">
        <ele>170</ele>
        <time>2024-09-20T09:32:54Z</time>
      </trkpt>
      <trkpt lat="45.78088" lon="4.80948">
        <ele>170</ele>
        <time>2024-09-20T09:32:55Z</time>
      </trkpt>
      <trkpt lat="45.78084" lon="4.80945">
        <ele>170.6</ele>
        <time>2024-09-20T09:32:56Z</time>
      </trkpt>
      <trkpt lat="45.78081" lon="4.80942">
        <ele>170.8</ele>
        <time>2024-09-20T09:32:57Z</time>
      </trkpt>
      <trkpt lat="45.78077" lon="4.8094">
        <ele>170.8</ele>
        <time>2024-09-20T09:32:58Z</time>
      </trkpt>
      <trkpt lat="45.78074" lon="4.80938">
        <ele>170.8</ele>
        <time>2024-09-20T09:32:59Z</time>
      </trkpt>
      <trkpt lat="45.78071" lon="4.80935">
        <ele>171.2</ele>
        <time>2024-09-20T09:33:00Z</time>
      </trkpt>
      <trkpt lat="45.78068" lon="4.80933">
        <ele>171.2</ele>
        <time>2024-09-20T09:33:01Z</time>
      </trkpt>
      <trkpt lat="45.78064" lon="4.80931">
        <ele>171.2</ele>
        <time>2024-09-20T09:33:02Z</time>
      </trkpt>
      <trkpt lat="45.78062" lon="4.80929">
        <ele>171.2</ele>
        <time>2024-09-20T09:33:03Z</time>
      </trkpt>
      <trkpt lat="45.78059" lon="4.80927">
        <ele>171.2</ele>
        <time>2024-09-20T09:33:04Z</time>
      </trkpt>
      <trkpt lat="45.78058" lon="4.80926">
        <ele>171.6</ele>
        <time>2024-09-20T09:33:05Z</time>
      </trkpt>
      <trkpt lat="45.78057" lon="4.80926">
        <ele>171.6</ele>
        <time>2024-09-20T09:33:06Z</time>
      </trkpt>
      <trkpt lat="45.78056" lon="4.80926">
        <ele>171.6</ele>
        <time>2024-09-20T09:33:07Z</time>
      </trkpt>
      <trkpt lat="45.78056" lon="4.80926">
        <ele>171.6</ele>
        <time>2024-09-20T09:33:08Z</time>
      </trkpt>
      <trkpt lat="45.78051" lon="4.80923">
        <ele>171.8</ele>
        <time>2024-09-20T09:33:55Z</time>
      </trkpt>
      <trkpt lat="45.7805" lon="4.80922">
        <ele>171.8</ele>
        <time>2024-09-20T09:33:56Z</time>
      </trkpt>
      <trkpt lat="45.78048" lon="4.8092">
        <ele>171.8</ele>
        <time>2024-09-20T09:33:57Z</time>
      </trkpt>
      <trkpt lat="45.78046" lon="4.80919">
        <ele>171.8</ele>
        <time>2024-09-20T09:33:58Z</time>
      </trkpt>
      <trkpt lat="45.78044" lon="4.80918">
        <ele>171.8</ele>
        <time>2024-09-20T09:33:59Z</time>
      </trkpt>
      <trkpt lat="45.78042" lon="4.80916">
        <ele>171.8</ele>
        <time>2024-09-20T09:34:00Z</time>
      </trkpt>
      <trkpt lat="45.78039" lon="4.80913">
        <ele>171.8</ele>
        <time>2024-09-20T09:34:01Z</time>
      </trkpt>
      <trkpt lat="45.78036" lon="4.80911">
        <ele>171.8</ele>
        <time>2024-09-20T09:34:02Z</time>
      </trkpt>
      <trkpt lat="45.78033" lon="4.80908">
        <ele>171.8</ele>
        <time>2024-09-20T09:34:03Z</time>
      </trkpt>
      <trkpt lat="45.7803" lon="4.80905">
        <ele>171.6</ele>
        <time>2024-09-20T09:34:04Z</time>
      </trkpt>
      <trkpt lat="45.78026" lon="4.80903">
        <ele>171.6</ele>
        <time>2024-09-20T09:34:05Z</time>
      </trkpt>
      <trkpt lat="45.78022" lon="4.80901">
        <ele>171.6</ele>
        <time>2024-09-20T09:34:06Z</time>
      </trkpt>
      <trkpt lat="45.78018" lon="4.80899">
        <ele>171.6</ele>
        <time>2024-09-20T09:34:07Z</time>
      </trkpt>
      <trkpt lat="45.78014" lon="4.80897">
        <ele>171.6</ele>
        <time>2024-09-20T09:34:08Z</time>
      </trkpt>
      <trkpt lat="45.7801" lon="4.80894">
        <ele>171.6</ele>
        <time>2024-09-20T09:34:09Z</time>
      </trkpt>
      <trkpt lat="45.78005" lon="4.80891">
        <ele>171.6</ele>
        <time>2024-09-20T09:34:10Z</time>
      </trkpt>
      <trkpt lat="45.78001" lon="4.80889">
        <ele>171.6</ele>
        <time>2024-09-20T09:34:11Z</time>
      </trkpt>
      <trkpt lat="45.77997" lon="4.80886">
        <ele>171.6</ele>
        <time>2024-09-20T09:34:12Z</time>
      </trkpt>
      <trkpt lat="45.77992" lon="4.80884">
        <ele>171.2</ele>
        <time>2024-09-20T09:34:13Z</time>
      </trkpt>
      <trkpt lat="45.77988" lon="4.80882">
        <ele>171.2</ele>
        <time>2024-09-20T09:34:14Z</time>
      </trkpt>
      <trkpt lat="45.77984" lon="4.8088">
        <ele>171.2</ele>
        <time>2024-09-20T09:34:15Z</time>
      </trkpt>
      <trkpt lat="45.7798" lon="4.80879">
        <ele>171.2</ele>
        <time>2024-09-20T09:34:16Z</time>
      </trkpt>
      <trkpt lat="45.77975" lon="4.80876">
        <ele>171</ele>
        <time>2024-09-20T09:34:17Z</time>
      </trkpt>
      <trkpt lat="45.77971" lon="4.80874">
        <ele>170.8</ele>
        <time>2024-09-20T09:34:18Z</time>
      </trkpt>
      <trkpt lat="45.77967" lon="4.80872">
        <ele>170.8</ele>
        <time>2024-09-20T09:34:19Z</time>
      </trkpt>
      <trkpt lat="45.77963" lon="4.80869">
        <ele>170.8</ele>
        <time>2024-09-20T09:34:20Z</time>
      </trkpt>
      <trkpt lat="45.77959" lon="4.80867">
        <ele>170.8</ele>
        <time>2024-09-20T09:34:21Z</time>
      </trkpt>
      <trkpt lat="45.77955" lon="4.80864">
        <ele>170.6</ele>
        <time>2024-09-20T09:34:22Z</time>
      </trkpt>
      <trkpt lat="45.77951" lon="4.80861">
        <ele>170.6</ele>
        <time>2024-09-20T09:34:23Z</time>
      </trkpt>
      <trkpt lat="45.77946" lon="4.80859">
        <ele>170.6</ele>
        <time>2024-09-20T09:34:24Z</time>
      </trkpt>
      <trkpt lat="45.77941" lon="4.80856">
        <ele>170.6</ele>
        <time>2024-09-20T09:34:25Z</time>
      </trkpt>
      <trkpt lat="45.77937" lon="4.80853">
        <ele>170.6</ele>
        <time>2024-09-20T09:34:26Z</time>
      </trkpt>
      <trkpt lat="45.77932" lon="4.80849">
        <ele>170.8</ele>
        <time>2024-09-20T09:34:27Z</time>
      </trkpt>
      <trkpt lat="45.77928" lon="4.80846">
        <ele>170.8</ele>
        <time>2024-09-20T09:34:28Z</time>
      </trkpt>
      <trkpt lat="45.77923" lon="4.80843">
        <ele>170.8</ele>
        <time>2024-09-20T09:34:29Z</time>
      </trkpt>
      <trkpt lat="45.77918" lon="4.80839">
        <ele>170.6</ele>
        <time>2024-09-20T09:34:30Z</time>
      </trkpt>
      <trkpt lat="45.77914" lon="4.80837">
        <ele>170.6</ele>
        <time>2024-09-20T09:34:31Z</time>
      </trkpt>
      <trkpt lat="45.7791" lon="4.80833">
        <ele>170.6</ele>
        <time>2024-09-20T09:34:32Z</time>
      </trkpt>
      <trkpt lat="45.77906" lon="4.80829">
        <ele>170.6</ele>
        <time>2024-09-20T09:34:33Z</time>
      </trkpt>
      <trkpt lat="45.77902" lon="4.80827">
        <ele>170.6</ele>
        <time>2024-09-20T09:34:34Z</time>
      </trkpt>
      <trkpt lat="45.77897" lon="4.80825">
        <ele>170.6</ele>
        <time>2024-09-20T09:34:35Z</time>
      </trkpt>
      <trkpt lat="45.77894" lon="4.80822">
        <ele>170.6</ele>
        <time>2024-09-20T09:34:36Z</time>
      </trkpt>
      <trkpt lat="45.7789" lon="4.80819">
        <ele>170.6</ele>
        <time>2024-09-20T09:34:37Z</time>
      </trkpt>
      <trkpt lat="45.77886" lon="4.80816">
        <ele>170.6</ele>
        <time>2024-09-20T09:34:38Z</time>
      </trkpt>
      <trkpt lat="45.77881" lon="4.80813">
        <ele>170.6</ele>
        <time>2024-09-20T09:34:39Z</time>
      </trkpt>
      <trkpt lat="45.77877" lon="4.8081">
        <ele>170.6</ele>
        <time>2024-09-20T09:34:40Z</time>
      </trkpt>
      <trkpt lat="45.77872" lon="4.80807">
        <ele>170.8</ele>
        <time>2024-09-20T09:34:41Z</time>
      </trkpt>
      <trkpt lat="45.77867" lon="4.80805">
        <ele>170.8</ele>
        <time>2024-09-20T09:34:42Z</time>
      </trkpt>
      <trkpt lat="45.77863" lon="4.80803">
        <ele>170.8</ele>
        <time>2024-09-20T09:34:43Z</time>
      </trkpt>
      <trkpt lat="45.77858" lon="4.80801">
        <ele>170.8</ele>
        <time>2024-09-20T09:34:44Z</time>
      </trkpt>
      <trkpt lat="45.77854" lon="4.808">
        <ele>170.8</ele>
        <time>2024-09-20T09:34:45Z</time>
      </trkpt>
      <trkpt lat="45.77849" lon="4.80799">
        <ele>170.8</ele>
        <time>2024-09-20T09:34:46Z</time>
      </trkpt>
      <trkpt lat="45.77844" lon="4.80798">
        <ele>170.8</ele>
        <time>2024-09-20T09:34:47Z</time>
      </trkpt>
      <trkpt lat="45.77839" lon="4.80796">
        <ele>170.8</ele>
        <time>2024-09-20T09:34:48Z</time>
      </trkpt>
      <trkpt lat="45.77835" lon="4.80794">
        <ele>170.8</ele>
        <time>2024-09-20T09:34:49Z</time>
      </trkpt>
      <trkpt lat="45.77829" lon="4.80793">
        <ele>170.4</ele>
        <time>2024-09-20T09:34:50Z</time>
      </trkpt>
      <trkpt lat="45.77824" lon="4.80791">
        <ele>170.4</ele>
        <time>2024-09-20T09:34:51Z</time>
      </trkpt>
      <trkpt lat="45.77818" lon="4.80791">
        <ele>170.4</ele>
        <time>2024-09-20T09:34:52Z</time>
      </trkpt>
      <trkpt lat="45.77812" lon="4.80791">
        <ele>170.4</ele>
        <time>2024-09-20T09:34:53Z</time>
      </trkpt>
      <trkpt lat="45.77807" lon="4.80789">
        <ele>170.4</ele>
        <time>2024-09-20T09:34:54Z</time>
      </trkpt>
      <trkpt lat="45.77802" lon="4.80787">
        <ele>170.4</ele>
        <time>2024-09-20T09:34:55Z</time>
      </trkpt>
      <trkpt lat="45.77797" lon="4.80786">
        <ele>170.4</ele>
        <time>2024-09-20T09:34:56Z</time>
      </trkpt>
      <trkpt lat="45.77792" lon="4.80785">
        <ele>170.4</ele>
        <time>2024-09-20T09:34:57Z</time>
      </trkpt>
      <trkpt lat="45.77787" lon="4.80784">
        <ele>170.4</ele>
        <time>2024-09-20T09:34:58Z</time>
      </trkpt>
      <trkpt lat="45.77781" lon="4.80783">
        <ele>170.2</ele>
        <time>2024-09-20T09:34:59Z</time>
      </trkpt>
      <trkpt lat="45.77776" lon="4.80782">
        <ele>170.2</ele>
        <time>2024-09-20T09:35:00Z</time>
      </trkpt>
      <trkpt lat="45.77771" lon="4.80782">
        <ele>170.2</ele>
        <time>2024-09-20T09:35:01Z</time>
      </trkpt>
      <trkpt lat="45.77767" lon="4.8078">
        <ele>170.2</ele>
        <time>2024-09-20T09:35:02Z</time>
      </trkpt>
      <trkpt lat="45.77762" lon="4.8078">
        <ele>170.2</ele>
        <time>2024-09-20T09:35:03Z</time>
      </trkpt>
      <trkpt lat="45.77758" lon="4.80778">
        <ele>170.2</ele>
        <time>2024-09-20T09:35:04Z</time>
      </trkpt>
      <trkpt lat="45.77754" lon="4.80777">
        <ele>170.2</ele>
        <time>2024-09-20T09:35:05Z</time>
      </trkpt>
      <trkpt lat="45.77751" lon="4.80776">
        <ele>170.2</ele>
        <time>2024-09-20T09:35:06Z</time>
      </trkpt>
      <trkpt lat="45.77747" lon="4.80775">
        <ele>170</ele>
        <time>2024-09-20T09:35:07Z</time>
      </trkpt>
      <trkpt lat="45.77743" lon="4.80775">
        <ele>170</ele>
        <time>2024-09-20T09:35:08Z</time>
      </trkpt>
      <trkpt lat="45.7774" lon="4.80775">
        <ele>170</ele>
        <time>2024-09-20T09:35:09Z</time>
      </trkpt>
      <trkpt lat="45.77736" lon="4.80776">
        <ele>170</ele>
        <time>2024-09-20T09:35:10Z</time>
      </trkpt>
      <trkpt lat="45.77732" lon="4.80776">
        <ele>170</ele>
        <time>2024-09-20T09:35:11Z</time>
      </trkpt>
      <trkpt lat="45.77729" lon="4.80775">
        <ele>170.2</ele>
        <time>2024-09-20T09:35:12Z</time>
      </trkpt>
      <trkpt lat="45.77725" lon="4.80774">
        <ele>170.2</ele>
        <time>2024-09-20T09:35:13Z</time>
      </trkpt>
      <trkpt lat="45.77721" lon="4.80773">
        <ele>170.2</ele>
        <time>2024-09-20T09:35:14Z</time>
      </trkpt>
      <trkpt lat="45.77717" lon="4.80775">
        <ele>170.2</ele>
        <time>2024-09-20T09:35:15Z</time>
      </trkpt>
      <trkpt lat="45.77712" lon="4.80776">
        <ele>170.2</ele>
        <time>2024-09-20T09:35:16Z</time>
      </trkpt>
      <trkpt lat="45.77707" lon="4.80776">
        <ele>169.6</ele>
        <time>2024-09-20T09:35:17Z</time>
      </trkpt>
      <trkpt lat="45.77703" lon="4.80777">
        <ele>169.6</ele>
        <time>2024-09-20T09:35:18Z</time>
      </trkpt>
      <trkpt lat="45.77699" lon="4.80777">
        <ele>170.2</ele>
        <time>2024-09-20T09:35:19Z</time>
      </trkpt>
      <trkpt lat="45.77695" lon="4.80777">
        <ele>170.2</ele>
        <time>2024-09-20T09:35:20Z</time>
      </trkpt>
      <trkpt lat="45.77691" lon="4.80777">
        <ele>170.4</ele>
        <time>2024-09-20T09:35:21Z</time>
      </trkpt>
      <trkpt lat="45.77687" lon="4.80778">
        <ele>170.4</ele>
        <time>2024-09-20T09:35:22Z</time>
      </trkpt>
      <trkpt lat="45.77683" lon="4.80779">
        <ele>170.4</ele>
        <time>2024-09-20T09:35:23Z</time>
      </trkpt>
      <trkpt lat="45.77679" lon="4.8078">
        <ele>170.4</ele>
        <time>2024-09-20T09:35:24Z</time>
      </trkpt>
      <trkpt lat="45.77675" lon="4.80782">
        <ele>170.4</ele>
        <time>2024-09-20T09:35:25Z</time>
      </trkpt>
      <trkpt lat="45.7767" lon="4.80785">
        <ele>170.4</ele>
        <time>2024-09-20T09:35:26Z</time>
      </trkpt>
      <trkpt lat="45.77665" lon="4.80787">
        <ele>170.4</ele>
        <time>2024-09-20T09:35:27Z</time>
      </trkpt>
      <trkpt lat="45.7766" lon="4.8079">
        <ele>170.4</ele>
        <time>2024-09-20T09:35:28Z</time>
      </trkpt>
      <trkpt lat="45.77656" lon="4.80792">
        <ele>170.2</ele>
        <time>2024-09-20T09:35:29Z</time>
      </trkpt>
      <trkpt lat="45.77652" lon="4.80793">
        <ele>170.2</ele>
        <time>2024-09-20T09:35:30Z</time>
      </trkpt>
      <trkpt lat="45.77648" lon="4.80794">
        <ele>170.2</ele>
        <time>2024-09-20T09:35:31Z</time>
      </trkpt>
      <trkpt lat="45.77643" lon="4.80796">
        <ele>170.2</ele>
        <time>2024-09-20T09:35:32Z</time>
      </trkpt>
      <trkpt lat="45.77639" lon="4.80799">
        <ele>170.2</ele>
        <time>2024-09-20T09:35:33Z</time>
      </trkpt>
      <trkpt lat="45.77634" lon="4.808">
        <ele>170.4</ele>
        <time>2024-09-20T09:35:34Z</time>
      </trkpt>
      <trkpt lat="45.7763" lon="4.80802">
        <ele>170.6</ele>
        <time>2024-09-20T09:35:35Z</time>
      </trkpt>
      <trkpt lat="45.77625" lon="4.80803">
        <ele>170.6</ele>
        <time>2024-09-20T09:35:36Z</time>
      </trkpt>
      <trkpt lat="45.77621" lon="4.80804">
        <ele>170.6</ele>
        <time>2024-09-20T09:35:37Z</time>
      </trkpt>
      <trkpt lat="45.77616" lon="4.80806">
        <ele>170.6</ele>
        <time>2024-09-20T09:35:38Z</time>
      </trkpt>
      <trkpt lat="45.77612" lon="4.80806">
        <ele>170.8</ele>
        <time>2024-09-20T09:35:39Z</time>
      </trkpt>
      <trkpt lat="45.77608" lon="4.80806">
        <ele>170.8</ele>
        <time>2024-09-20T09:35:40Z</time>
      </trkpt>
      <trkpt lat="45.77604" lon="4.80807">
        <ele>170.8</ele>
        <time>2024-09-20T09:35:41Z</time>
      </trkpt>
      <trkpt lat="45.776" lon="4.80809">
        <ele>170.6</ele>
        <time>2024-09-20T09:35:42Z</time>
      </trkpt>
      <trkpt lat="45.77595" lon="4.8081">
        <ele>170.6</ele>
        <time>2024-09-20T09:35:43Z</time>
      </trkpt>
      <trkpt lat="45.77591" lon="4.80812">
        <ele>170.6</ele>
        <time>2024-09-20T09:35:44Z</time>
      </trkpt>
      <trkpt lat="45.77586" lon="4.80814">
        <ele>170.6</ele>
        <time>2024-09-20T09:35:45Z</time>
      </trkpt>
      <trkpt lat="45.77582" lon="4.80816">
        <ele>170.6</ele>
        <time>2024-09-20T09:35:46Z</time>
      </trkpt>
      <trkpt lat="45.77577" lon="4.80819">
        <ele>170.4</ele>
        <time>2024-09-20T09:35:47Z</time>
      </trkpt>
      <trkpt lat="45.77572" lon="4.80821">
        <ele>170.4</ele>
        <time>2024-09-20T09:35:48Z</time>
      </trkpt>
      <trkpt lat="45.77568" lon="4.80823">
        <ele>170.4</ele>
        <time>2024-09-20T09:35:49Z</time>
      </trkpt>
      <trkpt lat="45.77563" lon="4.80825">
        <ele>170.4</ele>
        <time>2024-09-20T09:35:50Z</time>
      </trkpt>
      <trkpt lat="45.77559" lon="4.80827">
        <ele>170.6</ele>
        <time>2024-09-20T09:35:51Z</time>
      </trkpt>
      <trkpt lat="45.77555" lon="4.80829">
        <ele>170.8</ele>
        <time>2024-09-20T09:35:52Z</time>
      </trkpt>
      <trkpt lat="45.77551" lon="4.8083">
        <ele>170.8</ele>
        <time>2024-09-20T09:35:53Z</time>
      </trkpt>
      <trkpt lat="45.77547" lon="4.80832">
        <ele>170.8</ele>
        <time>2024-09-20T09:35:54Z</time>
      </trkpt>
      <trkpt lat="45.77543" lon="4.80833">
        <ele>170.8</ele>
        <time>2024-09-20T09:35:55Z</time>
      </trkpt>
      <trkpt lat="45.77539" lon="4.80835">
        <ele>170.8</ele>
        <time>2024-09-20T09:35:56Z</time>
      </trkpt>
      <trkpt lat="45.77535" lon="4.80836">
        <ele>170.6</ele>
        <time>2024-09-20T09:35:57Z</time>
      </trkpt>
      <trkpt lat="45.77531" lon="4.80838">
        <ele>170.6</ele>
        <time>2024-09-20T09:35:58Z</time>
      </trkpt>
      <trkpt lat="45.77528" lon="4.8084">
        <ele>170.6</ele>
        <time>2024-09-20T09:35:59Z</time>
      </trkpt>
      <trkpt lat="45.77524" lon="4.80841">
        <ele>170.8</ele>
        <time>2024-09-20T09:36:00Z</time>
      </trkpt>
      <trkpt lat="45.7752" lon="4.80843">
        <ele>171</ele>
        <time>2024-09-20T09:36:01Z</time>
      </trkpt>
      <trkpt lat="45.77516" lon="4.80844">
        <ele>171</ele>
        <time>2024-09-20T09:36:02Z</time>
      </trkpt>
      <trkpt lat="45.77513" lon="4.80847">
        <ele>171</ele>
        <time>2024-09-20T09:36:03Z</time>
      </trkpt>
      <trkpt lat="45.7751" lon="4.8085">
        <ele>171.2</ele>
        <time>2024-09-20T09:36:04Z</time>
      </trkpt>
      <trkpt lat="45.77508" lon="4.80853">
        <ele>171.2</ele>
        <time>2024-09-20T09:36:05Z</time>
      </trkpt>
      <trkpt lat="45.77507" lon="4.80855">
        <ele>171.4</ele>
        <time>2024-09-20T09:36:06Z</time>
      </trkpt>
      <trkpt lat="45.77506" lon="4.80856">
        <ele>171.4</ele>
        <time>2024-09-20T09:36:07Z</time>
      </trkpt>
      <trkpt lat="45.77505" lon="4.80856">
        <ele>171.4</ele>
        <time>2024-09-20T09:36:08Z</time>
      </trkpt>
      <trkpt lat="45.77505" lon="4.80856">
        <ele>171.4</ele>
        <time>2024-09-20T09:36:09Z</time>
      </trkpt>
      <trkpt lat="45.77505" lon="4.80856">
        <ele>171.4</ele>
        <time>2024-09-20T09:36:10Z</time>
      </trkpt>
      <trkpt lat="45.775" lon="4.80863">
        <ele>171</ele>
        <time>2024-09-20T09:40:22Z</time>
      </trkpt>
      <trkpt lat="45.77498" lon="4.80863">
        <ele>171</ele>
        <time>2024-09-20T09:40:23Z</time>
      </trkpt>
      <trkpt lat="45.77495" lon="4.80862">
        <ele>171</ele>
        <time>2024-09-20T09:40:24Z</time>
      </trkpt>
      <trkpt lat="45.77493" lon="4.80862">
        <ele>171</ele>
        <time>2024-09-20T09:40:25Z</time>
      </trkpt>
      <trkpt lat="45.7749" lon="4.80862">
        <ele>171</ele>
        <time>2024-09-20T09:40:26Z</time>
      </trkpt>
      <trkpt lat="45.77489" lon="4.80861">
        <ele>171</ele>
        <time>2024-09-20T09:40:27Z</time>
      </trkpt>
      <trkpt lat="45.77488" lon="4.80858">
        <ele>171.2</ele>
        <time>2024-09-20T09:40:28Z</time>
      </trkpt>
      <trkpt lat="45.77488" lon="4.80855">
        <ele>171.2</ele>
        <time>2024-09-20T09:40:29Z</time>
      </trkpt>
      <trkpt lat="45.77489" lon="4.80851">
        <ele>171</ele>
        <time>2024-09-20T09:40:30Z</time>
      </trkpt>
      <trkpt lat="45.77489" lon="4.80848">
        <ele>171</ele>
        <time>2024-09-20T09:40:31Z</time>
      </trkpt>
      <trkpt lat="45.77489" lon="4.80844">
        <ele>171</ele>
        <time>2024-09-20T09:40:32Z</time>
      </trkpt>
      <trkpt lat="45.77488" lon="4.8084">
        <ele>170.8</ele>
        <time>2024-09-20T09:40:33Z</time>
      </trkpt>
      <trkpt lat="45.77488" lon="4.80837">
        <ele>170.4</ele>
        <time>2024-09-20T09:40:34Z</time>
      </trkpt>
      <trkpt lat="45.77486" lon="4.80834">
        <ele>170.4</ele>
        <time>2024-09-20T09:40:35Z</time>
      </trkpt>
      <trkpt lat="45.77484" lon="4.80833">
        <ele>170.4</ele>
        <time>2024-09-20T09:40:36Z</time>
      </trkpt>
      <trkpt lat="45.77482" lon="4.80834">
        <ele>170.6</ele>
        <time>2024-09-20T09:40:37Z</time>
      </trkpt>
      <trkpt lat="45.77479" lon="4.80835">
        <ele>170.4</ele>
        <time>2024-09-20T09:40:38Z</time>
      </trkpt>
      <trkpt lat="45.77476" lon="4.80836">
        <ele>170.4</ele>
        <time>2024-09-20T09:40:39Z</time>
      </trkpt>
      <trkpt lat="45.77473" lon="4.80838">
        <ele>170.4</ele>
        <time>2024-09-20T09:40:40Z</time>
      </trkpt>
      <trkpt lat="45.77469" lon="4.8084">
        <ele>170.4</ele>
        <time>2024-09-20T09:40:41Z</time>
      </trkpt>
      <trkpt lat="45.77466" lon="4.80843">
        <ele>170.4</ele>
        <time>2024-09-20T09:40:42Z</time>
      </trkpt>
      <trkpt lat="45.77463" lon="4.80845">
        <ele>170.2</ele>
        <time>2024-09-20T09:40:43Z</time>
      </trkpt>
      <trkpt lat="45.77459" lon="4.80848">
        <ele>170.2</ele>
        <time>2024-09-20T09:40:44Z</time>
      </trkpt>
      <trkpt lat="45.77455" lon="4.80851">
        <ele>170.2</ele>
        <time>2024-09-20T09:40:45Z</time>
      </trkpt>
      <trkpt lat="45.7745" lon="4.80853">
        <ele>170.2</ele>
        <time>2024-09-20T09:40:46Z</time>
      </trkpt>
      <trkpt lat="45.77446" lon="4.80857">
        <ele>170.4</ele>
        <time>2024-09-20T09:40:47Z</time>
      </trkpt>
      <trkpt lat="45.77441" lon="4.80861">
        <ele>170.4</ele>
        <time>2024-09-20T09:40:48Z</time>
      </trkpt>
      <trkpt lat="45.77437" lon="4.80864">
        <ele>170.4</ele>
        <time>2024-09-20T09:40:49Z</time>
      </trkpt>
      <trkpt lat="45.77433" lon="4.80867">
        <ele>170.4</ele>
        <time>2024-09-20T09:40:50Z</time>
      </trkpt>
      <trkpt lat="45.77429" lon="4.8087">
        <ele>170.2</ele>
        <time>2024-09-20T09:40:51Z</time>
      </trkpt>
      <trkpt lat="45.77425" lon="4.80874">
        <ele>170.2</ele>
        <time>2024-09-20T09:40:52Z</time>
      </trkpt>
      <trkpt lat="45.77421" lon="4.80878">
        <ele>170.2</ele>
        <time>2024-09-20T09:40:53Z</time>
      </trkpt>
      <trkpt lat="45.77417" lon="4.80881">
        <ele>170.2</ele>
        <time>2024-09-20T09:40:54Z</time>
      </trkpt>
      <trkpt lat="45.77413" lon="4.80885">
        <ele>170.2</ele>
        <time>2024-09-20T09:40:55Z</time>
      </trkpt>
      <trkpt lat="45.77411" lon="4.80888">
        <ele>170.2</ele>
        <time>2024-09-20T09:40:56Z</time>
      </trkpt>
      <trkpt lat="45.77408" lon="4.8089">
        <ele>170.2</ele>
        <time>2024-09-20T09:40:57Z</time>
      </trkpt>
      <trkpt lat="45.77406" lon="4.80892">
        <ele>170.2</ele>
        <time>2024-09-20T09:40:58Z</time>
      </trkpt>
      <trkpt lat="45.77404" lon="4.80893">
        <ele>170.2</ele>
        <time>2024-09-20T09:40:59Z</time>
      </trkpt>
      <trkpt lat="45.77403" lon="4.80894">
        <ele>170.2</ele>
        <time>2024-09-20T09:41:00Z</time>
      </trkpt>
      <trkpt lat="45.774" lon="4.80894">
        <ele>170</ele>
        <time>2024-09-20T09:41:01Z</time>
      </trkpt>
      <trkpt lat="45.77399" lon="4.80893">
        <ele>170</ele>
        <time>2024-09-20T09:41:02Z</time>
      </trkpt>
      <trkpt lat="45.77397" lon="4.80892">
        <ele>170</ele>
        <time>2024-09-20T09:41:03Z</time>
      </trkpt>
      <trkpt lat="45.77395" lon="4.8089">
        <ele>170</ele>
        <time>2024-09-20T09:41:04Z</time>
      </trkpt>
      <trkpt lat="45.77393" lon="4.80888">
        <ele>170</ele>
        <time>2024-09-20T09:41:05Z</time>
      </trkpt>
      <trkpt lat="45.77392" lon="4.80886">
        <ele>169.6</ele>
        <time>2024-09-20T09:41:06Z</time>
      </trkpt>
      <trkpt lat="45.7739" lon="4.80884">
        <ele>169.6</ele>
        <time>2024-09-20T09:41:07Z</time>
      </trkpt>
      <trkpt lat="45.77388" lon="4.80882">
        <ele>169.6</ele>
        <time>2024-09-20T09:41:08Z</time>
      </trkpt>
      <trkpt lat="45.77386" lon="4.80881">
        <ele>169.4</ele>
        <time>2024-09-20T09:41:09Z</time>
      </trkpt>
      <trkpt lat="45.77385" lon="4.80879">
        <ele>169.2</ele>
        <time>2024-09-20T09:41:10Z</time>
      </trkpt>
      <trkpt lat="45.77383" lon="4.80877">
        <ele>169.2</ele>
        <time>2024-09-20T09:41:11Z</time>
      </trkpt>
      <trkpt lat="45.7738" lon="4.80875">
        <ele>169.2</ele>
        <time>2024-09-20T09:41:12Z</time>
      </trkpt>
      <trkpt lat="45.77378" lon="4.80874">
        <ele>169.2</ele>
        <time>2024-09-20T09:41:13Z</time>
      </trkpt>
      <trkpt lat="45.77377" lon="4.80873">
        <ele>169.4</ele>
        <time>2024-09-20T09:41:14Z</time>
      </trkpt>
      <trkpt lat="45.77376" lon="4.80871">
        <ele>169.4</ele>
        <time>2024-09-20T09:41:15Z</time>
      </trkpt>
      <trkpt lat="45.77375" lon="4.80869">
        <ele>169.4</ele>
        <time>2024-09-20T09:41:16Z</time>
      </trkpt>
      <trkpt lat="45.77374" lon="4.80866">
        <ele>169.4</ele>
        <time>2024-09-20T09:41:17Z</time>
      </trkpt>
      <trkpt lat="45.77373" lon="4.80863">
        <ele>169.4</ele>
        <time>2024-09-20T09:41:18Z</time>
      </trkpt>
      <trkpt lat="45.77371" lon="4.8086">
        <ele>169.4</ele>
        <time>2024-09-20T09:41:19Z</time>
      </trkpt>
      <trkpt lat="45.77369" lon="4.80857">
        <ele>169.4</ele>
        <time>2024-09-20T09:41:20Z</time>
      </trkpt>
      <trkpt lat="45.77367" lon="4.80853">
        <ele>169.4</ele>
        <time>2024-09-20T09:41:21Z</time>
      </trkpt>
      <trkpt lat="45.77365" lon="4.8085">
        <ele>169.6</ele>
        <time>2024-09-20T09:41:22Z</time>
      </trkpt>
      <trkpt lat="45.77363" lon="4.80845">
        <ele>169.6</ele>
        <time>2024-09-20T09:41:23Z</time>
      </trkpt>
      <trkpt lat="45.7736" lon="4.80841">
        <ele>169.6</ele>
        <time>2024-09-20T09:41:24Z</time>
      </trkpt>
      <trkpt lat="45.77358" lon="4.80837">
        <ele>169.6</ele>
        <time>2024-09-20T09:41:25Z</time>
      </trkpt>
      <trkpt lat="45.77355" lon="4.80832">
        <ele>169.6</ele>
        <time>2024-09-20T09:41:26Z</time>
      </trkpt>
      <trkpt lat="45.77353" lon="4.80828">
        <ele>169.6</ele>
        <time>2024-09-20T09:41:27Z</time>
      </trkpt>
      <trkpt lat="45.7735" lon="4.80825">
        <ele>170</ele>
        <time>2024-09-20T09:41:28Z</time>
      </trkpt>
      <trkpt lat="45.77348" lon="4.80821">
        <ele>170</ele>
        <time>2024-09-20T09:41:29Z</time>
      </trkpt>
      <trkpt lat="45.77346" lon="4.80817">
        <ele>170</ele>
        <time>2024-09-20T09:41:30Z</time>
      </trkpt>
      <trkpt lat="45.77343" lon="4.80813">
        <ele>170.4</ele>
        <time>2024-09-20T09:41:31Z</time>
      </trkpt>
      <trkpt lat="45.77341" lon="4.80809">
        <ele>170.6</ele>
        <time>2024-09-20T09:41:32Z</time>
      </trkpt>
      <trkpt lat="45.77339" lon="4.80806">
        <ele>170.6</ele>
        <time>2024-09-20T09:41:33Z</time>
      </trkpt>
      <trkpt lat="45.77336" lon="4.80802">
        <ele>170.6</ele>
        <time>2024-09-20T09:41:34Z</time>
      </trkpt>
      <trkpt lat="45.77333" lon="4.80798">
        <ele>170.6</ele>
        <time>2024-09-20T09:41:35Z</time>
      </trkpt>
      <trkpt lat="45.77331" lon="4.80795">
        <ele>170.6</ele>
        <time>2024-09-20T09:41:36Z</time>
      </trkpt>
      <trkpt lat="45.77329" lon="4.8079">
        <ele>170.6</ele>
        <time>2024-09-20T09:41:37Z</time>
      </trkpt>
      <trkpt lat="45.77326" lon="4.80785">
        <ele>170.6</ele>
        <time>2024-09-20T09:41:38Z</time>
      </trkpt>
      <trkpt lat="45.77323" lon="4.80781">
        <ele>170.6</ele>
        <time>2024-09-20T09:41:39Z</time>
      </trkpt>
      <trkpt lat="45.77321" lon="4.80777">
        <ele>170.6</ele>
        <time>2024-09-20T09:41:40Z</time>
      </trkpt>
      <trkpt lat="45.77319" lon="4.80775">
        <ele>170.6</ele>
        <time>2024-09-20T09:41:41Z</time>
      </trkpt>
      <trkpt lat="45.77319" lon="4.80772">
        <ele>170.8</ele>
        <time>2024-09-20T09:41:42Z</time>
      </trkpt>
      <trkpt lat="45.77318" lon="4.80771">
        <ele>170.8</ele>
        <time>2024-09-20T09:41:43Z</time>
      </trkpt>
      <trkpt lat="45.77318" lon="4.8077">
        <ele>170.8</ele>
        <time>2024-09-20T09:41:44Z</time>
      </trkpt>
      <trkpt lat="45.77318" lon="4.8077">
        <ele>170.8</ele>
        <time>2024-09-20T09:41:45Z</time>
      </trkpt>
      <trkpt lat="45.77319" lon="4.80772">
        <ele>170.6</ele>
        <time>2024-09-20T09:41:54Z</time>
      </trkpt>
      <trkpt lat="45.7732" lon="4.80774">
        <ele>170.6</ele>
        <time>2024-09-20T09:41:55Z</time>
      </trkpt>
      <trkpt lat="45.77321" lon="4.80777">
        <ele>170.6</ele>
        <time>2024-09-20T09:41:56Z</time>
      </trkpt>
      <trkpt lat="45.77323" lon="4.8078">
        <ele>170.6</ele>
        <time>2024-09-20T09:41:57Z</time>
      </trkpt>
      <trkpt lat="45.77324" lon="4.80782">
        <ele>170.6</ele>
        <time>2024-09-20T09:41:58Z</time>
      </trkpt>
      <trkpt lat="45.77326" lon="4.80785">
        <ele>170.6</ele>
        <time>2024-09-20T09:41:59Z</time>
      </trkpt>
      <trkpt lat="45.77328" lon="4.80788">
        <ele>170.8</ele>
        <time>2024-09-20T09:42:00Z</time>
      </trkpt>
      <trkpt lat="45.7733" lon="4.80791">
        <ele>170.8</ele>
        <time>2024-09-20T09:42:01Z</time>
      </trkpt>
      <trkpt lat="45.77331" lon="4.80794">
        <ele>170.8</ele>
        <time>2024-09-20T09:42:02Z</time>
      </trkpt>
      <trkpt lat="45.77332" lon="4.80797">
        <ele>170.8</ele>
        <time>2024-09-20T09:42:03Z</time>
      </trkpt>
      <trkpt lat="45.77334" lon="4.80799">
        <ele>171.2</ele>
        <time>2024-09-20T09:42:04Z</time>
      </trkpt>
      <trkpt lat="45.77336" lon="4.80801">
        <ele>171.2</ele>
        <time>2024-09-20T09:42:05Z</time>
      </trkpt>
      <trkpt lat="45.77339" lon="4.80803">
        <ele>171.2</ele>
        <time>2024-09-20T09:42:06Z</time>
      </trkpt>
      <trkpt lat="45.77342" lon="4.80807">
        <ele>171.2</ele>
        <time>2024-09-20T09:42:07Z</time>
      </trkpt>
      <trkpt lat="45.77344" lon="4.8081">
        <ele>170.8</ele>
        <time>2024-09-20T09:42:08Z</time>
      </trkpt>
      <trkpt lat="45.77347" lon="4.80815">
        <ele>170.8</ele>
        <time>2024-09-20T09:42:09Z</time>
      </trkpt>
      <trkpt lat="45.7735" lon="4.8082">
        <ele>170.8</ele>
        <time>2024-09-20T09:42:10Z</time>
      </trkpt>
      <trkpt lat="45.77352" lon="4.80826">
        <ele>170.8</ele>
        <time>2024-09-20T09:42:11Z</time>
      </trkpt>
      <trkpt lat="45.77355" lon="4.80831">
        <ele>170.4</ele>
        <time>2024-09-20T09:42:12Z</time>
      </trkpt>
      <trkpt lat="45.77357" lon="4.80837">
        <ele>170.6</ele>
        <time>2024-09-20T09:42:13Z</time>
      </trkpt>
      <trkpt lat="45.7736" lon="4.80843">
        <ele>170.6</ele>
        <time>2024-09-20T09:42:14Z</time>
      </trkpt>
      <trkpt lat="45.77362" lon="4.80849">
        <ele>170.6</ele>
        <time>2024-09-20T09:42:15Z</time>
      </trkpt>
      <trkpt lat="45.77365" lon="4.80854">
        <ele>170.4</ele>
        <time>2024-09-20T09:42:16Z</time>
      </trkpt>
      <trkpt lat="45.77368" lon="4.8086">
        <ele>170.4</ele>
        <time>2024-09-20T09:42:17Z</time>
      </trkpt>
      <trkpt lat="45.7737" lon="4.80866">
        <ele>170</ele>
        <time>2024-09-20T09:42:18Z</time>
      </trkpt>
      <trkpt lat="45.77373" lon="4.80872">
        <ele>170</ele>
        <time>2024-09-20T09:42:19Z</time>
      </trkpt>
      <trkpt lat="45.77375" lon="4.80876">
        <ele>170.2</ele>
        <time>2024-09-20T09:42:20Z</time>
      </trkpt>
      <trkpt lat="45.77376" lon="4.80882">
        <ele>170.2</ele>
        <time>2024-09-20T09:42:21Z</time>
      </trkpt>
      <trkpt lat="45.77375" lon="4.80887">
        <ele>170.2</ele>
        <time>2024-09-20T09:42:22Z</time>
      </trkpt>
      <trkpt lat="45.77373" lon="4.80893">
        <ele>170.2</ele>
        <time>2024-09-20T09:42:23Z</time>
      </trkpt>
      <trkpt lat="45.77371" lon="4.80898">
        <ele>170.2</ele>
        <time>2024-09-20T09:42:24Z</time>
      </trkpt>
      <trkpt lat="45.77368" lon="4.80903">
        <ele>170.2</ele>
        <time>2024-09-20T09:42:25Z</time>
      </trkpt>
      <trkpt lat="45.77366" lon="4.80908">
        <ele>170.2</ele>
        <time>2024-09-20T09:42:26Z</time>
      </trkpt>
      <trkpt lat="45.77364" lon="4.80912">
        <ele>170.6</ele>
        <time>2024-09-20T09:42:27Z</time>
      </trkpt>
      <trkpt lat="45.77362" lon="4.80916">
        <ele>170.6</ele>
        <time>2024-09-20T09:42:28Z</time>
      </trkpt>
      <trkpt lat="45.77361" lon="4.8092">
        <ele>170.6</ele>
        <time>2024-09-20T09:42:29Z</time>
      </trkpt>
      <trkpt lat="45.77359" lon="4.80924">
        <ele>170.8</ele>
        <time>2024-09-20T09:42:30Z</time>
      </trkpt>
      <trkpt lat="45.77358" lon="4.80929">
        <ele>170.8</ele>
        <time>2024-09-20T09:42:31Z</time>
      </trkpt>
      <trkpt lat="45.77355" lon="4.80933">
        <ele>170.8</ele>
        <time>2024-09-20T09:42:32Z</time>
      </trkpt>
      <trkpt lat="45.77353" lon="4.80938">
        <ele>170.8</ele>
        <time>2024-09-20T09:42:33Z</time>
      </trkpt>
      <trkpt lat="45.77351" lon="4.80942">
        <ele>171</ele>
        <time>2024-09-20T09:42:34Z</time>
      </trkpt>
      <trkpt lat="45.77348" lon="4.80946">
        <ele>170.8</ele>
        <time>2024-09-20T09:42:35Z</time>
      </trkpt>
      <trkpt lat="45.77345" lon="4.8095">
        <ele>170.8</ele>
        <time>2024-09-20T09:42:36Z</time>
      </trkpt>
      <trkpt lat="45.77343" lon="4.80954">
        <ele>170.8</ele>
        <time>2024-09-20T09:42:37Z</time>
      </trkpt>
      <trkpt lat="45.77341" lon="4.8096">
        <ele>170.8</ele>
        <time>2024-09-20T09:42:38Z</time>
      </trkpt>
      <trkpt lat="45.77338" lon="4.80964">
        <ele>170.8</ele>
        <time>2024-09-20T09:42:39Z</time>
      </trkpt>
      <trkpt lat="45.77336" lon="4.80969">
        <ele>171</ele>
        <time>2024-09-20T09:42:40Z</time>
      </trkpt>
      <trkpt lat="45.77333" lon="4.80974">
        <ele>171</ele>
        <time>2024-09-20T09:42:41Z</time>
      </trkpt>
      <trkpt lat="45.77331" lon="4.80978">
        <ele>171</ele>
        <time>2024-09-20T09:42:42Z</time>
      </trkpt>
      <trkpt lat="45.77329" lon="4.80983">
        <ele>171.6</ele>
        <time>2024-09-20T09:42:43Z</time>
      </trkpt>
      <trkpt lat="45.77327" lon="4.80988">
        <ele>171.6</ele>
        <time>2024-09-20T09:42:44Z</time>
      </trkpt>
      <trkpt lat="45.77324" lon="4.80992">
        <ele>171.6</ele>
        <time>2024-09-20T09:42:45Z</time>
      </trkpt>
      <trkpt lat="45.77321" lon="4.80996">
        <ele>171.6</ele>
        <time>2024-09-20T09:42:46Z</time>
      </trkpt>
      <trkpt lat="45.77318" lon="4.81">
        <ele>171.6</ele>
        <time>2024-09-20T09:42:47Z</time>
      </trkpt>
      <trkpt lat="45.77315" lon="4.81004">
        <ele>171.6</ele>
        <time>2024-09-20T09:42:48Z</time>
      </trkpt>
      <trkpt lat="45.77312" lon="4.81007">
        <ele>171.8</ele>
        <time>2024-09-20T09:42:49Z</time>
      </trkpt>
      <trkpt lat="45.77308" lon="4.81011">
        <ele>171.8</ele>
        <time>2024-09-20T09:42:50Z</time>
      </trkpt>
      <trkpt lat="45.77305" lon="4.81014">
        <ele>171.8</ele>
        <time>2024-09-20T09:42:51Z</time>
      </trkpt>
      <trkpt lat="45.77301" lon="4.81019">
        <ele>171.8</ele>
        <time>2024-09-20T09:42:52Z</time>
      </trkpt>
      <trkpt lat="45.77298" lon="4.81022">
        <ele>172.4</ele>
        <time>2024-09-20T09:42:53Z</time>
      </trkpt>
      <trkpt lat="45.77294" lon="4.81026">
        <ele>172.4</ele>
        <time>2024-09-20T09:42:54Z</time>
      </trkpt>
      <trkpt lat="45.77291" lon="4.8103">
        <ele>172.4</ele>
        <time>2024-09-20T09:42:55Z</time>
      </trkpt>
      <trkpt lat="45.77287" lon="4.81034">
        <ele>171.8</ele>
        <time>2024-09-20T09:42:56Z</time>
      </trkpt>
      <trkpt lat="45.77283" lon="4.81038">
        <ele>171.8</ele>
        <time>2024-09-20T09:42:57Z</time>
      </trkpt>
      <trkpt lat="45.7728" lon="4.81042">
        <ele>171.8</ele>
        <time>2024-09-20T09:42:58Z</time>
      </trkpt>
      <trkpt lat="45.77276" lon="4.81045">
        <ele>171.8</ele>
        <time>2024-09-20T09:42:59Z</time>
      </trkpt>
      <trkpt lat="45.77272" lon="4.81049">
        <ele>171.8</ele>
        <time>2024-09-20T09:43:00Z</time>
      </trkpt>
      <trkpt lat="45.77268" lon="4.81053">
        <ele>171.8</ele>
        <time>2024-09-20T09:43:01Z</time>
      </trkpt>
      <trkpt lat="45.77264" lon="4.81058">
        <ele>171.8</ele>
        <time>2024-09-20T09:43:02Z</time>
      </trkpt>
      <trkpt lat="45.7726" lon="4.81062">
        <ele>171.8</ele>
        <time>2024-09-20T09:43:03Z</time>
      </trkpt>
      <trkpt lat="45.77256" lon="4.81066">
        <ele>171.8</ele>
        <time>2024-09-20T09:43:04Z</time>
      </trkpt>
      <trkpt lat="45.77252" lon="4.8107">
        <ele>171.6</ele>
        <time>2024-09-20T09:43:05Z</time>
      </trkpt>
      <trkpt lat="45.77249" lon="4.81075">
        <ele>171.6</ele>
        <time>2024-09-20T09:43:06Z</time>
      </trkpt>
      <trkpt lat="45.77245" lon="4.81079">
        <ele>171.6</ele>
        <time>2024-09-20T09:43:07Z</time>
      </trkpt>
      <trkpt lat="45.77241" lon="4.81084">
        <ele>171.6</ele>
        <time>2024-09-20T09:43:08Z</time>
      </trkpt>
      <trkpt lat="45.77237" lon="4.81088">
        <ele>171.6</ele>
        <time>2024-09-20T09:43:09Z</time>
      </trkpt>
      <trkpt lat="45.77233" lon="4.81093">
        <ele>171.6</ele>
        <time>2024-09-20T09:43:10Z</time>
      </trkpt>
      <trkpt lat="45.77229" lon="4.81097">
        <ele>171.6</ele>
        <time>2024-09-20T09:43:11Z</time>
      </trkpt>
      <trkpt lat="45.77225" lon="4.81102">
        <ele>171.4</ele>
        <time>2024-09-20T09:43:12Z</time>
      </trkpt>
      <trkpt lat="45.77221" lon="4.81107">
        <ele>171.4</ele>
        <time>2024-09-20T09:43:13Z</time>
      </trkpt>
      <trkpt lat="45.77217" lon="4.81111">
        <ele>171.4</ele>
        <time>2024-09-20T09:43:14Z</time>
      </trkpt>
      <trkpt lat="45.77213" lon="4.81115">
        <ele>171.4</ele>
        <time>2024-09-20T09:43:15Z</time>
      </trkpt>
      <trkpt lat="45.77209" lon="4.8112">
        <ele>171.2</ele>
        <time>2024-09-20T09:43:16Z</time>
      </trkpt>
      <trkpt lat="45.77206" lon="4.81124">
        <ele>171.2</ele>
        <time>2024-09-20T09:43:17Z</time>
      </trkpt>
      <trkpt lat="45.77202" lon="4.81129">
        <ele>171.2</ele>
        <time>2024-09-20T09:43:18Z</time>
      </trkpt>
      <trkpt lat="45.77197" lon="4.81131">
        <ele>171.2</ele>
        <time>2024-09-20T09:43:19Z</time>
      </trkpt>
      <trkpt lat="45.77193" lon="4.81134">
        <ele>171</ele>
        <time>2024-09-20T09:43:20Z</time>
      </trkpt>
      <trkpt lat="45.77188" lon="4.81136">
        <ele>171</ele>
        <time>2024-09-20T09:43:21Z</time>
      </trkpt>
      <trkpt lat="45.77184" lon="4.81139">
        <ele>171</ele>
        <time>2024-09-20T09:43:22Z</time>
      </trkpt>
      <trkpt lat="45.7718" lon="4.81142">
        <ele>171</ele>
        <time>2024-09-20T09:43:23Z</time>
      </trkpt>
      <trkpt lat="45.77176" lon="4.81144">
        <ele>170.8</ele>
        <time>2024-09-20T09:43:24Z</time>
      </trkpt>
      <trkpt lat="45.77171" lon="4.81147">
        <ele>170.6</ele>
        <time>2024-09-20T09:43:25Z</time>
      </trkpt>
      <trkpt lat="45.77166" lon="4.81151">
        <ele>170.6</ele>
        <time>2024-09-20T09:43:26Z</time>
      </trkpt>
      <trkpt lat="45.77161" lon="4.81155">
        <ele>170.6</ele>
        <time>2024-09-20T09:43:27Z</time>
      </trkpt>
      <trkpt lat="45.77157" lon="4.81158">
        <ele>170.4</ele>
        <time>2024-09-20T09:43:28Z</time>
      </trkpt>
      <trkpt lat="45.77151" lon="4.8116">
        <ele>170.4</ele>
        <time>2024-09-20T09:43:29Z</time>
      </trkpt>
      <trkpt lat="45.77146" lon="4.81163">
        <ele>170.4</ele>
        <time>2024-09-20T09:43:30Z</time>
      </trkpt>
      <trkpt lat="45.77142" lon="4.81165">
        <ele>170.4</ele>
        <time>2024-09-20T09:43:31Z</time>
      </trkpt>
      <trkpt lat="45.77137" lon="4.81167">
        <ele>170.4</ele>
        <time>2024-09-20T09:43:32Z</time>
      </trkpt>
      <trkpt lat="45.77132" lon="4.8117">
        <ele>170.4</ele>
        <time>2024-09-20T09:43:33Z</time>
      </trkpt>
      <trkpt lat="45.77127" lon="4.81172">
        <ele>170.2</ele>
        <time>2024-09-20T09:43:34Z</time>
      </trkpt>
      <trkpt lat="45.77122" lon="4.81175">
        <ele>170.2</ele>
        <time>2024-09-20T09:43:35Z</time>
      </trkpt>
      <trkpt lat="45.77117" lon="4.81177">
        <ele>170.2</ele>
        <time>2024-09-20T09:43:36Z</time>
      </trkpt>
      <trkpt lat="45.77112" lon="4.81179">
        <ele>170.4</ele>
        <time>2024-09-20T09:43:37Z</time>
      </trkpt>
      <trkpt lat="45.77107" lon="4.81181">
        <ele>170.2</ele>
        <time>2024-09-20T09:43:38Z</time>
      </trkpt>
      <trkpt lat="45.77102" lon="4.81183">
        <ele>170.2</ele>
        <time>2024-09-20T09:43:39Z</time>
      </trkpt>
      <trkpt lat="45.77097" lon="4.81186">
        <ele>170.2</ele>
        <time>2024-09-20T09:43:40Z</time>
      </trkpt>
      <trkpt lat="45.77092" lon="4.81189">
        <ele>170.2</ele>
        <time>2024-09-20T09:43:41Z</time>
      </trkpt>
      <trkpt lat="45.77087" lon="4.81192">
        <ele>170.6</ele>
        <time>2024-09-20T09:43:42Z</time>
      </trkpt>
      <trkpt lat="45.77082" lon="4.81196">
        <ele>170.6</ele>
        <time>2024-09-20T09:43:43Z</time>
      </trkpt>
      <trkpt lat="45.77076" lon="4.812">
        <ele>170.6</ele>
        <time>2024-09-20T09:43:44Z</time>
      </trkpt>
      <trkpt lat="45.77071" lon="4.81203">
        <ele>170.6</ele>
        <time>2024-09-20T09:43:45Z</time>
      </trkpt>
      <trkpt lat="45.77067" lon="4.81206">
        <ele>170.6</ele>
        <time>2024-09-20T09:43:46Z</time>
      </trkpt>
      <trkpt lat="45.77062" lon="4.81208">
        <ele>170.6</ele>
        <time>2024-09-20T09:43:47Z</time>
      </trkpt>
      <trkpt lat="45.77057" lon="4.81211">
        <ele>170.6</ele>
        <time>2024-09-20T09:43:48Z</time>
      </trkpt>
      <trkpt lat="45.77053" lon="4.81212">
        <ele>170.6</ele>
        <time>2024-09-20T09:43:49Z</time>
      </trkpt>
      <trkpt lat="45.77048" lon="4.81215">
        <ele>170.6</ele>
        <time>2024-09-20T09:43:50Z</time>
      </trkpt>
      <trkpt lat="45.77043" lon="4.81217">
        <ele>170.6</ele>
        <time>2024-09-20T09:43:51Z</time>
      </trkpt>
      <trkpt lat="45.77039" lon="4.81219">
        <ele>170.6</ele>
        <time>2024-09-20T09:43:52Z</time>
      </trkpt>
      <trkpt lat="45.77035" lon="4.81221">
        <ele>171</ele>
        <time>2024-09-20T09:43:53Z</time>
      </trkpt>
      <trkpt lat="45.77031" lon="4.81223">
        <ele>171</ele>
        <time>2024-09-20T09:43:54Z</time>
      </trkpt>
      <trkpt lat="45.77027" lon="4.81225">
        <ele>171</ele>
        <time>2024-09-20T09:43:55Z</time>
      </trkpt>
      <trkpt lat="45.77024" lon="4.81227">
        <ele>171</ele>
        <time>2024-09-20T09:43:56Z</time>
      </trkpt>
      <trkpt lat="45.7702" lon="4.81229">
        <ele>171</ele>
        <time>2024-09-20T09:43:57Z</time>
      </trkpt>
      <trkpt lat="45.77017" lon="4.8123">
        <ele>171</ele>
        <time>2024-09-20T09:43:58Z</time>
      </trkpt>
      <trkpt lat="45.77014" lon="4.81232">
        <ele>171</ele>
        <time>2024-09-20T09:43:59Z</time>
      </trkpt>
      <trkpt lat="45.77012" lon="4.81233">
        <ele>171</ele>
        <time>2024-09-20T09:44:00Z</time>
      </trkpt>
      <trkpt lat="45.7701" lon="4.81234">
        <ele>171.2</ele>
        <time>2024-09-20T09:44:01Z</time>
      </trkpt>
      <trkpt lat="45.77009" lon="4.81234">
        <ele>171.2</ele>
        <time>2024-09-20T09:44:02Z</time>
      </trkpt>
      <trkpt lat="45.77009" lon="4.81235">
        <ele>171.2</ele>
        <time>2024-09-20T09:44:03Z</time>
      </trkpt>
      <trkpt lat="45.77009" lon="4.81236">
        <ele>171.2</ele>
        <time>2024-09-20T09:44:04Z</time>
      </trkpt>
      <trkpt lat="45.77009" lon="4.81236">
        <ele>171.2</ele>
        <time>2024-09-20T09:44:05Z</time>
      </trkpt>
      <trkpt lat="45.77007" lon="4.8124">
        <ele>171</ele>
        <time>2024-09-20T09:44:39Z</time>
      </trkpt>
      <trkpt lat="45.77004" lon="4.8124">
        <ele>171</ele>
        <time>2024-09-20T09:44:40Z</time>
      </trkpt>
      <trkpt lat="45.77002" lon="4.81242">
        <ele>171</ele>
        <time>2024-09-20T09:44:41Z</time>
      </trkpt>
      <trkpt lat="45.76999" lon="4.81244">
        <ele>171</ele>
        <time>2024-09-20T09:44:42Z</time>
      </trkpt>
      <trkpt lat="45.76997" lon="4.81246">
        <ele>171</ele>
        <time>2024-09-20T09:44:43Z</time>
      </trkpt>
      <trkpt lat="45.76995" lon="4.81249">
        <ele>171</ele>
        <time>2024-09-20T09:44:44Z</time>
      </trkpt>
      <trkpt lat="45.76994" lon="4.81252">
        <ele>171</ele>
        <time>2024-09-20T09:44:45Z</time>
      </trkpt>
      <trkpt lat="45.76993" lon="4.81257">
        <ele>171</ele>
        <time>2024-09-20T09:44:46Z</time>
      </trkpt>
      <trkpt lat="45.76993" lon="4.81261">
        <ele>171.6</ele>
        <time>2024-09-20T09:44:47Z</time>
      </trkpt>
      <trkpt lat="45.76992" lon="4.81264">
        <ele>171.8</ele>
        <time>2024-09-20T09:44:48Z</time>
      </trkpt>
      <trkpt lat="45.76989" lon="4.81268">
        <ele>171.8</ele>
        <time>2024-09-20T09:44:49Z</time>
      </trkpt>
      <trkpt lat="45.76987" lon="4.8127">
        <ele>171.8</ele>
        <time>2024-09-20T09:44:50Z</time>
      </trkpt>
      <trkpt lat="45.76985" lon="4.8127">
        <ele>171.8</ele>
        <time>2024-09-20T09:44:51Z</time>
      </trkpt>
      <trkpt lat="45.76982" lon="4.8127">
        <ele>172</ele>
        <time>2024-09-20T09:44:52Z</time>
      </trkpt>
      <trkpt lat="45.76979" lon="4.8127">
        <ele>172</ele>
        <time>2024-09-20T09:44:53Z</time>
      </trkpt>
      <trkpt lat="45.76976" lon="4.81271">
        <ele>172</ele>
        <time>2024-09-20T09:44:54Z</time>
      </trkpt>
      <trkpt lat="45.76974" lon="4.81272">
        <ele>172</ele>
        <time>2024-09-20T09:44:55Z</time>
      </trkpt>
      <trkpt lat="45.76971" lon="4.81273">
        <ele>172</ele>
        <time>2024-09-20T09:44:56Z</time>
      </trkpt>
      <trkpt lat="45.76968" lon="4.81274">
        <ele>172.2</ele>
        <time>2024-09-20T09:44:57Z</time>
      </trkpt>
      <trkpt lat="45.76965" lon="4.81274">
        <ele>172</ele>
        <time>2024-09-20T09:44:58Z</time>
      </trkpt>
      <trkpt lat="45.76962" lon="4.81273">
        <ele>172</ele>
        <time>2024-09-20T09:44:59Z</time>
      </trkpt>
      <trkpt lat="45.76958" lon="4.81274">
        <ele>172</ele>
        <time>2024-09-20T09:45:00Z</time>
      </trkpt>
      <trkpt lat="45.76955" lon="4.81274">
        <ele>172</ele>
        <time>2024-09-20T09:45:01Z</time>
      </trkpt>
      <trkpt lat="45.76951" lon="4.81274">
        <ele>172.2</ele>
        <time>2024-09-20T09:45:02Z</time>
      </trkpt>
      <trkpt lat="45.76947" lon="4.81275">
        <ele>172.2</ele>
        <time>2024-09-20T09:45:03Z</time>
      </trkpt>
      <trkpt lat="45.76943" lon="4.81275">
        <ele>172.2</ele>
        <time>2024-09-20T09:45:04Z</time>
      </trkpt>
      <trkpt lat="45.76939" lon="4.81276">
        <ele>172.2</ele>
        <time>2024-09-20T09:45:05Z</time>
      </trkpt>
      <trkpt lat="45.76934" lon="4.81276">
        <ele>171.8</ele>
        <time>2024-09-20T09:45:06Z</time>
      </trkpt>
      <trkpt lat="45.76929" lon="4.81277">
        <ele>171.4</ele>
        <time>2024-09-20T09:45:07Z</time>
      </trkpt>
      <trkpt lat="45.76924" lon="4.81277">
        <ele>171.4</ele>
        <time>2024-09-20T09:45:08Z</time>
      </trkpt>
      <trkpt lat="45.76919" lon="4.81278">
        <ele>171.4</ele>
        <time>2024-09-20T09:45:09Z</time>
      </trkpt>
      <trkpt lat="45.76914" lon="4.81279">
        <ele>171</ele>
        <time>2024-09-20T09:45:10Z</time>
      </trkpt>
      <trkpt lat="45.76909" lon="4.81279">
        <ele>170.8</ele>
        <time>2024-09-20T09:45:11Z</time>
      </trkpt>
      <trkpt lat="45.76903" lon="4.81279">
        <ele>170.8</ele>
        <time>2024-09-20T09:45:12Z</time>
      </trkpt>
      <trkpt lat="45.76898" lon="4.81277">
        <ele>170.8</ele>
        <time>2024-09-20T09:45:13Z</time>
      </trkpt>
      <trkpt lat="45.76893" lon="4.81276">
        <ele>170.2</ele>
        <time>2024-09-20T09:45:14Z</time>
      </trkpt>
      <trkpt lat="45.76888" lon="4.81277">
        <ele>170.2</ele>
        <time>2024-09-20T09:45:15Z</time>
      </trkpt>
      <trkpt lat="45.76882" lon="4.81277">
        <ele>170.2</ele>
        <time>2024-09-20T09:45:16Z</time>
      </trkpt>
      <trkpt lat="45.76877" lon="4.81278">
        <ele>170.2</ele>
        <time>2024-09-20T09:45:17Z</time>
      </trkpt>
      <trkpt lat="45.76872" lon="4.81279">
        <ele>170.2</ele>
        <time>2024-09-20T09:45:18Z</time>
      </trkpt>
      <trkpt lat="45.76867" lon="4.8128">
        <ele>170.2</ele>
        <time>2024-09-20T09:45:19Z</time>
      </trkpt>
      <trkpt lat="45.76862" lon="4.81281">
        <ele>170</ele>
        <time>2024-09-20T09:45:20Z</time>
      </trkpt>
      <trkpt lat="45.76857" lon="4.81283">
        <ele>170</ele>
        <time>2024-09-20T09:45:21Z</time>
      </trkpt>
      <trkpt lat="45.76852" lon="4.81285">
        <ele>170</ele>
        <time>2024-09-20T09:45:22Z</time>
      </trkpt>
      <trkpt lat="45.76848" lon="4.81287">
        <ele>170</ele>
        <time>2024-09-20T09:45:23Z</time>
      </trkpt>
      <trkpt lat="45.76843" lon="4.81289">
        <ele>169.8</ele>
        <time>2024-09-20T09:45:24Z</time>
      </trkpt>
      <trkpt lat="45.76838" lon="4.81291">
        <ele>169.8</ele>
        <time>2024-09-20T09:45:25Z</time>
      </trkpt>
      <trkpt lat="45.76834" lon="4.81294">
        <ele>169.8</ele>
        <time>2024-09-20T09:45:26Z</time>
      </trkpt>
      <trkpt lat="45.76829" lon="4.81297">
        <ele>169.8</ele>
        <time>2024-09-20T09:45:27Z</time>
      </trkpt>
      <trkpt lat="45.76825" lon="4.813">
        <ele>169.8</ele>
        <time>2024-09-20T09:45:28Z</time>
      </trkpt>
      <trkpt lat="45.7682" lon="4.81304">
        <ele>169.8</ele>
        <time>2024-09-20T09:45:29Z</time>
      </trkpt>
      <trkpt lat="45.76816" lon="4.81307">
        <ele>169.8</ele>
        <time>2024-09-20T09:45:30Z</time>
      </trkpt>
      <trkpt lat="45.76811" lon="4.81311">
        <ele>169.8</ele>
        <time>2024-09-20T09:45:31Z</time>
      </trkpt>
      <trkpt lat="45.76807" lon="4.81315">
        <ele>170</ele>
        <time>2024-09-20T09:45:32Z</time>
      </trkpt>
      <trkpt lat="45.76803" lon="4.81319">
        <ele>170</ele>
        <time>2024-09-20T09:45:33Z</time>
      </trkpt>
      <trkpt lat="45.76799" lon="4.81324">
        <ele>170</ele>
        <time>2024-09-20T09:45:34Z</time>
      </trkpt>
      <trkpt lat="45.76795" lon="4.81328">
        <ele>170</ele>
        <time>2024-09-20T09:45:35Z</time>
      </trkpt>
      <trkpt lat="45.76791" lon="4.81333">
        <ele>170</ele>
        <time>2024-09-20T09:45:36Z</time>
      </trkpt>
      <trkpt lat="45.76788" lon="4.81337">
        <ele>170.2</ele>
        <time>2024-09-20T09:45:37Z</time>
      </trkpt>
      <trkpt lat="45.76784" lon="4.81342">
        <ele>170.2</ele>
        <time>2024-09-20T09:45:38Z</time>
      </trkpt>
      <trkpt lat="45.76781" lon="4.81347">
        <ele>170.2</ele>
        <time>2024-09-20T09:45:39Z</time>
      </trkpt>
      <trkpt lat="45.76778" lon="4.81352">
        <ele>170.2</ele>
        <time>2024-09-20T09:45:40Z</time>
      </trkpt>
      <trkpt lat="45.76775" lon="4.81357">
        <ele>170.2</ele>
        <time>2024-09-20T09:45:41Z</time>
      </trkpt>
      <trkpt lat="45.76772" lon="4.81361">
        <ele>170.2</ele>
        <time>2024-09-20T09:45:42Z</time>
      </trkpt>
      <trkpt lat="45.76769" lon="4.81367">
        <ele>170.2</ele>
        <time>2024-09-20T09:45:43Z</time>
      </trkpt>
      <trkpt lat="45.76766" lon="4.81372">
        <ele>170.2</ele>
        <time>2024-09-20T09:45:44Z</time>
      </trkpt>
      <trkpt lat="45.76763" lon="4.81378">
        <ele>170.2</ele>
        <time>2024-09-20T09:45:45Z</time>
      </trkpt>
      <trkpt lat="45.76761" lon="4.81383">
        <ele>170.6</ele>
        <time>2024-09-20T09:45:46Z</time>
      </trkpt>
      <trkpt lat="45.76759" lon="4.8139">
        <ele>170.4</ele>
        <time>2024-09-20T09:45:47Z</time>
      </trkpt>
      <trkpt lat="45.76756" lon="4.81396">
        <ele>170.4</ele>
        <time>2024-09-20T09:45:48Z</time>
      </trkpt>
      <trkpt lat="45.76754" lon="4.81402">
        <ele>170.4</ele>
        <time>2024-09-20T09:45:49Z</time>
      </trkpt>
      <trkpt lat="45.76752" lon="4.81408">
        <ele>170.4</ele>
        <time>2024-09-20T09:45:50Z</time>
      </trkpt>
      <trkpt lat="45.7675" lon="4.81414">
        <ele>170.4</ele>
        <time>2024-09-20T09:45:51Z</time>
      </trkpt>
      <trkpt lat="45.76748" lon="4.8142">
        <ele>170.4</ele>
        <time>2024-09-20T09:45:52Z</time>
      </trkpt>
      <trkpt lat="45.76746" lon="4.81427">
        <ele>170.4</ele>
        <time>2024-09-20T09:45:53Z</time>
      </trkpt>
      <trkpt lat="45.76743" lon="4.81433">
        <ele>170.4</ele>
        <time>2024-09-20T09:45:54Z</time>
      </trkpt>
      <trkpt lat="45.76741" lon="4.8144">
        <ele>170.4</ele>
        <time>2024-09-20T09:45:55Z</time>
      </trkpt>
      <trkpt lat="45.76739" lon="4.81446">
        <ele>170.2</ele>
        <time>2024-09-20T09:45:56Z</time>
      </trkpt>
      <trkpt lat="45.76737" lon="4.81452">
        <ele>170.2</ele>
        <time>2024-09-20T09:45:57Z</time>
      </trkpt>
      <trkpt lat="45.76735" lon="4.81458">
        <ele>170.2</ele>
        <time>2024-09-20T09:45:58Z</time>
      </trkpt>
      <trkpt lat="45.76733" lon="4.81464">
        <ele>170.2</ele>
        <time>2024-09-20T09:45:59Z</time>
      </trkpt>
      <trkpt lat="45.76731" lon="4.8147">
        <ele>170.4</ele>
        <time>2024-09-20T09:46:00Z</time>
      </trkpt>
      <trkpt lat="45.76729" lon="4.81477">
        <ele>170.4</ele>
        <time>2024-09-20T09:46:01Z</time>
      </trkpt>
      <trkpt lat="45.76727" lon="4.81483">
        <ele>170.4</ele>
        <time>2024-09-20T09:46:02Z</time>
      </trkpt>
      <trkpt lat="45.76725" lon="4.81489">
        <ele>170.4</ele>
        <time>2024-09-20T09:46:03Z</time>
      </trkpt>
      <trkpt lat="45.76724" lon="4.81495">
        <ele>170.4</ele>
        <time>2024-09-20T09:46:04Z</time>
      </trkpt>
      <trkpt lat="45.76723" lon="4.815">
        <ele>170.6</ele>
        <time>2024-09-20T09:46:05Z</time>
      </trkpt>
      <trkpt lat="45.76721" lon="4.81506">
        <ele>170.6</ele>
        <time>2024-09-20T09:46:06Z</time>
      </trkpt>
      <trkpt lat="45.76719" lon="4.81512">
        <ele>170.6</ele>
        <time>2024-09-20T09:46:07Z</time>
      </trkpt>
      <trkpt lat="45.76717" lon="4.81517">
        <ele>170.6</ele>
        <time>2024-09-20T09:46:08Z</time>
      </trkpt>
      <trkpt lat="45.76715" lon="4.81523">
        <ele>170.6</ele>
        <time>2024-09-20T09:46:09Z</time>
      </trkpt>
      <trkpt lat="45.76713" lon="4.81528">
        <ele>170.8</ele>
        <time>2024-09-20T09:46:10Z</time>
      </trkpt>
      <trkpt lat="45.7671" lon="4.81534">
        <ele>170.8</ele>
        <time>2024-09-20T09:46:11Z</time>
      </trkpt>
      <trkpt lat="45.76707" lon="4.81539">
        <ele>170.8</ele>
        <time>2024-09-20T09:46:12Z</time>
      </trkpt>
      <trkpt lat="45.76705" lon="4.81545">
        <ele>170.8</ele>
        <time>2024-09-20T09:46:13Z</time>
      </trkpt>
      <trkpt lat="45.76703" lon="4.81551">
        <ele>170.8</ele>
        <time>2024-09-20T09:46:14Z</time>
      </trkpt>
      <trkpt lat="45.767" lon="4.81557">
        <ele>170.8</ele>
        <time>2024-09-20T09:46:15Z</time>
      </trkpt>
      <trkpt lat="45.76698" lon="4.81563">
        <ele>170.8</ele>
        <time>2024-09-20T09:46:16Z</time>
      </trkpt>
      <trkpt lat="45.76696" lon="4.81569">
        <ele>170.8</ele>
        <time>2024-09-20T09:46:17Z</time>
      </trkpt>
      <trkpt lat="45.76694" lon="4.81575">
        <ele>171</ele>
        <time>2024-09-20T09:46:18Z</time>
      </trkpt>
      <trkpt lat="45.76692" lon="4.81581">
        <ele>171</ele>
        <time>2024-09-20T09:46:19Z</time>
      </trkpt>
      <trkpt lat="45.7669" lon="4.81587">
        <ele>171</ele>
        <time>2024-09-20T09:46:20Z</time>
      </trkpt>
      <trkpt lat="45.76688" lon="4.81594">
        <ele>171</ele>
        <time>2024-09-20T09:46:21Z</time>
      </trkpt>
      <trkpt lat="45.76686" lon="4.816">
        <ele>171</ele>
        <time>2024-09-20T09:46:22Z</time>
      </trkpt>
      <trkpt lat="45.76684" lon="4.81607">
        <ele>171</ele>
        <time>2024-09-20T09:46:23Z</time>
      </trkpt>
      <trkpt lat="45.76683" lon="4.81614">
        <ele>170.6</ele>
        <time>2024-09-20T09:46:24Z</time>
      </trkpt>
      <trkpt lat="45.76681" lon="4.81621">
        <ele>170.6</ele>
        <time>2024-09-20T09:46:25Z</time>
      </trkpt>
      <trkpt lat="45.7668" lon="4.81628">
        <ele>170.6</ele>
        <time>2024-09-20T09:46:26Z</time>
      </trkpt>
      <trkpt lat="45.76679" lon="4.81634">
        <ele>170.6</ele>
        <time>2024-09-20T09:46:27Z</time>
      </trkpt>
      <trkpt lat="45.76678" lon="4.81641">
        <ele>171</ele>
        <time>2024-09-20T09:46:28Z</time>
      </trkpt>
      <trkpt lat="45.76676" lon="4.81647">
        <ele>171</ele>
        <time>2024-09-20T09:46:29Z</time>
      </trkpt>
      <trkpt lat="45.76675" lon="4.81653">
        <ele>171</ele>
        <time>2024-09-20T09:46:30Z</time>
      </trkpt>
      <trkpt lat="45.76674" lon="4.8166">
        <ele>171</ele>
        <time>2024-09-20T09:46:31Z</time>
      </trkpt>
      <trkpt lat="45.76673" lon="4.81666">
        <ele>171</ele>
        <time>2024-09-20T09:46:32Z</time>
      </trkpt>
      <trkpt lat="45.76672" lon="4.81672">
        <ele>171</ele>
        <time>2024-09-20T09:46:33Z</time>
      </trkpt>
      <trkpt lat="45.7667" lon="4.81678">
        <ele>171</ele>
        <time>2024-09-20T09:46:34Z</time>
      </trkpt>
      <trkpt lat="45.76669" lon="4.81684">
        <ele>171</ele>
        <time>2024-09-20T09:46:35Z</time>
      </trkpt>
      <trkpt lat="45.76667" lon="4.81691">
        <ele>171</ele>
        <time>2024-09-20T09:46:36Z</time>
      </trkpt>
      <trkpt lat="45.76666" lon="4.81697">
        <ele>171</ele>
        <time>2024-09-20T09:46:37Z</time>
      </trkpt>
      <trkpt lat="45.76665" lon="4.81704">
        <ele>171</ele>
        <time>2024-09-20T09:46:38Z</time>
      </trkpt>
      <trkpt lat="45.76664" lon="4.81711">
        <ele>171</ele>
        <time>2024-09-20T09:46:39Z</time>
      </trkpt>
      <trkpt lat="45.76662" lon="4.81717">
        <ele>171</ele>
        <time>2024-09-20T09:46:40Z</time>
      </trkpt>
      <trkpt lat="45.76661" lon="4.81723">
        <ele>171</ele>
        <time>2024-09-20T09:46:41Z</time>
      </trkpt>
      <trkpt lat="45.7666" lon="4.81729">
        <ele>171</ele>
        <time>2024-09-20T09:46:42Z</time>
      </trkpt>
      <trkpt lat="45.76659" lon="4.81735">
        <ele>171</ele>
        <time>2024-09-20T09:46:43Z</time>
      </trkpt>
      <trkpt lat="45.76659" lon="4.81741">
        <ele>171</ele>
        <time>2024-09-20T09:46:44Z</time>
      </trkpt>
      <trkpt lat="45.76658" lon="4.81746">
        <ele>171.4</ele>
        <time>2024-09-20T09:46:45Z</time>
      </trkpt>
      <trkpt lat="45.76656" lon="4.81751">
        <ele>171.4</ele>
        <time>2024-09-20T09:46:46Z</time>
      </trkpt>
      <trkpt lat="45.76656" lon="4.81757">
        <ele>171.6</ele>
        <time>2024-09-20T09:46:47Z</time>
      </trkpt>
      <trkpt lat="45.76655" lon="4.81762">
        <ele>171.6</ele>
        <time>2024-09-20T09:46:48Z</time>
      </trkpt>
      <trkpt lat="45.76654" lon="4.81767">
        <ele>171.4</ele>
        <time>2024-09-20T09:46:49Z</time>
      </trkpt>
      <trkpt lat="45.76654" lon="4.81772">
        <ele>171.6</ele>
        <time>2024-09-20T09:46:50Z</time>
      </trkpt>
      <trkpt lat="45.76654" lon="4.81776">
        <ele>171.6</ele>
        <time>2024-09-20T09:46:51Z</time>
      </trkpt>
      <trkpt lat="45.76654" lon="4.8178">
        <ele>171.6</ele>
        <time>2024-09-20T09:46:52Z</time>
      </trkpt>
      <trkpt lat="45.76654" lon="4.81782">
        <ele>171.6</ele>
        <time>2024-09-20T09:46:53Z</time>
      </trkpt>
      <trkpt lat="45.76655" lon="4.81783">
        <ele>171.6</ele>
        <time>2024-09-20T09:46:54Z</time>
      </trkpt>
      <trkpt lat="45.76656" lon="4.81785">
        <ele>171.4</ele>
        <time>2024-09-20T09:46:55Z</time>
      </trkpt>
      <trkpt lat="45.76657" lon="4.81786">
        <ele>171.4</ele>
        <time>2024-09-20T09:46:56Z</time>
      </trkpt>
      <trkpt lat="45.76658" lon="4.81786">
        <ele>171.4</ele>
        <time>2024-09-20T09:46:57Z</time>
      </trkpt>
      <trkpt lat="45.76658" lon="4.81786">
        <ele>171.4</ele>
        <time>2024-09-20T09:46:58Z</time>
      </trkpt>
      <trkpt lat="45.76656" lon="4.81786">
        <ele>171.2</ele>
        <time>2024-09-20T09:48:40Z</time>
      </trkpt>
      <trkpt lat="45.76654" lon="4.81787">
        <ele>171.2</ele>
        <time>2024-09-20T09:48:41Z</time>
      </trkpt>
      <trkpt lat="45.76653" lon="4.81788">
        <ele>171.4</ele>
        <time>2024-09-20T09:48:42Z</time>
      </trkpt>
      <trkpt lat="45.76652" lon="4.8179">
        <ele>171.4</ele>
        <time>2024-09-20T09:48:43Z</time>
      </trkpt>
      <trkpt lat="45.76652" lon="4.81792">
        <ele>171.4</ele>
        <time>2024-09-20T09:48:44Z</time>
      </trkpt>
      <trkpt lat="45.76652" lon="4.81795">
        <ele>171.4</ele>
        <time>2024-09-20T09:48:45Z</time>
      </trkpt>
      <trkpt lat="45.76652" lon="4.81799">
        <ele>171.4</ele>
        <time>2024-09-20T09:48:46Z</time>
      </trkpt>
      <trkpt lat="45.76651" lon="4.81803">
        <ele>171.4</ele>
        <time>2024-09-20T09:48:47Z</time>
      </trkpt>
      <trkpt lat="45.76651" lon="4.81808">
        <ele>171.4</ele>
        <time>2024-09-20T09:48:48Z</time>
      </trkpt>
      <trkpt lat="45.7665" lon="4.81812">
        <ele>171.4</ele>
        <time>2024-09-20T09:48:49Z</time>
      </trkpt>
      <trkpt lat="45.7665" lon="4.81818">
        <ele>171.6</ele>
        <time>2024-09-20T09:48:50Z</time>
      </trkpt>
      <trkpt lat="45.7665" lon="4.81823">
        <ele>171.8</ele>
        <time>2024-09-20T09:48:51Z</time>
      </trkpt>
      <trkpt lat="45.76649" lon="4.81829">
        <ele>171.8</ele>
        <time>2024-09-20T09:48:52Z</time>
      </trkpt>
      <trkpt lat="45.76649" lon="4.81835">
        <ele>171.8</ele>
        <time>2024-09-20T09:48:53Z</time>
      </trkpt>
      <trkpt lat="45.76648" lon="4.81841">
        <ele>171.8</ele>
        <time>2024-09-20T09:48:54Z</time>
      </trkpt>
      <trkpt lat="45.76648" lon="4.81847">
        <ele>172</ele>
        <time>2024-09-20T09:48:55Z</time>
      </trkpt>
      <trkpt lat="45.76648" lon="4.81853">
        <ele>172</ele>
        <time>2024-09-20T09:48:56Z</time>
      </trkpt>
      <trkpt lat="45.76648" lon="4.81858">
        <ele>172</ele>
        <time>2024-09-20T09:48:57Z</time>
      </trkpt>
      <trkpt lat="45.76648" lon="4.81865">
        <ele>172</ele>
        <time>2024-09-20T09:48:58Z</time>
      </trkpt>
      <trkpt lat="45.76649" lon="4.81871">
        <ele>171.8</ele>
        <time>2024-09-20T09:48:59Z</time>
      </trkpt>
      <trkpt lat="45.76649" lon="4.81877">
        <ele>171.8</ele>
        <time>2024-09-20T09:49:00Z</time>
      </trkpt>
      <trkpt lat="45.76649" lon="4.81883">
        <ele>171.8</ele>
        <time>2024-09-20T09:49:01Z</time>
      </trkpt>
      <trkpt lat="45.7665" lon="4.81888">
        <ele>171.8</ele>
        <time>2024-09-20T09:49:02Z</time>
      </trkpt>
      <trkpt lat="45.7665" lon="4.81895">
        <ele>171.8</ele>
        <time>2024-09-20T09:49:03Z</time>
      </trkpt>
      <trkpt lat="45.76651" lon="4.81901">
        <ele>171.8</ele>
        <time>2024-09-20T09:49:04Z</time>
      </trkpt>
      <trkpt lat="45.76651" lon="4.81906">
        <ele>172</ele>
        <time>2024-09-20T09:49:05Z</time>
      </trkpt>
      <trkpt lat="45.76651" lon="4.81912">
        <ele>172</ele>
        <time>2024-09-20T09:49:06Z</time>
      </trkpt>
      <trkpt lat="45.76652" lon="4.81917">
        <ele>172</ele>
        <time>2024-09-20T09:49:07Z</time>
      </trkpt>
      <trkpt lat="45.76653" lon="4.81923">
        <ele>172.2</ele>
        <time>2024-09-20T09:49:08Z</time>
      </trkpt>
      <trkpt lat="45.76654" lon="4.81929">
        <ele>172.2</ele>
        <time>2024-09-20T09:49:09Z</time>
      </trkpt>
      <trkpt lat="45.76655" lon="4.81936">
        <ele>172.2</ele>
        <time>2024-09-20T09:49:10Z</time>
      </trkpt>
      <trkpt lat="45.76656" lon="4.81942">
        <ele>172.2</ele>
        <time>2024-09-20T09:49:11Z</time>
      </trkpt>
      <trkpt lat="45.76657" lon="4.81949">
        <ele>172.2</ele>
        <time>2024-09-20T09:49:12Z</time>
      </trkpt>
      <trkpt lat="45.76658" lon="4.81956">
        <ele>172.2</ele>
        <time>2024-09-20T09:49:13Z</time>
      </trkpt>
      <trkpt lat="45.76659" lon="4.81963">
        <ele>172.2</ele>
        <time>2024-09-20T09:49:14Z</time>
      </trkpt>
      <trkpt lat="45.76661" lon="4.81969">
        <ele>172.2</ele>
        <time>2024-09-20T09:49:15Z</time>
      </trkpt>
      <trkpt lat="45.76662" lon="4.81976">
        <ele>172.2</ele>
        <time>2024-09-20T09:49:16Z</time>
      </trkpt>
      <trkpt lat="45.76663" lon="4.81983">
        <ele>172.2</ele>
        <time>2024-09-20T09:49:17Z</time>
      </trkpt>
      <trkpt lat="45.76665" lon="4.8199">
        <ele>172.2</ele>
        <time>2024-09-20T09:49:18Z</time>
      </trkpt>
      <trkpt lat="45.76668" lon="4.81996">
        <ele>172.2</ele>
        <time>2024-09-20T09:49:19Z</time>
      </trkpt>
      <trkpt lat="45.7667" lon="4.82002">
        <ele>172.2</ele>
        <time>2024-09-20T09:49:20Z</time>
      </trkpt>
      <trkpt lat="45.76672" lon="4.82009">
        <ele>172.2</ele>
        <time>2024-09-20T09:49:21Z</time>
      </trkpt>
      <trkpt lat="45.76673" lon="4.82016">
        <ele>172.2</ele>
        <time>2024-09-20T09:49:22Z</time>
      </trkpt>
      <trkpt lat="45.76674" lon="4.82024">
        <ele>172.2</ele>
        <time>2024-09-20T09:49:23Z</time>
      </trkpt>
      <trkpt lat="45.76676" lon="4.8203">
        <ele>172.2</ele>
        <time>2024-09-20T09:49:24Z</time>
      </trkpt>
      <trkpt lat="45.76678" lon="4.82037">
        <ele>172.2</ele>
        <time>2024-09-20T09:49:25Z</time>
      </trkpt>
      <trkpt lat="45.7668" lon="4.82044">
        <ele>172.2</ele>
        <time>2024-09-20T09:49:26Z</time>
      </trkpt>
      <trkpt lat="45.76681" lon="4.8205">
        <ele>172.4</ele>
        <time>2024-09-20T09:49:27Z</time>
      </trkpt>
      <trkpt lat="45.76682" lon="4.82056">
        <ele>172.4</ele>
        <time>2024-09-20T09:49:28Z</time>
      </trkpt>
      <trkpt lat="45.76683" lon="4.82063">
        <ele>172.4</ele>
        <time>2024-09-20T09:49:29Z</time>
      </trkpt>
      <trkpt lat="45.76685" lon="4.8207">
        <ele>172.4</ele>
        <time>2024-09-20T09:49:30Z</time>
      </trkpt>
      <trkpt lat="45.76686" lon="4.82077">
        <ele>172.4</ele>
        <time>2024-09-20T09:49:31Z</time>
      </trkpt>
      <trkpt lat="45.76687" lon="4.82084">
        <ele>172.2</ele>
        <time>2024-09-20T09:49:32Z</time>
      </trkpt>
      <trkpt lat="45.76689" lon="4.82091">
        <ele>172.2</ele>
        <time>2024-09-20T09:49:33Z</time>
      </trkpt>
      <trkpt lat="45.76691" lon="4.82097">
        <ele>172.2</ele>
        <time>2024-09-20T09:49:34Z</time>
      </trkpt>
      <trkpt lat="45.76692" lon="4.82103">
        <ele>172.4</ele>
        <time>2024-09-20T09:49:35Z</time>
      </trkpt>
      <trkpt lat="45.76694" lon="4.8211">
        <ele>172.6</ele>
        <time>2024-09-20T09:49:36Z</time>
      </trkpt>
      <trkpt lat="45.76696" lon="4.82117">
        <ele>172.6</ele>
        <time>2024-09-20T09:49:37Z</time>
      </trkpt>
      <trkpt lat="45.76697" lon="4.82123">
        <ele>172.6</ele>
        <time>2024-09-20T09:49:38Z</time>
      </trkpt>
      <trkpt lat="45.76699" lon="4.8213">
        <ele>172.6</ele>
        <time>2024-09-20T09:49:39Z</time>
      </trkpt>
      <trkpt lat="45.76701" lon="4.82136">
        <ele>172.4</ele>
        <time>2024-09-20T09:49:40Z</time>
      </trkpt>
      <trkpt lat="45.76702" lon="4.82143">
        <ele>172.6</ele>
        <time>2024-09-20T09:49:41Z</time>
      </trkpt>
      <trkpt lat="45.76704" lon="4.8215">
        <ele>172.6</ele>
        <time>2024-09-20T09:49:42Z</time>
      </trkpt>
      <trkpt lat="45.76705" lon="4.82157">
        <ele>172.6</ele>
        <time>2024-09-20T09:49:43Z</time>
      </trkpt>
      <trkpt lat="45.76707" lon="4.82164">
        <ele>172.4</ele>
        <time>2024-09-20T09:49:44Z</time>
      </trkpt>
      <trkpt lat="45.76709" lon="4.8217">
        <ele>172.6</ele>
        <time>2024-09-20T09:49:45Z</time>
      </trkpt>
      <trkpt lat="45.7671" lon="4.82176">
        <ele>172.6</ele>
        <time>2024-09-20T09:49:46Z</time>
      </trkpt>
      <trkpt lat="45.76712" lon="4.82183">
        <ele>172.6</ele>
        <time>2024-09-20T09:49:47Z</time>
      </trkpt>
      <trkpt lat="45.76714" lon="4.82189">
        <ele>172.6</ele>
        <time>2024-09-20T09:49:48Z</time>
      </trkpt>
      <trkpt lat="45.76716" lon="4.82196">
        <ele>172.4</ele>
        <time>2024-09-20T09:49:49Z</time>
      </trkpt>
      <trkpt lat="45.76717" lon="4.82203">
        <ele>172.2</ele>
        <time>2024-09-20T09:49:50Z</time>
      </trkpt>
      <trkpt lat="45.76719" lon="4.82209">
        <ele>172.2</ele>
        <time>2024-09-20T09:49:51Z</time>
      </trkpt>
      <trkpt lat="45.76721" lon="4.82215">
        <ele>172.2</ele>
        <time>2024-09-20T09:49:52Z</time>
      </trkpt>
      <trkpt lat="45.76723" lon="4.82221">
        <ele>172.2</ele>
        <time>2024-09-20T09:49:53Z</time>
      </trkpt>
      <trkpt lat="45.76725" lon="4.82228">
        <ele>172.6</ele>
        <time>2024-09-20T09:49:54Z</time>
      </trkpt>
      <trkpt lat="45.76727" lon="4.82234">
        <ele>172.6</ele>
        <time>2024-09-20T09:49:55Z</time>
      </trkpt>
      <trkpt lat="45.76729" lon="4.8224">
        <ele>172.6</ele>
        <time>2024-09-20T09:49:56Z</time>
      </trkpt>
      <trkpt lat="45.76731" lon="4.82247">
        <ele>172.6</ele>
        <time>2024-09-20T09:49:57Z</time>
      </trkpt>
      <trkpt lat="45.76732" lon="4.82254">
        <ele>172.2</ele>
        <time>2024-09-20T09:49:58Z</time>
      </trkpt>
      <trkpt lat="45.76733" lon="4.8226">
        <ele>172.4</ele>
        <time>2024-09-20T09:49:59Z</time>
      </trkpt>
      <trkpt lat="45.76735" lon="4.82267">
        <ele>172.4</ele>
        <time>2024-09-20T09:50:00Z</time>
      </trkpt>
      <trkpt lat="45.76735" lon="4.82274">
        <ele>172.4</ele>
        <time>2024-09-20T09:50:01Z</time>
      </trkpt>
      <trkpt lat="45.76735" lon="4.82281">
        <ele>172.4</ele>
        <time>2024-09-20T09:50:02Z</time>
      </trkpt>
      <trkpt lat="45.76736" lon="4.82287">
        <ele>172.4</ele>
        <time>2024-09-20T09:50:03Z</time>
      </trkpt>
      <trkpt lat="45.76736" lon="4.82294">
        <ele>172.4</ele>
        <time>2024-09-20T09:50:04Z</time>
      </trkpt>
      <trkpt lat="45.76737" lon="4.82301">
        <ele>172.4</ele>
        <time>2024-09-20T09:50:05Z</time>
      </trkpt>
      <trkpt lat="45.76737" lon="4.82308">
        <ele>172.4</ele>
        <time>2024-09-20T09:50:06Z</time>
      </trkpt>
      <trkpt lat="45.76737" lon="4.82315">
        <ele>172</ele>
        <time>2024-09-20T09:50:07Z</time>
      </trkpt>
      <trkpt lat="45.76738" lon="4.82322">
        <ele>172</ele>
        <time>2024-09-20T09:50:08Z</time>
      </trkpt>
      <trkpt lat="45.76739" lon="4.82328">
        <ele>172.4</ele>
        <time>2024-09-20T09:50:09Z</time>
      </trkpt>
      <trkpt lat="45.7674" lon="4.82334">
        <ele>172.4</ele>
        <time>2024-09-20T09:50:10Z</time>
      </trkpt>
      <trkpt lat="45.7674" lon="4.8234">
        <ele>172.4</ele>
        <time>2024-09-20T09:50:11Z</time>
      </trkpt>
      <trkpt lat="45.76741" lon="4.82346">
        <ele>172.4</ele>
        <time>2024-09-20T09:50:12Z</time>
      </trkpt>
      <trkpt lat="45.76741" lon="4.82353">
        <ele>172.2</ele>
        <time>2024-09-20T09:50:13Z</time>
      </trkpt>
      <trkpt lat="45.76742" lon="4.82359">
        <ele>172.2</ele>
        <time>2024-09-20T09:50:14Z</time>
      </trkpt>
      <trkpt lat="45.76742" lon="4.82365">
        <ele>172.2</ele>
        <time>2024-09-20T09:50:15Z</time>
      </trkpt>
      <trkpt lat="45.76742" lon="4.82371">
        <ele>172.2</ele>
        <time>2024-09-20T09:50:16Z</time>
      </trkpt>
      <trkpt lat="45.76742" lon="4.82378">
        <ele>172</ele>
        <time>2024-09-20T09:50:17Z</time>
      </trkpt>
      <trkpt lat="45.76743" lon="4.82384">
        <ele>172</ele>
        <time>2024-09-20T09:50:18Z</time>
      </trkpt>
      <trkpt lat="45.76742" lon="4.8239">
        <ele>172</ele>
        <time>2024-09-20T09:50:19Z</time>
      </trkpt>
      <trkpt lat="45.76742" lon="4.82396">
        <ele>172</ele>
        <time>2024-09-20T09:50:20Z</time>
      </trkpt>
      <trkpt lat="45.76742" lon="4.82402">
        <ele>172.2</ele>
        <time>2024-09-20T09:50:21Z</time>
      </trkpt>
      <trkpt lat="45.76742" lon="4.82409">
        <ele>172.2</ele>
        <time>2024-09-20T09:50:22Z</time>
      </trkpt>
      <trkpt lat="45.76742" lon="4.82415">
        <ele>172.2</ele>
        <time>2024-09-20T09:50:23Z</time>
      </trkpt>
      <trkpt lat="45.76742" lon="4.82422">
        <ele>172.2</ele>
        <time>2024-09-20T09:50:24Z</time>
      </trkpt>
      <trkpt lat="45.76742" lon="4.82429">
        <ele>172.2</ele>
        <time>2024-09-20T09:50:25Z</time>
      </trkpt>
      <trkpt lat="45.76741" lon="4.82436">
        <ele>172.2</ele>
        <time>2024-09-20T09:50:26Z</time>
      </trkpt>
      <trkpt lat="45.76741" lon="4.82442">
        <ele>172.2</ele>
        <time>2024-09-20T09:50:27Z</time>
      </trkpt>
      <trkpt lat="45.76741" lon="4.82449">
        <ele>172.2</ele>
        <time>2024-09-20T09:50:28Z</time>
      </trkpt>
      <trkpt lat="45.76742" lon="4.82455">
        <ele>172.2</ele>
        <time>2024-09-20T09:50:29Z</time>
      </trkpt>
      <trkpt lat="45.76742" lon="4.82462">
        <ele>172.2</ele>
        <time>2024-09-20T09:50:30Z</time>
      </trkpt>
      <trkpt lat="45.76742" lon="4.82469">
        <ele>172</ele>
        <time>2024-09-20T09:50:31Z</time>
      </trkpt>
      <trkpt lat="45.76742" lon="4.82476">
        <ele>172</ele>
        <time>2024-09-20T09:50:32Z</time>
      </trkpt>
      <trkpt lat="45.76742" lon="4.82482">
        <ele>172</ele>
        <time>2024-09-20T09:50:33Z</time>
      </trkpt>
      <trkpt lat="45.76742" lon="4.82488">
        <ele>171.8</ele>
        <time>2024-09-20T09:50:34Z</time>
      </trkpt>
      <trkpt lat="45.76743" lon="4.82494">
        <ele>171.8</ele>
        <time>2024-09-20T09:50:35Z</time>
      </trkpt>
      <trkpt lat="45.76743" lon="4.825">
        <ele>171.8</ele>
        <time>2024-09-20T09:50:36Z</time>
      </trkpt>
      <trkpt lat="45.76743" lon="4.82506">
        <ele>171.8</ele>
        <time>2024-09-20T09:50:37Z</time>
      </trkpt>
      <trkpt lat="45.76743" lon="4.82512">
        <ele>171.8</ele>
        <time>2024-09-20T09:50:38Z</time>
      </trkpt>
      <trkpt lat="45.76744" lon="4.82518">
        <ele>171.8</ele>
        <time>2024-09-20T09:50:39Z</time>
      </trkpt>
      <trkpt lat="45.76744" lon="4.82524">
        <ele>171.8</ele>
        <time>2024-09-20T09:50:40Z</time>
      </trkpt>
      <trkpt lat="45.76744" lon="4.8253">
        <ele>171.8</ele>
        <time>2024-09-20T09:50:41Z</time>
      </trkpt>
      <trkpt lat="45.76745" lon="4.82537">
        <ele>171.8</ele>
        <time>2024-09-20T09:50:42Z</time>
      </trkpt>
      <trkpt lat="45.76745" lon="4.82543">
        <ele>171.8</ele>
        <time>2024-09-20T09:50:43Z</time>
      </trkpt>
      <trkpt lat="45.76745" lon="4.82549">
        <ele>171.6</ele>
        <time>2024-09-20T09:50:44Z</time>
      </trkpt>
      <trkpt lat="45.76746" lon="4.82556">
        <ele>171.6</ele>
        <time>2024-09-20T09:50:45Z</time>
      </trkpt>
      <trkpt lat="45.76746" lon="4.82562">
        <ele>171.6</ele>
        <time>2024-09-20T09:50:46Z</time>
      </trkpt>
      <trkpt lat="45.76746" lon="4.82569">
        <ele>171.6</ele>
        <time>2024-09-20T09:50:47Z</time>
      </trkpt>
      <trkpt lat="45.76747" lon="4.82576">
        <ele>171.4</ele>
        <time>2024-09-20T09:50:48Z</time>
      </trkpt>
      <trkpt lat="45.76747" lon="4.82583">
        <ele>171.4</ele>
        <time>2024-09-20T09:50:49Z</time>
      </trkpt>
      <trkpt lat="45.76747" lon="4.8259">
        <ele>171.4</ele>
        <time>2024-09-20T09:50:50Z</time>
      </trkpt>
      <trkpt lat="45.76747" lon="4.82597">
        <ele>171.4</ele>
        <time>2024-09-20T09:50:51Z</time>
      </trkpt>
      <trkpt lat="45.76748" lon="4.82604">
        <ele>171.4</ele>
        <time>2024-09-20T09:50:52Z</time>
      </trkpt>
      <trkpt lat="45.76748" lon="4.82612">
        <ele>171.4</ele>
        <time>2024-09-20T09:50:53Z</time>
      </trkpt>
      <trkpt lat="45.76748" lon="4.82619">
        <ele>171.4</ele>
        <time>2024-09-20T09:50:54Z</time>
      </trkpt>
      <trkpt lat="45.76748" lon="4.82626">
        <ele>171.4</ele>
        <time>2024-09-20T09:50:55Z</time>
      </trkpt>
      <trkpt lat="45.76748" lon="4.82633">
        <ele>171.4</ele>
        <time>2024-09-20T09:50:56Z</time>
      </trkpt>
      <trkpt lat="45.76747" lon="4.8264">
        <ele>171.2</ele>
        <time>2024-09-20T09:50:57Z</time>
      </trkpt>
      <trkpt lat="45.76746" lon="4.82646">
        <ele>171.2</ele>
        <time>2024-09-20T09:50:58Z</time>
      </trkpt>
      <trkpt lat="45.76745" lon="4.82653">
        <ele>171.2</ele>
        <time>2024-09-20T09:50:59Z</time>
      </trkpt>
      <trkpt lat="45.76743" lon="4.8266">
        <ele>171.2</ele>
        <time>2024-09-20T09:51:00Z</time>
      </trkpt>
      <trkpt lat="45.76742" lon="4.82667">
        <ele>171.2</ele>
        <time>2024-09-20T09:51:01Z</time>
      </trkpt>
      <trkpt lat="45.76741" lon="4.82674">
        <ele>171</ele>
        <time>2024-09-20T09:51:02Z</time>
      </trkpt>
      <trkpt lat="45.7674" lon="4.8268">
        <ele>171</ele>
        <time>2024-09-20T09:51:03Z</time>
      </trkpt>
      <trkpt lat="45.76738" lon="4.82687">
        <ele>171</ele>
        <time>2024-09-20T09:51:04Z</time>
      </trkpt>
      <trkpt lat="45.76736" lon="4.82694">
        <ele>171</ele>
        <time>2024-09-20T09:51:05Z</time>
      </trkpt>
      <trkpt lat="45.76735" lon="4.82701">
        <ele>170.8</ele>
        <time>2024-09-20T09:51:06Z</time>
      </trkpt>
      <trkpt lat="45.76733" lon="4.82707">
        <ele>170.8</ele>
        <time>2024-09-20T09:51:07Z</time>
      </trkpt>
      <trkpt lat="45.76732" lon="4.82713">
        <ele>170.8</ele>
        <time>2024-09-20T09:51:08Z</time>
      </trkpt>
      <trkpt lat="45.7673" lon="4.82719">
        <ele>170.8</ele>
        <time>2024-09-20T09:51:09Z</time>
      </trkpt>
      <trkpt lat="45.76728" lon="4.82725">
        <ele>170.8</ele>
        <time>2024-09-20T09:51:10Z</time>
      </trkpt>
      <trkpt lat="45.76726" lon="4.8273">
        <ele>170.8</ele>
        <time>2024-09-20T09:51:11Z</time>
      </trkpt>
      <trkpt lat="45.76724" lon="4.82735">
        <ele>170.8</ele>
        <time>2024-09-20T09:51:12Z</time>
      </trkpt>
      <trkpt lat="45.76723" lon="4.8274">
        <ele>170.8</ele>
        <time>2024-09-20T09:51:13Z</time>
      </trkpt>
      <trkpt lat="45.76721" lon="4.82745">
        <ele>170.8</ele>
        <time>2024-09-20T09:51:14Z</time>
      </trkpt>
      <trkpt lat="45.76718" lon="4.82747">
        <ele>170.6</ele>
        <time>2024-09-20T09:51:15Z</time>
      </trkpt>
      <trkpt lat="45.76717" lon="4.8275">
        <ele>170.6</ele>
        <time>2024-09-20T09:51:16Z</time>
      </trkpt>
      <trkpt lat="45.76715" lon="4.82752">
        <ele>170.6</ele>
        <time>2024-09-20T09:51:17Z</time>
      </trkpt>
      <trkpt lat="45.76713" lon="4.82754">
        <ele>170.6</ele>
        <time>2024-09-20T09:51:18Z</time>
      </trkpt>
      <trkpt lat="45.76712" lon="4.82757">
        <ele>170.4</ele>
        <time>2024-09-20T09:51:19Z</time>
      </trkpt>
      <trkpt lat="45.76711" lon="4.82759">
        <ele>170.4</ele>
        <time>2024-09-20T09:51:20Z</time>
      </trkpt>
      <trkpt lat="45.7671" lon="4.82761">
        <ele>170.4</ele>
        <time>2024-09-20T09:51:21Z</time>
      </trkpt>
      <trkpt lat="45.76709" lon="4.82763">
        <ele>170.4</ele>
        <time>2024-09-20T09:51:22Z</time>
      </trkpt>
      <trkpt lat="45.76708" lon="4.82765">
        <ele>170.4</ele>
        <time>2024-09-20T09:51:23Z</time>
      </trkpt>
      <trkpt lat="45.76707" lon="4.82767">
        <ele>170.4</ele>
        <time>2024-09-20T09:51:24Z</time>
      </trkpt>
      <trkpt lat="45.76706" lon="4.82769">
        <ele>170.4</ele>
        <time>2024-09-20T09:51:25Z</time>
      </trkpt>
      <trkpt lat="45.76704" lon="4.82771">
        <ele>170.4</ele>
        <time>2024-09-20T09:51:26Z</time>
      </trkpt>
      <trkpt lat="45.76703" lon="4.82773">
        <ele>170.4</ele>
        <time>2024-09-20T09:51:27Z</time>
      </trkpt>
      <trkpt lat="45.76702" lon="4.82775">
        <ele>170.4</ele>
        <time>2024-09-20T09:51:28Z</time>
      </trkpt>
      <trkpt lat="45.76701" lon="4.82777">
        <ele>170.4</ele>
        <time>2024-09-20T09:51:29Z</time>
      </trkpt>
      <trkpt lat="45.767" lon="4.82779">
        <ele>170.4</ele>
        <time>2024-09-20T09:51:30Z</time>
      </trkpt>
      <trkpt lat="45.76698" lon="4.82782">
        <ele>170.4</ele>
        <time>2024-09-20T09:51:31Z</time>
      </trkpt>
      <trkpt lat="45.76696" lon="4.82784">
        <ele>170.4</ele>
        <time>2024-09-20T09:51:32Z</time>
      </trkpt>
      <trkpt lat="45.76694" lon="4.82787">
        <ele>170.4</ele>
        <time>2024-09-20T09:51:33Z</time>
      </trkpt>
      <trkpt lat="45.76692" lon="4.8279">
        <ele>170.4</ele>
        <time>2024-09-20T09:51:34Z</time>
      </trkpt>
      <trkpt lat="45.7669" lon="4.82793">
        <ele>170.4</ele>
        <time>2024-09-20T09:51:35Z</time>
      </trkpt>
      <trkpt lat="45.76688" lon="4.82796">
        <ele>170.4</ele>
        <time>2024-09-20T09:51:36Z</time>
      </trkpt>
      <trkpt lat="45.76686" lon="4.82799">
        <ele>170.4</ele>
        <time>2024-09-20T09:51:37Z</time>
      </trkpt>
      <trkpt lat="45.76683" lon="4.82802">
        <ele>170.4</ele>
        <time>2024-09-20T09:51:38Z</time>
      </trkpt>
      <trkpt lat="45.76682" lon="4.82805">
        <ele>170.4</ele>
        <time>2024-09-20T09:51:39Z</time>
      </trkpt>
      <trkpt lat="45.7668" lon="4.82809">
        <ele>170.4</ele>
        <time>2024-09-20T09:51:40Z</time>
      </trkpt>
      <trkpt lat="45.76679" lon="4.82812">
        <ele>170.4</ele>
        <time>2024-09-20T09:51:41Z</time>
      </trkpt>
      <trkpt lat="45.76676" lon="4.82815">
        <ele>170.6</ele>
        <time>2024-09-20T09:51:42Z</time>
      </trkpt>
      <trkpt lat="45.76674" lon="4.82819">
        <ele>170.6</ele>
        <time>2024-09-20T09:51:43Z</time>
      </trkpt>
      <trkpt lat="45.76672" lon="4.82822">
        <ele>170.6</ele>
        <time>2024-09-20T09:51:44Z</time>
      </trkpt>
      <trkpt lat="45.7667" lon="4.82825">
        <ele>170.6</ele>
        <time>2024-09-20T09:51:45Z</time>
      </trkpt>
      <trkpt lat="45.76668" lon="4.82828">
        <ele>170.6</ele>
        <time>2024-09-20T09:51:46Z</time>
      </trkpt>
      <trkpt lat="45.76665" lon="4.82831">
        <ele>170.8</ele>
        <time>2024-09-20T09:51:47Z</time>
      </trkpt>
      <trkpt lat="45.76662" lon="4.82835">
        <ele>170.8</ele>
        <time>2024-09-20T09:51:48Z</time>
      </trkpt>
      <trkpt lat="45.76659" lon="4.82838">
        <ele>170.8</ele>
        <time>2024-09-20T09:51:49Z</time>
      </trkpt>
      <trkpt lat="45.76656" lon="4.82841">
        <ele>171.4</ele>
        <time>2024-09-20T09:51:50Z</time>
      </trkpt>
      <trkpt lat="45.76653" lon="4.82845">
        <ele>171.6</ele>
        <time>2024-09-20T09:51:51Z</time>
      </trkpt>
      <trkpt lat="45.76651" lon="4.82848">
        <ele>171.6</ele>
        <time>2024-09-20T09:51:52Z</time>
      </trkpt>
      <trkpt lat="45.76649" lon="4.82851">
        <ele>171.6</ele>
        <time>2024-09-20T09:51:53Z</time>
      </trkpt>
      <trkpt lat="45.76647" lon="4.82855">
        <ele>171.8</ele>
        <time>2024-09-20T09:51:54Z</time>
      </trkpt>
      <trkpt lat="45.76645" lon="4.82858">
        <ele>171.8</ele>
        <time>2024-09-20T09:51:55Z</time>
      </trkpt>
      <trkpt lat="45.76642" lon="4.82861">
        <ele>171.8</ele>
        <time>2024-09-20T09:51:56Z</time>
      </trkpt>
      <trkpt lat="45.7664" lon="4.82864">
        <ele>171.8</ele>
        <time>2024-09-20T09:51:57Z</time>
      </trkpt>
      <trkpt lat="45.76638" lon="4.82867">
        <ele>171.8</ele>
        <time>2024-09-20T09:51:58Z</time>
      </trkpt>
      <trkpt lat="45.76637" lon="4.8287">
        <ele>172.2</ele>
        <time>2024-09-20T09:51:59Z</time>
      </trkpt>
      <trkpt lat="45.76636" lon="4.82872">
        <ele>172.2</ele>
        <time>2024-09-20T09:52:00Z</time>
      </trkpt>
      <trkpt lat="45.76636" lon="4.82874">
        <ele>172.2</ele>
        <time>2024-09-20T09:52:01Z</time>
      </trkpt>
      <trkpt lat="45.76636" lon="4.82875">
        <ele>172.2</ele>
        <time>2024-09-20T09:52:02Z</time>
      </trkpt>
      <trkpt lat="45.76635" lon="4.82875">
        <ele>172.2</ele>
        <time>2024-09-20T09:52:03Z</time>
      </trkpt>
      <trkpt lat="45.76635" lon="4.82876">
        <ele>172.2</ele>
        <time>2024-09-20T09:52:04Z</time>
      </trkpt>
      <trkpt lat="45.76635" lon="4.82876">
        <ele>172.2</ele>
        <time>2024-09-20T09:52:05Z</time>
      </trkpt>
      <trkpt lat="45.76631" lon="4.8288">
        <ele>172.6</ele>
        <time>2024-09-20T09:52:16Z</time>
      </trkpt>
      <trkpt lat="45.7663" lon="4.82882">
        <ele>172.4</ele>
        <time>2024-09-20T09:52:17Z</time>
      </trkpt>
      <trkpt lat="45.76629" lon="4.82884">
        <ele>172.4</ele>
        <time>2024-09-20T09:52:18Z</time>
      </trkpt>
      <trkpt lat="45.76628" lon="4.82886">
        <ele>172.4</ele>
        <time>2024-09-20T09:52:19Z</time>
      </trkpt>
      <trkpt lat="45.76628" lon="4.82888">
        <ele>172.4</ele>
        <time>2024-09-20T09:52:20Z</time>
      </trkpt>
      <trkpt lat="45.76628" lon="4.8289">
        <ele>172.6</ele>
        <time>2024-09-20T09:52:21Z</time>
      </trkpt>
      <trkpt lat="45.76628" lon="4.82891">
        <ele>172.6</ele>
        <time>2024-09-20T09:52:22Z</time>
      </trkpt>
      <trkpt lat="45.76628" lon="4.82891">
        <ele>172.8</ele>
        <time>2024-09-20T09:52:23Z</time>
      </trkpt>
      <trkpt lat="45.76628" lon="4.82892">
        <ele>172.8</ele>
        <time>2024-09-20T09:52:24Z</time>
      </trkpt>
      <trkpt lat="45.76628" lon="4.82893">
        <ele>172.8</ele>
        <time>2024-09-20T09:52:25Z</time>
      </trkpt>
      <trkpt lat="45.76629" lon="4.82894">
        <ele>172.8</ele>
        <time>2024-09-20T09:52:26Z</time>
      </trkpt>
      <trkpt lat="45.7663" lon="4.82895">
        <ele>173.2</ele>
        <time>2024-09-20T09:52:27Z</time>
      </trkpt>
      <trkpt lat="45.7663" lon="4.82897">
        <ele>173.2</ele>
        <time>2024-09-20T09:52:28Z</time>
      </trkpt>
      <trkpt lat="45.76631" lon="4.82899">
        <ele>173.2</ele>
        <time>2024-09-20T09:52:29Z</time>
      </trkpt>
      <trkpt lat="45.76631" lon="4.82901">
        <ele>173.2</ele>
        <time>2024-09-20T09:52:30Z</time>
      </trkpt>
      <trkpt lat="45.76632" lon="4.82903">
        <ele>173</ele>
        <time>2024-09-20T09:52:31Z</time>
      </trkpt>
      <trkpt lat="45.76633" lon="4.82905">
        <ele>173</ele>
        <time>2024-09-20T09:52:32Z</time>
      </trkpt>
      <trkpt lat="45.76634" lon="4.82907">
        <ele>173</ele>
        <time>2024-09-20T09:52:33Z</time>
      </trkpt>
      <trkpt lat="45.76634" lon="4.82909">
        <ele>173</ele>
        <time>2024-09-20T09:52:34Z</time>
      </trkpt>
      <trkpt lat="45.76635" lon="4.82911">
        <ele>173</ele>
        <time>2024-09-20T09:52:35Z</time>
      </trkpt>
      <trkpt lat="45.76635" lon="4.82913">
        <ele>173</ele>
        <time>2024-09-20T09:52:36Z</time>
      </trkpt>
      <trkpt lat="45.76636" lon="4.82914">
        <ele>173</ele>
        <time>2024-09-20T09:52:37Z</time>
      </trkpt>
      <trkpt lat="45.76636" lon="4.82916">
        <ele>173</ele>
        <time>2024-09-20T09:52:38Z</time>
      </trkpt>
      <trkpt lat="45.76638" lon="4.82918">
        <ele>173</ele>
        <time>2024-09-20T09:52:39Z</time>
      </trkpt>
      <trkpt lat="45.76639" lon="4.8292">
        <ele>173.2</ele>
        <time>2024-09-20T09:52:40Z</time>
      </trkpt>
      <trkpt lat="45.76641" lon="4.82923">
        <ele>173.2</ele>
        <time>2024-09-20T09:52:41Z</time>
      </trkpt>
      <trkpt lat="45.76642" lon="4.82925">
        <ele>173.2</ele>
        <time>2024-09-20T09:52:42Z</time>
      </trkpt>
      <trkpt lat="45.76643" lon="4.82928">
        <ele>173.6</ele>
        <time>2024-09-20T09:52:43Z</time>
      </trkpt>
      <trkpt lat="45.76644" lon="4.8293">
        <ele>173.2</ele>
        <time>2024-09-20T09:52:44Z</time>
      </trkpt>
      <trkpt lat="45.76646" lon="4.82932">
        <ele>173.2</ele>
        <time>2024-09-20T09:52:45Z</time>
      </trkpt>
      <trkpt lat="45.76647" lon="4.82935">
        <ele>173.2</ele>
        <time>2024-09-20T09:52:46Z</time>
      </trkpt>
      <trkpt lat="45.76648" lon="4.82939">
        <ele>173.2</ele>
        <time>2024-09-20T09:52:47Z</time>
      </trkpt>
      <trkpt lat="45.7665" lon="4.82943">
        <ele>173</ele>
        <time>2024-09-20T09:52:48Z</time>
      </trkpt>
      <trkpt lat="45.76651" lon="4.82948">
        <ele>173</ele>
        <time>2024-09-20T09:52:49Z</time>
      </trkpt>
      <trkpt lat="45.76653" lon="4.82953">
        <ele>173</ele>
        <time>2024-09-20T09:52:50Z</time>
      </trkpt>
      <trkpt lat="45.76654" lon="4.82958">
        <ele>173</ele>
        <time>2024-09-20T09:52:51Z</time>
      </trkpt>
      <trkpt lat="45.76656" lon="4.82963">
        <ele>173</ele>
        <time>2024-09-20T09:52:52Z</time>
      </trkpt>
      <trkpt lat="45.76658" lon="4.82968">
        <ele>173</ele>
        <time>2024-09-20T09:52:53Z</time>
      </trkpt>
      <trkpt lat="45.7666" lon="4.82973">
        <ele>172.6</ele>
        <time>2024-09-20T09:52:54Z</time>
      </trkpt>
      <trkpt lat="45.76661" lon="4.82979">
        <ele>172.6</ele>
        <time>2024-09-20T09:52:55Z</time>
      </trkpt>
      <trkpt lat="45.76663" lon="4.82984">
        <ele>172.6</ele>
        <time>2024-09-20T09:52:56Z</time>
      </trkpt>
      <trkpt lat="45.76665" lon="4.82989">
        <ele>172.6</ele>
        <time>2024-09-20T09:52:57Z</time>
      </trkpt>
      <trkpt lat="45.76666" lon="4.82993">
        <ele>172</ele>
        <time>2024-09-20T09:52:58Z</time>
      </trkpt>
      <trkpt lat="45.76668" lon="4.82997">
        <ele>171.6</ele>
        <time>2024-09-20T09:52:59Z</time>
      </trkpt>
      <trkpt lat="45.76669" lon="4.82999">
        <ele>171.6</ele>
        <time>2024-09-20T09:53:00Z</time>
      </trkpt>
      <trkpt lat="45.76669" lon="4.83">
        <ele>171.6</ele>
        <time>2024-09-20T09:53:01Z</time>
      </trkpt>
      <trkpt lat="45.76669" lon="4.83001">
        <ele>171.4</ele>
        <time>2024-09-20T09:53:02Z</time>
      </trkpt>
      <trkpt lat="45.76669" lon="4.83001">
        <ele>171.4</ele>
        <time>2024-09-20T09:53:03Z</time>
      </trkpt>
      <trkpt lat="45.76669" lon="4.83001">
        <ele>171.4</ele>
        <time>2024-09-20T09:53:04Z</time>
      </trkpt>
      <trkpt lat="45.7667" lon="4.83007">
        <ele>171.4</ele>
        <time>2024-09-20T09:53:17Z</time>
      </trkpt>
      <trkpt lat="45.76669" lon="4.83011">
        <ele>171.4</ele>
        <time>2024-09-20T09:53:18Z</time>
      </trkpt>
      <trkpt lat="45.76667" lon="4.83014">
        <ele>171.4</ele>
        <time>2024-09-20T09:53:19Z</time>
      </trkpt>
      <trkpt lat="45.76666" lon="4.83017">
        <ele>171.2</ele>
        <time>2024-09-20T09:53:20Z</time>
      </trkpt>
      <trkpt lat="45.76664" lon="4.8302">
        <ele>171.2</ele>
        <time>2024-09-20T09:53:21Z</time>
      </trkpt>
      <trkpt lat="45.76664" lon="4.83022">
        <ele>171.2</ele>
        <time>2024-09-20T09:53:22Z</time>
      </trkpt>
      <trkpt lat="45.76663" lon="4.83025">
        <ele>171.2</ele>
        <time>2024-09-20T09:53:23Z</time>
      </trkpt>
      <trkpt lat="45.76664" lon="4.83027">
        <ele>171</ele>
        <time>2024-09-20T09:53:24Z</time>
      </trkpt>
      <trkpt lat="45.76665" lon="4.83031">
        <ele>171</ele>
        <time>2024-09-20T09:53:25Z</time>
      </trkpt>
      <trkpt lat="45.76666" lon="4.83034">
        <ele>170.8</ele>
        <time>2024-09-20T09:53:26Z</time>
      </trkpt>
      <trkpt lat="45.76667" lon="4.83038">
        <ele>170.8</ele>
        <time>2024-09-20T09:53:27Z</time>
      </trkpt>
      <trkpt lat="45.76669" lon="4.83041">
        <ele>170.8</ele>
        <time>2024-09-20T09:53:28Z</time>
      </trkpt>
      <trkpt lat="45.7667" lon="4.83045">
        <ele>171</ele>
        <time>2024-09-20T09:53:29Z</time>
      </trkpt>
      <trkpt lat="45.76671" lon="4.83049">
        <ele>171</ele>
        <time>2024-09-20T09:53:30Z</time>
      </trkpt>
      <trkpt lat="45.76672" lon="4.83053">
        <ele>171</ele>
        <time>2024-09-20T09:53:31Z</time>
      </trkpt>
      <trkpt lat="45.76672" lon="4.83057">
        <ele>171</ele>
        <time>2024-09-20T09:53:32Z</time>
      </trkpt>
      <trkpt lat="45.76673" lon="4.83061">
        <ele>171</ele>
        <time>2024-09-20T09:53:33Z</time>
      </trkpt>
      <trkpt lat="45.76673" lon="4.83065">
        <ele>170.8</ele>
        <time>2024-09-20T09:53:34Z</time>
      </trkpt>
      <trkpt lat="45.76674" lon="4.83069">
        <ele>170.8</ele>
        <time>2024-09-20T09:53:35Z</time>
      </trkpt>
      <trkpt lat="45.76674" lon="4.83074">
        <ele>170.8</ele>
        <time>2024-09-20T09:53:36Z</time>
      </trkpt>
      <trkpt lat="45.76674" lon="4.83079">
        <ele>170.6</ele>
        <time>2024-09-20T09:53:37Z</time>
      </trkpt>
      <trkpt lat="45.76676" lon="4.83084">
        <ele>170.8</ele>
        <time>2024-09-20T09:53:38Z</time>
      </trkpt>
      <trkpt lat="45.76677" lon="4.83088">
        <ele>170.8</ele>
        <time>2024-09-20T09:53:39Z</time>
      </trkpt>
      <trkpt lat="45.76678" lon="4.83092">
        <ele>170.8</ele>
        <time>2024-09-20T09:53:40Z</time>
      </trkpt>
      <trkpt lat="45.76679" lon="4.83097">
        <ele>170.8</ele>
        <time>2024-09-20T09:53:41Z</time>
      </trkpt>
      <trkpt lat="45.76681" lon="4.83101">
        <ele>170.8</ele>
        <time>2024-09-20T09:53:42Z</time>
      </trkpt>
      <trkpt lat="45.76682" lon="4.83106">
        <ele>171</ele>
        <time>2024-09-20T09:53:43Z</time>
      </trkpt>
      <trkpt lat="45.76683" lon="4.8311">
        <ele>171</ele>
        <time>2024-09-20T09:53:44Z</time>
      </trkpt>
      <trkpt lat="45.76684" lon="4.83114">
        <ele>171</ele>
        <time>2024-09-20T09:53:45Z</time>
      </trkpt>
      <trkpt lat="45.76685" lon="4.83118">
        <ele>171</ele>
        <time>2024-09-20T09:53:46Z</time>
      </trkpt>
      <trkpt lat="45.76686" lon="4.83123">
        <ele>171.4</ele>
        <time>2024-09-20T09:53:47Z</time>
      </trkpt>
      <trkpt lat="45.76687" lon="4.83127">
        <ele>171.6</ele>
        <time>2024-09-20T09:53:48Z</time>
      </trkpt>
      <trkpt lat="45.76688" lon="4.83132">
        <ele>171.6</ele>
        <time>2024-09-20T09:53:49Z</time>
      </trkpt>
      <trkpt lat="45.76689" lon="4.83137">
        <ele>171.6</ele>
        <time>2024-09-20T09:53:50Z</time>
      </trkpt>
      <trkpt lat="45.7669" lon="4.83141">
        <ele>171.4</ele>
        <time>2024-09-20T09:53:51Z</time>
      </trkpt>
      <trkpt lat="45.76691" lon="4.83147">
        <ele>171.4</ele>
        <time>2024-09-20T09:53:52Z</time>
      </trkpt>
      <trkpt lat="45.76692" lon="4.83151">
        <ele>171.6</ele>
        <time>2024-09-20T09:53:53Z</time>
      </trkpt>
      <trkpt lat="45.76694" lon="4.83156">
        <ele>171.6</ele>
        <time>2024-09-20T09:53:54Z</time>
      </trkpt>
      <trkpt lat="45.76695" lon="4.8316">
        <ele>171.6</ele>
        <time>2024-09-20T09:53:55Z</time>
      </trkpt>
      <trkpt lat="45.76696" lon="4.83163">
        <ele>171.6</ele>
        <time>2024-09-20T09:53:56Z</time>
      </trkpt>
      <trkpt lat="45.76697" lon="4.83166">
        <ele>171.8</ele>
        <time>2024-09-20T09:53:57Z</time>
      </trkpt>
      <trkpt lat="45.76698" lon="4.8317">
        <ele>171.8</ele>
        <time>2024-09-20T09:53:58Z</time>
      </trkpt>
      <trkpt lat="45.76699" lon="4.83173">
        <ele>171.8</ele>
        <time>2024-09-20T09:53:59Z</time>
      </trkpt>
      <trkpt lat="45.767" lon="4.83177">
        <ele>171.8</ele>
        <time>2024-09-20T09:54:00Z</time>
      </trkpt>
      <trkpt lat="45.767" lon="4.8318">
        <ele>172</ele>
        <time>2024-09-20T09:54:01Z</time>
      </trkpt>
      <trkpt lat="45.76701" lon="4.83184">
        <ele>172</ele>
        <time>2024-09-20T09:54:02Z</time>
      </trkpt>
      <trkpt lat="45.76701" lon="4.83188">
        <ele>172</ele>
        <time>2024-09-20T09:54:03Z</time>
      </trkpt>
      <trkpt lat="45.76702" lon="4.83193">
        <ele>172.2</ele>
        <time>2024-09-20T09:54:04Z</time>
      </trkpt>
      <trkpt lat="45.76702" lon="4.83198">
        <ele>172.4</ele>
        <time>2024-09-20T09:54:05Z</time>
      </trkpt>
      <trkpt lat="45.76703" lon="4.83203">
        <ele>172.4</ele>
        <time>2024-09-20T09:54:06Z</time>
      </trkpt>
      <trkpt lat="45.76703" lon="4.83208">
        <ele>172.4</ele>
        <time>2024-09-20T09:54:07Z</time>
      </trkpt>
      <trkpt lat="45.76704" lon="4.83214">
        <ele>172.4</ele>
        <time>2024-09-20T09:54:08Z</time>
      </trkpt>
      <trkpt lat="45.76705" lon="4.83219">
        <ele>172.6</ele>
        <time>2024-09-20T09:54:09Z</time>
      </trkpt>
      <trkpt lat="45.76705" lon="4.83224">
        <ele>172.6</ele>
        <time>2024-09-20T09:54:10Z</time>
      </trkpt>
      <trkpt lat="45.76706" lon="4.83229">
        <ele>172.6</ele>
        <time>2024-09-20T09:54:11Z</time>
      </trkpt>
      <trkpt lat="45.76706" lon="4.83234">
        <ele>172.6</ele>
        <time>2024-09-20T09:54:12Z</time>
      </trkpt>
      <trkpt lat="45.76707" lon="4.83238">
        <ele>172.8</ele>
        <time>2024-09-20T09:54:13Z</time>
      </trkpt>
      <trkpt lat="45.76708" lon="4.83243">
        <ele>172.8</ele>
        <time>2024-09-20T09:54:14Z</time>
      </trkpt>
      <trkpt lat="45.76708" lon="4.83247">
        <ele>172.8</ele>
        <time>2024-09-20T09:54:15Z</time>
      </trkpt>
      <trkpt lat="45.76709" lon="4.83251">
        <ele>172.8</ele>
        <time>2024-09-20T09:54:16Z</time>
      </trkpt>
      <trkpt lat="45.7671" lon="4.83256">
        <ele>173</ele>
        <time>2024-09-20T09:54:17Z</time>
      </trkpt>
      <trkpt lat="45.7671" lon="4.8326">
        <ele>173</ele>
        <time>2024-09-20T09:54:18Z</time>
      </trkpt>
      <trkpt lat="45.76711" lon="4.83265">
        <ele>173</ele>
        <time>2024-09-20T09:54:19Z</time>
      </trkpt>
      <trkpt lat="45.76712" lon="4.83268">
        <ele>173</ele>
        <time>2024-09-20T09:54:20Z</time>
      </trkpt>
      <trkpt lat="45.76712" lon="4.83272">
        <ele>173</ele>
        <time>2024-09-20T09:54:21Z</time>
      </trkpt>
      <trkpt lat="45.76713" lon="4.83276">
        <ele>173.4</ele>
        <time>2024-09-20T09:54:22Z</time>
      </trkpt>
      <trkpt lat="45.76714" lon="4.83279">
        <ele>173.4</ele>
        <time>2024-09-20T09:54:23Z</time>
      </trkpt>
      <trkpt lat="45.76715" lon="4.83283">
        <ele>173.4</ele>
        <time>2024-09-20T09:54:24Z</time>
      </trkpt>
      <trkpt lat="45.76716" lon="4.83286">
        <ele>173.4</ele>
        <time>2024-09-20T09:54:25Z</time>
      </trkpt>
      <trkpt lat="45.76717" lon="4.8329">
        <ele>173.6</ele>
        <time>2024-09-20T09:54:26Z</time>
      </trkpt>
      <trkpt lat="45.76718" lon="4.83293">
        <ele>173.6</ele>
        <time>2024-09-20T09:54:27Z</time>
      </trkpt>
      <trkpt lat="45.7672" lon="4.83296">
        <ele>173.8</ele>
        <time>2024-09-20T09:54:28Z</time>
      </trkpt>
      <trkpt lat="45.7672" lon="4.833">
        <ele>173.8</ele>
        <time>2024-09-20T09:54:29Z</time>
      </trkpt>
      <trkpt lat="45.76721" lon="4.83303">
        <ele>173.8</ele>
        <time>2024-09-20T09:54:30Z</time>
      </trkpt>
      <trkpt lat="45.76722" lon="4.83306">
        <ele>173.4</ele>
        <time>2024-09-20T09:54:31Z</time>
      </trkpt>
      <trkpt lat="45.76722" lon="4.83309">
        <ele>173.4</ele>
        <time>2024-09-20T09:54:32Z</time>
      </trkpt>
      <trkpt lat="45.76722" lon="4.83312">
        <ele>173.4</ele>
        <time>2024-09-20T09:54:33Z</time>
      </trkpt>
      <trkpt lat="45.76722" lon="4.83315">
        <ele>173.4</ele>
        <time>2024-09-20T09:54:34Z</time>
      </trkpt>
      <trkpt lat="45.76723" lon="4.83318">
        <ele>173.4</ele>
        <time>2024-09-20T09:54:35Z</time>
      </trkpt>
      <trkpt lat="45.76723" lon="4.83322">
        <ele>173.4</ele>
        <time>2024-09-20T09:54:36Z</time>
      </trkpt>
      <trkpt lat="45.76723" lon="4.83326">
        <ele>173.2</ele>
        <time>2024-09-20T09:54:37Z</time>
      </trkpt>
      <trkpt lat="45.76724" lon="4.83329">
        <ele>173.2</ele>
        <time>2024-09-20T09:54:38Z</time>
      </trkpt>
      <trkpt lat="45.76725" lon="4.83333">
        <ele>173.2</ele>
        <time>2024-09-20T09:54:39Z</time>
      </trkpt>
      <trkpt lat="45.76725" lon="4.83337">
        <ele>173.2</ele>
        <time>2024-09-20T09:54:40Z</time>
      </trkpt>
      <trkpt lat="45.76726" lon="4.8334">
        <ele>173.2</ele>
        <time>2024-09-20T09:54:41Z</time>
      </trkpt>
      <trkpt lat="45.76726" lon="4.83344">
        <ele>173.2</ele>
        <time>2024-09-20T09:54:42Z</time>
      </trkpt>
      <trkpt lat="45.76727" lon="4.83348">
        <ele>173.2</ele>
        <time>2024-09-20T09:54:43Z</time>
      </trkpt>
      <trkpt lat="45.76727" lon="4.83352">
        <ele>173.2</ele>
        <time>2024-09-20T09:54:44Z</time>
      </trkpt>
      <trkpt lat="45.76728" lon="4.83356">
        <ele>173</ele>
        <time>2024-09-20T09:54:45Z</time>
      </trkpt>
      <trkpt lat="45.76728" lon="4.83359">
        <ele>173</ele>
        <time>2024-09-20T09:54:46Z</time>
      </trkpt>
      <trkpt lat="45.76728" lon="4.83363">
        <ele>173</ele>
        <time>2024-09-20T09:54:47Z</time>
      </trkpt>
      <trkpt lat="45.76729" lon="4.83367">
        <ele>173</ele>
        <time>2024-09-20T09:54:48Z</time>
      </trkpt>
      <trkpt lat="45.76729" lon="4.83371">
        <ele>173</ele>
        <time>2024-09-20T09:54:49Z</time>
      </trkpt>
      <trkpt lat="45.7673" lon="4.83375">
        <ele>172.6</ele>
        <time>2024-09-20T09:54:50Z</time>
      </trkpt>
      <trkpt lat="45.7673" lon="4.83378">
        <ele>172.6</ele>
        <time>2024-09-20T09:54:51Z</time>
      </trkpt>
      <trkpt lat="45.76731" lon="4.83382">
        <ele>172.6</ele>
        <time>2024-09-20T09:54:52Z</time>
      </trkpt>
      <trkpt lat="45.76732" lon="4.83386">
        <ele>172.6</ele>
        <time>2024-09-20T09:54:53Z</time>
      </trkpt>
      <trkpt lat="45.76732" lon="4.83391">
        <ele>172.6</ele>
        <time>2024-09-20T09:54:54Z</time>
      </trkpt>
      <trkpt lat="45.76732" lon="4.83395">
        <ele>172.6</ele>
        <time>2024-09-20T09:54:55Z</time>
      </trkpt>
      <trkpt lat="45.76733" lon="4.83399">
        <ele>172.6</ele>
        <time>2024-09-20T09:54:56Z</time>
      </trkpt>
      <trkpt lat="45.76733" lon="4.83403">
        <ele>172.6</ele>
        <time>2024-09-20T09:54:57Z</time>
      </trkpt>
      <trkpt lat="45.76734" lon="4.83406">
        <ele>172.6</ele>
        <time>2024-09-20T09:54:58Z</time>
      </trkpt>
      <trkpt lat="45.76734" lon="4.8341">
        <ele>172.4</ele>
        <time>2024-09-20T09:54:59Z</time>
      </trkpt>
      <trkpt lat="45.76734" lon="4.83414">
        <ele>172.4</ele>
        <time>2024-09-20T09:55:00Z</time>
      </trkpt>
      <trkpt lat="45.76734" lon="4.83417">
        <ele>172.4</ele>
        <time>2024-09-20T09:55:01Z</time>
      </trkpt>
      <trkpt lat="45.76734" lon="4.8342">
        <ele>172.4</ele>
        <time>2024-09-20T09:55:02Z</time>
      </trkpt>
      <trkpt lat="45.76732" lon="4.83422">
        <ele>172.4</ele>
        <time>2024-09-20T09:55:03Z</time>
      </trkpt>
      <trkpt lat="45.76732" lon="4.83425">
        <ele>172.4</ele>
        <time>2024-09-20T09:55:04Z</time>
      </trkpt>
      <trkpt lat="45.76731" lon="4.83427">
        <ele>172.4</ele>
        <time>2024-09-20T09:55:05Z</time>
      </trkpt>
      <trkpt lat="45.76731" lon="4.8343">
        <ele>172.4</ele>
        <time>2024-09-20T09:55:06Z</time>
      </trkpt>
      <trkpt lat="45.7673" lon="4.83432">
        <ele>172.4</ele>
        <time>2024-09-20T09:55:07Z</time>
      </trkpt>
      <trkpt lat="45.76731" lon="4.83435">
        <ele>172.6</ele>
        <time>2024-09-20T09:55:08Z</time>
      </trkpt>
      <trkpt lat="45.76731" lon="4.83438">
        <ele>172.6</ele>
        <time>2024-09-20T09:55:09Z</time>
      </trkpt>
      <trkpt lat="45.76732" lon="4.83441">
        <ele>172.6</ele>
        <time>2024-09-20T09:55:10Z</time>
      </trkpt>
      <trkpt lat="45.76732" lon="4.83445">
        <ele>172.6</ele>
        <time>2024-09-20T09:55:11Z</time>
      </trkpt>
      <trkpt lat="45.76733" lon="4.83448">
        <ele>172.6</ele>
        <time>2024-09-20T09:55:12Z</time>
      </trkpt>
      <trkpt lat="45.76734" lon="4.83452">
        <ele>172.4</ele>
        <time>2024-09-20T09:55:13Z</time>
      </trkpt>
      <trkpt lat="45.76734" lon="4.83456">
        <ele>172.4</ele>
        <time>2024-09-20T09:55:14Z</time>
      </trkpt>
      <trkpt lat="45.76735" lon="4.83461">
        <ele>172.4</ele>
        <time>2024-09-20T09:55:15Z</time>
      </trkpt>
      <trkpt lat="45.76735" lon="4.83466">
        <ele>172.4</ele>
        <time>2024-09-20T09:55:16Z</time>
      </trkpt>
      <trkpt lat="45.76735" lon="4.8347">
        <ele>172.2</ele>
        <time>2024-09-20T09:55:17Z</time>
      </trkpt>
      <trkpt lat="45.76735" lon="4.83476">
        <ele>172.2</ele>
        <time>2024-09-20T09:55:18Z</time>
      </trkpt>
      <trkpt lat="45.76736" lon="4.83481">
        <ele>172.2</ele>
        <time>2024-09-20T09:55:19Z</time>
      </trkpt>
      <trkpt lat="45.76736" lon="4.83486">
        <ele>172.2</ele>
        <time>2024-09-20T09:55:20Z</time>
      </trkpt>
      <trkpt lat="45.76737" lon="4.83491">
        <ele>172.2</ele>
        <time>2024-09-20T09:55:21Z</time>
      </trkpt>
      <trkpt lat="45.76737" lon="4.83497">
        <ele>171.8</ele>
        <time>2024-09-20T09:55:22Z</time>
      </trkpt>
      <trkpt lat="45.76737" lon="4.83503">
        <ele>171.8</ele>
        <time>2024-09-20T09:55:23Z</time>
      </trkpt>
      <trkpt lat="45.76738" lon="4.83509">
        <ele>171.8</ele>
        <time>2024-09-20T09:55:24Z</time>
      </trkpt>
      <trkpt lat="45.76739" lon="4.83514">
        <ele>171.8</ele>
        <time>2024-09-20T09:55:25Z</time>
      </trkpt>
      <trkpt lat="45.7674" lon="4.83519">
        <ele>172.2</ele>
        <time>2024-09-20T09:55:26Z</time>
      </trkpt>
      <trkpt lat="45.7674" lon="4.83526">
        <ele>172.2</ele>
        <time>2024-09-20T09:55:27Z</time>
      </trkpt>
      <trkpt lat="45.76742" lon="4.83532">
        <ele>172.2</ele>
        <time>2024-09-20T09:55:28Z</time>
      </trkpt>
      <trkpt lat="45.76743" lon="4.83538">
        <ele>172.2</ele>
        <time>2024-09-20T09:55:29Z</time>
      </trkpt>
      <trkpt lat="45.76743" lon="4.83544">
        <ele>171.6</ele>
        <time>2024-09-20T09:55:30Z</time>
      </trkpt>
      <trkpt lat="45.76744" lon="4.8355">
        <ele>171.6</ele>
        <time>2024-09-20T09:55:31Z</time>
      </trkpt>
      <trkpt lat="45.76745" lon="4.83556">
        <ele>171.6</ele>
        <time>2024-09-20T09:55:32Z</time>
      </trkpt>
      <trkpt lat="45.76745" lon="4.83562">
        <ele>171.6</ele>
        <time>2024-09-20T09:55:33Z</time>
      </trkpt>
      <trkpt lat="45.76746" lon="4.83568">
        <ele>171.8</ele>
        <time>2024-09-20T09:55:34Z</time>
      </trkpt>
      <trkpt lat="45.76747" lon="4.83573">
        <ele>171.8</ele>
        <time>2024-09-20T09:55:35Z</time>
      </trkpt>
      <trkpt lat="45.76747" lon="4.83578">
        <ele>171.8</ele>
        <time>2024-09-20T09:55:36Z</time>
      </trkpt>
      <trkpt lat="45.76748" lon="4.83582">
        <ele>171.8</ele>
        <time>2024-09-20T09:55:37Z</time>
      </trkpt>
      <trkpt lat="45.76749" lon="4.83586">
        <ele>171.8</ele>
        <time>2024-09-20T09:55:38Z</time>
      </trkpt>
      <trkpt lat="45.76749" lon="4.83588">
        <ele>171.6</ele>
        <time>2024-09-20T09:55:39Z</time>
      </trkpt>
      <trkpt lat="45.76749" lon="4.8359">
        <ele>171.6</ele>
        <time>2024-09-20T09:55:40Z</time>
      </trkpt>
      <trkpt lat="45.76749" lon="4.83591">
        <ele>171.6</ele>
        <time>2024-09-20T09:55:41Z</time>
      </trkpt>
      <trkpt lat="45.76749" lon="4.83591">
        <ele>171.6</ele>
        <time>2024-09-20T09:55:42Z</time>
      </trkpt>
      <trkpt lat="45.76753" lon="4.83601">
        <ele>171.6</ele>
        <time>2024-09-20T09:55:49Z</time>
      </trkpt>
      <trkpt lat="45.76754" lon="4.83605">
        <ele>171.6</ele>
        <time>2024-09-20T09:55:50Z</time>
      </trkpt>
      <trkpt lat="45.76755" lon="4.8361">
        <ele>171.6</ele>
        <time>2024-09-20T09:55:51Z</time>
      </trkpt>
      <trkpt lat="45.76757" lon="4.83614">
        <ele>171.6</ele>
        <time>2024-09-20T09:55:52Z</time>
      </trkpt>
      <trkpt lat="45.76759" lon="4.83619">
        <ele>171.6</ele>
        <time>2024-09-20T09:55:53Z</time>
      </trkpt>
      <trkpt lat="45.7676" lon="4.83623">
        <ele>171.6</ele>
        <time>2024-09-20T09:55:54Z</time>
      </trkpt>
      <trkpt lat="45.76762" lon="4.83628">
        <ele>171.8</ele>
        <time>2024-09-20T09:55:55Z</time>
      </trkpt>
      <trkpt lat="45.76763" lon="4.83634">
        <ele>171.8</ele>
        <time>2024-09-20T09:55:56Z</time>
      </trkpt>
      <trkpt lat="45.76763" lon="4.83639">
        <ele>171.8</ele>
        <time>2024-09-20T09:55:57Z</time>
      </trkpt>
      <trkpt lat="45.76764" lon="4.83645">
        <ele>171.4</ele>
        <time>2024-09-20T09:55:58Z</time>
      </trkpt>
      <trkpt lat="45.76764" lon="4.83651">
        <ele>171.4</ele>
        <time>2024-09-20T09:55:59Z</time>
      </trkpt>
      <trkpt lat="45.76764" lon="4.83656">
        <ele>171.4</ele>
        <time>2024-09-20T09:56:00Z</time>
      </trkpt>
      <trkpt lat="45.76764" lon="4.83661">
        <ele>171.4</ele>
        <time>2024-09-20T09:56:01Z</time>
      </trkpt>
      <trkpt lat="45.76765" lon="4.83666">
        <ele>171.6</ele>
        <time>2024-09-20T09:56:02Z</time>
      </trkpt>
      <trkpt lat="45.76765" lon="4.83671">
        <ele>171.6</ele>
        <time>2024-09-20T09:56:03Z</time>
      </trkpt>
      <trkpt lat="45.76765" lon="4.83676">
        <ele>171.6</ele>
        <time>2024-09-20T09:56:04Z</time>
      </trkpt>
      <trkpt lat="45.76766" lon="4.83681">
        <ele>171.6</ele>
        <time>2024-09-20T09:56:05Z</time>
      </trkpt>
      <trkpt lat="45.76766" lon="4.83687">
        <ele>171.6</ele>
        <time>2024-09-20T09:56:06Z</time>
      </trkpt>
      <trkpt lat="45.76766" lon="4.83692">
        <ele>171.6</ele>
        <time>2024-09-20T09:56:07Z</time>
      </trkpt>
      <trkpt lat="45.76767" lon="4.83697">
        <ele>171.6</ele>
        <time>2024-09-20T09:56:08Z</time>
      </trkpt>
      <trkpt lat="45.76768" lon="4.83703">
        <ele>171.6</ele>
        <time>2024-09-20T09:56:09Z</time>
      </trkpt>
      <trkpt lat="45.76768" lon="4.83708">
        <ele>171.6</ele>
        <time>2024-09-20T09:56:10Z</time>
      </trkpt>
      <trkpt lat="45.76768" lon="4.83714">
        <ele>171.6</ele>
        <time>2024-09-20T09:56:11Z</time>
      </trkpt>
      <trkpt lat="45.76767" lon="4.83719">
        <ele>171.6</ele>
        <time>2024-09-20T09:56:12Z</time>
      </trkpt>
      <trkpt lat="45.76767" lon="4.83724">
        <ele>171.6</ele>
        <time>2024-09-20T09:56:13Z</time>
      </trkpt>
      <trkpt lat="45.76768" lon="4.83727">
        <ele>171.6</ele>
        <time>2024-09-20T09:56:14Z</time>
      </trkpt>
      <trkpt lat="45.76768" lon="4.83731">
        <ele>171.6</ele>
        <time>2024-09-20T09:56:15Z</time>
      </trkpt>
      <trkpt lat="45.76769" lon="4.83733">
        <ele>171.6</ele>
        <time>2024-09-20T09:56:16Z</time>
      </trkpt>
      <trkpt lat="45.76769" lon="4.83737">
        <ele>171.6</ele>
        <time>2024-09-20T09:56:17Z</time>
      </trkpt>
      <trkpt lat="45.76769" lon="4.83742">
        <ele>171.6</ele>
        <time>2024-09-20T09:56:18Z</time>
      </trkpt>
      <trkpt lat="45.76769" lon="4.83746">
        <ele>171.4</ele>
        <time>2024-09-20T09:56:19Z</time>
      </trkpt>
      <trkpt lat="45.76769" lon="4.8375">
        <ele>171.2</ele>
        <time>2024-09-20T09:56:20Z</time>
      </trkpt>
      <trkpt lat="45.7677" lon="4.83755">
        <ele>171.2</ele>
        <time>2024-09-20T09:56:21Z</time>
      </trkpt>
      <trkpt lat="45.7677" lon="4.83761">
        <ele>171.2</ele>
        <time>2024-09-20T09:56:22Z</time>
      </trkpt>
      <trkpt lat="45.7677" lon="4.83766">
        <ele>171.2</ele>
        <time>2024-09-20T09:56:23Z</time>
      </trkpt>
      <trkpt lat="45.76771" lon="4.8377">
        <ele>171</ele>
        <time>2024-09-20T09:56:24Z</time>
      </trkpt>
      <trkpt lat="45.76772" lon="4.83774">
        <ele>171</ele>
        <time>2024-09-20T09:56:25Z</time>
      </trkpt>
      <trkpt lat="45.76772" lon="4.83778">
        <ele>171</ele>
        <time>2024-09-20T09:56:26Z</time>
      </trkpt>
      <trkpt lat="45.76773" lon="4.83779">
        <ele>171</ele>
        <time>2024-09-20T09:56:27Z</time>
      </trkpt>
      <trkpt lat="45.76773" lon="4.8378">
        <ele>171</ele>
        <time>2024-09-20T09:56:28Z</time>
      </trkpt>
      <trkpt lat="45.76773" lon="4.8378">
        <ele>171</ele>
        <time>2024-09-20T09:56:29Z</time>
      </trkpt>
      <trkpt lat="45.76775" lon="4.83798">
        <ele>171.2</ele>
        <time>2024-09-20T09:57:20Z</time>
      </trkpt>
      <trkpt lat="45.76776" lon="4.838">
        <ele>171.2</ele>
        <time>2024-09-20T09:57:21Z</time>
      </trkpt>
      <trkpt lat="45.76777" lon="4.83802">
        <ele>171.2</ele>
        <time>2024-09-20T09:57:22Z</time>
      </trkpt>
      <trkpt lat="45.76778" lon="4.83804">
        <ele>171.2</ele>
        <time>2024-09-20T09:57:23Z</time>
      </trkpt>
      <trkpt lat="45.76778" lon="4.83806">
        <ele>171.6</ele>
        <time>2024-09-20T09:57:24Z</time>
      </trkpt>
      <trkpt lat="45.76779" lon="4.83808">
        <ele>171.6</ele>
        <time>2024-09-20T09:57:25Z</time>
      </trkpt>
      <trkpt lat="45.76779" lon="4.8381">
        <ele>171.6</ele>
        <time>2024-09-20T09:57:26Z</time>
      </trkpt>
      <trkpt lat="45.7678" lon="4.83813">
        <ele>171.8</ele>
        <time>2024-09-20T09:57:27Z</time>
      </trkpt>
      <trkpt lat="45.7678" lon="4.83815">
        <ele>171.8</ele>
        <time>2024-09-20T09:57:28Z</time>
      </trkpt>
      <trkpt lat="45.76781" lon="4.83818">
        <ele>172.2</ele>
        <time>2024-09-20T09:57:29Z</time>
      </trkpt>
      <trkpt lat="45.76782" lon="4.8382">
        <ele>172.4</ele>
        <time>2024-09-20T09:57:30Z</time>
      </trkpt>
      <trkpt lat="45.76782" lon="4.83822">
        <ele>172.4</ele>
        <time>2024-09-20T09:57:31Z</time>
      </trkpt>
      <trkpt lat="45.76783" lon="4.83824">
        <ele>172.4</ele>
        <time>2024-09-20T09:57:32Z</time>
      </trkpt>
      <trkpt lat="45.76783" lon="4.83825">
        <ele>172.8</ele>
        <time>2024-09-20T09:57:33Z</time>
      </trkpt>
      <trkpt lat="45.76782" lon="4.83827">
        <ele>172.8</ele>
        <time>2024-09-20T09:57:34Z</time>
      </trkpt>
      <trkpt lat="45.76782" lon="4.83827">
        <ele>172.8</ele>
        <time>2024-09-20T09:57:35Z</time>
      </trkpt>
      <trkpt lat="45.76782" lon="4.83827">
        <ele>172.8</ele>
        <time>2024-09-20T09:57:36Z</time>
      </trkpt>
      <trkpt lat="45.76777" lon="4.83836">
        <ele>173.2</ele>
        <time>2024-09-20T09:57:46Z</time>
      </trkpt>
      <trkpt lat="45.76775" lon="4.83836">
        <ele>173</ele>
        <time>2024-09-20T09:57:47Z</time>
      </trkpt>
      <trkpt lat="45.76773" lon="4.83836">
        <ele>173</ele>
        <time>2024-09-20T09:57:48Z</time>
      </trkpt>
      <trkpt lat="45.76771" lon="4.83836">
        <ele>173</ele>
        <time>2024-09-20T09:57:49Z</time>
      </trkpt>
      <trkpt lat="45.76769" lon="4.83836">
        <ele>173</ele>
        <time>2024-09-20T09:57:50Z</time>
      </trkpt>
      <trkpt lat="45.76767" lon="4.83837">
        <ele>173</ele>
        <time>2024-09-20T09:57:51Z</time>
      </trkpt>
      <trkpt lat="45.76766" lon="4.83839">
        <ele>173</ele>
        <time>2024-09-20T09:57:52Z</time>
      </trkpt>
      <trkpt lat="45.76766" lon="4.83841">
        <ele>173</ele>
        <time>2024-09-20T09:57:53Z</time>
      </trkpt>
      <trkpt lat="45.76768" lon="4.83843">
        <ele>173</ele>
        <time>2024-09-20T09:57:54Z</time>
      </trkpt>
      <trkpt lat="45.76769" lon="4.83844">
        <ele>173.2</ele>
        <time>2024-09-20T09:57:55Z</time>
      </trkpt>
      <trkpt lat="45.76771" lon="4.83844">
        <ele>173.2</ele>
        <time>2024-09-20T09:57:56Z</time>
      </trkpt>
      <trkpt lat="45.76773" lon="4.83845">
        <ele>173.2</ele>
        <time>2024-09-20T09:57:57Z</time>
      </trkpt>
      <trkpt lat="45.76775" lon="4.83845">
        <ele>173.2</ele>
        <time>2024-09-20T09:57:58Z</time>
      </trkpt>
      <trkpt lat="45.76777" lon="4.83844">
        <ele>173.2</ele>
        <time>2024-09-20T09:57:59Z</time>
      </trkpt>
      <trkpt lat="45.76779" lon="4.83843">
        <ele>173.2</ele>
        <time>2024-09-20T09:58:00Z</time>
      </trkpt>
      <trkpt lat="45.76781" lon="4.83843">
        <ele>173.6</ele>
        <time>2024-09-20T09:58:01Z</time>
      </trkpt>
      <trkpt lat="45.76784" lon="4.83843">
        <ele>173.6</ele>
        <time>2024-09-20T09:58:02Z</time>
      </trkpt>
      <trkpt lat="45.76786" lon="4.83843">
        <ele>173.6</ele>
        <time>2024-09-20T09:58:03Z</time>
      </trkpt>
      <trkpt lat="45.76788" lon="4.83843">
        <ele>173.6</ele>
        <time>2024-09-20T09:58:04Z</time>
      </trkpt>
      <trkpt lat="45.76791" lon="4.83843">
        <ele>173.6</ele>
        <time>2024-09-20T09:58:05Z</time>
      </trkpt>
      <trkpt lat="45.76793" lon="4.83843">
        <ele>173.8</ele>
        <time>2024-09-20T09:58:06Z</time>
      </trkpt>
      <trkpt lat="45.76795" lon="4.83842">
        <ele>173.8</ele>
        <time>2024-09-20T09:58:07Z</time>
      </trkpt>
      <trkpt lat="45.76798" lon="4.83842">
        <ele>173.8</ele>
        <time>2024-09-20T09:58:08Z</time>
      </trkpt>
      <trkpt lat="45.768" lon="4.83841">
        <ele>174.2</ele>
        <time>2024-09-20T09:58:09Z</time>
      </trkpt>
      <trkpt lat="45.76802" lon="4.8384">
        <ele>174.2</ele>
        <time>2024-09-20T09:58:10Z</time>
      </trkpt>
      <trkpt lat="45.76804" lon="4.83839">
        <ele>174.2</ele>
        <time>2024-09-20T09:58:11Z</time>
      </trkpt>
      <trkpt lat="45.76807" lon="4.83838">
        <ele>174.2</ele>
        <time>2024-09-20T09:58:12Z</time>
      </trkpt>
      <trkpt lat="45.76808" lon="4.83838">
        <ele>174.2</ele>
        <time>2024-09-20T09:58:13Z</time>
      </trkpt>
      <trkpt lat="45.7681" lon="4.83837">
        <ele>174.8</ele>
        <time>2024-09-20T09:58:14Z</time>
      </trkpt>
      <trkpt lat="45.76812" lon="4.83837">
        <ele>174.8</ele>
        <time>2024-09-20T09:58:15Z</time>
      </trkpt>
      <trkpt lat="45.76814" lon="4.83837">
        <ele>174.8</ele>
        <time>2024-09-20T09:58:16Z</time>
      </trkpt>
      <trkpt lat="45.76816" lon="4.83837">
        <ele>174.8</ele>
        <time>2024-09-20T09:58:17Z</time>
      </trkpt>
      <trkpt lat="45.76818" lon="4.83838">
        <ele>175</ele>
        <time>2024-09-20T09:58:18Z</time>
      </trkpt>
      <trkpt lat="45.7682" lon="4.83838">
        <ele>175.2</ele>
        <time>2024-09-20T09:58:19Z</time>
      </trkpt>
      <trkpt lat="45.76822" lon="4.83838">
        <ele>175.2</ele>
        <time>2024-09-20T09:58:20Z</time>
      </trkpt>
      <trkpt lat="45.76825" lon="4.83838">
        <ele>175.2</ele>
        <time>2024-09-20T09:58:21Z</time>
      </trkpt>
      <trkpt lat="45.76827" lon="4.83837">
        <ele>175.2</ele>
        <time>2024-09-20T09:58:22Z</time>
      </trkpt>
      <trkpt lat="45.76829" lon="4.83837">
        <ele>175.6</ele>
        <time>2024-09-20T09:58:23Z</time>
      </trkpt>
      <trkpt lat="45.76831" lon="4.83836">
        <ele>175.8</ele>
        <time>2024-09-20T09:58:24Z</time>
      </trkpt>
      <trkpt lat="45.76834" lon="4.83835">
        <ele>175.8</ele>
        <time>2024-09-20T09:58:25Z</time>
      </trkpt>
      <trkpt lat="45.76836" lon="4.83835">
        <ele>175.8</ele>
        <time>2024-09-20T09:58:26Z</time>
      </trkpt>
      <trkpt lat="45.76839" lon="4.83835">
        <ele>176</ele>
        <time>2024-09-20T09:58:27Z</time>
      </trkpt>
      <trkpt lat="45.76841" lon="4.83835">
        <ele>176</ele>
        <time>2024-09-20T09:58:28Z</time>
      </trkpt>
      <trkpt lat="45.76844" lon="4.83834">
        <ele>176</ele>
        <time>2024-09-20T09:58:29Z</time>
      </trkpt>
      <trkpt lat="45.76846" lon="4.83833">
        <ele>176</ele>
        <time>2024-09-20T09:58:30Z</time>
      </trkpt>
      <trkpt lat="45.76849" lon="4.83833">
        <ele>176</ele>
        <time>2024-09-20T09:58:31Z</time>
      </trkpt>
      <trkpt lat="45.76851" lon="4.83833">
        <ele>176</ele>
        <time>2024-09-20T09:58:32Z</time>
      </trkpt>
      <trkpt lat="45.76854" lon="4.83834">
        <ele>176.2</ele>
        <time>2024-09-20T09:58:33Z</time>
      </trkpt>
      <trkpt lat="45.76856" lon="4.83835">
        <ele>176.2</ele>
        <time>2024-09-20T09:58:34Z</time>
      </trkpt>
      <trkpt lat="45.76858" lon="4.83838">
        <ele>176.2</ele>
        <time>2024-09-20T09:58:35Z</time>
      </trkpt>
      <trkpt lat="45.76859" lon="4.83841">
        <ele>176.2</ele>
        <time>2024-09-20T09:58:36Z</time>
      </trkpt>
      <trkpt lat="45.7686" lon="4.83845">
        <ele>176.8</ele>
        <time>2024-09-20T09:58:37Z</time>
      </trkpt>
      <trkpt lat="45.7686" lon="4.83849">
        <ele>176.8</ele>
        <time>2024-09-20T09:58:38Z</time>
      </trkpt>
      <trkpt lat="45.7686" lon="4.83854">
        <ele>176.8</ele>
        <time>2024-09-20T09:58:39Z</time>
      </trkpt>
      <trkpt lat="45.7686" lon="4.83858">
        <ele>176.8</ele>
        <time>2024-09-20T09:58:40Z</time>
      </trkpt>
      <trkpt lat="45.7686" lon="4.83863">
        <ele>176.8</ele>
        <time>2024-09-20T09:58:41Z</time>
      </trkpt>
      <trkpt lat="45.7686" lon="4.83868">
        <ele>177</ele>
        <time>2024-09-20T09:58:42Z</time>
      </trkpt>
      <trkpt lat="45.7686" lon="4.83872">
        <ele>177</ele>
        <time>2024-09-20T09:58:43Z</time>
      </trkpt>
      <trkpt lat="45.7686" lon="4.83877">
        <ele>177</ele>
        <time>2024-09-20T09:58:44Z</time>
      </trkpt>
      <trkpt lat="45.7686" lon="4.83882">
        <ele>177.4</ele>
        <time>2024-09-20T09:58:45Z</time>
      </trkpt>
      <trkpt lat="45.7686" lon="4.83887">
        <ele>177.4</ele>
        <time>2024-09-20T09:58:46Z</time>
      </trkpt>
      <trkpt lat="45.7686" lon="4.83891">
        <ele>177.6</ele>
        <time>2024-09-20T09:58:47Z</time>
      </trkpt>
      <trkpt lat="45.76861" lon="4.83897">
        <ele>177.6</ele>
        <time>2024-09-20T09:58:48Z</time>
      </trkpt>
      <trkpt lat="45.76861" lon="4.83902">
        <ele>177.8</ele>
        <time>2024-09-20T09:58:49Z</time>
      </trkpt>
      <trkpt lat="45.76861" lon="4.83907">
        <ele>177.6</ele>
        <time>2024-09-20T09:58:50Z</time>
      </trkpt>
      <trkpt lat="45.76861" lon="4.83912">
        <ele>177.6</ele>
        <time>2024-09-20T09:58:51Z</time>
      </trkpt>
      <trkpt lat="45.76862" lon="4.83918">
        <ele>177.6</ele>
        <time>2024-09-20T09:58:52Z</time>
      </trkpt>
      <trkpt lat="45.76862" lon="4.83923">
        <ele>177.6</ele>
        <time>2024-09-20T09:58:53Z</time>
      </trkpt>
      <trkpt lat="45.76862" lon="4.83929">
        <ele>177.6</ele>
        <time>2024-09-20T09:58:54Z</time>
      </trkpt>
      <trkpt lat="45.76862" lon="4.83935">
        <ele>177.8</ele>
        <time>2024-09-20T09:58:55Z</time>
      </trkpt>
      <trkpt lat="45.76862" lon="4.8394">
        <ele>178</ele>
        <time>2024-09-20T09:58:56Z</time>
      </trkpt>
      <trkpt lat="45.76862" lon="4.83946">
        <ele>178</ele>
        <time>2024-09-20T09:58:57Z</time>
      </trkpt>
      <trkpt lat="45.76862" lon="4.83952">
        <ele>178</ele>
        <time>2024-09-20T09:58:58Z</time>
      </trkpt>
      <trkpt lat="45.76863" lon="4.83958">
        <ele>177.6</ele>
        <time>2024-09-20T09:58:59Z</time>
      </trkpt>
      <trkpt lat="45.76863" lon="4.83964">
        <ele>177.6</ele>
        <time>2024-09-20T09:59:00Z</time>
      </trkpt>
      <trkpt lat="45.76863" lon="4.8397">
        <ele>177.6</ele>
        <time>2024-09-20T09:59:01Z</time>
      </trkpt>
      <trkpt lat="45.76863" lon="4.83977">
        <ele>177.6</ele>
        <time>2024-09-20T09:59:02Z</time>
      </trkpt>
      <trkpt lat="45.76863" lon="4.83983">
        <ele>177.6</ele>
        <time>2024-09-20T09:59:03Z</time>
      </trkpt>
      <trkpt lat="45.76863" lon="4.83989">
        <ele>177.8</ele>
        <time>2024-09-20T09:59:04Z</time>
      </trkpt>
      <trkpt lat="45.76863" lon="4.83996">
        <ele>177.8</ele>
        <time>2024-09-20T09:59:05Z</time>
      </trkpt>
      <trkpt lat="45.76863" lon="4.84003">
        <ele>177.8</ele>
        <time>2024-09-20T09:59:06Z</time>
      </trkpt>
      <trkpt lat="45.76863" lon="4.8401">
        <ele>177.8</ele>
        <time>2024-09-20T09:59:07Z</time>
      </trkpt>
      <trkpt lat="45.76863" lon="4.84017">
        <ele>177.8</ele>
        <time>2024-09-20T09:59:08Z</time>
      </trkpt>
      <trkpt lat="45.76863" lon="4.84024">
        <ele>177.6</ele>
        <time>2024-09-20T09:59:09Z</time>
      </trkpt>
      <trkpt lat="45.76863" lon="4.84032">
        <ele>177.6</ele>
        <time>2024-09-20T09:59:10Z</time>
      </trkpt>
      <trkpt lat="45.76864" lon="4.84039">
        <ele>177.6</ele>
        <time>2024-09-20T09:59:11Z</time>
      </trkpt>
      <trkpt lat="45.76864" lon="4.84046">
        <ele>177.2</ele>
        <time>2024-09-20T09:59:12Z</time>
      </trkpt>
      <trkpt lat="45.76864" lon="4.84053">
        <ele>177</ele>
        <time>2024-09-20T09:59:13Z</time>
      </trkpt>
      <trkpt lat="45.76864" lon="4.84061">
        <ele>177</ele>
        <time>2024-09-20T09:59:14Z</time>
      </trkpt>
      <trkpt lat="45.76864" lon="4.84068">
        <ele>177</ele>
        <time>2024-09-20T09:59:15Z</time>
      </trkpt>
      <trkpt lat="45.76864" lon="4.84076">
        <ele>177</ele>
        <time>2024-09-20T09:59:16Z</time>
      </trkpt>
      <trkpt lat="45.76864" lon="4.84082">
        <ele>176.2</ele>
        <time>2024-09-20T09:59:17Z</time>
      </trkpt>
      <trkpt lat="45.76863" lon="4.84088">
        <ele>176</ele>
        <time>2024-09-20T09:59:18Z</time>
      </trkpt>
      <trkpt lat="45.76863" lon="4.84092">
        <ele>176</ele>
        <time>2024-09-20T09:59:19Z</time>
      </trkpt>
      <trkpt lat="45.76863" lon="4.84096">
        <ele>176</ele>
        <time>2024-09-20T09:59:20Z</time>
      </trkpt>
      <trkpt lat="45.76863" lon="4.84099">
        <ele>175.6</ele>
        <time>2024-09-20T09:59:21Z</time>
      </trkpt>
      <trkpt lat="45.76863" lon="4.84101">
        <ele>175.6</ele>
        <time>2024-09-20T09:59:22Z</time>
      </trkpt>
      <trkpt lat="45.76862" lon="4.84102">
        <ele>175.6</ele>
        <time>2024-09-20T09:59:23Z</time>
      </trkpt>
      <trkpt lat="45.76861" lon="4.84105">
        <ele>175.4</ele>
        <time>2024-09-20T09:59:27Z</time>
      </trkpt>
      <trkpt lat="45.7686" lon="4.84106">
        <ele>175.4</ele>
        <time>2024-09-20T09:59:28Z</time>
      </trkpt>
      <trkpt lat="45.76858" lon="4.84107">
        <ele>175.4</ele>
        <time>2024-09-20T09:59:29Z</time>
      </trkpt>
      <trkpt lat="45.76855" lon="4.84108">
        <ele>175.4</ele>
        <time>2024-09-20T09:59:30Z</time>
      </trkpt>
      <trkpt lat="45.76852" lon="4.84108">
        <ele>175.4</ele>
        <time>2024-09-20T09:59:31Z</time>
      </trkpt>
      <trkpt lat="45.76849" lon="4.84109">
        <ele>175.4</ele>
        <time>2024-09-20T09:59:32Z</time>
      </trkpt>
      <trkpt lat="45.76845" lon="4.84109">
        <ele>175.4</ele>
        <time>2024-09-20T09:59:33Z</time>
      </trkpt>
      <trkpt lat="45.7684" lon="4.84109">
        <ele>175</ele>
        <time>2024-09-20T09:59:34Z</time>
      </trkpt>
      <trkpt lat="45.76836" lon="4.8411">
        <ele>174.6</ele>
        <time>2024-09-20T09:59:35Z</time>
      </trkpt>
      <trkpt lat="45.76831" lon="4.84111">
        <ele>174.6</ele>
        <time>2024-09-20T09:59:36Z</time>
      </trkpt>
      <trkpt lat="45.76826" lon="4.84111">
        <ele>174.6</ele>
        <time>2024-09-20T09:59:37Z</time>
      </trkpt>
      <trkpt lat="45.76821" lon="4.84112">
        <ele>174.6</ele>
        <time>2024-09-20T09:59:38Z</time>
      </trkpt>
      <trkpt lat="45.76815" lon="4.84113">
        <ele>174.6</ele>
        <time>2024-09-20T09:59:39Z</time>
      </trkpt>
      <trkpt lat="45.76809" lon="4.84114">
        <ele>174</ele>
        <time>2024-09-20T09:59:40Z</time>
      </trkpt>
      <trkpt lat="45.76803" lon="4.84115">
        <ele>173.6</ele>
        <time>2024-09-20T09:59:41Z</time>
      </trkpt>
      <trkpt lat="45.76797" lon="4.84115">
        <ele>173.6</ele>
        <time>2024-09-20T09:59:42Z</time>
      </trkpt>
      <trkpt lat="45.7679" lon="4.84116">
        <ele>173.6</ele>
        <time>2024-09-20T09:59:43Z</time>
      </trkpt>
      <trkpt lat="45.76784" lon="4.84117">
        <ele>172.6</ele>
        <time>2024-09-20T09:59:44Z</time>
      </trkpt>
      <trkpt lat="45.76777" lon="4.84119">
        <ele>172.2</ele>
        <time>2024-09-20T09:59:45Z</time>
      </trkpt>
      <trkpt lat="45.76771" lon="4.8412">
        <ele>172.2</ele>
        <time>2024-09-20T09:59:46Z</time>
      </trkpt>
      <trkpt lat="45.76765" lon="4.84122">
        <ele>172.2</ele>
        <time>2024-09-20T09:59:47Z</time>
      </trkpt>
      <trkpt lat="45.76759" lon="4.84123">
        <ele>172</ele>
        <time>2024-09-20T09:59:48Z</time>
      </trkpt>
      <trkpt lat="45.76753" lon="4.84125">
        <ele>171.8</ele>
        <time>2024-09-20T09:59:49Z</time>
      </trkpt>
      <trkpt lat="45.76747" lon="4.84126">
        <ele>171.8</ele>
        <time>2024-09-20T09:59:50Z</time>
      </trkpt>
      <trkpt lat="45.76741" lon="4.84127">
        <ele>171.8</ele>
        <time>2024-09-20T09:59:51Z</time>
      </trkpt>
      <trkpt lat="45.76735" lon="4.84128">
        <ele>171.8</ele>
        <time>2024-09-20T09:59:52Z</time>
      </trkpt>
      <trkpt lat="45.7673" lon="4.84129">
        <ele>171.6</ele>
        <time>2024-09-20T09:59:53Z</time>
      </trkpt>
      <trkpt lat="45.76724" lon="4.8413">
        <ele>171.6</ele>
        <time>2024-09-20T09:59:54Z</time>
      </trkpt>
      <trkpt lat="45.76718" lon="4.8413">
        <ele>171.6</ele>
        <time>2024-09-20T09:59:55Z</time>
      </trkpt>
      <trkpt lat="45.76713" lon="4.84131">
        <ele>171.6</ele>
        <time>2024-09-20T09:59:56Z</time>
      </trkpt>
      <trkpt lat="45.76707" lon="4.84131">
        <ele>171.6</ele>
        <time>2024-09-20T09:59:57Z</time>
      </trkpt>
      <trkpt lat="45.76701" lon="4.8413">
        <ele>171.2</ele>
        <time>2024-09-20T09:59:58Z</time>
      </trkpt>
      <trkpt lat="45.76696" lon="4.8413">
        <ele>171.2</ele>
        <time>2024-09-20T09:59:59Z</time>
      </trkpt>
      <trkpt lat="45.76691" lon="4.84132">
        <ele>171.2</ele>
        <time>2024-09-20T10:00:00Z</time>
      </trkpt>
      <trkpt lat="45.76686" lon="4.84134">
        <ele>171.2</ele>
        <time>2024-09-20T10:00:01Z</time>
      </trkpt>
      <trkpt lat="45.76681" lon="4.84135">
        <ele>171.2</ele>
        <time>2024-09-20T10:00:02Z</time>
      </trkpt>
      <trkpt lat="45.76676" lon="4.84136">
        <ele>171.2</ele>
        <time>2024-09-20T10:00:03Z</time>
      </trkpt>
      <trkpt lat="45.76671" lon="4.84137">
        <ele>171.2</ele>
        <time>2024-09-20T10:00:04Z</time>
      </trkpt>
      <trkpt lat="45.76665" lon="4.84137">
        <ele>171.2</ele>
        <time>2024-09-20T10:00:05Z</time>
      </trkpt>
      <trkpt lat="45.7666" lon="4.84138">
        <ele>171.2</ele>
        <time>2024-09-20T10:00:06Z</time>
      </trkpt>
      <trkpt lat="45.76654" lon="4.84138">
        <ele>171.4</ele>
        <time>2024-09-20T10:00:07Z</time>
      </trkpt>
      <trkpt lat="45.76648" lon="4.84139">
        <ele>171.4</ele>
        <time>2024-09-20T10:00:08Z</time>
      </trkpt>
      <trkpt lat="45.76643" lon="4.84139">
        <ele>171.4</ele>
        <time>2024-09-20T10:00:09Z</time>
      </trkpt>
      <trkpt lat="45.76637" lon="4.8414">
        <ele>171</ele>
        <time>2024-09-20T10:00:10Z</time>
      </trkpt>
      <trkpt lat="45.76632" lon="4.8414">
        <ele>171.2</ele>
        <time>2024-09-20T10:00:11Z</time>
      </trkpt>
      <trkpt lat="45.76627" lon="4.84141">
        <ele>171.2</ele>
        <time>2024-09-20T10:00:12Z</time>
      </trkpt>
      <trkpt lat="45.76622" lon="4.84142">
        <ele>171.2</ele>
        <time>2024-09-20T10:00:13Z</time>
      </trkpt>
      <trkpt lat="45.76616" lon="4.84144">
        <ele>171.2</ele>
        <time>2024-09-20T10:00:14Z</time>
      </trkpt>
      <trkpt lat="45.76611" lon="4.84144">
        <ele>171.2</ele>
        <time>2024-09-20T10:00:15Z</time>
      </trkpt>
      <trkpt lat="45.76605" lon="4.84144">
        <ele>171</ele>
        <time>2024-09-20T10:00:16Z</time>
      </trkpt>
      <trkpt lat="45.76599" lon="4.84144">
        <ele>171</ele>
        <time>2024-09-20T10:00:17Z</time>
      </trkpt>
      <trkpt lat="45.76594" lon="4.84145">
        <ele>171</ele>
        <time>2024-09-20T10:00:18Z</time>
      </trkpt>
      <trkpt lat="45.76589" lon="4.84146">
        <ele>171</ele>
        <time>2024-09-20T10:00:19Z</time>
      </trkpt>
      <trkpt lat="45.76583" lon="4.84147">
        <ele>171</ele>
        <time>2024-09-20T10:00:20Z</time>
      </trkpt>
      <trkpt lat="45.76578" lon="4.84148">
        <ele>171</ele>
        <time>2024-09-20T10:00:21Z</time>
      </trkpt>
      <trkpt lat="45.76573" lon="4.84148">
        <ele>171</ele>
        <time>2024-09-20T10:00:22Z</time>
      </trkpt>
      <trkpt lat="45.76568" lon="4.84148">
        <ele>171</ele>
        <time>2024-09-20T10:00:23Z</time>
      </trkpt>
      <trkpt lat="45.76563" lon="4.84147">
        <ele>171</ele>
        <time>2024-09-20T10:00:24Z</time>
      </trkpt>
      <trkpt lat="45.76558" lon="4.84147">
        <ele>171.2</ele>
        <time>2024-09-20T10:00:25Z</time>
      </trkpt>
      <trkpt lat="45.76553" lon="4.84147">
        <ele>171.2</ele>
        <time>2024-09-20T10:00:26Z</time>
      </trkpt>
      <trkpt lat="45.76548" lon="4.84147">
        <ele>171.2</ele>
        <time>2024-09-20T10:00:27Z</time>
      </trkpt>
      <trkpt lat="45.76543" lon="4.84148">
        <ele>171.2</ele>
        <time>2024-09-20T10:00:28Z</time>
      </trkpt>
      <trkpt lat="45.76539" lon="4.84148">
        <ele>171</ele>
        <time>2024-09-20T10:00:29Z</time>
      </trkpt>
      <trkpt lat="45.76535" lon="4.84148">
        <ele>170.8</ele>
        <time>2024-09-20T10:00:30Z</time>
      </trkpt>
      <trkpt lat="45.76531" lon="4.84147">
        <ele>170.8</ele>
        <time>2024-09-20T10:00:31Z</time>
      </trkpt>
      <trkpt lat="45.76526" lon="4.84147">
        <ele>170.8</ele>
        <time>2024-09-20T10:00:32Z</time>
      </trkpt>
      <trkpt lat="45.76521" lon="4.84147">
        <ele>170.8</ele>
        <time>2024-09-20T10:00:33Z</time>
      </trkpt>
      <trkpt lat="45.76516" lon="4.84147">
        <ele>171</ele>
        <time>2024-09-20T10:00:34Z</time>
      </trkpt>
      <trkpt lat="45.76511" lon="4.84146">
        <ele>171</ele>
        <time>2024-09-20T10:00:35Z</time>
      </trkpt>
      <trkpt lat="45.76506" lon="4.84147">
        <ele>171</ele>
        <time>2024-09-20T10:00:36Z</time>
      </trkpt>
      <trkpt lat="45.76501" lon="4.84146">
        <ele>170.8</ele>
        <time>2024-09-20T10:00:37Z</time>
      </trkpt>
      <trkpt lat="45.76496" lon="4.84146">
        <ele>170.8</ele>
        <time>2024-09-20T10:00:38Z</time>
      </trkpt>
      <trkpt lat="45.76491" lon="4.84145">
        <ele>170.8</ele>
        <time>2024-09-20T10:00:39Z</time>
      </trkpt>
      <trkpt lat="45.76486" lon="4.84145">
        <ele>170.8</ele>
        <time>2024-09-20T10:00:40Z</time>
      </trkpt>
      <trkpt lat="45.76481" lon="4.84145">
        <ele>170.8</ele>
        <time>2024-09-20T10:00:41Z</time>
      </trkpt>
      <trkpt lat="45.76476" lon="4.84145">
        <ele>170.8</ele>
        <time>2024-09-20T10:00:42Z</time>
      </trkpt>
      <trkpt lat="45.76471" lon="4.84146">
        <ele>171.2</ele>
        <time>2024-09-20T10:00:43Z</time>
      </trkpt>
      <trkpt lat="45.76467" lon="4.84145">
        <ele>171.2</ele>
        <time>2024-09-20T10:00:44Z</time>
      </trkpt>
      <trkpt lat="45.76462" lon="4.84145">
        <ele>171.2</ele>
        <time>2024-09-20T10:00:45Z</time>
      </trkpt>
      <trkpt lat="45.76458" lon="4.84144">
        <ele>171.2</ele>
        <time>2024-09-20T10:00:46Z</time>
      </trkpt>
      <trkpt lat="45.76454" lon="4.84145">
        <ele>171.2</ele>
        <time>2024-09-20T10:00:47Z</time>
      </trkpt>
      <trkpt lat="45.76449" lon="4.84145">
        <ele>171</ele>
        <time>2024-09-20T10:00:48Z</time>
      </trkpt>
      <trkpt lat="45.76444" lon="4.84144">
        <ele>171</ele>
        <time>2024-09-20T10:00:49Z</time>
      </trkpt>
      <trkpt lat="45.76439" lon="4.84144">
        <ele>171</ele>
        <time>2024-09-20T10:00:50Z</time>
      </trkpt>
      <trkpt lat="45.76435" lon="4.84143">
        <ele>171</ele>
        <time>2024-09-20T10:00:51Z</time>
      </trkpt>
      <trkpt lat="45.76431" lon="4.84143">
        <ele>171.2</ele>
        <time>2024-09-20T10:00:52Z</time>
      </trkpt>
      <trkpt lat="45.76426" lon="4.84143">
        <ele>171.2</ele>
        <time>2024-09-20T10:00:53Z</time>
      </trkpt>
      <trkpt lat="45.76422" lon="4.84143">
        <ele>171.2</ele>
        <time>2024-09-20T10:00:54Z</time>
      </trkpt>
      <trkpt lat="45.76418" lon="4.84142">
        <ele>171.2</ele>
        <time>2024-09-20T10:00:55Z</time>
      </trkpt>
      <trkpt lat="45.76414" lon="4.84142">
        <ele>171.4</ele>
        <time>2024-09-20T10:00:56Z</time>
      </trkpt>
      <trkpt lat="45.7641" lon="4.84142">
        <ele>171.4</ele>
        <time>2024-09-20T10:00:57Z</time>
      </trkpt>
      <trkpt lat="45.76406" lon="4.84142">
        <ele>171.4</ele>
        <time>2024-09-20T10:00:58Z</time>
      </trkpt>
      <trkpt lat="45.76402" lon="4.84142">
        <ele>171.4</ele>
        <time>2024-09-20T10:00:59Z</time>
      </trkpt>
      <trkpt lat="45.76398" lon="4.84143">
        <ele>171.4</ele>
        <time>2024-09-20T10:01:00Z</time>
      </trkpt>
      <trkpt lat="45.76392" lon="4.84143">
        <ele>171.8</ele>
        <time>2024-09-20T10:01:01Z</time>
      </trkpt>
      <trkpt lat="45.76387" lon="4.84143">
        <ele>171.8</ele>
        <time>2024-09-20T10:01:02Z</time>
      </trkpt>
      <trkpt lat="45.76381" lon="4.84143">
        <ele>171.8</ele>
        <time>2024-09-20T10:01:03Z</time>
      </trkpt>
      <trkpt lat="45.76376" lon="4.84143">
        <ele>171.8</ele>
        <time>2024-09-20T10:01:04Z</time>
      </trkpt>
      <trkpt lat="45.76372" lon="4.84141">
        <ele>172.2</ele>
        <time>2024-09-20T10:01:05Z</time>
      </trkpt>
      <trkpt lat="45.76368" lon="4.84139">
        <ele>172.2</ele>
        <time>2024-09-20T10:01:06Z</time>
      </trkpt>
      <trkpt lat="45.76364" lon="4.84137">
        <ele>172.2</ele>
        <time>2024-09-20T10:01:07Z</time>
      </trkpt>
      <trkpt lat="45.76359" lon="4.84137">
        <ele>172.2</ele>
        <time>2024-09-20T10:01:08Z</time>
      </trkpt>
      <trkpt lat="45.76355" lon="4.84136">
        <ele>172.4</ele>
        <time>2024-09-20T10:01:09Z</time>
      </trkpt>
      <trkpt lat="45.76351" lon="4.84136">
        <ele>172.6</ele>
        <time>2024-09-20T10:01:10Z</time>
      </trkpt>
      <trkpt lat="45.76347" lon="4.84136">
        <ele>172.6</ele>
        <time>2024-09-20T10:01:11Z</time>
      </trkpt>
      <trkpt lat="45.76343" lon="4.84136">
        <ele>172.6</ele>
        <time>2024-09-20T10:01:12Z</time>
      </trkpt>
      <trkpt lat="45.76339" lon="4.84135">
        <ele>172.6</ele>
        <time>2024-09-20T10:01:13Z</time>
      </trkpt>
      <trkpt lat="45.76335" lon="4.84135">
        <ele>172.6</ele>
        <time>2024-09-20T10:01:14Z</time>
      </trkpt>
      <trkpt lat="45.76331" lon="4.84135">
        <ele>172.4</ele>
        <time>2024-09-20T10:01:15Z</time>
      </trkpt>
      <trkpt lat="45.76327" lon="4.84134">
        <ele>172.4</ele>
        <time>2024-09-20T10:01:16Z</time>
      </trkpt>
      <trkpt lat="45.76323" lon="4.84133">
        <ele>172.4</ele>
        <time>2024-09-20T10:01:17Z</time>
      </trkpt>
      <trkpt lat="45.76319" lon="4.84132">
        <ele>172</ele>
        <time>2024-09-20T10:01:18Z</time>
      </trkpt>
      <trkpt lat="45.76314" lon="4.84132">
        <ele>172.2</ele>
        <time>2024-09-20T10:01:19Z</time>
      </trkpt>
      <trkpt lat="45.76309" lon="4.84131">
        <ele>172.2</ele>
        <time>2024-09-20T10:01:20Z</time>
      </trkpt>
      <trkpt lat="45.76305" lon="4.84131">
        <ele>172.2</ele>
        <time>2024-09-20T10:01:21Z</time>
      </trkpt>
      <trkpt lat="45.763" lon="4.84131">
        <ele>172.2</ele>
        <time>2024-09-20T10:01:22Z</time>
      </trkpt>
      <trkpt lat="45.76295" lon="4.8413">
        <ele>172.2</ele>
        <time>2024-09-20T10:01:23Z</time>
      </trkpt>
      <trkpt lat="45.76291" lon="4.8413">
        <ele>172.2</ele>
        <time>2024-09-20T10:01:24Z</time>
      </trkpt>
      <trkpt lat="45.76286" lon="4.84129">
        <ele>172.4</ele>
        <time>2024-09-20T10:01:25Z</time>
      </trkpt>
      <trkpt lat="45.76282" lon="4.84128">
        <ele>172.4</ele>
        <time>2024-09-20T10:01:26Z</time>
      </trkpt>
      <trkpt lat="45.76278" lon="4.84127">
        <ele>171.8</ele>
        <time>2024-09-20T10:01:27Z</time>
      </trkpt>
      <trkpt lat="45.76273" lon="4.84127">
        <ele>172</ele>
        <time>2024-09-20T10:01:28Z</time>
      </trkpt>
      <trkpt lat="45.76268" lon="4.84127">
        <ele>172</ele>
        <time>2024-09-20T10:01:29Z</time>
      </trkpt>
      <trkpt lat="45.76263" lon="4.84126">
        <ele>172</ele>
        <time>2024-09-20T10:01:30Z</time>
      </trkpt>
      <trkpt lat="45.76258" lon="4.84125">
        <ele>172</ele>
        <time>2024-09-20T10:01:31Z</time>
      </trkpt>
      <trkpt lat="45.76253" lon="4.84125">
        <ele>171.8</ele>
        <time>2024-09-20T10:01:32Z</time>
      </trkpt>
      <trkpt lat="45.76249" lon="4.84124">
        <ele>171.8</ele>
        <time>2024-09-20T10:01:33Z</time>
      </trkpt>
      <trkpt lat="45.76244" lon="4.84124">
        <ele>171.8</ele>
        <time>2024-09-20T10:01:34Z</time>
      </trkpt>
      <trkpt lat="45.76239" lon="4.84123">
        <ele>171.8</ele>
        <time>2024-09-20T10:01:35Z</time>
      </trkpt>
      <trkpt lat="45.76234" lon="4.84122">
        <ele>171.8</ele>
        <time>2024-09-20T10:01:36Z</time>
      </trkpt>
      <trkpt lat="45.76229" lon="4.84121">
        <ele>171.8</ele>
        <time>2024-09-20T10:01:37Z</time>
      </trkpt>
      <trkpt lat="45.76224" lon="4.8412">
        <ele>171.8</ele>
        <time>2024-09-20T10:01:38Z</time>
      </trkpt>
      <trkpt lat="45.76218" lon="4.84119">
        <ele>171.8</ele>
        <time>2024-09-20T10:01:39Z</time>
      </trkpt>
      <trkpt lat="45.76213" lon="4.84118">
        <ele>171.8</ele>
        <time>2024-09-20T10:01:40Z</time>
      </trkpt>
      <trkpt lat="45.76208" lon="4.84117">
        <ele>171.6</ele>
        <time>2024-09-20T10:01:41Z</time>
      </trkpt>
      <trkpt lat="45.76204" lon="4.84116">
        <ele>171.6</ele>
        <time>2024-09-20T10:01:42Z</time>
      </trkpt>
      <trkpt lat="45.76199" lon="4.84116">
        <ele>171.6</ele>
        <time>2024-09-20T10:01:43Z</time>
      </trkpt>
      <trkpt lat="45.76194" lon="4.84116">
        <ele>171.6</ele>
        <time>2024-09-20T10:01:44Z</time>
      </trkpt>
      <trkpt lat="45.76188" lon="4.84115">
        <ele>172</ele>
        <time>2024-09-20T10:01:45Z</time>
      </trkpt>
      <trkpt lat="45.76183" lon="4.84115">
        <ele>172</ele>
        <time>2024-09-20T10:01:46Z</time>
      </trkpt>
      <trkpt lat="45.76178" lon="4.84114">
        <ele>172</ele>
        <time>2024-09-20T10:01:47Z</time>
      </trkpt>
      <trkpt lat="45.76173" lon="4.84114">
        <ele>172</ele>
        <time>2024-09-20T10:01:48Z</time>
      </trkpt>
      <trkpt lat="45.76168" lon="4.84113">
        <ele>172</ele>
        <time>2024-09-20T10:01:49Z</time>
      </trkpt>
      <trkpt lat="45.76163" lon="4.84113">
        <ele>172</ele>
        <time>2024-09-20T10:01:50Z</time>
      </trkpt>
      <trkpt lat="45.76158" lon="4.84113">
        <ele>172</ele>
        <time>2024-09-20T10:01:51Z</time>
      </trkpt>
      <trkpt lat="45.76154" lon="4.84114">
        <ele>172</ele>
        <time>2024-09-20T10:01:52Z</time>
      </trkpt>
      <trkpt lat="45.76149" lon="4.84114">
        <ele>172</ele>
        <time>2024-09-20T10:01:53Z</time>
      </trkpt>
      <trkpt lat="45.76145" lon="4.84114">
        <ele>172</ele>
        <time>2024-09-20T10:01:54Z</time>
      </trkpt>
      <trkpt lat="45.76141" lon="4.84113">
        <ele>172</ele>
        <time>2024-09-20T10:01:55Z</time>
      </trkpt>
      <trkpt lat="45.76137" lon="4.84113">
        <ele>172</ele>
        <time>2024-09-20T10:01:56Z</time>
      </trkpt>
      <trkpt lat="45.76135" lon="4.84115">
        <ele>172</ele>
        <time>2024-09-20T10:01:57Z</time>
      </trkpt>
      <trkpt lat="45.76133" lon="4.84115">
        <ele>172</ele>
        <time>2024-09-20T10:01:58Z</time>
      </trkpt>
      <trkpt lat="45.76132" lon="4.84116">
        <ele>172</ele>
        <time>2024-09-20T10:01:59Z</time>
      </trkpt>
      <trkpt lat="45.76132" lon="4.84116">
        <ele>171.8</ele>
        <time>2024-09-20T10:02:00Z</time>
      </trkpt>
      <trkpt lat="45.76131" lon="4.84126">
        <ele>171.6</ele>
        <time>2024-09-20T10:02:06Z</time>
      </trkpt>
      <trkpt lat="45.76131" lon="4.84131">
        <ele>171.6</ele>
        <time>2024-09-20T10:02:07Z</time>
      </trkpt>
      <trkpt lat="45.76131" lon="4.84135">
        <ele>171.8</ele>
        <time>2024-09-20T10:02:08Z</time>
      </trkpt>
      <trkpt lat="45.76131" lon="4.8414">
        <ele>171.8</ele>
        <time>2024-09-20T10:02:09Z</time>
      </trkpt>
      <trkpt lat="45.76131" lon="4.84145">
        <ele>171.8</ele>
        <time>2024-09-20T10:02:10Z</time>
      </trkpt>
      <trkpt lat="45.76132" lon="4.84151">
        <ele>171.8</ele>
        <time>2024-09-20T10:02:11Z</time>
      </trkpt>
      <trkpt lat="45.76132" lon="4.84157">
        <ele>171.6</ele>
        <time>2024-09-20T10:02:12Z</time>
      </trkpt>
      <trkpt lat="45.76133" lon="4.84163">
        <ele>171.6</ele>
        <time>2024-09-20T10:02:13Z</time>
      </trkpt>
      <trkpt lat="45.76134" lon="4.84169">
        <ele>171.6</ele>
        <time>2024-09-20T10:02:14Z</time>
      </trkpt>
      <trkpt lat="45.76134" lon="4.84175">
        <ele>171.6</ele>
        <time>2024-09-20T10:02:15Z</time>
      </trkpt>
      <trkpt lat="45.76135" lon="4.84181">
        <ele>171.4</ele>
        <time>2024-09-20T10:02:16Z</time>
      </trkpt>
      <trkpt lat="45.76135" lon="4.84186">
        <ele>171.2</ele>
        <time>2024-09-20T10:02:17Z</time>
      </trkpt>
      <trkpt lat="45.76136" lon="4.84191">
        <ele>171.2</ele>
        <time>2024-09-20T10:02:18Z</time>
      </trkpt>
      <trkpt lat="45.76136" lon="4.84194">
        <ele>171.2</ele>
        <time>2024-09-20T10:02:19Z</time>
      </trkpt>
      <trkpt lat="45.76136" lon="4.84196">
        <ele>171.2</ele>
        <time>2024-09-20T10:02:20Z</time>
      </trkpt>
      <trkpt lat="45.76136" lon="4.84197">
        <ele>171.2</ele>
        <time>2024-09-20T10:02:21Z</time>
      </trkpt>
      <trkpt lat="45.76136" lon="4.84197">
        <ele>171.2</ele>
        <time>2024-09-20T10:02:22Z</time>
      </trkpt>
      <trkpt lat="45.76135" lon="4.84202">
        <ele>170.6</ele>
        <time>2024-09-20T10:02:38Z</time>
      </trkpt>
      <trkpt lat="45.76135" lon="4.84206">
        <ele>170.8</ele>
        <time>2024-09-20T10:02:39Z</time>
      </trkpt>
      <trkpt lat="45.76136" lon="4.8421">
        <ele>170.8</ele>
        <time>2024-09-20T10:02:40Z</time>
      </trkpt>
      <trkpt lat="45.76136" lon="4.84214">
        <ele>170.8</ele>
        <time>2024-09-20T10:02:41Z</time>
      </trkpt>
      <trkpt lat="45.76137" lon="4.84219">
        <ele>170.8</ele>
        <time>2024-09-20T10:02:42Z</time>
      </trkpt>
      <trkpt lat="45.76137" lon="4.84225">
        <ele>170.8</ele>
        <time>2024-09-20T10:02:43Z</time>
      </trkpt>
      <trkpt lat="45.76138" lon="4.8423">
        <ele>170.8</ele>
        <time>2024-09-20T10:02:44Z</time>
      </trkpt>
      <trkpt lat="45.76139" lon="4.84236">
        <ele>170.8</ele>
        <time>2024-09-20T10:02:45Z</time>
      </trkpt>
      <trkpt lat="45.76139" lon="4.84243">
        <ele>170.8</ele>
        <time>2024-09-20T10:02:46Z</time>
      </trkpt>
      <trkpt lat="45.7614" lon="4.8425">
        <ele>170.8</ele>
        <time>2024-09-20T10:02:47Z</time>
      </trkpt>
      <trkpt lat="45.76141" lon="4.84257">
        <ele>170.8</ele>
        <time>2024-09-20T10:02:48Z</time>
      </trkpt>
      <trkpt lat="45.76142" lon="4.84265">
        <ele>170.8</ele>
        <time>2024-09-20T10:02:49Z</time>
      </trkpt>
      <trkpt lat="45.76143" lon="4.84272">
        <ele>170.8</ele>
        <time>2024-09-20T10:02:50Z</time>
      </trkpt>
      <trkpt lat="45.76143" lon="4.8428">
        <ele>170.8</ele>
        <time>2024-09-20T10:02:51Z</time>
      </trkpt>
      <trkpt lat="45.76144" lon="4.84286">
        <ele>170.6</ele>
        <time>2024-09-20T10:02:52Z</time>
      </trkpt>
      <trkpt lat="45.76145" lon="4.84292">
        <ele>170.6</ele>
        <time>2024-09-20T10:02:53Z</time>
      </trkpt>
      <trkpt lat="45.76146" lon="4.84299">
        <ele>170.6</ele>
        <time>2024-09-20T10:02:54Z</time>
      </trkpt>
      <trkpt lat="45.76147" lon="4.84307">
        <ele>170.6</ele>
        <time>2024-09-20T10:02:55Z</time>
      </trkpt>
      <trkpt lat="45.76147" lon="4.84318">
        <ele>170.6</ele>
        <time>2024-09-20T10:02:56Z</time>
      </trkpt>
      <trkpt lat="45.76147" lon="4.84327">
        <ele>170.6</ele>
        <time>2024-09-20T10:02:57Z</time>
      </trkpt>
      <trkpt lat="45.76148" lon="4.84335">
        <ele>170.6</ele>
        <time>2024-09-20T10:02:58Z</time>
      </trkpt>
      <trkpt lat="45.76149" lon="4.84343">
        <ele>170.6</ele>
        <time>2024-09-20T10:02:59Z</time>
      </trkpt>
      <trkpt lat="45.7615" lon="4.8435">
        <ele>170.6</ele>
        <time>2024-09-20T10:03:00Z</time>
      </trkpt>
      <trkpt lat="45.7615" lon="4.84357">
        <ele>170.4</ele>
        <time>2024-09-20T10:03:01Z</time>
      </trkpt>
      <trkpt lat="45.76151" lon="4.84363">
        <ele>170.4</ele>
        <time>2024-09-20T10:03:02Z</time>
      </trkpt>
      <trkpt lat="45.76151" lon="4.84368">
        <ele>170.4</ele>
        <time>2024-09-20T10:03:03Z</time>
      </trkpt>
      <trkpt lat="45.76151" lon="4.84373">
        <ele>170.4</ele>
        <time>2024-09-20T10:03:04Z</time>
      </trkpt>
      <trkpt lat="45.76151" lon="4.84377">
        <ele>170.2</ele>
        <time>2024-09-20T10:03:05Z</time>
      </trkpt>
      <trkpt lat="45.76152" lon="4.8438">
        <ele>170.4</ele>
        <time>2024-09-20T10:03:06Z</time>
      </trkpt>
      <trkpt lat="45.76152" lon="4.84383">
        <ele>170.4</ele>
        <time>2024-09-20T10:03:07Z</time>
      </trkpt>
      <trkpt lat="45.76152" lon="4.84386">
        <ele>170.4</ele>
        <time>2024-09-20T10:03:08Z</time>
      </trkpt>
      <trkpt lat="45.76153" lon="4.8439">
        <ele>170.4</ele>
        <time>2024-09-20T10:03:09Z</time>
      </trkpt>
      <trkpt lat="45.76154" lon="4.84394">
        <ele>169.8</ele>
        <time>2024-09-20T10:03:10Z</time>
      </trkpt>
      <trkpt lat="45.76155" lon="4.84398">
        <ele>170</ele>
        <time>2024-09-20T10:03:11Z</time>
      </trkpt>
      <trkpt lat="45.76156" lon="4.84403">
        <ele>170</ele>
        <time>2024-09-20T10:03:12Z</time>
      </trkpt>
      <trkpt lat="45.76158" lon="4.84408">
        <ele>170</ele>
        <time>2024-09-20T10:03:13Z</time>
      </trkpt>
      <trkpt lat="45.76159" lon="4.84413">
        <ele>169.8</ele>
        <time>2024-09-20T10:03:14Z</time>
      </trkpt>
      <trkpt lat="45.76161" lon="4.84419">
        <ele>169.8</ele>
        <time>2024-09-20T10:03:15Z</time>
      </trkpt>
      <trkpt lat="45.76163" lon="4.84424">
        <ele>169.8</ele>
        <time>2024-09-20T10:03:16Z</time>
      </trkpt>
      <trkpt lat="45.76164" lon="4.8443">
        <ele>169.8</ele>
        <time>2024-09-20T10:03:17Z</time>
      </trkpt>
      <trkpt lat="45.76164" lon="4.84437">
        <ele>169.8</ele>
        <time>2024-09-20T10:03:18Z</time>
      </trkpt>
      <trkpt lat="45.76165" lon="4.84444">
        <ele>170</ele>
        <time>2024-09-20T10:03:19Z</time>
      </trkpt>
      <trkpt lat="45.76166" lon="4.84451">
        <ele>170</ele>
        <time>2024-09-20T10:03:20Z</time>
      </trkpt>
      <trkpt lat="45.76166" lon="4.84458">
        <ele>170</ele>
        <time>2024-09-20T10:03:21Z</time>
      </trkpt>
      <trkpt lat="45.76167" lon="4.84465">
        <ele>170</ele>
        <time>2024-09-20T10:03:22Z</time>
      </trkpt>
      <trkpt lat="45.76168" lon="4.84471">
        <ele>170</ele>
        <time>2024-09-20T10:03:23Z</time>
      </trkpt>
      <trkpt lat="45.76169" lon="4.84477">
        <ele>170</ele>
        <time>2024-09-20T10:03:24Z</time>
      </trkpt>
      <trkpt lat="45.76169" lon="4.84483">
        <ele>170</ele>
        <time>2024-09-20T10:03:25Z</time>
      </trkpt>
      <trkpt lat="45.76169" lon="4.84489">
        <ele>170</ele>
        <time>2024-09-20T10:03:26Z</time>
      </trkpt>
      <trkpt lat="45.76169" lon="4.84494">
        <ele>170</ele>
        <time>2024-09-20T10:03:27Z</time>
      </trkpt>
      <trkpt lat="45.76169" lon="4.845">
        <ele>170.2</ele>
        <time>2024-09-20T10:03:28Z</time>
      </trkpt>
      <trkpt lat="45.76169" lon="4.84507">
        <ele>170</ele>
        <time>2024-09-20T10:03:29Z</time>
      </trkpt>
      <trkpt lat="45.76169" lon="4.84513">
        <ele>170</ele>
        <time>2024-09-20T10:03:30Z</time>
      </trkpt>
      <trkpt lat="45.76169" lon="4.84519">
        <ele>170</ele>
        <time>2024-09-20T10:03:31Z</time>
      </trkpt>
      <trkpt lat="45.7617" lon="4.84526">
        <ele>170</ele>
        <time>2024-09-20T10:03:32Z</time>
      </trkpt>
      <trkpt lat="45.7617" lon="4.84533">
        <ele>170</ele>
        <time>2024-09-20T10:03:33Z</time>
      </trkpt>
      <trkpt lat="45.7617" lon="4.84539">
        <ele>170</ele>
        <time>2024-09-20T10:03:34Z</time>
      </trkpt>
      <trkpt lat="45.76169" lon="4.84546">
        <ele>170</ele>
        <time>2024-09-20T10:03:35Z</time>
      </trkpt>
      <trkpt lat="45.76169" lon="4.84553">
        <ele>170</ele>
        <time>2024-09-20T10:03:36Z</time>
      </trkpt>
      <trkpt lat="45.76169" lon="4.8456">
        <ele>169.8</ele>
        <time>2024-09-20T10:03:37Z</time>
      </trkpt>
      <trkpt lat="45.76169" lon="4.84567">
        <ele>170</ele>
        <time>2024-09-20T10:03:38Z</time>
      </trkpt>
      <trkpt lat="45.7617" lon="4.84574">
        <ele>170</ele>
        <time>2024-09-20T10:03:39Z</time>
      </trkpt>
      <trkpt lat="45.7617" lon="4.84581">
        <ele>170</ele>
        <time>2024-09-20T10:03:40Z</time>
      </trkpt>
      <trkpt lat="45.7617" lon="4.84588">
        <ele>170.2</ele>
        <time>2024-09-20T10:03:41Z</time>
      </trkpt>
      <trkpt lat="45.76171" lon="4.84595">
        <ele>170.2</ele>
        <time>2024-09-20T10:03:42Z</time>
      </trkpt>
      <trkpt lat="45.76171" lon="4.84602">
        <ele>170.4</ele>
        <time>2024-09-20T10:03:43Z</time>
      </trkpt>
      <trkpt lat="45.76172" lon="4.84609">
        <ele>170.4</ele>
        <time>2024-09-20T10:03:44Z</time>
      </trkpt>
      <trkpt lat="45.76172" lon="4.84616">
        <ele>170.6</ele>
        <time>2024-09-20T10:03:45Z</time>
      </trkpt>
      <trkpt lat="45.76172" lon="4.84623">
        <ele>170.6</ele>
        <time>2024-09-20T10:03:46Z</time>
      </trkpt>
      <trkpt lat="45.76171" lon="4.8463">
        <ele>170.8</ele>
        <time>2024-09-20T10:03:47Z</time>
      </trkpt>
      <trkpt lat="45.76171" lon="4.84637">
        <ele>170.8</ele>
        <time>2024-09-20T10:03:48Z</time>
      </trkpt>
      <trkpt lat="45.76172" lon="4.84643">
        <ele>170.8</ele>
        <time>2024-09-20T10:03:49Z</time>
      </trkpt>
      <trkpt lat="45.76173" lon="4.8465">
        <ele>170.8</ele>
        <time>2024-09-20T10:03:50Z</time>
      </trkpt>
      <trkpt lat="45.76173" lon="4.84657">
        <ele>170.8</ele>
        <time>2024-09-20T10:03:51Z</time>
      </trkpt>
      <trkpt lat="45.76174" lon="4.84664">
        <ele>170.2</ele>
        <time>2024-09-20T10:03:52Z</time>
      </trkpt>
      <trkpt lat="45.76174" lon="4.84672">
        <ele>170.2</ele>
        <time>2024-09-20T10:03:53Z</time>
      </trkpt>
      <trkpt lat="45.76175" lon="4.84679">
        <ele>170.4</ele>
        <time>2024-09-20T10:03:54Z</time>
      </trkpt>
      <trkpt lat="45.76176" lon="4.84687">
        <ele>170</ele>
        <time>2024-09-20T10:03:55Z</time>
      </trkpt>
      <trkpt lat="45.76177" lon="4.84694">
        <ele>170</ele>
        <time>2024-09-20T10:03:56Z</time>
      </trkpt>
      <trkpt lat="45.76178" lon="4.84702">
        <ele>170</ele>
        <time>2024-09-20T10:03:57Z</time>
      </trkpt>
      <trkpt lat="45.76178" lon="4.84709">
        <ele>170</ele>
        <time>2024-09-20T10:03:58Z</time>
      </trkpt>
      <trkpt lat="45.76178" lon="4.84717">
        <ele>170.2</ele>
        <time>2024-09-20T10:03:59Z</time>
      </trkpt>
      <trkpt lat="45.76179" lon="4.84725">
        <ele>170.2</ele>
        <time>2024-09-20T10:04:00Z</time>
      </trkpt>
      <trkpt lat="45.7618" lon="4.84733">
        <ele>170.2</ele>
        <time>2024-09-20T10:04:01Z</time>
      </trkpt>
      <trkpt lat="45.76181" lon="4.8474">
        <ele>170.2</ele>
        <time>2024-09-20T10:04:02Z</time>
      </trkpt>
      <trkpt lat="45.76181" lon="4.84748">
        <ele>170.2</ele>
        <time>2024-09-20T10:04:03Z</time>
      </trkpt>
      <trkpt lat="45.76181" lon="4.84756">
        <ele>170.2</ele>
        <time>2024-09-20T10:04:04Z</time>
      </trkpt>
      <trkpt lat="45.76181" lon="4.84764">
        <ele>170.6</ele>
        <time>2024-09-20T10:04:05Z</time>
      </trkpt>
      <trkpt lat="45.76182" lon="4.84772">
        <ele>170.6</ele>
        <time>2024-09-20T10:04:06Z</time>
      </trkpt>
      <trkpt lat="45.76183" lon="4.84779">
        <ele>170.6</ele>
        <time>2024-09-20T10:04:07Z</time>
      </trkpt>
      <trkpt lat="45.76183" lon="4.84787">
        <ele>170.2</ele>
        <time>2024-09-20T10:04:08Z</time>
      </trkpt>
      <trkpt lat="45.76184" lon="4.84795">
        <ele>170.2</ele>
        <time>2024-09-20T10:04:09Z</time>
      </trkpt>
      <trkpt lat="45.76184" lon="4.84802">
        <ele>170.2</ele>
        <time>2024-09-20T10:04:10Z</time>
      </trkpt>
      <trkpt lat="45.76184" lon="4.84809">
        <ele>170.2</ele>
        <time>2024-09-20T10:04:11Z</time>
      </trkpt>
      <trkpt lat="45.76185" lon="4.84817">
        <ele>170.2</ele>
        <time>2024-09-20T10:04:12Z</time>
      </trkpt>
      <trkpt lat="45.76185" lon="4.84824">
        <ele>170.4</ele>
        <time>2024-09-20T10:04:13Z</time>
      </trkpt>
      <trkpt lat="45.76186" lon="4.84831">
        <ele>170.4</ele>
        <time>2024-09-20T10:04:14Z</time>
      </trkpt>
      <trkpt lat="45.76187" lon="4.84839">
        <ele>170.4</ele>
        <time>2024-09-20T10:04:15Z</time>
      </trkpt>
      <trkpt lat="45.76187" lon="4.84846">
        <ele>170.4</ele>
        <time>2024-09-20T10:04:16Z</time>
      </trkpt>
      <trkpt lat="45.76188" lon="4.84854">
        <ele>170.4</ele>
        <time>2024-09-20T10:04:17Z</time>
      </trkpt>
      <trkpt lat="45.76189" lon="4.84861">
        <ele>170.6</ele>
        <time>2024-09-20T10:04:18Z</time>
      </trkpt>
      <trkpt lat="45.76189" lon="4.84868">
        <ele>170.6</ele>
        <time>2024-09-20T10:04:19Z</time>
      </trkpt>
      <trkpt lat="45.76189" lon="4.84875">
        <ele>170.6</ele>
        <time>2024-09-20T10:04:20Z</time>
      </trkpt>
      <trkpt lat="45.7619" lon="4.84882">
        <ele>170.6</ele>
        <time>2024-09-20T10:04:21Z</time>
      </trkpt>
      <trkpt lat="45.76191" lon="4.8489">
        <ele>170.6</ele>
        <time>2024-09-20T10:04:22Z</time>
      </trkpt>
      <trkpt lat="45.76191" lon="4.84897">
        <ele>170.6</ele>
        <time>2024-09-20T10:04:23Z</time>
      </trkpt>
      <trkpt lat="45.76191" lon="4.84904">
        <ele>170.6</ele>
        <time>2024-09-20T10:04:24Z</time>
      </trkpt>
      <trkpt lat="45.76191" lon="4.84912">
        <ele>170.6</ele>
        <time>2024-09-20T10:04:25Z</time>
      </trkpt>
      <trkpt lat="45.76191" lon="4.84919">
        <ele>170.6</ele>
        <time>2024-09-20T10:04:26Z</time>
      </trkpt>
      <trkpt lat="45.76192" lon="4.84926">
        <ele>170.6</ele>
        <time>2024-09-20T10:04:27Z</time>
      </trkpt>
      <trkpt lat="45.76192" lon="4.84933">
        <ele>170.8</ele>
        <time>2024-09-20T10:04:28Z</time>
      </trkpt>
      <trkpt lat="45.76193" lon="4.8494">
        <ele>170.8</ele>
        <time>2024-09-20T10:04:29Z</time>
      </trkpt>
      <trkpt lat="45.76192" lon="4.84947">
        <ele>171</ele>
        <time>2024-09-20T10:04:30Z</time>
      </trkpt>
      <trkpt lat="45.76192" lon="4.84954">
        <ele>171</ele>
        <time>2024-09-20T10:04:31Z</time>
      </trkpt>
      <trkpt lat="45.76193" lon="4.8496">
        <ele>171</ele>
        <time>2024-09-20T10:04:32Z</time>
      </trkpt>
      <trkpt lat="45.76194" lon="4.84967">
        <ele>171</ele>
        <time>2024-09-20T10:04:33Z</time>
      </trkpt>
      <trkpt lat="45.76194" lon="4.84974">
        <ele>171</ele>
        <time>2024-09-20T10:04:34Z</time>
      </trkpt>
      <trkpt lat="45.76195" lon="4.84981">
        <ele>171</ele>
        <time>2024-09-20T10:04:35Z</time>
      </trkpt>
      <trkpt lat="45.76195" lon="4.84988">
        <ele>171</ele>
        <time>2024-09-20T10:04:36Z</time>
      </trkpt>
      <trkpt lat="45.76196" lon="4.84994">
        <ele>171</ele>
        <time>2024-09-20T10:04:37Z</time>
      </trkpt>
      <trkpt lat="45.76196" lon="4.85002">
        <ele>171</ele>
        <time>2024-09-20T10:04:38Z</time>
      </trkpt>
      <trkpt lat="45.76197" lon="4.85009">
        <ele>170.8</ele>
        <time>2024-09-20T10:04:39Z</time>
      </trkpt>
      <trkpt lat="45.76198" lon="4.85015">
        <ele>171</ele>
        <time>2024-09-20T10:04:40Z</time>
      </trkpt>
      <trkpt lat="45.76199" lon="4.85022">
        <ele>171</ele>
        <time>2024-09-20T10:04:41Z</time>
      </trkpt>
      <trkpt lat="45.76199" lon="4.85027">
        <ele>171</ele>
        <time>2024-09-20T10:04:42Z</time>
      </trkpt>
      <trkpt lat="45.76199" lon="4.8503">
        <ele>171</ele>
        <time>2024-09-20T10:04:43Z</time>
      </trkpt>
      <trkpt lat="45.762" lon="4.85033">
        <ele>171</ele>
        <time>2024-09-20T10:04:44Z</time>
      </trkpt>
      <trkpt lat="45.762" lon="4.85035">
        <ele>171</ele>
        <time>2024-09-20T10:04:45Z</time>
      </trkpt>
      <trkpt lat="45.762" lon="4.85037">
        <ele>171</ele>
        <time>2024-09-20T10:04:46Z</time>
      </trkpt>
      <trkpt lat="45.762" lon="4.85037">
        <ele>171</ele>
        <time>2024-09-20T10:04:47Z</time>
      </trkpt>
      <trkpt lat="45.762" lon="4.85037">
        <ele>171</ele>
        <time>2024-09-20T10:04:48Z</time>
      </trkpt>
      <trkpt lat="45.76201" lon="4.85042">
        <ele>170.4</ele>
        <time>2024-09-20T10:05:07Z</time>
      </trkpt>
      <trkpt lat="45.76202" lon="4.85044">
        <ele>170.4</ele>
        <time>2024-09-20T10:05:08Z</time>
      </trkpt>
      <trkpt lat="45.76203" lon="4.85046">
        <ele>170.4</ele>
        <time>2024-09-20T10:05:09Z</time>
      </trkpt>
      <trkpt lat="45.76204" lon="4.85049">
        <ele>170.4</ele>
        <time>2024-09-20T10:05:10Z</time>
      </trkpt>
      <trkpt lat="45.76206" lon="4.85051">
        <ele>169.8</ele>
        <time>2024-09-20T10:05:11Z</time>
      </trkpt>
      <trkpt lat="45.76207" lon="4.85053">
        <ele>169.8</ele>
        <time>2024-09-20T10:05:12Z</time>
      </trkpt>
      <trkpt lat="45.76209" lon="4.85056">
        <ele>169.8</ele>
        <time>2024-09-20T10:05:13Z</time>
      </trkpt>
      <trkpt lat="45.76211" lon="4.85058">
        <ele>169.8</ele>
        <time>2024-09-20T10:05:14Z</time>
      </trkpt>
      <trkpt lat="45.76213" lon="4.8506">
        <ele>170</ele>
        <time>2024-09-20T10:05:15Z</time>
      </trkpt>
      <trkpt lat="45.76215" lon="4.85062">
        <ele>170</ele>
        <time>2024-09-20T10:05:16Z</time>
      </trkpt>
      <trkpt lat="45.76216" lon="4.85065">
        <ele>170</ele>
        <time>2024-09-20T10:05:17Z</time>
      </trkpt>
      <trkpt lat="45.76217" lon="4.85068">
        <ele>170</ele>
        <time>2024-09-20T10:05:18Z</time>
      </trkpt>
      <trkpt lat="45.76217" lon="4.85071">
        <ele>170</ele>
        <time>2024-09-20T10:05:19Z</time>
      </trkpt>
      <trkpt lat="45.76217" lon="4.85074">
        <ele>170</ele>
        <time>2024-09-20T10:05:20Z</time>
      </trkpt>
      <trkpt lat="45.76218" lon="4.85077">
        <ele>170.2</ele>
        <time>2024-09-20T10:05:21Z</time>
      </trkpt>
      <trkpt lat="45.76219" lon="4.8508">
        <ele>170.2</ele>
        <time>2024-09-20T10:05:22Z</time>
      </trkpt>
      <trkpt lat="45.76218" lon="4.85082">
        <ele>170.2</ele>
        <time>2024-09-20T10:05:23Z</time>
      </trkpt>
      <trkpt lat="45.76216" lon="4.85084">
        <ele>170.2</ele>
        <time>2024-09-20T10:05:24Z</time>
      </trkpt>
      <trkpt lat="45.76214" lon="4.85086">
        <ele>170.2</ele>
        <time>2024-09-20T10:05:25Z</time>
      </trkpt>
      <trkpt lat="45.76213" lon="4.85088">
        <ele>170.2</ele>
        <time>2024-09-20T10:05:26Z</time>
      </trkpt>
      <trkpt lat="45.76213" lon="4.85092">
        <ele>170.2</ele>
        <time>2024-09-20T10:05:27Z</time>
      </trkpt>
      <trkpt lat="45.76214" lon="4.85095">
        <ele>170.2</ele>
        <time>2024-09-20T10:05:28Z</time>
      </trkpt>
      <trkpt lat="45.76215" lon="4.85098">
        <ele>170.2</ele>
        <time>2024-09-20T10:05:29Z</time>
      </trkpt>
      <trkpt lat="45.76217" lon="4.85101">
        <ele>170.2</ele>
        <time>2024-09-20T10:05:30Z</time>
      </trkpt>
      <trkpt lat="45.76219" lon="4.85104">
        <ele>170.2</ele>
        <time>2024-09-20T10:05:31Z</time>
      </trkpt>
      <trkpt lat="45.76221" lon="4.85106">
        <ele>170.2</ele>
        <time>2024-09-20T10:05:32Z</time>
      </trkpt>
      <trkpt lat="45.76224" lon="4.85107">
        <ele>170.2</ele>
        <time>2024-09-20T10:05:33Z</time>
      </trkpt>
      <trkpt lat="45.76227" lon="4.85109">
        <ele>170</ele>
        <time>2024-09-20T10:05:34Z</time>
      </trkpt>
      <trkpt lat="45.76229" lon="4.85111">
        <ele>170</ele>
        <time>2024-09-20T10:05:35Z</time>
      </trkpt>
      <trkpt lat="45.76231" lon="4.85113">
        <ele>170</ele>
        <time>2024-09-20T10:05:36Z</time>
      </trkpt>
      <trkpt lat="45.76233" lon="4.85115">
        <ele>170.2</ele>
        <time>2024-09-20T10:05:37Z</time>
      </trkpt>
      <trkpt lat="45.76235" lon="4.85117">
        <ele>170.2</ele>
        <time>2024-09-20T10:05:38Z</time>
      </trkpt>
      <trkpt lat="45.76237" lon="4.85118">
        <ele>170.2</ele>
        <time>2024-09-20T10:05:39Z</time>
      </trkpt>
      <trkpt lat="45.76238" lon="4.85119">
        <ele>170.2</ele>
        <time>2024-09-20T10:05:40Z</time>
      </trkpt>
      <trkpt lat="45.76237" lon="4.85122">
        <ele>170.2</ele>
        <time>2024-09-20T10:05:41Z</time>
      </trkpt>
      <trkpt lat="45.76236" lon="4.85124">
        <ele>170.4</ele>
        <time>2024-09-20T10:05:42Z</time>
      </trkpt>
      <trkpt lat="45.76235" lon="4.85127">
        <ele>170.4</ele>
        <time>2024-09-20T10:05:43Z</time>
      </trkpt>
      <trkpt lat="45.76234" lon="4.85131">
        <ele>170.4</ele>
        <time>2024-09-20T10:05:44Z</time>
      </trkpt>
      <trkpt lat="45.76232" lon="4.85135">
        <ele>170.4</ele>
        <time>2024-09-20T10:05:45Z</time>
      </trkpt>
      <trkpt lat="45.7623" lon="4.85139">
        <ele>170.4</ele>
        <time>2024-09-20T10:05:46Z</time>
      </trkpt>
      <trkpt lat="45.76228" lon="4.85143">
        <ele>170.4</ele>
        <time>2024-09-20T10:05:47Z</time>
      </trkpt>
      <trkpt lat="45.76226" lon="4.85148">
        <ele>170.4</ele>
        <time>2024-09-20T10:05:48Z</time>
      </trkpt>
      <trkpt lat="45.76224" lon="4.85152">
        <ele>170.4</ele>
        <time>2024-09-20T10:05:49Z</time>
      </trkpt>
      <trkpt lat="45.76222" lon="4.85156">
        <ele>170.4</ele>
        <time>2024-09-20T10:05:50Z</time>
      </trkpt>
      <trkpt lat="45.76221" lon="4.8516">
        <ele>170.4</ele>
        <time>2024-09-20T10:05:51Z</time>
      </trkpt>
      <trkpt lat="45.76221" lon="4.85164">
        <ele>170.4</ele>
        <time>2024-09-20T10:05:52Z</time>
      </trkpt>
      <trkpt lat="45.76221" lon="4.85168">
        <ele>170.4</ele>
        <time>2024-09-20T10:05:53Z</time>
      </trkpt>
      <trkpt lat="45.76221" lon="4.85171">
        <ele>170.4</ele>
        <time>2024-09-20T10:05:54Z</time>
      </trkpt>
      <trkpt lat="45.76222" lon="4.85173">
        <ele>170.4</ele>
        <time>2024-09-20T10:05:55Z</time>
      </trkpt>
      <trkpt lat="45.76222" lon="4.85176">
        <ele>170.4</ele>
        <time>2024-09-20T10:05:56Z</time>
      </trkpt>
      <trkpt lat="45.76222" lon="4.85179">
        <ele>170.4</ele>
        <time>2024-09-20T10:05:57Z</time>
      </trkpt>
      <trkpt lat="45.76222" lon="4.85182">
        <ele>170.4</ele>
        <time>2024-09-20T10:05:58Z</time>
      </trkpt>
      <trkpt lat="45.76222" lon="4.85185">
        <ele>170.4</ele>
        <time>2024-09-20T10:05:59Z</time>
      </trkpt>
      <trkpt lat="45.76222" lon="4.85187">
        <ele>170.4</ele>
        <time>2024-09-20T10:06:00Z</time>
      </trkpt>
      <trkpt lat="45.76222" lon="4.8519">
        <ele>170.6</ele>
        <time>2024-09-20T10:06:01Z</time>
      </trkpt>
      <trkpt lat="45.76222" lon="4.85192">
        <ele>170.6</ele>
        <time>2024-09-20T10:06:02Z</time>
      </trkpt>
      <trkpt lat="45.76222" lon="4.85195">
        <ele>170.6</ele>
        <time>2024-09-20T10:06:03Z</time>
      </trkpt>
      <trkpt lat="45.76223" lon="4.85198">
        <ele>170.6</ele>
        <time>2024-09-20T10:06:04Z</time>
      </trkpt>
      <trkpt lat="45.76222" lon="4.85201">
        <ele>170.6</ele>
        <time>2024-09-20T10:06:05Z</time>
      </trkpt>
      <trkpt lat="45.76222" lon="4.85204">
        <ele>170.6</ele>
        <time>2024-09-20T10:06:06Z</time>
      </trkpt>
      <trkpt lat="45.76222" lon="4.85206">
        <ele>170.4</ele>
        <time>2024-09-20T10:06:07Z</time>
      </trkpt>
      <trkpt lat="45.76221" lon="4.85208">
        <ele>170.4</ele>
        <time>2024-09-20T10:06:08Z</time>
      </trkpt>
      <trkpt lat="45.7622" lon="4.85209">
        <ele>170</ele>
        <time>2024-09-20T10:06:09Z</time>
      </trkpt>
      <trkpt lat="45.76219" lon="4.8521">
        <ele>170</ele>
        <time>2024-09-20T10:06:10Z</time>
      </trkpt>
      <trkpt lat="45.76218" lon="4.8521">
        <ele>170</ele>
        <time>2024-09-20T10:06:11Z</time>
      </trkpt>
      <trkpt lat="45.76217" lon="4.85211">
        <ele>170</ele>
        <time>2024-09-20T10:06:12Z</time>
      </trkpt>
      <trkpt lat="45.76217" lon="4.85211">
        <ele>170</ele>
        <time>2024-09-20T10:06:13Z</time>
      </trkpt>
      <trkpt lat="45.76216" lon="4.85211">
        <ele>170</ele>
        <time>2024-09-20T10:06:14Z</time>
      </trkpt>
      <trkpt lat="45.76215" lon="4.85211">
        <ele>172</ele>
        <time>2024-09-20T10:06:15Z</time>
      </trkpt>
      <trkpt lat="45.76213" lon="4.85212">
        <ele>172</ele>
        <time>2024-09-20T10:06:16Z</time>
      </trkpt>
      <trkpt lat="45.76212" lon="4.85213">
        <ele>172</ele>
        <time>2024-09-20T10:06:17Z</time>
      </trkpt>
      <trkpt lat="45.7621" lon="4.85215">
        <ele>171</ele>
        <time>2024-09-20T10:06:18Z</time>
      </trkpt>
      <trkpt lat="45.76209" lon="4.85216">
        <ele>170.8</ele>
        <time>2024-09-20T10:06:19Z</time>
      </trkpt>
      <trkpt lat="45.76208" lon="4.85218">
        <ele>170.8</ele>
        <time>2024-09-20T10:06:20Z</time>
      </trkpt>
      <trkpt lat="45.76207" lon="4.8522">
        <ele>170.8</ele>
        <time>2024-09-20T10:06:21Z</time>
      </trkpt>
      <trkpt lat="45.76206" lon="4.85223">
        <ele>170</ele>
        <time>2024-09-20T10:06:22Z</time>
      </trkpt>
      <trkpt lat="45.76207" lon="4.85227">
        <ele>170</ele>
        <time>2024-09-20T10:06:23Z</time>
      </trkpt>
      <trkpt lat="45.76207" lon="4.8523">
        <ele>170</ele>
        <time>2024-09-20T10:06:24Z</time>
      </trkpt>
      <trkpt lat="45.76207" lon="4.85234">
        <ele>170</ele>
        <time>2024-09-20T10:06:25Z</time>
      </trkpt>
      <trkpt lat="45.76208" lon="4.85238">
        <ele>169.4</ele>
        <time>2024-09-20T10:06:26Z</time>
      </trkpt>
      <trkpt lat="45.76208" lon="4.85242">
        <ele>169.4</ele>
        <time>2024-09-20T10:06:27Z</time>
      </trkpt>
      <trkpt lat="45.76209" lon="4.85247">
        <ele>169.4</ele>
        <time>2024-09-20T10:06:28Z</time>
      </trkpt>
      <trkpt lat="45.7621" lon="4.85251">
        <ele>169.4</ele>
        <time>2024-09-20T10:06:29Z</time>
      </trkpt>
      <trkpt lat="45.76211" lon="4.85256">
        <ele>169.4</ele>
        <time>2024-09-20T10:06:30Z</time>
      </trkpt>
      <trkpt lat="45.76211" lon="4.85261">
        <ele>169.4</ele>
        <time>2024-09-20T10:06:31Z</time>
      </trkpt>
      <trkpt lat="45.76211" lon="4.85267">
        <ele>168.8</ele>
        <time>2024-09-20T10:06:32Z</time>
      </trkpt>
      <trkpt lat="45.76211" lon="4.85273">
        <ele>168.2</ele>
        <time>2024-09-20T10:06:33Z</time>
      </trkpt>
      <trkpt lat="45.76211" lon="4.85278">
        <ele>168.2</ele>
        <time>2024-09-20T10:06:34Z</time>
      </trkpt>
      <trkpt lat="45.76212" lon="4.85283">
        <ele>168.2</ele>
        <time>2024-09-20T10:06:35Z</time>
      </trkpt>
      <trkpt lat="45.76213" lon="4.85289">
        <ele>168.8</ele>
        <time>2024-09-20T10:06:36Z</time>
      </trkpt>
      <trkpt lat="45.76214" lon="4.85294">
        <ele>168.8</ele>
        <time>2024-09-20T10:06:37Z</time>
      </trkpt>
      <trkpt lat="45.76214" lon="4.853">
        <ele>168.8</ele>
        <time>2024-09-20T10:06:38Z</time>
      </trkpt>
      <trkpt lat="45.76215" lon="4.85305">
        <ele>168.8</ele>
        <time>2024-09-20T10:06:39Z</time>
      </trkpt>
      <trkpt lat="45.76215" lon="4.8531">
        <ele>168.8</ele>
        <time>2024-09-20T10:06:40Z</time>
      </trkpt>
      <trkpt lat="45.76217" lon="4.85316">
        <ele>169</ele>
        <time>2024-09-20T10:06:41Z</time>
      </trkpt>
      <trkpt lat="45.76217" lon="4.85321">
        <ele>168.6</ele>
        <time>2024-09-20T10:06:42Z</time>
      </trkpt>
      <trkpt lat="45.76218" lon="4.85327">
        <ele>168.6</ele>
        <time>2024-09-20T10:06:43Z</time>
      </trkpt>
      <trkpt lat="45.76219" lon="4.85333">
        <ele>168.6</ele>
        <time>2024-09-20T10:06:44Z</time>
      </trkpt>
      <trkpt lat="45.76219" lon="4.85339">
        <ele>168.6</ele>
        <time>2024-09-20T10:06:45Z</time>
      </trkpt>
      <trkpt lat="45.7622" lon="4.85345">
        <ele>168.4</ele>
        <time>2024-09-20T10:06:46Z</time>
      </trkpt>
      <trkpt lat="45.76221" lon="4.85351">
        <ele>168.4</ele>
        <time>2024-09-20T10:06:47Z</time>
      </trkpt>
      <trkpt lat="45.76222" lon="4.85358">
        <ele>168.4</ele>
        <time>2024-09-20T10:06:48Z</time>
      </trkpt>
      <trkpt lat="45.76223" lon="4.85363">
        <ele>168.4</ele>
        <time>2024-09-20T10:06:49Z</time>
      </trkpt>
      <trkpt lat="45.76224" lon="4.85369">
        <ele>168.4</ele>
        <time>2024-09-20T10:06:50Z</time>
      </trkpt>
      <trkpt lat="45.76225" lon="4.85375">
        <ele>168.4</ele>
        <time>2024-09-20T10:06:51Z</time>
      </trkpt>
      <trkpt lat="45.76226" lon="4.8538">
        <ele>168.4</ele>
        <time>2024-09-20T10:06:52Z</time>
      </trkpt>
      <trkpt lat="45.76226" lon="4.85384">
        <ele>168.4</ele>
        <time>2024-09-20T10:06:53Z</time>
      </trkpt>
      <trkpt lat="45.76225" lon="4.85389">
        <ele>168.4</ele>
        <time>2024-09-20T10:06:54Z</time>
      </trkpt>
      <trkpt lat="45.76226" lon="4.85394">
        <ele>168.4</ele>
        <time>2024-09-20T10:06:55Z</time>
      </trkpt>
      <trkpt lat="45.76227" lon="4.85399">
        <ele>168.6</ele>
        <time>2024-09-20T10:06:56Z</time>
      </trkpt>
      <trkpt lat="45.76227" lon="4.85404">
        <ele>168.6</ele>
        <time>2024-09-20T10:06:57Z</time>
      </trkpt>
      <trkpt lat="45.76228" lon="4.85409">
        <ele>168.6</ele>
        <time>2024-09-20T10:06:58Z</time>
      </trkpt>
      <trkpt lat="45.76229" lon="4.85414">
        <ele>168.6</ele>
        <time>2024-09-20T10:06:59Z</time>
      </trkpt>
      <trkpt lat="45.7623" lon="4.85419">
        <ele>168.4</ele>
        <time>2024-09-20T10:07:00Z</time>
      </trkpt>
      <trkpt lat="45.76231" lon="4.85422">
        <ele>168.4</ele>
        <time>2024-09-20T10:07:01Z</time>
      </trkpt>
      <trkpt lat="45.76231" lon="4.85426">
        <ele>168.4</ele>
        <time>2024-09-20T10:07:02Z</time>
      </trkpt>
      <trkpt lat="45.76232" lon="4.85429">
        <ele>168.4</ele>
        <time>2024-09-20T10:07:03Z</time>
      </trkpt>
      <trkpt lat="45.76233" lon="4.85431">
        <ele>168.2</ele>
        <time>2024-09-20T10:07:04Z</time>
      </trkpt>
      <trkpt lat="45.76233" lon="4.85433">
        <ele>168.2</ele>
        <time>2024-09-20T10:07:05Z</time>
      </trkpt>
      <trkpt lat="45.76233" lon="4.85433">
        <ele>168.2</ele>
        <time>2024-09-20T10:07:06Z</time>
      </trkpt>
      <trkpt lat="45.76233" lon="4.85433">
        <ele>168.2</ele>
        <time>2024-09-20T10:07:07Z</time>
      </trkpt>
      <trkpt lat="45.76237" lon="4.85425">
        <ele>168.6</ele>
        <time>2024-09-20T10:07:30Z</time>
      </trkpt>
      <trkpt lat="45.76238" lon="4.85422">
        <ele>168.6</ele>
        <time>2024-09-20T10:07:31Z</time>
      </trkpt>
      <trkpt lat="45.76238" lon="4.85418">
        <ele>168.6</ele>
        <time>2024-09-20T10:07:32Z</time>
      </trkpt>
      <trkpt lat="45.76238" lon="4.85414">
        <ele>168.6</ele>
        <time>2024-09-20T10:07:33Z</time>
      </trkpt>
      <trkpt lat="45.76239" lon="4.85409">
        <ele>168.6</ele>
        <time>2024-09-20T10:07:34Z</time>
      </trkpt>
      <trkpt lat="45.76239" lon="4.85405">
        <ele>168.8</ele>
        <time>2024-09-20T10:07:35Z</time>
      </trkpt>
      <trkpt lat="45.76239" lon="4.854">
        <ele>168.8</ele>
        <time>2024-09-20T10:07:36Z</time>
      </trkpt>
      <trkpt lat="45.76238" lon="4.85395">
        <ele>168.8</ele>
        <time>2024-09-20T10:07:37Z</time>
      </trkpt>
      <trkpt lat="45.76238" lon="4.8539">
        <ele>168.8</ele>
        <time>2024-09-20T10:07:38Z</time>
      </trkpt>
      <trkpt lat="45.76238" lon="4.85386">
        <ele>168.8</ele>
        <time>2024-09-20T10:07:39Z</time>
      </trkpt>
      <trkpt lat="45.76238" lon="4.85382">
        <ele>168.8</ele>
        <time>2024-09-20T10:07:40Z</time>
      </trkpt>
      <trkpt lat="45.76237" lon="4.85378">
        <ele>168.8</ele>
        <time>2024-09-20T10:07:41Z</time>
      </trkpt>
      <trkpt lat="45.76237" lon="4.85374">
        <ele>168.8</ele>
        <time>2024-09-20T10:07:42Z</time>
      </trkpt>
      <trkpt lat="45.76237" lon="4.85369">
        <ele>168.8</ele>
        <time>2024-09-20T10:07:43Z</time>
      </trkpt>
      <trkpt lat="45.76236" lon="4.85365">
        <ele>168.8</ele>
        <time>2024-09-20T10:07:44Z</time>
      </trkpt>
      <trkpt lat="45.76236" lon="4.8536">
        <ele>168.8</ele>
        <time>2024-09-20T10:07:45Z</time>
      </trkpt>
      <trkpt lat="45.76236" lon="4.85356">
        <ele>168.8</ele>
        <time>2024-09-20T10:07:46Z</time>
      </trkpt>
      <trkpt lat="45.76235" lon="4.85351">
        <ele>168.8</ele>
        <time>2024-09-20T10:07:47Z</time>
      </trkpt>
      <trkpt lat="45.76234" lon="4.85347">
        <ele>168.8</ele>
        <time>2024-09-20T10:07:48Z</time>
      </trkpt>
      <trkpt lat="45.76232" lon="4.85342">
        <ele>168.6</ele>
        <time>2024-09-20T10:07:49Z</time>
      </trkpt>
      <trkpt lat="45.76231" lon="4.85337">
        <ele>168.6</ele>
        <time>2024-09-20T10:07:50Z</time>
      </trkpt>
      <trkpt lat="45.7623" lon="4.85333">
        <ele>168.6</ele>
        <time>2024-09-20T10:07:51Z</time>
      </trkpt>
      <trkpt lat="45.76228" lon="4.85328">
        <ele>168.6</ele>
        <time>2024-09-20T10:07:52Z</time>
      </trkpt>
      <trkpt lat="45.76227" lon="4.85324">
        <ele>169</ele>
        <time>2024-09-20T10:07:53Z</time>
      </trkpt>
      <trkpt lat="45.76226" lon="4.85318">
        <ele>169</ele>
        <time>2024-09-20T10:07:54Z</time>
      </trkpt>
      <trkpt lat="45.76226" lon="4.85313">
        <ele>169</ele>
        <time>2024-09-20T10:07:55Z</time>
      </trkpt>
      <trkpt lat="45.76227" lon="4.85308">
        <ele>169</ele>
        <time>2024-09-20T10:07:56Z</time>
      </trkpt>
      <trkpt lat="45.76227" lon="4.85302">
        <ele>169</ele>
        <time>2024-09-20T10:07:57Z</time>
      </trkpt>
      <trkpt lat="45.76226" lon="4.85297">
        <ele>169</ele>
        <time>2024-09-20T10:07:58Z</time>
      </trkpt>
      <trkpt lat="45.76224" lon="4.85292">
        <ele>169</ele>
        <time>2024-09-20T10:07:59Z</time>
      </trkpt>
      <trkpt lat="45.76223" lon="4.85288">
        <ele>169</ele>
        <time>2024-09-20T10:08:00Z</time>
      </trkpt>
      <trkpt lat="45.76222" lon="4.85283">
        <ele>169.2</ele>
        <time>2024-09-20T10:08:01Z</time>
      </trkpt>
      <trkpt lat="45.76221" lon="4.85278">
        <ele>169.2</ele>
        <time>2024-09-20T10:08:02Z</time>
      </trkpt>
      <trkpt lat="45.76221" lon="4.85272">
        <ele>169.2</ele>
        <time>2024-09-20T10:08:03Z</time>
      </trkpt>
      <trkpt lat="45.7622" lon="4.85268">
        <ele>169.6</ele>
        <time>2024-09-20T10:08:04Z</time>
      </trkpt>
      <trkpt lat="45.7622" lon="4.85263">
        <ele>169.4</ele>
        <time>2024-09-20T10:08:05Z</time>
      </trkpt>
      <trkpt lat="45.76219" lon="4.85259">
        <ele>169.4</ele>
        <time>2024-09-20T10:08:06Z</time>
      </trkpt>
      <trkpt lat="45.76219" lon="4.85254">
        <ele>169.4</ele>
        <time>2024-09-20T10:08:07Z</time>
      </trkpt>
      <trkpt lat="45.76218" lon="4.8525">
        <ele>169.4</ele>
        <time>2024-09-20T10:08:08Z</time>
      </trkpt>
      <trkpt lat="45.76217" lon="4.85245">
        <ele>169.4</ele>
        <time>2024-09-20T10:08:09Z</time>
      </trkpt>
      <trkpt lat="45.76217" lon="4.85241">
        <ele>169</ele>
        <time>2024-09-20T10:08:10Z</time>
      </trkpt>
      <trkpt lat="45.76216" lon="4.85236">
        <ele>169</ele>
        <time>2024-09-20T10:08:11Z</time>
      </trkpt>
      <trkpt lat="45.76216" lon="4.85231">
        <ele>169</ele>
        <time>2024-09-20T10:08:12Z</time>
      </trkpt>
      <trkpt lat="45.76215" lon="4.85226">
        <ele>169.4</ele>
        <time>2024-09-20T10:08:13Z</time>
      </trkpt>
      <trkpt lat="45.76215" lon="4.85222">
        <ele>169.4</ele>
        <time>2024-09-20T10:08:14Z</time>
      </trkpt>
      <trkpt lat="45.76215" lon="4.85218">
        <ele>169.8</ele>
        <time>2024-09-20T10:08:15Z</time>
      </trkpt>
      <trkpt lat="45.76215" lon="4.85215">
        <ele>169.8</ele>
        <time>2024-09-20T10:08:16Z</time>
      </trkpt>
      <trkpt lat="45.76216" lon="4.85212">
        <ele>169.8</ele>
        <time>2024-09-20T10:08:17Z</time>
      </trkpt>
      <trkpt lat="45.76217" lon="4.8521">
        <ele>170.4</ele>
        <time>2024-09-20T10:08:18Z</time>
      </trkpt>
      <trkpt lat="45.76217" lon="4.8521">
        <ele>170.4</ele>
        <time>2024-09-20T10:08:19Z</time>
      </trkpt>
      <trkpt lat="45.76218" lon="4.8521">
        <ele>170.6</ele>
        <time>2024-09-20T10:08:20Z</time>
      </trkpt>
      <trkpt lat="45.76218" lon="4.8521">
        <ele>170.6</ele>
        <time>2024-09-20T10:08:21Z</time>
      </trkpt>
      <trkpt lat="45.76219" lon="4.8521">
        <ele>170.6</ele>
        <time>2024-09-20T10:08:22Z</time>
      </trkpt>
      <trkpt lat="45.7622" lon="4.85209">
        <ele>170.6</ele>
        <time>2024-09-20T10:08:23Z</time>
      </trkpt>
      <trkpt lat="45.76221" lon="4.85209">
        <ele>171</ele>
        <time>2024-09-20T10:08:24Z</time>
      </trkpt>
      <trkpt lat="45.76222" lon="4.85208">
        <ele>171</ele>
        <time>2024-09-20T10:08:25Z</time>
      </trkpt>
      <trkpt lat="45.76223" lon="4.85207">
        <ele>171</ele>
        <time>2024-09-20T10:08:26Z</time>
      </trkpt>
      <trkpt lat="45.76225" lon="4.85206">
        <ele>171</ele>
        <time>2024-09-20T10:08:27Z</time>
      </trkpt>
      <trkpt lat="45.76227" lon="4.85206">
        <ele>171</ele>
        <time>2024-09-20T10:08:28Z</time>
      </trkpt>
      <trkpt lat="45.76229" lon="4.85205">
        <ele>171</ele>
        <time>2024-09-20T10:08:29Z</time>
      </trkpt>
      <trkpt lat="45.76232" lon="4.85204">
        <ele>171</ele>
        <time>2024-09-20T10:08:30Z</time>
      </trkpt>
      <trkpt lat="45.76235" lon="4.85203">
        <ele>171</ele>
        <time>2024-09-20T10:08:31Z</time>
      </trkpt>
      <trkpt lat="45.76238" lon="4.85203">
        <ele>170.6</ele>
        <time>2024-09-20T10:08:32Z</time>
      </trkpt>
      <trkpt lat="45.76242" lon="4.85202">
        <ele>170.6</ele>
        <time>2024-09-20T10:08:33Z</time>
      </trkpt>
      <trkpt lat="45.76245" lon="4.85201">
        <ele>170.6</ele>
        <time>2024-09-20T10:08:34Z</time>
      </trkpt>
      <trkpt lat="45.76249" lon="4.85201">
        <ele>170.6</ele>
        <time>2024-09-20T10:08:35Z</time>
      </trkpt>
      <trkpt lat="45.76253" lon="4.852">
        <ele>170.6</ele>
        <time>2024-09-20T10:08:36Z</time>
      </trkpt>
      <trkpt lat="45.76257" lon="4.852">
        <ele>170.4</ele>
        <time>2024-09-20T10:08:37Z</time>
      </trkpt>
      <trkpt lat="45.76261" lon="4.852">
        <ele>170.4</ele>
        <time>2024-09-20T10:08:38Z</time>
      </trkpt>
      <trkpt lat="45.76264" lon="4.85202">
        <ele>170.4</ele>
        <time>2024-09-20T10:08:39Z</time>
      </trkpt>
      <trkpt lat="45.76267" lon="4.85204">
        <ele>170.4</ele>
        <time>2024-09-20T10:08:40Z</time>
      </trkpt>
      <trkpt lat="45.76269" lon="4.85207">
        <ele>170.8</ele>
        <time>2024-09-20T10:08:41Z</time>
      </trkpt>
      <trkpt lat="45.7627" lon="4.85209">
        <ele>170.8</ele>
        <time>2024-09-20T10:08:42Z</time>
      </trkpt>
      <trkpt lat="45.76272" lon="4.85211">
        <ele>170.8</ele>
        <time>2024-09-20T10:08:43Z</time>
      </trkpt>
      <trkpt lat="45.76272" lon="4.85212">
        <ele>170.8</ele>
        <time>2024-09-20T10:08:44Z</time>
      </trkpt>
      <trkpt lat="45.76273" lon="4.85214">
        <ele>170.8</ele>
        <time>2024-09-20T10:08:45Z</time>
      </trkpt>
      <trkpt lat="45.76274" lon="4.85217">
        <ele>170.8</ele>
        <time>2024-09-20T10:08:46Z</time>
      </trkpt>
      <trkpt lat="45.76275" lon="4.85219">
        <ele>170.8</ele>
        <time>2024-09-20T10:08:47Z</time>
      </trkpt>
      <trkpt lat="45.76276" lon="4.85222">
        <ele>170.8</ele>
        <time>2024-09-20T10:08:48Z</time>
      </trkpt>
      <trkpt lat="45.76276" lon="4.85225">
        <ele>170.8</ele>
        <time>2024-09-20T10:08:49Z</time>
      </trkpt>
      <trkpt lat="45.76278" lon="4.85227">
        <ele>170.8</ele>
        <time>2024-09-20T10:08:50Z</time>
      </trkpt>
      <trkpt lat="45.76281" lon="4.85229">
        <ele>170.8</ele>
        <time>2024-09-20T10:08:51Z</time>
      </trkpt>
      <trkpt lat="45.76282" lon="4.85231">
        <ele>170.8</ele>
        <time>2024-09-20T10:08:52Z</time>
      </trkpt>
      <trkpt lat="45.76283" lon="4.85234">
        <ele>170.8</ele>
        <time>2024-09-20T10:08:53Z</time>
      </trkpt>
      <trkpt lat="45.76283" lon="4.85238">
        <ele>170.6</ele>
        <time>2024-09-20T10:08:54Z</time>
      </trkpt>
      <trkpt lat="45.76284" lon="4.85243">
        <ele>170.6</ele>
        <time>2024-09-20T10:08:55Z</time>
      </trkpt>
      <trkpt lat="45.76284" lon="4.85247">
        <ele>170.8</ele>
        <time>2024-09-20T10:08:56Z</time>
      </trkpt>
      <trkpt lat="45.76284" lon="4.85252">
        <ele>170.8</ele>
        <time>2024-09-20T10:08:57Z</time>
      </trkpt>
      <trkpt lat="45.76285" lon="4.85257">
        <ele>170.8</ele>
        <time>2024-09-20T10:08:58Z</time>
      </trkpt>
      <trkpt lat="45.76285" lon="4.85262">
        <ele>170.8</ele>
        <time>2024-09-20T10:08:59Z</time>
      </trkpt>
      <trkpt lat="45.76286" lon="4.85266">
        <ele>170.8</ele>
        <time>2024-09-20T10:09:00Z</time>
      </trkpt>
      <trkpt lat="45.76286" lon="4.8527">
        <ele>170.8</ele>
        <time>2024-09-20T10:09:01Z</time>
      </trkpt>
      <trkpt lat="45.76288" lon="4.85274">
        <ele>170.8</ele>
        <time>2024-09-20T10:09:02Z</time>
      </trkpt>
      <trkpt lat="45.76289" lon="4.85278">
        <ele>170.8</ele>
        <time>2024-09-20T10:09:03Z</time>
      </trkpt>
      <trkpt lat="45.7629" lon="4.85281">
        <ele>170.8</ele>
        <time>2024-09-20T10:09:04Z</time>
      </trkpt>
      <trkpt lat="45.76291" lon="4.85285">
        <ele>170.8</ele>
        <time>2024-09-20T10:09:05Z</time>
      </trkpt>
      <trkpt lat="45.76291" lon="4.85288">
        <ele>170.8</ele>
        <time>2024-09-20T10:09:06Z</time>
      </trkpt>
      <trkpt lat="45.76292" lon="4.85293">
        <ele>170.8</ele>
        <time>2024-09-20T10:09:07Z</time>
      </trkpt>
      <trkpt lat="45.76292" lon="4.85297">
        <ele>170.8</ele>
        <time>2024-09-20T10:09:08Z</time>
      </trkpt>
      <trkpt lat="45.76293" lon="4.85301">
        <ele>170.8</ele>
        <time>2024-09-20T10:09:09Z</time>
      </trkpt>
      <trkpt lat="45.76294" lon="4.85306">
        <ele>170.8</ele>
        <time>2024-09-20T10:09:10Z</time>
      </trkpt>
      <trkpt lat="45.76294" lon="4.85313">
        <ele>170.8</ele>
        <time>2024-09-20T10:09:11Z</time>
      </trkpt>
      <trkpt lat="45.76295" lon="4.8532">
        <ele>170.8</ele>
        <time>2024-09-20T10:09:12Z</time>
      </trkpt>
      <trkpt lat="45.76295" lon="4.85326">
        <ele>171</ele>
        <time>2024-09-20T10:09:13Z</time>
      </trkpt>
      <trkpt lat="45.76296" lon="4.85332">
        <ele>171</ele>
        <time>2024-09-20T10:09:14Z</time>
      </trkpt>
      <trkpt lat="45.76297" lon="4.85338">
        <ele>171</ele>
        <time>2024-09-20T10:09:15Z</time>
      </trkpt>
      <trkpt lat="45.76296" lon="4.85346">
        <ele>171</ele>
        <time>2024-09-20T10:09:16Z</time>
      </trkpt>
      <trkpt lat="45.76296" lon="4.85353">
        <ele>171</ele>
        <time>2024-09-20T10:09:17Z</time>
      </trkpt>
      <trkpt lat="45.76297" lon="4.8536">
        <ele>171</ele>
        <time>2024-09-20T10:09:18Z</time>
      </trkpt>
      <trkpt lat="45.76297" lon="4.85367">
        <ele>171</ele>
        <time>2024-09-20T10:09:19Z</time>
      </trkpt>
      <trkpt lat="45.76297" lon="4.85375">
        <ele>171</ele>
        <time>2024-09-20T10:09:20Z</time>
      </trkpt>
      <trkpt lat="45.76297" lon="4.85382">
        <ele>171</ele>
        <time>2024-09-20T10:09:21Z</time>
      </trkpt>
      <trkpt lat="45.76297" lon="4.85387">
        <ele>171</ele>
        <time>2024-09-20T10:09:22Z</time>
      </trkpt>
      <trkpt lat="45.76298" lon="4.85393">
        <ele>171</ele>
        <time>2024-09-20T10:09:23Z</time>
      </trkpt>
      <trkpt lat="45.76297" lon="4.854">
        <ele>171</ele>
        <time>2024-09-20T10:09:24Z</time>
      </trkpt>
      <trkpt lat="45.76297" lon="4.85406">
        <ele>171</ele>
        <time>2024-09-20T10:09:25Z</time>
      </trkpt>
      <trkpt lat="45.76298" lon="4.85412">
        <ele>171.2</ele>
        <time>2024-09-20T10:09:26Z</time>
      </trkpt>
      <trkpt lat="45.76299" lon="4.85418">
        <ele>171.2</ele>
        <time>2024-09-20T10:09:27Z</time>
      </trkpt>
      <trkpt lat="45.763" lon="4.85425">
        <ele>171.2</ele>
        <time>2024-09-20T10:09:28Z</time>
      </trkpt>
      <trkpt lat="45.76301" lon="4.85431">
        <ele>171.2</ele>
        <time>2024-09-20T10:09:29Z</time>
      </trkpt>
      <trkpt lat="45.76303" lon="4.85437">
        <ele>171.2</ele>
        <time>2024-09-20T10:09:30Z</time>
      </trkpt>
      <trkpt lat="45.76304" lon="4.85444">
        <ele>171.2</ele>
        <time>2024-09-20T10:09:31Z</time>
      </trkpt>
      <trkpt lat="45.76305" lon="4.85449">
        <ele>171.2</ele>
        <time>2024-09-20T10:09:32Z</time>
      </trkpt>
      <trkpt lat="45.76306" lon="4.85456">
        <ele>171.2</ele>
        <time>2024-09-20T10:09:33Z</time>
      </trkpt>
      <trkpt lat="45.76308" lon="4.85462">
        <ele>171.2</ele>
        <time>2024-09-20T10:09:34Z</time>
      </trkpt>
      <trkpt lat="45.76309" lon="4.85469">
        <ele>171.2</ele>
        <time>2024-09-20T10:09:35Z</time>
      </trkpt>
      <trkpt lat="45.76309" lon="4.85476">
        <ele>171.2</ele>
        <time>2024-09-20T10:09:36Z</time>
      </trkpt>
      <trkpt lat="45.7631" lon="4.85482">
        <ele>171.2</ele>
        <time>2024-09-20T10:09:37Z</time>
      </trkpt>
      <trkpt lat="45.7631" lon="4.85489">
        <ele>171.2</ele>
        <time>2024-09-20T10:09:38Z</time>
      </trkpt>
      <trkpt lat="45.76311" lon="4.85495">
        <ele>171.2</ele>
        <time>2024-09-20T10:09:39Z</time>
      </trkpt>
      <trkpt lat="45.76312" lon="4.85501">
        <ele>171.2</ele>
        <time>2024-09-20T10:09:40Z</time>
      </trkpt>
      <trkpt lat="45.76312" lon="4.85507">
        <ele>171.4</ele>
        <time>2024-09-20T10:09:41Z</time>
      </trkpt>
      <trkpt lat="45.76313" lon="4.85514">
        <ele>171.4</ele>
        <time>2024-09-20T10:09:42Z</time>
      </trkpt>
      <trkpt lat="45.76314" lon="4.8552">
        <ele>171.4</ele>
        <time>2024-09-20T10:09:43Z</time>
      </trkpt>
      <trkpt lat="45.76315" lon="4.85527">
        <ele>171.4</ele>
        <time>2024-09-20T10:09:44Z</time>
      </trkpt>
      <trkpt lat="45.76316" lon="4.85534">
        <ele>171.4</ele>
        <time>2024-09-20T10:09:45Z</time>
      </trkpt>
      <trkpt lat="45.76316" lon="4.8554">
        <ele>171.4</ele>
        <time>2024-09-20T10:09:46Z</time>
      </trkpt>
      <trkpt lat="45.76316" lon="4.85547">
        <ele>171.4</ele>
        <time>2024-09-20T10:09:47Z</time>
      </trkpt>
      <trkpt lat="45.76317" lon="4.85554">
        <ele>171.4</ele>
        <time>2024-09-20T10:09:48Z</time>
      </trkpt>
      <trkpt lat="45.76317" lon="4.85561">
        <ele>171.6</ele>
        <time>2024-09-20T10:09:49Z</time>
      </trkpt>
      <trkpt lat="45.76317" lon="4.85568">
        <ele>171.6</ele>
        <time>2024-09-20T10:09:50Z</time>
      </trkpt>
      <trkpt lat="45.76317" lon="4.85575">
        <ele>171.6</ele>
        <time>2024-09-20T10:09:51Z</time>
      </trkpt>
      <trkpt lat="45.76318" lon="4.8558">
        <ele>171.6</ele>
        <time>2024-09-20T10:09:52Z</time>
      </trkpt>
      <trkpt lat="45.76318" lon="4.85585">
        <ele>171.6</ele>
        <time>2024-09-20T10:09:53Z</time>
      </trkpt>
      <trkpt lat="45.76318" lon="4.85589">
        <ele>171.4</ele>
        <time>2024-09-20T10:09:54Z</time>
      </trkpt>
      <trkpt lat="45.76318" lon="4.85593">
        <ele>171.4</ele>
        <time>2024-09-20T10:09:55Z</time>
      </trkpt>
      <trkpt lat="45.76318" lon="4.85596">
        <ele>171.4</ele>
        <time>2024-09-20T10:09:56Z</time>
      </trkpt>
      <trkpt lat="45.76318" lon="4.856">
        <ele>171.6</ele>
        <time>2024-09-20T10:09:57Z</time>
      </trkpt>
      <trkpt lat="45.76319" lon="4.85603">
        <ele>171.4</ele>
        <time>2024-09-20T10:09:58Z</time>
      </trkpt>
      <trkpt lat="45.76319" lon="4.85607">
        <ele>171.4</ele>
        <time>2024-09-20T10:09:59Z</time>
      </trkpt>
      <trkpt lat="45.76319" lon="4.85611">
        <ele>171.4</ele>
        <time>2024-09-20T10:10:00Z</time>
      </trkpt>
      <trkpt lat="45.76319" lon="4.85615">
        <ele>171.4</ele>
        <time>2024-09-20T10:10:01Z</time>
      </trkpt>
      <trkpt lat="45.76318" lon="4.85619">
        <ele>171.4</ele>
        <time>2024-09-20T10:10:02Z</time>
      </trkpt>
      <trkpt lat="45.76318" lon="4.85624">
        <ele>171.4</ele>
        <time>2024-09-20T10:10:03Z</time>
      </trkpt>
      <trkpt lat="45.76318" lon="4.85629">
        <ele>171.4</ele>
        <time>2024-09-20T10:10:04Z</time>
      </trkpt>
      <trkpt lat="45.76318" lon="4.85635">
        <ele>171.4</ele>
        <time>2024-09-20T10:10:05Z</time>
      </trkpt>
      <trkpt lat="45.76318" lon="4.85641">
        <ele>171.2</ele>
        <time>2024-09-20T10:10:06Z</time>
      </trkpt>
      <trkpt lat="45.76318" lon="4.85647">
        <ele>171.2</ele>
        <time>2024-09-20T10:10:07Z</time>
      </trkpt>
      <trkpt lat="45.76319" lon="4.85653">
        <ele>171.2</ele>
        <time>2024-09-20T10:10:08Z</time>
      </trkpt>
      <trkpt lat="45.76319" lon="4.85659">
        <ele>171.2</ele>
        <time>2024-09-20T10:10:09Z</time>
      </trkpt>
      <trkpt lat="45.76319" lon="4.85666">
        <ele>171.4</ele>
        <time>2024-09-20T10:10:10Z</time>
      </trkpt>
      <trkpt lat="45.7632" lon="4.85672">
        <ele>171.4</ele>
        <time>2024-09-20T10:10:11Z</time>
      </trkpt>
      <trkpt lat="45.7632" lon="4.85679">
        <ele>171.4</ele>
        <time>2024-09-20T10:10:12Z</time>
      </trkpt>
      <trkpt lat="45.76321" lon="4.85685">
        <ele>171.4</ele>
        <time>2024-09-20T10:10:13Z</time>
      </trkpt>
      <trkpt lat="45.76321" lon="4.8569">
        <ele>171.4</ele>
        <time>2024-09-20T10:10:14Z</time>
      </trkpt>
      <trkpt lat="45.76322" lon="4.85697">
        <ele>171.4</ele>
        <time>2024-09-20T10:10:15Z</time>
      </trkpt>
      <trkpt lat="45.76322" lon="4.85703">
        <ele>171.4</ele>
        <time>2024-09-20T10:10:16Z</time>
      </trkpt>
      <trkpt lat="45.76322" lon="4.85708">
        <ele>171.4</ele>
        <time>2024-09-20T10:10:17Z</time>
      </trkpt>
      <trkpt lat="45.76323" lon="4.85714">
        <ele>171.4</ele>
        <time>2024-09-20T10:10:18Z</time>
      </trkpt>
      <trkpt lat="45.76323" lon="4.85719">
        <ele>171.4</ele>
        <time>2024-09-20T10:10:19Z</time>
      </trkpt>
      <trkpt lat="45.76324" lon="4.85724">
        <ele>171.4</ele>
        <time>2024-09-20T10:10:20Z</time>
      </trkpt>
      <trkpt lat="45.76324" lon="4.85728">
        <ele>171.4</ele>
        <time>2024-09-20T10:10:21Z</time>
      </trkpt>
      <trkpt lat="45.76325" lon="4.85732">
        <ele>171.4</ele>
        <time>2024-09-20T10:10:22Z</time>
      </trkpt>
      <trkpt lat="45.76325" lon="4.85735">
        <ele>171.4</ele>
        <time>2024-09-20T10:10:23Z</time>
      </trkpt>
      <trkpt lat="45.76325" lon="4.85738">
        <ele>171.2</ele>
        <time>2024-09-20T10:10:24Z</time>
      </trkpt>
      <trkpt lat="45.76324" lon="4.85741">
        <ele>171.2</ele>
        <time>2024-09-20T10:10:25Z</time>
      </trkpt>
      <trkpt lat="45.76323" lon="4.85743">
        <ele>171.2</ele>
        <time>2024-09-20T10:10:26Z</time>
      </trkpt>
      <trkpt lat="45.76322" lon="4.85744">
        <ele>171.2</ele>
        <time>2024-09-20T10:10:27Z</time>
      </trkpt>
      <trkpt lat="45.76321" lon="4.85744">
        <ele>171.2</ele>
        <time>2024-09-20T10:10:28Z</time>
      </trkpt>
      <trkpt lat="45.76321" lon="4.85744">
        <ele>171.2</ele>
        <time>2024-09-20T10:10:29Z</time>
      </trkpt>
      <trkpt lat="45.76321" lon="4.85744">
        <ele>171.2</ele>
        <time>2024-09-20T10:10:30Z</time>
      </trkpt>
      <trkpt lat="45.76317" lon="4.85747">
        <ele>171.4</ele>
        <time>2024-09-20T10:10:39Z</time>
      </trkpt>
      <trkpt lat="45.76315" lon="4.85749">
        <ele>171.4</ele>
        <time>2024-09-20T10:10:40Z</time>
      </trkpt>
      <trkpt lat="45.76313" lon="4.85748">
        <ele>171.4</ele>
        <time>2024-09-20T10:10:41Z</time>
      </trkpt>
      <trkpt lat="45.76311" lon="4.85747">
        <ele>171.4</ele>
        <time>2024-09-20T10:10:42Z</time>
      </trkpt>
      <trkpt lat="45.7631" lon="4.85746">
        <ele>171.6</ele>
        <time>2024-09-20T10:10:43Z</time>
      </trkpt>
      <trkpt lat="45.7631" lon="4.85746">
        <ele>171.6</ele>
        <time>2024-09-20T10:10:44Z</time>
      </trkpt>
      <trkpt lat="45.7631" lon="4.85746">
        <ele>171.6</ele>
        <time>2024-09-20T10:10:45Z</time>
      </trkpt>
      <trkpt lat="45.7631" lon="4.85746">
        <ele>171.4</ele>
        <time>2024-09-20T10:10:46Z</time>
      </trkpt>
      <trkpt lat="45.76304" lon="4.85752">
        <ele>171.4</ele>
        <time>2024-09-20T10:11:09Z</time>
      </trkpt>
      <trkpt lat="45.76301" lon="4.85753">
        <ele>171.4</ele>
        <time>2024-09-20T10:11:10Z</time>
      </trkpt>
      <trkpt lat="45.76298" lon="4.85754">
        <ele>171.4</ele>
        <time>2024-09-20T10:11:11Z</time>
      </trkpt>
      <trkpt lat="45.76295" lon="4.85754">
        <ele>171.8</ele>
        <time>2024-09-20T10:11:12Z</time>
      </trkpt>
      <trkpt lat="45.76291" lon="4.85755">
        <ele>171.8</ele>
        <time>2024-09-20T10:11:13Z</time>
      </trkpt>
      <trkpt lat="45.76288" lon="4.85755">
        <ele>172.2</ele>
        <time>2024-09-20T10:11:14Z</time>
      </trkpt>
      <trkpt lat="45.76284" lon="4.85756">
        <ele>172.2</ele>
        <time>2024-09-20T10:11:15Z</time>
      </trkpt>
      <trkpt lat="45.76281" lon="4.85758">
        <ele>172.2</ele>
        <time>2024-09-20T10:11:16Z</time>
      </trkpt>
      <trkpt lat="45.76277" lon="4.85759">
        <ele>172</ele>
        <time>2024-09-20T10:11:17Z</time>
      </trkpt>
      <trkpt lat="45.76275" lon="4.85759">
        <ele>172</ele>
        <time>2024-09-20T10:11:18Z</time>
      </trkpt>
      <trkpt lat="45.76275" lon="4.8576">
        <ele>171.8</ele>
        <time>2024-09-20T10:11:19Z</time>
      </trkpt>
      <trkpt lat="45.76275" lon="4.85761">
        <ele>171.8</ele>
        <time>2024-09-20T10:11:20Z</time>
      </trkpt>
      <trkpt lat="45.76275" lon="4.85761">
        <ele>171.8</ele>
        <time>2024-09-20T10:11:21Z</time>
      </trkpt>
      <trkpt lat="45.7627" lon="4.85759">
        <ele>171.6</ele>
        <time>2024-09-20T10:11:36Z</time>
      </trkpt>
      <trkpt lat="45.76267" lon="4.85759">
        <ele>171.6</ele>
        <time>2024-09-20T10:11:37Z</time>
      </trkpt>
      <trkpt lat="45.76264" lon="4.85758">
        <ele>171.6</ele>
        <time>2024-09-20T10:11:38Z</time>
      </trkpt>
      <trkpt lat="45.76261" lon="4.85759">
        <ele>171.6</ele>
        <time>2024-09-20T10:11:39Z</time>
      </trkpt>
      <trkpt lat="45.76258" lon="4.8576">
        <ele>171.6</ele>
        <time>2024-09-20T10:11:40Z</time>
      </trkpt>
      <trkpt lat="45.76255" lon="4.85761">
        <ele>171.6</ele>
        <time>2024-09-20T10:11:41Z</time>
      </trkpt>
      <trkpt lat="45.76251" lon="4.85762">
        <ele>171.6</ele>
        <time>2024-09-20T10:11:42Z</time>
      </trkpt>
      <trkpt lat="45.76248" lon="4.85763">
        <ele>171.6</ele>
        <time>2024-09-20T10:11:43Z</time>
      </trkpt>
      <trkpt lat="45.76245" lon="4.85764">
        <ele>172</ele>
        <time>2024-09-20T10:11:44Z</time>
      </trkpt>
      <trkpt lat="45.76241" lon="4.85765">
        <ele>172.2</ele>
        <time>2024-09-20T10:11:45Z</time>
      </trkpt>
      <trkpt lat="45.76237" lon="4.85765">
        <ele>172.2</ele>
        <time>2024-09-20T10:11:46Z</time>
      </trkpt>
      <trkpt lat="45.76233" lon="4.85766">
        <ele>172.2</ele>
        <time>2024-09-20T10:11:47Z</time>
      </trkpt>
      <trkpt lat="45.76229" lon="4.85767">
        <ele>172.4</ele>
        <time>2024-09-20T10:11:48Z</time>
      </trkpt>
      <trkpt lat="45.76225" lon="4.85767">
        <ele>172.6</ele>
        <time>2024-09-20T10:11:49Z</time>
      </trkpt>
      <trkpt lat="45.76221" lon="4.85768">
        <ele>172.6</ele>
        <time>2024-09-20T10:11:50Z</time>
      </trkpt>
      <trkpt lat="45.76217" lon="4.85768">
        <ele>172.6</ele>
        <time>2024-09-20T10:11:51Z</time>
      </trkpt>
      <trkpt lat="45.76213" lon="4.85769">
        <ele>172.6</ele>
        <time>2024-09-20T10:11:52Z</time>
      </trkpt>
      <trkpt lat="45.76209" lon="4.85769">
        <ele>172.6</ele>
        <time>2024-09-20T10:11:53Z</time>
      </trkpt>
      <trkpt lat="45.76205" lon="4.85769">
        <ele>172.6</ele>
        <time>2024-09-20T10:11:54Z</time>
      </trkpt>
      <trkpt lat="45.76201" lon="4.8577">
        <ele>172.6</ele>
        <time>2024-09-20T10:11:55Z</time>
      </trkpt>
      <trkpt lat="45.76197" lon="4.8577">
        <ele>172.6</ele>
        <time>2024-09-20T10:11:56Z</time>
      </trkpt>
      <trkpt lat="45.76192" lon="4.85771">
        <ele>172.2</ele>
        <time>2024-09-20T10:11:57Z</time>
      </trkpt>
      <trkpt lat="45.76188" lon="4.85771">
        <ele>172.2</ele>
        <time>2024-09-20T10:11:58Z</time>
      </trkpt>
      <trkpt lat="45.76184" lon="4.85772">
        <ele>172.2</ele>
        <time>2024-09-20T10:11:59Z</time>
      </trkpt>
      <trkpt lat="45.76179" lon="4.85773">
        <ele>172.2</ele>
        <time>2024-09-20T10:12:00Z</time>
      </trkpt>
      <trkpt lat="45.76175" lon="4.85774">
        <ele>172</ele>
        <time>2024-09-20T10:12:01Z</time>
      </trkpt>
      <trkpt lat="45.76171" lon="4.85774">
        <ele>172</ele>
        <time>2024-09-20T10:12:02Z</time>
      </trkpt>
      <trkpt lat="45.76167" lon="4.85775">
        <ele>172</ele>
        <time>2024-09-20T10:12:03Z</time>
      </trkpt>
      <trkpt lat="45.76163" lon="4.85775">
        <ele>172</ele>
        <time>2024-09-20T10:12:04Z</time>
      </trkpt>
      <trkpt lat="45.76159" lon="4.85776">
        <ele>172</ele>
        <time>2024-09-20T10:12:05Z</time>
      </trkpt>
      <trkpt lat="45.76155" lon="4.85777">
        <ele>171.4</ele>
        <time>2024-09-20T10:12:06Z</time>
      </trkpt>
      <trkpt lat="45.76153" lon="4.85778">
        <ele>171.4</ele>
        <time>2024-09-20T10:12:07Z</time>
      </trkpt>
      <trkpt lat="45.76151" lon="4.85779">
        <ele>171.4</ele>
        <time>2024-09-20T10:12:08Z</time>
      </trkpt>
      <trkpt lat="45.76149" lon="4.8578">
        <ele>171.4</ele>
        <time>2024-09-20T10:12:09Z</time>
      </trkpt>
      <trkpt lat="45.76148" lon="4.8578">
        <ele>171.4</ele>
        <time>2024-09-20T10:12:10Z</time>
      </trkpt>
      <trkpt lat="45.76146" lon="4.8578">
        <ele>171</ele>
        <time>2024-09-20T10:12:11Z</time>
      </trkpt>
      <trkpt lat="45.76145" lon="4.8578">
        <ele>171</ele>
        <time>2024-09-20T10:12:12Z</time>
      </trkpt>
      <trkpt lat="45.76144" lon="4.8578">
        <ele>171</ele>
        <time>2024-09-20T10:12:13Z</time>
      </trkpt>
      <trkpt lat="45.76144" lon="4.8578">
        <ele>171</ele>
        <time>2024-09-20T10:12:14Z</time>
      </trkpt>
      <trkpt lat="45.76141" lon="4.85791">
        <ele>170.6</ele>
        <time>2024-09-20T10:12:35Z</time>
      </trkpt>
      <trkpt lat="45.76141" lon="4.85794">
        <ele>170.6</ele>
        <time>2024-09-20T10:12:36Z</time>
      </trkpt>
      <trkpt lat="45.76141" lon="4.85797">
        <ele>170.6</ele>
        <time>2024-09-20T10:12:37Z</time>
      </trkpt>
      <trkpt lat="45.76141" lon="4.85799">
        <ele>170.6</ele>
        <time>2024-09-20T10:12:38Z</time>
      </trkpt>
      <trkpt lat="45.76141" lon="4.85801">
        <ele>170.6</ele>
        <time>2024-09-20T10:12:39Z</time>
      </trkpt>
      <trkpt lat="45.76141" lon="4.85803">
        <ele>170.6</ele>
        <time>2024-09-20T10:12:40Z</time>
      </trkpt>
      <trkpt lat="45.76141" lon="4.85806">
        <ele>170.6</ele>
        <time>2024-09-20T10:12:41Z</time>
      </trkpt>
      <trkpt lat="45.7614" lon="4.85809">
        <ele>170.8</ele>
        <time>2024-09-20T10:12:42Z</time>
      </trkpt>
      <trkpt lat="45.7614" lon="4.85811">
        <ele>170.8</ele>
        <time>2024-09-20T10:12:43Z</time>
      </trkpt>
      <trkpt lat="45.7614" lon="4.85812">
        <ele>170.8</ele>
        <time>2024-09-20T10:12:44Z</time>
      </trkpt>
      <trkpt lat="45.76138" lon="4.85813">
        <ele>170.8</ele>
        <time>2024-09-20T10:12:45Z</time>
      </trkpt>
      <trkpt lat="45.76137" lon="4.85814">
        <ele>170.8</ele>
        <time>2024-09-20T10:12:46Z</time>
      </trkpt>
      <trkpt lat="45.76136" lon="4.85814">
        <ele>170.8</ele>
        <time>2024-09-20T10:12:47Z</time>
      </trkpt>
      <trkpt lat="45.76135" lon="4.85814">
        <ele>170.8</ele>
        <time>2024-09-20T10:12:48Z</time>
      </trkpt>
      <trkpt lat="45.76134" lon="4.85814">
        <ele>170.8</ele>
        <time>2024-09-20T10:12:49Z</time>
      </trkpt>
      <trkpt lat="45.76133" lon="4.85815">
        <ele>170.8</ele>
        <time>2024-09-20T10:12:50Z</time>
      </trkpt>
      <trkpt lat="45.76132" lon="4.85815">
        <ele>171</ele>
        <time>2024-09-20T10:12:51Z</time>
      </trkpt>
      <trkpt lat="45.7613" lon="4.85816">
        <ele>171</ele>
        <time>2024-09-20T10:12:52Z</time>
      </trkpt>
      <trkpt lat="45.76128" lon="4.85816">
        <ele>171</ele>
        <time>2024-09-20T10:12:53Z</time>
      </trkpt>
      <trkpt lat="45.76126" lon="4.85817">
        <ele>171</ele>
        <time>2024-09-20T10:12:54Z</time>
      </trkpt>
      <trkpt lat="45.76125" lon="4.85818">
        <ele>171</ele>
        <time>2024-09-20T10:12:55Z</time>
      </trkpt>
      <trkpt lat="45.76123" lon="4.85819">
        <ele>171</ele>
        <time>2024-09-20T10:12:56Z</time>
      </trkpt>
      <trkpt lat="45.76121" lon="4.85821">
        <ele>171</ele>
        <time>2024-09-20T10:12:57Z</time>
      </trkpt>
      <trkpt lat="45.76121" lon="4.85823">
        <ele>171</ele>
        <time>2024-09-20T10:12:58Z</time>
      </trkpt>
      <trkpt lat="45.7612" lon="4.85826">
        <ele>171</ele>
        <time>2024-09-20T10:12:59Z</time>
      </trkpt>
      <trkpt lat="45.76119" lon="4.85828">
        <ele>170.8</ele>
        <time>2024-09-20T10:13:00Z</time>
      </trkpt>
      <trkpt lat="45.76119" lon="4.85831">
        <ele>170.8</ele>
        <time>2024-09-20T10:13:01Z</time>
      </trkpt>
      <trkpt lat="45.76118" lon="4.85834">
        <ele>170.8</ele>
        <time>2024-09-20T10:13:02Z</time>
      </trkpt>
      <trkpt lat="45.76118" lon="4.85836">
        <ele>170.8</ele>
        <time>2024-09-20T10:13:03Z</time>
      </trkpt>
      <trkpt lat="45.76118" lon="4.85838">
        <ele>170.8</ele>
        <time>2024-09-20T10:13:04Z</time>
      </trkpt>
      <trkpt lat="45.76118" lon="4.8584">
        <ele>170.8</ele>
        <time>2024-09-20T10:13:05Z</time>
      </trkpt>
      <trkpt lat="45.76118" lon="4.85843">
        <ele>170.8</ele>
        <time>2024-09-20T10:13:06Z</time>
      </trkpt>
      <trkpt lat="45.76119" lon="4.85844">
        <ele>170.6</ele>
        <time>2024-09-20T10:13:07Z</time>
      </trkpt>
      <trkpt lat="45.76119" lon="4.85845">
        <ele>170.6</ele>
        <time>2024-09-20T10:13:08Z</time>
      </trkpt>
      <trkpt lat="45.76119" lon="4.85847">
        <ele>170.4</ele>
        <time>2024-09-20T10:13:09Z</time>
      </trkpt>
      <trkpt lat="45.7612" lon="4.85848">
        <ele>170.4</ele>
        <time>2024-09-20T10:13:10Z</time>
      </trkpt>
      <trkpt lat="45.7612" lon="4.85849">
        <ele>170.4</ele>
        <time>2024-09-20T10:13:11Z</time>
      </trkpt>
      <trkpt lat="45.76121" lon="4.85851">
        <ele>170.4</ele>
        <time>2024-09-20T10:13:12Z</time>
      </trkpt>
      <trkpt lat="45.76121" lon="4.85853">
        <ele>170.4</ele>
        <time>2024-09-20T10:13:13Z</time>
      </trkpt>
      <trkpt lat="45.76121" lon="4.85855">
        <ele>170.4</ele>
        <time>2024-09-20T10:13:14Z</time>
      </trkpt>
      <trkpt lat="45.76121" lon="4.85857">
        <ele>170.4</ele>
        <time>2024-09-20T10:13:15Z</time>
      </trkpt>
      <trkpt lat="45.76121" lon="4.85859">
        <ele>170.4</ele>
        <time>2024-09-20T10:13:16Z</time>
      </trkpt>
      <trkpt lat="45.76121" lon="4.85861">
        <ele>170.4</ele>
        <time>2024-09-20T10:13:17Z</time>
      </trkpt>
      <trkpt lat="45.76121" lon="4.85864">
        <ele>170</ele>
        <time>2024-09-20T10:13:18Z</time>
      </trkpt>
      <trkpt lat="45.76121" lon="4.85866">
        <ele>170</ele>
        <time>2024-09-20T10:13:19Z</time>
      </trkpt>
      <trkpt lat="45.76121" lon="4.85868">
        <ele>170</ele>
        <time>2024-09-20T10:13:20Z</time>
      </trkpt>
      <trkpt lat="45.76121" lon="4.8587">
        <ele>170</ele>
        <time>2024-09-20T10:13:21Z</time>
      </trkpt>
      <trkpt lat="45.76121" lon="4.85872">
        <ele>170</ele>
        <time>2024-09-20T10:13:22Z</time>
      </trkpt>
      <trkpt lat="45.76121" lon="4.85874">
        <ele>170</ele>
        <time>2024-09-20T10:13:23Z</time>
      </trkpt>
      <trkpt lat="45.76121" lon="4.85875">
        <ele>170</ele>
        <time>2024-09-20T10:13:24Z</time>
      </trkpt>
      <trkpt lat="45.76121" lon="4.85877">
        <ele>170</ele>
        <time>2024-09-20T10:13:25Z</time>
      </trkpt>
      <trkpt lat="45.76121" lon="4.85878">
        <ele>170</ele>
        <time>2024-09-20T10:13:26Z</time>
      </trkpt>
      <trkpt lat="45.76121" lon="4.8588">
        <ele>170</ele>
        <time>2024-09-20T10:13:27Z</time>
      </trkpt>
      <trkpt lat="45.76121" lon="4.85882">
        <ele>170</ele>
        <time>2024-09-20T10:13:28Z</time>
      </trkpt>
      <trkpt lat="45.76121" lon="4.85884">
        <ele>170</ele>
        <time>2024-09-20T10:13:29Z</time>
      </trkpt>
      <trkpt lat="45.76121" lon="4.85885">
        <ele>170</ele>
        <time>2024-09-20T10:13:30Z</time>
      </trkpt>
      <trkpt lat="45.76121" lon="4.85887">
        <ele>170</ele>
        <time>2024-09-20T10:13:31Z</time>
      </trkpt>
      <trkpt lat="45.76121" lon="4.85888">
        <ele>170</ele>
        <time>2024-09-20T10:13:32Z</time>
      </trkpt>
      <trkpt lat="45.76121" lon="4.8589">
        <ele>170</ele>
        <time>2024-09-20T10:13:33Z</time>
      </trkpt>
      <trkpt lat="45.76121" lon="4.85893">
        <ele>170</ele>
        <time>2024-09-20T10:13:34Z</time>
      </trkpt>
      <trkpt lat="45.76121" lon="4.85895">
        <ele>170</ele>
        <time>2024-09-20T10:13:35Z</time>
      </trkpt>
      <trkpt lat="45.76121" lon="4.85897">
        <ele>170</ele>
        <time>2024-09-20T10:13:36Z</time>
      </trkpt>
      <trkpt lat="45.76121" lon="4.85899">
        <ele>170</ele>
        <time>2024-09-20T10:13:37Z</time>
      </trkpt>
      <trkpt lat="45.7612" lon="4.85901">
        <ele>170</ele>
        <time>2024-09-20T10:13:38Z</time>
      </trkpt>
      <trkpt lat="45.7612" lon="4.85903">
        <ele>170</ele>
        <time>2024-09-20T10:13:39Z</time>
      </trkpt>
      <trkpt lat="45.7612" lon="4.85904">
        <ele>169.8</ele>
        <time>2024-09-20T10:13:40Z</time>
      </trkpt>
      <trkpt lat="45.76119" lon="4.85906">
        <ele>169.8</ele>
        <time>2024-09-20T10:13:41Z</time>
      </trkpt>
      <trkpt lat="45.76119" lon="4.85908">
        <ele>169.8</ele>
        <time>2024-09-20T10:13:42Z</time>
      </trkpt>
      <trkpt lat="45.76118" lon="4.8591">
        <ele>169.8</ele>
        <time>2024-09-20T10:13:43Z</time>
      </trkpt>
      <trkpt lat="45.76116" lon="4.85913">
        <ele>169.6</ele>
        <time>2024-09-20T10:13:44Z</time>
      </trkpt>
      <trkpt lat="45.76115" lon="4.85916">
        <ele>169.6</ele>
        <time>2024-09-20T10:13:45Z</time>
      </trkpt>
      <trkpt lat="45.76113" lon="4.85919">
        <ele>169.6</ele>
        <time>2024-09-20T10:13:46Z</time>
      </trkpt>
      <trkpt lat="45.76112" lon="4.85921">
        <ele>169.6</ele>
        <time>2024-09-20T10:13:47Z</time>
      </trkpt>
      <trkpt lat="45.7611" lon="4.85923">
        <ele>169.6</ele>
        <time>2024-09-20T10:13:48Z</time>
      </trkpt>
      <trkpt lat="45.76109" lon="4.85924">
        <ele>169.4</ele>
        <time>2024-09-20T10:13:49Z</time>
      </trkpt>
      <trkpt lat="45.76107" lon="4.85925">
        <ele>169.4</ele>
        <time>2024-09-20T10:13:50Z</time>
      </trkpt>
      <trkpt lat="45.76106" lon="4.85925">
        <ele>169.4</ele>
        <time>2024-09-20T10:13:51Z</time>
      </trkpt>
      <trkpt lat="45.76105" lon="4.85926">
        <ele>169</ele>
        <time>2024-09-20T10:13:52Z</time>
      </trkpt>
      <trkpt lat="45.76103" lon="4.85926">
        <ele>169</ele>
        <time>2024-09-20T10:13:53Z</time>
      </trkpt>
      <trkpt lat="45.76102" lon="4.85926">
        <ele>169.2</ele>
        <time>2024-09-20T10:13:54Z</time>
      </trkpt>
      <trkpt lat="45.76101" lon="4.85926">
        <ele>169.2</ele>
        <time>2024-09-20T10:13:55Z</time>
      </trkpt>
      <trkpt lat="45.761" lon="4.85926">
        <ele>169.2</ele>
        <time>2024-09-20T10:13:56Z</time>
      </trkpt>
      <trkpt lat="45.76098" lon="4.85926">
        <ele>169.4</ele>
        <time>2024-09-20T10:13:57Z</time>
      </trkpt>
      <trkpt lat="45.76097" lon="4.85926">
        <ele>169.4</ele>
        <time>2024-09-20T10:13:58Z</time>
      </trkpt>
      <trkpt lat="45.76096" lon="4.85927">
        <ele>169.4</ele>
        <time>2024-09-20T10:13:59Z</time>
      </trkpt>
      <trkpt lat="45.76095" lon="4.85927">
        <ele>169.4</ele>
        <time>2024-09-20T10:14:00Z</time>
      </trkpt>
      <trkpt lat="45.76094" lon="4.85927">
        <ele>169.4</ele>
        <time>2024-09-20T10:14:01Z</time>
      </trkpt>
      <trkpt lat="45.76094" lon="4.85927">
        <ele>169.6</ele>
        <time>2024-09-20T10:14:02Z</time>
      </trkpt>
      <trkpt lat="45.76093" lon="4.85927">
        <ele>169.8</ele>
        <time>2024-09-20T10:14:03Z</time>
      </trkpt>
      <trkpt lat="45.76092" lon="4.85928">
        <ele>169.8</ele>
        <time>2024-09-20T10:14:04Z</time>
      </trkpt>
      <trkpt lat="45.76092" lon="4.85927">
        <ele>169.8</ele>
        <time>2024-09-20T10:14:05Z</time>
      </trkpt>
      <trkpt lat="45.76092" lon="4.85927">
        <ele>169.6</ele>
        <time>2024-09-20T10:14:06Z</time>
      </trkpt>
      <trkpt lat="45.76091" lon="4.85923">
        <ele>170</ele>
        <time>2024-09-20T10:14:25Z</time>
      </trkpt>
      <trkpt lat="45.76092" lon="4.85923">
        <ele>170</ele>
        <time>2024-09-20T10:14:26Z</time>
      </trkpt>
      <trkpt lat="45.76093" lon="4.85923">
        <ele>170</ele>
        <time>2024-09-20T10:14:27Z</time>
      </trkpt>
      <trkpt lat="45.76093" lon="4.85924">
        <ele>170</ele>
        <time>2024-09-20T10:14:28Z</time>
      </trkpt>
      <trkpt lat="45.76095" lon="4.85922">
        <ele>169.8</ele>
        <time>2024-09-20T10:14:29Z</time>
      </trkpt>
      <trkpt lat="45.76096" lon="4.85919">
        <ele>169.8</ele>
        <time>2024-09-20T10:14:30Z</time>
      </trkpt>
      <trkpt lat="45.76097" lon="4.85917">
        <ele>169.8</ele>
        <time>2024-09-20T10:14:31Z</time>
      </trkpt>
      <trkpt lat="45.76098" lon="4.85914">
        <ele>169.8</ele>
        <time>2024-09-20T10:14:32Z</time>
      </trkpt>
      <trkpt lat="45.76099" lon="4.85912">
        <ele>169.8</ele>
        <time>2024-09-20T10:14:33Z</time>
      </trkpt>
      <trkpt lat="45.76099" lon="4.8591">
        <ele>169.8</ele>
        <time>2024-09-20T10:14:34Z</time>
      </trkpt>
      <trkpt lat="45.76099" lon="4.8591">
        <ele>169.8</ele>
        <time>2024-09-20T10:14:35Z</time>
      </trkpt>
      <trkpt lat="45.76099" lon="4.8591">
        <ele>169.8</ele>
        <time>2024-09-20T10:14:36Z</time>
      </trkpt>
      <trkpt lat="45.76098" lon="4.85911">
        <ele>169.8</ele>
        <time>2024-09-20T10:14:37Z</time>
      </trkpt>
      <trkpt lat="45.76098" lon="4.85911">
        <ele>169.8</ele>
        <time>2024-09-20T10:14:38Z</time>
      </trkpt>
      <trkpt lat="45.76098" lon="4.85911">
        <ele>169.8</ele>
        <time>2024-09-20T10:14:39Z</time>
      </trkpt>
      <trkpt lat="45.76097" lon="4.85912">
        <ele>169.8</ele>
        <time>2024-09-20T10:14:40Z</time>
      </trkpt>
      <trkpt lat="45.76097" lon="4.85912">
        <ele>169.8</ele>
        <time>2024-09-20T10:14:41Z</time>
      </trkpt>
      <trkpt lat="45.76097" lon="4.85913">
        <ele>169.8</ele>
        <time>2024-09-20T10:14:42Z</time>
      </trkpt>
      <trkpt lat="45.76096" lon="4.85913">
        <ele>169.8</ele>
        <time>2024-09-20T10:14:43Z</time>
      </trkpt>
      <trkpt lat="45.76096" lon="4.85913">
        <ele>169.8</ele>
        <time>2024-09-20T10:14:44Z</time>
      </trkpt>
      <trkpt lat="45.76096" lon="4.85914">
        <ele>169.8</ele>
        <time>2024-09-20T10:14:45Z</time>
      </trkpt>
      <trkpt lat="45.76095" lon="4.85914">
        <ele>169.8</ele>
        <time>2024-09-20T10:14:46Z</time>
      </trkpt>
      <trkpt lat="45.76095" lon="4.85914">
        <ele>169.8</ele>
        <time>2024-09-20T10:14:47Z</time>
      </trkpt>
      <trkpt lat="45.76095" lon="4.85915">
        <ele>169.8</ele>
        <time>2024-09-20T10:14:48Z</time>
      </trkpt>
      <trkpt lat="45.76094" lon="4.85915">
        <ele>169.8</ele>
        <time>2024-09-20T10:14:49Z</time>
      </trkpt>
      <trkpt lat="45.76094" lon="4.85916">
        <ele>170</ele>
        <time>2024-09-20T10:14:50Z</time>
      </trkpt>
      <trkpt lat="45.76094" lon="4.85916">
        <ele>170</ele>
        <time>2024-09-20T10:14:51Z</time>
      </trkpt>
      <trkpt lat="45.76093" lon="4.85916">
        <ele>170</ele>
        <time>2024-09-20T10:14:52Z</time>
      </trkpt>
      <trkpt lat="45.76093" lon="4.85917">
        <ele>170</ele>
        <time>2024-09-20T10:14:53Z</time>
      </trkpt>
      <trkpt lat="45.76093" lon="4.85917">
        <ele>169.8</ele>
        <time>2024-09-20T10:15:17Z</time>
      </trkpt>
      <trkpt lat="45.76092" lon="4.85918">
        <ele>169.8</ele>
        <time>2024-09-20T10:15:18Z</time>
      </trkpt>
      <trkpt lat="45.76092" lon="4.85918">
        <ele>169.8</ele>
        <time>2024-09-20T10:15:19Z</time>
      </trkpt>
      <trkpt lat="45.76092" lon="4.85918">
        <ele>169.8</ele>
        <time>2024-09-20T10:15:20Z</time>
      </trkpt>
      <trkpt lat="45.76091" lon="4.85919">
        <ele>169.8</ele>
        <time>2024-09-20T10:15:21Z</time>
      </trkpt>
      <trkpt lat="45.76091" lon="4.85919">
        <ele>169.8</ele>
        <time>2024-09-20T10:15:22Z</time>
      </trkpt>
      <trkpt lat="45.76094" lon="4.85909">
        <ele>169.8</ele>
        <time>2024-09-20T10:15:25Z</time>
      </trkpt>
      <trkpt lat="45.76096" lon="4.85909">
        <ele>170</ele>
        <time>2024-09-20T10:15:26Z</time>
      </trkpt>
      <trkpt lat="45.76099" lon="4.85907">
        <ele>170</ele>
        <time>2024-09-20T10:15:27Z</time>
      </trkpt>
      <trkpt lat="45.76099" lon="4.85907">
        <ele>170</ele>
        <time>2024-09-20T10:15:28Z</time>
      </trkpt>
      <trkpt lat="45.76099" lon="4.85907">
        <ele>170</ele>
        <time>2024-09-20T10:15:29Z</time>
      </trkpt>
      <trkpt lat="45.76094" lon="4.85941">
        <ele>169.8</ele>
        <time>2024-09-20T10:16:34Z</time>
      </trkpt>
      <trkpt lat="45.76096" lon="4.85944">
        <ele>169.8</ele>
        <time>2024-09-20T10:16:35Z</time>
      </trkpt>
      <trkpt lat="45.76095" lon="4.85945">
        <ele>169.8</ele>
        <time>2024-09-20T10:16:36Z</time>
      </trkpt>
      <trkpt lat="45.76094" lon="4.85945">
        <ele>169.8</ele>
        <time>2024-09-20T10:16:37Z</time>
      </trkpt>
      <trkpt lat="45.76093" lon="4.85946">
        <ele>169.8</ele>
        <time>2024-09-20T10:16:38Z</time>
      </trkpt>
      <trkpt lat="45.76093" lon="4.85946">
        <ele>169.8</ele>
        <time>2024-09-20T10:16:39Z</time>
      </trkpt>
      <trkpt lat="45.7607" lon="4.85942">
        <ele>169.8</ele>
        <time>2024-09-20T10:16:57Z</time>
      </trkpt>
      <trkpt lat="45.76069" lon="4.85943">
        <ele>169.8</ele>
        <time>2024-09-20T10:16:58Z</time>
      </trkpt>
      <trkpt lat="45.76067" lon="4.85944">
        <ele>169.8</ele>
        <time>2024-09-20T10:16:59Z</time>
      </trkpt>
      <trkpt lat="45.76066" lon="4.85944">
        <ele>169.8</ele>
        <time>2024-09-20T10:17:00Z</time>
      </trkpt>
      <trkpt lat="45.76065" lon="4.85945">
        <ele>169.8</ele>
        <time>2024-09-20T10:17:01Z</time>
      </trkpt>
      <trkpt lat="45.76065" lon="4.85946">
        <ele>169.8</ele>
        <time>2024-09-20T10:17:02Z</time>
      </trkpt>
      <trkpt lat="45.76067" lon="4.85948">
        <ele>169.8</ele>
        <time>2024-09-20T10:17:03Z</time>
      </trkpt>
      <trkpt lat="45.76067" lon="4.85949">
        <ele>169.8</ele>
        <time>2024-09-20T10:17:04Z</time>
      </trkpt>
      <trkpt lat="45.76067" lon="4.8595">
        <ele>169.8</ele>
        <time>2024-09-20T10:17:05Z</time>
      </trkpt>
      <trkpt lat="45.76067" lon="4.8595">
        <ele>169.8</ele>
        <time>2024-09-20T10:17:06Z</time>
      </trkpt>
      <trkpt lat="45.76052" lon="4.8594">
        <ele>170</ele>
        <time>2024-09-20T10:17:19Z</time>
      </trkpt>
      <trkpt lat="45.76051" lon="4.85938">
        <ele>170</ele>
        <time>2024-09-20T10:17:20Z</time>
      </trkpt>
      <trkpt lat="45.76054" lon="4.8594">
        <ele>169.8</ele>
        <time>2024-09-20T10:17:21Z</time>
      </trkpt>
      <trkpt lat="45.76054" lon="4.8594">
        <ele>170</ele>
        <time>2024-09-20T10:17:22Z</time>
      </trkpt>
      <trkpt lat="45.76045" lon="4.85947">
        <ele>170</ele>
        <time>2024-09-20T10:17:33Z</time>
      </trkpt>
      <trkpt lat="45.76042" lon="4.85947">
        <ele>170</ele>
        <time>2024-09-20T10:17:34Z</time>
      </trkpt>
      <trkpt lat="45.7604" lon="4.85946">
        <ele>170</ele>
        <time>2024-09-20T10:17:35Z</time>
      </trkpt>
      <trkpt lat="45.7604" lon="4.85947">
        <ele>170</ele>
        <time>2024-09-20T10:17:36Z</time>
      </trkpt>
      <trkpt lat="45.76039" lon="4.85947">
        <ele>170</ele>
        <time>2024-09-20T10:17:37Z</time>
      </trkpt>
      <trkpt lat="45.76039" lon="4.85948">
        <ele>170</ele>
        <time>2024-09-20T10:17:38Z</time>
      </trkpt>
      <trkpt lat="45.76034" lon="4.85944">
        <ele>170</ele>
        <time>2024-09-20T10:17:39Z</time>
      </trkpt>
      <trkpt lat="45.76031" lon="4.85944">
        <ele>170</ele>
        <time>2024-09-20T10:17:40Z</time>
      </trkpt>
      <trkpt lat="45.76029" lon="4.85947">
        <ele>170</ele>
        <time>2024-09-20T10:17:41Z</time>
      </trkpt>
      <trkpt lat="45.76029" lon="4.85949">
        <ele>170</ele>
        <time>2024-09-20T10:17:42Z</time>
      </trkpt>
      <trkpt lat="45.76028" lon="4.85951">
        <ele>170</ele>
        <time>2024-09-20T10:17:43Z</time>
      </trkpt>
      <trkpt lat="45.76028" lon="4.85954">
        <ele>169.8</ele>
        <time>2024-09-20T10:17:55Z</time>
      </trkpt>
      <trkpt lat="45.76028" lon="4.85956">
        <ele>169.8</ele>
        <time>2024-09-20T10:17:56Z</time>
      </trkpt>
      <trkpt lat="45.76027" lon="4.85959">
        <ele>169.8</ele>
        <time>2024-09-20T10:17:57Z</time>
      </trkpt>
      <trkpt lat="45.76027" lon="4.85961">
        <ele>169.8</ele>
        <time>2024-09-20T10:17:58Z</time>
      </trkpt>
      <trkpt lat="45.76026" lon="4.85964">
        <ele>169.8</ele>
        <time>2024-09-20T10:17:59Z</time>
      </trkpt>
      <trkpt lat="45.76026" lon="4.85966">
        <ele>169.6</ele>
        <time>2024-09-20T10:18:00Z</time>
      </trkpt>
      <trkpt lat="45.76026" lon="4.85969">
        <ele>169.6</ele>
        <time>2024-09-20T10:18:01Z</time>
      </trkpt>
      <trkpt lat="45.76025" lon="4.85971">
        <ele>169.6</ele>
        <time>2024-09-20T10:18:02Z</time>
      </trkpt>
      <trkpt lat="45.76025" lon="4.85974">
        <ele>169.6</ele>
        <time>2024-09-20T10:18:03Z</time>
      </trkpt>
      <trkpt lat="45.76022" lon="4.85979">
        <ele>169.6</ele>
        <time>2024-09-20T10:18:04Z</time>
      </trkpt>
      <trkpt lat="45.76023" lon="4.85979">
        <ele>169.6</ele>
        <time>2024-09-20T10:18:05Z</time>
      </trkpt>
      <trkpt lat="45.76023" lon="4.85978">
        <ele>169.6</ele>
        <time>2024-09-20T10:18:06Z</time>
      </trkpt>
      <trkpt lat="45.76024" lon="4.85978">
        <ele>169.6</ele>
        <time>2024-09-20T10:18:07Z</time>
      </trkpt>
      <trkpt lat="45.76025" lon="4.85978">
        <ele>169.6</ele>
        <time>2024-09-20T10:18:08Z</time>
      </trkpt>
      <trkpt lat="45.76026" lon="4.85977">
        <ele>169.6</ele>
        <time>2024-09-20T10:18:09Z</time>
      </trkpt>
      <trkpt lat="45.76027" lon="4.85977">
        <ele>169.6</ele>
        <time>2024-09-20T10:18:10Z</time>
      </trkpt>
      <trkpt lat="45.76027" lon="4.85976">
        <ele>169.6</ele>
        <time>2024-09-20T10:18:11Z</time>
      </trkpt>
      <trkpt lat="45.76028" lon="4.85976">
        <ele>169.6</ele>
        <time>2024-09-20T10:18:12Z</time>
      </trkpt>
      <trkpt lat="45.76029" lon="4.85975">
        <ele>169.6</ele>
        <time>2024-09-20T10:18:13Z</time>
      </trkpt>
      <trkpt lat="45.7603" lon="4.85975">
        <ele>169.6</ele>
        <time>2024-09-20T10:18:14Z</time>
      </trkpt>
      <trkpt lat="45.76031" lon="4.85975">
        <ele>169.6</ele>
        <time>2024-09-20T10:18:15Z</time>
      </trkpt>
      <trkpt lat="45.76032" lon="4.85974">
        <ele>169.6</ele>
        <time>2024-09-20T10:18:16Z</time>
      </trkpt>
      <trkpt lat="45.76032" lon="4.85974">
        <ele>169.6</ele>
        <time>2024-09-20T10:18:17Z</time>
      </trkpt>
      <trkpt lat="45.76033" lon="4.85973">
        <ele>169.6</ele>
        <time>2024-09-20T10:18:18Z</time>
      </trkpt>
      <trkpt lat="45.76034" lon="4.85973">
        <ele>169.6</ele>
        <time>2024-09-20T10:18:19Z</time>
      </trkpt>
      <trkpt lat="45.76035" lon="4.85972">
        <ele>169.6</ele>
        <time>2024-09-20T10:18:20Z</time>
      </trkpt>
      <trkpt lat="45.76036" lon="4.85972">
        <ele>169.6</ele>
        <time>2024-09-20T10:18:21Z</time>
      </trkpt>
      <trkpt lat="45.76036" lon="4.85971">
        <ele>169.6</ele>
        <time>2024-09-20T10:18:22Z</time>
      </trkpt>
      <trkpt lat="45.76037" lon="4.85971">
        <ele>169.6</ele>
        <time>2024-09-20T10:18:23Z</time>
      </trkpt>
      <trkpt lat="45.76038" lon="4.85971">
        <ele>169.6</ele>
        <time>2024-09-20T10:18:24Z</time>
      </trkpt>
      <trkpt lat="45.76055" lon="4.85961">
        <ele>169.6</ele>
        <time>2024-09-20T10:18:25Z</time>
      </trkpt>
      <trkpt lat="45.76056" lon="4.85959">
        <ele>169.6</ele>
        <time>2024-09-20T10:18:26Z</time>
      </trkpt>
      <trkpt lat="45.76055" lon="4.85957">
        <ele>169.6</ele>
        <time>2024-09-20T10:18:27Z</time>
      </trkpt>
      <trkpt lat="45.76055" lon="4.85958">
        <ele>169.6</ele>
        <time>2024-09-20T10:18:28Z</time>
      </trkpt>
      <trkpt lat="45.76054" lon="4.85958">
        <ele>169.6</ele>
        <time>2024-09-20T10:18:29Z</time>
      </trkpt>
      <trkpt lat="45.76055" lon="4.85959">
        <ele>169.6</ele>
        <time>2024-09-20T10:18:30Z</time>
      </trkpt>
      <trkpt lat="45.76055" lon="4.85959">
        <ele>169.6</ele>
        <time>2024-09-20T10:18:31Z</time>
      </trkpt>
      <trkpt lat="45.76057" lon="4.8596">
        <ele>169.4</ele>
        <time>2024-09-20T10:18:32Z</time>
      </trkpt>
      <trkpt lat="45.76058" lon="4.85958">
        <ele>169.4</ele>
        <time>2024-09-20T10:18:33Z</time>
      </trkpt>
      <trkpt lat="45.76061" lon="4.85958">
        <ele>169.4</ele>
        <time>2024-09-20T10:18:34Z</time>
      </trkpt>
      <trkpt lat="45.76061" lon="4.85957">
        <ele>169.4</ele>
        <time>2024-09-20T10:18:35Z</time>
      </trkpt>
      <trkpt lat="45.76061" lon="4.85957">
        <ele>169.4</ele>
        <time>2024-09-20T10:18:36Z</time>
      </trkpt>
      <trkpt lat="45.76061" lon="4.85957">
        <ele>169.4</ele>
        <time>2024-09-20T10:18:37Z</time>
      </trkpt>
      <trkpt lat="45.76061" lon="4.85957">
        <ele>169.4</ele>
        <time>2024-09-20T10:18:38Z</time>
      </trkpt>
      <trkpt lat="45.76061" lon="4.85957">
        <ele>169.4</ele>
        <time>2024-09-20T10:18:39Z</time>
      </trkpt>
      <trkpt lat="45.76061" lon="4.85956">
        <ele>169.4</ele>
        <time>2024-09-20T10:18:40Z</time>
      </trkpt>
      <trkpt lat="45.76061" lon="4.85956">
        <ele>169.4</ele>
        <time>2024-09-20T10:18:41Z</time>
      </trkpt>
      <trkpt lat="45.76061" lon="4.85956">
        <ele>169.4</ele>
        <time>2024-09-20T10:18:42Z</time>
      </trkpt>
      <trkpt lat="45.76061" lon="4.85956">
        <ele>169.4</ele>
        <time>2024-09-20T10:18:43Z</time>
      </trkpt>
      <trkpt lat="45.76061" lon="4.85956">
        <ele>169.6</ele>
        <time>2024-09-20T10:18:44Z</time>
      </trkpt>
      <trkpt lat="45.76061" lon="4.85955">
        <ele>169.4</ele>
        <time>2024-09-20T10:18:45Z</time>
      </trkpt>
      <trkpt lat="45.76061" lon="4.85955">
        <ele>169.4</ele>
        <time>2024-09-20T10:18:46Z</time>
      </trkpt>
      <trkpt lat="45.76061" lon="4.85955">
        <ele>169.4</ele>
        <time>2024-09-20T10:18:47Z</time>
      </trkpt>
      <trkpt lat="45.76061" lon="4.85955">
        <ele>169.4</ele>
        <time>2024-09-20T10:18:48Z</time>
      </trkpt>
      <trkpt lat="45.76061" lon="4.85955">
        <ele>169.4</ele>
        <time>2024-09-20T10:18:49Z</time>
      </trkpt>
      <trkpt lat="45.76061" lon="4.85954">
        <ele>169.4</ele>
        <time>2024-09-20T10:18:50Z</time>
      </trkpt>
      <trkpt lat="45.76061" lon="4.85954">
        <ele>169.4</ele>
        <time>2024-09-20T10:18:51Z</time>
      </trkpt>
      <trkpt lat="45.76061" lon="4.85954">
        <ele>169.4</ele>
        <time>2024-09-20T10:18:52Z</time>
      </trkpt>
      <trkpt lat="45.76061" lon="4.85954">
        <ele>169.4</ele>
        <time>2024-09-20T10:18:53Z</time>
      </trkpt>
      <trkpt lat="45.76061" lon="4.85954">
        <ele>169.4</ele>
        <time>2024-09-20T10:18:54Z</time>
      </trkpt>
      <trkpt lat="45.76061" lon="4.85953">
        <ele>169.4</ele>
        <time>2024-09-20T10:18:55Z</time>
      </trkpt>
      <trkpt lat="45.76061" lon="4.85953">
        <ele>169.4</ele>
        <time>2024-09-20T10:18:56Z</time>
      </trkpt>
      <trkpt lat="45.76061" lon="4.85953">
        <ele>169.4</ele>
        <time>2024-09-20T10:18:57Z</time>
      </trkpt>
      <trkpt lat="45.76061" lon="4.85953">
        <ele>169.4</ele>
        <time>2024-09-20T10:18:58Z</time>
      </trkpt>
      <trkpt lat="45.76061" lon="4.85953">
        <ele>169.4</ele>
        <time>2024-09-20T10:18:59Z</time>
      </trkpt>
      <trkpt lat="45.76061" lon="4.85952">
        <ele>169.2</ele>
        <time>2024-09-20T10:19:00Z</time>
      </trkpt>
      <trkpt lat="45.76061" lon="4.85952">
        <ele>169.2</ele>
        <time>2024-09-20T10:19:01Z</time>
      </trkpt>
      <trkpt lat="45.76061" lon="4.85952">
        <ele>169.2</ele>
        <time>2024-09-20T10:19:02Z</time>
      </trkpt>
      <trkpt lat="45.76061" lon="4.85952">
        <ele>169.2</ele>
        <time>2024-09-20T10:19:03Z</time>
      </trkpt>
      <trkpt lat="45.76061" lon="4.85952">
        <ele>169.4</ele>
        <time>2024-09-20T10:19:04Z</time>
      </trkpt>
      <trkpt lat="45.76061" lon="4.85951">
        <ele>169.4</ele>
        <time>2024-09-20T10:19:05Z</time>
      </trkpt>
      <trkpt lat="45.76061" lon="4.85951">
        <ele>169.4</ele>
        <time>2024-09-20T10:19:06Z</time>
      </trkpt>
      <trkpt lat="45.76061" lon="4.85951">
        <ele>169.4</ele>
        <time>2024-09-20T10:19:07Z</time>
      </trkpt>
      <trkpt lat="45.76061" lon="4.85951">
        <ele>169.4</ele>
        <time>2024-09-20T10:19:08Z</time>
      </trkpt>
      <trkpt lat="45.7606" lon="4.85951">
        <ele>169.4</ele>
        <time>2024-09-20T10:19:09Z</time>
      </trkpt>
      <trkpt lat="45.7606" lon="4.8595">
        <ele>169.4</ele>
        <time>2024-09-20T10:19:10Z</time>
      </trkpt>
      <trkpt lat="45.7606" lon="4.8595">
        <ele>169.4</ele>
        <time>2024-09-20T10:19:11Z</time>
      </trkpt>
      <trkpt lat="45.7606" lon="4.8595">
        <ele>169.4</ele>
        <time>2024-09-20T10:19:12Z</time>
      </trkpt>
      <trkpt lat="45.7606" lon="4.8595">
        <ele>169.4</ele>
        <time>2024-09-20T10:19:13Z</time>
      </trkpt>
      <trkpt lat="45.7606" lon="4.8595">
        <ele>169.4</ele>
        <time>2024-09-20T10:19:14Z</time>
      </trkpt>
      <trkpt lat="45.7606" lon="4.85949">
        <ele>169.4</ele>
        <time>2024-09-20T10:19:15Z</time>
      </trkpt>
      <trkpt lat="45.7606" lon="4.85949">
        <ele>169.6</ele>
        <time>2024-09-20T10:19:16Z</time>
      </trkpt>
      <trkpt lat="45.7606" lon="4.85949">
        <ele>169.4</ele>
        <time>2024-09-20T10:19:17Z</time>
      </trkpt>
      <trkpt lat="45.7606" lon="4.85949">
        <ele>169.4</ele>
        <time>2024-09-20T10:19:18Z</time>
      </trkpt>
      <trkpt lat="45.7606" lon="4.85949">
        <ele>169.4</ele>
        <time>2024-09-20T10:19:19Z</time>
      </trkpt>
      <trkpt lat="45.7606" lon="4.85948">
        <ele>169.4</ele>
        <time>2024-09-20T10:19:20Z</time>
      </trkpt>
      <trkpt lat="45.7606" lon="4.85948">
        <ele>169.6</ele>
        <time>2024-09-20T10:19:21Z</time>
      </trkpt>
      <trkpt lat="45.7606" lon="4.85948">
        <ele>169.6</ele>
        <time>2024-09-20T10:19:22Z</time>
      </trkpt>
      <trkpt lat="45.7606" lon="4.85948">
        <ele>169.6</ele>
        <time>2024-09-20T10:19:23Z</time>
      </trkpt>
      <trkpt lat="45.7606" lon="4.85948">
        <ele>169.6</ele>
        <time>2024-09-20T10:19:24Z</time>
      </trkpt>
      <trkpt lat="45.7606" lon="4.85947">
        <ele>169.6</ele>
        <time>2024-09-20T10:19:25Z</time>
      </trkpt>
      <trkpt lat="45.7606" lon="4.85947">
        <ele>169.6</ele>
        <time>2024-09-20T10:19:26Z</time>
      </trkpt>
      <trkpt lat="45.7606" lon="4.85947">
        <ele>169.6</ele>
        <time>2024-09-20T10:19:27Z</time>
      </trkpt>
      <trkpt lat="45.7606" lon="4.85947">
        <ele>169.6</ele>
        <time>2024-09-20T10:19:28Z</time>
      </trkpt>
      <trkpt lat="45.7606" lon="4.85947">
        <ele>169.6</ele>
        <time>2024-09-20T10:19:29Z</time>
      </trkpt>
      <trkpt lat="45.7606" lon="4.85946">
        <ele>169.6</ele>
        <time>2024-09-20T10:19:30Z</time>
      </trkpt>
      <trkpt lat="45.7606" lon="4.85946">
        <ele>169.6</ele>
        <time>2024-09-20T10:19:31Z</time>
      </trkpt>
      <trkpt lat="45.7606" lon="4.85946">
        <ele>169.6</ele>
        <time>2024-09-20T10:19:32Z</time>
      </trkpt>
      <trkpt lat="45.7606" lon="4.85946">
        <ele>169.6</ele>
        <time>2024-09-20T10:19:33Z</time>
      </trkpt>
      <trkpt lat="45.7606" lon="4.85946">
        <ele>169.6</ele>
        <time>2024-09-20T10:19:34Z</time>
      </trkpt>
      <trkpt lat="45.7606" lon="4.85945">
        <ele>169.4</ele>
        <time>2024-09-20T10:19:35Z</time>
      </trkpt>
      <trkpt lat="45.7606" lon="4.85945">
        <ele>169.4</ele>
        <time>2024-09-20T10:19:36Z</time>
      </trkpt>
      <trkpt lat="45.7606" lon="4.85945">
        <ele>169.4</ele>
        <time>2024-09-20T10:19:37Z</time>
      </trkpt>
      <trkpt lat="45.7606" lon="4.85945">
        <ele>169.4</ele>
        <time>2024-09-20T10:19:38Z</time>
      </trkpt>
      <trkpt lat="45.7606" lon="4.85944">
        <ele>169.4</ele>
        <time>2024-09-20T10:19:39Z</time>
      </trkpt>
      <trkpt lat="45.7606" lon="4.85931">
        <ele>169.4</ele>
        <time>2024-09-20T10:19:40Z</time>
      </trkpt>
      <trkpt lat="45.76052" lon="4.85935">
        <ele>169.4</ele>
        <time>2024-09-20T10:19:41Z</time>
      </trkpt>
      <trkpt lat="45.76046" lon="4.85939">
        <ele>169.4</ele>
        <time>2024-09-20T10:19:42Z</time>
      </trkpt>
      <trkpt lat="45.7604" lon="4.85944">
        <ele>169.4</ele>
        <time>2024-09-20T10:19:43Z</time>
      </trkpt>
      <trkpt lat="45.76022" lon="4.85958">
        <ele>169.6</ele>
        <time>2024-09-20T10:19:44Z</time>
      </trkpt>
      <trkpt lat="45.76018" lon="4.85964">
        <ele>169.6</ele>
        <time>2024-09-20T10:19:45Z</time>
      </trkpt>
      <trkpt lat="45.76018" lon="4.85964">
        <ele>169.6</ele>
        <time>2024-09-20T10:19:46Z</time>
      </trkpt>
      <trkpt lat="45.75982" lon="4.86011">
        <ele>169.2</ele>
        <time>2024-09-20T10:20:01Z</time>
      </trkpt>
      <trkpt lat="45.7598" lon="4.86012">
        <ele>169.2</ele>
        <time>2024-09-20T10:20:02Z</time>
      </trkpt>
      <trkpt lat="45.75977" lon="4.86012">
        <ele>169.2</ele>
        <time>2024-09-20T10:20:03Z</time>
      </trkpt>
      <trkpt lat="45.75977" lon="4.86013">
        <ele>169.2</ele>
        <time>2024-09-20T10:20:04Z</time>
      </trkpt>
      <trkpt lat="45.75977" lon="4.86013">
        <ele>169.2</ele>
        <time>2024-09-20T10:20:05Z</time>
      </trkpt>
      <trkpt lat="45.75979" lon="4.86012">
        <ele>169.2</ele>
        <time>2024-09-20T10:20:06Z</time>
      </trkpt>
      <trkpt lat="45.75982" lon="4.86012">
        <ele>169.2</ele>
        <time>2024-09-20T10:20:07Z</time>
      </trkpt>
      <trkpt lat="45.75983" lon="4.86013">
        <ele>169.2</ele>
        <time>2024-09-20T10:20:08Z</time>
      </trkpt>
      <trkpt lat="45.75984" lon="4.8601">
        <ele>169.2</ele>
        <time>2024-09-20T10:20:09Z</time>
      </trkpt>
      <trkpt lat="45.75985" lon="4.86005">
        <ele>169.2</ele>
        <time>2024-09-20T10:20:10Z</time>
      </trkpt>
      <trkpt lat="45.75984" lon="4.86005">
        <ele>169.2</ele>
        <time>2024-09-20T10:20:11Z</time>
      </trkpt>
      <trkpt lat="45.75984" lon="4.86008">
        <ele>169.2</ele>
        <time>2024-09-20T10:20:12Z</time>
      </trkpt>
      <trkpt lat="45.75983" lon="4.8601">
        <ele>169.4</ele>
        <time>2024-09-20T10:20:13Z</time>
      </trkpt>
      <trkpt lat="45.75984" lon="4.8601">
        <ele>169.4</ele>
        <time>2024-09-20T10:20:14Z</time>
      </trkpt>
      <trkpt lat="45.75986" lon="4.86009">
        <ele>169.2</ele>
        <time>2024-09-20T10:20:15Z</time>
      </trkpt>
      <trkpt lat="45.75986" lon="4.86008">
        <ele>169.2</ele>
        <time>2024-09-20T10:20:16Z</time>
      </trkpt>
      <trkpt lat="45.75989" lon="4.8601">
        <ele>169.2</ele>
        <time>2024-09-20T10:20:17Z</time>
      </trkpt>
      <trkpt lat="45.75991" lon="4.86006">
        <ele>169.2</ele>
        <time>2024-09-20T10:20:18Z</time>
      </trkpt>
      <trkpt lat="45.75994" lon="4.86006">
        <ele>169.2</ele>
        <time>2024-09-20T10:20:19Z</time>
      </trkpt>
      <trkpt lat="45.75996" lon="4.86008">
        <ele>169.2</ele>
        <time>2024-09-20T10:20:20Z</time>
      </trkpt>
      <trkpt lat="45.75996" lon="4.86008">
        <ele>169.2</ele>
        <time>2024-09-20T10:20:21Z</time>
      </trkpt>
      <trkpt lat="45.75996" lon="4.86008">
        <ele>169.2</ele>
        <time>2024-09-20T10:20:22Z</time>
      </trkpt>
      <trkpt lat="45.75998" lon="4.86015">
        <ele>169.2</ele>
        <time>2024-09-20T10:20:23Z</time>
      </trkpt>
      <trkpt lat="45.75999" lon="4.86017">
        <ele>169.2</ele>
        <time>2024-09-20T10:20:24Z</time>
      </trkpt>
      <trkpt lat="45.75999" lon="4.86017">
        <ele>169.2</ele>
        <time>2024-09-20T10:20:25Z</time>
      </trkpt>
      <trkpt lat="45.75999" lon="4.86017">
        <ele>169.2</ele>
        <time>2024-09-20T10:20:26Z</time>
      </trkpt>
      <trkpt lat="45.76003" lon="4.8602">
        <ele>169.2</ele>
        <time>2024-09-20T10:20:27Z</time>
      </trkpt>
      <trkpt lat="45.76004" lon="4.86021">
        <ele>169.2</ele>
        <time>2024-09-20T10:20:28Z</time>
      </trkpt>
      <trkpt lat="45.76004" lon="4.86021">
        <ele>169.2</ele>
        <time>2024-09-20T10:20:29Z</time>
      </trkpt>
      <trkpt lat="45.76004" lon="4.86021">
        <ele>169.2</ele>
        <time>2024-09-20T10:20:30Z</time>
      </trkpt>
      <trkpt lat="45.76011" lon="4.86015">
        <ele>169.2</ele>
        <time>2024-09-20T10:20:42Z</time>
      </trkpt>
      <trkpt lat="45.76014" lon="4.8601">
        <ele>169.2</ele>
        <time>2024-09-20T10:20:43Z</time>
      </trkpt>
      <trkpt lat="45.76017" lon="4.86007">
        <ele>169.4</ele>
        <time>2024-09-20T10:20:44Z</time>
      </trkpt>
      <trkpt lat="45.7602" lon="4.86004">
        <ele>169.2</ele>
        <time>2024-09-20T10:20:45Z</time>
      </trkpt>
      <trkpt lat="45.76021" lon="4.86004">
        <ele>169.2</ele>
        <time>2024-09-20T10:20:46Z</time>
      </trkpt>
      <trkpt lat="45.76023" lon="4.86001">
        <ele>169.2</ele>
        <time>2024-09-20T10:20:47Z</time>
      </trkpt>
      <trkpt lat="45.76025" lon="4.86001">
        <ele>169.2</ele>
        <time>2024-09-20T10:20:48Z</time>
      </trkpt>
      <trkpt lat="45.76028" lon="4.85997">
        <ele>169.4</ele>
        <time>2024-09-20T10:20:49Z</time>
      </trkpt>
      <trkpt lat="45.76028" lon="4.85997">
        <ele>169.4</ele>
        <time>2024-09-20T10:20:50Z</time>
      </trkpt>
      <trkpt lat="45.76028" lon="4.85994">
        <ele>169.4</ele>
        <time>2024-09-20T10:20:51Z</time>
      </trkpt>
      <trkpt lat="45.76026" lon="4.85994">
        <ele>169.4</ele>
        <time>2024-09-20T10:20:52Z</time>
      </trkpt>
      <trkpt lat="45.76025" lon="4.85995">
        <ele>169.4</ele>
        <time>2024-09-20T10:20:53Z</time>
      </trkpt>
      <trkpt lat="45.76027" lon="4.85992">
        <ele>169.2</ele>
        <time>2024-09-20T10:20:54Z</time>
      </trkpt>
      <trkpt lat="45.76025" lon="4.85992">
        <ele>169.2</ele>
        <time>2024-09-20T10:20:55Z</time>
      </trkpt>
      <trkpt lat="45.76022" lon="4.85993">
        <ele>169.2</ele>
        <time>2024-09-20T10:20:56Z</time>
      </trkpt>
      <trkpt lat="45.7602" lon="4.85991">
        <ele>169.2</ele>
        <time>2024-09-20T10:20:57Z</time>
      </trkpt>
      <trkpt lat="45.7602" lon="4.8599">
        <ele>169.4</ele>
        <time>2024-09-20T10:20:58Z</time>
      </trkpt>
      <trkpt lat="45.7602" lon="4.85989">
        <ele>169.4</ele>
        <time>2024-09-20T10:20:59Z</time>
      </trkpt>
      <trkpt lat="45.7602" lon="4.85988">
        <ele>169.4</ele>
        <time>2024-09-20T10:21:00Z</time>
      </trkpt>
      <trkpt lat="45.7602" lon="4.85988">
        <ele>169.4</ele>
        <time>2024-09-20T10:21:01Z</time>
      </trkpt>
      <trkpt lat="45.7602" lon="4.85987">
        <ele>169.4</ele>
        <time>2024-09-20T10:21:02Z</time>
      </trkpt>
      <trkpt lat="45.7602" lon="4.85986">
        <ele>169.4</ele>
        <time>2024-09-20T10:21:03Z</time>
      </trkpt>
      <trkpt lat="45.7602" lon="4.85985">
        <ele>169.4</ele>
        <time>2024-09-20T10:21:04Z</time>
      </trkpt>
      <trkpt lat="45.76021" lon="4.85984">
        <ele>169.4</ele>
        <time>2024-09-20T10:21:05Z</time>
      </trkpt>
      <trkpt lat="45.76021" lon="4.85983">
        <ele>169.4</ele>
        <time>2024-09-20T10:21:06Z</time>
      </trkpt>
      <trkpt lat="45.76025" lon="4.85975">
        <ele>169.2</ele>
        <time>2024-09-20T10:21:07Z</time>
      </trkpt>
      <trkpt lat="45.76028" lon="4.85974">
        <ele>169.2</ele>
        <time>2024-09-20T10:21:08Z</time>
      </trkpt>
      <trkpt lat="45.76032" lon="4.85976">
        <ele>169.2</ele>
        <time>2024-09-20T10:21:09Z</time>
      </trkpt>
      <trkpt lat="45.76038" lon="4.85977">
        <ele>169.2</ele>
        <time>2024-09-20T10:21:10Z</time>
      </trkpt>
      <trkpt lat="45.76039" lon="4.85977">
        <ele>169.4</ele>
        <time>2024-09-20T10:21:11Z</time>
      </trkpt>
      <trkpt lat="45.76039" lon="4.85977">
        <ele>169.4</ele>
        <time>2024-09-20T10:21:12Z</time>
      </trkpt>
      <trkpt lat="45.7604" lon="4.85977">
        <ele>169.4</ele>
        <time>2024-09-20T10:21:13Z</time>
      </trkpt>
      <trkpt lat="45.76041" lon="4.85977">
        <ele>169.4</ele>
        <time>2024-09-20T10:21:14Z</time>
      </trkpt>
      <trkpt lat="45.76041" lon="4.85977">
        <ele>169.4</ele>
        <time>2024-09-20T10:21:15Z</time>
      </trkpt>
      <trkpt lat="45.76042" lon="4.85977">
        <ele>169.4</ele>
        <time>2024-09-20T10:21:16Z</time>
      </trkpt>
      <trkpt lat="45.76043" lon="4.85977">
        <ele>169.4</ele>
        <time>2024-09-20T10:21:17Z</time>
      </trkpt>
      <trkpt lat="45.76043" lon="4.85977">
        <ele>169.4</ele>
        <time>2024-09-20T10:21:18Z</time>
      </trkpt>
      <trkpt lat="45.7605" lon="4.85977">
        <ele>169.4</ele>
        <time>2024-09-20T10:21:19Z</time>
      </trkpt>
      <trkpt lat="45.7605" lon="4.85977">
        <ele>169.4</ele>
        <time>2024-09-20T10:21:20Z</time>
      </trkpt>
      <trkpt lat="45.7605" lon="4.85977">
        <ele>169.4</ele>
        <time>2024-09-20T10:21:21Z</time>
      </trkpt>
      <trkpt lat="45.7605" lon="4.85977">
        <ele>169.4</ele>
        <time>2024-09-20T10:21:22Z</time>
      </trkpt>
      <trkpt lat="45.7605" lon="4.85977">
        <ele>169.4</ele>
        <time>2024-09-20T10:21:23Z</time>
      </trkpt>
      <trkpt lat="45.7605" lon="4.85977">
        <ele>169.4</ele>
        <time>2024-09-20T10:21:24Z</time>
      </trkpt>
      <trkpt lat="45.7605" lon="4.85977">
        <ele>169.4</ele>
        <time>2024-09-20T10:21:25Z</time>
      </trkpt>
      <trkpt lat="45.76052" lon="4.85984">
        <ele>169.4</ele>
        <time>2024-09-20T10:21:26Z</time>
      </trkpt>
      <trkpt lat="45.7605" lon="4.85985">
        <ele>169.4</ele>
        <time>2024-09-20T10:21:27Z</time>
      </trkpt>
      <trkpt lat="45.76057" lon="4.85987">
        <ele>169.4</ele>
        <time>2024-09-20T10:21:28Z</time>
      </trkpt>
      <trkpt lat="45.76058" lon="4.85986">
        <ele>169.4</ele>
        <time>2024-09-20T10:21:29Z</time>
      </trkpt>
      <trkpt lat="45.76059" lon="4.85983">
        <ele>169.4</ele>
        <time>2024-09-20T10:21:30Z</time>
      </trkpt>
      <trkpt lat="45.76056" lon="4.85982">
        <ele>169.4</ele>
        <time>2024-09-20T10:21:31Z</time>
      </trkpt>
      <trkpt lat="45.76053" lon="4.8598">
        <ele>169.4</ele>
        <time>2024-09-20T10:21:32Z</time>
      </trkpt>
      <trkpt lat="45.76051" lon="4.85979">
        <ele>169.4</ele>
        <time>2024-09-20T10:21:33Z</time>
      </trkpt>
      <trkpt lat="45.76048" lon="4.85977">
        <ele>169.6</ele>
        <time>2024-09-20T10:21:46Z</time>
      </trkpt>
      <trkpt lat="45.76046" lon="4.85976">
        <ele>169.6</ele>
        <time>2024-09-20T10:21:47Z</time>
      </trkpt>
      <trkpt lat="45.76043" lon="4.85974">
        <ele>169.6</ele>
        <time>2024-09-20T10:21:48Z</time>
      </trkpt>
      <trkpt lat="45.76041" lon="4.85973">
        <ele>169.6</ele>
        <time>2024-09-20T10:21:49Z</time>
      </trkpt>
      <trkpt lat="45.76038" lon="4.85972">
        <ele>169.6</ele>
        <time>2024-09-20T10:21:50Z</time>
      </trkpt>
      <trkpt lat="45.76035" lon="4.8597">
        <ele>169.6</ele>
        <time>2024-09-20T10:21:51Z</time>
      </trkpt>
      <trkpt lat="45.76033" lon="4.85969">
        <ele>169.6</ele>
        <time>2024-09-20T10:21:52Z</time>
      </trkpt>
      <trkpt lat="45.7603" lon="4.85967">
        <ele>169.6</ele>
        <time>2024-09-20T10:22:22Z</time>
      </trkpt>
      <trkpt lat="45.76028" lon="4.85966">
        <ele>169.6</ele>
        <time>2024-09-20T10:22:23Z</time>
      </trkpt>
      <trkpt lat="45.76025" lon="4.85964">
        <ele>169.6</ele>
        <time>2024-09-20T10:22:24Z</time>
      </trkpt>
      <trkpt lat="45.76022" lon="4.85963">
        <ele>169.6</ele>
        <time>2024-09-20T10:22:25Z</time>
      </trkpt>
      <trkpt lat="45.76016" lon="4.85969">
        <ele>169.6</ele>
        <time>2024-09-20T10:22:26Z</time>
      </trkpt>
      <trkpt lat="45.76012" lon="4.85972">
        <ele>169.6</ele>
        <time>2024-09-20T10:22:27Z</time>
      </trkpt>
      <trkpt lat="45.7601" lon="4.85975">
        <ele>169.6</ele>
        <time>2024-09-20T10:22:28Z</time>
      </trkpt>
      <trkpt lat="45.76005" lon="4.85979">
        <ele>169.6</ele>
        <time>2024-09-20T10:22:29Z</time>
      </trkpt>
      <trkpt lat="45.76002" lon="4.85982">
        <ele>169.6</ele>
        <time>2024-09-20T10:22:30Z</time>
      </trkpt>
      <trkpt lat="45.75998" lon="4.85985">
        <ele>169.6</ele>
        <time>2024-09-20T10:22:31Z</time>
      </trkpt>
      <trkpt lat="45.75994" lon="4.85992">
        <ele>169.6</ele>
        <time>2024-09-20T10:22:32Z</time>
      </trkpt>
      <trkpt lat="45.75994" lon="4.85994">
        <ele>169.6</ele>
        <time>2024-09-20T10:22:33Z</time>
      </trkpt>
      <trkpt lat="45.75995" lon="4.85995">
        <ele>169.6</ele>
        <time>2024-09-20T10:22:34Z</time>
      </trkpt>
      <trkpt lat="45.75994" lon="4.85996">
        <ele>169.6</ele>
        <time>2024-09-20T10:22:35Z</time>
      </trkpt>
      <trkpt lat="45.75992" lon="4.86">
        <ele>169.6</ele>
        <time>2024-09-20T10:22:36Z</time>
      </trkpt>
      <trkpt lat="45.75998" lon="4.85998">
        <ele>169.6</ele>
        <time>2024-09-20T10:22:37Z</time>
      </trkpt>
      <trkpt lat="45.76002" lon="4.85996">
        <ele>169.6</ele>
        <time>2024-09-20T10:22:38Z</time>
      </trkpt>
      <trkpt lat="45.76004" lon="4.85995">
        <ele>169.6</ele>
        <time>2024-09-20T10:22:39Z</time>
      </trkpt>
      <trkpt lat="45.76006" lon="4.85994">
        <ele>169.6</ele>
        <time>2024-09-20T10:22:40Z</time>
      </trkpt>
      <trkpt lat="45.76007" lon="4.85992">
        <ele>169.6</ele>
        <time>2024-09-20T10:22:41Z</time>
      </trkpt>
      <trkpt lat="45.76008" lon="4.85993">
        <ele>169.6</ele>
        <time>2024-09-20T10:22:42Z</time>
      </trkpt>
      <trkpt lat="45.76008" lon="4.85994">
        <ele>169.6</ele>
        <time>2024-09-20T10:22:43Z</time>
      </trkpt>
      <trkpt lat="45.76009" lon="4.85995">
        <ele>169.6</ele>
        <time>2024-09-20T10:22:44Z</time>
      </trkpt>
      <trkpt lat="45.7601" lon="4.85996">
        <ele>169.6</ele>
        <time>2024-09-20T10:22:45Z</time>
      </trkpt>
      <trkpt lat="45.76011" lon="4.85997">
        <ele>169.6</ele>
        <time>2024-09-20T10:22:46Z</time>
      </trkpt>
      <trkpt lat="45.76012" lon="4.85998">
        <ele>169.6</ele>
        <time>2024-09-20T10:22:47Z</time>
      </trkpt>
      <trkpt lat="45.76012" lon="4.85999">
        <ele>169.6</ele>
        <time>2024-09-20T10:23:31Z</time>
      </trkpt>
      <trkpt lat="45.76013" lon="4.86">
        <ele>169.6</ele>
        <time>2024-09-20T10:23:32Z</time>
      </trkpt>
      <trkpt lat="45.76014" lon="4.86002">
        <ele>169.6</ele>
        <time>2024-09-20T10:23:33Z</time>
      </trkpt>
      <trkpt lat="45.76015" lon="4.86003">
        <ele>169.6</ele>
        <time>2024-09-20T10:23:34Z</time>
      </trkpt>
      <trkpt lat="45.76016" lon="4.86004">
        <ele>169.6</ele>
        <time>2024-09-20T10:23:35Z</time>
      </trkpt>
      <trkpt lat="45.76016" lon="4.86005">
        <ele>169.6</ele>
        <time>2024-09-20T10:23:36Z</time>
      </trkpt>
      <trkpt lat="45.76017" lon="4.86006">
        <ele>169.6</ele>
        <time>2024-09-20T10:23:41Z</time>
      </trkpt>
      <trkpt lat="45.76018" lon="4.86007">
        <ele>169.6</ele>
        <time>2024-09-20T10:23:42Z</time>
      </trkpt>
      <trkpt lat="45.76019" lon="4.86008">
        <ele>169.6</ele>
        <time>2024-09-20T10:23:43Z</time>
      </trkpt>
      <trkpt lat="45.76021" lon="4.86024">
        <ele>169.6</ele>
        <time>2024-09-20T10:23:44Z</time>
      </trkpt>
      <trkpt lat="45.76021" lon="4.86024">
        <ele>169.6</ele>
        <time>2024-09-20T10:23:45Z</time>
      </trkpt>
      <trkpt lat="45.76021" lon="4.86024">
        <ele>169.6</ele>
        <time>2024-09-20T10:23:46Z</time>
      </trkpt>
      <trkpt lat="45.76027" lon="4.86062">
        <ele>169.6</ele>
        <time>2024-09-20T10:23:50Z</time>
      </trkpt>
      <trkpt lat="45.76028" lon="4.86061">
        <ele>169.6</ele>
        <time>2024-09-20T10:23:51Z</time>
      </trkpt>
      <trkpt lat="45.76028" lon="4.86058">
        <ele>169.6</ele>
        <time>2024-09-20T10:23:52Z</time>
      </trkpt>
      <trkpt lat="45.76028" lon="4.86058">
        <ele>169.6</ele>
        <time>2024-09-20T10:23:53Z</time>
      </trkpt>
      <trkpt lat="45.7605" lon="4.86035">
        <ele>169.8</ele>
        <time>2024-09-20T10:24:15Z</time>
      </trkpt>
      <trkpt lat="45.76051" lon="4.86033">
        <ele>169.6</ele>
        <time>2024-09-20T10:24:16Z</time>
      </trkpt>
      <trkpt lat="45.76051" lon="4.86029">
        <ele>169.6</ele>
        <time>2024-09-20T10:24:17Z</time>
      </trkpt>
      <trkpt lat="45.76051" lon="4.86026">
        <ele>169.6</ele>
        <time>2024-09-20T10:24:18Z</time>
      </trkpt>
      <trkpt lat="45.76051" lon="4.86024">
        <ele>169.6</ele>
        <time>2024-09-20T10:24:19Z</time>
      </trkpt>
      <trkpt lat="45.76052" lon="4.86022">
        <ele>169.6</ele>
        <time>2024-09-20T10:24:20Z</time>
      </trkpt>
      <trkpt lat="45.76052" lon="4.86023">
        <ele>169.6</ele>
        <time>2024-09-20T10:24:21Z</time>
      </trkpt>
      <trkpt lat="45.76053" lon="4.86022">
        <ele>169.6</ele>
        <time>2024-09-20T10:24:22Z</time>
      </trkpt>
      <trkpt lat="45.76053" lon="4.86021">
        <ele>169.6</ele>
        <time>2024-09-20T10:24:23Z</time>
      </trkpt>
      <trkpt lat="45.76053" lon="4.86018">
        <ele>169.6</ele>
        <time>2024-09-20T10:24:24Z</time>
      </trkpt>
      <trkpt lat="45.76053" lon="4.86015">
        <ele>169.6</ele>
        <time>2024-09-20T10:24:25Z</time>
      </trkpt>
      <trkpt lat="45.76055" lon="4.86014">
        <ele>169.6</ele>
        <time>2024-09-20T10:24:26Z</time>
      </trkpt>
      <trkpt lat="45.76055" lon="4.86013">
        <ele>169.6</ele>
        <time>2024-09-20T10:24:27Z</time>
      </trkpt>
      <trkpt lat="45.76055" lon="4.86011">
        <ele>169.6</ele>
        <time>2024-09-20T10:24:28Z</time>
      </trkpt>
      <trkpt lat="45.76054" lon="4.86012">
        <ele>169.8</ele>
        <time>2024-09-20T10:24:29Z</time>
      </trkpt>
      <trkpt lat="45.76054" lon="4.8601">
        <ele>169.8</ele>
        <time>2024-09-20T10:24:30Z</time>
      </trkpt>
      <trkpt lat="45.7605" lon="4.86017">
        <ele>169.8</ele>
        <time>2024-09-20T10:24:31Z</time>
      </trkpt>
      <trkpt lat="45.76046" lon="4.86011">
        <ele>169.6</ele>
        <time>2024-09-20T10:24:47Z</time>
      </trkpt>
      <trkpt lat="45.76045" lon="4.86008">
        <ele>169.6</ele>
        <time>2024-09-20T10:24:48Z</time>
      </trkpt>
      <trkpt lat="45.76045" lon="4.86007">
        <ele>169.6</ele>
        <time>2024-09-20T10:24:49Z</time>
      </trkpt>
      <trkpt lat="45.76045" lon="4.86003">
        <ele>169.6</ele>
        <time>2024-09-20T10:24:50Z</time>
      </trkpt>
      <trkpt lat="45.76044" lon="4.86002">
        <ele>169.6</ele>
        <time>2024-09-20T10:24:51Z</time>
      </trkpt>
      <trkpt lat="45.76045" lon="4.86001">
        <ele>169.6</ele>
        <time>2024-09-20T10:24:52Z</time>
      </trkpt>
      <trkpt lat="45.76044" lon="4.86001">
        <ele>169.6</ele>
        <time>2024-09-20T10:24:53Z</time>
      </trkpt>
      <trkpt lat="45.76044" lon="4.86001">
        <ele>169.6</ele>
        <time>2024-09-20T10:24:54Z</time>
      </trkpt>
      <trkpt lat="45.76044" lon="4.86001">
        <ele>169.6</ele>
        <time>2024-09-20T10:24:55Z</time>
      </trkpt>
      <trkpt lat="45.76043" lon="4.85985">
        <ele>169.6</ele>
        <time>2024-09-20T10:25:10Z</time>
      </trkpt>
      <trkpt lat="45.76043" lon="4.85985">
        <ele>169.6</ele>
        <time>2024-09-20T10:25:11Z</time>
      </trkpt>
      <trkpt lat="45.76043" lon="4.85983">
        <ele>169.6</ele>
        <time>2024-09-20T10:25:12Z</time>
      </trkpt>
      <trkpt lat="45.76043" lon="4.85981">
        <ele>169.6</ele>
        <time>2024-09-20T10:25:13Z</time>
      </trkpt>
      <trkpt lat="45.76044" lon="4.8598">
        <ele>169.6</ele>
        <time>2024-09-20T10:25:14Z</time>
      </trkpt>
      <trkpt lat="45.76044" lon="4.85981">
        <ele>169.6</ele>
        <time>2024-09-20T10:25:15Z</time>
      </trkpt>
      <trkpt lat="45.76044" lon="4.8598">
        <ele>169.6</ele>
        <time>2024-09-20T10:25:16Z</time>
      </trkpt>
      <trkpt lat="45.76044" lon="4.85979">
        <ele>169.8</ele>
        <time>2024-09-20T10:25:17Z</time>
      </trkpt>
      <trkpt lat="45.76044" lon="4.85979">
        <ele>169.8</ele>
        <time>2024-09-20T10:25:18Z</time>
      </trkpt>
      <trkpt lat="45.76044" lon="4.85979">
        <ele>169.8</ele>
        <time>2024-09-20T10:25:19Z</time>
      </trkpt>
      <trkpt lat="45.76052" lon="4.85969">
        <ele>170</ele>
        <time>2024-09-20T10:25:38Z</time>
      </trkpt>
      <trkpt lat="45.76054" lon="4.85966">
        <ele>169.8</ele>
        <time>2024-09-20T10:25:39Z</time>
      </trkpt>
      <trkpt lat="45.76056" lon="4.85966">
        <ele>169.8</ele>
        <time>2024-09-20T10:25:40Z</time>
      </trkpt>
      <trkpt lat="45.76056" lon="4.85966">
        <ele>169.8</ele>
        <time>2024-09-20T10:25:41Z</time>
      </trkpt>
      <trkpt lat="45.76056" lon="4.85966">
        <ele>169.8</ele>
        <time>2024-09-20T10:25:42Z</time>
      </trkpt>
      <trkpt lat="45.76056" lon="4.85966">
        <ele>169.8</ele>
        <time>2024-09-20T10:25:43Z</time>
      </trkpt>
      <trkpt lat="45.76054" lon="4.8597">
        <ele>169.8</ele>
        <time>2024-09-20T10:25:44Z</time>
      </trkpt>
      <trkpt lat="45.76052" lon="4.85977">
        <ele>169.8</ele>
        <time>2024-09-20T10:25:45Z</time>
      </trkpt>
      <trkpt lat="45.7605" lon="4.85981">
        <ele>169.8</ele>
        <time>2024-09-20T10:25:46Z</time>
      </trkpt>
      <trkpt lat="45.7605" lon="4.85981">
        <ele>169.8</ele>
        <time>2024-09-20T10:25:47Z</time>
      </trkpt>
      <trkpt lat="45.7605" lon="4.85981">
        <ele>169.8</ele>
        <time>2024-09-20T10:25:48Z</time>
      </trkpt>
      <trkpt lat="45.7605" lon="4.85982">
        <ele>169.8</ele>
        <time>2024-09-20T10:25:49Z</time>
      </trkpt>
      <trkpt lat="45.76049" lon="4.85982">
        <ele>170</ele>
        <time>2024-09-20T10:25:50Z</time>
      </trkpt>
      <trkpt lat="45.76048" lon="4.85976">
        <ele>170</ele>
        <time>2024-09-20T10:25:51Z</time>
      </trkpt>
      <trkpt lat="45.76048" lon="4.85976">
        <ele>169.8</ele>
        <time>2024-09-20T10:25:52Z</time>
      </trkpt>
      <trkpt lat="45.76053" lon="4.85972">
        <ele>169.8</ele>
        <time>2024-09-20T10:25:53Z</time>
      </trkpt>
      <trkpt lat="45.76056" lon="4.85972">
        <ele>169.8</ele>
        <time>2024-09-20T10:25:54Z</time>
      </trkpt>
      <trkpt lat="45.76059" lon="4.8597">
        <ele>169.8</ele>
        <time>2024-09-20T10:25:55Z</time>
      </trkpt>
      <trkpt lat="45.7606" lon="4.8597">
        <ele>169.8</ele>
        <time>2024-09-20T10:25:56Z</time>
      </trkpt>
      <trkpt lat="45.76057" lon="4.8597">
        <ele>169.8</ele>
        <time>2024-09-20T10:25:57Z</time>
      </trkpt>
      <trkpt lat="45.76057" lon="4.8597">
        <ele>169.8</ele>
        <time>2024-09-20T10:25:58Z</time>
      </trkpt>
      <trkpt lat="45.75973" lon="4.86108">
        <ele>170</ele>
        <time>2024-09-20T10:26:44Z</time>
      </trkpt>
      <trkpt lat="45.75973" lon="4.8611">
        <ele>170</ele>
        <time>2024-09-20T10:26:45Z</time>
      </trkpt>
      <trkpt lat="45.75972" lon="4.8611">
        <ele>170</ele>
        <time>2024-09-20T10:26:46Z</time>
      </trkpt>
      <trkpt lat="45.75972" lon="4.86109">
        <ele>170</ele>
        <time>2024-09-20T10:26:47Z</time>
      </trkpt>
      <trkpt lat="45.75972" lon="4.86109">
        <ele>172</ele>
        <time>2024-09-20T10:26:48Z</time>
      </trkpt>
      <trkpt lat="45.75972" lon="4.86108">
        <ele>172</ele>
        <time>2024-09-20T10:26:49Z</time>
      </trkpt>
      <trkpt lat="45.75971" lon="4.86108">
        <ele>172</ele>
        <time>2024-09-20T10:26:50Z</time>
      </trkpt>
      <trkpt lat="45.75971" lon="4.86107">
        <ele>171</ele>
        <time>2024-09-20T10:26:51Z</time>
      </trkpt>
      <trkpt lat="45.75971" lon="4.86107">
        <ele>171</ele>
        <time>2024-09-20T10:26:52Z</time>
      </trkpt>
      <trkpt lat="45.75971" lon="4.86107">
        <ele>170</ele>
        <time>2024-09-20T10:26:53Z</time>
      </trkpt>
      <trkpt lat="45.7597" lon="4.86106">
        <ele>170</ele>
        <time>2024-09-20T10:26:54Z</time>
      </trkpt>
      <trkpt lat="45.7597" lon="4.86106">
        <ele>170</ele>
        <time>2024-09-20T10:26:55Z</time>
      </trkpt>
      <trkpt lat="45.7597" lon="4.86105">
        <ele>170</ele>
        <time>2024-09-20T10:26:56Z</time>
      </trkpt>
      <trkpt lat="45.7597" lon="4.86105">
        <ele>170.4</ele>
        <time>2024-09-20T10:26:57Z</time>
      </trkpt>
      <trkpt lat="45.75969" lon="4.86104">
        <ele>170.2</ele>
        <time>2024-09-20T10:26:58Z</time>
      </trkpt>
      <trkpt lat="45.75969" lon="4.86104">
        <ele>170.2</ele>
        <time>2024-09-20T10:26:59Z</time>
      </trkpt>
      <trkpt lat="45.75969" lon="4.86103">
        <ele>170.2</ele>
        <time>2024-09-20T10:27:00Z</time>
      </trkpt>
      <trkpt lat="45.75969" lon="4.86103">
        <ele>170.2</ele>
        <time>2024-09-20T10:27:01Z</time>
      </trkpt>
      <trkpt lat="45.75968" lon="4.86102">
        <ele>170.4</ele>
        <time>2024-09-20T10:27:02Z</time>
      </trkpt>
      <trkpt lat="45.75968" lon="4.86102">
        <ele>170.4</ele>
        <time>2024-09-20T10:27:03Z</time>
      </trkpt>
      <trkpt lat="45.75968" lon="4.86101">
        <ele>170.4</ele>
        <time>2024-09-20T10:27:04Z</time>
      </trkpt>
      <trkpt lat="45.75968" lon="4.86101">
        <ele>170.4</ele>
        <time>2024-09-20T10:27:05Z</time>
      </trkpt>
      <trkpt lat="45.75967" lon="4.861">
        <ele>170.2</ele>
        <time>2024-09-20T10:27:06Z</time>
      </trkpt>
      <trkpt lat="45.75967" lon="4.861">
        <ele>170.2</ele>
        <time>2024-09-20T10:27:07Z</time>
      </trkpt>
      <trkpt lat="45.75967" lon="4.86099">
        <ele>170.2</ele>
        <time>2024-09-20T10:27:08Z</time>
      </trkpt>
      <trkpt lat="45.75967" lon="4.86099">
        <ele>170.2</ele>
        <time>2024-09-20T10:27:09Z</time>
      </trkpt>
      <trkpt lat="45.75966" lon="4.86098">
        <ele>170.2</ele>
        <time>2024-09-20T10:27:10Z</time>
      </trkpt>
      <trkpt lat="45.75966" lon="4.86098">
        <ele>170.2</ele>
        <time>2024-09-20T10:27:11Z</time>
      </trkpt>
      <trkpt lat="45.75966" lon="4.86098">
        <ele>170.2</ele>
        <time>2024-09-20T10:27:12Z</time>
      </trkpt>
      <trkpt lat="45.75966" lon="4.86097">
        <ele>170.2</ele>
        <time>2024-09-20T10:27:13Z</time>
      </trkpt>
      <trkpt lat="45.75965" lon="4.86097">
        <ele>170.2</ele>
        <time>2024-09-20T10:27:14Z</time>
      </trkpt>
      <trkpt lat="45.75965" lon="4.86096">
        <ele>170.4</ele>
        <time>2024-09-20T10:27:15Z</time>
      </trkpt>
      <trkpt lat="45.75965" lon="4.86096">
        <ele>170.4</ele>
        <time>2024-09-20T10:27:16Z</time>
      </trkpt>
      <trkpt lat="45.75965" lon="4.86095">
        <ele>170.4</ele>
        <time>2024-09-20T10:27:17Z</time>
      </trkpt>
      <trkpt lat="45.75964" lon="4.86095">
        <ele>170.4</ele>
        <time>2024-09-20T10:27:18Z</time>
      </trkpt>
      <trkpt lat="45.75964" lon="4.86094">
        <ele>170.4</ele>
        <time>2024-09-20T10:27:19Z</time>
      </trkpt>
      <trkpt lat="45.75964" lon="4.86094">
        <ele>170.4</ele>
        <time>2024-09-20T10:27:20Z</time>
      </trkpt>
      <trkpt lat="45.75964" lon="4.86093">
        <ele>170.4</ele>
        <time>2024-09-20T10:27:21Z</time>
      </trkpt>
      <trkpt lat="45.75963" lon="4.86093">
        <ele>170.4</ele>
        <time>2024-09-20T10:27:22Z</time>
      </trkpt>
      <trkpt lat="45.75963" lon="4.86092">
        <ele>170.4</ele>
        <time>2024-09-20T10:27:23Z</time>
      </trkpt>
      <trkpt lat="45.75963" lon="4.86092">
        <ele>170.4</ele>
        <time>2024-09-20T10:27:24Z</time>
      </trkpt>
      <trkpt lat="45.75963" lon="4.86091">
        <ele>170.2</ele>
        <time>2024-09-20T10:27:25Z</time>
      </trkpt>
      <trkpt lat="45.75962" lon="4.86091">
        <ele>170.2</ele>
        <time>2024-09-20T10:27:26Z</time>
      </trkpt>
      <trkpt lat="45.75962" lon="4.8609">
        <ele>170.4</ele>
        <time>2024-09-20T10:27:27Z</time>
      </trkpt>
      <trkpt lat="45.75962" lon="4.8609">
        <ele>170.4</ele>
        <time>2024-09-20T10:27:28Z</time>
      </trkpt>
      <trkpt lat="45.75962" lon="4.8609">
        <ele>170.4</ele>
        <time>2024-09-20T10:27:29Z</time>
      </trkpt>
      <trkpt lat="45.75961" lon="4.86089">
        <ele>170.4</ele>
        <time>2024-09-20T10:27:30Z</time>
      </trkpt>
      <trkpt lat="45.75961" lon="4.86089">
        <ele>170.4</ele>
        <time>2024-09-20T10:27:31Z</time>
      </trkpt>
      <trkpt lat="45.75961" lon="4.86088">
        <ele>170.4</ele>
        <time>2024-09-20T10:27:32Z</time>
      </trkpt>
      <trkpt lat="45.75961" lon="4.86088">
        <ele>170.2</ele>
        <time>2024-09-20T10:27:33Z</time>
      </trkpt>
      <trkpt lat="45.7596" lon="4.86087">
        <ele>170.2</ele>
        <time>2024-09-20T10:27:34Z</time>
      </trkpt>
      <trkpt lat="45.7596" lon="4.86087">
        <ele>170.2</ele>
        <time>2024-09-20T10:27:35Z</time>
      </trkpt>
      <trkpt lat="45.7596" lon="4.86086">
        <ele>170.2</ele>
        <time>2024-09-20T10:27:36Z</time>
      </trkpt>
      <trkpt lat="45.7596" lon="4.86086">
        <ele>170.4</ele>
        <time>2024-09-20T10:27:37Z</time>
      </trkpt>
      <trkpt lat="45.75959" lon="4.86085">
        <ele>170.4</ele>
        <time>2024-09-20T10:27:38Z</time>
      </trkpt>
      <trkpt lat="45.75959" lon="4.86085">
        <ele>170.4</ele>
        <time>2024-09-20T10:27:39Z</time>
      </trkpt>
      <trkpt lat="45.75959" lon="4.86084">
        <ele>170.4</ele>
        <time>2024-09-20T10:27:40Z</time>
      </trkpt>
      <trkpt lat="45.75959" lon="4.86084">
        <ele>170.4</ele>
        <time>2024-09-20T10:27:41Z</time>
      </trkpt>
      <trkpt lat="45.75958" lon="4.86083">
        <ele>170.4</ele>
        <time>2024-09-20T10:27:42Z</time>
      </trkpt>
      <trkpt lat="45.75958" lon="4.86083">
        <ele>170.2</ele>
        <time>2024-09-20T10:27:43Z</time>
      </trkpt>
      <trkpt lat="45.75958" lon="4.86082">
        <ele>170.2</ele>
        <time>2024-09-20T10:27:44Z</time>
      </trkpt>
      <trkpt lat="45.75958" lon="4.86082">
        <ele>170.2</ele>
        <time>2024-09-20T10:27:45Z</time>
      </trkpt>
      <trkpt lat="45.75957" lon="4.86082">
        <ele>170.2</ele>
        <time>2024-09-20T10:27:46Z</time>
      </trkpt>
      <trkpt lat="45.75957" lon="4.86081">
        <ele>170.4</ele>
        <time>2024-09-20T10:27:47Z</time>
      </trkpt>
      <trkpt lat="45.75957" lon="4.86081">
        <ele>170.4</ele>
        <time>2024-09-20T10:27:48Z</time>
      </trkpt>
      <trkpt lat="45.75957" lon="4.8608">
        <ele>170.4</ele>
        <time>2024-09-20T10:27:49Z</time>
      </trkpt>
      <trkpt lat="45.75956" lon="4.8608">
        <ele>170.4</ele>
        <time>2024-09-20T10:27:50Z</time>
      </trkpt>
      <trkpt lat="45.75956" lon="4.86079">
        <ele>170.4</ele>
        <time>2024-09-20T10:27:51Z</time>
      </trkpt>
      <trkpt lat="45.75956" lon="4.86079">
        <ele>170.4</ele>
        <time>2024-09-20T10:27:52Z</time>
      </trkpt>
      <trkpt lat="45.75956" lon="4.86078">
        <ele>170.4</ele>
        <time>2024-09-20T10:27:53Z</time>
      </trkpt>
      <trkpt lat="45.75955" lon="4.86078">
        <ele>170.4</ele>
        <time>2024-09-20T10:27:54Z</time>
      </trkpt>
      <trkpt lat="45.75955" lon="4.86077">
        <ele>170.2</ele>
        <time>2024-09-20T10:27:55Z</time>
      </trkpt>
      <trkpt lat="45.75955" lon="4.86077">
        <ele>170.2</ele>
        <time>2024-09-20T10:27:56Z</time>
      </trkpt>
      <trkpt lat="45.75937" lon="4.86036">
        <ele>170.4</ele>
        <time>2024-09-20T10:27:57Z</time>
      </trkpt>
      <trkpt lat="45.75938" lon="4.86032">
        <ele>170.4</ele>
        <time>2024-09-20T10:27:58Z</time>
      </trkpt>
      <trkpt lat="45.75939" lon="4.86024">
        <ele>170.4</ele>
        <time>2024-09-20T10:27:59Z</time>
      </trkpt>
      <trkpt lat="45.7594" lon="4.86018">
        <ele>170.4</ele>
        <time>2024-09-20T10:28:00Z</time>
      </trkpt>
      <trkpt lat="45.75944" lon="4.86012">
        <ele>170.4</ele>
        <time>2024-09-20T10:28:01Z</time>
      </trkpt>
      <trkpt lat="45.75947" lon="4.86007">
        <ele>170.4</ele>
        <time>2024-09-20T10:28:02Z</time>
      </trkpt>
      <trkpt lat="45.75948" lon="4.86001">
        <ele>170.4</ele>
        <time>2024-09-20T10:28:03Z</time>
      </trkpt>
      <trkpt lat="45.7595" lon="4.85999">
        <ele>170.4</ele>
        <time>2024-09-20T10:28:04Z</time>
      </trkpt>
      <trkpt lat="45.75955" lon="4.85993">
        <ele>170.4</ele>
        <time>2024-09-20T10:28:05Z</time>
      </trkpt>
      <trkpt lat="45.75955" lon="4.85993">
        <ele>170.4</ele>
        <time>2024-09-20T10:28:06Z</time>
      </trkpt>
      <trkpt lat="45.75956" lon="4.85989">
        <ele>170.4</ele>
        <time>2024-09-20T10:28:07Z</time>
      </trkpt>
      <trkpt lat="45.75956" lon="4.85987">
        <ele>170.4</ele>
        <time>2024-09-20T10:28:08Z</time>
      </trkpt>
      <trkpt lat="45.75956" lon="4.85989">
        <ele>170.4</ele>
        <time>2024-09-20T10:28:09Z</time>
      </trkpt>
      <trkpt lat="45.75957" lon="4.85991">
        <ele>170.4</ele>
        <time>2024-09-20T10:28:10Z</time>
      </trkpt>
      <trkpt lat="45.75958" lon="4.85993">
        <ele>170.4</ele>
        <time>2024-09-20T10:28:11Z</time>
      </trkpt>
      <trkpt lat="45.75959" lon="4.85996">
        <ele>170.4</ele>
        <time>2024-09-20T10:28:12Z</time>
      </trkpt>
      <trkpt lat="45.75959" lon="4.85998">
        <ele>170.4</ele>
        <time>2024-09-20T10:28:13Z</time>
      </trkpt>
      <trkpt lat="45.7596" lon="4.86">
        <ele>170.2</ele>
        <time>2024-09-20T10:28:14Z</time>
      </trkpt>
      <trkpt lat="45.75961" lon="4.86002">
        <ele>170.2</ele>
        <time>2024-09-20T10:28:15Z</time>
      </trkpt>
      <trkpt lat="45.75961" lon="4.86004">
        <ele>170.2</ele>
        <time>2024-09-20T10:28:16Z</time>
      </trkpt>
      <trkpt lat="45.75962" lon="4.86007">
        <ele>170.2</ele>
        <time>2024-09-20T10:28:17Z</time>
      </trkpt>
      <trkpt lat="45.75963" lon="4.86009">
        <ele>170.2</ele>
        <time>2024-09-20T10:28:18Z</time>
      </trkpt>
      <trkpt lat="45.75964" lon="4.86011">
        <ele>170.2</ele>
        <time>2024-09-20T10:28:19Z</time>
      </trkpt>
      <trkpt lat="45.75964" lon="4.86013">
        <ele>170.2</ele>
        <time>2024-09-20T10:28:20Z</time>
      </trkpt>
      <trkpt lat="45.75965" lon="4.86016">
        <ele>170.2</ele>
        <time>2024-09-20T10:28:21Z</time>
      </trkpt>
      <trkpt lat="45.75966" lon="4.86018">
        <ele>170.2</ele>
        <time>2024-09-20T10:28:22Z</time>
      </trkpt>
      <trkpt lat="45.75967" lon="4.8602">
        <ele>170.2</ele>
        <time>2024-09-20T10:28:23Z</time>
      </trkpt>
      <trkpt lat="45.75967" lon="4.86022">
        <ele>170.4</ele>
        <time>2024-09-20T10:28:24Z</time>
      </trkpt>
      <trkpt lat="45.75968" lon="4.86024">
        <ele>170.4</ele>
        <time>2024-09-20T10:28:25Z</time>
      </trkpt>
      <trkpt lat="45.75969" lon="4.86027">
        <ele>170.2</ele>
        <time>2024-09-20T10:28:26Z</time>
      </trkpt>
      <trkpt lat="45.75969" lon="4.86029">
        <ele>170.4</ele>
        <time>2024-09-20T10:28:27Z</time>
      </trkpt>
      <trkpt lat="45.7597" lon="4.86031">
        <ele>170.4</ele>
        <time>2024-09-20T10:28:28Z</time>
      </trkpt>
      <trkpt lat="45.75971" lon="4.86033">
        <ele>170.4</ele>
        <time>2024-09-20T10:28:29Z</time>
      </trkpt>
      <trkpt lat="45.75972" lon="4.86036">
        <ele>170.4</ele>
        <time>2024-09-20T10:28:30Z</time>
      </trkpt>
      <trkpt lat="45.75988" lon="4.86083">
        <ele>170.4</ele>
        <time>2024-09-20T10:28:31Z</time>
      </trkpt>
      <trkpt lat="45.75988" lon="4.86079">
        <ele>170.4</ele>
        <time>2024-09-20T10:28:32Z</time>
      </trkpt>
      <trkpt lat="45.75988" lon="4.86075">
        <ele>170.4</ele>
        <time>2024-09-20T10:28:33Z</time>
      </trkpt>
      <trkpt lat="45.75988" lon="4.86071">
        <ele>170.4</ele>
        <time>2024-09-20T10:28:34Z</time>
      </trkpt>
      <trkpt lat="45.75988" lon="4.86068">
        <ele>170.4</ele>
        <time>2024-09-20T10:28:35Z</time>
      </trkpt>
      <trkpt lat="45.75987" lon="4.86048">
        <ele>170.6</ele>
        <time>2024-09-20T10:28:36Z</time>
      </trkpt>
      <trkpt lat="45.75992" lon="4.86047">
        <ele>170.6</ele>
        <time>2024-09-20T10:28:37Z</time>
      </trkpt>
      <trkpt lat="45.75995" lon="4.86046">
        <ele>170.6</ele>
        <time>2024-09-20T10:28:38Z</time>
      </trkpt>
      <trkpt lat="45.75996" lon="4.86045">
        <ele>170.6</ele>
        <time>2024-09-20T10:28:39Z</time>
      </trkpt>
      <trkpt lat="45.75995" lon="4.86049">
        <ele>170.6</ele>
        <time>2024-09-20T10:28:40Z</time>
      </trkpt>
      <trkpt lat="45.75996" lon="4.86054">
        <ele>170.6</ele>
        <time>2024-09-20T10:28:41Z</time>
      </trkpt>
      <trkpt lat="45.75996" lon="4.86054">
        <ele>170.6</ele>
        <time>2024-09-20T10:28:42Z</time>
      </trkpt>
      <trkpt lat="45.75996" lon="4.86054">
        <ele>170.6</ele>
        <time>2024-09-20T10:28:43Z</time>
      </trkpt>
      <trkpt lat="45.75996" lon="4.86054">
        <ele>170.6</ele>
        <time>2024-09-20T10:28:44Z</time>
      </trkpt>
      <trkpt lat="45.75996" lon="4.86054">
        <ele>170.6</ele>
        <time>2024-09-20T10:28:45Z</time>
      </trkpt>
      <trkpt lat="45.75996" lon="4.86054">
        <ele>170.6</ele>
        <time>2024-09-20T10:28:46Z</time>
      </trkpt>
      <trkpt lat="45.75996" lon="4.86054">
        <ele>170.6</ele>
        <time>2024-09-20T10:28:47Z</time>
      </trkpt>
      <trkpt lat="45.75996" lon="4.86054">
        <ele>170.6</ele>
        <time>2024-09-20T10:28:48Z</time>
      </trkpt>
      <trkpt lat="45.75996" lon="4.86054">
        <ele>170.6</ele>
        <time>2024-09-20T10:28:49Z</time>
      </trkpt>
      <trkpt lat="45.75996" lon="4.86054">
        <ele>170.6</ele>
        <time>2024-09-20T10:28:50Z</time>
      </trkpt>
      <trkpt lat="45.75996" lon="4.86054">
        <ele>170.6</ele>
        <time>2024-09-20T10:28:51Z</time>
      </trkpt>
      <trkpt lat="45.75996" lon="4.86054">
        <ele>170.6</ele>
        <time>2024-09-20T10:28:52Z</time>
      </trkpt>
      <trkpt lat="45.75996" lon="4.86054">
        <ele>170.8</ele>
        <time>2024-09-20T10:28:53Z</time>
      </trkpt>
      <trkpt lat="45.75996" lon="4.86054">
        <ele>170.8</ele>
        <time>2024-09-20T10:28:54Z</time>
      </trkpt>
      <trkpt lat="45.75996" lon="4.86054">
        <ele>170.8</ele>
        <time>2024-09-20T10:28:55Z</time>
      </trkpt>
      <trkpt lat="45.75996" lon="4.86054">
        <ele>170.8</ele>
        <time>2024-09-20T10:28:56Z</time>
      </trkpt>
      <trkpt lat="45.75996" lon="4.86054">
        <ele>170.6</ele>
        <time>2024-09-20T10:28:57Z</time>
      </trkpt>
      <trkpt lat="45.75996" lon="4.86054">
        <ele>170.6</ele>
        <time>2024-09-20T10:28:58Z</time>
      </trkpt>
      <trkpt lat="45.75996" lon="4.86054">
        <ele>170.6</ele>
        <time>2024-09-20T10:28:59Z</time>
      </trkpt>
      <trkpt lat="45.75996" lon="4.86054">
        <ele>170.6</ele>
        <time>2024-09-20T10:29:00Z</time>
      </trkpt>
      <trkpt lat="45.75996" lon="4.86054">
        <ele>170.6</ele>
        <time>2024-09-20T10:29:01Z</time>
      </trkpt>
      <trkpt lat="45.75996" lon="4.86054">
        <ele>170.6</ele>
        <time>2024-09-20T10:29:02Z</time>
      </trkpt>
      <trkpt lat="45.75996" lon="4.86054">
        <ele>170.8</ele>
        <time>2024-09-20T10:29:03Z</time>
      </trkpt>
      <trkpt lat="45.75996" lon="4.86054">
        <ele>170.8</ele>
        <time>2024-09-20T10:29:04Z</time>
      </trkpt>
      <trkpt lat="45.75996" lon="4.86054">
        <ele>170.8</ele>
        <time>2024-09-20T10:29:05Z</time>
      </trkpt>
      <trkpt lat="45.75996" lon="4.86054">
        <ele>170.8</ele>
        <time>2024-09-20T10:29:06Z</time>
      </trkpt>
      <trkpt lat="45.75996" lon="4.86054">
        <ele>170.6</ele>
        <time>2024-09-20T10:29:07Z</time>
      </trkpt>
      <trkpt lat="45.75996" lon="4.86054">
        <ele>170.6</ele>
        <time>2024-09-20T10:29:08Z</time>
      </trkpt>
      <trkpt lat="45.75996" lon="4.86054">
        <ele>170.6</ele>
        <time>2024-09-20T10:29:09Z</time>
      </trkpt>
      <trkpt lat="45.75996" lon="4.86054">
        <ele>170.6</ele>
        <time>2024-09-20T10:29:10Z</time>
      </trkpt>
      <trkpt lat="45.75996" lon="4.86054">
        <ele>170.6</ele>
        <time>2024-09-20T10:29:11Z</time>
      </trkpt>
      <trkpt lat="45.75996" lon="4.86054">
        <ele>170.6</ele>
        <time>2024-09-20T10:29:12Z</time>
      </trkpt>
      <trkpt lat="45.75996" lon="4.86054">
        <ele>170.6</ele>
        <time>2024-09-20T10:29:13Z</time>
      </trkpt>
      <trkpt lat="45.75996" lon="4.86054">
        <ele>170.6</ele>
        <time>2024-09-20T10:29:14Z</time>
      </trkpt>
      <trkpt lat="45.75996" lon="4.86054">
        <ele>170.6</ele>
        <time>2024-09-20T10:29:15Z</time>
      </trkpt>
      <trkpt lat="45.75996" lon="4.86054">
        <ele>170.6</ele>
        <time>2024-09-20T10:29:16Z</time>
      </trkpt>
      <trkpt lat="45.75996" lon="4.86054">
        <ele>170.6</ele>
        <time>2024-09-20T10:29:17Z</time>
      </trkpt>
      <trkpt lat="45.75996" lon="4.86054">
        <ele>170.6</ele>
        <time>2024-09-20T10:29:18Z</time>
      </trkpt>
      <trkpt lat="45.75996" lon="4.86054">
        <ele>170.8</ele>
        <time>2024-09-20T10:29:19Z</time>
      </trkpt>
      <trkpt lat="45.75996" lon="4.86054">
        <ele>170.6</ele>
        <time>2024-09-20T10:29:20Z</time>
      </trkpt>
      <trkpt lat="45.75996" lon="4.86054">
        <ele>170.6</ele>
        <time>2024-09-20T10:29:21Z</time>
      </trkpt>
      <trkpt lat="45.75996" lon="4.86054">
        <ele>170.6</ele>
        <time>2024-09-20T10:29:22Z</time>
      </trkpt>
      <trkpt lat="45.75996" lon="4.86054">
        <ele>170.6</ele>
        <time>2024-09-20T10:29:23Z</time>
      </trkpt>
      <trkpt lat="45.75996" lon="4.86054">
        <ele>170.6</ele>
        <time>2024-09-20T10:29:24Z</time>
      </trkpt>
      <trkpt lat="45.75996" lon="4.86054">
        <ele>170</ele>
        <time>2024-09-20T10:29:25Z</time>
      </trkpt>
      <trkpt lat="45.75996" lon="4.86054">
        <ele>170</ele>
        <time>2024-09-20T10:29:26Z</time>
      </trkpt>
      <trkpt lat="45.75996" lon="4.86054">
        <ele>170</ele>
        <time>2024-09-20T10:29:27Z</time>
      </trkpt>
      <trkpt lat="45.75996" lon="4.86054">
        <ele>170</ele>
        <time>2024-09-20T10:29:28Z</time>
      </trkpt>
      <trkpt lat="45.75996" lon="4.86054">
        <ele>172</ele>
        <time>2024-09-20T10:29:29Z</time>
      </trkpt>
      <trkpt lat="45.75996" lon="4.86054">
        <ele>172</ele>
        <time>2024-09-20T10:29:30Z</time>
      </trkpt>
      <trkpt lat="45.75996" lon="4.86054">
        <ele>172</ele>
        <time>2024-09-20T10:29:31Z</time>
      </trkpt>
      <trkpt lat="45.75996" lon="4.86054">
        <ele>171</ele>
        <time>2024-09-20T10:29:32Z</time>
      </trkpt>
      <trkpt lat="45.75996" lon="4.86054">
        <ele>170.6</ele>
        <time>2024-09-20T10:29:33Z</time>
      </trkpt>
      <trkpt lat="45.75996" lon="4.86054">
        <ele>170.6</ele>
        <time>2024-09-20T10:29:34Z</time>
      </trkpt>
      <trkpt lat="45.75996" lon="4.86054">
        <ele>170.6</ele>
        <time>2024-09-20T10:29:35Z</time>
      </trkpt>
    </trkseg>
  </trk>
  <trk>
    <name><![CDATA[Deuxième étape: Trévoux]]></name>
    <extensions>
      <line xmlns="http://www.topografix.com/GPX/gpx_style/0/2">
        <color>00FF00</color>
        <width>4</width>
      </line>
    </extensions>
    <trkseg>
      <trkpt lat="46.43004" lon="4.93159">
        <ele>185</ele>
        <time>2024-09-19T07:42:37Z</time>
      </trkpt>
      <trkpt lat="46.43003" lon="4.93161">
        <ele>185</ele>
        <time>2024-09-19T07:42:38Z</time>
      </trkpt>
      <trkpt lat="46.43002" lon="4.93163">
        <ele>188.6</ele>
        <time>2024-09-19T07:42:39Z</time>
      </trkpt>
      <trkpt lat="46.43" lon="4.93167">
        <ele>188.6</ele>
        <time>2024-09-19T07:42:40Z</time>
      </trkpt>
      <trkpt lat="46.42998" lon="4.9317">
        <ele>188.6</ele>
        <time>2024-09-19T07:42:41Z</time>
      </trkpt>
      <trkpt lat="46.42997" lon="4.93175">
        <ele>188.4</ele>
        <time>2024-09-19T07:42:42Z</time>
      </trkpt>
      <trkpt lat="46.42997" lon="4.93179">
        <ele>188.2</ele>
        <time>2024-09-19T07:42:43Z</time>
      </trkpt>
      <trkpt lat="46.42997" lon="4.93185">
        <ele>188.2</ele>
        <time>2024-09-19T07:42:44Z</time>
      </trkpt>
      <trkpt lat="46.42997" lon="4.93191">
        <ele>188.2</ele>
        <time>2024-09-19T07:42:45Z</time>
      </trkpt>
      <trkpt lat="46.42996" lon="4.93195">
        <ele>188.2</ele>
        <time>2024-09-19T07:42:46Z</time>
      </trkpt>
      <trkpt lat="46.42997" lon="4.93203">
        <ele>188</ele>
        <time>2024-09-19T07:42:47Z</time>
      </trkpt>
      <trkpt lat="46.42997" lon="4.93205">
        <ele>188</ele>
        <time>2024-09-19T07:42:48Z</time>
      </trkpt>
      <trkpt lat="46.42999" lon="4.93211">
        <ele>188</ele>
        <time>2024-09-19T07:42:49Z</time>
      </trkpt>
      <trkpt lat="46.42999" lon="4.93213">
        <ele>188.6</ele>
        <time>2024-09-19T07:42:50Z</time>
      </trkpt>
      <trkpt lat="46.43001" lon="4.93219">
        <ele>188.4</ele>
        <time>2024-09-19T07:42:51Z</time>
      </trkpt>
      <trkpt lat="46.43002" lon="4.93221">
        <ele>188.4</ele>
        <time>2024-09-19T07:42:52Z</time>
      </trkpt>
      <trkpt lat="46.43004" lon="4.93227">
        <ele>188.4</ele>
        <time>2024-09-19T07:42:53Z</time>
      </trkpt>
      <trkpt lat="46.43005" lon="4.93229">
        <ele>188.4</ele>
        <time>2024-09-19T07:42:54Z</time>
      </trkpt>
      <trkpt lat="46.43006" lon="4.93236">
        <ele>188.4</ele>
        <time>2024-09-19T07:42:55Z</time>
      </trkpt>
      <trkpt lat="46.43006" lon="4.93238">
        <ele>188.2</ele>
        <time>2024-09-19T07:42:56Z</time>
      </trkpt>
      <trkpt lat="46.43007" lon="4.93243">
        <ele>188.2</ele>
        <time>2024-09-19T07:42:57Z</time>
      </trkpt>
      <trkpt lat="46.43006" lon="4.93249">
        <ele>188.2</ele>
        <time>2024-09-19T07:42:58Z</time>
      </trkpt>
      <trkpt lat="46.43006" lon="4.93251">
        <ele>188.4</ele>
        <time>2024-09-19T07:42:59Z</time>
      </trkpt>
      <trkpt lat="46.43005" lon="4.93257">
        <ele>188.4</ele>
        <time>2024-09-19T07:43:00Z</time>
      </trkpt>
      <trkpt lat="46.43005" lon="4.93259">
        <ele>188.2</ele>
        <time>2024-09-19T07:43:01Z</time>
      </trkpt>
      <trkpt lat="46.43003" lon="4.93265">
        <ele>188.2</ele>
        <time>2024-09-19T07:43:02Z</time>
      </trkpt>
      <trkpt lat="46.43002" lon="4.93268">
        <ele>188.2</ele>
        <time>2024-09-19T07:43:03Z</time>
      </trkpt>
      <trkpt lat="46.43" lon="4.93274">
        <ele>188.2</ele>
        <time>2024-09-19T07:43:04Z</time>
      </trkpt>
      <trkpt lat="46.42999" lon="4.93276">
        <ele>188.2</ele>
        <time>2024-09-19T07:43:05Z</time>
      </trkpt>
      <trkpt lat="46.42996" lon="4.93282">
        <ele>188.4</ele>
        <time>2024-09-19T07:43:06Z</time>
      </trkpt>
      <trkpt lat="46.42995" lon="4.93284">
        <ele>188.4</ele>
        <time>2024-09-19T07:43:07Z</time>
      </trkpt>
      <trkpt lat="46.42993" lon="4.93287">
        <ele>188.4</ele>
        <time>2024-09-19T07:43:08Z</time>
      </trkpt>
      <trkpt lat="46.42989" lon="4.93291">
        <ele>188.4</ele>
        <time>2024-09-19T07:43:09Z</time>
      </trkpt>
      <trkpt lat="46.42987" lon="4.93292">
        <ele>188.6</ele>
        <time>2024-09-19T07:43:10Z</time>
      </trkpt>
      <trkpt lat="46.42985" lon="4.93295">
        <ele>188.6</ele>
        <time>2024-09-19T07:43:11Z</time>
      </trkpt>
      <trkpt lat="46.42982" lon="4.93297">
        <ele>188.6</ele>
        <time>2024-09-19T07:43:12Z</time>
      </trkpt>
      <trkpt lat="46.4298" lon="4.933">
        <ele>188.6</ele>
        <time>2024-09-19T07:43:13Z</time>
      </trkpt>
      <trkpt lat="46.42978" lon="4.93303">
        <ele>188.2</ele>
        <time>2024-09-19T07:43:14Z</time>
      </trkpt>
      <trkpt lat="46.42975" lon="4.93306">
        <ele>188.2</ele>
        <time>2024-09-19T07:43:15Z</time>
      </trkpt>
      <trkpt lat="46.42973" lon="4.93308">
        <ele>188.2</ele>
        <time>2024-09-19T07:43:16Z</time>
      </trkpt>
      <trkpt lat="46.4297" lon="4.93311">
        <ele>188.2</ele>
        <time>2024-09-19T07:43:17Z</time>
      </trkpt>
      <trkpt lat="46.42968" lon="4.93312">
        <ele>188.4</ele>
        <time>2024-09-19T07:43:18Z</time>
      </trkpt>
      <trkpt lat="46.42965" lon="4.93314">
        <ele>188.4</ele>
        <time>2024-09-19T07:43:19Z</time>
      </trkpt>
      <trkpt lat="46.42963" lon="4.93315">
        <ele>188.4</ele>
        <time>2024-09-19T07:43:20Z</time>
      </trkpt>
      <trkpt lat="46.4296" lon="4.93319">
        <ele>188.4</ele>
        <time>2024-09-19T07:43:21Z</time>
      </trkpt>
      <trkpt lat="46.42959" lon="4.9332">
        <ele>188.4</ele>
        <time>2024-09-19T07:43:22Z</time>
      </trkpt>
      <trkpt lat="46.42958" lon="4.93322">
        <ele>188.6</ele>
        <time>2024-09-19T07:43:23Z</time>
      </trkpt>
      <trkpt lat="46.42956" lon="4.93324">
        <ele>188.6</ele>
        <time>2024-09-19T07:43:24Z</time>
      </trkpt>
      <trkpt lat="46.42955" lon="4.93325">
        <ele>188.6</ele>
        <time>2024-09-19T07:43:25Z</time>
      </trkpt>
      <trkpt lat="46.42954" lon="4.93327">
        <ele>188.6</ele>
        <time>2024-09-19T07:43:26Z</time>
      </trkpt>
      <trkpt lat="46.42952" lon="4.9333">
        <ele>188.6</ele>
        <time>2024-09-19T07:43:27Z</time>
      </trkpt>
      <trkpt lat="46.4295" lon="4.93332">
        <ele>188.6</ele>
        <time>2024-09-19T07:43:28Z</time>
      </trkpt>
      <trkpt lat="46.42948" lon="4.93335">
        <ele>188.6</ele>
        <time>2024-09-19T07:43:29Z</time>
      </trkpt>
      <trkpt lat="46.42947" lon="4.93336">
        <ele>188.6</ele>
        <time>2024-09-19T07:43:30Z</time>
      </trkpt>
      <trkpt lat="46.42945" lon="4.93339">
        <ele>188.8</ele>
        <time>2024-09-19T07:43:31Z</time>
      </trkpt>
      <trkpt lat="46.42944" lon="4.9334">
        <ele>188.8</ele>
        <time>2024-09-19T07:43:32Z</time>
      </trkpt>
      <trkpt lat="46.42941" lon="4.93344">
        <ele>188.8</ele>
        <time>2024-09-19T07:43:33Z</time>
      </trkpt>
      <trkpt lat="46.42941" lon="4.93345">
        <ele>188.8</ele>
        <time>2024-09-19T07:43:34Z</time>
      </trkpt>
      <trkpt lat="46.42939" lon="4.9335">
        <ele>188.8</ele>
        <time>2024-09-19T07:43:35Z</time>
      </trkpt>
      <trkpt lat="46.42938" lon="4.93352">
        <ele>188.8</ele>
        <time>2024-09-19T07:43:36Z</time>
      </trkpt>
      <trkpt lat="46.42936" lon="4.93357">
        <ele>188.8</ele>
        <time>2024-09-19T07:43:37Z</time>
      </trkpt>
      <trkpt lat="46.42935" lon="4.93358">
        <ele>188.8</ele>
        <time>2024-09-19T07:43:38Z</time>
      </trkpt>
      <trkpt lat="46.42934" lon="4.93363">
        <ele>188.8</ele>
        <time>2024-09-19T07:43:39Z</time>
      </trkpt>
      <trkpt lat="46.42934" lon="4.93364">
        <ele>188.8</ele>
        <time>2024-09-19T07:43:40Z</time>
      </trkpt>
      <trkpt lat="46.42936" lon="4.93367">
        <ele>189</ele>
        <time>2024-09-19T07:43:41Z</time>
      </trkpt>
      <trkpt lat="46.42937" lon="4.93369">
        <ele>189</ele>
        <time>2024-09-19T07:43:42Z</time>
      </trkpt>
      <trkpt lat="46.42939" lon="4.93371">
        <ele>189</ele>
        <time>2024-09-19T07:43:43Z</time>
      </trkpt>
      <trkpt lat="46.4294" lon="4.93372">
        <ele>189</ele>
        <time>2024-09-19T07:43:44Z</time>
      </trkpt>
      <trkpt lat="46.42941" lon="4.93373">
        <ele>189</ele>
        <time>2024-09-19T07:43:45Z</time>
      </trkpt>
      <trkpt lat="46.42943" lon="4.93374">
        <ele>188.6</ele>
        <time>2024-09-19T07:43:46Z</time>
      </trkpt>
      <trkpt lat="46.42946" lon="4.93374">
        <ele>188.6</ele>
        <time>2024-09-19T07:43:47Z</time>
      </trkpt>
      <trkpt lat="46.42949" lon="4.93373">
        <ele>188.6</ele>
        <time>2024-09-19T07:43:48Z</time>
      </trkpt>
      <trkpt lat="46.4295" lon="4.93373">
        <ele>188.2</ele>
        <time>2024-09-19T07:43:49Z</time>
      </trkpt>
      <trkpt lat="46.42954" lon="4.93372">
        <ele>188.6</ele>
        <time>2024-09-19T07:43:50Z</time>
      </trkpt>
      <trkpt lat="46.42955" lon="4.93372">
        <ele>188.6</ele>
        <time>2024-09-19T07:43:51Z</time>
      </trkpt>
      <trkpt lat="46.42959" lon="4.93372">
        <ele>188.6</ele>
        <time>2024-09-19T07:43:52Z</time>
      </trkpt>
      <trkpt lat="46.4296" lon="4.93372">
        <ele>188.6</ele>
        <time>2024-09-19T07:43:53Z</time>
      </trkpt>
      <trkpt lat="46.42962" lon="4.93372">
        <ele>188.2</ele>
        <time>2024-09-19T07:43:54Z</time>
      </trkpt>
      <trkpt lat="46.42965" lon="4.93372">
        <ele>188.2</ele>
        <time>2024-09-19T07:43:55Z</time>
      </trkpt>
      <trkpt lat="46.42967" lon="4.93372">
        <ele>188.2</ele>
        <time>2024-09-19T07:43:56Z</time>
      </trkpt>
      <trkpt lat="46.4297" lon="4.93372">
        <ele>188.2</ele>
        <time>2024-09-19T07:43:57Z</time>
      </trkpt>
      <trkpt lat="46.42973" lon="4.93372">
        <ele>188.2</ele>
        <time>2024-09-19T07:43:58Z</time>
      </trkpt>
      <trkpt lat="46.42976" lon="4.93372">
        <ele>188.2</ele>
        <time>2024-09-19T07:43:59Z</time>
      </trkpt>
      <trkpt lat="46.42979" lon="4.93373">
        <ele>188.2</ele>
        <time>2024-09-19T07:44:00Z</time>
      </trkpt>
      <trkpt lat="46.42982" lon="4.93374">
        <ele>188.2</ele>
        <time>2024-09-19T07:44:01Z</time>
      </trkpt>
      <trkpt lat="46.42985" lon="4.93375">
        <ele>188.2</ele>
        <time>2024-09-19T07:44:02Z</time>
      </trkpt>
      <trkpt lat="46.42989" lon="4.93376">
        <ele>188.4</ele>
        <time>2024-09-19T07:44:03Z</time>
      </trkpt>
      <trkpt lat="46.42994" lon="4.93378">
        <ele>188.4</ele>
        <time>2024-09-19T07:44:04Z</time>
      </trkpt>
      <trkpt lat="46.42995" lon="4.93378">
        <ele>188.4</ele>
        <time>2024-09-19T07:44:05Z</time>
      </trkpt>
      <trkpt lat="46.43" lon="4.9338">
        <ele>188.4</ele>
        <time>2024-09-19T07:44:06Z</time>
      </trkpt>
      <trkpt lat="46.43002" lon="4.9338">
        <ele>188.4</ele>
        <time>2024-09-19T07:44:07Z</time>
      </trkpt>
      <trkpt lat="46.43007" lon="4.93381">
        <ele>187.4</ele>
        <time>2024-09-19T07:44:08Z</time>
      </trkpt>
      <trkpt lat="46.43009" lon="4.93381">
        <ele>187.4</ele>
        <time>2024-09-19T07:44:09Z</time>
      </trkpt>
      <trkpt lat="46.43014" lon="4.9338">
        <ele>187.4</ele>
        <time>2024-09-19T07:44:10Z</time>
      </trkpt>
      <trkpt lat="46.43016" lon="4.9338">
        <ele>187.4</ele>
        <time>2024-09-19T07:44:11Z</time>
      </trkpt>
      <trkpt lat="46.4302" lon="4.93377">
        <ele>187</ele>
        <time>2024-09-19T07:44:12Z</time>
      </trkpt>
      <trkpt lat="46.43021" lon="4.93375">
        <ele>187</ele>
        <time>2024-09-19T07:44:13Z</time>
      </trkpt>
      <trkpt lat="46.43024" lon="4.9337">
        <ele>187</ele>
        <time>2024-09-19T07:44:14Z</time>
      </trkpt>
      <trkpt lat="46.43025" lon="4.93368">
        <ele>187</ele>
        <time>2024-09-19T07:44:15Z</time>
      </trkpt>
      <trkpt lat="46.43028" lon="4.93364">
        <ele>187</ele>
        <time>2024-09-19T07:44:16Z</time>
      </trkpt>
      <trkpt lat="46.43029" lon="4.93363">
        <ele>186.8</ele>
        <time>2024-09-19T07:44:17Z</time>
      </trkpt>
      <trkpt lat="46.43033" lon="4.93361">
        <ele>186.8</ele>
        <time>2024-09-19T07:44:18Z</time>
      </trkpt>
      <trkpt lat="46.43035" lon="4.93361">
        <ele>186.8</ele>
        <time>2024-09-19T07:44:19Z</time>
      </trkpt>
      <trkpt lat="46.43038" lon="4.9336">
        <ele>186.8</ele>
        <time>2024-09-19T07:44:20Z</time>
      </trkpt>
      <trkpt lat="46.43039" lon="4.93359">
        <ele>186.8</ele>
        <time>2024-09-19T07:44:21Z</time>
      </trkpt>
      <trkpt lat="46.43042" lon="4.93359">
        <ele>186.8</ele>
        <time>2024-09-19T07:44:22Z</time>
      </trkpt>
      <trkpt lat="46.43044" lon="4.93359">
        <ele>186.8</ele>
        <time>2024-09-19T07:44:23Z</time>
      </trkpt>
      <trkpt lat="46.43046" lon="4.93358">
        <ele>186.8</ele>
        <time>2024-09-19T07:44:24Z</time>
      </trkpt>
      <trkpt lat="46.43049" lon="4.93357">
        <ele>186.8</ele>
        <time>2024-09-19T07:44:25Z</time>
      </trkpt>
      <trkpt lat="46.43052" lon="4.93356">
        <ele>186.6</ele>
        <time>2024-09-19T07:44:26Z</time>
      </trkpt>
      <trkpt lat="46.43055" lon="4.93355">
        <ele>186.6</ele>
        <time>2024-09-19T07:44:27Z</time>
      </trkpt>
      <trkpt lat="46.43057" lon="4.93353">
        <ele>186.6</ele>
        <time>2024-09-19T07:44:28Z</time>
      </trkpt>
      <trkpt lat="46.43061" lon="4.9335">
        <ele>186.6</ele>
        <time>2024-09-19T07:44:29Z</time>
      </trkpt>
      <trkpt lat="46.43063" lon="4.9335">
        <ele>186.8</ele>
        <time>2024-09-19T07:44:30Z</time>
      </trkpt>
      <trkpt lat="46.43067" lon="4.93348">
        <ele>186.6</ele>
        <time>2024-09-19T07:44:31Z</time>
      </trkpt>
      <trkpt lat="46.43068" lon="4.93347">
        <ele>186.6</ele>
        <time>2024-09-19T07:44:32Z</time>
      </trkpt>
      <trkpt lat="46.43072" lon="4.93345">
        <ele>186.6</ele>
        <time>2024-09-19T07:44:33Z</time>
      </trkpt>
      <trkpt lat="46.43074" lon="4.93345">
        <ele>186.6</ele>
        <time>2024-09-19T07:44:34Z</time>
      </trkpt>
      <trkpt lat="46.43077" lon="4.93346">
        <ele>186.6</ele>
        <time>2024-09-19T07:44:35Z</time>
      </trkpt>
      <trkpt lat="46.4308" lon="4.9335">
        <ele>186.8</ele>
        <time>2024-09-19T07:44:36Z</time>
      </trkpt>
      <trkpt lat="46.43081" lon="4.93351">
        <ele>186.8</ele>
        <time>2024-09-19T07:44:37Z</time>
      </trkpt>
      <trkpt lat="46.43082" lon="4.93354">
        <ele>186.8</ele>
        <time>2024-09-19T07:44:38Z</time>
      </trkpt>
      <trkpt lat="46.43084" lon="4.93356">
        <ele>186.6</ele>
        <time>2024-09-19T07:44:39Z</time>
      </trkpt>
      <trkpt lat="46.43085" lon="4.93358">
        <ele>186.6</ele>
        <time>2024-09-19T07:44:40Z</time>
      </trkpt>
      <trkpt lat="46.43085" lon="4.93359">
        <ele>186.6</ele>
        <time>2024-09-19T07:44:41Z</time>
      </trkpt>
      <trkpt lat="46.43085" lon="4.9336">
        <ele>186.6</ele>
        <time>2024-09-19T07:44:42Z</time>
      </trkpt>
      <trkpt lat="46.43085" lon="4.93361">
        <ele>187</ele>
        <time>2024-09-19T07:44:43Z</time>
      </trkpt>
      <trkpt lat="46.43084" lon="4.93362">
        <ele>187</ele>
        <time>2024-09-19T07:44:44Z</time>
      </trkpt>
      <trkpt lat="46.43083" lon="4.93363">
        <ele>187</ele>
        <time>2024-09-19T07:44:45Z</time>
      </trkpt>
      <trkpt lat="46.43082" lon="4.93364">
        <ele>187</ele>
        <time>2024-09-19T07:44:46Z</time>
      </trkpt>
      <trkpt lat="46.43081" lon="4.93364">
        <ele>187</ele>
        <time>2024-09-19T07:44:47Z</time>
      </trkpt>
      <trkpt lat="46.43081" lon="4.93364">
        <ele>187</ele>
        <time>2024-09-19T07:44:48Z</time>
      </trkpt>
      <trkpt lat="46.43084" lon="4.9336">
        <ele>186.4</ele>
        <time>2024-09-19T07:45:22Z</time>
      </trkpt>
      <trkpt lat="46.43085" lon="4.9336">
        <ele>186.4</ele>
        <time>2024-09-19T07:45:23Z</time>
      </trkpt>
      <trkpt lat="46.43085" lon="4.9336">
        <ele>186.4</ele>
        <time>2024-09-19T07:45:24Z</time>
      </trkpt>
      <trkpt lat="46.43085" lon="4.9336">
        <ele>186.4</ele>
        <time>2024-09-19T07:45:25Z</time>
      </trkpt>
      <trkpt lat="46.43095" lon="4.93358">
        <ele>186</ele>
        <time>2024-09-19T07:45:35Z</time>
      </trkpt>
      <trkpt lat="46.43098" lon="4.93357">
        <ele>186</ele>
        <time>2024-09-19T07:45:36Z</time>
      </trkpt>
      <trkpt lat="46.43101" lon="4.93356">
        <ele>186</ele>
        <time>2024-09-19T07:45:37Z</time>
      </trkpt>
      <trkpt lat="46.43106" lon="4.93354">
        <ele>186</ele>
        <time>2024-09-19T07:45:38Z</time>
      </trkpt>
      <trkpt lat="46.43108" lon="4.93353">
        <ele>186</ele>
        <time>2024-09-19T07:45:39Z</time>
      </trkpt>
      <trkpt lat="46.43113" lon="4.93351">
        <ele>185.8</ele>
        <time>2024-09-19T07:45:40Z</time>
      </trkpt>
      <trkpt lat="46.43114" lon="4.93351">
        <ele>186</ele>
        <time>2024-09-19T07:45:41Z</time>
      </trkpt>
      <trkpt lat="46.43117" lon="4.9335">
        <ele>186</ele>
        <time>2024-09-19T07:45:42Z</time>
      </trkpt>
      <trkpt lat="46.43121" lon="4.93349">
        <ele>186</ele>
        <time>2024-09-19T07:45:43Z</time>
      </trkpt>
      <trkpt lat="46.43124" lon="4.93348">
        <ele>186</ele>
        <time>2024-09-19T07:45:44Z</time>
      </trkpt>
      <trkpt lat="46.43129" lon="4.93347">
        <ele>186.8</ele>
        <time>2024-09-19T07:45:45Z</time>
      </trkpt>
      <trkpt lat="46.4313" lon="4.93346">
        <ele>186.8</ele>
        <time>2024-09-19T07:45:46Z</time>
      </trkpt>
      <trkpt lat="46.43135" lon="4.93345">
        <ele>186.8</ele>
        <time>2024-09-19T07:45:47Z</time>
      </trkpt>
      <trkpt lat="46.43137" lon="4.93345">
        <ele>186.8</ele>
        <time>2024-09-19T07:45:48Z</time>
      </trkpt>
      <trkpt lat="46.43143" lon="4.93344">
        <ele>185.8</ele>
        <time>2024-09-19T07:45:49Z</time>
      </trkpt>
      <trkpt lat="46.43145" lon="4.93344">
        <ele>185.8</ele>
        <time>2024-09-19T07:45:50Z</time>
      </trkpt>
      <trkpt lat="46.43151" lon="4.93345">
        <ele>185.8</ele>
        <time>2024-09-19T07:45:51Z</time>
      </trkpt>
      <trkpt lat="46.43153" lon="4.93345">
        <ele>185.8</ele>
        <time>2024-09-19T07:45:52Z</time>
      </trkpt>
      <trkpt lat="46.43158" lon="4.93346">
        <ele>185.8</ele>
        <time>2024-09-19T07:45:53Z</time>
      </trkpt>
      <trkpt lat="46.43161" lon="4.93348">
        <ele>185</ele>
        <time>2024-09-19T07:45:54Z</time>
      </trkpt>
      <trkpt lat="46.43165" lon="4.93349">
        <ele>185</ele>
        <time>2024-09-19T07:45:55Z</time>
      </trkpt>
      <trkpt lat="46.43169" lon="4.9335">
        <ele>185</ele>
        <time>2024-09-19T07:45:56Z</time>
      </trkpt>
      <trkpt lat="46.43172" lon="4.93351">
        <ele>185</ele>
        <time>2024-09-19T07:45:57Z</time>
      </trkpt>
      <trkpt lat="46.43176" lon="4.93351">
        <ele>185.4</ele>
        <time>2024-09-19T07:45:58Z</time>
      </trkpt>
      <trkpt lat="46.4318" lon="4.9335">
        <ele>185.6</ele>
        <time>2024-09-19T07:45:59Z</time>
      </trkpt>
      <trkpt lat="46.43183" lon="4.93349">
        <ele>185.6</ele>
        <time>2024-09-19T07:46:00Z</time>
      </trkpt>
      <trkpt lat="46.43188" lon="4.93345">
        <ele>185.6</ele>
        <time>2024-09-19T07:46:01Z</time>
      </trkpt>
      <trkpt lat="46.43189" lon="4.93343">
        <ele>185.6</ele>
        <time>2024-09-19T07:46:02Z</time>
      </trkpt>
      <trkpt lat="46.43192" lon="4.93339">
        <ele>185.6</ele>
        <time>2024-09-19T07:46:03Z</time>
      </trkpt>
      <trkpt lat="46.43193" lon="4.93337">
        <ele>185.8</ele>
        <time>2024-09-19T07:46:04Z</time>
      </trkpt>
      <trkpt lat="46.43195" lon="4.93334">
        <ele>185.8</ele>
        <time>2024-09-19T07:46:05Z</time>
      </trkpt>
      <trkpt lat="46.43195" lon="4.93333">
        <ele>185.8</ele>
        <time>2024-09-19T07:46:06Z</time>
      </trkpt>
      <trkpt lat="46.43196" lon="4.93329">
        <ele>185.8</ele>
        <time>2024-09-19T07:46:07Z</time>
      </trkpt>
      <trkpt lat="46.43197" lon="4.93327">
        <ele>185.6</ele>
        <time>2024-09-19T07:46:08Z</time>
      </trkpt>
      <trkpt lat="46.43198" lon="4.93324">
        <ele>185.6</ele>
        <time>2024-09-19T07:46:09Z</time>
      </trkpt>
      <trkpt lat="46.43199" lon="4.93321">
        <ele>185.6</ele>
        <time>2024-09-19T07:46:10Z</time>
      </trkpt>
      <trkpt lat="46.432" lon="4.93319">
        <ele>185.6</ele>
        <time>2024-09-19T07:46:11Z</time>
      </trkpt>
      <trkpt lat="46.43202" lon="4.93317">
        <ele>185.6</ele>
        <time>2024-09-19T07:46:12Z</time>
      </trkpt>
      <trkpt lat="46.43204" lon="4.93314">
        <ele>185.6</ele>
        <time>2024-09-19T07:46:13Z</time>
      </trkpt>
      <trkpt lat="46.43205" lon="4.93313">
        <ele>185.6</ele>
        <time>2024-09-19T07:46:14Z</time>
      </trkpt>
      <trkpt lat="46.43208" lon="4.93312">
        <ele>185.4</ele>
        <time>2024-09-19T07:46:15Z</time>
      </trkpt>
      <trkpt lat="46.43209" lon="4.93312">
        <ele>185.4</ele>
        <time>2024-09-19T07:46:16Z</time>
      </trkpt>
      <trkpt lat="46.43212" lon="4.93311">
        <ele>185.4</ele>
        <time>2024-09-19T07:46:17Z</time>
      </trkpt>
      <trkpt lat="46.43213" lon="4.93311">
        <ele>185.4</ele>
        <time>2024-09-19T07:46:18Z</time>
      </trkpt>
      <trkpt lat="46.43216" lon="4.9331">
        <ele>185.4</ele>
        <time>2024-09-19T07:46:19Z</time>
      </trkpt>
      <trkpt lat="46.43218" lon="4.9331">
        <ele>185.4</ele>
        <time>2024-09-19T07:46:20Z</time>
      </trkpt>
      <trkpt lat="46.4322" lon="4.93308">
        <ele>185.4</ele>
        <time>2024-09-19T07:46:21Z</time>
      </trkpt>
      <trkpt lat="46.43222" lon="4.93305">
        <ele>185.2</ele>
        <time>2024-09-19T07:46:22Z</time>
      </trkpt>
      <trkpt lat="46.43225" lon="4.93303">
        <ele>185.2</ele>
        <time>2024-09-19T07:46:23Z</time>
      </trkpt>
      <trkpt lat="46.43228" lon="4.93302">
        <ele>185.2</ele>
        <time>2024-09-19T07:46:24Z</time>
      </trkpt>
      <trkpt lat="46.43231" lon="4.933">
        <ele>185.4</ele>
        <time>2024-09-19T07:46:25Z</time>
      </trkpt>
      <trkpt lat="46.43236" lon="4.93297">
        <ele>185.4</ele>
        <time>2024-09-19T07:46:26Z</time>
      </trkpt>
      <trkpt lat="46.43238" lon="4.93296">
        <ele>185.4</ele>
        <time>2024-09-19T07:46:27Z</time>
      </trkpt>
      <trkpt lat="46.43243" lon="4.93294">
        <ele>185.4</ele>
        <time>2024-09-19T07:46:28Z</time>
      </trkpt>
      <trkpt lat="46.43245" lon="4.93294">
        <ele>185.4</ele>
        <time>2024-09-19T07:46:29Z</time>
      </trkpt>
      <trkpt lat="46.4325" lon="4.93292">
        <ele>185.6</ele>
        <time>2024-09-19T07:46:30Z</time>
      </trkpt>
      <trkpt lat="46.43252" lon="4.93291">
        <ele>185.6</ele>
        <time>2024-09-19T07:46:31Z</time>
      </trkpt>
      <trkpt lat="46.43257" lon="4.93289">
        <ele>185.6</ele>
        <time>2024-09-19T07:46:32Z</time>
      </trkpt>
      <trkpt lat="46.43259" lon="4.93289">
        <ele>185.6</ele>
        <time>2024-09-19T07:46:33Z</time>
      </trkpt>
      <trkpt lat="46.43265" lon="4.93286">
        <ele>185.6</ele>
        <time>2024-09-19T07:46:34Z</time>
      </trkpt>
      <trkpt lat="46.43267" lon="4.93285">
        <ele>185.4</ele>
        <time>2024-09-19T07:46:35Z</time>
      </trkpt>
      <trkpt lat="46.4327" lon="4.93283">
        <ele>185.4</ele>
        <time>2024-09-19T07:46:36Z</time>
      </trkpt>
      <trkpt lat="46.43274" lon="4.93281">
        <ele>185.4</ele>
        <time>2024-09-19T07:46:37Z</time>
      </trkpt>
      <trkpt lat="46.43277" lon="4.9328">
        <ele>185.6</ele>
        <time>2024-09-19T07:46:38Z</time>
      </trkpt>
      <trkpt lat="46.43281" lon="4.93281">
        <ele>185.4</ele>
        <time>2024-09-19T07:46:39Z</time>
      </trkpt>
      <trkpt lat="46.43285" lon="4.93282">
        <ele>185.4</ele>
        <time>2024-09-19T07:46:40Z</time>
      </trkpt>
      <trkpt lat="46.43288" lon="4.93285">
        <ele>185.4</ele>
        <time>2024-09-19T07:46:41Z</time>
      </trkpt>
      <trkpt lat="46.4329" lon="4.93289">
        <ele>185.8</ele>
        <time>2024-09-19T07:46:42Z</time>
      </trkpt>
      <trkpt lat="46.43292" lon="4.93294">
        <ele>186.2</ele>
        <time>2024-09-19T07:46:43Z</time>
      </trkpt>
      <trkpt lat="46.43293" lon="4.933">
        <ele>186.2</ele>
        <time>2024-09-19T07:46:44Z</time>
      </trkpt>
      <trkpt lat="46.43294" lon="4.93302">
        <ele>186.2</ele>
        <time>2024-09-19T07:46:45Z</time>
      </trkpt>
      <trkpt lat="46.43294" lon="4.93307">
        <ele>186.2</ele>
        <time>2024-09-19T07:46:46Z</time>
      </trkpt>
      <trkpt lat="46.43294" lon="4.93311">
        <ele>186.4</ele>
        <time>2024-09-19T07:46:47Z</time>
      </trkpt>
      <trkpt lat="46.43294" lon="4.93316">
        <ele>186.4</ele>
        <time>2024-09-19T07:46:48Z</time>
      </trkpt>
      <trkpt lat="46.43294" lon="4.93321">
        <ele>186.4</ele>
        <time>2024-09-19T07:46:49Z</time>
      </trkpt>
      <trkpt lat="46.43295" lon="4.93326">
        <ele>186.4</ele>
        <time>2024-09-19T07:46:50Z</time>
      </trkpt>
      <trkpt lat="46.43295" lon="4.93331">
        <ele>186.4</ele>
        <time>2024-09-19T07:46:51Z</time>
      </trkpt>
      <trkpt lat="46.43297" lon="4.93338">
        <ele>186.4</ele>
        <time>2024-09-19T07:46:52Z</time>
      </trkpt>
      <trkpt lat="46.43298" lon="4.93341">
        <ele>186.4</ele>
        <time>2024-09-19T07:46:53Z</time>
      </trkpt>
      <trkpt lat="46.433" lon="4.93348">
        <ele>186.4</ele>
        <time>2024-09-19T07:46:54Z</time>
      </trkpt>
      <trkpt lat="46.43301" lon="4.9335">
        <ele>186.4</ele>
        <time>2024-09-19T07:46:55Z</time>
      </trkpt>
      <trkpt lat="46.43304" lon="4.93358">
        <ele>186.4</ele>
        <time>2024-09-19T07:46:56Z</time>
      </trkpt>
      <trkpt lat="46.43305" lon="4.9336">
        <ele>186.2</ele>
        <time>2024-09-19T07:46:57Z</time>
      </trkpt>
      <trkpt lat="46.43307" lon="4.93368">
        <ele>186.2</ele>
        <time>2024-09-19T07:46:58Z</time>
      </trkpt>
      <trkpt lat="46.43309" lon="4.9337">
        <ele>186.2</ele>
        <time>2024-09-19T07:46:59Z</time>
      </trkpt>
      <trkpt lat="46.43312" lon="4.93378">
        <ele>186.2</ele>
        <time>2024-09-19T07:47:00Z</time>
      </trkpt>
      <trkpt lat="46.43313" lon="4.9338">
        <ele>186.2</ele>
        <time>2024-09-19T07:47:01Z</time>
      </trkpt>
      <trkpt lat="46.43317" lon="4.93388">
        <ele>186.2</ele>
        <time>2024-09-19T07:47:02Z</time>
      </trkpt>
      <trkpt lat="46.43318" lon="4.9339">
        <ele>186.2</ele>
        <time>2024-09-19T07:47:03Z</time>
      </trkpt>
      <trkpt lat="46.43323" lon="4.93398">
        <ele>186.2</ele>
        <time>2024-09-19T07:47:04Z</time>
      </trkpt>
      <trkpt lat="46.43324" lon="4.934">
        <ele>186.2</ele>
        <time>2024-09-19T07:47:05Z</time>
      </trkpt>
      <trkpt lat="46.43329" lon="4.93407">
        <ele>186.2</ele>
        <time>2024-09-19T07:47:06Z</time>
      </trkpt>
      <trkpt lat="46.4333" lon="4.93409">
        <ele>186.2</ele>
        <time>2024-09-19T07:47:07Z</time>
      </trkpt>
      <trkpt lat="46.43335" lon="4.93416">
        <ele>186.2</ele>
        <time>2024-09-19T07:47:08Z</time>
      </trkpt>
      <trkpt lat="46.43336" lon="4.93419">
        <ele>186.2</ele>
        <time>2024-09-19T07:47:09Z</time>
      </trkpt>
      <trkpt lat="46.4334" lon="4.93425">
        <ele>185.8</ele>
        <time>2024-09-19T07:47:10Z</time>
      </trkpt>
      <trkpt lat="46.43342" lon="4.93428">
        <ele>186</ele>
        <time>2024-09-19T07:47:11Z</time>
      </trkpt>
      <trkpt lat="46.43347" lon="4.93434">
        <ele>186</ele>
        <time>2024-09-19T07:47:12Z</time>
      </trkpt>
      <trkpt lat="46.43348" lon="4.93436">
        <ele>186</ele>
        <time>2024-09-19T07:47:13Z</time>
      </trkpt>
      <trkpt lat="46.43353" lon="4.93442">
        <ele>186</ele>
        <time>2024-09-19T07:47:14Z</time>
      </trkpt>
      <trkpt lat="46.43354" lon="4.93444">
        <ele>186</ele>
        <time>2024-09-19T07:47:15Z</time>
      </trkpt>
      <trkpt lat="46.43358" lon="4.93449">
        <ele>186.2</ele>
        <time>2024-09-19T07:47:16Z</time>
      </trkpt>
      <trkpt lat="46.43359" lon="4.93451">
        <ele>186.2</ele>
        <time>2024-09-19T07:47:17Z</time>
      </trkpt>
      <trkpt lat="46.4336" lon="4.93454">
        <ele>186.6</ele>
        <time>2024-09-19T07:47:18Z</time>
      </trkpt>
      <trkpt lat="46.4336" lon="4.93457">
        <ele>187</ele>
        <time>2024-09-19T07:47:19Z</time>
      </trkpt>
      <trkpt lat="46.4336" lon="4.9346">
        <ele>187</ele>
        <time>2024-09-19T07:47:20Z</time>
      </trkpt>
      <trkpt lat="46.43358" lon="4.93464">
        <ele>187</ele>
        <time>2024-09-19T07:47:21Z</time>
      </trkpt>
      <trkpt lat="46.43356" lon="4.93466">
        <ele>187</ele>
        <time>2024-09-19T07:47:22Z</time>
      </trkpt>
      <trkpt lat="46.43354" lon="4.93469">
        <ele>187.4</ele>
        <time>2024-09-19T07:47:23Z</time>
      </trkpt>
      <trkpt lat="46.43351" lon="4.93472">
        <ele>187.6</ele>
        <time>2024-09-19T07:47:24Z</time>
      </trkpt>
      <trkpt lat="46.43349" lon="4.93475">
        <ele>187.6</ele>
        <time>2024-09-19T07:47:25Z</time>
      </trkpt>
      <trkpt lat="46.43347" lon="4.93479">
        <ele>187.6</ele>
        <time>2024-09-19T07:47:26Z</time>
      </trkpt>
      <trkpt lat="46.43343" lon="4.93483">
        <ele>187.6</ele>
        <time>2024-09-19T07:47:27Z</time>
      </trkpt>
      <trkpt lat="46.43342" lon="4.93485">
        <ele>188</ele>
        <time>2024-09-19T07:47:28Z</time>
      </trkpt>
      <trkpt lat="46.43341" lon="4.93491">
        <ele>188</ele>
        <time>2024-09-19T07:47:29Z</time>
      </trkpt>
      <trkpt lat="46.43341" lon="4.93493">
        <ele>188</ele>
        <time>2024-09-19T07:47:30Z</time>
      </trkpt>
      <trkpt lat="46.43343" lon="4.93498">
        <ele>188.4</ele>
        <time>2024-09-19T07:47:31Z</time>
      </trkpt>
      <trkpt lat="46.43344" lon="4.935">
        <ele>188.4</ele>
        <time>2024-09-19T07:47:32Z</time>
      </trkpt>
      <trkpt lat="46.43345" lon="4.93503">
        <ele>188.4</ele>
        <time>2024-09-19T07:47:33Z</time>
      </trkpt>
      <trkpt lat="46.43347" lon="4.93506">
        <ele>188.4</ele>
        <time>2024-09-19T07:47:34Z</time>
      </trkpt>
      <trkpt lat="46.43348" lon="4.9351">
        <ele>188.4</ele>
        <time>2024-09-19T07:47:35Z</time>
      </trkpt>
      <trkpt lat="46.4335" lon="4.93513">
        <ele>188.6</ele>
        <time>2024-09-19T07:47:36Z</time>
      </trkpt>
      <trkpt lat="46.43351" lon="4.93517">
        <ele>188.6</ele>
        <time>2024-09-19T07:47:37Z</time>
      </trkpt>
      <trkpt lat="46.43353" lon="4.93521">
        <ele>188.6</ele>
        <time>2024-09-19T07:47:38Z</time>
      </trkpt>
      <trkpt lat="46.43354" lon="4.93524">
        <ele>188.6</ele>
        <time>2024-09-19T07:47:39Z</time>
      </trkpt>
      <trkpt lat="46.43355" lon="4.93527">
        <ele>188.6</ele>
        <time>2024-09-19T07:47:40Z</time>
      </trkpt>
      <trkpt lat="46.43356" lon="4.93529">
        <ele>188.6</ele>
        <time>2024-09-19T07:47:41Z</time>
      </trkpt>
      <trkpt lat="46.43358" lon="4.93533">
        <ele>188.4</ele>
        <time>2024-09-19T07:47:42Z</time>
      </trkpt>
      <trkpt lat="46.43359" lon="4.93536">
        <ele>188.4</ele>
        <time>2024-09-19T07:47:43Z</time>
      </trkpt>
      <trkpt lat="46.4336" lon="4.93538">
        <ele>188.4</ele>
        <time>2024-09-19T07:47:44Z</time>
      </trkpt>
      <trkpt lat="46.43361" lon="4.93541">
        <ele>188.4</ele>
        <time>2024-09-19T07:47:45Z</time>
      </trkpt>
      <trkpt lat="46.43363" lon="4.93544">
        <ele>187.8</ele>
        <time>2024-09-19T07:48:14Z</time>
      </trkpt>
      <trkpt lat="46.43364" lon="4.93546">
        <ele>187.4</ele>
        <time>2024-09-19T07:48:15Z</time>
      </trkpt>
      <trkpt lat="46.43365" lon="4.93549">
        <ele>187.4</ele>
        <time>2024-09-19T07:48:16Z</time>
      </trkpt>
      <trkpt lat="46.43366" lon="4.93552">
        <ele>187.4</ele>
        <time>2024-09-19T07:48:17Z</time>
      </trkpt>
      <trkpt lat="46.43367" lon="4.93555">
        <ele>187.4</ele>
        <time>2024-09-19T07:48:18Z</time>
      </trkpt>
      <trkpt lat="46.43365" lon="4.93557">
        <ele>187.4</ele>
        <time>2024-09-19T07:48:19Z</time>
      </trkpt>
      <trkpt lat="46.43365" lon="4.93558">
        <ele>187.2</ele>
        <time>2024-09-19T07:48:20Z</time>
      </trkpt>
      <trkpt lat="46.43363" lon="4.9356">
        <ele>187</ele>
        <time>2024-09-19T07:48:21Z</time>
      </trkpt>
      <trkpt lat="46.4336" lon="4.93564">
        <ele>187</ele>
        <time>2024-09-19T07:48:22Z</time>
      </trkpt>
      <trkpt lat="46.43359" lon="4.93565">
        <ele>187</ele>
        <time>2024-09-19T07:48:23Z</time>
      </trkpt>
      <trkpt lat="46.43357" lon="4.93568">
        <ele>186.8</ele>
        <time>2024-09-19T07:48:24Z</time>
      </trkpt>
      <trkpt lat="46.43355" lon="4.9357">
        <ele>186.6</ele>
        <time>2024-09-19T07:48:25Z</time>
      </trkpt>
      <trkpt lat="46.43353" lon="4.93573">
        <ele>186.6</ele>
        <time>2024-09-19T07:48:26Z</time>
      </trkpt>
      <trkpt lat="46.43354" lon="4.93575">
        <ele>186.6</ele>
        <time>2024-09-19T07:48:27Z</time>
      </trkpt>
      <trkpt lat="46.43355" lon="4.93576">
        <ele>186.6</ele>
        <time>2024-09-19T07:48:28Z</time>
      </trkpt>
      <trkpt lat="46.43356" lon="4.93575">
        <ele>186.2</ele>
        <time>2024-09-19T07:48:29Z</time>
      </trkpt>
      <trkpt lat="46.43357" lon="4.93573">
        <ele>186.2</ele>
        <time>2024-09-19T07:48:30Z</time>
      </trkpt>
      <trkpt lat="46.43359" lon="4.93571">
        <ele>186.2</ele>
        <time>2024-09-19T07:48:31Z</time>
      </trkpt>
      <trkpt lat="46.43362" lon="4.93566">
        <ele>186.2</ele>
        <time>2024-09-19T07:48:32Z</time>
      </trkpt>
      <trkpt lat="46.43363" lon="4.93565">
        <ele>186.2</ele>
        <time>2024-09-19T07:48:33Z</time>
      </trkpt>
      <trkpt lat="46.43365" lon="4.93563">
        <ele>186.2</ele>
        <time>2024-09-19T07:48:34Z</time>
      </trkpt>
      <trkpt lat="46.43367" lon="4.9356">
        <ele>186.2</ele>
        <time>2024-09-19T07:48:35Z</time>
      </trkpt>
      <trkpt lat="46.43369" lon="4.93557">
        <ele>186.2</ele>
        <time>2024-09-19T07:48:36Z</time>
      </trkpt>
      <trkpt lat="46.43371" lon="4.93555">
        <ele>186.2</ele>
        <time>2024-09-19T07:48:37Z</time>
      </trkpt>
      <trkpt lat="46.43373" lon="4.93552">
        <ele>186.2</ele>
        <time>2024-09-19T07:48:38Z</time>
      </trkpt>
      <trkpt lat="46.43376" lon="4.93549">
        <ele>186.2</ele>
        <time>2024-09-19T07:48:39Z</time>
      </trkpt>
      <trkpt lat="46.43378" lon="4.93547">
        <ele>186.2</ele>
        <time>2024-09-19T07:48:40Z</time>
      </trkpt>
      <trkpt lat="46.43381" lon="4.93546">
        <ele>186.2</ele>
        <time>2024-09-19T07:48:41Z</time>
      </trkpt>
      <trkpt lat="46.43384" lon="4.93546">
        <ele>186</ele>
        <time>2024-09-19T07:48:42Z</time>
      </trkpt>
      <trkpt lat="46.43386" lon="4.93547">
        <ele>186.2</ele>
        <time>2024-09-19T07:48:43Z</time>
      </trkpt>
      <trkpt lat="46.4339" lon="4.9355">
        <ele>186.2</ele>
        <time>2024-09-19T07:48:44Z</time>
      </trkpt>
      <trkpt lat="46.43391" lon="4.9355">
        <ele>186.2</ele>
        <time>2024-09-19T07:48:45Z</time>
      </trkpt>
      <trkpt lat="46.43394" lon="4.93553">
        <ele>186.6</ele>
        <time>2024-09-19T07:48:46Z</time>
      </trkpt>
      <trkpt lat="46.43396" lon="4.93556">
        <ele>186.8</ele>
        <time>2024-09-19T07:48:47Z</time>
      </trkpt>
      <trkpt lat="46.43398" lon="4.93559">
        <ele>186.8</ele>
        <time>2024-09-19T07:48:48Z</time>
      </trkpt>
      <trkpt lat="46.43401" lon="4.93562">
        <ele>186.8</ele>
        <time>2024-09-19T07:48:49Z</time>
      </trkpt>
      <trkpt lat="46.43406" lon="4.93565">
        <ele>186.8</ele>
        <time>2024-09-19T07:48:50Z</time>
      </trkpt>
      <trkpt lat="46.43407" lon="4.93567">
        <ele>186.8</ele>
        <time>2024-09-19T07:48:51Z</time>
      </trkpt>
      <trkpt lat="46.4341" lon="4.93569">
        <ele>186.8</ele>
        <time>2024-09-19T07:48:52Z</time>
      </trkpt>
      <trkpt lat="46.43411" lon="4.9357">
        <ele>186.8</ele>
        <time>2024-09-19T07:48:53Z</time>
      </trkpt>
      <trkpt lat="46.43415" lon="4.93572">
        <ele>186.8</ele>
        <time>2024-09-19T07:48:54Z</time>
      </trkpt>
      <trkpt lat="46.43416" lon="4.93572">
        <ele>186.8</ele>
        <time>2024-09-19T07:48:55Z</time>
      </trkpt>
      <trkpt lat="46.43419" lon="4.93571">
        <ele>186.8</ele>
        <time>2024-09-19T07:48:56Z</time>
      </trkpt>
      <trkpt lat="46.4342" lon="4.93569">
        <ele>186.8</ele>
        <time>2024-09-19T07:48:57Z</time>
      </trkpt>
      <trkpt lat="46.43423" lon="4.93564">
        <ele>187</ele>
        <time>2024-09-19T07:48:58Z</time>
      </trkpt>
      <trkpt lat="46.43424" lon="4.93563">
        <ele>187</ele>
        <time>2024-09-19T07:48:59Z</time>
      </trkpt>
      <trkpt lat="46.43427" lon="4.93557">
        <ele>187.2</ele>
        <time>2024-09-19T07:49:00Z</time>
      </trkpt>
      <trkpt lat="46.43428" lon="4.93555">
        <ele>187.2</ele>
        <time>2024-09-19T07:49:01Z</time>
      </trkpt>
      <trkpt lat="46.4343" lon="4.93551">
        <ele>187.2</ele>
        <time>2024-09-19T07:49:02Z</time>
      </trkpt>
      <trkpt lat="46.43431" lon="4.93546">
        <ele>187.2</ele>
        <time>2024-09-19T07:49:03Z</time>
      </trkpt>
      <trkpt lat="46.43433" lon="4.93542">
        <ele>187.2</ele>
        <time>2024-09-19T07:49:04Z</time>
      </trkpt>
      <trkpt lat="46.43435" lon="4.93535">
        <ele>187.2</ele>
        <time>2024-09-19T07:49:05Z</time>
      </trkpt>
      <trkpt lat="46.43436" lon="4.93533">
        <ele>187.2</ele>
        <time>2024-09-19T07:49:06Z</time>
      </trkpt>
      <trkpt lat="46.43438" lon="4.93528">
        <ele>187.2</ele>
        <time>2024-09-19T07:49:07Z</time>
      </trkpt>
      <trkpt lat="46.4344" lon="4.93524">
        <ele>187.2</ele>
        <time>2024-09-19T07:49:08Z</time>
      </trkpt>
      <trkpt lat="46.43442" lon="4.93519">
        <ele>187.6</ele>
        <time>2024-09-19T07:49:09Z</time>
      </trkpt>
      <trkpt lat="46.43444" lon="4.93515">
        <ele>187.4</ele>
        <time>2024-09-19T07:49:10Z</time>
      </trkpt>
      <trkpt lat="46.43445" lon="4.93511">
        <ele>187.4</ele>
        <time>2024-09-19T07:49:11Z</time>
      </trkpt>
      <trkpt lat="46.43447" lon="4.93506">
        <ele>187.4</ele>
        <time>2024-09-19T07:49:12Z</time>
      </trkpt>
      <trkpt lat="46.43449" lon="4.93502">
        <ele>187.4</ele>
        <time>2024-09-19T07:49:13Z</time>
      </trkpt>
      <trkpt lat="46.43451" lon="4.93497">
        <ele>187.6</ele>
        <time>2024-09-19T07:49:14Z</time>
      </trkpt>
      <trkpt lat="46.43454" lon="4.9349">
        <ele>187.6</ele>
        <time>2024-09-19T07:49:15Z</time>
      </trkpt>
      <trkpt lat="46.43455" lon="4.93488">
        <ele>187.6</ele>
        <time>2024-09-19T07:49:16Z</time>
      </trkpt>
      <trkpt lat="46.43458" lon="4.93481">
        <ele>187.6</ele>
        <time>2024-09-19T07:49:17Z</time>
      </trkpt>
      <trkpt lat="46.43459" lon="4.93479">
        <ele>187.6</ele>
        <time>2024-09-19T07:49:18Z</time>
      </trkpt>
      <trkpt lat="46.43461" lon="4.93474">
        <ele>187.6</ele>
        <time>2024-09-19T07:49:19Z</time>
      </trkpt>
      <trkpt lat="46.43463" lon="4.93469">
        <ele>187.8</ele>
        <time>2024-09-19T07:49:20Z</time>
      </trkpt>
      <trkpt lat="46.43466" lon="4.93461">
        <ele>187.8</ele>
        <time>2024-09-19T07:49:21Z</time>
      </trkpt>
      <trkpt lat="46.43467" lon="4.93459">
        <ele>187.8</ele>
        <time>2024-09-19T07:49:22Z</time>
      </trkpt>
      <trkpt lat="46.43469" lon="4.93454">
        <ele>187.8</ele>
        <time>2024-09-19T07:49:23Z</time>
      </trkpt>
      <trkpt lat="46.43472" lon="4.93446">
        <ele>187.8</ele>
        <time>2024-09-19T07:49:24Z</time>
      </trkpt>
      <trkpt lat="46.43473" lon="4.93444">
        <ele>187.8</ele>
        <time>2024-09-19T07:49:25Z</time>
      </trkpt>
      <trkpt lat="46.43477" lon="4.93435">
        <ele>187.8</ele>
        <time>2024-09-19T07:49:26Z</time>
      </trkpt>
      <trkpt lat="46.43478" lon="4.93432">
        <ele>187.8</ele>
        <time>2024-09-19T07:49:27Z</time>
      </trkpt>
      <trkpt lat="46.43481" lon="4.93424">
        <ele>187.8</ele>
        <time>2024-09-19T07:49:28Z</time>
      </trkpt>
      <trkpt lat="46.43483" lon="4.93421">
        <ele>187.8</ele>
        <time>2024-09-19T07:49:29Z</time>
      </trkpt>
      <trkpt lat="46.43486" lon="4.93413">
        <ele>187.8</ele>
        <time>2024-09-19T07:49:30Z</time>
      </trkpt>
      <trkpt lat="46.43488" lon="4.9341">
        <ele>187.8</ele>
        <time>2024-09-19T07:49:31Z</time>
      </trkpt>
      <trkpt lat="46.43492" lon="4.93402">
        <ele>187.8</ele>
        <time>2024-09-19T07:49:32Z</time>
      </trkpt>
      <trkpt lat="46.43494" lon="4.93399">
        <ele>187.8</ele>
        <time>2024-09-19T07:49:33Z</time>
      </trkpt>
      <trkpt lat="46.43498" lon="4.93391">
        <ele>187.8</ele>
        <time>2024-09-19T07:49:34Z</time>
      </trkpt>
      <trkpt lat="46.43499" lon="4.93388">
        <ele>187.8</ele>
        <time>2024-09-19T07:49:35Z</time>
      </trkpt>
      <trkpt lat="46.43504" lon="4.9338">
        <ele>187.8</ele>
        <time>2024-09-19T07:49:36Z</time>
      </trkpt>
      <trkpt lat="46.43505" lon="4.93378">
        <ele>187.6</ele>
        <time>2024-09-19T07:49:37Z</time>
      </trkpt>
      <trkpt lat="46.4351" lon="4.9337">
        <ele>187.4</ele>
        <time>2024-09-19T07:49:38Z</time>
      </trkpt>
      <trkpt lat="46.43511" lon="4.93368">
        <ele>187.4</ele>
        <time>2024-09-19T07:49:39Z</time>
      </trkpt>
      <trkpt lat="46.43516" lon="4.9336">
        <ele>187.4</ele>
        <time>2024-09-19T07:49:40Z</time>
      </trkpt>
      <trkpt lat="46.43517" lon="4.93357">
        <ele>187.6</ele>
        <time>2024-09-19T07:49:41Z</time>
      </trkpt>
      <trkpt lat="46.43522" lon="4.9335">
        <ele>187.4</ele>
        <time>2024-09-19T07:49:42Z</time>
      </trkpt>
      <trkpt lat="46.43523" lon="4.93347">
        <ele>187.4</ele>
        <time>2024-09-19T07:49:43Z</time>
      </trkpt>
      <trkpt lat="46.43526" lon="4.93342">
        <ele>187.4</ele>
        <time>2024-09-19T07:49:44Z</time>
      </trkpt>
      <trkpt lat="46.43531" lon="4.93335">
        <ele>187.4</ele>
        <time>2024-09-19T07:49:45Z</time>
      </trkpt>
      <trkpt lat="46.43533" lon="4.93332">
        <ele>187.4</ele>
        <time>2024-09-19T07:49:46Z</time>
      </trkpt>
      <trkpt lat="46.43538" lon="4.93324">
        <ele>187.4</ele>
        <time>2024-09-19T07:49:47Z</time>
      </trkpt>
      <trkpt lat="46.43539" lon="4.93322">
        <ele>187.4</ele>
        <time>2024-09-19T07:49:48Z</time>
      </trkpt>
      <trkpt lat="46.43543" lon="4.93317">
        <ele>187.4</ele>
        <time>2024-09-19T07:49:49Z</time>
      </trkpt>
      <trkpt lat="46.43548" lon="4.9331">
        <ele>187</ele>
        <time>2024-09-19T07:49:50Z</time>
      </trkpt>
      <trkpt lat="46.4355" lon="4.93308">
        <ele>187</ele>
        <time>2024-09-19T07:49:51Z</time>
      </trkpt>
      <trkpt lat="46.43553" lon="4.93303">
        <ele>187</ele>
        <time>2024-09-19T07:49:52Z</time>
      </trkpt>
      <trkpt lat="46.43556" lon="4.93299">
        <ele>187</ele>
        <time>2024-09-19T07:49:53Z</time>
      </trkpt>
      <trkpt lat="46.4356" lon="4.93295">
        <ele>187</ele>
        <time>2024-09-19T07:49:54Z</time>
      </trkpt>
      <trkpt lat="46.43564" lon="4.93291">
        <ele>187</ele>
        <time>2024-09-19T07:49:55Z</time>
      </trkpt>
      <trkpt lat="46.43568" lon="4.93287">
        <ele>187.2</ele>
        <time>2024-09-19T07:49:56Z</time>
      </trkpt>
      <trkpt lat="46.43572" lon="4.93284">
        <ele>187.2</ele>
        <time>2024-09-19T07:49:57Z</time>
      </trkpt>
      <trkpt lat="46.43577" lon="4.93279">
        <ele>187.2</ele>
        <time>2024-09-19T07:49:58Z</time>
      </trkpt>
      <trkpt lat="46.43579" lon="4.93277">
        <ele>187</ele>
        <time>2024-09-19T07:49:59Z</time>
      </trkpt>
      <trkpt lat="46.43584" lon="4.93272">
        <ele>187</ele>
        <time>2024-09-19T07:50:00Z</time>
      </trkpt>
      <trkpt lat="46.43586" lon="4.9327">
        <ele>187.4</ele>
        <time>2024-09-19T07:50:01Z</time>
      </trkpt>
      <trkpt lat="46.43589" lon="4.93267">
        <ele>187.4</ele>
        <time>2024-09-19T07:50:02Z</time>
      </trkpt>
      <trkpt lat="46.43593" lon="4.93264">
        <ele>187.4</ele>
        <time>2024-09-19T07:50:03Z</time>
      </trkpt>
      <trkpt lat="46.43598" lon="4.9326">
        <ele>187.4</ele>
        <time>2024-09-19T07:50:04Z</time>
      </trkpt>
      <trkpt lat="46.43599" lon="4.93258">
        <ele>187.4</ele>
        <time>2024-09-19T07:50:05Z</time>
      </trkpt>
      <trkpt lat="46.43602" lon="4.93256">
        <ele>187.4</ele>
        <time>2024-09-19T07:50:06Z</time>
      </trkpt>
      <trkpt lat="46.43604" lon="4.93254">
        <ele>187.4</ele>
        <time>2024-09-19T07:50:07Z</time>
      </trkpt>
      <trkpt lat="46.43607" lon="4.93252">
        <ele>187.4</ele>
        <time>2024-09-19T07:50:08Z</time>
      </trkpt>
      <trkpt lat="46.43609" lon="4.93251">
        <ele>187.6</ele>
        <time>2024-09-19T07:50:09Z</time>
      </trkpt>
      <trkpt lat="46.43611" lon="4.93248">
        <ele>187.6</ele>
        <time>2024-09-19T07:50:10Z</time>
      </trkpt>
      <trkpt lat="46.43612" lon="4.93247">
        <ele>187.6</ele>
        <time>2024-09-19T07:50:11Z</time>
      </trkpt>
      <trkpt lat="46.43614" lon="4.93243">
        <ele>187.6</ele>
        <time>2024-09-19T07:50:12Z</time>
      </trkpt>
      <trkpt lat="46.43615" lon="4.93241">
        <ele>187.8</ele>
        <time>2024-09-19T07:50:13Z</time>
      </trkpt>
      <trkpt lat="46.43615" lon="4.93236">
        <ele>187.8</ele>
        <time>2024-09-19T07:50:14Z</time>
      </trkpt>
      <trkpt lat="46.43614" lon="4.93234">
        <ele>187.8</ele>
        <time>2024-09-19T07:50:15Z</time>
      </trkpt>
      <trkpt lat="46.43613" lon="4.93227">
        <ele>187.8</ele>
        <time>2024-09-19T07:50:16Z</time>
      </trkpt>
      <trkpt lat="46.43613" lon="4.93225">
        <ele>187.8</ele>
        <time>2024-09-19T07:50:17Z</time>
      </trkpt>
      <trkpt lat="46.43611" lon="4.93218">
        <ele>187.8</ele>
        <time>2024-09-19T07:50:18Z</time>
      </trkpt>
      <trkpt lat="46.43611" lon="4.93216">
        <ele>187.8</ele>
        <time>2024-09-19T07:50:19Z</time>
      </trkpt>
      <trkpt lat="46.43609" lon="4.93209">
        <ele>187.8</ele>
        <time>2024-09-19T07:50:20Z</time>
      </trkpt>
      <trkpt lat="46.43609" lon="4.93207">
        <ele>187.8</ele>
        <time>2024-09-19T07:50:21Z</time>
      </trkpt>
      <trkpt lat="46.43607" lon="4.93201">
        <ele>187.8</ele>
        <time>2024-09-19T07:50:22Z</time>
      </trkpt>
      <trkpt lat="46.43607" lon="4.93198">
        <ele>187.4</ele>
        <time>2024-09-19T07:50:23Z</time>
      </trkpt>
      <trkpt lat="46.43607" lon="4.93192">
        <ele>187.4</ele>
        <time>2024-09-19T07:50:24Z</time>
      </trkpt>
      <trkpt lat="46.43607" lon="4.93191">
        <ele>187.4</ele>
        <time>2024-09-19T07:50:25Z</time>
      </trkpt>
      <trkpt lat="46.43607" lon="4.93188">
        <ele>187.8</ele>
        <time>2024-09-19T07:50:26Z</time>
      </trkpt>
      <trkpt lat="46.43606" lon="4.93185">
        <ele>187.8</ele>
        <time>2024-09-19T07:50:27Z</time>
      </trkpt>
      <trkpt lat="46.43606" lon="4.93184">
        <ele>187.8</ele>
        <time>2024-09-19T07:50:28Z</time>
      </trkpt>
      <trkpt lat="46.43605" lon="4.93183">
        <ele>187.8</ele>
        <time>2024-09-19T07:50:29Z</time>
      </trkpt>
      <trkpt lat="46.43605" lon="4.93182">
        <ele>187.8</ele>
        <time>2024-09-19T07:50:30Z</time>
      </trkpt>
      <trkpt lat="46.43605" lon="4.93182">
        <ele>187.6</ele>
        <time>2024-09-19T07:50:31Z</time>
      </trkpt>
      <trkpt lat="46.43609" lon="4.93178">
        <ele>187.8</ele>
        <time>2024-09-19T07:50:37Z</time>
      </trkpt>
      <trkpt lat="46.43611" lon="4.93176">
        <ele>187.8</ele>
        <time>2024-09-19T07:50:38Z</time>
      </trkpt>
      <trkpt lat="46.43613" lon="4.93175">
        <ele>187.8</ele>
        <time>2024-09-19T07:50:39Z</time>
      </trkpt>
      <trkpt lat="46.43617" lon="4.93173">
        <ele>187.8</ele>
        <time>2024-09-19T07:50:40Z</time>
      </trkpt>
      <trkpt lat="46.43618" lon="4.93172">
        <ele>187.4</ele>
        <time>2024-09-19T07:50:41Z</time>
      </trkpt>
      <trkpt lat="46.43623" lon="4.93169">
        <ele>187.4</ele>
        <time>2024-09-19T07:50:42Z</time>
      </trkpt>
      <trkpt lat="46.43625" lon="4.93168">
        <ele>187.4</ele>
        <time>2024-09-19T07:50:43Z</time>
      </trkpt>
      <trkpt lat="46.43628" lon="4.93166">
        <ele>187.4</ele>
        <time>2024-09-19T07:50:44Z</time>
      </trkpt>
      <trkpt lat="46.43631" lon="4.93163">
        <ele>187</ele>
        <time>2024-09-19T07:50:45Z</time>
      </trkpt>
      <trkpt lat="46.43634" lon="4.9316">
        <ele>187</ele>
        <time>2024-09-19T07:50:46Z</time>
      </trkpt>
      <trkpt lat="46.43635" lon="4.9316">
        <ele>187</ele>
        <time>2024-09-19T07:50:47Z</time>
      </trkpt>
      <trkpt lat="46.43637" lon="4.93158">
        <ele>187</ele>
        <time>2024-09-19T07:50:48Z</time>
      </trkpt>
      <trkpt lat="46.43639" lon="4.93156">
        <ele>187</ele>
        <time>2024-09-19T07:50:49Z</time>
      </trkpt>
      <trkpt lat="46.43641" lon="4.93155">
        <ele>186.8</ele>
        <time>2024-09-19T07:50:50Z</time>
      </trkpt>
      <trkpt lat="46.43644" lon="4.93153">
        <ele>186.8</ele>
        <time>2024-09-19T07:50:51Z</time>
      </trkpt>
      <trkpt lat="46.43646" lon="4.93151">
        <ele>186.8</ele>
        <time>2024-09-19T07:50:52Z</time>
      </trkpt>
      <trkpt lat="46.43649" lon="4.9315">
        <ele>186.6</ele>
        <time>2024-09-19T07:50:53Z</time>
      </trkpt>
      <trkpt lat="46.43651" lon="4.93148">
        <ele>186.6</ele>
        <time>2024-09-19T07:50:54Z</time>
      </trkpt>
      <trkpt lat="46.43655" lon="4.93144">
        <ele>186.4</ele>
        <time>2024-09-19T07:50:55Z</time>
      </trkpt>
      <trkpt lat="46.43656" lon="4.93142">
        <ele>186.4</ele>
        <time>2024-09-19T07:50:56Z</time>
      </trkpt>
      <trkpt lat="46.43662" lon="4.93139">
        <ele>186.4</ele>
        <time>2024-09-19T07:50:57Z</time>
      </trkpt>
      <trkpt lat="46.43663" lon="4.93137">
        <ele>186.4</ele>
        <time>2024-09-19T07:50:58Z</time>
      </trkpt>
      <trkpt lat="46.43667" lon="4.93135">
        <ele>186.4</ele>
        <time>2024-09-19T07:50:59Z</time>
      </trkpt>
      <trkpt lat="46.43674" lon="4.93131">
        <ele>186.4</ele>
        <time>2024-09-19T07:51:00Z</time>
      </trkpt>
      <trkpt lat="46.43676" lon="4.93131">
        <ele>186.4</ele>
        <time>2024-09-19T07:51:01Z</time>
      </trkpt>
      <trkpt lat="46.43681" lon="4.93126">
        <ele>186.4</ele>
        <time>2024-09-19T07:51:02Z</time>
      </trkpt>
      <trkpt lat="46.43682" lon="4.93125">
        <ele>186.4</ele>
        <time>2024-09-19T07:51:03Z</time>
      </trkpt>
      <trkpt lat="46.43688" lon="4.9312">
        <ele>186.6</ele>
        <time>2024-09-19T07:51:04Z</time>
      </trkpt>
      <trkpt lat="46.4369" lon="4.93119">
        <ele>186.6</ele>
        <time>2024-09-19T07:51:05Z</time>
      </trkpt>
      <trkpt lat="46.43696" lon="4.93114">
        <ele>186.6</ele>
        <time>2024-09-19T07:51:06Z</time>
      </trkpt>
      <trkpt lat="46.43698" lon="4.93112">
        <ele>186.6</ele>
        <time>2024-09-19T07:51:07Z</time>
      </trkpt>
      <trkpt lat="46.43703" lon="4.93107">
        <ele>186.8</ele>
        <time>2024-09-19T07:51:08Z</time>
      </trkpt>
      <trkpt lat="46.43705" lon="4.93105">
        <ele>186.8</ele>
        <time>2024-09-19T07:51:09Z</time>
      </trkpt>
      <trkpt lat="46.43712" lon="4.931">
        <ele>186.8</ele>
        <time>2024-09-19T07:51:10Z</time>
      </trkpt>
      <trkpt lat="46.43714" lon="4.93098">
        <ele>186.8</ele>
        <time>2024-09-19T07:51:11Z</time>
      </trkpt>
      <trkpt lat="46.43721" lon="4.93093">
        <ele>186.8</ele>
        <time>2024-09-19T07:51:12Z</time>
      </trkpt>
      <trkpt lat="46.43723" lon="4.93091">
        <ele>186.4</ele>
        <time>2024-09-19T07:51:13Z</time>
      </trkpt>
      <trkpt lat="46.43729" lon="4.93087">
        <ele>186.4</ele>
        <time>2024-09-19T07:51:14Z</time>
      </trkpt>
      <trkpt lat="46.43732" lon="4.93085">
        <ele>186.4</ele>
        <time>2024-09-19T07:51:15Z</time>
      </trkpt>
      <trkpt lat="46.43736" lon="4.93082">
        <ele>186.4</ele>
        <time>2024-09-19T07:51:16Z</time>
      </trkpt>
      <trkpt lat="46.4374" lon="4.93079">
        <ele>186.2</ele>
        <time>2024-09-19T07:51:17Z</time>
      </trkpt>
      <trkpt lat="46.43744" lon="4.93075">
        <ele>186.2</ele>
        <time>2024-09-19T07:51:18Z</time>
      </trkpt>
      <trkpt lat="46.43748" lon="4.93072">
        <ele>186.2</ele>
        <time>2024-09-19T07:51:19Z</time>
      </trkpt>
      <trkpt lat="46.43752" lon="4.9307">
        <ele>186.4</ele>
        <time>2024-09-19T07:51:20Z</time>
      </trkpt>
      <trkpt lat="46.43756" lon="4.93067">
        <ele>186.8</ele>
        <time>2024-09-19T07:51:21Z</time>
      </trkpt>
      <trkpt lat="46.4376" lon="4.93063">
        <ele>186.8</ele>
        <time>2024-09-19T07:51:22Z</time>
      </trkpt>
      <trkpt lat="46.43764" lon="4.9306">
        <ele>186.8</ele>
        <time>2024-09-19T07:51:23Z</time>
      </trkpt>
      <trkpt lat="46.4377" lon="4.93056">
        <ele>186.8</ele>
        <time>2024-09-19T07:51:24Z</time>
      </trkpt>
      <trkpt lat="46.43772" lon="4.93055">
        <ele>186.8</ele>
        <time>2024-09-19T07:51:25Z</time>
      </trkpt>
      <trkpt lat="46.43778" lon="4.9305">
        <ele>186.2</ele>
        <time>2024-09-19T07:51:26Z</time>
      </trkpt>
      <trkpt lat="46.4378" lon="4.93049">
        <ele>186.2</ele>
        <time>2024-09-19T07:51:27Z</time>
      </trkpt>
      <trkpt lat="46.43786" lon="4.93044">
        <ele>186.2</ele>
        <time>2024-09-19T07:51:28Z</time>
      </trkpt>
      <trkpt lat="46.43788" lon="4.93043">
        <ele>186.8</ele>
        <time>2024-09-19T07:51:29Z</time>
      </trkpt>
      <trkpt lat="46.43792" lon="4.93041">
        <ele>186</ele>
        <time>2024-09-19T07:51:30Z</time>
      </trkpt>
      <trkpt lat="46.43796" lon="4.93038">
        <ele>186</ele>
        <time>2024-09-19T07:51:31Z</time>
      </trkpt>
      <trkpt lat="46.43802" lon="4.93033">
        <ele>186</ele>
        <time>2024-09-19T07:51:32Z</time>
      </trkpt>
      <trkpt lat="46.43804" lon="4.93031">
        <ele>186</ele>
        <time>2024-09-19T07:51:33Z</time>
      </trkpt>
      <trkpt lat="46.43809" lon="4.93027">
        <ele>186</ele>
        <time>2024-09-19T07:51:34Z</time>
      </trkpt>
      <trkpt lat="46.43811" lon="4.93025">
        <ele>186.4</ele>
        <time>2024-09-19T07:51:35Z</time>
      </trkpt>
      <trkpt lat="46.43817" lon="4.9302">
        <ele>186.4</ele>
        <time>2024-09-19T07:51:36Z</time>
      </trkpt>
      <trkpt lat="46.43819" lon="4.93019">
        <ele>186.4</ele>
        <time>2024-09-19T07:51:37Z</time>
      </trkpt>
      <trkpt lat="46.43825" lon="4.93015">
        <ele>186.4</ele>
        <time>2024-09-19T07:51:38Z</time>
      </trkpt>
      <trkpt lat="46.43826" lon="4.93013">
        <ele>186.4</ele>
        <time>2024-09-19T07:51:39Z</time>
      </trkpt>
      <trkpt lat="46.43832" lon="4.9301">
        <ele>186.4</ele>
        <time>2024-09-19T07:51:40Z</time>
      </trkpt>
      <trkpt lat="46.43834" lon="4.93009">
        <ele>186.4</ele>
        <time>2024-09-19T07:51:41Z</time>
      </trkpt>
      <trkpt lat="46.43838" lon="4.93007">
        <ele>186.2</ele>
        <time>2024-09-19T07:51:42Z</time>
      </trkpt>
      <trkpt lat="46.43843" lon="4.93003">
        <ele>186.2</ele>
        <time>2024-09-19T07:51:43Z</time>
      </trkpt>
      <trkpt lat="46.43845" lon="4.93001">
        <ele>186.2</ele>
        <time>2024-09-19T07:51:44Z</time>
      </trkpt>
      <trkpt lat="46.43849" lon="4.92999">
        <ele>186.4</ele>
        <time>2024-09-19T07:51:45Z</time>
      </trkpt>
      <trkpt lat="46.43855" lon="4.92995">
        <ele>186.4</ele>
        <time>2024-09-19T07:51:46Z</time>
      </trkpt>
      <trkpt lat="46.43857" lon="4.92994">
        <ele>186.4</ele>
        <time>2024-09-19T07:51:47Z</time>
      </trkpt>
      <trkpt lat="46.43863" lon="4.9299">
        <ele>186.4</ele>
        <time>2024-09-19T07:51:48Z</time>
      </trkpt>
      <trkpt lat="46.43865" lon="4.92988">
        <ele>186.4</ele>
        <time>2024-09-19T07:51:49Z</time>
      </trkpt>
      <trkpt lat="46.43871" lon="4.92984">
        <ele>186.4</ele>
        <time>2024-09-19T07:51:50Z</time>
      </trkpt>
      <trkpt lat="46.43873" lon="4.92982">
        <ele>186.4</ele>
        <time>2024-09-19T07:51:51Z</time>
      </trkpt>
      <trkpt lat="46.43879" lon="4.92978">
        <ele>186.4</ele>
        <time>2024-09-19T07:51:52Z</time>
      </trkpt>
      <trkpt lat="46.43881" lon="4.92976">
        <ele>186.6</ele>
        <time>2024-09-19T07:51:53Z</time>
      </trkpt>
      <trkpt lat="46.43887" lon="4.92972">
        <ele>186.6</ele>
        <time>2024-09-19T07:51:54Z</time>
      </trkpt>
      <trkpt lat="46.43889" lon="4.9297">
        <ele>186.6</ele>
        <time>2024-09-19T07:51:55Z</time>
      </trkpt>
      <trkpt lat="46.43895" lon="4.92965">
        <ele>186.6</ele>
        <time>2024-09-19T07:51:56Z</time>
      </trkpt>
      <trkpt lat="46.43897" lon="4.92964">
        <ele>186.6</ele>
        <time>2024-09-19T07:51:57Z</time>
      </trkpt>
      <trkpt lat="46.43901" lon="4.92961">
        <ele>186.8</ele>
        <time>2024-09-19T07:51:58Z</time>
      </trkpt>
      <trkpt lat="46.43905" lon="4.92959">
        <ele>186.8</ele>
        <time>2024-09-19T07:51:59Z</time>
      </trkpt>
      <trkpt lat="46.43909" lon="4.92956">
        <ele>186.8</ele>
        <time>2024-09-19T07:52:00Z</time>
      </trkpt>
      <trkpt lat="46.43913" lon="4.92953">
        <ele>186.6</ele>
        <time>2024-09-19T07:52:01Z</time>
      </trkpt>
      <trkpt lat="46.43917" lon="4.92951">
        <ele>186.2</ele>
        <time>2024-09-19T07:52:02Z</time>
      </trkpt>
      <trkpt lat="46.43921" lon="4.92948">
        <ele>186.2</ele>
        <time>2024-09-19T07:52:03Z</time>
      </trkpt>
      <trkpt lat="46.43926" lon="4.92945">
        <ele>186.2</ele>
        <time>2024-09-19T07:52:04Z</time>
      </trkpt>
      <trkpt lat="46.4393" lon="4.92942">
        <ele>186.8</ele>
        <time>2024-09-19T07:52:05Z</time>
      </trkpt>
      <trkpt lat="46.43934" lon="4.92939">
        <ele>186.4</ele>
        <time>2024-09-19T07:52:06Z</time>
      </trkpt>
      <trkpt lat="46.4394" lon="4.92934">
        <ele>186.4</ele>
        <time>2024-09-19T07:52:07Z</time>
      </trkpt>
      <trkpt lat="46.43942" lon="4.92933">
        <ele>186.4</ele>
        <time>2024-09-19T07:52:08Z</time>
      </trkpt>
      <trkpt lat="46.43946" lon="4.9293">
        <ele>186.4</ele>
        <time>2024-09-19T07:52:09Z</time>
      </trkpt>
      <trkpt lat="46.43952" lon="4.92925">
        <ele>186.6</ele>
        <time>2024-09-19T07:52:10Z</time>
      </trkpt>
      <trkpt lat="46.43954" lon="4.92924">
        <ele>187.2</ele>
        <time>2024-09-19T07:52:11Z</time>
      </trkpt>
      <trkpt lat="46.4396" lon="4.9292">
        <ele>187.2</ele>
        <time>2024-09-19T07:52:12Z</time>
      </trkpt>
      <trkpt lat="46.43962" lon="4.92918">
        <ele>187.2</ele>
        <time>2024-09-19T07:52:13Z</time>
      </trkpt>
      <trkpt lat="46.43966" lon="4.92915">
        <ele>186.6</ele>
        <time>2024-09-19T07:52:14Z</time>
      </trkpt>
      <trkpt lat="46.4397" lon="4.92912">
        <ele>186.6</ele>
        <time>2024-09-19T07:52:15Z</time>
      </trkpt>
      <trkpt lat="46.43973" lon="4.9291">
        <ele>186.6</ele>
        <time>2024-09-19T07:52:16Z</time>
      </trkpt>
      <trkpt lat="46.43977" lon="4.92907">
        <ele>186.6</ele>
        <time>2024-09-19T07:52:17Z</time>
      </trkpt>
      <trkpt lat="46.43981" lon="4.92904">
        <ele>186.6</ele>
        <time>2024-09-19T07:52:18Z</time>
      </trkpt>
      <trkpt lat="46.43985" lon="4.92902">
        <ele>186.6</ele>
        <time>2024-09-19T07:52:19Z</time>
      </trkpt>
      <trkpt lat="46.43989" lon="4.92899">
        <ele>186.2</ele>
        <time>2024-09-19T07:52:20Z</time>
      </trkpt>
      <trkpt lat="46.43994" lon="4.92896">
        <ele>186.2</ele>
        <time>2024-09-19T07:52:21Z</time>
      </trkpt>
      <trkpt lat="46.43996" lon="4.92895">
        <ele>186.2</ele>
        <time>2024-09-19T07:52:22Z</time>
      </trkpt>
      <trkpt lat="46.44001" lon="4.92891">
        <ele>186.6</ele>
        <time>2024-09-19T07:52:23Z</time>
      </trkpt>
      <trkpt lat="46.44003" lon="4.9289">
        <ele>186.6</ele>
        <time>2024-09-19T07:52:24Z</time>
      </trkpt>
      <trkpt lat="46.44009" lon="4.92885">
        <ele>186.6</ele>
        <time>2024-09-19T07:52:25Z</time>
      </trkpt>
      <trkpt lat="46.44011" lon="4.92884">
        <ele>186.6</ele>
        <time>2024-09-19T07:52:26Z</time>
      </trkpt>
      <trkpt lat="46.44015" lon="4.92881">
        <ele>186.6</ele>
        <time>2024-09-19T07:52:27Z</time>
      </trkpt>
      <trkpt lat="46.44019" lon="4.92879">
        <ele>186.6</ele>
        <time>2024-09-19T07:52:28Z</time>
      </trkpt>
      <trkpt lat="46.44024" lon="4.92874">
        <ele>186.4</ele>
        <time>2024-09-19T07:52:29Z</time>
      </trkpt>
      <trkpt lat="46.44026" lon="4.92873">
        <ele>186.4</ele>
        <time>2024-09-19T07:52:30Z</time>
      </trkpt>
      <trkpt lat="46.44032" lon="4.92868">
        <ele>186.4</ele>
        <time>2024-09-19T07:52:31Z</time>
      </trkpt>
      <trkpt lat="46.44034" lon="4.92867">
        <ele>186.4</ele>
        <time>2024-09-19T07:52:32Z</time>
      </trkpt>
      <trkpt lat="46.4404" lon="4.92862">
        <ele>186.4</ele>
        <time>2024-09-19T07:52:33Z</time>
      </trkpt>
      <trkpt lat="46.44041" lon="4.9286">
        <ele>186.2</ele>
        <time>2024-09-19T07:52:34Z</time>
      </trkpt>
      <trkpt lat="46.44045" lon="4.92857">
        <ele>186.2</ele>
        <time>2024-09-19T07:52:35Z</time>
      </trkpt>
      <trkpt lat="46.44049" lon="4.92854">
        <ele>186.2</ele>
        <time>2024-09-19T07:52:36Z</time>
      </trkpt>
      <trkpt lat="46.44054" lon="4.92848">
        <ele>186.2</ele>
        <time>2024-09-19T07:52:37Z</time>
      </trkpt>
      <trkpt lat="46.44056" lon="4.92847">
        <ele>185.8</ele>
        <time>2024-09-19T07:52:38Z</time>
      </trkpt>
      <trkpt lat="46.44061" lon="4.92842">
        <ele>185.8</ele>
        <time>2024-09-19T07:52:39Z</time>
      </trkpt>
      <trkpt lat="46.44063" lon="4.9284">
        <ele>185.8</ele>
        <time>2024-09-19T07:52:40Z</time>
      </trkpt>
      <trkpt lat="46.44066" lon="4.92837">
        <ele>186.2</ele>
        <time>2024-09-19T07:52:41Z</time>
      </trkpt>
      <trkpt lat="46.44069" lon="4.92834">
        <ele>186.2</ele>
        <time>2024-09-19T07:52:42Z</time>
      </trkpt>
      <trkpt lat="46.44073" lon="4.9283">
        <ele>186.4</ele>
        <time>2024-09-19T07:52:43Z</time>
      </trkpt>
      <trkpt lat="46.44076" lon="4.92827">
        <ele>186.4</ele>
        <time>2024-09-19T07:52:44Z</time>
      </trkpt>
      <trkpt lat="46.4408" lon="4.92823">
        <ele>186.4</ele>
        <time>2024-09-19T07:52:45Z</time>
      </trkpt>
      <trkpt lat="46.44083" lon="4.92819">
        <ele>186</ele>
        <time>2024-09-19T07:52:46Z</time>
      </trkpt>
      <trkpt lat="46.44087" lon="4.92816">
        <ele>186</ele>
        <time>2024-09-19T07:52:47Z</time>
      </trkpt>
      <trkpt lat="46.4409" lon="4.92813">
        <ele>186</ele>
        <time>2024-09-19T07:52:48Z</time>
      </trkpt>
      <trkpt lat="46.44095" lon="4.92807">
        <ele>186</ele>
        <time>2024-09-19T07:52:49Z</time>
      </trkpt>
      <trkpt lat="46.44097" lon="4.92805">
        <ele>186.4</ele>
        <time>2024-09-19T07:52:50Z</time>
      </trkpt>
      <trkpt lat="46.44102" lon="4.92799">
        <ele>186.4</ele>
        <time>2024-09-19T07:52:51Z</time>
      </trkpt>
      <trkpt lat="46.44104" lon="4.92797">
        <ele>186.2</ele>
        <time>2024-09-19T07:52:52Z</time>
      </trkpt>
      <trkpt lat="46.44107" lon="4.92792">
        <ele>186.2</ele>
        <time>2024-09-19T07:52:53Z</time>
      </trkpt>
      <trkpt lat="46.44112" lon="4.92785">
        <ele>186.2</ele>
        <time>2024-09-19T07:52:54Z</time>
      </trkpt>
      <trkpt lat="46.44113" lon="4.92783">
        <ele>186.2</ele>
        <time>2024-09-19T07:52:55Z</time>
      </trkpt>
      <trkpt lat="46.44116" lon="4.92779">
        <ele>186</ele>
        <time>2024-09-19T07:52:56Z</time>
      </trkpt>
      <trkpt lat="46.44119" lon="4.92775">
        <ele>186</ele>
        <time>2024-09-19T07:52:57Z</time>
      </trkpt>
      <trkpt lat="46.44124" lon="4.92768">
        <ele>186</ele>
        <time>2024-09-19T07:52:58Z</time>
      </trkpt>
      <trkpt lat="46.44126" lon="4.92766">
        <ele>187</ele>
        <time>2024-09-19T07:52:59Z</time>
      </trkpt>
      <trkpt lat="46.44129" lon="4.92762">
        <ele>186.4</ele>
        <time>2024-09-19T07:53:00Z</time>
      </trkpt>
      <trkpt lat="46.44133" lon="4.92757">
        <ele>186.4</ele>
        <time>2024-09-19T07:53:01Z</time>
      </trkpt>
      <trkpt lat="46.44136" lon="4.92753">
        <ele>186.4</ele>
        <time>2024-09-19T07:53:02Z</time>
      </trkpt>
      <trkpt lat="46.44141" lon="4.92746">
        <ele>186.4</ele>
        <time>2024-09-19T07:53:03Z</time>
      </trkpt>
      <trkpt lat="46.44143" lon="4.92744">
        <ele>186.6</ele>
        <time>2024-09-19T07:53:04Z</time>
      </trkpt>
      <trkpt lat="46.44147" lon="4.92737">
        <ele>186.6</ele>
        <time>2024-09-19T07:53:05Z</time>
      </trkpt>
      <trkpt lat="46.44149" lon="4.92735">
        <ele>186.6</ele>
        <time>2024-09-19T07:53:06Z</time>
      </trkpt>
      <trkpt lat="46.44152" lon="4.9273">
        <ele>186.6</ele>
        <time>2024-09-19T07:53:07Z</time>
      </trkpt>
      <trkpt lat="46.44156" lon="4.92725">
        <ele>186.6</ele>
        <time>2024-09-19T07:53:08Z</time>
      </trkpt>
      <trkpt lat="46.4416" lon="4.92719">
        <ele>186.6</ele>
        <time>2024-09-19T07:53:09Z</time>
      </trkpt>
      <trkpt lat="46.44162" lon="4.92716">
        <ele>186.6</ele>
        <time>2024-09-19T07:53:10Z</time>
      </trkpt>
      <trkpt lat="46.44165" lon="4.92711">
        <ele>186.6</ele>
        <time>2024-09-19T07:53:11Z</time>
      </trkpt>
      <trkpt lat="46.44168" lon="4.92707">
        <ele>186.6</ele>
        <time>2024-09-19T07:53:12Z</time>
      </trkpt>
      <trkpt lat="46.44172" lon="4.92699">
        <ele>186.6</ele>
        <time>2024-09-19T07:53:13Z</time>
      </trkpt>
      <trkpt lat="46.44174" lon="4.92696">
        <ele>186.8</ele>
        <time>2024-09-19T07:53:14Z</time>
      </trkpt>
      <trkpt lat="46.44178" lon="4.92688">
        <ele>186.6</ele>
        <time>2024-09-19T07:53:15Z</time>
      </trkpt>
      <trkpt lat="46.4418" lon="4.92686">
        <ele>186.6</ele>
        <time>2024-09-19T07:53:16Z</time>
      </trkpt>
      <trkpt lat="46.44184" lon="4.92678">
        <ele>186.6</ele>
        <time>2024-09-19T07:53:17Z</time>
      </trkpt>
      <trkpt lat="46.44186" lon="4.92675">
        <ele>186.6</ele>
        <time>2024-09-19T07:53:18Z</time>
      </trkpt>
      <trkpt lat="46.44189" lon="4.92669">
        <ele>187</ele>
        <time>2024-09-19T07:53:19Z</time>
      </trkpt>
      <trkpt lat="46.44191" lon="4.92664">
        <ele>187</ele>
        <time>2024-09-19T07:53:20Z</time>
      </trkpt>
      <trkpt lat="46.44195" lon="4.92657">
        <ele>187</ele>
        <time>2024-09-19T07:53:21Z</time>
      </trkpt>
      <trkpt lat="46.44197" lon="4.92655">
        <ele>186.2</ele>
        <time>2024-09-19T07:53:22Z</time>
      </trkpt>
      <trkpt lat="46.44201" lon="4.92647">
        <ele>186.4</ele>
        <time>2024-09-19T07:53:23Z</time>
      </trkpt>
      <trkpt lat="46.44202" lon="4.92645">
        <ele>186.4</ele>
        <time>2024-09-19T07:53:24Z</time>
      </trkpt>
      <trkpt lat="46.44205" lon="4.9264">
        <ele>186.4</ele>
        <time>2024-09-19T07:53:25Z</time>
      </trkpt>
      <trkpt lat="46.44207" lon="4.92634">
        <ele>186.4</ele>
        <time>2024-09-19T07:53:26Z</time>
      </trkpt>
      <trkpt lat="46.4421" lon="4.92629">
        <ele>186.6</ele>
        <time>2024-09-19T07:53:27Z</time>
      </trkpt>
      <trkpt lat="46.44213" lon="4.92623">
        <ele>186.4</ele>
        <time>2024-09-19T07:53:28Z</time>
      </trkpt>
      <trkpt lat="46.44216" lon="4.92618">
        <ele>186.4</ele>
        <time>2024-09-19T07:53:29Z</time>
      </trkpt>
      <trkpt lat="46.44219" lon="4.92612">
        <ele>186.4</ele>
        <time>2024-09-19T07:53:30Z</time>
      </trkpt>
      <trkpt lat="46.44222" lon="4.92606">
        <ele>186.6</ele>
        <time>2024-09-19T07:53:31Z</time>
      </trkpt>
      <trkpt lat="46.44225" lon="4.92601">
        <ele>186.4</ele>
        <time>2024-09-19T07:53:32Z</time>
      </trkpt>
      <trkpt lat="46.44229" lon="4.92592">
        <ele>186.4</ele>
        <time>2024-09-19T07:53:33Z</time>
      </trkpt>
      <trkpt lat="46.44231" lon="4.92589">
        <ele>186.4</ele>
        <time>2024-09-19T07:53:34Z</time>
      </trkpt>
      <trkpt lat="46.44235" lon="4.92581">
        <ele>186.4</ele>
        <time>2024-09-19T07:53:35Z</time>
      </trkpt>
      <trkpt lat="46.44236" lon="4.92578">
        <ele>186.4</ele>
        <time>2024-09-19T07:53:36Z</time>
      </trkpt>
      <trkpt lat="46.4424" lon="4.9257">
        <ele>186.6</ele>
        <time>2024-09-19T07:53:37Z</time>
      </trkpt>
      <trkpt lat="46.44242" lon="4.92567">
        <ele>186.6</ele>
        <time>2024-09-19T07:53:38Z</time>
      </trkpt>
      <trkpt lat="46.44246" lon="4.92559">
        <ele>186.6</ele>
        <time>2024-09-19T07:53:39Z</time>
      </trkpt>
      <trkpt lat="46.44247" lon="4.92556">
        <ele>186.6</ele>
        <time>2024-09-19T07:53:40Z</time>
      </trkpt>
      <trkpt lat="46.44251" lon="4.92548">
        <ele>186.6</ele>
        <time>2024-09-19T07:53:41Z</time>
      </trkpt>
      <trkpt lat="46.44252" lon="4.92545">
        <ele>186.6</ele>
        <time>2024-09-19T07:53:42Z</time>
      </trkpt>
      <trkpt lat="46.44255" lon="4.9254">
        <ele>186.6</ele>
        <time>2024-09-19T07:53:43Z</time>
      </trkpt>
      <trkpt lat="46.44257" lon="4.92535">
        <ele>186.8</ele>
        <time>2024-09-19T07:53:44Z</time>
      </trkpt>
      <trkpt lat="46.4426" lon="4.92529">
        <ele>187</ele>
        <time>2024-09-19T07:53:45Z</time>
      </trkpt>
      <trkpt lat="46.44262" lon="4.92524">
        <ele>187</ele>
        <time>2024-09-19T07:53:46Z</time>
      </trkpt>
      <trkpt lat="46.44265" lon="4.92515">
        <ele>187</ele>
        <time>2024-09-19T07:53:47Z</time>
      </trkpt>
      <trkpt lat="46.44267" lon="4.92513">
        <ele>187</ele>
        <time>2024-09-19T07:53:48Z</time>
      </trkpt>
      <trkpt lat="46.4427" lon="4.92505">
        <ele>186.8</ele>
        <time>2024-09-19T07:53:49Z</time>
      </trkpt>
      <trkpt lat="46.44271" lon="4.92502">
        <ele>187.2</ele>
        <time>2024-09-19T07:53:50Z</time>
      </trkpt>
      <trkpt lat="46.44273" lon="4.92497">
        <ele>187.2</ele>
        <time>2024-09-19T07:53:51Z</time>
      </trkpt>
      <trkpt lat="46.44275" lon="4.92492">
        <ele>187.2</ele>
        <time>2024-09-19T07:53:52Z</time>
      </trkpt>
      <trkpt lat="46.44277" lon="4.92486">
        <ele>187.2</ele>
        <time>2024-09-19T07:53:53Z</time>
      </trkpt>
      <trkpt lat="46.44279" lon="4.92479">
        <ele>187.2</ele>
        <time>2024-09-19T07:53:54Z</time>
      </trkpt>
      <trkpt lat="46.4428" lon="4.92476">
        <ele>187.2</ele>
        <time>2024-09-19T07:53:55Z</time>
      </trkpt>
      <trkpt lat="46.44283" lon="4.9247">
        <ele>187.2</ele>
        <time>2024-09-19T07:53:56Z</time>
      </trkpt>
      <trkpt lat="46.44283" lon="4.92468">
        <ele>187.2</ele>
        <time>2024-09-19T07:53:57Z</time>
      </trkpt>
      <trkpt lat="46.44285" lon="4.92464">
        <ele>187.4</ele>
        <time>2024-09-19T07:53:58Z</time>
      </trkpt>
      <trkpt lat="46.44286" lon="4.92461">
        <ele>187.8</ele>
        <time>2024-09-19T07:53:59Z</time>
      </trkpt>
      <trkpt lat="46.44287" lon="4.92457">
        <ele>187.8</ele>
        <time>2024-09-19T07:54:00Z</time>
      </trkpt>
      <trkpt lat="46.44287" lon="4.92454">
        <ele>187.8</ele>
        <time>2024-09-19T07:54:01Z</time>
      </trkpt>
      <trkpt lat="46.44289" lon="4.9245">
        <ele>187.8</ele>
        <time>2024-09-19T07:54:02Z</time>
      </trkpt>
      <trkpt lat="46.44291" lon="4.92445">
        <ele>187.8</ele>
        <time>2024-09-19T07:54:03Z</time>
      </trkpt>
      <trkpt lat="46.44292" lon="4.92441">
        <ele>187.8</ele>
        <time>2024-09-19T07:54:04Z</time>
      </trkpt>
      <trkpt lat="46.44295" lon="4.92433">
        <ele>187.8</ele>
        <time>2024-09-19T07:54:05Z</time>
      </trkpt>
      <trkpt lat="46.44296" lon="4.92431">
        <ele>187.8</ele>
        <time>2024-09-19T07:54:06Z</time>
      </trkpt>
      <trkpt lat="46.44298" lon="4.92423">
        <ele>187.8</ele>
        <time>2024-09-19T07:54:07Z</time>
      </trkpt>
      <trkpt lat="46.44299" lon="4.9242">
        <ele>188.2</ele>
        <time>2024-09-19T07:54:08Z</time>
      </trkpt>
      <trkpt lat="46.44301" lon="4.92415">
        <ele>188.2</ele>
        <time>2024-09-19T07:54:09Z</time>
      </trkpt>
      <trkpt lat="46.44303" lon="4.92409">
        <ele>188.2</ele>
        <time>2024-09-19T07:54:10Z</time>
      </trkpt>
      <trkpt lat="46.44305" lon="4.92404">
        <ele>187.4</ele>
        <time>2024-09-19T07:54:11Z</time>
      </trkpt>
      <trkpt lat="46.44306" lon="4.92398">
        <ele>187.2</ele>
        <time>2024-09-19T07:54:12Z</time>
      </trkpt>
      <trkpt lat="46.44308" lon="4.92392">
        <ele>187.2</ele>
        <time>2024-09-19T07:54:13Z</time>
      </trkpt>
      <trkpt lat="46.4431" lon="4.92386">
        <ele>187.2</ele>
        <time>2024-09-19T07:54:14Z</time>
      </trkpt>
      <trkpt lat="46.44312" lon="4.92379">
        <ele>187.2</ele>
        <time>2024-09-19T07:54:15Z</time>
      </trkpt>
      <trkpt lat="46.44314" lon="4.92369">
        <ele>187</ele>
        <time>2024-09-19T07:54:16Z</time>
      </trkpt>
      <trkpt lat="46.44315" lon="4.92366">
        <ele>187</ele>
        <time>2024-09-19T07:54:17Z</time>
      </trkpt>
      <trkpt lat="46.44318" lon="4.92356">
        <ele>187</ele>
        <time>2024-09-19T07:54:18Z</time>
      </trkpt>
      <trkpt lat="46.44319" lon="4.92352">
        <ele>187</ele>
        <time>2024-09-19T07:54:19Z</time>
      </trkpt>
      <trkpt lat="46.44321" lon="4.92342">
        <ele>186.8</ele>
        <time>2024-09-19T07:54:20Z</time>
      </trkpt>
      <trkpt lat="46.44322" lon="4.92339">
        <ele>186.4</ele>
        <time>2024-09-19T07:54:21Z</time>
      </trkpt>
      <trkpt lat="46.44325" lon="4.92328">
        <ele>186.4</ele>
        <time>2024-09-19T07:54:22Z</time>
      </trkpt>
      <trkpt lat="46.44325" lon="4.92325">
        <ele>186.4</ele>
        <time>2024-09-19T07:54:23Z</time>
      </trkpt>
      <trkpt lat="46.44327" lon="4.92318">
        <ele>186.4</ele>
        <time>2024-09-19T07:54:24Z</time>
      </trkpt>
      <trkpt lat="46.44328" lon="4.92307">
        <ele>186.8</ele>
        <time>2024-09-19T07:54:25Z</time>
      </trkpt>
      <trkpt lat="46.44329" lon="4.92303">
        <ele>186.4</ele>
        <time>2024-09-19T07:54:26Z</time>
      </trkpt>
      <trkpt lat="46.4433" lon="4.92296">
        <ele>186.4</ele>
        <time>2024-09-19T07:54:27Z</time>
      </trkpt>
      <trkpt lat="46.44332" lon="4.92289">
        <ele>186.4</ele>
        <time>2024-09-19T07:54:28Z</time>
      </trkpt>
      <trkpt lat="46.44333" lon="4.92278">
        <ele>187</ele>
        <time>2024-09-19T07:54:29Z</time>
      </trkpt>
      <trkpt lat="46.44333" lon="4.92275">
        <ele>187</ele>
        <time>2024-09-19T07:54:30Z</time>
      </trkpt>
      <trkpt lat="46.44335" lon="4.92264">
        <ele>186.2</ele>
        <time>2024-09-19T07:54:31Z</time>
      </trkpt>
      <trkpt lat="46.44335" lon="4.92261">
        <ele>186.2</ele>
        <time>2024-09-19T07:54:32Z</time>
      </trkpt>
      <trkpt lat="46.44337" lon="4.92251">
        <ele>186.2</ele>
        <time>2024-09-19T07:54:33Z</time>
      </trkpt>
      <trkpt lat="46.44337" lon="4.92248">
        <ele>186.2</ele>
        <time>2024-09-19T07:54:34Z</time>
      </trkpt>
      <trkpt lat="46.44338" lon="4.92242">
        <ele>186.2</ele>
        <time>2024-09-19T07:54:35Z</time>
      </trkpt>
      <trkpt lat="46.4434" lon="4.92232">
        <ele>186.6</ele>
        <time>2024-09-19T07:54:36Z</time>
      </trkpt>
      <trkpt lat="46.44341" lon="4.92229">
        <ele>186.6</ele>
        <time>2024-09-19T07:54:37Z</time>
      </trkpt>
      <trkpt lat="46.44342" lon="4.92219">
        <ele>186.6</ele>
        <time>2024-09-19T07:54:38Z</time>
      </trkpt>
      <trkpt lat="46.44343" lon="4.92216">
        <ele>186.6</ele>
        <time>2024-09-19T07:54:39Z</time>
      </trkpt>
      <trkpt lat="46.44344" lon="4.92207">
        <ele>186.6</ele>
        <time>2024-09-19T07:54:40Z</time>
      </trkpt>
      <trkpt lat="46.44344" lon="4.92204">
        <ele>186.6</ele>
        <time>2024-09-19T07:54:41Z</time>
      </trkpt>
      <trkpt lat="46.44345" lon="4.92198">
        <ele>186.6</ele>
        <time>2024-09-19T07:54:42Z</time>
      </trkpt>
      <trkpt lat="46.44346" lon="4.92192">
        <ele>186.6</ele>
        <time>2024-09-19T07:54:43Z</time>
      </trkpt>
      <trkpt lat="46.44347" lon="4.92185">
        <ele>186.4</ele>
        <time>2024-09-19T07:54:44Z</time>
      </trkpt>
      <trkpt lat="46.44348" lon="4.92178">
        <ele>186.4</ele>
        <time>2024-09-19T07:54:45Z</time>
      </trkpt>
      <trkpt lat="46.4435" lon="4.92169">
        <ele>186.4</ele>
        <time>2024-09-19T07:54:46Z</time>
      </trkpt>
      <trkpt lat="46.4435" lon="4.92165">
        <ele>186.4</ele>
        <time>2024-09-19T07:54:47Z</time>
      </trkpt>
      <trkpt lat="46.44352" lon="4.92155">
        <ele>186.8</ele>
        <time>2024-09-19T07:54:48Z</time>
      </trkpt>
      <trkpt lat="46.44353" lon="4.92152">
        <ele>186.2</ele>
        <time>2024-09-19T07:54:49Z</time>
      </trkpt>
      <trkpt lat="46.44354" lon="4.92145">
        <ele>186.2</ele>
        <time>2024-09-19T07:54:50Z</time>
      </trkpt>
      <trkpt lat="46.44355" lon="4.92139">
        <ele>186.2</ele>
        <time>2024-09-19T07:54:51Z</time>
      </trkpt>
      <trkpt lat="46.44356" lon="4.92132">
        <ele>186.2</ele>
        <time>2024-09-19T07:54:52Z</time>
      </trkpt>
      <trkpt lat="46.44357" lon="4.92125">
        <ele>186.4</ele>
        <time>2024-09-19T07:54:53Z</time>
      </trkpt>
      <trkpt lat="46.44358" lon="4.92119">
        <ele>186.4</ele>
        <time>2024-09-19T07:54:54Z</time>
      </trkpt>
      <trkpt lat="46.44359" lon="4.92113">
        <ele>186.4</ele>
        <time>2024-09-19T07:54:55Z</time>
      </trkpt>
      <trkpt lat="46.4436" lon="4.92106">
        <ele>186.4</ele>
        <time>2024-09-19T07:54:56Z</time>
      </trkpt>
      <trkpt lat="46.44361" lon="4.921">
        <ele>186.4</ele>
        <time>2024-09-19T07:54:57Z</time>
      </trkpt>
      <trkpt lat="46.44362" lon="4.9209">
        <ele>186.6</ele>
        <time>2024-09-19T07:54:58Z</time>
      </trkpt>
      <trkpt lat="46.44363" lon="4.92086">
        <ele>186.6</ele>
        <time>2024-09-19T07:54:59Z</time>
      </trkpt>
      <trkpt lat="46.44364" lon="4.92076">
        <ele>186.6</ele>
        <time>2024-09-19T07:55:00Z</time>
      </trkpt>
      <trkpt lat="46.44364" lon="4.92073">
        <ele>186.6</ele>
        <time>2024-09-19T07:55:01Z</time>
      </trkpt>
      <trkpt lat="46.44366" lon="4.92067">
        <ele>186.4</ele>
        <time>2024-09-19T07:55:02Z</time>
      </trkpt>
      <trkpt lat="46.44367" lon="4.92061">
        <ele>186.4</ele>
        <time>2024-09-19T07:55:03Z</time>
      </trkpt>
      <trkpt lat="46.44368" lon="4.92055">
        <ele>186.4</ele>
        <time>2024-09-19T07:55:04Z</time>
      </trkpt>
      <trkpt lat="46.44368" lon="4.92049">
        <ele>186.4</ele>
        <time>2024-09-19T07:55:05Z</time>
      </trkpt>
      <trkpt lat="46.44368" lon="4.92041">
        <ele>186.4</ele>
        <time>2024-09-19T07:55:06Z</time>
      </trkpt>
      <trkpt lat="46.44369" lon="4.92038">
        <ele>186.4</ele>
        <time>2024-09-19T07:55:07Z</time>
      </trkpt>
      <trkpt lat="46.4437" lon="4.9203">
        <ele>186.4</ele>
        <time>2024-09-19T07:55:08Z</time>
      </trkpt>
      <trkpt lat="46.4437" lon="4.92027">
        <ele>186.4</ele>
        <time>2024-09-19T07:55:09Z</time>
      </trkpt>
      <trkpt lat="46.44371" lon="4.92021">
        <ele>186.6</ele>
        <time>2024-09-19T07:55:10Z</time>
      </trkpt>
      <trkpt lat="46.44372" lon="4.92017">
        <ele>186.6</ele>
        <time>2024-09-19T07:55:11Z</time>
      </trkpt>
      <trkpt lat="46.44373" lon="4.92009">
        <ele>186.6</ele>
        <time>2024-09-19T07:55:12Z</time>
      </trkpt>
      <trkpt lat="46.44374" lon="4.92006">
        <ele>186.6</ele>
        <time>2024-09-19T07:55:13Z</time>
      </trkpt>
      <trkpt lat="46.44375" lon="4.92">
        <ele>186.6</ele>
        <time>2024-09-19T07:55:14Z</time>
      </trkpt>
      <trkpt lat="46.44376" lon="4.91994">
        <ele>186.6</ele>
        <time>2024-09-19T07:55:15Z</time>
      </trkpt>
      <trkpt lat="46.44377" lon="4.91988">
        <ele>186.2</ele>
        <time>2024-09-19T07:55:16Z</time>
      </trkpt>
      <trkpt lat="46.44378" lon="4.91982">
        <ele>186.2</ele>
        <time>2024-09-19T07:55:17Z</time>
      </trkpt>
      <trkpt lat="46.44379" lon="4.91976">
        <ele>186.2</ele>
        <time>2024-09-19T07:55:18Z</time>
      </trkpt>
      <trkpt lat="46.44381" lon="4.9197">
        <ele>186.2</ele>
        <time>2024-09-19T07:55:19Z</time>
      </trkpt>
      <trkpt lat="46.44382" lon="4.91964">
        <ele>186.6</ele>
        <time>2024-09-19T07:55:20Z</time>
      </trkpt>
      <trkpt lat="46.44384" lon="4.91956">
        <ele>186.6</ele>
        <time>2024-09-19T07:55:21Z</time>
      </trkpt>
      <trkpt lat="46.44385" lon="4.91953">
        <ele>186.6</ele>
        <time>2024-09-19T07:55:22Z</time>
      </trkpt>
      <trkpt lat="46.44386" lon="4.91945">
        <ele>186.6</ele>
        <time>2024-09-19T07:55:23Z</time>
      </trkpt>
      <trkpt lat="46.44386" lon="4.91942">
        <ele>186.2</ele>
        <time>2024-09-19T07:55:24Z</time>
      </trkpt>
      <trkpt lat="46.44387" lon="4.91932">
        <ele>186.8</ele>
        <time>2024-09-19T07:55:25Z</time>
      </trkpt>
      <trkpt lat="46.44388" lon="4.91929">
        <ele>186.8</ele>
        <time>2024-09-19T07:55:26Z</time>
      </trkpt>
      <trkpt lat="46.44389" lon="4.91923">
        <ele>186.8</ele>
        <time>2024-09-19T07:55:27Z</time>
      </trkpt>
      <trkpt lat="46.4439" lon="4.91917">
        <ele>186.8</ele>
        <time>2024-09-19T07:55:28Z</time>
      </trkpt>
      <trkpt lat="46.44392" lon="4.91907">
        <ele>186.8</ele>
        <time>2024-09-19T07:55:29Z</time>
      </trkpt>
      <trkpt lat="46.44393" lon="4.91904">
        <ele>186.4</ele>
        <time>2024-09-19T07:55:30Z</time>
      </trkpt>
      <trkpt lat="46.44394" lon="4.91894">
        <ele>186.4</ele>
        <time>2024-09-19T07:55:31Z</time>
      </trkpt>
      <trkpt lat="46.44395" lon="4.91891">
        <ele>186.4</ele>
        <time>2024-09-19T07:55:32Z</time>
      </trkpt>
      <trkpt lat="46.44395" lon="4.91884">
        <ele>186.6</ele>
        <time>2024-09-19T07:55:33Z</time>
      </trkpt>
      <trkpt lat="46.44396" lon="4.91878">
        <ele>186.6</ele>
        <time>2024-09-19T07:55:34Z</time>
      </trkpt>
      <trkpt lat="46.44397" lon="4.91872">
        <ele>186.6</ele>
        <time>2024-09-19T07:55:35Z</time>
      </trkpt>
      <trkpt lat="46.44398" lon="4.91866">
        <ele>186.6</ele>
        <time>2024-09-19T07:55:36Z</time>
      </trkpt>
      <trkpt lat="46.44399" lon="4.91856">
        <ele>186.6</ele>
        <time>2024-09-19T07:55:37Z</time>
      </trkpt>
      <trkpt lat="46.444" lon="4.91853">
        <ele>186.6</ele>
        <time>2024-09-19T07:55:38Z</time>
      </trkpt>
      <trkpt lat="46.44401" lon="4.91846">
        <ele>186.4</ele>
        <time>2024-09-19T07:55:39Z</time>
      </trkpt>
      <trkpt lat="46.44403" lon="4.91839">
        <ele>186.4</ele>
        <time>2024-09-19T07:55:40Z</time>
      </trkpt>
      <trkpt lat="46.44405" lon="4.91829">
        <ele>186.4</ele>
        <time>2024-09-19T07:55:41Z</time>
      </trkpt>
      <trkpt lat="46.44405" lon="4.91825">
        <ele>186.4</ele>
        <time>2024-09-19T07:55:42Z</time>
      </trkpt>
      <trkpt lat="46.44407" lon="4.91816">
        <ele>186.4</ele>
        <time>2024-09-19T07:55:43Z</time>
      </trkpt>
      <trkpt lat="46.44407" lon="4.91813">
        <ele>186.4</ele>
        <time>2024-09-19T07:55:44Z</time>
      </trkpt>
      <trkpt lat="46.44409" lon="4.91803">
        <ele>186.4</ele>
        <time>2024-09-19T07:55:45Z</time>
      </trkpt>
      <trkpt lat="46.44409" lon="4.918">
        <ele>186.4</ele>
        <time>2024-09-19T07:55:46Z</time>
      </trkpt>
      <trkpt lat="46.4441" lon="4.9179">
        <ele>186.4</ele>
        <time>2024-09-19T07:55:47Z</time>
      </trkpt>
      <trkpt lat="46.4441" lon="4.91787">
        <ele>186</ele>
        <time>2024-09-19T07:55:48Z</time>
      </trkpt>
      <trkpt lat="46.44411" lon="4.91781">
        <ele>186</ele>
        <time>2024-09-19T07:55:49Z</time>
      </trkpt>
      <trkpt lat="46.44412" lon="4.91772">
        <ele>186</ele>
        <time>2024-09-19T07:55:50Z</time>
      </trkpt>
      <trkpt lat="46.44412" lon="4.91769">
        <ele>186</ele>
        <time>2024-09-19T07:55:51Z</time>
      </trkpt>
      <trkpt lat="46.44413" lon="4.91763">
        <ele>186.2</ele>
        <time>2024-09-19T07:55:52Z</time>
      </trkpt>
      <trkpt lat="46.44414" lon="4.91757">
        <ele>186.2</ele>
        <time>2024-09-19T07:55:53Z</time>
      </trkpt>
      <trkpt lat="46.44415" lon="4.91747">
        <ele>186.2</ele>
        <time>2024-09-19T07:55:54Z</time>
      </trkpt>
      <trkpt lat="46.44415" lon="4.91743">
        <ele>186.2</ele>
        <time>2024-09-19T07:55:55Z</time>
      </trkpt>
      <trkpt lat="46.44416" lon="4.91737">
        <ele>186</ele>
        <time>2024-09-19T07:55:56Z</time>
      </trkpt>
      <trkpt lat="46.44417" lon="4.9173">
        <ele>186</ele>
        <time>2024-09-19T07:55:57Z</time>
      </trkpt>
      <trkpt lat="46.44418" lon="4.91721">
        <ele>186</ele>
        <time>2024-09-19T07:55:58Z</time>
      </trkpt>
      <trkpt lat="46.44419" lon="4.91718">
        <ele>186</ele>
        <time>2024-09-19T07:55:59Z</time>
      </trkpt>
      <trkpt lat="46.4442" lon="4.91712">
        <ele>186</ele>
        <time>2024-09-19T07:56:00Z</time>
      </trkpt>
      <trkpt lat="46.44421" lon="4.91705">
        <ele>186</ele>
        <time>2024-09-19T07:56:01Z</time>
      </trkpt>
      <trkpt lat="46.44422" lon="4.91695">
        <ele>185.8</ele>
        <time>2024-09-19T07:56:02Z</time>
      </trkpt>
      <trkpt lat="46.44422" lon="4.91692">
        <ele>185.8</ele>
        <time>2024-09-19T07:56:03Z</time>
      </trkpt>
      <trkpt lat="46.44423" lon="4.91685">
        <ele>185.8</ele>
        <time>2024-09-19T07:56:04Z</time>
      </trkpt>
      <trkpt lat="46.44424" lon="4.91679">
        <ele>186.2</ele>
        <time>2024-09-19T07:56:05Z</time>
      </trkpt>
      <trkpt lat="46.44425" lon="4.91672">
        <ele>186.4</ele>
        <time>2024-09-19T07:56:06Z</time>
      </trkpt>
      <trkpt lat="46.44426" lon="4.91665">
        <ele>186.4</ele>
        <time>2024-09-19T07:56:07Z</time>
      </trkpt>
      <trkpt lat="46.44428" lon="4.91658">
        <ele>186.4</ele>
        <time>2024-09-19T07:56:08Z</time>
      </trkpt>
      <trkpt lat="46.44429" lon="4.91651">
        <ele>186.2</ele>
        <time>2024-09-19T07:56:09Z</time>
      </trkpt>
      <trkpt lat="46.4443" lon="4.91644">
        <ele>186</ele>
        <time>2024-09-19T07:56:10Z</time>
      </trkpt>
      <trkpt lat="46.44431" lon="4.91637">
        <ele>186</ele>
        <time>2024-09-19T07:56:11Z</time>
      </trkpt>
      <trkpt lat="46.44433" lon="4.91627">
        <ele>186</ele>
        <time>2024-09-19T07:56:12Z</time>
      </trkpt>
      <trkpt lat="46.44433" lon="4.91624">
        <ele>186</ele>
        <time>2024-09-19T07:56:13Z</time>
      </trkpt>
      <trkpt lat="46.44435" lon="4.91614">
        <ele>186.4</ele>
        <time>2024-09-19T07:56:14Z</time>
      </trkpt>
      <trkpt lat="46.44436" lon="4.9161">
        <ele>186.4</ele>
        <time>2024-09-19T07:56:15Z</time>
      </trkpt>
      <trkpt lat="46.44437" lon="4.91603">
        <ele>186.4</ele>
        <time>2024-09-19T07:56:16Z</time>
      </trkpt>
      <trkpt lat="46.44438" lon="4.91596">
        <ele>186.4</ele>
        <time>2024-09-19T07:56:17Z</time>
      </trkpt>
      <trkpt lat="46.44439" lon="4.91589">
        <ele>186</ele>
        <time>2024-09-19T07:56:18Z</time>
      </trkpt>
      <trkpt lat="46.44439" lon="4.91582">
        <ele>186</ele>
        <time>2024-09-19T07:56:19Z</time>
      </trkpt>
      <trkpt lat="46.4444" lon="4.91575">
        <ele>186</ele>
        <time>2024-09-19T07:56:20Z</time>
      </trkpt>
      <trkpt lat="46.44441" lon="4.91568">
        <ele>186</ele>
        <time>2024-09-19T07:56:21Z</time>
      </trkpt>
      <trkpt lat="46.44442" lon="4.91561">
        <ele>186</ele>
        <time>2024-09-19T07:56:22Z</time>
      </trkpt>
      <trkpt lat="46.44443" lon="4.91554">
        <ele>186.2</ele>
        <time>2024-09-19T07:56:23Z</time>
      </trkpt>
      <trkpt lat="46.44445" lon="4.91544">
        <ele>186.4</ele>
        <time>2024-09-19T07:56:24Z</time>
      </trkpt>
      <trkpt lat="46.44445" lon="4.9154">
        <ele>186.4</ele>
        <time>2024-09-19T07:56:25Z</time>
      </trkpt>
      <trkpt lat="46.44447" lon="4.9153">
        <ele>186.4</ele>
        <time>2024-09-19T07:56:26Z</time>
      </trkpt>
      <trkpt lat="46.44448" lon="4.91526">
        <ele>186.2</ele>
        <time>2024-09-19T07:56:27Z</time>
      </trkpt>
      <trkpt lat="46.44449" lon="4.91516">
        <ele>186.2</ele>
        <time>2024-09-19T07:56:28Z</time>
      </trkpt>
      <trkpt lat="46.4445" lon="4.91512">
        <ele>186.2</ele>
        <time>2024-09-19T07:56:29Z</time>
      </trkpt>
      <trkpt lat="46.44451" lon="4.91501">
        <ele>186.2</ele>
        <time>2024-09-19T07:56:30Z</time>
      </trkpt>
      <trkpt lat="46.44452" lon="4.91498">
        <ele>186</ele>
        <time>2024-09-19T07:56:31Z</time>
      </trkpt>
      <trkpt lat="46.44453" lon="4.91491">
        <ele>186.2</ele>
        <time>2024-09-19T07:56:32Z</time>
      </trkpt>
      <trkpt lat="46.44454" lon="4.91484">
        <ele>186.2</ele>
        <time>2024-09-19T07:56:33Z</time>
      </trkpt>
      <trkpt lat="46.44455" lon="4.91477">
        <ele>186.2</ele>
        <time>2024-09-19T07:56:34Z</time>
      </trkpt>
      <trkpt lat="46.44456" lon="4.9147">
        <ele>186.2</ele>
        <time>2024-09-19T07:56:35Z</time>
      </trkpt>
      <trkpt lat="46.44457" lon="4.9146">
        <ele>186</ele>
        <time>2024-09-19T07:56:36Z</time>
      </trkpt>
      <trkpt lat="46.44458" lon="4.91457">
        <ele>186</ele>
        <time>2024-09-19T07:56:37Z</time>
      </trkpt>
      <trkpt lat="46.4446" lon="4.91447">
        <ele>186</ele>
        <time>2024-09-19T07:56:38Z</time>
      </trkpt>
      <trkpt lat="46.4446" lon="4.91444">
        <ele>186</ele>
        <time>2024-09-19T07:56:39Z</time>
      </trkpt>
      <trkpt lat="46.44461" lon="4.91437">
        <ele>186</ele>
        <time>2024-09-19T07:56:40Z</time>
      </trkpt>
      <trkpt lat="46.44462" lon="4.91431">
        <ele>186</ele>
        <time>2024-09-19T07:56:41Z</time>
      </trkpt>
      <trkpt lat="46.44463" lon="4.91424">
        <ele>186</ele>
        <time>2024-09-19T07:56:42Z</time>
      </trkpt>
      <trkpt lat="46.44464" lon="4.91418">
        <ele>186</ele>
        <time>2024-09-19T07:56:43Z</time>
      </trkpt>
      <trkpt lat="46.44465" lon="4.91411">
        <ele>186</ele>
        <time>2024-09-19T07:56:44Z</time>
      </trkpt>
      <trkpt lat="46.44466" lon="4.91404">
        <ele>186</ele>
        <time>2024-09-19T07:56:45Z</time>
      </trkpt>
      <trkpt lat="46.44468" lon="4.91395">
        <ele>186</ele>
        <time>2024-09-19T07:56:46Z</time>
      </trkpt>
      <trkpt lat="46.44468" lon="4.91391">
        <ele>185.6</ele>
        <time>2024-09-19T07:56:47Z</time>
      </trkpt>
      <trkpt lat="46.4447" lon="4.91382">
        <ele>185.6</ele>
        <time>2024-09-19T07:56:48Z</time>
      </trkpt>
      <trkpt lat="46.44471" lon="4.91378">
        <ele>185.6</ele>
        <time>2024-09-19T07:56:49Z</time>
      </trkpt>
      <trkpt lat="46.44471" lon="4.91372">
        <ele>186.2</ele>
        <time>2024-09-19T07:56:50Z</time>
      </trkpt>
      <trkpt lat="46.44472" lon="4.91365">
        <ele>186</ele>
        <time>2024-09-19T07:56:51Z</time>
      </trkpt>
      <trkpt lat="46.44473" lon="4.91359">
        <ele>186</ele>
        <time>2024-09-19T07:56:52Z</time>
      </trkpt>
      <trkpt lat="46.44474" lon="4.91352">
        <ele>186</ele>
        <time>2024-09-19T07:56:53Z</time>
      </trkpt>
      <trkpt lat="46.44476" lon="4.91342">
        <ele>186</ele>
        <time>2024-09-19T07:56:54Z</time>
      </trkpt>
      <trkpt lat="46.44476" lon="4.91338">
        <ele>186</ele>
        <time>2024-09-19T07:56:55Z</time>
      </trkpt>
      <trkpt lat="46.44477" lon="4.91328">
        <ele>186</ele>
        <time>2024-09-19T07:56:56Z</time>
      </trkpt>
      <trkpt lat="46.44478" lon="4.91325">
        <ele>186</ele>
        <time>2024-09-19T07:56:57Z</time>
      </trkpt>
      <trkpt lat="46.44479" lon="4.91318">
        <ele>186</ele>
        <time>2024-09-19T07:56:58Z</time>
      </trkpt>
      <trkpt lat="46.4448" lon="4.91311">
        <ele>186</ele>
        <time>2024-09-19T07:56:59Z</time>
      </trkpt>
      <trkpt lat="46.44481" lon="4.91305">
        <ele>186</ele>
        <time>2024-09-19T07:57:00Z</time>
      </trkpt>
      <trkpt lat="46.44482" lon="4.91298">
        <ele>186</ele>
        <time>2024-09-19T07:57:01Z</time>
      </trkpt>
      <trkpt lat="46.44483" lon="4.91291">
        <ele>186</ele>
        <time>2024-09-19T07:57:02Z</time>
      </trkpt>
      <trkpt lat="46.44484" lon="4.91284">
        <ele>186</ele>
        <time>2024-09-19T07:57:03Z</time>
      </trkpt>
      <trkpt lat="46.44485" lon="4.91277">
        <ele>186</ele>
        <time>2024-09-19T07:57:04Z</time>
      </trkpt>
      <trkpt lat="46.44486" lon="4.91271">
        <ele>186</ele>
        <time>2024-09-19T07:57:05Z</time>
      </trkpt>
      <trkpt lat="46.44488" lon="4.91261">
        <ele>186</ele>
        <time>2024-09-19T07:57:06Z</time>
      </trkpt>
      <trkpt lat="46.44488" lon="4.91258">
        <ele>186</ele>
        <time>2024-09-19T07:57:07Z</time>
      </trkpt>
      <trkpt lat="46.4449" lon="4.91248">
        <ele>186.2</ele>
        <time>2024-09-19T07:57:08Z</time>
      </trkpt>
      <trkpt lat="46.4449" lon="4.91245">
        <ele>186.2</ele>
        <time>2024-09-19T07:57:09Z</time>
      </trkpt>
      <trkpt lat="46.44491" lon="4.91234">
        <ele>186.2</ele>
        <time>2024-09-19T07:57:10Z</time>
      </trkpt>
      <trkpt lat="46.44492" lon="4.91231">
        <ele>186.2</ele>
        <time>2024-09-19T07:57:11Z</time>
      </trkpt>
      <trkpt lat="46.44493" lon="4.91221">
        <ele>185.4</ele>
        <time>2024-09-19T07:57:12Z</time>
      </trkpt>
      <trkpt lat="46.44494" lon="4.91217">
        <ele>186</ele>
        <time>2024-09-19T07:57:13Z</time>
      </trkpt>
      <trkpt lat="46.44495" lon="4.91211">
        <ele>186</ele>
        <time>2024-09-19T07:57:14Z</time>
      </trkpt>
      <trkpt lat="46.44497" lon="4.91204">
        <ele>186</ele>
        <time>2024-09-19T07:57:15Z</time>
      </trkpt>
      <trkpt lat="46.44498" lon="4.91197">
        <ele>186</ele>
        <time>2024-09-19T07:57:16Z</time>
      </trkpt>
      <trkpt lat="46.44498" lon="4.91191">
        <ele>186</ele>
        <time>2024-09-19T07:57:17Z</time>
      </trkpt>
      <trkpt lat="46.44499" lon="4.91184">
        <ele>185.8</ele>
        <time>2024-09-19T07:57:18Z</time>
      </trkpt>
      <trkpt lat="46.44501" lon="4.91178">
        <ele>185.8</ele>
        <time>2024-09-19T07:57:19Z</time>
      </trkpt>
      <trkpt lat="46.44502" lon="4.91168">
        <ele>185.8</ele>
        <time>2024-09-19T07:57:20Z</time>
      </trkpt>
      <trkpt lat="46.44502" lon="4.91165">
        <ele>185.8</ele>
        <time>2024-09-19T07:57:21Z</time>
      </trkpt>
      <trkpt lat="46.44504" lon="4.91154">
        <ele>186.2</ele>
        <time>2024-09-19T07:57:22Z</time>
      </trkpt>
      <trkpt lat="46.44504" lon="4.91151">
        <ele>186.2</ele>
        <time>2024-09-19T07:57:23Z</time>
      </trkpt>
      <trkpt lat="46.44505" lon="4.91144">
        <ele>186.2</ele>
        <time>2024-09-19T07:57:24Z</time>
      </trkpt>
      <trkpt lat="46.44506" lon="4.91138">
        <ele>186.2</ele>
        <time>2024-09-19T07:57:25Z</time>
      </trkpt>
      <trkpt lat="46.44508" lon="4.91127">
        <ele>186.2</ele>
        <time>2024-09-19T07:57:26Z</time>
      </trkpt>
      <trkpt lat="46.44509" lon="4.91124">
        <ele>186</ele>
        <time>2024-09-19T07:57:27Z</time>
      </trkpt>
      <trkpt lat="46.44511" lon="4.91115">
        <ele>186</ele>
        <time>2024-09-19T07:57:28Z</time>
      </trkpt>
      <trkpt lat="46.44511" lon="4.91112">
        <ele>186</ele>
        <time>2024-09-19T07:57:29Z</time>
      </trkpt>
      <trkpt lat="46.44513" lon="4.91101">
        <ele>186</ele>
        <time>2024-09-19T07:57:30Z</time>
      </trkpt>
      <trkpt lat="46.44514" lon="4.91098">
        <ele>186</ele>
        <time>2024-09-19T07:57:31Z</time>
      </trkpt>
      <trkpt lat="46.44516" lon="4.91087">
        <ele>185.6</ele>
        <time>2024-09-19T07:57:32Z</time>
      </trkpt>
      <trkpt lat="46.44516" lon="4.91084">
        <ele>185.6</ele>
        <time>2024-09-19T07:57:33Z</time>
      </trkpt>
      <trkpt lat="46.44517" lon="4.91077">
        <ele>185.6</ele>
        <time>2024-09-19T07:57:34Z</time>
      </trkpt>
      <trkpt lat="46.44518" lon="4.9107">
        <ele>185.6</ele>
        <time>2024-09-19T07:57:35Z</time>
      </trkpt>
      <trkpt lat="46.4452" lon="4.9106">
        <ele>185.4</ele>
        <time>2024-09-19T07:57:36Z</time>
      </trkpt>
      <trkpt lat="46.4452" lon="4.91056">
        <ele>185.4</ele>
        <time>2024-09-19T07:57:37Z</time>
      </trkpt>
      <trkpt lat="46.44522" lon="4.91046">
        <ele>185.4</ele>
        <time>2024-09-19T07:57:38Z</time>
      </trkpt>
      <trkpt lat="46.44523" lon="4.91043">
        <ele>185.4</ele>
        <time>2024-09-19T07:57:39Z</time>
      </trkpt>
      <trkpt lat="46.44523" lon="4.91033">
        <ele>185.8</ele>
        <time>2024-09-19T07:57:40Z</time>
      </trkpt>
      <trkpt lat="46.44523" lon="4.9103">
        <ele>185.8</ele>
        <time>2024-09-19T07:57:41Z</time>
      </trkpt>
      <trkpt lat="46.44524" lon="4.91024">
        <ele>185.8</ele>
        <time>2024-09-19T07:57:42Z</time>
      </trkpt>
      <trkpt lat="46.44525" lon="4.91017">
        <ele>185.8</ele>
        <time>2024-09-19T07:57:43Z</time>
      </trkpt>
      <trkpt lat="46.44525" lon="4.91011">
        <ele>185.8</ele>
        <time>2024-09-19T07:57:44Z</time>
      </trkpt>
      <trkpt lat="46.44526" lon="4.91005">
        <ele>185.8</ele>
        <time>2024-09-19T07:57:45Z</time>
      </trkpt>
      <trkpt lat="46.44527" lon="4.90999">
        <ele>185.8</ele>
        <time>2024-09-19T07:57:46Z</time>
      </trkpt>
      <trkpt lat="46.44529" lon="4.90992">
        <ele>185.8</ele>
        <time>2024-09-19T07:57:47Z</time>
      </trkpt>
      <trkpt lat="46.4453" lon="4.90982">
        <ele>185.8</ele>
        <time>2024-09-19T07:57:48Z</time>
      </trkpt>
      <trkpt lat="46.4453" lon="4.90979">
        <ele>186</ele>
        <time>2024-09-19T07:57:49Z</time>
      </trkpt>
      <trkpt lat="46.44532" lon="4.90969">
        <ele>186</ele>
        <time>2024-09-19T07:57:50Z</time>
      </trkpt>
      <trkpt lat="46.44532" lon="4.90966">
        <ele>186</ele>
        <time>2024-09-19T07:57:51Z</time>
      </trkpt>
      <trkpt lat="46.44533" lon="4.9096">
        <ele>186</ele>
        <time>2024-09-19T07:57:52Z</time>
      </trkpt>
      <trkpt lat="46.44535" lon="4.90954">
        <ele>186</ele>
        <time>2024-09-19T07:57:53Z</time>
      </trkpt>
      <trkpt lat="46.44536" lon="4.90944">
        <ele>186</ele>
        <time>2024-09-19T07:57:54Z</time>
      </trkpt>
      <trkpt lat="46.44536" lon="4.90941">
        <ele>186</ele>
        <time>2024-09-19T07:57:55Z</time>
      </trkpt>
      <trkpt lat="46.44538" lon="4.90931">
        <ele>185.8</ele>
        <time>2024-09-19T07:57:56Z</time>
      </trkpt>
      <trkpt lat="46.44538" lon="4.90928">
        <ele>185.8</ele>
        <time>2024-09-19T07:57:57Z</time>
      </trkpt>
      <trkpt lat="46.44539" lon="4.90921">
        <ele>185.8</ele>
        <time>2024-09-19T07:57:58Z</time>
      </trkpt>
      <trkpt lat="46.4454" lon="4.90914">
        <ele>185.8</ele>
        <time>2024-09-19T07:57:59Z</time>
      </trkpt>
      <trkpt lat="46.44541" lon="4.90908">
        <ele>185.8</ele>
        <time>2024-09-19T07:58:00Z</time>
      </trkpt>
      <trkpt lat="46.44542" lon="4.90901">
        <ele>185.8</ele>
        <time>2024-09-19T07:58:01Z</time>
      </trkpt>
      <trkpt lat="46.44544" lon="4.90891">
        <ele>185.4</ele>
        <time>2024-09-19T07:58:02Z</time>
      </trkpt>
      <trkpt lat="46.44545" lon="4.90887">
        <ele>185.4</ele>
        <time>2024-09-19T07:58:03Z</time>
      </trkpt>
      <trkpt lat="46.44546" lon="4.90877">
        <ele>185.4</ele>
        <time>2024-09-19T07:58:04Z</time>
      </trkpt>
      <trkpt lat="46.44546" lon="4.90874">
        <ele>185.4</ele>
        <time>2024-09-19T07:58:05Z</time>
      </trkpt>
      <trkpt lat="46.44547" lon="4.90867">
        <ele>185.4</ele>
        <time>2024-09-19T07:58:06Z</time>
      </trkpt>
      <trkpt lat="46.44549" lon="4.90857">
        <ele>185.4</ele>
        <time>2024-09-19T07:58:07Z</time>
      </trkpt>
      <trkpt lat="46.44549" lon="4.90853">
        <ele>185.4</ele>
        <time>2024-09-19T07:58:08Z</time>
      </trkpt>
      <trkpt lat="46.4455" lon="4.90847">
        <ele>185.4</ele>
        <time>2024-09-19T07:58:09Z</time>
      </trkpt>
      <trkpt lat="46.44551" lon="4.9084">
        <ele>185.4</ele>
        <time>2024-09-19T07:58:10Z</time>
      </trkpt>
      <trkpt lat="46.44552" lon="4.90833">
        <ele>185.4</ele>
        <time>2024-09-19T07:58:11Z</time>
      </trkpt>
      <trkpt lat="46.44554" lon="4.90826">
        <ele>185.4</ele>
        <time>2024-09-19T07:58:12Z</time>
      </trkpt>
      <trkpt lat="46.44555" lon="4.9082">
        <ele>185.4</ele>
        <time>2024-09-19T07:58:13Z</time>
      </trkpt>
      <trkpt lat="46.44556" lon="4.90813">
        <ele>185.4</ele>
        <time>2024-09-19T07:58:14Z</time>
      </trkpt>
      <trkpt lat="46.44557" lon="4.90806">
        <ele>185.6</ele>
        <time>2024-09-19T07:58:15Z</time>
      </trkpt>
      <trkpt lat="46.44558" lon="4.90799">
        <ele>185.6</ele>
        <time>2024-09-19T07:58:16Z</time>
      </trkpt>
      <trkpt lat="46.44559" lon="4.90793">
        <ele>185.6</ele>
        <time>2024-09-19T07:58:17Z</time>
      </trkpt>
      <trkpt lat="46.4456" lon="4.90786">
        <ele>185.6</ele>
        <time>2024-09-19T07:58:18Z</time>
      </trkpt>
      <trkpt lat="46.44561" lon="4.90779">
        <ele>185.6</ele>
        <time>2024-09-19T07:58:19Z</time>
      </trkpt>
      <trkpt lat="46.44562" lon="4.90769">
        <ele>185.4</ele>
        <time>2024-09-19T07:58:20Z</time>
      </trkpt>
      <trkpt lat="46.44563" lon="4.90765">
        <ele>185.6</ele>
        <time>2024-09-19T07:58:21Z</time>
      </trkpt>
      <trkpt lat="46.44565" lon="4.90755">
        <ele>185.6</ele>
        <time>2024-09-19T07:58:22Z</time>
      </trkpt>
      <trkpt lat="46.44565" lon="4.90752">
        <ele>185.6</ele>
        <time>2024-09-19T07:58:23Z</time>
      </trkpt>
      <trkpt lat="46.44566" lon="4.90745">
        <ele>185.4</ele>
        <time>2024-09-19T07:58:24Z</time>
      </trkpt>
      <trkpt lat="46.44567" lon="4.90738">
        <ele>185.4</ele>
        <time>2024-09-19T07:58:25Z</time>
      </trkpt>
      <trkpt lat="46.44569" lon="4.90728">
        <ele>185.4</ele>
        <time>2024-09-19T07:58:26Z</time>
      </trkpt>
      <trkpt lat="46.44569" lon="4.90725">
        <ele>185.4</ele>
        <time>2024-09-19T07:58:27Z</time>
      </trkpt>
      <trkpt lat="46.4457" lon="4.90718">
        <ele>185.6</ele>
        <time>2024-09-19T07:58:28Z</time>
      </trkpt>
      <trkpt lat="46.44571" lon="4.90712">
        <ele>185.6</ele>
        <time>2024-09-19T07:58:29Z</time>
      </trkpt>
      <trkpt lat="46.44572" lon="4.90705">
        <ele>185.6</ele>
        <time>2024-09-19T07:58:30Z</time>
      </trkpt>
      <trkpt lat="46.44572" lon="4.90699">
        <ele>185.6</ele>
        <time>2024-09-19T07:58:31Z</time>
      </trkpt>
      <trkpt lat="46.44574" lon="4.90691">
        <ele>185.6</ele>
        <time>2024-09-19T07:58:32Z</time>
      </trkpt>
      <trkpt lat="46.44575" lon="4.90689">
        <ele>185.8</ele>
        <time>2024-09-19T07:58:33Z</time>
      </trkpt>
      <trkpt lat="46.44576" lon="4.90681">
        <ele>185.8</ele>
        <time>2024-09-19T07:58:34Z</time>
      </trkpt>
      <trkpt lat="46.44577" lon="4.90678">
        <ele>185.8</ele>
        <time>2024-09-19T07:58:35Z</time>
      </trkpt>
      <trkpt lat="46.44579" lon="4.90669">
        <ele>185.8</ele>
        <time>2024-09-19T07:58:36Z</time>
      </trkpt>
      <trkpt lat="46.44579" lon="4.90666">
        <ele>185.6</ele>
        <time>2024-09-19T07:58:37Z</time>
      </trkpt>
      <trkpt lat="46.44581" lon="4.90657">
        <ele>185.4</ele>
        <time>2024-09-19T07:58:38Z</time>
      </trkpt>
      <trkpt lat="46.44581" lon="4.90654">
        <ele>185.4</ele>
        <time>2024-09-19T07:58:39Z</time>
      </trkpt>
      <trkpt lat="46.44582" lon="4.90647">
        <ele>185.4</ele>
        <time>2024-09-19T07:58:40Z</time>
      </trkpt>
      <trkpt lat="46.44584" lon="4.90637">
        <ele>185.4</ele>
        <time>2024-09-19T07:58:41Z</time>
      </trkpt>
      <trkpt lat="46.44584" lon="4.90634">
        <ele>185.4</ele>
        <time>2024-09-19T07:58:42Z</time>
      </trkpt>
      <trkpt lat="46.44585" lon="4.90628">
        <ele>185.6</ele>
        <time>2024-09-19T07:58:43Z</time>
      </trkpt>
      <trkpt lat="46.44586" lon="4.90618">
        <ele>185.6</ele>
        <time>2024-09-19T07:58:44Z</time>
      </trkpt>
      <trkpt lat="46.44587" lon="4.90615">
        <ele>185.6</ele>
        <time>2024-09-19T07:58:45Z</time>
      </trkpt>
      <trkpt lat="46.44589" lon="4.90605">
        <ele>185.6</ele>
        <time>2024-09-19T07:58:46Z</time>
      </trkpt>
      <trkpt lat="46.44589" lon="4.90602">
        <ele>185.6</ele>
        <time>2024-09-19T07:58:47Z</time>
      </trkpt>
      <trkpt lat="46.4459" lon="4.90596">
        <ele>185.8</ele>
        <time>2024-09-19T07:58:48Z</time>
      </trkpt>
      <trkpt lat="46.44591" lon="4.9059">
        <ele>185.8</ele>
        <time>2024-09-19T07:58:49Z</time>
      </trkpt>
      <trkpt lat="46.44592" lon="4.90584">
        <ele>185.8</ele>
        <time>2024-09-19T07:58:50Z</time>
      </trkpt>
      <trkpt lat="46.44593" lon="4.90577">
        <ele>185.8</ele>
        <time>2024-09-19T07:58:51Z</time>
      </trkpt>
      <trkpt lat="46.44594" lon="4.90571">
        <ele>185.6</ele>
        <time>2024-09-19T07:58:52Z</time>
      </trkpt>
      <trkpt lat="46.44594" lon="4.90565">
        <ele>185.6</ele>
        <time>2024-09-19T07:58:53Z</time>
      </trkpt>
      <trkpt lat="46.44596" lon="4.90559">
        <ele>185.6</ele>
        <time>2024-09-19T07:58:54Z</time>
      </trkpt>
      <trkpt lat="46.44597" lon="4.90553">
        <ele>185.6</ele>
        <time>2024-09-19T07:58:55Z</time>
      </trkpt>
      <trkpt lat="46.44598" lon="4.90547">
        <ele>186</ele>
        <time>2024-09-19T07:58:56Z</time>
      </trkpt>
      <trkpt lat="46.44598" lon="4.90541">
        <ele>186.2</ele>
        <time>2024-09-19T07:58:57Z</time>
      </trkpt>
      <trkpt lat="46.44599" lon="4.90535">
        <ele>186.2</ele>
        <time>2024-09-19T07:58:58Z</time>
      </trkpt>
      <trkpt lat="46.44601" lon="4.90529">
        <ele>186.2</ele>
        <time>2024-09-19T07:58:59Z</time>
      </trkpt>
      <trkpt lat="46.44602" lon="4.90522">
        <ele>186</ele>
        <time>2024-09-19T07:59:00Z</time>
      </trkpt>
      <trkpt lat="46.44603" lon="4.90516">
        <ele>186</ele>
        <time>2024-09-19T07:59:01Z</time>
      </trkpt>
      <trkpt lat="46.44604" lon="4.90506">
        <ele>185.8</ele>
        <time>2024-09-19T07:59:02Z</time>
      </trkpt>
      <trkpt lat="46.44605" lon="4.90503">
        <ele>185.8</ele>
        <time>2024-09-19T07:59:03Z</time>
      </trkpt>
      <trkpt lat="46.44606" lon="4.90496">
        <ele>185.8</ele>
        <time>2024-09-19T07:59:04Z</time>
      </trkpt>
      <trkpt lat="46.44607" lon="4.9049">
        <ele>185.8</ele>
        <time>2024-09-19T07:59:05Z</time>
      </trkpt>
      <trkpt lat="46.44608" lon="4.90483">
        <ele>185.8</ele>
        <time>2024-09-19T07:59:06Z</time>
      </trkpt>
      <trkpt lat="46.44609" lon="4.90477">
        <ele>185.8</ele>
        <time>2024-09-19T07:59:07Z</time>
      </trkpt>
      <trkpt lat="46.4461" lon="4.90471">
        <ele>185.8</ele>
        <time>2024-09-19T07:59:08Z</time>
      </trkpt>
      <trkpt lat="46.44611" lon="4.90464">
        <ele>186</ele>
        <time>2024-09-19T07:59:09Z</time>
      </trkpt>
      <trkpt lat="46.44612" lon="4.90458">
        <ele>186</ele>
        <time>2024-09-19T07:59:10Z</time>
      </trkpt>
      <trkpt lat="46.44613" lon="4.90451">
        <ele>186</ele>
        <time>2024-09-19T07:59:11Z</time>
      </trkpt>
      <trkpt lat="46.44614" lon="4.90445">
        <ele>186</ele>
        <time>2024-09-19T07:59:12Z</time>
      </trkpt>
      <trkpt lat="46.44615" lon="4.90439">
        <ele>186.2</ele>
        <time>2024-09-19T07:59:13Z</time>
      </trkpt>
      <trkpt lat="46.44616" lon="4.9043">
        <ele>186.2</ele>
        <time>2024-09-19T07:59:14Z</time>
      </trkpt>
      <trkpt lat="46.44616" lon="4.90427">
        <ele>186</ele>
        <time>2024-09-19T07:59:15Z</time>
      </trkpt>
      <trkpt lat="46.44617" lon="4.90418">
        <ele>186</ele>
        <time>2024-09-19T07:59:16Z</time>
      </trkpt>
      <trkpt lat="46.44617" lon="4.90414">
        <ele>186</ele>
        <time>2024-09-19T07:59:17Z</time>
      </trkpt>
      <trkpt lat="46.44618" lon="4.90408">
        <ele>185.8</ele>
        <time>2024-09-19T07:59:18Z</time>
      </trkpt>
      <trkpt lat="46.44619" lon="4.90401">
        <ele>186.4</ele>
        <time>2024-09-19T07:59:19Z</time>
      </trkpt>
      <trkpt lat="46.44621" lon="4.90391">
        <ele>186.4</ele>
        <time>2024-09-19T07:59:20Z</time>
      </trkpt>
      <trkpt lat="46.44621" lon="4.90387">
        <ele>186.4</ele>
        <time>2024-09-19T07:59:21Z</time>
      </trkpt>
      <trkpt lat="46.44622" lon="4.90381">
        <ele>186.2</ele>
        <time>2024-09-19T07:59:22Z</time>
      </trkpt>
      <trkpt lat="46.44623" lon="4.90374">
        <ele>186.2</ele>
        <time>2024-09-19T07:59:23Z</time>
      </trkpt>
      <trkpt lat="46.44624" lon="4.90367">
        <ele>186.2</ele>
        <time>2024-09-19T07:59:24Z</time>
      </trkpt>
      <trkpt lat="46.44625" lon="4.90361">
        <ele>186.2</ele>
        <time>2024-09-19T07:59:25Z</time>
      </trkpt>
      <trkpt lat="46.44626" lon="4.90354">
        <ele>186.2</ele>
        <time>2024-09-19T07:59:26Z</time>
      </trkpt>
      <trkpt lat="46.44627" lon="4.90348">
        <ele>186.2</ele>
        <time>2024-09-19T07:59:27Z</time>
      </trkpt>
      <trkpt lat="46.44628" lon="4.90338">
        <ele>186</ele>
        <time>2024-09-19T07:59:28Z</time>
      </trkpt>
      <trkpt lat="46.44629" lon="4.90335">
        <ele>186</ele>
        <time>2024-09-19T07:59:29Z</time>
      </trkpt>
      <trkpt lat="46.4463" lon="4.90325">
        <ele>186</ele>
        <time>2024-09-19T07:59:30Z</time>
      </trkpt>
      <trkpt lat="46.44631" lon="4.90322">
        <ele>186</ele>
        <time>2024-09-19T07:59:31Z</time>
      </trkpt>
      <trkpt lat="46.44632" lon="4.90315">
        <ele>186.2</ele>
        <time>2024-09-19T07:59:32Z</time>
      </trkpt>
      <trkpt lat="46.44633" lon="4.90309">
        <ele>186.2</ele>
        <time>2024-09-19T07:59:33Z</time>
      </trkpt>
      <trkpt lat="46.44634" lon="4.90302">
        <ele>186.2</ele>
        <time>2024-09-19T07:59:34Z</time>
      </trkpt>
      <trkpt lat="46.44635" lon="4.90295">
        <ele>186.2</ele>
        <time>2024-09-19T07:59:35Z</time>
      </trkpt>
      <trkpt lat="46.44636" lon="4.90289">
        <ele>186.2</ele>
        <time>2024-09-19T07:59:36Z</time>
      </trkpt>
      <trkpt lat="46.44637" lon="4.90282">
        <ele>186.2</ele>
        <time>2024-09-19T07:59:37Z</time>
      </trkpt>
      <trkpt lat="46.44638" lon="4.90271">
        <ele>186.2</ele>
        <time>2024-09-19T07:59:38Z</time>
      </trkpt>
      <trkpt lat="46.44639" lon="4.90268">
        <ele>186.2</ele>
        <time>2024-09-19T07:59:39Z</time>
      </trkpt>
      <trkpt lat="46.4464" lon="4.90261">
        <ele>186.2</ele>
        <time>2024-09-19T07:59:40Z</time>
      </trkpt>
      <trkpt lat="46.44641" lon="4.90254">
        <ele>186.2</ele>
        <time>2024-09-19T07:59:41Z</time>
      </trkpt>
      <trkpt lat="46.44643" lon="4.90244">
        <ele>186</ele>
        <time>2024-09-19T07:59:42Z</time>
      </trkpt>
      <trkpt lat="46.44643" lon="4.9024">
        <ele>186</ele>
        <time>2024-09-19T07:59:43Z</time>
      </trkpt>
      <trkpt lat="46.44645" lon="4.90233">
        <ele>186</ele>
        <time>2024-09-19T07:59:44Z</time>
      </trkpt>
      <trkpt lat="46.44646" lon="4.90226">
        <ele>186</ele>
        <time>2024-09-19T07:59:45Z</time>
      </trkpt>
      <trkpt lat="46.44648" lon="4.90216">
        <ele>186</ele>
        <time>2024-09-19T07:59:46Z</time>
      </trkpt>
      <trkpt lat="46.44648" lon="4.90212">
        <ele>186</ele>
        <time>2024-09-19T07:59:47Z</time>
      </trkpt>
      <trkpt lat="46.4465" lon="4.90202">
        <ele>186</ele>
        <time>2024-09-19T07:59:48Z</time>
      </trkpt>
      <trkpt lat="46.44651" lon="4.90199">
        <ele>186</ele>
        <time>2024-09-19T07:59:49Z</time>
      </trkpt>
      <trkpt lat="46.44652" lon="4.90192">
        <ele>185.8</ele>
        <time>2024-09-19T07:59:50Z</time>
      </trkpt>
      <trkpt lat="46.44653" lon="4.90185">
        <ele>185.8</ele>
        <time>2024-09-19T07:59:51Z</time>
      </trkpt>
      <trkpt lat="46.44654" lon="4.90179">
        <ele>185.8</ele>
        <time>2024-09-19T07:59:52Z</time>
      </trkpt>
      <trkpt lat="46.44655" lon="4.90172">
        <ele>185.8</ele>
        <time>2024-09-19T07:59:53Z</time>
      </trkpt>
      <trkpt lat="46.44655" lon="4.90165">
        <ele>185.8</ele>
        <time>2024-09-19T07:59:54Z</time>
      </trkpt>
      <trkpt lat="46.44656" lon="4.90158">
        <ele>185.2</ele>
        <time>2024-09-19T07:59:55Z</time>
      </trkpt>
      <trkpt lat="46.44657" lon="4.90152">
        <ele>185.2</ele>
        <time>2024-09-19T07:59:56Z</time>
      </trkpt>
      <trkpt lat="46.44658" lon="4.90145">
        <ele>185.2</ele>
        <time>2024-09-19T07:59:57Z</time>
      </trkpt>
      <trkpt lat="46.4466" lon="4.90135">
        <ele>185.2</ele>
        <time>2024-09-19T07:59:58Z</time>
      </trkpt>
      <trkpt lat="46.4466" lon="4.90131">
        <ele>185.8</ele>
        <time>2024-09-19T07:59:59Z</time>
      </trkpt>
      <trkpt lat="46.44662" lon="4.90121">
        <ele>185.8</ele>
        <time>2024-09-19T08:00:00Z</time>
      </trkpt>
      <trkpt lat="46.44663" lon="4.90118">
        <ele>185.8</ele>
        <time>2024-09-19T08:00:01Z</time>
      </trkpt>
      <trkpt lat="46.44664" lon="4.90108">
        <ele>185.8</ele>
        <time>2024-09-19T08:00:02Z</time>
      </trkpt>
      <trkpt lat="46.44665" lon="4.90105">
        <ele>185.8</ele>
        <time>2024-09-19T08:00:03Z</time>
      </trkpt>
      <trkpt lat="46.44666" lon="4.90095">
        <ele>186</ele>
        <time>2024-09-19T08:00:04Z</time>
      </trkpt>
      <trkpt lat="46.44667" lon="4.90092">
        <ele>186</ele>
        <time>2024-09-19T08:00:05Z</time>
      </trkpt>
      <trkpt lat="46.44668" lon="4.90086">
        <ele>186</ele>
        <time>2024-09-19T08:00:06Z</time>
      </trkpt>
      <trkpt lat="46.44669" lon="4.9008">
        <ele>185.6</ele>
        <time>2024-09-19T08:00:07Z</time>
      </trkpt>
      <trkpt lat="46.4467" lon="4.90074">
        <ele>186</ele>
        <time>2024-09-19T08:00:08Z</time>
      </trkpt>
      <trkpt lat="46.4467" lon="4.90067">
        <ele>186</ele>
        <time>2024-09-19T08:00:09Z</time>
      </trkpt>
      <trkpt lat="46.44671" lon="4.90061">
        <ele>186</ele>
        <time>2024-09-19T08:00:10Z</time>
      </trkpt>
      <trkpt lat="46.44672" lon="4.90055">
        <ele>186</ele>
        <time>2024-09-19T08:00:11Z</time>
      </trkpt>
      <trkpt lat="46.44674" lon="4.90046">
        <ele>186</ele>
        <time>2024-09-19T08:00:12Z</time>
      </trkpt>
      <trkpt lat="46.44675" lon="4.90043">
        <ele>186</ele>
        <time>2024-09-19T08:00:13Z</time>
      </trkpt>
      <trkpt lat="46.44676" lon="4.90037">
        <ele>186</ele>
        <time>2024-09-19T08:00:14Z</time>
      </trkpt>
      <trkpt lat="46.44678" lon="4.90027">
        <ele>186</ele>
        <time>2024-09-19T08:00:15Z</time>
      </trkpt>
      <trkpt lat="46.44678" lon="4.90024">
        <ele>185.6</ele>
        <time>2024-09-19T08:00:16Z</time>
      </trkpt>
      <trkpt lat="46.4468" lon="4.90015">
        <ele>185.6</ele>
        <time>2024-09-19T08:00:17Z</time>
      </trkpt>
      <trkpt lat="46.4468" lon="4.90012">
        <ele>185.6</ele>
        <time>2024-09-19T08:00:18Z</time>
      </trkpt>
      <trkpt lat="46.44681" lon="4.90003">
        <ele>185.6</ele>
        <time>2024-09-19T08:00:19Z</time>
      </trkpt>
      <trkpt lat="46.44682" lon="4.9">
        <ele>185.6</ele>
        <time>2024-09-19T08:00:20Z</time>
      </trkpt>
      <trkpt lat="46.44684" lon="4.89991">
        <ele>185.8</ele>
        <time>2024-09-19T08:00:21Z</time>
      </trkpt>
      <trkpt lat="46.44684" lon="4.89987">
        <ele>185.8</ele>
        <time>2024-09-19T08:00:22Z</time>
      </trkpt>
      <trkpt lat="46.44685" lon="4.89981">
        <ele>185.8</ele>
        <time>2024-09-19T08:00:23Z</time>
      </trkpt>
      <trkpt lat="46.44685" lon="4.89975">
        <ele>185.8</ele>
        <time>2024-09-19T08:00:24Z</time>
      </trkpt>
      <trkpt lat="46.44686" lon="4.89969">
        <ele>185.8</ele>
        <time>2024-09-19T08:00:25Z</time>
      </trkpt>
      <trkpt lat="46.44687" lon="4.89963">
        <ele>185.8</ele>
        <time>2024-09-19T08:00:26Z</time>
      </trkpt>
      <trkpt lat="46.44688" lon="4.89957">
        <ele>185.6</ele>
        <time>2024-09-19T08:00:27Z</time>
      </trkpt>
      <trkpt lat="46.44689" lon="4.89951">
        <ele>185.6</ele>
        <time>2024-09-19T08:00:28Z</time>
      </trkpt>
      <trkpt lat="46.4469" lon="4.89942">
        <ele>185.6</ele>
        <time>2024-09-19T08:00:29Z</time>
      </trkpt>
      <trkpt lat="46.4469" lon="4.89939">
        <ele>186</ele>
        <time>2024-09-19T08:00:30Z</time>
      </trkpt>
      <trkpt lat="46.44691" lon="4.89931">
        <ele>185.8</ele>
        <time>2024-09-19T08:00:31Z</time>
      </trkpt>
      <trkpt lat="46.44691" lon="4.89929">
        <ele>185.8</ele>
        <time>2024-09-19T08:00:32Z</time>
      </trkpt>
      <trkpt lat="46.44692" lon="4.89923">
        <ele>185.8</ele>
        <time>2024-09-19T08:00:33Z</time>
      </trkpt>
      <trkpt lat="46.44693" lon="4.89918">
        <ele>186</ele>
        <time>2024-09-19T08:00:34Z</time>
      </trkpt>
      <trkpt lat="46.44694" lon="4.89913">
        <ele>186.4</ele>
        <time>2024-09-19T08:00:35Z</time>
      </trkpt>
      <trkpt lat="46.44695" lon="4.89909">
        <ele>186.4</ele>
        <time>2024-09-19T08:00:36Z</time>
      </trkpt>
      <trkpt lat="46.44696" lon="4.89904">
        <ele>186.4</ele>
        <time>2024-09-19T08:00:37Z</time>
      </trkpt>
      <trkpt lat="46.44698" lon="4.89901">
        <ele>186.4</ele>
        <time>2024-09-19T08:00:38Z</time>
      </trkpt>
      <trkpt lat="46.447" lon="4.89898">
        <ele>186.4</ele>
        <time>2024-09-19T08:00:39Z</time>
      </trkpt>
      <trkpt lat="46.44702" lon="4.89896">
        <ele>186.4</ele>
        <time>2024-09-19T08:00:40Z</time>
      </trkpt>
      <trkpt lat="46.44707" lon="4.89895">
        <ele>186.4</ele>
        <time>2024-09-19T08:00:41Z</time>
      </trkpt>
      <trkpt lat="46.44708" lon="4.89894">
        <ele>186.4</ele>
        <time>2024-09-19T08:00:42Z</time>
      </trkpt>
      <trkpt lat="46.44713" lon="4.89893">
        <ele>186.4</ele>
        <time>2024-09-19T08:00:43Z</time>
      </trkpt>
      <trkpt lat="46.44714" lon="4.89893">
        <ele>186.8</ele>
        <time>2024-09-19T08:00:44Z</time>
      </trkpt>
      <trkpt lat="46.44719" lon="4.89892">
        <ele>186.8</ele>
        <time>2024-09-19T08:00:45Z</time>
      </trkpt>
      <trkpt lat="46.4472" lon="4.89892">
        <ele>186.8</ele>
        <time>2024-09-19T08:00:46Z</time>
      </trkpt>
      <trkpt lat="46.44724" lon="4.89891">
        <ele>186.2</ele>
        <time>2024-09-19T08:00:47Z</time>
      </trkpt>
      <trkpt lat="46.44727" lon="4.8989">
        <ele>186.2</ele>
        <time>2024-09-19T08:00:48Z</time>
      </trkpt>
      <trkpt lat="46.4473" lon="4.89889">
        <ele>186.2</ele>
        <time>2024-09-19T08:00:49Z</time>
      </trkpt>
      <trkpt lat="46.44732" lon="4.89887">
        <ele>186.2</ele>
        <time>2024-09-19T08:00:50Z</time>
      </trkpt>
      <trkpt lat="46.44734" lon="4.89884">
        <ele>186.2</ele>
        <time>2024-09-19T08:00:51Z</time>
      </trkpt>
      <trkpt lat="46.44736" lon="4.89879">
        <ele>186.6</ele>
        <time>2024-09-19T08:00:52Z</time>
      </trkpt>
      <trkpt lat="46.44738" lon="4.89875">
        <ele>186.2</ele>
        <time>2024-09-19T08:00:53Z</time>
      </trkpt>
      <trkpt lat="46.44739" lon="4.89869">
        <ele>186.2</ele>
        <time>2024-09-19T08:00:54Z</time>
      </trkpt>
      <trkpt lat="46.4474" lon="4.89861">
        <ele>186.2</ele>
        <time>2024-09-19T08:00:55Z</time>
      </trkpt>
      <trkpt lat="46.4474" lon="4.89858">
        <ele>186.2</ele>
        <time>2024-09-19T08:00:56Z</time>
      </trkpt>
      <trkpt lat="46.44742" lon="4.89849">
        <ele>186.2</ele>
        <time>2024-09-19T08:00:57Z</time>
      </trkpt>
      <trkpt lat="46.44742" lon="4.89846">
        <ele>186.2</ele>
        <time>2024-09-19T08:00:58Z</time>
      </trkpt>
      <trkpt lat="46.44743" lon="4.8984">
        <ele>186.2</ele>
        <time>2024-09-19T08:00:59Z</time>
      </trkpt>
      <trkpt lat="46.44744" lon="4.89834">
        <ele>186.2</ele>
        <time>2024-09-19T08:01:00Z</time>
      </trkpt>
      <trkpt lat="46.44745" lon="4.89828">
        <ele>186.2</ele>
        <time>2024-09-19T08:01:01Z</time>
      </trkpt>
      <trkpt lat="46.44745" lon="4.89823">
        <ele>186.6</ele>
        <time>2024-09-19T08:01:02Z</time>
      </trkpt>
      <trkpt lat="46.44746" lon="4.89817">
        <ele>186.6</ele>
        <time>2024-09-19T08:01:03Z</time>
      </trkpt>
      <trkpt lat="46.44747" lon="4.89812">
        <ele>186.6</ele>
        <time>2024-09-19T08:01:04Z</time>
      </trkpt>
      <trkpt lat="46.44748" lon="4.89806">
        <ele>186.6</ele>
        <time>2024-09-19T08:01:05Z</time>
      </trkpt>
      <trkpt lat="46.44749" lon="4.898">
        <ele>187</ele>
        <time>2024-09-19T08:01:06Z</time>
      </trkpt>
      <trkpt lat="46.44749" lon="4.89795">
        <ele>187</ele>
        <time>2024-09-19T08:01:07Z</time>
      </trkpt>
      <trkpt lat="46.4475" lon="4.89789">
        <ele>187</ele>
        <time>2024-09-19T08:01:08Z</time>
      </trkpt>
      <trkpt lat="46.44751" lon="4.89783">
        <ele>187</ele>
        <time>2024-09-19T08:01:09Z</time>
      </trkpt>
      <trkpt lat="46.44752" lon="4.89778">
        <ele>187</ele>
        <time>2024-09-19T08:01:10Z</time>
      </trkpt>
      <trkpt lat="46.44754" lon="4.8977">
        <ele>187.4</ele>
        <time>2024-09-19T08:01:11Z</time>
      </trkpt>
      <trkpt lat="46.44754" lon="4.89767">
        <ele>187.4</ele>
        <time>2024-09-19T08:01:12Z</time>
      </trkpt>
      <trkpt lat="46.44755" lon="4.89762">
        <ele>187.4</ele>
        <time>2024-09-19T08:01:13Z</time>
      </trkpt>
      <trkpt lat="46.44756" lon="4.89757">
        <ele>187.4</ele>
        <time>2024-09-19T08:01:14Z</time>
      </trkpt>
      <trkpt lat="46.44757" lon="4.89752">
        <ele>187.4</ele>
        <time>2024-09-19T08:01:15Z</time>
      </trkpt>
      <trkpt lat="46.44758" lon="4.89747">
        <ele>187.6</ele>
        <time>2024-09-19T08:01:16Z</time>
      </trkpt>
      <trkpt lat="46.44758" lon="4.89742">
        <ele>187.6</ele>
        <time>2024-09-19T08:01:17Z</time>
      </trkpt>
      <trkpt lat="46.44759" lon="4.89738">
        <ele>187.6</ele>
        <time>2024-09-19T08:01:18Z</time>
      </trkpt>
      <trkpt lat="46.44759" lon="4.89733">
        <ele>188</ele>
        <time>2024-09-19T08:01:19Z</time>
      </trkpt>
      <trkpt lat="46.4476" lon="4.89729">
        <ele>188</ele>
        <time>2024-09-19T08:01:20Z</time>
      </trkpt>
      <trkpt lat="46.4476" lon="4.89725">
        <ele>188</ele>
        <time>2024-09-19T08:01:21Z</time>
      </trkpt>
      <trkpt lat="46.44761" lon="4.8972">
        <ele>188</ele>
        <time>2024-09-19T08:01:22Z</time>
      </trkpt>
      <trkpt lat="46.44761" lon="4.89716">
        <ele>188.4</ele>
        <time>2024-09-19T08:01:23Z</time>
      </trkpt>
      <trkpt lat="46.44762" lon="4.8971">
        <ele>188.4</ele>
        <time>2024-09-19T08:01:24Z</time>
      </trkpt>
      <trkpt lat="46.44762" lon="4.89708">
        <ele>189</ele>
        <time>2024-09-19T08:01:25Z</time>
      </trkpt>
      <trkpt lat="46.44763" lon="4.89702">
        <ele>189</ele>
        <time>2024-09-19T08:01:26Z</time>
      </trkpt>
      <trkpt lat="46.44763" lon="4.897">
        <ele>189</ele>
        <time>2024-09-19T08:01:27Z</time>
      </trkpt>
      <trkpt lat="46.44764" lon="4.89694">
        <ele>189</ele>
        <time>2024-09-19T08:01:28Z</time>
      </trkpt>
      <trkpt lat="46.44764" lon="4.89692">
        <ele>189.2</ele>
        <time>2024-09-19T08:01:29Z</time>
      </trkpt>
      <trkpt lat="46.44765" lon="4.89689">
        <ele>189.2</ele>
        <time>2024-09-19T08:01:30Z</time>
      </trkpt>
      <trkpt lat="46.44765" lon="4.89685">
        <ele>189.2</ele>
        <time>2024-09-19T08:01:31Z</time>
      </trkpt>
      <trkpt lat="46.44766" lon="4.89682">
        <ele>189.8</ele>
        <time>2024-09-19T08:01:32Z</time>
      </trkpt>
      <trkpt lat="46.44766" lon="4.89677">
        <ele>190</ele>
        <time>2024-09-19T08:01:33Z</time>
      </trkpt>
      <trkpt lat="46.44766" lon="4.89675">
        <ele>190</ele>
        <time>2024-09-19T08:01:34Z</time>
      </trkpt>
      <trkpt lat="46.44767" lon="4.8967">
        <ele>190</ele>
        <time>2024-09-19T08:01:35Z</time>
      </trkpt>
      <trkpt lat="46.44768" lon="4.89668">
        <ele>190</ele>
        <time>2024-09-19T08:01:36Z</time>
      </trkpt>
      <trkpt lat="46.44768" lon="4.89663">
        <ele>190.6</ele>
        <time>2024-09-19T08:01:37Z</time>
      </trkpt>
      <trkpt lat="46.44769" lon="4.89661">
        <ele>190.6</ele>
        <time>2024-09-19T08:01:38Z</time>
      </trkpt>
      <trkpt lat="46.44769" lon="4.89657">
        <ele>190.6</ele>
        <time>2024-09-19T08:01:39Z</time>
      </trkpt>
      <trkpt lat="46.4477" lon="4.89653">
        <ele>190.6</ele>
        <time>2024-09-19T08:01:40Z</time>
      </trkpt>
      <trkpt lat="46.44771" lon="4.89649">
        <ele>191</ele>
        <time>2024-09-19T08:01:41Z</time>
      </trkpt>
      <trkpt lat="46.44771" lon="4.89644">
        <ele>191.2</ele>
        <time>2024-09-19T08:01:42Z</time>
      </trkpt>
      <trkpt lat="46.44772" lon="4.8964">
        <ele>191.2</ele>
        <time>2024-09-19T08:01:43Z</time>
      </trkpt>
      <trkpt lat="46.44773" lon="4.89636">
        <ele>191.2</ele>
        <time>2024-09-19T08:01:44Z</time>
      </trkpt>
      <trkpt lat="46.44774" lon="4.89632">
        <ele>191.2</ele>
        <time>2024-09-19T08:01:45Z</time>
      </trkpt>
      <trkpt lat="46.44774" lon="4.89627">
        <ele>191.2</ele>
        <time>2024-09-19T08:01:46Z</time>
      </trkpt>
      <trkpt lat="46.44775" lon="4.89623">
        <ele>191.4</ele>
        <time>2024-09-19T08:01:47Z</time>
      </trkpt>
      <trkpt lat="46.44776" lon="4.89618">
        <ele>191.4</ele>
        <time>2024-09-19T08:01:48Z</time>
      </trkpt>
      <trkpt lat="46.44777" lon="4.89614">
        <ele>191.4</ele>
        <time>2024-09-19T08:01:49Z</time>
      </trkpt>
      <trkpt lat="46.44777" lon="4.89609">
        <ele>191.4</ele>
        <time>2024-09-19T08:01:50Z</time>
      </trkpt>
      <trkpt lat="46.44778" lon="4.89604">
        <ele>191.4</ele>
        <time>2024-09-19T08:01:51Z</time>
      </trkpt>
      <trkpt lat="46.44778" lon="4.89599">
        <ele>191.4</ele>
        <time>2024-09-19T08:01:52Z</time>
      </trkpt>
      <trkpt lat="46.44779" lon="4.89592">
        <ele>191.4</ele>
        <time>2024-09-19T08:01:53Z</time>
      </trkpt>
      <trkpt lat="46.4478" lon="4.89589">
        <ele>191.4</ele>
        <time>2024-09-19T08:01:54Z</time>
      </trkpt>
      <trkpt lat="46.44781" lon="4.89581">
        <ele>191.4</ele>
        <time>2024-09-19T08:01:55Z</time>
      </trkpt>
      <trkpt lat="46.44782" lon="4.89578">
        <ele>191.4</ele>
        <time>2024-09-19T08:01:56Z</time>
      </trkpt>
      <trkpt lat="46.44783" lon="4.89569">
        <ele>191.4</ele>
        <time>2024-09-19T08:01:57Z</time>
      </trkpt>
      <trkpt lat="46.44783" lon="4.89565">
        <ele>191.4</ele>
        <time>2024-09-19T08:01:58Z</time>
      </trkpt>
      <trkpt lat="46.44784" lon="4.89559">
        <ele>191.4</ele>
        <time>2024-09-19T08:01:59Z</time>
      </trkpt>
      <trkpt lat="46.44785" lon="4.89553">
        <ele>191</ele>
        <time>2024-09-19T08:02:00Z</time>
      </trkpt>
      <trkpt lat="46.44786" lon="4.89547">
        <ele>191</ele>
        <time>2024-09-19T08:02:01Z</time>
      </trkpt>
      <trkpt lat="46.44787" lon="4.89541">
        <ele>191</ele>
        <time>2024-09-19T08:02:02Z</time>
      </trkpt>
      <trkpt lat="46.44787" lon="4.89535">
        <ele>191</ele>
        <time>2024-09-19T08:02:03Z</time>
      </trkpt>
      <trkpt lat="46.44788" lon="4.89529">
        <ele>190</ele>
        <time>2024-09-19T08:02:04Z</time>
      </trkpt>
      <trkpt lat="46.44789" lon="4.89524">
        <ele>189.8</ele>
        <time>2024-09-19T08:02:05Z</time>
      </trkpt>
      <trkpt lat="46.44791" lon="4.89517">
        <ele>189.8</ele>
        <time>2024-09-19T08:02:06Z</time>
      </trkpt>
      <trkpt lat="46.44792" lon="4.89508">
        <ele>189.8</ele>
        <time>2024-09-19T08:02:07Z</time>
      </trkpt>
      <trkpt lat="46.44793" lon="4.89504">
        <ele>189.2</ele>
        <time>2024-09-19T08:02:08Z</time>
      </trkpt>
      <trkpt lat="46.44794" lon="4.89494">
        <ele>189</ele>
        <time>2024-09-19T08:02:09Z</time>
      </trkpt>
      <trkpt lat="46.44794" lon="4.89491">
        <ele>189</ele>
        <time>2024-09-19T08:02:10Z</time>
      </trkpt>
      <trkpt lat="46.44792" lon="4.89482">
        <ele>189</ele>
        <time>2024-09-19T08:02:11Z</time>
      </trkpt>
      <trkpt lat="46.4479" lon="4.89479">
        <ele>188</ele>
        <time>2024-09-19T08:02:12Z</time>
      </trkpt>
      <trkpt lat="46.44785" lon="4.89471">
        <ele>187</ele>
        <time>2024-09-19T08:02:13Z</time>
      </trkpt>
      <trkpt lat="46.44783" lon="4.89469">
        <ele>187</ele>
        <time>2024-09-19T08:02:14Z</time>
      </trkpt>
      <trkpt lat="46.44778" lon="4.89463">
        <ele>187</ele>
        <time>2024-09-19T08:02:15Z</time>
      </trkpt>
      <trkpt lat="46.44773" lon="4.89457">
        <ele>187</ele>
        <time>2024-09-19T08:02:16Z</time>
      </trkpt>
      <trkpt lat="46.44769" lon="4.89451">
        <ele>187</ele>
        <time>2024-09-19T08:02:17Z</time>
      </trkpt>
      <trkpt lat="46.44764" lon="4.89443">
        <ele>186.2</ele>
        <time>2024-09-19T08:02:18Z</time>
      </trkpt>
      <trkpt lat="46.44759" lon="4.89436">
        <ele>186.2</ele>
        <time>2024-09-19T08:02:19Z</time>
      </trkpt>
      <trkpt lat="46.44753" lon="4.89429">
        <ele>186.2</ele>
        <time>2024-09-19T08:02:20Z</time>
      </trkpt>
      <trkpt lat="46.44748" lon="4.89423">
        <ele>185.2</ele>
        <time>2024-09-19T08:02:21Z</time>
      </trkpt>
      <trkpt lat="46.44742" lon="4.89416">
        <ele>184.6</ele>
        <time>2024-09-19T08:02:22Z</time>
      </trkpt>
      <trkpt lat="46.44734" lon="4.89407">
        <ele>184.6</ele>
        <time>2024-09-19T08:02:23Z</time>
      </trkpt>
      <trkpt lat="46.44731" lon="4.89405">
        <ele>184.6</ele>
        <time>2024-09-19T08:02:24Z</time>
      </trkpt>
      <trkpt lat="46.44725" lon="4.894">
        <ele>184.2</ele>
        <time>2024-09-19T08:02:25Z</time>
      </trkpt>
      <trkpt lat="46.4472" lon="4.89394">
        <ele>184.2</ele>
        <time>2024-09-19T08:02:26Z</time>
      </trkpt>
      <trkpt lat="46.44715" lon="4.89389">
        <ele>184.2</ele>
        <time>2024-09-19T08:02:27Z</time>
      </trkpt>
      <trkpt lat="46.4471" lon="4.89384">
        <ele>183.6</ele>
        <time>2024-09-19T08:02:28Z</time>
      </trkpt>
      <trkpt lat="46.44704" lon="4.8938">
        <ele>183.6</ele>
        <time>2024-09-19T08:02:29Z</time>
      </trkpt>
      <trkpt lat="46.44699" lon="4.89375">
        <ele>183.6</ele>
        <time>2024-09-19T08:02:30Z</time>
      </trkpt>
      <trkpt lat="46.44695" lon="4.8937">
        <ele>183.8</ele>
        <time>2024-09-19T08:02:31Z</time>
      </trkpt>
      <trkpt lat="46.4469" lon="4.89366">
        <ele>184</ele>
        <time>2024-09-19T08:02:32Z</time>
      </trkpt>
      <trkpt lat="46.44686" lon="4.89361">
        <ele>184</ele>
        <time>2024-09-19T08:02:33Z</time>
      </trkpt>
      <trkpt lat="46.44681" lon="4.89357">
        <ele>184</ele>
        <time>2024-09-19T08:02:34Z</time>
      </trkpt>
      <trkpt lat="46.44677" lon="4.89353">
        <ele>184</ele>
        <time>2024-09-19T08:02:35Z</time>
      </trkpt>
      <trkpt lat="46.44672" lon="4.89348">
        <ele>184</ele>
        <time>2024-09-19T08:02:36Z</time>
      </trkpt>
      <trkpt lat="46.44665" lon="4.89342">
        <ele>184</ele>
        <time>2024-09-19T08:02:37Z</time>
      </trkpt>
      <trkpt lat="46.44663" lon="4.8934">
        <ele>184</ele>
        <time>2024-09-19T08:02:38Z</time>
      </trkpt>
      <trkpt lat="46.44657" lon="4.89334">
        <ele>184</ele>
        <time>2024-09-19T08:02:39Z</time>
      </trkpt>
      <trkpt lat="46.44655" lon="4.89332">
        <ele>183.8</ele>
        <time>2024-09-19T08:02:40Z</time>
      </trkpt>
      <trkpt lat="46.4465" lon="4.89328">
        <ele>183.8</ele>
        <time>2024-09-19T08:02:41Z</time>
      </trkpt>
      <trkpt lat="46.44646" lon="4.89324">
        <ele>183.8</ele>
        <time>2024-09-19T08:02:42Z</time>
      </trkpt>
      <trkpt lat="46.44642" lon="4.8932">
        <ele>183.8</ele>
        <time>2024-09-19T08:02:43Z</time>
      </trkpt>
      <trkpt lat="46.44638" lon="4.89317">
        <ele>183.8</ele>
        <time>2024-09-19T08:02:44Z</time>
      </trkpt>
      <trkpt lat="46.44634" lon="4.89313">
        <ele>183.6</ele>
        <time>2024-09-19T08:02:45Z</time>
      </trkpt>
      <trkpt lat="46.4463" lon="4.8931">
        <ele>183.6</ele>
        <time>2024-09-19T08:02:46Z</time>
      </trkpt>
      <trkpt lat="46.44624" lon="4.89304">
        <ele>183.6</ele>
        <time>2024-09-19T08:02:47Z</time>
      </trkpt>
      <trkpt lat="46.44622" lon="4.89303">
        <ele>183.6</ele>
        <time>2024-09-19T08:02:48Z</time>
      </trkpt>
      <trkpt lat="46.44616" lon="4.89299">
        <ele>183.6</ele>
        <time>2024-09-19T08:02:49Z</time>
      </trkpt>
      <trkpt lat="46.44614" lon="4.89298">
        <ele>183.6</ele>
        <time>2024-09-19T08:02:50Z</time>
      </trkpt>
      <trkpt lat="46.44608" lon="4.89293">
        <ele>183.6</ele>
        <time>2024-09-19T08:02:51Z</time>
      </trkpt>
      <trkpt lat="46.44606" lon="4.89292">
        <ele>183.6</ele>
        <time>2024-09-19T08:02:52Z</time>
      </trkpt>
      <trkpt lat="46.44603" lon="4.89285">
        <ele>183.8</ele>
        <time>2024-09-19T08:02:53Z</time>
      </trkpt>
      <trkpt lat="46.44603" lon="4.89282">
        <ele>183.8</ele>
        <time>2024-09-19T08:02:54Z</time>
      </trkpt>
      <trkpt lat="46.44602" lon="4.89276">
        <ele>183.8</ele>
        <time>2024-09-19T08:02:55Z</time>
      </trkpt>
      <trkpt lat="46.44604" lon="4.89272">
        <ele>183.8</ele>
        <time>2024-09-19T08:02:56Z</time>
      </trkpt>
      <trkpt lat="46.44605" lon="4.89267">
        <ele>184.2</ele>
        <time>2024-09-19T08:02:57Z</time>
      </trkpt>
      <trkpt lat="46.44606" lon="4.8926">
        <ele>184</ele>
        <time>2024-09-19T08:02:58Z</time>
      </trkpt>
      <trkpt lat="46.44607" lon="4.89258">
        <ele>184</ele>
        <time>2024-09-19T08:02:59Z</time>
      </trkpt>
      <trkpt lat="46.44608" lon="4.89251">
        <ele>184</ele>
        <time>2024-09-19T08:03:00Z</time>
      </trkpt>
      <trkpt lat="46.44609" lon="4.89249">
        <ele>184</ele>
        <time>2024-09-19T08:03:01Z</time>
      </trkpt>
      <trkpt lat="46.4461" lon="4.89242">
        <ele>184.2</ele>
        <time>2024-09-19T08:03:02Z</time>
      </trkpt>
      <trkpt lat="46.44611" lon="4.8924">
        <ele>184.4</ele>
        <time>2024-09-19T08:03:03Z</time>
      </trkpt>
      <trkpt lat="46.44612" lon="4.89235">
        <ele>184.4</ele>
        <time>2024-09-19T08:03:04Z</time>
      </trkpt>
      <trkpt lat="46.44613" lon="4.89231">
        <ele>184.4</ele>
        <time>2024-09-19T08:03:05Z</time>
      </trkpt>
      <trkpt lat="46.44614" lon="4.89226">
        <ele>184.2</ele>
        <time>2024-09-19T08:03:06Z</time>
      </trkpt>
      <trkpt lat="46.44615" lon="4.89221">
        <ele>184.2</ele>
        <time>2024-09-19T08:03:07Z</time>
      </trkpt>
      <trkpt lat="46.44616" lon="4.89218">
        <ele>184.2</ele>
        <time>2024-09-19T08:03:08Z</time>
      </trkpt>
      <trkpt lat="46.44617" lon="4.89216">
        <ele>184.2</ele>
        <time>2024-09-19T08:03:09Z</time>
      </trkpt>
      <trkpt lat="46.44618" lon="4.89213">
        <ele>184.2</ele>
        <time>2024-09-19T08:03:10Z</time>
      </trkpt>
      <trkpt lat="46.44619" lon="4.8921">
        <ele>184.2</ele>
        <time>2024-09-19T08:03:11Z</time>
      </trkpt>
      <trkpt lat="46.4462" lon="4.89208">
        <ele>184</ele>
        <time>2024-09-19T08:04:10Z</time>
      </trkpt>
      <trkpt lat="46.44621" lon="4.89205">
        <ele>184.2</ele>
        <time>2024-09-19T08:04:11Z</time>
      </trkpt>
      <trkpt lat="46.44622" lon="4.89203">
        <ele>184</ele>
        <time>2024-09-19T08:04:12Z</time>
      </trkpt>
      <trkpt lat="46.44624" lon="4.89194">
        <ele>184</ele>
        <time>2024-09-19T08:04:13Z</time>
      </trkpt>
      <trkpt lat="46.44625" lon="4.89192">
        <ele>184</ele>
        <time>2024-09-19T08:04:14Z</time>
      </trkpt>
      <trkpt lat="46.44628" lon="4.89182">
        <ele>184</ele>
        <time>2024-09-19T08:04:15Z</time>
      </trkpt>
      <trkpt lat="46.44629" lon="4.89179">
        <ele>184</ele>
        <time>2024-09-19T08:04:16Z</time>
      </trkpt>
      <trkpt lat="46.44631" lon="4.89172">
        <ele>184</ele>
        <time>2024-09-19T08:04:17Z</time>
      </trkpt>
      <trkpt lat="46.44633" lon="4.89165">
        <ele>184</ele>
        <time>2024-09-19T08:04:18Z</time>
      </trkpt>
      <trkpt lat="46.44635" lon="4.89157">
        <ele>184</ele>
        <time>2024-09-19T08:04:19Z</time>
      </trkpt>
      <trkpt lat="46.44638" lon="4.8915">
        <ele>184.4</ele>
        <time>2024-09-19T08:04:20Z</time>
      </trkpt>
      <trkpt lat="46.4464" lon="4.89142">
        <ele>184.4</ele>
        <time>2024-09-19T08:04:21Z</time>
      </trkpt>
      <trkpt lat="46.44642" lon="4.89135">
        <ele>184.4</ele>
        <time>2024-09-19T08:04:22Z</time>
      </trkpt>
      <trkpt lat="46.44645" lon="4.89128">
        <ele>184.4</ele>
        <time>2024-09-19T08:04:23Z</time>
      </trkpt>
      <trkpt lat="46.44647" lon="4.8912">
        <ele>184.4</ele>
        <time>2024-09-19T08:04:24Z</time>
      </trkpt>
      <trkpt lat="46.4465" lon="4.89109">
        <ele>184</ele>
        <time>2024-09-19T08:04:25Z</time>
      </trkpt>
      <trkpt lat="46.44651" lon="4.89105">
        <ele>184</ele>
        <time>2024-09-19T08:04:26Z</time>
      </trkpt>
      <trkpt lat="46.44655" lon="4.89094">
        <ele>184</ele>
        <time>2024-09-19T08:04:27Z</time>
      </trkpt>
      <trkpt lat="46.44656" lon="4.89091">
        <ele>184</ele>
        <time>2024-09-19T08:04:28Z</time>
      </trkpt>
      <trkpt lat="46.44659" lon="4.8908">
        <ele>183.6</ele>
        <time>2024-09-19T08:04:29Z</time>
      </trkpt>
      <trkpt lat="46.4466" lon="4.89076">
        <ele>183.6</ele>
        <time>2024-09-19T08:04:30Z</time>
      </trkpt>
      <trkpt lat="46.44662" lon="4.89069">
        <ele>183.6</ele>
        <time>2024-09-19T08:04:31Z</time>
      </trkpt>
      <trkpt lat="46.44664" lon="4.89061">
        <ele>183.6</ele>
        <time>2024-09-19T08:04:32Z</time>
      </trkpt>
      <trkpt lat="46.44668" lon="4.8905">
        <ele>184.4</ele>
        <time>2024-09-19T08:04:33Z</time>
      </trkpt>
      <trkpt lat="46.44669" lon="4.89046">
        <ele>183.8</ele>
        <time>2024-09-19T08:04:34Z</time>
      </trkpt>
      <trkpt lat="46.44671" lon="4.89039">
        <ele>183.8</ele>
        <time>2024-09-19T08:04:35Z</time>
      </trkpt>
      <trkpt lat="46.44673" lon="4.89031">
        <ele>183.8</ele>
        <time>2024-09-19T08:04:36Z</time>
      </trkpt>
      <trkpt lat="46.44675" lon="4.89024">
        <ele>184.4</ele>
        <time>2024-09-19T08:04:37Z</time>
      </trkpt>
      <trkpt lat="46.44678" lon="4.89012">
        <ele>184</ele>
        <time>2024-09-19T08:04:38Z</time>
      </trkpt>
      <trkpt lat="46.44679" lon="4.89008">
        <ele>184</ele>
        <time>2024-09-19T08:04:39Z</time>
      </trkpt>
      <trkpt lat="46.44682" lon="4.88997">
        <ele>184</ele>
        <time>2024-09-19T08:04:40Z</time>
      </trkpt>
      <trkpt lat="46.44683" lon="4.88993">
        <ele>184</ele>
        <time>2024-09-19T08:04:41Z</time>
      </trkpt>
      <trkpt lat="46.44686" lon="4.88982">
        <ele>184.6</ele>
        <time>2024-09-19T08:04:42Z</time>
      </trkpt>
      <trkpt lat="46.44688" lon="4.88979">
        <ele>184.6</ele>
        <time>2024-09-19T08:04:43Z</time>
      </trkpt>
      <trkpt lat="46.4469" lon="4.88971">
        <ele>184.6</ele>
        <time>2024-09-19T08:04:44Z</time>
      </trkpt>
      <trkpt lat="46.44692" lon="4.88964">
        <ele>184.6</ele>
        <time>2024-09-19T08:04:45Z</time>
      </trkpt>
      <trkpt lat="46.44694" lon="4.88956">
        <ele>184.6</ele>
        <time>2024-09-19T08:04:46Z</time>
      </trkpt>
      <trkpt lat="46.44696" lon="4.88949">
        <ele>183.8</ele>
        <time>2024-09-19T08:04:47Z</time>
      </trkpt>
      <trkpt lat="46.44699" lon="4.88937">
        <ele>183.8</ele>
        <time>2024-09-19T08:04:48Z</time>
      </trkpt>
      <trkpt lat="46.447" lon="4.88934">
        <ele>183.8</ele>
        <time>2024-09-19T08:04:49Z</time>
      </trkpt>
      <trkpt lat="46.44703" lon="4.88926">
        <ele>183.8</ele>
        <time>2024-09-19T08:04:50Z</time>
      </trkpt>
      <trkpt lat="46.44705" lon="4.88919">
        <ele>183.8</ele>
        <time>2024-09-19T08:04:51Z</time>
      </trkpt>
      <trkpt lat="46.44708" lon="4.88908">
        <ele>184.2</ele>
        <time>2024-09-19T08:04:52Z</time>
      </trkpt>
      <trkpt lat="46.44709" lon="4.88904">
        <ele>184.2</ele>
        <time>2024-09-19T08:04:53Z</time>
      </trkpt>
      <trkpt lat="46.44712" lon="4.88894">
        <ele>184.2</ele>
        <time>2024-09-19T08:04:54Z</time>
      </trkpt>
      <trkpt lat="46.44713" lon="4.8889">
        <ele>184.2</ele>
        <time>2024-09-19T08:04:55Z</time>
      </trkpt>
      <trkpt lat="46.44716" lon="4.88879">
        <ele>184</ele>
        <time>2024-09-19T08:04:56Z</time>
      </trkpt>
      <trkpt lat="46.44717" lon="4.88876">
        <ele>184</ele>
        <time>2024-09-19T08:04:57Z</time>
      </trkpt>
      <trkpt lat="46.4472" lon="4.88865">
        <ele>184</ele>
        <time>2024-09-19T08:04:58Z</time>
      </trkpt>
      <trkpt lat="46.44721" lon="4.88862">
        <ele>184</ele>
        <time>2024-09-19T08:04:59Z</time>
      </trkpt>
      <trkpt lat="46.44725" lon="4.88851">
        <ele>184.2</ele>
        <time>2024-09-19T08:05:00Z</time>
      </trkpt>
      <trkpt lat="46.44726" lon="4.88848">
        <ele>184.2</ele>
        <time>2024-09-19T08:05:01Z</time>
      </trkpt>
      <trkpt lat="46.44728" lon="4.8884">
        <ele>184.2</ele>
        <time>2024-09-19T08:05:02Z</time>
      </trkpt>
      <trkpt lat="46.4473" lon="4.88833">
        <ele>184.2</ele>
        <time>2024-09-19T08:05:03Z</time>
      </trkpt>
      <trkpt lat="46.44732" lon="4.88826">
        <ele>184.2</ele>
        <time>2024-09-19T08:05:04Z</time>
      </trkpt>
      <trkpt lat="46.44734" lon="4.88819">
        <ele>184.2</ele>
        <time>2024-09-19T08:05:05Z</time>
      </trkpt>
      <trkpt lat="46.44736" lon="4.88812">
        <ele>184.2</ele>
        <time>2024-09-19T08:05:06Z</time>
      </trkpt>
      <trkpt lat="46.44738" lon="4.88805">
        <ele>184.2</ele>
        <time>2024-09-19T08:05:07Z</time>
      </trkpt>
      <trkpt lat="46.4474" lon="4.88794">
        <ele>184.2</ele>
        <time>2024-09-19T08:05:08Z</time>
      </trkpt>
      <trkpt lat="46.44741" lon="4.8879">
        <ele>184.6</ele>
        <time>2024-09-19T08:05:09Z</time>
      </trkpt>
      <trkpt lat="46.44744" lon="4.88779">
        <ele>184.4</ele>
        <time>2024-09-19T08:05:10Z</time>
      </trkpt>
      <trkpt lat="46.44745" lon="4.88775">
        <ele>184.4</ele>
        <time>2024-09-19T08:05:11Z</time>
      </trkpt>
      <trkpt lat="46.44747" lon="4.88768">
        <ele>184.4</ele>
        <time>2024-09-19T08:05:12Z</time>
      </trkpt>
      <trkpt lat="46.44749" lon="4.8876">
        <ele>184.4</ele>
        <time>2024-09-19T08:05:13Z</time>
      </trkpt>
      <trkpt lat="46.4475" lon="4.88752">
        <ele>184.2</ele>
        <time>2024-09-19T08:05:14Z</time>
      </trkpt>
      <trkpt lat="46.44753" lon="4.88741">
        <ele>184.2</ele>
        <time>2024-09-19T08:05:15Z</time>
      </trkpt>
      <trkpt lat="46.44754" lon="4.88737">
        <ele>184.2</ele>
        <time>2024-09-19T08:05:16Z</time>
      </trkpt>
      <trkpt lat="46.44755" lon="4.8873">
        <ele>184.2</ele>
        <time>2024-09-19T08:05:17Z</time>
      </trkpt>
      <trkpt lat="46.44757" lon="4.88723">
        <ele>184.6</ele>
        <time>2024-09-19T08:05:18Z</time>
      </trkpt>
      <trkpt lat="46.44758" lon="4.88715">
        <ele>184.6</ele>
        <time>2024-09-19T08:05:19Z</time>
      </trkpt>
      <trkpt lat="46.4476" lon="4.88708">
        <ele>184.6</ele>
        <time>2024-09-19T08:05:20Z</time>
      </trkpt>
      <trkpt lat="46.44763" lon="4.88697">
        <ele>184.6</ele>
        <time>2024-09-19T08:05:21Z</time>
      </trkpt>
      <trkpt lat="46.44763" lon="4.88694">
        <ele>184.6</ele>
        <time>2024-09-19T08:05:22Z</time>
      </trkpt>
      <trkpt lat="46.44766" lon="4.88683">
        <ele>184.4</ele>
        <time>2024-09-19T08:05:23Z</time>
      </trkpt>
      <trkpt lat="46.44766" lon="4.8868">
        <ele>184.4</ele>
        <time>2024-09-19T08:05:24Z</time>
      </trkpt>
      <trkpt lat="46.44765" lon="4.88674">
        <ele>184.4</ele>
        <time>2024-09-19T08:05:25Z</time>
      </trkpt>
      <trkpt lat="46.44763" lon="4.88671">
        <ele>184.4</ele>
        <time>2024-09-19T08:05:26Z</time>
      </trkpt>
      <trkpt lat="46.44759" lon="4.88668">
        <ele>184.2</ele>
        <time>2024-09-19T08:05:27Z</time>
      </trkpt>
      <trkpt lat="46.44755" lon="4.88665">
        <ele>184.2</ele>
        <time>2024-09-19T08:05:28Z</time>
      </trkpt>
      <trkpt lat="46.44751" lon="4.88663">
        <ele>184.2</ele>
        <time>2024-09-19T08:05:29Z</time>
      </trkpt>
      <trkpt lat="46.44747" lon="4.88661">
        <ele>184.2</ele>
        <time>2024-09-19T08:05:30Z</time>
      </trkpt>
      <trkpt lat="46.44743" lon="4.88658">
        <ele>184.2</ele>
        <time>2024-09-19T08:05:31Z</time>
      </trkpt>
      <trkpt lat="46.44736" lon="4.88654">
        <ele>184.2</ele>
        <time>2024-09-19T08:05:32Z</time>
      </trkpt>
      <trkpt lat="46.44734" lon="4.88652">
        <ele>184.2</ele>
        <time>2024-09-19T08:05:33Z</time>
      </trkpt>
      <trkpt lat="46.44727" lon="4.88648">
        <ele>184.2</ele>
        <time>2024-09-19T08:05:34Z</time>
      </trkpt>
      <trkpt lat="46.44725" lon="4.88647">
        <ele>184.2</ele>
        <time>2024-09-19T08:05:35Z</time>
      </trkpt>
      <trkpt lat="46.4472" lon="4.88645">
        <ele>184.2</ele>
        <time>2024-09-19T08:05:36Z</time>
      </trkpt>
      <trkpt lat="46.44715" lon="4.88642">
        <ele>184.2</ele>
        <time>2024-09-19T08:05:37Z</time>
      </trkpt>
      <trkpt lat="46.44708" lon="4.88639">
        <ele>184</ele>
        <time>2024-09-19T08:05:38Z</time>
      </trkpt>
      <trkpt lat="46.44706" lon="4.88637">
        <ele>184</ele>
        <time>2024-09-19T08:05:39Z</time>
      </trkpt>
      <trkpt lat="46.44699" lon="4.88634">
        <ele>184.6</ele>
        <time>2024-09-19T08:05:40Z</time>
      </trkpt>
      <trkpt lat="46.44696" lon="4.88632">
        <ele>184.4</ele>
        <time>2024-09-19T08:05:41Z</time>
      </trkpt>
      <trkpt lat="46.44689" lon="4.88628">
        <ele>184.4</ele>
        <time>2024-09-19T08:05:42Z</time>
      </trkpt>
      <trkpt lat="46.44687" lon="4.88627">
        <ele>184.4</ele>
        <time>2024-09-19T08:05:43Z</time>
      </trkpt>
      <trkpt lat="46.44683" lon="4.88625">
        <ele>184.4</ele>
        <time>2024-09-19T08:05:44Z</time>
      </trkpt>
      <trkpt lat="46.44678" lon="4.88622">
        <ele>184.4</ele>
        <time>2024-09-19T08:05:45Z</time>
      </trkpt>
      <trkpt lat="46.44674" lon="4.88619">
        <ele>184</ele>
        <time>2024-09-19T08:05:46Z</time>
      </trkpt>
      <trkpt lat="46.4467" lon="4.88617">
        <ele>184</ele>
        <time>2024-09-19T08:05:47Z</time>
      </trkpt>
      <trkpt lat="46.44666" lon="4.88614">
        <ele>184</ele>
        <time>2024-09-19T08:05:48Z</time>
      </trkpt>
      <trkpt lat="46.44663" lon="4.88612">
        <ele>185</ele>
        <time>2024-09-19T08:05:49Z</time>
      </trkpt>
      <trkpt lat="46.44659" lon="4.8861">
        <ele>184.6</ele>
        <time>2024-09-19T08:05:50Z</time>
      </trkpt>
      <trkpt lat="46.44653" lon="4.88607">
        <ele>184.6</ele>
        <time>2024-09-19T08:05:51Z</time>
      </trkpt>
      <trkpt lat="46.44652" lon="4.88606">
        <ele>184.6</ele>
        <time>2024-09-19T08:05:52Z</time>
      </trkpt>
      <trkpt lat="46.44649" lon="4.88602">
        <ele>184.6</ele>
        <time>2024-09-19T08:05:53Z</time>
      </trkpt>
      <trkpt lat="46.44648" lon="4.88598">
        <ele>185</ele>
        <time>2024-09-19T08:05:54Z</time>
      </trkpt>
      <trkpt lat="46.44648" lon="4.88593">
        <ele>185.4</ele>
        <time>2024-09-19T08:05:55Z</time>
      </trkpt>
      <trkpt lat="46.44648" lon="4.88588">
        <ele>185.4</ele>
        <time>2024-09-19T08:05:56Z</time>
      </trkpt>
      <trkpt lat="46.44648" lon="4.88583">
        <ele>185.4</ele>
        <time>2024-09-19T08:05:57Z</time>
      </trkpt>
      <trkpt lat="46.44648" lon="4.88578">
        <ele>185.4</ele>
        <time>2024-09-19T08:05:58Z</time>
      </trkpt>
      <trkpt lat="46.44648" lon="4.88573">
        <ele>185</ele>
        <time>2024-09-19T08:05:59Z</time>
      </trkpt>
      <trkpt lat="46.44647" lon="4.88568">
        <ele>185</ele>
        <time>2024-09-19T08:06:00Z</time>
      </trkpt>
      <trkpt lat="46.44647" lon="4.88565">
        <ele>185</ele>
        <time>2024-09-19T08:06:01Z</time>
      </trkpt>
      <trkpt lat="46.44646" lon="4.88563">
        <ele>185</ele>
        <time>2024-09-19T08:06:02Z</time>
      </trkpt>
      <trkpt lat="46.44644" lon="4.88564">
        <ele>185.2</ele>
        <time>2024-09-19T08:06:03Z</time>
      </trkpt>
      <trkpt lat="46.44644" lon="4.88565">
        <ele>185.2</ele>
        <time>2024-09-19T08:06:04Z</time>
      </trkpt>
      <trkpt lat="46.44642" lon="4.88567">
        <ele>185.2</ele>
        <time>2024-09-19T08:06:05Z</time>
      </trkpt>
      <trkpt lat="46.4464" lon="4.88567">
        <ele>185.2</ele>
        <time>2024-09-19T08:06:06Z</time>
      </trkpt>
      <trkpt lat="46.44638" lon="4.88566">
        <ele>185.4</ele>
        <time>2024-09-19T08:06:07Z</time>
      </trkpt>
      <trkpt lat="46.44636" lon="4.88565">
        <ele>185.4</ele>
        <time>2024-09-19T08:06:08Z</time>
      </trkpt>
      <trkpt lat="46.44634" lon="4.88563">
        <ele>185.4</ele>
        <time>2024-09-19T08:06:09Z</time>
      </trkpt>
      <trkpt lat="46.44631" lon="4.88562">
        <ele>185.4</ele>
        <time>2024-09-19T08:06:10Z</time>
      </trkpt>
      <trkpt lat="46.44628" lon="4.88561">
        <ele>185.4</ele>
        <time>2024-09-19T08:06:11Z</time>
      </trkpt>
      <trkpt lat="46.44624" lon="4.88561">
        <ele>185.4</ele>
        <time>2024-09-19T08:06:12Z</time>
      </trkpt>
      <trkpt lat="46.44619" lon="4.8856">
        <ele>185</ele>
        <time>2024-09-19T08:06:13Z</time>
      </trkpt>
      <trkpt lat="46.44615" lon="4.8856">
        <ele>185</ele>
        <time>2024-09-19T08:06:14Z</time>
      </trkpt>
      <trkpt lat="46.4461" lon="4.8856">
        <ele>185</ele>
        <time>2024-09-19T08:06:15Z</time>
      </trkpt>
      <trkpt lat="46.44606" lon="4.8856">
        <ele>185</ele>
        <time>2024-09-19T08:06:16Z</time>
      </trkpt>
      <trkpt lat="46.44601" lon="4.88561">
        <ele>184.4</ele>
        <time>2024-09-19T08:06:17Z</time>
      </trkpt>
      <trkpt lat="46.44597" lon="4.88562">
        <ele>184.6</ele>
        <time>2024-09-19T08:06:18Z</time>
      </trkpt>
      <trkpt lat="46.44592" lon="4.88564">
        <ele>184.6</ele>
        <time>2024-09-19T08:06:19Z</time>
      </trkpt>
      <trkpt lat="46.44588" lon="4.88568">
        <ele>184.6</ele>
        <time>2024-09-19T08:06:20Z</time>
      </trkpt>
      <trkpt lat="46.44583" lon="4.88575">
        <ele>184.2</ele>
        <time>2024-09-19T08:06:21Z</time>
      </trkpt>
      <trkpt lat="46.44582" lon="4.88578">
        <ele>184.2</ele>
        <time>2024-09-19T08:06:22Z</time>
      </trkpt>
      <trkpt lat="46.44579" lon="4.88588">
        <ele>184.2</ele>
        <time>2024-09-19T08:06:23Z</time>
      </trkpt>
      <trkpt lat="46.44578" lon="4.88591">
        <ele>184.2</ele>
        <time>2024-09-19T08:06:24Z</time>
      </trkpt>
      <trkpt lat="46.44576" lon="4.88602">
        <ele>184.2</ele>
        <time>2024-09-19T08:06:25Z</time>
      </trkpt>
      <trkpt lat="46.44575" lon="4.88605">
        <ele>183.6</ele>
        <time>2024-09-19T08:06:26Z</time>
      </trkpt>
      <trkpt lat="46.44574" lon="4.88612">
        <ele>183.6</ele>
        <time>2024-09-19T08:06:27Z</time>
      </trkpt>
      <trkpt lat="46.44573" lon="4.88619">
        <ele>183.6</ele>
        <time>2024-09-19T08:06:28Z</time>
      </trkpt>
      <trkpt lat="46.44572" lon="4.88626">
        <ele>183.6</ele>
        <time>2024-09-19T08:06:29Z</time>
      </trkpt>
      <trkpt lat="46.4457" lon="4.88632">
        <ele>183.6</ele>
        <time>2024-09-19T08:06:30Z</time>
      </trkpt>
      <trkpt lat="46.44569" lon="4.88639">
        <ele>183.6</ele>
        <time>2024-09-19T08:06:31Z</time>
      </trkpt>
      <trkpt lat="46.44567" lon="4.88645">
        <ele>183.6</ele>
        <time>2024-09-19T08:06:32Z</time>
      </trkpt>
      <trkpt lat="46.44564" lon="4.88654">
        <ele>183.6</ele>
        <time>2024-09-19T08:06:33Z</time>
      </trkpt>
      <trkpt lat="46.44562" lon="4.88657">
        <ele>183.6</ele>
        <time>2024-09-19T08:06:34Z</time>
      </trkpt>
      <trkpt lat="46.44556" lon="4.88662">
        <ele>183.6</ele>
        <time>2024-09-19T08:06:35Z</time>
      </trkpt>
      <trkpt lat="46.44554" lon="4.88663">
        <ele>183.8</ele>
        <time>2024-09-19T08:06:36Z</time>
      </trkpt>
      <trkpt lat="46.4455" lon="4.88662">
        <ele>183.8</ele>
        <time>2024-09-19T08:06:37Z</time>
      </trkpt>
      <trkpt lat="46.44546" lon="4.8866">
        <ele>183.8</ele>
        <time>2024-09-19T08:06:38Z</time>
      </trkpt>
      <trkpt lat="46.4454" lon="4.88655">
        <ele>183.8</ele>
        <time>2024-09-19T08:06:39Z</time>
      </trkpt>
      <trkpt lat="46.44539" lon="4.88654">
        <ele>183</ele>
        <time>2024-09-19T08:06:40Z</time>
      </trkpt>
      <trkpt lat="46.44533" lon="4.8865">
        <ele>183</ele>
        <time>2024-09-19T08:06:41Z</time>
      </trkpt>
      <trkpt lat="46.44531" lon="4.88648">
        <ele>183</ele>
        <time>2024-09-19T08:06:42Z</time>
      </trkpt>
      <trkpt lat="46.44527" lon="4.88645">
        <ele>183.2</ele>
        <time>2024-09-19T08:06:43Z</time>
      </trkpt>
      <trkpt lat="46.44523" lon="4.88641">
        <ele>183.2</ele>
        <time>2024-09-19T08:06:44Z</time>
      </trkpt>
      <trkpt lat="46.44519" lon="4.88638">
        <ele>183.2</ele>
        <time>2024-09-19T08:06:45Z</time>
      </trkpt>
      <trkpt lat="46.44515" lon="4.88635">
        <ele>183.2</ele>
        <time>2024-09-19T08:06:46Z</time>
      </trkpt>
      <trkpt lat="46.44509" lon="4.8863">
        <ele>183.2</ele>
        <time>2024-09-19T08:06:47Z</time>
      </trkpt>
      <trkpt lat="46.44507" lon="4.88629">
        <ele>183.2</ele>
        <time>2024-09-19T08:06:48Z</time>
      </trkpt>
      <trkpt lat="46.44501" lon="4.88624">
        <ele>183.2</ele>
        <time>2024-09-19T08:06:49Z</time>
      </trkpt>
      <trkpt lat="46.44499" lon="4.88622">
        <ele>183.2</ele>
        <time>2024-09-19T08:06:50Z</time>
      </trkpt>
      <trkpt lat="46.44494" lon="4.88619">
        <ele>183.2</ele>
        <time>2024-09-19T08:06:51Z</time>
      </trkpt>
      <trkpt lat="46.44491" lon="4.88615">
        <ele>183.2</ele>
        <time>2024-09-19T08:06:52Z</time>
      </trkpt>
      <trkpt lat="46.44488" lon="4.8861">
        <ele>183</ele>
        <time>2024-09-19T08:06:53Z</time>
      </trkpt>
      <trkpt lat="46.44485" lon="4.88606">
        <ele>183</ele>
        <time>2024-09-19T08:06:54Z</time>
      </trkpt>
      <trkpt lat="46.44482" lon="4.886">
        <ele>183</ele>
        <time>2024-09-19T08:06:55Z</time>
      </trkpt>
      <trkpt lat="46.4448" lon="4.88595">
        <ele>183</ele>
        <time>2024-09-19T08:06:56Z</time>
      </trkpt>
      <trkpt lat="46.44477" lon="4.8859">
        <ele>183</ele>
        <time>2024-09-19T08:06:57Z</time>
      </trkpt>
      <trkpt lat="46.44474" lon="4.88585">
        <ele>183</ele>
        <time>2024-09-19T08:06:58Z</time>
      </trkpt>
      <trkpt lat="46.44471" lon="4.88579">
        <ele>183</ele>
        <time>2024-09-19T08:06:59Z</time>
      </trkpt>
      <trkpt lat="46.44469" lon="4.88574">
        <ele>183</ele>
        <time>2024-09-19T08:07:00Z</time>
      </trkpt>
      <trkpt lat="46.44466" lon="4.88569">
        <ele>183</ele>
        <time>2024-09-19T08:07:01Z</time>
      </trkpt>
      <trkpt lat="46.44463" lon="4.88565">
        <ele>183</ele>
        <time>2024-09-19T08:07:02Z</time>
      </trkpt>
      <trkpt lat="46.4446" lon="4.8856">
        <ele>183.2</ele>
        <time>2024-09-19T08:07:03Z</time>
      </trkpt>
      <trkpt lat="46.44457" lon="4.88556">
        <ele>183.2</ele>
        <time>2024-09-19T08:07:04Z</time>
      </trkpt>
      <trkpt lat="46.44455" lon="4.88549">
        <ele>183.2</ele>
        <time>2024-09-19T08:07:05Z</time>
      </trkpt>
      <trkpt lat="46.44454" lon="4.88546">
        <ele>183.2</ele>
        <time>2024-09-19T08:07:06Z</time>
      </trkpt>
      <trkpt lat="46.44454" lon="4.88538">
        <ele>183.2</ele>
        <time>2024-09-19T08:07:07Z</time>
      </trkpt>
      <trkpt lat="46.44455" lon="4.88535">
        <ele>183.2</ele>
        <time>2024-09-19T08:07:08Z</time>
      </trkpt>
      <trkpt lat="46.44455" lon="4.8853">
        <ele>183.2</ele>
        <time>2024-09-19T08:07:09Z</time>
      </trkpt>
      <trkpt lat="46.44456" lon="4.88524">
        <ele>183.2</ele>
        <time>2024-09-19T08:07:10Z</time>
      </trkpt>
      <trkpt lat="46.44456" lon="4.88518">
        <ele>183.4</ele>
        <time>2024-09-19T08:07:11Z</time>
      </trkpt>
      <trkpt lat="46.44455" lon="4.88513">
        <ele>183.4</ele>
        <time>2024-09-19T08:07:12Z</time>
      </trkpt>
      <trkpt lat="46.44454" lon="4.88508">
        <ele>183.4</ele>
        <time>2024-09-19T08:07:13Z</time>
      </trkpt>
      <trkpt lat="46.44452" lon="4.88502">
        <ele>183.4</ele>
        <time>2024-09-19T08:07:14Z</time>
      </trkpt>
      <trkpt lat="46.44451" lon="4.88497">
        <ele>183.6</ele>
        <time>2024-09-19T08:07:15Z</time>
      </trkpt>
      <trkpt lat="46.44449" lon="4.88492">
        <ele>183.6</ele>
        <time>2024-09-19T08:07:16Z</time>
      </trkpt>
      <trkpt lat="46.44445" lon="4.88485">
        <ele>183.6</ele>
        <time>2024-09-19T08:07:17Z</time>
      </trkpt>
      <trkpt lat="46.44444" lon="4.88482">
        <ele>183.6</ele>
        <time>2024-09-19T08:07:18Z</time>
      </trkpt>
      <trkpt lat="46.44441" lon="4.88474">
        <ele>183.6</ele>
        <time>2024-09-19T08:07:19Z</time>
      </trkpt>
      <trkpt lat="46.4444" lon="4.88472">
        <ele>183.6</ele>
        <time>2024-09-19T08:07:20Z</time>
      </trkpt>
      <trkpt lat="46.44437" lon="4.88464">
        <ele>184</ele>
        <time>2024-09-19T08:07:21Z</time>
      </trkpt>
      <trkpt lat="46.44436" lon="4.88462">
        <ele>184</ele>
        <time>2024-09-19T08:07:22Z</time>
      </trkpt>
      <trkpt lat="46.44433" lon="4.88454">
        <ele>184</ele>
        <time>2024-09-19T08:07:23Z</time>
      </trkpt>
      <trkpt lat="46.44432" lon="4.88451">
        <ele>184</ele>
        <time>2024-09-19T08:07:24Z</time>
      </trkpt>
      <trkpt lat="46.44429" lon="4.88444">
        <ele>183.8</ele>
        <time>2024-09-19T08:07:25Z</time>
      </trkpt>
      <trkpt lat="46.44428" lon="4.88441">
        <ele>183.8</ele>
        <time>2024-09-19T08:07:26Z</time>
      </trkpt>
      <trkpt lat="46.44425" lon="4.88437">
        <ele>183.8</ele>
        <time>2024-09-19T08:07:27Z</time>
      </trkpt>
      <trkpt lat="46.44423" lon="4.88432">
        <ele>184.6</ele>
        <time>2024-09-19T08:07:28Z</time>
      </trkpt>
      <trkpt lat="46.4442" lon="4.88429">
        <ele>184.6</ele>
        <time>2024-09-19T08:07:29Z</time>
      </trkpt>
      <trkpt lat="46.44417" lon="4.88426">
        <ele>184.6</ele>
        <time>2024-09-19T08:07:30Z</time>
      </trkpt>
      <trkpt lat="46.44412" lon="4.88422">
        <ele>184.6</ele>
        <time>2024-09-19T08:07:31Z</time>
      </trkpt>
      <trkpt lat="46.4441" lon="4.88421">
        <ele>184.6</ele>
        <time>2024-09-19T08:07:32Z</time>
      </trkpt>
      <trkpt lat="46.44404" lon="4.8842">
        <ele>184.6</ele>
        <time>2024-09-19T08:07:33Z</time>
      </trkpt>
      <trkpt lat="46.44402" lon="4.8842">
        <ele>184.6</ele>
        <time>2024-09-19T08:07:34Z</time>
      </trkpt>
      <trkpt lat="46.44398" lon="4.8842">
        <ele>184.6</ele>
        <time>2024-09-19T08:07:35Z</time>
      </trkpt>
      <trkpt lat="46.44394" lon="4.88421">
        <ele>184.6</ele>
        <time>2024-09-19T08:07:36Z</time>
      </trkpt>
      <trkpt lat="46.4439" lon="4.88423">
        <ele>184.6</ele>
        <time>2024-09-19T08:07:37Z</time>
      </trkpt>
      <trkpt lat="46.44386" lon="4.88424">
        <ele>184.6</ele>
        <time>2024-09-19T08:07:38Z</time>
      </trkpt>
      <trkpt lat="46.44382" lon="4.88427">
        <ele>184.2</ele>
        <time>2024-09-19T08:07:39Z</time>
      </trkpt>
      <trkpt lat="46.44378" lon="4.88429">
        <ele>184.2</ele>
        <time>2024-09-19T08:07:40Z</time>
      </trkpt>
      <trkpt lat="46.44375" lon="4.88431">
        <ele>184.2</ele>
        <time>2024-09-19T08:07:41Z</time>
      </trkpt>
      <trkpt lat="46.44371" lon="4.88433">
        <ele>184.2</ele>
        <time>2024-09-19T08:07:42Z</time>
      </trkpt>
      <trkpt lat="46.44367" lon="4.88434">
        <ele>184.6</ele>
        <time>2024-09-19T08:07:43Z</time>
      </trkpt>
      <trkpt lat="46.44363" lon="4.88436">
        <ele>184.8</ele>
        <time>2024-09-19T08:07:44Z</time>
      </trkpt>
      <trkpt lat="46.4436" lon="4.88438">
        <ele>184.8</ele>
        <time>2024-09-19T08:07:45Z</time>
      </trkpt>
      <trkpt lat="46.44356" lon="4.8844">
        <ele>184.8</ele>
        <time>2024-09-19T08:07:46Z</time>
      </trkpt>
      <trkpt lat="46.44351" lon="4.88443">
        <ele>185.4</ele>
        <time>2024-09-19T08:07:47Z</time>
      </trkpt>
      <trkpt lat="46.44349" lon="4.88444">
        <ele>185.2</ele>
        <time>2024-09-19T08:07:48Z</time>
      </trkpt>
      <trkpt lat="46.44345" lon="4.88445">
        <ele>185.2</ele>
        <time>2024-09-19T08:07:49Z</time>
      </trkpt>
      <trkpt lat="46.44342" lon="4.88446">
        <ele>185.2</ele>
        <time>2024-09-19T08:07:50Z</time>
      </trkpt>
      <trkpt lat="46.4434" lon="4.88446">
        <ele>185.2</ele>
        <time>2024-09-19T08:07:51Z</time>
      </trkpt>
      <trkpt lat="46.44339" lon="4.88446">
        <ele>185.2</ele>
        <time>2024-09-19T08:07:52Z</time>
      </trkpt>
      <trkpt lat="46.44337" lon="4.88446">
        <ele>185.4</ele>
        <time>2024-09-19T08:07:53Z</time>
      </trkpt>
      <trkpt lat="46.44336" lon="4.88447">
        <ele>185.4</ele>
        <time>2024-09-19T08:07:54Z</time>
      </trkpt>
      <trkpt lat="46.44334" lon="4.88449">
        <ele>185.4</ele>
        <time>2024-09-19T08:07:55Z</time>
      </trkpt>
      <trkpt lat="46.44332" lon="4.88451">
        <ele>185.4</ele>
        <time>2024-09-19T08:07:56Z</time>
      </trkpt>
      <trkpt lat="46.4433" lon="4.88455">
        <ele>185.2</ele>
        <time>2024-09-19T08:07:57Z</time>
      </trkpt>
      <trkpt lat="46.44328" lon="4.88459">
        <ele>185.2</ele>
        <time>2024-09-19T08:07:58Z</time>
      </trkpt>
      <trkpt lat="46.44327" lon="4.88464">
        <ele>185.2</ele>
        <time>2024-09-19T08:07:59Z</time>
      </trkpt>
      <trkpt lat="46.44326" lon="4.8847">
        <ele>185.6</ele>
        <time>2024-09-19T08:08:00Z</time>
      </trkpt>
      <trkpt lat="46.44323" lon="4.88478">
        <ele>185.6</ele>
        <time>2024-09-19T08:08:01Z</time>
      </trkpt>
      <trkpt lat="46.44323" lon="4.88481">
        <ele>185.6</ele>
        <time>2024-09-19T08:08:02Z</time>
      </trkpt>
      <trkpt lat="46.4432" lon="4.88489">
        <ele>185.6</ele>
        <time>2024-09-19T08:08:03Z</time>
      </trkpt>
      <trkpt lat="46.44319" lon="4.88491">
        <ele>185.6</ele>
        <time>2024-09-19T08:08:04Z</time>
      </trkpt>
      <trkpt lat="46.44317" lon="4.88499">
        <ele>185.6</ele>
        <time>2024-09-19T08:08:05Z</time>
      </trkpt>
      <trkpt lat="46.44316" lon="4.88501">
        <ele>185.6</ele>
        <time>2024-09-19T08:08:06Z</time>
      </trkpt>
      <trkpt lat="46.44315" lon="4.88505">
        <ele>185.6</ele>
        <time>2024-09-19T08:08:07Z</time>
      </trkpt>
      <trkpt lat="46.44313" lon="4.88508">
        <ele>185.6</ele>
        <time>2024-09-19T08:08:08Z</time>
      </trkpt>
      <trkpt lat="46.44311" lon="4.88511">
        <ele>185.6</ele>
        <time>2024-09-19T08:08:09Z</time>
      </trkpt>
      <trkpt lat="46.4431" lon="4.88512">
        <ele>185.6</ele>
        <time>2024-09-19T08:08:10Z</time>
      </trkpt>
      <trkpt lat="46.44309" lon="4.88513">
        <ele>185.6</ele>
        <time>2024-09-19T08:08:11Z</time>
      </trkpt>
      <trkpt lat="46.44308" lon="4.88514">
        <ele>185.6</ele>
        <time>2024-09-19T08:08:12Z</time>
      </trkpt>
      <trkpt lat="46.44307" lon="4.88513">
        <ele>185.6</ele>
        <time>2024-09-19T08:08:13Z</time>
      </trkpt>
      <trkpt lat="46.44305" lon="4.88512">
        <ele>185.6</ele>
        <time>2024-09-19T08:08:14Z</time>
      </trkpt>
      <trkpt lat="46.44304" lon="4.88511">
        <ele>185.8</ele>
        <time>2024-09-19T08:08:15Z</time>
      </trkpt>
      <trkpt lat="46.44302" lon="4.8851">
        <ele>185.8</ele>
        <time>2024-09-19T08:08:16Z</time>
      </trkpt>
      <trkpt lat="46.44301" lon="4.88509">
        <ele>185.8</ele>
        <time>2024-09-19T08:08:17Z</time>
      </trkpt>
      <trkpt lat="46.44299" lon="4.88508">
        <ele>185.8</ele>
        <time>2024-09-19T08:08:18Z</time>
      </trkpt>
      <trkpt lat="46.44297" lon="4.88507">
        <ele>185.8</ele>
        <time>2024-09-19T08:08:19Z</time>
      </trkpt>
      <trkpt lat="46.44293" lon="4.88505">
        <ele>185.8</ele>
        <time>2024-09-19T08:08:20Z</time>
      </trkpt>
      <trkpt lat="46.44291" lon="4.88504">
        <ele>185.8</ele>
        <time>2024-09-19T08:08:21Z</time>
      </trkpt>
      <trkpt lat="46.44289" lon="4.88502">
        <ele>185.8</ele>
        <time>2024-09-19T08:08:22Z</time>
      </trkpt>
      <trkpt lat="46.44287" lon="4.88499">
        <ele>185.8</ele>
        <time>2024-09-19T08:08:23Z</time>
      </trkpt>
      <trkpt lat="46.44285" lon="4.88495">
        <ele>186.2</ele>
        <time>2024-09-19T08:08:24Z</time>
      </trkpt>
      <trkpt lat="46.44282" lon="4.88491">
        <ele>185.8</ele>
        <time>2024-09-19T08:08:25Z</time>
      </trkpt>
      <trkpt lat="46.44279" lon="4.88488">
        <ele>185.8</ele>
        <time>2024-09-19T08:08:26Z</time>
      </trkpt>
      <trkpt lat="46.44276" lon="4.88485">
        <ele>185.8</ele>
        <time>2024-09-19T08:08:27Z</time>
      </trkpt>
      <trkpt lat="46.44272" lon="4.88483">
        <ele>185.8</ele>
        <time>2024-09-19T08:08:28Z</time>
      </trkpt>
      <trkpt lat="46.44269" lon="4.88481">
        <ele>185.8</ele>
        <time>2024-09-19T08:08:29Z</time>
      </trkpt>
      <trkpt lat="46.44263" lon="4.88477">
        <ele>185.8</ele>
        <time>2024-09-19T08:08:30Z</time>
      </trkpt>
      <trkpt lat="46.44261" lon="4.88476">
        <ele>185.8</ele>
        <time>2024-09-19T08:08:31Z</time>
      </trkpt>
      <trkpt lat="46.44255" lon="4.88473">
        <ele>186.2</ele>
        <time>2024-09-19T08:08:32Z</time>
      </trkpt>
      <trkpt lat="46.44253" lon="4.88472">
        <ele>186</ele>
        <time>2024-09-19T08:08:33Z</time>
      </trkpt>
      <trkpt lat="46.44248" lon="4.88469">
        <ele>186</ele>
        <time>2024-09-19T08:08:34Z</time>
      </trkpt>
      <trkpt lat="46.44246" lon="4.88469">
        <ele>186</ele>
        <time>2024-09-19T08:08:35Z</time>
      </trkpt>
      <trkpt lat="46.44243" lon="4.88467">
        <ele>186</ele>
        <time>2024-09-19T08:08:36Z</time>
      </trkpt>
      <trkpt lat="46.44239" lon="4.88466">
        <ele>186</ele>
        <time>2024-09-19T08:08:37Z</time>
      </trkpt>
      <trkpt lat="46.44234" lon="4.88463">
        <ele>186</ele>
        <time>2024-09-19T08:08:38Z</time>
      </trkpt>
      <trkpt lat="46.44232" lon="4.88462">
        <ele>186</ele>
        <time>2024-09-19T08:08:39Z</time>
      </trkpt>
      <trkpt lat="46.44228" lon="4.88461">
        <ele>186</ele>
        <time>2024-09-19T08:08:40Z</time>
      </trkpt>
      <trkpt lat="46.44224" lon="4.88459">
        <ele>186</ele>
        <time>2024-09-19T08:08:41Z</time>
      </trkpt>
      <trkpt lat="46.4422" lon="4.88457">
        <ele>186.2</ele>
        <time>2024-09-19T08:08:42Z</time>
      </trkpt>
      <trkpt lat="46.44216" lon="4.88455">
        <ele>186.2</ele>
        <time>2024-09-19T08:08:43Z</time>
      </trkpt>
      <trkpt lat="46.4421" lon="4.88452">
        <ele>186.2</ele>
        <time>2024-09-19T08:08:44Z</time>
      </trkpt>
      <trkpt lat="46.44208" lon="4.88451">
        <ele>186.2</ele>
        <time>2024-09-19T08:08:45Z</time>
      </trkpt>
      <trkpt lat="46.44202" lon="4.88448">
        <ele>186.2</ele>
        <time>2024-09-19T08:08:46Z</time>
      </trkpt>
      <trkpt lat="46.442" lon="4.88447">
        <ele>186.2</ele>
        <time>2024-09-19T08:08:47Z</time>
      </trkpt>
      <trkpt lat="46.44194" lon="4.88444">
        <ele>186.2</ele>
        <time>2024-09-19T08:08:48Z</time>
      </trkpt>
      <trkpt lat="46.44191" lon="4.88443">
        <ele>186.2</ele>
        <time>2024-09-19T08:08:49Z</time>
      </trkpt>
      <trkpt lat="46.44185" lon="4.8844">
        <ele>186.2</ele>
        <time>2024-09-19T08:08:50Z</time>
      </trkpt>
      <trkpt lat="46.44183" lon="4.88439">
        <ele>186.2</ele>
        <time>2024-09-19T08:08:51Z</time>
      </trkpt>
      <trkpt lat="46.44178" lon="4.88437">
        <ele>186.2</ele>
        <time>2024-09-19T08:08:52Z</time>
      </trkpt>
      <trkpt lat="46.44174" lon="4.88435">
        <ele>186.2</ele>
        <time>2024-09-19T08:08:53Z</time>
      </trkpt>
      <trkpt lat="46.44169" lon="4.88432">
        <ele>186.2</ele>
        <time>2024-09-19T08:08:54Z</time>
      </trkpt>
      <trkpt lat="46.44165" lon="4.8843">
        <ele>186</ele>
        <time>2024-09-19T08:08:55Z</time>
      </trkpt>
      <trkpt lat="46.4416" lon="4.88428">
        <ele>186</ele>
        <time>2024-09-19T08:08:56Z</time>
      </trkpt>
      <trkpt lat="46.44156" lon="4.88426">
        <ele>186</ele>
        <time>2024-09-19T08:08:57Z</time>
      </trkpt>
      <trkpt lat="46.44149" lon="4.88423">
        <ele>186</ele>
        <time>2024-09-19T08:08:58Z</time>
      </trkpt>
      <trkpt lat="46.44146" lon="4.88422">
        <ele>186</ele>
        <time>2024-09-19T08:08:59Z</time>
      </trkpt>
      <trkpt lat="46.4414" lon="4.88419">
        <ele>186</ele>
        <time>2024-09-19T08:09:00Z</time>
      </trkpt>
      <trkpt lat="46.44137" lon="4.88418">
        <ele>186</ele>
        <time>2024-09-19T08:09:01Z</time>
      </trkpt>
      <trkpt lat="46.44133" lon="4.88415">
        <ele>186</ele>
        <time>2024-09-19T08:09:02Z</time>
      </trkpt>
      <trkpt lat="46.44128" lon="4.88413">
        <ele>186</ele>
        <time>2024-09-19T08:09:03Z</time>
      </trkpt>
      <trkpt lat="46.44123" lon="4.88411">
        <ele>186</ele>
        <time>2024-09-19T08:09:04Z</time>
      </trkpt>
      <trkpt lat="46.44119" lon="4.88408">
        <ele>185.8</ele>
        <time>2024-09-19T08:09:05Z</time>
      </trkpt>
      <trkpt lat="46.44114" lon="4.88406">
        <ele>185.8</ele>
        <time>2024-09-19T08:09:06Z</time>
      </trkpt>
      <trkpt lat="46.44109" lon="4.88403">
        <ele>185.8</ele>
        <time>2024-09-19T08:09:07Z</time>
      </trkpt>
      <trkpt lat="46.44104" lon="4.88401">
        <ele>185.8</ele>
        <time>2024-09-19T08:09:08Z</time>
      </trkpt>
      <trkpt lat="46.44099" lon="4.88399">
        <ele>186</ele>
        <time>2024-09-19T08:09:09Z</time>
      </trkpt>
      <trkpt lat="46.44095" lon="4.88396">
        <ele>185.8</ele>
        <time>2024-09-19T08:09:10Z</time>
      </trkpt>
      <trkpt lat="46.4409" lon="4.88394">
        <ele>185.8</ele>
        <time>2024-09-19T08:09:11Z</time>
      </trkpt>
      <trkpt lat="46.44085" lon="4.88391">
        <ele>185.8</ele>
        <time>2024-09-19T08:09:12Z</time>
      </trkpt>
      <trkpt lat="46.44081" lon="4.88389">
        <ele>185.8</ele>
        <time>2024-09-19T08:09:13Z</time>
      </trkpt>
      <trkpt lat="46.44074" lon="4.88386">
        <ele>186</ele>
        <time>2024-09-19T08:09:14Z</time>
      </trkpt>
      <trkpt lat="46.44072" lon="4.88384">
        <ele>186</ele>
        <time>2024-09-19T08:09:15Z</time>
      </trkpt>
      <trkpt lat="46.44065" lon="4.88381">
        <ele>186</ele>
        <time>2024-09-19T08:09:16Z</time>
      </trkpt>
      <trkpt lat="46.44062" lon="4.88379">
        <ele>186</ele>
        <time>2024-09-19T08:09:17Z</time>
      </trkpt>
      <trkpt lat="46.44055" lon="4.88375">
        <ele>186</ele>
        <time>2024-09-19T08:09:18Z</time>
      </trkpt>
      <trkpt lat="46.44053" lon="4.88374">
        <ele>186</ele>
        <time>2024-09-19T08:09:19Z</time>
      </trkpt>
      <trkpt lat="46.44048" lon="4.88372">
        <ele>186</ele>
        <time>2024-09-19T08:09:20Z</time>
      </trkpt>
      <trkpt lat="46.44043" lon="4.88369">
        <ele>186</ele>
        <time>2024-09-19T08:09:21Z</time>
      </trkpt>
      <trkpt lat="46.44038" lon="4.88367">
        <ele>186</ele>
        <time>2024-09-19T08:09:22Z</time>
      </trkpt>
      <trkpt lat="46.44033" lon="4.88364">
        <ele>185.6</ele>
        <time>2024-09-19T08:09:23Z</time>
      </trkpt>
      <trkpt lat="46.44029" lon="4.88362">
        <ele>185.6</ele>
        <time>2024-09-19T08:09:24Z</time>
      </trkpt>
      <trkpt lat="46.44024" lon="4.8836">
        <ele>185.6</ele>
        <time>2024-09-19T08:09:25Z</time>
      </trkpt>
      <trkpt lat="46.44016" lon="4.88356">
        <ele>185.6</ele>
        <time>2024-09-19T08:09:26Z</time>
      </trkpt>
      <trkpt lat="46.44014" lon="4.88355">
        <ele>185.8</ele>
        <time>2024-09-19T08:09:27Z</time>
      </trkpt>
      <trkpt lat="46.44007" lon="4.88352">
        <ele>185.8</ele>
        <time>2024-09-19T08:09:28Z</time>
      </trkpt>
      <trkpt lat="46.44004" lon="4.8835">
        <ele>185.8</ele>
        <time>2024-09-19T08:09:29Z</time>
      </trkpt>
      <trkpt lat="46.43997" lon="4.88347">
        <ele>185.8</ele>
        <time>2024-09-19T08:09:30Z</time>
      </trkpt>
      <trkpt lat="46.43995" lon="4.88346">
        <ele>185.8</ele>
        <time>2024-09-19T08:09:31Z</time>
      </trkpt>
      <trkpt lat="46.4399" lon="4.88344">
        <ele>185.6</ele>
        <time>2024-09-19T08:09:32Z</time>
      </trkpt>
      <trkpt lat="46.43983" lon="4.88341">
        <ele>185.6</ele>
        <time>2024-09-19T08:09:33Z</time>
      </trkpt>
      <trkpt lat="46.4398" lon="4.8834">
        <ele>185.6</ele>
        <time>2024-09-19T08:09:34Z</time>
      </trkpt>
      <trkpt lat="46.43976" lon="4.88338">
        <ele>185.6</ele>
        <time>2024-09-19T08:09:35Z</time>
      </trkpt>
      <trkpt lat="46.43971" lon="4.88336">
        <ele>185.8</ele>
        <time>2024-09-19T08:09:36Z</time>
      </trkpt>
      <trkpt lat="46.43967" lon="4.88334">
        <ele>185.8</ele>
        <time>2024-09-19T08:09:37Z</time>
      </trkpt>
      <trkpt lat="46.43962" lon="4.88332">
        <ele>185.8</ele>
        <time>2024-09-19T08:09:38Z</time>
      </trkpt>
      <trkpt lat="46.43955" lon="4.88329">
        <ele>186</ele>
        <time>2024-09-19T08:09:39Z</time>
      </trkpt>
      <trkpt lat="46.43953" lon="4.88328">
        <ele>186</ele>
        <time>2024-09-19T08:09:40Z</time>
      </trkpt>
      <trkpt lat="46.43947" lon="4.88325">
        <ele>186</ele>
        <time>2024-09-19T08:09:41Z</time>
      </trkpt>
      <trkpt lat="46.43945" lon="4.88324">
        <ele>186</ele>
        <time>2024-09-19T08:09:42Z</time>
      </trkpt>
      <trkpt lat="46.43939" lon="4.88321">
        <ele>186</ele>
        <time>2024-09-19T08:09:43Z</time>
      </trkpt>
      <trkpt lat="46.43937" lon="4.8832">
        <ele>186</ele>
        <time>2024-09-19T08:09:44Z</time>
      </trkpt>
      <trkpt lat="46.43934" lon="4.88319">
        <ele>186.4</ele>
        <time>2024-09-19T08:09:45Z</time>
      </trkpt>
      <trkpt lat="46.4393" lon="4.88317">
        <ele>186.4</ele>
        <time>2024-09-19T08:09:46Z</time>
      </trkpt>
      <trkpt lat="46.43926" lon="4.88316">
        <ele>186.4</ele>
        <time>2024-09-19T08:09:47Z</time>
      </trkpt>
      <trkpt lat="46.43923" lon="4.88316">
        <ele>186.4</ele>
        <time>2024-09-19T08:09:48Z</time>
      </trkpt>
      <trkpt lat="46.4392" lon="4.88316">
        <ele>186.4</ele>
        <time>2024-09-19T08:09:49Z</time>
      </trkpt>
      <trkpt lat="46.43916" lon="4.88315">
        <ele>186.4</ele>
        <time>2024-09-19T08:09:50Z</time>
      </trkpt>
      <trkpt lat="46.43913" lon="4.88315">
        <ele>186.4</ele>
        <time>2024-09-19T08:09:51Z</time>
      </trkpt>
      <trkpt lat="46.43909" lon="4.88316">
        <ele>186.4</ele>
        <time>2024-09-19T08:09:52Z</time>
      </trkpt>
      <trkpt lat="46.43903" lon="4.88321">
        <ele>186.4</ele>
        <time>2024-09-19T08:09:53Z</time>
      </trkpt>
      <trkpt lat="46.43902" lon="4.88323">
        <ele>185.6</ele>
        <time>2024-09-19T08:09:54Z</time>
      </trkpt>
      <trkpt lat="46.439" lon="4.88329">
        <ele>185.8</ele>
        <time>2024-09-19T08:09:55Z</time>
      </trkpt>
      <trkpt lat="46.439" lon="4.88336">
        <ele>185.8</ele>
        <time>2024-09-19T08:09:56Z</time>
      </trkpt>
      <trkpt lat="46.43899" lon="4.88345">
        <ele>185.8</ele>
        <time>2024-09-19T08:09:57Z</time>
      </trkpt>
      <trkpt lat="46.43899" lon="4.88348">
        <ele>185.8</ele>
        <time>2024-09-19T08:09:58Z</time>
      </trkpt>
      <trkpt lat="46.43899" lon="4.88356">
        <ele>185</ele>
        <time>2024-09-19T08:09:59Z</time>
      </trkpt>
      <trkpt lat="46.43898" lon="4.88359">
        <ele>185</ele>
        <time>2024-09-19T08:10:00Z</time>
      </trkpt>
      <trkpt lat="46.43898" lon="4.88364">
        <ele>185</ele>
        <time>2024-09-19T08:10:01Z</time>
      </trkpt>
      <trkpt lat="46.43898" lon="4.88369">
        <ele>185.2</ele>
        <time>2024-09-19T08:10:02Z</time>
      </trkpt>
      <trkpt lat="46.43898" lon="4.88374">
        <ele>185.2</ele>
        <time>2024-09-19T08:10:03Z</time>
      </trkpt>
      <trkpt lat="46.43897" lon="4.88379">
        <ele>185.2</ele>
        <time>2024-09-19T08:10:04Z</time>
      </trkpt>
      <trkpt lat="46.43897" lon="4.88384">
        <ele>185.2</ele>
        <time>2024-09-19T08:10:05Z</time>
      </trkpt>
      <trkpt lat="46.43896" lon="4.88389">
        <ele>185.2</ele>
        <time>2024-09-19T08:10:06Z</time>
      </trkpt>
      <trkpt lat="46.43895" lon="4.88395">
        <ele>185.2</ele>
        <time>2024-09-19T08:10:07Z</time>
      </trkpt>
      <trkpt lat="46.43895" lon="4.884">
        <ele>185.2</ele>
        <time>2024-09-19T08:10:08Z</time>
      </trkpt>
      <trkpt lat="46.43894" lon="4.88409">
        <ele>185.2</ele>
        <time>2024-09-19T08:10:09Z</time>
      </trkpt>
      <trkpt lat="46.43893" lon="4.88412">
        <ele>185.2</ele>
        <time>2024-09-19T08:10:10Z</time>
      </trkpt>
      <trkpt lat="46.43892" lon="4.88421">
        <ele>185.2</ele>
        <time>2024-09-19T08:10:11Z</time>
      </trkpt>
      <trkpt lat="46.43891" lon="4.88424">
        <ele>185.2</ele>
        <time>2024-09-19T08:10:12Z</time>
      </trkpt>
      <trkpt lat="46.4389" lon="4.88434">
        <ele>185.2</ele>
        <time>2024-09-19T08:10:13Z</time>
      </trkpt>
      <trkpt lat="46.43889" lon="4.88437">
        <ele>185.2</ele>
        <time>2024-09-19T08:10:14Z</time>
      </trkpt>
      <trkpt lat="46.43888" lon="4.88448">
        <ele>185.2</ele>
        <time>2024-09-19T08:10:15Z</time>
      </trkpt>
      <trkpt lat="46.43887" lon="4.88451">
        <ele>184.6</ele>
        <time>2024-09-19T08:10:16Z</time>
      </trkpt>
      <trkpt lat="46.43885" lon="4.88461">
        <ele>184.6</ele>
        <time>2024-09-19T08:10:17Z</time>
      </trkpt>
      <trkpt lat="46.43885" lon="4.88465">
        <ele>184.6</ele>
        <time>2024-09-19T08:10:18Z</time>
      </trkpt>
      <trkpt lat="46.43883" lon="4.88471">
        <ele>184.6</ele>
        <time>2024-09-19T08:10:19Z</time>
      </trkpt>
      <trkpt lat="46.43881" lon="4.88478">
        <ele>184.6</ele>
        <time>2024-09-19T08:10:20Z</time>
      </trkpt>
      <trkpt lat="46.43879" lon="4.88484">
        <ele>184.6</ele>
        <time>2024-09-19T08:10:21Z</time>
      </trkpt>
      <trkpt lat="46.43875" lon="4.88489">
        <ele>184.6</ele>
        <time>2024-09-19T08:10:22Z</time>
      </trkpt>
      <trkpt lat="46.43869" lon="4.88492">
        <ele>184.6</ele>
        <time>2024-09-19T08:10:23Z</time>
      </trkpt>
      <trkpt lat="46.43867" lon="4.88492">
        <ele>184.6</ele>
        <time>2024-09-19T08:10:24Z</time>
      </trkpt>
      <trkpt lat="46.4386" lon="4.8849">
        <ele>185.4</ele>
        <time>2024-09-19T08:10:25Z</time>
      </trkpt>
      <trkpt lat="46.43858" lon="4.8849">
        <ele>185.4</ele>
        <time>2024-09-19T08:10:26Z</time>
      </trkpt>
      <trkpt lat="46.43854" lon="4.88488">
        <ele>185.4</ele>
        <time>2024-09-19T08:10:27Z</time>
      </trkpt>
      <trkpt lat="46.4385" lon="4.88487">
        <ele>185.4</ele>
        <time>2024-09-19T08:10:28Z</time>
      </trkpt>
      <trkpt lat="46.43844" lon="4.88484">
        <ele>185.4</ele>
        <time>2024-09-19T08:10:29Z</time>
      </trkpt>
      <trkpt lat="46.43841" lon="4.88484">
        <ele>185.4</ele>
        <time>2024-09-19T08:10:30Z</time>
      </trkpt>
      <trkpt lat="46.43837" lon="4.88482">
        <ele>185</ele>
        <time>2024-09-19T08:10:31Z</time>
      </trkpt>
      <trkpt lat="46.43831" lon="4.8848">
        <ele>185</ele>
        <time>2024-09-19T08:10:32Z</time>
      </trkpt>
      <trkpt lat="46.43829" lon="4.88479">
        <ele>185</ele>
        <time>2024-09-19T08:10:33Z</time>
      </trkpt>
      <trkpt lat="46.43824" lon="4.88477">
        <ele>185</ele>
        <time>2024-09-19T08:10:34Z</time>
      </trkpt>
      <trkpt lat="46.4382" lon="4.88475">
        <ele>185</ele>
        <time>2024-09-19T08:10:35Z</time>
      </trkpt>
      <trkpt lat="46.43815" lon="4.88473">
        <ele>185</ele>
        <time>2024-09-19T08:10:36Z</time>
      </trkpt>
      <trkpt lat="46.43811" lon="4.88472">
        <ele>185</ele>
        <time>2024-09-19T08:10:37Z</time>
      </trkpt>
      <trkpt lat="46.43806" lon="4.8847">
        <ele>185</ele>
        <time>2024-09-19T08:10:38Z</time>
      </trkpt>
      <trkpt lat="46.43801" lon="4.88468">
        <ele>185</ele>
        <time>2024-09-19T08:10:39Z</time>
      </trkpt>
      <trkpt lat="46.43797" lon="4.88466">
        <ele>185</ele>
        <time>2024-09-19T08:10:40Z</time>
      </trkpt>
      <trkpt lat="46.4379" lon="4.88464">
        <ele>185</ele>
        <time>2024-09-19T08:10:41Z</time>
      </trkpt>
      <trkpt lat="46.43788" lon="4.88463">
        <ele>185</ele>
        <time>2024-09-19T08:10:42Z</time>
      </trkpt>
      <trkpt lat="46.43781" lon="4.8846">
        <ele>185.2</ele>
        <time>2024-09-19T08:10:43Z</time>
      </trkpt>
      <trkpt lat="46.43778" lon="4.8846">
        <ele>185</ele>
        <time>2024-09-19T08:10:44Z</time>
      </trkpt>
      <trkpt lat="46.43773" lon="4.88458">
        <ele>185</ele>
        <time>2024-09-19T08:10:45Z</time>
      </trkpt>
      <trkpt lat="46.43769" lon="4.88456">
        <ele>185</ele>
        <time>2024-09-19T08:10:46Z</time>
      </trkpt>
      <trkpt lat="46.43764" lon="4.88454">
        <ele>185</ele>
        <time>2024-09-19T08:10:47Z</time>
      </trkpt>
      <trkpt lat="46.43759" lon="4.88453">
        <ele>185.2</ele>
        <time>2024-09-19T08:10:48Z</time>
      </trkpt>
      <trkpt lat="46.43755" lon="4.88451">
        <ele>185.2</ele>
        <time>2024-09-19T08:10:49Z</time>
      </trkpt>
      <trkpt lat="46.4375" lon="4.88449">
        <ele>185.2</ele>
        <time>2024-09-19T08:10:50Z</time>
      </trkpt>
      <trkpt lat="46.43745" lon="4.88447">
        <ele>185.2</ele>
        <time>2024-09-19T08:10:51Z</time>
      </trkpt>
      <trkpt lat="46.43738" lon="4.88445">
        <ele>185.2</ele>
        <time>2024-09-19T08:10:52Z</time>
      </trkpt>
      <trkpt lat="46.43736" lon="4.88444">
        <ele>185.2</ele>
        <time>2024-09-19T08:10:53Z</time>
      </trkpt>
      <trkpt lat="46.43729" lon="4.88442">
        <ele>185.2</ele>
        <time>2024-09-19T08:10:54Z</time>
      </trkpt>
      <trkpt lat="46.43726" lon="4.88442">
        <ele>185.2</ele>
        <time>2024-09-19T08:10:55Z</time>
      </trkpt>
      <trkpt lat="46.43719" lon="4.8844">
        <ele>185.2</ele>
        <time>2024-09-19T08:10:56Z</time>
      </trkpt>
      <trkpt lat="46.43717" lon="4.88439">
        <ele>185.2</ele>
        <time>2024-09-19T08:10:57Z</time>
      </trkpt>
      <trkpt lat="46.43712" lon="4.88437">
        <ele>185.2</ele>
        <time>2024-09-19T08:10:58Z</time>
      </trkpt>
      <trkpt lat="46.43705" lon="4.88435">
        <ele>185.2</ele>
        <time>2024-09-19T08:10:59Z</time>
      </trkpt>
      <trkpt lat="46.43703" lon="4.88434">
        <ele>185.2</ele>
        <time>2024-09-19T08:11:00Z</time>
      </trkpt>
      <trkpt lat="46.43698" lon="4.88432">
        <ele>185.2</ele>
        <time>2024-09-19T08:11:01Z</time>
      </trkpt>
      <trkpt lat="46.43693" lon="4.88431">
        <ele>185.2</ele>
        <time>2024-09-19T08:11:02Z</time>
      </trkpt>
      <trkpt lat="46.43689" lon="4.88429">
        <ele>185.2</ele>
        <time>2024-09-19T08:11:03Z</time>
      </trkpt>
      <trkpt lat="46.43684" lon="4.88427">
        <ele>185.2</ele>
        <time>2024-09-19T08:11:04Z</time>
      </trkpt>
      <trkpt lat="46.4368" lon="4.88426">
        <ele>185.2</ele>
        <time>2024-09-19T08:11:05Z</time>
      </trkpt>
      <trkpt lat="46.43675" lon="4.88424">
        <ele>185.2</ele>
        <time>2024-09-19T08:11:06Z</time>
      </trkpt>
      <trkpt lat="46.4367" lon="4.88423">
        <ele>185.2</ele>
        <time>2024-09-19T08:11:07Z</time>
      </trkpt>
      <trkpt lat="46.43664" lon="4.88421">
        <ele>185.2</ele>
        <time>2024-09-19T08:11:08Z</time>
      </trkpt>
      <trkpt lat="46.43662" lon="4.8842">
        <ele>185.2</ele>
        <time>2024-09-19T08:11:09Z</time>
      </trkpt>
      <trkpt lat="46.43655" lon="4.88418">
        <ele>184.8</ele>
        <time>2024-09-19T08:11:10Z</time>
      </trkpt>
      <trkpt lat="46.43652" lon="4.88417">
        <ele>184.8</ele>
        <time>2024-09-19T08:11:11Z</time>
      </trkpt>
      <trkpt lat="46.43648" lon="4.88415">
        <ele>184.8</ele>
        <time>2024-09-19T08:11:12Z</time>
      </trkpt>
      <trkpt lat="46.43641" lon="4.88412">
        <ele>184.8</ele>
        <time>2024-09-19T08:11:13Z</time>
      </trkpt>
      <trkpt lat="46.43638" lon="4.88411">
        <ele>184.8</ele>
        <time>2024-09-19T08:11:14Z</time>
      </trkpt>
      <trkpt lat="46.43631" lon="4.88409">
        <ele>184.8</ele>
        <time>2024-09-19T08:11:15Z</time>
      </trkpt>
      <trkpt lat="46.43629" lon="4.88408">
        <ele>184.8</ele>
        <time>2024-09-19T08:11:16Z</time>
      </trkpt>
      <trkpt lat="46.43624" lon="4.88407">
        <ele>184.8</ele>
        <time>2024-09-19T08:11:17Z</time>
      </trkpt>
      <trkpt lat="46.43619" lon="4.88405">
        <ele>184.8</ele>
        <time>2024-09-19T08:11:18Z</time>
      </trkpt>
      <trkpt lat="46.43615" lon="4.88404">
        <ele>185</ele>
        <time>2024-09-19T08:11:19Z</time>
      </trkpt>
      <trkpt lat="46.4361" lon="4.88405">
        <ele>184.8</ele>
        <time>2024-09-19T08:11:20Z</time>
      </trkpt>
      <trkpt lat="46.43606" lon="4.88406">
        <ele>184.8</ele>
        <time>2024-09-19T08:11:21Z</time>
      </trkpt>
      <trkpt lat="46.43602" lon="4.88408">
        <ele>184.8</ele>
        <time>2024-09-19T08:11:22Z</time>
      </trkpt>
      <trkpt lat="46.43597" lon="4.88415">
        <ele>185</ele>
        <time>2024-09-19T08:11:23Z</time>
      </trkpt>
      <trkpt lat="46.43596" lon="4.88418">
        <ele>185</ele>
        <time>2024-09-19T08:11:24Z</time>
      </trkpt>
      <trkpt lat="46.43592" lon="4.88426">
        <ele>185</ele>
        <time>2024-09-19T08:11:25Z</time>
      </trkpt>
      <trkpt lat="46.43591" lon="4.88429">
        <ele>185</ele>
        <time>2024-09-19T08:11:26Z</time>
      </trkpt>
      <trkpt lat="46.43587" lon="4.88437">
        <ele>185</ele>
        <time>2024-09-19T08:11:27Z</time>
      </trkpt>
      <trkpt lat="46.43586" lon="4.8844">
        <ele>185</ele>
        <time>2024-09-19T08:11:28Z</time>
      </trkpt>
      <trkpt lat="46.43583" lon="4.88446">
        <ele>184.8</ele>
        <time>2024-09-19T08:11:29Z</time>
      </trkpt>
      <trkpt lat="46.43581" lon="4.88451">
        <ele>184.8</ele>
        <time>2024-09-19T08:11:30Z</time>
      </trkpt>
      <trkpt lat="46.43579" lon="4.88457">
        <ele>184.8</ele>
        <time>2024-09-19T08:11:31Z</time>
      </trkpt>
      <trkpt lat="46.43577" lon="4.88463">
        <ele>184.8</ele>
        <time>2024-09-19T08:11:32Z</time>
      </trkpt>
      <trkpt lat="46.43574" lon="4.88468">
        <ele>185.2</ele>
        <time>2024-09-19T08:11:33Z</time>
      </trkpt>
      <trkpt lat="46.43572" lon="4.88474">
        <ele>185.2</ele>
        <time>2024-09-19T08:11:34Z</time>
      </trkpt>
      <trkpt lat="46.4357" lon="4.8848">
        <ele>185.2</ele>
        <time>2024-09-19T08:11:35Z</time>
      </trkpt>
      <trkpt lat="46.43567" lon="4.88486">
        <ele>185.2</ele>
        <time>2024-09-19T08:11:36Z</time>
      </trkpt>
      <trkpt lat="46.43564" lon="4.88495">
        <ele>184.6</ele>
        <time>2024-09-19T08:11:37Z</time>
      </trkpt>
      <trkpt lat="46.43563" lon="4.88498">
        <ele>185</ele>
        <time>2024-09-19T08:11:38Z</time>
      </trkpt>
      <trkpt lat="46.43559" lon="4.88507">
        <ele>185</ele>
        <time>2024-09-19T08:11:39Z</time>
      </trkpt>
      <trkpt lat="46.43558" lon="4.8851">
        <ele>185</ele>
        <time>2024-09-19T08:11:40Z</time>
      </trkpt>
      <trkpt lat="46.43556" lon="4.88516">
        <ele>185</ele>
        <time>2024-09-19T08:11:41Z</time>
      </trkpt>
      <trkpt lat="46.43552" lon="4.88524">
        <ele>185</ele>
        <time>2024-09-19T08:11:42Z</time>
      </trkpt>
      <trkpt lat="46.43551" lon="4.88527">
        <ele>185</ele>
        <time>2024-09-19T08:11:43Z</time>
      </trkpt>
      <trkpt lat="46.43548" lon="4.88536">
        <ele>185</ele>
        <time>2024-09-19T08:11:44Z</time>
      </trkpt>
      <trkpt lat="46.43547" lon="4.88539">
        <ele>184.8</ele>
        <time>2024-09-19T08:11:45Z</time>
      </trkpt>
      <trkpt lat="46.43545" lon="4.88545">
        <ele>185</ele>
        <time>2024-09-19T08:11:46Z</time>
      </trkpt>
      <trkpt lat="46.43542" lon="4.88551">
        <ele>185</ele>
        <time>2024-09-19T08:11:47Z</time>
      </trkpt>
      <trkpt lat="46.4354" lon="4.88557">
        <ele>185</ele>
        <time>2024-09-19T08:11:48Z</time>
      </trkpt>
      <trkpt lat="46.43538" lon="4.88563">
        <ele>185</ele>
        <time>2024-09-19T08:11:49Z</time>
      </trkpt>
      <trkpt lat="46.43535" lon="4.88569">
        <ele>185</ele>
        <time>2024-09-19T08:11:50Z</time>
      </trkpt>
      <trkpt lat="46.43531" lon="4.88578">
        <ele>185</ele>
        <time>2024-09-19T08:11:51Z</time>
      </trkpt>
      <trkpt lat="46.4353" lon="4.88581">
        <ele>185</ele>
        <time>2024-09-19T08:11:52Z</time>
      </trkpt>
      <trkpt lat="46.43528" lon="4.88587">
        <ele>185</ele>
        <time>2024-09-19T08:11:53Z</time>
      </trkpt>
      <trkpt lat="46.43525" lon="4.88593">
        <ele>185</ele>
        <time>2024-09-19T08:11:54Z</time>
      </trkpt>
      <trkpt lat="46.43523" lon="4.88599">
        <ele>185</ele>
        <time>2024-09-19T08:11:55Z</time>
      </trkpt>
      <trkpt lat="46.43521" lon="4.88605">
        <ele>185</ele>
        <time>2024-09-19T08:11:56Z</time>
      </trkpt>
      <trkpt lat="46.43518" lon="4.88611">
        <ele>185</ele>
        <time>2024-09-19T08:11:57Z</time>
      </trkpt>
      <trkpt lat="46.43516" lon="4.88617">
        <ele>185</ele>
        <time>2024-09-19T08:11:58Z</time>
      </trkpt>
      <trkpt lat="46.43513" lon="4.88623">
        <ele>185</ele>
        <time>2024-09-19T08:11:59Z</time>
      </trkpt>
      <trkpt lat="46.43511" lon="4.88629">
        <ele>185</ele>
        <time>2024-09-19T08:12:00Z</time>
      </trkpt>
      <trkpt lat="46.43508" lon="4.88634">
        <ele>185</ele>
        <time>2024-09-19T08:12:01Z</time>
      </trkpt>
      <trkpt lat="46.43506" lon="4.8864">
        <ele>185</ele>
        <time>2024-09-19T08:12:02Z</time>
      </trkpt>
      <trkpt lat="46.43503" lon="4.88646">
        <ele>185</ele>
        <time>2024-09-19T08:12:03Z</time>
      </trkpt>
      <trkpt lat="46.43501" lon="4.88651">
        <ele>185</ele>
        <time>2024-09-19T08:12:04Z</time>
      </trkpt>
      <trkpt lat="46.43499" lon="4.88657">
        <ele>185</ele>
        <time>2024-09-19T08:12:05Z</time>
      </trkpt>
      <trkpt lat="46.43496" lon="4.88663">
        <ele>185</ele>
        <time>2024-09-19T08:12:06Z</time>
      </trkpt>
      <trkpt lat="46.43493" lon="4.88671">
        <ele>185</ele>
        <time>2024-09-19T08:12:07Z</time>
      </trkpt>
      <trkpt lat="46.43492" lon="4.88674">
        <ele>185</ele>
        <time>2024-09-19T08:12:08Z</time>
      </trkpt>
      <trkpt lat="46.43488" lon="4.88683">
        <ele>185</ele>
        <time>2024-09-19T08:12:09Z</time>
      </trkpt>
      <trkpt lat="46.43487" lon="4.88686">
        <ele>184.8</ele>
        <time>2024-09-19T08:12:10Z</time>
      </trkpt>
      <trkpt lat="46.43484" lon="4.88692">
        <ele>184.8</ele>
        <time>2024-09-19T08:12:11Z</time>
      </trkpt>
      <trkpt lat="46.43482" lon="4.88698">
        <ele>184.8</ele>
        <time>2024-09-19T08:12:12Z</time>
      </trkpt>
      <trkpt lat="46.4348" lon="4.88704">
        <ele>184.8</ele>
        <time>2024-09-19T08:12:13Z</time>
      </trkpt>
      <trkpt lat="46.43478" lon="4.8871">
        <ele>184.8</ele>
        <time>2024-09-19T08:12:14Z</time>
      </trkpt>
      <trkpt lat="46.43476" lon="4.88716">
        <ele>184.8</ele>
        <time>2024-09-19T08:12:15Z</time>
      </trkpt>
      <trkpt lat="46.43474" lon="4.88722">
        <ele>184.8</ele>
        <time>2024-09-19T08:12:16Z</time>
      </trkpt>
      <trkpt lat="46.43472" lon="4.88727">
        <ele>184.8</ele>
        <time>2024-09-19T08:12:17Z</time>
      </trkpt>
      <trkpt lat="46.43471" lon="4.88733">
        <ele>185</ele>
        <time>2024-09-19T08:12:18Z</time>
      </trkpt>
      <trkpt lat="46.43468" lon="4.88742">
        <ele>185</ele>
        <time>2024-09-19T08:12:19Z</time>
      </trkpt>
      <trkpt lat="46.43468" lon="4.88745">
        <ele>185</ele>
        <time>2024-09-19T08:12:20Z</time>
      </trkpt>
      <trkpt lat="46.43464" lon="4.88752">
        <ele>185</ele>
        <time>2024-09-19T08:12:21Z</time>
      </trkpt>
      <trkpt lat="46.43463" lon="4.88754">
        <ele>185</ele>
        <time>2024-09-19T08:12:22Z</time>
      </trkpt>
      <trkpt lat="46.4346" lon="4.88756">
        <ele>184.6</ele>
        <time>2024-09-19T08:12:23Z</time>
      </trkpt>
      <trkpt lat="46.43457" lon="4.88755">
        <ele>184.6</ele>
        <time>2024-09-19T08:12:24Z</time>
      </trkpt>
      <trkpt lat="46.43452" lon="4.88753">
        <ele>184.6</ele>
        <time>2024-09-19T08:12:25Z</time>
      </trkpt>
      <trkpt lat="46.43451" lon="4.88753">
        <ele>184.4</ele>
        <time>2024-09-19T08:12:26Z</time>
      </trkpt>
      <trkpt lat="46.43447" lon="4.88753">
        <ele>184.4</ele>
        <time>2024-09-19T08:12:27Z</time>
      </trkpt>
      <trkpt lat="46.43444" lon="4.88753">
        <ele>184.4</ele>
        <time>2024-09-19T08:12:28Z</time>
      </trkpt>
      <trkpt lat="46.43441" lon="4.88754">
        <ele>184.4</ele>
        <time>2024-09-19T08:12:29Z</time>
      </trkpt>
      <trkpt lat="46.43437" lon="4.88755">
        <ele>184.4</ele>
        <time>2024-09-19T08:12:30Z</time>
      </trkpt>
      <trkpt lat="46.43433" lon="4.88757">
        <ele>184.2</ele>
        <time>2024-09-19T08:12:31Z</time>
      </trkpt>
      <trkpt lat="46.43429" lon="4.88758">
        <ele>184</ele>
        <time>2024-09-19T08:12:32Z</time>
      </trkpt>
      <trkpt lat="46.43425" lon="4.88758">
        <ele>184</ele>
        <time>2024-09-19T08:12:33Z</time>
      </trkpt>
      <trkpt lat="46.43419" lon="4.88758">
        <ele>184</ele>
        <time>2024-09-19T08:12:34Z</time>
      </trkpt>
      <trkpt lat="46.43416" lon="4.88758">
        <ele>184</ele>
        <time>2024-09-19T08:12:35Z</time>
      </trkpt>
      <trkpt lat="46.43412" lon="4.88757">
        <ele>184.2</ele>
        <time>2024-09-19T08:12:36Z</time>
      </trkpt>
      <trkpt lat="46.43405" lon="4.88756">
        <ele>184.2</ele>
        <time>2024-09-19T08:12:37Z</time>
      </trkpt>
      <trkpt lat="46.43403" lon="4.88756">
        <ele>184.2</ele>
        <time>2024-09-19T08:12:38Z</time>
      </trkpt>
      <trkpt lat="46.43399" lon="4.88755">
        <ele>184.2</ele>
        <time>2024-09-19T08:12:39Z</time>
      </trkpt>
      <trkpt lat="46.43394" lon="4.88754">
        <ele>184.2</ele>
        <time>2024-09-19T08:12:40Z</time>
      </trkpt>
      <trkpt lat="46.43388" lon="4.88753">
        <ele>183.8</ele>
        <time>2024-09-19T08:12:41Z</time>
      </trkpt>
      <trkpt lat="46.43385" lon="4.88752">
        <ele>183.8</ele>
        <time>2024-09-19T08:12:42Z</time>
      </trkpt>
      <trkpt lat="46.43381" lon="4.88751">
        <ele>183.8</ele>
        <time>2024-09-19T08:12:43Z</time>
      </trkpt>
      <trkpt lat="46.43376" lon="4.88751">
        <ele>183.8</ele>
        <time>2024-09-19T08:12:44Z</time>
      </trkpt>
      <trkpt lat="46.4337" lon="4.8875">
        <ele>183.8</ele>
        <time>2024-09-19T08:12:45Z</time>
      </trkpt>
      <trkpt lat="46.43367" lon="4.88749">
        <ele>184.2</ele>
        <time>2024-09-19T08:12:46Z</time>
      </trkpt>
      <trkpt lat="46.43363" lon="4.88748">
        <ele>184.2</ele>
        <time>2024-09-19T08:12:47Z</time>
      </trkpt>
      <trkpt lat="46.43359" lon="4.88747">
        <ele>184.2</ele>
        <time>2024-09-19T08:12:48Z</time>
      </trkpt>
      <trkpt lat="46.43352" lon="4.88746">
        <ele>184.2</ele>
        <time>2024-09-19T08:12:49Z</time>
      </trkpt>
      <trkpt lat="46.4335" lon="4.88745">
        <ele>184.2</ele>
        <time>2024-09-19T08:12:50Z</time>
      </trkpt>
      <trkpt lat="46.43344" lon="4.88744">
        <ele>184.2</ele>
        <time>2024-09-19T08:12:51Z</time>
      </trkpt>
      <trkpt lat="46.43341" lon="4.88743">
        <ele>184.2</ele>
        <time>2024-09-19T08:12:52Z</time>
      </trkpt>
      <trkpt lat="46.43335" lon="4.88742">
        <ele>184.2</ele>
        <time>2024-09-19T08:12:53Z</time>
      </trkpt>
      <trkpt lat="46.43333" lon="4.88741">
        <ele>184.2</ele>
        <time>2024-09-19T08:12:54Z</time>
      </trkpt>
      <trkpt lat="46.43328" lon="4.8874">
        <ele>184.4</ele>
        <time>2024-09-19T08:12:55Z</time>
      </trkpt>
      <trkpt lat="46.43322" lon="4.88739">
        <ele>184.4</ele>
        <time>2024-09-19T08:12:56Z</time>
      </trkpt>
      <trkpt lat="46.4332" lon="4.88739">
        <ele>184.4</ele>
        <time>2024-09-19T08:12:57Z</time>
      </trkpt>
      <trkpt lat="46.43313" lon="4.88738">
        <ele>184.4</ele>
        <time>2024-09-19T08:12:58Z</time>
      </trkpt>
      <trkpt lat="46.43311" lon="4.88737">
        <ele>184</ele>
        <time>2024-09-19T08:12:59Z</time>
      </trkpt>
      <trkpt lat="46.43304" lon="4.88737">
        <ele>184</ele>
        <time>2024-09-19T08:13:00Z</time>
      </trkpt>
      <trkpt lat="46.43302" lon="4.88736">
        <ele>184</ele>
        <time>2024-09-19T08:13:01Z</time>
      </trkpt>
      <trkpt lat="46.43295" lon="4.88735">
        <ele>184</ele>
        <time>2024-09-19T08:13:02Z</time>
      </trkpt>
      <trkpt lat="46.43293" lon="4.88735">
        <ele>184.2</ele>
        <time>2024-09-19T08:13:03Z</time>
      </trkpt>
      <trkpt lat="46.43286" lon="4.88735">
        <ele>184.2</ele>
        <time>2024-09-19T08:13:04Z</time>
      </trkpt>
      <trkpt lat="46.43284" lon="4.88734">
        <ele>184.2</ele>
        <time>2024-09-19T08:13:05Z</time>
      </trkpt>
      <trkpt lat="46.43277" lon="4.88733">
        <ele>184.2</ele>
        <time>2024-09-19T08:13:06Z</time>
      </trkpt>
      <trkpt lat="46.43274" lon="4.88733">
        <ele>184.2</ele>
        <time>2024-09-19T08:13:07Z</time>
      </trkpt>
      <trkpt lat="46.43268" lon="4.88731">
        <ele>184.4</ele>
        <time>2024-09-19T08:13:08Z</time>
      </trkpt>
      <trkpt lat="46.43266" lon="4.88731">
        <ele>184.4</ele>
        <time>2024-09-19T08:13:09Z</time>
      </trkpt>
      <trkpt lat="46.43259" lon="4.88729">
        <ele>184.4</ele>
        <time>2024-09-19T08:13:10Z</time>
      </trkpt>
      <trkpt lat="46.43257" lon="4.88729">
        <ele>184.2</ele>
        <time>2024-09-19T08:13:11Z</time>
      </trkpt>
      <trkpt lat="46.43252" lon="4.88728">
        <ele>184.2</ele>
        <time>2024-09-19T08:13:12Z</time>
      </trkpt>
      <trkpt lat="46.43246" lon="4.88728">
        <ele>184</ele>
        <time>2024-09-19T08:13:13Z</time>
      </trkpt>
      <trkpt lat="46.43244" lon="4.88727">
        <ele>184</ele>
        <time>2024-09-19T08:13:14Z</time>
      </trkpt>
      <trkpt lat="46.43237" lon="4.88727">
        <ele>184.4</ele>
        <time>2024-09-19T08:13:15Z</time>
      </trkpt>
      <trkpt lat="46.43235" lon="4.88727">
        <ele>184.4</ele>
        <time>2024-09-19T08:13:16Z</time>
      </trkpt>
      <trkpt lat="46.43228" lon="4.88727">
        <ele>184.6</ele>
        <time>2024-09-19T08:13:17Z</time>
      </trkpt>
      <trkpt lat="46.43226" lon="4.88727">
        <ele>184.6</ele>
        <time>2024-09-19T08:13:18Z</time>
      </trkpt>
      <trkpt lat="46.4322" lon="4.88727">
        <ele>184.6</ele>
        <time>2024-09-19T08:13:19Z</time>
      </trkpt>
      <trkpt lat="46.43218" lon="4.88727">
        <ele>184.6</ele>
        <time>2024-09-19T08:13:20Z</time>
      </trkpt>
      <trkpt lat="46.43214" lon="4.88727">
        <ele>184.8</ele>
        <time>2024-09-19T08:13:21Z</time>
      </trkpt>
      <trkpt lat="46.4321" lon="4.88728">
        <ele>184.8</ele>
        <time>2024-09-19T08:13:22Z</time>
      </trkpt>
      <trkpt lat="46.43205" lon="4.88728">
        <ele>184.8</ele>
        <time>2024-09-19T08:13:23Z</time>
      </trkpt>
      <trkpt lat="46.43201" lon="4.88728">
        <ele>184.8</ele>
        <time>2024-09-19T08:13:24Z</time>
      </trkpt>
      <trkpt lat="46.43197" lon="4.88728">
        <ele>184.8</ele>
        <time>2024-09-19T08:13:25Z</time>
      </trkpt>
      <trkpt lat="46.43192" lon="4.88728">
        <ele>184.8</ele>
        <time>2024-09-19T08:13:26Z</time>
      </trkpt>
      <trkpt lat="46.43188" lon="4.88728">
        <ele>185</ele>
        <time>2024-09-19T08:13:27Z</time>
      </trkpt>
      <trkpt lat="46.43184" lon="4.88728">
        <ele>185</ele>
        <time>2024-09-19T08:13:28Z</time>
      </trkpt>
      <trkpt lat="46.43179" lon="4.88728">
        <ele>185</ele>
        <time>2024-09-19T08:13:29Z</time>
      </trkpt>
      <trkpt lat="46.43175" lon="4.88728">
        <ele>184.4</ele>
        <time>2024-09-19T08:13:30Z</time>
      </trkpt>
      <trkpt lat="46.4317" lon="4.88729">
        <ele>184.8</ele>
        <time>2024-09-19T08:13:31Z</time>
      </trkpt>
      <trkpt lat="46.43166" lon="4.8873">
        <ele>184.8</ele>
        <time>2024-09-19T08:13:32Z</time>
      </trkpt>
      <trkpt lat="46.43159" lon="4.88731">
        <ele>184.8</ele>
        <time>2024-09-19T08:13:33Z</time>
      </trkpt>
      <trkpt lat="46.43156" lon="4.88731">
        <ele>184.8</ele>
        <time>2024-09-19T08:13:34Z</time>
      </trkpt>
      <trkpt lat="46.43149" lon="4.88732">
        <ele>184.8</ele>
        <time>2024-09-19T08:13:35Z</time>
      </trkpt>
      <trkpt lat="46.43147" lon="4.88733">
        <ele>184.8</ele>
        <time>2024-09-19T08:13:36Z</time>
      </trkpt>
      <trkpt lat="46.4314" lon="4.88735">
        <ele>184.8</ele>
        <time>2024-09-19T08:13:37Z</time>
      </trkpt>
      <trkpt lat="46.43138" lon="4.88736">
        <ele>184.8</ele>
        <time>2024-09-19T08:13:38Z</time>
      </trkpt>
      <trkpt lat="46.43133" lon="4.88737">
        <ele>184.8</ele>
        <time>2024-09-19T08:13:39Z</time>
      </trkpt>
      <trkpt lat="46.43129" lon="4.88738">
        <ele>184.8</ele>
        <time>2024-09-19T08:13:40Z</time>
      </trkpt>
      <trkpt lat="46.43124" lon="4.8874">
        <ele>184.8</ele>
        <time>2024-09-19T08:13:41Z</time>
      </trkpt>
      <trkpt lat="46.4312" lon="4.88741">
        <ele>184.8</ele>
        <time>2024-09-19T08:13:42Z</time>
      </trkpt>
      <trkpt lat="46.43115" lon="4.88742">
        <ele>184.8</ele>
        <time>2024-09-19T08:13:43Z</time>
      </trkpt>
      <trkpt lat="46.43111" lon="4.88744">
        <ele>184.8</ele>
        <time>2024-09-19T08:13:44Z</time>
      </trkpt>
      <trkpt lat="46.43104" lon="4.88746">
        <ele>184.8</ele>
        <time>2024-09-19T08:13:45Z</time>
      </trkpt>
      <trkpt lat="46.43102" lon="4.88747">
        <ele>184.8</ele>
        <time>2024-09-19T08:13:46Z</time>
      </trkpt>
      <trkpt lat="46.43095" lon="4.88749">
        <ele>184.8</ele>
        <time>2024-09-19T08:13:47Z</time>
      </trkpt>
      <trkpt lat="46.43093" lon="4.8875">
        <ele>184.8</ele>
        <time>2024-09-19T08:13:48Z</time>
      </trkpt>
      <trkpt lat="46.43086" lon="4.88752">
        <ele>185.2</ele>
        <time>2024-09-19T08:13:49Z</time>
      </trkpt>
      <trkpt lat="46.43084" lon="4.88753">
        <ele>185.2</ele>
        <time>2024-09-19T08:13:50Z</time>
      </trkpt>
      <trkpt lat="46.43078" lon="4.88756">
        <ele>185.2</ele>
        <time>2024-09-19T08:13:51Z</time>
      </trkpt>
      <trkpt lat="46.43075" lon="4.88757">
        <ele>184.6</ele>
        <time>2024-09-19T08:13:52Z</time>
      </trkpt>
      <trkpt lat="46.43069" lon="4.8876">
        <ele>184.8</ele>
        <time>2024-09-19T08:13:53Z</time>
      </trkpt>
      <trkpt lat="46.43067" lon="4.88761">
        <ele>184.8</ele>
        <time>2024-09-19T08:13:54Z</time>
      </trkpt>
      <trkpt lat="46.43063" lon="4.88763">
        <ele>184.8</ele>
        <time>2024-09-19T08:13:55Z</time>
      </trkpt>
      <trkpt lat="46.43056" lon="4.88767">
        <ele>185</ele>
        <time>2024-09-19T08:13:56Z</time>
      </trkpt>
      <trkpt lat="46.43054" lon="4.88768">
        <ele>185</ele>
        <time>2024-09-19T08:13:57Z</time>
      </trkpt>
      <trkpt lat="46.43048" lon="4.88771">
        <ele>185</ele>
        <time>2024-09-19T08:13:58Z</time>
      </trkpt>
      <trkpt lat="46.43046" lon="4.88773">
        <ele>185</ele>
        <time>2024-09-19T08:13:59Z</time>
      </trkpt>
      <trkpt lat="46.43039" lon="4.88776">
        <ele>185</ele>
        <time>2024-09-19T08:14:00Z</time>
      </trkpt>
      <trkpt lat="46.43037" lon="4.88777">
        <ele>185</ele>
        <time>2024-09-19T08:14:01Z</time>
      </trkpt>
      <trkpt lat="46.43031" lon="4.88781">
        <ele>185</ele>
        <time>2024-09-19T08:14:02Z</time>
      </trkpt>
      <trkpt lat="46.43029" lon="4.88782">
        <ele>185</ele>
        <time>2024-09-19T08:14:03Z</time>
      </trkpt>
      <trkpt lat="46.43025" lon="4.88785">
        <ele>185</ele>
        <time>2024-09-19T08:14:04Z</time>
      </trkpt>
      <trkpt lat="46.4302" lon="4.88787">
        <ele>185</ele>
        <time>2024-09-19T08:14:05Z</time>
      </trkpt>
      <trkpt lat="46.43017" lon="4.8879">
        <ele>185</ele>
        <time>2024-09-19T08:14:06Z</time>
      </trkpt>
      <trkpt lat="46.43013" lon="4.88793">
        <ele>185</ele>
        <time>2024-09-19T08:14:07Z</time>
      </trkpt>
      <trkpt lat="46.43009" lon="4.88796">
        <ele>185</ele>
        <time>2024-09-19T08:14:08Z</time>
      </trkpt>
      <trkpt lat="46.43005" lon="4.888">
        <ele>185</ele>
        <time>2024-09-19T08:14:09Z</time>
      </trkpt>
      <trkpt lat="46.43001" lon="4.88803">
        <ele>185</ele>
        <time>2024-09-19T08:14:10Z</time>
      </trkpt>
      <trkpt lat="46.42997" lon="4.88806">
        <ele>184.8</ele>
        <time>2024-09-19T08:14:11Z</time>
      </trkpt>
      <trkpt lat="46.42993" lon="4.8881">
        <ele>185.2</ele>
        <time>2024-09-19T08:14:12Z</time>
      </trkpt>
      <trkpt lat="46.42989" lon="4.88812">
        <ele>185.2</ele>
        <time>2024-09-19T08:14:13Z</time>
      </trkpt>
      <trkpt lat="46.42982" lon="4.88815">
        <ele>185.2</ele>
        <time>2024-09-19T08:14:14Z</time>
      </trkpt>
      <trkpt lat="46.4298" lon="4.88816">
        <ele>185.2</ele>
        <time>2024-09-19T08:14:15Z</time>
      </trkpt>
      <trkpt lat="46.42973" lon="4.88818">
        <ele>185</ele>
        <time>2024-09-19T08:14:16Z</time>
      </trkpt>
      <trkpt lat="46.42971" lon="4.88818">
        <ele>185</ele>
        <time>2024-09-19T08:14:17Z</time>
      </trkpt>
      <trkpt lat="46.42965" lon="4.88819">
        <ele>185</ele>
        <time>2024-09-19T08:14:18Z</time>
      </trkpt>
      <trkpt lat="46.42963" lon="4.88818">
        <ele>185</ele>
        <time>2024-09-19T08:14:19Z</time>
      </trkpt>
      <trkpt lat="46.42957" lon="4.88818">
        <ele>185</ele>
        <time>2024-09-19T08:14:20Z</time>
      </trkpt>
      <trkpt lat="46.42955" lon="4.88818">
        <ele>185.2</ele>
        <time>2024-09-19T08:14:21Z</time>
      </trkpt>
      <trkpt lat="46.42951" lon="4.88819">
        <ele>185.2</ele>
        <time>2024-09-19T08:14:22Z</time>
      </trkpt>
      <trkpt lat="46.42947" lon="4.8882">
        <ele>185.2</ele>
        <time>2024-09-19T08:14:23Z</time>
      </trkpt>
      <trkpt lat="46.42943" lon="4.88821">
        <ele>184.4</ele>
        <time>2024-09-19T08:14:24Z</time>
      </trkpt>
      <trkpt lat="46.42939" lon="4.88822">
        <ele>184.4</ele>
        <time>2024-09-19T08:14:25Z</time>
      </trkpt>
      <trkpt lat="46.42935" lon="4.88824">
        <ele>184.4</ele>
        <time>2024-09-19T08:14:26Z</time>
      </trkpt>
      <trkpt lat="46.42931" lon="4.88825">
        <ele>184.4</ele>
        <time>2024-09-19T08:14:27Z</time>
      </trkpt>
      <trkpt lat="46.42928" lon="4.88826">
        <ele>184.4</ele>
        <time>2024-09-19T08:14:28Z</time>
      </trkpt>
      <trkpt lat="46.42922" lon="4.88828">
        <ele>184.4</ele>
        <time>2024-09-19T08:14:29Z</time>
      </trkpt>
      <trkpt lat="46.4292" lon="4.88829">
        <ele>184.2</ele>
        <time>2024-09-19T08:14:30Z</time>
      </trkpt>
      <trkpt lat="46.42914" lon="4.88831">
        <ele>184.2</ele>
        <time>2024-09-19T08:14:31Z</time>
      </trkpt>
      <trkpt lat="46.42912" lon="4.88832">
        <ele>184.2</ele>
        <time>2024-09-19T08:14:32Z</time>
      </trkpt>
      <trkpt lat="46.42905" lon="4.88835">
        <ele>184.2</ele>
        <time>2024-09-19T08:14:33Z</time>
      </trkpt>
      <trkpt lat="46.42903" lon="4.88836">
        <ele>184</ele>
        <time>2024-09-19T08:14:34Z</time>
      </trkpt>
      <trkpt lat="46.42896" lon="4.88838">
        <ele>184</ele>
        <time>2024-09-19T08:14:35Z</time>
      </trkpt>
      <trkpt lat="46.42893" lon="4.88839">
        <ele>184</ele>
        <time>2024-09-19T08:14:36Z</time>
      </trkpt>
      <trkpt lat="46.42889" lon="4.88841">
        <ele>184</ele>
        <time>2024-09-19T08:14:37Z</time>
      </trkpt>
      <trkpt lat="46.42884" lon="4.88842">
        <ele>184</ele>
        <time>2024-09-19T08:14:38Z</time>
      </trkpt>
      <trkpt lat="46.42879" lon="4.88842">
        <ele>184</ele>
        <time>2024-09-19T08:14:39Z</time>
      </trkpt>
      <trkpt lat="46.42874" lon="4.88843">
        <ele>184</ele>
        <time>2024-09-19T08:14:40Z</time>
      </trkpt>
      <trkpt lat="46.42867" lon="4.88845">
        <ele>184</ele>
        <time>2024-09-19T08:14:41Z</time>
      </trkpt>
      <trkpt lat="46.42864" lon="4.88845">
        <ele>184</ele>
        <time>2024-09-19T08:14:42Z</time>
      </trkpt>
      <trkpt lat="46.42857" lon="4.88847">
        <ele>183.8</ele>
        <time>2024-09-19T08:14:43Z</time>
      </trkpt>
      <trkpt lat="46.42854" lon="4.88847">
        <ele>183.8</ele>
        <time>2024-09-19T08:14:44Z</time>
      </trkpt>
      <trkpt lat="46.42849" lon="4.88847">
        <ele>183.8</ele>
        <time>2024-09-19T08:14:45Z</time>
      </trkpt>
      <trkpt lat="46.42841" lon="4.88848">
        <ele>184</ele>
        <time>2024-09-19T08:14:46Z</time>
      </trkpt>
      <trkpt lat="46.42839" lon="4.88848">
        <ele>184</ele>
        <time>2024-09-19T08:14:47Z</time>
      </trkpt>
      <trkpt lat="46.42834" lon="4.88848">
        <ele>184</ele>
        <time>2024-09-19T08:14:48Z</time>
      </trkpt>
      <trkpt lat="46.42829" lon="4.88848">
        <ele>184</ele>
        <time>2024-09-19T08:14:49Z</time>
      </trkpt>
      <trkpt lat="46.42824" lon="4.88848">
        <ele>184</ele>
        <time>2024-09-19T08:14:50Z</time>
      </trkpt>
      <trkpt lat="46.42817" lon="4.88847">
        <ele>184</ele>
        <time>2024-09-19T08:14:51Z</time>
      </trkpt>
      <trkpt lat="46.42814" lon="4.88847">
        <ele>184</ele>
        <time>2024-09-19T08:14:52Z</time>
      </trkpt>
      <trkpt lat="46.42807" lon="4.88846">
        <ele>184.2</ele>
        <time>2024-09-19T08:14:53Z</time>
      </trkpt>
      <trkpt lat="46.42805" lon="4.88846">
        <ele>184.2</ele>
        <time>2024-09-19T08:14:54Z</time>
      </trkpt>
      <trkpt lat="46.428" lon="4.88846">
        <ele>184.2</ele>
        <time>2024-09-19T08:14:55Z</time>
      </trkpt>
      <trkpt lat="46.42795" lon="4.88846">
        <ele>184</ele>
        <time>2024-09-19T08:14:56Z</time>
      </trkpt>
      <trkpt lat="46.42791" lon="4.88845">
        <ele>184</ele>
        <time>2024-09-19T08:14:57Z</time>
      </trkpt>
      <trkpt lat="46.42786" lon="4.88845">
        <ele>184</ele>
        <time>2024-09-19T08:14:58Z</time>
      </trkpt>
      <trkpt lat="46.42779" lon="4.88844">
        <ele>184</ele>
        <time>2024-09-19T08:14:59Z</time>
      </trkpt>
      <trkpt lat="46.42777" lon="4.88844">
        <ele>184</ele>
        <time>2024-09-19T08:15:00Z</time>
      </trkpt>
      <trkpt lat="46.4277" lon="4.88844">
        <ele>184.2</ele>
        <time>2024-09-19T08:15:01Z</time>
      </trkpt>
      <trkpt lat="46.42767" lon="4.88844">
        <ele>184.2</ele>
        <time>2024-09-19T08:15:02Z</time>
      </trkpt>
      <trkpt lat="46.4276" lon="4.88844">
        <ele>184.2</ele>
        <time>2024-09-19T08:15:03Z</time>
      </trkpt>
      <trkpt lat="46.42757" lon="4.88844">
        <ele>184.2</ele>
        <time>2024-09-19T08:15:04Z</time>
      </trkpt>
      <trkpt lat="46.4275" lon="4.88844">
        <ele>184</ele>
        <time>2024-09-19T08:15:05Z</time>
      </trkpt>
      <trkpt lat="46.42747" lon="4.88844">
        <ele>184</ele>
        <time>2024-09-19T08:15:06Z</time>
      </trkpt>
      <trkpt lat="46.42743" lon="4.88844">
        <ele>184</ele>
        <time>2024-09-19T08:15:07Z</time>
      </trkpt>
      <trkpt lat="46.42738" lon="4.88844">
        <ele>184</ele>
        <time>2024-09-19T08:15:08Z</time>
      </trkpt>
      <trkpt lat="46.42733" lon="4.88843">
        <ele>184</ele>
        <time>2024-09-19T08:15:09Z</time>
      </trkpt>
      <trkpt lat="46.42728" lon="4.88843">
        <ele>184</ele>
        <time>2024-09-19T08:15:10Z</time>
      </trkpt>
      <trkpt lat="46.4272" lon="4.88842">
        <ele>184</ele>
        <time>2024-09-19T08:15:11Z</time>
      </trkpt>
      <trkpt lat="46.42718" lon="4.88842">
        <ele>184</ele>
        <time>2024-09-19T08:15:12Z</time>
      </trkpt>
      <trkpt lat="46.42711" lon="4.88842">
        <ele>184</ele>
        <time>2024-09-19T08:15:13Z</time>
      </trkpt>
      <trkpt lat="46.42709" lon="4.88842">
        <ele>183.8</ele>
        <time>2024-09-19T08:15:14Z</time>
      </trkpt>
      <trkpt lat="46.42705" lon="4.88841">
        <ele>183.8</ele>
        <time>2024-09-19T08:15:15Z</time>
      </trkpt>
      <trkpt lat="46.427" lon="4.8884">
        <ele>183.8</ele>
        <time>2024-09-19T08:15:16Z</time>
      </trkpt>
      <trkpt lat="46.42694" lon="4.8884">
        <ele>183.8</ele>
        <time>2024-09-19T08:15:17Z</time>
      </trkpt>
      <trkpt lat="46.42692" lon="4.8884">
        <ele>183.6</ele>
        <time>2024-09-19T08:15:18Z</time>
      </trkpt>
      <trkpt lat="46.42687" lon="4.8884">
        <ele>183.6</ele>
        <time>2024-09-19T08:15:19Z</time>
      </trkpt>
      <trkpt lat="46.42682" lon="4.8884">
        <ele>183.6</ele>
        <time>2024-09-19T08:15:20Z</time>
      </trkpt>
      <trkpt lat="46.42678" lon="4.8884">
        <ele>183.6</ele>
        <time>2024-09-19T08:15:21Z</time>
      </trkpt>
      <trkpt lat="46.42673" lon="4.88839">
        <ele>183.6</ele>
        <time>2024-09-19T08:15:22Z</time>
      </trkpt>
      <trkpt lat="46.42668" lon="4.88839">
        <ele>183.8</ele>
        <time>2024-09-19T08:15:23Z</time>
      </trkpt>
      <trkpt lat="46.42663" lon="4.88839">
        <ele>183.8</ele>
        <time>2024-09-19T08:15:24Z</time>
      </trkpt>
      <trkpt lat="46.42658" lon="4.88839">
        <ele>183.8</ele>
        <time>2024-09-19T08:15:25Z</time>
      </trkpt>
      <trkpt lat="46.42651" lon="4.88838">
        <ele>183.8</ele>
        <time>2024-09-19T08:15:26Z</time>
      </trkpt>
      <trkpt lat="46.42649" lon="4.88838">
        <ele>183.8</ele>
        <time>2024-09-19T08:15:27Z</time>
      </trkpt>
      <trkpt lat="46.42642" lon="4.88837">
        <ele>183.8</ele>
        <time>2024-09-19T08:15:28Z</time>
      </trkpt>
      <trkpt lat="46.4264" lon="4.88837">
        <ele>183.8</ele>
        <time>2024-09-19T08:15:29Z</time>
      </trkpt>
      <trkpt lat="46.42635" lon="4.88837">
        <ele>183.8</ele>
        <time>2024-09-19T08:15:30Z</time>
      </trkpt>
      <trkpt lat="46.42631" lon="4.88837">
        <ele>183.8</ele>
        <time>2024-09-19T08:15:31Z</time>
      </trkpt>
      <trkpt lat="46.42626" lon="4.88836">
        <ele>183.8</ele>
        <time>2024-09-19T08:15:32Z</time>
      </trkpt>
      <trkpt lat="46.42621" lon="4.88835">
        <ele>183.6</ele>
        <time>2024-09-19T08:15:33Z</time>
      </trkpt>
      <trkpt lat="46.42616" lon="4.88835">
        <ele>183.6</ele>
        <time>2024-09-19T08:15:34Z</time>
      </trkpt>
      <trkpt lat="46.42611" lon="4.88835">
        <ele>183.6</ele>
        <time>2024-09-19T08:15:35Z</time>
      </trkpt>
      <trkpt lat="46.42607" lon="4.88835">
        <ele>183.6</ele>
        <time>2024-09-19T08:15:36Z</time>
      </trkpt>
      <trkpt lat="46.42602" lon="4.88835">
        <ele>183.6</ele>
        <time>2024-09-19T08:15:37Z</time>
      </trkpt>
      <trkpt lat="46.42597" lon="4.88834">
        <ele>183.8</ele>
        <time>2024-09-19T08:15:38Z</time>
      </trkpt>
      <trkpt lat="46.42592" lon="4.88834">
        <ele>183.8</ele>
        <time>2024-09-19T08:15:39Z</time>
      </trkpt>
      <trkpt lat="46.42587" lon="4.88835">
        <ele>183.8</ele>
        <time>2024-09-19T08:15:40Z</time>
      </trkpt>
      <trkpt lat="46.42582" lon="4.88834">
        <ele>183.8</ele>
        <time>2024-09-19T08:15:41Z</time>
      </trkpt>
      <trkpt lat="46.42578" lon="4.88833">
        <ele>183.4</ele>
        <time>2024-09-19T08:15:42Z</time>
      </trkpt>
      <trkpt lat="46.4257" lon="4.88832">
        <ele>183.4</ele>
        <time>2024-09-19T08:15:43Z</time>
      </trkpt>
      <trkpt lat="46.42568" lon="4.88832">
        <ele>183.4</ele>
        <time>2024-09-19T08:15:44Z</time>
      </trkpt>
      <trkpt lat="46.42562" lon="4.88832">
        <ele>183.6</ele>
        <time>2024-09-19T08:15:45Z</time>
      </trkpt>
      <trkpt lat="46.42555" lon="4.88831">
        <ele>183.6</ele>
        <time>2024-09-19T08:15:46Z</time>
      </trkpt>
      <trkpt lat="46.42552" lon="4.88831">
        <ele>184</ele>
        <time>2024-09-19T08:15:47Z</time>
      </trkpt>
      <trkpt lat="46.42545" lon="4.88831">
        <ele>184</ele>
        <time>2024-09-19T08:15:48Z</time>
      </trkpt>
      <trkpt lat="46.42542" lon="4.88831">
        <ele>184</ele>
        <time>2024-09-19T08:15:49Z</time>
      </trkpt>
      <trkpt lat="46.42534" lon="4.88831">
        <ele>183.8</ele>
        <time>2024-09-19T08:15:50Z</time>
      </trkpt>
      <trkpt lat="46.42532" lon="4.88831">
        <ele>183.6</ele>
        <time>2024-09-19T08:15:51Z</time>
      </trkpt>
      <trkpt lat="46.42524" lon="4.88831">
        <ele>183.6</ele>
        <time>2024-09-19T08:15:52Z</time>
      </trkpt>
      <trkpt lat="46.42522" lon="4.88831">
        <ele>183.6</ele>
        <time>2024-09-19T08:15:53Z</time>
      </trkpt>
      <trkpt lat="46.42515" lon="4.8883">
        <ele>183.8</ele>
        <time>2024-09-19T08:15:54Z</time>
      </trkpt>
      <trkpt lat="46.42512" lon="4.8883">
        <ele>184</ele>
        <time>2024-09-19T08:15:55Z</time>
      </trkpt>
      <trkpt lat="46.42505" lon="4.88829">
        <ele>184</ele>
        <time>2024-09-19T08:15:56Z</time>
      </trkpt>
      <trkpt lat="46.42502" lon="4.88829">
        <ele>184</ele>
        <time>2024-09-19T08:15:57Z</time>
      </trkpt>
      <trkpt lat="46.42495" lon="4.88828">
        <ele>184</ele>
        <time>2024-09-19T08:15:58Z</time>
      </trkpt>
      <trkpt lat="46.42493" lon="4.88828">
        <ele>184</ele>
        <time>2024-09-19T08:15:59Z</time>
      </trkpt>
      <trkpt lat="46.42488" lon="4.88827">
        <ele>184</ele>
        <time>2024-09-19T08:16:00Z</time>
      </trkpt>
      <trkpt lat="46.42481" lon="4.88826">
        <ele>184</ele>
        <time>2024-09-19T08:16:01Z</time>
      </trkpt>
      <trkpt lat="46.42479" lon="4.88826">
        <ele>184</ele>
        <time>2024-09-19T08:16:02Z</time>
      </trkpt>
      <trkpt lat="46.42474" lon="4.88825">
        <ele>184</ele>
        <time>2024-09-19T08:16:03Z</time>
      </trkpt>
      <trkpt lat="46.42469" lon="4.88825">
        <ele>183.8</ele>
        <time>2024-09-19T08:16:04Z</time>
      </trkpt>
      <trkpt lat="46.42464" lon="4.88824">
        <ele>183.8</ele>
        <time>2024-09-19T08:16:05Z</time>
      </trkpt>
      <trkpt lat="46.4246" lon="4.88823">
        <ele>183.8</ele>
        <time>2024-09-19T08:16:06Z</time>
      </trkpt>
      <trkpt lat="46.42452" lon="4.88822">
        <ele>183.6</ele>
        <time>2024-09-19T08:16:07Z</time>
      </trkpt>
      <trkpt lat="46.4245" lon="4.88821">
        <ele>183.6</ele>
        <time>2024-09-19T08:16:08Z</time>
      </trkpt>
      <trkpt lat="46.42443" lon="4.8882">
        <ele>183.6</ele>
        <time>2024-09-19T08:16:09Z</time>
      </trkpt>
      <trkpt lat="46.4244" lon="4.88819">
        <ele>183.6</ele>
        <time>2024-09-19T08:16:10Z</time>
      </trkpt>
      <trkpt lat="46.42436" lon="4.88818">
        <ele>183.6</ele>
        <time>2024-09-19T08:16:11Z</time>
      </trkpt>
      <trkpt lat="46.42431" lon="4.88817">
        <ele>183.8</ele>
        <time>2024-09-19T08:16:12Z</time>
      </trkpt>
      <trkpt lat="46.42426" lon="4.88816">
        <ele>183.6</ele>
        <time>2024-09-19T08:16:13Z</time>
      </trkpt>
      <trkpt lat="46.42421" lon="4.88815">
        <ele>183.6</ele>
        <time>2024-09-19T08:16:14Z</time>
      </trkpt>
      <trkpt lat="46.42416" lon="4.88814">
        <ele>183.6</ele>
        <time>2024-09-19T08:16:15Z</time>
      </trkpt>
      <trkpt lat="46.42412" lon="4.88813">
        <ele>183.6</ele>
        <time>2024-09-19T08:16:16Z</time>
      </trkpt>
      <trkpt lat="46.42407" lon="4.88813">
        <ele>183.6</ele>
        <time>2024-09-19T08:16:17Z</time>
      </trkpt>
      <trkpt lat="46.42401" lon="4.88812">
        <ele>183.6</ele>
        <time>2024-09-19T08:16:18Z</time>
      </trkpt>
      <trkpt lat="46.42397" lon="4.88811">
        <ele>183.6</ele>
        <time>2024-09-19T08:16:19Z</time>
      </trkpt>
      <trkpt lat="46.42392" lon="4.8881">
        <ele>183.6</ele>
        <time>2024-09-19T08:16:20Z</time>
      </trkpt>
      <trkpt lat="46.42387" lon="4.8881">
        <ele>183.6</ele>
        <time>2024-09-19T08:16:21Z</time>
      </trkpt>
      <trkpt lat="46.42382" lon="4.88809">
        <ele>183.8</ele>
        <time>2024-09-19T08:16:22Z</time>
      </trkpt>
      <trkpt lat="46.42378" lon="4.88808">
        <ele>183.8</ele>
        <time>2024-09-19T08:16:23Z</time>
      </trkpt>
      <trkpt lat="46.42373" lon="4.88806">
        <ele>183.8</ele>
        <time>2024-09-19T08:16:24Z</time>
      </trkpt>
      <trkpt lat="46.42366" lon="4.88805">
        <ele>183.8</ele>
        <time>2024-09-19T08:16:25Z</time>
      </trkpt>
      <trkpt lat="46.42363" lon="4.88805">
        <ele>183.4</ele>
        <time>2024-09-19T08:16:26Z</time>
      </trkpt>
      <trkpt lat="46.42356" lon="4.88804">
        <ele>183.6</ele>
        <time>2024-09-19T08:16:27Z</time>
      </trkpt>
      <trkpt lat="46.42353" lon="4.88803">
        <ele>183.6</ele>
        <time>2024-09-19T08:16:28Z</time>
      </trkpt>
      <trkpt lat="46.42346" lon="4.88802">
        <ele>183.6</ele>
        <time>2024-09-19T08:16:29Z</time>
      </trkpt>
      <trkpt lat="46.42344" lon="4.88801">
        <ele>183.6</ele>
        <time>2024-09-19T08:16:30Z</time>
      </trkpt>
      <trkpt lat="46.42337" lon="4.888">
        <ele>183.6</ele>
        <time>2024-09-19T08:16:31Z</time>
      </trkpt>
      <trkpt lat="46.42335" lon="4.88799">
        <ele>183.6</ele>
        <time>2024-09-19T08:16:32Z</time>
      </trkpt>
      <trkpt lat="46.4233" lon="4.88799">
        <ele>183.6</ele>
        <time>2024-09-19T08:16:33Z</time>
      </trkpt>
      <trkpt lat="46.42325" lon="4.88798">
        <ele>183.6</ele>
        <time>2024-09-19T08:16:34Z</time>
      </trkpt>
      <trkpt lat="46.42321" lon="4.88797">
        <ele>183.6</ele>
        <time>2024-09-19T08:16:35Z</time>
      </trkpt>
      <trkpt lat="46.42316" lon="4.88796">
        <ele>183.6</ele>
        <time>2024-09-19T08:16:36Z</time>
      </trkpt>
      <trkpt lat="46.42312" lon="4.88795">
        <ele>183.6</ele>
        <time>2024-09-19T08:16:37Z</time>
      </trkpt>
      <trkpt lat="46.42304" lon="4.88793">
        <ele>183.6</ele>
        <time>2024-09-19T08:16:38Z</time>
      </trkpt>
      <trkpt lat="46.42302" lon="4.88793">
        <ele>183.6</ele>
        <time>2024-09-19T08:16:39Z</time>
      </trkpt>
      <trkpt lat="46.42295" lon="4.88791">
        <ele>183.4</ele>
        <time>2024-09-19T08:16:40Z</time>
      </trkpt>
      <trkpt lat="46.42293" lon="4.88791">
        <ele>183.4</ele>
        <time>2024-09-19T08:16:41Z</time>
      </trkpt>
      <trkpt lat="46.42285" lon="4.8879">
        <ele>183.4</ele>
        <time>2024-09-19T08:16:42Z</time>
      </trkpt>
      <trkpt lat="46.42283" lon="4.8879">
        <ele>183.4</ele>
        <time>2024-09-19T08:16:43Z</time>
      </trkpt>
      <trkpt lat="46.42276" lon="4.88789">
        <ele>183.6</ele>
        <time>2024-09-19T08:16:44Z</time>
      </trkpt>
      <trkpt lat="46.42273" lon="4.88788">
        <ele>183.6</ele>
        <time>2024-09-19T08:16:45Z</time>
      </trkpt>
      <trkpt lat="46.42268" lon="4.88787">
        <ele>183.6</ele>
        <time>2024-09-19T08:16:46Z</time>
      </trkpt>
      <trkpt lat="46.42264" lon="4.88786">
        <ele>183.6</ele>
        <time>2024-09-19T08:16:47Z</time>
      </trkpt>
      <trkpt lat="46.42259" lon="4.88785">
        <ele>183.6</ele>
        <time>2024-09-19T08:16:48Z</time>
      </trkpt>
      <trkpt lat="46.42254" lon="4.88784">
        <ele>183.6</ele>
        <time>2024-09-19T08:16:49Z</time>
      </trkpt>
      <trkpt lat="46.42249" lon="4.88783">
        <ele>183.6</ele>
        <time>2024-09-19T08:16:50Z</time>
      </trkpt>
      <trkpt lat="46.42242" lon="4.88782">
        <ele>183.6</ele>
        <time>2024-09-19T08:16:51Z</time>
      </trkpt>
      <trkpt lat="46.42239" lon="4.88782">
        <ele>183.6</ele>
        <time>2024-09-19T08:16:52Z</time>
      </trkpt>
      <trkpt lat="46.42232" lon="4.8878">
        <ele>183.4</ele>
        <time>2024-09-19T08:16:53Z</time>
      </trkpt>
      <trkpt lat="46.42229" lon="4.8878">
        <ele>183.4</ele>
        <time>2024-09-19T08:16:54Z</time>
      </trkpt>
      <trkpt lat="46.42225" lon="4.88779">
        <ele>183.4</ele>
        <time>2024-09-19T08:16:55Z</time>
      </trkpt>
      <trkpt lat="46.4222" lon="4.88778">
        <ele>183.4</ele>
        <time>2024-09-19T08:16:56Z</time>
      </trkpt>
      <trkpt lat="46.42215" lon="4.88777">
        <ele>183.4</ele>
        <time>2024-09-19T08:16:57Z</time>
      </trkpt>
      <trkpt lat="46.4221" lon="4.88776">
        <ele>183.4</ele>
        <time>2024-09-19T08:16:58Z</time>
      </trkpt>
      <trkpt lat="46.42206" lon="4.88775">
        <ele>183.4</ele>
        <time>2024-09-19T08:16:59Z</time>
      </trkpt>
      <trkpt lat="46.42201" lon="4.88774">
        <ele>183.4</ele>
        <time>2024-09-19T08:17:00Z</time>
      </trkpt>
      <trkpt lat="46.42196" lon="4.88773">
        <ele>183.4</ele>
        <time>2024-09-19T08:17:01Z</time>
      </trkpt>
      <trkpt lat="46.42191" lon="4.88771">
        <ele>183.6</ele>
        <time>2024-09-19T08:17:02Z</time>
      </trkpt>
      <trkpt lat="46.42186" lon="4.8877">
        <ele>183.6</ele>
        <time>2024-09-19T08:17:03Z</time>
      </trkpt>
      <trkpt lat="46.42181" lon="4.88769">
        <ele>183.6</ele>
        <time>2024-09-19T08:17:04Z</time>
      </trkpt>
      <trkpt lat="46.42176" lon="4.88769">
        <ele>183.6</ele>
        <time>2024-09-19T08:17:05Z</time>
      </trkpt>
      <trkpt lat="46.42171" lon="4.88768">
        <ele>183.6</ele>
        <time>2024-09-19T08:17:06Z</time>
      </trkpt>
      <trkpt lat="46.42163" lon="4.88767">
        <ele>183.6</ele>
        <time>2024-09-19T08:17:07Z</time>
      </trkpt>
      <trkpt lat="46.4216" lon="4.88766">
        <ele>183.6</ele>
        <time>2024-09-19T08:17:08Z</time>
      </trkpt>
      <trkpt lat="46.42153" lon="4.88765">
        <ele>183.6</ele>
        <time>2024-09-19T08:17:09Z</time>
      </trkpt>
      <trkpt lat="46.4215" lon="4.88765">
        <ele>183.6</ele>
        <time>2024-09-19T08:17:10Z</time>
      </trkpt>
      <trkpt lat="46.42143" lon="4.88763">
        <ele>183.6</ele>
        <time>2024-09-19T08:17:11Z</time>
      </trkpt>
      <trkpt lat="46.4214" lon="4.88763">
        <ele>183.4</ele>
        <time>2024-09-19T08:17:12Z</time>
      </trkpt>
      <trkpt lat="46.42136" lon="4.88762">
        <ele>183.4</ele>
        <time>2024-09-19T08:17:13Z</time>
      </trkpt>
      <trkpt lat="46.42128" lon="4.8876">
        <ele>183.4</ele>
        <time>2024-09-19T08:17:14Z</time>
      </trkpt>
      <trkpt lat="46.42126" lon="4.8876">
        <ele>183.4</ele>
        <time>2024-09-19T08:17:15Z</time>
      </trkpt>
      <trkpt lat="46.42118" lon="4.88758">
        <ele>183.4</ele>
        <time>2024-09-19T08:17:16Z</time>
      </trkpt>
      <trkpt lat="46.42116" lon="4.88757">
        <ele>183.6</ele>
        <time>2024-09-19T08:17:17Z</time>
      </trkpt>
      <trkpt lat="46.42109" lon="4.88755">
        <ele>183.6</ele>
        <time>2024-09-19T08:17:18Z</time>
      </trkpt>
      <trkpt lat="46.42107" lon="4.88755">
        <ele>183.6</ele>
        <time>2024-09-19T08:17:19Z</time>
      </trkpt>
      <trkpt lat="46.421" lon="4.88753">
        <ele>183.6</ele>
        <time>2024-09-19T08:17:20Z</time>
      </trkpt>
      <trkpt lat="46.42097" lon="4.88752">
        <ele>183.6</ele>
        <time>2024-09-19T08:17:21Z</time>
      </trkpt>
      <trkpt lat="46.4209" lon="4.8875">
        <ele>183.6</ele>
        <time>2024-09-19T08:17:22Z</time>
      </trkpt>
      <trkpt lat="46.42088" lon="4.8875">
        <ele>183.6</ele>
        <time>2024-09-19T08:17:23Z</time>
      </trkpt>
      <trkpt lat="46.42081" lon="4.88748">
        <ele>183.6</ele>
        <time>2024-09-19T08:17:24Z</time>
      </trkpt>
      <trkpt lat="46.42079" lon="4.88748">
        <ele>183.6</ele>
        <time>2024-09-19T08:17:25Z</time>
      </trkpt>
      <trkpt lat="46.42072" lon="4.88746">
        <ele>183.6</ele>
        <time>2024-09-19T08:17:26Z</time>
      </trkpt>
      <trkpt lat="46.42069" lon="4.88746">
        <ele>183.6</ele>
        <time>2024-09-19T08:17:27Z</time>
      </trkpt>
      <trkpt lat="46.42065" lon="4.88745">
        <ele>183.6</ele>
        <time>2024-09-19T08:17:28Z</time>
      </trkpt>
      <trkpt lat="46.4206" lon="4.88744">
        <ele>183.6</ele>
        <time>2024-09-19T08:17:29Z</time>
      </trkpt>
      <trkpt lat="46.42055" lon="4.88743">
        <ele>183.6</ele>
        <time>2024-09-19T08:17:30Z</time>
      </trkpt>
      <trkpt lat="46.4205" lon="4.88742">
        <ele>183.6</ele>
        <time>2024-09-19T08:17:31Z</time>
      </trkpt>
      <trkpt lat="46.42045" lon="4.88741">
        <ele>183.6</ele>
        <time>2024-09-19T08:17:32Z</time>
      </trkpt>
      <trkpt lat="46.4204" lon="4.8874">
        <ele>183.6</ele>
        <time>2024-09-19T08:17:33Z</time>
      </trkpt>
      <trkpt lat="46.42033" lon="4.88738">
        <ele>183.6</ele>
        <time>2024-09-19T08:17:34Z</time>
      </trkpt>
      <trkpt lat="46.4203" lon="4.88738">
        <ele>183.6</ele>
        <time>2024-09-19T08:17:35Z</time>
      </trkpt>
      <trkpt lat="46.42023" lon="4.88737">
        <ele>183.6</ele>
        <time>2024-09-19T08:17:36Z</time>
      </trkpt>
      <trkpt lat="46.4202" lon="4.88737">
        <ele>183.6</ele>
        <time>2024-09-19T08:17:37Z</time>
      </trkpt>
      <trkpt lat="46.42016" lon="4.88736">
        <ele>183.6</ele>
        <time>2024-09-19T08:17:38Z</time>
      </trkpt>
      <trkpt lat="46.42011" lon="4.88734">
        <ele>183.6</ele>
        <time>2024-09-19T08:17:39Z</time>
      </trkpt>
      <trkpt lat="46.42006" lon="4.88733">
        <ele>183.6</ele>
        <time>2024-09-19T08:17:40Z</time>
      </trkpt>
      <trkpt lat="46.41999" lon="4.88732">
        <ele>183.6</ele>
        <time>2024-09-19T08:17:41Z</time>
      </trkpt>
      <trkpt lat="46.41997" lon="4.88731">
        <ele>183.6</ele>
        <time>2024-09-19T08:17:42Z</time>
      </trkpt>
      <trkpt lat="46.41992" lon="4.88731">
        <ele>183.6</ele>
        <time>2024-09-19T08:17:43Z</time>
      </trkpt>
      <trkpt lat="46.41984" lon="4.88729">
        <ele>183.6</ele>
        <time>2024-09-19T08:17:44Z</time>
      </trkpt>
      <trkpt lat="46.41982" lon="4.88729">
        <ele>183.6</ele>
        <time>2024-09-19T08:17:45Z</time>
      </trkpt>
      <trkpt lat="46.41977" lon="4.88728">
        <ele>183.6</ele>
        <time>2024-09-19T08:17:46Z</time>
      </trkpt>
      <trkpt lat="46.41972" lon="4.88727">
        <ele>183.8</ele>
        <time>2024-09-19T08:17:47Z</time>
      </trkpt>
      <trkpt lat="46.41967" lon="4.88726">
        <ele>183.8</ele>
        <time>2024-09-19T08:17:48Z</time>
      </trkpt>
      <trkpt lat="46.41963" lon="4.88725">
        <ele>183.8</ele>
        <time>2024-09-19T08:17:49Z</time>
      </trkpt>
      <trkpt lat="46.41955" lon="4.88723">
        <ele>183.8</ele>
        <time>2024-09-19T08:17:50Z</time>
      </trkpt>
      <trkpt lat="46.41953" lon="4.88723">
        <ele>183.8</ele>
        <time>2024-09-19T08:17:51Z</time>
      </trkpt>
      <trkpt lat="46.41948" lon="4.88722">
        <ele>183.8</ele>
        <time>2024-09-19T08:17:52Z</time>
      </trkpt>
      <trkpt lat="46.41943" lon="4.88721">
        <ele>183.6</ele>
        <time>2024-09-19T08:17:53Z</time>
      </trkpt>
      <trkpt lat="46.41936" lon="4.8872">
        <ele>183.6</ele>
        <time>2024-09-19T08:17:54Z</time>
      </trkpt>
      <trkpt lat="46.41934" lon="4.88719">
        <ele>183.6</ele>
        <time>2024-09-19T08:17:55Z</time>
      </trkpt>
      <trkpt lat="46.41929" lon="4.88718">
        <ele>183.8</ele>
        <time>2024-09-19T08:17:56Z</time>
      </trkpt>
      <trkpt lat="46.41924" lon="4.88717">
        <ele>184</ele>
        <time>2024-09-19T08:17:57Z</time>
      </trkpt>
      <trkpt lat="46.41917" lon="4.88716">
        <ele>184</ele>
        <time>2024-09-19T08:17:58Z</time>
      </trkpt>
      <trkpt lat="46.41915" lon="4.88715">
        <ele>184</ele>
        <time>2024-09-19T08:17:59Z</time>
      </trkpt>
      <trkpt lat="46.41908" lon="4.88714">
        <ele>184</ele>
        <time>2024-09-19T08:18:00Z</time>
      </trkpt>
      <trkpt lat="46.41905" lon="4.88714">
        <ele>184.2</ele>
        <time>2024-09-19T08:18:01Z</time>
      </trkpt>
      <trkpt lat="46.41898" lon="4.88712">
        <ele>184.2</ele>
        <time>2024-09-19T08:18:02Z</time>
      </trkpt>
      <trkpt lat="46.41896" lon="4.88712">
        <ele>184.2</ele>
        <time>2024-09-19T08:18:03Z</time>
      </trkpt>
      <trkpt lat="46.41889" lon="4.88711">
        <ele>184.2</ele>
        <time>2024-09-19T08:18:04Z</time>
      </trkpt>
      <trkpt lat="46.41886" lon="4.88711">
        <ele>184</ele>
        <time>2024-09-19T08:18:05Z</time>
      </trkpt>
      <trkpt lat="46.41879" lon="4.88709">
        <ele>183.8</ele>
        <time>2024-09-19T08:18:06Z</time>
      </trkpt>
      <trkpt lat="46.41876" lon="4.88709">
        <ele>183.8</ele>
        <time>2024-09-19T08:18:07Z</time>
      </trkpt>
      <trkpt lat="46.41869" lon="4.88708">
        <ele>183.8</ele>
        <time>2024-09-19T08:18:08Z</time>
      </trkpt>
      <trkpt lat="46.41867" lon="4.88708">
        <ele>184</ele>
        <time>2024-09-19T08:18:09Z</time>
      </trkpt>
      <trkpt lat="46.41859" lon="4.88708">
        <ele>184.2</ele>
        <time>2024-09-19T08:18:10Z</time>
      </trkpt>
      <trkpt lat="46.41857" lon="4.88708">
        <ele>184.2</ele>
        <time>2024-09-19T08:18:11Z</time>
      </trkpt>
      <trkpt lat="46.41852" lon="4.88708">
        <ele>184.2</ele>
        <time>2024-09-19T08:18:12Z</time>
      </trkpt>
      <trkpt lat="46.41847" lon="4.88707">
        <ele>184.2</ele>
        <time>2024-09-19T08:18:13Z</time>
      </trkpt>
      <trkpt lat="46.41842" lon="4.88707">
        <ele>184.2</ele>
        <time>2024-09-19T08:18:14Z</time>
      </trkpt>
      <trkpt lat="46.41837" lon="4.88707">
        <ele>184</ele>
        <time>2024-09-19T08:18:15Z</time>
      </trkpt>
      <trkpt lat="46.41829" lon="4.88706">
        <ele>184</ele>
        <time>2024-09-19T08:18:16Z</time>
      </trkpt>
      <trkpt lat="46.41827" lon="4.88706">
        <ele>184</ele>
        <time>2024-09-19T08:18:17Z</time>
      </trkpt>
      <trkpt lat="46.41822" lon="4.88705">
        <ele>184</ele>
        <time>2024-09-19T08:18:18Z</time>
      </trkpt>
      <trkpt lat="46.41817" lon="4.88704">
        <ele>184</ele>
        <time>2024-09-19T08:18:19Z</time>
      </trkpt>
      <trkpt lat="46.41812" lon="4.88703">
        <ele>184</ele>
        <time>2024-09-19T08:18:20Z</time>
      </trkpt>
      <trkpt lat="46.41807" lon="4.88703">
        <ele>184</ele>
        <time>2024-09-19T08:18:21Z</time>
      </trkpt>
      <trkpt lat="46.41802" lon="4.88702">
        <ele>184</ele>
        <time>2024-09-19T08:18:22Z</time>
      </trkpt>
      <trkpt lat="46.41798" lon="4.88701">
        <ele>184</ele>
        <time>2024-09-19T08:18:23Z</time>
      </trkpt>
      <trkpt lat="46.41793" lon="4.88699">
        <ele>184</ele>
        <time>2024-09-19T08:18:24Z</time>
      </trkpt>
      <trkpt lat="46.41789" lon="4.88698">
        <ele>184</ele>
        <time>2024-09-19T08:18:25Z</time>
      </trkpt>
      <trkpt lat="46.41785" lon="4.88696">
        <ele>184</ele>
        <time>2024-09-19T08:18:26Z</time>
      </trkpt>
      <trkpt lat="46.4178" lon="4.88694">
        <ele>184</ele>
        <time>2024-09-19T08:18:27Z</time>
      </trkpt>
      <trkpt lat="46.41776" lon="4.88692">
        <ele>184.2</ele>
        <time>2024-09-19T08:18:28Z</time>
      </trkpt>
      <trkpt lat="46.41772" lon="4.88689">
        <ele>184.2</ele>
        <time>2024-09-19T08:18:29Z</time>
      </trkpt>
      <trkpt lat="46.41768" lon="4.88686">
        <ele>184.2</ele>
        <time>2024-09-19T08:18:30Z</time>
      </trkpt>
      <trkpt lat="46.41764" lon="4.88683">
        <ele>184.2</ele>
        <time>2024-09-19T08:18:31Z</time>
      </trkpt>
      <trkpt lat="46.4176" lon="4.88679">
        <ele>184.2</ele>
        <time>2024-09-19T08:18:32Z</time>
      </trkpt>
      <trkpt lat="46.41756" lon="4.88676">
        <ele>184.2</ele>
        <time>2024-09-19T08:18:33Z</time>
      </trkpt>
      <trkpt lat="46.41749" lon="4.88673">
        <ele>184</ele>
        <time>2024-09-19T08:18:34Z</time>
      </trkpt>
      <trkpt lat="46.41747" lon="4.88672">
        <ele>184</ele>
        <time>2024-09-19T08:18:35Z</time>
      </trkpt>
      <trkpt lat="46.41741" lon="4.88672">
        <ele>184</ele>
        <time>2024-09-19T08:18:36Z</time>
      </trkpt>
      <trkpt lat="46.41739" lon="4.88672">
        <ele>184.4</ele>
        <time>2024-09-19T08:18:37Z</time>
      </trkpt>
      <trkpt lat="46.41732" lon="4.88672">
        <ele>184.4</ele>
        <time>2024-09-19T08:18:38Z</time>
      </trkpt>
      <trkpt lat="46.41729" lon="4.88673">
        <ele>184.4</ele>
        <time>2024-09-19T08:18:39Z</time>
      </trkpt>
      <trkpt lat="46.41722" lon="4.88673">
        <ele>184.4</ele>
        <time>2024-09-19T08:18:40Z</time>
      </trkpt>
      <trkpt lat="46.4172" lon="4.88673">
        <ele>184</ele>
        <time>2024-09-19T08:18:41Z</time>
      </trkpt>
      <trkpt lat="46.41712" lon="4.88673">
        <ele>184</ele>
        <time>2024-09-19T08:18:42Z</time>
      </trkpt>
      <trkpt lat="46.4171" lon="4.88673">
        <ele>184.2</ele>
        <time>2024-09-19T08:18:43Z</time>
      </trkpt>
      <trkpt lat="46.41703" lon="4.88672">
        <ele>184.2</ele>
        <time>2024-09-19T08:18:44Z</time>
      </trkpt>
      <trkpt lat="46.417" lon="4.88672">
        <ele>184.2</ele>
        <time>2024-09-19T08:18:45Z</time>
      </trkpt>
      <trkpt lat="46.41693" lon="4.88671">
        <ele>184.2</ele>
        <time>2024-09-19T08:18:46Z</time>
      </trkpt>
      <trkpt lat="46.41691" lon="4.88671">
        <ele>184.2</ele>
        <time>2024-09-19T08:18:47Z</time>
      </trkpt>
      <trkpt lat="46.41683" lon="4.88669">
        <ele>184.2</ele>
        <time>2024-09-19T08:18:48Z</time>
      </trkpt>
      <trkpt lat="46.41681" lon="4.88668">
        <ele>184.2</ele>
        <time>2024-09-19T08:18:49Z</time>
      </trkpt>
      <trkpt lat="46.41674" lon="4.88666">
        <ele>184.2</ele>
        <time>2024-09-19T08:18:50Z</time>
      </trkpt>
      <trkpt lat="46.41671" lon="4.88666">
        <ele>184.2</ele>
        <time>2024-09-19T08:18:51Z</time>
      </trkpt>
      <trkpt lat="46.41667" lon="4.88664">
        <ele>184.2</ele>
        <time>2024-09-19T08:18:52Z</time>
      </trkpt>
      <trkpt lat="46.41662" lon="4.88663">
        <ele>184.2</ele>
        <time>2024-09-19T08:18:53Z</time>
      </trkpt>
      <trkpt lat="46.41657" lon="4.88661">
        <ele>184</ele>
        <time>2024-09-19T08:18:54Z</time>
      </trkpt>
      <trkpt lat="46.4165" lon="4.88659">
        <ele>183.8</ele>
        <time>2024-09-19T08:18:55Z</time>
      </trkpt>
      <trkpt lat="46.41647" lon="4.88658">
        <ele>183.8</ele>
        <time>2024-09-19T08:18:56Z</time>
      </trkpt>
      <trkpt lat="46.41643" lon="4.88657">
        <ele>183.8</ele>
        <time>2024-09-19T08:18:57Z</time>
      </trkpt>
      <trkpt lat="46.41638" lon="4.88655">
        <ele>183.8</ele>
        <time>2024-09-19T08:18:58Z</time>
      </trkpt>
      <trkpt lat="46.41633" lon="4.88654">
        <ele>184</ele>
        <time>2024-09-19T08:18:59Z</time>
      </trkpt>
      <trkpt lat="46.41626" lon="4.88652">
        <ele>184</ele>
        <time>2024-09-19T08:19:00Z</time>
      </trkpt>
      <trkpt lat="46.41624" lon="4.88651">
        <ele>184</ele>
        <time>2024-09-19T08:19:01Z</time>
      </trkpt>
      <trkpt lat="46.41617" lon="4.88648">
        <ele>184</ele>
        <time>2024-09-19T08:19:02Z</time>
      </trkpt>
      <trkpt lat="46.41615" lon="4.88648">
        <ele>184</ele>
        <time>2024-09-19T08:19:03Z</time>
      </trkpt>
      <trkpt lat="46.4161" lon="4.88647">
        <ele>184.2</ele>
        <time>2024-09-19T08:19:04Z</time>
      </trkpt>
      <trkpt lat="46.41604" lon="4.88644">
        <ele>184.2</ele>
        <time>2024-09-19T08:19:05Z</time>
      </trkpt>
      <trkpt lat="46.41602" lon="4.88643">
        <ele>184.2</ele>
        <time>2024-09-19T08:19:06Z</time>
      </trkpt>
      <trkpt lat="46.41598" lon="4.88641">
        <ele>184.2</ele>
        <time>2024-09-19T08:19:07Z</time>
      </trkpt>
      <trkpt lat="46.41593" lon="4.8864">
        <ele>183.8</ele>
        <time>2024-09-19T08:19:08Z</time>
      </trkpt>
      <trkpt lat="46.41589" lon="4.88638">
        <ele>184</ele>
        <time>2024-09-19T08:19:09Z</time>
      </trkpt>
      <trkpt lat="46.41584" lon="4.88636">
        <ele>184</ele>
        <time>2024-09-19T08:19:10Z</time>
      </trkpt>
      <trkpt lat="46.41577" lon="4.88634">
        <ele>184</ele>
        <time>2024-09-19T08:19:11Z</time>
      </trkpt>
      <trkpt lat="46.41575" lon="4.88634">
        <ele>184</ele>
        <time>2024-09-19T08:19:12Z</time>
      </trkpt>
      <trkpt lat="46.4157" lon="4.88633">
        <ele>184</ele>
        <time>2024-09-19T08:19:13Z</time>
      </trkpt>
      <trkpt lat="46.41565" lon="4.88632">
        <ele>184</ele>
        <time>2024-09-19T08:19:14Z</time>
      </trkpt>
      <trkpt lat="46.4156" lon="4.8863">
        <ele>184</ele>
        <time>2024-09-19T08:19:15Z</time>
      </trkpt>
      <trkpt lat="46.41555" lon="4.88628">
        <ele>184</ele>
        <time>2024-09-19T08:19:16Z</time>
      </trkpt>
      <trkpt lat="46.4155" lon="4.88627">
        <ele>184</ele>
        <time>2024-09-19T08:19:17Z</time>
      </trkpt>
      <trkpt lat="46.41546" lon="4.88625">
        <ele>184</ele>
        <time>2024-09-19T08:19:18Z</time>
      </trkpt>
      <trkpt lat="46.41539" lon="4.88623">
        <ele>184</ele>
        <time>2024-09-19T08:19:19Z</time>
      </trkpt>
      <trkpt lat="46.41537" lon="4.88622">
        <ele>184</ele>
        <time>2024-09-19T08:19:20Z</time>
      </trkpt>
      <trkpt lat="46.41531" lon="4.8862">
        <ele>184</ele>
        <time>2024-09-19T08:19:21Z</time>
      </trkpt>
      <trkpt lat="46.41529" lon="4.8862">
        <ele>184</ele>
        <time>2024-09-19T08:19:22Z</time>
      </trkpt>
      <trkpt lat="46.41524" lon="4.88618">
        <ele>184</ele>
        <time>2024-09-19T08:19:23Z</time>
      </trkpt>
      <trkpt lat="46.41517" lon="4.88616">
        <ele>184</ele>
        <time>2024-09-19T08:19:24Z</time>
      </trkpt>
      <trkpt lat="46.41515" lon="4.88616">
        <ele>184</ele>
        <time>2024-09-19T08:19:25Z</time>
      </trkpt>
      <trkpt lat="46.41508" lon="4.88613">
        <ele>184</ele>
        <time>2024-09-19T08:19:26Z</time>
      </trkpt>
      <trkpt lat="46.41506" lon="4.88613">
        <ele>183.8</ele>
        <time>2024-09-19T08:19:27Z</time>
      </trkpt>
      <trkpt lat="46.41499" lon="4.88611">
        <ele>183.8</ele>
        <time>2024-09-19T08:19:28Z</time>
      </trkpt>
      <trkpt lat="46.41497" lon="4.8861">
        <ele>183.8</ele>
        <time>2024-09-19T08:19:29Z</time>
      </trkpt>
      <trkpt lat="46.4149" lon="4.88608">
        <ele>183.8</ele>
        <time>2024-09-19T08:19:30Z</time>
      </trkpt>
      <trkpt lat="46.41488" lon="4.88607">
        <ele>183.8</ele>
        <time>2024-09-19T08:19:31Z</time>
      </trkpt>
      <trkpt lat="46.41482" lon="4.88605">
        <ele>183.8</ele>
        <time>2024-09-19T08:19:32Z</time>
      </trkpt>
      <trkpt lat="46.41479" lon="4.88604">
        <ele>183.8</ele>
        <time>2024-09-19T08:19:33Z</time>
      </trkpt>
      <trkpt lat="46.41473" lon="4.88602">
        <ele>183.8</ele>
        <time>2024-09-19T08:19:34Z</time>
      </trkpt>
      <trkpt lat="46.41471" lon="4.88601">
        <ele>184</ele>
        <time>2024-09-19T08:19:35Z</time>
      </trkpt>
      <trkpt lat="46.41464" lon="4.88599">
        <ele>184.2</ele>
        <time>2024-09-19T08:19:36Z</time>
      </trkpt>
      <trkpt lat="46.41462" lon="4.88599">
        <ele>184.2</ele>
        <time>2024-09-19T08:19:37Z</time>
      </trkpt>
      <trkpt lat="46.41457" lon="4.88598">
        <ele>184.2</ele>
        <time>2024-09-19T08:19:38Z</time>
      </trkpt>
      <trkpt lat="46.41452" lon="4.88597">
        <ele>184.2</ele>
        <time>2024-09-19T08:19:39Z</time>
      </trkpt>
      <trkpt lat="46.41447" lon="4.88596">
        <ele>184.2</ele>
        <time>2024-09-19T08:19:40Z</time>
      </trkpt>
      <trkpt lat="46.41443" lon="4.88594">
        <ele>184.2</ele>
        <time>2024-09-19T08:19:41Z</time>
      </trkpt>
      <trkpt lat="46.41436" lon="4.88593">
        <ele>184.2</ele>
        <time>2024-09-19T08:19:42Z</time>
      </trkpt>
      <trkpt lat="46.41433" lon="4.88592">
        <ele>184.2</ele>
        <time>2024-09-19T08:19:43Z</time>
      </trkpt>
      <trkpt lat="46.41426" lon="4.88591">
        <ele>184.2</ele>
        <time>2024-09-19T08:19:44Z</time>
      </trkpt>
      <trkpt lat="46.41424" lon="4.8859">
        <ele>184.2</ele>
        <time>2024-09-19T08:19:45Z</time>
      </trkpt>
      <trkpt lat="46.41419" lon="4.8859">
        <ele>184.2</ele>
        <time>2024-09-19T08:19:46Z</time>
      </trkpt>
      <trkpt lat="46.41415" lon="4.88589">
        <ele>184.2</ele>
        <time>2024-09-19T08:19:47Z</time>
      </trkpt>
      <trkpt lat="46.4141" lon="4.88589">
        <ele>184.2</ele>
        <time>2024-09-19T08:19:48Z</time>
      </trkpt>
      <trkpt lat="46.41406" lon="4.88588">
        <ele>184.2</ele>
        <time>2024-09-19T08:19:49Z</time>
      </trkpt>
      <trkpt lat="46.41401" lon="4.88588">
        <ele>184.2</ele>
        <time>2024-09-19T08:19:50Z</time>
      </trkpt>
      <trkpt lat="46.41396" lon="4.88587">
        <ele>184.2</ele>
        <time>2024-09-19T08:19:51Z</time>
      </trkpt>
      <trkpt lat="46.41391" lon="4.88587">
        <ele>184.2</ele>
        <time>2024-09-19T08:19:52Z</time>
      </trkpt>
      <trkpt lat="46.41387" lon="4.88587">
        <ele>184.2</ele>
        <time>2024-09-19T08:19:53Z</time>
      </trkpt>
      <trkpt lat="46.41382" lon="4.88586">
        <ele>184.4</ele>
        <time>2024-09-19T08:19:54Z</time>
      </trkpt>
      <trkpt lat="46.41377" lon="4.88586">
        <ele>184.4</ele>
        <time>2024-09-19T08:19:55Z</time>
      </trkpt>
      <trkpt lat="46.41373" lon="4.88585">
        <ele>184.4</ele>
        <time>2024-09-19T08:19:56Z</time>
      </trkpt>
      <trkpt lat="46.41368" lon="4.88585">
        <ele>184.4</ele>
        <time>2024-09-19T08:19:57Z</time>
      </trkpt>
      <trkpt lat="46.4136" lon="4.88584">
        <ele>184.2</ele>
        <time>2024-09-19T08:19:58Z</time>
      </trkpt>
      <trkpt lat="46.41358" lon="4.88584">
        <ele>184.4</ele>
        <time>2024-09-19T08:19:59Z</time>
      </trkpt>
      <trkpt lat="46.41351" lon="4.88583">
        <ele>184.4</ele>
        <time>2024-09-19T08:20:00Z</time>
      </trkpt>
      <trkpt lat="46.41348" lon="4.88583">
        <ele>184.4</ele>
        <time>2024-09-19T08:20:01Z</time>
      </trkpt>
      <trkpt lat="46.41341" lon="4.88583">
        <ele>183.8</ele>
        <time>2024-09-19T08:20:02Z</time>
      </trkpt>
      <trkpt lat="46.41339" lon="4.88582">
        <ele>184</ele>
        <time>2024-09-19T08:20:03Z</time>
      </trkpt>
      <trkpt lat="46.41332" lon="4.88581">
        <ele>184</ele>
        <time>2024-09-19T08:20:04Z</time>
      </trkpt>
      <trkpt lat="46.41329" lon="4.88581">
        <ele>184</ele>
        <time>2024-09-19T08:20:05Z</time>
      </trkpt>
      <trkpt lat="46.41322" lon="4.8858">
        <ele>184</ele>
        <time>2024-09-19T08:20:06Z</time>
      </trkpt>
      <trkpt lat="46.4132" lon="4.8858">
        <ele>183.8</ele>
        <time>2024-09-19T08:20:07Z</time>
      </trkpt>
      <trkpt lat="46.41312" lon="4.88579">
        <ele>183.8</ele>
        <time>2024-09-19T08:20:08Z</time>
      </trkpt>
      <trkpt lat="46.4131" lon="4.88579">
        <ele>183.8</ele>
        <time>2024-09-19T08:20:09Z</time>
      </trkpt>
      <trkpt lat="46.41302" lon="4.88578">
        <ele>183.8</ele>
        <time>2024-09-19T08:20:10Z</time>
      </trkpt>
      <trkpt lat="46.413" lon="4.88578">
        <ele>183.8</ele>
        <time>2024-09-19T08:20:11Z</time>
      </trkpt>
      <trkpt lat="46.41293" lon="4.88577">
        <ele>183.8</ele>
        <time>2024-09-19T08:20:12Z</time>
      </trkpt>
      <trkpt lat="46.41291" lon="4.88576">
        <ele>183.8</ele>
        <time>2024-09-19T08:20:13Z</time>
      </trkpt>
      <trkpt lat="46.41283" lon="4.88576">
        <ele>183.8</ele>
        <time>2024-09-19T08:20:14Z</time>
      </trkpt>
      <trkpt lat="46.41281" lon="4.88575">
        <ele>183.8</ele>
        <time>2024-09-19T08:20:15Z</time>
      </trkpt>
      <trkpt lat="46.41274" lon="4.88575">
        <ele>183.8</ele>
        <time>2024-09-19T08:20:16Z</time>
      </trkpt>
      <trkpt lat="46.41271" lon="4.88574">
        <ele>183.8</ele>
        <time>2024-09-19T08:20:17Z</time>
      </trkpt>
      <trkpt lat="46.41267" lon="4.88574">
        <ele>183.8</ele>
        <time>2024-09-19T08:20:18Z</time>
      </trkpt>
      <trkpt lat="46.41259" lon="4.88573">
        <ele>183.8</ele>
        <time>2024-09-19T08:20:19Z</time>
      </trkpt>
      <trkpt lat="46.41257" lon="4.88573">
        <ele>183.6</ele>
        <time>2024-09-19T08:20:20Z</time>
      </trkpt>
      <trkpt lat="46.41252" lon="4.88572">
        <ele>183.6</ele>
        <time>2024-09-19T08:20:21Z</time>
      </trkpt>
      <trkpt lat="46.41248" lon="4.88572">
        <ele>183.6</ele>
        <time>2024-09-19T08:20:22Z</time>
      </trkpt>
      <trkpt lat="46.41243" lon="4.88571">
        <ele>183.6</ele>
        <time>2024-09-19T08:20:23Z</time>
      </trkpt>
      <trkpt lat="46.41238" lon="4.88571">
        <ele>183.6</ele>
        <time>2024-09-19T08:20:24Z</time>
      </trkpt>
      <trkpt lat="46.41231" lon="4.8857">
        <ele>183.6</ele>
        <time>2024-09-19T08:20:25Z</time>
      </trkpt>
      <trkpt lat="46.41229" lon="4.8857">
        <ele>183.6</ele>
        <time>2024-09-19T08:20:26Z</time>
      </trkpt>
      <trkpt lat="46.41221" lon="4.88569">
        <ele>183.6</ele>
        <time>2024-09-19T08:20:27Z</time>
      </trkpt>
      <trkpt lat="46.41219" lon="4.88569">
        <ele>183.6</ele>
        <time>2024-09-19T08:20:28Z</time>
      </trkpt>
      <trkpt lat="46.41214" lon="4.88568">
        <ele>184</ele>
        <time>2024-09-19T08:20:29Z</time>
      </trkpt>
      <trkpt lat="46.4121" lon="4.88568">
        <ele>184</ele>
        <time>2024-09-19T08:20:30Z</time>
      </trkpt>
      <trkpt lat="46.41205" lon="4.88568">
        <ele>184</ele>
        <time>2024-09-19T08:20:31Z</time>
      </trkpt>
      <trkpt lat="46.412" lon="4.88568">
        <ele>184</ele>
        <time>2024-09-19T08:20:32Z</time>
      </trkpt>
      <trkpt lat="46.41195" lon="4.88567">
        <ele>184</ele>
        <time>2024-09-19T08:20:33Z</time>
      </trkpt>
      <trkpt lat="46.41191" lon="4.88567">
        <ele>184</ele>
        <time>2024-09-19T08:20:34Z</time>
      </trkpt>
      <trkpt lat="46.41186" lon="4.88568">
        <ele>183.8</ele>
        <time>2024-09-19T08:20:35Z</time>
      </trkpt>
      <trkpt lat="46.41181" lon="4.88568">
        <ele>183.8</ele>
        <time>2024-09-19T08:20:36Z</time>
      </trkpt>
      <trkpt lat="46.41176" lon="4.88569">
        <ele>183.8</ele>
        <time>2024-09-19T08:20:37Z</time>
      </trkpt>
      <trkpt lat="46.41172" lon="4.88569">
        <ele>183.8</ele>
        <time>2024-09-19T08:20:38Z</time>
      </trkpt>
      <trkpt lat="46.41167" lon="4.8857">
        <ele>183.6</ele>
        <time>2024-09-19T08:20:39Z</time>
      </trkpt>
      <trkpt lat="46.41162" lon="4.8857">
        <ele>183.6</ele>
        <time>2024-09-19T08:20:40Z</time>
      </trkpt>
      <trkpt lat="46.41158" lon="4.88571">
        <ele>183.6</ele>
        <time>2024-09-19T08:20:41Z</time>
      </trkpt>
      <trkpt lat="46.41153" lon="4.88571">
        <ele>183.6</ele>
        <time>2024-09-19T08:20:42Z</time>
      </trkpt>
      <trkpt lat="46.41146" lon="4.88573">
        <ele>184</ele>
        <time>2024-09-19T08:20:43Z</time>
      </trkpt>
      <trkpt lat="46.41144" lon="4.88573">
        <ele>184</ele>
        <time>2024-09-19T08:20:44Z</time>
      </trkpt>
      <trkpt lat="46.41137" lon="4.88574">
        <ele>184</ele>
        <time>2024-09-19T08:20:45Z</time>
      </trkpt>
      <trkpt lat="46.41135" lon="4.88574">
        <ele>184</ele>
        <time>2024-09-19T08:20:46Z</time>
      </trkpt>
      <trkpt lat="46.41128" lon="4.88575">
        <ele>184</ele>
        <time>2024-09-19T08:20:47Z</time>
      </trkpt>
      <trkpt lat="46.41126" lon="4.88575">
        <ele>183.8</ele>
        <time>2024-09-19T08:20:48Z</time>
      </trkpt>
      <trkpt lat="46.41118" lon="4.88576">
        <ele>183.8</ele>
        <time>2024-09-19T08:20:49Z</time>
      </trkpt>
      <trkpt lat="46.41116" lon="4.88576">
        <ele>183.8</ele>
        <time>2024-09-19T08:20:50Z</time>
      </trkpt>
      <trkpt lat="46.41111" lon="4.88577">
        <ele>184.2</ele>
        <time>2024-09-19T08:20:51Z</time>
      </trkpt>
      <trkpt lat="46.41107" lon="4.88577">
        <ele>184</ele>
        <time>2024-09-19T08:20:52Z</time>
      </trkpt>
      <trkpt lat="46.41099" lon="4.88578">
        <ele>184</ele>
        <time>2024-09-19T08:20:53Z</time>
      </trkpt>
      <trkpt lat="46.41097" lon="4.88579">
        <ele>184</ele>
        <time>2024-09-19T08:20:54Z</time>
      </trkpt>
      <trkpt lat="46.4109" lon="4.8858">
        <ele>184</ele>
        <time>2024-09-19T08:20:55Z</time>
      </trkpt>
      <trkpt lat="46.41087" lon="4.8858">
        <ele>184</ele>
        <time>2024-09-19T08:20:56Z</time>
      </trkpt>
      <trkpt lat="46.4108" lon="4.88581">
        <ele>184</ele>
        <time>2024-09-19T08:20:57Z</time>
      </trkpt>
      <trkpt lat="46.41077" lon="4.88581">
        <ele>184</ele>
        <time>2024-09-19T08:20:58Z</time>
      </trkpt>
      <trkpt lat="46.4107" lon="4.88582">
        <ele>184</ele>
        <time>2024-09-19T08:20:59Z</time>
      </trkpt>
      <trkpt lat="46.41068" lon="4.88583">
        <ele>184</ele>
        <time>2024-09-19T08:21:00Z</time>
      </trkpt>
      <trkpt lat="46.41063" lon="4.88583">
        <ele>184</ele>
        <time>2024-09-19T08:21:01Z</time>
      </trkpt>
      <trkpt lat="46.41056" lon="4.88584">
        <ele>184</ele>
        <time>2024-09-19T08:21:02Z</time>
      </trkpt>
      <trkpt lat="46.41054" lon="4.88584">
        <ele>184</ele>
        <time>2024-09-19T08:21:03Z</time>
      </trkpt>
      <trkpt lat="46.41049" lon="4.88585">
        <ele>184</ele>
        <time>2024-09-19T08:21:04Z</time>
      </trkpt>
      <trkpt lat="46.41045" lon="4.88585">
        <ele>184.4</ele>
        <time>2024-09-19T08:21:05Z</time>
      </trkpt>
      <trkpt lat="46.41038" lon="4.88584">
        <ele>184.4</ele>
        <time>2024-09-19T08:21:06Z</time>
      </trkpt>
      <trkpt lat="46.41036" lon="4.88584">
        <ele>184.4</ele>
        <time>2024-09-19T08:21:07Z</time>
      </trkpt>
      <trkpt lat="46.4103" lon="4.88581">
        <ele>183.4</ele>
        <time>2024-09-19T08:21:08Z</time>
      </trkpt>
      <trkpt lat="46.41028" lon="4.8858">
        <ele>183.4</ele>
        <time>2024-09-19T08:21:09Z</time>
      </trkpt>
      <trkpt lat="46.41022" lon="4.88576">
        <ele>183.6</ele>
        <time>2024-09-19T08:21:10Z</time>
      </trkpt>
      <trkpt lat="46.4102" lon="4.88575">
        <ele>183.6</ele>
        <time>2024-09-19T08:21:11Z</time>
      </trkpt>
      <trkpt lat="46.41016" lon="4.88572">
        <ele>183.6</ele>
        <time>2024-09-19T08:21:12Z</time>
      </trkpt>
      <trkpt lat="46.41013" lon="4.8857">
        <ele>183.6</ele>
        <time>2024-09-19T08:21:13Z</time>
      </trkpt>
      <trkpt lat="46.41009" lon="4.88567">
        <ele>184.4</ele>
        <time>2024-09-19T08:21:14Z</time>
      </trkpt>
      <trkpt lat="46.41006" lon="4.88565">
        <ele>184.4</ele>
        <time>2024-09-19T08:21:15Z</time>
      </trkpt>
      <trkpt lat="46.41003" lon="4.88562">
        <ele>184.4</ele>
        <time>2024-09-19T08:21:16Z</time>
      </trkpt>
      <trkpt lat="46.40999" lon="4.88559">
        <ele>184.4</ele>
        <time>2024-09-19T08:21:17Z</time>
      </trkpt>
      <trkpt lat="46.40998" lon="4.88558">
        <ele>183.8</ele>
        <time>2024-09-19T08:21:18Z</time>
      </trkpt>
      <trkpt lat="46.40996" lon="4.88557">
        <ele>184</ele>
        <time>2024-09-19T08:21:19Z</time>
      </trkpt>
      <trkpt lat="46.40995" lon="4.88556">
        <ele>184</ele>
        <time>2024-09-19T08:21:20Z</time>
      </trkpt>
      <trkpt lat="46.40995" lon="4.88554">
        <ele>184</ele>
        <time>2024-09-19T08:21:21Z</time>
      </trkpt>
      <trkpt lat="46.40996" lon="4.88552">
        <ele>184</ele>
        <time>2024-09-19T08:21:22Z</time>
      </trkpt>
      <trkpt lat="46.40997" lon="4.88551">
        <ele>184</ele>
        <time>2024-09-19T08:21:23Z</time>
      </trkpt>
      <trkpt lat="46.40998" lon="4.88553">
        <ele>184</ele>
        <time>2024-09-19T08:21:24Z</time>
      </trkpt>
      <trkpt lat="46.40998" lon="4.88557">
        <ele>184</ele>
        <time>2024-09-19T08:21:25Z</time>
      </trkpt>
      <trkpt lat="46.40998" lon="4.88558">
        <ele>184</ele>
        <time>2024-09-19T08:21:26Z</time>
      </trkpt>
      <trkpt lat="46.40996" lon="4.8856">
        <ele>184</ele>
        <time>2024-09-19T08:21:27Z</time>
      </trkpt>
      <trkpt lat="46.40995" lon="4.88561">
        <ele>184.2</ele>
        <time>2024-09-19T08:21:28Z</time>
      </trkpt>
      <trkpt lat="46.40992" lon="4.88561">
        <ele>184.2</ele>
        <time>2024-09-19T08:21:29Z</time>
      </trkpt>
      <trkpt lat="46.40991" lon="4.88561">
        <ele>184.2</ele>
        <time>2024-09-19T08:21:30Z</time>
      </trkpt>
      <trkpt lat="46.40989" lon="4.88562">
        <ele>184.6</ele>
        <time>2024-09-19T08:21:31Z</time>
      </trkpt>
      <trkpt lat="46.40988" lon="4.88563">
        <ele>184.6</ele>
        <time>2024-09-19T08:21:32Z</time>
      </trkpt>
      <trkpt lat="46.40987" lon="4.88564">
        <ele>184.6</ele>
        <time>2024-09-19T08:21:33Z</time>
      </trkpt>
      <trkpt lat="46.40987" lon="4.88566">
        <ele>184.6</ele>
        <time>2024-09-19T08:21:34Z</time>
      </trkpt>
      <trkpt lat="46.40986" lon="4.88567">
        <ele>184.6</ele>
        <time>2024-09-19T08:21:35Z</time>
      </trkpt>
      <trkpt lat="46.40985" lon="4.88568">
        <ele>184.6</ele>
        <time>2024-09-19T08:21:36Z</time>
      </trkpt>
      <trkpt lat="46.40983" lon="4.88569">
        <ele>184.8</ele>
        <time>2024-09-19T08:21:37Z</time>
      </trkpt>
      <trkpt lat="46.40981" lon="4.88572">
        <ele>184.8</ele>
        <time>2024-09-19T08:21:38Z</time>
      </trkpt>
      <trkpt lat="46.4098" lon="4.88573">
        <ele>184.8</ele>
        <time>2024-09-19T08:21:39Z</time>
      </trkpt>
      <trkpt lat="46.40977" lon="4.88576">
        <ele>184.8</ele>
        <time>2024-09-19T08:21:40Z</time>
      </trkpt>
      <trkpt lat="46.40975" lon="4.88578">
        <ele>184.6</ele>
        <time>2024-09-19T08:21:41Z</time>
      </trkpt>
      <trkpt lat="46.40971" lon="4.88582">
        <ele>184.6</ele>
        <time>2024-09-19T08:21:42Z</time>
      </trkpt>
      <trkpt lat="46.40969" lon="4.88584">
        <ele>184.6</ele>
        <time>2024-09-19T08:21:43Z</time>
      </trkpt>
      <trkpt lat="46.40964" lon="4.8859">
        <ele>184.6</ele>
        <time>2024-09-19T08:21:44Z</time>
      </trkpt>
      <trkpt lat="46.40963" lon="4.88592">
        <ele>184.2</ele>
        <time>2024-09-19T08:21:45Z</time>
      </trkpt>
      <trkpt lat="46.40959" lon="4.88596">
        <ele>184.2</ele>
        <time>2024-09-19T08:21:46Z</time>
      </trkpt>
      <trkpt lat="46.40956" lon="4.886">
        <ele>184.2</ele>
        <time>2024-09-19T08:21:47Z</time>
      </trkpt>
      <trkpt lat="46.40952" lon="4.88604">
        <ele>184.2</ele>
        <time>2024-09-19T08:21:48Z</time>
      </trkpt>
      <trkpt lat="46.40949" lon="4.88609">
        <ele>184.2</ele>
        <time>2024-09-19T08:21:49Z</time>
      </trkpt>
      <trkpt lat="46.40946" lon="4.88613">
        <ele>184.4</ele>
        <time>2024-09-19T08:21:50Z</time>
      </trkpt>
      <trkpt lat="46.40943" lon="4.88617">
        <ele>184.4</ele>
        <time>2024-09-19T08:21:51Z</time>
      </trkpt>
      <trkpt lat="46.40938" lon="4.88623">
        <ele>184.4</ele>
        <time>2024-09-19T08:21:52Z</time>
      </trkpt>
      <trkpt lat="46.40936" lon="4.88626">
        <ele>184.4</ele>
        <time>2024-09-19T08:21:53Z</time>
      </trkpt>
      <trkpt lat="46.40931" lon="4.88632">
        <ele>184.4</ele>
        <time>2024-09-19T08:21:54Z</time>
      </trkpt>
      <trkpt lat="46.40929" lon="4.88634">
        <ele>184.4</ele>
        <time>2024-09-19T08:21:55Z</time>
      </trkpt>
      <trkpt lat="46.40925" lon="4.88638">
        <ele>184.4</ele>
        <time>2024-09-19T08:21:56Z</time>
      </trkpt>
      <trkpt lat="46.40921" lon="4.88642">
        <ele>184.4</ele>
        <time>2024-09-19T08:21:57Z</time>
      </trkpt>
      <trkpt lat="46.40916" lon="4.88645">
        <ele>184.2</ele>
        <time>2024-09-19T08:21:58Z</time>
      </trkpt>
      <trkpt lat="46.40912" lon="4.88648">
        <ele>184.2</ele>
        <time>2024-09-19T08:21:59Z</time>
      </trkpt>
      <trkpt lat="46.40907" lon="4.88651">
        <ele>184.2</ele>
        <time>2024-09-19T08:22:00Z</time>
      </trkpt>
      <trkpt lat="46.40902" lon="4.88653">
        <ele>184.2</ele>
        <time>2024-09-19T08:22:01Z</time>
      </trkpt>
      <trkpt lat="46.40897" lon="4.88656">
        <ele>184.2</ele>
        <time>2024-09-19T08:22:02Z</time>
      </trkpt>
      <trkpt lat="46.40892" lon="4.88657">
        <ele>183.8</ele>
        <time>2024-09-19T08:22:03Z</time>
      </trkpt>
      <trkpt lat="46.40887" lon="4.88659">
        <ele>184</ele>
        <time>2024-09-19T08:22:04Z</time>
      </trkpt>
      <trkpt lat="46.40882" lon="4.88661">
        <ele>184</ele>
        <time>2024-09-19T08:22:05Z</time>
      </trkpt>
      <trkpt lat="46.40877" lon="4.88663">
        <ele>184</ele>
        <time>2024-09-19T08:22:06Z</time>
      </trkpt>
      <trkpt lat="46.40872" lon="4.88665">
        <ele>184</ele>
        <time>2024-09-19T08:22:07Z</time>
      </trkpt>
      <trkpt lat="46.40865" lon="4.88668">
        <ele>184</ele>
        <time>2024-09-19T08:22:08Z</time>
      </trkpt>
      <trkpt lat="46.40863" lon="4.88669">
        <ele>184</ele>
        <time>2024-09-19T08:22:09Z</time>
      </trkpt>
      <trkpt lat="46.40855" lon="4.88671">
        <ele>184</ele>
        <time>2024-09-19T08:22:10Z</time>
      </trkpt>
      <trkpt lat="46.40853" lon="4.88672">
        <ele>183.8</ele>
        <time>2024-09-19T08:22:11Z</time>
      </trkpt>
      <trkpt lat="46.40846" lon="4.88674">
        <ele>184</ele>
        <time>2024-09-19T08:22:12Z</time>
      </trkpt>
      <trkpt lat="46.40844" lon="4.88675">
        <ele>184</ele>
        <time>2024-09-19T08:22:13Z</time>
      </trkpt>
      <trkpt lat="46.40837" lon="4.88676">
        <ele>184</ele>
        <time>2024-09-19T08:22:14Z</time>
      </trkpt>
      <trkpt lat="46.40835" lon="4.88677">
        <ele>184</ele>
        <time>2024-09-19T08:22:15Z</time>
      </trkpt>
      <trkpt lat="46.40828" lon="4.88678">
        <ele>183.8</ele>
        <time>2024-09-19T08:22:16Z</time>
      </trkpt>
      <trkpt lat="46.40825" lon="4.88679">
        <ele>183.8</ele>
        <time>2024-09-19T08:22:17Z</time>
      </trkpt>
      <trkpt lat="46.40818" lon="4.8868">
        <ele>183.8</ele>
        <time>2024-09-19T08:22:18Z</time>
      </trkpt>
      <trkpt lat="46.40816" lon="4.8868">
        <ele>183.8</ele>
        <time>2024-09-19T08:22:19Z</time>
      </trkpt>
      <trkpt lat="46.40811" lon="4.88681">
        <ele>183.8</ele>
        <time>2024-09-19T08:22:20Z</time>
      </trkpt>
      <trkpt lat="46.40804" lon="4.88682">
        <ele>183.8</ele>
        <time>2024-09-19T08:22:21Z</time>
      </trkpt>
      <trkpt lat="46.40801" lon="4.88683">
        <ele>184</ele>
        <time>2024-09-19T08:22:22Z</time>
      </trkpt>
      <trkpt lat="46.40794" lon="4.88684">
        <ele>184</ele>
        <time>2024-09-19T08:22:23Z</time>
      </trkpt>
      <trkpt lat="46.40791" lon="4.88684">
        <ele>184</ele>
        <time>2024-09-19T08:22:24Z</time>
      </trkpt>
      <trkpt lat="46.40784" lon="4.88686">
        <ele>184</ele>
        <time>2024-09-19T08:22:25Z</time>
      </trkpt>
      <trkpt lat="46.40781" lon="4.88686">
        <ele>183.8</ele>
        <time>2024-09-19T08:22:26Z</time>
      </trkpt>
      <trkpt lat="46.40774" lon="4.88688">
        <ele>183.8</ele>
        <time>2024-09-19T08:22:27Z</time>
      </trkpt>
      <trkpt lat="46.40772" lon="4.88688">
        <ele>183.8</ele>
        <time>2024-09-19T08:22:28Z</time>
      </trkpt>
      <trkpt lat="46.40764" lon="4.8869">
        <ele>183.8</ele>
        <time>2024-09-19T08:22:29Z</time>
      </trkpt>
      <trkpt lat="46.40762" lon="4.8869">
        <ele>183.8</ele>
        <time>2024-09-19T08:22:30Z</time>
      </trkpt>
      <trkpt lat="46.40757" lon="4.88692">
        <ele>183.8</ele>
        <time>2024-09-19T08:22:31Z</time>
      </trkpt>
      <trkpt lat="46.40752" lon="4.88693">
        <ele>183.8</ele>
        <time>2024-09-19T08:22:32Z</time>
      </trkpt>
      <trkpt lat="46.40747" lon="4.88694">
        <ele>183.8</ele>
        <time>2024-09-19T08:22:33Z</time>
      </trkpt>
      <trkpt lat="46.40742" lon="4.88695">
        <ele>183.8</ele>
        <time>2024-09-19T08:22:34Z</time>
      </trkpt>
      <trkpt lat="46.40735" lon="4.88696">
        <ele>184</ele>
        <time>2024-09-19T08:22:35Z</time>
      </trkpt>
      <trkpt lat="46.40733" lon="4.88697">
        <ele>184</ele>
        <time>2024-09-19T08:22:36Z</time>
      </trkpt>
      <trkpt lat="46.40726" lon="4.88698">
        <ele>184</ele>
        <time>2024-09-19T08:22:37Z</time>
      </trkpt>
      <trkpt lat="46.40724" lon="4.88699">
        <ele>184</ele>
        <time>2024-09-19T08:22:38Z</time>
      </trkpt>
      <trkpt lat="46.40718" lon="4.88701">
        <ele>184.2</ele>
        <time>2024-09-19T08:22:39Z</time>
      </trkpt>
      <trkpt lat="46.40715" lon="4.88701">
        <ele>184.2</ele>
        <time>2024-09-19T08:22:40Z</time>
      </trkpt>
      <trkpt lat="46.40711" lon="4.88703">
        <ele>184.2</ele>
        <time>2024-09-19T08:22:41Z</time>
      </trkpt>
      <trkpt lat="46.40707" lon="4.88704">
        <ele>184.2</ele>
        <time>2024-09-19T08:22:42Z</time>
      </trkpt>
      <trkpt lat="46.40702" lon="4.88706">
        <ele>184.2</ele>
        <time>2024-09-19T08:22:43Z</time>
      </trkpt>
      <trkpt lat="46.40698" lon="4.88708">
        <ele>184.6</ele>
        <time>2024-09-19T08:22:44Z</time>
      </trkpt>
      <trkpt lat="46.40694" lon="4.8871">
        <ele>184.6</ele>
        <time>2024-09-19T08:22:45Z</time>
      </trkpt>
      <trkpt lat="46.40689" lon="4.88712">
        <ele>184.6</ele>
        <time>2024-09-19T08:22:46Z</time>
      </trkpt>
      <trkpt lat="46.40685" lon="4.88714">
        <ele>184.6</ele>
        <time>2024-09-19T08:22:47Z</time>
      </trkpt>
      <trkpt lat="46.40681" lon="4.88716">
        <ele>184</ele>
        <time>2024-09-19T08:22:48Z</time>
      </trkpt>
      <trkpt lat="46.40676" lon="4.88718">
        <ele>184.2</ele>
        <time>2024-09-19T08:22:49Z</time>
      </trkpt>
      <trkpt lat="46.40671" lon="4.8872">
        <ele>184.2</ele>
        <time>2024-09-19T08:22:50Z</time>
      </trkpt>
      <trkpt lat="46.40667" lon="4.88722">
        <ele>184.2</ele>
        <time>2024-09-19T08:22:51Z</time>
      </trkpt>
      <trkpt lat="46.40662" lon="4.88724">
        <ele>184.2</ele>
        <time>2024-09-19T08:22:52Z</time>
      </trkpt>
      <trkpt lat="46.40655" lon="4.88726">
        <ele>184</ele>
        <time>2024-09-19T08:22:53Z</time>
      </trkpt>
      <trkpt lat="46.40653" lon="4.88727">
        <ele>184</ele>
        <time>2024-09-19T08:22:54Z</time>
      </trkpt>
      <trkpt lat="46.40646" lon="4.88729">
        <ele>184</ele>
        <time>2024-09-19T08:22:55Z</time>
      </trkpt>
      <trkpt lat="46.40643" lon="4.88729">
        <ele>184.2</ele>
        <time>2024-09-19T08:22:56Z</time>
      </trkpt>
      <trkpt lat="46.40636" lon="4.88731">
        <ele>184.2</ele>
        <time>2024-09-19T08:22:57Z</time>
      </trkpt>
      <trkpt lat="46.40634" lon="4.88731">
        <ele>184.2</ele>
        <time>2024-09-19T08:22:58Z</time>
      </trkpt>
      <trkpt lat="46.40627" lon="4.88733">
        <ele>184.2</ele>
        <time>2024-09-19T08:22:59Z</time>
      </trkpt>
      <trkpt lat="46.40625" lon="4.88733">
        <ele>184.2</ele>
        <time>2024-09-19T08:23:00Z</time>
      </trkpt>
      <trkpt lat="46.40617" lon="4.88734">
        <ele>184.2</ele>
        <time>2024-09-19T08:23:01Z</time>
      </trkpt>
      <trkpt lat="46.40615" lon="4.88734">
        <ele>184.2</ele>
        <time>2024-09-19T08:23:02Z</time>
      </trkpt>
      <trkpt lat="46.40608" lon="4.88734">
        <ele>184.2</ele>
        <time>2024-09-19T08:23:03Z</time>
      </trkpt>
      <trkpt lat="46.40605" lon="4.88734">
        <ele>184.2</ele>
        <time>2024-09-19T08:23:04Z</time>
      </trkpt>
      <trkpt lat="46.40598" lon="4.88734">
        <ele>184.2</ele>
        <time>2024-09-19T08:23:05Z</time>
      </trkpt>
      <trkpt lat="46.40596" lon="4.88733">
        <ele>184</ele>
        <time>2024-09-19T08:23:06Z</time>
      </trkpt>
      <trkpt lat="46.40589" lon="4.88733">
        <ele>184</ele>
        <time>2024-09-19T08:23:07Z</time>
      </trkpt>
      <trkpt lat="46.40587" lon="4.88732">
        <ele>184</ele>
        <time>2024-09-19T08:23:08Z</time>
      </trkpt>
      <trkpt lat="46.40582" lon="4.88732">
        <ele>184</ele>
        <time>2024-09-19T08:23:09Z</time>
      </trkpt>
      <trkpt lat="46.40575" lon="4.88731">
        <ele>184</ele>
        <time>2024-09-19T08:23:10Z</time>
      </trkpt>
      <trkpt lat="46.40573" lon="4.8873">
        <ele>184.2</ele>
        <time>2024-09-19T08:23:11Z</time>
      </trkpt>
      <trkpt lat="46.40568" lon="4.8873">
        <ele>184.2</ele>
        <time>2024-09-19T08:23:12Z</time>
      </trkpt>
      <trkpt lat="46.40564" lon="4.88729">
        <ele>184.2</ele>
        <time>2024-09-19T08:23:13Z</time>
      </trkpt>
      <trkpt lat="46.40559" lon="4.88728">
        <ele>184.2</ele>
        <time>2024-09-19T08:23:14Z</time>
      </trkpt>
      <trkpt lat="46.40554" lon="4.88728">
        <ele>184.4</ele>
        <time>2024-09-19T08:23:15Z</time>
      </trkpt>
      <trkpt lat="46.4055" lon="4.88727">
        <ele>184.4</ele>
        <time>2024-09-19T08:23:16Z</time>
      </trkpt>
      <trkpt lat="46.40545" lon="4.88726">
        <ele>184.4</ele>
        <time>2024-09-19T08:23:17Z</time>
      </trkpt>
      <trkpt lat="46.40538" lon="4.88725">
        <ele>184.4</ele>
        <time>2024-09-19T08:23:18Z</time>
      </trkpt>
      <trkpt lat="46.40536" lon="4.88724">
        <ele>184.4</ele>
        <time>2024-09-19T08:23:19Z</time>
      </trkpt>
      <trkpt lat="46.40529" lon="4.88723">
        <ele>184</ele>
        <time>2024-09-19T08:23:20Z</time>
      </trkpt>
      <trkpt lat="46.40527" lon="4.88723">
        <ele>184</ele>
        <time>2024-09-19T08:23:21Z</time>
      </trkpt>
      <trkpt lat="46.40523" lon="4.88723">
        <ele>184</ele>
        <time>2024-09-19T08:23:22Z</time>
      </trkpt>
      <trkpt lat="46.40518" lon="4.88721">
        <ele>184</ele>
        <time>2024-09-19T08:23:23Z</time>
      </trkpt>
      <trkpt lat="46.40514" lon="4.8872">
        <ele>184</ele>
        <time>2024-09-19T08:23:24Z</time>
      </trkpt>
      <trkpt lat="46.40509" lon="4.88719">
        <ele>184.2</ele>
        <time>2024-09-19T08:23:25Z</time>
      </trkpt>
      <trkpt lat="46.40504" lon="4.88718">
        <ele>184.2</ele>
        <time>2024-09-19T08:23:26Z</time>
      </trkpt>
      <trkpt lat="46.40499" lon="4.88717">
        <ele>184.2</ele>
        <time>2024-09-19T08:23:27Z</time>
      </trkpt>
      <trkpt lat="46.40494" lon="4.88716">
        <ele>183.8</ele>
        <time>2024-09-19T08:23:28Z</time>
      </trkpt>
      <trkpt lat="46.40489" lon="4.88714">
        <ele>183.6</ele>
        <time>2024-09-19T08:23:29Z</time>
      </trkpt>
      <trkpt lat="46.40484" lon="4.88712">
        <ele>183.6</ele>
        <time>2024-09-19T08:23:30Z</time>
      </trkpt>
      <trkpt lat="46.40479" lon="4.8871">
        <ele>183.6</ele>
        <time>2024-09-19T08:23:31Z</time>
      </trkpt>
      <trkpt lat="46.40475" lon="4.88708">
        <ele>183.6</ele>
        <time>2024-09-19T08:23:32Z</time>
      </trkpt>
      <trkpt lat="46.4047" lon="4.88706">
        <ele>183.6</ele>
        <time>2024-09-19T08:23:33Z</time>
      </trkpt>
      <trkpt lat="46.40463" lon="4.88702">
        <ele>183.6</ele>
        <time>2024-09-19T08:23:34Z</time>
      </trkpt>
      <trkpt lat="46.40461" lon="4.88701">
        <ele>183.6</ele>
        <time>2024-09-19T08:23:35Z</time>
      </trkpt>
      <trkpt lat="46.40453" lon="4.88697">
        <ele>183.6</ele>
        <time>2024-09-19T08:23:36Z</time>
      </trkpt>
      <trkpt lat="46.40451" lon="4.88695">
        <ele>183.6</ele>
        <time>2024-09-19T08:23:37Z</time>
      </trkpt>
      <trkpt lat="46.40444" lon="4.88691">
        <ele>183.6</ele>
        <time>2024-09-19T08:23:38Z</time>
      </trkpt>
      <trkpt lat="46.40442" lon="4.8869">
        <ele>183.4</ele>
        <time>2024-09-19T08:23:39Z</time>
      </trkpt>
      <trkpt lat="46.40437" lon="4.88686">
        <ele>183.4</ele>
        <time>2024-09-19T08:23:40Z</time>
      </trkpt>
      <trkpt lat="46.4043" lon="4.88681">
        <ele>183.4</ele>
        <time>2024-09-19T08:23:41Z</time>
      </trkpt>
      <trkpt lat="46.40428" lon="4.88679">
        <ele>183.4</ele>
        <time>2024-09-19T08:23:42Z</time>
      </trkpt>
      <trkpt lat="46.40422" lon="4.88674">
        <ele>183.4</ele>
        <time>2024-09-19T08:23:43Z</time>
      </trkpt>
      <trkpt lat="46.40419" lon="4.88672">
        <ele>183.4</ele>
        <time>2024-09-19T08:23:44Z</time>
      </trkpt>
      <trkpt lat="46.40413" lon="4.88667">
        <ele>183.4</ele>
        <time>2024-09-19T08:23:45Z</time>
      </trkpt>
      <trkpt lat="46.40411" lon="4.88665">
        <ele>183.4</ele>
        <time>2024-09-19T08:23:46Z</time>
      </trkpt>
      <trkpt lat="46.40405" lon="4.8866">
        <ele>183.6</ele>
        <time>2024-09-19T08:23:47Z</time>
      </trkpt>
      <trkpt lat="46.40403" lon="4.88658">
        <ele>183.6</ele>
        <time>2024-09-19T08:23:48Z</time>
      </trkpt>
      <trkpt lat="46.40397" lon="4.88652">
        <ele>183.6</ele>
        <time>2024-09-19T08:23:49Z</time>
      </trkpt>
      <trkpt lat="46.40395" lon="4.8865">
        <ele>183.6</ele>
        <time>2024-09-19T08:23:50Z</time>
      </trkpt>
      <trkpt lat="46.40389" lon="4.88645">
        <ele>183.6</ele>
        <time>2024-09-19T08:23:51Z</time>
      </trkpt>
      <trkpt lat="46.40387" lon="4.88643">
        <ele>183.6</ele>
        <time>2024-09-19T08:23:52Z</time>
      </trkpt>
      <trkpt lat="46.40381" lon="4.88637">
        <ele>183.6</ele>
        <time>2024-09-19T08:23:53Z</time>
      </trkpt>
      <trkpt lat="46.40379" lon="4.88635">
        <ele>183.6</ele>
        <time>2024-09-19T08:23:54Z</time>
      </trkpt>
      <trkpt lat="46.40373" lon="4.88629">
        <ele>183.6</ele>
        <time>2024-09-19T08:23:55Z</time>
      </trkpt>
      <trkpt lat="46.4037" lon="4.88628">
        <ele>183.4</ele>
        <time>2024-09-19T08:23:56Z</time>
      </trkpt>
      <trkpt lat="46.40366" lon="4.88624">
        <ele>183.4</ele>
        <time>2024-09-19T08:23:57Z</time>
      </trkpt>
      <trkpt lat="46.40362" lon="4.88621">
        <ele>183.4</ele>
        <time>2024-09-19T08:23:58Z</time>
      </trkpt>
      <trkpt lat="46.40358" lon="4.88617">
        <ele>183.6</ele>
        <time>2024-09-19T08:23:59Z</time>
      </trkpt>
      <trkpt lat="46.40353" lon="4.88614">
        <ele>183.6</ele>
        <time>2024-09-19T08:24:00Z</time>
      </trkpt>
      <trkpt lat="46.40347" lon="4.88609">
        <ele>183.6</ele>
        <time>2024-09-19T08:24:01Z</time>
      </trkpt>
      <trkpt lat="46.40345" lon="4.88608">
        <ele>183.6</ele>
        <time>2024-09-19T08:24:02Z</time>
      </trkpt>
      <trkpt lat="46.40339" lon="4.88603">
        <ele>183.6</ele>
        <time>2024-09-19T08:24:03Z</time>
      </trkpt>
      <trkpt lat="46.40337" lon="4.88601">
        <ele>183.6</ele>
        <time>2024-09-19T08:24:04Z</time>
      </trkpt>
      <trkpt lat="46.40333" lon="4.88598">
        <ele>183.8</ele>
        <time>2024-09-19T08:24:05Z</time>
      </trkpt>
      <trkpt lat="46.40329" lon="4.88595">
        <ele>183.8</ele>
        <time>2024-09-19T08:24:06Z</time>
      </trkpt>
      <trkpt lat="46.40325" lon="4.88592">
        <ele>183.8</ele>
        <time>2024-09-19T08:24:07Z</time>
      </trkpt>
      <trkpt lat="46.40321" lon="4.88589">
        <ele>183.8</ele>
        <time>2024-09-19T08:24:08Z</time>
      </trkpt>
      <trkpt lat="46.40317" lon="4.88586">
        <ele>183.8</ele>
        <time>2024-09-19T08:24:09Z</time>
      </trkpt>
      <trkpt lat="46.40313" lon="4.88583">
        <ele>183.6</ele>
        <time>2024-09-19T08:24:10Z</time>
      </trkpt>
      <trkpt lat="46.40309" lon="4.8858">
        <ele>183.6</ele>
        <time>2024-09-19T08:24:11Z</time>
      </trkpt>
      <trkpt lat="46.40303" lon="4.88576">
        <ele>183.6</ele>
        <time>2024-09-19T08:24:12Z</time>
      </trkpt>
      <trkpt lat="46.40301" lon="4.88575">
        <ele>183.6</ele>
        <time>2024-09-19T08:24:13Z</time>
      </trkpt>
      <trkpt lat="46.40297" lon="4.88572">
        <ele>184</ele>
        <time>2024-09-19T08:24:14Z</time>
      </trkpt>
      <trkpt lat="46.40293" lon="4.88569">
        <ele>184</ele>
        <time>2024-09-19T08:24:15Z</time>
      </trkpt>
      <trkpt lat="46.40289" lon="4.88566">
        <ele>184</ele>
        <time>2024-09-19T08:24:16Z</time>
      </trkpt>
      <trkpt lat="46.40283" lon="4.88562">
        <ele>184</ele>
        <time>2024-09-19T08:24:17Z</time>
      </trkpt>
      <trkpt lat="46.40281" lon="4.8856">
        <ele>183.8</ele>
        <time>2024-09-19T08:24:18Z</time>
      </trkpt>
      <trkpt lat="46.40275" lon="4.88556">
        <ele>184</ele>
        <time>2024-09-19T08:24:19Z</time>
      </trkpt>
      <trkpt lat="46.40273" lon="4.88555">
        <ele>184</ele>
        <time>2024-09-19T08:24:20Z</time>
      </trkpt>
      <trkpt lat="46.40266" lon="4.88551">
        <ele>184</ele>
        <time>2024-09-19T08:24:21Z</time>
      </trkpt>
      <trkpt lat="46.40264" lon="4.88549">
        <ele>184</ele>
        <time>2024-09-19T08:24:22Z</time>
      </trkpt>
      <trkpt lat="46.40258" lon="4.88545">
        <ele>184</ele>
        <time>2024-09-19T08:24:23Z</time>
      </trkpt>
      <trkpt lat="46.40256" lon="4.88543">
        <ele>184</ele>
        <time>2024-09-19T08:24:24Z</time>
      </trkpt>
      <trkpt lat="46.40249" lon="4.88539">
        <ele>184</ele>
        <time>2024-09-19T08:24:25Z</time>
      </trkpt>
      <trkpt lat="46.40247" lon="4.88537">
        <ele>184.2</ele>
        <time>2024-09-19T08:24:26Z</time>
      </trkpt>
      <trkpt lat="46.40241" lon="4.88533">
        <ele>184.2</ele>
        <time>2024-09-19T08:24:27Z</time>
      </trkpt>
      <trkpt lat="46.40239" lon="4.88531">
        <ele>183.8</ele>
        <time>2024-09-19T08:24:28Z</time>
      </trkpt>
      <trkpt lat="46.40232" lon="4.88527">
        <ele>183.8</ele>
        <time>2024-09-19T08:24:29Z</time>
      </trkpt>
      <trkpt lat="46.4023" lon="4.88525">
        <ele>183.8</ele>
        <time>2024-09-19T08:24:30Z</time>
      </trkpt>
      <trkpt lat="46.40224" lon="4.8852">
        <ele>183.8</ele>
        <time>2024-09-19T08:24:31Z</time>
      </trkpt>
      <trkpt lat="46.40222" lon="4.88519">
        <ele>184</ele>
        <time>2024-09-19T08:24:32Z</time>
      </trkpt>
      <trkpt lat="46.40216" lon="4.88514">
        <ele>184</ele>
        <time>2024-09-19T08:24:33Z</time>
      </trkpt>
      <trkpt lat="46.40214" lon="4.88512">
        <ele>184</ele>
        <time>2024-09-19T08:24:34Z</time>
      </trkpt>
      <trkpt lat="46.40208" lon="4.88507">
        <ele>184</ele>
        <time>2024-09-19T08:24:35Z</time>
      </trkpt>
      <trkpt lat="46.40206" lon="4.88505">
        <ele>184.2</ele>
        <time>2024-09-19T08:24:36Z</time>
      </trkpt>
      <trkpt lat="46.40199" lon="4.88499">
        <ele>184.2</ele>
        <time>2024-09-19T08:24:37Z</time>
      </trkpt>
      <trkpt lat="46.40197" lon="4.88497">
        <ele>184.2</ele>
        <time>2024-09-19T08:24:38Z</time>
      </trkpt>
      <trkpt lat="46.40193" lon="4.88494">
        <ele>184.2</ele>
        <time>2024-09-19T08:24:39Z</time>
      </trkpt>
      <trkpt lat="46.40189" lon="4.8849">
        <ele>184.2</ele>
        <time>2024-09-19T08:24:40Z</time>
      </trkpt>
      <trkpt lat="46.40185" lon="4.88485">
        <ele>184.4</ele>
        <time>2024-09-19T08:24:41Z</time>
      </trkpt>
      <trkpt lat="46.40182" lon="4.88481">
        <ele>184.4</ele>
        <time>2024-09-19T08:24:42Z</time>
      </trkpt>
      <trkpt lat="46.40176" lon="4.88475">
        <ele>184.4</ele>
        <time>2024-09-19T08:24:43Z</time>
      </trkpt>
      <trkpt lat="46.40174" lon="4.88472">
        <ele>184.4</ele>
        <time>2024-09-19T08:24:44Z</time>
      </trkpt>
      <trkpt lat="46.40168" lon="4.88466">
        <ele>184.2</ele>
        <time>2024-09-19T08:24:45Z</time>
      </trkpt>
      <trkpt lat="46.40167" lon="4.88463">
        <ele>184.2</ele>
        <time>2024-09-19T08:24:46Z</time>
      </trkpt>
      <trkpt lat="46.40162" lon="4.88459">
        <ele>184.2</ele>
        <time>2024-09-19T08:24:47Z</time>
      </trkpt>
      <trkpt lat="46.40158" lon="4.88455">
        <ele>184.2</ele>
        <time>2024-09-19T08:24:48Z</time>
      </trkpt>
      <trkpt lat="46.40154" lon="4.88451">
        <ele>184.2</ele>
        <time>2024-09-19T08:24:49Z</time>
      </trkpt>
      <trkpt lat="46.4015" lon="4.88447">
        <ele>184</ele>
        <time>2024-09-19T08:24:50Z</time>
      </trkpt>
      <trkpt lat="46.40145" lon="4.88444">
        <ele>184</ele>
        <time>2024-09-19T08:24:51Z</time>
      </trkpt>
      <trkpt lat="46.40141" lon="4.88441">
        <ele>184</ele>
        <time>2024-09-19T08:24:52Z</time>
      </trkpt>
      <trkpt lat="46.40137" lon="4.88438">
        <ele>184</ele>
        <time>2024-09-19T08:24:53Z</time>
      </trkpt>
      <trkpt lat="46.40132" lon="4.88435">
        <ele>184.2</ele>
        <time>2024-09-19T08:24:54Z</time>
      </trkpt>
      <trkpt lat="46.40127" lon="4.88432">
        <ele>184</ele>
        <time>2024-09-19T08:24:55Z</time>
      </trkpt>
      <trkpt lat="46.40123" lon="4.88429">
        <ele>184</ele>
        <time>2024-09-19T08:24:56Z</time>
      </trkpt>
      <trkpt lat="46.40118" lon="4.88426">
        <ele>184</ele>
        <time>2024-09-19T08:24:57Z</time>
      </trkpt>
      <trkpt lat="46.40114" lon="4.88423">
        <ele>184.2</ele>
        <time>2024-09-19T08:24:58Z</time>
      </trkpt>
      <trkpt lat="46.40109" lon="4.8842">
        <ele>184.2</ele>
        <time>2024-09-19T08:24:59Z</time>
      </trkpt>
      <trkpt lat="46.40105" lon="4.88417">
        <ele>184.2</ele>
        <time>2024-09-19T08:25:00Z</time>
      </trkpt>
      <trkpt lat="46.40098" lon="4.88413">
        <ele>184.2</ele>
        <time>2024-09-19T08:25:01Z</time>
      </trkpt>
      <trkpt lat="46.40096" lon="4.88411">
        <ele>184.2</ele>
        <time>2024-09-19T08:25:02Z</time>
      </trkpt>
      <trkpt lat="46.4009" lon="4.88407">
        <ele>184.2</ele>
        <time>2024-09-19T08:25:03Z</time>
      </trkpt>
      <trkpt lat="46.40087" lon="4.88406">
        <ele>184.2</ele>
        <time>2024-09-19T08:25:04Z</time>
      </trkpt>
      <trkpt lat="46.40081" lon="4.88401">
        <ele>184.2</ele>
        <time>2024-09-19T08:25:05Z</time>
      </trkpt>
      <trkpt lat="46.40079" lon="4.884">
        <ele>184.2</ele>
        <time>2024-09-19T08:25:06Z</time>
      </trkpt>
      <trkpt lat="46.40072" lon="4.88396">
        <ele>184.4</ele>
        <time>2024-09-19T08:25:07Z</time>
      </trkpt>
      <trkpt lat="46.40069" lon="4.88394">
        <ele>184.4</ele>
        <time>2024-09-19T08:25:08Z</time>
      </trkpt>
      <trkpt lat="46.40063" lon="4.8839">
        <ele>184.4</ele>
        <time>2024-09-19T08:25:09Z</time>
      </trkpt>
      <trkpt lat="46.4006" lon="4.88388">
        <ele>184.4</ele>
        <time>2024-09-19T08:25:10Z</time>
      </trkpt>
      <trkpt lat="46.40054" lon="4.88383">
        <ele>184.4</ele>
        <time>2024-09-19T08:25:11Z</time>
      </trkpt>
      <trkpt lat="46.40052" lon="4.88382">
        <ele>184.4</ele>
        <time>2024-09-19T08:25:12Z</time>
      </trkpt>
      <trkpt lat="46.40045" lon="4.88376">
        <ele>184.6</ele>
        <time>2024-09-19T08:25:13Z</time>
      </trkpt>
      <trkpt lat="46.40043" lon="4.88374">
        <ele>184.6</ele>
        <time>2024-09-19T08:25:14Z</time>
      </trkpt>
      <trkpt lat="46.40036" lon="4.88369">
        <ele>184.6</ele>
        <time>2024-09-19T08:25:15Z</time>
      </trkpt>
      <trkpt lat="46.40034" lon="4.88367">
        <ele>184.4</ele>
        <time>2024-09-19T08:25:16Z</time>
      </trkpt>
      <trkpt lat="46.40028" lon="4.88361">
        <ele>184.6</ele>
        <time>2024-09-19T08:25:17Z</time>
      </trkpt>
      <trkpt lat="46.40026" lon="4.88359">
        <ele>184.6</ele>
        <time>2024-09-19T08:25:18Z</time>
      </trkpt>
      <trkpt lat="46.40022" lon="4.88355">
        <ele>184.6</ele>
        <time>2024-09-19T08:25:19Z</time>
      </trkpt>
      <trkpt lat="46.40016" lon="4.88349">
        <ele>184.4</ele>
        <time>2024-09-19T08:25:20Z</time>
      </trkpt>
      <trkpt lat="46.40014" lon="4.88347">
        <ele>184.4</ele>
        <time>2024-09-19T08:25:21Z</time>
      </trkpt>
      <trkpt lat="46.4001" lon="4.88343">
        <ele>184.4</ele>
        <time>2024-09-19T08:25:22Z</time>
      </trkpt>
      <trkpt lat="46.40005" lon="4.88339">
        <ele>184.4</ele>
        <time>2024-09-19T08:25:23Z</time>
      </trkpt>
      <trkpt lat="46.40001" lon="4.88335">
        <ele>184.4</ele>
        <time>2024-09-19T08:25:24Z</time>
      </trkpt>
      <trkpt lat="46.39997" lon="4.88331">
        <ele>184.4</ele>
        <time>2024-09-19T08:25:25Z</time>
      </trkpt>
      <trkpt lat="46.39991" lon="4.88325">
        <ele>184.4</ele>
        <time>2024-09-19T08:25:26Z</time>
      </trkpt>
      <trkpt lat="46.39989" lon="4.88323">
        <ele>184.4</ele>
        <time>2024-09-19T08:25:27Z</time>
      </trkpt>
      <trkpt lat="46.39983" lon="4.88317">
        <ele>184.4</ele>
        <time>2024-09-19T08:25:28Z</time>
      </trkpt>
      <trkpt lat="46.39981" lon="4.88315">
        <ele>184.4</ele>
        <time>2024-09-19T08:25:29Z</time>
      </trkpt>
      <trkpt lat="46.39974" lon="4.88309">
        <ele>184.6</ele>
        <time>2024-09-19T08:25:30Z</time>
      </trkpt>
      <trkpt lat="46.39972" lon="4.88307">
        <ele>184.6</ele>
        <time>2024-09-19T08:25:31Z</time>
      </trkpt>
      <trkpt lat="46.39968" lon="4.88304">
        <ele>184.6</ele>
        <time>2024-09-19T08:25:32Z</time>
      </trkpt>
      <trkpt lat="46.39964" lon="4.883">
        <ele>184.6</ele>
        <time>2024-09-19T08:25:33Z</time>
      </trkpt>
      <trkpt lat="46.3996" lon="4.88296">
        <ele>184.6</ele>
        <time>2024-09-19T08:25:34Z</time>
      </trkpt>
      <trkpt lat="46.39956" lon="4.88292">
        <ele>185</ele>
        <time>2024-09-19T08:25:35Z</time>
      </trkpt>
      <trkpt lat="46.39952" lon="4.88288">
        <ele>185</ele>
        <time>2024-09-19T08:25:36Z</time>
      </trkpt>
      <trkpt lat="46.39948" lon="4.88285">
        <ele>185</ele>
        <time>2024-09-19T08:25:37Z</time>
      </trkpt>
      <trkpt lat="46.39943" lon="4.88281">
        <ele>185</ele>
        <time>2024-09-19T08:25:38Z</time>
      </trkpt>
      <trkpt lat="46.39939" lon="4.88276">
        <ele>184</ele>
        <time>2024-09-19T08:25:39Z</time>
      </trkpt>
      <trkpt lat="46.39935" lon="4.88272">
        <ele>184.4</ele>
        <time>2024-09-19T08:25:40Z</time>
      </trkpt>
      <trkpt lat="46.39931" lon="4.88269">
        <ele>184.4</ele>
        <time>2024-09-19T08:25:41Z</time>
      </trkpt>
      <trkpt lat="46.39927" lon="4.88264">
        <ele>184.4</ele>
        <time>2024-09-19T08:25:42Z</time>
      </trkpt>
      <trkpt lat="46.39923" lon="4.88261">
        <ele>184.4</ele>
        <time>2024-09-19T08:25:43Z</time>
      </trkpt>
      <trkpt lat="46.39916" lon="4.88255">
        <ele>184.6</ele>
        <time>2024-09-19T08:25:44Z</time>
      </trkpt>
      <trkpt lat="46.39914" lon="4.88254">
        <ele>184.6</ele>
        <time>2024-09-19T08:25:45Z</time>
      </trkpt>
      <trkpt lat="46.39908" lon="4.88247">
        <ele>184.6</ele>
        <time>2024-09-19T08:25:46Z</time>
      </trkpt>
      <trkpt lat="46.39906" lon="4.88245">
        <ele>184.6</ele>
        <time>2024-09-19T08:25:47Z</time>
      </trkpt>
      <trkpt lat="46.399" lon="4.8824">
        <ele>184.4</ele>
        <time>2024-09-19T08:25:48Z</time>
      </trkpt>
      <trkpt lat="46.39898" lon="4.88238">
        <ele>184.2</ele>
        <time>2024-09-19T08:25:49Z</time>
      </trkpt>
      <trkpt lat="46.39891" lon="4.88232">
        <ele>184.2</ele>
        <time>2024-09-19T08:25:50Z</time>
      </trkpt>
      <trkpt lat="46.39889" lon="4.8823">
        <ele>184.2</ele>
        <time>2024-09-19T08:25:51Z</time>
      </trkpt>
      <trkpt lat="46.39885" lon="4.88226">
        <ele>184.2</ele>
        <time>2024-09-19T08:25:52Z</time>
      </trkpt>
      <trkpt lat="46.39878" lon="4.8822">
        <ele>184</ele>
        <time>2024-09-19T08:25:53Z</time>
      </trkpt>
      <trkpt lat="46.39876" lon="4.88218">
        <ele>184</ele>
        <time>2024-09-19T08:25:54Z</time>
      </trkpt>
      <trkpt lat="46.39872" lon="4.88215">
        <ele>184</ele>
        <time>2024-09-19T08:25:55Z</time>
      </trkpt>
      <trkpt lat="46.39868" lon="4.88211">
        <ele>184.4</ele>
        <time>2024-09-19T08:25:56Z</time>
      </trkpt>
      <trkpt lat="46.39863" lon="4.88208">
        <ele>184.4</ele>
        <time>2024-09-19T08:25:57Z</time>
      </trkpt>
      <trkpt lat="46.39859" lon="4.88204">
        <ele>184.4</ele>
        <time>2024-09-19T08:25:58Z</time>
      </trkpt>
      <trkpt lat="46.39852" lon="4.88198">
        <ele>184.4</ele>
        <time>2024-09-19T08:25:59Z</time>
      </trkpt>
      <trkpt lat="46.3985" lon="4.88196">
        <ele>184.4</ele>
        <time>2024-09-19T08:26:00Z</time>
      </trkpt>
      <trkpt lat="46.39844" lon="4.88191">
        <ele>184.6</ele>
        <time>2024-09-19T08:26:01Z</time>
      </trkpt>
      <trkpt lat="46.39842" lon="4.88189">
        <ele>184.2</ele>
        <time>2024-09-19T08:26:02Z</time>
      </trkpt>
      <trkpt lat="46.39836" lon="4.88184">
        <ele>184.2</ele>
        <time>2024-09-19T08:26:03Z</time>
      </trkpt>
      <trkpt lat="46.39834" lon="4.88182">
        <ele>184.2</ele>
        <time>2024-09-19T08:26:04Z</time>
      </trkpt>
      <trkpt lat="46.39827" lon="4.88177">
        <ele>184.2</ele>
        <time>2024-09-19T08:26:05Z</time>
      </trkpt>
      <trkpt lat="46.39825" lon="4.88176">
        <ele>185</ele>
        <time>2024-09-19T08:26:06Z</time>
      </trkpt>
      <trkpt lat="46.39821" lon="4.88172">
        <ele>185</ele>
        <time>2024-09-19T08:26:07Z</time>
      </trkpt>
      <trkpt lat="46.39817" lon="4.88169">
        <ele>185</ele>
        <time>2024-09-19T08:26:08Z</time>
      </trkpt>
      <trkpt lat="46.39813" lon="4.88166">
        <ele>184.8</ele>
        <time>2024-09-19T08:26:09Z</time>
      </trkpt>
      <trkpt lat="46.39809" lon="4.88163">
        <ele>184.8</ele>
        <time>2024-09-19T08:26:10Z</time>
      </trkpt>
      <trkpt lat="46.39804" lon="4.8816">
        <ele>184.8</ele>
        <time>2024-09-19T08:26:11Z</time>
      </trkpt>
      <trkpt lat="46.39798" lon="4.88156">
        <ele>184.8</ele>
        <time>2024-09-19T08:26:12Z</time>
      </trkpt>
      <trkpt lat="46.39796" lon="4.88154">
        <ele>184.8</ele>
        <time>2024-09-19T08:26:13Z</time>
      </trkpt>
      <trkpt lat="46.39789" lon="4.8815">
        <ele>184.6</ele>
        <time>2024-09-19T08:26:14Z</time>
      </trkpt>
      <trkpt lat="46.39787" lon="4.88149">
        <ele>184.6</ele>
        <time>2024-09-19T08:26:15Z</time>
      </trkpt>
      <trkpt lat="46.39782" lon="4.88146">
        <ele>184.6</ele>
        <time>2024-09-19T08:26:16Z</time>
      </trkpt>
      <trkpt lat="46.39776" lon="4.88142">
        <ele>184.6</ele>
        <time>2024-09-19T08:26:17Z</time>
      </trkpt>
      <trkpt lat="46.39774" lon="4.8814">
        <ele>184.6</ele>
        <time>2024-09-19T08:26:18Z</time>
      </trkpt>
      <trkpt lat="46.39769" lon="4.88137">
        <ele>184.6</ele>
        <time>2024-09-19T08:26:19Z</time>
      </trkpt>
      <trkpt lat="46.39765" lon="4.88134">
        <ele>184.4</ele>
        <time>2024-09-19T08:26:20Z</time>
      </trkpt>
      <trkpt lat="46.3976" lon="4.88131">
        <ele>184.4</ele>
        <time>2024-09-19T08:26:21Z</time>
      </trkpt>
      <trkpt lat="46.39753" lon="4.88127">
        <ele>184.4</ele>
        <time>2024-09-19T08:26:22Z</time>
      </trkpt>
      <trkpt lat="46.39751" lon="4.88126">
        <ele>184.4</ele>
        <time>2024-09-19T08:26:23Z</time>
      </trkpt>
      <trkpt lat="46.39745" lon="4.88121">
        <ele>184.4</ele>
        <time>2024-09-19T08:26:24Z</time>
      </trkpt>
      <trkpt lat="46.39742" lon="4.8812">
        <ele>184.6</ele>
        <time>2024-09-19T08:26:25Z</time>
      </trkpt>
      <trkpt lat="46.39738" lon="4.88117">
        <ele>184.6</ele>
        <time>2024-09-19T08:26:26Z</time>
      </trkpt>
      <trkpt lat="46.39733" lon="4.88114">
        <ele>184.6</ele>
        <time>2024-09-19T08:26:27Z</time>
      </trkpt>
      <trkpt lat="46.39727" lon="4.8811">
        <ele>184.8</ele>
        <time>2024-09-19T08:26:28Z</time>
      </trkpt>
      <trkpt lat="46.39725" lon="4.88109">
        <ele>184.8</ele>
        <time>2024-09-19T08:26:29Z</time>
      </trkpt>
      <trkpt lat="46.3972" lon="4.88106">
        <ele>184.6</ele>
        <time>2024-09-19T08:26:30Z</time>
      </trkpt>
      <trkpt lat="46.39716" lon="4.88104">
        <ele>184.6</ele>
        <time>2024-09-19T08:26:31Z</time>
      </trkpt>
      <trkpt lat="46.39709" lon="4.881">
        <ele>184.8</ele>
        <time>2024-09-19T08:26:32Z</time>
      </trkpt>
      <trkpt lat="46.39707" lon="4.88099">
        <ele>184.8</ele>
        <time>2024-09-19T08:26:33Z</time>
      </trkpt>
      <trkpt lat="46.397" lon="4.88095">
        <ele>184.8</ele>
        <time>2024-09-19T08:26:34Z</time>
      </trkpt>
      <trkpt lat="46.39698" lon="4.88094">
        <ele>184.8</ele>
        <time>2024-09-19T08:26:35Z</time>
      </trkpt>
      <trkpt lat="46.39692" lon="4.88089">
        <ele>184.8</ele>
        <time>2024-09-19T08:26:36Z</time>
      </trkpt>
      <trkpt lat="46.39689" lon="4.88088">
        <ele>184.8</ele>
        <time>2024-09-19T08:26:37Z</time>
      </trkpt>
      <trkpt lat="46.39683" lon="4.88084">
        <ele>184.8</ele>
        <time>2024-09-19T08:26:38Z</time>
      </trkpt>
      <trkpt lat="46.3968" lon="4.88082">
        <ele>184.8</ele>
        <time>2024-09-19T08:26:39Z</time>
      </trkpt>
      <trkpt lat="46.39674" lon="4.88078">
        <ele>184.8</ele>
        <time>2024-09-19T08:26:40Z</time>
      </trkpt>
      <trkpt lat="46.39671" lon="4.88076">
        <ele>184.6</ele>
        <time>2024-09-19T08:26:41Z</time>
      </trkpt>
      <trkpt lat="46.39665" lon="4.88072">
        <ele>184.8</ele>
        <time>2024-09-19T08:26:42Z</time>
      </trkpt>
      <trkpt lat="46.39662" lon="4.88071">
        <ele>184.8</ele>
        <time>2024-09-19T08:26:43Z</time>
      </trkpt>
      <trkpt lat="46.39656" lon="4.88066">
        <ele>184.8</ele>
        <time>2024-09-19T08:26:44Z</time>
      </trkpt>
      <trkpt lat="46.39654" lon="4.88065">
        <ele>184.8</ele>
        <time>2024-09-19T08:26:45Z</time>
      </trkpt>
      <trkpt lat="46.39647" lon="4.88061">
        <ele>184.6</ele>
        <time>2024-09-19T08:26:46Z</time>
      </trkpt>
      <trkpt lat="46.39645" lon="4.8806">
        <ele>184.8</ele>
        <time>2024-09-19T08:26:47Z</time>
      </trkpt>
      <trkpt lat="46.39641" lon="4.88057">
        <ele>184.8</ele>
        <time>2024-09-19T08:26:48Z</time>
      </trkpt>
      <trkpt lat="46.39636" lon="4.88055">
        <ele>184.8</ele>
        <time>2024-09-19T08:26:49Z</time>
      </trkpt>
      <trkpt lat="46.39632" lon="4.88052">
        <ele>184.8</ele>
        <time>2024-09-19T08:26:50Z</time>
      </trkpt>
      <trkpt lat="46.39627" lon="4.8805">
        <ele>184.8</ele>
        <time>2024-09-19T08:26:51Z</time>
      </trkpt>
      <trkpt lat="46.3962" lon="4.88046">
        <ele>184.6</ele>
        <time>2024-09-19T08:26:52Z</time>
      </trkpt>
      <trkpt lat="46.39618" lon="4.88044">
        <ele>184.6</ele>
        <time>2024-09-19T08:26:53Z</time>
      </trkpt>
      <trkpt lat="46.39611" lon="4.8804">
        <ele>184.6</ele>
        <time>2024-09-19T08:26:54Z</time>
      </trkpt>
      <trkpt lat="46.39609" lon="4.88039">
        <ele>184.6</ele>
        <time>2024-09-19T08:26:55Z</time>
      </trkpt>
      <trkpt lat="46.39602" lon="4.88036">
        <ele>184.6</ele>
        <time>2024-09-19T08:26:56Z</time>
      </trkpt>
      <trkpt lat="46.39599" lon="4.88034">
        <ele>184.6</ele>
        <time>2024-09-19T08:26:57Z</time>
      </trkpt>
      <trkpt lat="46.39595" lon="4.88032">
        <ele>184.6</ele>
        <time>2024-09-19T08:26:58Z</time>
      </trkpt>
      <trkpt lat="46.3959" lon="4.8803">
        <ele>184.6</ele>
        <time>2024-09-19T08:26:59Z</time>
      </trkpt>
      <trkpt lat="46.39585" lon="4.88028">
        <ele>184.6</ele>
        <time>2024-09-19T08:27:00Z</time>
      </trkpt>
      <trkpt lat="46.39581" lon="4.88026">
        <ele>184.6</ele>
        <time>2024-09-19T08:27:01Z</time>
      </trkpt>
      <trkpt lat="46.39576" lon="4.88024">
        <ele>184.6</ele>
        <time>2024-09-19T08:27:02Z</time>
      </trkpt>
      <trkpt lat="46.39571" lon="4.88021">
        <ele>184.6</ele>
        <time>2024-09-19T08:27:03Z</time>
      </trkpt>
      <trkpt lat="46.39567" lon="4.88019">
        <ele>184.6</ele>
        <time>2024-09-19T08:27:04Z</time>
      </trkpt>
      <trkpt lat="46.39562" lon="4.88017">
        <ele>184.6</ele>
        <time>2024-09-19T08:27:05Z</time>
      </trkpt>
      <trkpt lat="46.39557" lon="4.88015">
        <ele>184.6</ele>
        <time>2024-09-19T08:27:06Z</time>
      </trkpt>
      <trkpt lat="46.39553" lon="4.88013">
        <ele>184.6</ele>
        <time>2024-09-19T08:27:07Z</time>
      </trkpt>
      <trkpt lat="46.39548" lon="4.88011">
        <ele>184.6</ele>
        <time>2024-09-19T08:27:08Z</time>
      </trkpt>
      <trkpt lat="46.39543" lon="4.88009">
        <ele>184.2</ele>
        <time>2024-09-19T08:27:09Z</time>
      </trkpt>
      <trkpt lat="46.39538" lon="4.88006">
        <ele>184.2</ele>
        <time>2024-09-19T08:27:10Z</time>
      </trkpt>
      <trkpt lat="46.39534" lon="4.88004">
        <ele>184.2</ele>
        <time>2024-09-19T08:27:11Z</time>
      </trkpt>
      <trkpt lat="46.39526" lon="4.88001">
        <ele>184.2</ele>
        <time>2024-09-19T08:27:12Z</time>
      </trkpt>
      <trkpt lat="46.39524" lon="4.87999">
        <ele>184.2</ele>
        <time>2024-09-19T08:27:13Z</time>
      </trkpt>
      <trkpt lat="46.39517" lon="4.87996">
        <ele>184.4</ele>
        <time>2024-09-19T08:27:14Z</time>
      </trkpt>
      <trkpt lat="46.39515" lon="4.87995">
        <ele>184.4</ele>
        <time>2024-09-19T08:27:15Z</time>
      </trkpt>
      <trkpt lat="46.39508" lon="4.87991">
        <ele>184.4</ele>
        <time>2024-09-19T08:27:16Z</time>
      </trkpt>
      <trkpt lat="46.39505" lon="4.8799">
        <ele>184.4</ele>
        <time>2024-09-19T08:27:17Z</time>
      </trkpt>
      <trkpt lat="46.39501" lon="4.87987">
        <ele>184.2</ele>
        <time>2024-09-19T08:27:18Z</time>
      </trkpt>
      <trkpt lat="46.39493" lon="4.87983">
        <ele>184.2</ele>
        <time>2024-09-19T08:27:19Z</time>
      </trkpt>
      <trkpt lat="46.39491" lon="4.87982">
        <ele>184.2</ele>
        <time>2024-09-19T08:27:20Z</time>
      </trkpt>
      <trkpt lat="46.39484" lon="4.87978">
        <ele>184.2</ele>
        <time>2024-09-19T08:27:21Z</time>
      </trkpt>
      <trkpt lat="46.39482" lon="4.87976">
        <ele>184.2</ele>
        <time>2024-09-19T08:27:22Z</time>
      </trkpt>
      <trkpt lat="46.39474" lon="4.87972">
        <ele>183.8</ele>
        <time>2024-09-19T08:27:23Z</time>
      </trkpt>
      <trkpt lat="46.39472" lon="4.87971">
        <ele>183.8</ele>
        <time>2024-09-19T08:27:24Z</time>
      </trkpt>
      <trkpt lat="46.39465" lon="4.87966">
        <ele>183.8</ele>
        <time>2024-09-19T08:27:25Z</time>
      </trkpt>
      <trkpt lat="46.39462" lon="4.87965">
        <ele>184</ele>
        <time>2024-09-19T08:27:26Z</time>
      </trkpt>
      <trkpt lat="46.39455" lon="4.8796">
        <ele>184</ele>
        <time>2024-09-19T08:27:27Z</time>
      </trkpt>
      <trkpt lat="46.39453" lon="4.87959">
        <ele>184</ele>
        <time>2024-09-19T08:27:28Z</time>
      </trkpt>
      <trkpt lat="46.39448" lon="4.87956">
        <ele>184</ele>
        <time>2024-09-19T08:27:29Z</time>
      </trkpt>
      <trkpt lat="46.39441" lon="4.87951">
        <ele>184</ele>
        <time>2024-09-19T08:27:30Z</time>
      </trkpt>
      <trkpt lat="46.39438" lon="4.8795">
        <ele>184</ele>
        <time>2024-09-19T08:27:31Z</time>
      </trkpt>
      <trkpt lat="46.39434" lon="4.87947">
        <ele>184</ele>
        <time>2024-09-19T08:27:32Z</time>
      </trkpt>
      <trkpt lat="46.39429" lon="4.87944">
        <ele>184</ele>
        <time>2024-09-19T08:27:33Z</time>
      </trkpt>
      <trkpt lat="46.39424" lon="4.87941">
        <ele>184</ele>
        <time>2024-09-19T08:27:34Z</time>
      </trkpt>
      <trkpt lat="46.3942" lon="4.87938">
        <ele>183.8</ele>
        <time>2024-09-19T08:27:35Z</time>
      </trkpt>
      <trkpt lat="46.39415" lon="4.87934">
        <ele>183.8</ele>
        <time>2024-09-19T08:27:36Z</time>
      </trkpt>
      <trkpt lat="46.39411" lon="4.87931">
        <ele>183.8</ele>
        <time>2024-09-19T08:27:37Z</time>
      </trkpt>
      <trkpt lat="46.39404" lon="4.87927">
        <ele>183.8</ele>
        <time>2024-09-19T08:27:38Z</time>
      </trkpt>
      <trkpt lat="46.39401" lon="4.87925">
        <ele>183.8</ele>
        <time>2024-09-19T08:27:39Z</time>
      </trkpt>
      <trkpt lat="46.39397" lon="4.87922">
        <ele>183.8</ele>
        <time>2024-09-19T08:27:40Z</time>
      </trkpt>
      <trkpt lat="46.39392" lon="4.87918">
        <ele>183.8</ele>
        <time>2024-09-19T08:27:41Z</time>
      </trkpt>
      <trkpt lat="46.39388" lon="4.87915">
        <ele>183.8</ele>
        <time>2024-09-19T08:27:42Z</time>
      </trkpt>
      <trkpt lat="46.39384" lon="4.87911">
        <ele>183.8</ele>
        <time>2024-09-19T08:27:43Z</time>
      </trkpt>
      <trkpt lat="46.3938" lon="4.87907">
        <ele>183.8</ele>
        <time>2024-09-19T08:27:44Z</time>
      </trkpt>
      <trkpt lat="46.39375" lon="4.87903">
        <ele>183.8</ele>
        <time>2024-09-19T08:27:45Z</time>
      </trkpt>
      <trkpt lat="46.39371" lon="4.87899">
        <ele>183.6</ele>
        <time>2024-09-19T08:27:46Z</time>
      </trkpt>
      <trkpt lat="46.39366" lon="4.87896">
        <ele>183.6</ele>
        <time>2024-09-19T08:27:47Z</time>
      </trkpt>
      <trkpt lat="46.39362" lon="4.87892">
        <ele>183.6</ele>
        <time>2024-09-19T08:27:48Z</time>
      </trkpt>
      <trkpt lat="46.39358" lon="4.87888">
        <ele>183.6</ele>
        <time>2024-09-19T08:27:49Z</time>
      </trkpt>
      <trkpt lat="46.39354" lon="4.87884">
        <ele>184</ele>
        <time>2024-09-19T08:27:50Z</time>
      </trkpt>
      <trkpt lat="46.3935" lon="4.8788">
        <ele>184</ele>
        <time>2024-09-19T08:27:51Z</time>
      </trkpt>
      <trkpt lat="46.39345" lon="4.87877">
        <ele>184</ele>
        <time>2024-09-19T08:27:52Z</time>
      </trkpt>
      <trkpt lat="46.39341" lon="4.87873">
        <ele>184</ele>
        <time>2024-09-19T08:27:53Z</time>
      </trkpt>
      <trkpt lat="46.39335" lon="4.87866">
        <ele>184</ele>
        <time>2024-09-19T08:27:54Z</time>
      </trkpt>
      <trkpt lat="46.39333" lon="4.87864">
        <ele>184</ele>
        <time>2024-09-19T08:27:55Z</time>
      </trkpt>
      <trkpt lat="46.39326" lon="4.87859">
        <ele>184</ele>
        <time>2024-09-19T08:27:56Z</time>
      </trkpt>
      <trkpt lat="46.39324" lon="4.87857">
        <ele>184</ele>
        <time>2024-09-19T08:27:57Z</time>
      </trkpt>
      <trkpt lat="46.39317" lon="4.87851">
        <ele>184</ele>
        <time>2024-09-19T08:27:58Z</time>
      </trkpt>
      <trkpt lat="46.39315" lon="4.87849">
        <ele>184.4</ele>
        <time>2024-09-19T08:27:59Z</time>
      </trkpt>
      <trkpt lat="46.39309" lon="4.87843">
        <ele>184.4</ele>
        <time>2024-09-19T08:28:00Z</time>
      </trkpt>
      <trkpt lat="46.39307" lon="4.87841">
        <ele>184.4</ele>
        <time>2024-09-19T08:28:01Z</time>
      </trkpt>
      <trkpt lat="46.39302" lon="4.87837">
        <ele>184.2</ele>
        <time>2024-09-19T08:28:02Z</time>
      </trkpt>
      <trkpt lat="46.39298" lon="4.87832">
        <ele>184</ele>
        <time>2024-09-19T08:28:03Z</time>
      </trkpt>
      <trkpt lat="46.39292" lon="4.87826">
        <ele>184</ele>
        <time>2024-09-19T08:28:04Z</time>
      </trkpt>
      <trkpt lat="46.3929" lon="4.87824">
        <ele>184</ele>
        <time>2024-09-19T08:28:05Z</time>
      </trkpt>
      <trkpt lat="46.39284" lon="4.87817">
        <ele>184</ele>
        <time>2024-09-19T08:28:06Z</time>
      </trkpt>
      <trkpt lat="46.39282" lon="4.87815">
        <ele>184.4</ele>
        <time>2024-09-19T08:28:07Z</time>
      </trkpt>
      <trkpt lat="46.39276" lon="4.87809">
        <ele>184.4</ele>
        <time>2024-09-19T08:28:08Z</time>
      </trkpt>
      <trkpt lat="46.39274" lon="4.87807">
        <ele>184.4</ele>
        <time>2024-09-19T08:28:09Z</time>
      </trkpt>
      <trkpt lat="46.39268" lon="4.878">
        <ele>184.4</ele>
        <time>2024-09-19T08:28:10Z</time>
      </trkpt>
      <trkpt lat="46.39266" lon="4.87798">
        <ele>184.4</ele>
        <time>2024-09-19T08:28:11Z</time>
      </trkpt>
      <trkpt lat="46.3926" lon="4.87793">
        <ele>183.8</ele>
        <time>2024-09-19T08:28:12Z</time>
      </trkpt>
      <trkpt lat="46.39258" lon="4.87791">
        <ele>183.8</ele>
        <time>2024-09-19T08:28:13Z</time>
      </trkpt>
      <trkpt lat="46.39254" lon="4.87787">
        <ele>183.8</ele>
        <time>2024-09-19T08:28:14Z</time>
      </trkpt>
      <trkpt lat="46.39249" lon="4.87784">
        <ele>183.8</ele>
        <time>2024-09-19T08:28:15Z</time>
      </trkpt>
      <trkpt lat="46.39245" lon="4.8778">
        <ele>183.8</ele>
        <time>2024-09-19T08:28:16Z</time>
      </trkpt>
      <trkpt lat="46.39238" lon="4.87775">
        <ele>184.2</ele>
        <time>2024-09-19T08:28:17Z</time>
      </trkpt>
      <trkpt lat="46.39235" lon="4.87773">
        <ele>184.2</ele>
        <time>2024-09-19T08:28:18Z</time>
      </trkpt>
      <trkpt lat="46.39228" lon="4.87769">
        <ele>184.2</ele>
        <time>2024-09-19T08:28:19Z</time>
      </trkpt>
      <trkpt lat="46.39225" lon="4.87768">
        <ele>184</ele>
        <time>2024-09-19T08:28:20Z</time>
      </trkpt>
      <trkpt lat="46.39218" lon="4.87764">
        <ele>184</ele>
        <time>2024-09-19T08:28:21Z</time>
      </trkpt>
      <trkpt lat="46.39216" lon="4.87763">
        <ele>184</ele>
        <time>2024-09-19T08:28:22Z</time>
      </trkpt>
      <trkpt lat="46.39212" lon="4.87759">
        <ele>184</ele>
        <time>2024-09-19T08:28:23Z</time>
      </trkpt>
      <trkpt lat="46.39208" lon="4.87756">
        <ele>184</ele>
        <time>2024-09-19T08:28:24Z</time>
      </trkpt>
      <trkpt lat="46.39204" lon="4.87752">
        <ele>184</ele>
        <time>2024-09-19T08:28:25Z</time>
      </trkpt>
      <trkpt lat="46.39201" lon="4.87748">
        <ele>184</ele>
        <time>2024-09-19T08:28:26Z</time>
      </trkpt>
      <trkpt lat="46.39198" lon="4.87743">
        <ele>184</ele>
        <time>2024-09-19T08:28:27Z</time>
      </trkpt>
      <trkpt lat="46.39195" lon="4.87738">
        <ele>184</ele>
        <time>2024-09-19T08:28:28Z</time>
      </trkpt>
      <trkpt lat="46.39191" lon="4.87734">
        <ele>184</ele>
        <time>2024-09-19T08:28:29Z</time>
      </trkpt>
      <trkpt lat="46.39188" lon="4.87729">
        <ele>184</ele>
        <time>2024-09-19T08:28:30Z</time>
      </trkpt>
      <trkpt lat="46.39185" lon="4.87724">
        <ele>183.8</ele>
        <time>2024-09-19T08:28:31Z</time>
      </trkpt>
      <trkpt lat="46.39181" lon="4.87719">
        <ele>183.8</ele>
        <time>2024-09-19T08:28:32Z</time>
      </trkpt>
      <trkpt lat="46.39176" lon="4.87712">
        <ele>183.8</ele>
        <time>2024-09-19T08:28:33Z</time>
      </trkpt>
      <trkpt lat="46.39175" lon="4.87709">
        <ele>183.6</ele>
        <time>2024-09-19T08:28:34Z</time>
      </trkpt>
      <trkpt lat="46.39172" lon="4.87705">
        <ele>183.4</ele>
        <time>2024-09-19T08:28:35Z</time>
      </trkpt>
      <trkpt lat="46.39169" lon="4.877">
        <ele>183.4</ele>
        <time>2024-09-19T08:28:36Z</time>
      </trkpt>
      <trkpt lat="46.39165" lon="4.87694">
        <ele>183.4</ele>
        <time>2024-09-19T08:28:37Z</time>
      </trkpt>
      <trkpt lat="46.39164" lon="4.87692">
        <ele>183.4</ele>
        <time>2024-09-19T08:28:38Z</time>
      </trkpt>
      <trkpt lat="46.3916" lon="4.87686">
        <ele>183.8</ele>
        <time>2024-09-19T08:28:39Z</time>
      </trkpt>
      <trkpt lat="46.39158" lon="4.87684">
        <ele>183.8</ele>
        <time>2024-09-19T08:28:40Z</time>
      </trkpt>
      <trkpt lat="46.39153" lon="4.87679">
        <ele>183.8</ele>
        <time>2024-09-19T08:28:41Z</time>
      </trkpt>
      <trkpt lat="46.39152" lon="4.87677">
        <ele>183.8</ele>
        <time>2024-09-19T08:28:42Z</time>
      </trkpt>
      <trkpt lat="46.39146" lon="4.87673">
        <ele>183.4</ele>
        <time>2024-09-19T08:28:43Z</time>
      </trkpt>
      <trkpt lat="46.39145" lon="4.87671">
        <ele>183.4</ele>
        <time>2024-09-19T08:28:44Z</time>
      </trkpt>
      <trkpt lat="46.39139" lon="4.87667">
        <ele>183.4</ele>
        <time>2024-09-19T08:28:45Z</time>
      </trkpt>
      <trkpt lat="46.39137" lon="4.87666">
        <ele>183.4</ele>
        <time>2024-09-19T08:28:46Z</time>
      </trkpt>
      <trkpt lat="46.39132" lon="4.87661">
        <ele>183.4</ele>
        <time>2024-09-19T08:28:47Z</time>
      </trkpt>
      <trkpt lat="46.3913" lon="4.8766">
        <ele>183.6</ele>
        <time>2024-09-19T08:28:48Z</time>
      </trkpt>
      <trkpt lat="46.39125" lon="4.87655">
        <ele>183.6</ele>
        <time>2024-09-19T08:28:49Z</time>
      </trkpt>
      <trkpt lat="46.39124" lon="4.87653">
        <ele>183.6</ele>
        <time>2024-09-19T08:28:50Z</time>
      </trkpt>
      <trkpt lat="46.39119" lon="4.87648">
        <ele>183.6</ele>
        <time>2024-09-19T08:28:51Z</time>
      </trkpt>
      <trkpt lat="46.39117" lon="4.87646">
        <ele>183.2</ele>
        <time>2024-09-19T08:28:52Z</time>
      </trkpt>
      <trkpt lat="46.39112" lon="4.8764">
        <ele>183.2</ele>
        <time>2024-09-19T08:28:53Z</time>
      </trkpt>
      <trkpt lat="46.3911" lon="4.87638">
        <ele>183.2</ele>
        <time>2024-09-19T08:28:54Z</time>
      </trkpt>
      <trkpt lat="46.39105" lon="4.87632">
        <ele>183.2</ele>
        <time>2024-09-19T08:28:55Z</time>
      </trkpt>
      <trkpt lat="46.39103" lon="4.8763">
        <ele>183.4</ele>
        <time>2024-09-19T08:28:56Z</time>
      </trkpt>
      <trkpt lat="46.39099" lon="4.87626">
        <ele>183.4</ele>
        <time>2024-09-19T08:28:57Z</time>
      </trkpt>
      <trkpt lat="46.39095" lon="4.87622">
        <ele>183.4</ele>
        <time>2024-09-19T08:28:58Z</time>
      </trkpt>
      <trkpt lat="46.39092" lon="4.87618">
        <ele>183.4</ele>
        <time>2024-09-19T08:28:59Z</time>
      </trkpt>
      <trkpt lat="46.39088" lon="4.87614">
        <ele>183.4</ele>
        <time>2024-09-19T08:29:00Z</time>
      </trkpt>
      <trkpt lat="46.39084" lon="4.8761">
        <ele>183.6</ele>
        <time>2024-09-19T08:29:01Z</time>
      </trkpt>
      <trkpt lat="46.3908" lon="4.87606">
        <ele>183.6</ele>
        <time>2024-09-19T08:29:02Z</time>
      </trkpt>
      <trkpt lat="46.39075" lon="4.876">
        <ele>183.6</ele>
        <time>2024-09-19T08:29:03Z</time>
      </trkpt>
      <trkpt lat="46.39073" lon="4.87598">
        <ele>183.6</ele>
        <time>2024-09-19T08:29:04Z</time>
      </trkpt>
      <trkpt lat="46.39067" lon="4.87592">
        <ele>183.6</ele>
        <time>2024-09-19T08:29:05Z</time>
      </trkpt>
      <trkpt lat="46.39065" lon="4.8759">
        <ele>183.4</ele>
        <time>2024-09-19T08:29:06Z</time>
      </trkpt>
      <trkpt lat="46.39061" lon="4.87586">
        <ele>183.4</ele>
        <time>2024-09-19T08:29:07Z</time>
      </trkpt>
      <trkpt lat="46.39058" lon="4.87582">
        <ele>183.4</ele>
        <time>2024-09-19T08:29:08Z</time>
      </trkpt>
      <trkpt lat="46.39054" lon="4.87578">
        <ele>183.6</ele>
        <time>2024-09-19T08:29:09Z</time>
      </trkpt>
      <trkpt lat="46.3905" lon="4.87575">
        <ele>183.6</ele>
        <time>2024-09-19T08:29:10Z</time>
      </trkpt>
      <trkpt lat="46.39044" lon="4.87569">
        <ele>183.6</ele>
        <time>2024-09-19T08:29:11Z</time>
      </trkpt>
      <trkpt lat="46.39042" lon="4.87568">
        <ele>183.6</ele>
        <time>2024-09-19T08:29:12Z</time>
      </trkpt>
      <trkpt lat="46.39038" lon="4.87564">
        <ele>183.6</ele>
        <time>2024-09-19T08:29:13Z</time>
      </trkpt>
      <trkpt lat="46.39034" lon="4.8756">
        <ele>184</ele>
        <time>2024-09-19T08:29:14Z</time>
      </trkpt>
      <trkpt lat="46.39031" lon="4.87557">
        <ele>184</ele>
        <time>2024-09-19T08:29:15Z</time>
      </trkpt>
      <trkpt lat="46.39027" lon="4.87554">
        <ele>184</ele>
        <time>2024-09-19T08:29:16Z</time>
      </trkpt>
      <trkpt lat="46.39023" lon="4.87551">
        <ele>184</ele>
        <time>2024-09-19T08:29:17Z</time>
      </trkpt>
      <trkpt lat="46.3902" lon="4.87547">
        <ele>184</ele>
        <time>2024-09-19T08:29:18Z</time>
      </trkpt>
      <trkpt lat="46.39014" lon="4.87543">
        <ele>184.6</ele>
        <time>2024-09-19T08:29:19Z</time>
      </trkpt>
      <trkpt lat="46.39012" lon="4.87541">
        <ele>184.6</ele>
        <time>2024-09-19T08:29:20Z</time>
      </trkpt>
      <trkpt lat="46.39007" lon="4.87536">
        <ele>184.4</ele>
        <time>2024-09-19T08:29:21Z</time>
      </trkpt>
      <trkpt lat="46.39005" lon="4.87535">
        <ele>184.4</ele>
        <time>2024-09-19T08:29:22Z</time>
      </trkpt>
      <trkpt lat="46.39" lon="4.8753">
        <ele>184.6</ele>
        <time>2024-09-19T08:29:23Z</time>
      </trkpt>
      <trkpt lat="46.38998" lon="4.87529">
        <ele>184.6</ele>
        <time>2024-09-19T08:29:24Z</time>
      </trkpt>
      <trkpt lat="46.38992" lon="4.87524">
        <ele>184.6</ele>
        <time>2024-09-19T08:29:25Z</time>
      </trkpt>
      <trkpt lat="46.38991" lon="4.87523">
        <ele>184.6</ele>
        <time>2024-09-19T08:29:26Z</time>
      </trkpt>
      <trkpt lat="46.38985" lon="4.87519">
        <ele>184.6</ele>
        <time>2024-09-19T08:29:27Z</time>
      </trkpt>
      <trkpt lat="46.38983" lon="4.87517">
        <ele>184.2</ele>
        <time>2024-09-19T08:29:28Z</time>
      </trkpt>
      <trkpt lat="46.38977" lon="4.87513">
        <ele>184.6</ele>
        <time>2024-09-19T08:29:29Z</time>
      </trkpt>
      <trkpt lat="46.38975" lon="4.87511">
        <ele>184.6</ele>
        <time>2024-09-19T08:29:30Z</time>
      </trkpt>
      <trkpt lat="46.38969" lon="4.87507">
        <ele>184.6</ele>
        <time>2024-09-19T08:29:31Z</time>
      </trkpt>
      <trkpt lat="46.38967" lon="4.87505">
        <ele>184.4</ele>
        <time>2024-09-19T08:29:32Z</time>
      </trkpt>
      <trkpt lat="46.3896" lon="4.875">
        <ele>184.2</ele>
        <time>2024-09-19T08:29:33Z</time>
      </trkpt>
      <trkpt lat="46.38958" lon="4.87499">
        <ele>184.2</ele>
        <time>2024-09-19T08:29:34Z</time>
      </trkpt>
      <trkpt lat="46.38952" lon="4.87494">
        <ele>184.2</ele>
        <time>2024-09-19T08:29:35Z</time>
      </trkpt>
      <trkpt lat="46.3895" lon="4.87492">
        <ele>184.2</ele>
        <time>2024-09-19T08:29:36Z</time>
      </trkpt>
      <trkpt lat="46.38945" lon="4.87489">
        <ele>184</ele>
        <time>2024-09-19T08:29:37Z</time>
      </trkpt>
      <trkpt lat="46.38939" lon="4.87483">
        <ele>184</ele>
        <time>2024-09-19T08:29:38Z</time>
      </trkpt>
      <trkpt lat="46.38937" lon="4.87482">
        <ele>184</ele>
        <time>2024-09-19T08:29:39Z</time>
      </trkpt>
      <trkpt lat="46.38933" lon="4.87478">
        <ele>184</ele>
        <time>2024-09-19T08:29:40Z</time>
      </trkpt>
      <trkpt lat="46.38929" lon="4.87474">
        <ele>184.4</ele>
        <time>2024-09-19T08:29:41Z</time>
      </trkpt>
      <trkpt lat="46.38925" lon="4.87471">
        <ele>184.2</ele>
        <time>2024-09-19T08:29:42Z</time>
      </trkpt>
      <trkpt lat="46.38921" lon="4.87468">
        <ele>184.2</ele>
        <time>2024-09-19T08:29:43Z</time>
      </trkpt>
      <trkpt lat="46.38918" lon="4.87464">
        <ele>184.2</ele>
        <time>2024-09-19T08:29:44Z</time>
      </trkpt>
      <trkpt lat="46.38914" lon="4.87461">
        <ele>184.2</ele>
        <time>2024-09-19T08:29:45Z</time>
      </trkpt>
      <trkpt lat="46.38909" lon="4.87456">
        <ele>184.6</ele>
        <time>2024-09-19T08:29:46Z</time>
      </trkpt>
      <trkpt lat="46.38907" lon="4.87454">
        <ele>184.6</ele>
        <time>2024-09-19T08:29:47Z</time>
      </trkpt>
      <trkpt lat="46.38904" lon="4.87451">
        <ele>184.6</ele>
        <time>2024-09-19T08:29:48Z</time>
      </trkpt>
      <trkpt lat="46.38901" lon="4.87448">
        <ele>184.6</ele>
        <time>2024-09-19T08:29:49Z</time>
      </trkpt>
      <trkpt lat="46.38897" lon="4.87444">
        <ele>184.6</ele>
        <time>2024-09-19T08:29:50Z</time>
      </trkpt>
      <trkpt lat="46.38892" lon="4.87439">
        <ele>184.8</ele>
        <time>2024-09-19T08:29:51Z</time>
      </trkpt>
      <trkpt lat="46.3889" lon="4.87437">
        <ele>184.8</ele>
        <time>2024-09-19T08:29:52Z</time>
      </trkpt>
      <trkpt lat="46.38887" lon="4.87434">
        <ele>184.8</ele>
        <time>2024-09-19T08:29:53Z</time>
      </trkpt>
      <trkpt lat="46.38884" lon="4.8743">
        <ele>184.8</ele>
        <time>2024-09-19T08:29:54Z</time>
      </trkpt>
      <trkpt lat="46.3888" lon="4.87427">
        <ele>185</ele>
        <time>2024-09-19T08:29:55Z</time>
      </trkpt>
      <trkpt lat="46.38877" lon="4.87424">
        <ele>185.2</ele>
        <time>2024-09-19T08:29:56Z</time>
      </trkpt>
      <trkpt lat="46.38874" lon="4.87421">
        <ele>185.2</ele>
        <time>2024-09-19T08:29:57Z</time>
      </trkpt>
      <trkpt lat="46.38871" lon="4.87419">
        <ele>185.2</ele>
        <time>2024-09-19T08:29:58Z</time>
      </trkpt>
      <trkpt lat="46.38868" lon="4.87416">
        <ele>185.2</ele>
        <time>2024-09-19T08:29:59Z</time>
      </trkpt>
      <trkpt lat="46.38865" lon="4.87414">
        <ele>185.2</ele>
        <time>2024-09-19T08:30:00Z</time>
      </trkpt>
      <trkpt lat="46.38862" lon="4.87412">
        <ele>185.2</ele>
        <time>2024-09-19T08:30:01Z</time>
      </trkpt>
      <trkpt lat="46.38859" lon="4.8741">
        <ele>185.2</ele>
        <time>2024-09-19T08:30:02Z</time>
      </trkpt>
      <trkpt lat="46.38855" lon="4.87407">
        <ele>185.2</ele>
        <time>2024-09-19T08:30:03Z</time>
      </trkpt>
      <trkpt lat="46.38853" lon="4.87406">
        <ele>185.2</ele>
        <time>2024-09-19T08:30:04Z</time>
      </trkpt>
      <trkpt lat="46.3885" lon="4.87404">
        <ele>185.2</ele>
        <time>2024-09-19T08:30:05Z</time>
      </trkpt>
      <trkpt lat="46.38847" lon="4.87402">
        <ele>185.2</ele>
        <time>2024-09-19T08:30:06Z</time>
      </trkpt>
      <trkpt lat="46.38844" lon="4.874">
        <ele>185.2</ele>
        <time>2024-09-19T08:30:07Z</time>
      </trkpt>
      <trkpt lat="46.3884" lon="4.87398">
        <ele>185.4</ele>
        <time>2024-09-19T08:30:08Z</time>
      </trkpt>
      <trkpt lat="46.38834" lon="4.87395">
        <ele>185.2</ele>
        <time>2024-09-19T08:30:09Z</time>
      </trkpt>
      <trkpt lat="46.38833" lon="4.87394">
        <ele>185.2</ele>
        <time>2024-09-19T08:30:10Z</time>
      </trkpt>
      <trkpt lat="46.38829" lon="4.87392">
        <ele>185.2</ele>
        <time>2024-09-19T08:30:11Z</time>
      </trkpt>
      <trkpt lat="46.38824" lon="4.8739">
        <ele>185.2</ele>
        <time>2024-09-19T08:30:12Z</time>
      </trkpt>
      <trkpt lat="46.38818" lon="4.87386">
        <ele>185.2</ele>
        <time>2024-09-19T08:30:13Z</time>
      </trkpt>
      <trkpt lat="46.38816" lon="4.87385">
        <ele>185</ele>
        <time>2024-09-19T08:30:14Z</time>
      </trkpt>
      <trkpt lat="46.38809" lon="4.87381">
        <ele>185</ele>
        <time>2024-09-19T08:30:15Z</time>
      </trkpt>
      <trkpt lat="46.38807" lon="4.8738">
        <ele>185</ele>
        <time>2024-09-19T08:30:16Z</time>
      </trkpt>
      <trkpt lat="46.38801" lon="4.87375">
        <ele>185</ele>
        <time>2024-09-19T08:30:17Z</time>
      </trkpt>
      <trkpt lat="46.38799" lon="4.87374">
        <ele>185.6</ele>
        <time>2024-09-19T08:30:18Z</time>
      </trkpt>
      <trkpt lat="46.38793" lon="4.87369">
        <ele>185.6</ele>
        <time>2024-09-19T08:30:19Z</time>
      </trkpt>
      <trkpt lat="46.38791" lon="4.87367">
        <ele>185.6</ele>
        <time>2024-09-19T08:30:20Z</time>
      </trkpt>
      <trkpt lat="46.38787" lon="4.87364">
        <ele>185.2</ele>
        <time>2024-09-19T08:30:21Z</time>
      </trkpt>
      <trkpt lat="46.38782" lon="4.87359">
        <ele>185.2</ele>
        <time>2024-09-19T08:30:22Z</time>
      </trkpt>
      <trkpt lat="46.3878" lon="4.87357">
        <ele>185</ele>
        <time>2024-09-19T08:30:23Z</time>
      </trkpt>
      <trkpt lat="46.38777" lon="4.87354">
        <ele>185</ele>
        <time>2024-09-19T08:30:24Z</time>
      </trkpt>
      <trkpt lat="46.38773" lon="4.87351">
        <ele>185</ele>
        <time>2024-09-19T08:30:25Z</time>
      </trkpt>
      <trkpt lat="46.38769" lon="4.87347">
        <ele>185</ele>
        <time>2024-09-19T08:30:26Z</time>
      </trkpt>
      <trkpt lat="46.38765" lon="4.87344">
        <ele>185</ele>
        <time>2024-09-19T08:30:27Z</time>
      </trkpt>
      <trkpt lat="46.38759" lon="4.87339">
        <ele>185</ele>
        <time>2024-09-19T08:30:28Z</time>
      </trkpt>
      <trkpt lat="46.38757" lon="4.87338">
        <ele>185</ele>
        <time>2024-09-19T08:30:29Z</time>
      </trkpt>
      <trkpt lat="46.3875" lon="4.87334">
        <ele>184.8</ele>
        <time>2024-09-19T08:30:30Z</time>
      </trkpt>
      <trkpt lat="46.38748" lon="4.87334">
        <ele>184.4</ele>
        <time>2024-09-19T08:30:31Z</time>
      </trkpt>
      <trkpt lat="46.38743" lon="4.87332">
        <ele>184.4</ele>
        <time>2024-09-19T08:30:32Z</time>
      </trkpt>
      <trkpt lat="46.38738" lon="4.87332">
        <ele>184.4</ele>
        <time>2024-09-19T08:30:33Z</time>
      </trkpt>
      <trkpt lat="46.38734" lon="4.8733">
        <ele>184.4</ele>
        <time>2024-09-19T08:30:34Z</time>
      </trkpt>
      <trkpt lat="46.38729" lon="4.87328">
        <ele>184.6</ele>
        <time>2024-09-19T08:30:35Z</time>
      </trkpt>
      <trkpt lat="46.38725" lon="4.87326">
        <ele>184.6</ele>
        <time>2024-09-19T08:30:36Z</time>
      </trkpt>
      <trkpt lat="46.3872" lon="4.87324">
        <ele>184.6</ele>
        <time>2024-09-19T08:30:37Z</time>
      </trkpt>
      <trkpt lat="46.38716" lon="4.87321">
        <ele>184.6</ele>
        <time>2024-09-19T08:30:38Z</time>
      </trkpt>
      <trkpt lat="46.38711" lon="4.87319">
        <ele>184.6</ele>
        <time>2024-09-19T08:30:39Z</time>
      </trkpt>
      <trkpt lat="46.38707" lon="4.87317">
        <ele>184.6</ele>
        <time>2024-09-19T08:30:40Z</time>
      </trkpt>
      <trkpt lat="46.38702" lon="4.87315">
        <ele>184.4</ele>
        <time>2024-09-19T08:30:41Z</time>
      </trkpt>
      <trkpt lat="46.38698" lon="4.87312">
        <ele>184.4</ele>
        <time>2024-09-19T08:30:42Z</time>
      </trkpt>
      <trkpt lat="46.38693" lon="4.8731">
        <ele>184.4</ele>
        <time>2024-09-19T08:30:43Z</time>
      </trkpt>
      <trkpt lat="46.38686" lon="4.87307">
        <ele>184.8</ele>
        <time>2024-09-19T08:30:44Z</time>
      </trkpt>
      <trkpt lat="46.38684" lon="4.87306">
        <ele>184.8</ele>
        <time>2024-09-19T08:30:45Z</time>
      </trkpt>
      <trkpt lat="46.38677" lon="4.87302">
        <ele>184.4</ele>
        <time>2024-09-19T08:30:46Z</time>
      </trkpt>
      <trkpt lat="46.38674" lon="4.87301">
        <ele>184.4</ele>
        <time>2024-09-19T08:30:47Z</time>
      </trkpt>
      <trkpt lat="46.38667" lon="4.87297">
        <ele>184.4</ele>
        <time>2024-09-19T08:30:48Z</time>
      </trkpt>
      <trkpt lat="46.38664" lon="4.87296">
        <ele>183.6</ele>
        <time>2024-09-19T08:30:49Z</time>
      </trkpt>
      <trkpt lat="46.38656" lon="4.87292">
        <ele>183.8</ele>
        <time>2024-09-19T08:30:50Z</time>
      </trkpt>
      <trkpt lat="46.38653" lon="4.8729">
        <ele>183.8</ele>
        <time>2024-09-19T08:30:51Z</time>
      </trkpt>
      <trkpt lat="46.38648" lon="4.87288">
        <ele>183.8</ele>
        <time>2024-09-19T08:30:52Z</time>
      </trkpt>
      <trkpt lat="46.38643" lon="4.87286">
        <ele>183.2</ele>
        <time>2024-09-19T08:30:53Z</time>
      </trkpt>
      <trkpt lat="46.38635" lon="4.87283">
        <ele>183.2</ele>
        <time>2024-09-19T08:30:54Z</time>
      </trkpt>
      <trkpt lat="46.38632" lon="4.87281">
        <ele>183.4</ele>
        <time>2024-09-19T08:30:55Z</time>
      </trkpt>
      <trkpt lat="46.38624" lon="4.87278">
        <ele>183.4</ele>
        <time>2024-09-19T08:30:56Z</time>
      </trkpt>
      <trkpt lat="46.38622" lon="4.87277">
        <ele>183.4</ele>
        <time>2024-09-19T08:30:57Z</time>
      </trkpt>
      <trkpt lat="46.38614" lon="4.87274">
        <ele>183.2</ele>
        <time>2024-09-19T08:30:58Z</time>
      </trkpt>
      <trkpt lat="46.38612" lon="4.87273">
        <ele>183</ele>
        <time>2024-09-19T08:30:59Z</time>
      </trkpt>
      <trkpt lat="46.38604" lon="4.8727">
        <ele>183</ele>
        <time>2024-09-19T08:31:00Z</time>
      </trkpt>
      <trkpt lat="46.38602" lon="4.87268">
        <ele>183</ele>
        <time>2024-09-19T08:31:01Z</time>
      </trkpt>
      <trkpt lat="46.38595" lon="4.87264">
        <ele>183</ele>
        <time>2024-09-19T08:31:02Z</time>
      </trkpt>
      <trkpt lat="46.38593" lon="4.87262">
        <ele>183.2</ele>
        <time>2024-09-19T08:31:03Z</time>
      </trkpt>
      <trkpt lat="46.38586" lon="4.87257">
        <ele>183.2</ele>
        <time>2024-09-19T08:31:04Z</time>
      </trkpt>
      <trkpt lat="46.38584" lon="4.87256">
        <ele>183.2</ele>
        <time>2024-09-19T08:31:05Z</time>
      </trkpt>
      <trkpt lat="46.38577" lon="4.87251">
        <ele>183.4</ele>
        <time>2024-09-19T08:31:06Z</time>
      </trkpt>
      <trkpt lat="46.38575" lon="4.87249">
        <ele>183.4</ele>
        <time>2024-09-19T08:31:07Z</time>
      </trkpt>
      <trkpt lat="46.38571" lon="4.87246">
        <ele>183.4</ele>
        <time>2024-09-19T08:31:08Z</time>
      </trkpt>
      <trkpt lat="46.38567" lon="4.87242">
        <ele>183.4</ele>
        <time>2024-09-19T08:31:09Z</time>
      </trkpt>
      <trkpt lat="46.38564" lon="4.87239">
        <ele>183.4</ele>
        <time>2024-09-19T08:31:10Z</time>
      </trkpt>
      <trkpt lat="46.3856" lon="4.87236">
        <ele>183.4</ele>
        <time>2024-09-19T08:31:11Z</time>
      </trkpt>
      <trkpt lat="46.38554" lon="4.87232">
        <ele>183.6</ele>
        <time>2024-09-19T08:31:12Z</time>
      </trkpt>
      <trkpt lat="46.38552" lon="4.8723">
        <ele>183.6</ele>
        <time>2024-09-19T08:31:13Z</time>
      </trkpt>
      <trkpt lat="46.38546" lon="4.87226">
        <ele>183.6</ele>
        <time>2024-09-19T08:31:14Z</time>
      </trkpt>
      <trkpt lat="46.38544" lon="4.87224">
        <ele>183.6</ele>
        <time>2024-09-19T08:31:15Z</time>
      </trkpt>
      <trkpt lat="46.3854" lon="4.87221">
        <ele>183.8</ele>
        <time>2024-09-19T08:31:16Z</time>
      </trkpt>
      <trkpt lat="46.38537" lon="4.87219">
        <ele>183.8</ele>
        <time>2024-09-19T08:31:17Z</time>
      </trkpt>
      <trkpt lat="46.38533" lon="4.87216">
        <ele>183.8</ele>
        <time>2024-09-19T08:31:18Z</time>
      </trkpt>
      <trkpt lat="46.38529" lon="4.87214">
        <ele>183.8</ele>
        <time>2024-09-19T08:31:19Z</time>
      </trkpt>
      <trkpt lat="46.38525" lon="4.87212">
        <ele>184</ele>
        <time>2024-09-19T08:31:20Z</time>
      </trkpt>
      <trkpt lat="46.38521" lon="4.87211">
        <ele>184</ele>
        <time>2024-09-19T08:31:21Z</time>
      </trkpt>
      <trkpt lat="46.38517" lon="4.87209">
        <ele>184</ele>
        <time>2024-09-19T08:31:22Z</time>
      </trkpt>
      <trkpt lat="46.38513" lon="4.87207">
        <ele>184</ele>
        <time>2024-09-19T08:31:23Z</time>
      </trkpt>
      <trkpt lat="46.38508" lon="4.87206">
        <ele>184</ele>
        <time>2024-09-19T08:31:24Z</time>
      </trkpt>
      <trkpt lat="46.38504" lon="4.87204">
        <ele>184</ele>
        <time>2024-09-19T08:31:25Z</time>
      </trkpt>
      <trkpt lat="46.385" lon="4.87201">
        <ele>184</ele>
        <time>2024-09-19T08:31:26Z</time>
      </trkpt>
      <trkpt lat="46.38497" lon="4.87199">
        <ele>184</ele>
        <time>2024-09-19T08:31:27Z</time>
      </trkpt>
      <trkpt lat="46.38493" lon="4.87197">
        <ele>184</ele>
        <time>2024-09-19T08:31:28Z</time>
      </trkpt>
      <trkpt lat="46.38489" lon="4.87195">
        <ele>184</ele>
        <time>2024-09-19T08:31:29Z</time>
      </trkpt>
      <trkpt lat="46.38483" lon="4.87191">
        <ele>183.6</ele>
        <time>2024-09-19T08:31:30Z</time>
      </trkpt>
      <trkpt lat="46.38481" lon="4.87189">
        <ele>183.4</ele>
        <time>2024-09-19T08:31:31Z</time>
      </trkpt>
      <trkpt lat="46.38475" lon="4.87185">
        <ele>183.4</ele>
        <time>2024-09-19T08:31:32Z</time>
      </trkpt>
      <trkpt lat="46.38472" lon="4.87184">
        <ele>183.4</ele>
        <time>2024-09-19T08:31:33Z</time>
      </trkpt>
      <trkpt lat="46.38466" lon="4.87179">
        <ele>183.4</ele>
        <time>2024-09-19T08:31:34Z</time>
      </trkpt>
      <trkpt lat="46.38463" lon="4.87178">
        <ele>183</ele>
        <time>2024-09-19T08:31:35Z</time>
      </trkpt>
      <trkpt lat="46.38456" lon="4.87174">
        <ele>183</ele>
        <time>2024-09-19T08:31:36Z</time>
      </trkpt>
      <trkpt lat="46.38454" lon="4.87173">
        <ele>183</ele>
        <time>2024-09-19T08:31:37Z</time>
      </trkpt>
      <trkpt lat="46.38447" lon="4.87169">
        <ele>183</ele>
        <time>2024-09-19T08:31:38Z</time>
      </trkpt>
      <trkpt lat="46.38445" lon="4.87168">
        <ele>183.2</ele>
        <time>2024-09-19T08:31:39Z</time>
      </trkpt>
      <trkpt lat="46.38438" lon="4.87164">
        <ele>183.2</ele>
        <time>2024-09-19T08:31:40Z</time>
      </trkpt>
      <trkpt lat="46.38436" lon="4.87163">
        <ele>183.2</ele>
        <time>2024-09-19T08:31:41Z</time>
      </trkpt>
      <trkpt lat="46.38429" lon="4.87158">
        <ele>183.2</ele>
        <time>2024-09-19T08:31:42Z</time>
      </trkpt>
      <trkpt lat="46.38427" lon="4.87157">
        <ele>183.2</ele>
        <time>2024-09-19T08:31:43Z</time>
      </trkpt>
      <trkpt lat="46.38421" lon="4.87153">
        <ele>183.2</ele>
        <time>2024-09-19T08:31:44Z</time>
      </trkpt>
      <trkpt lat="46.38419" lon="4.87151">
        <ele>183.2</ele>
        <time>2024-09-19T08:31:45Z</time>
      </trkpt>
      <trkpt lat="46.38413" lon="4.87147">
        <ele>183.2</ele>
        <time>2024-09-19T08:31:46Z</time>
      </trkpt>
      <trkpt lat="46.38411" lon="4.87145">
        <ele>183.2</ele>
        <time>2024-09-19T08:31:47Z</time>
      </trkpt>
      <trkpt lat="46.38407" lon="4.87142">
        <ele>183.4</ele>
        <time>2024-09-19T08:31:48Z</time>
      </trkpt>
      <trkpt lat="46.384" lon="4.87138">
        <ele>183.4</ele>
        <time>2024-09-19T08:31:49Z</time>
      </trkpt>
      <trkpt lat="46.38398" lon="4.87137">
        <ele>183.4</ele>
        <time>2024-09-19T08:31:50Z</time>
      </trkpt>
      <trkpt lat="46.38395" lon="4.87134">
        <ele>183.4</ele>
        <time>2024-09-19T08:31:51Z</time>
      </trkpt>
      <trkpt lat="46.38389" lon="4.8713">
        <ele>183.8</ele>
        <time>2024-09-19T08:31:52Z</time>
      </trkpt>
      <trkpt lat="46.38387" lon="4.87129">
        <ele>183.8</ele>
        <time>2024-09-19T08:31:53Z</time>
      </trkpt>
      <trkpt lat="46.38383" lon="4.87126">
        <ele>183.8</ele>
        <time>2024-09-19T08:31:54Z</time>
      </trkpt>
      <trkpt lat="46.38378" lon="4.87123">
        <ele>183.8</ele>
        <time>2024-09-19T08:31:55Z</time>
      </trkpt>
      <trkpt lat="46.38372" lon="4.87118">
        <ele>183.8</ele>
        <time>2024-09-19T08:31:56Z</time>
      </trkpt>
      <trkpt lat="46.38369" lon="4.87117">
        <ele>184</ele>
        <time>2024-09-19T08:31:57Z</time>
      </trkpt>
      <trkpt lat="46.38365" lon="4.87114">
        <ele>184</ele>
        <time>2024-09-19T08:31:58Z</time>
      </trkpt>
      <trkpt lat="46.38361" lon="4.8711">
        <ele>184</ele>
        <time>2024-09-19T08:31:59Z</time>
      </trkpt>
      <trkpt lat="46.38356" lon="4.87107">
        <ele>184</ele>
        <time>2024-09-19T08:32:00Z</time>
      </trkpt>
      <trkpt lat="46.38352" lon="4.87104">
        <ele>183.8</ele>
        <time>2024-09-19T08:32:01Z</time>
      </trkpt>
      <trkpt lat="46.38348" lon="4.87101">
        <ele>183.8</ele>
        <time>2024-09-19T08:32:02Z</time>
      </trkpt>
      <trkpt lat="46.38342" lon="4.87097">
        <ele>183.8</ele>
        <time>2024-09-19T08:32:03Z</time>
      </trkpt>
      <trkpt lat="46.3834" lon="4.87096">
        <ele>183.8</ele>
        <time>2024-09-19T08:32:04Z</time>
      </trkpt>
      <trkpt lat="46.38336" lon="4.87093">
        <ele>183.8</ele>
        <time>2024-09-19T08:32:05Z</time>
      </trkpt>
      <trkpt lat="46.38333" lon="4.87089">
        <ele>184.2</ele>
        <time>2024-09-19T08:32:06Z</time>
      </trkpt>
      <trkpt lat="46.38328" lon="4.87083">
        <ele>184</ele>
        <time>2024-09-19T08:32:07Z</time>
      </trkpt>
      <trkpt lat="46.38327" lon="4.87081">
        <ele>184</ele>
        <time>2024-09-19T08:32:08Z</time>
      </trkpt>
      <trkpt lat="46.38323" lon="4.87077">
        <ele>184</ele>
        <time>2024-09-19T08:32:09Z</time>
      </trkpt>
      <trkpt lat="46.3832" lon="4.87073">
        <ele>184.2</ele>
        <time>2024-09-19T08:32:10Z</time>
      </trkpt>
      <trkpt lat="46.38316" lon="4.8707">
        <ele>184.4</ele>
        <time>2024-09-19T08:32:11Z</time>
      </trkpt>
      <trkpt lat="46.38312" lon="4.87067">
        <ele>184.4</ele>
        <time>2024-09-19T08:32:12Z</time>
      </trkpt>
      <trkpt lat="46.38306" lon="4.87062">
        <ele>184.4</ele>
        <time>2024-09-19T08:32:13Z</time>
      </trkpt>
      <trkpt lat="46.38304" lon="4.8706">
        <ele>184.4</ele>
        <time>2024-09-19T08:32:14Z</time>
      </trkpt>
      <trkpt lat="46.38297" lon="4.87056">
        <ele>184</ele>
        <time>2024-09-19T08:32:15Z</time>
      </trkpt>
      <trkpt lat="46.38295" lon="4.87054">
        <ele>184</ele>
        <time>2024-09-19T08:32:16Z</time>
      </trkpt>
      <trkpt lat="46.38291" lon="4.87051">
        <ele>184</ele>
        <time>2024-09-19T08:32:17Z</time>
      </trkpt>
      <trkpt lat="46.38285" lon="4.87045">
        <ele>184</ele>
        <time>2024-09-19T08:32:18Z</time>
      </trkpt>
      <trkpt lat="46.38282" lon="4.87044">
        <ele>184.2</ele>
        <time>2024-09-19T08:32:19Z</time>
      </trkpt>
      <trkpt lat="46.38276" lon="4.87038">
        <ele>184.2</ele>
        <time>2024-09-19T08:32:20Z</time>
      </trkpt>
      <trkpt lat="46.38274" lon="4.87037">
        <ele>184.2</ele>
        <time>2024-09-19T08:32:21Z</time>
      </trkpt>
      <trkpt lat="46.38267" lon="4.87031">
        <ele>184.2</ele>
        <time>2024-09-19T08:32:22Z</time>
      </trkpt>
      <trkpt lat="46.38265" lon="4.87029">
        <ele>184</ele>
        <time>2024-09-19T08:32:23Z</time>
      </trkpt>
      <trkpt lat="46.38259" lon="4.87023">
        <ele>184</ele>
        <time>2024-09-19T08:32:24Z</time>
      </trkpt>
      <trkpt lat="46.38256" lon="4.87021">
        <ele>184</ele>
        <time>2024-09-19T08:32:25Z</time>
      </trkpt>
      <trkpt lat="46.3825" lon="4.87015">
        <ele>184</ele>
        <time>2024-09-19T08:32:26Z</time>
      </trkpt>
      <trkpt lat="46.38248" lon="4.87014">
        <ele>183.8</ele>
        <time>2024-09-19T08:32:27Z</time>
      </trkpt>
      <trkpt lat="46.38242" lon="4.87008">
        <ele>184</ele>
        <time>2024-09-19T08:32:28Z</time>
      </trkpt>
      <trkpt lat="46.3824" lon="4.87006">
        <ele>184</ele>
        <time>2024-09-19T08:32:29Z</time>
      </trkpt>
      <trkpt lat="46.38234" lon="4.87">
        <ele>184</ele>
        <time>2024-09-19T08:32:30Z</time>
      </trkpt>
      <trkpt lat="46.38232" lon="4.86998">
        <ele>184</ele>
        <time>2024-09-19T08:32:31Z</time>
      </trkpt>
      <trkpt lat="46.38229" lon="4.86995">
        <ele>184.2</ele>
        <time>2024-09-19T08:32:32Z</time>
      </trkpt>
      <trkpt lat="46.38223" lon="4.86989">
        <ele>184.4</ele>
        <time>2024-09-19T08:32:33Z</time>
      </trkpt>
      <trkpt lat="46.38222" lon="4.86988">
        <ele>184.4</ele>
        <time>2024-09-19T08:32:34Z</time>
      </trkpt>
      <trkpt lat="46.38216" lon="4.86982">
        <ele>184.4</ele>
        <time>2024-09-19T08:32:35Z</time>
      </trkpt>
      <trkpt lat="46.38215" lon="4.8698">
        <ele>184.4</ele>
        <time>2024-09-19T08:32:36Z</time>
      </trkpt>
      <trkpt lat="46.38211" lon="4.86976">
        <ele>184.4</ele>
        <time>2024-09-19T08:32:37Z</time>
      </trkpt>
      <trkpt lat="46.38208" lon="4.86972">
        <ele>184.4</ele>
        <time>2024-09-19T08:32:38Z</time>
      </trkpt>
      <trkpt lat="46.38204" lon="4.86965">
        <ele>184.4</ele>
        <time>2024-09-19T08:32:39Z</time>
      </trkpt>
      <trkpt lat="46.38202" lon="4.86963">
        <ele>184.4</ele>
        <time>2024-09-19T08:32:40Z</time>
      </trkpt>
      <trkpt lat="46.38198" lon="4.86957">
        <ele>184.8</ele>
        <time>2024-09-19T08:32:41Z</time>
      </trkpt>
      <trkpt lat="46.38196" lon="4.86955">
        <ele>184.8</ele>
        <time>2024-09-19T08:32:42Z</time>
      </trkpt>
      <trkpt lat="46.38193" lon="4.86951">
        <ele>184.8</ele>
        <time>2024-09-19T08:32:43Z</time>
      </trkpt>
      <trkpt lat="46.38189" lon="4.86948">
        <ele>184.8</ele>
        <time>2024-09-19T08:32:44Z</time>
      </trkpt>
      <trkpt lat="46.38186" lon="4.86944">
        <ele>184.8</ele>
        <time>2024-09-19T08:32:45Z</time>
      </trkpt>
      <trkpt lat="46.38182" lon="4.8694">
        <ele>184.8</ele>
        <time>2024-09-19T08:32:46Z</time>
      </trkpt>
      <trkpt lat="46.38179" lon="4.86936">
        <ele>184.6</ele>
        <time>2024-09-19T08:32:47Z</time>
      </trkpt>
      <trkpt lat="46.38175" lon="4.86933">
        <ele>184.6</ele>
        <time>2024-09-19T08:32:48Z</time>
      </trkpt>
      <trkpt lat="46.38172" lon="4.86929">
        <ele>184.6</ele>
        <time>2024-09-19T08:32:49Z</time>
      </trkpt>
      <trkpt lat="46.38168" lon="4.86925">
        <ele>184.8</ele>
        <time>2024-09-19T08:32:50Z</time>
      </trkpt>
      <trkpt lat="46.38164" lon="4.86921">
        <ele>184.8</ele>
        <time>2024-09-19T08:32:51Z</time>
      </trkpt>
      <trkpt lat="46.38161" lon="4.86917">
        <ele>184.8</ele>
        <time>2024-09-19T08:32:52Z</time>
      </trkpt>
      <trkpt lat="46.38157" lon="4.86913">
        <ele>184.8</ele>
        <time>2024-09-19T08:32:53Z</time>
      </trkpt>
      <trkpt lat="46.38154" lon="4.86909">
        <ele>184.8</ele>
        <time>2024-09-19T08:32:54Z</time>
      </trkpt>
      <trkpt lat="46.38148" lon="4.86903">
        <ele>185</ele>
        <time>2024-09-19T08:32:55Z</time>
      </trkpt>
      <trkpt lat="46.38146" lon="4.86901">
        <ele>185</ele>
        <time>2024-09-19T08:32:56Z</time>
      </trkpt>
      <trkpt lat="46.38141" lon="4.86895">
        <ele>185</ele>
        <time>2024-09-19T08:32:57Z</time>
      </trkpt>
      <trkpt lat="46.38139" lon="4.86893">
        <ele>185</ele>
        <time>2024-09-19T08:32:58Z</time>
      </trkpt>
      <trkpt lat="46.38134" lon="4.86887">
        <ele>185.2</ele>
        <time>2024-09-19T08:32:59Z</time>
      </trkpt>
      <trkpt lat="46.38132" lon="4.86885">
        <ele>185</ele>
        <time>2024-09-19T08:33:00Z</time>
      </trkpt>
      <trkpt lat="46.38126" lon="4.86879">
        <ele>185</ele>
        <time>2024-09-19T08:33:01Z</time>
      </trkpt>
      <trkpt lat="46.38125" lon="4.86877">
        <ele>185</ele>
        <time>2024-09-19T08:33:02Z</time>
      </trkpt>
      <trkpt lat="46.38119" lon="4.8687">
        <ele>185</ele>
        <time>2024-09-19T08:33:03Z</time>
      </trkpt>
      <trkpt lat="46.38117" lon="4.86868">
        <ele>185.2</ele>
        <time>2024-09-19T08:33:04Z</time>
      </trkpt>
      <trkpt lat="46.38111" lon="4.86862">
        <ele>185.2</ele>
        <time>2024-09-19T08:33:05Z</time>
      </trkpt>
      <trkpt lat="46.38109" lon="4.8686">
        <ele>185.2</ele>
        <time>2024-09-19T08:33:06Z</time>
      </trkpt>
      <trkpt lat="46.38103" lon="4.86854">
        <ele>184.8</ele>
        <time>2024-09-19T08:33:07Z</time>
      </trkpt>
      <trkpt lat="46.38101" lon="4.86852">
        <ele>184.8</ele>
        <time>2024-09-19T08:33:08Z</time>
      </trkpt>
      <trkpt lat="46.38095" lon="4.86846">
        <ele>184.8</ele>
        <time>2024-09-19T08:33:09Z</time>
      </trkpt>
      <trkpt lat="46.38093" lon="4.86844">
        <ele>184.8</ele>
        <time>2024-09-19T08:33:10Z</time>
      </trkpt>
      <trkpt lat="46.38088" lon="4.86838">
        <ele>184.8</ele>
        <time>2024-09-19T08:33:11Z</time>
      </trkpt>
      <trkpt lat="46.38086" lon="4.86836">
        <ele>184.8</ele>
        <time>2024-09-19T08:33:12Z</time>
      </trkpt>
      <trkpt lat="46.3808" lon="4.8683">
        <ele>184.8</ele>
        <time>2024-09-19T08:33:13Z</time>
      </trkpt>
      <trkpt lat="46.38078" lon="4.86828">
        <ele>184.8</ele>
        <time>2024-09-19T08:33:14Z</time>
      </trkpt>
      <trkpt lat="46.38074" lon="4.86824">
        <ele>184.8</ele>
        <time>2024-09-19T08:33:15Z</time>
      </trkpt>
      <trkpt lat="46.3807" lon="4.8682">
        <ele>184.8</ele>
        <time>2024-09-19T08:33:16Z</time>
      </trkpt>
      <trkpt lat="46.38063" lon="4.86814">
        <ele>184.2</ele>
        <time>2024-09-19T08:33:17Z</time>
      </trkpt>
      <trkpt lat="46.38061" lon="4.86812">
        <ele>184.2</ele>
        <time>2024-09-19T08:33:18Z</time>
      </trkpt>
      <trkpt lat="46.38057" lon="4.86808">
        <ele>184.2</ele>
        <time>2024-09-19T08:33:19Z</time>
      </trkpt>
      <trkpt lat="46.38052" lon="4.86803">
        <ele>184.2</ele>
        <time>2024-09-19T08:33:20Z</time>
      </trkpt>
      <trkpt lat="46.38048" lon="4.86799">
        <ele>183.8</ele>
        <time>2024-09-19T08:33:21Z</time>
      </trkpt>
      <trkpt lat="46.38043" lon="4.86795">
        <ele>183.8</ele>
        <time>2024-09-19T08:33:22Z</time>
      </trkpt>
      <trkpt lat="46.38036" lon="4.86789">
        <ele>183.8</ele>
        <time>2024-09-19T08:33:23Z</time>
      </trkpt>
      <trkpt lat="46.38034" lon="4.86787">
        <ele>183.8</ele>
        <time>2024-09-19T08:33:24Z</time>
      </trkpt>
      <trkpt lat="46.38027" lon="4.86782">
        <ele>184.2</ele>
        <time>2024-09-19T08:33:25Z</time>
      </trkpt>
      <trkpt lat="46.38024" lon="4.8678">
        <ele>184.2</ele>
        <time>2024-09-19T08:33:26Z</time>
      </trkpt>
      <trkpt lat="46.3802" lon="4.86776">
        <ele>183.8</ele>
        <time>2024-09-19T08:33:27Z</time>
      </trkpt>
      <trkpt lat="46.38013" lon="4.86771">
        <ele>183.8</ele>
        <time>2024-09-19T08:33:28Z</time>
      </trkpt>
      <trkpt lat="46.38011" lon="4.86769">
        <ele>183.8</ele>
        <time>2024-09-19T08:33:29Z</time>
      </trkpt>
      <trkpt lat="46.38006" lon="4.86766">
        <ele>183.8</ele>
        <time>2024-09-19T08:33:30Z</time>
      </trkpt>
      <trkpt lat="46.38001" lon="4.86762">
        <ele>183.4</ele>
        <time>2024-09-19T08:33:31Z</time>
      </trkpt>
      <trkpt lat="46.37997" lon="4.86758">
        <ele>183.4</ele>
        <time>2024-09-19T08:33:32Z</time>
      </trkpt>
      <trkpt lat="46.37993" lon="4.86754">
        <ele>183.4</ele>
        <time>2024-09-19T08:33:33Z</time>
      </trkpt>
      <trkpt lat="46.37988" lon="4.86749">
        <ele>183.6</ele>
        <time>2024-09-19T08:33:34Z</time>
      </trkpt>
      <trkpt lat="46.37984" lon="4.86745">
        <ele>183.6</ele>
        <time>2024-09-19T08:33:35Z</time>
      </trkpt>
      <trkpt lat="46.3798" lon="4.86741">
        <ele>183</ele>
        <time>2024-09-19T08:33:36Z</time>
      </trkpt>
      <trkpt lat="46.37973" lon="4.86735">
        <ele>183</ele>
        <time>2024-09-19T08:33:37Z</time>
      </trkpt>
      <trkpt lat="46.37971" lon="4.86733">
        <ele>183</ele>
        <time>2024-09-19T08:33:38Z</time>
      </trkpt>
      <trkpt lat="46.37965" lon="4.86727">
        <ele>183.2</ele>
        <time>2024-09-19T08:33:39Z</time>
      </trkpt>
      <trkpt lat="46.37963" lon="4.86725">
        <ele>183.2</ele>
        <time>2024-09-19T08:33:40Z</time>
      </trkpt>
      <trkpt lat="46.37957" lon="4.86719">
        <ele>183.2</ele>
        <time>2024-09-19T08:33:41Z</time>
      </trkpt>
      <trkpt lat="46.37955" lon="4.86717">
        <ele>183.2</ele>
        <time>2024-09-19T08:33:42Z</time>
      </trkpt>
      <trkpt lat="46.37951" lon="4.86713">
        <ele>183.2</ele>
        <time>2024-09-19T08:33:43Z</time>
      </trkpt>
      <trkpt lat="46.37947" lon="4.86708">
        <ele>183.2</ele>
        <time>2024-09-19T08:33:44Z</time>
      </trkpt>
      <trkpt lat="46.37941" lon="4.86701">
        <ele>182.8</ele>
        <time>2024-09-19T08:33:45Z</time>
      </trkpt>
      <trkpt lat="46.37939" lon="4.86699">
        <ele>182.8</ele>
        <time>2024-09-19T08:33:46Z</time>
      </trkpt>
      <trkpt lat="46.37933" lon="4.86694">
        <ele>182.8</ele>
        <time>2024-09-19T08:33:47Z</time>
      </trkpt>
      <trkpt lat="46.37931" lon="4.86692">
        <ele>183.6</ele>
        <time>2024-09-19T08:33:48Z</time>
      </trkpt>
      <trkpt lat="46.37925" lon="4.86687">
        <ele>183.2</ele>
        <time>2024-09-19T08:33:49Z</time>
      </trkpt>
      <trkpt lat="46.37924" lon="4.86685">
        <ele>183.2</ele>
        <time>2024-09-19T08:33:50Z</time>
      </trkpt>
      <trkpt lat="46.3792" lon="4.86681">
        <ele>183.2</ele>
        <time>2024-09-19T08:33:51Z</time>
      </trkpt>
      <trkpt lat="46.37917" lon="4.86677">
        <ele>183.2</ele>
        <time>2024-09-19T08:33:52Z</time>
      </trkpt>
      <trkpt lat="46.37912" lon="4.86671">
        <ele>183.2</ele>
        <time>2024-09-19T08:33:53Z</time>
      </trkpt>
      <trkpt lat="46.3791" lon="4.86669">
        <ele>183.2</ele>
        <time>2024-09-19T08:33:54Z</time>
      </trkpt>
      <trkpt lat="46.37904" lon="4.86663">
        <ele>183.2</ele>
        <time>2024-09-19T08:33:55Z</time>
      </trkpt>
      <trkpt lat="46.37902" lon="4.86661">
        <ele>183.2</ele>
        <time>2024-09-19T08:33:56Z</time>
      </trkpt>
      <trkpt lat="46.37896" lon="4.86656">
        <ele>183</ele>
        <time>2024-09-19T08:33:57Z</time>
      </trkpt>
      <trkpt lat="46.37895" lon="4.86654">
        <ele>183.2</ele>
        <time>2024-09-19T08:33:58Z</time>
      </trkpt>
      <trkpt lat="46.37889" lon="4.86649">
        <ele>183.2</ele>
        <time>2024-09-19T08:33:59Z</time>
      </trkpt>
      <trkpt lat="46.37887" lon="4.86647">
        <ele>183.2</ele>
        <time>2024-09-19T08:34:00Z</time>
      </trkpt>
      <trkpt lat="46.37883" lon="4.86644">
        <ele>183</ele>
        <time>2024-09-19T08:34:01Z</time>
      </trkpt>
      <trkpt lat="46.37879" lon="4.86641">
        <ele>183</ele>
        <time>2024-09-19T08:34:02Z</time>
      </trkpt>
      <trkpt lat="46.37875" lon="4.86637">
        <ele>183</ele>
        <time>2024-09-19T08:34:03Z</time>
      </trkpt>
      <trkpt lat="46.3787" lon="4.86634">
        <ele>183</ele>
        <time>2024-09-19T08:34:04Z</time>
      </trkpt>
      <trkpt lat="46.37864" lon="4.8663">
        <ele>183.2</ele>
        <time>2024-09-19T08:34:05Z</time>
      </trkpt>
      <trkpt lat="46.37862" lon="4.86629">
        <ele>183.2</ele>
        <time>2024-09-19T08:34:06Z</time>
      </trkpt>
      <trkpt lat="46.37858" lon="4.86626">
        <ele>183.2</ele>
        <time>2024-09-19T08:34:07Z</time>
      </trkpt>
      <trkpt lat="46.37852" lon="4.86622">
        <ele>183.2</ele>
        <time>2024-09-19T08:34:08Z</time>
      </trkpt>
      <trkpt lat="46.3785" lon="4.8662">
        <ele>183.2</ele>
        <time>2024-09-19T08:34:09Z</time>
      </trkpt>
      <trkpt lat="46.37846" lon="4.86617">
        <ele>183.2</ele>
        <time>2024-09-19T08:34:10Z</time>
      </trkpt>
      <trkpt lat="46.37842" lon="4.86614">
        <ele>183.4</ele>
        <time>2024-09-19T08:34:11Z</time>
      </trkpt>
      <trkpt lat="46.37838" lon="4.86611">
        <ele>183.4</ele>
        <time>2024-09-19T08:34:12Z</time>
      </trkpt>
      <trkpt lat="46.37832" lon="4.86606">
        <ele>183.4</ele>
        <time>2024-09-19T08:34:13Z</time>
      </trkpt>
      <trkpt lat="46.3783" lon="4.86605">
        <ele>183.4</ele>
        <time>2024-09-19T08:34:14Z</time>
      </trkpt>
      <trkpt lat="46.37826" lon="4.86601">
        <ele>183.8</ele>
        <time>2024-09-19T08:34:15Z</time>
      </trkpt>
      <trkpt lat="46.37822" lon="4.86598">
        <ele>183.6</ele>
        <time>2024-09-19T08:34:16Z</time>
      </trkpt>
      <trkpt lat="46.37818" lon="4.86594">
        <ele>183.6</ele>
        <time>2024-09-19T08:34:17Z</time>
      </trkpt>
      <trkpt lat="46.37814" lon="4.86591">
        <ele>183.6</ele>
        <time>2024-09-19T08:34:18Z</time>
      </trkpt>
      <trkpt lat="46.37809" lon="4.86585">
        <ele>183.6</ele>
        <time>2024-09-19T08:34:19Z</time>
      </trkpt>
      <trkpt lat="46.37807" lon="4.86584">
        <ele>183.8</ele>
        <time>2024-09-19T08:34:20Z</time>
      </trkpt>
      <trkpt lat="46.37803" lon="4.8658">
        <ele>183.6</ele>
        <time>2024-09-19T08:34:21Z</time>
      </trkpt>
      <trkpt lat="46.378" lon="4.86576">
        <ele>183.6</ele>
        <time>2024-09-19T08:34:22Z</time>
      </trkpt>
      <trkpt lat="46.37794" lon="4.8657">
        <ele>183.6</ele>
        <time>2024-09-19T08:34:23Z</time>
      </trkpt>
      <trkpt lat="46.37792" lon="4.86568">
        <ele>183.6</ele>
        <time>2024-09-19T08:34:24Z</time>
      </trkpt>
      <trkpt lat="46.37786" lon="4.86562">
        <ele>183.8</ele>
        <time>2024-09-19T08:34:25Z</time>
      </trkpt>
      <trkpt lat="46.37784" lon="4.86561">
        <ele>183.8</ele>
        <time>2024-09-19T08:34:26Z</time>
      </trkpt>
      <trkpt lat="46.37779" lon="4.86558">
        <ele>183.8</ele>
        <time>2024-09-19T08:34:27Z</time>
      </trkpt>
      <trkpt lat="46.37775" lon="4.86555">
        <ele>183.8</ele>
        <time>2024-09-19T08:34:28Z</time>
      </trkpt>
      <trkpt lat="46.37768" lon="4.8655">
        <ele>184</ele>
        <time>2024-09-19T08:34:29Z</time>
      </trkpt>
      <trkpt lat="46.37766" lon="4.86549">
        <ele>184</ele>
        <time>2024-09-19T08:34:30Z</time>
      </trkpt>
      <trkpt lat="46.37759" lon="4.86544">
        <ele>184</ele>
        <time>2024-09-19T08:34:31Z</time>
      </trkpt>
      <trkpt lat="46.37757" lon="4.86542">
        <ele>184</ele>
        <time>2024-09-19T08:34:32Z</time>
      </trkpt>
      <trkpt lat="46.37751" lon="4.86538">
        <ele>184</ele>
        <time>2024-09-19T08:34:33Z</time>
      </trkpt>
      <trkpt lat="46.37749" lon="4.86536">
        <ele>183.4</ele>
        <time>2024-09-19T08:34:34Z</time>
      </trkpt>
      <trkpt lat="46.37742" lon="4.86531">
        <ele>183.4</ele>
        <time>2024-09-19T08:34:35Z</time>
      </trkpt>
      <trkpt lat="46.3774" lon="4.8653">
        <ele>183.4</ele>
        <time>2024-09-19T08:34:36Z</time>
      </trkpt>
      <trkpt lat="46.37734" lon="4.86525">
        <ele>183.4</ele>
        <time>2024-09-19T08:34:37Z</time>
      </trkpt>
      <trkpt lat="46.37731" lon="4.86524">
        <ele>183.8</ele>
        <time>2024-09-19T08:34:38Z</time>
      </trkpt>
      <trkpt lat="46.37725" lon="4.86519">
        <ele>183.8</ele>
        <time>2024-09-19T08:34:39Z</time>
      </trkpt>
      <trkpt lat="46.37723" lon="4.86517">
        <ele>183.8</ele>
        <time>2024-09-19T08:34:40Z</time>
      </trkpt>
      <trkpt lat="46.37718" lon="4.86514">
        <ele>183.4</ele>
        <time>2024-09-19T08:34:41Z</time>
      </trkpt>
      <trkpt lat="46.37712" lon="4.8651">
        <ele>183.4</ele>
        <time>2024-09-19T08:34:42Z</time>
      </trkpt>
      <trkpt lat="46.3771" lon="4.86508">
        <ele>183.4</ele>
        <time>2024-09-19T08:34:43Z</time>
      </trkpt>
      <trkpt lat="46.37706" lon="4.86505">
        <ele>183.4</ele>
        <time>2024-09-19T08:34:44Z</time>
      </trkpt>
      <trkpt lat="46.37702" lon="4.86502">
        <ele>183.4</ele>
        <time>2024-09-19T08:34:45Z</time>
      </trkpt>
      <trkpt lat="46.37698" lon="4.86499">
        <ele>183.4</ele>
        <time>2024-09-19T08:34:46Z</time>
      </trkpt>
      <trkpt lat="46.37694" lon="4.86496">
        <ele>183.2</ele>
        <time>2024-09-19T08:34:47Z</time>
      </trkpt>
      <trkpt lat="46.37689" lon="4.86492">
        <ele>183.2</ele>
        <time>2024-09-19T08:34:48Z</time>
      </trkpt>
      <trkpt lat="46.37687" lon="4.86491">
        <ele>183.2</ele>
        <time>2024-09-19T08:34:49Z</time>
      </trkpt>
      <trkpt lat="46.37683" lon="4.86488">
        <ele>183.4</ele>
        <time>2024-09-19T08:34:50Z</time>
      </trkpt>
      <trkpt lat="46.37677" lon="4.86483">
        <ele>183.6</ele>
        <time>2024-09-19T08:34:51Z</time>
      </trkpt>
      <trkpt lat="46.37675" lon="4.86481">
        <ele>183.6</ele>
        <time>2024-09-19T08:34:52Z</time>
      </trkpt>
      <trkpt lat="46.37671" lon="4.86478">
        <ele>183.6</ele>
        <time>2024-09-19T08:34:53Z</time>
      </trkpt>
      <trkpt lat="46.37667" lon="4.86475">
        <ele>183.6</ele>
        <time>2024-09-19T08:34:54Z</time>
      </trkpt>
      <trkpt lat="46.37664" lon="4.86472">
        <ele>183.8</ele>
        <time>2024-09-19T08:34:55Z</time>
      </trkpt>
      <trkpt lat="46.3766" lon="4.86469">
        <ele>183.8</ele>
        <time>2024-09-19T08:34:56Z</time>
      </trkpt>
      <trkpt lat="46.37657" lon="4.86466">
        <ele>183.8</ele>
        <time>2024-09-19T08:34:57Z</time>
      </trkpt>
      <trkpt lat="46.37653" lon="4.86463">
        <ele>183.8</ele>
        <time>2024-09-19T08:34:58Z</time>
      </trkpt>
      <trkpt lat="46.37649" lon="4.8646">
        <ele>183.8</ele>
        <time>2024-09-19T08:34:59Z</time>
      </trkpt>
      <trkpt lat="46.37645" lon="4.86457">
        <ele>184</ele>
        <time>2024-09-19T08:35:00Z</time>
      </trkpt>
      <trkpt lat="46.37641" lon="4.86453">
        <ele>184</ele>
        <time>2024-09-19T08:35:01Z</time>
      </trkpt>
      <trkpt lat="46.37638" lon="4.86449">
        <ele>184</ele>
        <time>2024-09-19T08:35:02Z</time>
      </trkpt>
      <trkpt lat="46.37634" lon="4.86445">
        <ele>184</ele>
        <time>2024-09-19T08:35:03Z</time>
      </trkpt>
      <trkpt lat="46.37631" lon="4.8644">
        <ele>184</ele>
        <time>2024-09-19T08:35:04Z</time>
      </trkpt>
      <trkpt lat="46.37626" lon="4.86433">
        <ele>184</ele>
        <time>2024-09-19T08:35:05Z</time>
      </trkpt>
      <trkpt lat="46.37624" lon="4.86431">
        <ele>184</ele>
        <time>2024-09-19T08:35:06Z</time>
      </trkpt>
      <trkpt lat="46.37618" lon="4.86425">
        <ele>184</ele>
        <time>2024-09-19T08:35:07Z</time>
      </trkpt>
      <trkpt lat="46.37616" lon="4.86423">
        <ele>184</ele>
        <time>2024-09-19T08:35:08Z</time>
      </trkpt>
      <trkpt lat="46.3761" lon="4.86417">
        <ele>184.2</ele>
        <time>2024-09-19T08:35:09Z</time>
      </trkpt>
      <trkpt lat="46.37608" lon="4.86416">
        <ele>184.4</ele>
        <time>2024-09-19T08:35:10Z</time>
      </trkpt>
      <trkpt lat="46.37602" lon="4.8641">
        <ele>184.4</ele>
        <time>2024-09-19T08:35:11Z</time>
      </trkpt>
      <trkpt lat="46.376" lon="4.86408">
        <ele>184.4</ele>
        <time>2024-09-19T08:35:12Z</time>
      </trkpt>
      <trkpt lat="46.37594" lon="4.86403">
        <ele>184.4</ele>
        <time>2024-09-19T08:35:13Z</time>
      </trkpt>
      <trkpt lat="46.37592" lon="4.86401">
        <ele>184.4</ele>
        <time>2024-09-19T08:35:14Z</time>
      </trkpt>
      <trkpt lat="46.37586" lon="4.86396">
        <ele>184.4</ele>
        <time>2024-09-19T08:35:15Z</time>
      </trkpt>
      <trkpt lat="46.37584" lon="4.86394">
        <ele>184.4</ele>
        <time>2024-09-19T08:35:16Z</time>
      </trkpt>
      <trkpt lat="46.3758" lon="4.8639">
        <ele>184.4</ele>
        <time>2024-09-19T08:35:17Z</time>
      </trkpt>
      <trkpt lat="46.37574" lon="4.86385">
        <ele>184.4</ele>
        <time>2024-09-19T08:35:18Z</time>
      </trkpt>
      <trkpt lat="46.37572" lon="4.86383">
        <ele>184.6</ele>
        <time>2024-09-19T08:35:19Z</time>
      </trkpt>
      <trkpt lat="46.37567" lon="4.86376">
        <ele>184.6</ele>
        <time>2024-09-19T08:35:20Z</time>
      </trkpt>
      <trkpt lat="46.37565" lon="4.86374">
        <ele>184.6</ele>
        <time>2024-09-19T08:35:21Z</time>
      </trkpt>
      <trkpt lat="46.3756" lon="4.86368">
        <ele>184.6</ele>
        <time>2024-09-19T08:35:22Z</time>
      </trkpt>
      <trkpt lat="46.37558" lon="4.86366">
        <ele>184.4</ele>
        <time>2024-09-19T08:35:23Z</time>
      </trkpt>
      <trkpt lat="46.37554" lon="4.86362">
        <ele>184.4</ele>
        <time>2024-09-19T08:35:24Z</time>
      </trkpt>
      <trkpt lat="46.3755" lon="4.86358">
        <ele>184.4</ele>
        <time>2024-09-19T08:35:25Z</time>
      </trkpt>
      <trkpt lat="46.37545" lon="4.86353">
        <ele>184.4</ele>
        <time>2024-09-19T08:35:26Z</time>
      </trkpt>
      <trkpt lat="46.37544" lon="4.86352">
        <ele>184.4</ele>
        <time>2024-09-19T08:35:27Z</time>
      </trkpt>
      <trkpt lat="46.37541" lon="4.8635">
        <ele>184.4</ele>
        <time>2024-09-19T08:35:28Z</time>
      </trkpt>
      <trkpt lat="46.37538" lon="4.86348">
        <ele>184.4</ele>
        <time>2024-09-19T08:35:29Z</time>
      </trkpt>
      <trkpt lat="46.37536" lon="4.86347">
        <ele>184.4</ele>
        <time>2024-09-19T08:35:30Z</time>
      </trkpt>
      <trkpt lat="46.37535" lon="4.86346">
        <ele>184</ele>
        <time>2024-09-19T08:35:31Z</time>
      </trkpt>
      <trkpt lat="46.37534" lon="4.86345">
        <ele>184</ele>
        <time>2024-09-19T08:35:32Z</time>
      </trkpt>
      <trkpt lat="46.37534" lon="4.86345">
        <ele>184</ele>
        <time>2024-09-19T08:35:33Z</time>
      </trkpt>
      <trkpt lat="46.37534" lon="4.86345">
        <ele>184</ele>
        <time>2024-09-19T08:35:34Z</time>
      </trkpt>
      <trkpt lat="46.37527" lon="4.86339">
        <ele>183.2</ele>
        <time>2024-09-19T08:36:59Z</time>
      </trkpt>
      <trkpt lat="46.37525" lon="4.86337">
        <ele>183.2</ele>
        <time>2024-09-19T08:37:00Z</time>
      </trkpt>
      <trkpt lat="46.37522" lon="4.86336">
        <ele>183.2</ele>
        <time>2024-09-19T08:37:01Z</time>
      </trkpt>
      <trkpt lat="46.3752" lon="4.86334">
        <ele>183.2</ele>
        <time>2024-09-19T08:37:02Z</time>
      </trkpt>
      <trkpt lat="46.37517" lon="4.86331">
        <ele>183.6</ele>
        <time>2024-09-19T08:37:03Z</time>
      </trkpt>
      <trkpt lat="46.37514" lon="4.86329">
        <ele>183.6</ele>
        <time>2024-09-19T08:37:04Z</time>
      </trkpt>
      <trkpt lat="46.37511" lon="4.86326">
        <ele>183.6</ele>
        <time>2024-09-19T08:37:05Z</time>
      </trkpt>
      <trkpt lat="46.37508" lon="4.86323">
        <ele>183.6</ele>
        <time>2024-09-19T08:37:06Z</time>
      </trkpt>
      <trkpt lat="46.37505" lon="4.8632">
        <ele>183.6</ele>
        <time>2024-09-19T08:37:07Z</time>
      </trkpt>
      <trkpt lat="46.37499" lon="4.86316">
        <ele>183.6</ele>
        <time>2024-09-19T08:37:08Z</time>
      </trkpt>
      <trkpt lat="46.37498" lon="4.86314">
        <ele>183.6</ele>
        <time>2024-09-19T08:37:09Z</time>
      </trkpt>
      <trkpt lat="46.37494" lon="4.86311">
        <ele>183.6</ele>
        <time>2024-09-19T08:37:10Z</time>
      </trkpt>
      <trkpt lat="46.37491" lon="4.86307">
        <ele>183.6</ele>
        <time>2024-09-19T08:37:11Z</time>
      </trkpt>
      <trkpt lat="46.37487" lon="4.86304">
        <ele>184</ele>
        <time>2024-09-19T08:37:12Z</time>
      </trkpt>
      <trkpt lat="46.37484" lon="4.86301">
        <ele>184</ele>
        <time>2024-09-19T08:37:13Z</time>
      </trkpt>
      <trkpt lat="46.37481" lon="4.86298">
        <ele>184</ele>
        <time>2024-09-19T08:37:14Z</time>
      </trkpt>
      <trkpt lat="46.37477" lon="4.86295">
        <ele>184.6</ele>
        <time>2024-09-19T08:37:15Z</time>
      </trkpt>
      <trkpt lat="46.37472" lon="4.8629">
        <ele>184.6</ele>
        <time>2024-09-19T08:37:16Z</time>
      </trkpt>
      <trkpt lat="46.37471" lon="4.86289">
        <ele>184.2</ele>
        <time>2024-09-19T08:37:17Z</time>
      </trkpt>
      <trkpt lat="46.37466" lon="4.86284">
        <ele>184.2</ele>
        <time>2024-09-19T08:37:18Z</time>
      </trkpt>
      <trkpt lat="46.37464" lon="4.86283">
        <ele>184.8</ele>
        <time>2024-09-19T08:37:19Z</time>
      </trkpt>
      <trkpt lat="46.37459" lon="4.86279">
        <ele>185</ele>
        <time>2024-09-19T08:37:20Z</time>
      </trkpt>
      <trkpt lat="46.37458" lon="4.86278">
        <ele>185</ele>
        <time>2024-09-19T08:37:21Z</time>
      </trkpt>
      <trkpt lat="46.37453" lon="4.86274">
        <ele>185</ele>
        <time>2024-09-19T08:37:22Z</time>
      </trkpt>
      <trkpt lat="46.37451" lon="4.86272">
        <ele>185</ele>
        <time>2024-09-19T08:37:23Z</time>
      </trkpt>
      <trkpt lat="46.37448" lon="4.8627">
        <ele>184.6</ele>
        <time>2024-09-19T08:37:24Z</time>
      </trkpt>
      <trkpt lat="46.37442" lon="4.86266">
        <ele>185</ele>
        <time>2024-09-19T08:37:25Z</time>
      </trkpt>
      <trkpt lat="46.3744" lon="4.86265">
        <ele>185</ele>
        <time>2024-09-19T08:37:26Z</time>
      </trkpt>
      <trkpt lat="46.37437" lon="4.86262">
        <ele>185</ele>
        <time>2024-09-19T08:37:27Z</time>
      </trkpt>
      <trkpt lat="46.37431" lon="4.86257">
        <ele>185</ele>
        <time>2024-09-19T08:37:28Z</time>
      </trkpt>
      <trkpt lat="46.37429" lon="4.86256">
        <ele>185.2</ele>
        <time>2024-09-19T08:37:29Z</time>
      </trkpt>
      <trkpt lat="46.37425" lon="4.86252">
        <ele>185.2</ele>
        <time>2024-09-19T08:37:30Z</time>
      </trkpt>
      <trkpt lat="46.3742" lon="4.86248">
        <ele>185.2</ele>
        <time>2024-09-19T08:37:31Z</time>
      </trkpt>
      <trkpt lat="46.37418" lon="4.86246">
        <ele>185.2</ele>
        <time>2024-09-19T08:37:32Z</time>
      </trkpt>
      <trkpt lat="46.37412" lon="4.86241">
        <ele>185.2</ele>
        <time>2024-09-19T08:37:33Z</time>
      </trkpt>
      <trkpt lat="46.37411" lon="4.8624">
        <ele>185.2</ele>
        <time>2024-09-19T08:37:34Z</time>
      </trkpt>
      <trkpt lat="46.37407" lon="4.86236">
        <ele>185.2</ele>
        <time>2024-09-19T08:37:35Z</time>
      </trkpt>
      <trkpt lat="46.37403" lon="4.86233">
        <ele>185.2</ele>
        <time>2024-09-19T08:37:36Z</time>
      </trkpt>
      <trkpt lat="46.37399" lon="4.86229">
        <ele>185.4</ele>
        <time>2024-09-19T08:37:37Z</time>
      </trkpt>
      <trkpt lat="46.37395" lon="4.86225">
        <ele>185.4</ele>
        <time>2024-09-19T08:37:38Z</time>
      </trkpt>
      <trkpt lat="46.37391" lon="4.86222">
        <ele>185.4</ele>
        <time>2024-09-19T08:37:39Z</time>
      </trkpt>
      <trkpt lat="46.37387" lon="4.86218">
        <ele>185.4</ele>
        <time>2024-09-19T08:37:40Z</time>
      </trkpt>
      <trkpt lat="46.37383" lon="4.86214">
        <ele>185.4</ele>
        <time>2024-09-19T08:37:41Z</time>
      </trkpt>
      <trkpt lat="46.37379" lon="4.8621">
        <ele>185.4</ele>
        <time>2024-09-19T08:37:42Z</time>
      </trkpt>
      <trkpt lat="46.37375" lon="4.86206">
        <ele>185</ele>
        <time>2024-09-19T08:37:43Z</time>
      </trkpt>
      <trkpt lat="46.37371" lon="4.86202">
        <ele>185</ele>
        <time>2024-09-19T08:37:44Z</time>
      </trkpt>
      <trkpt lat="46.37367" lon="4.86198">
        <ele>185</ele>
        <time>2024-09-19T08:37:45Z</time>
      </trkpt>
      <trkpt lat="46.37363" lon="4.86194">
        <ele>185</ele>
        <time>2024-09-19T08:37:46Z</time>
      </trkpt>
      <trkpt lat="46.37359" lon="4.8619">
        <ele>185</ele>
        <time>2024-09-19T08:37:47Z</time>
      </trkpt>
      <trkpt lat="46.37355" lon="4.86186">
        <ele>185.2</ele>
        <time>2024-09-19T08:37:48Z</time>
      </trkpt>
      <trkpt lat="46.37349" lon="4.86179">
        <ele>185.2</ele>
        <time>2024-09-19T08:37:49Z</time>
      </trkpt>
      <trkpt lat="46.37347" lon="4.86177">
        <ele>185.2</ele>
        <time>2024-09-19T08:37:50Z</time>
      </trkpt>
      <trkpt lat="46.37342" lon="4.86171">
        <ele>185</ele>
        <time>2024-09-19T08:37:51Z</time>
      </trkpt>
      <trkpt lat="46.3734" lon="4.86169">
        <ele>184.8</ele>
        <time>2024-09-19T08:37:52Z</time>
      </trkpt>
      <trkpt lat="46.37336" lon="4.86165">
        <ele>184.8</ele>
        <time>2024-09-19T08:37:53Z</time>
      </trkpt>
      <trkpt lat="46.37332" lon="4.8616">
        <ele>184.8</ele>
        <time>2024-09-19T08:37:54Z</time>
      </trkpt>
      <trkpt lat="46.37328" lon="4.86156">
        <ele>185.2</ele>
        <time>2024-09-19T08:37:55Z</time>
      </trkpt>
      <trkpt lat="46.37324" lon="4.86151">
        <ele>184.8</ele>
        <time>2024-09-19T08:37:56Z</time>
      </trkpt>
      <trkpt lat="46.37319" lon="4.86144">
        <ele>184.8</ele>
        <time>2024-09-19T08:37:57Z</time>
      </trkpt>
      <trkpt lat="46.37317" lon="4.86142">
        <ele>184.8</ele>
        <time>2024-09-19T08:37:58Z</time>
      </trkpt>
      <trkpt lat="46.37311" lon="4.86135">
        <ele>184.8</ele>
        <time>2024-09-19T08:37:59Z</time>
      </trkpt>
      <trkpt lat="46.37309" lon="4.86133">
        <ele>184.8</ele>
        <time>2024-09-19T08:38:00Z</time>
      </trkpt>
      <trkpt lat="46.37302" lon="4.86128">
        <ele>184.6</ele>
        <time>2024-09-19T08:38:01Z</time>
      </trkpt>
      <trkpt lat="46.373" lon="4.86126">
        <ele>184.6</ele>
        <time>2024-09-19T08:38:02Z</time>
      </trkpt>
      <trkpt lat="46.37294" lon="4.8612">
        <ele>184.6</ele>
        <time>2024-09-19T08:38:03Z</time>
      </trkpt>
      <trkpt lat="46.37291" lon="4.86118">
        <ele>184.4</ele>
        <time>2024-09-19T08:38:04Z</time>
      </trkpt>
      <trkpt lat="46.37285" lon="4.86112">
        <ele>184.4</ele>
        <time>2024-09-19T08:38:05Z</time>
      </trkpt>
      <trkpt lat="46.37283" lon="4.8611">
        <ele>184.4</ele>
        <time>2024-09-19T08:38:06Z</time>
      </trkpt>
      <trkpt lat="46.37277" lon="4.86104">
        <ele>184.4</ele>
        <time>2024-09-19T08:38:07Z</time>
      </trkpt>
      <trkpt lat="46.37275" lon="4.86103">
        <ele>184.4</ele>
        <time>2024-09-19T08:38:08Z</time>
      </trkpt>
      <trkpt lat="46.3727" lon="4.86099">
        <ele>184.4</ele>
        <time>2024-09-19T08:38:09Z</time>
      </trkpt>
      <trkpt lat="46.37264" lon="4.86094">
        <ele>184.2</ele>
        <time>2024-09-19T08:38:10Z</time>
      </trkpt>
      <trkpt lat="46.37261" lon="4.86092">
        <ele>184.2</ele>
        <time>2024-09-19T08:38:11Z</time>
      </trkpt>
      <trkpt lat="46.37257" lon="4.86088">
        <ele>184.2</ele>
        <time>2024-09-19T08:38:12Z</time>
      </trkpt>
      <trkpt lat="46.37252" lon="4.86085">
        <ele>184.2</ele>
        <time>2024-09-19T08:38:13Z</time>
      </trkpt>
      <trkpt lat="46.37246" lon="4.8608">
        <ele>184.8</ele>
        <time>2024-09-19T08:38:14Z</time>
      </trkpt>
      <trkpt lat="46.37244" lon="4.86078">
        <ele>184.8</ele>
        <time>2024-09-19T08:38:15Z</time>
      </trkpt>
      <trkpt lat="46.3724" lon="4.86075">
        <ele>184.8</ele>
        <time>2024-09-19T08:38:16Z</time>
      </trkpt>
      <trkpt lat="46.37233" lon="4.8607">
        <ele>184.8</ele>
        <time>2024-09-19T08:38:17Z</time>
      </trkpt>
      <trkpt lat="46.37231" lon="4.86069">
        <ele>184.8</ele>
        <time>2024-09-19T08:38:18Z</time>
      </trkpt>
      <trkpt lat="46.37225" lon="4.86063">
        <ele>185</ele>
        <time>2024-09-19T08:38:19Z</time>
      </trkpt>
      <trkpt lat="46.37223" lon="4.86061">
        <ele>185</ele>
        <time>2024-09-19T08:38:20Z</time>
      </trkpt>
      <trkpt lat="46.37219" lon="4.86058">
        <ele>185</ele>
        <time>2024-09-19T08:38:21Z</time>
      </trkpt>
      <trkpt lat="46.37216" lon="4.86054">
        <ele>185</ele>
        <time>2024-09-19T08:38:22Z</time>
      </trkpt>
      <trkpt lat="46.37212" lon="4.8605">
        <ele>185</ele>
        <time>2024-09-19T08:38:23Z</time>
      </trkpt>
      <trkpt lat="46.37208" lon="4.86046">
        <ele>184.8</ele>
        <time>2024-09-19T08:38:24Z</time>
      </trkpt>
      <trkpt lat="46.37205" lon="4.86042">
        <ele>184.8</ele>
        <time>2024-09-19T08:38:25Z</time>
      </trkpt>
      <trkpt lat="46.37201" lon="4.86038">
        <ele>184.8</ele>
        <time>2024-09-19T08:38:26Z</time>
      </trkpt>
      <trkpt lat="46.37197" lon="4.86034">
        <ele>184.8</ele>
        <time>2024-09-19T08:38:27Z</time>
      </trkpt>
      <trkpt lat="46.37193" lon="4.8603">
        <ele>184.8</ele>
        <time>2024-09-19T08:38:28Z</time>
      </trkpt>
      <trkpt lat="46.37189" lon="4.86025">
        <ele>185.4</ele>
        <time>2024-09-19T08:38:29Z</time>
      </trkpt>
      <trkpt lat="46.37185" lon="4.86021">
        <ele>185.4</ele>
        <time>2024-09-19T08:38:30Z</time>
      </trkpt>
      <trkpt lat="46.37179" lon="4.86015">
        <ele>185.4</ele>
        <time>2024-09-19T08:38:31Z</time>
      </trkpt>
      <trkpt lat="46.37177" lon="4.86013">
        <ele>185.4</ele>
        <time>2024-09-19T08:38:32Z</time>
      </trkpt>
      <trkpt lat="46.37173" lon="4.86009">
        <ele>185</ele>
        <time>2024-09-19T08:38:33Z</time>
      </trkpt>
      <trkpt lat="46.37169" lon="4.86005">
        <ele>185</ele>
        <time>2024-09-19T08:38:34Z</time>
      </trkpt>
      <trkpt lat="46.37162" lon="4.85999">
        <ele>185</ele>
        <time>2024-09-19T08:38:35Z</time>
      </trkpt>
      <trkpt lat="46.3716" lon="4.85997">
        <ele>185.4</ele>
        <time>2024-09-19T08:38:36Z</time>
      </trkpt>
      <trkpt lat="46.37156" lon="4.85993">
        <ele>185.4</ele>
        <time>2024-09-19T08:38:37Z</time>
      </trkpt>
      <trkpt lat="46.37152" lon="4.8599">
        <ele>185.4</ele>
        <time>2024-09-19T08:38:38Z</time>
      </trkpt>
      <trkpt lat="46.37148" lon="4.85986">
        <ele>185.4</ele>
        <time>2024-09-19T08:38:39Z</time>
      </trkpt>
      <trkpt lat="46.37144" lon="4.85982">
        <ele>185.4</ele>
        <time>2024-09-19T08:38:40Z</time>
      </trkpt>
      <trkpt lat="46.37138" lon="4.85977">
        <ele>185.4</ele>
        <time>2024-09-19T08:38:41Z</time>
      </trkpt>
      <trkpt lat="46.37136" lon="4.85975">
        <ele>185.6</ele>
        <time>2024-09-19T08:38:42Z</time>
      </trkpt>
      <trkpt lat="46.37129" lon="4.85969">
        <ele>185.6</ele>
        <time>2024-09-19T08:38:43Z</time>
      </trkpt>
      <trkpt lat="46.37127" lon="4.85967">
        <ele>185.6</ele>
        <time>2024-09-19T08:38:44Z</time>
      </trkpt>
      <trkpt lat="46.37121" lon="4.85961">
        <ele>185.4</ele>
        <time>2024-09-19T08:38:45Z</time>
      </trkpt>
      <trkpt lat="46.37118" lon="4.85959">
        <ele>185</ele>
        <time>2024-09-19T08:38:46Z</time>
      </trkpt>
      <trkpt lat="46.37112" lon="4.85954">
        <ele>185</ele>
        <time>2024-09-19T08:38:47Z</time>
      </trkpt>
      <trkpt lat="46.3711" lon="4.85952">
        <ele>185</ele>
        <time>2024-09-19T08:38:48Z</time>
      </trkpt>
      <trkpt lat="46.37103" lon="4.85946">
        <ele>185</ele>
        <time>2024-09-19T08:38:49Z</time>
      </trkpt>
      <trkpt lat="46.37101" lon="4.85944">
        <ele>184.4</ele>
        <time>2024-09-19T08:38:50Z</time>
      </trkpt>
      <trkpt lat="46.37094" lon="4.85938">
        <ele>184.4</ele>
        <time>2024-09-19T08:38:51Z</time>
      </trkpt>
      <trkpt lat="46.37092" lon="4.85936">
        <ele>184.4</ele>
        <time>2024-09-19T08:38:52Z</time>
      </trkpt>
      <trkpt lat="46.37088" lon="4.85932">
        <ele>184.4</ele>
        <time>2024-09-19T08:38:53Z</time>
      </trkpt>
      <trkpt lat="46.37081" lon="4.85926">
        <ele>184.4</ele>
        <time>2024-09-19T08:38:54Z</time>
      </trkpt>
      <trkpt lat="46.37079" lon="4.85925">
        <ele>184.6</ele>
        <time>2024-09-19T08:38:55Z</time>
      </trkpt>
      <trkpt lat="46.37074" lon="4.85921">
        <ele>184.6</ele>
        <time>2024-09-19T08:38:56Z</time>
      </trkpt>
      <trkpt lat="46.3707" lon="4.85918">
        <ele>184.6</ele>
        <time>2024-09-19T08:38:57Z</time>
      </trkpt>
      <trkpt lat="46.37063" lon="4.85912">
        <ele>184.6</ele>
        <time>2024-09-19T08:38:58Z</time>
      </trkpt>
      <trkpt lat="46.37061" lon="4.85911">
        <ele>184.6</ele>
        <time>2024-09-19T08:38:59Z</time>
      </trkpt>
      <trkpt lat="46.37055" lon="4.85906">
        <ele>184.8</ele>
        <time>2024-09-19T08:39:00Z</time>
      </trkpt>
      <trkpt lat="46.37053" lon="4.85904">
        <ele>184.8</ele>
        <time>2024-09-19T08:39:01Z</time>
      </trkpt>
      <trkpt lat="46.37047" lon="4.85899">
        <ele>184.8</ele>
        <time>2024-09-19T08:39:02Z</time>
      </trkpt>
      <trkpt lat="46.37045" lon="4.85898">
        <ele>184.8</ele>
        <time>2024-09-19T08:39:03Z</time>
      </trkpt>
      <trkpt lat="46.37039" lon="4.85893">
        <ele>185.2</ele>
        <time>2024-09-19T08:39:04Z</time>
      </trkpt>
      <trkpt lat="46.37037" lon="4.85892">
        <ele>185.2</ele>
        <time>2024-09-19T08:39:05Z</time>
      </trkpt>
      <trkpt lat="46.37033" lon="4.85889">
        <ele>185.2</ele>
        <time>2024-09-19T08:39:06Z</time>
      </trkpt>
      <trkpt lat="46.37029" lon="4.85886">
        <ele>185.2</ele>
        <time>2024-09-19T08:39:07Z</time>
      </trkpt>
      <trkpt lat="46.37023" lon="4.85881">
        <ele>185.4</ele>
        <time>2024-09-19T08:39:08Z</time>
      </trkpt>
      <trkpt lat="46.37021" lon="4.8588">
        <ele>184.8</ele>
        <time>2024-09-19T08:39:09Z</time>
      </trkpt>
      <trkpt lat="46.37017" lon="4.85877">
        <ele>184.8</ele>
        <time>2024-09-19T08:39:10Z</time>
      </trkpt>
      <trkpt lat="46.37014" lon="4.85875">
        <ele>184.8</ele>
        <time>2024-09-19T08:39:11Z</time>
      </trkpt>
      <trkpt lat="46.37011" lon="4.85872">
        <ele>184.8</ele>
        <time>2024-09-19T08:39:12Z</time>
      </trkpt>
      <trkpt lat="46.37007" lon="4.85869">
        <ele>184.4</ele>
        <time>2024-09-19T08:39:13Z</time>
      </trkpt>
      <trkpt lat="46.37004" lon="4.85866">
        <ele>184.4</ele>
        <time>2024-09-19T08:39:14Z</time>
      </trkpt>
      <trkpt lat="46.37001" lon="4.85863">
        <ele>184.4</ele>
        <time>2024-09-19T08:39:15Z</time>
      </trkpt>
      <trkpt lat="46.36995" lon="4.85858">
        <ele>184.4</ele>
        <time>2024-09-19T08:39:16Z</time>
      </trkpt>
      <trkpt lat="46.36993" lon="4.85857">
        <ele>184.2</ele>
        <time>2024-09-19T08:39:17Z</time>
      </trkpt>
      <trkpt lat="46.36988" lon="4.85853">
        <ele>184.4</ele>
        <time>2024-09-19T08:39:18Z</time>
      </trkpt>
      <trkpt lat="46.36986" lon="4.85852">
        <ele>184.4</ele>
        <time>2024-09-19T08:39:19Z</time>
      </trkpt>
      <trkpt lat="46.36982" lon="4.85849">
        <ele>184.4</ele>
        <time>2024-09-19T08:39:20Z</time>
      </trkpt>
      <trkpt lat="46.36977" lon="4.85846">
        <ele>184.4</ele>
        <time>2024-09-19T08:39:21Z</time>
      </trkpt>
      <trkpt lat="46.36975" lon="4.85844">
        <ele>184.6</ele>
        <time>2024-09-19T08:39:22Z</time>
      </trkpt>
      <trkpt lat="46.36972" lon="4.85842">
        <ele>184.6</ele>
        <time>2024-09-19T08:39:23Z</time>
      </trkpt>
      <trkpt lat="46.36967" lon="4.85838">
        <ele>184.6</ele>
        <time>2024-09-19T08:39:24Z</time>
      </trkpt>
      <trkpt lat="46.36965" lon="4.85836">
        <ele>184.6</ele>
        <time>2024-09-19T08:39:25Z</time>
      </trkpt>
      <trkpt lat="46.3696" lon="4.85832">
        <ele>185</ele>
        <time>2024-09-19T08:39:26Z</time>
      </trkpt>
      <trkpt lat="46.36958" lon="4.8583">
        <ele>185.4</ele>
        <time>2024-09-19T08:39:27Z</time>
      </trkpt>
      <trkpt lat="46.36955" lon="4.85827">
        <ele>185.4</ele>
        <time>2024-09-19T08:39:28Z</time>
      </trkpt>
      <trkpt lat="46.36951" lon="4.85824">
        <ele>185.4</ele>
        <time>2024-09-19T08:39:29Z</time>
      </trkpt>
      <trkpt lat="46.36945" lon="4.8582">
        <ele>185.4</ele>
        <time>2024-09-19T08:39:30Z</time>
      </trkpt>
      <trkpt lat="46.36944" lon="4.85818">
        <ele>185.2</ele>
        <time>2024-09-19T08:39:31Z</time>
      </trkpt>
      <trkpt lat="46.36938" lon="4.85813">
        <ele>185.2</ele>
        <time>2024-09-19T08:39:32Z</time>
      </trkpt>
      <trkpt lat="46.36936" lon="4.85812">
        <ele>185.2</ele>
        <time>2024-09-19T08:39:33Z</time>
      </trkpt>
      <trkpt lat="46.3693" lon="4.85807">
        <ele>185.2</ele>
        <time>2024-09-19T08:39:34Z</time>
      </trkpt>
      <trkpt lat="46.36928" lon="4.85806">
        <ele>185.2</ele>
        <time>2024-09-19T08:39:35Z</time>
      </trkpt>
      <trkpt lat="46.36924" lon="4.85803">
        <ele>185.2</ele>
        <time>2024-09-19T08:39:36Z</time>
      </trkpt>
      <trkpt lat="46.36921" lon="4.858">
        <ele>185.2</ele>
        <time>2024-09-19T08:39:37Z</time>
      </trkpt>
      <trkpt lat="46.36915" lon="4.85795">
        <ele>185.2</ele>
        <time>2024-09-19T08:39:38Z</time>
      </trkpt>
      <trkpt lat="46.36913" lon="4.85794">
        <ele>185.2</ele>
        <time>2024-09-19T08:39:39Z</time>
      </trkpt>
      <trkpt lat="46.36907" lon="4.8579">
        <ele>185.4</ele>
        <time>2024-09-19T08:39:40Z</time>
      </trkpt>
      <trkpt lat="46.36905" lon="4.85789">
        <ele>185.4</ele>
        <time>2024-09-19T08:39:41Z</time>
      </trkpt>
      <trkpt lat="46.36898" lon="4.85785">
        <ele>185.4</ele>
        <time>2024-09-19T08:39:42Z</time>
      </trkpt>
      <trkpt lat="46.36896" lon="4.85783">
        <ele>185.4</ele>
        <time>2024-09-19T08:39:43Z</time>
      </trkpt>
      <trkpt lat="46.3689" lon="4.8578">
        <ele>185.2</ele>
        <time>2024-09-19T08:39:44Z</time>
      </trkpt>
      <trkpt lat="46.36888" lon="4.85778">
        <ele>185.2</ele>
        <time>2024-09-19T08:39:45Z</time>
      </trkpt>
      <trkpt lat="46.36884" lon="4.85776">
        <ele>185.2</ele>
        <time>2024-09-19T08:39:46Z</time>
      </trkpt>
      <trkpt lat="46.3688" lon="4.85773">
        <ele>185.2</ele>
        <time>2024-09-19T08:39:47Z</time>
      </trkpt>
      <trkpt lat="46.36876" lon="4.85772">
        <ele>185.6</ele>
        <time>2024-09-19T08:39:48Z</time>
      </trkpt>
      <trkpt lat="46.36874" lon="4.85771">
        <ele>185.6</ele>
        <time>2024-09-19T08:39:49Z</time>
      </trkpt>
      <trkpt lat="46.36872" lon="4.8577">
        <ele>185.2</ele>
        <time>2024-09-19T08:39:50Z</time>
      </trkpt>
      <trkpt lat="46.36871" lon="4.85769">
        <ele>185.2</ele>
        <time>2024-09-19T08:39:51Z</time>
      </trkpt>
      <trkpt lat="46.36871" lon="4.85769">
        <ele>185.2</ele>
        <time>2024-09-19T08:39:52Z</time>
      </trkpt>
      <trkpt lat="46.36868" lon="4.85766">
        <ele>183.6</ele>
        <time>2024-09-19T08:41:27Z</time>
      </trkpt>
      <trkpt lat="46.36866" lon="4.85764">
        <ele>183.6</ele>
        <time>2024-09-19T08:41:28Z</time>
      </trkpt>
      <trkpt lat="46.36863" lon="4.85763">
        <ele>183.6</ele>
        <time>2024-09-19T08:41:29Z</time>
      </trkpt>
      <trkpt lat="46.36861" lon="4.85761">
        <ele>183.6</ele>
        <time>2024-09-19T08:41:30Z</time>
      </trkpt>
      <trkpt lat="46.36857" lon="4.85758">
        <ele>183.6</ele>
        <time>2024-09-19T08:41:31Z</time>
      </trkpt>
      <trkpt lat="46.36854" lon="4.85756">
        <ele>183.6</ele>
        <time>2024-09-19T08:41:32Z</time>
      </trkpt>
      <trkpt lat="46.36851" lon="4.85753">
        <ele>183.6</ele>
        <time>2024-09-19T08:41:33Z</time>
      </trkpt>
      <trkpt lat="46.36848" lon="4.8575">
        <ele>183.6</ele>
        <time>2024-09-19T08:41:34Z</time>
      </trkpt>
      <trkpt lat="46.36844" lon="4.85747">
        <ele>183.8</ele>
        <time>2024-09-19T08:41:35Z</time>
      </trkpt>
      <trkpt lat="46.36839" lon="4.85743">
        <ele>183.8</ele>
        <time>2024-09-19T08:41:36Z</time>
      </trkpt>
      <trkpt lat="46.36837" lon="4.85742">
        <ele>183.8</ele>
        <time>2024-09-19T08:41:37Z</time>
      </trkpt>
      <trkpt lat="46.3683" lon="4.85738">
        <ele>183.8</ele>
        <time>2024-09-19T08:41:38Z</time>
      </trkpt>
      <trkpt lat="46.36828" lon="4.85737">
        <ele>183.8</ele>
        <time>2024-09-19T08:41:39Z</time>
      </trkpt>
      <trkpt lat="46.36821" lon="4.85732">
        <ele>184</ele>
        <time>2024-09-19T08:41:40Z</time>
      </trkpt>
      <trkpt lat="46.36819" lon="4.85731">
        <ele>184</ele>
        <time>2024-09-19T08:41:41Z</time>
      </trkpt>
      <trkpt lat="46.36812" lon="4.85727">
        <ele>184</ele>
        <time>2024-09-19T08:41:42Z</time>
      </trkpt>
      <trkpt lat="46.3681" lon="4.85726">
        <ele>184</ele>
        <time>2024-09-19T08:41:43Z</time>
      </trkpt>
      <trkpt lat="46.36806" lon="4.85723">
        <ele>184</ele>
        <time>2024-09-19T08:41:44Z</time>
      </trkpt>
      <trkpt lat="46.368" lon="4.85719">
        <ele>184.4</ele>
        <time>2024-09-19T08:41:45Z</time>
      </trkpt>
      <trkpt lat="46.36798" lon="4.85718">
        <ele>184.4</ele>
        <time>2024-09-19T08:41:46Z</time>
      </trkpt>
      <trkpt lat="46.36794" lon="4.85715">
        <ele>184.4</ele>
        <time>2024-09-19T08:41:47Z</time>
      </trkpt>
      <trkpt lat="46.3679" lon="4.85712">
        <ele>184.4</ele>
        <time>2024-09-19T08:41:48Z</time>
      </trkpt>
      <trkpt lat="46.36785" lon="4.85709">
        <ele>184.4</ele>
        <time>2024-09-19T08:41:49Z</time>
      </trkpt>
      <trkpt lat="46.3678" lon="4.85706">
        <ele>184.4</ele>
        <time>2024-09-19T08:41:50Z</time>
      </trkpt>
      <trkpt lat="46.36774" lon="4.85701">
        <ele>184.4</ele>
        <time>2024-09-19T08:41:51Z</time>
      </trkpt>
      <trkpt lat="46.36771" lon="4.85699">
        <ele>184.4</ele>
        <time>2024-09-19T08:41:52Z</time>
      </trkpt>
      <trkpt lat="46.36764" lon="4.85694">
        <ele>184.4</ele>
        <time>2024-09-19T08:41:53Z</time>
      </trkpt>
      <trkpt lat="46.36762" lon="4.85693">
        <ele>184.4</ele>
        <time>2024-09-19T08:41:54Z</time>
      </trkpt>
      <trkpt lat="46.36755" lon="4.85688">
        <ele>184.6</ele>
        <time>2024-09-19T08:41:55Z</time>
      </trkpt>
      <trkpt lat="46.36753" lon="4.85687">
        <ele>184.6</ele>
        <time>2024-09-19T08:41:56Z</time>
      </trkpt>
      <trkpt lat="46.36749" lon="4.85683">
        <ele>184.6</ele>
        <time>2024-09-19T08:41:57Z</time>
      </trkpt>
      <trkpt lat="46.36744" lon="4.8568">
        <ele>184.6</ele>
        <time>2024-09-19T08:41:58Z</time>
      </trkpt>
      <trkpt lat="46.3674" lon="4.85676">
        <ele>184.6</ele>
        <time>2024-09-19T08:41:59Z</time>
      </trkpt>
      <trkpt lat="46.36735" lon="4.85673">
        <ele>184.6</ele>
        <time>2024-09-19T08:42:00Z</time>
      </trkpt>
      <trkpt lat="46.36731" lon="4.85669">
        <ele>184.6</ele>
        <time>2024-09-19T08:42:01Z</time>
      </trkpt>
      <trkpt lat="46.36726" lon="4.85666">
        <ele>184.6</ele>
        <time>2024-09-19T08:42:02Z</time>
      </trkpt>
      <trkpt lat="46.36722" lon="4.85663">
        <ele>184.6</ele>
        <time>2024-09-19T08:42:03Z</time>
      </trkpt>
      <trkpt lat="46.36718" lon="4.8566">
        <ele>184.8</ele>
        <time>2024-09-19T08:42:04Z</time>
      </trkpt>
      <trkpt lat="46.36713" lon="4.85657">
        <ele>184.8</ele>
        <time>2024-09-19T08:42:05Z</time>
      </trkpt>
      <trkpt lat="46.36709" lon="4.85654">
        <ele>184.8</ele>
        <time>2024-09-19T08:42:06Z</time>
      </trkpt>
      <trkpt lat="46.36704" lon="4.8565">
        <ele>184.4</ele>
        <time>2024-09-19T08:42:07Z</time>
      </trkpt>
      <trkpt lat="46.36698" lon="4.85646">
        <ele>184.4</ele>
        <time>2024-09-19T08:42:08Z</time>
      </trkpt>
      <trkpt lat="46.36691" lon="4.8564">
        <ele>184.2</ele>
        <time>2024-09-19T08:42:09Z</time>
      </trkpt>
      <trkpt lat="46.36688" lon="4.85638">
        <ele>184.2</ele>
        <time>2024-09-19T08:42:10Z</time>
      </trkpt>
      <trkpt lat="46.3668" lon="4.85632">
        <ele>184.2</ele>
        <time>2024-09-19T08:42:11Z</time>
      </trkpt>
      <trkpt lat="46.36678" lon="4.8563">
        <ele>184</ele>
        <time>2024-09-19T08:42:12Z</time>
      </trkpt>
      <trkpt lat="46.36669" lon="4.85624">
        <ele>184</ele>
        <time>2024-09-19T08:42:13Z</time>
      </trkpt>
      <trkpt lat="46.36667" lon="4.85622">
        <ele>184</ele>
        <time>2024-09-19T08:42:14Z</time>
      </trkpt>
      <trkpt lat="46.36661" lon="4.85618">
        <ele>184</ele>
        <time>2024-09-19T08:42:15Z</time>
      </trkpt>
      <trkpt lat="46.36653" lon="4.85612">
        <ele>184</ele>
        <time>2024-09-19T08:42:16Z</time>
      </trkpt>
      <trkpt lat="46.3665" lon="4.8561">
        <ele>184</ele>
        <time>2024-09-19T08:42:17Z</time>
      </trkpt>
      <trkpt lat="46.36642" lon="4.85604">
        <ele>184</ele>
        <time>2024-09-19T08:42:18Z</time>
      </trkpt>
      <trkpt lat="46.36639" lon="4.85602">
        <ele>184</ele>
        <time>2024-09-19T08:42:19Z</time>
      </trkpt>
      <trkpt lat="46.36631" lon="4.85596">
        <ele>184</ele>
        <time>2024-09-19T08:42:20Z</time>
      </trkpt>
      <trkpt lat="46.36628" lon="4.85594">
        <ele>184</ele>
        <time>2024-09-19T08:42:21Z</time>
      </trkpt>
      <trkpt lat="46.3662" lon="4.85588">
        <ele>184</ele>
        <time>2024-09-19T08:42:22Z</time>
      </trkpt>
      <trkpt lat="46.36618" lon="4.85586">
        <ele>184</ele>
        <time>2024-09-19T08:42:23Z</time>
      </trkpt>
      <trkpt lat="46.3661" lon="4.8558">
        <ele>184</ele>
        <time>2024-09-19T08:42:24Z</time>
      </trkpt>
      <trkpt lat="46.36607" lon="4.85578">
        <ele>184</ele>
        <time>2024-09-19T08:42:25Z</time>
      </trkpt>
      <trkpt lat="46.366" lon="4.85571">
        <ele>184.2</ele>
        <time>2024-09-19T08:42:26Z</time>
      </trkpt>
      <trkpt lat="46.36597" lon="4.85569">
        <ele>184.2</ele>
        <time>2024-09-19T08:42:27Z</time>
      </trkpt>
      <trkpt lat="46.36589" lon="4.85562">
        <ele>184.2</ele>
        <time>2024-09-19T08:42:28Z</time>
      </trkpt>
      <trkpt lat="46.36587" lon="4.8556">
        <ele>184.2</ele>
        <time>2024-09-19T08:42:29Z</time>
      </trkpt>
      <trkpt lat="46.36579" lon="4.85553">
        <ele>184.4</ele>
        <time>2024-09-19T08:42:30Z</time>
      </trkpt>
      <trkpt lat="46.36576" lon="4.85551">
        <ele>184.4</ele>
        <time>2024-09-19T08:42:31Z</time>
      </trkpt>
      <trkpt lat="46.36571" lon="4.85547">
        <ele>184.4</ele>
        <time>2024-09-19T08:42:32Z</time>
      </trkpt>
      <trkpt lat="46.36566" lon="4.85543">
        <ele>184.4</ele>
        <time>2024-09-19T08:42:33Z</time>
      </trkpt>
      <trkpt lat="46.36561" lon="4.85539">
        <ele>184.6</ele>
        <time>2024-09-19T08:42:34Z</time>
      </trkpt>
      <trkpt lat="46.36555" lon="4.85535">
        <ele>184.6</ele>
        <time>2024-09-19T08:42:35Z</time>
      </trkpt>
      <trkpt lat="46.36548" lon="4.85528">
        <ele>184.6</ele>
        <time>2024-09-19T08:42:36Z</time>
      </trkpt>
      <trkpt lat="46.36545" lon="4.85525">
        <ele>184.6</ele>
        <time>2024-09-19T08:42:37Z</time>
      </trkpt>
      <trkpt lat="46.36538" lon="4.85519">
        <ele>184.6</ele>
        <time>2024-09-19T08:42:38Z</time>
      </trkpt>
      <trkpt lat="46.36535" lon="4.85517">
        <ele>184.6</ele>
        <time>2024-09-19T08:42:39Z</time>
      </trkpt>
      <trkpt lat="46.3653" lon="4.85512">
        <ele>184.8</ele>
        <time>2024-09-19T08:42:40Z</time>
      </trkpt>
      <trkpt lat="46.36525" lon="4.85508">
        <ele>184.8</ele>
        <time>2024-09-19T08:42:41Z</time>
      </trkpt>
      <trkpt lat="46.36521" lon="4.85504">
        <ele>184.8</ele>
        <time>2024-09-19T08:42:42Z</time>
      </trkpt>
      <trkpt lat="46.36516" lon="4.85499">
        <ele>184.8</ele>
        <time>2024-09-19T08:42:43Z</time>
      </trkpt>
      <trkpt lat="46.36511" lon="4.85495">
        <ele>185</ele>
        <time>2024-09-19T08:42:44Z</time>
      </trkpt>
      <trkpt lat="46.36504" lon="4.85489">
        <ele>185</ele>
        <time>2024-09-19T08:42:45Z</time>
      </trkpt>
      <trkpt lat="46.36501" lon="4.85487">
        <ele>185</ele>
        <time>2024-09-19T08:42:46Z</time>
      </trkpt>
      <trkpt lat="46.36494" lon="4.8548">
        <ele>185</ele>
        <time>2024-09-19T08:42:47Z</time>
      </trkpt>
      <trkpt lat="46.36492" lon="4.85478">
        <ele>185.4</ele>
        <time>2024-09-19T08:42:48Z</time>
      </trkpt>
      <trkpt lat="46.36487" lon="4.85475">
        <ele>185.8</ele>
        <time>2024-09-19T08:42:49Z</time>
      </trkpt>
      <trkpt lat="46.36483" lon="4.85471">
        <ele>185.8</ele>
        <time>2024-09-19T08:42:50Z</time>
      </trkpt>
      <trkpt lat="46.36478" lon="4.85468">
        <ele>185.8</ele>
        <time>2024-09-19T08:42:51Z</time>
      </trkpt>
      <trkpt lat="46.36473" lon="4.85464">
        <ele>185.8</ele>
        <time>2024-09-19T08:42:52Z</time>
      </trkpt>
      <trkpt lat="46.36466" lon="4.85459">
        <ele>186.2</ele>
        <time>2024-09-19T08:42:53Z</time>
      </trkpt>
      <trkpt lat="46.36464" lon="4.85457">
        <ele>186.2</ele>
        <time>2024-09-19T08:42:54Z</time>
      </trkpt>
      <trkpt lat="46.36456" lon="4.85451">
        <ele>186.2</ele>
        <time>2024-09-19T08:42:55Z</time>
      </trkpt>
      <trkpt lat="46.36454" lon="4.85449">
        <ele>186.2</ele>
        <time>2024-09-19T08:42:56Z</time>
      </trkpt>
      <trkpt lat="46.36448" lon="4.85446">
        <ele>186</ele>
        <time>2024-09-19T08:42:57Z</time>
      </trkpt>
      <trkpt lat="46.3644" lon="4.8544">
        <ele>186</ele>
        <time>2024-09-19T08:42:58Z</time>
      </trkpt>
      <trkpt lat="46.36438" lon="4.85439">
        <ele>186</ele>
        <time>2024-09-19T08:42:59Z</time>
      </trkpt>
      <trkpt lat="46.36433" lon="4.85435">
        <ele>186</ele>
        <time>2024-09-19T08:43:00Z</time>
      </trkpt>
      <trkpt lat="46.36427" lon="4.85432">
        <ele>186</ele>
        <time>2024-09-19T08:43:01Z</time>
      </trkpt>
      <trkpt lat="46.36422" lon="4.85429">
        <ele>186.2</ele>
        <time>2024-09-19T08:43:02Z</time>
      </trkpt>
      <trkpt lat="46.36417" lon="4.85425">
        <ele>186.2</ele>
        <time>2024-09-19T08:43:03Z</time>
      </trkpt>
      <trkpt lat="46.36409" lon="4.8542">
        <ele>186.2</ele>
        <time>2024-09-19T08:43:04Z</time>
      </trkpt>
      <trkpt lat="46.36406" lon="4.85419">
        <ele>186.2</ele>
        <time>2024-09-19T08:43:05Z</time>
      </trkpt>
      <trkpt lat="46.36398" lon="4.85413">
        <ele>186.2</ele>
        <time>2024-09-19T08:43:06Z</time>
      </trkpt>
      <trkpt lat="46.36395" lon="4.85412">
        <ele>186.2</ele>
        <time>2024-09-19T08:43:07Z</time>
      </trkpt>
      <trkpt lat="46.36388" lon="4.85406">
        <ele>186.2</ele>
        <time>2024-09-19T08:43:08Z</time>
      </trkpt>
      <trkpt lat="46.36385" lon="4.85404">
        <ele>186.2</ele>
        <time>2024-09-19T08:43:09Z</time>
      </trkpt>
      <trkpt lat="46.36377" lon="4.85399">
        <ele>186</ele>
        <time>2024-09-19T08:43:10Z</time>
      </trkpt>
      <trkpt lat="46.36374" lon="4.85398">
        <ele>185.8</ele>
        <time>2024-09-19T08:43:11Z</time>
      </trkpt>
      <trkpt lat="46.36369" lon="4.85394">
        <ele>185.8</ele>
        <time>2024-09-19T08:43:12Z</time>
      </trkpt>
      <trkpt lat="46.36363" lon="4.85391">
        <ele>185.8</ele>
        <time>2024-09-19T08:43:13Z</time>
      </trkpt>
      <trkpt lat="46.36354" lon="4.85387">
        <ele>185.8</ele>
        <time>2024-09-19T08:43:14Z</time>
      </trkpt>
      <trkpt lat="46.3635" lon="4.85385">
        <ele>185.8</ele>
        <time>2024-09-19T08:43:15Z</time>
      </trkpt>
      <trkpt lat="46.36341" lon="4.85381">
        <ele>185.4</ele>
        <time>2024-09-19T08:43:16Z</time>
      </trkpt>
      <trkpt lat="46.36338" lon="4.8538">
        <ele>185.4</ele>
        <time>2024-09-19T08:43:17Z</time>
      </trkpt>
      <trkpt lat="46.36328" lon="4.85375">
        <ele>185.4</ele>
        <time>2024-09-19T08:43:18Z</time>
      </trkpt>
      <trkpt lat="46.36325" lon="4.85374">
        <ele>185.4</ele>
        <time>2024-09-19T08:43:19Z</time>
      </trkpt>
      <trkpt lat="46.36316" lon="4.85368">
        <ele>185</ele>
        <time>2024-09-19T08:43:20Z</time>
      </trkpt>
      <trkpt lat="46.36312" lon="4.85366">
        <ele>185</ele>
        <time>2024-09-19T08:43:21Z</time>
      </trkpt>
      <trkpt lat="46.36305" lon="4.85363">
        <ele>185</ele>
        <time>2024-09-19T08:43:22Z</time>
      </trkpt>
      <trkpt lat="46.36298" lon="4.8536">
        <ele>185</ele>
        <time>2024-09-19T08:43:23Z</time>
      </trkpt>
      <trkpt lat="46.36292" lon="4.85357">
        <ele>185.2</ele>
        <time>2024-09-19T08:43:24Z</time>
      </trkpt>
      <trkpt lat="46.36285" lon="4.85354">
        <ele>185.2</ele>
        <time>2024-09-19T08:43:25Z</time>
      </trkpt>
      <trkpt lat="46.36275" lon="4.8535">
        <ele>185.2</ele>
        <time>2024-09-19T08:43:26Z</time>
      </trkpt>
      <trkpt lat="46.36272" lon="4.85348">
        <ele>185.2</ele>
        <time>2024-09-19T08:43:27Z</time>
      </trkpt>
      <trkpt lat="46.36265" lon="4.85346">
        <ele>185.2</ele>
        <time>2024-09-19T08:43:28Z</time>
      </trkpt>
      <trkpt lat="46.36259" lon="4.85343">
        <ele>185.4</ele>
        <time>2024-09-19T08:43:29Z</time>
      </trkpt>
      <trkpt lat="46.36252" lon="4.85341">
        <ele>185.4</ele>
        <time>2024-09-19T08:43:30Z</time>
      </trkpt>
      <trkpt lat="46.36246" lon="4.85339">
        <ele>185.4</ele>
        <time>2024-09-19T08:43:31Z</time>
      </trkpt>
      <trkpt lat="46.36239" lon="4.85336">
        <ele>185.4</ele>
        <time>2024-09-19T08:43:32Z</time>
      </trkpt>
      <trkpt lat="46.36233" lon="4.85334">
        <ele>185.2</ele>
        <time>2024-09-19T08:43:33Z</time>
      </trkpt>
      <trkpt lat="46.36227" lon="4.85333">
        <ele>185.2</ele>
        <time>2024-09-19T08:43:34Z</time>
      </trkpt>
      <trkpt lat="46.36221" lon="4.85331">
        <ele>185.2</ele>
        <time>2024-09-19T08:43:35Z</time>
      </trkpt>
      <trkpt lat="46.36215" lon="4.85328">
        <ele>185.2</ele>
        <time>2024-09-19T08:43:36Z</time>
      </trkpt>
      <trkpt lat="46.36208" lon="4.85326">
        <ele>185.2</ele>
        <time>2024-09-19T08:43:37Z</time>
      </trkpt>
      <trkpt lat="46.36199" lon="4.85323">
        <ele>185.2</ele>
        <time>2024-09-19T08:43:38Z</time>
      </trkpt>
      <trkpt lat="46.36195" lon="4.85322">
        <ele>185.2</ele>
        <time>2024-09-19T08:43:39Z</time>
      </trkpt>
      <trkpt lat="46.36189" lon="4.8532">
        <ele>185.2</ele>
        <time>2024-09-19T08:43:40Z</time>
      </trkpt>
      <trkpt lat="46.36182" lon="4.85318">
        <ele>185.2</ele>
        <time>2024-09-19T08:43:41Z</time>
      </trkpt>
      <trkpt lat="46.36175" lon="4.85316">
        <ele>184.4</ele>
        <time>2024-09-19T08:43:42Z</time>
      </trkpt>
      <trkpt lat="46.36167" lon="4.85314">
        <ele>184.4</ele>
        <time>2024-09-19T08:43:43Z</time>
      </trkpt>
      <trkpt lat="46.3616" lon="4.85312">
        <ele>184.4</ele>
        <time>2024-09-19T08:43:44Z</time>
      </trkpt>
      <trkpt lat="46.36149" lon="4.85307">
        <ele>184.4</ele>
        <time>2024-09-19T08:43:45Z</time>
      </trkpt>
      <trkpt lat="46.36145" lon="4.85306">
        <ele>184.4</ele>
        <time>2024-09-19T08:43:46Z</time>
      </trkpt>
      <trkpt lat="46.36134" lon="4.85302">
        <ele>184.4</ele>
        <time>2024-09-19T08:43:47Z</time>
      </trkpt>
      <trkpt lat="46.36131" lon="4.85301">
        <ele>184.2</ele>
        <time>2024-09-19T08:43:48Z</time>
      </trkpt>
      <trkpt lat="46.3612" lon="4.85297">
        <ele>184.2</ele>
        <time>2024-09-19T08:43:49Z</time>
      </trkpt>
      <trkpt lat="46.36116" lon="4.85296">
        <ele>183.8</ele>
        <time>2024-09-19T08:43:50Z</time>
      </trkpt>
      <trkpt lat="46.36106" lon="4.85293">
        <ele>183.8</ele>
        <time>2024-09-19T08:43:51Z</time>
      </trkpt>
      <trkpt lat="46.36102" lon="4.85291">
        <ele>183.6</ele>
        <time>2024-09-19T08:43:52Z</time>
      </trkpt>
      <trkpt lat="46.36092" lon="4.85288">
        <ele>183.6</ele>
        <time>2024-09-19T08:43:53Z</time>
      </trkpt>
      <trkpt lat="46.36088" lon="4.85287">
        <ele>183.6</ele>
        <time>2024-09-19T08:43:54Z</time>
      </trkpt>
      <trkpt lat="46.36078" lon="4.85284">
        <ele>183.4</ele>
        <time>2024-09-19T08:43:55Z</time>
      </trkpt>
      <trkpt lat="46.36075" lon="4.85283">
        <ele>183.2</ele>
        <time>2024-09-19T08:43:56Z</time>
      </trkpt>
      <trkpt lat="46.36068" lon="4.85283">
        <ele>183.2</ele>
        <time>2024-09-19T08:43:57Z</time>
      </trkpt>
      <trkpt lat="46.36062" lon="4.85283">
        <ele>183.2</ele>
        <time>2024-09-19T08:43:58Z</time>
      </trkpt>
      <trkpt lat="46.36055" lon="4.85283">
        <ele>183.2</ele>
        <time>2024-09-19T08:43:59Z</time>
      </trkpt>
      <trkpt lat="46.36049" lon="4.85282">
        <ele>183</ele>
        <time>2024-09-19T08:44:00Z</time>
      </trkpt>
      <trkpt lat="46.36042" lon="4.8528">
        <ele>183</ele>
        <time>2024-09-19T08:44:01Z</time>
      </trkpt>
      <trkpt lat="46.36036" lon="4.85278">
        <ele>183</ele>
        <time>2024-09-19T08:44:02Z</time>
      </trkpt>
      <trkpt lat="46.36027" lon="4.85274">
        <ele>183</ele>
        <time>2024-09-19T08:44:03Z</time>
      </trkpt>
      <trkpt lat="46.36024" lon="4.85272">
        <ele>183</ele>
        <time>2024-09-19T08:44:04Z</time>
      </trkpt>
      <trkpt lat="46.36015" lon="4.85268">
        <ele>183</ele>
        <time>2024-09-19T08:44:05Z</time>
      </trkpt>
      <trkpt lat="46.36012" lon="4.85267">
        <ele>183</ele>
        <time>2024-09-19T08:44:06Z</time>
      </trkpt>
      <trkpt lat="46.36007" lon="4.85264">
        <ele>183</ele>
        <time>2024-09-19T08:44:07Z</time>
      </trkpt>
      <trkpt lat="46.36001" lon="4.85261">
        <ele>183</ele>
        <time>2024-09-19T08:44:08Z</time>
      </trkpt>
      <trkpt lat="46.35996" lon="4.85258">
        <ele>183</ele>
        <time>2024-09-19T08:44:09Z</time>
      </trkpt>
      <trkpt lat="46.3599" lon="4.85255">
        <ele>183</ele>
        <time>2024-09-19T08:44:10Z</time>
      </trkpt>
      <trkpt lat="46.35985" lon="4.85252">
        <ele>183</ele>
        <time>2024-09-19T08:44:11Z</time>
      </trkpt>
      <trkpt lat="46.35979" lon="4.85249">
        <ele>183</ele>
        <time>2024-09-19T08:44:12Z</time>
      </trkpt>
      <trkpt lat="46.35971" lon="4.85244">
        <ele>183.2</ele>
        <time>2024-09-19T08:44:13Z</time>
      </trkpt>
      <trkpt lat="46.35969" lon="4.85243">
        <ele>183.2</ele>
        <time>2024-09-19T08:44:14Z</time>
      </trkpt>
      <trkpt lat="46.35961" lon="4.85238">
        <ele>183.2</ele>
        <time>2024-09-19T08:44:15Z</time>
      </trkpt>
      <trkpt lat="46.35959" lon="4.85236">
        <ele>183.2</ele>
        <time>2024-09-19T08:44:16Z</time>
      </trkpt>
      <trkpt lat="46.35954" lon="4.85233">
        <ele>183.2</ele>
        <time>2024-09-19T08:44:17Z</time>
      </trkpt>
      <trkpt lat="46.35949" lon="4.85229">
        <ele>183.2</ele>
        <time>2024-09-19T08:44:18Z</time>
      </trkpt>
      <trkpt lat="46.35943" lon="4.85222">
        <ele>183.2</ele>
        <time>2024-09-19T08:44:19Z</time>
      </trkpt>
      <trkpt lat="46.35941" lon="4.8522">
        <ele>183.2</ele>
        <time>2024-09-19T08:44:20Z</time>
      </trkpt>
      <trkpt lat="46.35935" lon="4.85215">
        <ele>183.2</ele>
        <time>2024-09-19T08:44:21Z</time>
      </trkpt>
      <trkpt lat="46.35933" lon="4.85213">
        <ele>183.2</ele>
        <time>2024-09-19T08:44:22Z</time>
      </trkpt>
      <trkpt lat="46.35929" lon="4.8521">
        <ele>183.2</ele>
        <time>2024-09-19T08:44:23Z</time>
      </trkpt>
      <trkpt lat="46.35925" lon="4.85207">
        <ele>183.2</ele>
        <time>2024-09-19T08:44:24Z</time>
      </trkpt>
      <trkpt lat="46.35921" lon="4.85204">
        <ele>183.2</ele>
        <time>2024-09-19T08:44:25Z</time>
      </trkpt>
      <trkpt lat="46.35914" lon="4.852">
        <ele>183.2</ele>
        <time>2024-09-19T08:44:26Z</time>
      </trkpt>
      <trkpt lat="46.35912" lon="4.85199">
        <ele>183.2</ele>
        <time>2024-09-19T08:44:27Z</time>
      </trkpt>
      <trkpt lat="46.35905" lon="4.85195">
        <ele>183.2</ele>
        <time>2024-09-19T08:44:28Z</time>
      </trkpt>
      <trkpt lat="46.35903" lon="4.85193">
        <ele>183.2</ele>
        <time>2024-09-19T08:44:29Z</time>
      </trkpt>
      <trkpt lat="46.35896" lon="4.85189">
        <ele>183.2</ele>
        <time>2024-09-19T08:44:30Z</time>
      </trkpt>
      <trkpt lat="46.35894" lon="4.85187">
        <ele>183.4</ele>
        <time>2024-09-19T08:44:31Z</time>
      </trkpt>
      <trkpt lat="46.35888" lon="4.85183">
        <ele>183.4</ele>
        <time>2024-09-19T08:44:32Z</time>
      </trkpt>
      <trkpt lat="46.35886" lon="4.85181">
        <ele>183.4</ele>
        <time>2024-09-19T08:44:33Z</time>
      </trkpt>
      <trkpt lat="46.35879" lon="4.85177">
        <ele>183.4</ele>
        <time>2024-09-19T08:44:34Z</time>
      </trkpt>
      <trkpt lat="46.35877" lon="4.85175">
        <ele>183.4</ele>
        <time>2024-09-19T08:44:35Z</time>
      </trkpt>
      <trkpt lat="46.35871" lon="4.85171">
        <ele>183.6</ele>
        <time>2024-09-19T08:44:36Z</time>
      </trkpt>
      <trkpt lat="46.35869" lon="4.85169">
        <ele>183.6</ele>
        <time>2024-09-19T08:44:37Z</time>
      </trkpt>
      <trkpt lat="46.35862" lon="4.85165">
        <ele>183.6</ele>
        <time>2024-09-19T08:44:38Z</time>
      </trkpt>
      <trkpt lat="46.3586" lon="4.85164">
        <ele>183.4</ele>
        <time>2024-09-19T08:44:39Z</time>
      </trkpt>
      <trkpt lat="46.35855" lon="4.85161">
        <ele>183.4</ele>
        <time>2024-09-19T08:44:40Z</time>
      </trkpt>
      <trkpt lat="46.35851" lon="4.85158">
        <ele>183.4</ele>
        <time>2024-09-19T08:44:41Z</time>
      </trkpt>
      <trkpt lat="46.35846" lon="4.85155">
        <ele>183.4</ele>
        <time>2024-09-19T08:44:42Z</time>
      </trkpt>
      <trkpt lat="46.35842" lon="4.85152">
        <ele>183.4</ele>
        <time>2024-09-19T08:44:43Z</time>
      </trkpt>
      <trkpt lat="46.35837" lon="4.85149">
        <ele>183.2</ele>
        <time>2024-09-19T08:44:44Z</time>
      </trkpt>
      <trkpt lat="46.35833" lon="4.85147">
        <ele>183.2</ele>
        <time>2024-09-19T08:44:45Z</time>
      </trkpt>
      <trkpt lat="46.35826" lon="4.85143">
        <ele>183.2</ele>
        <time>2024-09-19T08:44:46Z</time>
      </trkpt>
      <trkpt lat="46.35824" lon="4.85141">
        <ele>183.2</ele>
        <time>2024-09-19T08:44:47Z</time>
      </trkpt>
      <trkpt lat="46.35819" lon="4.85138">
        <ele>183.4</ele>
        <time>2024-09-19T08:44:48Z</time>
      </trkpt>
      <trkpt lat="46.35813" lon="4.85133">
        <ele>183.4</ele>
        <time>2024-09-19T08:44:49Z</time>
      </trkpt>
      <trkpt lat="46.3581" lon="4.85132">
        <ele>183.4</ele>
        <time>2024-09-19T08:44:50Z</time>
      </trkpt>
      <trkpt lat="46.35806" lon="4.85128">
        <ele>183.4</ele>
        <time>2024-09-19T08:44:51Z</time>
      </trkpt>
      <trkpt lat="46.35801" lon="4.85125">
        <ele>183.6</ele>
        <time>2024-09-19T08:44:52Z</time>
      </trkpt>
      <trkpt lat="46.35797" lon="4.85123">
        <ele>183.6</ele>
        <time>2024-09-19T08:44:53Z</time>
      </trkpt>
      <trkpt lat="46.35792" lon="4.8512">
        <ele>183.6</ele>
        <time>2024-09-19T08:44:54Z</time>
      </trkpt>
      <trkpt lat="46.35786" lon="4.85116">
        <ele>183.6</ele>
        <time>2024-09-19T08:44:55Z</time>
      </trkpt>
      <trkpt lat="46.35783" lon="4.85114">
        <ele>183.6</ele>
        <time>2024-09-19T08:44:56Z</time>
      </trkpt>
      <trkpt lat="46.35776" lon="4.85111">
        <ele>183.6</ele>
        <time>2024-09-19T08:44:57Z</time>
      </trkpt>
      <trkpt lat="46.35774" lon="4.85109">
        <ele>183.6</ele>
        <time>2024-09-19T08:44:58Z</time>
      </trkpt>
      <trkpt lat="46.35769" lon="4.85107">
        <ele>183.4</ele>
        <time>2024-09-19T08:44:59Z</time>
      </trkpt>
      <trkpt lat="46.35764" lon="4.85104">
        <ele>183.4</ele>
        <time>2024-09-19T08:45:00Z</time>
      </trkpt>
      <trkpt lat="46.3576" lon="4.85102">
        <ele>183.4</ele>
        <time>2024-09-19T08:45:01Z</time>
      </trkpt>
      <trkpt lat="46.35755" lon="4.851">
        <ele>183.4</ele>
        <time>2024-09-19T08:45:02Z</time>
      </trkpt>
      <trkpt lat="46.35747" lon="4.85096">
        <ele>183.6</ele>
        <time>2024-09-19T08:45:03Z</time>
      </trkpt>
      <trkpt lat="46.35745" lon="4.85095">
        <ele>183.6</ele>
        <time>2024-09-19T08:45:04Z</time>
      </trkpt>
      <trkpt lat="46.35738" lon="4.85091">
        <ele>183.6</ele>
        <time>2024-09-19T08:45:05Z</time>
      </trkpt>
      <trkpt lat="46.35735" lon="4.85089">
        <ele>183.6</ele>
        <time>2024-09-19T08:45:06Z</time>
      </trkpt>
      <trkpt lat="46.3573" lon="4.85087">
        <ele>183.4</ele>
        <time>2024-09-19T08:45:07Z</time>
      </trkpt>
      <trkpt lat="46.35724" lon="4.85083">
        <ele>183.4</ele>
        <time>2024-09-19T08:45:08Z</time>
      </trkpt>
      <trkpt lat="46.35721" lon="4.85082">
        <ele>183.4</ele>
        <time>2024-09-19T08:45:09Z</time>
      </trkpt>
      <trkpt lat="46.35717" lon="4.85079">
        <ele>183.4</ele>
        <time>2024-09-19T08:45:10Z</time>
      </trkpt>
      <trkpt lat="46.35713" lon="4.85076">
        <ele>183.2</ele>
        <time>2024-09-19T08:45:11Z</time>
      </trkpt>
      <trkpt lat="46.35706" lon="4.85073">
        <ele>183.2</ele>
        <time>2024-09-19T08:45:12Z</time>
      </trkpt>
      <trkpt lat="46.35704" lon="4.85071">
        <ele>183.2</ele>
        <time>2024-09-19T08:45:13Z</time>
      </trkpt>
      <trkpt lat="46.35697" lon="4.85067">
        <ele>183.2</ele>
        <time>2024-09-19T08:45:14Z</time>
      </trkpt>
      <trkpt lat="46.35695" lon="4.85066">
        <ele>183.4</ele>
        <time>2024-09-19T08:45:15Z</time>
      </trkpt>
      <trkpt lat="46.35688" lon="4.85061">
        <ele>183.4</ele>
        <time>2024-09-19T08:45:16Z</time>
      </trkpt>
      <trkpt lat="46.35685" lon="4.8506">
        <ele>183.4</ele>
        <time>2024-09-19T08:45:17Z</time>
      </trkpt>
      <trkpt lat="46.35678" lon="4.85056">
        <ele>183.4</ele>
        <time>2024-09-19T08:45:18Z</time>
      </trkpt>
      <trkpt lat="46.35676" lon="4.85055">
        <ele>183.4</ele>
        <time>2024-09-19T08:45:19Z</time>
      </trkpt>
      <trkpt lat="46.35668" lon="4.85051">
        <ele>183.4</ele>
        <time>2024-09-19T08:45:20Z</time>
      </trkpt>
      <trkpt lat="46.35666" lon="4.85049">
        <ele>183.4</ele>
        <time>2024-09-19T08:45:21Z</time>
      </trkpt>
      <trkpt lat="46.35661" lon="4.85047">
        <ele>183.4</ele>
        <time>2024-09-19T08:45:22Z</time>
      </trkpt>
      <trkpt lat="46.35656" lon="4.85044">
        <ele>183.4</ele>
        <time>2024-09-19T08:45:23Z</time>
      </trkpt>
      <trkpt lat="46.35652" lon="4.85042">
        <ele>183.4</ele>
        <time>2024-09-19T08:45:24Z</time>
      </trkpt>
      <trkpt lat="46.35647" lon="4.85039">
        <ele>183.2</ele>
        <time>2024-09-19T08:45:25Z</time>
      </trkpt>
      <trkpt lat="46.35642" lon="4.85037">
        <ele>183.2</ele>
        <time>2024-09-19T08:45:26Z</time>
      </trkpt>
      <trkpt lat="46.35634" lon="4.85033">
        <ele>183.2</ele>
        <time>2024-09-19T08:45:27Z</time>
      </trkpt>
      <trkpt lat="46.35632" lon="4.85032">
        <ele>183.2</ele>
        <time>2024-09-19T08:45:28Z</time>
      </trkpt>
      <trkpt lat="46.35625" lon="4.85029">
        <ele>183.2</ele>
        <time>2024-09-19T08:45:29Z</time>
      </trkpt>
      <trkpt lat="46.35622" lon="4.85028">
        <ele>183.2</ele>
        <time>2024-09-19T08:45:30Z</time>
      </trkpt>
      <trkpt lat="46.35615" lon="4.85025">
        <ele>183.2</ele>
        <time>2024-09-19T08:45:31Z</time>
      </trkpt>
      <trkpt lat="46.35612" lon="4.85023">
        <ele>183.2</ele>
        <time>2024-09-19T08:45:32Z</time>
      </trkpt>
      <trkpt lat="46.35607" lon="4.85021">
        <ele>183.2</ele>
        <time>2024-09-19T08:45:33Z</time>
      </trkpt>
      <trkpt lat="46.35602" lon="4.8502">
        <ele>183.2</ele>
        <time>2024-09-19T08:45:34Z</time>
      </trkpt>
      <trkpt lat="46.35597" lon="4.85018">
        <ele>183.2</ele>
        <time>2024-09-19T08:45:35Z</time>
      </trkpt>
      <trkpt lat="46.3559" lon="4.85015">
        <ele>183.2</ele>
        <time>2024-09-19T08:45:36Z</time>
      </trkpt>
      <trkpt lat="46.35588" lon="4.85014">
        <ele>183.2</ele>
        <time>2024-09-19T08:45:37Z</time>
      </trkpt>
      <trkpt lat="46.3558" lon="4.85012">
        <ele>183.2</ele>
        <time>2024-09-19T08:45:38Z</time>
      </trkpt>
      <trkpt lat="46.35578" lon="4.85011">
        <ele>183.2</ele>
        <time>2024-09-19T08:45:39Z</time>
      </trkpt>
      <trkpt lat="46.35573" lon="4.85009">
        <ele>183.4</ele>
        <time>2024-09-19T08:45:40Z</time>
      </trkpt>
      <trkpt lat="46.35567" lon="4.85007">
        <ele>183.4</ele>
        <time>2024-09-19T08:45:41Z</time>
      </trkpt>
      <trkpt lat="46.35562" lon="4.85006">
        <ele>183.4</ele>
        <time>2024-09-19T08:45:42Z</time>
      </trkpt>
      <trkpt lat="46.35557" lon="4.85004">
        <ele>183.2</ele>
        <time>2024-09-19T08:45:43Z</time>
      </trkpt>
      <trkpt lat="46.35552" lon="4.85002">
        <ele>183.2</ele>
        <time>2024-09-19T08:45:44Z</time>
      </trkpt>
      <trkpt lat="46.35547" lon="4.85001">
        <ele>183.2</ele>
        <time>2024-09-19T08:45:45Z</time>
      </trkpt>
      <trkpt lat="46.35542" lon="4.84999">
        <ele>183.2</ele>
        <time>2024-09-19T08:45:46Z</time>
      </trkpt>
      <trkpt lat="46.35537" lon="4.84998">
        <ele>183.2</ele>
        <time>2024-09-19T08:45:47Z</time>
      </trkpt>
      <trkpt lat="46.35532" lon="4.84997">
        <ele>183.4</ele>
        <time>2024-09-19T08:45:48Z</time>
      </trkpt>
      <trkpt lat="46.35527" lon="4.84995">
        <ele>183.4</ele>
        <time>2024-09-19T08:45:49Z</time>
      </trkpt>
      <trkpt lat="46.35522" lon="4.84994">
        <ele>183.4</ele>
        <time>2024-09-19T08:45:50Z</time>
      </trkpt>
      <trkpt lat="46.35514" lon="4.84993">
        <ele>183.4</ele>
        <time>2024-09-19T08:45:51Z</time>
      </trkpt>
      <trkpt lat="46.35512" lon="4.84992">
        <ele>183.4</ele>
        <time>2024-09-19T08:45:52Z</time>
      </trkpt>
      <trkpt lat="46.35507" lon="4.84992">
        <ele>183.4</ele>
        <time>2024-09-19T08:45:53Z</time>
      </trkpt>
      <trkpt lat="46.35502" lon="4.84991">
        <ele>183.4</ele>
        <time>2024-09-19T08:45:54Z</time>
      </trkpt>
      <trkpt lat="46.35494" lon="4.84991">
        <ele>183.4</ele>
        <time>2024-09-19T08:45:55Z</time>
      </trkpt>
      <trkpt lat="46.35492" lon="4.84991">
        <ele>183.2</ele>
        <time>2024-09-19T08:45:56Z</time>
      </trkpt>
      <trkpt lat="46.35486" lon="4.8499">
        <ele>183.4</ele>
        <time>2024-09-19T08:45:57Z</time>
      </trkpt>
      <trkpt lat="46.35478" lon="4.8499">
        <ele>183.4</ele>
        <time>2024-09-19T08:45:58Z</time>
      </trkpt>
      <trkpt lat="46.35476" lon="4.84989">
        <ele>183.4</ele>
        <time>2024-09-19T08:45:59Z</time>
      </trkpt>
      <trkpt lat="46.35468" lon="4.84988">
        <ele>183.4</ele>
        <time>2024-09-19T08:46:00Z</time>
      </trkpt>
      <trkpt lat="46.35465" lon="4.84988">
        <ele>183.4</ele>
        <time>2024-09-19T08:46:01Z</time>
      </trkpt>
      <trkpt lat="46.35457" lon="4.84987">
        <ele>183.2</ele>
        <time>2024-09-19T08:46:02Z</time>
      </trkpt>
      <trkpt lat="46.35455" lon="4.84986">
        <ele>183.2</ele>
        <time>2024-09-19T08:46:03Z</time>
      </trkpt>
      <trkpt lat="46.35449" lon="4.84986">
        <ele>183.2</ele>
        <time>2024-09-19T08:46:04Z</time>
      </trkpt>
      <trkpt lat="46.35441" lon="4.84985">
        <ele>183.2</ele>
        <time>2024-09-19T08:46:05Z</time>
      </trkpt>
      <trkpt lat="46.35439" lon="4.84984">
        <ele>183</ele>
        <time>2024-09-19T08:46:06Z</time>
      </trkpt>
      <trkpt lat="46.35434" lon="4.84983">
        <ele>183</ele>
        <time>2024-09-19T08:46:07Z</time>
      </trkpt>
      <trkpt lat="46.35428" lon="4.84981">
        <ele>183</ele>
        <time>2024-09-19T08:46:08Z</time>
      </trkpt>
      <trkpt lat="46.35423" lon="4.8498">
        <ele>183</ele>
        <time>2024-09-19T08:46:09Z</time>
      </trkpt>
      <trkpt lat="46.35418" lon="4.84979">
        <ele>183</ele>
        <time>2024-09-19T08:46:10Z</time>
      </trkpt>
      <trkpt lat="46.3541" lon="4.84978">
        <ele>183</ele>
        <time>2024-09-19T08:46:11Z</time>
      </trkpt>
      <trkpt lat="46.35407" lon="4.84978">
        <ele>183</ele>
        <time>2024-09-19T08:46:12Z</time>
      </trkpt>
      <trkpt lat="46.35399" lon="4.84978">
        <ele>183</ele>
        <time>2024-09-19T08:46:13Z</time>
      </trkpt>
      <trkpt lat="46.35396" lon="4.84978">
        <ele>182.8</ele>
        <time>2024-09-19T08:46:14Z</time>
      </trkpt>
      <trkpt lat="46.35389" lon="4.84977">
        <ele>183</ele>
        <time>2024-09-19T08:46:15Z</time>
      </trkpt>
      <trkpt lat="46.35386" lon="4.84978">
        <ele>183</ele>
        <time>2024-09-19T08:46:16Z</time>
      </trkpt>
      <trkpt lat="46.35381" lon="4.84977">
        <ele>183</ele>
        <time>2024-09-19T08:46:17Z</time>
      </trkpt>
      <trkpt lat="46.35376" lon="4.84977">
        <ele>183</ele>
        <time>2024-09-19T08:46:18Z</time>
      </trkpt>
      <trkpt lat="46.35368" lon="4.84976">
        <ele>183</ele>
        <time>2024-09-19T08:46:19Z</time>
      </trkpt>
      <trkpt lat="46.35365" lon="4.84976">
        <ele>183</ele>
        <time>2024-09-19T08:46:20Z</time>
      </trkpt>
      <trkpt lat="46.3536" lon="4.84976">
        <ele>183</ele>
        <time>2024-09-19T08:46:21Z</time>
      </trkpt>
      <trkpt lat="46.35354" lon="4.84975">
        <ele>183</ele>
        <time>2024-09-19T08:46:22Z</time>
      </trkpt>
      <trkpt lat="46.35349" lon="4.84975">
        <ele>183</ele>
        <time>2024-09-19T08:46:23Z</time>
      </trkpt>
      <trkpt lat="46.35344" lon="4.84975">
        <ele>183</ele>
        <time>2024-09-19T08:46:24Z</time>
      </trkpt>
      <trkpt lat="46.35338" lon="4.84975">
        <ele>183</ele>
        <time>2024-09-19T08:46:25Z</time>
      </trkpt>
      <trkpt lat="46.35333" lon="4.84975">
        <ele>183</ele>
        <time>2024-09-19T08:46:26Z</time>
      </trkpt>
      <trkpt lat="46.35327" lon="4.84976">
        <ele>183</ele>
        <time>2024-09-19T08:46:27Z</time>
      </trkpt>
      <trkpt lat="46.35322" lon="4.84976">
        <ele>183</ele>
        <time>2024-09-19T08:46:28Z</time>
      </trkpt>
      <trkpt lat="46.35314" lon="4.84977">
        <ele>183</ele>
        <time>2024-09-19T08:46:29Z</time>
      </trkpt>
      <trkpt lat="46.35311" lon="4.84977">
        <ele>183</ele>
        <time>2024-09-19T08:46:30Z</time>
      </trkpt>
      <trkpt lat="46.35306" lon="4.84977">
        <ele>183</ele>
        <time>2024-09-19T08:46:31Z</time>
      </trkpt>
      <trkpt lat="46.35298" lon="4.84977">
        <ele>183.2</ele>
        <time>2024-09-19T08:46:32Z</time>
      </trkpt>
      <trkpt lat="46.35296" lon="4.84977">
        <ele>183.2</ele>
        <time>2024-09-19T08:46:33Z</time>
      </trkpt>
      <trkpt lat="46.35291" lon="4.84977">
        <ele>183</ele>
        <time>2024-09-19T08:46:34Z</time>
      </trkpt>
      <trkpt lat="46.35287" lon="4.84976">
        <ele>183</ele>
        <time>2024-09-19T08:46:35Z</time>
      </trkpt>
      <trkpt lat="46.35282" lon="4.84975">
        <ele>183</ele>
        <time>2024-09-19T08:46:36Z</time>
      </trkpt>
      <trkpt lat="46.35275" lon="4.84974">
        <ele>183.2</ele>
        <time>2024-09-19T08:46:37Z</time>
      </trkpt>
      <trkpt lat="46.35272" lon="4.84974">
        <ele>183.2</ele>
        <time>2024-09-19T08:46:38Z</time>
      </trkpt>
      <trkpt lat="46.35265" lon="4.84973">
        <ele>183.2</ele>
        <time>2024-09-19T08:46:39Z</time>
      </trkpt>
      <trkpt lat="46.35263" lon="4.84973">
        <ele>183.2</ele>
        <time>2024-09-19T08:46:40Z</time>
      </trkpt>
      <trkpt lat="46.35258" lon="4.84974">
        <ele>183.2</ele>
        <time>2024-09-19T08:46:41Z</time>
      </trkpt>
      <trkpt lat="46.35251" lon="4.84974">
        <ele>183.2</ele>
        <time>2024-09-19T08:46:42Z</time>
      </trkpt>
      <trkpt lat="46.35248" lon="4.84974">
        <ele>183.4</ele>
        <time>2024-09-19T08:46:43Z</time>
      </trkpt>
      <trkpt lat="46.35241" lon="4.84976">
        <ele>183.4</ele>
        <time>2024-09-19T08:46:44Z</time>
      </trkpt>
      <trkpt lat="46.35239" lon="4.84977">
        <ele>183.4</ele>
        <time>2024-09-19T08:46:45Z</time>
      </trkpt>
      <trkpt lat="46.35232" lon="4.8498">
        <ele>183.4</ele>
        <time>2024-09-19T08:46:46Z</time>
      </trkpt>
      <trkpt lat="46.35229" lon="4.84981">
        <ele>183</ele>
        <time>2024-09-19T08:46:47Z</time>
      </trkpt>
      <trkpt lat="46.35224" lon="4.84984">
        <ele>183</ele>
        <time>2024-09-19T08:46:48Z</time>
      </trkpt>
      <trkpt lat="46.35219" lon="4.84985">
        <ele>183</ele>
        <time>2024-09-19T08:46:49Z</time>
      </trkpt>
      <trkpt lat="46.35214" lon="4.84987">
        <ele>182.8</ele>
        <time>2024-09-19T08:46:50Z</time>
      </trkpt>
      <trkpt lat="46.35209" lon="4.84988">
        <ele>182.6</ele>
        <time>2024-09-19T08:46:51Z</time>
      </trkpt>
      <trkpt lat="46.35204" lon="4.8499">
        <ele>182.6</ele>
        <time>2024-09-19T08:46:52Z</time>
      </trkpt>
      <trkpt lat="46.35199" lon="4.84991">
        <ele>182.6</ele>
        <time>2024-09-19T08:46:53Z</time>
      </trkpt>
      <trkpt lat="46.35194" lon="4.84992">
        <ele>182.6</ele>
        <time>2024-09-19T08:46:54Z</time>
      </trkpt>
      <trkpt lat="46.35187" lon="4.84994">
        <ele>182.4</ele>
        <time>2024-09-19T08:46:55Z</time>
      </trkpt>
      <trkpt lat="46.35184" lon="4.84994">
        <ele>182.4</ele>
        <time>2024-09-19T08:46:56Z</time>
      </trkpt>
      <trkpt lat="46.3518" lon="4.84996">
        <ele>182.4</ele>
        <time>2024-09-19T08:46:57Z</time>
      </trkpt>
      <trkpt lat="46.35172" lon="4.84998">
        <ele>182.4</ele>
        <time>2024-09-19T08:46:58Z</time>
      </trkpt>
      <trkpt lat="46.3517" lon="4.84998">
        <ele>182.4</ele>
        <time>2024-09-19T08:46:59Z</time>
      </trkpt>
      <trkpt lat="46.35165" lon="4.84999">
        <ele>182.6</ele>
        <time>2024-09-19T08:47:00Z</time>
      </trkpt>
      <trkpt lat="46.35158" lon="4.85">
        <ele>182.6</ele>
        <time>2024-09-19T08:47:01Z</time>
      </trkpt>
      <trkpt lat="46.35155" lon="4.85001">
        <ele>182.6</ele>
        <time>2024-09-19T08:47:02Z</time>
      </trkpt>
      <trkpt lat="46.35148" lon="4.85002">
        <ele>182.6</ele>
        <time>2024-09-19T08:47:03Z</time>
      </trkpt>
      <trkpt lat="46.35145" lon="4.85002">
        <ele>182.6</ele>
        <time>2024-09-19T08:47:04Z</time>
      </trkpt>
      <trkpt lat="46.3514" lon="4.85003">
        <ele>182.6</ele>
        <time>2024-09-19T08:47:05Z</time>
      </trkpt>
      <trkpt lat="46.35135" lon="4.85003">
        <ele>182.6</ele>
        <time>2024-09-19T08:47:06Z</time>
      </trkpt>
      <trkpt lat="46.35129" lon="4.85004">
        <ele>182.6</ele>
        <time>2024-09-19T08:47:07Z</time>
      </trkpt>
      <trkpt lat="46.35122" lon="4.85006">
        <ele>182.6</ele>
        <time>2024-09-19T08:47:08Z</time>
      </trkpt>
      <trkpt lat="46.3512" lon="4.85007">
        <ele>183</ele>
        <time>2024-09-19T08:47:09Z</time>
      </trkpt>
      <trkpt lat="46.35115" lon="4.85008">
        <ele>183</ele>
        <time>2024-09-19T08:47:10Z</time>
      </trkpt>
      <trkpt lat="46.35111" lon="4.85009">
        <ele>183</ele>
        <time>2024-09-19T08:47:11Z</time>
      </trkpt>
      <trkpt lat="46.35106" lon="4.8501">
        <ele>183</ele>
        <time>2024-09-19T08:47:12Z</time>
      </trkpt>
      <trkpt lat="46.35099" lon="4.85012">
        <ele>183</ele>
        <time>2024-09-19T08:47:13Z</time>
      </trkpt>
      <trkpt lat="46.35097" lon="4.85012">
        <ele>183.2</ele>
        <time>2024-09-19T08:47:14Z</time>
      </trkpt>
      <trkpt lat="46.35092" lon="4.85013">
        <ele>183.2</ele>
        <time>2024-09-19T08:47:15Z</time>
      </trkpt>
      <trkpt lat="46.35088" lon="4.85014">
        <ele>183.2</ele>
        <time>2024-09-19T08:47:16Z</time>
      </trkpt>
      <trkpt lat="46.35083" lon="4.85015">
        <ele>183.6</ele>
        <time>2024-09-19T08:47:17Z</time>
      </trkpt>
      <trkpt lat="46.35076" lon="4.85017">
        <ele>183.6</ele>
        <time>2024-09-19T08:47:18Z</time>
      </trkpt>
      <trkpt lat="46.35074" lon="4.85017">
        <ele>183.6</ele>
        <time>2024-09-19T08:47:19Z</time>
      </trkpt>
      <trkpt lat="46.35066" lon="4.85019">
        <ele>183.6</ele>
        <time>2024-09-19T08:47:20Z</time>
      </trkpt>
      <trkpt lat="46.35064" lon="4.85019">
        <ele>183.6</ele>
        <time>2024-09-19T08:47:21Z</time>
      </trkpt>
      <trkpt lat="46.35056" lon="4.85021">
        <ele>183.6</ele>
        <time>2024-09-19T08:47:22Z</time>
      </trkpt>
      <trkpt lat="46.35054" lon="4.85021">
        <ele>183.8</ele>
        <time>2024-09-19T08:47:23Z</time>
      </trkpt>
      <trkpt lat="46.35049" lon="4.85022">
        <ele>183.8</ele>
        <time>2024-09-19T08:47:24Z</time>
      </trkpt>
      <trkpt lat="46.35042" lon="4.85024">
        <ele>183.8</ele>
        <time>2024-09-19T08:47:25Z</time>
      </trkpt>
      <trkpt lat="46.3504" lon="4.85024">
        <ele>183.8</ele>
        <time>2024-09-19T08:47:26Z</time>
      </trkpt>
      <trkpt lat="46.35032" lon="4.85025">
        <ele>183.8</ele>
        <time>2024-09-19T08:47:27Z</time>
      </trkpt>
      <trkpt lat="46.3503" lon="4.85026">
        <ele>183.6</ele>
        <time>2024-09-19T08:47:28Z</time>
      </trkpt>
      <trkpt lat="46.35023" lon="4.85027">
        <ele>183.6</ele>
        <time>2024-09-19T08:47:29Z</time>
      </trkpt>
      <trkpt lat="46.35021" lon="4.85027">
        <ele>184</ele>
        <time>2024-09-19T08:47:30Z</time>
      </trkpt>
      <trkpt lat="46.35014" lon="4.85028">
        <ele>184</ele>
        <time>2024-09-19T08:47:31Z</time>
      </trkpt>
      <trkpt lat="46.35012" lon="4.85028">
        <ele>183.8</ele>
        <time>2024-09-19T08:47:32Z</time>
      </trkpt>
      <trkpt lat="46.35007" lon="4.85029">
        <ele>183.8</ele>
        <time>2024-09-19T08:47:33Z</time>
      </trkpt>
      <trkpt lat="46.35003" lon="4.8503">
        <ele>183.8</ele>
        <time>2024-09-19T08:47:34Z</time>
      </trkpt>
      <trkpt lat="46.34998" lon="4.85031">
        <ele>184.2</ele>
        <time>2024-09-19T08:47:35Z</time>
      </trkpt>
      <trkpt lat="46.34994" lon="4.85032">
        <ele>184.2</ele>
        <time>2024-09-19T08:47:36Z</time>
      </trkpt>
      <trkpt lat="46.34987" lon="4.85033">
        <ele>184.2</ele>
        <time>2024-09-19T08:47:37Z</time>
      </trkpt>
      <trkpt lat="46.34985" lon="4.85033">
        <ele>184.2</ele>
        <time>2024-09-19T08:47:38Z</time>
      </trkpt>
      <trkpt lat="46.34978" lon="4.85034">
        <ele>184.6</ele>
        <time>2024-09-19T08:47:39Z</time>
      </trkpt>
      <trkpt lat="46.34976" lon="4.85034">
        <ele>184.8</ele>
        <time>2024-09-19T08:47:40Z</time>
      </trkpt>
      <trkpt lat="46.34972" lon="4.85035">
        <ele>184.8</ele>
        <time>2024-09-19T08:47:41Z</time>
      </trkpt>
      <trkpt lat="46.34966" lon="4.85037">
        <ele>184.8</ele>
        <time>2024-09-19T08:47:42Z</time>
      </trkpt>
      <trkpt lat="46.34964" lon="4.85037">
        <ele>184.8</ele>
        <time>2024-09-19T08:47:43Z</time>
      </trkpt>
      <trkpt lat="46.34957" lon="4.85039">
        <ele>185</ele>
        <time>2024-09-19T08:47:44Z</time>
      </trkpt>
      <trkpt lat="46.34955" lon="4.85039">
        <ele>185</ele>
        <time>2024-09-19T08:47:45Z</time>
      </trkpt>
      <trkpt lat="46.34951" lon="4.8504">
        <ele>185</ele>
        <time>2024-09-19T08:47:46Z</time>
      </trkpt>
      <trkpt lat="46.34947" lon="4.85041">
        <ele>185</ele>
        <time>2024-09-19T08:47:47Z</time>
      </trkpt>
      <trkpt lat="46.34943" lon="4.85042">
        <ele>185</ele>
        <time>2024-09-19T08:47:48Z</time>
      </trkpt>
      <trkpt lat="46.34936" lon="4.85043">
        <ele>185.4</ele>
        <time>2024-09-19T08:47:49Z</time>
      </trkpt>
      <trkpt lat="46.34934" lon="4.85043">
        <ele>185.4</ele>
        <time>2024-09-19T08:47:50Z</time>
      </trkpt>
      <trkpt lat="46.34928" lon="4.85043">
        <ele>185.4</ele>
        <time>2024-09-19T08:47:51Z</time>
      </trkpt>
      <trkpt lat="46.34926" lon="4.85043">
        <ele>185.4</ele>
        <time>2024-09-19T08:47:52Z</time>
      </trkpt>
      <trkpt lat="46.34921" lon="4.85044">
        <ele>185.4</ele>
        <time>2024-09-19T08:47:53Z</time>
      </trkpt>
      <trkpt lat="46.34917" lon="4.85045">
        <ele>185.6</ele>
        <time>2024-09-19T08:47:54Z</time>
      </trkpt>
      <trkpt lat="46.34912" lon="4.85046">
        <ele>185.6</ele>
        <time>2024-09-19T08:47:55Z</time>
      </trkpt>
      <trkpt lat="46.34907" lon="4.85047">
        <ele>185.6</ele>
        <time>2024-09-19T08:47:56Z</time>
      </trkpt>
      <trkpt lat="46.349" lon="4.85048">
        <ele>185.6</ele>
        <time>2024-09-19T08:47:57Z</time>
      </trkpt>
      <trkpt lat="46.34898" lon="4.85048">
        <ele>185.2</ele>
        <time>2024-09-19T08:47:58Z</time>
      </trkpt>
      <trkpt lat="46.34893" lon="4.85049">
        <ele>185.4</ele>
        <time>2024-09-19T08:47:59Z</time>
      </trkpt>
      <trkpt lat="46.34888" lon="4.85049">
        <ele>185.4</ele>
        <time>2024-09-19T08:48:00Z</time>
      </trkpt>
      <trkpt lat="46.34883" lon="4.8505">
        <ele>185.4</ele>
        <time>2024-09-19T08:48:01Z</time>
      </trkpt>
      <trkpt lat="46.34876" lon="4.8505">
        <ele>185.4</ele>
        <time>2024-09-19T08:48:02Z</time>
      </trkpt>
      <trkpt lat="46.34873" lon="4.8505">
        <ele>185.2</ele>
        <time>2024-09-19T08:48:03Z</time>
      </trkpt>
      <trkpt lat="46.34865" lon="4.8505">
        <ele>185.2</ele>
        <time>2024-09-19T08:48:04Z</time>
      </trkpt>
      <trkpt lat="46.34862" lon="4.85051">
        <ele>185.2</ele>
        <time>2024-09-19T08:48:05Z</time>
      </trkpt>
      <trkpt lat="46.34854" lon="4.85052">
        <ele>185.2</ele>
        <time>2024-09-19T08:48:06Z</time>
      </trkpt>
      <trkpt lat="46.34851" lon="4.85052">
        <ele>184.2</ele>
        <time>2024-09-19T08:48:07Z</time>
      </trkpt>
      <trkpt lat="46.34842" lon="4.85054">
        <ele>184.2</ele>
        <time>2024-09-19T08:48:08Z</time>
      </trkpt>
      <trkpt lat="46.3484" lon="4.85054">
        <ele>184.2</ele>
        <time>2024-09-19T08:48:09Z</time>
      </trkpt>
      <trkpt lat="46.34831" lon="4.85056">
        <ele>184.2</ele>
        <time>2024-09-19T08:48:10Z</time>
      </trkpt>
      <trkpt lat="46.34828" lon="4.85057">
        <ele>183.8</ele>
        <time>2024-09-19T08:48:11Z</time>
      </trkpt>
      <trkpt lat="46.3482" lon="4.85059">
        <ele>183.8</ele>
        <time>2024-09-19T08:48:12Z</time>
      </trkpt>
      <trkpt lat="46.34817" lon="4.8506">
        <ele>183.8</ele>
        <time>2024-09-19T08:48:13Z</time>
      </trkpt>
      <trkpt lat="46.34809" lon="4.85062">
        <ele>183.8</ele>
        <time>2024-09-19T08:48:14Z</time>
      </trkpt>
      <trkpt lat="46.34807" lon="4.85063">
        <ele>183.6</ele>
        <time>2024-09-19T08:48:15Z</time>
      </trkpt>
      <trkpt lat="46.34799" lon="4.85065">
        <ele>183.6</ele>
        <time>2024-09-19T08:48:16Z</time>
      </trkpt>
      <trkpt lat="46.34796" lon="4.85066">
        <ele>183.6</ele>
        <time>2024-09-19T08:48:17Z</time>
      </trkpt>
      <trkpt lat="46.34791" lon="4.85067">
        <ele>183.6</ele>
        <time>2024-09-19T08:48:18Z</time>
      </trkpt>
      <trkpt lat="46.34786" lon="4.85069">
        <ele>183.6</ele>
        <time>2024-09-19T08:48:19Z</time>
      </trkpt>
      <trkpt lat="46.34778" lon="4.85071">
        <ele>183.2</ele>
        <time>2024-09-19T08:48:20Z</time>
      </trkpt>
      <trkpt lat="46.34775" lon="4.85071">
        <ele>183.2</ele>
        <time>2024-09-19T08:48:21Z</time>
      </trkpt>
      <trkpt lat="46.34768" lon="4.85074">
        <ele>183.2</ele>
        <time>2024-09-19T08:48:22Z</time>
      </trkpt>
      <trkpt lat="46.34765" lon="4.85075">
        <ele>183.2</ele>
        <time>2024-09-19T08:48:23Z</time>
      </trkpt>
      <trkpt lat="46.34757" lon="4.85077">
        <ele>183.2</ele>
        <time>2024-09-19T08:48:24Z</time>
      </trkpt>
      <trkpt lat="46.34754" lon="4.85078">
        <ele>183.2</ele>
        <time>2024-09-19T08:48:25Z</time>
      </trkpt>
      <trkpt lat="46.34749" lon="4.8508">
        <ele>183</ele>
        <time>2024-09-19T08:48:26Z</time>
      </trkpt>
      <trkpt lat="46.34744" lon="4.85081">
        <ele>183</ele>
        <time>2024-09-19T08:48:27Z</time>
      </trkpt>
      <trkpt lat="46.34739" lon="4.85083">
        <ele>183</ele>
        <time>2024-09-19T08:48:28Z</time>
      </trkpt>
      <trkpt lat="46.34733" lon="4.85085">
        <ele>183</ele>
        <time>2024-09-19T08:48:29Z</time>
      </trkpt>
      <trkpt lat="46.34728" lon="4.85086">
        <ele>182.8</ele>
        <time>2024-09-19T08:48:30Z</time>
      </trkpt>
      <trkpt lat="46.34723" lon="4.85088">
        <ele>183</ele>
        <time>2024-09-19T08:48:31Z</time>
      </trkpt>
      <trkpt lat="46.34718" lon="4.85089">
        <ele>183</ele>
        <time>2024-09-19T08:48:32Z</time>
      </trkpt>
      <trkpt lat="46.34713" lon="4.8509">
        <ele>183</ele>
        <time>2024-09-19T08:48:33Z</time>
      </trkpt>
      <trkpt lat="46.34708" lon="4.85092">
        <ele>183</ele>
        <time>2024-09-19T08:48:34Z</time>
      </trkpt>
      <trkpt lat="46.34703" lon="4.85093">
        <ele>183.2</ele>
        <time>2024-09-19T08:48:35Z</time>
      </trkpt>
      <trkpt lat="46.34698" lon="4.85095">
        <ele>183.2</ele>
        <time>2024-09-19T08:48:36Z</time>
      </trkpt>
      <trkpt lat="46.34693" lon="4.85096">
        <ele>183.2</ele>
        <time>2024-09-19T08:48:37Z</time>
      </trkpt>
      <trkpt lat="46.34686" lon="4.85097">
        <ele>183.2</ele>
        <time>2024-09-19T08:48:38Z</time>
      </trkpt>
      <trkpt lat="46.34683" lon="4.85098">
        <ele>183.2</ele>
        <time>2024-09-19T08:48:39Z</time>
      </trkpt>
      <trkpt lat="46.34676" lon="4.85098">
        <ele>183.4</ele>
        <time>2024-09-19T08:48:40Z</time>
      </trkpt>
      <trkpt lat="46.34674" lon="4.85099">
        <ele>183.4</ele>
        <time>2024-09-19T08:48:41Z</time>
      </trkpt>
      <trkpt lat="46.34666" lon="4.85099">
        <ele>183.4</ele>
        <time>2024-09-19T08:48:42Z</time>
      </trkpt>
      <trkpt lat="46.34664" lon="4.85099">
        <ele>183.4</ele>
        <time>2024-09-19T08:48:43Z</time>
      </trkpt>
      <trkpt lat="46.34659" lon="4.85099">
        <ele>183.6</ele>
        <time>2024-09-19T08:48:44Z</time>
      </trkpt>
      <trkpt lat="46.34651" lon="4.85099">
        <ele>183.6</ele>
        <time>2024-09-19T08:48:45Z</time>
      </trkpt>
      <trkpt lat="46.34649" lon="4.85099">
        <ele>183.6</ele>
        <time>2024-09-19T08:48:46Z</time>
      </trkpt>
      <trkpt lat="46.34644" lon="4.85099">
        <ele>183.6</ele>
        <time>2024-09-19T08:48:47Z</time>
      </trkpt>
      <trkpt lat="46.34639" lon="4.85099">
        <ele>183.8</ele>
        <time>2024-09-19T08:48:48Z</time>
      </trkpt>
      <trkpt lat="46.34633" lon="4.85099">
        <ele>183.8</ele>
        <time>2024-09-19T08:48:49Z</time>
      </trkpt>
      <trkpt lat="46.34631" lon="4.85099">
        <ele>183.8</ele>
        <time>2024-09-19T08:48:50Z</time>
      </trkpt>
      <trkpt lat="46.34625" lon="4.85099">
        <ele>183.8</ele>
        <time>2024-09-19T08:48:51Z</time>
      </trkpt>
      <trkpt lat="46.34623" lon="4.85098">
        <ele>183.8</ele>
        <time>2024-09-19T08:48:52Z</time>
      </trkpt>
      <trkpt lat="46.34616" lon="4.85099">
        <ele>184.2</ele>
        <time>2024-09-19T08:48:53Z</time>
      </trkpt>
      <trkpt lat="46.34614" lon="4.85099">
        <ele>184.2</ele>
        <time>2024-09-19T08:48:54Z</time>
      </trkpt>
      <trkpt lat="46.34607" lon="4.85099">
        <ele>184.2</ele>
        <time>2024-09-19T08:48:55Z</time>
      </trkpt>
      <trkpt lat="46.34604" lon="4.85099">
        <ele>183.8</ele>
        <time>2024-09-19T08:48:56Z</time>
      </trkpt>
      <trkpt lat="46.34596" lon="4.85099">
        <ele>183.8</ele>
        <time>2024-09-19T08:48:57Z</time>
      </trkpt>
      <trkpt lat="46.34594" lon="4.85099">
        <ele>183.8</ele>
        <time>2024-09-19T08:48:58Z</time>
      </trkpt>
      <trkpt lat="46.34586" lon="4.851">
        <ele>183.8</ele>
        <time>2024-09-19T08:48:59Z</time>
      </trkpt>
      <trkpt lat="46.34584" lon="4.851">
        <ele>183.8</ele>
        <time>2024-09-19T08:49:00Z</time>
      </trkpt>
      <trkpt lat="46.34579" lon="4.851">
        <ele>183.8</ele>
        <time>2024-09-19T08:49:01Z</time>
      </trkpt>
      <trkpt lat="46.34574" lon="4.85101">
        <ele>183.8</ele>
        <time>2024-09-19T08:49:02Z</time>
      </trkpt>
      <trkpt lat="46.34569" lon="4.85101">
        <ele>183.8</ele>
        <time>2024-09-19T08:49:03Z</time>
      </trkpt>
      <trkpt lat="46.34564" lon="4.85101">
        <ele>183.8</ele>
        <time>2024-09-19T08:49:04Z</time>
      </trkpt>
      <trkpt lat="46.34556" lon="4.85101">
        <ele>183.8</ele>
        <time>2024-09-19T08:49:05Z</time>
      </trkpt>
      <trkpt lat="46.34554" lon="4.85102">
        <ele>183.6</ele>
        <time>2024-09-19T08:49:06Z</time>
      </trkpt>
      <trkpt lat="46.34547" lon="4.85102">
        <ele>183.6</ele>
        <time>2024-09-19T08:49:07Z</time>
      </trkpt>
      <trkpt lat="46.34544" lon="4.85102">
        <ele>183.6</ele>
        <time>2024-09-19T08:49:08Z</time>
      </trkpt>
      <trkpt lat="46.34539" lon="4.85103">
        <ele>183.6</ele>
        <time>2024-09-19T08:49:09Z</time>
      </trkpt>
      <trkpt lat="46.34535" lon="4.85103">
        <ele>183.6</ele>
        <time>2024-09-19T08:49:10Z</time>
      </trkpt>
      <trkpt lat="46.34527" lon="4.85103">
        <ele>183.6</ele>
        <time>2024-09-19T08:49:11Z</time>
      </trkpt>
      <trkpt lat="46.34525" lon="4.85103">
        <ele>183.6</ele>
        <time>2024-09-19T08:49:12Z</time>
      </trkpt>
      <trkpt lat="46.3452" lon="4.85104">
        <ele>183.6</ele>
        <time>2024-09-19T08:49:13Z</time>
      </trkpt>
      <trkpt lat="46.34515" lon="4.85104">
        <ele>183.6</ele>
        <time>2024-09-19T08:49:14Z</time>
      </trkpt>
      <trkpt lat="46.3451" lon="4.85103">
        <ele>183.6</ele>
        <time>2024-09-19T08:49:15Z</time>
      </trkpt>
      <trkpt lat="46.34505" lon="4.85103">
        <ele>183.4</ele>
        <time>2024-09-19T08:49:16Z</time>
      </trkpt>
      <trkpt lat="46.345" lon="4.85103">
        <ele>183.4</ele>
        <time>2024-09-19T08:49:17Z</time>
      </trkpt>
      <trkpt lat="46.34495" lon="4.85103">
        <ele>183.4</ele>
        <time>2024-09-19T08:49:18Z</time>
      </trkpt>
      <trkpt lat="46.34491" lon="4.85104">
        <ele>183.4</ele>
        <time>2024-09-19T08:49:19Z</time>
      </trkpt>
      <trkpt lat="46.34486" lon="4.85104">
        <ele>183.6</ele>
        <time>2024-09-19T08:49:20Z</time>
      </trkpt>
      <trkpt lat="46.34481" lon="4.85104">
        <ele>183.6</ele>
        <time>2024-09-19T08:49:21Z</time>
      </trkpt>
      <trkpt lat="46.34476" lon="4.85104">
        <ele>183.6</ele>
        <time>2024-09-19T08:49:22Z</time>
      </trkpt>
      <trkpt lat="46.34471" lon="4.85104">
        <ele>183.6</ele>
        <time>2024-09-19T08:49:23Z</time>
      </trkpt>
      <trkpt lat="46.34466" lon="4.85105">
        <ele>183.8</ele>
        <time>2024-09-19T08:49:24Z</time>
      </trkpt>
      <trkpt lat="46.34459" lon="4.85106">
        <ele>183.8</ele>
        <time>2024-09-19T08:49:25Z</time>
      </trkpt>
      <trkpt lat="46.34457" lon="4.85106">
        <ele>183.8</ele>
        <time>2024-09-19T08:49:26Z</time>
      </trkpt>
      <trkpt lat="46.34452" lon="4.85106">
        <ele>184</ele>
        <time>2024-09-19T08:49:27Z</time>
      </trkpt>
      <trkpt lat="46.34445" lon="4.85106">
        <ele>184</ele>
        <time>2024-09-19T08:49:28Z</time>
      </trkpt>
      <trkpt lat="46.34442" lon="4.85106">
        <ele>184</ele>
        <time>2024-09-19T08:49:29Z</time>
      </trkpt>
      <trkpt lat="46.34438" lon="4.85107">
        <ele>184</ele>
        <time>2024-09-19T08:49:30Z</time>
      </trkpt>
      <trkpt lat="46.3443" lon="4.85107">
        <ele>184</ele>
        <time>2024-09-19T08:49:31Z</time>
      </trkpt>
      <trkpt lat="46.34428" lon="4.85107">
        <ele>184.4</ele>
        <time>2024-09-19T08:49:32Z</time>
      </trkpt>
      <trkpt lat="46.34421" lon="4.85107">
        <ele>184.4</ele>
        <time>2024-09-19T08:49:33Z</time>
      </trkpt>
      <trkpt lat="46.34419" lon="4.85107">
        <ele>184.4</ele>
        <time>2024-09-19T08:49:34Z</time>
      </trkpt>
      <trkpt lat="46.34412" lon="4.85108">
        <ele>184.4</ele>
        <time>2024-09-19T08:49:35Z</time>
      </trkpt>
      <trkpt lat="46.34409" lon="4.85108">
        <ele>184.4</ele>
        <time>2024-09-19T08:49:36Z</time>
      </trkpt>
      <trkpt lat="46.34402" lon="4.85109">
        <ele>184.4</ele>
        <time>2024-09-19T08:49:37Z</time>
      </trkpt>
      <trkpt lat="46.344" lon="4.85109">
        <ele>184.4</ele>
        <time>2024-09-19T08:49:38Z</time>
      </trkpt>
      <trkpt lat="46.34393" lon="4.85111">
        <ele>184.4</ele>
        <time>2024-09-19T08:49:39Z</time>
      </trkpt>
      <trkpt lat="46.3439" lon="4.85111">
        <ele>184.4</ele>
        <time>2024-09-19T08:49:40Z</time>
      </trkpt>
      <trkpt lat="46.34383" lon="4.85113">
        <ele>184.4</ele>
        <time>2024-09-19T08:49:41Z</time>
      </trkpt>
      <trkpt lat="46.34381" lon="4.85113">
        <ele>184</ele>
        <time>2024-09-19T08:49:42Z</time>
      </trkpt>
      <trkpt lat="46.34376" lon="4.85114">
        <ele>184</ele>
        <time>2024-09-19T08:49:43Z</time>
      </trkpt>
      <trkpt lat="46.34371" lon="4.85114">
        <ele>184</ele>
        <time>2024-09-19T08:49:44Z</time>
      </trkpt>
      <trkpt lat="46.34367" lon="4.85115">
        <ele>184.4</ele>
        <time>2024-09-19T08:49:45Z</time>
      </trkpt>
      <trkpt lat="46.34362" lon="4.85115">
        <ele>184.4</ele>
        <time>2024-09-19T08:49:46Z</time>
      </trkpt>
      <trkpt lat="46.34355" lon="4.85116">
        <ele>184.4</ele>
        <time>2024-09-19T08:49:47Z</time>
      </trkpt>
      <trkpt lat="46.34353" lon="4.85116">
        <ele>184.4</ele>
        <time>2024-09-19T08:49:48Z</time>
      </trkpt>
      <trkpt lat="46.34348" lon="4.85117">
        <ele>184.4</ele>
        <time>2024-09-19T08:49:49Z</time>
      </trkpt>
      <trkpt lat="46.34341" lon="4.85117">
        <ele>184.2</ele>
        <time>2024-09-19T08:49:50Z</time>
      </trkpt>
      <trkpt lat="46.34339" lon="4.85117">
        <ele>184.2</ele>
        <time>2024-09-19T08:49:51Z</time>
      </trkpt>
      <trkpt lat="46.34334" lon="4.85118">
        <ele>184.2</ele>
        <time>2024-09-19T08:49:52Z</time>
      </trkpt>
      <trkpt lat="46.34329" lon="4.85119">
        <ele>184.2</ele>
        <time>2024-09-19T08:49:53Z</time>
      </trkpt>
      <trkpt lat="46.34325" lon="4.8512">
        <ele>184.2</ele>
        <time>2024-09-19T08:49:54Z</time>
      </trkpt>
      <trkpt lat="46.3432" lon="4.8512">
        <ele>184.2</ele>
        <time>2024-09-19T08:49:55Z</time>
      </trkpt>
      <trkpt lat="46.34316" lon="4.85121">
        <ele>184.4</ele>
        <time>2024-09-19T08:49:56Z</time>
      </trkpt>
      <trkpt lat="46.34311" lon="4.85121">
        <ele>184.4</ele>
        <time>2024-09-19T08:49:57Z</time>
      </trkpt>
      <trkpt lat="46.34306" lon="4.85121">
        <ele>184.4</ele>
        <time>2024-09-19T08:49:58Z</time>
      </trkpt>
      <trkpt lat="46.34301" lon="4.85121">
        <ele>184.8</ele>
        <time>2024-09-19T08:49:59Z</time>
      </trkpt>
      <trkpt lat="46.34297" lon="4.85121">
        <ele>184.4</ele>
        <time>2024-09-19T08:50:00Z</time>
      </trkpt>
      <trkpt lat="46.34292" lon="4.85122">
        <ele>184.4</ele>
        <time>2024-09-19T08:50:01Z</time>
      </trkpt>
      <trkpt lat="46.34288" lon="4.85122">
        <ele>184.4</ele>
        <time>2024-09-19T08:50:02Z</time>
      </trkpt>
      <trkpt lat="46.34283" lon="4.85122">
        <ele>184.4</ele>
        <time>2024-09-19T08:50:03Z</time>
      </trkpt>
      <trkpt lat="46.34278" lon="4.85122">
        <ele>184.6</ele>
        <time>2024-09-19T08:50:04Z</time>
      </trkpt>
      <trkpt lat="46.34271" lon="4.85122">
        <ele>184.6</ele>
        <time>2024-09-19T08:50:05Z</time>
      </trkpt>
      <trkpt lat="46.34268" lon="4.85122">
        <ele>184.6</ele>
        <time>2024-09-19T08:50:06Z</time>
      </trkpt>
      <trkpt lat="46.34261" lon="4.85121">
        <ele>184.6</ele>
        <time>2024-09-19T08:50:07Z</time>
      </trkpt>
      <trkpt lat="46.34259" lon="4.85121">
        <ele>184.6</ele>
        <time>2024-09-19T08:50:08Z</time>
      </trkpt>
      <trkpt lat="46.34252" lon="4.85121">
        <ele>184.6</ele>
        <time>2024-09-19T08:50:09Z</time>
      </trkpt>
      <trkpt lat="46.3425" lon="4.85121">
        <ele>184.6</ele>
        <time>2024-09-19T08:50:10Z</time>
      </trkpt>
      <trkpt lat="46.34245" lon="4.8512">
        <ele>184.6</ele>
        <time>2024-09-19T08:50:11Z</time>
      </trkpt>
      <trkpt lat="46.34238" lon="4.8512">
        <ele>184.4</ele>
        <time>2024-09-19T08:50:12Z</time>
      </trkpt>
      <trkpt lat="46.34235" lon="4.85119">
        <ele>184.4</ele>
        <time>2024-09-19T08:50:13Z</time>
      </trkpt>
      <trkpt lat="46.34228" lon="4.85118">
        <ele>184.4</ele>
        <time>2024-09-19T08:50:14Z</time>
      </trkpt>
      <trkpt lat="46.34226" lon="4.85118">
        <ele>184.4</ele>
        <time>2024-09-19T08:50:15Z</time>
      </trkpt>
      <trkpt lat="46.34218" lon="4.85116">
        <ele>184.4</ele>
        <time>2024-09-19T08:50:16Z</time>
      </trkpt>
      <trkpt lat="46.34216" lon="4.85116">
        <ele>184.6</ele>
        <time>2024-09-19T08:50:17Z</time>
      </trkpt>
      <trkpt lat="46.34208" lon="4.85115">
        <ele>184.6</ele>
        <time>2024-09-19T08:50:18Z</time>
      </trkpt>
      <trkpt lat="46.34206" lon="4.85115">
        <ele>184.6</ele>
        <time>2024-09-19T08:50:19Z</time>
      </trkpt>
      <trkpt lat="46.34199" lon="4.85113">
        <ele>184.4</ele>
        <time>2024-09-19T08:50:20Z</time>
      </trkpt>
      <trkpt lat="46.34196" lon="4.85113">
        <ele>184.4</ele>
        <time>2024-09-19T08:50:21Z</time>
      </trkpt>
      <trkpt lat="46.34191" lon="4.85112">
        <ele>184.2</ele>
        <time>2024-09-19T08:50:22Z</time>
      </trkpt>
      <trkpt lat="46.34184" lon="4.85111">
        <ele>184.2</ele>
        <time>2024-09-19T08:50:23Z</time>
      </trkpt>
      <trkpt lat="46.34181" lon="4.8511">
        <ele>184.2</ele>
        <time>2024-09-19T08:50:24Z</time>
      </trkpt>
      <trkpt lat="46.34177" lon="4.8511">
        <ele>184.4</ele>
        <time>2024-09-19T08:50:25Z</time>
      </trkpt>
      <trkpt lat="46.34172" lon="4.85109">
        <ele>184.4</ele>
        <time>2024-09-19T08:50:26Z</time>
      </trkpt>
      <trkpt lat="46.34167" lon="4.85108">
        <ele>184.4</ele>
        <time>2024-09-19T08:50:27Z</time>
      </trkpt>
      <trkpt lat="46.34162" lon="4.85108">
        <ele>184.4</ele>
        <time>2024-09-19T08:50:28Z</time>
      </trkpt>
      <trkpt lat="46.34157" lon="4.85107">
        <ele>184.4</ele>
        <time>2024-09-19T08:50:29Z</time>
      </trkpt>
      <trkpt lat="46.34152" lon="4.85106">
        <ele>184.4</ele>
        <time>2024-09-19T08:50:30Z</time>
      </trkpt>
      <trkpt lat="46.34145" lon="4.85104">
        <ele>184.4</ele>
        <time>2024-09-19T08:50:31Z</time>
      </trkpt>
      <trkpt lat="46.34142" lon="4.85104">
        <ele>184.4</ele>
        <time>2024-09-19T08:50:32Z</time>
      </trkpt>
      <trkpt lat="46.34138" lon="4.85103">
        <ele>184.4</ele>
        <time>2024-09-19T08:50:33Z</time>
      </trkpt>
      <trkpt lat="46.34133" lon="4.85102">
        <ele>184.2</ele>
        <time>2024-09-19T08:50:34Z</time>
      </trkpt>
      <trkpt lat="46.34128" lon="4.85102">
        <ele>184.4</ele>
        <time>2024-09-19T08:50:35Z</time>
      </trkpt>
      <trkpt lat="46.34123" lon="4.85101">
        <ele>184.4</ele>
        <time>2024-09-19T08:50:36Z</time>
      </trkpt>
      <trkpt lat="46.34118" lon="4.851">
        <ele>184.4</ele>
        <time>2024-09-19T08:50:37Z</time>
      </trkpt>
      <trkpt lat="46.34113" lon="4.85098">
        <ele>184.4</ele>
        <time>2024-09-19T08:50:38Z</time>
      </trkpt>
      <trkpt lat="46.34108" lon="4.85097">
        <ele>184.4</ele>
        <time>2024-09-19T08:50:39Z</time>
      </trkpt>
      <trkpt lat="46.34103" lon="4.85096">
        <ele>184</ele>
        <time>2024-09-19T08:50:40Z</time>
      </trkpt>
      <trkpt lat="46.34098" lon="4.85095">
        <ele>184</ele>
        <time>2024-09-19T08:50:41Z</time>
      </trkpt>
      <trkpt lat="46.34093" lon="4.85094">
        <ele>184</ele>
        <time>2024-09-19T08:50:42Z</time>
      </trkpt>
      <trkpt lat="46.34088" lon="4.85093">
        <ele>184</ele>
        <time>2024-09-19T08:50:43Z</time>
      </trkpt>
      <trkpt lat="46.34083" lon="4.85093">
        <ele>184</ele>
        <time>2024-09-19T08:50:44Z</time>
      </trkpt>
      <trkpt lat="46.34078" lon="4.85091">
        <ele>184</ele>
        <time>2024-09-19T08:50:45Z</time>
      </trkpt>
      <trkpt lat="46.34074" lon="4.8509">
        <ele>184</ele>
        <time>2024-09-19T08:50:46Z</time>
      </trkpt>
      <trkpt lat="46.34069" lon="4.85089">
        <ele>184</ele>
        <time>2024-09-19T08:50:47Z</time>
      </trkpt>
      <trkpt lat="46.34064" lon="4.85088">
        <ele>184</ele>
        <time>2024-09-19T08:50:48Z</time>
      </trkpt>
      <trkpt lat="46.34059" lon="4.85087">
        <ele>184.4</ele>
        <time>2024-09-19T08:50:49Z</time>
      </trkpt>
      <trkpt lat="46.34054" lon="4.85086">
        <ele>184.4</ele>
        <time>2024-09-19T08:50:50Z</time>
      </trkpt>
      <trkpt lat="46.34049" lon="4.85085">
        <ele>184.4</ele>
        <time>2024-09-19T08:50:51Z</time>
      </trkpt>
      <trkpt lat="46.34042" lon="4.85083">
        <ele>184.4</ele>
        <time>2024-09-19T08:50:52Z</time>
      </trkpt>
      <trkpt lat="46.3404" lon="4.85082">
        <ele>184.4</ele>
        <time>2024-09-19T08:50:53Z</time>
      </trkpt>
      <trkpt lat="46.34035" lon="4.85081">
        <ele>184</ele>
        <time>2024-09-19T08:50:54Z</time>
      </trkpt>
      <trkpt lat="46.34031" lon="4.8508">
        <ele>184</ele>
        <time>2024-09-19T08:50:55Z</time>
      </trkpt>
      <trkpt lat="46.34024" lon="4.85079">
        <ele>184</ele>
        <time>2024-09-19T08:50:56Z</time>
      </trkpt>
      <trkpt lat="46.34021" lon="4.85079">
        <ele>184</ele>
        <time>2024-09-19T08:50:57Z</time>
      </trkpt>
      <trkpt lat="46.34015" lon="4.85077">
        <ele>184</ele>
        <time>2024-09-19T08:50:58Z</time>
      </trkpt>
      <trkpt lat="46.34012" lon="4.85077">
        <ele>184</ele>
        <time>2024-09-19T08:50:59Z</time>
      </trkpt>
      <trkpt lat="46.34006" lon="4.85075">
        <ele>184</ele>
        <time>2024-09-19T08:51:00Z</time>
      </trkpt>
      <trkpt lat="46.34004" lon="4.85075">
        <ele>184</ele>
        <time>2024-09-19T08:51:01Z</time>
      </trkpt>
      <trkpt lat="46.33997" lon="4.85074">
        <ele>184</ele>
        <time>2024-09-19T08:51:02Z</time>
      </trkpt>
      <trkpt lat="46.33995" lon="4.85074">
        <ele>184</ele>
        <time>2024-09-19T08:51:03Z</time>
      </trkpt>
      <trkpt lat="46.33989" lon="4.85073">
        <ele>184</ele>
        <time>2024-09-19T08:51:04Z</time>
      </trkpt>
      <trkpt lat="46.33987" lon="4.85072">
        <ele>184</ele>
        <time>2024-09-19T08:51:05Z</time>
      </trkpt>
      <trkpt lat="46.33982" lon="4.85071">
        <ele>184.8</ele>
        <time>2024-09-19T08:51:06Z</time>
      </trkpt>
      <trkpt lat="46.3398" lon="4.85071">
        <ele>184.4</ele>
        <time>2024-09-19T08:51:07Z</time>
      </trkpt>
      <trkpt lat="46.33976" lon="4.8507">
        <ele>184.4</ele>
        <time>2024-09-19T08:51:08Z</time>
      </trkpt>
      <trkpt lat="46.33973" lon="4.8507">
        <ele>184.4</ele>
        <time>2024-09-19T08:51:09Z</time>
      </trkpt>
      <trkpt lat="46.33969" lon="4.8507">
        <ele>185</ele>
        <time>2024-09-19T08:51:10Z</time>
      </trkpt>
      <trkpt lat="46.33966" lon="4.8507">
        <ele>185</ele>
        <time>2024-09-19T08:51:11Z</time>
      </trkpt>
      <trkpt lat="46.33961" lon="4.85072">
        <ele>185.2</ele>
        <time>2024-09-19T08:51:12Z</time>
      </trkpt>
      <trkpt lat="46.33959" lon="4.85072">
        <ele>185.2</ele>
        <time>2024-09-19T08:51:13Z</time>
      </trkpt>
      <trkpt lat="46.33954" lon="4.85074">
        <ele>185.2</ele>
        <time>2024-09-19T08:51:14Z</time>
      </trkpt>
      <trkpt lat="46.33953" lon="4.85075">
        <ele>185.2</ele>
        <time>2024-09-19T08:51:15Z</time>
      </trkpt>
      <trkpt lat="46.33949" lon="4.85076">
        <ele>185.6</ele>
        <time>2024-09-19T08:51:16Z</time>
      </trkpt>
      <trkpt lat="46.33946" lon="4.85078">
        <ele>185.6</ele>
        <time>2024-09-19T08:51:17Z</time>
      </trkpt>
      <trkpt lat="46.3394" lon="4.85079">
        <ele>185.6</ele>
        <time>2024-09-19T08:51:18Z</time>
      </trkpt>
      <trkpt lat="46.33938" lon="4.85079">
        <ele>185.6</ele>
        <time>2024-09-19T08:51:19Z</time>
      </trkpt>
      <trkpt lat="46.33934" lon="4.8508">
        <ele>185.6</ele>
        <time>2024-09-19T08:51:20Z</time>
      </trkpt>
      <trkpt lat="46.3393" lon="4.8508">
        <ele>185.6</ele>
        <time>2024-09-19T08:51:21Z</time>
      </trkpt>
      <trkpt lat="46.33927" lon="4.8508">
        <ele>185.6</ele>
        <time>2024-09-19T08:51:22Z</time>
      </trkpt>
      <trkpt lat="46.33921" lon="4.8508">
        <ele>185.6</ele>
        <time>2024-09-19T08:51:23Z</time>
      </trkpt>
      <trkpt lat="46.33919" lon="4.8508">
        <ele>185.6</ele>
        <time>2024-09-19T08:51:24Z</time>
      </trkpt>
      <trkpt lat="46.33915" lon="4.85081">
        <ele>185.6</ele>
        <time>2024-09-19T08:51:25Z</time>
      </trkpt>
      <trkpt lat="46.33911" lon="4.85081">
        <ele>185.4</ele>
        <time>2024-09-19T08:51:26Z</time>
      </trkpt>
      <trkpt lat="46.33907" lon="4.85082">
        <ele>185.4</ele>
        <time>2024-09-19T08:51:27Z</time>
      </trkpt>
      <trkpt lat="46.33901" lon="4.85083">
        <ele>185.4</ele>
        <time>2024-09-19T08:51:28Z</time>
      </trkpt>
      <trkpt lat="46.33899" lon="4.85083">
        <ele>185.4</ele>
        <time>2024-09-19T08:51:29Z</time>
      </trkpt>
      <trkpt lat="46.33893" lon="4.85084">
        <ele>185.6</ele>
        <time>2024-09-19T08:51:30Z</time>
      </trkpt>
      <trkpt lat="46.33891" lon="4.85084">
        <ele>185.6</ele>
        <time>2024-09-19T08:51:31Z</time>
      </trkpt>
      <trkpt lat="46.33887" lon="4.85084">
        <ele>185.6</ele>
        <time>2024-09-19T08:51:32Z</time>
      </trkpt>
      <trkpt lat="46.33883" lon="4.85084">
        <ele>185.6</ele>
        <time>2024-09-19T08:51:33Z</time>
      </trkpt>
      <trkpt lat="46.33878" lon="4.85084">
        <ele>185.6</ele>
        <time>2024-09-19T08:51:34Z</time>
      </trkpt>
      <trkpt lat="46.33874" lon="4.85084">
        <ele>185.6</ele>
        <time>2024-09-19T08:51:35Z</time>
      </trkpt>
      <trkpt lat="46.3387" lon="4.85083">
        <ele>185.6</ele>
        <time>2024-09-19T08:51:36Z</time>
      </trkpt>
      <trkpt lat="46.33863" lon="4.85082">
        <ele>185.6</ele>
        <time>2024-09-19T08:51:37Z</time>
      </trkpt>
      <trkpt lat="46.33861" lon="4.85082">
        <ele>186</ele>
        <time>2024-09-19T08:51:38Z</time>
      </trkpt>
      <trkpt lat="46.33856" lon="4.85081">
        <ele>185.6</ele>
        <time>2024-09-19T08:51:39Z</time>
      </trkpt>
      <trkpt lat="46.33848" lon="4.8508">
        <ele>185.6</ele>
        <time>2024-09-19T08:51:40Z</time>
      </trkpt>
      <trkpt lat="46.33846" lon="4.85079">
        <ele>185.6</ele>
        <time>2024-09-19T08:51:41Z</time>
      </trkpt>
      <trkpt lat="46.33838" lon="4.85078">
        <ele>185.2</ele>
        <time>2024-09-19T08:51:42Z</time>
      </trkpt>
      <trkpt lat="46.33835" lon="4.85077">
        <ele>184.8</ele>
        <time>2024-09-19T08:51:43Z</time>
      </trkpt>
      <trkpt lat="46.33827" lon="4.85076">
        <ele>184.8</ele>
        <time>2024-09-19T08:51:44Z</time>
      </trkpt>
      <trkpt lat="46.33824" lon="4.85075">
        <ele>184.8</ele>
        <time>2024-09-19T08:51:45Z</time>
      </trkpt>
      <trkpt lat="46.33816" lon="4.85075">
        <ele>184.8</ele>
        <time>2024-09-19T08:51:46Z</time>
      </trkpt>
      <trkpt lat="46.33813" lon="4.85075">
        <ele>184.8</ele>
        <time>2024-09-19T08:51:47Z</time>
      </trkpt>
      <trkpt lat="46.33808" lon="4.85074">
        <ele>184.6</ele>
        <time>2024-09-19T08:51:48Z</time>
      </trkpt>
      <trkpt lat="46.33803" lon="4.85073">
        <ele>184.6</ele>
        <time>2024-09-19T08:51:49Z</time>
      </trkpt>
      <trkpt lat="46.33798" lon="4.85073">
        <ele>184.6</ele>
        <time>2024-09-19T08:51:50Z</time>
      </trkpt>
      <trkpt lat="46.33793" lon="4.85072">
        <ele>184.6</ele>
        <time>2024-09-19T08:51:51Z</time>
      </trkpt>
      <trkpt lat="46.33788" lon="4.85072">
        <ele>184.2</ele>
        <time>2024-09-19T08:51:52Z</time>
      </trkpt>
      <trkpt lat="46.33783" lon="4.85071">
        <ele>184.2</ele>
        <time>2024-09-19T08:51:53Z</time>
      </trkpt>
      <trkpt lat="46.33777" lon="4.8507">
        <ele>184.2</ele>
        <time>2024-09-19T08:51:54Z</time>
      </trkpt>
      <trkpt lat="46.3377" lon="4.85069">
        <ele>184.2</ele>
        <time>2024-09-19T08:51:55Z</time>
      </trkpt>
      <trkpt lat="46.33767" lon="4.85069">
        <ele>184.2</ele>
        <time>2024-09-19T08:51:56Z</time>
      </trkpt>
      <trkpt lat="46.3376" lon="4.85068">
        <ele>184.4</ele>
        <time>2024-09-19T08:51:57Z</time>
      </trkpt>
      <trkpt lat="46.33758" lon="4.85067">
        <ele>184.4</ele>
        <time>2024-09-19T08:51:58Z</time>
      </trkpt>
      <trkpt lat="46.3375" lon="4.85066">
        <ele>184.2</ele>
        <time>2024-09-19T08:51:59Z</time>
      </trkpt>
      <trkpt lat="46.33748" lon="4.85065">
        <ele>184.2</ele>
        <time>2024-09-19T08:52:00Z</time>
      </trkpt>
      <trkpt lat="46.33743" lon="4.85064">
        <ele>184.4</ele>
        <time>2024-09-19T08:52:01Z</time>
      </trkpt>
      <trkpt lat="46.33738" lon="4.85064">
        <ele>184.4</ele>
        <time>2024-09-19T08:52:02Z</time>
      </trkpt>
      <trkpt lat="46.33733" lon="4.85064">
        <ele>184.4</ele>
        <time>2024-09-19T08:52:03Z</time>
      </trkpt>
      <trkpt lat="46.33728" lon="4.85063">
        <ele>184.4</ele>
        <time>2024-09-19T08:52:04Z</time>
      </trkpt>
      <trkpt lat="46.33723" lon="4.85062">
        <ele>184.4</ele>
        <time>2024-09-19T08:52:05Z</time>
      </trkpt>
      <trkpt lat="46.33719" lon="4.85062">
        <ele>184.2</ele>
        <time>2024-09-19T08:52:06Z</time>
      </trkpt>
      <trkpt lat="46.33715" lon="4.85061">
        <ele>184.2</ele>
        <time>2024-09-19T08:52:07Z</time>
      </trkpt>
      <trkpt lat="46.3371" lon="4.8506">
        <ele>184.2</ele>
        <time>2024-09-19T08:52:08Z</time>
      </trkpt>
      <trkpt lat="46.33703" lon="4.8506">
        <ele>184.6</ele>
        <time>2024-09-19T08:52:09Z</time>
      </trkpt>
      <trkpt lat="46.33701" lon="4.85061">
        <ele>184.6</ele>
        <time>2024-09-19T08:52:10Z</time>
      </trkpt>
      <trkpt lat="46.33693" lon="4.85062">
        <ele>184.6</ele>
        <time>2024-09-19T08:52:11Z</time>
      </trkpt>
      <trkpt lat="46.33691" lon="4.85062">
        <ele>184.6</ele>
        <time>2024-09-19T08:52:12Z</time>
      </trkpt>
      <trkpt lat="46.33683" lon="4.85062">
        <ele>184.6</ele>
        <time>2024-09-19T08:52:13Z</time>
      </trkpt>
      <trkpt lat="46.33681" lon="4.85062">
        <ele>184.4</ele>
        <time>2024-09-19T08:52:14Z</time>
      </trkpt>
      <trkpt lat="46.33673" lon="4.85063">
        <ele>184.2</ele>
        <time>2024-09-19T08:52:15Z</time>
      </trkpt>
      <trkpt lat="46.33671" lon="4.85064">
        <ele>184.2</ele>
        <time>2024-09-19T08:52:16Z</time>
      </trkpt>
      <trkpt lat="46.33666" lon="4.85064">
        <ele>184.2</ele>
        <time>2024-09-19T08:52:17Z</time>
      </trkpt>
      <trkpt lat="46.33661" lon="4.85065">
        <ele>184.2</ele>
        <time>2024-09-19T08:52:18Z</time>
      </trkpt>
      <trkpt lat="46.33656" lon="4.85064">
        <ele>184.2</ele>
        <time>2024-09-19T08:52:19Z</time>
      </trkpt>
      <trkpt lat="46.33651" lon="4.85062">
        <ele>184.2</ele>
        <time>2024-09-19T08:52:20Z</time>
      </trkpt>
      <trkpt lat="46.33646" lon="4.85061">
        <ele>184.2</ele>
        <time>2024-09-19T08:52:21Z</time>
      </trkpt>
      <trkpt lat="46.33641" lon="4.85059">
        <ele>184.2</ele>
        <time>2024-09-19T08:52:22Z</time>
      </trkpt>
      <trkpt lat="46.33634" lon="4.85057">
        <ele>184.2</ele>
        <time>2024-09-19T08:52:23Z</time>
      </trkpt>
      <trkpt lat="46.33632" lon="4.85057">
        <ele>184.2</ele>
        <time>2024-09-19T08:52:24Z</time>
      </trkpt>
      <trkpt lat="46.33624" lon="4.85055">
        <ele>184.2</ele>
        <time>2024-09-19T08:52:25Z</time>
      </trkpt>
      <trkpt lat="46.33622" lon="4.85055">
        <ele>184.2</ele>
        <time>2024-09-19T08:52:26Z</time>
      </trkpt>
      <trkpt lat="46.33615" lon="4.85054">
        <ele>184.6</ele>
        <time>2024-09-19T08:52:27Z</time>
      </trkpt>
      <trkpt lat="46.33613" lon="4.85054">
        <ele>184.6</ele>
        <time>2024-09-19T08:52:28Z</time>
      </trkpt>
      <trkpt lat="46.33605" lon="4.85055">
        <ele>184.6</ele>
        <time>2024-09-19T08:52:29Z</time>
      </trkpt>
      <trkpt lat="46.33603" lon="4.85055">
        <ele>184.6</ele>
        <time>2024-09-19T08:52:30Z</time>
      </trkpt>
      <trkpt lat="46.33596" lon="4.85055">
        <ele>184.6</ele>
        <time>2024-09-19T08:52:31Z</time>
      </trkpt>
      <trkpt lat="46.33594" lon="4.85055">
        <ele>184.6</ele>
        <time>2024-09-19T08:52:32Z</time>
      </trkpt>
      <trkpt lat="46.3359" lon="4.85054">
        <ele>184.6</ele>
        <time>2024-09-19T08:52:33Z</time>
      </trkpt>
      <trkpt lat="46.33586" lon="4.85054">
        <ele>184.6</ele>
        <time>2024-09-19T08:52:34Z</time>
      </trkpt>
      <trkpt lat="46.33582" lon="4.85053">
        <ele>184.6</ele>
        <time>2024-09-19T08:52:35Z</time>
      </trkpt>
      <trkpt lat="46.33575" lon="4.85053">
        <ele>184.4</ele>
        <time>2024-09-19T08:52:36Z</time>
      </trkpt>
      <trkpt lat="46.33573" lon="4.85053">
        <ele>185</ele>
        <time>2024-09-19T08:52:37Z</time>
      </trkpt>
      <trkpt lat="46.33567" lon="4.85053">
        <ele>185</ele>
        <time>2024-09-19T08:52:38Z</time>
      </trkpt>
      <trkpt lat="46.33564" lon="4.85053">
        <ele>185</ele>
        <time>2024-09-19T08:52:39Z</time>
      </trkpt>
      <trkpt lat="46.33558" lon="4.85052">
        <ele>184.4</ele>
        <time>2024-09-19T08:52:40Z</time>
      </trkpt>
      <trkpt lat="46.33556" lon="4.85052">
        <ele>184.2</ele>
        <time>2024-09-19T08:52:41Z</time>
      </trkpt>
      <trkpt lat="46.33551" lon="4.85051">
        <ele>184.2</ele>
        <time>2024-09-19T08:52:42Z</time>
      </trkpt>
      <trkpt lat="46.33547" lon="4.85052">
        <ele>184.2</ele>
        <time>2024-09-19T08:52:43Z</time>
      </trkpt>
      <trkpt lat="46.3354" lon="4.85052">
        <ele>184.4</ele>
        <time>2024-09-19T08:52:44Z</time>
      </trkpt>
      <trkpt lat="46.33538" lon="4.85052">
        <ele>184.4</ele>
        <time>2024-09-19T08:52:45Z</time>
      </trkpt>
      <trkpt lat="46.33533" lon="4.85053">
        <ele>184.4</ele>
        <time>2024-09-19T08:52:46Z</time>
      </trkpt>
      <trkpt lat="46.33529" lon="4.85054">
        <ele>184.4</ele>
        <time>2024-09-19T08:52:47Z</time>
      </trkpt>
      <trkpt lat="46.33524" lon="4.85055">
        <ele>184.4</ele>
        <time>2024-09-19T08:52:48Z</time>
      </trkpt>
      <trkpt lat="46.3352" lon="4.85055">
        <ele>184.4</ele>
        <time>2024-09-19T08:52:49Z</time>
      </trkpt>
      <trkpt lat="46.33515" lon="4.85056">
        <ele>184.4</ele>
        <time>2024-09-19T08:52:50Z</time>
      </trkpt>
      <trkpt lat="46.3351" lon="4.85057">
        <ele>184.4</ele>
        <time>2024-09-19T08:52:51Z</time>
      </trkpt>
      <trkpt lat="46.33503" lon="4.85058">
        <ele>184.4</ele>
        <time>2024-09-19T08:52:52Z</time>
      </trkpt>
      <trkpt lat="46.33501" lon="4.85058">
        <ele>184.4</ele>
        <time>2024-09-19T08:52:53Z</time>
      </trkpt>
      <trkpt lat="46.33494" lon="4.85058">
        <ele>184.4</ele>
        <time>2024-09-19T08:52:54Z</time>
      </trkpt>
      <trkpt lat="46.33492" lon="4.85058">
        <ele>184.4</ele>
        <time>2024-09-19T08:52:55Z</time>
      </trkpt>
      <trkpt lat="46.33487" lon="4.85059">
        <ele>184.6</ele>
        <time>2024-09-19T08:52:56Z</time>
      </trkpt>
      <trkpt lat="46.33482" lon="4.85059">
        <ele>184.6</ele>
        <time>2024-09-19T08:52:57Z</time>
      </trkpt>
      <trkpt lat="46.33475" lon="4.8506">
        <ele>184.4</ele>
        <time>2024-09-19T08:52:58Z</time>
      </trkpt>
      <trkpt lat="46.33473" lon="4.8506">
        <ele>184.4</ele>
        <time>2024-09-19T08:52:59Z</time>
      </trkpt>
      <trkpt lat="46.33469" lon="4.85061">
        <ele>184.4</ele>
        <time>2024-09-19T08:53:00Z</time>
      </trkpt>
      <trkpt lat="46.33461" lon="4.85061">
        <ele>184.4</ele>
        <time>2024-09-19T08:53:01Z</time>
      </trkpt>
      <trkpt lat="46.33459" lon="4.85061">
        <ele>184.4</ele>
        <time>2024-09-19T08:53:02Z</time>
      </trkpt>
      <trkpt lat="46.33454" lon="4.85062">
        <ele>184.4</ele>
        <time>2024-09-19T08:53:03Z</time>
      </trkpt>
      <trkpt lat="46.3345" lon="4.85062">
        <ele>184.6</ele>
        <time>2024-09-19T08:53:04Z</time>
      </trkpt>
      <trkpt lat="46.33443" lon="4.85063">
        <ele>184.6</ele>
        <time>2024-09-19T08:53:05Z</time>
      </trkpt>
      <trkpt lat="46.3344" lon="4.85063">
        <ele>184.6</ele>
        <time>2024-09-19T08:53:06Z</time>
      </trkpt>
      <trkpt lat="46.33433" lon="4.85064">
        <ele>184.6</ele>
        <time>2024-09-19T08:53:07Z</time>
      </trkpt>
      <trkpt lat="46.33431" lon="4.85065">
        <ele>184.6</ele>
        <time>2024-09-19T08:53:08Z</time>
      </trkpt>
      <trkpt lat="46.33424" lon="4.85066">
        <ele>184.6</ele>
        <time>2024-09-19T08:53:09Z</time>
      </trkpt>
      <trkpt lat="46.33422" lon="4.85066">
        <ele>184.6</ele>
        <time>2024-09-19T08:53:10Z</time>
      </trkpt>
      <trkpt lat="46.33415" lon="4.85067">
        <ele>184.4</ele>
        <time>2024-09-19T08:53:11Z</time>
      </trkpt>
      <trkpt lat="46.33413" lon="4.85067">
        <ele>184.4</ele>
        <time>2024-09-19T08:53:12Z</time>
      </trkpt>
      <trkpt lat="46.33406" lon="4.85068">
        <ele>184.4</ele>
        <time>2024-09-19T08:53:13Z</time>
      </trkpt>
      <trkpt lat="46.33404" lon="4.85069">
        <ele>184.4</ele>
        <time>2024-09-19T08:53:14Z</time>
      </trkpt>
      <trkpt lat="46.33399" lon="4.85069">
        <ele>184.4</ele>
        <time>2024-09-19T08:53:15Z</time>
      </trkpt>
      <trkpt lat="46.33392" lon="4.8507">
        <ele>184.4</ele>
        <time>2024-09-19T08:53:16Z</time>
      </trkpt>
      <trkpt lat="46.3339" lon="4.8507">
        <ele>184.6</ele>
        <time>2024-09-19T08:53:17Z</time>
      </trkpt>
      <trkpt lat="46.33386" lon="4.8507">
        <ele>184.6</ele>
        <time>2024-09-19T08:53:18Z</time>
      </trkpt>
      <trkpt lat="46.33381" lon="4.85071">
        <ele>184.6</ele>
        <time>2024-09-19T08:53:19Z</time>
      </trkpt>
      <trkpt lat="46.33374" lon="4.85072">
        <ele>184.6</ele>
        <time>2024-09-19T08:53:20Z</time>
      </trkpt>
      <trkpt lat="46.33372" lon="4.85072">
        <ele>184.6</ele>
        <time>2024-09-19T08:53:21Z</time>
      </trkpt>
      <trkpt lat="46.33365" lon="4.85073">
        <ele>185</ele>
        <time>2024-09-19T08:53:22Z</time>
      </trkpt>
      <trkpt lat="46.33363" lon="4.85073">
        <ele>185</ele>
        <time>2024-09-19T08:53:23Z</time>
      </trkpt>
      <trkpt lat="46.33358" lon="4.85074">
        <ele>184.4</ele>
        <time>2024-09-19T08:53:24Z</time>
      </trkpt>
      <trkpt lat="46.33353" lon="4.85074">
        <ele>184.4</ele>
        <time>2024-09-19T08:53:25Z</time>
      </trkpt>
      <trkpt lat="46.33349" lon="4.85075">
        <ele>184.4</ele>
        <time>2024-09-19T08:53:26Z</time>
      </trkpt>
      <trkpt lat="46.33344" lon="4.85075">
        <ele>184.4</ele>
        <time>2024-09-19T08:53:27Z</time>
      </trkpt>
      <trkpt lat="46.33339" lon="4.85075">
        <ele>184.4</ele>
        <time>2024-09-19T08:53:28Z</time>
      </trkpt>
      <trkpt lat="46.33335" lon="4.85076">
        <ele>184.4</ele>
        <time>2024-09-19T08:53:29Z</time>
      </trkpt>
      <trkpt lat="46.3333" lon="4.85077">
        <ele>184.4</ele>
        <time>2024-09-19T08:53:30Z</time>
      </trkpt>
      <trkpt lat="46.33325" lon="4.85077">
        <ele>184.2</ele>
        <time>2024-09-19T08:53:31Z</time>
      </trkpt>
      <trkpt lat="46.3332" lon="4.85078">
        <ele>184.2</ele>
        <time>2024-09-19T08:53:32Z</time>
      </trkpt>
      <trkpt lat="46.33315" lon="4.85079">
        <ele>184.2</ele>
        <time>2024-09-19T08:53:33Z</time>
      </trkpt>
      <trkpt lat="46.33308" lon="4.85079">
        <ele>184.6</ele>
        <time>2024-09-19T08:53:34Z</time>
      </trkpt>
      <trkpt lat="46.33306" lon="4.8508">
        <ele>184.6</ele>
        <time>2024-09-19T08:53:35Z</time>
      </trkpt>
      <trkpt lat="46.33299" lon="4.8508">
        <ele>184.8</ele>
        <time>2024-09-19T08:53:36Z</time>
      </trkpt>
      <trkpt lat="46.33297" lon="4.85081">
        <ele>184.8</ele>
        <time>2024-09-19T08:53:37Z</time>
      </trkpt>
      <trkpt lat="46.3329" lon="4.85082">
        <ele>184.2</ele>
        <time>2024-09-19T08:53:38Z</time>
      </trkpt>
      <trkpt lat="46.33288" lon="4.85082">
        <ele>184.2</ele>
        <time>2024-09-19T08:53:39Z</time>
      </trkpt>
      <trkpt lat="46.33281" lon="4.85083">
        <ele>184.6</ele>
        <time>2024-09-19T08:53:40Z</time>
      </trkpt>
      <trkpt lat="46.33278" lon="4.85084">
        <ele>184.6</ele>
        <time>2024-09-19T08:53:41Z</time>
      </trkpt>
      <trkpt lat="46.33271" lon="4.85085">
        <ele>184.6</ele>
        <time>2024-09-19T08:53:42Z</time>
      </trkpt>
      <trkpt lat="46.33268" lon="4.85085">
        <ele>184.6</ele>
        <time>2024-09-19T08:53:43Z</time>
      </trkpt>
      <trkpt lat="46.33264" lon="4.85085">
        <ele>185</ele>
        <time>2024-09-19T08:53:44Z</time>
      </trkpt>
      <trkpt lat="46.33259" lon="4.85085">
        <ele>185</ele>
        <time>2024-09-19T08:53:45Z</time>
      </trkpt>
      <trkpt lat="46.33255" lon="4.85086">
        <ele>185</ele>
        <time>2024-09-19T08:53:46Z</time>
      </trkpt>
      <trkpt lat="46.33248" lon="4.85087">
        <ele>185</ele>
        <time>2024-09-19T08:53:47Z</time>
      </trkpt>
      <trkpt lat="46.33246" lon="4.85087">
        <ele>184.6</ele>
        <time>2024-09-19T08:53:48Z</time>
      </trkpt>
      <trkpt lat="46.33239" lon="4.85088">
        <ele>184.6</ele>
        <time>2024-09-19T08:53:49Z</time>
      </trkpt>
      <trkpt lat="46.33237" lon="4.85088">
        <ele>184.6</ele>
        <time>2024-09-19T08:53:50Z</time>
      </trkpt>
      <trkpt lat="46.3323" lon="4.85089">
        <ele>184.6</ele>
        <time>2024-09-19T08:53:51Z</time>
      </trkpt>
      <trkpt lat="46.33227" lon="4.85089">
        <ele>184.6</ele>
        <time>2024-09-19T08:53:52Z</time>
      </trkpt>
      <trkpt lat="46.3322" lon="4.85089">
        <ele>183.2</ele>
        <time>2024-09-19T08:53:53Z</time>
      </trkpt>
      <trkpt lat="46.33217" lon="4.85089">
        <ele>183.2</ele>
        <time>2024-09-19T08:53:54Z</time>
      </trkpt>
      <trkpt lat="46.3321" lon="4.85089">
        <ele>183.2</ele>
        <time>2024-09-19T08:53:55Z</time>
      </trkpt>
      <trkpt lat="46.33208" lon="4.85089">
        <ele>184</ele>
        <time>2024-09-19T08:53:56Z</time>
      </trkpt>
      <trkpt lat="46.332" lon="4.8509">
        <ele>184.2</ele>
        <time>2024-09-19T08:53:57Z</time>
      </trkpt>
      <trkpt lat="46.33198" lon="4.8509">
        <ele>184.2</ele>
        <time>2024-09-19T08:53:58Z</time>
      </trkpt>
      <trkpt lat="46.33193" lon="4.85089">
        <ele>184.2</ele>
        <time>2024-09-19T08:53:59Z</time>
      </trkpt>
      <trkpt lat="46.33187" lon="4.85089">
        <ele>184.2</ele>
        <time>2024-09-19T08:54:00Z</time>
      </trkpt>
      <trkpt lat="46.33182" lon="4.85089">
        <ele>184.2</ele>
        <time>2024-09-19T08:54:01Z</time>
      </trkpt>
      <trkpt lat="46.33177" lon="4.8509">
        <ele>184</ele>
        <time>2024-09-19T08:54:02Z</time>
      </trkpt>
      <trkpt lat="46.33169" lon="4.85089">
        <ele>184</ele>
        <time>2024-09-19T08:54:03Z</time>
      </trkpt>
      <trkpt lat="46.33166" lon="4.85089">
        <ele>184</ele>
        <time>2024-09-19T08:54:04Z</time>
      </trkpt>
      <trkpt lat="46.33158" lon="4.85089">
        <ele>184</ele>
        <time>2024-09-19T08:54:05Z</time>
      </trkpt>
      <trkpt lat="46.33156" lon="4.85089">
        <ele>183.6</ele>
        <time>2024-09-19T08:54:06Z</time>
      </trkpt>
      <trkpt lat="46.33151" lon="4.85088">
        <ele>183.6</ele>
        <time>2024-09-19T08:54:07Z</time>
      </trkpt>
      <trkpt lat="46.33145" lon="4.85087">
        <ele>183.6</ele>
        <time>2024-09-19T08:54:08Z</time>
      </trkpt>
      <trkpt lat="46.3314" lon="4.85086">
        <ele>183.8</ele>
        <time>2024-09-19T08:54:09Z</time>
      </trkpt>
      <trkpt lat="46.33135" lon="4.85086">
        <ele>183.8</ele>
        <time>2024-09-19T08:54:10Z</time>
      </trkpt>
      <trkpt lat="46.3313" lon="4.85086">
        <ele>183.8</ele>
        <time>2024-09-19T08:54:11Z</time>
      </trkpt>
      <trkpt lat="46.33125" lon="4.85086">
        <ele>183.8</ele>
        <time>2024-09-19T08:54:12Z</time>
      </trkpt>
      <trkpt lat="46.3312" lon="4.85085">
        <ele>183.8</ele>
        <time>2024-09-19T08:54:13Z</time>
      </trkpt>
      <trkpt lat="46.33115" lon="4.85085">
        <ele>183.8</ele>
        <time>2024-09-19T08:54:14Z</time>
      </trkpt>
      <trkpt lat="46.33109" lon="4.85084">
        <ele>183.8</ele>
        <time>2024-09-19T08:54:15Z</time>
      </trkpt>
      <trkpt lat="46.33104" lon="4.85084">
        <ele>183.8</ele>
        <time>2024-09-19T08:54:16Z</time>
      </trkpt>
      <trkpt lat="46.33097" lon="4.85083">
        <ele>183.8</ele>
        <time>2024-09-19T08:54:17Z</time>
      </trkpt>
      <trkpt lat="46.33094" lon="4.85082">
        <ele>183.8</ele>
        <time>2024-09-19T08:54:18Z</time>
      </trkpt>
      <trkpt lat="46.33087" lon="4.85081">
        <ele>183.8</ele>
        <time>2024-09-19T08:54:19Z</time>
      </trkpt>
      <trkpt lat="46.33084" lon="4.85081">
        <ele>184</ele>
        <time>2024-09-19T08:54:20Z</time>
      </trkpt>
      <trkpt lat="46.33077" lon="4.8508">
        <ele>184</ele>
        <time>2024-09-19T08:54:21Z</time>
      </trkpt>
      <trkpt lat="46.33074" lon="4.8508">
        <ele>184</ele>
        <time>2024-09-19T08:54:22Z</time>
      </trkpt>
      <trkpt lat="46.33067" lon="4.85079">
        <ele>184</ele>
        <time>2024-09-19T08:54:23Z</time>
      </trkpt>
      <trkpt lat="46.33064" lon="4.85078">
        <ele>184</ele>
        <time>2024-09-19T08:54:24Z</time>
      </trkpt>
      <trkpt lat="46.33059" lon="4.85077">
        <ele>183.6</ele>
        <time>2024-09-19T08:54:25Z</time>
      </trkpt>
      <trkpt lat="46.33054" lon="4.85076">
        <ele>183.6</ele>
        <time>2024-09-19T08:54:26Z</time>
      </trkpt>
      <trkpt lat="46.33049" lon="4.85075">
        <ele>183.6</ele>
        <time>2024-09-19T08:54:27Z</time>
      </trkpt>
      <trkpt lat="46.33044" lon="4.85075">
        <ele>184.2</ele>
        <time>2024-09-19T08:54:28Z</time>
      </trkpt>
      <trkpt lat="46.33039" lon="4.85074">
        <ele>183.6</ele>
        <time>2024-09-19T08:54:29Z</time>
      </trkpt>
      <trkpt lat="46.33031" lon="4.85073">
        <ele>183.6</ele>
        <time>2024-09-19T08:54:30Z</time>
      </trkpt>
      <trkpt lat="46.33029" lon="4.85072">
        <ele>183.6</ele>
        <time>2024-09-19T08:54:31Z</time>
      </trkpt>
      <trkpt lat="46.33021" lon="4.85071">
        <ele>183.6</ele>
        <time>2024-09-19T08:54:32Z</time>
      </trkpt>
      <trkpt lat="46.33018" lon="4.85071">
        <ele>183.6</ele>
        <time>2024-09-19T08:54:33Z</time>
      </trkpt>
      <trkpt lat="46.33011" lon="4.8507">
        <ele>183.6</ele>
        <time>2024-09-19T08:54:34Z</time>
      </trkpt>
      <trkpt lat="46.33009" lon="4.85069">
        <ele>183.6</ele>
        <time>2024-09-19T08:54:35Z</time>
      </trkpt>
      <trkpt lat="46.33001" lon="4.85067">
        <ele>183.6</ele>
        <time>2024-09-19T08:54:36Z</time>
      </trkpt>
      <trkpt lat="46.32999" lon="4.85067">
        <ele>183.6</ele>
        <time>2024-09-19T08:54:37Z</time>
      </trkpt>
      <trkpt lat="46.32992" lon="4.85066">
        <ele>183.6</ele>
        <time>2024-09-19T08:54:38Z</time>
      </trkpt>
      <trkpt lat="46.32989" lon="4.85065">
        <ele>183.6</ele>
        <time>2024-09-19T08:54:39Z</time>
      </trkpt>
      <trkpt lat="46.32982" lon="4.85063">
        <ele>183.6</ele>
        <time>2024-09-19T08:54:40Z</time>
      </trkpt>
      <trkpt lat="46.32979" lon="4.85063">
        <ele>183.6</ele>
        <time>2024-09-19T08:54:41Z</time>
      </trkpt>
      <trkpt lat="46.32974" lon="4.85062">
        <ele>183.6</ele>
        <time>2024-09-19T08:54:42Z</time>
      </trkpt>
      <trkpt lat="46.32969" lon="4.8506">
        <ele>183.6</ele>
        <time>2024-09-19T08:54:43Z</time>
      </trkpt>
      <trkpt lat="46.32964" lon="4.85059">
        <ele>183.6</ele>
        <time>2024-09-19T08:54:44Z</time>
      </trkpt>
      <trkpt lat="46.32959" lon="4.85058">
        <ele>183.6</ele>
        <time>2024-09-19T08:54:45Z</time>
      </trkpt>
      <trkpt lat="46.32952" lon="4.85055">
        <ele>183.6</ele>
        <time>2024-09-19T08:54:46Z</time>
      </trkpt>
      <trkpt lat="46.32949" lon="4.85054">
        <ele>183.8</ele>
        <time>2024-09-19T08:54:47Z</time>
      </trkpt>
      <trkpt lat="46.32944" lon="4.85053">
        <ele>183.8</ele>
        <time>2024-09-19T08:54:48Z</time>
      </trkpt>
      <trkpt lat="46.32936" lon="4.85051">
        <ele>183.8</ele>
        <time>2024-09-19T08:54:49Z</time>
      </trkpt>
      <trkpt lat="46.32934" lon="4.8505">
        <ele>183.8</ele>
        <time>2024-09-19T08:54:50Z</time>
      </trkpt>
      <trkpt lat="46.32929" lon="4.85049">
        <ele>184</ele>
        <time>2024-09-19T08:54:51Z</time>
      </trkpt>
      <trkpt lat="46.32925" lon="4.85048">
        <ele>184</ele>
        <time>2024-09-19T08:54:52Z</time>
      </trkpt>
      <trkpt lat="46.32921" lon="4.85046">
        <ele>184</ele>
        <time>2024-09-19T08:54:53Z</time>
      </trkpt>
      <trkpt lat="46.32916" lon="4.85044">
        <ele>184</ele>
        <time>2024-09-19T08:54:54Z</time>
      </trkpt>
      <trkpt lat="46.32912" lon="4.85043">
        <ele>184</ele>
        <time>2024-09-19T08:54:55Z</time>
      </trkpt>
      <trkpt lat="46.32907" lon="4.85041">
        <ele>184</ele>
        <time>2024-09-19T08:54:56Z</time>
      </trkpt>
      <trkpt lat="46.32902" lon="4.8504">
        <ele>184</ele>
        <time>2024-09-19T08:54:57Z</time>
      </trkpt>
      <trkpt lat="46.32897" lon="4.85039">
        <ele>184</ele>
        <time>2024-09-19T08:54:58Z</time>
      </trkpt>
      <trkpt lat="46.3289" lon="4.85036">
        <ele>184</ele>
        <time>2024-09-19T08:54:59Z</time>
      </trkpt>
      <trkpt lat="46.32888" lon="4.85035">
        <ele>184</ele>
        <time>2024-09-19T08:55:00Z</time>
      </trkpt>
      <trkpt lat="46.32882" lon="4.85032">
        <ele>184</ele>
        <time>2024-09-19T08:55:01Z</time>
      </trkpt>
      <trkpt lat="46.32879" lon="4.85031">
        <ele>184</ele>
        <time>2024-09-19T08:55:02Z</time>
      </trkpt>
      <trkpt lat="46.32873" lon="4.85029">
        <ele>184</ele>
        <time>2024-09-19T08:55:03Z</time>
      </trkpt>
      <trkpt lat="46.32871" lon="4.85028">
        <ele>184</ele>
        <time>2024-09-19T08:55:04Z</time>
      </trkpt>
      <trkpt lat="46.32864" lon="4.85025">
        <ele>184</ele>
        <time>2024-09-19T08:55:05Z</time>
      </trkpt>
      <trkpt lat="46.32861" lon="4.85024">
        <ele>184.2</ele>
        <time>2024-09-19T08:55:06Z</time>
      </trkpt>
      <trkpt lat="46.32855" lon="4.85021">
        <ele>184.2</ele>
        <time>2024-09-19T08:55:07Z</time>
      </trkpt>
      <trkpt lat="46.32853" lon="4.8502">
        <ele>184</ele>
        <time>2024-09-19T08:55:08Z</time>
      </trkpt>
      <trkpt lat="46.3285" lon="4.85017">
        <ele>184.2</ele>
        <time>2024-09-19T08:55:09Z</time>
      </trkpt>
      <trkpt lat="46.32846" lon="4.85013">
        <ele>184.2</ele>
        <time>2024-09-19T08:55:10Z</time>
      </trkpt>
      <trkpt lat="46.32843" lon="4.85008">
        <ele>184.2</ele>
        <time>2024-09-19T08:55:11Z</time>
      </trkpt>
      <trkpt lat="46.32839" lon="4.85">
        <ele>184.2</ele>
        <time>2024-09-19T08:55:12Z</time>
      </trkpt>
      <trkpt lat="46.32838" lon="4.84997">
        <ele>184.2</ele>
        <time>2024-09-19T08:55:13Z</time>
      </trkpt>
      <trkpt lat="46.32833" lon="4.84988">
        <ele>184.4</ele>
        <time>2024-09-19T08:55:14Z</time>
      </trkpt>
      <trkpt lat="46.32832" lon="4.84985">
        <ele>184.4</ele>
        <time>2024-09-19T08:55:15Z</time>
      </trkpt>
      <trkpt lat="46.32827" lon="4.84976">
        <ele>184.4</ele>
        <time>2024-09-19T08:55:16Z</time>
      </trkpt>
      <trkpt lat="46.32826" lon="4.84973">
        <ele>184.2</ele>
        <time>2024-09-19T08:55:17Z</time>
      </trkpt>
      <trkpt lat="46.32821" lon="4.84965">
        <ele>184.2</ele>
        <time>2024-09-19T08:55:18Z</time>
      </trkpt>
      <trkpt lat="46.32819" lon="4.84962">
        <ele>184.2</ele>
        <time>2024-09-19T08:55:19Z</time>
      </trkpt>
      <trkpt lat="46.32815" lon="4.84954">
        <ele>184.2</ele>
        <time>2024-09-19T08:55:20Z</time>
      </trkpt>
      <trkpt lat="46.32813" lon="4.84951">
        <ele>184.2</ele>
        <time>2024-09-19T08:55:21Z</time>
      </trkpt>
      <trkpt lat="46.32809" lon="4.84942">
        <ele>184.2</ele>
        <time>2024-09-19T08:55:22Z</time>
      </trkpt>
      <trkpt lat="46.32807" lon="4.84939">
        <ele>184</ele>
        <time>2024-09-19T08:55:23Z</time>
      </trkpt>
      <trkpt lat="46.32803" lon="4.84931">
        <ele>184</ele>
        <time>2024-09-19T08:55:24Z</time>
      </trkpt>
      <trkpt lat="46.32802" lon="4.84928">
        <ele>184</ele>
        <time>2024-09-19T08:55:25Z</time>
      </trkpt>
      <trkpt lat="46.32797" lon="4.8492">
        <ele>184.4</ele>
        <time>2024-09-19T08:55:26Z</time>
      </trkpt>
      <trkpt lat="46.32796" lon="4.84918">
        <ele>184.2</ele>
        <time>2024-09-19T08:55:27Z</time>
      </trkpt>
      <trkpt lat="46.32793" lon="4.84913">
        <ele>184.2</ele>
        <time>2024-09-19T08:55:28Z</time>
      </trkpt>
      <trkpt lat="46.32788" lon="4.84904">
        <ele>184.2</ele>
        <time>2024-09-19T08:55:29Z</time>
      </trkpt>
      <trkpt lat="46.32787" lon="4.84902">
        <ele>184.2</ele>
        <time>2024-09-19T08:55:30Z</time>
      </trkpt>
      <trkpt lat="46.32782" lon="4.84893">
        <ele>184</ele>
        <time>2024-09-19T08:55:31Z</time>
      </trkpt>
      <trkpt lat="46.3278" lon="4.84891">
        <ele>184</ele>
        <time>2024-09-19T08:55:32Z</time>
      </trkpt>
      <trkpt lat="46.32777" lon="4.84886">
        <ele>184</ele>
        <time>2024-09-19T08:55:33Z</time>
      </trkpt>
      <trkpt lat="46.32773" lon="4.8488">
        <ele>184</ele>
        <time>2024-09-19T08:55:34Z</time>
      </trkpt>
      <trkpt lat="46.32769" lon="4.84875">
        <ele>184</ele>
        <time>2024-09-19T08:55:35Z</time>
      </trkpt>
      <trkpt lat="46.32765" lon="4.8487">
        <ele>184</ele>
        <time>2024-09-19T08:55:36Z</time>
      </trkpt>
      <trkpt lat="46.32761" lon="4.84865">
        <ele>184</ele>
        <time>2024-09-19T08:55:37Z</time>
      </trkpt>
      <trkpt lat="46.32757" lon="4.84859">
        <ele>184</ele>
        <time>2024-09-19T08:55:38Z</time>
      </trkpt>
      <trkpt lat="46.32752" lon="4.84854">
        <ele>184</ele>
        <time>2024-09-19T08:55:39Z</time>
      </trkpt>
      <trkpt lat="46.32748" lon="4.84849">
        <ele>184</ele>
        <time>2024-09-19T08:55:40Z</time>
      </trkpt>
      <trkpt lat="46.32742" lon="4.84843">
        <ele>183.8</ele>
        <time>2024-09-19T08:55:41Z</time>
      </trkpt>
      <trkpt lat="46.32739" lon="4.84841">
        <ele>183.8</ele>
        <time>2024-09-19T08:55:42Z</time>
      </trkpt>
      <trkpt lat="46.32733" lon="4.84835">
        <ele>183.8</ele>
        <time>2024-09-19T08:55:43Z</time>
      </trkpt>
      <trkpt lat="46.3273" lon="4.84833">
        <ele>183.8</ele>
        <time>2024-09-19T08:55:44Z</time>
      </trkpt>
      <trkpt lat="46.32724" lon="4.84826">
        <ele>184</ele>
        <time>2024-09-19T08:55:45Z</time>
      </trkpt>
      <trkpt lat="46.32722" lon="4.84824">
        <ele>184</ele>
        <time>2024-09-19T08:55:46Z</time>
      </trkpt>
      <trkpt lat="46.32715" lon="4.84818">
        <ele>184</ele>
        <time>2024-09-19T08:55:47Z</time>
      </trkpt>
      <trkpt lat="46.32713" lon="4.84816">
        <ele>184</ele>
        <time>2024-09-19T08:55:48Z</time>
      </trkpt>
      <trkpt lat="46.32708" lon="4.84811">
        <ele>184</ele>
        <time>2024-09-19T08:55:49Z</time>
      </trkpt>
      <trkpt lat="46.32704" lon="4.84806">
        <ele>183.6</ele>
        <time>2024-09-19T08:55:50Z</time>
      </trkpt>
      <trkpt lat="46.327" lon="4.84801">
        <ele>183.6</ele>
        <time>2024-09-19T08:55:51Z</time>
      </trkpt>
      <trkpt lat="46.32695" lon="4.84792">
        <ele>183.6</ele>
        <time>2024-09-19T08:55:52Z</time>
      </trkpt>
      <trkpt lat="46.32693" lon="4.84789">
        <ele>183.6</ele>
        <time>2024-09-19T08:55:53Z</time>
      </trkpt>
      <trkpt lat="46.32687" lon="4.8478">
        <ele>183.6</ele>
        <time>2024-09-19T08:55:54Z</time>
      </trkpt>
      <trkpt lat="46.32686" lon="4.84777">
        <ele>183</ele>
        <time>2024-09-19T08:55:55Z</time>
      </trkpt>
      <trkpt lat="46.32681" lon="4.84768">
        <ele>183</ele>
        <time>2024-09-19T08:55:56Z</time>
      </trkpt>
      <trkpt lat="46.3268" lon="4.84765">
        <ele>183</ele>
        <time>2024-09-19T08:55:57Z</time>
      </trkpt>
      <trkpt lat="46.32675" lon="4.84756">
        <ele>183.2</ele>
        <time>2024-09-19T08:55:58Z</time>
      </trkpt>
      <trkpt lat="46.32673" lon="4.84753">
        <ele>183.2</ele>
        <time>2024-09-19T08:55:59Z</time>
      </trkpt>
      <trkpt lat="46.32669" lon="4.84744">
        <ele>183.2</ele>
        <time>2024-09-19T08:56:00Z</time>
      </trkpt>
      <trkpt lat="46.32667" lon="4.84742">
        <ele>183.2</ele>
        <time>2024-09-19T08:56:01Z</time>
      </trkpt>
      <trkpt lat="46.32662" lon="4.84734">
        <ele>183.2</ele>
        <time>2024-09-19T08:56:02Z</time>
      </trkpt>
      <trkpt lat="46.3266" lon="4.84731">
        <ele>183.2</ele>
        <time>2024-09-19T08:56:03Z</time>
      </trkpt>
      <trkpt lat="46.32655" lon="4.84723">
        <ele>183.2</ele>
        <time>2024-09-19T08:56:04Z</time>
      </trkpt>
      <trkpt lat="46.32654" lon="4.84721">
        <ele>183.2</ele>
        <time>2024-09-19T08:56:05Z</time>
      </trkpt>
      <trkpt lat="46.32651" lon="4.84716">
        <ele>183.6</ele>
        <time>2024-09-19T08:56:06Z</time>
      </trkpt>
      <trkpt lat="46.32647" lon="4.84711">
        <ele>183.6</ele>
        <time>2024-09-19T08:56:07Z</time>
      </trkpt>
      <trkpt lat="46.32644" lon="4.84706">
        <ele>183.2</ele>
        <time>2024-09-19T08:56:08Z</time>
      </trkpt>
      <trkpt lat="46.32639" lon="4.84699">
        <ele>183.2</ele>
        <time>2024-09-19T08:56:09Z</time>
      </trkpt>
      <trkpt lat="46.32638" lon="4.84697">
        <ele>183.2</ele>
        <time>2024-09-19T08:56:10Z</time>
      </trkpt>
      <trkpt lat="46.32633" lon="4.84689">
        <ele>183.4</ele>
        <time>2024-09-19T08:56:11Z</time>
      </trkpt>
      <trkpt lat="46.32632" lon="4.84686">
        <ele>183.8</ele>
        <time>2024-09-19T08:56:12Z</time>
      </trkpt>
      <trkpt lat="46.32628" lon="4.84679">
        <ele>183.8</ele>
        <time>2024-09-19T08:56:13Z</time>
      </trkpt>
      <trkpt lat="46.32626" lon="4.84677">
        <ele>183.8</ele>
        <time>2024-09-19T08:56:14Z</time>
      </trkpt>
      <trkpt lat="46.32623" lon="4.84671">
        <ele>184</ele>
        <time>2024-09-19T08:56:15Z</time>
      </trkpt>
      <trkpt lat="46.32621" lon="4.84666">
        <ele>184</ele>
        <time>2024-09-19T08:56:16Z</time>
      </trkpt>
      <trkpt lat="46.3262" lon="4.84661">
        <ele>184.2</ele>
        <time>2024-09-19T08:56:17Z</time>
      </trkpt>
      <trkpt lat="46.32619" lon="4.84655">
        <ele>184.2</ele>
        <time>2024-09-19T08:56:18Z</time>
      </trkpt>
      <trkpt lat="46.32617" lon="4.8465">
        <ele>184.2</ele>
        <time>2024-09-19T08:56:19Z</time>
      </trkpt>
      <trkpt lat="46.32616" lon="4.84645">
        <ele>184.2</ele>
        <time>2024-09-19T08:56:20Z</time>
      </trkpt>
      <trkpt lat="46.32614" lon="4.84637">
        <ele>184.6</ele>
        <time>2024-09-19T08:56:21Z</time>
      </trkpt>
      <trkpt lat="46.32613" lon="4.84635">
        <ele>184.6</ele>
        <time>2024-09-19T08:56:22Z</time>
      </trkpt>
      <trkpt lat="46.32611" lon="4.84627">
        <ele>184.6</ele>
        <time>2024-09-19T08:56:23Z</time>
      </trkpt>
      <trkpt lat="46.3261" lon="4.84624">
        <ele>184.6</ele>
        <time>2024-09-19T08:56:24Z</time>
      </trkpt>
      <trkpt lat="46.32608" lon="4.84615">
        <ele>184.6</ele>
        <time>2024-09-19T08:56:25Z</time>
      </trkpt>
      <trkpt lat="46.32608" lon="4.84612">
        <ele>184.8</ele>
        <time>2024-09-19T08:56:26Z</time>
      </trkpt>
      <trkpt lat="46.32606" lon="4.84604">
        <ele>184.8</ele>
        <time>2024-09-19T08:56:27Z</time>
      </trkpt>
      <trkpt lat="46.32606" lon="4.84601">
        <ele>184.8</ele>
        <time>2024-09-19T08:56:28Z</time>
      </trkpt>
      <trkpt lat="46.32604" lon="4.84592">
        <ele>184.8</ele>
        <time>2024-09-19T08:56:29Z</time>
      </trkpt>
      <trkpt lat="46.32604" lon="4.84589">
        <ele>184.8</ele>
        <time>2024-09-19T08:56:30Z</time>
      </trkpt>
      <trkpt lat="46.32601" lon="4.8458">
        <ele>184.8</ele>
        <time>2024-09-19T08:56:31Z</time>
      </trkpt>
      <trkpt lat="46.326" lon="4.84577">
        <ele>184.8</ele>
        <time>2024-09-19T08:56:32Z</time>
      </trkpt>
      <trkpt lat="46.32599" lon="4.84571">
        <ele>185</ele>
        <time>2024-09-19T08:56:33Z</time>
      </trkpt>
      <trkpt lat="46.32596" lon="4.84565">
        <ele>185</ele>
        <time>2024-09-19T08:56:34Z</time>
      </trkpt>
      <trkpt lat="46.32595" lon="4.84559">
        <ele>185</ele>
        <time>2024-09-19T08:56:35Z</time>
      </trkpt>
      <trkpt lat="46.32593" lon="4.84553">
        <ele>185</ele>
        <time>2024-09-19T08:56:36Z</time>
      </trkpt>
      <trkpt lat="46.32591" lon="4.84546">
        <ele>185</ele>
        <time>2024-09-19T08:56:37Z</time>
      </trkpt>
      <trkpt lat="46.3259" lon="4.84541">
        <ele>185</ele>
        <time>2024-09-19T08:56:38Z</time>
      </trkpt>
      <trkpt lat="46.32587" lon="4.84533">
        <ele>185</ele>
        <time>2024-09-19T08:56:39Z</time>
      </trkpt>
      <trkpt lat="46.32585" lon="4.84531">
        <ele>185</ele>
        <time>2024-09-19T08:56:40Z</time>
      </trkpt>
      <trkpt lat="46.32583" lon="4.84524">
        <ele>185</ele>
        <time>2024-09-19T08:56:41Z</time>
      </trkpt>
      <trkpt lat="46.32582" lon="4.84522">
        <ele>185</ele>
        <time>2024-09-19T08:56:42Z</time>
      </trkpt>
      <trkpt lat="46.3258" lon="4.84516">
        <ele>185.2</ele>
        <time>2024-09-19T08:56:43Z</time>
      </trkpt>
      <trkpt lat="46.3258" lon="4.84514">
        <ele>185.2</ele>
        <time>2024-09-19T08:56:44Z</time>
      </trkpt>
      <trkpt lat="46.32578" lon="4.84509">
        <ele>185.2</ele>
        <time>2024-09-19T08:56:45Z</time>
      </trkpt>
      <trkpt lat="46.32578" lon="4.84508">
        <ele>185.2</ele>
        <time>2024-09-19T08:56:46Z</time>
      </trkpt>
      <trkpt lat="46.32575" lon="4.84505">
        <ele>185.4</ele>
        <time>2024-09-19T08:56:47Z</time>
      </trkpt>
      <trkpt lat="46.32574" lon="4.84504">
        <ele>185.4</ele>
        <time>2024-09-19T08:56:48Z</time>
      </trkpt>
      <trkpt lat="46.32572" lon="4.84502">
        <ele>185.4</ele>
        <time>2024-09-19T08:56:49Z</time>
      </trkpt>
      <trkpt lat="46.32569" lon="4.84501">
        <ele>185.4</ele>
        <time>2024-09-19T08:56:50Z</time>
      </trkpt>
      <trkpt lat="46.32567" lon="4.84501">
        <ele>185.4</ele>
        <time>2024-09-19T08:56:51Z</time>
      </trkpt>
      <trkpt lat="46.32564" lon="4.84501">
        <ele>185.2</ele>
        <time>2024-09-19T08:56:52Z</time>
      </trkpt>
      <trkpt lat="46.3256" lon="4.84503">
        <ele>185.2</ele>
        <time>2024-09-19T08:56:53Z</time>
      </trkpt>
      <trkpt lat="46.32559" lon="4.84503">
        <ele>185.2</ele>
        <time>2024-09-19T08:56:54Z</time>
      </trkpt>
      <trkpt lat="46.32554" lon="4.84504">
        <ele>185.6</ele>
        <time>2024-09-19T08:56:55Z</time>
      </trkpt>
      <trkpt lat="46.32553" lon="4.84504">
        <ele>185.6</ele>
        <time>2024-09-19T08:56:56Z</time>
      </trkpt>
      <trkpt lat="46.32548" lon="4.84504">
        <ele>185.2</ele>
        <time>2024-09-19T08:56:57Z</time>
      </trkpt>
      <trkpt lat="46.32546" lon="4.84504">
        <ele>185.2</ele>
        <time>2024-09-19T08:56:58Z</time>
      </trkpt>
      <trkpt lat="46.3254" lon="4.84504">
        <ele>185.2</ele>
        <time>2024-09-19T08:56:59Z</time>
      </trkpt>
      <trkpt lat="46.32538" lon="4.84505">
        <ele>185.2</ele>
        <time>2024-09-19T08:57:00Z</time>
      </trkpt>
      <trkpt lat="46.32535" lon="4.84504">
        <ele>185.2</ele>
        <time>2024-09-19T08:57:01Z</time>
      </trkpt>
      <trkpt lat="46.32531" lon="4.84503">
        <ele>185.2</ele>
        <time>2024-09-19T08:57:02Z</time>
      </trkpt>
      <trkpt lat="46.32528" lon="4.84501">
        <ele>185.2</ele>
        <time>2024-09-19T08:57:03Z</time>
      </trkpt>
      <trkpt lat="46.32525" lon="4.84499">
        <ele>185.2</ele>
        <time>2024-09-19T08:57:04Z</time>
      </trkpt>
      <trkpt lat="46.32521" lon="4.84498">
        <ele>185.2</ele>
        <time>2024-09-19T08:57:05Z</time>
      </trkpt>
      <trkpt lat="46.32516" lon="4.84497">
        <ele>185.4</ele>
        <time>2024-09-19T08:57:06Z</time>
      </trkpt>
      <trkpt lat="46.32514" lon="4.84497">
        <ele>185.4</ele>
        <time>2024-09-19T08:57:07Z</time>
      </trkpt>
      <trkpt lat="46.3251" lon="4.84497">
        <ele>185.4</ele>
        <time>2024-09-19T08:57:08Z</time>
      </trkpt>
      <trkpt lat="46.32505" lon="4.84497">
        <ele>185</ele>
        <time>2024-09-19T08:57:09Z</time>
      </trkpt>
      <trkpt lat="46.32503" lon="4.84497">
        <ele>185.2</ele>
        <time>2024-09-19T08:57:10Z</time>
      </trkpt>
      <trkpt lat="46.32498" lon="4.84496">
        <ele>185.2</ele>
        <time>2024-09-19T08:57:11Z</time>
      </trkpt>
      <trkpt lat="46.32496" lon="4.84497">
        <ele>185.2</ele>
        <time>2024-09-19T08:57:12Z</time>
      </trkpt>
      <trkpt lat="46.32491" lon="4.84497">
        <ele>185.2</ele>
        <time>2024-09-19T08:57:13Z</time>
      </trkpt>
      <trkpt lat="46.32489" lon="4.84497">
        <ele>185.2</ele>
        <time>2024-09-19T08:57:14Z</time>
      </trkpt>
      <trkpt lat="46.32483" lon="4.84496">
        <ele>185.2</ele>
        <time>2024-09-19T08:57:15Z</time>
      </trkpt>
      <trkpt lat="46.32481" lon="4.84496">
        <ele>185.2</ele>
        <time>2024-09-19T08:57:16Z</time>
      </trkpt>
      <trkpt lat="46.32477" lon="4.84495">
        <ele>185.2</ele>
        <time>2024-09-19T08:57:17Z</time>
      </trkpt>
      <trkpt lat="46.32472" lon="4.84495">
        <ele>185.2</ele>
        <time>2024-09-19T08:57:18Z</time>
      </trkpt>
      <trkpt lat="46.32468" lon="4.84494">
        <ele>185.4</ele>
        <time>2024-09-19T08:57:19Z</time>
      </trkpt>
      <trkpt lat="46.32461" lon="4.84494">
        <ele>185.4</ele>
        <time>2024-09-19T08:57:20Z</time>
      </trkpt>
      <trkpt lat="46.32459" lon="4.84494">
        <ele>185.4</ele>
        <time>2024-09-19T08:57:21Z</time>
      </trkpt>
      <trkpt lat="46.32451" lon="4.84494">
        <ele>185.4</ele>
        <time>2024-09-19T08:57:22Z</time>
      </trkpt>
      <trkpt lat="46.32449" lon="4.84494">
        <ele>185.6</ele>
        <time>2024-09-19T08:57:23Z</time>
      </trkpt>
      <trkpt lat="46.32442" lon="4.84494">
        <ele>185.6</ele>
        <time>2024-09-19T08:57:24Z</time>
      </trkpt>
      <trkpt lat="46.3244" lon="4.84494">
        <ele>185.6</ele>
        <time>2024-09-19T08:57:25Z</time>
      </trkpt>
      <trkpt lat="46.32433" lon="4.84494">
        <ele>185.2</ele>
        <time>2024-09-19T08:57:26Z</time>
      </trkpt>
      <trkpt lat="46.32431" lon="4.84494">
        <ele>185.4</ele>
        <time>2024-09-19T08:57:27Z</time>
      </trkpt>
      <trkpt lat="46.32424" lon="4.84493">
        <ele>185.4</ele>
        <time>2024-09-19T08:57:28Z</time>
      </trkpt>
      <trkpt lat="46.32421" lon="4.84493">
        <ele>185.4</ele>
        <time>2024-09-19T08:57:29Z</time>
      </trkpt>
      <trkpt lat="46.32415" lon="4.84492">
        <ele>185.4</ele>
        <time>2024-09-19T08:57:30Z</time>
      </trkpt>
      <trkpt lat="46.32412" lon="4.84492">
        <ele>185.4</ele>
        <time>2024-09-19T08:57:31Z</time>
      </trkpt>
      <trkpt lat="46.32408" lon="4.84492">
        <ele>185.2</ele>
        <time>2024-09-19T08:57:32Z</time>
      </trkpt>
      <trkpt lat="46.32404" lon="4.84492">
        <ele>185.2</ele>
        <time>2024-09-19T08:57:33Z</time>
      </trkpt>
      <trkpt lat="46.32399" lon="4.84492">
        <ele>185.2</ele>
        <time>2024-09-19T08:57:34Z</time>
      </trkpt>
      <trkpt lat="46.32395" lon="4.84492">
        <ele>185.2</ele>
        <time>2024-09-19T08:57:35Z</time>
      </trkpt>
      <trkpt lat="46.3239" lon="4.84492">
        <ele>184.8</ele>
        <time>2024-09-19T08:57:36Z</time>
      </trkpt>
      <trkpt lat="46.32385" lon="4.84492">
        <ele>184.8</ele>
        <time>2024-09-19T08:57:37Z</time>
      </trkpt>
      <trkpt lat="46.32378" lon="4.84491">
        <ele>184.8</ele>
        <time>2024-09-19T08:57:38Z</time>
      </trkpt>
      <trkpt lat="46.32375" lon="4.8449">
        <ele>184.8</ele>
        <time>2024-09-19T08:57:39Z</time>
      </trkpt>
      <trkpt lat="46.32368" lon="4.84489">
        <ele>185.2</ele>
        <time>2024-09-19T08:57:40Z</time>
      </trkpt>
      <trkpt lat="46.32365" lon="4.84489">
        <ele>185</ele>
        <time>2024-09-19T08:57:41Z</time>
      </trkpt>
      <trkpt lat="46.32361" lon="4.84488">
        <ele>185</ele>
        <time>2024-09-19T08:57:42Z</time>
      </trkpt>
      <trkpt lat="46.32356" lon="4.84488">
        <ele>185</ele>
        <time>2024-09-19T08:57:43Z</time>
      </trkpt>
      <trkpt lat="46.32353" lon="4.84487">
        <ele>185.2</ele>
        <time>2024-09-19T08:57:44Z</time>
      </trkpt>
      <trkpt lat="46.32349" lon="4.84488">
        <ele>185.2</ele>
        <time>2024-09-19T08:57:45Z</time>
      </trkpt>
      <trkpt lat="46.32346" lon="4.84487">
        <ele>185.2</ele>
        <time>2024-09-19T08:57:46Z</time>
      </trkpt>
      <trkpt lat="46.32344" lon="4.84487">
        <ele>185.2</ele>
        <time>2024-09-19T08:57:47Z</time>
      </trkpt>
      <trkpt lat="46.32343" lon="4.84485">
        <ele>185.2</ele>
        <time>2024-09-19T08:57:48Z</time>
      </trkpt>
      <trkpt lat="46.32342" lon="4.84484">
        <ele>185.2</ele>
        <time>2024-09-19T08:57:49Z</time>
      </trkpt>
      <trkpt lat="46.3234" lon="4.84483">
        <ele>185.2</ele>
        <time>2024-09-19T08:57:50Z</time>
      </trkpt>
      <trkpt lat="46.3234" lon="4.84482">
        <ele>185</ele>
        <time>2024-09-19T08:57:51Z</time>
      </trkpt>
      <trkpt lat="46.32339" lon="4.84482">
        <ele>185</ele>
        <time>2024-09-19T08:57:52Z</time>
      </trkpt>
      <trkpt lat="46.32339" lon="4.84482">
        <ele>185</ele>
        <time>2024-09-19T08:57:53Z</time>
      </trkpt>
      <trkpt lat="46.32339" lon="4.84481">
        <ele>184.6</ele>
        <time>2024-09-19T08:58:06Z</time>
      </trkpt>
      <trkpt lat="46.3234" lon="4.84481">
        <ele>185</ele>
        <time>2024-09-19T08:58:07Z</time>
      </trkpt>
      <trkpt lat="46.32341" lon="4.84481">
        <ele>184.8</ele>
        <time>2024-09-19T08:58:08Z</time>
      </trkpt>
      <trkpt lat="46.32343" lon="4.8448">
        <ele>184.8</ele>
        <time>2024-09-19T08:58:09Z</time>
      </trkpt>
      <trkpt lat="46.32345" lon="4.84481">
        <ele>184.8</ele>
        <time>2024-09-19T08:58:10Z</time>
      </trkpt>
      <trkpt lat="46.32346" lon="4.84482">
        <ele>184.8</ele>
        <time>2024-09-19T08:58:11Z</time>
      </trkpt>
      <trkpt lat="46.32346" lon="4.84482">
        <ele>184.8</ele>
        <time>2024-09-19T08:58:12Z</time>
      </trkpt>
      <trkpt lat="46.32346" lon="4.84482">
        <ele>184.8</ele>
        <time>2024-09-19T08:58:13Z</time>
      </trkpt>
      <trkpt lat="46.32346" lon="4.84482">
        <ele>184.8</ele>
        <time>2024-09-19T08:58:14Z</time>
      </trkpt>
      <trkpt lat="46.32349" lon="4.84484">
        <ele>185</ele>
        <time>2024-09-19T08:58:19Z</time>
      </trkpt>
      <trkpt lat="46.32351" lon="4.84486">
        <ele>185</ele>
        <time>2024-09-19T08:58:20Z</time>
      </trkpt>
      <trkpt lat="46.32353" lon="4.84485">
        <ele>185</ele>
        <time>2024-09-19T08:58:21Z</time>
      </trkpt>
      <trkpt lat="46.32355" lon="4.84484">
        <ele>185</ele>
        <time>2024-09-19T08:58:22Z</time>
      </trkpt>
      <trkpt lat="46.32357" lon="4.84483">
        <ele>185</ele>
        <time>2024-09-19T08:58:23Z</time>
      </trkpt>
      <trkpt lat="46.32359" lon="4.8448">
        <ele>185</ele>
        <time>2024-09-19T08:58:24Z</time>
      </trkpt>
      <trkpt lat="46.32359" lon="4.84477">
        <ele>185.2</ele>
        <time>2024-09-19T08:58:25Z</time>
      </trkpt>
      <trkpt lat="46.32358" lon="4.84473">
        <ele>185.2</ele>
        <time>2024-09-19T08:58:26Z</time>
      </trkpt>
      <trkpt lat="46.32355" lon="4.8447">
        <ele>185.2</ele>
        <time>2024-09-19T08:58:27Z</time>
      </trkpt>
      <trkpt lat="46.32354" lon="4.84469">
        <ele>185.2</ele>
        <time>2024-09-19T08:58:28Z</time>
      </trkpt>
      <trkpt lat="46.32352" lon="4.84467">
        <ele>185.2</ele>
        <time>2024-09-19T08:58:29Z</time>
      </trkpt>
      <trkpt lat="46.3235" lon="4.84466">
        <ele>185.2</ele>
        <time>2024-09-19T08:58:30Z</time>
      </trkpt>
      <trkpt lat="46.32347" lon="4.84465">
        <ele>185.2</ele>
        <time>2024-09-19T08:58:31Z</time>
      </trkpt>
      <trkpt lat="46.32344" lon="4.84465">
        <ele>185.2</ele>
        <time>2024-09-19T08:58:32Z</time>
      </trkpt>
      <trkpt lat="46.32342" lon="4.84464">
        <ele>184.8</ele>
        <time>2024-09-19T08:58:33Z</time>
      </trkpt>
      <trkpt lat="46.32339" lon="4.84463">
        <ele>184.8</ele>
        <time>2024-09-19T08:58:34Z</time>
      </trkpt>
      <trkpt lat="46.32336" lon="4.84462">
        <ele>184.8</ele>
        <time>2024-09-19T08:58:35Z</time>
      </trkpt>
      <trkpt lat="46.32334" lon="4.8446">
        <ele>184.8</ele>
        <time>2024-09-19T08:58:36Z</time>
      </trkpt>
      <trkpt lat="46.32331" lon="4.84458">
        <ele>184.8</ele>
        <time>2024-09-19T08:58:37Z</time>
      </trkpt>
      <trkpt lat="46.32329" lon="4.84457">
        <ele>184.8</ele>
        <time>2024-09-19T08:58:38Z</time>
      </trkpt>
      <trkpt lat="46.32324" lon="4.84453">
        <ele>184.4</ele>
        <time>2024-09-19T08:58:39Z</time>
      </trkpt>
      <trkpt lat="46.32322" lon="4.84452">
        <ele>184.4</ele>
        <time>2024-09-19T08:58:40Z</time>
      </trkpt>
      <trkpt lat="46.32317" lon="4.8445">
        <ele>184.4</ele>
        <time>2024-09-19T08:58:41Z</time>
      </trkpt>
      <trkpt lat="46.32315" lon="4.84449">
        <ele>184.4</ele>
        <time>2024-09-19T08:58:42Z</time>
      </trkpt>
      <trkpt lat="46.32309" lon="4.84448">
        <ele>184.8</ele>
        <time>2024-09-19T08:58:43Z</time>
      </trkpt>
      <trkpt lat="46.32307" lon="4.84447">
        <ele>184.8</ele>
        <time>2024-09-19T08:58:44Z</time>
      </trkpt>
      <trkpt lat="46.32301" lon="4.84446">
        <ele>184.8</ele>
        <time>2024-09-19T08:58:45Z</time>
      </trkpt>
      <trkpt lat="46.32299" lon="4.84445">
        <ele>184.8</ele>
        <time>2024-09-19T08:58:46Z</time>
      </trkpt>
      <trkpt lat="46.32293" lon="4.84448">
        <ele>184.4</ele>
        <time>2024-09-19T08:58:47Z</time>
      </trkpt>
      <trkpt lat="46.32291" lon="4.8445">
        <ele>185.2</ele>
        <time>2024-09-19T08:58:48Z</time>
      </trkpt>
      <trkpt lat="46.32288" lon="4.84453">
        <ele>185.2</ele>
        <time>2024-09-19T08:58:49Z</time>
      </trkpt>
      <trkpt lat="46.32286" lon="4.84457">
        <ele>185.2</ele>
        <time>2024-09-19T08:58:50Z</time>
      </trkpt>
      <trkpt lat="46.32284" lon="4.84461">
        <ele>185.2</ele>
        <time>2024-09-19T08:58:51Z</time>
      </trkpt>
      <trkpt lat="46.32282" lon="4.84464">
        <ele>185.4</ele>
        <time>2024-09-19T08:58:52Z</time>
      </trkpt>
      <trkpt lat="46.32281" lon="4.84466">
        <ele>185.4</ele>
        <time>2024-09-19T08:58:53Z</time>
      </trkpt>
      <trkpt lat="46.32279" lon="4.84468">
        <ele>185.4</ele>
        <time>2024-09-19T08:58:54Z</time>
      </trkpt>
      <trkpt lat="46.32278" lon="4.84469">
        <ele>185.4</ele>
        <time>2024-09-19T08:58:55Z</time>
      </trkpt>
      <trkpt lat="46.32278" lon="4.8447">
        <ele>185.4</ele>
        <time>2024-09-19T08:58:56Z</time>
      </trkpt>
      <trkpt lat="46.32277" lon="4.84472">
        <ele>185.2</ele>
        <time>2024-09-19T08:58:57Z</time>
      </trkpt>
      <trkpt lat="46.32276" lon="4.84473">
        <ele>185.2</ele>
        <time>2024-09-19T08:58:58Z</time>
      </trkpt>
      <trkpt lat="46.32276" lon="4.84473">
        <ele>185.2</ele>
        <time>2024-09-19T08:58:59Z</time>
      </trkpt>
      <trkpt lat="46.32275" lon="4.84474">
        <ele>185</ele>
        <time>2024-09-19T08:59:00Z</time>
      </trkpt>
      <trkpt lat="46.32273" lon="4.84474">
        <ele>185</ele>
        <time>2024-09-19T08:59:01Z</time>
      </trkpt>
      <trkpt lat="46.3227" lon="4.84474">
        <ele>185</ele>
        <time>2024-09-19T08:59:02Z</time>
      </trkpt>
      <trkpt lat="46.32269" lon="4.84474">
        <ele>185</ele>
        <time>2024-09-19T08:59:03Z</time>
      </trkpt>
      <trkpt lat="46.32267" lon="4.84474">
        <ele>185</ele>
        <time>2024-09-19T08:59:04Z</time>
      </trkpt>
      <trkpt lat="46.32265" lon="4.84474">
        <ele>185</ele>
        <time>2024-09-19T08:59:05Z</time>
      </trkpt>
      <trkpt lat="46.32263" lon="4.84475">
        <ele>185</ele>
        <time>2024-09-19T08:59:06Z</time>
      </trkpt>
      <trkpt lat="46.3226" lon="4.84475">
        <ele>185</ele>
        <time>2024-09-19T08:59:07Z</time>
      </trkpt>
      <trkpt lat="46.32257" lon="4.84474">
        <ele>185</ele>
        <time>2024-09-19T08:59:08Z</time>
      </trkpt>
      <trkpt lat="46.32254" lon="4.84473">
        <ele>185</ele>
        <time>2024-09-19T08:59:09Z</time>
      </trkpt>
      <trkpt lat="46.3225" lon="4.84473">
        <ele>185</ele>
        <time>2024-09-19T08:59:10Z</time>
      </trkpt>
      <trkpt lat="46.32246" lon="4.84473">
        <ele>185</ele>
        <time>2024-09-19T08:59:11Z</time>
      </trkpt>
      <trkpt lat="46.3224" lon="4.84474">
        <ele>185</ele>
        <time>2024-09-19T08:59:12Z</time>
      </trkpt>
      <trkpt lat="46.32238" lon="4.84474">
        <ele>185</ele>
        <time>2024-09-19T08:59:13Z</time>
      </trkpt>
      <trkpt lat="46.32233" lon="4.84474">
        <ele>185</ele>
        <time>2024-09-19T08:59:14Z</time>
      </trkpt>
      <trkpt lat="46.32228" lon="4.84474">
        <ele>185</ele>
        <time>2024-09-19T08:59:15Z</time>
      </trkpt>
      <trkpt lat="46.32223" lon="4.84475">
        <ele>185</ele>
        <time>2024-09-19T08:59:16Z</time>
      </trkpt>
      <trkpt lat="46.32218" lon="4.84476">
        <ele>185</ele>
        <time>2024-09-19T08:59:17Z</time>
      </trkpt>
      <trkpt lat="46.32214" lon="4.84478">
        <ele>185</ele>
        <time>2024-09-19T08:59:18Z</time>
      </trkpt>
      <trkpt lat="46.32209" lon="4.8448">
        <ele>185.4</ele>
        <time>2024-09-19T08:59:19Z</time>
      </trkpt>
      <trkpt lat="46.32205" lon="4.84482">
        <ele>185.2</ele>
        <time>2024-09-19T08:59:20Z</time>
      </trkpt>
      <trkpt lat="46.322" lon="4.84483">
        <ele>185.2</ele>
        <time>2024-09-19T08:59:21Z</time>
      </trkpt>
      <trkpt lat="46.32193" lon="4.84485">
        <ele>185.2</ele>
        <time>2024-09-19T08:59:22Z</time>
      </trkpt>
      <trkpt lat="46.32191" lon="4.84486">
        <ele>185.2</ele>
        <time>2024-09-19T08:59:23Z</time>
      </trkpt>
      <trkpt lat="46.32184" lon="4.84487">
        <ele>185.2</ele>
        <time>2024-09-19T08:59:24Z</time>
      </trkpt>
      <trkpt lat="46.32182" lon="4.84488">
        <ele>185.2</ele>
        <time>2024-09-19T08:59:25Z</time>
      </trkpt>
      <trkpt lat="46.32175" lon="4.84489">
        <ele>185.2</ele>
        <time>2024-09-19T08:59:26Z</time>
      </trkpt>
      <trkpt lat="46.32173" lon="4.84489">
        <ele>185.2</ele>
        <time>2024-09-19T08:59:27Z</time>
      </trkpt>
      <trkpt lat="46.32166" lon="4.8449">
        <ele>185.4</ele>
        <time>2024-09-19T08:59:28Z</time>
      </trkpt>
      <trkpt lat="46.32164" lon="4.84491">
        <ele>185.4</ele>
        <time>2024-09-19T08:59:29Z</time>
      </trkpt>
      <trkpt lat="46.32161" lon="4.84494">
        <ele>185.4</ele>
        <time>2024-09-19T08:59:30Z</time>
      </trkpt>
      <trkpt lat="46.32159" lon="4.84499">
        <ele>185.4</ele>
        <time>2024-09-19T08:59:31Z</time>
      </trkpt>
      <trkpt lat="46.32157" lon="4.84503">
        <ele>185.4</ele>
        <time>2024-09-19T08:59:32Z</time>
      </trkpt>
      <trkpt lat="46.32155" lon="4.84506">
        <ele>185.6</ele>
        <time>2024-09-19T08:59:33Z</time>
      </trkpt>
      <trkpt lat="46.32153" lon="4.84509">
        <ele>185.6</ele>
        <time>2024-09-19T08:59:34Z</time>
      </trkpt>
      <trkpt lat="46.32149" lon="4.84512">
        <ele>185.6</ele>
        <time>2024-09-19T08:59:35Z</time>
      </trkpt>
      <trkpt lat="46.32148" lon="4.84514">
        <ele>185.6</ele>
        <time>2024-09-19T08:59:36Z</time>
      </trkpt>
      <trkpt lat="46.32145" lon="4.84518">
        <ele>185.6</ele>
        <time>2024-09-19T08:59:37Z</time>
      </trkpt>
      <trkpt lat="46.32144" lon="4.8452">
        <ele>185.6</ele>
        <time>2024-09-19T08:59:38Z</time>
      </trkpt>
      <trkpt lat="46.32141" lon="4.84525">
        <ele>185.6</ele>
        <time>2024-09-19T08:59:39Z</time>
      </trkpt>
      <trkpt lat="46.32141" lon="4.84527">
        <ele>185.6</ele>
        <time>2024-09-19T08:59:40Z</time>
      </trkpt>
      <trkpt lat="46.32138" lon="4.84532">
        <ele>185.6</ele>
        <time>2024-09-19T08:59:41Z</time>
      </trkpt>
      <trkpt lat="46.32137" lon="4.84533">
        <ele>185.6</ele>
        <time>2024-09-19T08:59:42Z</time>
      </trkpt>
      <trkpt lat="46.32134" lon="4.84539">
        <ele>185.6</ele>
        <time>2024-09-19T08:59:43Z</time>
      </trkpt>
      <trkpt lat="46.32133" lon="4.84541">
        <ele>185.6</ele>
        <time>2024-09-19T08:59:44Z</time>
      </trkpt>
      <trkpt lat="46.32131" lon="4.84549">
        <ele>185.6</ele>
        <time>2024-09-19T08:59:45Z</time>
      </trkpt>
      <trkpt lat="46.3213" lon="4.84552">
        <ele>185.4</ele>
        <time>2024-09-19T08:59:46Z</time>
      </trkpt>
      <trkpt lat="46.32127" lon="4.8456">
        <ele>185.4</ele>
        <time>2024-09-19T08:59:47Z</time>
      </trkpt>
      <trkpt lat="46.32127" lon="4.84562">
        <ele>185.4</ele>
        <time>2024-09-19T08:59:48Z</time>
      </trkpt>
      <trkpt lat="46.32124" lon="4.84568">
        <ele>185</ele>
        <time>2024-09-19T08:59:49Z</time>
      </trkpt>
      <trkpt lat="46.32122" lon="4.84572">
        <ele>184.8</ele>
        <time>2024-09-19T08:59:50Z</time>
      </trkpt>
      <trkpt lat="46.3212" lon="4.84577">
        <ele>184.8</ele>
        <time>2024-09-19T08:59:51Z</time>
      </trkpt>
      <trkpt lat="46.32118" lon="4.8458">
        <ele>184.8</ele>
        <time>2024-09-19T08:59:52Z</time>
      </trkpt>
      <trkpt lat="46.32112" lon="4.8458">
        <ele>184.8</ele>
        <time>2024-09-19T08:59:53Z</time>
      </trkpt>
      <trkpt lat="46.3211" lon="4.84579">
        <ele>184</ele>
        <time>2024-09-19T08:59:54Z</time>
      </trkpt>
      <trkpt lat="46.32105" lon="4.84576">
        <ele>184.2</ele>
        <time>2024-09-19T08:59:55Z</time>
      </trkpt>
      <trkpt lat="46.32103" lon="4.84574">
        <ele>184.2</ele>
        <time>2024-09-19T08:59:56Z</time>
      </trkpt>
      <trkpt lat="46.32099" lon="4.84571">
        <ele>184.2</ele>
        <time>2024-09-19T08:59:57Z</time>
      </trkpt>
      <trkpt lat="46.32093" lon="4.84566">
        <ele>184.2</ele>
        <time>2024-09-19T08:59:58Z</time>
      </trkpt>
      <trkpt lat="46.32091" lon="4.84564">
        <ele>183.6</ele>
        <time>2024-09-19T08:59:59Z</time>
      </trkpt>
      <trkpt lat="46.32087" lon="4.84561">
        <ele>183.6</ele>
        <time>2024-09-19T09:00:00Z</time>
      </trkpt>
      <trkpt lat="46.32083" lon="4.84559">
        <ele>183.6</ele>
        <time>2024-09-19T09:00:01Z</time>
      </trkpt>
      <trkpt lat="46.32078" lon="4.84555">
        <ele>183.6</ele>
        <time>2024-09-19T09:00:02Z</time>
      </trkpt>
      <trkpt lat="46.32072" lon="4.8455">
        <ele>183.6</ele>
        <time>2024-09-19T09:00:03Z</time>
      </trkpt>
      <trkpt lat="46.32069" lon="4.84548">
        <ele>183.6</ele>
        <time>2024-09-19T09:00:04Z</time>
      </trkpt>
      <trkpt lat="46.32062" lon="4.84543">
        <ele>183.4</ele>
        <time>2024-09-19T09:00:05Z</time>
      </trkpt>
      <trkpt lat="46.3206" lon="4.84541">
        <ele>183.4</ele>
        <time>2024-09-19T09:00:06Z</time>
      </trkpt>
      <trkpt lat="46.32052" lon="4.84536">
        <ele>183.4</ele>
        <time>2024-09-19T09:00:07Z</time>
      </trkpt>
      <trkpt lat="46.3205" lon="4.84534">
        <ele>183.4</ele>
        <time>2024-09-19T09:00:08Z</time>
      </trkpt>
      <trkpt lat="46.32043" lon="4.84529">
        <ele>183.2</ele>
        <time>2024-09-19T09:00:09Z</time>
      </trkpt>
      <trkpt lat="46.32041" lon="4.84528">
        <ele>183.2</ele>
        <time>2024-09-19T09:00:10Z</time>
      </trkpt>
      <trkpt lat="46.32034" lon="4.84524">
        <ele>183.2</ele>
        <time>2024-09-19T09:00:11Z</time>
      </trkpt>
      <trkpt lat="46.32032" lon="4.84522">
        <ele>183.4</ele>
        <time>2024-09-19T09:00:12Z</time>
      </trkpt>
      <trkpt lat="46.32026" lon="4.84517">
        <ele>183.4</ele>
        <time>2024-09-19T09:00:13Z</time>
      </trkpt>
      <trkpt lat="46.32024" lon="4.84515">
        <ele>183.4</ele>
        <time>2024-09-19T09:00:14Z</time>
      </trkpt>
      <trkpt lat="46.32018" lon="4.8451">
        <ele>183.4</ele>
        <time>2024-09-19T09:00:15Z</time>
      </trkpt>
      <trkpt lat="46.32017" lon="4.84509">
        <ele>183.4</ele>
        <time>2024-09-19T09:00:16Z</time>
      </trkpt>
      <trkpt lat="46.32013" lon="4.84506">
        <ele>183.4</ele>
        <time>2024-09-19T09:00:17Z</time>
      </trkpt>
      <trkpt lat="46.32009" lon="4.84503">
        <ele>183.4</ele>
        <time>2024-09-19T09:00:18Z</time>
      </trkpt>
      <trkpt lat="46.32004" lon="4.845">
        <ele>183.4</ele>
        <time>2024-09-19T09:00:19Z</time>
      </trkpt>
      <trkpt lat="46.31998" lon="4.84496">
        <ele>183.4</ele>
        <time>2024-09-19T09:00:20Z</time>
      </trkpt>
      <trkpt lat="46.31996" lon="4.84494">
        <ele>183.6</ele>
        <time>2024-09-19T09:00:21Z</time>
      </trkpt>
      <trkpt lat="46.31989" lon="4.84489">
        <ele>183.6</ele>
        <time>2024-09-19T09:00:22Z</time>
      </trkpt>
      <trkpt lat="46.31987" lon="4.84488">
        <ele>183.6</ele>
        <time>2024-09-19T09:00:23Z</time>
      </trkpt>
      <trkpt lat="46.31981" lon="4.84483">
        <ele>183.6</ele>
        <time>2024-09-19T09:00:24Z</time>
      </trkpt>
      <trkpt lat="46.31979" lon="4.84481">
        <ele>183</ele>
        <time>2024-09-19T09:00:25Z</time>
      </trkpt>
      <trkpt lat="46.31972" lon="4.84476">
        <ele>183.4</ele>
        <time>2024-09-19T09:00:26Z</time>
      </trkpt>
      <trkpt lat="46.3197" lon="4.84475">
        <ele>183.4</ele>
        <time>2024-09-19T09:00:27Z</time>
      </trkpt>
      <trkpt lat="46.31965" lon="4.84472">
        <ele>183.4</ele>
        <time>2024-09-19T09:00:28Z</time>
      </trkpt>
      <trkpt lat="46.31961" lon="4.8447">
        <ele>183.4</ele>
        <time>2024-09-19T09:00:29Z</time>
      </trkpt>
      <trkpt lat="46.31954" lon="4.84465">
        <ele>183.8</ele>
        <time>2024-09-19T09:00:30Z</time>
      </trkpt>
      <trkpt lat="46.31951" lon="4.84464">
        <ele>183.2</ele>
        <time>2024-09-19T09:00:31Z</time>
      </trkpt>
      <trkpt lat="46.31944" lon="4.8446">
        <ele>183.2</ele>
        <time>2024-09-19T09:00:32Z</time>
      </trkpt>
      <trkpt lat="46.31942" lon="4.84458">
        <ele>183.2</ele>
        <time>2024-09-19T09:00:33Z</time>
      </trkpt>
      <trkpt lat="46.31935" lon="4.84453">
        <ele>183.4</ele>
        <time>2024-09-19T09:00:34Z</time>
      </trkpt>
      <trkpt lat="46.31933" lon="4.84451">
        <ele>183.4</ele>
        <time>2024-09-19T09:00:35Z</time>
      </trkpt>
      <trkpt lat="46.31927" lon="4.84445">
        <ele>183.4</ele>
        <time>2024-09-19T09:00:36Z</time>
      </trkpt>
      <trkpt lat="46.31925" lon="4.84443">
        <ele>183.4</ele>
        <time>2024-09-19T09:00:37Z</time>
      </trkpt>
      <trkpt lat="46.31919" lon="4.84437">
        <ele>183.4</ele>
        <time>2024-09-19T09:00:38Z</time>
      </trkpt>
      <trkpt lat="46.31917" lon="4.84435">
        <ele>182.8</ele>
        <time>2024-09-19T09:00:39Z</time>
      </trkpt>
      <trkpt lat="46.31913" lon="4.84431">
        <ele>183</ele>
        <time>2024-09-19T09:00:40Z</time>
      </trkpt>
      <trkpt lat="46.3191" lon="4.84427">
        <ele>183</ele>
        <time>2024-09-19T09:00:41Z</time>
      </trkpt>
      <trkpt lat="46.31906" lon="4.84424">
        <ele>183</ele>
        <time>2024-09-19T09:00:42Z</time>
      </trkpt>
      <trkpt lat="46.31903" lon="4.8442">
        <ele>183</ele>
        <time>2024-09-19T09:00:43Z</time>
      </trkpt>
      <trkpt lat="46.31899" lon="4.84417">
        <ele>183.2</ele>
        <time>2024-09-19T09:00:44Z</time>
      </trkpt>
      <trkpt lat="46.31896" lon="4.84414">
        <ele>183.4</ele>
        <time>2024-09-19T09:00:45Z</time>
      </trkpt>
      <trkpt lat="46.31894" lon="4.84412">
        <ele>183.4</ele>
        <time>2024-09-19T09:00:46Z</time>
      </trkpt>
      <trkpt lat="46.31892" lon="4.84411">
        <ele>183.4</ele>
        <time>2024-09-19T09:00:47Z</time>
      </trkpt>
      <trkpt lat="46.31891" lon="4.8441">
        <ele>183</ele>
        <time>2024-09-19T09:00:48Z</time>
      </trkpt>
      <trkpt lat="46.3189" lon="4.8441">
        <ele>183</ele>
        <time>2024-09-19T09:00:49Z</time>
      </trkpt>
      <trkpt lat="46.3189" lon="4.8441">
        <ele>183</ele>
        <time>2024-09-19T09:00:50Z</time>
      </trkpt>
      <trkpt lat="46.31886" lon="4.84405">
        <ele>183</ele>
        <time>2024-09-19T09:01:23Z</time>
      </trkpt>
      <trkpt lat="46.31886" lon="4.84403">
        <ele>183</ele>
        <time>2024-09-19T09:01:24Z</time>
      </trkpt>
      <trkpt lat="46.31885" lon="4.84402">
        <ele>183</ele>
        <time>2024-09-19T09:01:25Z</time>
      </trkpt>
      <trkpt lat="46.31884" lon="4.84401">
        <ele>183</ele>
        <time>2024-09-19T09:01:26Z</time>
      </trkpt>
      <trkpt lat="46.31882" lon="4.844">
        <ele>183.2</ele>
        <time>2024-09-19T09:01:27Z</time>
      </trkpt>
      <trkpt lat="46.3188" lon="4.84398">
        <ele>183.2</ele>
        <time>2024-09-19T09:01:28Z</time>
      </trkpt>
      <trkpt lat="46.31877" lon="4.84396">
        <ele>183.2</ele>
        <time>2024-09-19T09:01:29Z</time>
      </trkpt>
      <trkpt lat="46.31873" lon="4.84391">
        <ele>183.2</ele>
        <time>2024-09-19T09:01:30Z</time>
      </trkpt>
      <trkpt lat="46.31872" lon="4.8439">
        <ele>183.2</ele>
        <time>2024-09-19T09:01:31Z</time>
      </trkpt>
      <trkpt lat="46.31868" lon="4.84386">
        <ele>183</ele>
        <time>2024-09-19T09:01:32Z</time>
      </trkpt>
      <trkpt lat="46.31866" lon="4.84384">
        <ele>183</ele>
        <time>2024-09-19T09:01:33Z</time>
      </trkpt>
      <trkpt lat="46.31861" lon="4.84379">
        <ele>183</ele>
        <time>2024-09-19T09:01:34Z</time>
      </trkpt>
      <trkpt lat="46.3186" lon="4.84377">
        <ele>183</ele>
        <time>2024-09-19T09:01:35Z</time>
      </trkpt>
      <trkpt lat="46.31854" lon="4.84372">
        <ele>183</ele>
        <time>2024-09-19T09:01:36Z</time>
      </trkpt>
      <trkpt lat="46.31852" lon="4.84371">
        <ele>183.2</ele>
        <time>2024-09-19T09:01:37Z</time>
      </trkpt>
      <trkpt lat="46.31846" lon="4.84365">
        <ele>183.2</ele>
        <time>2024-09-19T09:01:38Z</time>
      </trkpt>
      <trkpt lat="46.31844" lon="4.84363">
        <ele>183.2</ele>
        <time>2024-09-19T09:01:39Z</time>
      </trkpt>
      <trkpt lat="46.3184" lon="4.84358">
        <ele>183.2</ele>
        <time>2024-09-19T09:01:40Z</time>
      </trkpt>
      <trkpt lat="46.31835" lon="4.84353">
        <ele>183.4</ele>
        <time>2024-09-19T09:01:41Z</time>
      </trkpt>
      <trkpt lat="46.3183" lon="4.84348">
        <ele>183.4</ele>
        <time>2024-09-19T09:01:42Z</time>
      </trkpt>
      <trkpt lat="46.31826" lon="4.84343">
        <ele>183.4</ele>
        <time>2024-09-19T09:01:43Z</time>
      </trkpt>
      <trkpt lat="46.31821" lon="4.84338">
        <ele>182.8</ele>
        <time>2024-09-19T09:01:44Z</time>
      </trkpt>
      <trkpt lat="46.31817" lon="4.84333">
        <ele>183</ele>
        <time>2024-09-19T09:01:45Z</time>
      </trkpt>
      <trkpt lat="46.31812" lon="4.84328">
        <ele>183</ele>
        <time>2024-09-19T09:01:46Z</time>
      </trkpt>
      <trkpt lat="46.31808" lon="4.84323">
        <ele>183</ele>
        <time>2024-09-19T09:01:47Z</time>
      </trkpt>
      <trkpt lat="46.31801" lon="4.84316">
        <ele>183</ele>
        <time>2024-09-19T09:01:48Z</time>
      </trkpt>
      <trkpt lat="46.31798" lon="4.84314">
        <ele>183</ele>
        <time>2024-09-19T09:01:49Z</time>
      </trkpt>
      <trkpt lat="46.31794" lon="4.84309">
        <ele>183.2</ele>
        <time>2024-09-19T09:01:50Z</time>
      </trkpt>
      <trkpt lat="46.31787" lon="4.84302">
        <ele>183.2</ele>
        <time>2024-09-19T09:01:51Z</time>
      </trkpt>
      <trkpt lat="46.31785" lon="4.843">
        <ele>183.2</ele>
        <time>2024-09-19T09:01:52Z</time>
      </trkpt>
      <trkpt lat="46.3178" lon="4.84295">
        <ele>183.2</ele>
        <time>2024-09-19T09:01:53Z</time>
      </trkpt>
      <trkpt lat="46.31776" lon="4.84291">
        <ele>183.2</ele>
        <time>2024-09-19T09:01:54Z</time>
      </trkpt>
      <trkpt lat="46.31772" lon="4.84287">
        <ele>183.2</ele>
        <time>2024-09-19T09:01:55Z</time>
      </trkpt>
      <trkpt lat="46.31767" lon="4.84283">
        <ele>183.2</ele>
        <time>2024-09-19T09:01:56Z</time>
      </trkpt>
      <trkpt lat="46.31763" lon="4.84278">
        <ele>183.2</ele>
        <time>2024-09-19T09:01:57Z</time>
      </trkpt>
      <trkpt lat="46.31759" lon="4.84274">
        <ele>183.2</ele>
        <time>2024-09-19T09:01:58Z</time>
      </trkpt>
      <trkpt lat="46.31754" lon="4.84269">
        <ele>183.2</ele>
        <time>2024-09-19T09:01:59Z</time>
      </trkpt>
      <trkpt lat="46.31747" lon="4.84262">
        <ele>183.2</ele>
        <time>2024-09-19T09:02:00Z</time>
      </trkpt>
      <trkpt lat="46.31745" lon="4.8426">
        <ele>183.2</ele>
        <time>2024-09-19T09:02:01Z</time>
      </trkpt>
      <trkpt lat="46.31739" lon="4.84253">
        <ele>183.2</ele>
        <time>2024-09-19T09:02:02Z</time>
      </trkpt>
      <trkpt lat="46.31737" lon="4.84251">
        <ele>183.2</ele>
        <time>2024-09-19T09:02:03Z</time>
      </trkpt>
      <trkpt lat="46.3173" lon="4.84245">
        <ele>183.2</ele>
        <time>2024-09-19T09:02:04Z</time>
      </trkpt>
      <trkpt lat="46.31728" lon="4.84243">
        <ele>183.2</ele>
        <time>2024-09-19T09:02:05Z</time>
      </trkpt>
      <trkpt lat="46.31722" lon="4.84237">
        <ele>183.2</ele>
        <time>2024-09-19T09:02:06Z</time>
      </trkpt>
      <trkpt lat="46.3172" lon="4.84236">
        <ele>183.2</ele>
        <time>2024-09-19T09:02:07Z</time>
      </trkpt>
      <trkpt lat="46.31715" lon="4.84229">
        <ele>183.4</ele>
        <time>2024-09-19T09:02:08Z</time>
      </trkpt>
      <trkpt lat="46.31713" lon="4.84227">
        <ele>183.4</ele>
        <time>2024-09-19T09:02:09Z</time>
      </trkpt>
      <trkpt lat="46.31709" lon="4.84224">
        <ele>183.4</ele>
        <time>2024-09-19T09:02:10Z</time>
      </trkpt>
      <trkpt lat="46.31704" lon="4.8422">
        <ele>183.4</ele>
        <time>2024-09-19T09:02:11Z</time>
      </trkpt>
      <trkpt lat="46.31702" lon="4.84218">
        <ele>183.2</ele>
        <time>2024-09-19T09:02:12Z</time>
      </trkpt>
      <trkpt lat="46.31696" lon="4.84214">
        <ele>183</ele>
        <time>2024-09-19T09:02:13Z</time>
      </trkpt>
      <trkpt lat="46.31695" lon="4.84213">
        <ele>183</ele>
        <time>2024-09-19T09:02:14Z</time>
      </trkpt>
      <trkpt lat="46.31689" lon="4.84209">
        <ele>183</ele>
        <time>2024-09-19T09:02:15Z</time>
      </trkpt>
      <trkpt lat="46.31687" lon="4.84208">
        <ele>183</ele>
        <time>2024-09-19T09:02:16Z</time>
      </trkpt>
      <trkpt lat="46.31682" lon="4.84203">
        <ele>182.4</ele>
        <time>2024-09-19T09:02:17Z</time>
      </trkpt>
      <trkpt lat="46.3168" lon="4.84201">
        <ele>182.4</ele>
        <time>2024-09-19T09:02:18Z</time>
      </trkpt>
      <trkpt lat="46.31674" lon="4.84197">
        <ele>182.4</ele>
        <time>2024-09-19T09:02:19Z</time>
      </trkpt>
      <trkpt lat="46.31672" lon="4.84196">
        <ele>182.8</ele>
        <time>2024-09-19T09:02:20Z</time>
      </trkpt>
      <trkpt lat="46.31666" lon="4.84192">
        <ele>182.8</ele>
        <time>2024-09-19T09:02:21Z</time>
      </trkpt>
      <trkpt lat="46.31664" lon="4.84191">
        <ele>182.8</ele>
        <time>2024-09-19T09:02:22Z</time>
      </trkpt>
      <trkpt lat="46.31658" lon="4.84187">
        <ele>182.8</ele>
        <time>2024-09-19T09:02:23Z</time>
      </trkpt>
      <trkpt lat="46.31656" lon="4.84186">
        <ele>182.8</ele>
        <time>2024-09-19T09:02:24Z</time>
      </trkpt>
      <trkpt lat="46.31652" lon="4.84183">
        <ele>182.6</ele>
        <time>2024-09-19T09:02:25Z</time>
      </trkpt>
      <trkpt lat="46.31648" lon="4.8418">
        <ele>182.6</ele>
        <time>2024-09-19T09:02:26Z</time>
      </trkpt>
      <trkpt lat="46.31642" lon="4.84176">
        <ele>182.6</ele>
        <time>2024-09-19T09:02:27Z</time>
      </trkpt>
      <trkpt lat="46.3164" lon="4.84175">
        <ele>182.6</ele>
        <time>2024-09-19T09:02:28Z</time>
      </trkpt>
      <trkpt lat="46.31634" lon="4.84171">
        <ele>182.6</ele>
        <time>2024-09-19T09:02:29Z</time>
      </trkpt>
      <trkpt lat="46.31633" lon="4.84169">
        <ele>182.6</ele>
        <time>2024-09-19T09:02:30Z</time>
      </trkpt>
      <trkpt lat="46.31627" lon="4.84166">
        <ele>182.6</ele>
        <time>2024-09-19T09:02:31Z</time>
      </trkpt>
      <trkpt lat="46.31625" lon="4.84164">
        <ele>182.6</ele>
        <time>2024-09-19T09:02:32Z</time>
      </trkpt>
      <trkpt lat="46.3162" lon="4.84161">
        <ele>182.6</ele>
        <time>2024-09-19T09:02:33Z</time>
      </trkpt>
      <trkpt lat="46.31618" lon="4.8416">
        <ele>182.6</ele>
        <time>2024-09-19T09:02:34Z</time>
      </trkpt>
      <trkpt lat="46.31614" lon="4.84158">
        <ele>182.4</ele>
        <time>2024-09-19T09:02:35Z</time>
      </trkpt>
      <trkpt lat="46.31611" lon="4.84155">
        <ele>182.4</ele>
        <time>2024-09-19T09:02:36Z</time>
      </trkpt>
      <trkpt lat="46.31605" lon="4.84151">
        <ele>182.4</ele>
        <time>2024-09-19T09:02:37Z</time>
      </trkpt>
      <trkpt lat="46.31603" lon="4.8415">
        <ele>182.4</ele>
        <time>2024-09-19T09:02:38Z</time>
      </trkpt>
      <trkpt lat="46.316" lon="4.84147">
        <ele>182.8</ele>
        <time>2024-09-19T09:02:39Z</time>
      </trkpt>
      <trkpt lat="46.31596" lon="4.84145">
        <ele>182.8</ele>
        <time>2024-09-19T09:02:40Z</time>
      </trkpt>
      <trkpt lat="46.31593" lon="4.84143">
        <ele>182.8</ele>
        <time>2024-09-19T09:02:41Z</time>
      </trkpt>
      <trkpt lat="46.31589" lon="4.84141">
        <ele>182.8</ele>
        <time>2024-09-19T09:02:42Z</time>
      </trkpt>
      <trkpt lat="46.31584" lon="4.84137">
        <ele>182.8</ele>
        <time>2024-09-19T09:02:43Z</time>
      </trkpt>
      <trkpt lat="46.31582" lon="4.84136">
        <ele>182.8</ele>
        <time>2024-09-19T09:02:44Z</time>
      </trkpt>
      <trkpt lat="46.31577" lon="4.84133">
        <ele>182.6</ele>
        <time>2024-09-19T09:02:45Z</time>
      </trkpt>
      <trkpt lat="46.31575" lon="4.84133">
        <ele>182.6</ele>
        <time>2024-09-19T09:02:46Z</time>
      </trkpt>
      <trkpt lat="46.31569" lon="4.84131">
        <ele>182.6</ele>
        <time>2024-09-19T09:02:47Z</time>
      </trkpt>
      <trkpt lat="46.31567" lon="4.8413">
        <ele>183</ele>
        <time>2024-09-19T09:02:48Z</time>
      </trkpt>
      <trkpt lat="46.31564" lon="4.84128">
        <ele>182.6</ele>
        <time>2024-09-19T09:02:49Z</time>
      </trkpt>
      <trkpt lat="46.31561" lon="4.84125">
        <ele>182.6</ele>
        <time>2024-09-19T09:02:50Z</time>
      </trkpt>
      <trkpt lat="46.31558" lon="4.84122">
        <ele>182.6</ele>
        <time>2024-09-19T09:02:51Z</time>
      </trkpt>
      <trkpt lat="46.31556" lon="4.84119">
        <ele>183</ele>
        <time>2024-09-19T09:02:52Z</time>
      </trkpt>
      <trkpt lat="46.31553" lon="4.84119">
        <ele>183</ele>
        <time>2024-09-19T09:02:53Z</time>
      </trkpt>
      <trkpt lat="46.31552" lon="4.8412">
        <ele>183</ele>
        <time>2024-09-19T09:02:54Z</time>
      </trkpt>
      <trkpt lat="46.31551" lon="4.84123">
        <ele>183</ele>
        <time>2024-09-19T09:02:55Z</time>
      </trkpt>
      <trkpt lat="46.31552" lon="4.84125">
        <ele>183</ele>
        <time>2024-09-19T09:02:56Z</time>
      </trkpt>
      <trkpt lat="46.31553" lon="4.84126">
        <ele>182.8</ele>
        <time>2024-09-19T09:02:57Z</time>
      </trkpt>
      <trkpt lat="46.31555" lon="4.84126">
        <ele>182.8</ele>
        <time>2024-09-19T09:02:58Z</time>
      </trkpt>
      <trkpt lat="46.31554" lon="4.84125">
        <ele>182.8</ele>
        <time>2024-09-19T09:02:59Z</time>
      </trkpt>
      <trkpt lat="46.31554" lon="4.84125">
        <ele>182.8</ele>
        <time>2024-09-19T09:03:00Z</time>
      </trkpt>
      <trkpt lat="46.31554" lon="4.84124">
        <ele>182.8</ele>
        <time>2024-09-19T09:03:01Z</time>
      </trkpt>
      <trkpt lat="46.31554" lon="4.84123">
        <ele>183.6</ele>
        <time>2024-09-19T09:04:26Z</time>
      </trkpt>
      <trkpt lat="46.31554" lon="4.84122">
        <ele>183.6</ele>
        <time>2024-09-19T09:04:27Z</time>
      </trkpt>
      <trkpt lat="46.31554" lon="4.84121">
        <ele>183.6</ele>
        <time>2024-09-19T09:04:28Z</time>
      </trkpt>
      <trkpt lat="46.31552" lon="4.84121">
        <ele>183.8</ele>
        <time>2024-09-19T09:04:29Z</time>
      </trkpt>
      <trkpt lat="46.31549" lon="4.8412">
        <ele>182.6</ele>
        <time>2024-09-19T09:04:30Z</time>
      </trkpt>
      <trkpt lat="46.31546" lon="4.84119">
        <ele>182.6</ele>
        <time>2024-09-19T09:04:31Z</time>
      </trkpt>
      <trkpt lat="46.31543" lon="4.84118">
        <ele>182.6</ele>
        <time>2024-09-19T09:04:32Z</time>
      </trkpt>
      <trkpt lat="46.3154" lon="4.84116">
        <ele>182.6</ele>
        <time>2024-09-19T09:04:33Z</time>
      </trkpt>
      <trkpt lat="46.31537" lon="4.84114">
        <ele>183.6</ele>
        <time>2024-09-19T09:04:34Z</time>
      </trkpt>
      <trkpt lat="46.31532" lon="4.84109">
        <ele>183.6</ele>
        <time>2024-09-19T09:04:35Z</time>
      </trkpt>
      <trkpt lat="46.3153" lon="4.84108">
        <ele>183.6</ele>
        <time>2024-09-19T09:04:36Z</time>
      </trkpt>
      <trkpt lat="46.31525" lon="4.84104">
        <ele>183.6</ele>
        <time>2024-09-19T09:04:37Z</time>
      </trkpt>
      <trkpt lat="46.31523" lon="4.84102">
        <ele>183.4</ele>
        <time>2024-09-19T09:04:38Z</time>
      </trkpt>
      <trkpt lat="46.31519" lon="4.84099">
        <ele>183.2</ele>
        <time>2024-09-19T09:04:39Z</time>
      </trkpt>
      <trkpt lat="46.31515" lon="4.84097">
        <ele>183.2</ele>
        <time>2024-09-19T09:04:40Z</time>
      </trkpt>
      <trkpt lat="46.31511" lon="4.84094">
        <ele>183.2</ele>
        <time>2024-09-19T09:04:41Z</time>
      </trkpt>
      <trkpt lat="46.31507" lon="4.84092">
        <ele>183.2</ele>
        <time>2024-09-19T09:04:42Z</time>
      </trkpt>
      <trkpt lat="46.31502" lon="4.8409">
        <ele>183.2</ele>
        <time>2024-09-19T09:04:43Z</time>
      </trkpt>
      <trkpt lat="46.31499" lon="4.84087">
        <ele>183.2</ele>
        <time>2024-09-19T09:04:44Z</time>
      </trkpt>
      <trkpt lat="46.31495" lon="4.84085">
        <ele>183.2</ele>
        <time>2024-09-19T09:04:45Z</time>
      </trkpt>
      <trkpt lat="46.31492" lon="4.84082">
        <ele>183.2</ele>
        <time>2024-09-19T09:04:46Z</time>
      </trkpt>
      <trkpt lat="46.31488" lon="4.8408">
        <ele>183.2</ele>
        <time>2024-09-19T09:04:47Z</time>
      </trkpt>
      <trkpt lat="46.31485" lon="4.84077">
        <ele>183.2</ele>
        <time>2024-09-19T09:04:48Z</time>
      </trkpt>
      <trkpt lat="46.31481" lon="4.84073">
        <ele>183.2</ele>
        <time>2024-09-19T09:04:49Z</time>
      </trkpt>
      <trkpt lat="46.31479" lon="4.84072">
        <ele>183.2</ele>
        <time>2024-09-19T09:04:50Z</time>
      </trkpt>
      <trkpt lat="46.31477" lon="4.84067">
        <ele>183.2</ele>
        <time>2024-09-19T09:04:51Z</time>
      </trkpt>
      <trkpt lat="46.31477" lon="4.84065">
        <ele>183.4</ele>
        <time>2024-09-19T09:04:52Z</time>
      </trkpt>
      <trkpt lat="46.31475" lon="4.8406">
        <ele>183.6</ele>
        <time>2024-09-19T09:04:53Z</time>
      </trkpt>
      <trkpt lat="46.31475" lon="4.84058">
        <ele>183.6</ele>
        <time>2024-09-19T09:04:54Z</time>
      </trkpt>
      <trkpt lat="46.31474" lon="4.84054">
        <ele>183.6</ele>
        <time>2024-09-19T09:04:55Z</time>
      </trkpt>
      <trkpt lat="46.31472" lon="4.84051">
        <ele>183.6</ele>
        <time>2024-09-19T09:04:56Z</time>
      </trkpt>
      <trkpt lat="46.31471" lon="4.84047">
        <ele>184.2</ele>
        <time>2024-09-19T09:04:57Z</time>
      </trkpt>
      <trkpt lat="46.3147" lon="4.84044">
        <ele>184.2</ele>
        <time>2024-09-19T09:04:58Z</time>
      </trkpt>
      <trkpt lat="46.31468" lon="4.84039">
        <ele>184.2</ele>
        <time>2024-09-19T09:04:59Z</time>
      </trkpt>
      <trkpt lat="46.31466" lon="4.84034">
        <ele>184.2</ele>
        <time>2024-09-19T09:05:00Z</time>
      </trkpt>
      <trkpt lat="46.31465" lon="4.84032">
        <ele>184.6</ele>
        <time>2024-09-19T09:05:01Z</time>
      </trkpt>
      <trkpt lat="46.31461" lon="4.84029">
        <ele>184.6</ele>
        <time>2024-09-19T09:05:02Z</time>
      </trkpt>
      <trkpt lat="46.3146" lon="4.84028">
        <ele>184.6</ele>
        <time>2024-09-19T09:05:03Z</time>
      </trkpt>
      <trkpt lat="46.31455" lon="4.84027">
        <ele>184.6</ele>
        <time>2024-09-19T09:05:04Z</time>
      </trkpt>
      <trkpt lat="46.31454" lon="4.84027">
        <ele>184.6</ele>
        <time>2024-09-19T09:05:05Z</time>
      </trkpt>
      <trkpt lat="46.31449" lon="4.84026">
        <ele>185.2</ele>
        <time>2024-09-19T09:05:06Z</time>
      </trkpt>
      <trkpt lat="46.31447" lon="4.84026">
        <ele>185.2</ele>
        <time>2024-09-19T09:05:07Z</time>
      </trkpt>
      <trkpt lat="46.31441" lon="4.84025">
        <ele>185.2</ele>
        <time>2024-09-19T09:05:08Z</time>
      </trkpt>
      <trkpt lat="46.31439" lon="4.84025">
        <ele>185.2</ele>
        <time>2024-09-19T09:05:09Z</time>
      </trkpt>
      <trkpt lat="46.31435" lon="4.84024">
        <ele>185.2</ele>
        <time>2024-09-19T09:05:10Z</time>
      </trkpt>
      <trkpt lat="46.31431" lon="4.84023">
        <ele>185.6</ele>
        <time>2024-09-19T09:05:11Z</time>
      </trkpt>
      <trkpt lat="46.31428" lon="4.84021">
        <ele>185.6</ele>
        <time>2024-09-19T09:05:12Z</time>
      </trkpt>
      <trkpt lat="46.31425" lon="4.84019">
        <ele>185.6</ele>
        <time>2024-09-19T09:05:13Z</time>
      </trkpt>
      <trkpt lat="46.31422" lon="4.84017">
        <ele>186</ele>
        <time>2024-09-19T09:05:14Z</time>
      </trkpt>
      <trkpt lat="46.31419" lon="4.84016">
        <ele>186.2</ele>
        <time>2024-09-19T09:05:15Z</time>
      </trkpt>
      <trkpt lat="46.31417" lon="4.84014">
        <ele>186.2</ele>
        <time>2024-09-19T09:05:16Z</time>
      </trkpt>
      <trkpt lat="46.31414" lon="4.84013">
        <ele>186.2</ele>
        <time>2024-09-19T09:05:17Z</time>
      </trkpt>
      <trkpt lat="46.31409" lon="4.84012">
        <ele>186.2</ele>
        <time>2024-09-19T09:05:18Z</time>
      </trkpt>
      <trkpt lat="46.31408" lon="4.84012">
        <ele>186.2</ele>
        <time>2024-09-19T09:05:19Z</time>
      </trkpt>
      <trkpt lat="46.31403" lon="4.8401">
        <ele>186.2</ele>
        <time>2024-09-19T09:05:20Z</time>
      </trkpt>
      <trkpt lat="46.31401" lon="4.84009">
        <ele>186.2</ele>
        <time>2024-09-19T09:05:21Z</time>
      </trkpt>
      <trkpt lat="46.31397" lon="4.84008">
        <ele>186.2</ele>
        <time>2024-09-19T09:05:22Z</time>
      </trkpt>
      <trkpt lat="46.31393" lon="4.84006">
        <ele>186.2</ele>
        <time>2024-09-19T09:05:23Z</time>
      </trkpt>
      <trkpt lat="46.3139" lon="4.84005">
        <ele>186.2</ele>
        <time>2024-09-19T09:05:24Z</time>
      </trkpt>
      <trkpt lat="46.31386" lon="4.84004">
        <ele>186.2</ele>
        <time>2024-09-19T09:05:25Z</time>
      </trkpt>
      <trkpt lat="46.31383" lon="4.84003">
        <ele>186.2</ele>
        <time>2024-09-19T09:05:26Z</time>
      </trkpt>
      <trkpt lat="46.31379" lon="4.84001">
        <ele>186.2</ele>
        <time>2024-09-19T09:05:27Z</time>
      </trkpt>
      <trkpt lat="46.31375" lon="4.84">
        <ele>186.2</ele>
        <time>2024-09-19T09:05:28Z</time>
      </trkpt>
      <trkpt lat="46.31371" lon="4.83999">
        <ele>186.2</ele>
        <time>2024-09-19T09:05:29Z</time>
      </trkpt>
      <trkpt lat="46.31367" lon="4.83998">
        <ele>186.2</ele>
        <time>2024-09-19T09:05:30Z</time>
      </trkpt>
      <trkpt lat="46.31363" lon="4.83997">
        <ele>186.2</ele>
        <time>2024-09-19T09:05:31Z</time>
      </trkpt>
      <trkpt lat="46.31357" lon="4.83994">
        <ele>186.2</ele>
        <time>2024-09-19T09:05:32Z</time>
      </trkpt>
      <trkpt lat="46.31355" lon="4.83993">
        <ele>186.4</ele>
        <time>2024-09-19T09:05:33Z</time>
      </trkpt>
      <trkpt lat="46.31349" lon="4.83993">
        <ele>186.2</ele>
        <time>2024-09-19T09:05:34Z</time>
      </trkpt>
      <trkpt lat="46.31347" lon="4.83994">
        <ele>186.2</ele>
        <time>2024-09-19T09:05:35Z</time>
      </trkpt>
      <trkpt lat="46.3134" lon="4.83994">
        <ele>186.2</ele>
        <time>2024-09-19T09:05:36Z</time>
      </trkpt>
      <trkpt lat="46.31337" lon="4.83994">
        <ele>186.2</ele>
        <time>2024-09-19T09:05:37Z</time>
      </trkpt>
      <trkpt lat="46.3133" lon="4.83993">
        <ele>186.2</ele>
        <time>2024-09-19T09:05:38Z</time>
      </trkpt>
      <trkpt lat="46.31328" lon="4.83992">
        <ele>186.6</ele>
        <time>2024-09-19T09:05:39Z</time>
      </trkpt>
      <trkpt lat="46.31323" lon="4.83991">
        <ele>186.6</ele>
        <time>2024-09-19T09:05:40Z</time>
      </trkpt>
      <trkpt lat="46.31319" lon="4.83989">
        <ele>186.6</ele>
        <time>2024-09-19T09:05:41Z</time>
      </trkpt>
      <trkpt lat="46.31314" lon="4.83987">
        <ele>186.2</ele>
        <time>2024-09-19T09:05:42Z</time>
      </trkpt>
      <trkpt lat="46.31307" lon="4.83984">
        <ele>186.2</ele>
        <time>2024-09-19T09:05:43Z</time>
      </trkpt>
      <trkpt lat="46.31305" lon="4.83983">
        <ele>186.2</ele>
        <time>2024-09-19T09:05:44Z</time>
      </trkpt>
      <trkpt lat="46.31297" lon="4.8398">
        <ele>186.2</ele>
        <time>2024-09-19T09:05:45Z</time>
      </trkpt>
      <trkpt lat="46.31295" lon="4.83979">
        <ele>186.2</ele>
        <time>2024-09-19T09:05:46Z</time>
      </trkpt>
      <trkpt lat="46.31288" lon="4.83976">
        <ele>186.2</ele>
        <time>2024-09-19T09:05:47Z</time>
      </trkpt>
      <trkpt lat="46.31286" lon="4.83974">
        <ele>186</ele>
        <time>2024-09-19T09:05:48Z</time>
      </trkpt>
      <trkpt lat="46.3128" lon="4.8397">
        <ele>186</ele>
        <time>2024-09-19T09:05:49Z</time>
      </trkpt>
      <trkpt lat="46.31278" lon="4.83969">
        <ele>186</ele>
        <time>2024-09-19T09:05:50Z</time>
      </trkpt>
      <trkpt lat="46.31271" lon="4.83965">
        <ele>186</ele>
        <time>2024-09-19T09:05:51Z</time>
      </trkpt>
      <trkpt lat="46.31269" lon="4.83964">
        <ele>186.2</ele>
        <time>2024-09-19T09:05:52Z</time>
      </trkpt>
      <trkpt lat="46.31263" lon="4.83959">
        <ele>186.2</ele>
        <time>2024-09-19T09:05:53Z</time>
      </trkpt>
      <trkpt lat="46.31261" lon="4.83957">
        <ele>186.2</ele>
        <time>2024-09-19T09:05:54Z</time>
      </trkpt>
      <trkpt lat="46.31256" lon="4.83954">
        <ele>185.8</ele>
        <time>2024-09-19T09:05:55Z</time>
      </trkpt>
      <trkpt lat="46.31252" lon="4.83951">
        <ele>186.2</ele>
        <time>2024-09-19T09:05:56Z</time>
      </trkpt>
      <trkpt lat="46.31248" lon="4.83948">
        <ele>186.2</ele>
        <time>2024-09-19T09:05:57Z</time>
      </trkpt>
      <trkpt lat="46.31243" lon="4.83945">
        <ele>186.2</ele>
        <time>2024-09-19T09:05:58Z</time>
      </trkpt>
      <trkpt lat="46.31239" lon="4.83942">
        <ele>186.2</ele>
        <time>2024-09-19T09:05:59Z</time>
      </trkpt>
      <trkpt lat="46.31235" lon="4.83939">
        <ele>186</ele>
        <time>2024-09-19T09:06:00Z</time>
      </trkpt>
      <trkpt lat="46.3123" lon="4.83936">
        <ele>186.2</ele>
        <time>2024-09-19T09:06:01Z</time>
      </trkpt>
      <trkpt lat="46.31226" lon="4.83932">
        <ele>186.2</ele>
        <time>2024-09-19T09:06:02Z</time>
      </trkpt>
      <trkpt lat="46.31219" lon="4.83927">
        <ele>186.2</ele>
        <time>2024-09-19T09:06:03Z</time>
      </trkpt>
      <trkpt lat="46.31217" lon="4.83926">
        <ele>186.2</ele>
        <time>2024-09-19T09:06:04Z</time>
      </trkpt>
      <trkpt lat="46.31213" lon="4.83923">
        <ele>185.4</ele>
        <time>2024-09-19T09:06:05Z</time>
      </trkpt>
      <trkpt lat="46.31209" lon="4.8392">
        <ele>185.4</ele>
        <time>2024-09-19T09:06:06Z</time>
      </trkpt>
      <trkpt lat="46.31205" lon="4.83918">
        <ele>185.4</ele>
        <time>2024-09-19T09:06:07Z</time>
      </trkpt>
      <trkpt lat="46.31201" lon="4.83915">
        <ele>185.4</ele>
        <time>2024-09-19T09:06:08Z</time>
      </trkpt>
      <trkpt lat="46.31198" lon="4.83912">
        <ele>185.4</ele>
        <time>2024-09-19T09:06:09Z</time>
      </trkpt>
      <trkpt lat="46.31194" lon="4.83909">
        <ele>185.8</ele>
        <time>2024-09-19T09:06:10Z</time>
      </trkpt>
      <trkpt lat="46.31191" lon="4.83907">
        <ele>186</ele>
        <time>2024-09-19T09:06:11Z</time>
      </trkpt>
      <trkpt lat="46.31188" lon="4.83904">
        <ele>186</ele>
        <time>2024-09-19T09:06:12Z</time>
      </trkpt>
      <trkpt lat="46.31183" lon="4.839">
        <ele>186</ele>
        <time>2024-09-19T09:06:13Z</time>
      </trkpt>
      <trkpt lat="46.31181" lon="4.83899">
        <ele>186</ele>
        <time>2024-09-19T09:06:14Z</time>
      </trkpt>
      <trkpt lat="46.31175" lon="4.83895">
        <ele>185.6</ele>
        <time>2024-09-19T09:06:15Z</time>
      </trkpt>
      <trkpt lat="46.31174" lon="4.83893">
        <ele>185.6</ele>
        <time>2024-09-19T09:06:16Z</time>
      </trkpt>
      <trkpt lat="46.31168" lon="4.83889">
        <ele>185.6</ele>
        <time>2024-09-19T09:06:17Z</time>
      </trkpt>
      <trkpt lat="46.31166" lon="4.83887">
        <ele>185.6</ele>
        <time>2024-09-19T09:06:18Z</time>
      </trkpt>
      <trkpt lat="46.31161" lon="4.83882">
        <ele>185.4</ele>
        <time>2024-09-19T09:06:19Z</time>
      </trkpt>
      <trkpt lat="46.31159" lon="4.83881">
        <ele>185.4</ele>
        <time>2024-09-19T09:06:20Z</time>
      </trkpt>
      <trkpt lat="46.31154" lon="4.83876">
        <ele>185.4</ele>
        <time>2024-09-19T09:06:21Z</time>
      </trkpt>
      <trkpt lat="46.31152" lon="4.83875">
        <ele>185.4</ele>
        <time>2024-09-19T09:06:22Z</time>
      </trkpt>
      <trkpt lat="46.31149" lon="4.83871">
        <ele>185.6</ele>
        <time>2024-09-19T09:06:23Z</time>
      </trkpt>
      <trkpt lat="46.31146" lon="4.83867">
        <ele>185.8</ele>
        <time>2024-09-19T09:06:24Z</time>
      </trkpt>
      <trkpt lat="46.31142" lon="4.83864">
        <ele>185.8</ele>
        <time>2024-09-19T09:06:25Z</time>
      </trkpt>
      <trkpt lat="46.31136" lon="4.8386">
        <ele>185.8</ele>
        <time>2024-09-19T09:06:26Z</time>
      </trkpt>
      <trkpt lat="46.31134" lon="4.83859">
        <ele>185.8</ele>
        <time>2024-09-19T09:06:27Z</time>
      </trkpt>
      <trkpt lat="46.3113" lon="4.83857">
        <ele>185.8</ele>
        <time>2024-09-19T09:06:28Z</time>
      </trkpt>
      <trkpt lat="46.31124" lon="4.83854">
        <ele>185.8</ele>
        <time>2024-09-19T09:06:29Z</time>
      </trkpt>
      <trkpt lat="46.31121" lon="4.83854">
        <ele>185.8</ele>
        <time>2024-09-19T09:06:30Z</time>
      </trkpt>
      <trkpt lat="46.31114" lon="4.83851">
        <ele>185.8</ele>
        <time>2024-09-19T09:06:31Z</time>
      </trkpt>
      <trkpt lat="46.31112" lon="4.83851">
        <ele>186</ele>
        <time>2024-09-19T09:06:32Z</time>
      </trkpt>
      <trkpt lat="46.31105" lon="4.83848">
        <ele>186</ele>
        <time>2024-09-19T09:06:33Z</time>
      </trkpt>
      <trkpt lat="46.31103" lon="4.83847">
        <ele>186</ele>
        <time>2024-09-19T09:06:34Z</time>
      </trkpt>
      <trkpt lat="46.31096" lon="4.83845">
        <ele>185.8</ele>
        <time>2024-09-19T09:06:35Z</time>
      </trkpt>
      <trkpt lat="46.31094" lon="4.83844">
        <ele>185.8</ele>
        <time>2024-09-19T09:06:36Z</time>
      </trkpt>
      <trkpt lat="46.31087" lon="4.83841">
        <ele>185.8</ele>
        <time>2024-09-19T09:06:37Z</time>
      </trkpt>
      <trkpt lat="46.31085" lon="4.83841">
        <ele>185.8</ele>
        <time>2024-09-19T09:06:38Z</time>
      </trkpt>
      <trkpt lat="46.3108" lon="4.83839">
        <ele>185.8</ele>
        <time>2024-09-19T09:06:39Z</time>
      </trkpt>
      <trkpt lat="46.31076" lon="4.83837">
        <ele>185.8</ele>
        <time>2024-09-19T09:06:40Z</time>
      </trkpt>
      <trkpt lat="46.31071" lon="4.83835">
        <ele>186</ele>
        <time>2024-09-19T09:06:41Z</time>
      </trkpt>
      <trkpt lat="46.31066" lon="4.83833">
        <ele>186</ele>
        <time>2024-09-19T09:06:42Z</time>
      </trkpt>
      <trkpt lat="46.31059" lon="4.83831">
        <ele>186</ele>
        <time>2024-09-19T09:06:43Z</time>
      </trkpt>
      <trkpt lat="46.31057" lon="4.8383">
        <ele>186</ele>
        <time>2024-09-19T09:06:44Z</time>
      </trkpt>
      <trkpt lat="46.3105" lon="4.83827">
        <ele>186</ele>
        <time>2024-09-19T09:06:45Z</time>
      </trkpt>
      <trkpt lat="46.31047" lon="4.83826">
        <ele>186</ele>
        <time>2024-09-19T09:06:46Z</time>
      </trkpt>
      <trkpt lat="46.31043" lon="4.83824">
        <ele>186</ele>
        <time>2024-09-19T09:06:47Z</time>
      </trkpt>
      <trkpt lat="46.31038" lon="4.83822">
        <ele>186</ele>
        <time>2024-09-19T09:06:48Z</time>
      </trkpt>
      <trkpt lat="46.31033" lon="4.8382">
        <ele>186</ele>
        <time>2024-09-19T09:06:49Z</time>
      </trkpt>
      <trkpt lat="46.31029" lon="4.83818">
        <ele>185.6</ele>
        <time>2024-09-19T09:06:50Z</time>
      </trkpt>
      <trkpt lat="46.31024" lon="4.83817">
        <ele>185.6</ele>
        <time>2024-09-19T09:06:51Z</time>
      </trkpt>
      <trkpt lat="46.31019" lon="4.83815">
        <ele>185.6</ele>
        <time>2024-09-19T09:06:52Z</time>
      </trkpt>
      <trkpt lat="46.31014" lon="4.83813">
        <ele>185.6</ele>
        <time>2024-09-19T09:06:53Z</time>
      </trkpt>
      <trkpt lat="46.31009" lon="4.83811">
        <ele>186</ele>
        <time>2024-09-19T09:06:54Z</time>
      </trkpt>
      <trkpt lat="46.31005" lon="4.83809">
        <ele>185.4</ele>
        <time>2024-09-19T09:06:55Z</time>
      </trkpt>
      <trkpt lat="46.31" lon="4.83807">
        <ele>185.4</ele>
        <time>2024-09-19T09:06:56Z</time>
      </trkpt>
      <trkpt lat="46.30993" lon="4.83805">
        <ele>185.4</ele>
        <time>2024-09-19T09:06:57Z</time>
      </trkpt>
      <trkpt lat="46.30991" lon="4.83804">
        <ele>185.4</ele>
        <time>2024-09-19T09:06:58Z</time>
      </trkpt>
      <trkpt lat="46.30984" lon="4.83802">
        <ele>186</ele>
        <time>2024-09-19T09:06:59Z</time>
      </trkpt>
      <trkpt lat="46.30982" lon="4.83802">
        <ele>186</ele>
        <time>2024-09-19T09:07:00Z</time>
      </trkpt>
      <trkpt lat="46.30975" lon="4.83803">
        <ele>186</ele>
        <time>2024-09-19T09:07:01Z</time>
      </trkpt>
      <trkpt lat="46.30973" lon="4.83803">
        <ele>186</ele>
        <time>2024-09-19T09:07:02Z</time>
      </trkpt>
      <trkpt lat="46.30966" lon="4.83804">
        <ele>186.4</ele>
        <time>2024-09-19T09:07:03Z</time>
      </trkpt>
      <trkpt lat="46.30964" lon="4.83804">
        <ele>186.2</ele>
        <time>2024-09-19T09:07:04Z</time>
      </trkpt>
      <trkpt lat="46.30959" lon="4.83803">
        <ele>186.2</ele>
        <time>2024-09-19T09:07:05Z</time>
      </trkpt>
      <trkpt lat="46.30952" lon="4.83801">
        <ele>186.2</ele>
        <time>2024-09-19T09:07:06Z</time>
      </trkpt>
      <trkpt lat="46.3095" lon="4.838">
        <ele>186.2</ele>
        <time>2024-09-19T09:07:07Z</time>
      </trkpt>
      <trkpt lat="46.30945" lon="4.83799">
        <ele>186</ele>
        <time>2024-09-19T09:07:08Z</time>
      </trkpt>
      <trkpt lat="46.3094" lon="4.83797">
        <ele>186</ele>
        <time>2024-09-19T09:07:09Z</time>
      </trkpt>
      <trkpt lat="46.30935" lon="4.83795">
        <ele>186</ele>
        <time>2024-09-19T09:07:10Z</time>
      </trkpt>
      <trkpt lat="46.30928" lon="4.83792">
        <ele>186</ele>
        <time>2024-09-19T09:07:11Z</time>
      </trkpt>
      <trkpt lat="46.30926" lon="4.83791">
        <ele>186</ele>
        <time>2024-09-19T09:07:12Z</time>
      </trkpt>
      <trkpt lat="46.30919" lon="4.83786">
        <ele>186</ele>
        <time>2024-09-19T09:07:13Z</time>
      </trkpt>
      <trkpt lat="46.30917" lon="4.83785">
        <ele>186</ele>
        <time>2024-09-19T09:07:14Z</time>
      </trkpt>
      <trkpt lat="46.30911" lon="4.83779">
        <ele>186</ele>
        <time>2024-09-19T09:07:15Z</time>
      </trkpt>
      <trkpt lat="46.30909" lon="4.83777">
        <ele>186.2</ele>
        <time>2024-09-19T09:07:16Z</time>
      </trkpt>
      <trkpt lat="46.30904" lon="4.83772">
        <ele>186</ele>
        <time>2024-09-19T09:07:17Z</time>
      </trkpt>
      <trkpt lat="46.30902" lon="4.8377">
        <ele>186</ele>
        <time>2024-09-19T09:07:18Z</time>
      </trkpt>
      <trkpt lat="46.30896" lon="4.83766">
        <ele>186</ele>
        <time>2024-09-19T09:07:19Z</time>
      </trkpt>
      <trkpt lat="46.30894" lon="4.83765">
        <ele>186</ele>
        <time>2024-09-19T09:07:20Z</time>
      </trkpt>
      <trkpt lat="46.30889" lon="4.83762">
        <ele>186</ele>
        <time>2024-09-19T09:07:21Z</time>
      </trkpt>
      <trkpt lat="46.30885" lon="4.8376">
        <ele>186</ele>
        <time>2024-09-19T09:07:22Z</time>
      </trkpt>
      <trkpt lat="46.30878" lon="4.83758">
        <ele>186</ele>
        <time>2024-09-19T09:07:23Z</time>
      </trkpt>
      <trkpt lat="46.30876" lon="4.83757">
        <ele>186</ele>
        <time>2024-09-19T09:07:24Z</time>
      </trkpt>
      <trkpt lat="46.30871" lon="4.83755">
        <ele>186.2</ele>
        <time>2024-09-19T09:07:25Z</time>
      </trkpt>
      <trkpt lat="46.30867" lon="4.83754">
        <ele>186.2</ele>
        <time>2024-09-19T09:07:26Z</time>
      </trkpt>
      <trkpt lat="46.30861" lon="4.83752">
        <ele>186.2</ele>
        <time>2024-09-19T09:07:27Z</time>
      </trkpt>
      <trkpt lat="46.30859" lon="4.83751">
        <ele>186.2</ele>
        <time>2024-09-19T09:07:28Z</time>
      </trkpt>
      <trkpt lat="46.30853" lon="4.83749">
        <ele>186</ele>
        <time>2024-09-19T09:07:29Z</time>
      </trkpt>
      <trkpt lat="46.3085" lon="4.83748">
        <ele>186</ele>
        <time>2024-09-19T09:07:30Z</time>
      </trkpt>
      <trkpt lat="46.30846" lon="4.83747">
        <ele>186</ele>
        <time>2024-09-19T09:07:31Z</time>
      </trkpt>
      <trkpt lat="46.30842" lon="4.83745">
        <ele>186</ele>
        <time>2024-09-19T09:07:32Z</time>
      </trkpt>
      <trkpt lat="46.30838" lon="4.83744">
        <ele>186</ele>
        <time>2024-09-19T09:07:33Z</time>
      </trkpt>
      <trkpt lat="46.30834" lon="4.83742">
        <ele>186</ele>
        <time>2024-09-19T09:07:34Z</time>
      </trkpt>
      <trkpt lat="46.30829" lon="4.83741">
        <ele>186</ele>
        <time>2024-09-19T09:07:35Z</time>
      </trkpt>
      <trkpt lat="46.30825" lon="4.83739">
        <ele>186.2</ele>
        <time>2024-09-19T09:07:36Z</time>
      </trkpt>
      <trkpt lat="46.30821" lon="4.83737">
        <ele>186.2</ele>
        <time>2024-09-19T09:07:37Z</time>
      </trkpt>
      <trkpt lat="46.30816" lon="4.83736">
        <ele>186.2</ele>
        <time>2024-09-19T09:07:38Z</time>
      </trkpt>
      <trkpt lat="46.30809" lon="4.83733">
        <ele>186.2</ele>
        <time>2024-09-19T09:07:39Z</time>
      </trkpt>
      <trkpt lat="46.30806" lon="4.83732">
        <ele>186.4</ele>
        <time>2024-09-19T09:07:40Z</time>
      </trkpt>
      <trkpt lat="46.30799" lon="4.8373">
        <ele>186.4</ele>
        <time>2024-09-19T09:07:41Z</time>
      </trkpt>
      <trkpt lat="46.30797" lon="4.83729">
        <ele>186.4</ele>
        <time>2024-09-19T09:07:42Z</time>
      </trkpt>
      <trkpt lat="46.30792" lon="4.83727">
        <ele>186.4</ele>
        <time>2024-09-19T09:07:43Z</time>
      </trkpt>
      <trkpt lat="46.30785" lon="4.83724">
        <ele>186.2</ele>
        <time>2024-09-19T09:07:44Z</time>
      </trkpt>
      <trkpt lat="46.30783" lon="4.83723">
        <ele>186.2</ele>
        <time>2024-09-19T09:07:45Z</time>
      </trkpt>
      <trkpt lat="46.30776" lon="4.8372">
        <ele>186.2</ele>
        <time>2024-09-19T09:07:46Z</time>
      </trkpt>
      <trkpt lat="46.30774" lon="4.83719">
        <ele>186.2</ele>
        <time>2024-09-19T09:07:47Z</time>
      </trkpt>
      <trkpt lat="46.30767" lon="4.83716">
        <ele>186.4</ele>
        <time>2024-09-19T09:07:48Z</time>
      </trkpt>
      <trkpt lat="46.30765" lon="4.83715">
        <ele>186.4</ele>
        <time>2024-09-19T09:07:49Z</time>
      </trkpt>
      <trkpt lat="46.3076" lon="4.83713">
        <ele>186.4</ele>
        <time>2024-09-19T09:07:50Z</time>
      </trkpt>
      <trkpt lat="46.30753" lon="4.8371">
        <ele>186.4</ele>
        <time>2024-09-19T09:07:51Z</time>
      </trkpt>
      <trkpt lat="46.30751" lon="4.83709">
        <ele>186.4</ele>
        <time>2024-09-19T09:07:52Z</time>
      </trkpt>
      <trkpt lat="46.30746" lon="4.83707">
        <ele>186.6</ele>
        <time>2024-09-19T09:07:53Z</time>
      </trkpt>
      <trkpt lat="46.30742" lon="4.83705">
        <ele>186.6</ele>
        <time>2024-09-19T09:07:54Z</time>
      </trkpt>
      <trkpt lat="46.30735" lon="4.83703">
        <ele>186.6</ele>
        <time>2024-09-19T09:07:55Z</time>
      </trkpt>
      <trkpt lat="46.30733" lon="4.83703">
        <ele>186.6</ele>
        <time>2024-09-19T09:07:56Z</time>
      </trkpt>
      <trkpt lat="46.30726" lon="4.83702">
        <ele>186.4</ele>
        <time>2024-09-19T09:07:57Z</time>
      </trkpt>
      <trkpt lat="46.30723" lon="4.83702">
        <ele>186.4</ele>
        <time>2024-09-19T09:07:58Z</time>
      </trkpt>
      <trkpt lat="46.30716" lon="4.83699">
        <ele>186.4</ele>
        <time>2024-09-19T09:07:59Z</time>
      </trkpt>
      <trkpt lat="46.30714" lon="4.83698">
        <ele>186.2</ele>
        <time>2024-09-19T09:08:00Z</time>
      </trkpt>
      <trkpt lat="46.30706" lon="4.83696">
        <ele>186</ele>
        <time>2024-09-19T09:08:01Z</time>
      </trkpt>
      <trkpt lat="46.30703" lon="4.83695">
        <ele>186</ele>
        <time>2024-09-19T09:08:02Z</time>
      </trkpt>
      <trkpt lat="46.30695" lon="4.83692">
        <ele>186</ele>
        <time>2024-09-19T09:08:03Z</time>
      </trkpt>
      <trkpt lat="46.30692" lon="4.83691">
        <ele>186</ele>
        <time>2024-09-19T09:08:04Z</time>
      </trkpt>
      <trkpt lat="46.30686" lon="4.83689">
        <ele>186</ele>
        <time>2024-09-19T09:08:05Z</time>
      </trkpt>
      <trkpt lat="46.3068" lon="4.83687">
        <ele>185.6</ele>
        <time>2024-09-19T09:08:06Z</time>
      </trkpt>
      <trkpt lat="46.30674" lon="4.83684">
        <ele>185.6</ele>
        <time>2024-09-19T09:08:07Z</time>
      </trkpt>
      <trkpt lat="46.30668" lon="4.83682">
        <ele>185.6</ele>
        <time>2024-09-19T09:08:08Z</time>
      </trkpt>
      <trkpt lat="46.30659" lon="4.83679">
        <ele>184.8</ele>
        <time>2024-09-19T09:08:09Z</time>
      </trkpt>
      <trkpt lat="46.30656" lon="4.83677">
        <ele>184.8</ele>
        <time>2024-09-19T09:08:10Z</time>
      </trkpt>
      <trkpt lat="46.30647" lon="4.83674">
        <ele>184.2</ele>
        <time>2024-09-19T09:08:11Z</time>
      </trkpt>
      <trkpt lat="46.30644" lon="4.83672">
        <ele>184.2</ele>
        <time>2024-09-19T09:08:12Z</time>
      </trkpt>
      <trkpt lat="46.30638" lon="4.8367">
        <ele>183.6</ele>
        <time>2024-09-19T09:08:13Z</time>
      </trkpt>
      <trkpt lat="46.30632" lon="4.83667">
        <ele>183.6</ele>
        <time>2024-09-19T09:08:14Z</time>
      </trkpt>
      <trkpt lat="46.30626" lon="4.83665">
        <ele>183.8</ele>
        <time>2024-09-19T09:08:15Z</time>
      </trkpt>
      <trkpt lat="46.3062" lon="4.83663">
        <ele>183.8</ele>
        <time>2024-09-19T09:08:16Z</time>
      </trkpt>
      <trkpt lat="46.30615" lon="4.8366">
        <ele>183.8</ele>
        <time>2024-09-19T09:08:17Z</time>
      </trkpt>
      <trkpt lat="46.3061" lon="4.83656">
        <ele>183.8</ele>
        <time>2024-09-19T09:08:18Z</time>
      </trkpt>
      <trkpt lat="46.30605" lon="4.83652">
        <ele>183.8</ele>
        <time>2024-09-19T09:08:19Z</time>
      </trkpt>
      <trkpt lat="46.30601" lon="4.83648">
        <ele>183.8</ele>
        <time>2024-09-19T09:08:20Z</time>
      </trkpt>
      <trkpt lat="46.30597" lon="4.83644">
        <ele>183.8</ele>
        <time>2024-09-19T09:08:21Z</time>
      </trkpt>
      <trkpt lat="46.30593" lon="4.8364">
        <ele>183.8</ele>
        <time>2024-09-19T09:08:22Z</time>
      </trkpt>
      <trkpt lat="46.30587" lon="4.83636">
        <ele>183.8</ele>
        <time>2024-09-19T09:08:23Z</time>
      </trkpt>
      <trkpt lat="46.30585" lon="4.83634">
        <ele>183.6</ele>
        <time>2024-09-19T09:08:24Z</time>
      </trkpt>
      <trkpt lat="46.3058" lon="4.83629">
        <ele>183.6</ele>
        <time>2024-09-19T09:08:25Z</time>
      </trkpt>
      <trkpt lat="46.30578" lon="4.83627">
        <ele>183.6</ele>
        <time>2024-09-19T09:08:26Z</time>
      </trkpt>
      <trkpt lat="46.30571" lon="4.83623">
        <ele>183.6</ele>
        <time>2024-09-19T09:08:27Z</time>
      </trkpt>
      <trkpt lat="46.30569" lon="4.83621">
        <ele>183.6</ele>
        <time>2024-09-19T09:08:28Z</time>
      </trkpt>
      <trkpt lat="46.30563" lon="4.83616">
        <ele>183.6</ele>
        <time>2024-09-19T09:08:29Z</time>
      </trkpt>
      <trkpt lat="46.30561" lon="4.83614">
        <ele>183.6</ele>
        <time>2024-09-19T09:08:30Z</time>
      </trkpt>
      <trkpt lat="46.30556" lon="4.8361">
        <ele>183.6</ele>
        <time>2024-09-19T09:08:31Z</time>
      </trkpt>
      <trkpt lat="46.30552" lon="4.83607">
        <ele>183.6</ele>
        <time>2024-09-19T09:08:32Z</time>
      </trkpt>
      <trkpt lat="46.30548" lon="4.83603">
        <ele>182.6</ele>
        <time>2024-09-19T09:08:33Z</time>
      </trkpt>
      <trkpt lat="46.3054" lon="4.83597">
        <ele>182.6</ele>
        <time>2024-09-19T09:08:34Z</time>
      </trkpt>
      <trkpt lat="46.30538" lon="4.83596">
        <ele>182.6</ele>
        <time>2024-09-19T09:08:35Z</time>
      </trkpt>
      <trkpt lat="46.30531" lon="4.83591">
        <ele>182.6</ele>
        <time>2024-09-19T09:08:36Z</time>
      </trkpt>
      <trkpt lat="46.30529" lon="4.83589">
        <ele>182.8</ele>
        <time>2024-09-19T09:08:37Z</time>
      </trkpt>
      <trkpt lat="46.30522" lon="4.83583">
        <ele>183</ele>
        <time>2024-09-19T09:08:38Z</time>
      </trkpt>
      <trkpt lat="46.3052" lon="4.8358">
        <ele>183</ele>
        <time>2024-09-19T09:08:39Z</time>
      </trkpt>
      <trkpt lat="46.30513" lon="4.83575">
        <ele>183</ele>
        <time>2024-09-19T09:08:40Z</time>
      </trkpt>
      <trkpt lat="46.30511" lon="4.83574">
        <ele>182.8</ele>
        <time>2024-09-19T09:08:41Z</time>
      </trkpt>
      <trkpt lat="46.30504" lon="4.8357">
        <ele>183</ele>
        <time>2024-09-19T09:08:42Z</time>
      </trkpt>
      <trkpt lat="46.30501" lon="4.83567">
        <ele>183</ele>
        <time>2024-09-19T09:08:43Z</time>
      </trkpt>
      <trkpt lat="46.30494" lon="4.8356">
        <ele>183</ele>
        <time>2024-09-19T09:08:44Z</time>
      </trkpt>
      <trkpt lat="46.30492" lon="4.83557">
        <ele>182.6</ele>
        <time>2024-09-19T09:08:45Z</time>
      </trkpt>
      <trkpt lat="46.30487" lon="4.83553">
        <ele>182.8</ele>
        <time>2024-09-19T09:08:46Z</time>
      </trkpt>
      <trkpt lat="46.30482" lon="4.83549">
        <ele>182.8</ele>
        <time>2024-09-19T09:08:47Z</time>
      </trkpt>
      <trkpt lat="46.30477" lon="4.83545">
        <ele>182.8</ele>
        <time>2024-09-19T09:08:48Z</time>
      </trkpt>
      <trkpt lat="46.30472" lon="4.83541">
        <ele>182.8</ele>
        <time>2024-09-19T09:08:49Z</time>
      </trkpt>
      <trkpt lat="46.30468" lon="4.83536">
        <ele>182.6</ele>
        <time>2024-09-19T09:08:50Z</time>
      </trkpt>
      <trkpt lat="46.30463" lon="4.83532">
        <ele>182.8</ele>
        <time>2024-09-19T09:08:51Z</time>
      </trkpt>
      <trkpt lat="46.30456" lon="4.83525">
        <ele>182.8</ele>
        <time>2024-09-19T09:08:52Z</time>
      </trkpt>
      <trkpt lat="46.30453" lon="4.83523">
        <ele>182.8</ele>
        <time>2024-09-19T09:08:53Z</time>
      </trkpt>
      <trkpt lat="46.30445" lon="4.83516">
        <ele>182.8</ele>
        <time>2024-09-19T09:08:54Z</time>
      </trkpt>
      <trkpt lat="46.30443" lon="4.83514">
        <ele>182.8</ele>
        <time>2024-09-19T09:08:55Z</time>
      </trkpt>
      <trkpt lat="46.30436" lon="4.83507">
        <ele>182.4</ele>
        <time>2024-09-19T09:08:56Z</time>
      </trkpt>
      <trkpt lat="46.30433" lon="4.83505">
        <ele>182.4</ele>
        <time>2024-09-19T09:08:57Z</time>
      </trkpt>
      <trkpt lat="46.30428" lon="4.83501">
        <ele>182.4</ele>
        <time>2024-09-19T09:08:58Z</time>
      </trkpt>
      <trkpt lat="46.30423" lon="4.83496">
        <ele>182.4</ele>
        <time>2024-09-19T09:08:59Z</time>
      </trkpt>
      <trkpt lat="46.30419" lon="4.83492">
        <ele>182.4</ele>
        <time>2024-09-19T09:09:00Z</time>
      </trkpt>
      <trkpt lat="46.30414" lon="4.83489">
        <ele>182.4</ele>
        <time>2024-09-19T09:09:01Z</time>
      </trkpt>
      <trkpt lat="46.30409" lon="4.83485">
        <ele>182.4</ele>
        <time>2024-09-19T09:09:02Z</time>
      </trkpt>
      <trkpt lat="46.30406" lon="4.83481">
        <ele>182.4</ele>
        <time>2024-09-19T09:09:03Z</time>
      </trkpt>
      <trkpt lat="46.30402" lon="4.83478">
        <ele>183.4</ele>
        <time>2024-09-19T09:09:04Z</time>
      </trkpt>
      <trkpt lat="46.30398" lon="4.83475">
        <ele>184.2</ele>
        <time>2024-09-19T09:09:05Z</time>
      </trkpt>
      <trkpt lat="46.30393" lon="4.83473">
        <ele>184.2</ele>
        <time>2024-09-19T09:09:06Z</time>
      </trkpt>
      <trkpt lat="46.30392" lon="4.83472">
        <ele>184.2</ele>
        <time>2024-09-19T09:09:07Z</time>
      </trkpt>
      <trkpt lat="46.30387" lon="4.8347">
        <ele>185.2</ele>
        <time>2024-09-19T09:09:08Z</time>
      </trkpt>
      <trkpt lat="46.30385" lon="4.83469">
        <ele>185.4</ele>
        <time>2024-09-19T09:09:09Z</time>
      </trkpt>
      <trkpt lat="46.3038" lon="4.83467">
        <ele>185.4</ele>
        <time>2024-09-19T09:09:10Z</time>
      </trkpt>
      <trkpt lat="46.30379" lon="4.83466">
        <ele>185.4</ele>
        <time>2024-09-19T09:09:11Z</time>
      </trkpt>
      <trkpt lat="46.30375" lon="4.83462">
        <ele>185.8</ele>
        <time>2024-09-19T09:09:12Z</time>
      </trkpt>
      <trkpt lat="46.30373" lon="4.83461">
        <ele>185.6</ele>
        <time>2024-09-19T09:09:13Z</time>
      </trkpt>
      <trkpt lat="46.30371" lon="4.83457">
        <ele>185.6</ele>
        <time>2024-09-19T09:09:14Z</time>
      </trkpt>
      <trkpt lat="46.30368" lon="4.83454">
        <ele>185.6</ele>
        <time>2024-09-19T09:09:15Z</time>
      </trkpt>
      <trkpt lat="46.30365" lon="4.83451">
        <ele>185.6</ele>
        <time>2024-09-19T09:09:16Z</time>
      </trkpt>
      <trkpt lat="46.3036" lon="4.83447">
        <ele>185.4</ele>
        <time>2024-09-19T09:09:17Z</time>
      </trkpt>
      <trkpt lat="46.30359" lon="4.83446">
        <ele>185.8</ele>
        <time>2024-09-19T09:09:18Z</time>
      </trkpt>
      <trkpt lat="46.30354" lon="4.83443">
        <ele>185.8</ele>
        <time>2024-09-19T09:09:19Z</time>
      </trkpt>
      <trkpt lat="46.30352" lon="4.83442">
        <ele>185.8</ele>
        <time>2024-09-19T09:09:20Z</time>
      </trkpt>
      <trkpt lat="46.30347" lon="4.83438">
        <ele>185.8</ele>
        <time>2024-09-19T09:09:21Z</time>
      </trkpt>
      <trkpt lat="46.30346" lon="4.83436">
        <ele>185.4</ele>
        <time>2024-09-19T09:09:22Z</time>
      </trkpt>
      <trkpt lat="46.30341" lon="4.83432">
        <ele>185.4</ele>
        <time>2024-09-19T09:09:23Z</time>
      </trkpt>
      <trkpt lat="46.3034" lon="4.83431">
        <ele>185.4</ele>
        <time>2024-09-19T09:09:24Z</time>
      </trkpt>
      <trkpt lat="46.30337" lon="4.83426">
        <ele>185.4</ele>
        <time>2024-09-19T09:09:25Z</time>
      </trkpt>
      <trkpt lat="46.30337" lon="4.83424">
        <ele>185.4</ele>
        <time>2024-09-19T09:09:26Z</time>
      </trkpt>
      <trkpt lat="46.30338" lon="4.83421">
        <ele>185.8</ele>
        <time>2024-09-19T09:09:27Z</time>
      </trkpt>
      <trkpt lat="46.3034" lon="4.83421">
        <ele>185.8</ele>
        <time>2024-09-19T09:09:28Z</time>
      </trkpt>
      <trkpt lat="46.30341" lon="4.83421">
        <ele>185.8</ele>
        <time>2024-09-19T09:09:29Z</time>
      </trkpt>
      <trkpt lat="46.30341" lon="4.83421">
        <ele>185.8</ele>
        <time>2024-09-19T09:09:30Z</time>
      </trkpt>
      <trkpt lat="46.30341" lon="4.83421">
        <ele>185.6</ele>
        <time>2024-09-19T09:09:31Z</time>
      </trkpt>
      <trkpt lat="46.30341" lon="4.83421">
        <ele>185.6</ele>
        <time>2024-09-19T09:09:32Z</time>
      </trkpt>
      <trkpt lat="46.3034" lon="4.83418">
        <ele>185.8</ele>
        <time>2024-09-19T09:09:43Z</time>
      </trkpt>
      <trkpt lat="46.30339" lon="4.83419">
        <ele>186.2</ele>
        <time>2024-09-19T09:09:44Z</time>
      </trkpt>
      <trkpt lat="46.30339" lon="4.8342">
        <ele>186.2</ele>
        <time>2024-09-19T09:09:45Z</time>
      </trkpt>
      <trkpt lat="46.30337" lon="4.8342">
        <ele>186.2</ele>
        <time>2024-09-19T09:09:46Z</time>
      </trkpt>
      <trkpt lat="46.30336" lon="4.83419">
        <ele>186.2</ele>
        <time>2024-09-19T09:09:47Z</time>
      </trkpt>
      <trkpt lat="46.30335" lon="4.83419">
        <ele>186</ele>
        <time>2024-09-19T09:09:48Z</time>
      </trkpt>
      <trkpt lat="46.30334" lon="4.83418">
        <ele>186</ele>
        <time>2024-09-19T09:09:49Z</time>
      </trkpt>
      <trkpt lat="46.30332" lon="4.83418">
        <ele>186</ele>
        <time>2024-09-19T09:09:50Z</time>
      </trkpt>
      <trkpt lat="46.30331" lon="4.83417">
        <ele>186</ele>
        <time>2024-09-19T09:09:51Z</time>
      </trkpt>
      <trkpt lat="46.3033" lon="4.83416">
        <ele>186</ele>
        <time>2024-09-19T09:09:52Z</time>
      </trkpt>
      <trkpt lat="46.30329" lon="4.83415">
        <ele>185.8</ele>
        <time>2024-09-19T09:09:53Z</time>
      </trkpt>
      <trkpt lat="46.30328" lon="4.83415">
        <ele>185.6</ele>
        <time>2024-09-19T09:09:54Z</time>
      </trkpt>
      <trkpt lat="46.30327" lon="4.83415">
        <ele>185.6</ele>
        <time>2024-09-19T09:09:55Z</time>
      </trkpt>
      <trkpt lat="46.30326" lon="4.83415">
        <ele>185.6</ele>
        <time>2024-09-19T09:09:56Z</time>
      </trkpt>
      <trkpt lat="46.30326" lon="4.83415">
        <ele>185.6</ele>
        <time>2024-09-19T09:09:57Z</time>
      </trkpt>
      <trkpt lat="46.30326" lon="4.83415">
        <ele>185.6</ele>
        <time>2024-09-19T09:09:58Z</time>
      </trkpt>
      <trkpt lat="46.30328" lon="4.83417">
        <ele>183.8</ele>
        <time>2024-09-19T09:10:44Z</time>
      </trkpt>
      <trkpt lat="46.30328" lon="4.83417">
        <ele>184.8</ele>
        <time>2024-09-19T09:10:45Z</time>
      </trkpt>
      <trkpt lat="46.30328" lon="4.83417">
        <ele>186.4</ele>
        <time>2024-09-19T09:10:46Z</time>
      </trkpt>
      <trkpt lat="46.30331" lon="4.83417">
        <ele>186.6</ele>
        <time>2024-09-19T09:10:51Z</time>
      </trkpt>
      <trkpt lat="46.30332" lon="4.83417">
        <ele>186.6</ele>
        <time>2024-09-19T09:10:52Z</time>
      </trkpt>
      <trkpt lat="46.30332" lon="4.83418">
        <ele>186.6</ele>
        <time>2024-09-19T09:10:53Z</time>
      </trkpt>
      <trkpt lat="46.30333" lon="4.83418">
        <ele>186.6</ele>
        <time>2024-09-19T09:10:54Z</time>
      </trkpt>
      <trkpt lat="46.30335" lon="4.83418">
        <ele>186.6</ele>
        <time>2024-09-19T09:10:55Z</time>
      </trkpt>
      <trkpt lat="46.30336" lon="4.83419">
        <ele>186.6</ele>
        <time>2024-09-19T09:10:56Z</time>
      </trkpt>
      <trkpt lat="46.30336" lon="4.83418">
        <ele>186.6</ele>
        <time>2024-09-19T09:10:57Z</time>
      </trkpt>
      <trkpt lat="46.30337" lon="4.83418">
        <ele>186.2</ele>
        <time>2024-09-19T09:10:58Z</time>
      </trkpt>
      <trkpt lat="46.30337" lon="4.83418">
        <ele>186.2</ele>
        <time>2024-09-19T09:10:59Z</time>
      </trkpt>
      <trkpt lat="46.30337" lon="4.83418">
        <ele>186.2</ele>
        <time>2024-09-19T09:11:00Z</time>
      </trkpt>
      <trkpt lat="46.30333" lon="4.83413">
        <ele>188.4</ele>
        <time>2024-09-19T09:40:37Z</time>
      </trkpt>
      <trkpt lat="46.30332" lon="4.83413">
        <ele>188.4</ele>
        <time>2024-09-19T09:40:38Z</time>
      </trkpt>
      <trkpt lat="46.30331" lon="4.83413">
        <ele>187.6</ele>
        <time>2024-09-19T09:40:39Z</time>
      </trkpt>
      <trkpt lat="46.3033" lon="4.83414">
        <ele>188.6</ele>
        <time>2024-09-19T09:40:40Z</time>
      </trkpt>
      <trkpt lat="46.30329" lon="4.83414">
        <ele>188.6</ele>
        <time>2024-09-19T09:40:41Z</time>
      </trkpt>
      <trkpt lat="46.30328" lon="4.83414">
        <ele>188.6</ele>
        <time>2024-09-19T09:40:42Z</time>
      </trkpt>
      <trkpt lat="46.30327" lon="4.83414">
        <ele>188.8</ele>
        <time>2024-09-19T09:40:43Z</time>
      </trkpt>
      <trkpt lat="46.30326" lon="4.83413">
        <ele>188.2</ele>
        <time>2024-09-19T09:40:44Z</time>
      </trkpt>
      <trkpt lat="46.30326" lon="4.83414">
        <ele>188.2</ele>
        <time>2024-09-19T09:40:45Z</time>
      </trkpt>
      <trkpt lat="46.30326" lon="4.83414">
        <ele>188.2</ele>
        <time>2024-09-19T09:40:46Z</time>
      </trkpt>
      <trkpt lat="46.30326" lon="4.83414">
        <ele>188.2</ele>
        <time>2024-09-19T09:40:47Z</time>
      </trkpt>
      <trkpt lat="46.30326" lon="4.83414">
        <ele>187.6</ele>
        <time>2024-09-19T09:40:48Z</time>
      </trkpt>
      <trkpt lat="46.3033" lon="4.8341">
        <ele>188.4</ele>
        <time>2024-09-19T09:46:00Z</time>
      </trkpt>
      <trkpt lat="46.3033" lon="4.83408">
        <ele>188.4</ele>
        <time>2024-09-19T09:46:01Z</time>
      </trkpt>
      <trkpt lat="46.30331" lon="4.83406">
        <ele>188.4</ele>
        <time>2024-09-19T09:46:02Z</time>
      </trkpt>
      <trkpt lat="46.30331" lon="4.83404">
        <ele>188.4</ele>
        <time>2024-09-19T09:46:03Z</time>
      </trkpt>
      <trkpt lat="46.30332" lon="4.83403">
        <ele>188.4</ele>
        <time>2024-09-19T09:46:04Z</time>
      </trkpt>
      <trkpt lat="46.30332" lon="4.83401">
        <ele>188.4</ele>
        <time>2024-09-19T09:46:05Z</time>
      </trkpt>
      <trkpt lat="46.30333" lon="4.834">
        <ele>188.2</ele>
        <time>2024-09-19T09:46:06Z</time>
      </trkpt>
      <trkpt lat="46.30333" lon="4.834">
        <ele>188.2</ele>
        <time>2024-09-19T09:46:07Z</time>
      </trkpt>
      <trkpt lat="46.30334" lon="4.83399">
        <ele>188.2</ele>
        <time>2024-09-19T09:46:08Z</time>
      </trkpt>
      <trkpt lat="46.30335" lon="4.83399">
        <ele>188.2</ele>
        <time>2024-09-19T09:46:09Z</time>
      </trkpt>
      <trkpt lat="46.30335" lon="4.83398">
        <ele>188.4</ele>
        <time>2024-09-19T09:46:10Z</time>
      </trkpt>
      <trkpt lat="46.30336" lon="4.83397">
        <ele>188.4</ele>
        <time>2024-09-19T09:46:11Z</time>
      </trkpt>
      <trkpt lat="46.30336" lon="4.83395">
        <ele>188.4</ele>
        <time>2024-09-19T09:46:12Z</time>
      </trkpt>
      <trkpt lat="46.30337" lon="4.83394">
        <ele>188.4</ele>
        <time>2024-09-19T09:46:13Z</time>
      </trkpt>
      <trkpt lat="46.30337" lon="4.83393">
        <ele>188.4</ele>
        <time>2024-09-19T09:46:14Z</time>
      </trkpt>
      <trkpt lat="46.30338" lon="4.83391">
        <ele>188.4</ele>
        <time>2024-09-19T09:46:15Z</time>
      </trkpt>
      <trkpt lat="46.30338" lon="4.8339">
        <ele>188.8</ele>
        <time>2024-09-19T09:46:16Z</time>
      </trkpt>
      <trkpt lat="46.30339" lon="4.8339">
        <ele>188.8</ele>
        <time>2024-09-19T09:46:17Z</time>
      </trkpt>
      <trkpt lat="46.30339" lon="4.83388">
        <ele>188.8</ele>
        <time>2024-09-19T09:46:18Z</time>
      </trkpt>
      <trkpt lat="46.3034" lon="4.83387">
        <ele>188.8</ele>
        <time>2024-09-19T09:46:19Z</time>
      </trkpt>
      <trkpt lat="46.3034" lon="4.83386">
        <ele>188.8</ele>
        <time>2024-09-19T09:46:20Z</time>
      </trkpt>
      <trkpt lat="46.3034" lon="4.83384">
        <ele>188.8</ele>
        <time>2024-09-19T09:46:21Z</time>
      </trkpt>
      <trkpt lat="46.3034" lon="4.83383">
        <ele>188.8</ele>
        <time>2024-09-19T09:46:22Z</time>
      </trkpt>
      <trkpt lat="46.3034" lon="4.83382">
        <ele>188.8</ele>
        <time>2024-09-19T09:46:23Z</time>
      </trkpt>
      <trkpt lat="46.3034" lon="4.83381">
        <ele>189</ele>
        <time>2024-09-19T09:46:24Z</time>
      </trkpt>
      <trkpt lat="46.30341" lon="4.8338">
        <ele>189</ele>
        <time>2024-09-19T09:46:25Z</time>
      </trkpt>
      <trkpt lat="46.30342" lon="4.8338">
        <ele>189</ele>
        <time>2024-09-19T09:46:26Z</time>
      </trkpt>
      <trkpt lat="46.30343" lon="4.8338">
        <ele>189</ele>
        <time>2024-09-19T09:46:27Z</time>
      </trkpt>
      <trkpt lat="46.30343" lon="4.83379">
        <ele>189</ele>
        <time>2024-09-19T09:46:28Z</time>
      </trkpt>
      <trkpt lat="46.30343" lon="4.83379">
        <ele>189.2</ele>
        <time>2024-09-19T09:46:29Z</time>
      </trkpt>
      <trkpt lat="46.30343" lon="4.83379">
        <ele>189.2</ele>
        <time>2024-09-19T09:46:30Z</time>
      </trkpt>
      <trkpt lat="46.30346" lon="4.83367">
        <ele>188.4</ele>
        <time>2024-09-19T09:46:48Z</time>
      </trkpt>
      <trkpt lat="46.30347" lon="4.83367">
        <ele>188.4</ele>
        <time>2024-09-19T09:46:49Z</time>
      </trkpt>
      <trkpt lat="46.30348" lon="4.83367">
        <ele>188.4</ele>
        <time>2024-09-19T09:46:50Z</time>
      </trkpt>
      <trkpt lat="46.30349" lon="4.83368">
        <ele>188.4</ele>
        <time>2024-09-19T09:46:51Z</time>
      </trkpt>
      <trkpt lat="46.3035" lon="4.83368">
        <ele>188.4</ele>
        <time>2024-09-19T09:46:52Z</time>
      </trkpt>
      <trkpt lat="46.30351" lon="4.83367">
        <ele>188.4</ele>
        <time>2024-09-19T09:46:53Z</time>
      </trkpt>
      <trkpt lat="46.30352" lon="4.83366">
        <ele>189</ele>
        <time>2024-09-19T09:46:54Z</time>
      </trkpt>
      <trkpt lat="46.30353" lon="4.83365">
        <ele>189</ele>
        <time>2024-09-19T09:46:55Z</time>
      </trkpt>
      <trkpt lat="46.30355" lon="4.83365">
        <ele>189.2</ele>
        <time>2024-09-19T09:46:56Z</time>
      </trkpt>
      <trkpt lat="46.30356" lon="4.83363">
        <ele>189.2</ele>
        <time>2024-09-19T09:46:57Z</time>
      </trkpt>
      <trkpt lat="46.30357" lon="4.83362">
        <ele>189.2</ele>
        <time>2024-09-19T09:46:58Z</time>
      </trkpt>
      <trkpt lat="46.30358" lon="4.83361">
        <ele>189</ele>
        <time>2024-09-19T09:46:59Z</time>
      </trkpt>
      <trkpt lat="46.30359" lon="4.83359">
        <ele>189.4</ele>
        <time>2024-09-19T09:47:00Z</time>
      </trkpt>
      <trkpt lat="46.30361" lon="4.83358">
        <ele>189.4</ele>
        <time>2024-09-19T09:47:01Z</time>
      </trkpt>
      <trkpt lat="46.30362" lon="4.83357">
        <ele>189.4</ele>
        <time>2024-09-19T09:47:02Z</time>
      </trkpt>
      <trkpt lat="46.30363" lon="4.83356">
        <ele>189.4</ele>
        <time>2024-09-19T09:47:03Z</time>
      </trkpt>
      <trkpt lat="46.30364" lon="4.83354">
        <ele>188.6</ele>
        <time>2024-09-19T09:47:04Z</time>
      </trkpt>
      <trkpt lat="46.30365" lon="4.83353">
        <ele>188.6</ele>
        <time>2024-09-19T09:47:05Z</time>
      </trkpt>
      <trkpt lat="46.30366" lon="4.83353">
        <ele>188.6</ele>
        <time>2024-09-19T09:47:06Z</time>
      </trkpt>
      <trkpt lat="46.30367" lon="4.83351">
        <ele>188.8</ele>
        <time>2024-09-19T09:47:07Z</time>
      </trkpt>
      <trkpt lat="46.30368" lon="4.8335">
        <ele>188.8</ele>
        <time>2024-09-19T09:47:08Z</time>
      </trkpt>
      <trkpt lat="46.30368" lon="4.83349">
        <ele>188.8</ele>
        <time>2024-09-19T09:47:09Z</time>
      </trkpt>
      <trkpt lat="46.30369" lon="4.83347">
        <ele>188.8</ele>
        <time>2024-09-19T09:47:10Z</time>
      </trkpt>
      <trkpt lat="46.30369" lon="4.83346">
        <ele>188.8</ele>
        <time>2024-09-19T09:47:11Z</time>
      </trkpt>
      <trkpt lat="46.30369" lon="4.83344">
        <ele>188.6</ele>
        <time>2024-09-19T09:47:12Z</time>
      </trkpt>
      <trkpt lat="46.3037" lon="4.83342">
        <ele>188.4</ele>
        <time>2024-09-19T09:47:13Z</time>
      </trkpt>
      <trkpt lat="46.3037" lon="4.83341">
        <ele>188.4</ele>
        <time>2024-09-19T09:47:14Z</time>
      </trkpt>
      <trkpt lat="46.30371" lon="4.83339">
        <ele>188.4</ele>
        <time>2024-09-19T09:47:15Z</time>
      </trkpt>
      <trkpt lat="46.30371" lon="4.83337">
        <ele>188.4</ele>
        <time>2024-09-19T09:47:16Z</time>
      </trkpt>
      <trkpt lat="46.30372" lon="4.83335">
        <ele>190.8</ele>
        <time>2024-09-19T09:47:17Z</time>
      </trkpt>
      <trkpt lat="46.30373" lon="4.83334">
        <ele>190.8</ele>
        <time>2024-09-19T09:47:18Z</time>
      </trkpt>
      <trkpt lat="46.30374" lon="4.83333">
        <ele>190.8</ele>
        <time>2024-09-19T09:47:19Z</time>
      </trkpt>
      <trkpt lat="46.30375" lon="4.83332">
        <ele>189.8</ele>
        <time>2024-09-19T09:47:20Z</time>
      </trkpt>
      <trkpt lat="46.30375" lon="4.83331">
        <ele>189.8</ele>
        <time>2024-09-19T09:47:21Z</time>
      </trkpt>
      <trkpt lat="46.30376" lon="4.8333">
        <ele>188.8</ele>
        <time>2024-09-19T09:47:22Z</time>
      </trkpt>
      <trkpt lat="46.30376" lon="4.83329">
        <ele>188.8</ele>
        <time>2024-09-19T09:47:23Z</time>
      </trkpt>
      <trkpt lat="46.30376" lon="4.83328">
        <ele>188.8</ele>
        <time>2024-09-19T09:47:24Z</time>
      </trkpt>
      <trkpt lat="46.30377" lon="4.83327">
        <ele>188.4</ele>
        <time>2024-09-19T09:47:25Z</time>
      </trkpt>
      <trkpt lat="46.30377" lon="4.83325">
        <ele>188.4</ele>
        <time>2024-09-19T09:47:26Z</time>
      </trkpt>
      <trkpt lat="46.30379" lon="4.83323">
        <ele>188.4</ele>
        <time>2024-09-19T09:47:27Z</time>
      </trkpt>
      <trkpt lat="46.3038" lon="4.83322">
        <ele>188.4</ele>
        <time>2024-09-19T09:47:28Z</time>
      </trkpt>
      <trkpt lat="46.30381" lon="4.83319">
        <ele>187.8</ele>
        <time>2024-09-19T09:47:29Z</time>
      </trkpt>
      <trkpt lat="46.30382" lon="4.83317">
        <ele>187.8</ele>
        <time>2024-09-19T09:47:30Z</time>
      </trkpt>
      <trkpt lat="46.30383" lon="4.83315">
        <ele>188.2</ele>
        <time>2024-09-19T09:47:31Z</time>
      </trkpt>
      <trkpt lat="46.30384" lon="4.83314">
        <ele>188.2</ele>
        <time>2024-09-19T09:47:32Z</time>
      </trkpt>
      <trkpt lat="46.30385" lon="4.83312">
        <ele>188.2</ele>
        <time>2024-09-19T09:47:33Z</time>
      </trkpt>
      <trkpt lat="46.30387" lon="4.83311">
        <ele>188.2</ele>
        <time>2024-09-19T09:47:34Z</time>
      </trkpt>
      <trkpt lat="46.30389" lon="4.83309">
        <ele>188.2</ele>
        <time>2024-09-19T09:47:35Z</time>
      </trkpt>
      <trkpt lat="46.3039" lon="4.83308">
        <ele>188.6</ele>
        <time>2024-09-19T09:47:36Z</time>
      </trkpt>
      <trkpt lat="46.3039" lon="4.83307">
        <ele>188.6</ele>
        <time>2024-09-19T09:47:37Z</time>
      </trkpt>
      <trkpt lat="46.3039" lon="4.83306">
        <ele>188.6</ele>
        <time>2024-09-19T09:47:38Z</time>
      </trkpt>
      <trkpt lat="46.30391" lon="4.83305">
        <ele>188.4</ele>
        <time>2024-09-19T09:47:39Z</time>
      </trkpt>
      <trkpt lat="46.30392" lon="4.83304">
        <ele>188.4</ele>
        <time>2024-09-19T09:47:40Z</time>
      </trkpt>
      <trkpt lat="46.30392" lon="4.83303">
        <ele>188.4</ele>
        <time>2024-09-19T09:47:41Z</time>
      </trkpt>
      <trkpt lat="46.30393" lon="4.83302">
        <ele>188.4</ele>
        <time>2024-09-19T09:47:42Z</time>
      </trkpt>
      <trkpt lat="46.30394" lon="4.83301">
        <ele>188.4</ele>
        <time>2024-09-19T09:47:43Z</time>
      </trkpt>
      <trkpt lat="46.30394" lon="4.833">
        <ele>188.2</ele>
        <time>2024-09-19T09:47:44Z</time>
      </trkpt>
      <trkpt lat="46.30395" lon="4.83299">
        <ele>188.2</ele>
        <time>2024-09-19T09:47:45Z</time>
      </trkpt>
      <trkpt lat="46.30395" lon="4.83297">
        <ele>188.2</ele>
        <time>2024-09-19T09:47:46Z</time>
      </trkpt>
      <trkpt lat="46.30395" lon="4.83296">
        <ele>188.2</ele>
        <time>2024-09-19T09:47:47Z</time>
      </trkpt>
      <trkpt lat="46.30395" lon="4.83294">
        <ele>188.2</ele>
        <time>2024-09-19T09:47:48Z</time>
      </trkpt>
      <trkpt lat="46.30395" lon="4.83293">
        <ele>188.2</ele>
        <time>2024-09-19T09:47:49Z</time>
      </trkpt>
      <trkpt lat="46.30395" lon="4.83293">
        <ele>188.2</ele>
        <time>2024-09-19T09:47:50Z</time>
      </trkpt>
      <trkpt lat="46.30389" lon="4.83282">
        <ele>188.6</ele>
        <time>2024-09-19T09:48:07Z</time>
      </trkpt>
      <trkpt lat="46.30388" lon="4.83281">
        <ele>188.6</ele>
        <time>2024-09-19T09:48:08Z</time>
      </trkpt>
      <trkpt lat="46.30387" lon="4.8328">
        <ele>187.6</ele>
        <time>2024-09-19T09:48:09Z</time>
      </trkpt>
      <trkpt lat="46.30385" lon="4.83279">
        <ele>187.8</ele>
        <time>2024-09-19T09:48:10Z</time>
      </trkpt>
      <trkpt lat="46.30385" lon="4.83277">
        <ele>187.8</ele>
        <time>2024-09-19T09:48:11Z</time>
      </trkpt>
      <trkpt lat="46.30383" lon="4.83275">
        <ele>187.8</ele>
        <time>2024-09-19T09:48:12Z</time>
      </trkpt>
      <trkpt lat="46.30381" lon="4.83275">
        <ele>187.8</ele>
        <time>2024-09-19T09:48:13Z</time>
      </trkpt>
      <trkpt lat="46.3038" lon="4.83274">
        <ele>188</ele>
        <time>2024-09-19T09:48:14Z</time>
      </trkpt>
      <trkpt lat="46.30379" lon="4.83273">
        <ele>187.8</ele>
        <time>2024-09-19T09:48:15Z</time>
      </trkpt>
      <trkpt lat="46.30378" lon="4.83272">
        <ele>187.8</ele>
        <time>2024-09-19T09:48:16Z</time>
      </trkpt>
      <trkpt lat="46.30377" lon="4.83272">
        <ele>187.8</ele>
        <time>2024-09-19T09:48:17Z</time>
      </trkpt>
      <trkpt lat="46.30375" lon="4.83271">
        <ele>187.8</ele>
        <time>2024-09-19T09:48:18Z</time>
      </trkpt>
      <trkpt lat="46.30374" lon="4.8327">
        <ele>188</ele>
        <time>2024-09-19T09:48:19Z</time>
      </trkpt>
      <trkpt lat="46.30373" lon="4.83269">
        <ele>188</ele>
        <time>2024-09-19T09:48:20Z</time>
      </trkpt>
      <trkpt lat="46.30372" lon="4.83268">
        <ele>188</ele>
        <time>2024-09-19T09:48:21Z</time>
      </trkpt>
      <trkpt lat="46.30371" lon="4.83267">
        <ele>188</ele>
        <time>2024-09-19T09:48:22Z</time>
      </trkpt>
      <trkpt lat="46.3037" lon="4.83265">
        <ele>188</ele>
        <time>2024-09-19T09:48:23Z</time>
      </trkpt>
      <trkpt lat="46.30369" lon="4.83263">
        <ele>188</ele>
        <time>2024-09-19T09:48:24Z</time>
      </trkpt>
      <trkpt lat="46.30369" lon="4.83262">
        <ele>187.6</ele>
        <time>2024-09-19T09:48:25Z</time>
      </trkpt>
      <trkpt lat="46.30369" lon="4.8326">
        <ele>187.6</ele>
        <time>2024-09-19T09:48:26Z</time>
      </trkpt>
      <trkpt lat="46.30369" lon="4.83258">
        <ele>187.6</ele>
        <time>2024-09-19T09:48:27Z</time>
      </trkpt>
      <trkpt lat="46.30368" lon="4.83256">
        <ele>188.6</ele>
        <time>2024-09-19T09:48:28Z</time>
      </trkpt>
      <trkpt lat="46.30368" lon="4.83255">
        <ele>188.6</ele>
        <time>2024-09-19T09:48:29Z</time>
      </trkpt>
      <trkpt lat="46.30368" lon="4.83253">
        <ele>188.6</ele>
        <time>2024-09-19T09:48:30Z</time>
      </trkpt>
      <trkpt lat="46.30367" lon="4.83253">
        <ele>188.6</ele>
        <time>2024-09-19T09:48:31Z</time>
      </trkpt>
      <trkpt lat="46.30367" lon="4.83251">
        <ele>188.6</ele>
        <time>2024-09-19T09:48:32Z</time>
      </trkpt>
      <trkpt lat="46.30367" lon="4.8325">
        <ele>188.4</ele>
        <time>2024-09-19T09:48:33Z</time>
      </trkpt>
      <trkpt lat="46.30366" lon="4.83248">
        <ele>188.4</ele>
        <time>2024-09-19T09:48:34Z</time>
      </trkpt>
      <trkpt lat="46.30366" lon="4.83247">
        <ele>188.4</ele>
        <time>2024-09-19T09:48:35Z</time>
      </trkpt>
      <trkpt lat="46.30366" lon="4.83245">
        <ele>188.4</ele>
        <time>2024-09-19T09:48:36Z</time>
      </trkpt>
      <trkpt lat="46.30367" lon="4.83243">
        <ele>188.2</ele>
        <time>2024-09-19T09:48:37Z</time>
      </trkpt>
      <trkpt lat="46.30367" lon="4.83242">
        <ele>188.4</ele>
        <time>2024-09-19T09:48:38Z</time>
      </trkpt>
      <trkpt lat="46.30367" lon="4.8324">
        <ele>188.4</ele>
        <time>2024-09-19T09:48:39Z</time>
      </trkpt>
      <trkpt lat="46.30368" lon="4.83239">
        <ele>188.4</ele>
        <time>2024-09-19T09:48:40Z</time>
      </trkpt>
      <trkpt lat="46.30369" lon="4.83238">
        <ele>188.4</ele>
        <time>2024-09-19T09:48:41Z</time>
      </trkpt>
      <trkpt lat="46.3037" lon="4.83236">
        <ele>188.6</ele>
        <time>2024-09-19T09:48:42Z</time>
      </trkpt>
      <trkpt lat="46.3037" lon="4.83236">
        <ele>188.6</ele>
        <time>2024-09-19T09:48:43Z</time>
      </trkpt>
      <trkpt lat="46.3037" lon="4.83235">
        <ele>188.6</ele>
        <time>2024-09-19T09:48:44Z</time>
      </trkpt>
      <trkpt lat="46.30371" lon="4.83235">
        <ele>188.6</ele>
        <time>2024-09-19T09:48:45Z</time>
      </trkpt>
      <trkpt lat="46.30371" lon="4.83235">
        <ele>188.6</ele>
        <time>2024-09-19T09:48:46Z</time>
      </trkpt>
      <trkpt lat="46.30371" lon="4.83235">
        <ele>188.6</ele>
        <time>2024-09-19T09:48:47Z</time>
      </trkpt>
      <trkpt lat="46.30371" lon="4.83235">
        <ele>188.6</ele>
        <time>2024-09-19T09:48:48Z</time>
      </trkpt>
      <trkpt lat="46.30372" lon="4.83226">
        <ele>189</ele>
        <time>2024-09-19T09:49:03Z</time>
      </trkpt>
      <trkpt lat="46.30372" lon="4.83226">
        <ele>189</ele>
        <time>2024-09-19T09:49:04Z</time>
      </trkpt>
      <trkpt lat="46.30372" lon="4.83226">
        <ele>189</ele>
        <time>2024-09-19T09:49:05Z</time>
      </trkpt>
      <trkpt lat="46.30371" lon="4.83225">
        <ele>188.8</ele>
        <time>2024-09-19T09:49:13Z</time>
      </trkpt>
      <trkpt lat="46.30371" lon="4.83224">
        <ele>188.8</ele>
        <time>2024-09-19T09:49:14Z</time>
      </trkpt>
      <trkpt lat="46.3037" lon="4.83223">
        <ele>188.8</ele>
        <time>2024-09-19T09:49:15Z</time>
      </trkpt>
      <trkpt lat="46.3037" lon="4.83223">
        <ele>188.8</ele>
        <time>2024-09-19T09:49:16Z</time>
      </trkpt>
      <trkpt lat="46.3037" lon="4.83222">
        <ele>188.8</ele>
        <time>2024-09-19T09:49:17Z</time>
      </trkpt>
      <trkpt lat="46.30369" lon="4.83223">
        <ele>188.8</ele>
        <time>2024-09-19T09:49:18Z</time>
      </trkpt>
      <trkpt lat="46.30369" lon="4.83222">
        <ele>188.4</ele>
        <time>2024-09-19T09:49:19Z</time>
      </trkpt>
      <trkpt lat="46.30368" lon="4.83222">
        <ele>188.4</ele>
        <time>2024-09-19T09:49:20Z</time>
      </trkpt>
      <trkpt lat="46.30367" lon="4.83223">
        <ele>189</ele>
        <time>2024-09-19T09:49:21Z</time>
      </trkpt>
      <trkpt lat="46.30365" lon="4.83224">
        <ele>188.6</ele>
        <time>2024-09-19T09:49:22Z</time>
      </trkpt>
      <trkpt lat="46.30364" lon="4.83225">
        <ele>188.6</ele>
        <time>2024-09-19T09:49:23Z</time>
      </trkpt>
      <trkpt lat="46.30363" lon="4.83226">
        <ele>188.6</ele>
        <time>2024-09-19T09:49:24Z</time>
      </trkpt>
      <trkpt lat="46.30362" lon="4.83226">
        <ele>188.6</ele>
        <time>2024-09-19T09:49:25Z</time>
      </trkpt>
      <trkpt lat="46.30362" lon="4.83226">
        <ele>188.6</ele>
        <time>2024-09-19T09:49:26Z</time>
      </trkpt>
      <trkpt lat="46.30361" lon="4.83227">
        <ele>188.4</ele>
        <time>2024-09-19T09:49:27Z</time>
      </trkpt>
      <trkpt lat="46.30361" lon="4.83227">
        <ele>188.4</ele>
        <time>2024-09-19T09:49:28Z</time>
      </trkpt>
      <trkpt lat="46.30361" lon="4.83227">
        <ele>188.4</ele>
        <time>2024-09-19T09:49:29Z</time>
      </trkpt>
      <trkpt lat="46.30361" lon="4.83228">
        <ele>188.4</ele>
        <time>2024-09-19T09:49:30Z</time>
      </trkpt>
      <trkpt lat="46.3036" lon="4.83228">
        <ele>188.6</ele>
        <time>2024-09-19T09:49:31Z</time>
      </trkpt>
      <trkpt lat="46.3036" lon="4.83228">
        <ele>188.6</ele>
        <time>2024-09-19T09:49:32Z</time>
      </trkpt>
      <trkpt lat="46.3036" lon="4.83228">
        <ele>188.6</ele>
        <time>2024-09-19T09:49:33Z</time>
      </trkpt>
      <trkpt lat="46.3036" lon="4.83229">
        <ele>188.6</ele>
        <time>2024-09-19T09:49:34Z</time>
      </trkpt>
      <trkpt lat="46.30359" lon="4.83229">
        <ele>188.6</ele>
        <time>2024-09-19T09:49:35Z</time>
      </trkpt>
      <trkpt lat="46.30358" lon="4.83228">
        <ele>188.6</ele>
        <time>2024-09-19T09:49:36Z</time>
      </trkpt>
      <trkpt lat="46.30357" lon="4.83228">
        <ele>188.6</ele>
        <time>2024-09-19T09:49:37Z</time>
      </trkpt>
      <trkpt lat="46.30357" lon="4.83227">
        <ele>188.6</ele>
        <time>2024-09-19T09:49:38Z</time>
      </trkpt>
      <trkpt lat="46.30356" lon="4.83227">
        <ele>188.6</ele>
        <time>2024-09-19T09:49:39Z</time>
      </trkpt>
      <trkpt lat="46.30356" lon="4.83227">
        <ele>188.4</ele>
        <time>2024-09-19T09:49:40Z</time>
      </trkpt>
      <trkpt lat="46.30356" lon="4.83226">
        <ele>188.4</ele>
        <time>2024-09-19T09:49:41Z</time>
      </trkpt>
      <trkpt lat="46.30356" lon="4.83226">
        <ele>188.4</ele>
        <time>2024-09-19T09:49:42Z</time>
      </trkpt>
      <trkpt lat="46.30356" lon="4.83226">
        <ele>188.4</ele>
        <time>2024-09-19T09:49:43Z</time>
      </trkpt>
      <trkpt lat="46.30356" lon="4.83226">
        <ele>188.4</ele>
        <time>2024-09-19T09:49:44Z</time>
      </trkpt>
      <trkpt lat="46.3035" lon="4.83225">
        <ele>188.6</ele>
        <time>2024-09-19T09:50:08Z</time>
      </trkpt>
      <trkpt lat="46.30349" lon="4.83224">
        <ele>188.6</ele>
        <time>2024-09-19T09:50:09Z</time>
      </trkpt>
      <trkpt lat="46.30348" lon="4.83223">
        <ele>188.6</ele>
        <time>2024-09-19T09:50:10Z</time>
      </trkpt>
      <trkpt lat="46.30348" lon="4.83222">
        <ele>188.6</ele>
        <time>2024-09-19T09:50:11Z</time>
      </trkpt>
      <trkpt lat="46.30347" lon="4.83221">
        <ele>188.6</ele>
        <time>2024-09-19T09:50:12Z</time>
      </trkpt>
      <trkpt lat="46.30346" lon="4.8322">
        <ele>188.6</ele>
        <time>2024-09-19T09:50:13Z</time>
      </trkpt>
      <trkpt lat="46.30345" lon="4.83219">
        <ele>188.6</ele>
        <time>2024-09-19T09:50:14Z</time>
      </trkpt>
      <trkpt lat="46.30345" lon="4.83218">
        <ele>188.6</ele>
        <time>2024-09-19T09:50:15Z</time>
      </trkpt>
      <trkpt lat="46.30344" lon="4.83216">
        <ele>188.6</ele>
        <time>2024-09-19T09:50:16Z</time>
      </trkpt>
      <trkpt lat="46.30343" lon="4.83215">
        <ele>188.6</ele>
        <time>2024-09-19T09:50:17Z</time>
      </trkpt>
      <trkpt lat="46.30343" lon="4.83215">
        <ele>188.6</ele>
        <time>2024-09-19T09:50:18Z</time>
      </trkpt>
      <trkpt lat="46.30342" lon="4.83214">
        <ele>188.6</ele>
        <time>2024-09-19T09:50:19Z</time>
      </trkpt>
      <trkpt lat="46.30341" lon="4.83212">
        <ele>188.6</ele>
        <time>2024-09-19T09:50:20Z</time>
      </trkpt>
      <trkpt lat="46.30342" lon="4.83211">
        <ele>188.6</ele>
        <time>2024-09-19T09:50:21Z</time>
      </trkpt>
      <trkpt lat="46.30342" lon="4.8321">
        <ele>188.6</ele>
        <time>2024-09-19T09:50:22Z</time>
      </trkpt>
      <trkpt lat="46.30341" lon="4.83209">
        <ele>188.2</ele>
        <time>2024-09-19T09:50:23Z</time>
      </trkpt>
      <trkpt lat="46.3034" lon="4.83208">
        <ele>188.4</ele>
        <time>2024-09-19T09:50:24Z</time>
      </trkpt>
      <trkpt lat="46.30339" lon="4.83207">
        <ele>188.4</ele>
        <time>2024-09-19T09:50:25Z</time>
      </trkpt>
      <trkpt lat="46.30339" lon="4.83206">
        <ele>188.4</ele>
        <time>2024-09-19T09:50:26Z</time>
      </trkpt>
      <trkpt lat="46.30338" lon="4.83205">
        <ele>188.4</ele>
        <time>2024-09-19T09:50:27Z</time>
      </trkpt>
      <trkpt lat="46.30337" lon="4.83203">
        <ele>188.4</ele>
        <time>2024-09-19T09:50:28Z</time>
      </trkpt>
      <trkpt lat="46.30336" lon="4.83202">
        <ele>189.2</ele>
        <time>2024-09-19T09:50:29Z</time>
      </trkpt>
      <trkpt lat="46.30335" lon="4.832">
        <ele>189.2</ele>
        <time>2024-09-19T09:50:30Z</time>
      </trkpt>
      <trkpt lat="46.30334" lon="4.83199">
        <ele>189.2</ele>
        <time>2024-09-19T09:50:31Z</time>
      </trkpt>
      <trkpt lat="46.30334" lon="4.83197">
        <ele>189.2</ele>
        <time>2024-09-19T09:50:32Z</time>
      </trkpt>
      <trkpt lat="46.30334" lon="4.83196">
        <ele>188.6</ele>
        <time>2024-09-19T09:50:33Z</time>
      </trkpt>
      <trkpt lat="46.30334" lon="4.83194">
        <ele>188.6</ele>
        <time>2024-09-19T09:50:34Z</time>
      </trkpt>
      <trkpt lat="46.30335" lon="4.83194">
        <ele>188.6</ele>
        <time>2024-09-19T09:50:35Z</time>
      </trkpt>
      <trkpt lat="46.30335" lon="4.83192">
        <ele>188.6</ele>
        <time>2024-09-19T09:50:36Z</time>
      </trkpt>
      <trkpt lat="46.30335" lon="4.83192">
        <ele>188.6</ele>
        <time>2024-09-19T09:50:37Z</time>
      </trkpt>
      <trkpt lat="46.30336" lon="4.8319">
        <ele>188.6</ele>
        <time>2024-09-19T09:50:38Z</time>
      </trkpt>
      <trkpt lat="46.30336" lon="4.83189">
        <ele>188.6</ele>
        <time>2024-09-19T09:50:39Z</time>
      </trkpt>
      <trkpt lat="46.30336" lon="4.83188">
        <ele>188.6</ele>
        <time>2024-09-19T09:50:40Z</time>
      </trkpt>
      <trkpt lat="46.30336" lon="4.83188">
        <ele>188.6</ele>
        <time>2024-09-19T09:50:41Z</time>
      </trkpt>
      <trkpt lat="46.30336" lon="4.83187">
        <ele>188.4</ele>
        <time>2024-09-19T09:50:42Z</time>
      </trkpt>
      <trkpt lat="46.30336" lon="4.83187">
        <ele>188.4</ele>
        <time>2024-09-19T09:50:43Z</time>
      </trkpt>
      <trkpt lat="46.30337" lon="4.83186">
        <ele>188.4</ele>
        <time>2024-09-19T09:50:44Z</time>
      </trkpt>
      <trkpt lat="46.30338" lon="4.83185">
        <ele>188.4</ele>
        <time>2024-09-19T09:50:45Z</time>
      </trkpt>
      <trkpt lat="46.3034" lon="4.83184">
        <ele>188.4</ele>
        <time>2024-09-19T09:50:46Z</time>
      </trkpt>
      <trkpt lat="46.30341" lon="4.83182">
        <ele>189</ele>
        <time>2024-09-19T09:50:47Z</time>
      </trkpt>
      <trkpt lat="46.30341" lon="4.8318">
        <ele>189</ele>
        <time>2024-09-19T09:50:48Z</time>
      </trkpt>
      <trkpt lat="46.30342" lon="4.83179">
        <ele>189</ele>
        <time>2024-09-19T09:50:49Z</time>
      </trkpt>
      <trkpt lat="46.30342" lon="4.83178">
        <ele>189</ele>
        <time>2024-09-19T09:50:50Z</time>
      </trkpt>
      <trkpt lat="46.30344" lon="4.83176">
        <ele>188.6</ele>
        <time>2024-09-19T09:50:51Z</time>
      </trkpt>
      <trkpt lat="46.30345" lon="4.83175">
        <ele>188.6</ele>
        <time>2024-09-19T09:50:52Z</time>
      </trkpt>
      <trkpt lat="46.30346" lon="4.83173">
        <ele>188.6</ele>
        <time>2024-09-19T09:50:53Z</time>
      </trkpt>
      <trkpt lat="46.30346" lon="4.83172">
        <ele>188.6</ele>
        <time>2024-09-19T09:50:54Z</time>
      </trkpt>
      <trkpt lat="46.30347" lon="4.8317">
        <ele>188.4</ele>
        <time>2024-09-19T09:50:55Z</time>
      </trkpt>
      <trkpt lat="46.30347" lon="4.83169">
        <ele>188.4</ele>
        <time>2024-09-19T09:50:56Z</time>
      </trkpt>
      <trkpt lat="46.30347" lon="4.83168">
        <ele>188.4</ele>
        <time>2024-09-19T09:50:57Z</time>
      </trkpt>
      <trkpt lat="46.30348" lon="4.83167">
        <ele>188.4</ele>
        <time>2024-09-19T09:50:58Z</time>
      </trkpt>
      <trkpt lat="46.30349" lon="4.83165">
        <ele>188.4</ele>
        <time>2024-09-19T09:50:59Z</time>
      </trkpt>
      <trkpt lat="46.30349" lon="4.83164">
        <ele>188.4</ele>
        <time>2024-09-19T09:51:00Z</time>
      </trkpt>
      <trkpt lat="46.3035" lon="4.83162">
        <ele>187.8</ele>
        <time>2024-09-19T09:51:01Z</time>
      </trkpt>
      <trkpt lat="46.3035" lon="4.8316">
        <ele>187.8</ele>
        <time>2024-09-19T09:51:02Z</time>
      </trkpt>
      <trkpt lat="46.30351" lon="4.83158">
        <ele>187.8</ele>
        <time>2024-09-19T09:51:03Z</time>
      </trkpt>
      <trkpt lat="46.30351" lon="4.83157">
        <ele>188.4</ele>
        <time>2024-09-19T09:51:04Z</time>
      </trkpt>
      <trkpt lat="46.30352" lon="4.83155">
        <ele>188.8</ele>
        <time>2024-09-19T09:51:05Z</time>
      </trkpt>
      <trkpt lat="46.30352" lon="4.83154">
        <ele>188.8</ele>
        <time>2024-09-19T09:51:06Z</time>
      </trkpt>
      <trkpt lat="46.30353" lon="4.83152">
        <ele>188.8</ele>
        <time>2024-09-19T09:51:07Z</time>
      </trkpt>
      <trkpt lat="46.30354" lon="4.83151">
        <ele>188.8</ele>
        <time>2024-09-19T09:51:08Z</time>
      </trkpt>
      <trkpt lat="46.30354" lon="4.8315">
        <ele>188.8</ele>
        <time>2024-09-19T09:51:09Z</time>
      </trkpt>
      <trkpt lat="46.30355" lon="4.83148">
        <ele>189</ele>
        <time>2024-09-19T09:51:10Z</time>
      </trkpt>
      <trkpt lat="46.30356" lon="4.83146">
        <ele>189</ele>
        <time>2024-09-19T09:51:11Z</time>
      </trkpt>
      <trkpt lat="46.30356" lon="4.83145">
        <ele>189</ele>
        <time>2024-09-19T09:51:12Z</time>
      </trkpt>
      <trkpt lat="46.30357" lon="4.83143">
        <ele>189</ele>
        <time>2024-09-19T09:51:13Z</time>
      </trkpt>
      <trkpt lat="46.30358" lon="4.83141">
        <ele>189</ele>
        <time>2024-09-19T09:51:14Z</time>
      </trkpt>
      <trkpt lat="46.30359" lon="4.83139">
        <ele>189</ele>
        <time>2024-09-19T09:51:15Z</time>
      </trkpt>
      <trkpt lat="46.30359" lon="4.83139">
        <ele>189</ele>
        <time>2024-09-19T09:51:16Z</time>
      </trkpt>
      <trkpt lat="46.3036" lon="4.83138">
        <ele>189</ele>
        <time>2024-09-19T09:51:17Z</time>
      </trkpt>
      <trkpt lat="46.30361" lon="4.83137">
        <ele>189.2</ele>
        <time>2024-09-19T09:51:18Z</time>
      </trkpt>
      <trkpt lat="46.30362" lon="4.83135">
        <ele>189</ele>
        <time>2024-09-19T09:51:19Z</time>
      </trkpt>
      <trkpt lat="46.30363" lon="4.83133">
        <ele>189</ele>
        <time>2024-09-19T09:51:20Z</time>
      </trkpt>
      <trkpt lat="46.30363" lon="4.83132">
        <ele>189</ele>
        <time>2024-09-19T09:51:21Z</time>
      </trkpt>
      <trkpt lat="46.30363" lon="4.83131">
        <ele>189</ele>
        <time>2024-09-19T09:51:22Z</time>
      </trkpt>
      <trkpt lat="46.30364" lon="4.83129">
        <ele>189</ele>
        <time>2024-09-19T09:51:23Z</time>
      </trkpt>
      <trkpt lat="46.30365" lon="4.83128">
        <ele>189</ele>
        <time>2024-09-19T09:51:24Z</time>
      </trkpt>
      <trkpt lat="46.30365" lon="4.83127">
        <ele>189</ele>
        <time>2024-09-19T09:51:25Z</time>
      </trkpt>
      <trkpt lat="46.30365" lon="4.83125">
        <ele>189</ele>
        <time>2024-09-19T09:51:26Z</time>
      </trkpt>
      <trkpt lat="46.30366" lon="4.83123">
        <ele>189</ele>
        <time>2024-09-19T09:51:27Z</time>
      </trkpt>
      <trkpt lat="46.30366" lon="4.83122">
        <ele>189.2</ele>
        <time>2024-09-19T09:51:28Z</time>
      </trkpt>
      <trkpt lat="46.30366" lon="4.83121">
        <ele>189.2</ele>
        <time>2024-09-19T09:51:29Z</time>
      </trkpt>
      <trkpt lat="46.30366" lon="4.8312">
        <ele>189.2</ele>
        <time>2024-09-19T09:51:30Z</time>
      </trkpt>
      <trkpt lat="46.30366" lon="4.83119">
        <ele>189.2</ele>
        <time>2024-09-19T09:51:31Z</time>
      </trkpt>
      <trkpt lat="46.30367" lon="4.83118">
        <ele>189.2</ele>
        <time>2024-09-19T09:51:32Z</time>
      </trkpt>
      <trkpt lat="46.30367" lon="4.83117">
        <ele>189.2</ele>
        <time>2024-09-19T09:51:33Z</time>
      </trkpt>
      <trkpt lat="46.30368" lon="4.83117">
        <ele>189.2</ele>
        <time>2024-09-19T09:51:34Z</time>
      </trkpt>
      <trkpt lat="46.30369" lon="4.83117">
        <ele>189.2</ele>
        <time>2024-09-19T09:51:35Z</time>
      </trkpt>
      <trkpt lat="46.3037" lon="4.83117">
        <ele>189.2</ele>
        <time>2024-09-19T09:51:36Z</time>
      </trkpt>
      <trkpt lat="46.3037" lon="4.83116">
        <ele>189.4</ele>
        <time>2024-09-19T09:51:37Z</time>
      </trkpt>
      <trkpt lat="46.30371" lon="4.83116">
        <ele>189.4</ele>
        <time>2024-09-19T09:51:38Z</time>
      </trkpt>
      <trkpt lat="46.30371" lon="4.83116">
        <ele>189.4</ele>
        <time>2024-09-19T09:51:39Z</time>
      </trkpt>
      <trkpt lat="46.30371" lon="4.83114">
        <ele>189.4</ele>
        <time>2024-09-19T09:51:40Z</time>
      </trkpt>
      <trkpt lat="46.30371" lon="4.83114">
        <ele>189.4</ele>
        <time>2024-09-19T09:51:41Z</time>
      </trkpt>
      <trkpt lat="46.30371" lon="4.83114">
        <ele>189.4</ele>
        <time>2024-09-19T09:51:42Z</time>
      </trkpt>
      <trkpt lat="46.30371" lon="4.83114">
        <ele>189.4</ele>
        <time>2024-09-19T09:51:43Z</time>
      </trkpt>
      <trkpt lat="46.30369" lon="4.83111">
        <ele>189.6</ele>
        <time>2024-09-19T09:51:50Z</time>
      </trkpt>
      <trkpt lat="46.30368" lon="4.83113">
        <ele>189.6</ele>
        <time>2024-09-19T09:51:51Z</time>
      </trkpt>
      <trkpt lat="46.30368" lon="4.83114">
        <ele>189.6</ele>
        <time>2024-09-19T09:51:52Z</time>
      </trkpt>
      <trkpt lat="46.30367" lon="4.83115">
        <ele>189.6</ele>
        <time>2024-09-19T09:51:53Z</time>
      </trkpt>
      <trkpt lat="46.30366" lon="4.83116">
        <ele>189.6</ele>
        <time>2024-09-19T09:51:54Z</time>
      </trkpt>
      <trkpt lat="46.30364" lon="4.83117">
        <ele>189</ele>
        <time>2024-09-19T09:51:55Z</time>
      </trkpt>
      <trkpt lat="46.30363" lon="4.83118">
        <ele>189</ele>
        <time>2024-09-19T09:51:56Z</time>
      </trkpt>
      <trkpt lat="46.30362" lon="4.8312">
        <ele>189</ele>
        <time>2024-09-19T09:51:57Z</time>
      </trkpt>
      <trkpt lat="46.30361" lon="4.83122">
        <ele>189</ele>
        <time>2024-09-19T09:51:58Z</time>
      </trkpt>
      <trkpt lat="46.3036" lon="4.83123">
        <ele>189.6</ele>
        <time>2024-09-19T09:51:59Z</time>
      </trkpt>
      <trkpt lat="46.30359" lon="4.83124">
        <ele>189.6</ele>
        <time>2024-09-19T09:52:00Z</time>
      </trkpt>
      <trkpt lat="46.30358" lon="4.83126">
        <ele>189.6</ele>
        <time>2024-09-19T09:52:01Z</time>
      </trkpt>
      <trkpt lat="46.30357" lon="4.83127">
        <ele>188.6</ele>
        <time>2024-09-19T09:52:02Z</time>
      </trkpt>
      <trkpt lat="46.30356" lon="4.83129">
        <ele>189</ele>
        <time>2024-09-19T09:52:03Z</time>
      </trkpt>
      <trkpt lat="46.30355" lon="4.83131">
        <ele>189</ele>
        <time>2024-09-19T09:52:04Z</time>
      </trkpt>
      <trkpt lat="46.30354" lon="4.83132">
        <ele>189</ele>
        <time>2024-09-19T09:52:05Z</time>
      </trkpt>
      <trkpt lat="46.30353" lon="4.83133">
        <ele>189</ele>
        <time>2024-09-19T09:52:06Z</time>
      </trkpt>
      <trkpt lat="46.30352" lon="4.83134">
        <ele>189</ele>
        <time>2024-09-19T09:52:07Z</time>
      </trkpt>
      <trkpt lat="46.30352" lon="4.83136">
        <ele>189.8</ele>
        <time>2024-09-19T09:52:08Z</time>
      </trkpt>
      <trkpt lat="46.30351" lon="4.83137">
        <ele>189.8</ele>
        <time>2024-09-19T09:52:09Z</time>
      </trkpt>
      <trkpt lat="46.3035" lon="4.83138">
        <ele>189.8</ele>
        <time>2024-09-19T09:52:10Z</time>
      </trkpt>
      <trkpt lat="46.3035" lon="4.8314">
        <ele>189.6</ele>
        <time>2024-09-19T09:52:11Z</time>
      </trkpt>
      <trkpt lat="46.30349" lon="4.83142">
        <ele>189.8</ele>
        <time>2024-09-19T09:52:12Z</time>
      </trkpt>
      <trkpt lat="46.30348" lon="4.83144">
        <ele>189.8</ele>
        <time>2024-09-19T09:52:13Z</time>
      </trkpt>
      <trkpt lat="46.30347" lon="4.83146">
        <ele>189.8</ele>
        <time>2024-09-19T09:52:14Z</time>
      </trkpt>
      <trkpt lat="46.30346" lon="4.83147">
        <ele>189.6</ele>
        <time>2024-09-19T09:52:15Z</time>
      </trkpt>
      <trkpt lat="46.30345" lon="4.83148">
        <ele>189.4</ele>
        <time>2024-09-19T09:52:16Z</time>
      </trkpt>
      <trkpt lat="46.30344" lon="4.8315">
        <ele>189.4</ele>
        <time>2024-09-19T09:52:17Z</time>
      </trkpt>
      <trkpt lat="46.30343" lon="4.83151">
        <ele>189.4</ele>
        <time>2024-09-19T09:52:18Z</time>
      </trkpt>
      <trkpt lat="46.30343" lon="4.83153">
        <ele>189.4</ele>
        <time>2024-09-19T09:52:19Z</time>
      </trkpt>
      <trkpt lat="46.30342" lon="4.83155">
        <ele>189.4</ele>
        <time>2024-09-19T09:52:20Z</time>
      </trkpt>
      <trkpt lat="46.30342" lon="4.83157">
        <ele>189.6</ele>
        <time>2024-09-19T09:52:21Z</time>
      </trkpt>
      <trkpt lat="46.30341" lon="4.83158">
        <ele>189.6</ele>
        <time>2024-09-19T09:52:22Z</time>
      </trkpt>
      <trkpt lat="46.30341" lon="4.8316">
        <ele>189.6</ele>
        <time>2024-09-19T09:52:23Z</time>
      </trkpt>
      <trkpt lat="46.3034" lon="4.83161">
        <ele>189.6</ele>
        <time>2024-09-19T09:52:24Z</time>
      </trkpt>
      <trkpt lat="46.30339" lon="4.83163">
        <ele>189.4</ele>
        <time>2024-09-19T09:52:25Z</time>
      </trkpt>
      <trkpt lat="46.30339" lon="4.83164">
        <ele>189.4</ele>
        <time>2024-09-19T09:52:26Z</time>
      </trkpt>
      <trkpt lat="46.30338" lon="4.83166">
        <ele>189.4</ele>
        <time>2024-09-19T09:52:27Z</time>
      </trkpt>
      <trkpt lat="46.30337" lon="4.83167">
        <ele>189.2</ele>
        <time>2024-09-19T09:52:28Z</time>
      </trkpt>
      <trkpt lat="46.30337" lon="4.83168">
        <ele>189.2</ele>
        <time>2024-09-19T09:52:29Z</time>
      </trkpt>
      <trkpt lat="46.30336" lon="4.83169">
        <ele>189.2</ele>
        <time>2024-09-19T09:52:30Z</time>
      </trkpt>
      <trkpt lat="46.30335" lon="4.83171">
        <ele>189</ele>
        <time>2024-09-19T09:52:31Z</time>
      </trkpt>
      <trkpt lat="46.30335" lon="4.83172">
        <ele>189</ele>
        <time>2024-09-19T09:52:32Z</time>
      </trkpt>
      <trkpt lat="46.30334" lon="4.83173">
        <ele>189</ele>
        <time>2024-09-19T09:52:33Z</time>
      </trkpt>
      <trkpt lat="46.30333" lon="4.83175">
        <ele>189</ele>
        <time>2024-09-19T09:52:34Z</time>
      </trkpt>
      <trkpt lat="46.30333" lon="4.83176">
        <ele>189</ele>
        <time>2024-09-19T09:52:35Z</time>
      </trkpt>
      <trkpt lat="46.30333" lon="4.83177">
        <ele>188.8</ele>
        <time>2024-09-19T09:52:36Z</time>
      </trkpt>
      <trkpt lat="46.30333" lon="4.83179">
        <ele>188.8</ele>
        <time>2024-09-19T09:52:37Z</time>
      </trkpt>
      <trkpt lat="46.30333" lon="4.8318">
        <ele>189.2</ele>
        <time>2024-09-19T09:52:38Z</time>
      </trkpt>
      <trkpt lat="46.30332" lon="4.83181">
        <ele>189.2</ele>
        <time>2024-09-19T09:52:39Z</time>
      </trkpt>
      <trkpt lat="46.30332" lon="4.83181">
        <ele>189.2</ele>
        <time>2024-09-19T09:52:40Z</time>
      </trkpt>
      <trkpt lat="46.30328" lon="4.83186">
        <ele>189.2</ele>
        <time>2024-09-19T09:52:49Z</time>
      </trkpt>
      <trkpt lat="46.30328" lon="4.83185">
        <ele>189.2</ele>
        <time>2024-09-19T09:52:50Z</time>
      </trkpt>
      <trkpt lat="46.30328" lon="4.83185">
        <ele>189.2</ele>
        <time>2024-09-19T09:52:51Z</time>
      </trkpt>
      <trkpt lat="46.30327" lon="4.83184">
        <ele>189.2</ele>
        <time>2024-09-19T09:52:52Z</time>
      </trkpt>
      <trkpt lat="46.30326" lon="4.83183">
        <ele>189.4</ele>
        <time>2024-09-19T09:52:53Z</time>
      </trkpt>
      <trkpt lat="46.30325" lon="4.83183">
        <ele>189.4</ele>
        <time>2024-09-19T09:52:54Z</time>
      </trkpt>
      <trkpt lat="46.30324" lon="4.83183">
        <ele>189.4</ele>
        <time>2024-09-19T09:52:55Z</time>
      </trkpt>
      <trkpt lat="46.30324" lon="4.83183">
        <ele>189.4</ele>
        <time>2024-09-19T09:52:56Z</time>
      </trkpt>
      <trkpt lat="46.30324" lon="4.83183">
        <ele>189.2</ele>
        <time>2024-09-19T09:52:57Z</time>
      </trkpt>
      <trkpt lat="46.30321" lon="4.8318">
        <ele>189.2</ele>
        <time>2024-09-19T09:53:15Z</time>
      </trkpt>
      <trkpt lat="46.30321" lon="4.83179">
        <ele>189.2</ele>
        <time>2024-09-19T09:53:16Z</time>
      </trkpt>
      <trkpt lat="46.30321" lon="4.83179">
        <ele>189.2</ele>
        <time>2024-09-19T09:53:17Z</time>
      </trkpt>
      <trkpt lat="46.30321" lon="4.83179">
        <ele>189.2</ele>
        <time>2024-09-19T09:53:18Z</time>
      </trkpt>
      <trkpt lat="46.3032" lon="4.83179">
        <ele>189.2</ele>
        <time>2024-09-19T09:53:19Z</time>
      </trkpt>
      <trkpt lat="46.3032" lon="4.83178">
        <ele>189.2</ele>
        <time>2024-09-19T09:53:20Z</time>
      </trkpt>
      <trkpt lat="46.3032" lon="4.83177">
        <ele>189.2</ele>
        <time>2024-09-19T09:53:21Z</time>
      </trkpt>
      <trkpt lat="46.30319" lon="4.83176">
        <ele>189.2</ele>
        <time>2024-09-19T09:53:22Z</time>
      </trkpt>
      <trkpt lat="46.30318" lon="4.83175">
        <ele>189.2</ele>
        <time>2024-09-19T09:53:23Z</time>
      </trkpt>
      <trkpt lat="46.30317" lon="4.83174">
        <ele>189.2</ele>
        <time>2024-09-19T09:53:24Z</time>
      </trkpt>
      <trkpt lat="46.30316" lon="4.83173">
        <ele>189.2</ele>
        <time>2024-09-19T09:53:25Z</time>
      </trkpt>
      <trkpt lat="46.30315" lon="4.83171">
        <ele>189.6</ele>
        <time>2024-09-19T09:53:26Z</time>
      </trkpt>
      <trkpt lat="46.30315" lon="4.83169">
        <ele>189.6</ele>
        <time>2024-09-19T09:53:27Z</time>
      </trkpt>
      <trkpt lat="46.30314" lon="4.83167">
        <ele>189.4</ele>
        <time>2024-09-19T09:53:28Z</time>
      </trkpt>
      <trkpt lat="46.30313" lon="4.83165">
        <ele>189.4</ele>
        <time>2024-09-19T09:53:29Z</time>
      </trkpt>
      <trkpt lat="46.30313" lon="4.83163">
        <ele>189.4</ele>
        <time>2024-09-19T09:53:30Z</time>
      </trkpt>
      <trkpt lat="46.30313" lon="4.83161">
        <ele>189.4</ele>
        <time>2024-09-19T09:53:31Z</time>
      </trkpt>
      <trkpt lat="46.30312" lon="4.83159">
        <ele>189.4</ele>
        <time>2024-09-19T09:53:32Z</time>
      </trkpt>
      <trkpt lat="46.30312" lon="4.83158">
        <ele>189.2</ele>
        <time>2024-09-19T09:53:33Z</time>
      </trkpt>
      <trkpt lat="46.30312" lon="4.83156">
        <ele>189.2</ele>
        <time>2024-09-19T09:53:34Z</time>
      </trkpt>
      <trkpt lat="46.30311" lon="4.83155">
        <ele>189.2</ele>
        <time>2024-09-19T09:53:35Z</time>
      </trkpt>
      <trkpt lat="46.3031" lon="4.83154">
        <ele>189.2</ele>
        <time>2024-09-19T09:53:36Z</time>
      </trkpt>
      <trkpt lat="46.30309" lon="4.83153">
        <ele>189.4</ele>
        <time>2024-09-19T09:53:37Z</time>
      </trkpt>
      <trkpt lat="46.30307" lon="4.83151">
        <ele>189.4</ele>
        <time>2024-09-19T09:53:38Z</time>
      </trkpt>
      <trkpt lat="46.30306" lon="4.8315">
        <ele>189.4</ele>
        <time>2024-09-19T09:53:39Z</time>
      </trkpt>
      <trkpt lat="46.30305" lon="4.83148">
        <ele>189.4</ele>
        <time>2024-09-19T09:53:40Z</time>
      </trkpt>
      <trkpt lat="46.30304" lon="4.83147">
        <ele>189.6</ele>
        <time>2024-09-19T09:53:41Z</time>
      </trkpt>
      <trkpt lat="46.30303" lon="4.83146">
        <ele>189.8</ele>
        <time>2024-09-19T09:53:42Z</time>
      </trkpt>
      <trkpt lat="46.30303" lon="4.83145">
        <ele>189.8</ele>
        <time>2024-09-19T09:53:43Z</time>
      </trkpt>
      <trkpt lat="46.30302" lon="4.83144">
        <ele>189.8</ele>
        <time>2024-09-19T09:53:44Z</time>
      </trkpt>
      <trkpt lat="46.303" lon="4.83143">
        <ele>189.8</ele>
        <time>2024-09-19T09:53:45Z</time>
      </trkpt>
      <trkpt lat="46.30299" lon="4.83142">
        <ele>189.8</ele>
        <time>2024-09-19T09:53:46Z</time>
      </trkpt>
      <trkpt lat="46.30298" lon="4.8314">
        <ele>189.8</ele>
        <time>2024-09-19T09:53:47Z</time>
      </trkpt>
      <trkpt lat="46.30297" lon="4.83139">
        <ele>189.8</ele>
        <time>2024-09-19T09:53:48Z</time>
      </trkpt>
      <trkpt lat="46.30296" lon="4.83137">
        <ele>189.8</ele>
        <time>2024-09-19T09:53:49Z</time>
      </trkpt>
      <trkpt lat="46.30295" lon="4.83135">
        <ele>189.8</ele>
        <time>2024-09-19T09:53:50Z</time>
      </trkpt>
      <trkpt lat="46.30295" lon="4.83133">
        <ele>189.4</ele>
        <time>2024-09-19T09:53:51Z</time>
      </trkpt>
      <trkpt lat="46.30294" lon="4.83132">
        <ele>189.4</ele>
        <time>2024-09-19T09:53:52Z</time>
      </trkpt>
      <trkpt lat="46.30293" lon="4.8313">
        <ele>189.4</ele>
        <time>2024-09-19T09:53:53Z</time>
      </trkpt>
      <trkpt lat="46.30292" lon="4.83129">
        <ele>189.4</ele>
        <time>2024-09-19T09:53:54Z</time>
      </trkpt>
      <trkpt lat="46.30291" lon="4.83127">
        <ele>189.2</ele>
        <time>2024-09-19T09:53:55Z</time>
      </trkpt>
      <trkpt lat="46.3029" lon="4.83126">
        <ele>189.2</ele>
        <time>2024-09-19T09:53:56Z</time>
      </trkpt>
      <trkpt lat="46.30289" lon="4.83124">
        <ele>189.2</ele>
        <time>2024-09-19T09:53:57Z</time>
      </trkpt>
      <trkpt lat="46.30288" lon="4.83123">
        <ele>189.4</ele>
        <time>2024-09-19T09:53:58Z</time>
      </trkpt>
      <trkpt lat="46.30288" lon="4.83121">
        <ele>189.6</ele>
        <time>2024-09-19T09:53:59Z</time>
      </trkpt>
      <trkpt lat="46.30287" lon="4.83119">
        <ele>189.6</ele>
        <time>2024-09-19T09:54:00Z</time>
      </trkpt>
      <trkpt lat="46.30286" lon="4.83118">
        <ele>189.6</ele>
        <time>2024-09-19T09:54:01Z</time>
      </trkpt>
      <trkpt lat="46.30285" lon="4.83117">
        <ele>189.6</ele>
        <time>2024-09-19T09:54:02Z</time>
      </trkpt>
      <trkpt lat="46.30285" lon="4.83115">
        <ele>189.2</ele>
        <time>2024-09-19T09:54:03Z</time>
      </trkpt>
      <trkpt lat="46.30284" lon="4.83114">
        <ele>189.4</ele>
        <time>2024-09-19T09:54:04Z</time>
      </trkpt>
      <trkpt lat="46.30283" lon="4.83113">
        <ele>189.4</ele>
        <time>2024-09-19T09:54:05Z</time>
      </trkpt>
      <trkpt lat="46.30282" lon="4.83111">
        <ele>189.4</ele>
        <time>2024-09-19T09:54:06Z</time>
      </trkpt>
      <trkpt lat="46.30281" lon="4.83109">
        <ele>189.2</ele>
        <time>2024-09-19T09:54:07Z</time>
      </trkpt>
      <trkpt lat="46.3028" lon="4.83108">
        <ele>189.2</ele>
        <time>2024-09-19T09:54:08Z</time>
      </trkpt>
      <trkpt lat="46.30279" lon="4.83106">
        <ele>189.2</ele>
        <time>2024-09-19T09:54:09Z</time>
      </trkpt>
      <trkpt lat="46.30279" lon="4.83105">
        <ele>189.2</ele>
        <time>2024-09-19T09:54:10Z</time>
      </trkpt>
      <trkpt lat="46.30278" lon="4.83103">
        <ele>189.6</ele>
        <time>2024-09-19T09:54:11Z</time>
      </trkpt>
      <trkpt lat="46.30278" lon="4.83101">
        <ele>189.6</ele>
        <time>2024-09-19T09:54:12Z</time>
      </trkpt>
      <trkpt lat="46.30277" lon="4.83101">
        <ele>189.6</ele>
        <time>2024-09-19T09:54:13Z</time>
      </trkpt>
      <trkpt lat="46.30277" lon="4.83101">
        <ele>189.2</ele>
        <time>2024-09-19T09:54:14Z</time>
      </trkpt>
      <trkpt lat="46.30276" lon="4.831">
        <ele>189.2</ele>
        <time>2024-09-19T09:54:15Z</time>
      </trkpt>
      <trkpt lat="46.30276" lon="4.83099">
        <ele>189.2</ele>
        <time>2024-09-19T09:54:16Z</time>
      </trkpt>
      <trkpt lat="46.30276" lon="4.83099">
        <ele>189.2</ele>
        <time>2024-09-19T09:54:17Z</time>
      </trkpt>
      <trkpt lat="46.30276" lon="4.83098">
        <ele>189.4</ele>
        <time>2024-09-19T09:54:18Z</time>
      </trkpt>
      <trkpt lat="46.30276" lon="4.83097">
        <ele>189.4</ele>
        <time>2024-09-19T09:54:19Z</time>
      </trkpt>
      <trkpt lat="46.30275" lon="4.83097">
        <ele>189.4</ele>
        <time>2024-09-19T09:54:20Z</time>
      </trkpt>
      <trkpt lat="46.30275" lon="4.83096">
        <ele>189.4</ele>
        <time>2024-09-19T09:54:21Z</time>
      </trkpt>
      <trkpt lat="46.30276" lon="4.83095">
        <ele>189.2</ele>
        <time>2024-09-19T09:54:22Z</time>
      </trkpt>
      <trkpt lat="46.30276" lon="4.83094">
        <ele>189.2</ele>
        <time>2024-09-19T09:54:23Z</time>
      </trkpt>
      <trkpt lat="46.30277" lon="4.83093">
        <ele>189.2</ele>
        <time>2024-09-19T09:54:24Z</time>
      </trkpt>
      <trkpt lat="46.30276" lon="4.83093">
        <ele>189.2</ele>
        <time>2024-09-19T09:54:25Z</time>
      </trkpt>
      <trkpt lat="46.30276" lon="4.83093">
        <ele>189.2</ele>
        <time>2024-09-19T09:54:26Z</time>
      </trkpt>
      <trkpt lat="46.30277" lon="4.83092">
        <ele>189.6</ele>
        <time>2024-09-19T09:54:27Z</time>
      </trkpt>
      <trkpt lat="46.30275" lon="4.83091">
        <ele>189.6</ele>
        <time>2024-09-19T09:54:28Z</time>
      </trkpt>
      <trkpt lat="46.30275" lon="4.83091">
        <ele>189.6</ele>
        <time>2024-09-19T09:54:29Z</time>
      </trkpt>
      <trkpt lat="46.30275" lon="4.83091">
        <ele>189.4</ele>
        <time>2024-09-19T09:54:30Z</time>
      </trkpt>
      <trkpt lat="46.30275" lon="4.83091">
        <ele>189.4</ele>
        <time>2024-09-19T09:54:31Z</time>
      </trkpt>
      <trkpt lat="46.30275" lon="4.83091">
        <ele>189.4</ele>
        <time>2024-09-19T09:54:32Z</time>
      </trkpt>
      <trkpt lat="46.30276" lon="4.83092">
        <ele>189.4</ele>
        <time>2024-09-19T09:54:33Z</time>
      </trkpt>
      <trkpt lat="46.30276" lon="4.83092">
        <ele>189.4</ele>
        <time>2024-09-19T09:54:34Z</time>
      </trkpt>
      <trkpt lat="46.30276" lon="4.83092">
        <ele>189.4</ele>
        <time>2024-09-19T09:54:35Z</time>
      </trkpt>
      <trkpt lat="46.30284" lon="4.83101">
        <ele>189.2</ele>
        <time>2024-09-19T09:55:45Z</time>
      </trkpt>
      <trkpt lat="46.30284" lon="4.83101">
        <ele>189.2</ele>
        <time>2024-09-19T09:55:46Z</time>
      </trkpt>
      <trkpt lat="46.30284" lon="4.83101">
        <ele>189.2</ele>
        <time>2024-09-19T09:55:47Z</time>
      </trkpt>
      <trkpt lat="46.30303" lon="4.83125">
        <ele>189</ele>
        <time>2024-09-19T09:56:43Z</time>
      </trkpt>
      <trkpt lat="46.30302" lon="4.83126">
        <ele>189.2</ele>
        <time>2024-09-19T09:56:44Z</time>
      </trkpt>
      <trkpt lat="46.30303" lon="4.83128">
        <ele>189.2</ele>
        <time>2024-09-19T09:56:45Z</time>
      </trkpt>
      <trkpt lat="46.30302" lon="4.8313">
        <ele>189.2</ele>
        <time>2024-09-19T09:56:46Z</time>
      </trkpt>
      <trkpt lat="46.30302" lon="4.83132">
        <ele>189.2</ele>
        <time>2024-09-19T09:56:47Z</time>
      </trkpt>
      <trkpt lat="46.30303" lon="4.83134">
        <ele>189.2</ele>
        <time>2024-09-19T09:56:48Z</time>
      </trkpt>
      <trkpt lat="46.30303" lon="4.83136">
        <ele>189.2</ele>
        <time>2024-09-19T09:56:49Z</time>
      </trkpt>
      <trkpt lat="46.30304" lon="4.83138">
        <ele>189.2</ele>
        <time>2024-09-19T09:56:50Z</time>
      </trkpt>
      <trkpt lat="46.30305" lon="4.83139">
        <ele>189.2</ele>
        <time>2024-09-19T09:56:51Z</time>
      </trkpt>
      <trkpt lat="46.30306" lon="4.83141">
        <ele>189.2</ele>
        <time>2024-09-19T09:56:52Z</time>
      </trkpt>
      <trkpt lat="46.30306" lon="4.83143">
        <ele>189.2</ele>
        <time>2024-09-19T09:56:53Z</time>
      </trkpt>
      <trkpt lat="46.30307" lon="4.83144">
        <ele>189.6</ele>
        <time>2024-09-19T09:56:54Z</time>
      </trkpt>
      <trkpt lat="46.30308" lon="4.83146">
        <ele>189.6</ele>
        <time>2024-09-19T09:56:55Z</time>
      </trkpt>
      <trkpt lat="46.30308" lon="4.83148">
        <ele>189.6</ele>
        <time>2024-09-19T09:56:56Z</time>
      </trkpt>
      <trkpt lat="46.30309" lon="4.8315">
        <ele>189.6</ele>
        <time>2024-09-19T09:56:57Z</time>
      </trkpt>
      <trkpt lat="46.30309" lon="4.83152">
        <ele>189.4</ele>
        <time>2024-09-19T09:56:58Z</time>
      </trkpt>
      <trkpt lat="46.30309" lon="4.83154">
        <ele>189.6</ele>
        <time>2024-09-19T09:56:59Z</time>
      </trkpt>
      <trkpt lat="46.3031" lon="4.83155">
        <ele>189.6</ele>
        <time>2024-09-19T09:57:00Z</time>
      </trkpt>
      <trkpt lat="46.3031" lon="4.83156">
        <ele>189.6</ele>
        <time>2024-09-19T09:57:01Z</time>
      </trkpt>
      <trkpt lat="46.30311" lon="4.83157">
        <ele>189.2</ele>
        <time>2024-09-19T09:57:02Z</time>
      </trkpt>
      <trkpt lat="46.30312" lon="4.83158">
        <ele>189.2</ele>
        <time>2024-09-19T09:57:03Z</time>
      </trkpt>
      <trkpt lat="46.30313" lon="4.83159">
        <ele>189.2</ele>
        <time>2024-09-19T09:57:04Z</time>
      </trkpt>
      <trkpt lat="46.30314" lon="4.83159">
        <ele>189.2</ele>
        <time>2024-09-19T09:57:05Z</time>
      </trkpt>
      <trkpt lat="46.30315" lon="4.8316">
        <ele>189.2</ele>
        <time>2024-09-19T09:57:06Z</time>
      </trkpt>
      <trkpt lat="46.30316" lon="4.83162">
        <ele>189.4</ele>
        <time>2024-09-19T09:57:07Z</time>
      </trkpt>
      <trkpt lat="46.30316" lon="4.83163">
        <ele>189.4</ele>
        <time>2024-09-19T09:57:08Z</time>
      </trkpt>
      <trkpt lat="46.30317" lon="4.83164">
        <ele>189.4</ele>
        <time>2024-09-19T09:57:09Z</time>
      </trkpt>
      <trkpt lat="46.30318" lon="4.83165">
        <ele>189.4</ele>
        <time>2024-09-19T09:57:10Z</time>
      </trkpt>
      <trkpt lat="46.30319" lon="4.83167">
        <ele>189</ele>
        <time>2024-09-19T09:57:11Z</time>
      </trkpt>
      <trkpt lat="46.3032" lon="4.83168">
        <ele>189.2</ele>
        <time>2024-09-19T09:57:12Z</time>
      </trkpt>
      <trkpt lat="46.30321" lon="4.8317">
        <ele>189.2</ele>
        <time>2024-09-19T09:57:13Z</time>
      </trkpt>
      <trkpt lat="46.30322" lon="4.83172">
        <ele>189.2</ele>
        <time>2024-09-19T09:57:14Z</time>
      </trkpt>
      <trkpt lat="46.30323" lon="4.83174">
        <ele>189.2</ele>
        <time>2024-09-19T09:57:15Z</time>
      </trkpt>
      <trkpt lat="46.30323" lon="4.83176">
        <ele>189</ele>
        <time>2024-09-19T09:57:16Z</time>
      </trkpt>
      <trkpt lat="46.30324" lon="4.83177">
        <ele>189</ele>
        <time>2024-09-19T09:57:17Z</time>
      </trkpt>
      <trkpt lat="46.30325" lon="4.83179">
        <ele>189</ele>
        <time>2024-09-19T09:57:18Z</time>
      </trkpt>
      <trkpt lat="46.30326" lon="4.8318">
        <ele>189</ele>
        <time>2024-09-19T09:57:19Z</time>
      </trkpt>
      <trkpt lat="46.30328" lon="4.83181">
        <ele>189</ele>
        <time>2024-09-19T09:57:20Z</time>
      </trkpt>
      <trkpt lat="46.30329" lon="4.83182">
        <ele>188.8</ele>
        <time>2024-09-19T09:57:21Z</time>
      </trkpt>
      <trkpt lat="46.30329" lon="4.83184">
        <ele>188.8</ele>
        <time>2024-09-19T09:57:22Z</time>
      </trkpt>
      <trkpt lat="46.3033" lon="4.83185">
        <ele>188.8</ele>
        <time>2024-09-19T09:57:23Z</time>
      </trkpt>
      <trkpt lat="46.3033" lon="4.83188">
        <ele>188.8</ele>
        <time>2024-09-19T09:57:24Z</time>
      </trkpt>
      <trkpt lat="46.3033" lon="4.8319">
        <ele>188.8</ele>
        <time>2024-09-19T09:57:25Z</time>
      </trkpt>
      <trkpt lat="46.3033" lon="4.83192">
        <ele>188.8</ele>
        <time>2024-09-19T09:57:26Z</time>
      </trkpt>
      <trkpt lat="46.30329" lon="4.83195">
        <ele>188.8</ele>
        <time>2024-09-19T09:57:27Z</time>
      </trkpt>
      <trkpt lat="46.30328" lon="4.83196">
        <ele>188.8</ele>
        <time>2024-09-19T09:57:28Z</time>
      </trkpt>
      <trkpt lat="46.30328" lon="4.83198">
        <ele>188.8</ele>
        <time>2024-09-19T09:57:29Z</time>
      </trkpt>
      <trkpt lat="46.30328" lon="4.832">
        <ele>188.8</ele>
        <time>2024-09-19T09:57:30Z</time>
      </trkpt>
      <trkpt lat="46.30328" lon="4.83201">
        <ele>188.8</ele>
        <time>2024-09-19T09:57:31Z</time>
      </trkpt>
      <trkpt lat="46.30327" lon="4.83203">
        <ele>188.8</ele>
        <time>2024-09-19T09:57:32Z</time>
      </trkpt>
      <trkpt lat="46.30326" lon="4.83205">
        <ele>188.8</ele>
        <time>2024-09-19T09:57:33Z</time>
      </trkpt>
      <trkpt lat="46.30326" lon="4.83207">
        <ele>188.8</ele>
        <time>2024-09-19T09:57:34Z</time>
      </trkpt>
      <trkpt lat="46.30325" lon="4.83209">
        <ele>188.6</ele>
        <time>2024-09-19T09:57:35Z</time>
      </trkpt>
      <trkpt lat="46.30324" lon="4.83211">
        <ele>188.6</ele>
        <time>2024-09-19T09:57:36Z</time>
      </trkpt>
      <trkpt lat="46.30324" lon="4.83213">
        <ele>188.6</ele>
        <time>2024-09-19T09:57:37Z</time>
      </trkpt>
      <trkpt lat="46.30323" lon="4.83215">
        <ele>188.6</ele>
        <time>2024-09-19T09:57:38Z</time>
      </trkpt>
      <trkpt lat="46.30322" lon="4.83217">
        <ele>188.6</ele>
        <time>2024-09-19T09:57:39Z</time>
      </trkpt>
      <trkpt lat="46.30321" lon="4.83218">
        <ele>188.6</ele>
        <time>2024-09-19T09:57:40Z</time>
      </trkpt>
      <trkpt lat="46.3032" lon="4.8322">
        <ele>188.6</ele>
        <time>2024-09-19T09:57:41Z</time>
      </trkpt>
      <trkpt lat="46.3032" lon="4.83222">
        <ele>188.6</ele>
        <time>2024-09-19T09:57:42Z</time>
      </trkpt>
      <trkpt lat="46.30319" lon="4.83223">
        <ele>188.6</ele>
        <time>2024-09-19T09:57:43Z</time>
      </trkpt>
      <trkpt lat="46.30318" lon="4.83225">
        <ele>188.8</ele>
        <time>2024-09-19T09:57:44Z</time>
      </trkpt>
      <trkpt lat="46.30318" lon="4.83226">
        <ele>188.8</ele>
        <time>2024-09-19T09:57:45Z</time>
      </trkpt>
      <trkpt lat="46.30317" lon="4.83227">
        <ele>188.8</ele>
        <time>2024-09-19T09:57:46Z</time>
      </trkpt>
      <trkpt lat="46.30317" lon="4.83228">
        <ele>188.6</ele>
        <time>2024-09-19T09:57:47Z</time>
      </trkpt>
      <trkpt lat="46.30316" lon="4.83229">
        <ele>188.6</ele>
        <time>2024-09-19T09:57:48Z</time>
      </trkpt>
      <trkpt lat="46.30315" lon="4.83231">
        <ele>188.6</ele>
        <time>2024-09-19T09:57:49Z</time>
      </trkpt>
      <trkpt lat="46.30314" lon="4.83232">
        <ele>188.6</ele>
        <time>2024-09-19T09:57:50Z</time>
      </trkpt>
      <trkpt lat="46.30313" lon="4.83233">
        <ele>188.6</ele>
        <time>2024-09-19T09:57:51Z</time>
      </trkpt>
      <trkpt lat="46.30312" lon="4.83234">
        <ele>188.8</ele>
        <time>2024-09-19T09:57:52Z</time>
      </trkpt>
      <trkpt lat="46.30311" lon="4.83235">
        <ele>188.8</ele>
        <time>2024-09-19T09:57:53Z</time>
      </trkpt>
      <trkpt lat="46.30311" lon="4.83236">
        <ele>188.8</ele>
        <time>2024-09-19T09:57:54Z</time>
      </trkpt>
      <trkpt lat="46.3031" lon="4.83237">
        <ele>188.8</ele>
        <time>2024-09-19T09:57:55Z</time>
      </trkpt>
      <trkpt lat="46.30309" lon="4.83238">
        <ele>188.6</ele>
        <time>2024-09-19T09:57:56Z</time>
      </trkpt>
      <trkpt lat="46.30309" lon="4.83239">
        <ele>188.4</ele>
        <time>2024-09-19T09:57:57Z</time>
      </trkpt>
      <trkpt lat="46.30308" lon="4.8324">
        <ele>188.4</ele>
        <time>2024-09-19T09:57:58Z</time>
      </trkpt>
      <trkpt lat="46.30307" lon="4.83241">
        <ele>188.4</ele>
        <time>2024-09-19T09:57:59Z</time>
      </trkpt>
      <trkpt lat="46.30305" lon="4.83242">
        <ele>188.4</ele>
        <time>2024-09-19T09:58:00Z</time>
      </trkpt>
      <trkpt lat="46.30304" lon="4.83243">
        <ele>188.4</ele>
        <time>2024-09-19T09:58:01Z</time>
      </trkpt>
      <trkpt lat="46.30303" lon="4.83244">
        <ele>188.6</ele>
        <time>2024-09-19T09:58:02Z</time>
      </trkpt>
      <trkpt lat="46.30302" lon="4.83245">
        <ele>188.6</ele>
        <time>2024-09-19T09:58:03Z</time>
      </trkpt>
      <trkpt lat="46.303" lon="4.83246">
        <ele>188.6</ele>
        <time>2024-09-19T09:58:04Z</time>
      </trkpt>
      <trkpt lat="46.30299" lon="4.83248">
        <ele>188.8</ele>
        <time>2024-09-19T09:58:05Z</time>
      </trkpt>
      <trkpt lat="46.30298" lon="4.83249">
        <ele>188.4</ele>
        <time>2024-09-19T09:58:06Z</time>
      </trkpt>
      <trkpt lat="46.30297" lon="4.8325">
        <ele>188.4</ele>
        <time>2024-09-19T09:58:07Z</time>
      </trkpt>
      <trkpt lat="46.30296" lon="4.83251">
        <ele>188.4</ele>
        <time>2024-09-19T09:58:08Z</time>
      </trkpt>
      <trkpt lat="46.30294" lon="4.83252">
        <ele>188.4</ele>
        <time>2024-09-19T09:58:09Z</time>
      </trkpt>
      <trkpt lat="46.30293" lon="4.83254">
        <ele>188.4</ele>
        <time>2024-09-19T09:58:10Z</time>
      </trkpt>
      <trkpt lat="46.30293" lon="4.83257">
        <ele>188.4</ele>
        <time>2024-09-19T09:58:11Z</time>
      </trkpt>
      <trkpt lat="46.30293" lon="4.83258">
        <ele>188.4</ele>
        <time>2024-09-19T09:58:12Z</time>
      </trkpt>
      <trkpt lat="46.30292" lon="4.8326">
        <ele>188.4</ele>
        <time>2024-09-19T09:58:13Z</time>
      </trkpt>
      <trkpt lat="46.30292" lon="4.83262">
        <ele>188.6</ele>
        <time>2024-09-19T09:58:14Z</time>
      </trkpt>
      <trkpt lat="46.30292" lon="4.83264">
        <ele>188.4</ele>
        <time>2024-09-19T09:58:15Z</time>
      </trkpt>
      <trkpt lat="46.30292" lon="4.83266">
        <ele>188.4</ele>
        <time>2024-09-19T09:58:16Z</time>
      </trkpt>
      <trkpt lat="46.30292" lon="4.83268">
        <ele>188.4</ele>
        <time>2024-09-19T09:58:17Z</time>
      </trkpt>
      <trkpt lat="46.30292" lon="4.83269">
        <ele>188.4</ele>
        <time>2024-09-19T09:58:18Z</time>
      </trkpt>
      <trkpt lat="46.30292" lon="4.83271">
        <ele>188.4</ele>
        <time>2024-09-19T09:58:19Z</time>
      </trkpt>
      <trkpt lat="46.30292" lon="4.83271">
        <ele>188.6</ele>
        <time>2024-09-19T09:58:20Z</time>
      </trkpt>
      <trkpt lat="46.30292" lon="4.83272">
        <ele>188.6</ele>
        <time>2024-09-19T09:58:21Z</time>
      </trkpt>
      <trkpt lat="46.30293" lon="4.83273">
        <ele>188.6</ele>
        <time>2024-09-19T09:58:22Z</time>
      </trkpt>
      <trkpt lat="46.30294" lon="4.83274">
        <ele>188.6</ele>
        <time>2024-09-19T09:58:23Z</time>
      </trkpt>
      <trkpt lat="46.30294" lon="4.83275">
        <ele>188.6</ele>
        <time>2024-09-19T09:58:24Z</time>
      </trkpt>
      <trkpt lat="46.30295" lon="4.83277">
        <ele>189</ele>
        <time>2024-09-19T09:58:25Z</time>
      </trkpt>
      <trkpt lat="46.30295" lon="4.83277">
        <ele>189</ele>
        <time>2024-09-19T09:58:26Z</time>
      </trkpt>
      <trkpt lat="46.30295" lon="4.83278">
        <ele>189</ele>
        <time>2024-09-19T09:58:27Z</time>
      </trkpt>
      <trkpt lat="46.30294" lon="4.83279">
        <ele>189.4</ele>
        <time>2024-09-19T09:58:28Z</time>
      </trkpt>
      <trkpt lat="46.30294" lon="4.83281">
        <ele>189.4</ele>
        <time>2024-09-19T09:58:29Z</time>
      </trkpt>
      <trkpt lat="46.30293" lon="4.83282">
        <ele>189.4</ele>
        <time>2024-09-19T09:58:30Z</time>
      </trkpt>
      <trkpt lat="46.30292" lon="4.83283">
        <ele>189.4</ele>
        <time>2024-09-19T09:58:31Z</time>
      </trkpt>
      <trkpt lat="46.30291" lon="4.83283">
        <ele>189.2</ele>
        <time>2024-09-19T09:58:32Z</time>
      </trkpt>
      <trkpt lat="46.30289" lon="4.83282">
        <ele>189</ele>
        <time>2024-09-19T09:58:33Z</time>
      </trkpt>
      <trkpt lat="46.30288" lon="4.83281">
        <ele>189</ele>
        <time>2024-09-19T09:58:34Z</time>
      </trkpt>
      <trkpt lat="46.30287" lon="4.83282">
        <ele>189</ele>
        <time>2024-09-19T09:58:35Z</time>
      </trkpt>
      <trkpt lat="46.30286" lon="4.83283">
        <ele>189</ele>
        <time>2024-09-19T09:58:36Z</time>
      </trkpt>
      <trkpt lat="46.30285" lon="4.83284">
        <ele>189</ele>
        <time>2024-09-19T09:58:37Z</time>
      </trkpt>
      <trkpt lat="46.30285" lon="4.83286">
        <ele>189</ele>
        <time>2024-09-19T09:58:38Z</time>
      </trkpt>
      <trkpt lat="46.30285" lon="4.83288">
        <ele>189</ele>
        <time>2024-09-19T09:58:39Z</time>
      </trkpt>
      <trkpt lat="46.30285" lon="4.8329">
        <ele>189</ele>
        <time>2024-09-19T09:58:40Z</time>
      </trkpt>
      <trkpt lat="46.30285" lon="4.83292">
        <ele>189</ele>
        <time>2024-09-19T09:58:41Z</time>
      </trkpt>
      <trkpt lat="46.30285" lon="4.83294">
        <ele>188.8</ele>
        <time>2024-09-19T09:58:42Z</time>
      </trkpt>
      <trkpt lat="46.30285" lon="4.83295">
        <ele>188.8</ele>
        <time>2024-09-19T09:58:43Z</time>
      </trkpt>
      <trkpt lat="46.30286" lon="4.83297">
        <ele>188.8</ele>
        <time>2024-09-19T09:58:44Z</time>
      </trkpt>
      <trkpt lat="46.30286" lon="4.83298">
        <ele>188.8</ele>
        <time>2024-09-19T09:58:45Z</time>
      </trkpt>
      <trkpt lat="46.30287" lon="4.833">
        <ele>189</ele>
        <time>2024-09-19T09:58:46Z</time>
      </trkpt>
      <trkpt lat="46.30288" lon="4.83301">
        <ele>189</ele>
        <time>2024-09-19T09:58:47Z</time>
      </trkpt>
      <trkpt lat="46.30289" lon="4.83303">
        <ele>189</ele>
        <time>2024-09-19T09:58:48Z</time>
      </trkpt>
      <trkpt lat="46.3029" lon="4.83304">
        <ele>188.8</ele>
        <time>2024-09-19T09:58:49Z</time>
      </trkpt>
      <trkpt lat="46.30292" lon="4.83305">
        <ele>188.8</ele>
        <time>2024-09-19T09:58:50Z</time>
      </trkpt>
      <trkpt lat="46.30293" lon="4.83306">
        <ele>189</ele>
        <time>2024-09-19T09:58:51Z</time>
      </trkpt>
      <trkpt lat="46.30293" lon="4.83307">
        <ele>189</ele>
        <time>2024-09-19T09:58:52Z</time>
      </trkpt>
      <trkpt lat="46.30294" lon="4.83309">
        <ele>189</ele>
        <time>2024-09-19T09:58:53Z</time>
      </trkpt>
      <trkpt lat="46.30295" lon="4.8331">
        <ele>189</ele>
        <time>2024-09-19T09:58:54Z</time>
      </trkpt>
      <trkpt lat="46.30296" lon="4.83311">
        <ele>189</ele>
        <time>2024-09-19T09:58:55Z</time>
      </trkpt>
      <trkpt lat="46.30297" lon="4.83312">
        <ele>189</ele>
        <time>2024-09-19T09:58:56Z</time>
      </trkpt>
      <trkpt lat="46.30298" lon="4.83313">
        <ele>189</ele>
        <time>2024-09-19T09:58:57Z</time>
      </trkpt>
      <trkpt lat="46.30299" lon="4.83315">
        <ele>189</ele>
        <time>2024-09-19T09:58:58Z</time>
      </trkpt>
      <trkpt lat="46.30299" lon="4.83317">
        <ele>189</ele>
        <time>2024-09-19T09:58:59Z</time>
      </trkpt>
      <trkpt lat="46.303" lon="4.83318">
        <ele>189</ele>
        <time>2024-09-19T09:59:00Z</time>
      </trkpt>
      <trkpt lat="46.30301" lon="4.8332">
        <ele>189</ele>
        <time>2024-09-19T09:59:01Z</time>
      </trkpt>
      <trkpt lat="46.30301" lon="4.83321">
        <ele>189</ele>
        <time>2024-09-19T09:59:02Z</time>
      </trkpt>
      <trkpt lat="46.30302" lon="4.83323">
        <ele>189</ele>
        <time>2024-09-19T09:59:03Z</time>
      </trkpt>
      <trkpt lat="46.30302" lon="4.83324">
        <ele>189</ele>
        <time>2024-09-19T09:59:04Z</time>
      </trkpt>
      <trkpt lat="46.30303" lon="4.83326">
        <ele>188.8</ele>
        <time>2024-09-19T09:59:05Z</time>
      </trkpt>
      <trkpt lat="46.30303" lon="4.83328">
        <ele>188.8</ele>
        <time>2024-09-19T09:59:06Z</time>
      </trkpt>
      <trkpt lat="46.30303" lon="4.8333">
        <ele>188.8</ele>
        <time>2024-09-19T09:59:07Z</time>
      </trkpt>
      <trkpt lat="46.30304" lon="4.83332">
        <ele>188.8</ele>
        <time>2024-09-19T09:59:08Z</time>
      </trkpt>
      <trkpt lat="46.30304" lon="4.83333">
        <ele>188.8</ele>
        <time>2024-09-19T09:59:09Z</time>
      </trkpt>
      <trkpt lat="46.30305" lon="4.83335">
        <ele>188.8</ele>
        <time>2024-09-19T09:59:10Z</time>
      </trkpt>
      <trkpt lat="46.30306" lon="4.83337">
        <ele>188.8</ele>
        <time>2024-09-19T09:59:11Z</time>
      </trkpt>
      <trkpt lat="46.30306" lon="4.83339">
        <ele>188.8</ele>
        <time>2024-09-19T09:59:12Z</time>
      </trkpt>
      <trkpt lat="46.30307" lon="4.83342">
        <ele>188.8</ele>
        <time>2024-09-19T09:59:13Z</time>
      </trkpt>
      <trkpt lat="46.30307" lon="4.83344">
        <ele>188.8</ele>
        <time>2024-09-19T09:59:14Z</time>
      </trkpt>
      <trkpt lat="46.30308" lon="4.83346">
        <ele>188.8</ele>
        <time>2024-09-19T09:59:15Z</time>
      </trkpt>
      <trkpt lat="46.30308" lon="4.83348">
        <ele>188.8</ele>
        <time>2024-09-19T09:59:16Z</time>
      </trkpt>
      <trkpt lat="46.30309" lon="4.8335">
        <ele>188.8</ele>
        <time>2024-09-19T09:59:17Z</time>
      </trkpt>
      <trkpt lat="46.30309" lon="4.83352">
        <ele>188.8</ele>
        <time>2024-09-19T09:59:18Z</time>
      </trkpt>
      <trkpt lat="46.30309" lon="4.83353">
        <ele>188.8</ele>
        <time>2024-09-19T09:59:19Z</time>
      </trkpt>
      <trkpt lat="46.30309" lon="4.83355">
        <ele>188.8</ele>
        <time>2024-09-19T09:59:20Z</time>
      </trkpt>
      <trkpt lat="46.3031" lon="4.83356">
        <ele>188.8</ele>
        <time>2024-09-19T09:59:21Z</time>
      </trkpt>
      <trkpt lat="46.30311" lon="4.83358">
        <ele>188.8</ele>
        <time>2024-09-19T09:59:22Z</time>
      </trkpt>
      <trkpt lat="46.30311" lon="4.8336">
        <ele>188.8</ele>
        <time>2024-09-19T09:59:23Z</time>
      </trkpt>
      <trkpt lat="46.30312" lon="4.83361">
        <ele>188.8</ele>
        <time>2024-09-19T09:59:24Z</time>
      </trkpt>
      <trkpt lat="46.30312" lon="4.83363">
        <ele>188.8</ele>
        <time>2024-09-19T09:59:25Z</time>
      </trkpt>
      <trkpt lat="46.30312" lon="4.83365">
        <ele>188.8</ele>
        <time>2024-09-19T09:59:26Z</time>
      </trkpt>
      <trkpt lat="46.30312" lon="4.83366">
        <ele>188.4</ele>
        <time>2024-09-19T09:59:27Z</time>
      </trkpt>
      <trkpt lat="46.30313" lon="4.83368">
        <ele>188.4</ele>
        <time>2024-09-19T09:59:28Z</time>
      </trkpt>
      <trkpt lat="46.30313" lon="4.8337">
        <ele>188.4</ele>
        <time>2024-09-19T09:59:29Z</time>
      </trkpt>
      <trkpt lat="46.30314" lon="4.83371">
        <ele>188.4</ele>
        <time>2024-09-19T09:59:30Z</time>
      </trkpt>
      <trkpt lat="46.30314" lon="4.83373">
        <ele>188.2</ele>
        <time>2024-09-19T09:59:31Z</time>
      </trkpt>
      <trkpt lat="46.30315" lon="4.83374">
        <ele>188.2</ele>
        <time>2024-09-19T09:59:32Z</time>
      </trkpt>
      <trkpt lat="46.30315" lon="4.83376">
        <ele>188.2</ele>
        <time>2024-09-19T09:59:33Z</time>
      </trkpt>
      <trkpt lat="46.30315" lon="4.83377">
        <ele>188.4</ele>
        <time>2024-09-19T09:59:34Z</time>
      </trkpt>
      <trkpt lat="46.30316" lon="4.83379">
        <ele>188.4</ele>
        <time>2024-09-19T09:59:35Z</time>
      </trkpt>
      <trkpt lat="46.30316" lon="4.83381">
        <ele>188.4</ele>
        <time>2024-09-19T09:59:36Z</time>
      </trkpt>
      <trkpt lat="46.30317" lon="4.83382">
        <ele>188.4</ele>
        <time>2024-09-19T09:59:37Z</time>
      </trkpt>
      <trkpt lat="46.30317" lon="4.83384">
        <ele>188.4</ele>
        <time>2024-09-19T09:59:38Z</time>
      </trkpt>
      <trkpt lat="46.30318" lon="4.83385">
        <ele>188.4</ele>
        <time>2024-09-19T09:59:39Z</time>
      </trkpt>
      <trkpt lat="46.30319" lon="4.83387">
        <ele>188.2</ele>
        <time>2024-09-19T09:59:40Z</time>
      </trkpt>
      <trkpt lat="46.3032" lon="4.83388">
        <ele>187.8</ele>
        <time>2024-09-19T09:59:41Z</time>
      </trkpt>
      <trkpt lat="46.30321" lon="4.83389">
        <ele>187.8</ele>
        <time>2024-09-19T09:59:42Z</time>
      </trkpt>
      <trkpt lat="46.30322" lon="4.8339">
        <ele>187.8</ele>
        <time>2024-09-19T09:59:43Z</time>
      </trkpt>
      <trkpt lat="46.30322" lon="4.83391">
        <ele>187.8</ele>
        <time>2024-09-19T09:59:44Z</time>
      </trkpt>
      <trkpt lat="46.30323" lon="4.83391">
        <ele>188.2</ele>
        <time>2024-09-19T09:59:45Z</time>
      </trkpt>
      <trkpt lat="46.30323" lon="4.83393">
        <ele>188.2</ele>
        <time>2024-09-19T09:59:46Z</time>
      </trkpt>
      <trkpt lat="46.30323" lon="4.83394">
        <ele>188.2</ele>
        <time>2024-09-19T09:59:47Z</time>
      </trkpt>
      <trkpt lat="46.30323" lon="4.83396">
        <ele>188.2</ele>
        <time>2024-09-19T09:59:48Z</time>
      </trkpt>
      <trkpt lat="46.30324" lon="4.83398">
        <ele>187.8</ele>
        <time>2024-09-19T09:59:49Z</time>
      </trkpt>
      <trkpt lat="46.30325" lon="4.83399">
        <ele>188</ele>
        <time>2024-09-19T09:59:50Z</time>
      </trkpt>
      <trkpt lat="46.30326" lon="4.83401">
        <ele>188</ele>
        <time>2024-09-19T09:59:51Z</time>
      </trkpt>
      <trkpt lat="46.30327" lon="4.83402">
        <ele>188</ele>
        <time>2024-09-19T09:59:52Z</time>
      </trkpt>
      <trkpt lat="46.30328" lon="4.83403">
        <ele>188.2</ele>
        <time>2024-09-19T09:59:53Z</time>
      </trkpt>
      <trkpt lat="46.30329" lon="4.83405">
        <ele>188.2</ele>
        <time>2024-09-19T09:59:54Z</time>
      </trkpt>
      <trkpt lat="46.3033" lon="4.83407">
        <ele>188.2</ele>
        <time>2024-09-19T09:59:55Z</time>
      </trkpt>
      <trkpt lat="46.30331" lon="4.8341">
        <ele>188.2</ele>
        <time>2024-09-19T09:59:56Z</time>
      </trkpt>
      <trkpt lat="46.30331" lon="4.83412">
        <ele>188</ele>
        <time>2024-09-19T09:59:57Z</time>
      </trkpt>
      <trkpt lat="46.30331" lon="4.83414">
        <ele>188</ele>
        <time>2024-09-19T09:59:58Z</time>
      </trkpt>
      <trkpt lat="46.30331" lon="4.83415">
        <ele>188</ele>
        <time>2024-09-19T09:59:59Z</time>
      </trkpt>
      <trkpt lat="46.3033" lon="4.83416">
        <ele>188</ele>
        <time>2024-09-19T10:00:00Z</time>
      </trkpt>
      <trkpt lat="46.3033" lon="4.83417">
        <ele>188</ele>
        <time>2024-09-19T10:00:01Z</time>
      </trkpt>
      <trkpt lat="46.30329" lon="4.83417">
        <ele>188</ele>
        <time>2024-09-19T10:00:02Z</time>
      </trkpt>
      <trkpt lat="46.30329" lon="4.83417">
        <ele>187.8</ele>
        <time>2024-09-19T10:00:03Z</time>
      </trkpt>
      <trkpt lat="46.30329" lon="4.83417">
        <ele>187.8</ele>
        <time>2024-09-19T10:00:04Z</time>
      </trkpt>
      <trkpt lat="46.30332" lon="4.83407">
        <ele>187.8</ele>
        <time>2024-09-19T10:04:32Z</time>
      </trkpt>
      <trkpt lat="46.30332" lon="4.83406">
        <ele>187.8</ele>
        <time>2024-09-19T10:04:33Z</time>
      </trkpt>
      <trkpt lat="46.30331" lon="4.83405">
        <ele>187.8</ele>
        <time>2024-09-19T10:04:34Z</time>
      </trkpt>
      <trkpt lat="46.30328" lon="4.83402">
        <ele>187.8</ele>
        <time>2024-09-19T10:04:35Z</time>
      </trkpt>
      <trkpt lat="46.30327" lon="4.83401">
        <ele>187.8</ele>
        <time>2024-09-19T10:04:36Z</time>
      </trkpt>
      <trkpt lat="46.30324" lon="4.83398">
        <ele>188</ele>
        <time>2024-09-19T10:04:37Z</time>
      </trkpt>
      <trkpt lat="46.30323" lon="4.83397">
        <ele>188</ele>
        <time>2024-09-19T10:04:38Z</time>
      </trkpt>
      <trkpt lat="46.30321" lon="4.83396">
        <ele>188</ele>
        <time>2024-09-19T10:04:39Z</time>
      </trkpt>
      <trkpt lat="46.30318" lon="4.83394">
        <ele>188</ele>
        <time>2024-09-19T10:04:40Z</time>
      </trkpt>
      <trkpt lat="46.30316" lon="4.83392">
        <ele>188</ele>
        <time>2024-09-19T10:04:41Z</time>
      </trkpt>
      <trkpt lat="46.30312" lon="4.83389">
        <ele>188</ele>
        <time>2024-09-19T10:04:42Z</time>
      </trkpt>
      <trkpt lat="46.30311" lon="4.83389">
        <ele>188</ele>
        <time>2024-09-19T10:04:43Z</time>
      </trkpt>
      <trkpt lat="46.30307" lon="4.83387">
        <ele>188</ele>
        <time>2024-09-19T10:04:44Z</time>
      </trkpt>
      <trkpt lat="46.30306" lon="4.83386">
        <ele>188</ele>
        <time>2024-09-19T10:04:45Z</time>
      </trkpt>
      <trkpt lat="46.30303" lon="4.83384">
        <ele>188</ele>
        <time>2024-09-19T10:04:46Z</time>
      </trkpt>
      <trkpt lat="46.30302" lon="4.83384">
        <ele>187.8</ele>
        <time>2024-09-19T10:04:47Z</time>
      </trkpt>
      <trkpt lat="46.30298" lon="4.83382">
        <ele>187.8</ele>
        <time>2024-09-19T10:04:48Z</time>
      </trkpt>
      <trkpt lat="46.30297" lon="4.83381">
        <ele>187.8</ele>
        <time>2024-09-19T10:04:49Z</time>
      </trkpt>
      <trkpt lat="46.30293" lon="4.83378">
        <ele>187.8</ele>
        <time>2024-09-19T10:04:50Z</time>
      </trkpt>
      <trkpt lat="46.30292" lon="4.83377">
        <ele>187.8</ele>
        <time>2024-09-19T10:04:51Z</time>
      </trkpt>
      <trkpt lat="46.3029" lon="4.83374">
        <ele>187.8</ele>
        <time>2024-09-19T10:04:52Z</time>
      </trkpt>
      <trkpt lat="46.30288" lon="4.83371">
        <ele>187.8</ele>
        <time>2024-09-19T10:04:53Z</time>
      </trkpt>
      <trkpt lat="46.30286" lon="4.83368">
        <ele>187.8</ele>
        <time>2024-09-19T10:04:54Z</time>
      </trkpt>
      <trkpt lat="46.30284" lon="4.83365">
        <ele>187.8</ele>
        <time>2024-09-19T10:04:55Z</time>
      </trkpt>
      <trkpt lat="46.30282" lon="4.83363">
        <ele>187.8</ele>
        <time>2024-09-19T10:04:56Z</time>
      </trkpt>
      <trkpt lat="46.30279" lon="4.83359">
        <ele>187.8</ele>
        <time>2024-09-19T10:04:57Z</time>
      </trkpt>
      <trkpt lat="46.30278" lon="4.83358">
        <ele>187.8</ele>
        <time>2024-09-19T10:04:58Z</time>
      </trkpt>
      <trkpt lat="46.30276" lon="4.83355">
        <ele>187.8</ele>
        <time>2024-09-19T10:04:59Z</time>
      </trkpt>
      <trkpt lat="46.30273" lon="4.83352">
        <ele>187.8</ele>
        <time>2024-09-19T10:05:00Z</time>
      </trkpt>
      <trkpt lat="46.3027" lon="4.8335">
        <ele>187.8</ele>
        <time>2024-09-19T10:05:01Z</time>
      </trkpt>
      <trkpt lat="46.30266" lon="4.83346">
        <ele>187.8</ele>
        <time>2024-09-19T10:05:02Z</time>
      </trkpt>
      <trkpt lat="46.30265" lon="4.83345">
        <ele>187.8</ele>
        <time>2024-09-19T10:05:03Z</time>
      </trkpt>
      <trkpt lat="46.30261" lon="4.83341">
        <ele>187.8</ele>
        <time>2024-09-19T10:05:04Z</time>
      </trkpt>
      <trkpt lat="46.30259" lon="4.8334">
        <ele>188</ele>
        <time>2024-09-19T10:05:05Z</time>
      </trkpt>
      <trkpt lat="46.30255" lon="4.83337">
        <ele>188</ele>
        <time>2024-09-19T10:05:06Z</time>
      </trkpt>
      <trkpt lat="46.30253" lon="4.83336">
        <ele>188</ele>
        <time>2024-09-19T10:05:07Z</time>
      </trkpt>
      <trkpt lat="46.30249" lon="4.83332">
        <ele>188</ele>
        <time>2024-09-19T10:05:08Z</time>
      </trkpt>
      <trkpt lat="46.30248" lon="4.83331">
        <ele>188.2</ele>
        <time>2024-09-19T10:05:09Z</time>
      </trkpt>
      <trkpt lat="46.30245" lon="4.83329">
        <ele>188.2</ele>
        <time>2024-09-19T10:05:10Z</time>
      </trkpt>
      <trkpt lat="46.30241" lon="4.83325">
        <ele>188.2</ele>
        <time>2024-09-19T10:05:11Z</time>
      </trkpt>
      <trkpt lat="46.3024" lon="4.83324">
        <ele>188.2</ele>
        <time>2024-09-19T10:05:12Z</time>
      </trkpt>
      <trkpt lat="46.30236" lon="4.83321">
        <ele>187.8</ele>
        <time>2024-09-19T10:05:13Z</time>
      </trkpt>
      <trkpt lat="46.30234" lon="4.8332">
        <ele>188</ele>
        <time>2024-09-19T10:05:14Z</time>
      </trkpt>
      <trkpt lat="46.3023" lon="4.83316">
        <ele>188</ele>
        <time>2024-09-19T10:05:15Z</time>
      </trkpt>
      <trkpt lat="46.30228" lon="4.83314">
        <ele>188</ele>
        <time>2024-09-19T10:05:16Z</time>
      </trkpt>
      <trkpt lat="46.30224" lon="4.8331">
        <ele>188</ele>
        <time>2024-09-19T10:05:17Z</time>
      </trkpt>
      <trkpt lat="46.30222" lon="4.83309">
        <ele>188</ele>
        <time>2024-09-19T10:05:18Z</time>
      </trkpt>
      <trkpt lat="46.30217" lon="4.83305">
        <ele>188</ele>
        <time>2024-09-19T10:05:19Z</time>
      </trkpt>
      <trkpt lat="46.30216" lon="4.83303">
        <ele>188</ele>
        <time>2024-09-19T10:05:20Z</time>
      </trkpt>
      <trkpt lat="46.30212" lon="4.833">
        <ele>188</ele>
        <time>2024-09-19T10:05:21Z</time>
      </trkpt>
      <trkpt lat="46.3021" lon="4.83297">
        <ele>188</ele>
        <time>2024-09-19T10:05:22Z</time>
      </trkpt>
      <trkpt lat="46.30206" lon="4.83295">
        <ele>187.8</ele>
        <time>2024-09-19T10:05:23Z</time>
      </trkpt>
      <trkpt lat="46.30201" lon="4.83293">
        <ele>187.8</ele>
        <time>2024-09-19T10:05:24Z</time>
      </trkpt>
      <trkpt lat="46.30199" lon="4.83292">
        <ele>187.8</ele>
        <time>2024-09-19T10:05:25Z</time>
      </trkpt>
      <trkpt lat="46.30193" lon="4.8329">
        <ele>187.8</ele>
        <time>2024-09-19T10:05:26Z</time>
      </trkpt>
      <trkpt lat="46.30191" lon="4.8329">
        <ele>187.8</ele>
        <time>2024-09-19T10:05:27Z</time>
      </trkpt>
      <trkpt lat="46.30186" lon="4.83288">
        <ele>187.8</ele>
        <time>2024-09-19T10:05:28Z</time>
      </trkpt>
      <trkpt lat="46.30184" lon="4.83288">
        <ele>187.8</ele>
        <time>2024-09-19T10:05:29Z</time>
      </trkpt>
      <trkpt lat="46.30179" lon="4.83286">
        <ele>187.8</ele>
        <time>2024-09-19T10:05:30Z</time>
      </trkpt>
      <trkpt lat="46.30177" lon="4.83285">
        <ele>187.8</ele>
        <time>2024-09-19T10:05:31Z</time>
      </trkpt>
      <trkpt lat="46.30172" lon="4.83283">
        <ele>187.8</ele>
        <time>2024-09-19T10:05:32Z</time>
      </trkpt>
      <trkpt lat="46.3017" lon="4.83282">
        <ele>187.6</ele>
        <time>2024-09-19T10:05:33Z</time>
      </trkpt>
      <trkpt lat="46.30167" lon="4.83283">
        <ele>187.6</ele>
        <time>2024-09-19T10:05:34Z</time>
      </trkpt>
      <trkpt lat="46.30163" lon="4.83283">
        <ele>188.4</ele>
        <time>2024-09-19T10:05:35Z</time>
      </trkpt>
      <trkpt lat="46.3016" lon="4.83284">
        <ele>188</ele>
        <time>2024-09-19T10:05:36Z</time>
      </trkpt>
      <trkpt lat="46.30156" lon="4.83284">
        <ele>188</ele>
        <time>2024-09-19T10:05:37Z</time>
      </trkpt>
      <trkpt lat="46.30153" lon="4.83282">
        <ele>188</ele>
        <time>2024-09-19T10:05:38Z</time>
      </trkpt>
      <trkpt lat="46.3015" lon="4.8328">
        <ele>188</ele>
        <time>2024-09-19T10:05:39Z</time>
      </trkpt>
      <trkpt lat="46.30145" lon="4.83276">
        <ele>187.8</ele>
        <time>2024-09-19T10:05:40Z</time>
      </trkpt>
      <trkpt lat="46.30144" lon="4.83275">
        <ele>188</ele>
        <time>2024-09-19T10:05:41Z</time>
      </trkpt>
      <trkpt lat="46.30139" lon="4.83272">
        <ele>188</ele>
        <time>2024-09-19T10:05:42Z</time>
      </trkpt>
      <trkpt lat="46.30137" lon="4.8327">
        <ele>188</ele>
        <time>2024-09-19T10:05:43Z</time>
      </trkpt>
      <trkpt lat="46.30134" lon="4.83268">
        <ele>188</ele>
        <time>2024-09-19T10:05:44Z</time>
      </trkpt>
      <trkpt lat="46.3013" lon="4.83263">
        <ele>188</ele>
        <time>2024-09-19T10:05:45Z</time>
      </trkpt>
      <trkpt lat="46.30128" lon="4.83262">
        <ele>188</ele>
        <time>2024-09-19T10:05:46Z</time>
      </trkpt>
      <trkpt lat="46.30123" lon="4.83256">
        <ele>188</ele>
        <time>2024-09-19T10:05:47Z</time>
      </trkpt>
      <trkpt lat="46.30122" lon="4.83255">
        <ele>187.6</ele>
        <time>2024-09-19T10:05:48Z</time>
      </trkpt>
      <trkpt lat="46.30117" lon="4.8325">
        <ele>187.4</ele>
        <time>2024-09-19T10:05:49Z</time>
      </trkpt>
      <trkpt lat="46.30115" lon="4.83249">
        <ele>187.4</ele>
        <time>2024-09-19T10:05:50Z</time>
      </trkpt>
      <trkpt lat="46.3011" lon="4.83245">
        <ele>187.4</ele>
        <time>2024-09-19T10:05:51Z</time>
      </trkpt>
      <trkpt lat="46.30108" lon="4.83243">
        <ele>187.4</ele>
        <time>2024-09-19T10:05:52Z</time>
      </trkpt>
      <trkpt lat="46.30103" lon="4.83239">
        <ele>187.6</ele>
        <time>2024-09-19T10:05:53Z</time>
      </trkpt>
      <trkpt lat="46.30101" lon="4.83238">
        <ele>187.6</ele>
        <time>2024-09-19T10:05:54Z</time>
      </trkpt>
      <trkpt lat="46.30096" lon="4.83234">
        <ele>187.4</ele>
        <time>2024-09-19T10:05:55Z</time>
      </trkpt>
      <trkpt lat="46.30095" lon="4.83232">
        <ele>187.4</ele>
        <time>2024-09-19T10:05:56Z</time>
      </trkpt>
      <trkpt lat="46.3009" lon="4.83228">
        <ele>187.6</ele>
        <time>2024-09-19T10:05:57Z</time>
      </trkpt>
      <trkpt lat="46.30088" lon="4.83227">
        <ele>188</ele>
        <time>2024-09-19T10:05:58Z</time>
      </trkpt>
      <trkpt lat="46.30083" lon="4.83222">
        <ele>188</ele>
        <time>2024-09-19T10:05:59Z</time>
      </trkpt>
      <trkpt lat="46.30081" lon="4.83221">
        <ele>188</ele>
        <time>2024-09-19T10:06:00Z</time>
      </trkpt>
      <trkpt lat="46.30076" lon="4.83217">
        <ele>188</ele>
        <time>2024-09-19T10:06:01Z</time>
      </trkpt>
      <trkpt lat="46.30075" lon="4.83216">
        <ele>188</ele>
        <time>2024-09-19T10:06:02Z</time>
      </trkpt>
      <trkpt lat="46.3007" lon="4.83212">
        <ele>188</ele>
        <time>2024-09-19T10:06:03Z</time>
      </trkpt>
      <trkpt lat="46.30068" lon="4.83211">
        <ele>187.4</ele>
        <time>2024-09-19T10:06:04Z</time>
      </trkpt>
      <trkpt lat="46.30065" lon="4.83208">
        <ele>187.4</ele>
        <time>2024-09-19T10:06:05Z</time>
      </trkpt>
      <trkpt lat="46.30059" lon="4.83205">
        <ele>187.4</ele>
        <time>2024-09-19T10:06:06Z</time>
      </trkpt>
      <trkpt lat="46.30058" lon="4.83204">
        <ele>187.4</ele>
        <time>2024-09-19T10:06:07Z</time>
      </trkpt>
      <trkpt lat="46.30052" lon="4.83201">
        <ele>187.6</ele>
        <time>2024-09-19T10:06:08Z</time>
      </trkpt>
      <trkpt lat="46.30051" lon="4.832">
        <ele>187.6</ele>
        <time>2024-09-19T10:06:09Z</time>
      </trkpt>
      <trkpt lat="46.30046" lon="4.83197">
        <ele>187.6</ele>
        <time>2024-09-19T10:06:10Z</time>
      </trkpt>
      <trkpt lat="46.30045" lon="4.83197">
        <ele>187.4</ele>
        <time>2024-09-19T10:06:11Z</time>
      </trkpt>
      <trkpt lat="46.3004" lon="4.83194">
        <ele>187.6</ele>
        <time>2024-09-19T10:06:12Z</time>
      </trkpt>
      <trkpt lat="46.30039" lon="4.83193">
        <ele>187.6</ele>
        <time>2024-09-19T10:06:13Z</time>
      </trkpt>
      <trkpt lat="46.30034" lon="4.83191">
        <ele>187.6</ele>
        <time>2024-09-19T10:06:14Z</time>
      </trkpt>
      <trkpt lat="46.30033" lon="4.8319">
        <ele>187.6</ele>
        <time>2024-09-19T10:06:15Z</time>
      </trkpt>
      <trkpt lat="46.30029" lon="4.83187">
        <ele>187.6</ele>
        <time>2024-09-19T10:06:16Z</time>
      </trkpt>
      <trkpt lat="46.30028" lon="4.83187">
        <ele>187.6</ele>
        <time>2024-09-19T10:06:17Z</time>
      </trkpt>
      <trkpt lat="46.30025" lon="4.83185">
        <ele>187.6</ele>
        <time>2024-09-19T10:06:18Z</time>
      </trkpt>
      <trkpt lat="46.30022" lon="4.83184">
        <ele>187.6</ele>
        <time>2024-09-19T10:06:19Z</time>
      </trkpt>
      <trkpt lat="46.30019" lon="4.83183">
        <ele>187.6</ele>
        <time>2024-09-19T10:06:20Z</time>
      </trkpt>
      <trkpt lat="46.30016" lon="4.83181">
        <ele>187.6</ele>
        <time>2024-09-19T10:06:21Z</time>
      </trkpt>
      <trkpt lat="46.30013" lon="4.8318">
        <ele>187.8</ele>
        <time>2024-09-19T10:06:22Z</time>
      </trkpt>
      <trkpt lat="46.3001" lon="4.83178">
        <ele>187.8</ele>
        <time>2024-09-19T10:06:23Z</time>
      </trkpt>
      <trkpt lat="46.30006" lon="4.83176">
        <ele>188.2</ele>
        <time>2024-09-19T10:06:24Z</time>
      </trkpt>
      <trkpt lat="46.30004" lon="4.83175">
        <ele>187.6</ele>
        <time>2024-09-19T10:06:25Z</time>
      </trkpt>
      <trkpt lat="46.30002" lon="4.83173">
        <ele>187.6</ele>
        <time>2024-09-19T10:06:26Z</time>
      </trkpt>
      <trkpt lat="46.29999" lon="4.83172">
        <ele>187.6</ele>
        <time>2024-09-19T10:06:27Z</time>
      </trkpt>
      <trkpt lat="46.29996" lon="4.8317">
        <ele>187.6</ele>
        <time>2024-09-19T10:06:28Z</time>
      </trkpt>
      <trkpt lat="46.29991" lon="4.83167">
        <ele>187.6</ele>
        <time>2024-09-19T10:06:29Z</time>
      </trkpt>
      <trkpt lat="46.2999" lon="4.83167">
        <ele>187.8</ele>
        <time>2024-09-19T10:06:30Z</time>
      </trkpt>
      <trkpt lat="46.29985" lon="4.83164">
        <ele>187.8</ele>
        <time>2024-09-19T10:06:31Z</time>
      </trkpt>
      <trkpt lat="46.29983" lon="4.83163">
        <ele>187.8</ele>
        <time>2024-09-19T10:06:32Z</time>
      </trkpt>
      <trkpt lat="46.29978" lon="4.8316">
        <ele>187.8</ele>
        <time>2024-09-19T10:06:33Z</time>
      </trkpt>
      <trkpt lat="46.29976" lon="4.83159">
        <ele>187.4</ele>
        <time>2024-09-19T10:06:34Z</time>
      </trkpt>
      <trkpt lat="46.29971" lon="4.83156">
        <ele>187.4</ele>
        <time>2024-09-19T10:06:35Z</time>
      </trkpt>
      <trkpt lat="46.29969" lon="4.83155">
        <ele>187.4</ele>
        <time>2024-09-19T10:06:36Z</time>
      </trkpt>
      <trkpt lat="46.29963" lon="4.83152">
        <ele>187.4</ele>
        <time>2024-09-19T10:06:37Z</time>
      </trkpt>
      <trkpt lat="46.29961" lon="4.83151">
        <ele>187.8</ele>
        <time>2024-09-19T10:06:38Z</time>
      </trkpt>
      <trkpt lat="46.29956" lon="4.83148">
        <ele>187.8</ele>
        <time>2024-09-19T10:06:39Z</time>
      </trkpt>
      <trkpt lat="46.29954" lon="4.83147">
        <ele>187.8</ele>
        <time>2024-09-19T10:06:40Z</time>
      </trkpt>
      <trkpt lat="46.29948" lon="4.83144">
        <ele>187.8</ele>
        <time>2024-09-19T10:06:41Z</time>
      </trkpt>
      <trkpt lat="46.29946" lon="4.83143">
        <ele>187.8</ele>
        <time>2024-09-19T10:06:42Z</time>
      </trkpt>
      <trkpt lat="46.29941" lon="4.8314">
        <ele>187.8</ele>
        <time>2024-09-19T10:06:43Z</time>
      </trkpt>
      <trkpt lat="46.29939" lon="4.83139">
        <ele>187.8</ele>
        <time>2024-09-19T10:06:44Z</time>
      </trkpt>
      <trkpt lat="46.29934" lon="4.83136">
        <ele>187.8</ele>
        <time>2024-09-19T10:06:45Z</time>
      </trkpt>
      <trkpt lat="46.29932" lon="4.83134">
        <ele>187.8</ele>
        <time>2024-09-19T10:06:46Z</time>
      </trkpt>
      <trkpt lat="46.29927" lon="4.8313">
        <ele>187.8</ele>
        <time>2024-09-19T10:06:47Z</time>
      </trkpt>
      <trkpt lat="46.29926" lon="4.83129">
        <ele>187.8</ele>
        <time>2024-09-19T10:06:48Z</time>
      </trkpt>
      <trkpt lat="46.29921" lon="4.83125">
        <ele>187.8</ele>
        <time>2024-09-19T10:06:49Z</time>
      </trkpt>
      <trkpt lat="46.2992" lon="4.83123">
        <ele>187.8</ele>
        <time>2024-09-19T10:06:50Z</time>
      </trkpt>
      <trkpt lat="46.29916" lon="4.83121">
        <ele>187.8</ele>
        <time>2024-09-19T10:06:51Z</time>
      </trkpt>
      <trkpt lat="46.29913" lon="4.83116">
        <ele>187.8</ele>
        <time>2024-09-19T10:06:52Z</time>
      </trkpt>
      <trkpt lat="46.29912" lon="4.83115">
        <ele>187.8</ele>
        <time>2024-09-19T10:06:53Z</time>
      </trkpt>
      <trkpt lat="46.29908" lon="4.8311">
        <ele>187.8</ele>
        <time>2024-09-19T10:06:54Z</time>
      </trkpt>
      <trkpt lat="46.29907" lon="4.83109">
        <ele>187.8</ele>
        <time>2024-09-19T10:06:55Z</time>
      </trkpt>
      <trkpt lat="46.29902" lon="4.83106">
        <ele>187.8</ele>
        <time>2024-09-19T10:06:56Z</time>
      </trkpt>
      <trkpt lat="46.29901" lon="4.83105">
        <ele>188.2</ele>
        <time>2024-09-19T10:06:57Z</time>
      </trkpt>
      <trkpt lat="46.29896" lon="4.83103">
        <ele>188.2</ele>
        <time>2024-09-19T10:06:58Z</time>
      </trkpt>
      <trkpt lat="46.29895" lon="4.83102">
        <ele>188.2</ele>
        <time>2024-09-19T10:06:59Z</time>
      </trkpt>
      <trkpt lat="46.2989" lon="4.831">
        <ele>188.2</ele>
        <time>2024-09-19T10:07:00Z</time>
      </trkpt>
      <trkpt lat="46.29888" lon="4.83099">
        <ele>188</ele>
        <time>2024-09-19T10:07:01Z</time>
      </trkpt>
      <trkpt lat="46.29884" lon="4.83096">
        <ele>188</ele>
        <time>2024-09-19T10:07:02Z</time>
      </trkpt>
      <trkpt lat="46.29882" lon="4.83095">
        <ele>188</ele>
        <time>2024-09-19T10:07:03Z</time>
      </trkpt>
      <trkpt lat="46.29877" lon="4.83093">
        <ele>188.6</ele>
        <time>2024-09-19T10:07:04Z</time>
      </trkpt>
      <trkpt lat="46.29875" lon="4.83092">
        <ele>188.6</ele>
        <time>2024-09-19T10:07:05Z</time>
      </trkpt>
      <trkpt lat="46.2987" lon="4.83089">
        <ele>188.4</ele>
        <time>2024-09-19T10:07:06Z</time>
      </trkpt>
      <trkpt lat="46.29868" lon="4.83088">
        <ele>188.4</ele>
        <time>2024-09-19T10:07:07Z</time>
      </trkpt>
      <trkpt lat="46.29864" lon="4.83086">
        <ele>188.4</ele>
        <time>2024-09-19T10:07:08Z</time>
      </trkpt>
      <trkpt lat="46.29861" lon="4.83084">
        <ele>188.4</ele>
        <time>2024-09-19T10:07:09Z</time>
      </trkpt>
      <trkpt lat="46.29857" lon="4.83082">
        <ele>188.8</ele>
        <time>2024-09-19T10:07:10Z</time>
      </trkpt>
      <trkpt lat="46.29852" lon="4.83079">
        <ele>188.8</ele>
        <time>2024-09-19T10:07:11Z</time>
      </trkpt>
      <trkpt lat="46.2985" lon="4.83078">
        <ele>188.8</ele>
        <time>2024-09-19T10:07:12Z</time>
      </trkpt>
      <trkpt lat="46.29845" lon="4.83075">
        <ele>188.8</ele>
        <time>2024-09-19T10:07:13Z</time>
      </trkpt>
      <trkpt lat="46.29843" lon="4.83074">
        <ele>188.8</ele>
        <time>2024-09-19T10:07:14Z</time>
      </trkpt>
      <trkpt lat="46.29838" lon="4.83071">
        <ele>188.8</ele>
        <time>2024-09-19T10:07:15Z</time>
      </trkpt>
      <trkpt lat="46.29837" lon="4.83071">
        <ele>188.8</ele>
        <time>2024-09-19T10:07:16Z</time>
      </trkpt>
      <trkpt lat="46.29833" lon="4.83069">
        <ele>188.8</ele>
        <time>2024-09-19T10:07:17Z</time>
      </trkpt>
      <trkpt lat="46.29831" lon="4.83068">
        <ele>188.8</ele>
        <time>2024-09-19T10:07:18Z</time>
      </trkpt>
      <trkpt lat="46.29828" lon="4.83066">
        <ele>188.8</ele>
        <time>2024-09-19T10:07:19Z</time>
      </trkpt>
      <trkpt lat="46.29825" lon="4.83064">
        <ele>188.8</ele>
        <time>2024-09-19T10:07:20Z</time>
      </trkpt>
      <trkpt lat="46.29822" lon="4.83063">
        <ele>188.8</ele>
        <time>2024-09-19T10:07:21Z</time>
      </trkpt>
      <trkpt lat="46.29819" lon="4.83061">
        <ele>188.8</ele>
        <time>2024-09-19T10:07:22Z</time>
      </trkpt>
      <trkpt lat="46.29816" lon="4.8306">
        <ele>188.8</ele>
        <time>2024-09-19T10:07:23Z</time>
      </trkpt>
      <trkpt lat="46.29811" lon="4.83058">
        <ele>188.8</ele>
        <time>2024-09-19T10:07:24Z</time>
      </trkpt>
      <trkpt lat="46.29809" lon="4.83057">
        <ele>188.8</ele>
        <time>2024-09-19T10:07:25Z</time>
      </trkpt>
      <trkpt lat="46.29804" lon="4.83055">
        <ele>188.8</ele>
        <time>2024-09-19T10:07:26Z</time>
      </trkpt>
      <trkpt lat="46.29803" lon="4.83054">
        <ele>189</ele>
        <time>2024-09-19T10:07:27Z</time>
      </trkpt>
      <trkpt lat="46.29799" lon="4.83052">
        <ele>189</ele>
        <time>2024-09-19T10:07:28Z</time>
      </trkpt>
      <trkpt lat="46.29797" lon="4.83051">
        <ele>189</ele>
        <time>2024-09-19T10:07:29Z</time>
      </trkpt>
      <trkpt lat="46.29793" lon="4.83049">
        <ele>189</ele>
        <time>2024-09-19T10:07:30Z</time>
      </trkpt>
      <trkpt lat="46.29791" lon="4.83048">
        <ele>189</ele>
        <time>2024-09-19T10:07:31Z</time>
      </trkpt>
      <trkpt lat="46.29788" lon="4.83047">
        <ele>189</ele>
        <time>2024-09-19T10:07:32Z</time>
      </trkpt>
      <trkpt lat="46.29785" lon="4.83045">
        <ele>189.2</ele>
        <time>2024-09-19T10:07:33Z</time>
      </trkpt>
      <trkpt lat="46.29783" lon="4.83044">
        <ele>189.2</ele>
        <time>2024-09-19T10:07:34Z</time>
      </trkpt>
      <trkpt lat="46.29779" lon="4.83042">
        <ele>189.2</ele>
        <time>2024-09-19T10:07:35Z</time>
      </trkpt>
      <trkpt lat="46.29778" lon="4.83041">
        <ele>189.2</ele>
        <time>2024-09-19T10:07:36Z</time>
      </trkpt>
      <trkpt lat="46.29774" lon="4.8304">
        <ele>189.2</ele>
        <time>2024-09-19T10:07:37Z</time>
      </trkpt>
      <trkpt lat="46.29772" lon="4.8304">
        <ele>189.2</ele>
        <time>2024-09-19T10:07:38Z</time>
      </trkpt>
      <trkpt lat="46.2977" lon="4.8304">
        <ele>189.2</ele>
        <time>2024-09-19T10:07:39Z</time>
      </trkpt>
      <trkpt lat="46.29769" lon="4.83039">
        <ele>189.8</ele>
        <time>2024-09-19T10:07:40Z</time>
      </trkpt>
      <trkpt lat="46.29769" lon="4.83039">
        <ele>189.8</ele>
        <time>2024-09-19T10:07:41Z</time>
      </trkpt>
      <trkpt lat="46.29773" lon="4.83042">
        <ele>189.2</ele>
        <time>2024-09-19T10:07:54Z</time>
      </trkpt>
      <trkpt lat="46.29775" lon="4.83042">
        <ele>189.2</ele>
        <time>2024-09-19T10:07:55Z</time>
      </trkpt>
      <trkpt lat="46.29778" lon="4.83043">
        <ele>189.2</ele>
        <time>2024-09-19T10:07:56Z</time>
      </trkpt>
      <trkpt lat="46.2978" lon="4.83044">
        <ele>189.2</ele>
        <time>2024-09-19T10:07:57Z</time>
      </trkpt>
      <trkpt lat="46.29783" lon="4.83045">
        <ele>189.2</ele>
        <time>2024-09-19T10:07:58Z</time>
      </trkpt>
      <trkpt lat="46.29786" lon="4.83047">
        <ele>189.2</ele>
        <time>2024-09-19T10:07:59Z</time>
      </trkpt>
      <trkpt lat="46.29789" lon="4.83048">
        <ele>189.2</ele>
        <time>2024-09-19T10:08:00Z</time>
      </trkpt>
      <trkpt lat="46.29793" lon="4.83051">
        <ele>189.2</ele>
        <time>2024-09-19T10:08:01Z</time>
      </trkpt>
      <trkpt lat="46.29795" lon="4.83052">
        <ele>188.8</ele>
        <time>2024-09-19T10:08:02Z</time>
      </trkpt>
      <trkpt lat="46.29799" lon="4.83055">
        <ele>188.8</ele>
        <time>2024-09-19T10:08:03Z</time>
      </trkpt>
      <trkpt lat="46.298" lon="4.83056">
        <ele>188.8</ele>
        <time>2024-09-19T10:08:04Z</time>
      </trkpt>
      <trkpt lat="46.29801" lon="4.83061">
        <ele>188.8</ele>
        <time>2024-09-19T10:08:05Z</time>
      </trkpt>
      <trkpt lat="46.298" lon="4.83063">
        <ele>188.6</ele>
        <time>2024-09-19T10:08:06Z</time>
      </trkpt>
      <trkpt lat="46.29798" lon="4.83066">
        <ele>188.6</ele>
        <time>2024-09-19T10:08:07Z</time>
      </trkpt>
      <trkpt lat="46.29797" lon="4.83067">
        <ele>188.6</ele>
        <time>2024-09-19T10:08:08Z</time>
      </trkpt>
      <trkpt lat="46.29795" lon="4.83068">
        <ele>188.6</ele>
        <time>2024-09-19T10:08:09Z</time>
      </trkpt>
      <trkpt lat="46.29793" lon="4.83067">
        <ele>188</ele>
        <time>2024-09-19T10:08:10Z</time>
      </trkpt>
      <trkpt lat="46.29791" lon="4.83067">
        <ele>188</ele>
        <time>2024-09-19T10:08:11Z</time>
      </trkpt>
      <trkpt lat="46.29789" lon="4.83067">
        <ele>187.8</ele>
        <time>2024-09-19T10:08:12Z</time>
      </trkpt>
      <trkpt lat="46.29785" lon="4.83066">
        <ele>187.8</ele>
        <time>2024-09-19T10:08:13Z</time>
      </trkpt>
      <trkpt lat="46.29784" lon="4.83066">
        <ele>187.8</ele>
        <time>2024-09-19T10:08:14Z</time>
      </trkpt>
      <trkpt lat="46.2978" lon="4.83066">
        <ele>187.2</ele>
        <time>2024-09-19T10:08:15Z</time>
      </trkpt>
      <trkpt lat="46.29778" lon="4.83066">
        <ele>187.4</ele>
        <time>2024-09-19T10:08:16Z</time>
      </trkpt>
      <trkpt lat="46.29772" lon="4.83065">
        <ele>187.4</ele>
        <time>2024-09-19T10:08:17Z</time>
      </trkpt>
      <trkpt lat="46.2977" lon="4.83065">
        <ele>187.4</ele>
        <time>2024-09-19T10:08:18Z</time>
      </trkpt>
      <trkpt lat="46.29764" lon="4.83065">
        <ele>187.4</ele>
        <time>2024-09-19T10:08:19Z</time>
      </trkpt>
      <trkpt lat="46.29762" lon="4.83066">
        <ele>186.8</ele>
        <time>2024-09-19T10:08:20Z</time>
      </trkpt>
      <trkpt lat="46.29756" lon="4.83067">
        <ele>187</ele>
        <time>2024-09-19T10:08:21Z</time>
      </trkpt>
      <trkpt lat="46.29754" lon="4.83067">
        <ele>187</ele>
        <time>2024-09-19T10:08:22Z</time>
      </trkpt>
      <trkpt lat="46.29747" lon="4.83065">
        <ele>187</ele>
        <time>2024-09-19T10:08:23Z</time>
      </trkpt>
      <trkpt lat="46.29745" lon="4.83065">
        <ele>187</ele>
        <time>2024-09-19T10:08:24Z</time>
      </trkpt>
      <trkpt lat="46.29739" lon="4.8306">
        <ele>187</ele>
        <time>2024-09-19T10:08:25Z</time>
      </trkpt>
      <trkpt lat="46.29737" lon="4.83058">
        <ele>187</ele>
        <time>2024-09-19T10:08:26Z</time>
      </trkpt>
      <trkpt lat="46.29732" lon="4.83054">
        <ele>187</ele>
        <time>2024-09-19T10:08:27Z</time>
      </trkpt>
      <trkpt lat="46.2973" lon="4.83052">
        <ele>187</ele>
        <time>2024-09-19T10:08:28Z</time>
      </trkpt>
      <trkpt lat="46.29725" lon="4.83048">
        <ele>187</ele>
        <time>2024-09-19T10:08:29Z</time>
      </trkpt>
      <trkpt lat="46.29723" lon="4.83048">
        <ele>187.2</ele>
        <time>2024-09-19T10:08:30Z</time>
      </trkpt>
      <trkpt lat="46.29718" lon="4.83046">
        <ele>187.2</ele>
        <time>2024-09-19T10:08:31Z</time>
      </trkpt>
      <trkpt lat="46.29717" lon="4.83045">
        <ele>187.2</ele>
        <time>2024-09-19T10:08:32Z</time>
      </trkpt>
      <trkpt lat="46.29712" lon="4.83043">
        <ele>187.2</ele>
        <time>2024-09-19T10:08:33Z</time>
      </trkpt>
      <trkpt lat="46.29711" lon="4.83043">
        <ele>187.6</ele>
        <time>2024-09-19T10:08:34Z</time>
      </trkpt>
      <trkpt lat="46.29706" lon="4.83041">
        <ele>187.6</ele>
        <time>2024-09-19T10:08:35Z</time>
      </trkpt>
      <trkpt lat="46.29705" lon="4.8304">
        <ele>187.6</ele>
        <time>2024-09-19T10:08:36Z</time>
      </trkpt>
      <trkpt lat="46.29702" lon="4.83039">
        <ele>187.6</ele>
        <time>2024-09-19T10:08:37Z</time>
      </trkpt>
      <trkpt lat="46.297" lon="4.83038">
        <ele>188.2</ele>
        <time>2024-09-19T10:08:38Z</time>
      </trkpt>
      <trkpt lat="46.29697" lon="4.83036">
        <ele>188.2</ele>
        <time>2024-09-19T10:08:39Z</time>
      </trkpt>
      <trkpt lat="46.29694" lon="4.83031">
        <ele>188.2</ele>
        <time>2024-09-19T10:08:40Z</time>
      </trkpt>
      <trkpt lat="46.29693" lon="4.83029">
        <ele>188.2</ele>
        <time>2024-09-19T10:08:41Z</time>
      </trkpt>
      <trkpt lat="46.29692" lon="4.83024">
        <ele>188.2</ele>
        <time>2024-09-19T10:08:42Z</time>
      </trkpt>
      <trkpt lat="46.29693" lon="4.8302">
        <ele>188.4</ele>
        <time>2024-09-19T10:08:43Z</time>
      </trkpt>
      <trkpt lat="46.29695" lon="4.83016">
        <ele>188.4</ele>
        <time>2024-09-19T10:08:44Z</time>
      </trkpt>
      <trkpt lat="46.29697" lon="4.83013">
        <ele>188.4</ele>
        <time>2024-09-19T10:08:45Z</time>
      </trkpt>
      <trkpt lat="46.297" lon="4.83013">
        <ele>188.4</ele>
        <time>2024-09-19T10:08:46Z</time>
      </trkpt>
      <trkpt lat="46.29703" lon="4.83013">
        <ele>188.4</ele>
        <time>2024-09-19T10:08:47Z</time>
      </trkpt>
      <trkpt lat="46.29706" lon="4.83014">
        <ele>188.4</ele>
        <time>2024-09-19T10:08:48Z</time>
      </trkpt>
      <trkpt lat="46.29709" lon="4.83015">
        <ele>188.4</ele>
        <time>2024-09-19T10:08:49Z</time>
      </trkpt>
      <trkpt lat="46.29713" lon="4.83017">
        <ele>188.4</ele>
        <time>2024-09-19T10:08:50Z</time>
      </trkpt>
      <trkpt lat="46.29714" lon="4.83018">
        <ele>188.4</ele>
        <time>2024-09-19T10:08:51Z</time>
      </trkpt>
      <trkpt lat="46.29717" lon="4.83019">
        <ele>188.6</ele>
        <time>2024-09-19T10:08:52Z</time>
      </trkpt>
      <trkpt lat="46.29719" lon="4.8302">
        <ele>188.6</ele>
        <time>2024-09-19T10:08:53Z</time>
      </trkpt>
      <trkpt lat="46.29721" lon="4.8302">
        <ele>188.6</ele>
        <time>2024-09-19T10:08:54Z</time>
      </trkpt>
      <trkpt lat="46.29725" lon="4.83021">
        <ele>188.6</ele>
        <time>2024-09-19T10:08:55Z</time>
      </trkpt>
      <trkpt lat="46.29726" lon="4.83022">
        <ele>188.8</ele>
        <time>2024-09-19T10:08:56Z</time>
      </trkpt>
      <trkpt lat="46.2973" lon="4.83024">
        <ele>188.8</ele>
        <time>2024-09-19T10:08:57Z</time>
      </trkpt>
      <trkpt lat="46.29731" lon="4.83025">
        <ele>188.8</ele>
        <time>2024-09-19T10:08:58Z</time>
      </trkpt>
      <trkpt lat="46.29735" lon="4.83026">
        <ele>188.8</ele>
        <time>2024-09-19T10:08:59Z</time>
      </trkpt>
      <trkpt lat="46.29737" lon="4.83027">
        <ele>188.8</ele>
        <time>2024-09-19T10:09:00Z</time>
      </trkpt>
      <trkpt lat="46.29741" lon="4.83029">
        <ele>188.8</ele>
        <time>2024-09-19T10:09:01Z</time>
      </trkpt>
      <trkpt lat="46.29742" lon="4.8303">
        <ele>188.8</ele>
        <time>2024-09-19T10:09:02Z</time>
      </trkpt>
      <trkpt lat="46.29745" lon="4.83033">
        <ele>189.4</ele>
        <time>2024-09-19T10:09:03Z</time>
      </trkpt>
      <trkpt lat="46.29746" lon="4.83034">
        <ele>189.4</ele>
        <time>2024-09-19T10:09:04Z</time>
      </trkpt>
      <trkpt lat="46.29747" lon="4.83037">
        <ele>189.8</ele>
        <time>2024-09-19T10:09:05Z</time>
      </trkpt>
      <trkpt lat="46.29748" lon="4.8304">
        <ele>190</ele>
        <time>2024-09-19T10:09:06Z</time>
      </trkpt>
      <trkpt lat="46.29748" lon="4.83044">
        <ele>190</ele>
        <time>2024-09-19T10:09:07Z</time>
      </trkpt>
      <trkpt lat="46.29748" lon="4.83049">
        <ele>190</ele>
        <time>2024-09-19T10:09:08Z</time>
      </trkpt>
      <trkpt lat="46.29748" lon="4.83051">
        <ele>190</ele>
        <time>2024-09-19T10:09:09Z</time>
      </trkpt>
      <trkpt lat="46.29748" lon="4.83056">
        <ele>190</ele>
        <time>2024-09-19T10:09:10Z</time>
      </trkpt>
      <trkpt lat="46.29748" lon="4.83058">
        <ele>190.6</ele>
        <time>2024-09-19T10:09:11Z</time>
      </trkpt>
      <trkpt lat="46.29748" lon="4.83061">
        <ele>190.6</ele>
        <time>2024-09-19T10:09:12Z</time>
      </trkpt>
      <trkpt lat="46.29747" lon="4.83065">
        <ele>190.6</ele>
        <time>2024-09-19T10:09:13Z</time>
      </trkpt>
      <trkpt lat="46.29747" lon="4.83069">
        <ele>191</ele>
        <time>2024-09-19T10:09:14Z</time>
      </trkpt>
      <trkpt lat="46.29746" lon="4.83075">
        <ele>191.2</ele>
        <time>2024-09-19T10:09:15Z</time>
      </trkpt>
      <trkpt lat="46.29746" lon="4.83077">
        <ele>191.2</ele>
        <time>2024-09-19T10:09:16Z</time>
      </trkpt>
      <trkpt lat="46.29746" lon="4.83081">
        <ele>191.2</ele>
        <time>2024-09-19T10:09:17Z</time>
      </trkpt>
      <trkpt lat="46.29746" lon="4.83085">
        <ele>191.2</ele>
        <time>2024-09-19T10:09:18Z</time>
      </trkpt>
      <trkpt lat="46.29746" lon="4.83089">
        <ele>191.8</ele>
        <time>2024-09-19T10:09:19Z</time>
      </trkpt>
      <trkpt lat="46.29746" lon="4.83093">
        <ele>192</ele>
        <time>2024-09-19T10:09:20Z</time>
      </trkpt>
      <trkpt lat="46.29745" lon="4.83097">
        <ele>192</ele>
        <time>2024-09-19T10:09:21Z</time>
      </trkpt>
      <trkpt lat="46.29745" lon="4.831">
        <ele>192</ele>
        <time>2024-09-19T10:09:22Z</time>
      </trkpt>
      <trkpt lat="46.29745" lon="4.83104">
        <ele>192.6</ele>
        <time>2024-09-19T10:09:23Z</time>
      </trkpt>
      <trkpt lat="46.29744" lon="4.8311">
        <ele>192.8</ele>
        <time>2024-09-19T10:09:24Z</time>
      </trkpt>
      <trkpt lat="46.29744" lon="4.83111">
        <ele>192.8</ele>
        <time>2024-09-19T10:09:25Z</time>
      </trkpt>
      <trkpt lat="46.29744" lon="4.83115">
        <ele>192.8</ele>
        <time>2024-09-19T10:09:26Z</time>
      </trkpt>
      <trkpt lat="46.29743" lon="4.83119">
        <ele>193.6</ele>
        <time>2024-09-19T10:09:27Z</time>
      </trkpt>
      <trkpt lat="46.29743" lon="4.83123">
        <ele>193.6</ele>
        <time>2024-09-19T10:09:28Z</time>
      </trkpt>
      <trkpt lat="46.29743" lon="4.83126">
        <ele>193.6</ele>
        <time>2024-09-19T10:09:29Z</time>
      </trkpt>
      <trkpt lat="46.29743" lon="4.8313">
        <ele>193.6</ele>
        <time>2024-09-19T10:09:30Z</time>
      </trkpt>
      <trkpt lat="46.29742" lon="4.83134">
        <ele>193.6</ele>
        <time>2024-09-19T10:09:31Z</time>
      </trkpt>
      <trkpt lat="46.29742" lon="4.83138">
        <ele>194.2</ele>
        <time>2024-09-19T10:09:32Z</time>
      </trkpt>
      <trkpt lat="46.29742" lon="4.83143">
        <ele>194.4</ele>
        <time>2024-09-19T10:09:33Z</time>
      </trkpt>
      <trkpt lat="46.29742" lon="4.83145">
        <ele>194.4</ele>
        <time>2024-09-19T10:09:34Z</time>
      </trkpt>
      <trkpt lat="46.29741" lon="4.83152">
        <ele>194.4</ele>
        <time>2024-09-19T10:09:35Z</time>
      </trkpt>
      <trkpt lat="46.29741" lon="4.83154">
        <ele>194.4</ele>
        <time>2024-09-19T10:09:36Z</time>
      </trkpt>
      <trkpt lat="46.2974" lon="4.8316">
        <ele>194.8</ele>
        <time>2024-09-19T10:09:37Z</time>
      </trkpt>
      <trkpt lat="46.2974" lon="4.83163">
        <ele>194.8</ele>
        <time>2024-09-19T10:09:38Z</time>
      </trkpt>
      <trkpt lat="46.29739" lon="4.83169">
        <ele>194.8</ele>
        <time>2024-09-19T10:09:39Z</time>
      </trkpt>
      <trkpt lat="46.29739" lon="4.83171">
        <ele>194.8</ele>
        <time>2024-09-19T10:09:40Z</time>
      </trkpt>
      <trkpt lat="46.29739" lon="4.83178">
        <ele>195.2</ele>
        <time>2024-09-19T10:09:41Z</time>
      </trkpt>
      <trkpt lat="46.29738" lon="4.8318">
        <ele>195.4</ele>
        <time>2024-09-19T10:09:42Z</time>
      </trkpt>
      <trkpt lat="46.29738" lon="4.83187">
        <ele>195.4</ele>
        <time>2024-09-19T10:09:43Z</time>
      </trkpt>
      <trkpt lat="46.29738" lon="4.83189">
        <ele>195.4</ele>
        <time>2024-09-19T10:09:44Z</time>
      </trkpt>
      <trkpt lat="46.29737" lon="4.83196">
        <ele>195.4</ele>
        <time>2024-09-19T10:09:45Z</time>
      </trkpt>
      <trkpt lat="46.29737" lon="4.83198">
        <ele>195.4</ele>
        <time>2024-09-19T10:09:46Z</time>
      </trkpt>
      <trkpt lat="46.29737" lon="4.83203">
        <ele>195.6</ele>
        <time>2024-09-19T10:09:47Z</time>
      </trkpt>
      <trkpt lat="46.29736" lon="4.83208">
        <ele>195.6</ele>
        <time>2024-09-19T10:09:48Z</time>
      </trkpt>
      <trkpt lat="46.29736" lon="4.83213">
        <ele>195.6</ele>
        <time>2024-09-19T10:09:49Z</time>
      </trkpt>
      <trkpt lat="46.29735" lon="4.8322">
        <ele>195.6</ele>
        <time>2024-09-19T10:09:50Z</time>
      </trkpt>
      <trkpt lat="46.29735" lon="4.83223">
        <ele>196</ele>
        <time>2024-09-19T10:09:51Z</time>
      </trkpt>
      <trkpt lat="46.29735" lon="4.83228">
        <ele>196</ele>
        <time>2024-09-19T10:09:52Z</time>
      </trkpt>
      <trkpt lat="46.29734" lon="4.83236">
        <ele>196</ele>
        <time>2024-09-19T10:09:53Z</time>
      </trkpt>
      <trkpt lat="46.29734" lon="4.83239">
        <ele>196</ele>
        <time>2024-09-19T10:09:54Z</time>
      </trkpt>
      <trkpt lat="46.29734" lon="4.83247">
        <ele>196</ele>
        <time>2024-09-19T10:09:55Z</time>
      </trkpt>
      <trkpt lat="46.29733" lon="4.8325">
        <ele>195.8</ele>
        <time>2024-09-19T10:09:56Z</time>
      </trkpt>
      <trkpt lat="46.29732" lon="4.83259">
        <ele>195.8</ele>
        <time>2024-09-19T10:09:57Z</time>
      </trkpt>
      <trkpt lat="46.29732" lon="4.83262">
        <ele>195.8</ele>
        <time>2024-09-19T10:09:58Z</time>
      </trkpt>
      <trkpt lat="46.29731" lon="4.83272">
        <ele>195.8</ele>
        <time>2024-09-19T10:09:59Z</time>
      </trkpt>
      <trkpt lat="46.29731" lon="4.83275">
        <ele>195.8</ele>
        <time>2024-09-19T10:10:00Z</time>
      </trkpt>
      <trkpt lat="46.2973" lon="4.83285">
        <ele>195.8</ele>
        <time>2024-09-19T10:10:01Z</time>
      </trkpt>
      <trkpt lat="46.2973" lon="4.83289">
        <ele>195.8</ele>
        <time>2024-09-19T10:10:02Z</time>
      </trkpt>
      <trkpt lat="46.29728" lon="4.83299">
        <ele>195.8</ele>
        <time>2024-09-19T10:10:03Z</time>
      </trkpt>
      <trkpt lat="46.29728" lon="4.83303">
        <ele>195.4</ele>
        <time>2024-09-19T10:10:04Z</time>
      </trkpt>
      <trkpt lat="46.29727" lon="4.83315">
        <ele>195.2</ele>
        <time>2024-09-19T10:10:05Z</time>
      </trkpt>
      <trkpt lat="46.29727" lon="4.83319">
        <ele>195.2</ele>
        <time>2024-09-19T10:10:06Z</time>
      </trkpt>
      <trkpt lat="46.29726" lon="4.83327">
        <ele>195.2</ele>
        <time>2024-09-19T10:10:07Z</time>
      </trkpt>
      <trkpt lat="46.29725" lon="4.83336">
        <ele>194.6</ele>
        <time>2024-09-19T10:10:08Z</time>
      </trkpt>
      <trkpt lat="46.29724" lon="4.83345">
        <ele>194.2</ele>
        <time>2024-09-19T10:10:09Z</time>
      </trkpt>
      <trkpt lat="46.29723" lon="4.83359">
        <ele>194.2</ele>
        <time>2024-09-19T10:10:10Z</time>
      </trkpt>
      <trkpt lat="46.29722" lon="4.83364">
        <ele>194.2</ele>
        <time>2024-09-19T10:10:11Z</time>
      </trkpt>
      <trkpt lat="46.29721" lon="4.83374">
        <ele>193.2</ele>
        <time>2024-09-19T10:10:12Z</time>
      </trkpt>
      <trkpt lat="46.2972" lon="4.83385">
        <ele>192.8</ele>
        <time>2024-09-19T10:10:13Z</time>
      </trkpt>
      <trkpt lat="46.29719" lon="4.83389">
        <ele>192.8</ele>
        <time>2024-09-19T10:10:14Z</time>
      </trkpt>
      <trkpt lat="46.29716" lon="4.83396">
        <ele>192.8</ele>
        <time>2024-09-19T10:10:15Z</time>
      </trkpt>
      <trkpt lat="46.29714" lon="4.83398">
        <ele>192.8</ele>
        <time>2024-09-19T10:10:16Z</time>
      </trkpt>
      <trkpt lat="46.29709" lon="4.83402">
        <ele>192</ele>
        <time>2024-09-19T10:10:17Z</time>
      </trkpt>
      <trkpt lat="46.29707" lon="4.83402">
        <ele>191.8</ele>
        <time>2024-09-19T10:10:18Z</time>
      </trkpt>
      <trkpt lat="46.29703" lon="4.83405">
        <ele>191.8</ele>
        <time>2024-09-19T10:10:19Z</time>
      </trkpt>
      <trkpt lat="46.29703" lon="4.83406">
        <ele>191.8</ele>
        <time>2024-09-19T10:10:20Z</time>
      </trkpt>
      <trkpt lat="46.29702" lon="4.8341">
        <ele>191.8</ele>
        <time>2024-09-19T10:10:21Z</time>
      </trkpt>
      <trkpt lat="46.29701" lon="4.83415">
        <ele>191.8</ele>
        <time>2024-09-19T10:10:22Z</time>
      </trkpt>
      <trkpt lat="46.29701" lon="4.83417">
        <ele>191.8</ele>
        <time>2024-09-19T10:10:23Z</time>
      </trkpt>
      <trkpt lat="46.29698" lon="4.83424">
        <ele>191.8</ele>
        <time>2024-09-19T10:10:24Z</time>
      </trkpt>
      <trkpt lat="46.29696" lon="4.83426">
        <ele>191.8</ele>
        <time>2024-09-19T10:10:25Z</time>
      </trkpt>
      <trkpt lat="46.29691" lon="4.8343">
        <ele>191.6</ele>
        <time>2024-09-19T10:10:26Z</time>
      </trkpt>
      <trkpt lat="46.29689" lon="4.83432">
        <ele>191.4</ele>
        <time>2024-09-19T10:10:27Z</time>
      </trkpt>
      <trkpt lat="46.29682" lon="4.83435">
        <ele>191.4</ele>
        <time>2024-09-19T10:10:28Z</time>
      </trkpt>
      <trkpt lat="46.2968" lon="4.83436">
        <ele>191.4</ele>
        <time>2024-09-19T10:10:29Z</time>
      </trkpt>
      <trkpt lat="46.29673" lon="4.83439">
        <ele>191.4</ele>
        <time>2024-09-19T10:10:30Z</time>
      </trkpt>
      <trkpt lat="46.29671" lon="4.8344">
        <ele>191</ele>
        <time>2024-09-19T10:10:31Z</time>
      </trkpt>
      <trkpt lat="46.29664" lon="4.83442">
        <ele>190.8</ele>
        <time>2024-09-19T10:10:32Z</time>
      </trkpt>
      <trkpt lat="46.29662" lon="4.83442">
        <ele>190.8</ele>
        <time>2024-09-19T10:10:33Z</time>
      </trkpt>
      <trkpt lat="46.29657" lon="4.83442">
        <ele>190.8</ele>
        <time>2024-09-19T10:10:34Z</time>
      </trkpt>
      <trkpt lat="46.29656" lon="4.83442">
        <ele>190.8</ele>
        <time>2024-09-19T10:10:35Z</time>
      </trkpt>
      <trkpt lat="46.29654" lon="4.83443">
        <ele>190.2</ele>
        <time>2024-09-19T10:10:36Z</time>
      </trkpt>
      <trkpt lat="46.29654" lon="4.83443">
        <ele>190.2</ele>
        <time>2024-09-19T10:10:37Z</time>
      </trkpt>
      <trkpt lat="46.29654" lon="4.83443">
        <ele>190.2</ele>
        <time>2024-09-19T10:10:38Z</time>
      </trkpt>
      <trkpt lat="46.29654" lon="4.83443">
        <ele>190.2</ele>
        <time>2024-09-19T10:10:39Z</time>
      </trkpt>
      <trkpt lat="46.29647" lon="4.83448">
        <ele>189.6</ele>
        <time>2024-09-19T10:11:45Z</time>
      </trkpt>
      <trkpt lat="46.29645" lon="4.83449">
        <ele>189.4</ele>
        <time>2024-09-19T10:11:46Z</time>
      </trkpt>
      <trkpt lat="46.29641" lon="4.83451">
        <ele>189.4</ele>
        <time>2024-09-19T10:11:47Z</time>
      </trkpt>
      <trkpt lat="46.29639" lon="4.83452">
        <ele>189.4</ele>
        <time>2024-09-19T10:11:48Z</time>
      </trkpt>
      <trkpt lat="46.29634" lon="4.83454">
        <ele>189.4</ele>
        <time>2024-09-19T10:11:49Z</time>
      </trkpt>
      <trkpt lat="46.29632" lon="4.83455">
        <ele>189.4</ele>
        <time>2024-09-19T10:11:50Z</time>
      </trkpt>
      <trkpt lat="46.29628" lon="4.83456">
        <ele>189.4</ele>
        <time>2024-09-19T10:11:51Z</time>
      </trkpt>
      <trkpt lat="46.29624" lon="4.83458">
        <ele>189.4</ele>
        <time>2024-09-19T10:11:52Z</time>
      </trkpt>
      <trkpt lat="46.29617" lon="4.8346">
        <ele>189.4</ele>
        <time>2024-09-19T10:11:53Z</time>
      </trkpt>
      <trkpt lat="46.29615" lon="4.83461">
        <ele>189.4</ele>
        <time>2024-09-19T10:11:54Z</time>
      </trkpt>
      <trkpt lat="46.29609" lon="4.83463">
        <ele>189.6</ele>
        <time>2024-09-19T10:11:55Z</time>
      </trkpt>
      <trkpt lat="46.29607" lon="4.83464">
        <ele>189.8</ele>
        <time>2024-09-19T10:11:56Z</time>
      </trkpt>
      <trkpt lat="46.29602" lon="4.83465">
        <ele>189.8</ele>
        <time>2024-09-19T10:11:57Z</time>
      </trkpt>
      <trkpt lat="46.29596" lon="4.83467">
        <ele>189.8</ele>
        <time>2024-09-19T10:11:58Z</time>
      </trkpt>
      <trkpt lat="46.29595" lon="4.83468">
        <ele>190.2</ele>
        <time>2024-09-19T10:11:59Z</time>
      </trkpt>
      <trkpt lat="46.29591" lon="4.83469">
        <ele>190.2</ele>
        <time>2024-09-19T10:12:00Z</time>
      </trkpt>
      <trkpt lat="46.29587" lon="4.8347">
        <ele>190.2</ele>
        <time>2024-09-19T10:12:01Z</time>
      </trkpt>
      <trkpt lat="46.29581" lon="4.83473">
        <ele>190.2</ele>
        <time>2024-09-19T10:12:02Z</time>
      </trkpt>
      <trkpt lat="46.2958" lon="4.83473">
        <ele>190.2</ele>
        <time>2024-09-19T10:12:03Z</time>
      </trkpt>
      <trkpt lat="46.29573" lon="4.83476">
        <ele>191</ele>
        <time>2024-09-19T10:12:04Z</time>
      </trkpt>
      <trkpt lat="46.29571" lon="4.83476">
        <ele>191</ele>
        <time>2024-09-19T10:12:05Z</time>
      </trkpt>
      <trkpt lat="46.29565" lon="4.83478">
        <ele>191</ele>
        <time>2024-09-19T10:12:06Z</time>
      </trkpt>
      <trkpt lat="46.29563" lon="4.83479">
        <ele>191</ele>
        <time>2024-09-19T10:12:07Z</time>
      </trkpt>
      <trkpt lat="46.29556" lon="4.83481">
        <ele>192</ele>
        <time>2024-09-19T10:12:08Z</time>
      </trkpt>
      <trkpt lat="46.29554" lon="4.83482">
        <ele>192</ele>
        <time>2024-09-19T10:12:09Z</time>
      </trkpt>
      <trkpt lat="46.29548" lon="4.83484">
        <ele>192</ele>
        <time>2024-09-19T10:12:10Z</time>
      </trkpt>
      <trkpt lat="46.29546" lon="4.83485">
        <ele>192</ele>
        <time>2024-09-19T10:12:11Z</time>
      </trkpt>
      <trkpt lat="46.2954" lon="4.83487">
        <ele>192</ele>
        <time>2024-09-19T10:12:12Z</time>
      </trkpt>
      <trkpt lat="46.29538" lon="4.83488">
        <ele>193.2</ele>
        <time>2024-09-19T10:12:13Z</time>
      </trkpt>
      <trkpt lat="46.29531" lon="4.8349">
        <ele>193.2</ele>
        <time>2024-09-19T10:12:14Z</time>
      </trkpt>
      <trkpt lat="46.29529" lon="4.83491">
        <ele>193.2</ele>
        <time>2024-09-19T10:12:15Z</time>
      </trkpt>
      <trkpt lat="46.29523" lon="4.83493">
        <ele>193.2</ele>
        <time>2024-09-19T10:12:16Z</time>
      </trkpt>
      <trkpt lat="46.29522" lon="4.83494">
        <ele>193.2</ele>
        <time>2024-09-19T10:12:17Z</time>
      </trkpt>
      <trkpt lat="46.29516" lon="4.83497">
        <ele>194</ele>
        <time>2024-09-19T10:12:18Z</time>
      </trkpt>
      <trkpt lat="46.29514" lon="4.83498">
        <ele>193.8</ele>
        <time>2024-09-19T10:12:19Z</time>
      </trkpt>
      <trkpt lat="46.2951" lon="4.835">
        <ele>193.8</ele>
        <time>2024-09-19T10:12:20Z</time>
      </trkpt>
      <trkpt lat="46.29505" lon="4.83504">
        <ele>193.8</ele>
        <time>2024-09-19T10:12:21Z</time>
      </trkpt>
      <trkpt lat="46.29503" lon="4.83505">
        <ele>194.4</ele>
        <time>2024-09-19T10:12:22Z</time>
      </trkpt>
      <trkpt lat="46.29497" lon="4.83508">
        <ele>194.6</ele>
        <time>2024-09-19T10:12:23Z</time>
      </trkpt>
      <trkpt lat="46.29495" lon="4.8351">
        <ele>194.6</ele>
        <time>2024-09-19T10:12:24Z</time>
      </trkpt>
      <trkpt lat="46.2949" lon="4.83513">
        <ele>194.6</ele>
        <time>2024-09-19T10:12:25Z</time>
      </trkpt>
      <trkpt lat="46.29488" lon="4.83515">
        <ele>195</ele>
        <time>2024-09-19T10:12:26Z</time>
      </trkpt>
      <trkpt lat="46.29483" lon="4.83519">
        <ele>195</ele>
        <time>2024-09-19T10:12:27Z</time>
      </trkpt>
      <trkpt lat="46.29481" lon="4.8352">
        <ele>195.2</ele>
        <time>2024-09-19T10:12:28Z</time>
      </trkpt>
      <trkpt lat="46.29475" lon="4.83524">
        <ele>195.2</ele>
        <time>2024-09-19T10:12:29Z</time>
      </trkpt>
      <trkpt lat="46.29474" lon="4.83526">
        <ele>195.2</ele>
        <time>2024-09-19T10:12:30Z</time>
      </trkpt>
      <trkpt lat="46.29468" lon="4.83531">
        <ele>195.6</ele>
        <time>2024-09-19T10:12:31Z</time>
      </trkpt>
      <trkpt lat="46.29466" lon="4.83532">
        <ele>195.8</ele>
        <time>2024-09-19T10:12:32Z</time>
      </trkpt>
      <trkpt lat="46.29461" lon="4.83537">
        <ele>195.8</ele>
        <time>2024-09-19T10:12:33Z</time>
      </trkpt>
      <trkpt lat="46.29459" lon="4.83538">
        <ele>195.8</ele>
        <time>2024-09-19T10:12:34Z</time>
      </trkpt>
      <trkpt lat="46.29454" lon="4.83542">
        <ele>196.2</ele>
        <time>2024-09-19T10:12:35Z</time>
      </trkpt>
      <trkpt lat="46.29452" lon="4.83543">
        <ele>196</ele>
        <time>2024-09-19T10:12:36Z</time>
      </trkpt>
      <trkpt lat="46.29448" lon="4.83547">
        <ele>196</ele>
        <time>2024-09-19T10:12:37Z</time>
      </trkpt>
      <trkpt lat="46.29445" lon="4.8355">
        <ele>196</ele>
        <time>2024-09-19T10:12:38Z</time>
      </trkpt>
      <trkpt lat="46.29441" lon="4.83552">
        <ele>196</ele>
        <time>2024-09-19T10:12:39Z</time>
      </trkpt>
      <trkpt lat="46.29436" lon="4.83557">
        <ele>196.4</ele>
        <time>2024-09-19T10:12:40Z</time>
      </trkpt>
      <trkpt lat="46.29434" lon="4.83558">
        <ele>196.6</ele>
        <time>2024-09-19T10:12:41Z</time>
      </trkpt>
      <trkpt lat="46.29431" lon="4.83561">
        <ele>196.6</ele>
        <time>2024-09-19T10:12:42Z</time>
      </trkpt>
      <trkpt lat="46.29428" lon="4.83564">
        <ele>196.6</ele>
        <time>2024-09-19T10:12:43Z</time>
      </trkpt>
      <trkpt lat="46.29423" lon="4.83569">
        <ele>196.8</ele>
        <time>2024-09-19T10:12:44Z</time>
      </trkpt>
      <trkpt lat="46.29421" lon="4.8357">
        <ele>197.2</ele>
        <time>2024-09-19T10:12:45Z</time>
      </trkpt>
      <trkpt lat="46.29415" lon="4.83575">
        <ele>197.2</ele>
        <time>2024-09-19T10:12:46Z</time>
      </trkpt>
      <trkpt lat="46.29414" lon="4.83576">
        <ele>197.2</ele>
        <time>2024-09-19T10:12:47Z</time>
      </trkpt>
      <trkpt lat="46.29408" lon="4.8358">
        <ele>197.2</ele>
        <time>2024-09-19T10:12:48Z</time>
      </trkpt>
      <trkpt lat="46.29407" lon="4.83582">
        <ele>197.2</ele>
        <time>2024-09-19T10:12:49Z</time>
      </trkpt>
      <trkpt lat="46.29401" lon="4.83586">
        <ele>197</ele>
        <time>2024-09-19T10:12:50Z</time>
      </trkpt>
      <trkpt lat="46.294" lon="4.83587">
        <ele>197</ele>
        <time>2024-09-19T10:12:51Z</time>
      </trkpt>
      <trkpt lat="46.29395" lon="4.83591">
        <ele>197</ele>
        <time>2024-09-19T10:12:52Z</time>
      </trkpt>
      <trkpt lat="46.29393" lon="4.83592">
        <ele>197.2</ele>
        <time>2024-09-19T10:12:53Z</time>
      </trkpt>
      <trkpt lat="46.29389" lon="4.83596">
        <ele>197.2</ele>
        <time>2024-09-19T10:12:54Z</time>
      </trkpt>
      <trkpt lat="46.29387" lon="4.83597">
        <ele>197.2</ele>
        <time>2024-09-19T10:12:55Z</time>
      </trkpt>
      <trkpt lat="46.29382" lon="4.83601">
        <ele>197.2</ele>
        <time>2024-09-19T10:12:56Z</time>
      </trkpt>
      <trkpt lat="46.29381" lon="4.83603">
        <ele>197.2</ele>
        <time>2024-09-19T10:12:57Z</time>
      </trkpt>
      <trkpt lat="46.29375" lon="4.83607">
        <ele>197.2</ele>
        <time>2024-09-19T10:12:58Z</time>
      </trkpt>
      <trkpt lat="46.29374" lon="4.83608">
        <ele>197.2</ele>
        <time>2024-09-19T10:12:59Z</time>
      </trkpt>
      <trkpt lat="46.29368" lon="4.83613">
        <ele>197.2</ele>
        <time>2024-09-19T10:13:00Z</time>
      </trkpt>
      <trkpt lat="46.29367" lon="4.83614">
        <ele>197.2</ele>
        <time>2024-09-19T10:13:01Z</time>
      </trkpt>
      <trkpt lat="46.29363" lon="4.83617">
        <ele>197.2</ele>
        <time>2024-09-19T10:13:02Z</time>
      </trkpt>
      <trkpt lat="46.29357" lon="4.83622">
        <ele>197.4</ele>
        <time>2024-09-19T10:13:03Z</time>
      </trkpt>
      <trkpt lat="46.29355" lon="4.83624">
        <ele>197</ele>
        <time>2024-09-19T10:13:04Z</time>
      </trkpt>
      <trkpt lat="46.2935" lon="4.83628">
        <ele>197</ele>
        <time>2024-09-19T10:13:05Z</time>
      </trkpt>
      <trkpt lat="46.29348" lon="4.8363">
        <ele>197</ele>
        <time>2024-09-19T10:13:06Z</time>
      </trkpt>
      <trkpt lat="46.29342" lon="4.83634">
        <ele>197.2</ele>
        <time>2024-09-19T10:13:07Z</time>
      </trkpt>
      <trkpt lat="46.2934" lon="4.83636">
        <ele>197</ele>
        <time>2024-09-19T10:13:08Z</time>
      </trkpt>
      <trkpt lat="46.29334" lon="4.83641">
        <ele>197</ele>
        <time>2024-09-19T10:13:09Z</time>
      </trkpt>
      <trkpt lat="46.29332" lon="4.83642">
        <ele>197</ele>
        <time>2024-09-19T10:13:10Z</time>
      </trkpt>
      <trkpt lat="46.29325" lon="4.83647">
        <ele>197</ele>
        <time>2024-09-19T10:13:11Z</time>
      </trkpt>
      <trkpt lat="46.29323" lon="4.83649">
        <ele>197</ele>
        <time>2024-09-19T10:13:12Z</time>
      </trkpt>
      <trkpt lat="46.29317" lon="4.83654">
        <ele>197</ele>
        <time>2024-09-19T10:13:13Z</time>
      </trkpt>
      <trkpt lat="46.29315" lon="4.83656">
        <ele>197</ele>
        <time>2024-09-19T10:13:14Z</time>
      </trkpt>
      <trkpt lat="46.2931" lon="4.83659">
        <ele>197</ele>
        <time>2024-09-19T10:13:15Z</time>
      </trkpt>
      <trkpt lat="46.29306" lon="4.83663">
        <ele>196.6</ele>
        <time>2024-09-19T10:13:16Z</time>
      </trkpt>
      <trkpt lat="46.29301" lon="4.83667">
        <ele>196.4</ele>
        <time>2024-09-19T10:13:17Z</time>
      </trkpt>
      <trkpt lat="46.29296" lon="4.83671">
        <ele>196.4</ele>
        <time>2024-09-19T10:13:18Z</time>
      </trkpt>
      <trkpt lat="46.29289" lon="4.83677">
        <ele>196.4</ele>
        <time>2024-09-19T10:13:19Z</time>
      </trkpt>
      <trkpt lat="46.29286" lon="4.83679">
        <ele>195.8</ele>
        <time>2024-09-19T10:13:20Z</time>
      </trkpt>
      <trkpt lat="46.29279" lon="4.83685">
        <ele>196</ele>
        <time>2024-09-19T10:13:21Z</time>
      </trkpt>
      <trkpt lat="46.29276" lon="4.83687">
        <ele>196</ele>
        <time>2024-09-19T10:13:22Z</time>
      </trkpt>
      <trkpt lat="46.29268" lon="4.83693">
        <ele>196</ele>
        <time>2024-09-19T10:13:23Z</time>
      </trkpt>
      <trkpt lat="46.29265" lon="4.83696">
        <ele>196</ele>
        <time>2024-09-19T10:13:24Z</time>
      </trkpt>
      <trkpt lat="46.2926" lon="4.837">
        <ele>195.2</ele>
        <time>2024-09-19T10:13:25Z</time>
      </trkpt>
      <trkpt lat="46.29254" lon="4.83704">
        <ele>194.8</ele>
        <time>2024-09-19T10:13:26Z</time>
      </trkpt>
      <trkpt lat="46.29245" lon="4.83709">
        <ele>194.8</ele>
        <time>2024-09-19T10:13:27Z</time>
      </trkpt>
      <trkpt lat="46.29242" lon="4.83711">
        <ele>194.8</ele>
        <time>2024-09-19T10:13:28Z</time>
      </trkpt>
      <trkpt lat="46.29233" lon="4.83716">
        <ele>194</ele>
        <time>2024-09-19T10:13:29Z</time>
      </trkpt>
      <trkpt lat="46.2923" lon="4.83717">
        <ele>193.6</ele>
        <time>2024-09-19T10:13:30Z</time>
      </trkpt>
      <trkpt lat="46.2922" lon="4.83721">
        <ele>193.6</ele>
        <time>2024-09-19T10:13:31Z</time>
      </trkpt>
      <trkpt lat="46.29217" lon="4.83722">
        <ele>193.6</ele>
        <time>2024-09-19T10:13:32Z</time>
      </trkpt>
      <trkpt lat="46.29206" lon="4.83725">
        <ele>192.8</ele>
        <time>2024-09-19T10:13:33Z</time>
      </trkpt>
      <trkpt lat="46.29203" lon="4.83725">
        <ele>192.8</ele>
        <time>2024-09-19T10:13:34Z</time>
      </trkpt>
      <trkpt lat="46.29192" lon="4.83727">
        <ele>192.4</ele>
        <time>2024-09-19T10:13:35Z</time>
      </trkpt>
      <trkpt lat="46.29188" lon="4.83727">
        <ele>192.4</ele>
        <time>2024-09-19T10:13:36Z</time>
      </trkpt>
      <trkpt lat="46.29177" lon="4.83728">
        <ele>192.4</ele>
        <time>2024-09-19T10:13:37Z</time>
      </trkpt>
      <trkpt lat="46.29173" lon="4.83727">
        <ele>191.4</ele>
        <time>2024-09-19T10:13:38Z</time>
      </trkpt>
      <trkpt lat="46.29162" lon="4.83726">
        <ele>190.8</ele>
        <time>2024-09-19T10:13:39Z</time>
      </trkpt>
      <trkpt lat="46.29158" lon="4.83725">
        <ele>190.8</ele>
        <time>2024-09-19T10:13:40Z</time>
      </trkpt>
      <trkpt lat="46.29147" lon="4.83722">
        <ele>190.8</ele>
        <time>2024-09-19T10:13:41Z</time>
      </trkpt>
      <trkpt lat="46.29143" lon="4.83721">
        <ele>190.8</ele>
        <time>2024-09-19T10:13:42Z</time>
      </trkpt>
      <trkpt lat="46.29132" lon="4.83717">
        <ele>190</ele>
        <time>2024-09-19T10:13:43Z</time>
      </trkpt>
      <trkpt lat="46.29128" lon="4.83716">
        <ele>189.6</ele>
        <time>2024-09-19T10:13:44Z</time>
      </trkpt>
      <trkpt lat="46.29121" lon="4.83712">
        <ele>189.6</ele>
        <time>2024-09-19T10:13:45Z</time>
      </trkpt>
      <trkpt lat="46.2911" lon="4.83706">
        <ele>189.6</ele>
        <time>2024-09-19T10:13:46Z</time>
      </trkpt>
      <trkpt lat="46.29107" lon="4.83703">
        <ele>189.6</ele>
        <time>2024-09-19T10:13:47Z</time>
      </trkpt>
      <trkpt lat="46.29097" lon="4.83696">
        <ele>188.8</ele>
        <time>2024-09-19T10:13:48Z</time>
      </trkpt>
      <trkpt lat="46.29093" lon="4.83693">
        <ele>188.4</ele>
        <time>2024-09-19T10:13:49Z</time>
      </trkpt>
      <trkpt lat="46.29084" lon="4.83684">
        <ele>188.4</ele>
        <time>2024-09-19T10:13:50Z</time>
      </trkpt>
      <trkpt lat="46.29081" lon="4.83681">
        <ele>188.4</ele>
        <time>2024-09-19T10:13:51Z</time>
      </trkpt>
      <trkpt lat="46.29072" lon="4.83671">
        <ele>187.8</ele>
        <time>2024-09-19T10:13:52Z</time>
      </trkpt>
      <trkpt lat="46.29069" lon="4.83668">
        <ele>187.8</ele>
        <time>2024-09-19T10:13:53Z</time>
      </trkpt>
      <trkpt lat="46.2906" lon="4.83657">
        <ele>187.8</ele>
        <time>2024-09-19T10:13:54Z</time>
      </trkpt>
      <trkpt lat="46.29058" lon="4.83653">
        <ele>187.8</ele>
        <time>2024-09-19T10:13:55Z</time>
      </trkpt>
      <trkpt lat="46.2905" lon="4.83642">
        <ele>187.8</ele>
        <time>2024-09-19T10:13:56Z</time>
      </trkpt>
      <trkpt lat="46.29048" lon="4.83638">
        <ele>187.4</ele>
        <time>2024-09-19T10:13:57Z</time>
      </trkpt>
      <trkpt lat="46.29041" lon="4.83626">
        <ele>187.4</ele>
        <time>2024-09-19T10:13:58Z</time>
      </trkpt>
      <trkpt lat="46.29039" lon="4.83622">
        <ele>187.4</ele>
        <time>2024-09-19T10:13:59Z</time>
      </trkpt>
      <trkpt lat="46.29035" lon="4.83614">
        <ele>187.4</ele>
        <time>2024-09-19T10:14:00Z</time>
      </trkpt>
      <trkpt lat="46.29031" lon="4.83605">
        <ele>187.2</ele>
        <time>2024-09-19T10:14:01Z</time>
      </trkpt>
      <trkpt lat="46.29026" lon="4.83593">
        <ele>187</ele>
        <time>2024-09-19T10:14:02Z</time>
      </trkpt>
      <trkpt lat="46.29025" lon="4.83588">
        <ele>187</ele>
        <time>2024-09-19T10:14:03Z</time>
      </trkpt>
      <trkpt lat="46.2902" lon="4.83575">
        <ele>187</ele>
        <time>2024-09-19T10:14:04Z</time>
      </trkpt>
      <trkpt lat="46.29019" lon="4.83571">
        <ele>187</ele>
        <time>2024-09-19T10:14:05Z</time>
      </trkpt>
      <trkpt lat="46.29016" lon="4.83563">
        <ele>187</ele>
        <time>2024-09-19T10:14:06Z</time>
      </trkpt>
      <trkpt lat="46.29012" lon="4.8355">
        <ele>187</ele>
        <time>2024-09-19T10:14:07Z</time>
      </trkpt>
      <trkpt lat="46.29011" lon="4.83546">
        <ele>187</ele>
        <time>2024-09-19T10:14:08Z</time>
      </trkpt>
      <trkpt lat="46.29007" lon="4.83533">
        <ele>187</ele>
        <time>2024-09-19T10:14:09Z</time>
      </trkpt>
      <trkpt lat="46.29006" lon="4.83529">
        <ele>187</ele>
        <time>2024-09-19T10:14:10Z</time>
      </trkpt>
      <trkpt lat="46.29002" lon="4.83517">
        <ele>187</ele>
        <time>2024-09-19T10:14:11Z</time>
      </trkpt>
      <trkpt lat="46.29001" lon="4.83513">
        <ele>187</ele>
        <time>2024-09-19T10:14:12Z</time>
      </trkpt>
      <trkpt lat="46.28998" lon="4.835">
        <ele>187</ele>
        <time>2024-09-19T10:14:13Z</time>
      </trkpt>
      <trkpt lat="46.28996" lon="4.83496">
        <ele>187</ele>
        <time>2024-09-19T10:14:14Z</time>
      </trkpt>
      <trkpt lat="46.28993" lon="4.83484">
        <ele>187</ele>
        <time>2024-09-19T10:14:15Z</time>
      </trkpt>
      <trkpt lat="46.28992" lon="4.8348">
        <ele>187</ele>
        <time>2024-09-19T10:14:16Z</time>
      </trkpt>
      <trkpt lat="46.28988" lon="4.83467">
        <ele>187</ele>
        <time>2024-09-19T10:14:17Z</time>
      </trkpt>
      <trkpt lat="46.28987" lon="4.83463">
        <ele>187</ele>
        <time>2024-09-19T10:14:18Z</time>
      </trkpt>
      <trkpt lat="46.28983" lon="4.83451">
        <ele>187</ele>
        <time>2024-09-19T10:14:19Z</time>
      </trkpt>
      <trkpt lat="46.28982" lon="4.83447">
        <ele>187</ele>
        <time>2024-09-19T10:14:20Z</time>
      </trkpt>
      <trkpt lat="46.28978" lon="4.83435">
        <ele>187</ele>
        <time>2024-09-19T10:14:21Z</time>
      </trkpt>
      <trkpt lat="46.28977" lon="4.83431">
        <ele>187</ele>
        <time>2024-09-19T10:14:22Z</time>
      </trkpt>
      <trkpt lat="46.28973" lon="4.83419">
        <ele>187</ele>
        <time>2024-09-19T10:14:23Z</time>
      </trkpt>
      <trkpt lat="46.28972" lon="4.83415">
        <ele>187</ele>
        <time>2024-09-19T10:14:24Z</time>
      </trkpt>
      <trkpt lat="46.28969" lon="4.83404">
        <ele>187.2</ele>
        <time>2024-09-19T10:14:25Z</time>
      </trkpt>
      <trkpt lat="46.28968" lon="4.834">
        <ele>187.2</ele>
        <time>2024-09-19T10:14:26Z</time>
      </trkpt>
      <trkpt lat="46.28964" lon="4.83388">
        <ele>187.2</ele>
        <time>2024-09-19T10:14:27Z</time>
      </trkpt>
      <trkpt lat="46.28963" lon="4.83384">
        <ele>187.2</ele>
        <time>2024-09-19T10:14:28Z</time>
      </trkpt>
      <trkpt lat="46.2896" lon="4.83373">
        <ele>187.2</ele>
        <time>2024-09-19T10:14:29Z</time>
      </trkpt>
      <trkpt lat="46.28959" lon="4.83369">
        <ele>187.2</ele>
        <time>2024-09-19T10:14:30Z</time>
      </trkpt>
      <trkpt lat="46.28955" lon="4.83358">
        <ele>187.2</ele>
        <time>2024-09-19T10:14:31Z</time>
      </trkpt>
      <trkpt lat="46.28954" lon="4.83354">
        <ele>187.2</ele>
        <time>2024-09-19T10:14:32Z</time>
      </trkpt>
      <trkpt lat="46.2895" lon="4.83343">
        <ele>187.2</ele>
        <time>2024-09-19T10:14:33Z</time>
      </trkpt>
      <trkpt lat="46.28949" lon="4.83339">
        <ele>187.2</ele>
        <time>2024-09-19T10:14:34Z</time>
      </trkpt>
      <trkpt lat="46.28945" lon="4.83329">
        <ele>187.2</ele>
        <time>2024-09-19T10:14:35Z</time>
      </trkpt>
      <trkpt lat="46.28943" lon="4.83325">
        <ele>187.2</ele>
        <time>2024-09-19T10:14:36Z</time>
      </trkpt>
      <trkpt lat="46.28939" lon="4.83315">
        <ele>187.2</ele>
        <time>2024-09-19T10:14:37Z</time>
      </trkpt>
      <trkpt lat="46.28937" lon="4.83312">
        <ele>187.2</ele>
        <time>2024-09-19T10:14:38Z</time>
      </trkpt>
      <trkpt lat="46.28932" lon="4.83302">
        <ele>187.2</ele>
        <time>2024-09-19T10:14:39Z</time>
      </trkpt>
      <trkpt lat="46.28931" lon="4.83299">
        <ele>187.2</ele>
        <time>2024-09-19T10:14:40Z</time>
      </trkpt>
      <trkpt lat="46.28926" lon="4.8329">
        <ele>187.2</ele>
        <time>2024-09-19T10:14:41Z</time>
      </trkpt>
      <trkpt lat="46.28924" lon="4.83287">
        <ele>187.2</ele>
        <time>2024-09-19T10:14:42Z</time>
      </trkpt>
      <trkpt lat="46.28921" lon="4.8328">
        <ele>187.2</ele>
        <time>2024-09-19T10:14:43Z</time>
      </trkpt>
      <trkpt lat="46.28917" lon="4.83274">
        <ele>187.2</ele>
        <time>2024-09-19T10:14:44Z</time>
      </trkpt>
      <trkpt lat="46.28913" lon="4.83268">
        <ele>187.2</ele>
        <time>2024-09-19T10:14:45Z</time>
      </trkpt>
      <trkpt lat="46.2891" lon="4.83262">
        <ele>187.4</ele>
        <time>2024-09-19T10:14:46Z</time>
      </trkpt>
      <trkpt lat="46.28905" lon="4.83253">
        <ele>187.4</ele>
        <time>2024-09-19T10:14:47Z</time>
      </trkpt>
      <trkpt lat="46.28904" lon="4.8325">
        <ele>187.4</ele>
        <time>2024-09-19T10:14:48Z</time>
      </trkpt>
      <trkpt lat="46.28899" lon="4.83242">
        <ele>187.4</ele>
        <time>2024-09-19T10:14:49Z</time>
      </trkpt>
      <trkpt lat="46.28898" lon="4.83239">
        <ele>187.4</ele>
        <time>2024-09-19T10:14:50Z</time>
      </trkpt>
      <trkpt lat="46.28894" lon="4.83235">
        <ele>187.4</ele>
        <time>2024-09-19T10:14:51Z</time>
      </trkpt>
      <trkpt lat="46.2889" lon="4.83228">
        <ele>187.4</ele>
        <time>2024-09-19T10:14:52Z</time>
      </trkpt>
      <trkpt lat="46.28888" lon="4.83226">
        <ele>187.4</ele>
        <time>2024-09-19T10:14:53Z</time>
      </trkpt>
      <trkpt lat="46.28884" lon="4.8322">
        <ele>187.4</ele>
        <time>2024-09-19T10:14:54Z</time>
      </trkpt>
      <trkpt lat="46.28882" lon="4.83218">
        <ele>187.4</ele>
        <time>2024-09-19T10:14:55Z</time>
      </trkpt>
      <trkpt lat="46.28877" lon="4.83214">
        <ele>187.4</ele>
        <time>2024-09-19T10:14:56Z</time>
      </trkpt>
      <trkpt lat="46.28875" lon="4.83213">
        <ele>187.4</ele>
        <time>2024-09-19T10:14:57Z</time>
      </trkpt>
      <trkpt lat="46.28871" lon="4.83212">
        <ele>187.4</ele>
        <time>2024-09-19T10:14:58Z</time>
      </trkpt>
      <trkpt lat="46.28867" lon="4.83214">
        <ele>187.4</ele>
        <time>2024-09-19T10:14:59Z</time>
      </trkpt>
      <trkpt lat="46.28866" lon="4.83214">
        <ele>187.4</ele>
        <time>2024-09-19T10:15:00Z</time>
      </trkpt>
      <trkpt lat="46.28864" lon="4.83216">
        <ele>187.4</ele>
        <time>2024-09-19T10:15:01Z</time>
      </trkpt>
      <trkpt lat="46.28864" lon="4.83218">
        <ele>187.4</ele>
        <time>2024-09-19T10:15:02Z</time>
      </trkpt>
      <trkpt lat="46.28862" lon="4.83222">
        <ele>187.4</ele>
        <time>2024-09-19T10:15:03Z</time>
      </trkpt>
      <trkpt lat="46.28861" lon="4.83223">
        <ele>187.2</ele>
        <time>2024-09-19T10:15:04Z</time>
      </trkpt>
      <trkpt lat="46.28859" lon="4.83227">
        <ele>187.2</ele>
        <time>2024-09-19T10:15:05Z</time>
      </trkpt>
      <trkpt lat="46.28858" lon="4.83229">
        <ele>187.2</ele>
        <time>2024-09-19T10:15:06Z</time>
      </trkpt>
      <trkpt lat="46.28854" lon="4.8323">
        <ele>187.2</ele>
        <time>2024-09-19T10:15:07Z</time>
      </trkpt>
      <trkpt lat="46.28853" lon="4.8323">
        <ele>187.2</ele>
        <time>2024-09-19T10:15:08Z</time>
      </trkpt>
      <trkpt lat="46.28849" lon="4.83228">
        <ele>187</ele>
        <time>2024-09-19T10:15:09Z</time>
      </trkpt>
      <trkpt lat="46.28848" lon="4.83227">
        <ele>187</ele>
        <time>2024-09-19T10:15:10Z</time>
      </trkpt>
      <trkpt lat="46.28846" lon="4.83226">
        <ele>187</ele>
        <time>2024-09-19T10:15:11Z</time>
      </trkpt>
      <trkpt lat="46.28843" lon="4.83224">
        <ele>187</ele>
        <time>2024-09-19T10:15:12Z</time>
      </trkpt>
      <trkpt lat="46.28842" lon="4.83223">
        <ele>187</ele>
        <time>2024-09-19T10:15:13Z</time>
      </trkpt>
      <trkpt lat="46.28839" lon="4.83221">
        <ele>187</ele>
        <time>2024-09-19T10:15:14Z</time>
      </trkpt>
      <trkpt lat="46.28838" lon="4.83221">
        <ele>187</ele>
        <time>2024-09-19T10:15:15Z</time>
      </trkpt>
      <trkpt lat="46.28835" lon="4.83219">
        <ele>187</ele>
        <time>2024-09-19T10:15:16Z</time>
      </trkpt>
      <trkpt lat="46.28834" lon="4.83218">
        <ele>187</ele>
        <time>2024-09-19T10:15:17Z</time>
      </trkpt>
      <trkpt lat="46.28833" lon="4.83217">
        <ele>186.8</ele>
        <time>2024-09-19T10:15:18Z</time>
      </trkpt>
      <trkpt lat="46.28831" lon="4.83217">
        <ele>186.8</ele>
        <time>2024-09-19T10:15:19Z</time>
      </trkpt>
      <trkpt lat="46.2883" lon="4.83217">
        <ele>186.8</ele>
        <time>2024-09-19T10:15:20Z</time>
      </trkpt>
      <trkpt lat="46.28828" lon="4.83218">
        <ele>187.2</ele>
        <time>2024-09-19T10:15:21Z</time>
      </trkpt>
      <trkpt lat="46.28826" lon="4.83218">
        <ele>187.2</ele>
        <time>2024-09-19T10:15:22Z</time>
      </trkpt>
      <trkpt lat="46.28825" lon="4.83219">
        <ele>187</ele>
        <time>2024-09-19T10:15:23Z</time>
      </trkpt>
      <trkpt lat="46.28824" lon="4.83221">
        <ele>187</ele>
        <time>2024-09-19T10:15:24Z</time>
      </trkpt>
      <trkpt lat="46.28823" lon="4.83222">
        <ele>187</ele>
        <time>2024-09-19T10:15:25Z</time>
      </trkpt>
      <trkpt lat="46.28822" lon="4.83225">
        <ele>187</ele>
        <time>2024-09-19T10:15:26Z</time>
      </trkpt>
      <trkpt lat="46.28822" lon="4.83227">
        <ele>187</ele>
        <time>2024-09-19T10:15:27Z</time>
      </trkpt>
      <trkpt lat="46.28821" lon="4.8323">
        <ele>187</ele>
        <time>2024-09-19T10:15:28Z</time>
      </trkpt>
      <trkpt lat="46.2882" lon="4.83234">
        <ele>187</ele>
        <time>2024-09-19T10:15:29Z</time>
      </trkpt>
      <trkpt lat="46.28819" lon="4.83236">
        <ele>187</ele>
        <time>2024-09-19T10:15:30Z</time>
      </trkpt>
      <trkpt lat="46.28819" lon="4.83239">
        <ele>186.8</ele>
        <time>2024-09-19T10:15:31Z</time>
      </trkpt>
      <trkpt lat="46.28818" lon="4.83242">
        <ele>186.8</ele>
        <time>2024-09-19T10:15:32Z</time>
      </trkpt>
      <trkpt lat="46.28818" lon="4.83245">
        <ele>186.8</ele>
        <time>2024-09-19T10:15:33Z</time>
      </trkpt>
      <trkpt lat="46.28817" lon="4.8325">
        <ele>186.8</ele>
        <time>2024-09-19T10:15:34Z</time>
      </trkpt>
      <trkpt lat="46.28817" lon="4.83251">
        <ele>187</ele>
        <time>2024-09-19T10:15:35Z</time>
      </trkpt>
      <trkpt lat="46.28816" lon="4.83257">
        <ele>186.6</ele>
        <time>2024-09-19T10:15:36Z</time>
      </trkpt>
      <trkpt lat="46.28815" lon="4.83259">
        <ele>186.6</ele>
        <time>2024-09-19T10:15:37Z</time>
      </trkpt>
      <trkpt lat="46.28815" lon="4.83263">
        <ele>186.6</ele>
        <time>2024-09-19T10:15:38Z</time>
      </trkpt>
      <trkpt lat="46.28814" lon="4.83268">
        <ele>186.6</ele>
        <time>2024-09-19T10:15:39Z</time>
      </trkpt>
      <trkpt lat="46.28813" lon="4.83273">
        <ele>186.4</ele>
        <time>2024-09-19T10:15:40Z</time>
      </trkpt>
      <trkpt lat="46.28812" lon="4.83279">
        <ele>186.4</ele>
        <time>2024-09-19T10:15:41Z</time>
      </trkpt>
      <trkpt lat="46.2881" lon="4.83288">
        <ele>186.4</ele>
        <time>2024-09-19T10:15:42Z</time>
      </trkpt>
      <trkpt lat="46.2881" lon="4.83291">
        <ele>186.4</ele>
        <time>2024-09-19T10:15:43Z</time>
      </trkpt>
      <trkpt lat="46.28808" lon="4.833">
        <ele>186.6</ele>
        <time>2024-09-19T10:15:44Z</time>
      </trkpt>
      <trkpt lat="46.28807" lon="4.83304">
        <ele>186.8</ele>
        <time>2024-09-19T10:15:45Z</time>
      </trkpt>
      <trkpt lat="46.28806" lon="4.83313">
        <ele>186.8</ele>
        <time>2024-09-19T10:15:46Z</time>
      </trkpt>
      <trkpt lat="46.28805" lon="4.83316">
        <ele>186.8</ele>
        <time>2024-09-19T10:15:47Z</time>
      </trkpt>
      <trkpt lat="46.28804" lon="4.83326">
        <ele>186.6</ele>
        <time>2024-09-19T10:15:48Z</time>
      </trkpt>
      <trkpt lat="46.28803" lon="4.83329">
        <ele>186.6</ele>
        <time>2024-09-19T10:15:49Z</time>
      </trkpt>
      <trkpt lat="46.28801" lon="4.83338">
        <ele>186.8</ele>
        <time>2024-09-19T10:15:50Z</time>
      </trkpt>
      <trkpt lat="46.28801" lon="4.83341">
        <ele>186.8</ele>
        <time>2024-09-19T10:15:51Z</time>
      </trkpt>
      <trkpt lat="46.28799" lon="4.83351">
        <ele>186.8</ele>
        <time>2024-09-19T10:15:52Z</time>
      </trkpt>
      <trkpt lat="46.28798" lon="4.83354">
        <ele>186.8</ele>
        <time>2024-09-19T10:15:53Z</time>
      </trkpt>
      <trkpt lat="46.28797" lon="4.8336">
        <ele>186.8</ele>
        <time>2024-09-19T10:15:54Z</time>
      </trkpt>
      <trkpt lat="46.28795" lon="4.83369">
        <ele>186.8</ele>
        <time>2024-09-19T10:15:55Z</time>
      </trkpt>
      <trkpt lat="46.28794" lon="4.83372">
        <ele>186.8</ele>
        <time>2024-09-19T10:15:56Z</time>
      </trkpt>
      <trkpt lat="46.2879" lon="4.83381">
        <ele>186.8</ele>
        <time>2024-09-19T10:15:57Z</time>
      </trkpt>
      <trkpt lat="46.28789" lon="4.83383">
        <ele>187</ele>
        <time>2024-09-19T10:15:58Z</time>
      </trkpt>
      <trkpt lat="46.28784" lon="4.83391">
        <ele>187</ele>
        <time>2024-09-19T10:15:59Z</time>
      </trkpt>
      <trkpt lat="46.28782" lon="4.83393">
        <ele>187</ele>
        <time>2024-09-19T10:16:00Z</time>
      </trkpt>
      <trkpt lat="46.28777" lon="4.834">
        <ele>187</ele>
        <time>2024-09-19T10:16:01Z</time>
      </trkpt>
      <trkpt lat="46.28776" lon="4.83402">
        <ele>187</ele>
        <time>2024-09-19T10:16:02Z</time>
      </trkpt>
      <trkpt lat="46.2877" lon="4.83409">
        <ele>187</ele>
        <time>2024-09-19T10:16:03Z</time>
      </trkpt>
      <trkpt lat="46.28768" lon="4.83411">
        <ele>187.2</ele>
        <time>2024-09-19T10:16:04Z</time>
      </trkpt>
      <trkpt lat="46.28762" lon="4.83418">
        <ele>187.2</ele>
        <time>2024-09-19T10:16:05Z</time>
      </trkpt>
      <trkpt lat="46.2876" lon="4.8342">
        <ele>187.2</ele>
        <time>2024-09-19T10:16:06Z</time>
      </trkpt>
      <trkpt lat="46.28754" lon="4.83426">
        <ele>187.2</ele>
        <time>2024-09-19T10:16:07Z</time>
      </trkpt>
      <trkpt lat="46.28752" lon="4.83429">
        <ele>187.2</ele>
        <time>2024-09-19T10:16:08Z</time>
      </trkpt>
      <trkpt lat="46.28748" lon="4.83433">
        <ele>187.2</ele>
        <time>2024-09-19T10:16:09Z</time>
      </trkpt>
      <trkpt lat="46.28744" lon="4.83438">
        <ele>187.2</ele>
        <time>2024-09-19T10:16:10Z</time>
      </trkpt>
      <trkpt lat="46.28738" lon="4.83445">
        <ele>187.2</ele>
        <time>2024-09-19T10:16:11Z</time>
      </trkpt>
      <trkpt lat="46.28737" lon="4.83447">
        <ele>187.4</ele>
        <time>2024-09-19T10:16:12Z</time>
      </trkpt>
      <trkpt lat="46.28733" lon="4.83451">
        <ele>187.4</ele>
        <time>2024-09-19T10:16:13Z</time>
      </trkpt>
      <trkpt lat="46.28729" lon="4.83456">
        <ele>187.4</ele>
        <time>2024-09-19T10:16:14Z</time>
      </trkpt>
      <trkpt lat="46.28725" lon="4.8346">
        <ele>187.4</ele>
        <time>2024-09-19T10:16:15Z</time>
      </trkpt>
      <trkpt lat="46.2872" lon="4.83466">
        <ele>187.4</ele>
        <time>2024-09-19T10:16:16Z</time>
      </trkpt>
      <trkpt lat="46.28718" lon="4.83468">
        <ele>187.2</ele>
        <time>2024-09-19T10:16:17Z</time>
      </trkpt>
      <trkpt lat="46.28714" lon="4.83472">
        <ele>187.2</ele>
        <time>2024-09-19T10:16:18Z</time>
      </trkpt>
      <trkpt lat="46.2871" lon="4.83476">
        <ele>187.2</ele>
        <time>2024-09-19T10:16:19Z</time>
      </trkpt>
      <trkpt lat="46.28705" lon="4.83482">
        <ele>187.6</ele>
        <time>2024-09-19T10:16:20Z</time>
      </trkpt>
      <trkpt lat="46.28703" lon="4.83484">
        <ele>187.2</ele>
        <time>2024-09-19T10:16:21Z</time>
      </trkpt>
      <trkpt lat="46.28697" lon="4.83491">
        <ele>187.2</ele>
        <time>2024-09-19T10:16:22Z</time>
      </trkpt>
      <trkpt lat="46.28695" lon="4.83493">
        <ele>187.2</ele>
        <time>2024-09-19T10:16:23Z</time>
      </trkpt>
      <trkpt lat="46.2869" lon="4.835">
        <ele>187.4</ele>
        <time>2024-09-19T10:16:24Z</time>
      </trkpt>
      <trkpt lat="46.28689" lon="4.83502">
        <ele>187.4</ele>
        <time>2024-09-19T10:16:25Z</time>
      </trkpt>
      <trkpt lat="46.28683" lon="4.83508">
        <ele>187.6</ele>
        <time>2024-09-19T10:16:26Z</time>
      </trkpt>
      <trkpt lat="46.28681" lon="4.83511">
        <ele>187.6</ele>
        <time>2024-09-19T10:16:27Z</time>
      </trkpt>
      <trkpt lat="46.28675" lon="4.83517">
        <ele>187.6</ele>
        <time>2024-09-19T10:16:28Z</time>
      </trkpt>
      <trkpt lat="46.28673" lon="4.83519">
        <ele>187.4</ele>
        <time>2024-09-19T10:16:29Z</time>
      </trkpt>
      <trkpt lat="46.28667" lon="4.83525">
        <ele>187.6</ele>
        <time>2024-09-19T10:16:30Z</time>
      </trkpt>
      <trkpt lat="46.28665" lon="4.83528">
        <ele>187.6</ele>
        <time>2024-09-19T10:16:31Z</time>
      </trkpt>
      <trkpt lat="46.28659" lon="4.83534">
        <ele>187.6</ele>
        <time>2024-09-19T10:16:32Z</time>
      </trkpt>
      <trkpt lat="46.28657" lon="4.83536">
        <ele>187.6</ele>
        <time>2024-09-19T10:16:33Z</time>
      </trkpt>
      <trkpt lat="46.28651" lon="4.83543">
        <ele>187.6</ele>
        <time>2024-09-19T10:16:34Z</time>
      </trkpt>
      <trkpt lat="46.2865" lon="4.83545">
        <ele>187.4</ele>
        <time>2024-09-19T10:16:35Z</time>
      </trkpt>
      <trkpt lat="46.28644" lon="4.83552">
        <ele>187.4</ele>
        <time>2024-09-19T10:16:36Z</time>
      </trkpt>
      <trkpt lat="46.28642" lon="4.83554">
        <ele>187.4</ele>
        <time>2024-09-19T10:16:37Z</time>
      </trkpt>
      <trkpt lat="46.28638" lon="4.83559">
        <ele>187.4</ele>
        <time>2024-09-19T10:16:38Z</time>
      </trkpt>
      <trkpt lat="46.28632" lon="4.83566">
        <ele>187.6</ele>
        <time>2024-09-19T10:16:39Z</time>
      </trkpt>
      <trkpt lat="46.2863" lon="4.83568">
        <ele>187.6</ele>
        <time>2024-09-19T10:16:40Z</time>
      </trkpt>
      <trkpt lat="46.28624" lon="4.83575">
        <ele>187.6</ele>
        <time>2024-09-19T10:16:41Z</time>
      </trkpt>
      <trkpt lat="46.28622" lon="4.83577">
        <ele>187.6</ele>
        <time>2024-09-19T10:16:42Z</time>
      </trkpt>
      <trkpt lat="46.28616" lon="4.83583">
        <ele>187.4</ele>
        <time>2024-09-19T10:16:43Z</time>
      </trkpt>
      <trkpt lat="46.28615" lon="4.83586">
        <ele>187.4</ele>
        <time>2024-09-19T10:16:44Z</time>
      </trkpt>
      <trkpt lat="46.28609" lon="4.83592">
        <ele>187.4</ele>
        <time>2024-09-19T10:16:45Z</time>
      </trkpt>
      <trkpt lat="46.28607" lon="4.83594">
        <ele>187.4</ele>
        <time>2024-09-19T10:16:46Z</time>
      </trkpt>
      <trkpt lat="46.28602" lon="4.836">
        <ele>187.4</ele>
        <time>2024-09-19T10:16:47Z</time>
      </trkpt>
      <trkpt lat="46.286" lon="4.83603">
        <ele>187.4</ele>
        <time>2024-09-19T10:16:48Z</time>
      </trkpt>
      <trkpt lat="46.28594" lon="4.83609">
        <ele>187.4</ele>
        <time>2024-09-19T10:16:49Z</time>
      </trkpt>
      <trkpt lat="46.28592" lon="4.83611">
        <ele>187.4</ele>
        <time>2024-09-19T10:16:50Z</time>
      </trkpt>
      <trkpt lat="46.28588" lon="4.83615">
        <ele>187.6</ele>
        <time>2024-09-19T10:16:51Z</time>
      </trkpt>
      <trkpt lat="46.28585" lon="4.8362">
        <ele>187.6</ele>
        <time>2024-09-19T10:16:52Z</time>
      </trkpt>
      <trkpt lat="46.28581" lon="4.83624">
        <ele>187.6</ele>
        <time>2024-09-19T10:16:53Z</time>
      </trkpt>
      <trkpt lat="46.28577" lon="4.83629">
        <ele>187.6</ele>
        <time>2024-09-19T10:16:54Z</time>
      </trkpt>
      <trkpt lat="46.28571" lon="4.83636">
        <ele>187.6</ele>
        <time>2024-09-19T10:16:55Z</time>
      </trkpt>
      <trkpt lat="46.2857" lon="4.83639">
        <ele>187.6</ele>
        <time>2024-09-19T10:16:56Z</time>
      </trkpt>
      <trkpt lat="46.28564" lon="4.83645">
        <ele>187.6</ele>
        <time>2024-09-19T10:16:57Z</time>
      </trkpt>
      <trkpt lat="46.28562" lon="4.83647">
        <ele>187.6</ele>
        <time>2024-09-19T10:16:58Z</time>
      </trkpt>
      <trkpt lat="46.28559" lon="4.83651">
        <ele>187.6</ele>
        <time>2024-09-19T10:16:59Z</time>
      </trkpt>
      <trkpt lat="46.28554" lon="4.83657">
        <ele>187.6</ele>
        <time>2024-09-19T10:17:00Z</time>
      </trkpt>
      <trkpt lat="46.28552" lon="4.83659">
        <ele>187.4</ele>
        <time>2024-09-19T10:17:01Z</time>
      </trkpt>
      <trkpt lat="46.28546" lon="4.83665">
        <ele>187.4</ele>
        <time>2024-09-19T10:17:02Z</time>
      </trkpt>
      <trkpt lat="46.28544" lon="4.83667">
        <ele>187.4</ele>
        <time>2024-09-19T10:17:03Z</time>
      </trkpt>
      <trkpt lat="46.2854" lon="4.83672">
        <ele>187.4</ele>
        <time>2024-09-19T10:17:04Z</time>
      </trkpt>
      <trkpt lat="46.28536" lon="4.83676">
        <ele>187.4</ele>
        <time>2024-09-19T10:17:05Z</time>
      </trkpt>
      <trkpt lat="46.28532" lon="4.83681">
        <ele>187.4</ele>
        <time>2024-09-19T10:17:06Z</time>
      </trkpt>
      <trkpt lat="46.28528" lon="4.83685">
        <ele>187.4</ele>
        <time>2024-09-19T10:17:07Z</time>
      </trkpt>
      <trkpt lat="46.28522" lon="4.83692">
        <ele>187.4</ele>
        <time>2024-09-19T10:17:08Z</time>
      </trkpt>
      <trkpt lat="46.2852" lon="4.83694">
        <ele>187.2</ele>
        <time>2024-09-19T10:17:09Z</time>
      </trkpt>
      <trkpt lat="46.28514" lon="4.83701">
        <ele>187.2</ele>
        <time>2024-09-19T10:17:10Z</time>
      </trkpt>
      <trkpt lat="46.28512" lon="4.83703">
        <ele>187.2</ele>
        <time>2024-09-19T10:17:11Z</time>
      </trkpt>
      <trkpt lat="46.28507" lon="4.83709">
        <ele>187.2</ele>
        <time>2024-09-19T10:17:12Z</time>
      </trkpt>
      <trkpt lat="46.28505" lon="4.83711">
        <ele>187.2</ele>
        <time>2024-09-19T10:17:13Z</time>
      </trkpt>
      <trkpt lat="46.28501" lon="4.83716">
        <ele>187.2</ele>
        <time>2024-09-19T10:17:14Z</time>
      </trkpt>
      <trkpt lat="46.28495" lon="4.83722">
        <ele>187.2</ele>
        <time>2024-09-19T10:17:15Z</time>
      </trkpt>
      <trkpt lat="46.28493" lon="4.83724">
        <ele>187.2</ele>
        <time>2024-09-19T10:17:16Z</time>
      </trkpt>
      <trkpt lat="46.28487" lon="4.83731">
        <ele>187.2</ele>
        <time>2024-09-19T10:17:17Z</time>
      </trkpt>
      <trkpt lat="46.28485" lon="4.83733">
        <ele>187.2</ele>
        <time>2024-09-19T10:17:18Z</time>
      </trkpt>
      <trkpt lat="46.28479" lon="4.8374">
        <ele>187.2</ele>
        <time>2024-09-19T10:17:19Z</time>
      </trkpt>
      <trkpt lat="46.28477" lon="4.83742">
        <ele>187</ele>
        <time>2024-09-19T10:17:20Z</time>
      </trkpt>
      <trkpt lat="46.28472" lon="4.83749">
        <ele>187</ele>
        <time>2024-09-19T10:17:21Z</time>
      </trkpt>
      <trkpt lat="46.2847" lon="4.83751">
        <ele>187</ele>
        <time>2024-09-19T10:17:22Z</time>
      </trkpt>
      <trkpt lat="46.28464" lon="4.83758">
        <ele>187</ele>
        <time>2024-09-19T10:17:23Z</time>
      </trkpt>
      <trkpt lat="46.28462" lon="4.8376">
        <ele>187.2</ele>
        <time>2024-09-19T10:17:24Z</time>
      </trkpt>
      <trkpt lat="46.28456" lon="4.83767">
        <ele>187.2</ele>
        <time>2024-09-19T10:17:25Z</time>
      </trkpt>
      <trkpt lat="46.28454" lon="4.83769">
        <ele>187.2</ele>
        <time>2024-09-19T10:17:26Z</time>
      </trkpt>
      <trkpt lat="46.28447" lon="4.83774">
        <ele>187</ele>
        <time>2024-09-19T10:17:27Z</time>
      </trkpt>
      <trkpt lat="46.28445" lon="4.83776">
        <ele>187</ele>
        <time>2024-09-19T10:17:28Z</time>
      </trkpt>
      <trkpt lat="46.2844" lon="4.83779">
        <ele>187</ele>
        <time>2024-09-19T10:17:29Z</time>
      </trkpt>
      <trkpt lat="46.28433" lon="4.83781">
        <ele>187</ele>
        <time>2024-09-19T10:17:30Z</time>
      </trkpt>
      <trkpt lat="46.28431" lon="4.83782">
        <ele>187</ele>
        <time>2024-09-19T10:17:31Z</time>
      </trkpt>
      <trkpt lat="46.28426" lon="4.83782">
        <ele>186.8</ele>
        <time>2024-09-19T10:17:32Z</time>
      </trkpt>
      <trkpt lat="46.28421" lon="4.83782">
        <ele>186.6</ele>
        <time>2024-09-19T10:17:33Z</time>
      </trkpt>
      <trkpt lat="46.28416" lon="4.8378">
        <ele>186.6</ele>
        <time>2024-09-19T10:17:34Z</time>
      </trkpt>
      <trkpt lat="46.28409" lon="4.83776">
        <ele>186.6</ele>
        <time>2024-09-19T10:17:35Z</time>
      </trkpt>
      <trkpt lat="46.28407" lon="4.83775">
        <ele>186.6</ele>
        <time>2024-09-19T10:17:36Z</time>
      </trkpt>
      <trkpt lat="46.28402" lon="4.83772">
        <ele>186.6</ele>
        <time>2024-09-19T10:17:37Z</time>
      </trkpt>
      <trkpt lat="46.28398" lon="4.8377">
        <ele>186.6</ele>
        <time>2024-09-19T10:17:38Z</time>
      </trkpt>
      <trkpt lat="46.28393" lon="4.83768">
        <ele>186.6</ele>
        <time>2024-09-19T10:17:39Z</time>
      </trkpt>
      <trkpt lat="46.28386" lon="4.83765">
        <ele>186.6</ele>
        <time>2024-09-19T10:17:40Z</time>
      </trkpt>
      <trkpt lat="46.28384" lon="4.83764">
        <ele>186.6</ele>
        <time>2024-09-19T10:17:41Z</time>
      </trkpt>
      <trkpt lat="46.28379" lon="4.83762">
        <ele>186.6</ele>
        <time>2024-09-19T10:17:42Z</time>
      </trkpt>
      <trkpt lat="46.28372" lon="4.83761">
        <ele>186.6</ele>
        <time>2024-09-19T10:17:43Z</time>
      </trkpt>
      <trkpt lat="46.2837" lon="4.8376">
        <ele>186.6</ele>
        <time>2024-09-19T10:17:44Z</time>
      </trkpt>
      <trkpt lat="46.28362" lon="4.83758">
        <ele>186.6</ele>
        <time>2024-09-19T10:17:45Z</time>
      </trkpt>
      <trkpt lat="46.2836" lon="4.83758">
        <ele>186.8</ele>
        <time>2024-09-19T10:17:46Z</time>
      </trkpt>
      <trkpt lat="46.28355" lon="4.83757">
        <ele>186.8</ele>
        <time>2024-09-19T10:17:47Z</time>
      </trkpt>
      <trkpt lat="46.2835" lon="4.83756">
        <ele>186.8</ele>
        <time>2024-09-19T10:17:48Z</time>
      </trkpt>
      <trkpt lat="46.28342" lon="4.83756">
        <ele>186.8</ele>
        <time>2024-09-19T10:17:49Z</time>
      </trkpt>
      <trkpt lat="46.2834" lon="4.83756">
        <ele>187</ele>
        <time>2024-09-19T10:17:50Z</time>
      </trkpt>
      <trkpt lat="46.28333" lon="4.83755">
        <ele>187</ele>
        <time>2024-09-19T10:17:51Z</time>
      </trkpt>
      <trkpt lat="46.2833" lon="4.83754">
        <ele>187</ele>
        <time>2024-09-19T10:17:52Z</time>
      </trkpt>
      <trkpt lat="46.28323" lon="4.83752">
        <ele>187</ele>
        <time>2024-09-19T10:17:53Z</time>
      </trkpt>
      <trkpt lat="46.28321" lon="4.83752">
        <ele>187</ele>
        <time>2024-09-19T10:17:54Z</time>
      </trkpt>
      <trkpt lat="46.28314" lon="4.83749">
        <ele>187</ele>
        <time>2024-09-19T10:17:55Z</time>
      </trkpt>
      <trkpt lat="46.28311" lon="4.83748">
        <ele>187</ele>
        <time>2024-09-19T10:17:56Z</time>
      </trkpt>
      <trkpt lat="46.28304" lon="4.83745">
        <ele>187</ele>
        <time>2024-09-19T10:17:57Z</time>
      </trkpt>
      <trkpt lat="46.28302" lon="4.83743">
        <ele>187</ele>
        <time>2024-09-19T10:17:58Z</time>
      </trkpt>
      <trkpt lat="46.28294" lon="4.83739">
        <ele>187</ele>
        <time>2024-09-19T10:17:59Z</time>
      </trkpt>
      <trkpt lat="46.28292" lon="4.83738">
        <ele>187</ele>
        <time>2024-09-19T10:18:00Z</time>
      </trkpt>
      <trkpt lat="46.28285" lon="4.83734">
        <ele>187</ele>
        <time>2024-09-19T10:18:01Z</time>
      </trkpt>
      <trkpt lat="46.28282" lon="4.83733">
        <ele>187</ele>
        <time>2024-09-19T10:18:02Z</time>
      </trkpt>
      <trkpt lat="46.28277" lon="4.8373">
        <ele>187</ele>
        <time>2024-09-19T10:18:03Z</time>
      </trkpt>
      <trkpt lat="46.2827" lon="4.83726">
        <ele>187</ele>
        <time>2024-09-19T10:18:04Z</time>
      </trkpt>
      <trkpt lat="46.28268" lon="4.83725">
        <ele>187</ele>
        <time>2024-09-19T10:18:05Z</time>
      </trkpt>
      <trkpt lat="46.28261" lon="4.83721">
        <ele>187</ele>
        <time>2024-09-19T10:18:06Z</time>
      </trkpt>
      <trkpt lat="46.28258" lon="4.83719">
        <ele>187</ele>
        <time>2024-09-19T10:18:07Z</time>
      </trkpt>
      <trkpt lat="46.28251" lon="4.83716">
        <ele>187</ele>
        <time>2024-09-19T10:18:08Z</time>
      </trkpt>
      <trkpt lat="46.28249" lon="4.83715">
        <ele>187</ele>
        <time>2024-09-19T10:18:09Z</time>
      </trkpt>
      <trkpt lat="46.28241" lon="4.83713">
        <ele>187</ele>
        <time>2024-09-19T10:18:10Z</time>
      </trkpt>
      <trkpt lat="46.28239" lon="4.83712">
        <ele>187</ele>
        <time>2024-09-19T10:18:11Z</time>
      </trkpt>
      <trkpt lat="46.28234" lon="4.83711">
        <ele>187</ele>
        <time>2024-09-19T10:18:12Z</time>
      </trkpt>
      <trkpt lat="46.28229" lon="4.83705">
        <ele>187.2</ele>
        <time>2024-09-19T10:18:13Z</time>
      </trkpt>
      <trkpt lat="46.28227" lon="4.83702">
        <ele>187.2</ele>
        <time>2024-09-19T10:18:14Z</time>
      </trkpt>
      <trkpt lat="46.28221" lon="4.83697">
        <ele>187.2</ele>
        <time>2024-09-19T10:18:15Z</time>
      </trkpt>
      <trkpt lat="46.28218" lon="4.83696">
        <ele>187.2</ele>
        <time>2024-09-19T10:18:16Z</time>
      </trkpt>
      <trkpt lat="46.28212" lon="4.83694">
        <ele>187.2</ele>
        <time>2024-09-19T10:18:17Z</time>
      </trkpt>
      <trkpt lat="46.2821" lon="4.83693">
        <ele>186.6</ele>
        <time>2024-09-19T10:18:18Z</time>
      </trkpt>
      <trkpt lat="46.28205" lon="4.83691">
        <ele>186.6</ele>
        <time>2024-09-19T10:18:19Z</time>
      </trkpt>
      <trkpt lat="46.28199" lon="4.83688">
        <ele>186.6</ele>
        <time>2024-09-19T10:18:20Z</time>
      </trkpt>
      <trkpt lat="46.28197" lon="4.83688">
        <ele>186.8</ele>
        <time>2024-09-19T10:18:21Z</time>
      </trkpt>
      <trkpt lat="46.28193" lon="4.83685">
        <ele>186.8</ele>
        <time>2024-09-19T10:18:22Z</time>
      </trkpt>
      <trkpt lat="46.2819" lon="4.83683">
        <ele>186.8</ele>
        <time>2024-09-19T10:18:23Z</time>
      </trkpt>
      <trkpt lat="46.28186" lon="4.83681">
        <ele>186.8</ele>
        <time>2024-09-19T10:18:24Z</time>
      </trkpt>
      <trkpt lat="46.28179" lon="4.83678">
        <ele>186.8</ele>
        <time>2024-09-19T10:18:25Z</time>
      </trkpt>
      <trkpt lat="46.28177" lon="4.83677">
        <ele>186.4</ele>
        <time>2024-09-19T10:18:26Z</time>
      </trkpt>
      <trkpt lat="46.28173" lon="4.83674">
        <ele>186.4</ele>
        <time>2024-09-19T10:18:27Z</time>
      </trkpt>
      <trkpt lat="46.28169" lon="4.83672">
        <ele>186.4</ele>
        <time>2024-09-19T10:18:28Z</time>
      </trkpt>
      <trkpt lat="46.28162" lon="4.83669">
        <ele>186.4</ele>
        <time>2024-09-19T10:18:29Z</time>
      </trkpt>
      <trkpt lat="46.2816" lon="4.83667">
        <ele>186.4</ele>
        <time>2024-09-19T10:18:30Z</time>
      </trkpt>
      <trkpt lat="46.28153" lon="4.83664">
        <ele>186.4</ele>
        <time>2024-09-19T10:18:31Z</time>
      </trkpt>
      <trkpt lat="46.28151" lon="4.83663">
        <ele>186.4</ele>
        <time>2024-09-19T10:18:32Z</time>
      </trkpt>
      <trkpt lat="46.28144" lon="4.83659">
        <ele>186.4</ele>
        <time>2024-09-19T10:18:33Z</time>
      </trkpt>
      <trkpt lat="46.28141" lon="4.83658">
        <ele>186.4</ele>
        <time>2024-09-19T10:18:34Z</time>
      </trkpt>
      <trkpt lat="46.28137" lon="4.83655">
        <ele>186.4</ele>
        <time>2024-09-19T10:18:35Z</time>
      </trkpt>
      <trkpt lat="46.28132" lon="4.83653">
        <ele>186.4</ele>
        <time>2024-09-19T10:18:36Z</time>
      </trkpt>
      <trkpt lat="46.28127" lon="4.8365">
        <ele>186.4</ele>
        <time>2024-09-19T10:18:37Z</time>
      </trkpt>
      <trkpt lat="46.2812" lon="4.83646">
        <ele>186.4</ele>
        <time>2024-09-19T10:18:38Z</time>
      </trkpt>
      <trkpt lat="46.28117" lon="4.83645">
        <ele>186.6</ele>
        <time>2024-09-19T10:18:39Z</time>
      </trkpt>
      <trkpt lat="46.2811" lon="4.83641">
        <ele>186.4</ele>
        <time>2024-09-19T10:18:40Z</time>
      </trkpt>
      <trkpt lat="46.28108" lon="4.8364">
        <ele>186.4</ele>
        <time>2024-09-19T10:18:41Z</time>
      </trkpt>
      <trkpt lat="46.28101" lon="4.83636">
        <ele>186.4</ele>
        <time>2024-09-19T10:18:42Z</time>
      </trkpt>
      <trkpt lat="46.28098" lon="4.83635">
        <ele>186.4</ele>
        <time>2024-09-19T10:18:43Z</time>
      </trkpt>
      <trkpt lat="46.28091" lon="4.83631">
        <ele>186.6</ele>
        <time>2024-09-19T10:18:44Z</time>
      </trkpt>
      <trkpt lat="46.28089" lon="4.83629">
        <ele>186.6</ele>
        <time>2024-09-19T10:18:45Z</time>
      </trkpt>
      <trkpt lat="46.28082" lon="4.83626">
        <ele>186.4</ele>
        <time>2024-09-19T10:18:46Z</time>
      </trkpt>
      <trkpt lat="46.2808" lon="4.83625">
        <ele>186.4</ele>
        <time>2024-09-19T10:18:47Z</time>
      </trkpt>
      <trkpt lat="46.28075" lon="4.83623">
        <ele>186.4</ele>
        <time>2024-09-19T10:18:48Z</time>
      </trkpt>
      <trkpt lat="46.28069" lon="4.83619">
        <ele>186.8</ele>
        <time>2024-09-19T10:18:49Z</time>
      </trkpt>
      <trkpt lat="46.28066" lon="4.83618">
        <ele>186.8</ele>
        <time>2024-09-19T10:18:50Z</time>
      </trkpt>
      <trkpt lat="46.28059" lon="4.83615">
        <ele>186.8</ele>
        <time>2024-09-19T10:18:51Z</time>
      </trkpt>
      <trkpt lat="46.28057" lon="4.83614">
        <ele>186.6</ele>
        <time>2024-09-19T10:18:52Z</time>
      </trkpt>
      <trkpt lat="46.2805" lon="4.83612">
        <ele>186.6</ele>
        <time>2024-09-19T10:18:53Z</time>
      </trkpt>
      <trkpt lat="46.28047" lon="4.83611">
        <ele>186.4</ele>
        <time>2024-09-19T10:18:54Z</time>
      </trkpt>
      <trkpt lat="46.2804" lon="4.83608">
        <ele>186.4</ele>
        <time>2024-09-19T10:18:55Z</time>
      </trkpt>
      <trkpt lat="46.28038" lon="4.83607">
        <ele>186.4</ele>
        <time>2024-09-19T10:18:56Z</time>
      </trkpt>
      <trkpt lat="46.2803" lon="4.83604">
        <ele>186.4</ele>
        <time>2024-09-19T10:18:57Z</time>
      </trkpt>
      <trkpt lat="46.28028" lon="4.83604">
        <ele>186.4</ele>
        <time>2024-09-19T10:18:58Z</time>
      </trkpt>
      <trkpt lat="46.2802" lon="4.83601">
        <ele>186.4</ele>
        <time>2024-09-19T10:18:59Z</time>
      </trkpt>
      <trkpt lat="46.28018" lon="4.836">
        <ele>186.4</ele>
        <time>2024-09-19T10:19:00Z</time>
      </trkpt>
      <trkpt lat="46.28013" lon="4.83598">
        <ele>186.4</ele>
        <time>2024-09-19T10:19:01Z</time>
      </trkpt>
      <trkpt lat="46.28008" lon="4.83597">
        <ele>186.4</ele>
        <time>2024-09-19T10:19:02Z</time>
      </trkpt>
      <trkpt lat="46.28004" lon="4.83595">
        <ele>186.6</ele>
        <time>2024-09-19T10:19:03Z</time>
      </trkpt>
      <trkpt lat="46.27999" lon="4.83593">
        <ele>186.6</ele>
        <time>2024-09-19T10:19:04Z</time>
      </trkpt>
      <trkpt lat="46.27992" lon="4.8359">
        <ele>186.6</ele>
        <time>2024-09-19T10:19:05Z</time>
      </trkpt>
      <trkpt lat="46.27989" lon="4.83589">
        <ele>186.8</ele>
        <time>2024-09-19T10:19:06Z</time>
      </trkpt>
      <trkpt lat="46.27982" lon="4.83587">
        <ele>186.8</ele>
        <time>2024-09-19T10:19:07Z</time>
      </trkpt>
      <trkpt lat="46.2798" lon="4.83586">
        <ele>186.8</ele>
        <time>2024-09-19T10:19:08Z</time>
      </trkpt>
      <trkpt lat="46.27975" lon="4.83584">
        <ele>186.8</ele>
        <time>2024-09-19T10:19:09Z</time>
      </trkpt>
      <trkpt lat="46.27967" lon="4.83582">
        <ele>186.8</ele>
        <time>2024-09-19T10:19:10Z</time>
      </trkpt>
      <trkpt lat="46.27965" lon="4.83581">
        <ele>187</ele>
        <time>2024-09-19T10:19:11Z</time>
      </trkpt>
      <trkpt lat="46.27957" lon="4.83578">
        <ele>187</ele>
        <time>2024-09-19T10:19:12Z</time>
      </trkpt>
      <trkpt lat="46.27955" lon="4.83578">
        <ele>187</ele>
        <time>2024-09-19T10:19:13Z</time>
      </trkpt>
      <trkpt lat="46.2795" lon="4.83576">
        <ele>187</ele>
        <time>2024-09-19T10:19:14Z</time>
      </trkpt>
      <trkpt lat="46.27945" lon="4.83574">
        <ele>186.6</ele>
        <time>2024-09-19T10:19:15Z</time>
      </trkpt>
      <trkpt lat="46.27941" lon="4.83573">
        <ele>186.6</ele>
        <time>2024-09-19T10:19:16Z</time>
      </trkpt>
      <trkpt lat="46.27936" lon="4.83571">
        <ele>186.6</ele>
        <time>2024-09-19T10:19:17Z</time>
      </trkpt>
      <trkpt lat="46.27931" lon="4.83569">
        <ele>186.6</ele>
        <time>2024-09-19T10:19:18Z</time>
      </trkpt>
      <trkpt lat="46.27926" lon="4.83568">
        <ele>186.6</ele>
        <time>2024-09-19T10:19:19Z</time>
      </trkpt>
      <trkpt lat="46.27918" lon="4.83565">
        <ele>187</ele>
        <time>2024-09-19T10:19:20Z</time>
      </trkpt>
      <trkpt lat="46.27916" lon="4.83564">
        <ele>187</ele>
        <time>2024-09-19T10:19:21Z</time>
      </trkpt>
      <trkpt lat="46.27909" lon="4.83561">
        <ele>187</ele>
        <time>2024-09-19T10:19:22Z</time>
      </trkpt>
      <trkpt lat="46.27906" lon="4.8356">
        <ele>186.4</ele>
        <time>2024-09-19T10:19:23Z</time>
      </trkpt>
      <trkpt lat="46.27899" lon="4.83558">
        <ele>186.4</ele>
        <time>2024-09-19T10:19:24Z</time>
      </trkpt>
      <trkpt lat="46.27896" lon="4.83557">
        <ele>186.6</ele>
        <time>2024-09-19T10:19:25Z</time>
      </trkpt>
      <trkpt lat="46.27889" lon="4.83554">
        <ele>186.6</ele>
        <time>2024-09-19T10:19:26Z</time>
      </trkpt>
      <trkpt lat="46.27886" lon="4.83553">
        <ele>186.6</ele>
        <time>2024-09-19T10:19:27Z</time>
      </trkpt>
      <trkpt lat="46.27879" lon="4.8355">
        <ele>186.6</ele>
        <time>2024-09-19T10:19:28Z</time>
      </trkpt>
      <trkpt lat="46.27877" lon="4.8355">
        <ele>186.6</ele>
        <time>2024-09-19T10:19:29Z</time>
      </trkpt>
      <trkpt lat="46.2787" lon="4.83547">
        <ele>186.6</ele>
        <time>2024-09-19T10:19:30Z</time>
      </trkpt>
      <trkpt lat="46.27867" lon="4.83546">
        <ele>186.6</ele>
        <time>2024-09-19T10:19:31Z</time>
      </trkpt>
      <trkpt lat="46.2786" lon="4.83543">
        <ele>186.6</ele>
        <time>2024-09-19T10:19:32Z</time>
      </trkpt>
      <trkpt lat="46.27858" lon="4.83542">
        <ele>186.6</ele>
        <time>2024-09-19T10:19:33Z</time>
      </trkpt>
      <trkpt lat="46.2785" lon="4.83539">
        <ele>186.6</ele>
        <time>2024-09-19T10:19:34Z</time>
      </trkpt>
      <trkpt lat="46.27848" lon="4.83538">
        <ele>186.6</ele>
        <time>2024-09-19T10:19:35Z</time>
      </trkpt>
      <trkpt lat="46.27841" lon="4.83536">
        <ele>186.6</ele>
        <time>2024-09-19T10:19:36Z</time>
      </trkpt>
      <trkpt lat="46.27838" lon="4.83535">
        <ele>186.6</ele>
        <time>2024-09-19T10:19:37Z</time>
      </trkpt>
      <trkpt lat="46.27831" lon="4.83531">
        <ele>186.6</ele>
        <time>2024-09-19T10:19:38Z</time>
      </trkpt>
      <trkpt lat="46.27829" lon="4.8353">
        <ele>186.6</ele>
        <time>2024-09-19T10:19:39Z</time>
      </trkpt>
      <trkpt lat="46.27822" lon="4.83528">
        <ele>186.6</ele>
        <time>2024-09-19T10:19:40Z</time>
      </trkpt>
      <trkpt lat="46.27819" lon="4.83527">
        <ele>186.6</ele>
        <time>2024-09-19T10:19:41Z</time>
      </trkpt>
      <trkpt lat="46.27812" lon="4.83525">
        <ele>186.6</ele>
        <time>2024-09-19T10:19:42Z</time>
      </trkpt>
      <trkpt lat="46.2781" lon="4.83524">
        <ele>187.6</ele>
        <time>2024-09-19T10:19:43Z</time>
      </trkpt>
      <trkpt lat="46.27805" lon="4.83522">
        <ele>187.6</ele>
        <time>2024-09-19T10:19:44Z</time>
      </trkpt>
      <trkpt lat="46.27801" lon="4.83521">
        <ele>187.6</ele>
        <time>2024-09-19T10:19:45Z</time>
      </trkpt>
      <trkpt lat="46.27796" lon="4.83519">
        <ele>186.8</ele>
        <time>2024-09-19T10:19:46Z</time>
      </trkpt>
      <trkpt lat="46.27791" lon="4.83518">
        <ele>186.8</ele>
        <time>2024-09-19T10:19:47Z</time>
      </trkpt>
      <trkpt lat="46.27784" lon="4.83515">
        <ele>186.8</ele>
        <time>2024-09-19T10:19:48Z</time>
      </trkpt>
      <trkpt lat="46.27781" lon="4.83515">
        <ele>186.8</ele>
        <time>2024-09-19T10:19:49Z</time>
      </trkpt>
      <trkpt lat="46.27774" lon="4.83512">
        <ele>186.8</ele>
        <time>2024-09-19T10:19:50Z</time>
      </trkpt>
      <trkpt lat="46.27772" lon="4.83511">
        <ele>186.6</ele>
        <time>2024-09-19T10:19:51Z</time>
      </trkpt>
      <trkpt lat="46.27764" lon="4.83508">
        <ele>186.6</ele>
        <time>2024-09-19T10:19:52Z</time>
      </trkpt>
      <trkpt lat="46.27762" lon="4.83507">
        <ele>186.6</ele>
        <time>2024-09-19T10:19:53Z</time>
      </trkpt>
      <trkpt lat="46.27757" lon="4.83505">
        <ele>186.6</ele>
        <time>2024-09-19T10:19:54Z</time>
      </trkpt>
      <trkpt lat="46.27752" lon="4.83503">
        <ele>187.2</ele>
        <time>2024-09-19T10:19:55Z</time>
      </trkpt>
      <trkpt lat="46.27747" lon="4.83501">
        <ele>186.8</ele>
        <time>2024-09-19T10:19:56Z</time>
      </trkpt>
      <trkpt lat="46.27742" lon="4.83499">
        <ele>186.8</ele>
        <time>2024-09-19T10:19:57Z</time>
      </trkpt>
      <trkpt lat="46.27737" lon="4.83497">
        <ele>186.8</ele>
        <time>2024-09-19T10:19:58Z</time>
      </trkpt>
      <trkpt lat="46.2773" lon="4.83493">
        <ele>186.8</ele>
        <time>2024-09-19T10:19:59Z</time>
      </trkpt>
      <trkpt lat="46.27728" lon="4.83492">
        <ele>187</ele>
        <time>2024-09-19T10:20:00Z</time>
      </trkpt>
      <trkpt lat="46.27721" lon="4.83488">
        <ele>187</ele>
        <time>2024-09-19T10:20:01Z</time>
      </trkpt>
      <trkpt lat="46.27719" lon="4.83487">
        <ele>187</ele>
        <time>2024-09-19T10:20:02Z</time>
      </trkpt>
      <trkpt lat="46.27712" lon="4.83484">
        <ele>187</ele>
        <time>2024-09-19T10:20:03Z</time>
      </trkpt>
      <trkpt lat="46.2771" lon="4.83483">
        <ele>187</ele>
        <time>2024-09-19T10:20:04Z</time>
      </trkpt>
      <trkpt lat="46.27703" lon="4.83479">
        <ele>187</ele>
        <time>2024-09-19T10:20:05Z</time>
      </trkpt>
      <trkpt lat="46.27701" lon="4.83478">
        <ele>186.8</ele>
        <time>2024-09-19T10:20:06Z</time>
      </trkpt>
      <trkpt lat="46.27696" lon="4.83471">
        <ele>186.8</ele>
        <time>2024-09-19T10:20:07Z</time>
      </trkpt>
      <trkpt lat="46.27695" lon="4.83469">
        <ele>186.8</ele>
        <time>2024-09-19T10:20:08Z</time>
      </trkpt>
      <trkpt lat="46.27695" lon="4.8346">
        <ele>187</ele>
        <time>2024-09-19T10:20:09Z</time>
      </trkpt>
      <trkpt lat="46.27696" lon="4.83457">
        <ele>187</ele>
        <time>2024-09-19T10:20:10Z</time>
      </trkpt>
      <trkpt lat="46.27698" lon="4.83448">
        <ele>187.2</ele>
        <time>2024-09-19T10:20:11Z</time>
      </trkpt>
      <trkpt lat="46.27699" lon="4.83445">
        <ele>187.2</ele>
        <time>2024-09-19T10:20:12Z</time>
      </trkpt>
      <trkpt lat="46.27701" lon="4.83439">
        <ele>187.2</ele>
        <time>2024-09-19T10:20:13Z</time>
      </trkpt>
      <trkpt lat="46.27703" lon="4.8343">
        <ele>187.2</ele>
        <time>2024-09-19T10:20:14Z</time>
      </trkpt>
      <trkpt lat="46.27704" lon="4.83427">
        <ele>187.2</ele>
        <time>2024-09-19T10:20:15Z</time>
      </trkpt>
      <trkpt lat="46.27706" lon="4.8342">
        <ele>187.2</ele>
        <time>2024-09-19T10:20:16Z</time>
      </trkpt>
      <trkpt lat="46.27707" lon="4.83414">
        <ele>187.2</ele>
        <time>2024-09-19T10:20:17Z</time>
      </trkpt>
      <trkpt lat="46.2771" lon="4.83405">
        <ele>187.2</ele>
        <time>2024-09-19T10:20:18Z</time>
      </trkpt>
      <trkpt lat="46.27711" lon="4.83402">
        <ele>187</ele>
        <time>2024-09-19T10:20:19Z</time>
      </trkpt>
      <trkpt lat="46.27713" lon="4.83393">
        <ele>187</ele>
        <time>2024-09-19T10:20:20Z</time>
      </trkpt>
      <trkpt lat="46.27714" lon="4.8339">
        <ele>187</ele>
        <time>2024-09-19T10:20:21Z</time>
      </trkpt>
      <trkpt lat="46.27716" lon="4.83383">
        <ele>187</ele>
        <time>2024-09-19T10:20:22Z</time>
      </trkpt>
      <trkpt lat="46.27718" lon="4.83377">
        <ele>186.6</ele>
        <time>2024-09-19T10:20:23Z</time>
      </trkpt>
      <trkpt lat="46.2772" lon="4.83371">
        <ele>186.6</ele>
        <time>2024-09-19T10:20:24Z</time>
      </trkpt>
      <trkpt lat="46.27722" lon="4.83365">
        <ele>186.6</ele>
        <time>2024-09-19T10:20:25Z</time>
      </trkpt>
      <trkpt lat="46.27726" lon="4.83355">
        <ele>186.6</ele>
        <time>2024-09-19T10:20:26Z</time>
      </trkpt>
      <trkpt lat="46.27727" lon="4.83352">
        <ele>186.6</ele>
        <time>2024-09-19T10:20:27Z</time>
      </trkpt>
      <trkpt lat="46.27729" lon="4.83346">
        <ele>186.8</ele>
        <time>2024-09-19T10:20:28Z</time>
      </trkpt>
      <trkpt lat="46.27733" lon="4.83337">
        <ele>186.8</ele>
        <time>2024-09-19T10:20:29Z</time>
      </trkpt>
      <trkpt lat="46.27734" lon="4.83335">
        <ele>186.8</ele>
        <time>2024-09-19T10:20:30Z</time>
      </trkpt>
      <trkpt lat="46.27737" lon="4.83329">
        <ele>186.8</ele>
        <time>2024-09-19T10:20:31Z</time>
      </trkpt>
      <trkpt lat="46.27739" lon="4.83323">
        <ele>187.2</ele>
        <time>2024-09-19T10:20:32Z</time>
      </trkpt>
      <trkpt lat="46.27742" lon="4.83317">
        <ele>187.2</ele>
        <time>2024-09-19T10:20:33Z</time>
      </trkpt>
      <trkpt lat="46.27745" lon="4.83308">
        <ele>187.2</ele>
        <time>2024-09-19T10:20:34Z</time>
      </trkpt>
      <trkpt lat="46.27746" lon="4.83305">
        <ele>186.8</ele>
        <time>2024-09-19T10:20:35Z</time>
      </trkpt>
      <trkpt lat="46.27749" lon="4.83299">
        <ele>186.4</ele>
        <time>2024-09-19T10:20:36Z</time>
      </trkpt>
      <trkpt lat="46.27751" lon="4.83293">
        <ele>186.4</ele>
        <time>2024-09-19T10:20:37Z</time>
      </trkpt>
      <trkpt lat="46.27754" lon="4.83287">
        <ele>186.4</ele>
        <time>2024-09-19T10:20:38Z</time>
      </trkpt>
      <trkpt lat="46.27756" lon="4.83282">
        <ele>186.4</ele>
        <time>2024-09-19T10:20:39Z</time>
      </trkpt>
      <trkpt lat="46.27759" lon="4.83276">
        <ele>186.8</ele>
        <time>2024-09-19T10:20:40Z</time>
      </trkpt>
      <trkpt lat="46.27761" lon="4.8327">
        <ele>186.6</ele>
        <time>2024-09-19T10:20:41Z</time>
      </trkpt>
      <trkpt lat="46.27763" lon="4.83265">
        <ele>186.6</ele>
        <time>2024-09-19T10:20:42Z</time>
      </trkpt>
      <trkpt lat="46.27766" lon="4.83259">
        <ele>186.6</ele>
        <time>2024-09-19T10:20:43Z</time>
      </trkpt>
      <trkpt lat="46.27769" lon="4.83254">
        <ele>187.2</ele>
        <time>2024-09-19T10:20:44Z</time>
      </trkpt>
      <trkpt lat="46.27771" lon="4.83248">
        <ele>186.6</ele>
        <time>2024-09-19T10:20:45Z</time>
      </trkpt>
      <trkpt lat="46.27774" lon="4.8324">
        <ele>186.6</ele>
        <time>2024-09-19T10:20:46Z</time>
      </trkpt>
      <trkpt lat="46.27776" lon="4.83237">
        <ele>186.6</ele>
        <time>2024-09-19T10:20:47Z</time>
      </trkpt>
      <trkpt lat="46.27779" lon="4.83229">
        <ele>186.6</ele>
        <time>2024-09-19T10:20:48Z</time>
      </trkpt>
      <trkpt lat="46.2778" lon="4.83226">
        <ele>186.6</ele>
        <time>2024-09-19T10:20:49Z</time>
      </trkpt>
      <trkpt lat="46.27784" lon="4.83218">
        <ele>187</ele>
        <time>2024-09-19T10:20:50Z</time>
      </trkpt>
      <trkpt lat="46.27785" lon="4.83216">
        <ele>187</ele>
        <time>2024-09-19T10:20:51Z</time>
      </trkpt>
      <trkpt lat="46.27788" lon="4.83208">
        <ele>187</ele>
        <time>2024-09-19T10:20:52Z</time>
      </trkpt>
      <trkpt lat="46.2779" lon="4.83205">
        <ele>187</ele>
        <time>2024-09-19T10:20:53Z</time>
      </trkpt>
      <trkpt lat="46.27793" lon="4.83197">
        <ele>187</ele>
        <time>2024-09-19T10:20:54Z</time>
      </trkpt>
      <trkpt lat="46.27794" lon="4.83195">
        <ele>187.2</ele>
        <time>2024-09-19T10:20:55Z</time>
      </trkpt>
      <trkpt lat="46.27796" lon="4.8319">
        <ele>187.2</ele>
        <time>2024-09-19T10:20:56Z</time>
      </trkpt>
      <trkpt lat="46.278" lon="4.83182">
        <ele>187.2</ele>
        <time>2024-09-19T10:20:57Z</time>
      </trkpt>
      <trkpt lat="46.27801" lon="4.8318">
        <ele>187.2</ele>
        <time>2024-09-19T10:20:58Z</time>
      </trkpt>
      <trkpt lat="46.27804" lon="4.83174">
        <ele>186.8</ele>
        <time>2024-09-19T10:20:59Z</time>
      </trkpt>
      <trkpt lat="46.27806" lon="4.83169">
        <ele>186.8</ele>
        <time>2024-09-19T10:21:00Z</time>
      </trkpt>
      <trkpt lat="46.27809" lon="4.8316">
        <ele>186.8</ele>
        <time>2024-09-19T10:21:01Z</time>
      </trkpt>
      <trkpt lat="46.27811" lon="4.83158">
        <ele>186.8</ele>
        <time>2024-09-19T10:21:02Z</time>
      </trkpt>
      <trkpt lat="46.27814" lon="4.83149">
        <ele>186.8</ele>
        <time>2024-09-19T10:21:03Z</time>
      </trkpt>
      <trkpt lat="46.27815" lon="4.83146">
        <ele>187.2</ele>
        <time>2024-09-19T10:21:04Z</time>
      </trkpt>
      <trkpt lat="46.27818" lon="4.83137">
        <ele>187.2</ele>
        <time>2024-09-19T10:21:05Z</time>
      </trkpt>
      <trkpt lat="46.27819" lon="4.83134">
        <ele>187.2</ele>
        <time>2024-09-19T10:21:06Z</time>
      </trkpt>
      <trkpt lat="46.27821" lon="4.83124">
        <ele>187.2</ele>
        <time>2024-09-19T10:21:07Z</time>
      </trkpt>
      <trkpt lat="46.27822" lon="4.83121">
        <ele>187.2</ele>
        <time>2024-09-19T10:21:08Z</time>
      </trkpt>
      <trkpt lat="46.27824" lon="4.83115">
        <ele>187</ele>
        <time>2024-09-19T10:21:09Z</time>
      </trkpt>
      <trkpt lat="46.27825" lon="4.83108">
        <ele>187</ele>
        <time>2024-09-19T10:21:10Z</time>
      </trkpt>
      <trkpt lat="46.27827" lon="4.83102">
        <ele>187</ele>
        <time>2024-09-19T10:21:11Z</time>
      </trkpt>
      <trkpt lat="46.27828" lon="4.83095">
        <ele>187</ele>
        <time>2024-09-19T10:21:12Z</time>
      </trkpt>
      <trkpt lat="46.2783" lon="4.83085">
        <ele>187</ele>
        <time>2024-09-19T10:21:13Z</time>
      </trkpt>
      <trkpt lat="46.2783" lon="4.83082">
        <ele>187</ele>
        <time>2024-09-19T10:21:14Z</time>
      </trkpt>
      <trkpt lat="46.27831" lon="4.83071">
        <ele>187</ele>
        <time>2024-09-19T10:21:15Z</time>
      </trkpt>
      <trkpt lat="46.27831" lon="4.83068">
        <ele>187.2</ele>
        <time>2024-09-19T10:21:16Z</time>
      </trkpt>
      <trkpt lat="46.27832" lon="4.83057">
        <ele>186.8</ele>
        <time>2024-09-19T10:21:17Z</time>
      </trkpt>
      <trkpt lat="46.27833" lon="4.83053">
        <ele>186.8</ele>
        <time>2024-09-19T10:21:18Z</time>
      </trkpt>
      <trkpt lat="46.27833" lon="4.83046">
        <ele>186.8</ele>
        <time>2024-09-19T10:21:19Z</time>
      </trkpt>
      <trkpt lat="46.27833" lon="4.83039">
        <ele>187</ele>
        <time>2024-09-19T10:21:20Z</time>
      </trkpt>
      <trkpt lat="46.27832" lon="4.83032">
        <ele>186.8</ele>
        <time>2024-09-19T10:21:21Z</time>
      </trkpt>
      <trkpt lat="46.27832" lon="4.83025">
        <ele>186.8</ele>
        <time>2024-09-19T10:21:22Z</time>
      </trkpt>
      <trkpt lat="46.27832" lon="4.83019">
        <ele>186.8</ele>
        <time>2024-09-19T10:21:23Z</time>
      </trkpt>
      <trkpt lat="46.27831" lon="4.83012">
        <ele>186.8</ele>
        <time>2024-09-19T10:21:24Z</time>
      </trkpt>
      <trkpt lat="46.27831" lon="4.83006">
        <ele>187</ele>
        <time>2024-09-19T10:21:25Z</time>
      </trkpt>
      <trkpt lat="46.2783" lon="4.82999">
        <ele>187</ele>
        <time>2024-09-19T10:21:26Z</time>
      </trkpt>
      <trkpt lat="46.27828" lon="4.82993">
        <ele>187</ele>
        <time>2024-09-19T10:21:27Z</time>
      </trkpt>
      <trkpt lat="46.27827" lon="4.82987">
        <ele>187</ele>
        <time>2024-09-19T10:21:28Z</time>
      </trkpt>
      <trkpt lat="46.27824" lon="4.82978">
        <ele>187</ele>
        <time>2024-09-19T10:21:29Z</time>
      </trkpt>
      <trkpt lat="46.27823" lon="4.82975">
        <ele>187</ele>
        <time>2024-09-19T10:21:30Z</time>
      </trkpt>
      <trkpt lat="46.27819" lon="4.82966">
        <ele>186.8</ele>
        <time>2024-09-19T10:21:31Z</time>
      </trkpt>
      <trkpt lat="46.27818" lon="4.82963">
        <ele>186.8</ele>
        <time>2024-09-19T10:21:32Z</time>
      </trkpt>
      <trkpt lat="46.27814" lon="4.82955">
        <ele>186.8</ele>
        <time>2024-09-19T10:21:33Z</time>
      </trkpt>
      <trkpt lat="46.27812" lon="4.82953">
        <ele>186.8</ele>
        <time>2024-09-19T10:21:34Z</time>
      </trkpt>
      <trkpt lat="46.27809" lon="4.82948">
        <ele>187</ele>
        <time>2024-09-19T10:21:35Z</time>
      </trkpt>
      <trkpt lat="46.27806" lon="4.82943">
        <ele>187</ele>
        <time>2024-09-19T10:21:36Z</time>
      </trkpt>
      <trkpt lat="46.27803" lon="4.82939">
        <ele>187</ele>
        <time>2024-09-19T10:21:37Z</time>
      </trkpt>
      <trkpt lat="46.278" lon="4.82934">
        <ele>187</ele>
        <time>2024-09-19T10:21:38Z</time>
      </trkpt>
      <trkpt lat="46.27797" lon="4.8293">
        <ele>187.4</ele>
        <time>2024-09-19T10:21:39Z</time>
      </trkpt>
      <trkpt lat="46.27794" lon="4.82926">
        <ele>187.4</ele>
        <time>2024-09-19T10:21:40Z</time>
      </trkpt>
      <trkpt lat="46.27792" lon="4.82922">
        <ele>187.4</ele>
        <time>2024-09-19T10:21:41Z</time>
      </trkpt>
      <trkpt lat="46.27789" lon="4.82918">
        <ele>187.4</ele>
        <time>2024-09-19T10:21:42Z</time>
      </trkpt>
      <trkpt lat="46.27786" lon="4.82912">
        <ele>187.4</ele>
        <time>2024-09-19T10:21:43Z</time>
      </trkpt>
      <trkpt lat="46.27785" lon="4.8291">
        <ele>187</ele>
        <time>2024-09-19T10:21:44Z</time>
      </trkpt>
      <trkpt lat="46.27784" lon="4.82903">
        <ele>187</ele>
        <time>2024-09-19T10:21:45Z</time>
      </trkpt>
      <trkpt lat="46.27785" lon="4.82902">
        <ele>187</ele>
        <time>2024-09-19T10:21:46Z</time>
      </trkpt>
      <trkpt lat="46.27785" lon="4.829">
        <ele>187</ele>
        <time>2024-09-19T10:21:47Z</time>
      </trkpt>
      <trkpt lat="46.27785" lon="4.82899">
        <ele>187.2</ele>
        <time>2024-09-19T10:21:48Z</time>
      </trkpt>
      <trkpt lat="46.27785" lon="4.82899">
        <ele>187.2</ele>
        <time>2024-09-19T10:21:49Z</time>
      </trkpt>
      <trkpt lat="46.27786" lon="4.82893">
        <ele>187.2</ele>
        <time>2024-09-19T10:22:08Z</time>
      </trkpt>
      <trkpt lat="46.27785" lon="4.8289">
        <ele>187.2</ele>
        <time>2024-09-19T10:22:09Z</time>
      </trkpt>
      <trkpt lat="46.27784" lon="4.82888">
        <ele>187.4</ele>
        <time>2024-09-19T10:22:10Z</time>
      </trkpt>
      <trkpt lat="46.27782" lon="4.82886">
        <ele>187.4</ele>
        <time>2024-09-19T10:22:11Z</time>
      </trkpt>
      <trkpt lat="46.2778" lon="4.82884">
        <ele>187.4</ele>
        <time>2024-09-19T10:22:12Z</time>
      </trkpt>
      <trkpt lat="46.27777" lon="4.82883">
        <ele>187.4</ele>
        <time>2024-09-19T10:22:13Z</time>
      </trkpt>
      <trkpt lat="46.27775" lon="4.82883">
        <ele>187.4</ele>
        <time>2024-09-19T10:22:14Z</time>
      </trkpt>
      <trkpt lat="46.27771" lon="4.82882">
        <ele>187.4</ele>
        <time>2024-09-19T10:22:15Z</time>
      </trkpt>
      <trkpt lat="46.27768" lon="4.82882">
        <ele>187.4</ele>
        <time>2024-09-19T10:22:16Z</time>
      </trkpt>
      <trkpt lat="46.27765" lon="4.82882">
        <ele>188</ele>
        <time>2024-09-19T10:22:17Z</time>
      </trkpt>
      <trkpt lat="46.27761" lon="4.82883">
        <ele>188</ele>
        <time>2024-09-19T10:22:18Z</time>
      </trkpt>
      <trkpt lat="46.27758" lon="4.82884">
        <ele>188</ele>
        <time>2024-09-19T10:22:19Z</time>
      </trkpt>
      <trkpt lat="46.27755" lon="4.82885">
        <ele>188</ele>
        <time>2024-09-19T10:22:20Z</time>
      </trkpt>
      <trkpt lat="46.27752" lon="4.82888">
        <ele>188</ele>
        <time>2024-09-19T10:22:21Z</time>
      </trkpt>
      <trkpt lat="46.27749" lon="4.82891">
        <ele>187.8</ele>
        <time>2024-09-19T10:22:22Z</time>
      </trkpt>
      <trkpt lat="46.27746" lon="4.82893">
        <ele>188</ele>
        <time>2024-09-19T10:22:23Z</time>
      </trkpt>
      <trkpt lat="46.27742" lon="4.82896">
        <ele>188</ele>
        <time>2024-09-19T10:22:24Z</time>
      </trkpt>
      <trkpt lat="46.27741" lon="4.82897">
        <ele>188</ele>
        <time>2024-09-19T10:22:25Z</time>
      </trkpt>
      <trkpt lat="46.27738" lon="4.829">
        <ele>188.4</ele>
        <time>2024-09-19T10:22:26Z</time>
      </trkpt>
      <trkpt lat="46.27733" lon="4.82901">
        <ele>188.4</ele>
        <time>2024-09-19T10:22:27Z</time>
      </trkpt>
      <trkpt lat="46.27732" lon="4.82901">
        <ele>187.8</ele>
        <time>2024-09-19T10:22:28Z</time>
      </trkpt>
      <trkpt lat="46.27728" lon="4.82897">
        <ele>187.8</ele>
        <time>2024-09-19T10:22:29Z</time>
      </trkpt>
      <trkpt lat="46.27727" lon="4.82895">
        <ele>187.8</ele>
        <time>2024-09-19T10:22:30Z</time>
      </trkpt>
      <trkpt lat="46.27722" lon="4.82892">
        <ele>187.8</ele>
        <time>2024-09-19T10:22:31Z</time>
      </trkpt>
      <trkpt lat="46.2772" lon="4.8289">
        <ele>187.6</ele>
        <time>2024-09-19T10:22:32Z</time>
      </trkpt>
      <trkpt lat="46.27716" lon="4.82888">
        <ele>187.6</ele>
        <time>2024-09-19T10:22:33Z</time>
      </trkpt>
      <trkpt lat="46.27712" lon="4.82887">
        <ele>187.6</ele>
        <time>2024-09-19T10:22:34Z</time>
      </trkpt>
      <trkpt lat="46.27709" lon="4.82886">
        <ele>187.6</ele>
        <time>2024-09-19T10:22:35Z</time>
      </trkpt>
      <trkpt lat="46.27702" lon="4.82886">
        <ele>187.6</ele>
        <time>2024-09-19T10:22:36Z</time>
      </trkpt>
      <trkpt lat="46.277" lon="4.82886">
        <ele>187.8</ele>
        <time>2024-09-19T10:22:37Z</time>
      </trkpt>
      <trkpt lat="46.27696" lon="4.82884">
        <ele>187.8</ele>
        <time>2024-09-19T10:22:38Z</time>
      </trkpt>
      <trkpt lat="46.27693" lon="4.82883">
        <ele>187.8</ele>
        <time>2024-09-19T10:22:39Z</time>
      </trkpt>
      <trkpt lat="46.27687" lon="4.82882">
        <ele>187.8</ele>
        <time>2024-09-19T10:22:40Z</time>
      </trkpt>
      <trkpt lat="46.27685" lon="4.82882">
        <ele>187.8</ele>
        <time>2024-09-19T10:22:41Z</time>
      </trkpt>
      <trkpt lat="46.27679" lon="4.8288">
        <ele>187.8</ele>
        <time>2024-09-19T10:22:42Z</time>
      </trkpt>
      <trkpt lat="46.27678" lon="4.82879">
        <ele>187.8</ele>
        <time>2024-09-19T10:22:43Z</time>
      </trkpt>
      <trkpt lat="46.27672" lon="4.82877">
        <ele>187.8</ele>
        <time>2024-09-19T10:22:44Z</time>
      </trkpt>
      <trkpt lat="46.2767" lon="4.82876">
        <ele>187.8</ele>
        <time>2024-09-19T10:22:45Z</time>
      </trkpt>
      <trkpt lat="46.27664" lon="4.82873">
        <ele>187.8</ele>
        <time>2024-09-19T10:22:46Z</time>
      </trkpt>
      <trkpt lat="46.27662" lon="4.82872">
        <ele>188</ele>
        <time>2024-09-19T10:22:47Z</time>
      </trkpt>
      <trkpt lat="46.27656" lon="4.82869">
        <ele>188</ele>
        <time>2024-09-19T10:22:48Z</time>
      </trkpt>
      <trkpt lat="46.27653" lon="4.82868">
        <ele>188</ele>
        <time>2024-09-19T10:22:49Z</time>
      </trkpt>
      <trkpt lat="46.27649" lon="4.82866">
        <ele>187.8</ele>
        <time>2024-09-19T10:22:50Z</time>
      </trkpt>
      <trkpt lat="46.27644" lon="4.82864">
        <ele>187.8</ele>
        <time>2024-09-19T10:22:51Z</time>
      </trkpt>
      <trkpt lat="46.2764" lon="4.82863">
        <ele>187.8</ele>
        <time>2024-09-19T10:22:52Z</time>
      </trkpt>
      <trkpt lat="46.27636" lon="4.82861">
        <ele>188</ele>
        <time>2024-09-19T10:22:53Z</time>
      </trkpt>
      <trkpt lat="46.2763" lon="4.82859">
        <ele>188</ele>
        <time>2024-09-19T10:22:54Z</time>
      </trkpt>
      <trkpt lat="46.27628" lon="4.82858">
        <ele>188</ele>
        <time>2024-09-19T10:22:55Z</time>
      </trkpt>
      <trkpt lat="46.27621" lon="4.82855">
        <ele>188</ele>
        <time>2024-09-19T10:22:56Z</time>
      </trkpt>
      <trkpt lat="46.27619" lon="4.82854">
        <ele>188</ele>
        <time>2024-09-19T10:22:57Z</time>
      </trkpt>
      <trkpt lat="46.27615" lon="4.82852">
        <ele>188</ele>
        <time>2024-09-19T10:22:58Z</time>
      </trkpt>
      <trkpt lat="46.27608" lon="4.82849">
        <ele>187.8</ele>
        <time>2024-09-19T10:22:59Z</time>
      </trkpt>
      <trkpt lat="46.27606" lon="4.82848">
        <ele>187.8</ele>
        <time>2024-09-19T10:23:00Z</time>
      </trkpt>
      <trkpt lat="46.27602" lon="4.82846">
        <ele>187.8</ele>
        <time>2024-09-19T10:23:01Z</time>
      </trkpt>
      <trkpt lat="46.27598" lon="4.82843">
        <ele>187.8</ele>
        <time>2024-09-19T10:23:02Z</time>
      </trkpt>
      <trkpt lat="46.27593" lon="4.82841">
        <ele>187.8</ele>
        <time>2024-09-19T10:23:03Z</time>
      </trkpt>
      <trkpt lat="46.27589" lon="4.82839">
        <ele>187.8</ele>
        <time>2024-09-19T10:23:04Z</time>
      </trkpt>
      <trkpt lat="46.27584" lon="4.82836">
        <ele>187.8</ele>
        <time>2024-09-19T10:23:05Z</time>
      </trkpt>
      <trkpt lat="46.2758" lon="4.82833">
        <ele>187.8</ele>
        <time>2024-09-19T10:23:06Z</time>
      </trkpt>
      <trkpt lat="46.27576" lon="4.82831">
        <ele>188</ele>
        <time>2024-09-19T10:23:07Z</time>
      </trkpt>
      <trkpt lat="46.2757" lon="4.82828">
        <ele>187.6</ele>
        <time>2024-09-19T10:23:08Z</time>
      </trkpt>
      <trkpt lat="46.27568" lon="4.82826">
        <ele>187.6</ele>
        <time>2024-09-19T10:23:09Z</time>
      </trkpt>
      <trkpt lat="46.27564" lon="4.82824">
        <ele>187.6</ele>
        <time>2024-09-19T10:23:10Z</time>
      </trkpt>
      <trkpt lat="46.2756" lon="4.82821">
        <ele>187.6</ele>
        <time>2024-09-19T10:23:11Z</time>
      </trkpt>
      <trkpt lat="46.27555" lon="4.82819">
        <ele>187.6</ele>
        <time>2024-09-19T10:23:12Z</time>
      </trkpt>
      <trkpt lat="46.27549" lon="4.82814">
        <ele>187.8</ele>
        <time>2024-09-19T10:23:13Z</time>
      </trkpt>
      <trkpt lat="46.27547" lon="4.82813">
        <ele>187.8</ele>
        <time>2024-09-19T10:23:14Z</time>
      </trkpt>
      <trkpt lat="46.2754" lon="4.82808">
        <ele>187.8</ele>
        <time>2024-09-19T10:23:15Z</time>
      </trkpt>
      <trkpt lat="46.27538" lon="4.82807">
        <ele>187.8</ele>
        <time>2024-09-19T10:23:16Z</time>
      </trkpt>
      <trkpt lat="46.27532" lon="4.82802">
        <ele>187.8</ele>
        <time>2024-09-19T10:23:17Z</time>
      </trkpt>
      <trkpt lat="46.2753" lon="4.828">
        <ele>187.6</ele>
        <time>2024-09-19T10:23:18Z</time>
      </trkpt>
      <trkpt lat="46.27526" lon="4.82797">
        <ele>187.6</ele>
        <time>2024-09-19T10:23:19Z</time>
      </trkpt>
      <trkpt lat="46.27522" lon="4.82793">
        <ele>187.6</ele>
        <time>2024-09-19T10:23:20Z</time>
      </trkpt>
      <trkpt lat="46.27517" lon="4.8279">
        <ele>187.6</ele>
        <time>2024-09-19T10:23:21Z</time>
      </trkpt>
      <trkpt lat="46.27513" lon="4.82787">
        <ele>187.6</ele>
        <time>2024-09-19T10:23:22Z</time>
      </trkpt>
      <trkpt lat="46.27509" lon="4.82784">
        <ele>187.6</ele>
        <time>2024-09-19T10:23:23Z</time>
      </trkpt>
      <trkpt lat="46.27504" lon="4.8278">
        <ele>187.6</ele>
        <time>2024-09-19T10:23:24Z</time>
      </trkpt>
      <trkpt lat="46.275" lon="4.82777">
        <ele>187.6</ele>
        <time>2024-09-19T10:23:25Z</time>
      </trkpt>
      <trkpt lat="46.27493" lon="4.82772">
        <ele>187.6</ele>
        <time>2024-09-19T10:23:26Z</time>
      </trkpt>
      <trkpt lat="46.27491" lon="4.8277">
        <ele>187.6</ele>
        <time>2024-09-19T10:23:27Z</time>
      </trkpt>
      <trkpt lat="46.27485" lon="4.82764">
        <ele>187.6</ele>
        <time>2024-09-19T10:23:28Z</time>
      </trkpt>
      <trkpt lat="46.27483" lon="4.82762">
        <ele>187.6</ele>
        <time>2024-09-19T10:23:29Z</time>
      </trkpt>
      <trkpt lat="46.27478" lon="4.82758">
        <ele>187.6</ele>
        <time>2024-09-19T10:23:30Z</time>
      </trkpt>
      <trkpt lat="46.27474" lon="4.82754">
        <ele>187.2</ele>
        <time>2024-09-19T10:23:31Z</time>
      </trkpt>
      <trkpt lat="46.27468" lon="4.82748">
        <ele>187.2</ele>
        <time>2024-09-19T10:23:32Z</time>
      </trkpt>
      <trkpt lat="46.27466" lon="4.82745">
        <ele>187.2</ele>
        <time>2024-09-19T10:23:33Z</time>
      </trkpt>
      <trkpt lat="46.27462" lon="4.82741">
        <ele>187.2</ele>
        <time>2024-09-19T10:23:34Z</time>
      </trkpt>
      <trkpt lat="46.27458" lon="4.82737">
        <ele>187.6</ele>
        <time>2024-09-19T10:23:35Z</time>
      </trkpt>
      <trkpt lat="46.27454" lon="4.82733">
        <ele>187.6</ele>
        <time>2024-09-19T10:23:36Z</time>
      </trkpt>
      <trkpt lat="46.27448" lon="4.82727">
        <ele>187.6</ele>
        <time>2024-09-19T10:23:37Z</time>
      </trkpt>
      <trkpt lat="46.27446" lon="4.82725">
        <ele>187.2</ele>
        <time>2024-09-19T10:23:38Z</time>
      </trkpt>
      <trkpt lat="46.27439" lon="4.8272">
        <ele>187.2</ele>
        <time>2024-09-19T10:23:39Z</time>
      </trkpt>
      <trkpt lat="46.27437" lon="4.82718">
        <ele>187.4</ele>
        <time>2024-09-19T10:23:40Z</time>
      </trkpt>
      <trkpt lat="46.2743" lon="4.82714">
        <ele>187.4</ele>
        <time>2024-09-19T10:23:41Z</time>
      </trkpt>
      <trkpt lat="46.27428" lon="4.82712">
        <ele>187.4</ele>
        <time>2024-09-19T10:23:42Z</time>
      </trkpt>
      <trkpt lat="46.27424" lon="4.8271">
        <ele>187.2</ele>
        <time>2024-09-19T10:23:43Z</time>
      </trkpt>
      <trkpt lat="46.27419" lon="4.82707">
        <ele>187.4</ele>
        <time>2024-09-19T10:23:44Z</time>
      </trkpt>
      <trkpt lat="46.27415" lon="4.82704">
        <ele>187.4</ele>
        <time>2024-09-19T10:23:45Z</time>
      </trkpt>
      <trkpt lat="46.2741" lon="4.82701">
        <ele>187.4</ele>
        <time>2024-09-19T10:23:46Z</time>
      </trkpt>
      <trkpt lat="46.27405" lon="4.82699">
        <ele>187.4</ele>
        <time>2024-09-19T10:23:47Z</time>
      </trkpt>
      <trkpt lat="46.27401" lon="4.82696">
        <ele>187.8</ele>
        <time>2024-09-19T10:23:48Z</time>
      </trkpt>
      <trkpt lat="46.27396" lon="4.82693">
        <ele>187.8</ele>
        <time>2024-09-19T10:23:49Z</time>
      </trkpt>
      <trkpt lat="46.27389" lon="4.8269">
        <ele>187.8</ele>
        <time>2024-09-19T10:23:50Z</time>
      </trkpt>
      <trkpt lat="46.27387" lon="4.82689">
        <ele>187.8</ele>
        <time>2024-09-19T10:23:51Z</time>
      </trkpt>
      <trkpt lat="46.27379" lon="4.82685">
        <ele>187.6</ele>
        <time>2024-09-19T10:23:52Z</time>
      </trkpt>
      <trkpt lat="46.27377" lon="4.82684">
        <ele>187.6</ele>
        <time>2024-09-19T10:23:53Z</time>
      </trkpt>
      <trkpt lat="46.2737" lon="4.82682">
        <ele>187.8</ele>
        <time>2024-09-19T10:23:54Z</time>
      </trkpt>
      <trkpt lat="46.27367" lon="4.82681">
        <ele>187.8</ele>
        <time>2024-09-19T10:23:55Z</time>
      </trkpt>
      <trkpt lat="46.2736" lon="4.8268">
        <ele>187.8</ele>
        <time>2024-09-19T10:23:56Z</time>
      </trkpt>
      <trkpt lat="46.27357" lon="4.82679">
        <ele>187.8</ele>
        <time>2024-09-19T10:23:57Z</time>
      </trkpt>
      <trkpt lat="46.27349" lon="4.82677">
        <ele>187.4</ele>
        <time>2024-09-19T10:23:58Z</time>
      </trkpt>
      <trkpt lat="46.27346" lon="4.82676">
        <ele>187.4</ele>
        <time>2024-09-19T10:23:59Z</time>
      </trkpt>
      <trkpt lat="46.27341" lon="4.82675">
        <ele>187.4</ele>
        <time>2024-09-19T10:24:00Z</time>
      </trkpt>
      <trkpt lat="46.27336" lon="4.82673">
        <ele>187.4</ele>
        <time>2024-09-19T10:24:01Z</time>
      </trkpt>
      <trkpt lat="46.27331" lon="4.82672">
        <ele>187.6</ele>
        <time>2024-09-19T10:24:02Z</time>
      </trkpt>
      <trkpt lat="46.27326" lon="4.8267">
        <ele>187.6</ele>
        <time>2024-09-19T10:24:03Z</time>
      </trkpt>
      <trkpt lat="46.27321" lon="4.82668">
        <ele>187.6</ele>
        <time>2024-09-19T10:24:04Z</time>
      </trkpt>
      <trkpt lat="46.27317" lon="4.82666">
        <ele>187.6</ele>
        <time>2024-09-19T10:24:05Z</time>
      </trkpt>
      <trkpt lat="46.27312" lon="4.82663">
        <ele>187.6</ele>
        <time>2024-09-19T10:24:06Z</time>
      </trkpt>
      <trkpt lat="46.27308" lon="4.8266">
        <ele>187.6</ele>
        <time>2024-09-19T10:24:07Z</time>
      </trkpt>
      <trkpt lat="46.27301" lon="4.82655">
        <ele>187.6</ele>
        <time>2024-09-19T10:24:08Z</time>
      </trkpt>
      <trkpt lat="46.27298" lon="4.82653">
        <ele>187.6</ele>
        <time>2024-09-19T10:24:09Z</time>
      </trkpt>
      <trkpt lat="46.27294" lon="4.8265">
        <ele>187.6</ele>
        <time>2024-09-19T10:24:10Z</time>
      </trkpt>
      <trkpt lat="46.27289" lon="4.82646">
        <ele>188</ele>
        <time>2024-09-19T10:24:11Z</time>
      </trkpt>
      <trkpt lat="46.27285" lon="4.82643">
        <ele>188</ele>
        <time>2024-09-19T10:24:12Z</time>
      </trkpt>
      <trkpt lat="46.27281" lon="4.8264">
        <ele>188</ele>
        <time>2024-09-19T10:24:13Z</time>
      </trkpt>
      <trkpt lat="46.27274" lon="4.82635">
        <ele>188</ele>
        <time>2024-09-19T10:24:14Z</time>
      </trkpt>
      <trkpt lat="46.27272" lon="4.82633">
        <ele>187.6</ele>
        <time>2024-09-19T10:24:15Z</time>
      </trkpt>
      <trkpt lat="46.27265" lon="4.82628">
        <ele>187.6</ele>
        <time>2024-09-19T10:24:16Z</time>
      </trkpt>
      <trkpt lat="46.27263" lon="4.82626">
        <ele>187.6</ele>
        <time>2024-09-19T10:24:17Z</time>
      </trkpt>
      <trkpt lat="46.27259" lon="4.82623">
        <ele>187.6</ele>
        <time>2024-09-19T10:24:18Z</time>
      </trkpt>
      <trkpt lat="46.27253" lon="4.82619">
        <ele>187.6</ele>
        <time>2024-09-19T10:24:19Z</time>
      </trkpt>
      <trkpt lat="46.2725" lon="4.82617">
        <ele>187.6</ele>
        <time>2024-09-19T10:24:20Z</time>
      </trkpt>
      <trkpt lat="46.27244" lon="4.82612">
        <ele>187.6</ele>
        <time>2024-09-19T10:24:21Z</time>
      </trkpt>
      <trkpt lat="46.27242" lon="4.8261">
        <ele>187.6</ele>
        <time>2024-09-19T10:24:22Z</time>
      </trkpt>
      <trkpt lat="46.27235" lon="4.82605">
        <ele>187.8</ele>
        <time>2024-09-19T10:24:23Z</time>
      </trkpt>
      <trkpt lat="46.27233" lon="4.82603">
        <ele>187.8</ele>
        <time>2024-09-19T10:24:24Z</time>
      </trkpt>
      <trkpt lat="46.27229" lon="4.82599">
        <ele>187.8</ele>
        <time>2024-09-19T10:24:25Z</time>
      </trkpt>
      <trkpt lat="46.27222" lon="4.82594">
        <ele>187.8</ele>
        <time>2024-09-19T10:24:26Z</time>
      </trkpt>
      <trkpt lat="46.2722" lon="4.82593">
        <ele>187.8</ele>
        <time>2024-09-19T10:24:27Z</time>
      </trkpt>
      <trkpt lat="46.27214" lon="4.82587">
        <ele>187.8</ele>
        <time>2024-09-19T10:24:28Z</time>
      </trkpt>
      <trkpt lat="46.27212" lon="4.82585">
        <ele>187.6</ele>
        <time>2024-09-19T10:24:29Z</time>
      </trkpt>
      <trkpt lat="46.27205" lon="4.8258">
        <ele>187.6</ele>
        <time>2024-09-19T10:24:30Z</time>
      </trkpt>
      <trkpt lat="46.27203" lon="4.82578">
        <ele>187.6</ele>
        <time>2024-09-19T10:24:31Z</time>
      </trkpt>
      <trkpt lat="46.27199" lon="4.82574">
        <ele>187.6</ele>
        <time>2024-09-19T10:24:32Z</time>
      </trkpt>
      <trkpt lat="46.27195" lon="4.8257">
        <ele>188</ele>
        <time>2024-09-19T10:24:33Z</time>
      </trkpt>
      <trkpt lat="46.27191" lon="4.82567">
        <ele>188</ele>
        <time>2024-09-19T10:24:34Z</time>
      </trkpt>
      <trkpt lat="46.27186" lon="4.82563">
        <ele>188</ele>
        <time>2024-09-19T10:24:35Z</time>
      </trkpt>
      <trkpt lat="46.2718" lon="4.82557">
        <ele>188</ele>
        <time>2024-09-19T10:24:36Z</time>
      </trkpt>
      <trkpt lat="46.27178" lon="4.82555">
        <ele>187.8</ele>
        <time>2024-09-19T10:24:37Z</time>
      </trkpt>
      <trkpt lat="46.27172" lon="4.82549">
        <ele>188</ele>
        <time>2024-09-19T10:24:38Z</time>
      </trkpt>
      <trkpt lat="46.2717" lon="4.82547">
        <ele>188</ele>
        <time>2024-09-19T10:24:39Z</time>
      </trkpt>
      <trkpt lat="46.27165" lon="4.82542">
        <ele>188</ele>
        <time>2024-09-19T10:24:40Z</time>
      </trkpt>
      <trkpt lat="46.27163" lon="4.8254">
        <ele>188</ele>
        <time>2024-09-19T10:24:41Z</time>
      </trkpt>
      <trkpt lat="46.27157" lon="4.82534">
        <ele>188</ele>
        <time>2024-09-19T10:24:42Z</time>
      </trkpt>
      <trkpt lat="46.27155" lon="4.82532">
        <ele>188</ele>
        <time>2024-09-19T10:24:43Z</time>
      </trkpt>
      <trkpt lat="46.27149" lon="4.82526">
        <ele>188</ele>
        <time>2024-09-19T10:24:44Z</time>
      </trkpt>
      <trkpt lat="46.27147" lon="4.82524">
        <ele>188</ele>
        <time>2024-09-19T10:24:45Z</time>
      </trkpt>
      <trkpt lat="46.27141" lon="4.82517">
        <ele>188.2</ele>
        <time>2024-09-19T10:24:46Z</time>
      </trkpt>
      <trkpt lat="46.27139" lon="4.82515">
        <ele>187.8</ele>
        <time>2024-09-19T10:24:47Z</time>
      </trkpt>
      <trkpt lat="46.27133" lon="4.82509">
        <ele>187.8</ele>
        <time>2024-09-19T10:24:48Z</time>
      </trkpt>
      <trkpt lat="46.2713" lon="4.82507">
        <ele>187.8</ele>
        <time>2024-09-19T10:24:49Z</time>
      </trkpt>
      <trkpt lat="46.27126" lon="4.82502">
        <ele>188.2</ele>
        <time>2024-09-19T10:24:50Z</time>
      </trkpt>
      <trkpt lat="46.27122" lon="4.82498">
        <ele>188.2</ele>
        <time>2024-09-19T10:24:51Z</time>
      </trkpt>
      <trkpt lat="46.27117" lon="4.82495">
        <ele>188.2</ele>
        <time>2024-09-19T10:24:52Z</time>
      </trkpt>
      <trkpt lat="46.27113" lon="4.82491">
        <ele>188.2</ele>
        <time>2024-09-19T10:24:53Z</time>
      </trkpt>
      <trkpt lat="46.27108" lon="4.82487">
        <ele>188.2</ele>
        <time>2024-09-19T10:24:54Z</time>
      </trkpt>
      <trkpt lat="46.27101" lon="4.82481">
        <ele>188.2</ele>
        <time>2024-09-19T10:24:55Z</time>
      </trkpt>
      <trkpt lat="46.27099" lon="4.82479">
        <ele>188</ele>
        <time>2024-09-19T10:24:56Z</time>
      </trkpt>
      <trkpt lat="46.27092" lon="4.82474">
        <ele>188</ele>
        <time>2024-09-19T10:24:57Z</time>
      </trkpt>
      <trkpt lat="46.2709" lon="4.82472">
        <ele>188</ele>
        <time>2024-09-19T10:24:58Z</time>
      </trkpt>
      <trkpt lat="46.27085" lon="4.82468">
        <ele>188</ele>
        <time>2024-09-19T10:24:59Z</time>
      </trkpt>
      <trkpt lat="46.27081" lon="4.82465">
        <ele>188</ele>
        <time>2024-09-19T10:25:00Z</time>
      </trkpt>
      <trkpt lat="46.27076" lon="4.82462">
        <ele>187.8</ele>
        <time>2024-09-19T10:25:01Z</time>
      </trkpt>
      <trkpt lat="46.27072" lon="4.82458">
        <ele>187.8</ele>
        <time>2024-09-19T10:25:02Z</time>
      </trkpt>
      <trkpt lat="46.27065" lon="4.82453">
        <ele>187.8</ele>
        <time>2024-09-19T10:25:03Z</time>
      </trkpt>
      <trkpt lat="46.27062" lon="4.82451">
        <ele>187.6</ele>
        <time>2024-09-19T10:25:04Z</time>
      </trkpt>
      <trkpt lat="46.27055" lon="4.82446">
        <ele>187.8</ele>
        <time>2024-09-19T10:25:05Z</time>
      </trkpt>
      <trkpt lat="46.27053" lon="4.82444">
        <ele>187.8</ele>
        <time>2024-09-19T10:25:06Z</time>
      </trkpt>
      <trkpt lat="46.27048" lon="4.82441">
        <ele>187.8</ele>
        <time>2024-09-19T10:25:07Z</time>
      </trkpt>
      <trkpt lat="46.27042" lon="4.82435">
        <ele>187.8</ele>
        <time>2024-09-19T10:25:08Z</time>
      </trkpt>
      <trkpt lat="46.27039" lon="4.82433">
        <ele>187.8</ele>
        <time>2024-09-19T10:25:09Z</time>
      </trkpt>
      <trkpt lat="46.27032" lon="4.82428">
        <ele>187.8</ele>
        <time>2024-09-19T10:25:10Z</time>
      </trkpt>
      <trkpt lat="46.2703" lon="4.82426">
        <ele>187.8</ele>
        <time>2024-09-19T10:25:11Z</time>
      </trkpt>
      <trkpt lat="46.27023" lon="4.82421">
        <ele>187.8</ele>
        <time>2024-09-19T10:25:12Z</time>
      </trkpt>
      <trkpt lat="46.27021" lon="4.82419">
        <ele>187.8</ele>
        <time>2024-09-19T10:25:13Z</time>
      </trkpt>
      <trkpt lat="46.27016" lon="4.82416">
        <ele>187.8</ele>
        <time>2024-09-19T10:25:14Z</time>
      </trkpt>
      <trkpt lat="46.27012" lon="4.82412">
        <ele>187.8</ele>
        <time>2024-09-19T10:25:15Z</time>
      </trkpt>
      <trkpt lat="46.27007" lon="4.82409">
        <ele>187.8</ele>
        <time>2024-09-19T10:25:16Z</time>
      </trkpt>
      <trkpt lat="46.27" lon="4.82404">
        <ele>187.8</ele>
        <time>2024-09-19T10:25:17Z</time>
      </trkpt>
      <trkpt lat="46.26998" lon="4.82402">
        <ele>187.8</ele>
        <time>2024-09-19T10:25:18Z</time>
      </trkpt>
      <trkpt lat="46.26993" lon="4.82399">
        <ele>187.4</ele>
        <time>2024-09-19T10:25:19Z</time>
      </trkpt>
      <trkpt lat="46.26986" lon="4.82393">
        <ele>187.4</ele>
        <time>2024-09-19T10:25:20Z</time>
      </trkpt>
      <trkpt lat="46.26984" lon="4.82391">
        <ele>187.4</ele>
        <time>2024-09-19T10:25:21Z</time>
      </trkpt>
      <trkpt lat="46.26977" lon="4.82386">
        <ele>187.4</ele>
        <time>2024-09-19T10:25:22Z</time>
      </trkpt>
      <trkpt lat="46.26975" lon="4.82385">
        <ele>187.8</ele>
        <time>2024-09-19T10:25:23Z</time>
      </trkpt>
      <trkpt lat="46.2697" lon="4.82381">
        <ele>187.8</ele>
        <time>2024-09-19T10:25:24Z</time>
      </trkpt>
      <trkpt lat="46.26965" lon="4.82377">
        <ele>187.8</ele>
        <time>2024-09-19T10:25:25Z</time>
      </trkpt>
      <trkpt lat="46.26961" lon="4.82373">
        <ele>187.8</ele>
        <time>2024-09-19T10:25:26Z</time>
      </trkpt>
      <trkpt lat="46.26954" lon="4.82367">
        <ele>187.8</ele>
        <time>2024-09-19T10:25:27Z</time>
      </trkpt>
      <trkpt lat="46.26952" lon="4.82365">
        <ele>187.8</ele>
        <time>2024-09-19T10:25:28Z</time>
      </trkpt>
      <trkpt lat="46.26945" lon="4.8236">
        <ele>187.8</ele>
        <time>2024-09-19T10:25:29Z</time>
      </trkpt>
      <trkpt lat="46.26943" lon="4.82358">
        <ele>187.8</ele>
        <time>2024-09-19T10:25:30Z</time>
      </trkpt>
      <trkpt lat="46.26936" lon="4.82352">
        <ele>188</ele>
        <time>2024-09-19T10:25:31Z</time>
      </trkpt>
      <trkpt lat="46.26934" lon="4.8235">
        <ele>188.2</ele>
        <time>2024-09-19T10:25:32Z</time>
      </trkpt>
      <trkpt lat="46.26927" lon="4.82344">
        <ele>188.2</ele>
        <time>2024-09-19T10:25:33Z</time>
      </trkpt>
      <trkpt lat="46.26925" lon="4.82342">
        <ele>188.2</ele>
        <time>2024-09-19T10:25:34Z</time>
      </trkpt>
      <trkpt lat="46.26921" lon="4.82339">
        <ele>188.2</ele>
        <time>2024-09-19T10:25:35Z</time>
      </trkpt>
      <trkpt lat="46.26917" lon="4.82335">
        <ele>188.2</ele>
        <time>2024-09-19T10:25:36Z</time>
      </trkpt>
      <trkpt lat="46.26913" lon="4.82331">
        <ele>188.2</ele>
        <time>2024-09-19T10:25:37Z</time>
      </trkpt>
      <trkpt lat="46.26909" lon="4.82327">
        <ele>188.2</ele>
        <time>2024-09-19T10:25:38Z</time>
      </trkpt>
      <trkpt lat="46.26905" lon="4.82323">
        <ele>188.2</ele>
        <time>2024-09-19T10:25:39Z</time>
      </trkpt>
      <trkpt lat="46.26901" lon="4.82319">
        <ele>188.4</ele>
        <time>2024-09-19T10:25:40Z</time>
      </trkpt>
      <trkpt lat="46.26894" lon="4.82313">
        <ele>188.4</ele>
        <time>2024-09-19T10:25:41Z</time>
      </trkpt>
      <trkpt lat="46.26892" lon="4.82311">
        <ele>188.4</ele>
        <time>2024-09-19T10:25:42Z</time>
      </trkpt>
      <trkpt lat="46.26888" lon="4.82307">
        <ele>188.4</ele>
        <time>2024-09-19T10:25:43Z</time>
      </trkpt>
      <trkpt lat="46.26882" lon="4.82301">
        <ele>188.2</ele>
        <time>2024-09-19T10:25:44Z</time>
      </trkpt>
      <trkpt lat="46.2688" lon="4.82299">
        <ele>188.2</ele>
        <time>2024-09-19T10:25:45Z</time>
      </trkpt>
      <trkpt lat="46.26876" lon="4.82295">
        <ele>188.2</ele>
        <time>2024-09-19T10:25:46Z</time>
      </trkpt>
      <trkpt lat="46.26872" lon="4.82291">
        <ele>188.2</ele>
        <time>2024-09-19T10:25:47Z</time>
      </trkpt>
      <trkpt lat="46.26868" lon="4.82287">
        <ele>188.2</ele>
        <time>2024-09-19T10:25:48Z</time>
      </trkpt>
      <trkpt lat="46.26862" lon="4.82281">
        <ele>187.8</ele>
        <time>2024-09-19T10:25:49Z</time>
      </trkpt>
      <trkpt lat="46.2686" lon="4.82279">
        <ele>187.8</ele>
        <time>2024-09-19T10:25:50Z</time>
      </trkpt>
      <trkpt lat="46.26856" lon="4.82275">
        <ele>187.8</ele>
        <time>2024-09-19T10:25:51Z</time>
      </trkpt>
      <trkpt lat="46.2685" lon="4.82269">
        <ele>187.8</ele>
        <time>2024-09-19T10:25:52Z</time>
      </trkpt>
      <trkpt lat="46.26848" lon="4.82267">
        <ele>187.8</ele>
        <time>2024-09-19T10:25:53Z</time>
      </trkpt>
      <trkpt lat="46.26842" lon="4.82261">
        <ele>188</ele>
        <time>2024-09-19T10:25:54Z</time>
      </trkpt>
      <trkpt lat="46.2684" lon="4.82259">
        <ele>188</ele>
        <time>2024-09-19T10:25:55Z</time>
      </trkpt>
      <trkpt lat="46.26836" lon="4.82255">
        <ele>188</ele>
        <time>2024-09-19T10:25:56Z</time>
      </trkpt>
      <trkpt lat="46.26832" lon="4.82251">
        <ele>188</ele>
        <time>2024-09-19T10:25:57Z</time>
      </trkpt>
      <trkpt lat="46.26828" lon="4.82247">
        <ele>188</ele>
        <time>2024-09-19T10:25:58Z</time>
      </trkpt>
      <trkpt lat="46.26824" lon="4.82242">
        <ele>187.6</ele>
        <time>2024-09-19T10:25:59Z</time>
      </trkpt>
      <trkpt lat="46.2682" lon="4.82238">
        <ele>187.6</ele>
        <time>2024-09-19T10:26:00Z</time>
      </trkpt>
      <trkpt lat="46.26815" lon="4.82232">
        <ele>187.6</ele>
        <time>2024-09-19T10:26:01Z</time>
      </trkpt>
      <trkpt lat="46.26813" lon="4.8223">
        <ele>187.6</ele>
        <time>2024-09-19T10:26:02Z</time>
      </trkpt>
      <trkpt lat="46.26807" lon="4.82223">
        <ele>188</ele>
        <time>2024-09-19T10:26:03Z</time>
      </trkpt>
      <trkpt lat="46.26805" lon="4.82221">
        <ele>188</ele>
        <time>2024-09-19T10:26:04Z</time>
      </trkpt>
      <trkpt lat="46.26799" lon="4.82215">
        <ele>188</ele>
        <time>2024-09-19T10:26:05Z</time>
      </trkpt>
      <trkpt lat="46.26797" lon="4.82213">
        <ele>188</ele>
        <time>2024-09-19T10:26:06Z</time>
      </trkpt>
      <trkpt lat="46.26791" lon="4.82206">
        <ele>188</ele>
        <time>2024-09-19T10:26:07Z</time>
      </trkpt>
      <trkpt lat="46.26789" lon="4.82204">
        <ele>188</ele>
        <time>2024-09-19T10:26:08Z</time>
      </trkpt>
      <trkpt lat="46.26786" lon="4.822">
        <ele>188</ele>
        <time>2024-09-19T10:26:09Z</time>
      </trkpt>
      <trkpt lat="46.26782" lon="4.82196">
        <ele>188</ele>
        <time>2024-09-19T10:26:10Z</time>
      </trkpt>
      <trkpt lat="46.26778" lon="4.82191">
        <ele>188</ele>
        <time>2024-09-19T10:26:11Z</time>
      </trkpt>
      <trkpt lat="46.26773" lon="4.82185">
        <ele>188</ele>
        <time>2024-09-19T10:26:12Z</time>
      </trkpt>
      <trkpt lat="46.26771" lon="4.82183">
        <ele>188.2</ele>
        <time>2024-09-19T10:26:13Z</time>
      </trkpt>
      <trkpt lat="46.26765" lon="4.82176">
        <ele>188.2</ele>
        <time>2024-09-19T10:26:14Z</time>
      </trkpt>
      <trkpt lat="46.26763" lon="4.82174">
        <ele>188.2</ele>
        <time>2024-09-19T10:26:15Z</time>
      </trkpt>
      <trkpt lat="46.2676" lon="4.8217">
        <ele>188.2</ele>
        <time>2024-09-19T10:26:16Z</time>
      </trkpt>
      <trkpt lat="46.26756" lon="4.82165">
        <ele>188</ele>
        <time>2024-09-19T10:26:17Z</time>
      </trkpt>
      <trkpt lat="46.26752" lon="4.82161">
        <ele>188</ele>
        <time>2024-09-19T10:26:18Z</time>
      </trkpt>
      <trkpt lat="46.26748" lon="4.82156">
        <ele>188</ele>
        <time>2024-09-19T10:26:19Z</time>
      </trkpt>
      <trkpt lat="46.26745" lon="4.82152">
        <ele>188</ele>
        <time>2024-09-19T10:26:20Z</time>
      </trkpt>
      <trkpt lat="46.26739" lon="4.82145">
        <ele>188</ele>
        <time>2024-09-19T10:26:21Z</time>
      </trkpt>
      <trkpt lat="46.26737" lon="4.82143">
        <ele>188</ele>
        <time>2024-09-19T10:26:22Z</time>
      </trkpt>
      <trkpt lat="46.26731" lon="4.82136">
        <ele>188</ele>
        <time>2024-09-19T10:26:23Z</time>
      </trkpt>
      <trkpt lat="46.26729" lon="4.82134">
        <ele>188</ele>
        <time>2024-09-19T10:26:24Z</time>
      </trkpt>
      <trkpt lat="46.26725" lon="4.82129">
        <ele>188</ele>
        <time>2024-09-19T10:26:25Z</time>
      </trkpt>
      <trkpt lat="46.26721" lon="4.82125">
        <ele>188</ele>
        <time>2024-09-19T10:26:26Z</time>
      </trkpt>
      <trkpt lat="46.26717" lon="4.82121">
        <ele>188.4</ele>
        <time>2024-09-19T10:26:27Z</time>
      </trkpt>
      <trkpt lat="46.26713" lon="4.82117">
        <ele>188.4</ele>
        <time>2024-09-19T10:26:28Z</time>
      </trkpt>
      <trkpt lat="46.26707" lon="4.8211">
        <ele>188</ele>
        <time>2024-09-19T10:26:29Z</time>
      </trkpt>
      <trkpt lat="46.26705" lon="4.82108">
        <ele>187.6</ele>
        <time>2024-09-19T10:26:30Z</time>
      </trkpt>
      <trkpt lat="46.26699" lon="4.82102">
        <ele>187.6</ele>
        <time>2024-09-19T10:26:31Z</time>
      </trkpt>
      <trkpt lat="46.26697" lon="4.821">
        <ele>187.6</ele>
        <time>2024-09-19T10:26:32Z</time>
      </trkpt>
      <trkpt lat="46.26691" lon="4.82094">
        <ele>187.6</ele>
        <time>2024-09-19T10:26:33Z</time>
      </trkpt>
      <trkpt lat="46.26689" lon="4.82092">
        <ele>188.2</ele>
        <time>2024-09-19T10:26:34Z</time>
      </trkpt>
      <trkpt lat="46.26685" lon="4.82088">
        <ele>188.2</ele>
        <time>2024-09-19T10:26:35Z</time>
      </trkpt>
      <trkpt lat="46.26681" lon="4.82084">
        <ele>188.2</ele>
        <time>2024-09-19T10:26:36Z</time>
      </trkpt>
      <trkpt lat="46.26677" lon="4.82079">
        <ele>188.2</ele>
        <time>2024-09-19T10:26:37Z</time>
      </trkpt>
      <trkpt lat="46.26673" lon="4.82075">
        <ele>188.2</ele>
        <time>2024-09-19T10:26:38Z</time>
      </trkpt>
      <trkpt lat="46.26669" lon="4.82071">
        <ele>187.6</ele>
        <time>2024-09-19T10:26:39Z</time>
      </trkpt>
      <trkpt lat="46.26665" lon="4.82066">
        <ele>187.6</ele>
        <time>2024-09-19T10:26:40Z</time>
      </trkpt>
      <trkpt lat="46.26661" lon="4.82061">
        <ele>187.6</ele>
        <time>2024-09-19T10:26:41Z</time>
      </trkpt>
      <trkpt lat="46.26657" lon="4.82056">
        <ele>187.6</ele>
        <time>2024-09-19T10:26:42Z</time>
      </trkpt>
      <trkpt lat="46.26653" lon="4.82052">
        <ele>188.2</ele>
        <time>2024-09-19T10:26:43Z</time>
      </trkpt>
      <trkpt lat="46.26649" lon="4.82047">
        <ele>188.2</ele>
        <time>2024-09-19T10:26:44Z</time>
      </trkpt>
      <trkpt lat="46.26643" lon="4.82041">
        <ele>188.2</ele>
        <time>2024-09-19T10:26:45Z</time>
      </trkpt>
      <trkpt lat="46.26641" lon="4.82038">
        <ele>188.2</ele>
        <time>2024-09-19T10:26:46Z</time>
      </trkpt>
      <trkpt lat="46.26636" lon="4.82032">
        <ele>188.2</ele>
        <time>2024-09-19T10:26:47Z</time>
      </trkpt>
      <trkpt lat="46.26634" lon="4.8203">
        <ele>188.2</ele>
        <time>2024-09-19T10:26:48Z</time>
      </trkpt>
      <trkpt lat="46.26629" lon="4.82023">
        <ele>188.2</ele>
        <time>2024-09-19T10:26:49Z</time>
      </trkpt>
      <trkpt lat="46.26627" lon="4.82021">
        <ele>188.2</ele>
        <time>2024-09-19T10:26:50Z</time>
      </trkpt>
      <trkpt lat="46.26624" lon="4.82016">
        <ele>188.2</ele>
        <time>2024-09-19T10:26:51Z</time>
      </trkpt>
      <trkpt lat="46.2662" lon="4.82012">
        <ele>188.2</ele>
        <time>2024-09-19T10:26:52Z</time>
      </trkpt>
      <trkpt lat="46.26617" lon="4.82007">
        <ele>188.2</ele>
        <time>2024-09-19T10:26:53Z</time>
      </trkpt>
      <trkpt lat="46.26612" lon="4.82">
        <ele>188.2</ele>
        <time>2024-09-19T10:26:54Z</time>
      </trkpt>
      <trkpt lat="46.2661" lon="4.81998">
        <ele>188.2</ele>
        <time>2024-09-19T10:26:55Z</time>
      </trkpt>
      <trkpt lat="46.26605" lon="4.81991">
        <ele>187.8</ele>
        <time>2024-09-19T10:26:56Z</time>
      </trkpt>
      <trkpt lat="46.26603" lon="4.81988">
        <ele>187.8</ele>
        <time>2024-09-19T10:26:57Z</time>
      </trkpt>
      <trkpt lat="46.26599" lon="4.81984">
        <ele>188.2</ele>
        <time>2024-09-19T10:26:58Z</time>
      </trkpt>
      <trkpt lat="46.26596" lon="4.81979">
        <ele>188.2</ele>
        <time>2024-09-19T10:26:59Z</time>
      </trkpt>
      <trkpt lat="46.26592" lon="4.81974">
        <ele>188.2</ele>
        <time>2024-09-19T10:27:00Z</time>
      </trkpt>
      <trkpt lat="46.26588" lon="4.8197">
        <ele>188.2</ele>
        <time>2024-09-19T10:27:01Z</time>
      </trkpt>
      <trkpt lat="46.26585" lon="4.81965">
        <ele>188.2</ele>
        <time>2024-09-19T10:27:02Z</time>
      </trkpt>
      <trkpt lat="46.26579" lon="4.81957">
        <ele>188.2</ele>
        <time>2024-09-19T10:27:03Z</time>
      </trkpt>
      <trkpt lat="46.26577" lon="4.81955">
        <ele>188.2</ele>
        <time>2024-09-19T10:27:04Z</time>
      </trkpt>
      <trkpt lat="46.26574" lon="4.8195">
        <ele>188.2</ele>
        <time>2024-09-19T10:27:05Z</time>
      </trkpt>
      <trkpt lat="46.2657" lon="4.81945">
        <ele>188.2</ele>
        <time>2024-09-19T10:27:06Z</time>
      </trkpt>
      <trkpt lat="46.26565" lon="4.81938">
        <ele>188.2</ele>
        <time>2024-09-19T10:27:07Z</time>
      </trkpt>
      <trkpt lat="46.26563" lon="4.81936">
        <ele>188.2</ele>
        <time>2024-09-19T10:27:08Z</time>
      </trkpt>
      <trkpt lat="46.26557" lon="4.81929">
        <ele>188.2</ele>
        <time>2024-09-19T10:27:09Z</time>
      </trkpt>
      <trkpt lat="46.26555" lon="4.81926">
        <ele>188.8</ele>
        <time>2024-09-19T10:27:10Z</time>
      </trkpt>
      <trkpt lat="46.26552" lon="4.81921">
        <ele>188.8</ele>
        <time>2024-09-19T10:27:11Z</time>
      </trkpt>
      <trkpt lat="46.26548" lon="4.81916">
        <ele>188.8</ele>
        <time>2024-09-19T10:27:12Z</time>
      </trkpt>
      <trkpt lat="46.26545" lon="4.81911">
        <ele>188.8</ele>
        <time>2024-09-19T10:27:13Z</time>
      </trkpt>
      <trkpt lat="46.26539" lon="4.81904">
        <ele>188.4</ele>
        <time>2024-09-19T10:27:14Z</time>
      </trkpt>
      <trkpt lat="46.26537" lon="4.81901">
        <ele>188.4</ele>
        <time>2024-09-19T10:27:15Z</time>
      </trkpt>
      <trkpt lat="46.26534" lon="4.81897">
        <ele>188.4</ele>
        <time>2024-09-19T10:27:16Z</time>
      </trkpt>
      <trkpt lat="46.26528" lon="4.8189">
        <ele>188.4</ele>
        <time>2024-09-19T10:27:17Z</time>
      </trkpt>
      <trkpt lat="46.26527" lon="4.81887">
        <ele>189</ele>
        <time>2024-09-19T10:27:18Z</time>
      </trkpt>
      <trkpt lat="46.26523" lon="4.81883">
        <ele>189</ele>
        <time>2024-09-19T10:27:19Z</time>
      </trkpt>
      <trkpt lat="46.2652" lon="4.81879">
        <ele>189</ele>
        <time>2024-09-19T10:27:20Z</time>
      </trkpt>
      <trkpt lat="46.26514" lon="4.81872">
        <ele>189</ele>
        <time>2024-09-19T10:27:21Z</time>
      </trkpt>
      <trkpt lat="46.26512" lon="4.8187">
        <ele>189</ele>
        <time>2024-09-19T10:27:22Z</time>
      </trkpt>
      <trkpt lat="46.26509" lon="4.81865">
        <ele>188.8</ele>
        <time>2024-09-19T10:27:23Z</time>
      </trkpt>
      <trkpt lat="46.26506" lon="4.8186">
        <ele>188.6</ele>
        <time>2024-09-19T10:27:24Z</time>
      </trkpt>
      <trkpt lat="46.26502" lon="4.81856">
        <ele>188.6</ele>
        <time>2024-09-19T10:27:25Z</time>
      </trkpt>
      <trkpt lat="46.26499" lon="4.81851">
        <ele>188.6</ele>
        <time>2024-09-19T10:27:26Z</time>
      </trkpt>
      <trkpt lat="46.26495" lon="4.81847">
        <ele>188.6</ele>
        <time>2024-09-19T10:27:27Z</time>
      </trkpt>
      <trkpt lat="46.26489" lon="4.8184">
        <ele>188.6</ele>
        <time>2024-09-19T10:27:28Z</time>
      </trkpt>
      <trkpt lat="46.26488" lon="4.81837">
        <ele>188.8</ele>
        <time>2024-09-19T10:27:29Z</time>
      </trkpt>
      <trkpt lat="46.26484" lon="4.81833">
        <ele>188.8</ele>
        <time>2024-09-19T10:27:30Z</time>
      </trkpt>
      <trkpt lat="46.26479" lon="4.81826">
        <ele>188.8</ele>
        <time>2024-09-19T10:27:31Z</time>
      </trkpt>
      <trkpt lat="46.26477" lon="4.81824">
        <ele>188.4</ele>
        <time>2024-09-19T10:27:32Z</time>
      </trkpt>
      <trkpt lat="46.26473" lon="4.81822">
        <ele>188.4</ele>
        <time>2024-09-19T10:27:33Z</time>
      </trkpt>
      <trkpt lat="46.26469" lon="4.81822">
        <ele>188.4</ele>
        <time>2024-09-19T10:27:34Z</time>
      </trkpt>
      <trkpt lat="46.26466" lon="4.81824">
        <ele>188.4</ele>
        <time>2024-09-19T10:27:35Z</time>
      </trkpt>
      <trkpt lat="46.26463" lon="4.81827">
        <ele>188.4</ele>
        <time>2024-09-19T10:27:36Z</time>
      </trkpt>
      <trkpt lat="46.26461" lon="4.8183">
        <ele>188.6</ele>
        <time>2024-09-19T10:27:37Z</time>
      </trkpt>
      <trkpt lat="46.26458" lon="4.81836">
        <ele>189</ele>
        <time>2024-09-19T10:27:38Z</time>
      </trkpt>
      <trkpt lat="46.26457" lon="4.81837">
        <ele>189</ele>
        <time>2024-09-19T10:27:39Z</time>
      </trkpt>
      <trkpt lat="46.26453" lon="4.81843">
        <ele>189</ele>
        <time>2024-09-19T10:27:40Z</time>
      </trkpt>
      <trkpt lat="46.26452" lon="4.81845">
        <ele>189</ele>
        <time>2024-09-19T10:27:41Z</time>
      </trkpt>
      <trkpt lat="46.26449" lon="4.81848">
        <ele>189</ele>
        <time>2024-09-19T10:27:42Z</time>
      </trkpt>
      <trkpt lat="46.26447" lon="4.81853">
        <ele>189</ele>
        <time>2024-09-19T10:27:43Z</time>
      </trkpt>
      <trkpt lat="46.26444" lon="4.81858">
        <ele>189</ele>
        <time>2024-09-19T10:27:44Z</time>
      </trkpt>
      <trkpt lat="46.26441" lon="4.81863">
        <ele>189</ele>
        <time>2024-09-19T10:27:45Z</time>
      </trkpt>
      <trkpt lat="46.26438" lon="4.81868">
        <ele>189</ele>
        <time>2024-09-19T10:27:46Z</time>
      </trkpt>
      <trkpt lat="46.26435" lon="4.81873">
        <ele>189</ele>
        <time>2024-09-19T10:27:47Z</time>
      </trkpt>
      <trkpt lat="46.26432" lon="4.81878">
        <ele>189</ele>
        <time>2024-09-19T10:27:48Z</time>
      </trkpt>
      <trkpt lat="46.26428" lon="4.81886">
        <ele>189</ele>
        <time>2024-09-19T10:27:49Z</time>
      </trkpt>
      <trkpt lat="46.26426" lon="4.81889">
        <ele>189</ele>
        <time>2024-09-19T10:27:50Z</time>
      </trkpt>
      <trkpt lat="46.26423" lon="4.81894">
        <ele>189.2</ele>
        <time>2024-09-19T10:27:51Z</time>
      </trkpt>
      <trkpt lat="46.2642" lon="4.81899">
        <ele>189.2</ele>
        <time>2024-09-19T10:27:52Z</time>
      </trkpt>
      <trkpt lat="46.26417" lon="4.81904">
        <ele>189.2</ele>
        <time>2024-09-19T10:27:53Z</time>
      </trkpt>
      <trkpt lat="46.26414" lon="4.81909">
        <ele>189.2</ele>
        <time>2024-09-19T10:27:54Z</time>
      </trkpt>
      <trkpt lat="46.26409" lon="4.81917">
        <ele>189.2</ele>
        <time>2024-09-19T10:27:55Z</time>
      </trkpt>
      <trkpt lat="46.26407" lon="4.8192">
        <ele>189.2</ele>
        <time>2024-09-19T10:27:56Z</time>
      </trkpt>
      <trkpt lat="46.26402" lon="4.81928">
        <ele>189.2</ele>
        <time>2024-09-19T10:27:57Z</time>
      </trkpt>
      <trkpt lat="46.26401" lon="4.8193">
        <ele>189.2</ele>
        <time>2024-09-19T10:27:58Z</time>
      </trkpt>
      <trkpt lat="46.26398" lon="4.81936">
        <ele>189.2</ele>
        <time>2024-09-19T10:27:59Z</time>
      </trkpt>
      <trkpt lat="46.26393" lon="4.81943">
        <ele>188.8</ele>
        <time>2024-09-19T10:28:00Z</time>
      </trkpt>
      <trkpt lat="46.26391" lon="4.81945">
        <ele>188.8</ele>
        <time>2024-09-19T10:28:01Z</time>
      </trkpt>
      <trkpt lat="46.26387" lon="4.81948">
        <ele>188.8</ele>
        <time>2024-09-19T10:28:02Z</time>
      </trkpt>
      <trkpt lat="46.26382" lon="4.81948">
        <ele>188.8</ele>
        <time>2024-09-19T10:28:03Z</time>
      </trkpt>
      <trkpt lat="46.26376" lon="4.81945">
        <ele>189.4</ele>
        <time>2024-09-19T10:28:04Z</time>
      </trkpt>
      <trkpt lat="46.26373" lon="4.81944">
        <ele>189.4</ele>
        <time>2024-09-19T10:28:05Z</time>
      </trkpt>
      <trkpt lat="46.26367" lon="4.8194">
        <ele>189.4</ele>
        <time>2024-09-19T10:28:06Z</time>
      </trkpt>
      <trkpt lat="46.26364" lon="4.81939">
        <ele>189.4</ele>
        <time>2024-09-19T10:28:07Z</time>
      </trkpt>
      <trkpt lat="46.2636" lon="4.81936">
        <ele>188.8</ele>
        <time>2024-09-19T10:28:08Z</time>
      </trkpt>
      <trkpt lat="46.26355" lon="4.81933">
        <ele>188.8</ele>
        <time>2024-09-19T10:28:09Z</time>
      </trkpt>
      <trkpt lat="46.26351" lon="4.8193">
        <ele>188.8</ele>
        <time>2024-09-19T10:28:10Z</time>
      </trkpt>
      <trkpt lat="46.26344" lon="4.81926">
        <ele>188.8</ele>
        <time>2024-09-19T10:28:11Z</time>
      </trkpt>
      <trkpt lat="46.26341" lon="4.81925">
        <ele>188.8</ele>
        <time>2024-09-19T10:28:12Z</time>
      </trkpt>
      <trkpt lat="46.26334" lon="4.81921">
        <ele>188.8</ele>
        <time>2024-09-19T10:28:13Z</time>
      </trkpt>
      <trkpt lat="46.26332" lon="4.8192">
        <ele>188.6</ele>
        <time>2024-09-19T10:28:14Z</time>
      </trkpt>
      <trkpt lat="46.26324" lon="4.81918">
        <ele>188.6</ele>
        <time>2024-09-19T10:28:15Z</time>
      </trkpt>
      <trkpt lat="46.26322" lon="4.81917">
        <ele>188.6</ele>
        <time>2024-09-19T10:28:16Z</time>
      </trkpt>
      <trkpt lat="46.26317" lon="4.81917">
        <ele>188.6</ele>
        <time>2024-09-19T10:28:17Z</time>
      </trkpt>
      <trkpt lat="46.26312" lon="4.81917">
        <ele>188.6</ele>
        <time>2024-09-19T10:28:18Z</time>
      </trkpt>
      <trkpt lat="46.26307" lon="4.81917">
        <ele>188.6</ele>
        <time>2024-09-19T10:28:19Z</time>
      </trkpt>
      <trkpt lat="46.26299" lon="4.81917">
        <ele>188.6</ele>
        <time>2024-09-19T10:28:20Z</time>
      </trkpt>
      <trkpt lat="46.26297" lon="4.81917">
        <ele>188.6</ele>
        <time>2024-09-19T10:28:21Z</time>
      </trkpt>
      <trkpt lat="46.26292" lon="4.81916">
        <ele>188.4</ele>
        <time>2024-09-19T10:28:22Z</time>
      </trkpt>
      <trkpt lat="46.26285" lon="4.81914">
        <ele>188.6</ele>
        <time>2024-09-19T10:28:23Z</time>
      </trkpt>
      <trkpt lat="46.26282" lon="4.81913">
        <ele>188.6</ele>
        <time>2024-09-19T10:28:24Z</time>
      </trkpt>
      <trkpt lat="46.26278" lon="4.8191">
        <ele>188.6</ele>
        <time>2024-09-19T10:28:25Z</time>
      </trkpt>
      <trkpt lat="46.26274" lon="4.81906">
        <ele>188.6</ele>
        <time>2024-09-19T10:28:26Z</time>
      </trkpt>
      <trkpt lat="46.2627" lon="4.81901">
        <ele>188.6</ele>
        <time>2024-09-19T10:28:27Z</time>
      </trkpt>
      <trkpt lat="46.26266" lon="4.81896">
        <ele>188.6</ele>
        <time>2024-09-19T10:28:28Z</time>
      </trkpt>
      <trkpt lat="46.26263" lon="4.8189">
        <ele>188.6</ele>
        <time>2024-09-19T10:28:29Z</time>
      </trkpt>
      <trkpt lat="46.26261" lon="4.81883">
        <ele>188.6</ele>
        <time>2024-09-19T10:28:30Z</time>
      </trkpt>
      <trkpt lat="46.26258" lon="4.81877">
        <ele>188.4</ele>
        <time>2024-09-19T10:28:31Z</time>
      </trkpt>
      <trkpt lat="46.26256" lon="4.8187">
        <ele>188.4</ele>
        <time>2024-09-19T10:28:32Z</time>
      </trkpt>
      <trkpt lat="46.26253" lon="4.8186">
        <ele>188.4</ele>
        <time>2024-09-19T10:28:33Z</time>
      </trkpt>
      <trkpt lat="46.26253" lon="4.81856">
        <ele>188.4</ele>
        <time>2024-09-19T10:28:34Z</time>
      </trkpt>
      <trkpt lat="46.26251" lon="4.8185">
        <ele>188.4</ele>
        <time>2024-09-19T10:28:35Z</time>
      </trkpt>
      <trkpt lat="46.26249" lon="4.81843">
        <ele>188.4</ele>
        <time>2024-09-19T10:28:36Z</time>
      </trkpt>
      <trkpt lat="46.26248" lon="4.81837">
        <ele>188.4</ele>
        <time>2024-09-19T10:28:37Z</time>
      </trkpt>
      <trkpt lat="46.26246" lon="4.81827">
        <ele>188.4</ele>
        <time>2024-09-19T10:28:38Z</time>
      </trkpt>
      <trkpt lat="46.26246" lon="4.81824">
        <ele>188.2</ele>
        <time>2024-09-19T10:28:39Z</time>
      </trkpt>
      <trkpt lat="46.26244" lon="4.81813">
        <ele>188.2</ele>
        <time>2024-09-19T10:28:40Z</time>
      </trkpt>
      <trkpt lat="46.26243" lon="4.81809">
        <ele>188.2</ele>
        <time>2024-09-19T10:28:41Z</time>
      </trkpt>
      <trkpt lat="46.26241" lon="4.81799">
        <ele>188.2</ele>
        <time>2024-09-19T10:28:42Z</time>
      </trkpt>
      <trkpt lat="46.2624" lon="4.81795">
        <ele>188.2</ele>
        <time>2024-09-19T10:28:43Z</time>
      </trkpt>
      <trkpt lat="46.26239" lon="4.81788">
        <ele>188.2</ele>
        <time>2024-09-19T10:28:44Z</time>
      </trkpt>
      <trkpt lat="46.26237" lon="4.81781">
        <ele>188.2</ele>
        <time>2024-09-19T10:28:45Z</time>
      </trkpt>
      <trkpt lat="46.26235" lon="4.81771">
        <ele>188.2</ele>
        <time>2024-09-19T10:28:46Z</time>
      </trkpt>
      <trkpt lat="46.26234" lon="4.81768">
        <ele>188.2</ele>
        <time>2024-09-19T10:28:47Z</time>
      </trkpt>
      <trkpt lat="46.26233" lon="4.81762">
        <ele>188.2</ele>
        <time>2024-09-19T10:28:48Z</time>
      </trkpt>
      <trkpt lat="46.26231" lon="4.81756">
        <ele>188.4</ele>
        <time>2024-09-19T10:28:49Z</time>
      </trkpt>
      <trkpt lat="46.26229" lon="4.8175">
        <ele>188.4</ele>
        <time>2024-09-19T10:28:50Z</time>
      </trkpt>
      <trkpt lat="46.26226" lon="4.81744">
        <ele>188.4</ele>
        <time>2024-09-19T10:28:51Z</time>
      </trkpt>
      <trkpt lat="46.26224" lon="4.81739">
        <ele>188.4</ele>
        <time>2024-09-19T10:28:52Z</time>
      </trkpt>
      <trkpt lat="46.26219" lon="4.81732">
        <ele>188.4</ele>
        <time>2024-09-19T10:28:53Z</time>
      </trkpt>
      <trkpt lat="46.26218" lon="4.81729">
        <ele>188.4</ele>
        <time>2024-09-19T10:28:54Z</time>
      </trkpt>
      <trkpt lat="46.26213" lon="4.81722">
        <ele>188.8</ele>
        <time>2024-09-19T10:28:55Z</time>
      </trkpt>
      <trkpt lat="46.26211" lon="4.81719">
        <ele>188.8</ele>
        <time>2024-09-19T10:28:56Z</time>
      </trkpt>
      <trkpt lat="46.26207" lon="4.81715">
        <ele>188.8</ele>
        <time>2024-09-19T10:28:57Z</time>
      </trkpt>
      <trkpt lat="46.26204" lon="4.81711">
        <ele>188.6</ele>
        <time>2024-09-19T10:28:58Z</time>
      </trkpt>
      <trkpt lat="46.26199" lon="4.81707">
        <ele>188.6</ele>
        <time>2024-09-19T10:28:59Z</time>
      </trkpt>
      <trkpt lat="46.26193" lon="4.81703">
        <ele>188.6</ele>
        <time>2024-09-19T10:29:00Z</time>
      </trkpt>
      <trkpt lat="46.26191" lon="4.81702">
        <ele>188.6</ele>
        <time>2024-09-19T10:29:01Z</time>
      </trkpt>
      <trkpt lat="46.26184" lon="4.81698">
        <ele>188.6</ele>
        <time>2024-09-19T10:29:02Z</time>
      </trkpt>
      <trkpt lat="46.26182" lon="4.81697">
        <ele>189</ele>
        <time>2024-09-19T10:29:03Z</time>
      </trkpt>
      <trkpt lat="46.26177" lon="4.81691">
        <ele>189.2</ele>
        <time>2024-09-19T10:29:04Z</time>
      </trkpt>
      <trkpt lat="46.26176" lon="4.81689">
        <ele>189.2</ele>
        <time>2024-09-19T10:29:05Z</time>
      </trkpt>
      <trkpt lat="46.26175" lon="4.81684">
        <ele>189.2</ele>
        <time>2024-09-19T10:29:06Z</time>
      </trkpt>
      <trkpt lat="46.26172" lon="4.81675">
        <ele>189</ele>
        <time>2024-09-19T10:29:07Z</time>
      </trkpt>
      <trkpt lat="46.26171" lon="4.81672">
        <ele>188.8</ele>
        <time>2024-09-19T10:29:08Z</time>
      </trkpt>
      <trkpt lat="46.26169" lon="4.81666">
        <ele>188.8</ele>
        <time>2024-09-19T10:29:09Z</time>
      </trkpt>
      <trkpt lat="46.26167" lon="4.81661">
        <ele>188.8</ele>
        <time>2024-09-19T10:29:10Z</time>
      </trkpt>
      <trkpt lat="46.26164" lon="4.81656">
        <ele>188.8</ele>
        <time>2024-09-19T10:29:11Z</time>
      </trkpt>
      <trkpt lat="46.26159" lon="4.81649">
        <ele>188.4</ele>
        <time>2024-09-19T10:29:12Z</time>
      </trkpt>
      <trkpt lat="46.26157" lon="4.81647">
        <ele>188.4</ele>
        <time>2024-09-19T10:29:13Z</time>
      </trkpt>
      <trkpt lat="46.26153" lon="4.81642">
        <ele>188.4</ele>
        <time>2024-09-19T10:29:14Z</time>
      </trkpt>
      <trkpt lat="46.26148" lon="4.81634">
        <ele>188.4</ele>
        <time>2024-09-19T10:29:15Z</time>
      </trkpt>
      <trkpt lat="46.26146" lon="4.81631">
        <ele>188.4</ele>
        <time>2024-09-19T10:29:16Z</time>
      </trkpt>
      <trkpt lat="46.26143" lon="4.81626">
        <ele>188.6</ele>
        <time>2024-09-19T10:29:17Z</time>
      </trkpt>
      <trkpt lat="46.26139" lon="4.8162">
        <ele>188.6</ele>
        <time>2024-09-19T10:29:18Z</time>
      </trkpt>
      <trkpt lat="46.26135" lon="4.81615">
        <ele>188.6</ele>
        <time>2024-09-19T10:29:19Z</time>
      </trkpt>
      <trkpt lat="46.26132" lon="4.81609">
        <ele>188.8</ele>
        <time>2024-09-19T10:29:20Z</time>
      </trkpt>
      <trkpt lat="46.26127" lon="4.816">
        <ele>188.8</ele>
        <time>2024-09-19T10:29:21Z</time>
      </trkpt>
      <trkpt lat="46.26125" lon="4.81597">
        <ele>188.8</ele>
        <time>2024-09-19T10:29:22Z</time>
      </trkpt>
      <trkpt lat="46.26119" lon="4.81589">
        <ele>188.8</ele>
        <time>2024-09-19T10:29:23Z</time>
      </trkpt>
      <trkpt lat="46.26117" lon="4.81586">
        <ele>188.8</ele>
        <time>2024-09-19T10:29:24Z</time>
      </trkpt>
      <trkpt lat="46.26112" lon="4.81578">
        <ele>188.8</ele>
        <time>2024-09-19T10:29:25Z</time>
      </trkpt>
      <trkpt lat="46.2611" lon="4.81575">
        <ele>189</ele>
        <time>2024-09-19T10:29:26Z</time>
      </trkpt>
      <trkpt lat="46.26106" lon="4.8157">
        <ele>189</ele>
        <time>2024-09-19T10:29:27Z</time>
      </trkpt>
      <trkpt lat="46.26103" lon="4.81564">
        <ele>189</ele>
        <time>2024-09-19T10:29:28Z</time>
      </trkpt>
      <trkpt lat="46.261" lon="4.81559">
        <ele>189</ele>
        <time>2024-09-19T10:29:29Z</time>
      </trkpt>
      <trkpt lat="46.26096" lon="4.81553">
        <ele>189</ele>
        <time>2024-09-19T10:29:30Z</time>
      </trkpt>
      <trkpt lat="46.26091" lon="4.81544">
        <ele>189</ele>
        <time>2024-09-19T10:29:31Z</time>
      </trkpt>
      <trkpt lat="46.26089" lon="4.81541">
        <ele>189</ele>
        <time>2024-09-19T10:29:32Z</time>
      </trkpt>
      <trkpt lat="46.26084" lon="4.81533">
        <ele>189</ele>
        <time>2024-09-19T10:29:33Z</time>
      </trkpt>
      <trkpt lat="46.26083" lon="4.8153">
        <ele>188.8</ele>
        <time>2024-09-19T10:29:34Z</time>
      </trkpt>
      <trkpt lat="46.26079" lon="4.81525">
        <ele>188.8</ele>
        <time>2024-09-19T10:29:35Z</time>
      </trkpt>
      <trkpt lat="46.26074" lon="4.81517">
        <ele>188.8</ele>
        <time>2024-09-19T10:29:36Z</time>
      </trkpt>
      <trkpt lat="46.26072" lon="4.81514">
        <ele>188.8</ele>
        <time>2024-09-19T10:29:37Z</time>
      </trkpt>
      <trkpt lat="46.26067" lon="4.81505">
        <ele>188.8</ele>
        <time>2024-09-19T10:29:38Z</time>
      </trkpt>
      <trkpt lat="46.26066" lon="4.81502">
        <ele>188.8</ele>
        <time>2024-09-19T10:29:39Z</time>
      </trkpt>
      <trkpt lat="46.26061" lon="4.81494">
        <ele>188.8</ele>
        <time>2024-09-19T10:29:40Z</time>
      </trkpt>
      <trkpt lat="46.26059" lon="4.81491">
        <ele>188.8</ele>
        <time>2024-09-19T10:29:41Z</time>
      </trkpt>
      <trkpt lat="46.26056" lon="4.81485">
        <ele>188.8</ele>
        <time>2024-09-19T10:29:42Z</time>
      </trkpt>
      <trkpt lat="46.26053" lon="4.81479">
        <ele>188.8</ele>
        <time>2024-09-19T10:29:43Z</time>
      </trkpt>
      <trkpt lat="46.2605" lon="4.81473">
        <ele>188.8</ele>
        <time>2024-09-19T10:29:44Z</time>
      </trkpt>
      <trkpt lat="46.26046" lon="4.81466">
        <ele>188.8</ele>
        <time>2024-09-19T10:29:45Z</time>
      </trkpt>
      <trkpt lat="46.26043" lon="4.8146">
        <ele>188.8</ele>
        <time>2024-09-19T10:29:46Z</time>
      </trkpt>
      <trkpt lat="46.26037" lon="4.81451">
        <ele>188.8</ele>
        <time>2024-09-19T10:29:47Z</time>
      </trkpt>
      <trkpt lat="46.26035" lon="4.81449">
        <ele>189</ele>
        <time>2024-09-19T10:29:48Z</time>
      </trkpt>
      <trkpt lat="46.2603" lon="4.81441">
        <ele>189</ele>
        <time>2024-09-19T10:29:49Z</time>
      </trkpt>
      <trkpt lat="46.26028" lon="4.81439">
        <ele>189</ele>
        <time>2024-09-19T10:29:50Z</time>
      </trkpt>
      <trkpt lat="46.26025" lon="4.81433">
        <ele>189</ele>
        <time>2024-09-19T10:29:51Z</time>
      </trkpt>
      <trkpt lat="46.26021" lon="4.81428">
        <ele>189</ele>
        <time>2024-09-19T10:29:52Z</time>
      </trkpt>
      <trkpt lat="46.26018" lon="4.81423">
        <ele>189.2</ele>
        <time>2024-09-19T10:29:53Z</time>
      </trkpt>
      <trkpt lat="46.26014" lon="4.81418">
        <ele>189.2</ele>
        <time>2024-09-19T10:29:54Z</time>
      </trkpt>
      <trkpt lat="46.26011" lon="4.81412">
        <ele>189.2</ele>
        <time>2024-09-19T10:29:55Z</time>
      </trkpt>
      <trkpt lat="46.26005" lon="4.81404">
        <ele>189.4</ele>
        <time>2024-09-19T10:29:56Z</time>
      </trkpt>
      <trkpt lat="46.26003" lon="4.81401">
        <ele>189.4</ele>
        <time>2024-09-19T10:29:57Z</time>
      </trkpt>
      <trkpt lat="46.25999" lon="4.81396">
        <ele>189.2</ele>
        <time>2024-09-19T10:29:58Z</time>
      </trkpt>
      <trkpt lat="46.25993" lon="4.81388">
        <ele>189.2</ele>
        <time>2024-09-19T10:29:59Z</time>
      </trkpt>
      <trkpt lat="46.25991" lon="4.81385">
        <ele>189.2</ele>
        <time>2024-09-19T10:30:00Z</time>
      </trkpt>
      <trkpt lat="46.25987" lon="4.8138">
        <ele>189.2</ele>
        <time>2024-09-19T10:30:01Z</time>
      </trkpt>
      <trkpt lat="46.25983" lon="4.81376">
        <ele>189.2</ele>
        <time>2024-09-19T10:30:02Z</time>
      </trkpt>
      <trkpt lat="46.25978" lon="4.81372">
        <ele>189.4</ele>
        <time>2024-09-19T10:30:03Z</time>
      </trkpt>
      <trkpt lat="46.25974" lon="4.81371">
        <ele>189.4</ele>
        <time>2024-09-19T10:30:04Z</time>
      </trkpt>
      <trkpt lat="46.25969" lon="4.81376">
        <ele>189.4</ele>
        <time>2024-09-19T10:30:05Z</time>
      </trkpt>
      <trkpt lat="46.25968" lon="4.81379">
        <ele>189.2</ele>
        <time>2024-09-19T10:30:06Z</time>
      </trkpt>
      <trkpt lat="46.25967" lon="4.81386">
        <ele>189.2</ele>
        <time>2024-09-19T10:30:07Z</time>
      </trkpt>
      <trkpt lat="46.25967" lon="4.81389">
        <ele>189.2</ele>
        <time>2024-09-19T10:30:08Z</time>
      </trkpt>
      <trkpt lat="46.25965" lon="4.81394">
        <ele>189.2</ele>
        <time>2024-09-19T10:30:09Z</time>
      </trkpt>
      <trkpt lat="46.25963" lon="4.81402">
        <ele>188.8</ele>
        <time>2024-09-19T10:30:10Z</time>
      </trkpt>
      <trkpt lat="46.25963" lon="4.81405">
        <ele>188.4</ele>
        <time>2024-09-19T10:30:11Z</time>
      </trkpt>
      <trkpt lat="46.25962" lon="4.8141">
        <ele>188.4</ele>
        <time>2024-09-19T10:30:12Z</time>
      </trkpt>
      <trkpt lat="46.25961" lon="4.81416">
        <ele>188.4</ele>
        <time>2024-09-19T10:30:13Z</time>
      </trkpt>
      <trkpt lat="46.25959" lon="4.81424">
        <ele>188.8</ele>
        <time>2024-09-19T10:30:14Z</time>
      </trkpt>
      <trkpt lat="46.25958" lon="4.81427">
        <ele>188.4</ele>
        <time>2024-09-19T10:30:15Z</time>
      </trkpt>
      <trkpt lat="46.25957" lon="4.81433">
        <ele>188.4</ele>
        <time>2024-09-19T10:30:16Z</time>
      </trkpt>
      <trkpt lat="46.25956" lon="4.81439">
        <ele>188.4</ele>
        <time>2024-09-19T10:30:17Z</time>
      </trkpt>
      <trkpt lat="46.25955" lon="4.81445">
        <ele>188.4</ele>
        <time>2024-09-19T10:30:18Z</time>
      </trkpt>
      <trkpt lat="46.25953" lon="4.81451">
        <ele>188.4</ele>
        <time>2024-09-19T10:30:19Z</time>
      </trkpt>
      <trkpt lat="46.25952" lon="4.81457">
        <ele>188.4</ele>
        <time>2024-09-19T10:30:20Z</time>
      </trkpt>
      <trkpt lat="46.25951" lon="4.81466">
        <ele>188.6</ele>
        <time>2024-09-19T10:30:21Z</time>
      </trkpt>
      <trkpt lat="46.2595" lon="4.81469">
        <ele>188.6</ele>
        <time>2024-09-19T10:30:22Z</time>
      </trkpt>
      <trkpt lat="46.25948" lon="4.81479">
        <ele>188.6</ele>
        <time>2024-09-19T10:30:23Z</time>
      </trkpt>
      <trkpt lat="46.25947" lon="4.81482">
        <ele>188.6</ele>
        <time>2024-09-19T10:30:24Z</time>
      </trkpt>
      <trkpt lat="46.25946" lon="4.81489">
        <ele>188</ele>
        <time>2024-09-19T10:30:25Z</time>
      </trkpt>
      <trkpt lat="46.25945" lon="4.81495">
        <ele>188</ele>
        <time>2024-09-19T10:30:26Z</time>
      </trkpt>
      <trkpt lat="46.25943" lon="4.81501">
        <ele>188</ele>
        <time>2024-09-19T10:30:27Z</time>
      </trkpt>
      <trkpt lat="46.25942" lon="4.81508">
        <ele>188</ele>
        <time>2024-09-19T10:30:28Z</time>
      </trkpt>
      <trkpt lat="46.25941" lon="4.81515">
        <ele>188</ele>
        <time>2024-09-19T10:30:29Z</time>
      </trkpt>
      <trkpt lat="46.25939" lon="4.81525">
        <ele>188.2</ele>
        <time>2024-09-19T10:30:30Z</time>
      </trkpt>
      <trkpt lat="46.25938" lon="4.81528">
        <ele>188.2</ele>
        <time>2024-09-19T10:30:31Z</time>
      </trkpt>
      <trkpt lat="46.25937" lon="4.81535">
        <ele>188.2</ele>
        <time>2024-09-19T10:30:32Z</time>
      </trkpt>
      <trkpt lat="46.25935" lon="4.81545">
        <ele>188.2</ele>
        <time>2024-09-19T10:30:33Z</time>
      </trkpt>
      <trkpt lat="46.25934" lon="4.81548">
        <ele>188</ele>
        <time>2024-09-19T10:30:34Z</time>
      </trkpt>
      <trkpt lat="46.25933" lon="4.81555">
        <ele>188</ele>
        <time>2024-09-19T10:30:35Z</time>
      </trkpt>
      <trkpt lat="46.25931" lon="4.81562">
        <ele>188</ele>
        <time>2024-09-19T10:30:36Z</time>
      </trkpt>
      <trkpt lat="46.2593" lon="4.81569">
        <ele>188</ele>
        <time>2024-09-19T10:30:37Z</time>
      </trkpt>
      <trkpt lat="46.25928" lon="4.81575">
        <ele>187.8</ele>
        <time>2024-09-19T10:30:38Z</time>
      </trkpt>
      <trkpt lat="46.25927" lon="4.81582">
        <ele>187.8</ele>
        <time>2024-09-19T10:30:39Z</time>
      </trkpt>
      <trkpt lat="46.25925" lon="4.81592">
        <ele>187.8</ele>
        <time>2024-09-19T10:30:40Z</time>
      </trkpt>
      <trkpt lat="46.25925" lon="4.81595">
        <ele>187.8</ele>
        <time>2024-09-19T10:30:41Z</time>
      </trkpt>
      <trkpt lat="46.25924" lon="4.81602">
        <ele>187.8</ele>
        <time>2024-09-19T10:30:42Z</time>
      </trkpt>
      <trkpt lat="46.25922" lon="4.81609">
        <ele>187.8</ele>
        <time>2024-09-19T10:30:43Z</time>
      </trkpt>
      <trkpt lat="46.2592" lon="4.81615">
        <ele>187.8</ele>
        <time>2024-09-19T10:30:44Z</time>
      </trkpt>
      <trkpt lat="46.25919" lon="4.81622">
        <ele>187.8</ele>
        <time>2024-09-19T10:30:45Z</time>
      </trkpt>
      <trkpt lat="46.25918" lon="4.81629">
        <ele>187.8</ele>
        <time>2024-09-19T10:30:46Z</time>
      </trkpt>
      <trkpt lat="46.25916" lon="4.81639">
        <ele>187.8</ele>
        <time>2024-09-19T10:30:47Z</time>
      </trkpt>
      <trkpt lat="46.25915" lon="4.81642">
        <ele>187.8</ele>
        <time>2024-09-19T10:30:48Z</time>
      </trkpt>
      <trkpt lat="46.25913" lon="4.81653">
        <ele>187.8</ele>
        <time>2024-09-19T10:30:49Z</time>
      </trkpt>
      <trkpt lat="46.25913" lon="4.81656">
        <ele>187.8</ele>
        <time>2024-09-19T10:30:50Z</time>
      </trkpt>
      <trkpt lat="46.25911" lon="4.81664">
        <ele>187.8</ele>
        <time>2024-09-19T10:30:51Z</time>
      </trkpt>
      <trkpt lat="46.25909" lon="4.81674">
        <ele>188.2</ele>
        <time>2024-09-19T10:30:52Z</time>
      </trkpt>
      <trkpt lat="46.25908" lon="4.81678">
        <ele>188.2</ele>
        <time>2024-09-19T10:30:53Z</time>
      </trkpt>
      <trkpt lat="46.25906" lon="4.81688">
        <ele>188.2</ele>
        <time>2024-09-19T10:30:54Z</time>
      </trkpt>
      <trkpt lat="46.25906" lon="4.81691">
        <ele>188.2</ele>
        <time>2024-09-19T10:30:55Z</time>
      </trkpt>
      <trkpt lat="46.25905" lon="4.81698">
        <ele>187.8</ele>
        <time>2024-09-19T10:30:56Z</time>
      </trkpt>
      <trkpt lat="46.25904" lon="4.81704">
        <ele>187.8</ele>
        <time>2024-09-19T10:30:57Z</time>
      </trkpt>
      <trkpt lat="46.25902" lon="4.81711">
        <ele>187.8</ele>
        <time>2024-09-19T10:30:58Z</time>
      </trkpt>
      <trkpt lat="46.25901" lon="4.81717">
        <ele>187.8</ele>
        <time>2024-09-19T10:30:59Z</time>
      </trkpt>
      <trkpt lat="46.259" lon="4.81724">
        <ele>188</ele>
        <time>2024-09-19T10:31:00Z</time>
      </trkpt>
      <trkpt lat="46.25898" lon="4.81733">
        <ele>188</ele>
        <time>2024-09-19T10:31:01Z</time>
      </trkpt>
      <trkpt lat="46.25897" lon="4.81737">
        <ele>188</ele>
        <time>2024-09-19T10:31:02Z</time>
      </trkpt>
      <trkpt lat="46.25895" lon="4.81746">
        <ele>188</ele>
        <time>2024-09-19T10:31:03Z</time>
      </trkpt>
      <trkpt lat="46.25894" lon="4.81749">
        <ele>188</ele>
        <time>2024-09-19T10:31:04Z</time>
      </trkpt>
      <trkpt lat="46.25889" lon="4.81755">
        <ele>188</ele>
        <time>2024-09-19T10:31:05Z</time>
      </trkpt>
      <trkpt lat="46.25887" lon="4.81756">
        <ele>187.8</ele>
        <time>2024-09-19T10:31:06Z</time>
      </trkpt>
      <trkpt lat="46.25882" lon="4.81757">
        <ele>187.8</ele>
        <time>2024-09-19T10:31:07Z</time>
      </trkpt>
      <trkpt lat="46.25878" lon="4.81757">
        <ele>187.8</ele>
        <time>2024-09-19T10:31:08Z</time>
      </trkpt>
      <trkpt lat="46.25873" lon="4.81756">
        <ele>188.2</ele>
        <time>2024-09-19T10:31:09Z</time>
      </trkpt>
      <trkpt lat="46.25869" lon="4.81754">
        <ele>187.8</ele>
        <time>2024-09-19T10:31:10Z</time>
      </trkpt>
      <trkpt lat="46.25865" lon="4.81752">
        <ele>187.8</ele>
        <time>2024-09-19T10:31:11Z</time>
      </trkpt>
      <trkpt lat="46.25858" lon="4.81749">
        <ele>187.8</ele>
        <time>2024-09-19T10:31:12Z</time>
      </trkpt>
      <trkpt lat="46.25856" lon="4.81749">
        <ele>188.2</ele>
        <time>2024-09-19T10:31:13Z</time>
      </trkpt>
      <trkpt lat="46.25852" lon="4.81747">
        <ele>188.2</ele>
        <time>2024-09-19T10:31:14Z</time>
      </trkpt>
      <trkpt lat="46.25845" lon="4.81744">
        <ele>187.8</ele>
        <time>2024-09-19T10:31:15Z</time>
      </trkpt>
      <trkpt lat="46.25843" lon="4.81743">
        <ele>187.8</ele>
        <time>2024-09-19T10:31:16Z</time>
      </trkpt>
      <trkpt lat="46.25839" lon="4.81741">
        <ele>187.8</ele>
        <time>2024-09-19T10:31:17Z</time>
      </trkpt>
      <trkpt lat="46.25834" lon="4.81739">
        <ele>188.4</ele>
        <time>2024-09-19T10:31:18Z</time>
      </trkpt>
      <trkpt lat="46.2583" lon="4.81737">
        <ele>188.6</ele>
        <time>2024-09-19T10:31:19Z</time>
      </trkpt>
      <trkpt lat="46.25826" lon="4.81736">
        <ele>188.6</ele>
        <time>2024-09-19T10:31:20Z</time>
      </trkpt>
      <trkpt lat="46.25821" lon="4.81734">
        <ele>188.6</ele>
        <time>2024-09-19T10:31:21Z</time>
      </trkpt>
      <trkpt lat="46.25815" lon="4.81731">
        <ele>188.2</ele>
        <time>2024-09-19T10:31:22Z</time>
      </trkpt>
      <trkpt lat="46.25813" lon="4.8173">
        <ele>187.8</ele>
        <time>2024-09-19T10:31:23Z</time>
      </trkpt>
      <trkpt lat="46.25806" lon="4.81727">
        <ele>187.8</ele>
        <time>2024-09-19T10:31:24Z</time>
      </trkpt>
      <trkpt lat="46.25804" lon="4.81726">
        <ele>187.8</ele>
        <time>2024-09-19T10:31:25Z</time>
      </trkpt>
      <trkpt lat="46.25797" lon="4.81722">
        <ele>187.8</ele>
        <time>2024-09-19T10:31:26Z</time>
      </trkpt>
      <trkpt lat="46.25795" lon="4.81721">
        <ele>188.6</ele>
        <time>2024-09-19T10:31:27Z</time>
      </trkpt>
      <trkpt lat="46.2579" lon="4.81719">
        <ele>188.2</ele>
        <time>2024-09-19T10:31:28Z</time>
      </trkpt>
      <trkpt lat="46.25783" lon="4.81715">
        <ele>188.2</ele>
        <time>2024-09-19T10:31:29Z</time>
      </trkpt>
      <trkpt lat="46.25781" lon="4.81714">
        <ele>188.2</ele>
        <time>2024-09-19T10:31:30Z</time>
      </trkpt>
      <trkpt lat="46.25774" lon="4.81712">
        <ele>188.6</ele>
        <time>2024-09-19T10:31:31Z</time>
      </trkpt>
      <trkpt lat="46.25772" lon="4.81712">
        <ele>188.2</ele>
        <time>2024-09-19T10:31:32Z</time>
      </trkpt>
      <trkpt lat="46.25767" lon="4.81712">
        <ele>188.2</ele>
        <time>2024-09-19T10:31:33Z</time>
      </trkpt>
      <trkpt lat="46.25762" lon="4.81717">
        <ele>188.2</ele>
        <time>2024-09-19T10:31:34Z</time>
      </trkpt>
      <trkpt lat="46.2576" lon="4.81719">
        <ele>188.2</ele>
        <time>2024-09-19T10:31:35Z</time>
      </trkpt>
      <trkpt lat="46.25759" lon="4.81725">
        <ele>188.4</ele>
        <time>2024-09-19T10:31:36Z</time>
      </trkpt>
      <trkpt lat="46.25758" lon="4.81731">
        <ele>188.4</ele>
        <time>2024-09-19T10:31:37Z</time>
      </trkpt>
      <trkpt lat="46.25757" lon="4.81736">
        <ele>188.4</ele>
        <time>2024-09-19T10:31:38Z</time>
      </trkpt>
      <trkpt lat="46.25756" lon="4.81742">
        <ele>188.4</ele>
        <time>2024-09-19T10:31:39Z</time>
      </trkpt>
      <trkpt lat="46.25754" lon="4.81751">
        <ele>188.4</ele>
        <time>2024-09-19T10:31:40Z</time>
      </trkpt>
      <trkpt lat="46.25754" lon="4.81755">
        <ele>188.2</ele>
        <time>2024-09-19T10:31:41Z</time>
      </trkpt>
      <trkpt lat="46.25753" lon="4.81761">
        <ele>188.2</ele>
        <time>2024-09-19T10:31:42Z</time>
      </trkpt>
      <trkpt lat="46.25751" lon="4.81767">
        <ele>188.2</ele>
        <time>2024-09-19T10:31:43Z</time>
      </trkpt>
      <trkpt lat="46.2575" lon="4.81773">
        <ele>188.2</ele>
        <time>2024-09-19T10:31:44Z</time>
      </trkpt>
      <trkpt lat="46.25749" lon="4.81782">
        <ele>188.2</ele>
        <time>2024-09-19T10:31:45Z</time>
      </trkpt>
      <trkpt lat="46.25748" lon="4.81786">
        <ele>188.2</ele>
        <time>2024-09-19T10:31:46Z</time>
      </trkpt>
      <trkpt lat="46.25747" lon="4.81792">
        <ele>187.8</ele>
        <time>2024-09-19T10:31:47Z</time>
      </trkpt>
      <trkpt lat="46.25744" lon="4.81802">
        <ele>187.8</ele>
        <time>2024-09-19T10:31:48Z</time>
      </trkpt>
      <trkpt lat="46.25743" lon="4.81805">
        <ele>187.8</ele>
        <time>2024-09-19T10:31:49Z</time>
      </trkpt>
      <trkpt lat="46.25742" lon="4.81811">
        <ele>187.8</ele>
        <time>2024-09-19T10:31:50Z</time>
      </trkpt>
      <trkpt lat="46.2574" lon="4.81818">
        <ele>188.4</ele>
        <time>2024-09-19T10:31:51Z</time>
      </trkpt>
      <trkpt lat="46.25738" lon="4.81824">
        <ele>188.4</ele>
        <time>2024-09-19T10:31:52Z</time>
      </trkpt>
      <trkpt lat="46.25737" lon="4.8183">
        <ele>188.4</ele>
        <time>2024-09-19T10:31:53Z</time>
      </trkpt>
      <trkpt lat="46.25735" lon="4.81837">
        <ele>188.4</ele>
        <time>2024-09-19T10:31:54Z</time>
      </trkpt>
      <trkpt lat="46.25733" lon="4.81846">
        <ele>187.8</ele>
        <time>2024-09-19T10:31:55Z</time>
      </trkpt>
      <trkpt lat="46.25732" lon="4.81849">
        <ele>187.8</ele>
        <time>2024-09-19T10:31:56Z</time>
      </trkpt>
      <trkpt lat="46.2573" lon="4.81856">
        <ele>187.8</ele>
        <time>2024-09-19T10:31:57Z</time>
      </trkpt>
      <trkpt lat="46.25728" lon="4.81865">
        <ele>187.8</ele>
        <time>2024-09-19T10:31:58Z</time>
      </trkpt>
      <trkpt lat="46.25727" lon="4.81868">
        <ele>188</ele>
        <time>2024-09-19T10:31:59Z</time>
      </trkpt>
      <trkpt lat="46.25725" lon="4.81874">
        <ele>188.4</ele>
        <time>2024-09-19T10:32:00Z</time>
      </trkpt>
      <trkpt lat="46.25723" lon="4.81881">
        <ele>188.4</ele>
        <time>2024-09-19T10:32:01Z</time>
      </trkpt>
      <trkpt lat="46.25721" lon="4.81887">
        <ele>188.4</ele>
        <time>2024-09-19T10:32:02Z</time>
      </trkpt>
      <trkpt lat="46.25719" lon="4.81893">
        <ele>188.4</ele>
        <time>2024-09-19T10:32:03Z</time>
      </trkpt>
      <trkpt lat="46.25717" lon="4.81899">
        <ele>188</ele>
        <time>2024-09-19T10:32:04Z</time>
      </trkpt>
      <trkpt lat="46.25714" lon="4.81908">
        <ele>188</ele>
        <time>2024-09-19T10:32:05Z</time>
      </trkpt>
      <trkpt lat="46.25713" lon="4.81911">
        <ele>188</ele>
        <time>2024-09-19T10:32:06Z</time>
      </trkpt>
      <trkpt lat="46.25711" lon="4.81917">
        <ele>188</ele>
        <time>2024-09-19T10:32:07Z</time>
      </trkpt>
      <trkpt lat="46.25709" lon="4.81923">
        <ele>188</ele>
        <time>2024-09-19T10:32:08Z</time>
      </trkpt>
      <trkpt lat="46.25703" lon="4.81929">
        <ele>188.2</ele>
        <time>2024-09-19T10:32:09Z</time>
      </trkpt>
      <trkpt lat="46.25701" lon="4.8193">
        <ele>188.2</ele>
        <time>2024-09-19T10:32:10Z</time>
      </trkpt>
      <trkpt lat="46.25697" lon="4.81931">
        <ele>188.2</ele>
        <time>2024-09-19T10:32:11Z</time>
      </trkpt>
      <trkpt lat="46.25693" lon="4.8193">
        <ele>188.2</ele>
        <time>2024-09-19T10:32:12Z</time>
      </trkpt>
      <trkpt lat="46.25689" lon="4.81929">
        <ele>188.2</ele>
        <time>2024-09-19T10:32:13Z</time>
      </trkpt>
      <trkpt lat="46.25683" lon="4.81926">
        <ele>188.2</ele>
        <time>2024-09-19T10:32:14Z</time>
      </trkpt>
      <trkpt lat="46.25681" lon="4.81925">
        <ele>188.2</ele>
        <time>2024-09-19T10:32:15Z</time>
      </trkpt>
      <trkpt lat="46.25675" lon="4.81922">
        <ele>188.2</ele>
        <time>2024-09-19T10:32:16Z</time>
      </trkpt>
      <trkpt lat="46.25673" lon="4.81921">
        <ele>188.2</ele>
        <time>2024-09-19T10:32:17Z</time>
      </trkpt>
      <trkpt lat="46.25669" lon="4.81919">
        <ele>188.6</ele>
        <time>2024-09-19T10:32:18Z</time>
      </trkpt>
      <trkpt lat="46.25664" lon="4.81916">
        <ele>188.6</ele>
        <time>2024-09-19T10:32:19Z</time>
      </trkpt>
      <trkpt lat="46.25663" lon="4.81916">
        <ele>188.6</ele>
        <time>2024-09-19T10:32:20Z</time>
      </trkpt>
      <trkpt lat="46.25661" lon="4.81914">
        <ele>188.6</ele>
        <time>2024-09-19T10:32:21Z</time>
      </trkpt>
      <trkpt lat="46.2566" lon="4.81913">
        <ele>188.6</ele>
        <time>2024-09-19T10:32:22Z</time>
      </trkpt>
      <trkpt lat="46.2566" lon="4.81912">
        <ele>188.4</ele>
        <time>2024-09-19T10:32:23Z</time>
      </trkpt>
      <trkpt lat="46.2566" lon="4.81912">
        <ele>188.4</ele>
        <time>2024-09-19T10:32:24Z</time>
      </trkpt>
      <trkpt lat="46.2566" lon="4.81912">
        <ele>188.2</ele>
        <time>2024-09-19T10:32:25Z</time>
      </trkpt>
      <trkpt lat="46.25655" lon="4.81912">
        <ele>188.2</ele>
        <time>2024-09-19T10:33:59Z</time>
      </trkpt>
      <trkpt lat="46.25654" lon="4.81911">
        <ele>188.2</ele>
        <time>2024-09-19T10:34:00Z</time>
      </trkpt>
      <trkpt lat="46.25653" lon="4.81911">
        <ele>188.2</ele>
        <time>2024-09-19T10:34:01Z</time>
      </trkpt>
      <trkpt lat="46.25651" lon="4.81911">
        <ele>188.2</ele>
        <time>2024-09-19T10:34:02Z</time>
      </trkpt>
      <trkpt lat="46.25649" lon="4.8191">
        <ele>188.4</ele>
        <time>2024-09-19T10:34:03Z</time>
      </trkpt>
      <trkpt lat="46.25647" lon="4.8191">
        <ele>188.4</ele>
        <time>2024-09-19T10:34:04Z</time>
      </trkpt>
      <trkpt lat="46.25644" lon="4.81909">
        <ele>188.4</ele>
        <time>2024-09-19T10:34:05Z</time>
      </trkpt>
      <trkpt lat="46.25642" lon="4.81909">
        <ele>188.2</ele>
        <time>2024-09-19T10:34:06Z</time>
      </trkpt>
      <trkpt lat="46.25639" lon="4.81908">
        <ele>188.2</ele>
        <time>2024-09-19T10:34:07Z</time>
      </trkpt>
      <trkpt lat="46.25636" lon="4.81907">
        <ele>188.2</ele>
        <time>2024-09-19T10:34:08Z</time>
      </trkpt>
      <trkpt lat="46.25632" lon="4.81906">
        <ele>188.2</ele>
        <time>2024-09-19T10:34:09Z</time>
      </trkpt>
      <trkpt lat="46.25629" lon="4.81905">
        <ele>188.2</ele>
        <time>2024-09-19T10:34:10Z</time>
      </trkpt>
      <trkpt lat="46.25625" lon="4.81904">
        <ele>188.2</ele>
        <time>2024-09-19T10:34:11Z</time>
      </trkpt>
      <trkpt lat="46.25622" lon="4.81903">
        <ele>188.6</ele>
        <time>2024-09-19T10:34:12Z</time>
      </trkpt>
      <trkpt lat="46.25616" lon="4.81902">
        <ele>188.6</ele>
        <time>2024-09-19T10:34:13Z</time>
      </trkpt>
      <trkpt lat="46.25614" lon="4.81901">
        <ele>188.6</ele>
        <time>2024-09-19T10:34:14Z</time>
      </trkpt>
      <trkpt lat="46.2561" lon="4.819">
        <ele>188.6</ele>
        <time>2024-09-19T10:34:15Z</time>
      </trkpt>
      <trkpt lat="46.25604" lon="4.81898">
        <ele>188.4</ele>
        <time>2024-09-19T10:34:16Z</time>
      </trkpt>
      <trkpt lat="46.25602" lon="4.81897">
        <ele>188.4</ele>
        <time>2024-09-19T10:34:17Z</time>
      </trkpt>
      <trkpt lat="46.25598" lon="4.81894">
        <ele>188.4</ele>
        <time>2024-09-19T10:34:18Z</time>
      </trkpt>
      <trkpt lat="46.25593" lon="4.81889">
        <ele>188.4</ele>
        <time>2024-09-19T10:34:19Z</time>
      </trkpt>
      <trkpt lat="46.25591" lon="4.81887">
        <ele>189.2</ele>
        <time>2024-09-19T10:34:20Z</time>
      </trkpt>
      <trkpt lat="46.25588" lon="4.81883">
        <ele>188.8</ele>
        <time>2024-09-19T10:34:21Z</time>
      </trkpt>
      <trkpt lat="46.25584" lon="4.81879">
        <ele>188.8</ele>
        <time>2024-09-19T10:34:22Z</time>
      </trkpt>
      <trkpt lat="46.25579" lon="4.81874">
        <ele>188.8</ele>
        <time>2024-09-19T10:34:23Z</time>
      </trkpt>
      <trkpt lat="46.25577" lon="4.81872">
        <ele>189.2</ele>
        <time>2024-09-19T10:34:24Z</time>
      </trkpt>
      <trkpt lat="46.25574" lon="4.81869">
        <ele>189.2</ele>
        <time>2024-09-19T10:34:25Z</time>
      </trkpt>
      <trkpt lat="46.2557" lon="4.81867">
        <ele>189</ele>
        <time>2024-09-19T10:34:26Z</time>
      </trkpt>
      <trkpt lat="46.25566" lon="4.81865">
        <ele>189</ele>
        <time>2024-09-19T10:34:27Z</time>
      </trkpt>
      <trkpt lat="46.2556" lon="4.81862">
        <ele>188.8</ele>
        <time>2024-09-19T10:34:28Z</time>
      </trkpt>
      <trkpt lat="46.25558" lon="4.81861">
        <ele>188.8</ele>
        <time>2024-09-19T10:34:29Z</time>
      </trkpt>
      <trkpt lat="46.25552" lon="4.81857">
        <ele>188.8</ele>
        <time>2024-09-19T10:34:30Z</time>
      </trkpt>
      <trkpt lat="46.2555" lon="4.81856">
        <ele>188.8</ele>
        <time>2024-09-19T10:34:31Z</time>
      </trkpt>
      <trkpt lat="46.25545" lon="4.81854">
        <ele>188.8</ele>
        <time>2024-09-19T10:34:32Z</time>
      </trkpt>
      <trkpt lat="46.25541" lon="4.81852">
        <ele>188.8</ele>
        <time>2024-09-19T10:34:33Z</time>
      </trkpt>
      <trkpt lat="46.25537" lon="4.8185">
        <ele>189</ele>
        <time>2024-09-19T10:34:34Z</time>
      </trkpt>
      <trkpt lat="46.25533" lon="4.81848">
        <ele>189</ele>
        <time>2024-09-19T10:34:35Z</time>
      </trkpt>
      <trkpt lat="46.25528" lon="4.81845">
        <ele>189</ele>
        <time>2024-09-19T10:34:36Z</time>
      </trkpt>
      <trkpt lat="46.25524" lon="4.81843">
        <ele>189</ele>
        <time>2024-09-19T10:34:37Z</time>
      </trkpt>
      <trkpt lat="46.25517" lon="4.81839">
        <ele>188.6</ele>
        <time>2024-09-19T10:34:38Z</time>
      </trkpt>
      <trkpt lat="46.25515" lon="4.81838">
        <ele>188.6</ele>
        <time>2024-09-19T10:34:39Z</time>
      </trkpt>
      <trkpt lat="46.25511" lon="4.81836">
        <ele>188.6</ele>
        <time>2024-09-19T10:34:40Z</time>
      </trkpt>
      <trkpt lat="46.25504" lon="4.81832">
        <ele>189.6</ele>
        <time>2024-09-19T10:34:41Z</time>
      </trkpt>
      <trkpt lat="46.25502" lon="4.81831">
        <ele>189.6</ele>
        <time>2024-09-19T10:34:42Z</time>
      </trkpt>
      <trkpt lat="46.25495" lon="4.81827">
        <ele>189.6</ele>
        <time>2024-09-19T10:34:43Z</time>
      </trkpt>
      <trkpt lat="46.25493" lon="4.81826">
        <ele>189.6</ele>
        <time>2024-09-19T10:34:44Z</time>
      </trkpt>
      <trkpt lat="46.25489" lon="4.81824">
        <ele>189.6</ele>
        <time>2024-09-19T10:34:45Z</time>
      </trkpt>
      <trkpt lat="46.25483" lon="4.8182">
        <ele>189.6</ele>
        <time>2024-09-19T10:34:46Z</time>
      </trkpt>
      <trkpt lat="46.2548" lon="4.81819">
        <ele>189.2</ele>
        <time>2024-09-19T10:34:47Z</time>
      </trkpt>
      <trkpt lat="46.25476" lon="4.81817">
        <ele>189.2</ele>
        <time>2024-09-19T10:34:48Z</time>
      </trkpt>
      <trkpt lat="46.25472" lon="4.81814">
        <ele>189.2</ele>
        <time>2024-09-19T10:34:49Z</time>
      </trkpt>
      <trkpt lat="46.25468" lon="4.81811">
        <ele>189.2</ele>
        <time>2024-09-19T10:34:50Z</time>
      </trkpt>
      <trkpt lat="46.25464" lon="4.81808">
        <ele>189</ele>
        <time>2024-09-19T10:34:51Z</time>
      </trkpt>
      <trkpt lat="46.25462" lon="4.81802">
        <ele>189</ele>
        <time>2024-09-19T10:34:52Z</time>
      </trkpt>
      <trkpt lat="46.2546" lon="4.81794">
        <ele>189.2</ele>
        <time>2024-09-19T10:34:53Z</time>
      </trkpt>
      <trkpt lat="46.2546" lon="4.8179">
        <ele>189.2</ele>
        <time>2024-09-19T10:34:54Z</time>
      </trkpt>
      <trkpt lat="46.2546" lon="4.81784">
        <ele>189.2</ele>
        <time>2024-09-19T10:34:55Z</time>
      </trkpt>
      <trkpt lat="46.25462" lon="4.81775">
        <ele>189.4</ele>
        <time>2024-09-19T10:34:56Z</time>
      </trkpt>
      <trkpt lat="46.25463" lon="4.81772">
        <ele>189.6</ele>
        <time>2024-09-19T10:34:57Z</time>
      </trkpt>
      <trkpt lat="46.25464" lon="4.81766">
        <ele>189.6</ele>
        <time>2024-09-19T10:34:58Z</time>
      </trkpt>
      <trkpt lat="46.25466" lon="4.8176">
        <ele>189.6</ele>
        <time>2024-09-19T10:34:59Z</time>
      </trkpt>
      <trkpt lat="46.25467" lon="4.81754">
        <ele>189.6</ele>
        <time>2024-09-19T10:35:00Z</time>
      </trkpt>
      <trkpt lat="46.25468" lon="4.81748">
        <ele>189.6</ele>
        <time>2024-09-19T10:35:01Z</time>
      </trkpt>
      <trkpt lat="46.2547" lon="4.81742">
        <ele>189.4</ele>
        <time>2024-09-19T10:35:02Z</time>
      </trkpt>
      <trkpt lat="46.25472" lon="4.81732">
        <ele>189.4</ele>
        <time>2024-09-19T10:35:03Z</time>
      </trkpt>
      <trkpt lat="46.25473" lon="4.81729">
        <ele>189.4</ele>
        <time>2024-09-19T10:35:04Z</time>
      </trkpt>
      <trkpt lat="46.25475" lon="4.81723">
        <ele>189.6</ele>
        <time>2024-09-19T10:35:05Z</time>
      </trkpt>
      <trkpt lat="46.25476" lon="4.81716">
        <ele>189.6</ele>
        <time>2024-09-19T10:35:06Z</time>
      </trkpt>
      <trkpt lat="46.25479" lon="4.81707">
        <ele>189.6</ele>
        <time>2024-09-19T10:35:07Z</time>
      </trkpt>
      <trkpt lat="46.25479" lon="4.81703">
        <ele>189.6</ele>
        <time>2024-09-19T10:35:08Z</time>
      </trkpt>
      <trkpt lat="46.25481" lon="4.81697">
        <ele>189.2</ele>
        <time>2024-09-19T10:35:09Z</time>
      </trkpt>
      <trkpt lat="46.25482" lon="4.81691">
        <ele>189.4</ele>
        <time>2024-09-19T10:35:10Z</time>
      </trkpt>
      <trkpt lat="46.25484" lon="4.81685">
        <ele>189.4</ele>
        <time>2024-09-19T10:35:11Z</time>
      </trkpt>
      <trkpt lat="46.25486" lon="4.81676">
        <ele>189.4</ele>
        <time>2024-09-19T10:35:12Z</time>
      </trkpt>
      <trkpt lat="46.25487" lon="4.81673">
        <ele>189.6</ele>
        <time>2024-09-19T10:35:13Z</time>
      </trkpt>
      <trkpt lat="46.2549" lon="4.81663">
        <ele>189.2</ele>
        <time>2024-09-19T10:35:14Z</time>
      </trkpt>
      <trkpt lat="46.25491" lon="4.8166">
        <ele>189.2</ele>
        <time>2024-09-19T10:35:15Z</time>
      </trkpt>
      <trkpt lat="46.25493" lon="4.81651">
        <ele>189.2</ele>
        <time>2024-09-19T10:35:16Z</time>
      </trkpt>
      <trkpt lat="46.25494" lon="4.81648">
        <ele>189.2</ele>
        <time>2024-09-19T10:35:17Z</time>
      </trkpt>
      <trkpt lat="46.25496" lon="4.81642">
        <ele>189.4</ele>
        <time>2024-09-19T10:35:18Z</time>
      </trkpt>
      <trkpt lat="46.25497" lon="4.81636">
        <ele>189.4</ele>
        <time>2024-09-19T10:35:19Z</time>
      </trkpt>
      <trkpt lat="46.25499" lon="4.8163">
        <ele>189.4</ele>
        <time>2024-09-19T10:35:20Z</time>
      </trkpt>
      <trkpt lat="46.255" lon="4.81624">
        <ele>189.4</ele>
        <time>2024-09-19T10:35:21Z</time>
      </trkpt>
      <trkpt lat="46.25499" lon="4.81618">
        <ele>189.2</ele>
        <time>2024-09-19T10:35:22Z</time>
      </trkpt>
      <trkpt lat="46.25496" lon="4.81612">
        <ele>188.8</ele>
        <time>2024-09-19T10:35:23Z</time>
      </trkpt>
      <trkpt lat="46.25492" lon="4.8161">
        <ele>188.8</ele>
        <time>2024-09-19T10:35:24Z</time>
      </trkpt>
      <trkpt lat="46.25485" lon="4.81609">
        <ele>188.8</ele>
        <time>2024-09-19T10:35:25Z</time>
      </trkpt>
      <trkpt lat="46.25483" lon="4.81608">
        <ele>188.8</ele>
        <time>2024-09-19T10:35:26Z</time>
      </trkpt>
      <trkpt lat="46.25479" lon="4.81608">
        <ele>188.8</ele>
        <time>2024-09-19T10:35:27Z</time>
      </trkpt>
      <trkpt lat="46.25476" lon="4.81608">
        <ele>188.8</ele>
        <time>2024-09-19T10:35:28Z</time>
      </trkpt>
      <trkpt lat="46.25472" lon="4.81607">
        <ele>188.8</ele>
        <time>2024-09-19T10:35:29Z</time>
      </trkpt>
      <trkpt lat="46.25469" lon="4.81607">
        <ele>188.8</ele>
        <time>2024-09-19T10:35:30Z</time>
      </trkpt>
      <trkpt lat="46.25463" lon="4.81606">
        <ele>188.8</ele>
        <time>2024-09-19T10:35:31Z</time>
      </trkpt>
      <trkpt lat="46.25461" lon="4.81606">
        <ele>188.8</ele>
        <time>2024-09-19T10:35:32Z</time>
      </trkpt>
      <trkpt lat="46.25457" lon="4.81606">
        <ele>189.2</ele>
        <time>2024-09-19T10:35:33Z</time>
      </trkpt>
      <trkpt lat="46.25453" lon="4.81606">
        <ele>189.2</ele>
        <time>2024-09-19T10:35:34Z</time>
      </trkpt>
      <trkpt lat="46.25448" lon="4.81605">
        <ele>189.2</ele>
        <time>2024-09-19T10:35:35Z</time>
      </trkpt>
      <trkpt lat="46.25442" lon="4.81604">
        <ele>189.2</ele>
        <time>2024-09-19T10:35:36Z</time>
      </trkpt>
      <trkpt lat="46.2544" lon="4.81604">
        <ele>189</ele>
        <time>2024-09-19T10:35:37Z</time>
      </trkpt>
      <trkpt lat="46.25435" lon="4.81604">
        <ele>189</ele>
        <time>2024-09-19T10:35:38Z</time>
      </trkpt>
      <trkpt lat="46.25428" lon="4.81603">
        <ele>189</ele>
        <time>2024-09-19T10:35:39Z</time>
      </trkpt>
      <trkpt lat="46.25426" lon="4.81603">
        <ele>189</ele>
        <time>2024-09-19T10:35:40Z</time>
      </trkpt>
      <trkpt lat="46.25422" lon="4.81603">
        <ele>189</ele>
        <time>2024-09-19T10:35:41Z</time>
      </trkpt>
      <trkpt lat="46.25417" lon="4.81602">
        <ele>189</ele>
        <time>2024-09-19T10:35:42Z</time>
      </trkpt>
      <trkpt lat="46.25413" lon="4.81602">
        <ele>189</ele>
        <time>2024-09-19T10:35:43Z</time>
      </trkpt>
      <trkpt lat="46.25409" lon="4.81602">
        <ele>189</ele>
        <time>2024-09-19T10:35:44Z</time>
      </trkpt>
      <trkpt lat="46.25404" lon="4.81601">
        <ele>189</ele>
        <time>2024-09-19T10:35:45Z</time>
      </trkpt>
      <trkpt lat="46.25398" lon="4.816">
        <ele>188.8</ele>
        <time>2024-09-19T10:35:46Z</time>
      </trkpt>
      <trkpt lat="46.25395" lon="4.816">
        <ele>188.8</ele>
        <time>2024-09-19T10:35:47Z</time>
      </trkpt>
      <trkpt lat="46.25391" lon="4.81599">
        <ele>188.8</ele>
        <time>2024-09-19T10:35:48Z</time>
      </trkpt>
      <trkpt lat="46.25386" lon="4.81599">
        <ele>188.8</ele>
        <time>2024-09-19T10:35:49Z</time>
      </trkpt>
      <trkpt lat="46.25379" lon="4.81598">
        <ele>188.8</ele>
        <time>2024-09-19T10:35:50Z</time>
      </trkpt>
      <trkpt lat="46.25377" lon="4.81597">
        <ele>188.8</ele>
        <time>2024-09-19T10:35:51Z</time>
      </trkpt>
      <trkpt lat="46.25372" lon="4.81597">
        <ele>188.8</ele>
        <time>2024-09-19T10:35:52Z</time>
      </trkpt>
      <trkpt lat="46.25368" lon="4.81596">
        <ele>188.8</ele>
        <time>2024-09-19T10:35:53Z</time>
      </trkpt>
      <trkpt lat="46.25363" lon="4.81596">
        <ele>188.8</ele>
        <time>2024-09-19T10:35:54Z</time>
      </trkpt>
      <trkpt lat="46.25356" lon="4.81597">
        <ele>188.6</ele>
        <time>2024-09-19T10:35:55Z</time>
      </trkpt>
      <trkpt lat="46.25353" lon="4.81598">
        <ele>188.6</ele>
        <time>2024-09-19T10:35:56Z</time>
      </trkpt>
      <trkpt lat="46.25347" lon="4.81603">
        <ele>188.6</ele>
        <time>2024-09-19T10:35:57Z</time>
      </trkpt>
      <trkpt lat="46.25346" lon="4.81606">
        <ele>189</ele>
        <time>2024-09-19T10:35:58Z</time>
      </trkpt>
      <trkpt lat="46.25343" lon="4.81611">
        <ele>189</ele>
        <time>2024-09-19T10:35:59Z</time>
      </trkpt>
      <trkpt lat="46.2534" lon="4.81619">
        <ele>189.2</ele>
        <time>2024-09-19T10:36:00Z</time>
      </trkpt>
      <trkpt lat="46.2534" lon="4.81622">
        <ele>189.2</ele>
        <time>2024-09-19T10:36:01Z</time>
      </trkpt>
      <trkpt lat="46.25338" lon="4.81627">
        <ele>189.2</ele>
        <time>2024-09-19T10:36:02Z</time>
      </trkpt>
      <trkpt lat="46.25337" lon="4.81633">
        <ele>189.2</ele>
        <time>2024-09-19T10:36:03Z</time>
      </trkpt>
      <trkpt lat="46.25335" lon="4.81641">
        <ele>189</ele>
        <time>2024-09-19T10:36:04Z</time>
      </trkpt>
      <trkpt lat="46.25334" lon="4.81644">
        <ele>189</ele>
        <time>2024-09-19T10:36:05Z</time>
      </trkpt>
      <trkpt lat="46.25333" lon="4.81649">
        <ele>189</ele>
        <time>2024-09-19T10:36:06Z</time>
      </trkpt>
      <trkpt lat="46.25331" lon="4.81655">
        <ele>188.6</ele>
        <time>2024-09-19T10:36:07Z</time>
      </trkpt>
      <trkpt lat="46.2533" lon="4.81662">
        <ele>188.6</ele>
        <time>2024-09-19T10:36:08Z</time>
      </trkpt>
      <trkpt lat="46.25328" lon="4.81671">
        <ele>188.6</ele>
        <time>2024-09-19T10:36:09Z</time>
      </trkpt>
      <trkpt lat="46.25327" lon="4.81674">
        <ele>188.6</ele>
        <time>2024-09-19T10:36:10Z</time>
      </trkpt>
      <trkpt lat="46.25325" lon="4.81684">
        <ele>188.6</ele>
        <time>2024-09-19T10:36:11Z</time>
      </trkpt>
      <trkpt lat="46.25324" lon="4.81687">
        <ele>188.6</ele>
        <time>2024-09-19T10:36:12Z</time>
      </trkpt>
      <trkpt lat="46.25322" lon="4.81693">
        <ele>188.6</ele>
        <time>2024-09-19T10:36:13Z</time>
      </trkpt>
      <trkpt lat="46.2532" lon="4.81702">
        <ele>188.6</ele>
        <time>2024-09-19T10:36:14Z</time>
      </trkpt>
      <trkpt lat="46.2532" lon="4.81706">
        <ele>188.6</ele>
        <time>2024-09-19T10:36:15Z</time>
      </trkpt>
      <trkpt lat="46.25318" lon="4.81712">
        <ele>188.6</ele>
        <time>2024-09-19T10:36:16Z</time>
      </trkpt>
      <trkpt lat="46.25317" lon="4.81719">
        <ele>188.6</ele>
        <time>2024-09-19T10:36:17Z</time>
      </trkpt>
      <trkpt lat="46.25315" lon="4.81725">
        <ele>188.6</ele>
        <time>2024-09-19T10:36:18Z</time>
      </trkpt>
      <trkpt lat="46.25314" lon="4.81731">
        <ele>188.6</ele>
        <time>2024-09-19T10:36:19Z</time>
      </trkpt>
      <trkpt lat="46.25313" lon="4.81737">
        <ele>188.6</ele>
        <time>2024-09-19T10:36:20Z</time>
      </trkpt>
      <trkpt lat="46.25311" lon="4.81746">
        <ele>188.6</ele>
        <time>2024-09-19T10:36:21Z</time>
      </trkpt>
      <trkpt lat="46.2531" lon="4.8175">
        <ele>188.8</ele>
        <time>2024-09-19T10:36:22Z</time>
      </trkpt>
      <trkpt lat="46.25309" lon="4.81756">
        <ele>188.8</ele>
        <time>2024-09-19T10:36:23Z</time>
      </trkpt>
      <trkpt lat="46.25308" lon="4.81765">
        <ele>188.8</ele>
        <time>2024-09-19T10:36:24Z</time>
      </trkpt>
      <trkpt lat="46.25308" lon="4.81769">
        <ele>188.8</ele>
        <time>2024-09-19T10:36:25Z</time>
      </trkpt>
      <trkpt lat="46.2531" lon="4.81775">
        <ele>188.2</ele>
        <time>2024-09-19T10:36:26Z</time>
      </trkpt>
      <trkpt lat="46.25312" lon="4.81782">
        <ele>188.2</ele>
        <time>2024-09-19T10:36:27Z</time>
      </trkpt>
      <trkpt lat="46.25316" lon="4.81787">
        <ele>188.2</ele>
        <time>2024-09-19T10:36:28Z</time>
      </trkpt>
      <trkpt lat="46.2532" lon="4.81792">
        <ele>188.2</ele>
        <time>2024-09-19T10:36:29Z</time>
      </trkpt>
      <trkpt lat="46.25324" lon="4.81796">
        <ele>188</ele>
        <time>2024-09-19T10:36:30Z</time>
      </trkpt>
      <trkpt lat="46.25327" lon="4.81801">
        <ele>187.8</ele>
        <time>2024-09-19T10:36:31Z</time>
      </trkpt>
      <trkpt lat="46.2533" lon="4.81806">
        <ele>187.8</ele>
        <time>2024-09-19T10:36:32Z</time>
      </trkpt>
      <trkpt lat="46.25331" lon="4.81812">
        <ele>187.8</ele>
        <time>2024-09-19T10:36:33Z</time>
      </trkpt>
      <trkpt lat="46.25331" lon="4.81821">
        <ele>187.8</ele>
        <time>2024-09-19T10:36:34Z</time>
      </trkpt>
      <trkpt lat="46.25331" lon="4.81824">
        <ele>187.8</ele>
        <time>2024-09-19T10:36:35Z</time>
      </trkpt>
      <trkpt lat="46.2533" lon="4.8183">
        <ele>188.4</ele>
        <time>2024-09-19T10:36:36Z</time>
      </trkpt>
      <trkpt lat="46.25329" lon="4.81836">
        <ele>188.4</ele>
        <time>2024-09-19T10:36:37Z</time>
      </trkpt>
      <trkpt lat="46.25327" lon="4.81843">
        <ele>188.4</ele>
        <time>2024-09-19T10:36:38Z</time>
      </trkpt>
      <trkpt lat="46.25326" lon="4.81852">
        <ele>188</ele>
        <time>2024-09-19T10:36:39Z</time>
      </trkpt>
      <trkpt lat="46.25325" lon="4.81855">
        <ele>187.8</ele>
        <time>2024-09-19T10:36:40Z</time>
      </trkpt>
      <trkpt lat="46.25324" lon="4.81865">
        <ele>187.8</ele>
        <time>2024-09-19T10:36:41Z</time>
      </trkpt>
      <trkpt lat="46.25323" lon="4.81868">
        <ele>187.8</ele>
        <time>2024-09-19T10:36:42Z</time>
      </trkpt>
      <trkpt lat="46.25322" lon="4.81875">
        <ele>187.8</ele>
        <time>2024-09-19T10:36:43Z</time>
      </trkpt>
      <trkpt lat="46.25321" lon="4.81885">
        <ele>187.8</ele>
        <time>2024-09-19T10:36:44Z</time>
      </trkpt>
      <trkpt lat="46.2532" lon="4.81888">
        <ele>187.8</ele>
        <time>2024-09-19T10:36:45Z</time>
      </trkpt>
      <trkpt lat="46.25319" lon="4.81894">
        <ele>187.8</ele>
        <time>2024-09-19T10:36:46Z</time>
      </trkpt>
      <trkpt lat="46.25318" lon="4.81901">
        <ele>187.8</ele>
        <time>2024-09-19T10:36:47Z</time>
      </trkpt>
      <trkpt lat="46.25316" lon="4.81911">
        <ele>188</ele>
        <time>2024-09-19T10:36:48Z</time>
      </trkpt>
      <trkpt lat="46.25316" lon="4.81914">
        <ele>187.8</ele>
        <time>2024-09-19T10:36:49Z</time>
      </trkpt>
      <trkpt lat="46.25315" lon="4.81921">
        <ele>187.8</ele>
        <time>2024-09-19T10:36:50Z</time>
      </trkpt>
      <trkpt lat="46.25313" lon="4.81931">
        <ele>187.8</ele>
        <time>2024-09-19T10:36:51Z</time>
      </trkpt>
      <trkpt lat="46.25312" lon="4.81935">
        <ele>188</ele>
        <time>2024-09-19T10:36:52Z</time>
      </trkpt>
      <trkpt lat="46.25311" lon="4.81941">
        <ele>188</ele>
        <time>2024-09-19T10:36:53Z</time>
      </trkpt>
      <trkpt lat="46.25311" lon="4.81948">
        <ele>188</ele>
        <time>2024-09-19T10:36:54Z</time>
      </trkpt>
      <trkpt lat="46.25309" lon="4.81958">
        <ele>188</ele>
        <time>2024-09-19T10:36:55Z</time>
      </trkpt>
      <trkpt lat="46.25309" lon="4.81962">
        <ele>188</ele>
        <time>2024-09-19T10:36:56Z</time>
      </trkpt>
      <trkpt lat="46.25308" lon="4.81969">
        <ele>188</ele>
        <time>2024-09-19T10:36:57Z</time>
      </trkpt>
      <trkpt lat="46.25306" lon="4.81978">
        <ele>188</ele>
        <time>2024-09-19T10:36:58Z</time>
      </trkpt>
      <trkpt lat="46.25305" lon="4.81982">
        <ele>187.8</ele>
        <time>2024-09-19T10:36:59Z</time>
      </trkpt>
      <trkpt lat="46.25304" lon="4.81989">
        <ele>187.8</ele>
        <time>2024-09-19T10:37:00Z</time>
      </trkpt>
      <trkpt lat="46.25304" lon="4.81995">
        <ele>187.8</ele>
        <time>2024-09-19T10:37:01Z</time>
      </trkpt>
      <trkpt lat="46.25302" lon="4.82002">
        <ele>187.8</ele>
        <time>2024-09-19T10:37:02Z</time>
      </trkpt>
      <trkpt lat="46.253" lon="4.82011">
        <ele>188.2</ele>
        <time>2024-09-19T10:37:03Z</time>
      </trkpt>
      <trkpt lat="46.25299" lon="4.82013">
        <ele>188.2</ele>
        <time>2024-09-19T10:37:04Z</time>
      </trkpt>
      <trkpt lat="46.25295" lon="4.82017">
        <ele>188.2</ele>
        <time>2024-09-19T10:37:05Z</time>
      </trkpt>
      <trkpt lat="46.25289" lon="4.82017">
        <ele>188.2</ele>
        <time>2024-09-19T10:37:06Z</time>
      </trkpt>
      <trkpt lat="46.25287" lon="4.82017">
        <ele>188.2</ele>
        <time>2024-09-19T10:37:07Z</time>
      </trkpt>
      <trkpt lat="46.25283" lon="4.82015">
        <ele>188</ele>
        <time>2024-09-19T10:37:08Z</time>
      </trkpt>
      <trkpt lat="46.25278" lon="4.82014">
        <ele>188</ele>
        <time>2024-09-19T10:37:09Z</time>
      </trkpt>
      <trkpt lat="46.25274" lon="4.82012">
        <ele>188</ele>
        <time>2024-09-19T10:37:10Z</time>
      </trkpt>
      <trkpt lat="46.2527" lon="4.8201">
        <ele>188</ele>
        <time>2024-09-19T10:37:11Z</time>
      </trkpt>
      <trkpt lat="46.25265" lon="4.82008">
        <ele>188</ele>
        <time>2024-09-19T10:37:12Z</time>
      </trkpt>
      <trkpt lat="46.25259" lon="4.82005">
        <ele>188</ele>
        <time>2024-09-19T10:37:13Z</time>
      </trkpt>
      <trkpt lat="46.25256" lon="4.82004">
        <ele>188</ele>
        <time>2024-09-19T10:37:14Z</time>
      </trkpt>
      <trkpt lat="46.25252" lon="4.82003">
        <ele>188</ele>
        <time>2024-09-19T10:37:15Z</time>
      </trkpt>
      <trkpt lat="46.25247" lon="4.82001">
        <ele>188</ele>
        <time>2024-09-19T10:37:16Z</time>
      </trkpt>
      <trkpt lat="46.2524" lon="4.81999">
        <ele>188</ele>
        <time>2024-09-19T10:37:17Z</time>
      </trkpt>
      <trkpt lat="46.25238" lon="4.81998">
        <ele>188</ele>
        <time>2024-09-19T10:37:18Z</time>
      </trkpt>
      <trkpt lat="46.25233" lon="4.81996">
        <ele>188</ele>
        <time>2024-09-19T10:37:19Z</time>
      </trkpt>
      <trkpt lat="46.25229" lon="4.81995">
        <ele>188.4</ele>
        <time>2024-09-19T10:37:20Z</time>
      </trkpt>
      <trkpt lat="46.25224" lon="4.81993">
        <ele>188.2</ele>
        <time>2024-09-19T10:37:21Z</time>
      </trkpt>
      <trkpt lat="46.25217" lon="4.8199">
        <ele>188.2</ele>
        <time>2024-09-19T10:37:22Z</time>
      </trkpt>
      <trkpt lat="46.25215" lon="4.81989">
        <ele>188.2</ele>
        <time>2024-09-19T10:37:23Z</time>
      </trkpt>
      <trkpt lat="46.25208" lon="4.81987">
        <ele>188.2</ele>
        <time>2024-09-19T10:37:24Z</time>
      </trkpt>
      <trkpt lat="46.25206" lon="4.81986">
        <ele>188.2</ele>
        <time>2024-09-19T10:37:25Z</time>
      </trkpt>
      <trkpt lat="46.25202" lon="4.81984">
        <ele>188.2</ele>
        <time>2024-09-19T10:37:26Z</time>
      </trkpt>
      <trkpt lat="46.25195" lon="4.81982">
        <ele>188.2</ele>
        <time>2024-09-19T10:37:27Z</time>
      </trkpt>
      <trkpt lat="46.25192" lon="4.81981">
        <ele>188.2</ele>
        <time>2024-09-19T10:37:28Z</time>
      </trkpt>
      <trkpt lat="46.25185" lon="4.81978">
        <ele>188.4</ele>
        <time>2024-09-19T10:37:29Z</time>
      </trkpt>
      <trkpt lat="46.25183" lon="4.81977">
        <ele>188.4</ele>
        <time>2024-09-19T10:37:30Z</time>
      </trkpt>
      <trkpt lat="46.25176" lon="4.81975">
        <ele>188.4</ele>
        <time>2024-09-19T10:37:31Z</time>
      </trkpt>
      <trkpt lat="46.25174" lon="4.81974">
        <ele>188.4</ele>
        <time>2024-09-19T10:37:32Z</time>
      </trkpt>
      <trkpt lat="46.2517" lon="4.81972">
        <ele>188.4</ele>
        <time>2024-09-19T10:37:33Z</time>
      </trkpt>
      <trkpt lat="46.25165" lon="4.8197">
        <ele>188.4</ele>
        <time>2024-09-19T10:37:34Z</time>
      </trkpt>
      <trkpt lat="46.2516" lon="4.81969">
        <ele>188.4</ele>
        <time>2024-09-19T10:37:35Z</time>
      </trkpt>
      <trkpt lat="46.25156" lon="4.81967">
        <ele>188.4</ele>
        <time>2024-09-19T10:37:36Z</time>
      </trkpt>
      <trkpt lat="46.25151" lon="4.81965">
        <ele>188.4</ele>
        <time>2024-09-19T10:37:37Z</time>
      </trkpt>
      <trkpt lat="46.25144" lon="4.81963">
        <ele>188.4</ele>
        <time>2024-09-19T10:37:38Z</time>
      </trkpt>
      <trkpt lat="46.25142" lon="4.81962">
        <ele>188.4</ele>
        <time>2024-09-19T10:37:39Z</time>
      </trkpt>
      <trkpt lat="46.25137" lon="4.8196">
        <ele>188.8</ele>
        <time>2024-09-19T10:37:40Z</time>
      </trkpt>
      <trkpt lat="46.2513" lon="4.81957">
        <ele>188.8</ele>
        <time>2024-09-19T10:37:41Z</time>
      </trkpt>
      <trkpt lat="46.25128" lon="4.81957">
        <ele>188.8</ele>
        <time>2024-09-19T10:37:42Z</time>
      </trkpt>
      <trkpt lat="46.25123" lon="4.81955">
        <ele>188.2</ele>
        <time>2024-09-19T10:37:43Z</time>
      </trkpt>
      <trkpt lat="46.25118" lon="4.81953">
        <ele>187.8</ele>
        <time>2024-09-19T10:37:44Z</time>
      </trkpt>
      <trkpt lat="46.25113" lon="4.81951">
        <ele>187.8</ele>
        <time>2024-09-19T10:37:45Z</time>
      </trkpt>
      <trkpt lat="46.25106" lon="4.81949">
        <ele>187.8</ele>
        <time>2024-09-19T10:37:46Z</time>
      </trkpt>
      <trkpt lat="46.25104" lon="4.81948">
        <ele>188.2</ele>
        <time>2024-09-19T10:37:47Z</time>
      </trkpt>
      <trkpt lat="46.25099" lon="4.81946">
        <ele>188.2</ele>
        <time>2024-09-19T10:37:48Z</time>
      </trkpt>
      <trkpt lat="46.25092" lon="4.81943">
        <ele>188.4</ele>
        <time>2024-09-19T10:37:49Z</time>
      </trkpt>
      <trkpt lat="46.2509" lon="4.81943">
        <ele>188.4</ele>
        <time>2024-09-19T10:37:50Z</time>
      </trkpt>
      <trkpt lat="46.25085" lon="4.81941">
        <ele>188.4</ele>
        <time>2024-09-19T10:37:51Z</time>
      </trkpt>
      <trkpt lat="46.2508" lon="4.81939">
        <ele>188.4</ele>
        <time>2024-09-19T10:37:52Z</time>
      </trkpt>
      <trkpt lat="46.25075" lon="4.81937">
        <ele>188.6</ele>
        <time>2024-09-19T10:37:53Z</time>
      </trkpt>
      <trkpt lat="46.25071" lon="4.81935">
        <ele>188.6</ele>
        <time>2024-09-19T10:37:54Z</time>
      </trkpt>
      <trkpt lat="46.25066" lon="4.81933">
        <ele>188.6</ele>
        <time>2024-09-19T10:37:55Z</time>
      </trkpt>
      <trkpt lat="46.25058" lon="4.8193">
        <ele>188.4</ele>
        <time>2024-09-19T10:37:56Z</time>
      </trkpt>
      <trkpt lat="46.25056" lon="4.81929">
        <ele>188.6</ele>
        <time>2024-09-19T10:37:57Z</time>
      </trkpt>
      <trkpt lat="46.25051" lon="4.81927">
        <ele>188.6</ele>
        <time>2024-09-19T10:37:58Z</time>
      </trkpt>
      <trkpt lat="46.25046" lon="4.81926">
        <ele>188.6</ele>
        <time>2024-09-19T10:37:59Z</time>
      </trkpt>
      <trkpt lat="46.25039" lon="4.81923">
        <ele>188.6</ele>
        <time>2024-09-19T10:38:00Z</time>
      </trkpt>
      <trkpt lat="46.25037" lon="4.81922">
        <ele>188.4</ele>
        <time>2024-09-19T10:38:01Z</time>
      </trkpt>
      <trkpt lat="46.25029" lon="4.8192">
        <ele>188.4</ele>
        <time>2024-09-19T10:38:02Z</time>
      </trkpt>
      <trkpt lat="46.25027" lon="4.81919">
        <ele>188.4</ele>
        <time>2024-09-19T10:38:03Z</time>
      </trkpt>
      <trkpt lat="46.25022" lon="4.81917">
        <ele>188.4</ele>
        <time>2024-09-19T10:38:04Z</time>
      </trkpt>
      <trkpt lat="46.25015" lon="4.81914">
        <ele>188.4</ele>
        <time>2024-09-19T10:38:05Z</time>
      </trkpt>
      <trkpt lat="46.25013" lon="4.81914">
        <ele>188.4</ele>
        <time>2024-09-19T10:38:06Z</time>
      </trkpt>
      <trkpt lat="46.25006" lon="4.81911">
        <ele>188.4</ele>
        <time>2024-09-19T10:38:07Z</time>
      </trkpt>
      <trkpt lat="46.25003" lon="4.8191">
        <ele>188.4</ele>
        <time>2024-09-19T10:38:08Z</time>
      </trkpt>
      <trkpt lat="46.24998" lon="4.81909">
        <ele>188.4</ele>
        <time>2024-09-19T10:38:09Z</time>
      </trkpt>
      <trkpt lat="46.24991" lon="4.81906">
        <ele>188.4</ele>
        <time>2024-09-19T10:38:10Z</time>
      </trkpt>
      <trkpt lat="46.24989" lon="4.81906">
        <ele>188.4</ele>
        <time>2024-09-19T10:38:11Z</time>
      </trkpt>
      <trkpt lat="46.24982" lon="4.81903">
        <ele>188.4</ele>
        <time>2024-09-19T10:38:12Z</time>
      </trkpt>
      <trkpt lat="46.2498" lon="4.81902">
        <ele>188.4</ele>
        <time>2024-09-19T10:38:13Z</time>
      </trkpt>
      <trkpt lat="46.24975" lon="4.819">
        <ele>188.2</ele>
        <time>2024-09-19T10:38:14Z</time>
      </trkpt>
      <trkpt lat="46.24971" lon="4.81898">
        <ele>188.4</ele>
        <time>2024-09-19T10:38:15Z</time>
      </trkpt>
      <trkpt lat="46.24967" lon="4.81896">
        <ele>188.4</ele>
        <time>2024-09-19T10:38:16Z</time>
      </trkpt>
      <trkpt lat="46.24963" lon="4.81893">
        <ele>188.4</ele>
        <time>2024-09-19T10:38:17Z</time>
      </trkpt>
      <trkpt lat="46.24959" lon="4.8189">
        <ele>187.8</ele>
        <time>2024-09-19T10:38:18Z</time>
      </trkpt>
      <trkpt lat="46.24955" lon="4.81881">
        <ele>187.4</ele>
        <time>2024-09-19T10:38:19Z</time>
      </trkpt>
      <trkpt lat="46.24955" lon="4.81878">
        <ele>187.4</ele>
        <time>2024-09-19T10:38:20Z</time>
      </trkpt>
      <trkpt lat="46.24956" lon="4.81868">
        <ele>187.4</ele>
        <time>2024-09-19T10:38:21Z</time>
      </trkpt>
      <trkpt lat="46.24957" lon="4.81866">
        <ele>187.4</ele>
        <time>2024-09-19T10:38:22Z</time>
      </trkpt>
      <trkpt lat="46.24959" lon="4.8186">
        <ele>187.6</ele>
        <time>2024-09-19T10:38:23Z</time>
      </trkpt>
      <trkpt lat="46.24962" lon="4.81853">
        <ele>187.6</ele>
        <time>2024-09-19T10:38:24Z</time>
      </trkpt>
      <trkpt lat="46.24963" lon="4.81851">
        <ele>187.4</ele>
        <time>2024-09-19T10:38:25Z</time>
      </trkpt>
      <trkpt lat="46.24965" lon="4.81846">
        <ele>187.4</ele>
        <time>2024-09-19T10:38:26Z</time>
      </trkpt>
      <trkpt lat="46.24967" lon="4.81841">
        <ele>187.4</ele>
        <time>2024-09-19T10:38:27Z</time>
      </trkpt>
      <trkpt lat="46.24968" lon="4.81836">
        <ele>187.6</ele>
        <time>2024-09-19T10:38:28Z</time>
      </trkpt>
      <trkpt lat="46.2497" lon="4.8183">
        <ele>187.6</ele>
        <time>2024-09-19T10:38:29Z</time>
      </trkpt>
      <trkpt lat="46.24972" lon="4.81825">
        <ele>187.6</ele>
        <time>2024-09-19T10:38:30Z</time>
      </trkpt>
      <trkpt lat="46.24975" lon="4.81816">
        <ele>187.6</ele>
        <time>2024-09-19T10:38:31Z</time>
      </trkpt>
      <trkpt lat="46.24976" lon="4.81813">
        <ele>187.6</ele>
        <time>2024-09-19T10:38:32Z</time>
      </trkpt>
      <trkpt lat="46.24979" lon="4.81807">
        <ele>187.6</ele>
        <time>2024-09-19T10:38:33Z</time>
      </trkpt>
      <trkpt lat="46.24982" lon="4.81798">
        <ele>187.6</ele>
        <time>2024-09-19T10:38:34Z</time>
      </trkpt>
      <trkpt lat="46.24983" lon="4.81795">
        <ele>187.6</ele>
        <time>2024-09-19T10:38:35Z</time>
      </trkpt>
      <trkpt lat="46.24985" lon="4.81789">
        <ele>187.6</ele>
        <time>2024-09-19T10:38:36Z</time>
      </trkpt>
      <trkpt lat="46.24987" lon="4.81782">
        <ele>187.8</ele>
        <time>2024-09-19T10:38:37Z</time>
      </trkpt>
      <trkpt lat="46.24989" lon="4.81776">
        <ele>187.8</ele>
        <time>2024-09-19T10:38:38Z</time>
      </trkpt>
      <trkpt lat="46.24992" lon="4.81767">
        <ele>187.8</ele>
        <time>2024-09-19T10:38:39Z</time>
      </trkpt>
      <trkpt lat="46.24993" lon="4.81764">
        <ele>187.8</ele>
        <time>2024-09-19T10:38:40Z</time>
      </trkpt>
      <trkpt lat="46.24995" lon="4.81758">
        <ele>187.6</ele>
        <time>2024-09-19T10:38:41Z</time>
      </trkpt>
      <trkpt lat="46.24998" lon="4.81749">
        <ele>187.6</ele>
        <time>2024-09-19T10:38:42Z</time>
      </trkpt>
      <trkpt lat="46.24999" lon="4.81747">
        <ele>187.6</ele>
        <time>2024-09-19T10:38:43Z</time>
      </trkpt>
      <trkpt lat="46.25" lon="4.81741">
        <ele>187.6</ele>
        <time>2024-09-19T10:38:44Z</time>
      </trkpt>
      <trkpt lat="46.24999" lon="4.81732">
        <ele>187.6</ele>
        <time>2024-09-19T10:38:45Z</time>
      </trkpt>
      <trkpt lat="46.24998" lon="4.81729">
        <ele>187.6</ele>
        <time>2024-09-19T10:38:46Z</time>
      </trkpt>
      <trkpt lat="46.24995" lon="4.81726">
        <ele>187.4</ele>
        <time>2024-09-19T10:38:47Z</time>
      </trkpt>
      <trkpt lat="46.2499" lon="4.81723">
        <ele>187.4</ele>
        <time>2024-09-19T10:38:48Z</time>
      </trkpt>
      <trkpt lat="46.24988" lon="4.81722">
        <ele>187.4</ele>
        <time>2024-09-19T10:38:49Z</time>
      </trkpt>
      <trkpt lat="46.24983" lon="4.8172">
        <ele>187.6</ele>
        <time>2024-09-19T10:38:50Z</time>
      </trkpt>
      <trkpt lat="46.24981" lon="4.8172">
        <ele>187.6</ele>
        <time>2024-09-19T10:38:51Z</time>
      </trkpt>
      <trkpt lat="46.24977" lon="4.81719">
        <ele>187.6</ele>
        <time>2024-09-19T10:38:52Z</time>
      </trkpt>
      <trkpt lat="46.2497" lon="4.81718">
        <ele>187.6</ele>
        <time>2024-09-19T10:38:53Z</time>
      </trkpt>
      <trkpt lat="46.24967" lon="4.81718">
        <ele>187.6</ele>
        <time>2024-09-19T10:38:54Z</time>
      </trkpt>
      <trkpt lat="46.24963" lon="4.81716">
        <ele>187.4</ele>
        <time>2024-09-19T10:38:55Z</time>
      </trkpt>
      <trkpt lat="46.24958" lon="4.81715">
        <ele>187.4</ele>
        <time>2024-09-19T10:38:56Z</time>
      </trkpt>
      <trkpt lat="46.24951" lon="4.81713">
        <ele>187.4</ele>
        <time>2024-09-19T10:38:57Z</time>
      </trkpt>
      <trkpt lat="46.24948" lon="4.81713">
        <ele>187.4</ele>
        <time>2024-09-19T10:38:58Z</time>
      </trkpt>
      <trkpt lat="46.24944" lon="4.81712">
        <ele>187.6</ele>
        <time>2024-09-19T10:38:59Z</time>
      </trkpt>
      <trkpt lat="46.24939" lon="4.81711">
        <ele>187.6</ele>
        <time>2024-09-19T10:39:00Z</time>
      </trkpt>
      <trkpt lat="46.24934" lon="4.8171">
        <ele>187.6</ele>
        <time>2024-09-19T10:39:01Z</time>
      </trkpt>
      <trkpt lat="46.24929" lon="4.81708">
        <ele>187.6</ele>
        <time>2024-09-19T10:39:02Z</time>
      </trkpt>
      <trkpt lat="46.24924" lon="4.81707">
        <ele>187.6</ele>
        <time>2024-09-19T10:39:03Z</time>
      </trkpt>
      <trkpt lat="46.24917" lon="4.81705">
        <ele>187.6</ele>
        <time>2024-09-19T10:39:04Z</time>
      </trkpt>
      <trkpt lat="46.24914" lon="4.81704">
        <ele>187.6</ele>
        <time>2024-09-19T10:39:05Z</time>
      </trkpt>
      <trkpt lat="46.24909" lon="4.81703">
        <ele>187.6</ele>
        <time>2024-09-19T10:39:06Z</time>
      </trkpt>
      <trkpt lat="46.24901" lon="4.81701">
        <ele>187.6</ele>
        <time>2024-09-19T10:39:07Z</time>
      </trkpt>
      <trkpt lat="46.24899" lon="4.817">
        <ele>187.6</ele>
        <time>2024-09-19T10:39:08Z</time>
      </trkpt>
      <trkpt lat="46.24894" lon="4.81699">
        <ele>187.8</ele>
        <time>2024-09-19T10:39:09Z</time>
      </trkpt>
      <trkpt lat="46.24889" lon="4.81698">
        <ele>188</ele>
        <time>2024-09-19T10:39:10Z</time>
      </trkpt>
      <trkpt lat="46.24884" lon="4.81696">
        <ele>188</ele>
        <time>2024-09-19T10:39:11Z</time>
      </trkpt>
      <trkpt lat="46.24879" lon="4.81695">
        <ele>188</ele>
        <time>2024-09-19T10:39:12Z</time>
      </trkpt>
      <trkpt lat="46.24873" lon="4.81694">
        <ele>188</ele>
        <time>2024-09-19T10:39:13Z</time>
      </trkpt>
      <trkpt lat="46.24866" lon="4.81692">
        <ele>188</ele>
        <time>2024-09-19T10:39:14Z</time>
      </trkpt>
      <trkpt lat="46.24863" lon="4.81691">
        <ele>188</ele>
        <time>2024-09-19T10:39:15Z</time>
      </trkpt>
      <trkpt lat="46.24858" lon="4.81689">
        <ele>188</ele>
        <time>2024-09-19T10:39:16Z</time>
      </trkpt>
      <trkpt lat="46.24853" lon="4.81687">
        <ele>188</ele>
        <time>2024-09-19T10:39:17Z</time>
      </trkpt>
      <trkpt lat="46.24848" lon="4.81684">
        <ele>188</ele>
        <time>2024-09-19T10:39:18Z</time>
      </trkpt>
      <trkpt lat="46.24844" lon="4.81682">
        <ele>188</ele>
        <time>2024-09-19T10:39:19Z</time>
      </trkpt>
      <trkpt lat="46.24839" lon="4.81679">
        <ele>188</ele>
        <time>2024-09-19T10:39:20Z</time>
      </trkpt>
      <trkpt lat="46.24834" lon="4.81675">
        <ele>188</ele>
        <time>2024-09-19T10:39:21Z</time>
      </trkpt>
      <trkpt lat="46.24828" lon="4.8167">
        <ele>188</ele>
        <time>2024-09-19T10:39:22Z</time>
      </trkpt>
      <trkpt lat="46.24826" lon="4.81668">
        <ele>188.2</ele>
        <time>2024-09-19T10:39:23Z</time>
      </trkpt>
      <trkpt lat="46.24822" lon="4.81664">
        <ele>188.2</ele>
        <time>2024-09-19T10:39:24Z</time>
      </trkpt>
      <trkpt lat="46.24816" lon="4.81658">
        <ele>188.2</ele>
        <time>2024-09-19T10:39:25Z</time>
      </trkpt>
      <trkpt lat="46.24814" lon="4.81656">
        <ele>188.2</ele>
        <time>2024-09-19T10:39:26Z</time>
      </trkpt>
      <trkpt lat="46.2481" lon="4.81652">
        <ele>188.6</ele>
        <time>2024-09-19T10:39:27Z</time>
      </trkpt>
      <trkpt lat="46.24804" lon="4.81644">
        <ele>188.6</ele>
        <time>2024-09-19T10:39:28Z</time>
      </trkpt>
      <trkpt lat="46.24803" lon="4.81642">
        <ele>188.6</ele>
        <time>2024-09-19T10:39:29Z</time>
      </trkpt>
      <trkpt lat="46.24799" lon="4.81637">
        <ele>188.6</ele>
        <time>2024-09-19T10:39:30Z</time>
      </trkpt>
      <trkpt lat="46.24794" lon="4.8163">
        <ele>188.6</ele>
        <time>2024-09-19T10:39:31Z</time>
      </trkpt>
      <trkpt lat="46.24793" lon="4.81627">
        <ele>188.6</ele>
        <time>2024-09-19T10:39:32Z</time>
      </trkpt>
      <trkpt lat="46.24789" lon="4.81623">
        <ele>188.6</ele>
        <time>2024-09-19T10:39:33Z</time>
      </trkpt>
      <trkpt lat="46.24786" lon="4.81618">
        <ele>188.6</ele>
        <time>2024-09-19T10:39:34Z</time>
      </trkpt>
      <trkpt lat="46.24783" lon="4.81613">
        <ele>188.8</ele>
        <time>2024-09-19T10:39:35Z</time>
      </trkpt>
      <trkpt lat="46.24778" lon="4.81605">
        <ele>189</ele>
        <time>2024-09-19T10:39:36Z</time>
      </trkpt>
      <trkpt lat="46.24776" lon="4.81603">
        <ele>189</ele>
        <time>2024-09-19T10:39:37Z</time>
      </trkpt>
      <trkpt lat="46.24773" lon="4.81598">
        <ele>189</ele>
        <time>2024-09-19T10:39:38Z</time>
      </trkpt>
      <trkpt lat="46.24769" lon="4.81593">
        <ele>189</ele>
        <time>2024-09-19T10:39:39Z</time>
      </trkpt>
      <trkpt lat="46.24763" lon="4.81587">
        <ele>188.4</ele>
        <time>2024-09-19T10:39:40Z</time>
      </trkpt>
      <trkpt lat="46.24761" lon="4.81584">
        <ele>188.4</ele>
        <time>2024-09-19T10:39:41Z</time>
      </trkpt>
      <trkpt lat="46.24755" lon="4.8158">
        <ele>188.4</ele>
        <time>2024-09-19T10:39:42Z</time>
      </trkpt>
      <trkpt lat="46.24753" lon="4.81579">
        <ele>188.4</ele>
        <time>2024-09-19T10:39:43Z</time>
      </trkpt>
      <trkpt lat="46.24748" lon="4.81578">
        <ele>188.4</ele>
        <time>2024-09-19T10:39:44Z</time>
      </trkpt>
      <trkpt lat="46.24744" lon="4.81577">
        <ele>188.8</ele>
        <time>2024-09-19T10:39:45Z</time>
      </trkpt>
      <trkpt lat="46.24739" lon="4.81577">
        <ele>188.8</ele>
        <time>2024-09-19T10:39:46Z</time>
      </trkpt>
      <trkpt lat="46.24732" lon="4.81576">
        <ele>188.8</ele>
        <time>2024-09-19T10:39:47Z</time>
      </trkpt>
      <trkpt lat="46.24729" lon="4.81575">
        <ele>188.4</ele>
        <time>2024-09-19T10:39:48Z</time>
      </trkpt>
      <trkpt lat="46.24724" lon="4.81574">
        <ele>188.4</ele>
        <time>2024-09-19T10:39:49Z</time>
      </trkpt>
      <trkpt lat="46.2472" lon="4.81572">
        <ele>188.2</ele>
        <time>2024-09-19T10:39:50Z</time>
      </trkpt>
      <trkpt lat="46.24713" lon="4.81569">
        <ele>188.2</ele>
        <time>2024-09-19T10:39:51Z</time>
      </trkpt>
      <trkpt lat="46.2471" lon="4.81568">
        <ele>188.2</ele>
        <time>2024-09-19T10:39:52Z</time>
      </trkpt>
      <trkpt lat="46.24706" lon="4.81566">
        <ele>188.2</ele>
        <time>2024-09-19T10:39:53Z</time>
      </trkpt>
      <trkpt lat="46.24701" lon="4.81563">
        <ele>188.4</ele>
        <time>2024-09-19T10:39:54Z</time>
      </trkpt>
      <trkpt lat="46.24696" lon="4.81562">
        <ele>188.4</ele>
        <time>2024-09-19T10:39:55Z</time>
      </trkpt>
      <trkpt lat="46.24689" lon="4.81559">
        <ele>188.4</ele>
        <time>2024-09-19T10:39:56Z</time>
      </trkpt>
      <trkpt lat="46.24686" lon="4.81559">
        <ele>188.4</ele>
        <time>2024-09-19T10:39:57Z</time>
      </trkpt>
      <trkpt lat="46.24682" lon="4.81557">
        <ele>188.4</ele>
        <time>2024-09-19T10:39:58Z</time>
      </trkpt>
      <trkpt lat="46.24675" lon="4.81554">
        <ele>188.4</ele>
        <time>2024-09-19T10:39:59Z</time>
      </trkpt>
      <trkpt lat="46.24672" lon="4.81553">
        <ele>188.4</ele>
        <time>2024-09-19T10:40:00Z</time>
      </trkpt>
      <trkpt lat="46.24669" lon="4.81553">
        <ele>188.4</ele>
        <time>2024-09-19T10:40:01Z</time>
      </trkpt>
      <trkpt lat="46.24665" lon="4.81553">
        <ele>189.2</ele>
        <time>2024-09-19T10:40:02Z</time>
      </trkpt>
      <trkpt lat="46.24662" lon="4.81552">
        <ele>189.6</ele>
        <time>2024-09-19T10:40:03Z</time>
      </trkpt>
      <trkpt lat="46.24658" lon="4.81552">
        <ele>189.6</ele>
        <time>2024-09-19T10:40:04Z</time>
      </trkpt>
      <trkpt lat="46.24654" lon="4.81551">
        <ele>189.6</ele>
        <time>2024-09-19T10:40:05Z</time>
      </trkpt>
      <trkpt lat="46.24648" lon="4.81551">
        <ele>189.6</ele>
        <time>2024-09-19T10:40:06Z</time>
      </trkpt>
      <trkpt lat="46.24646" lon="4.81551">
        <ele>189.6</ele>
        <time>2024-09-19T10:40:07Z</time>
      </trkpt>
      <trkpt lat="46.24642" lon="4.8155">
        <ele>189.6</ele>
        <time>2024-09-19T10:40:08Z</time>
      </trkpt>
      <trkpt lat="46.24636" lon="4.81549">
        <ele>189.6</ele>
        <time>2024-09-19T10:40:09Z</time>
      </trkpt>
      <trkpt lat="46.24634" lon="4.81548">
        <ele>189.6</ele>
        <time>2024-09-19T10:40:10Z</time>
      </trkpt>
      <trkpt lat="46.2463" lon="4.81547">
        <ele>189.8</ele>
        <time>2024-09-19T10:40:11Z</time>
      </trkpt>
      <trkpt lat="46.24626" lon="4.81547">
        <ele>189.8</ele>
        <time>2024-09-19T10:40:12Z</time>
      </trkpt>
      <trkpt lat="46.24622" lon="4.81546">
        <ele>189.6</ele>
        <time>2024-09-19T10:40:13Z</time>
      </trkpt>
      <trkpt lat="46.24618" lon="4.81546">
        <ele>189.6</ele>
        <time>2024-09-19T10:40:14Z</time>
      </trkpt>
      <trkpt lat="46.24612" lon="4.81545">
        <ele>189.6</ele>
        <time>2024-09-19T10:40:15Z</time>
      </trkpt>
      <trkpt lat="46.2461" lon="4.81544">
        <ele>189.8</ele>
        <time>2024-09-19T10:40:16Z</time>
      </trkpt>
      <trkpt lat="46.24603" lon="4.81543">
        <ele>189.8</ele>
        <time>2024-09-19T10:40:17Z</time>
      </trkpt>
      <trkpt lat="46.24601" lon="4.81543">
        <ele>189.8</ele>
        <time>2024-09-19T10:40:18Z</time>
      </trkpt>
      <trkpt lat="46.24594" lon="4.81542">
        <ele>189.8</ele>
        <time>2024-09-19T10:40:19Z</time>
      </trkpt>
      <trkpt lat="46.24592" lon="4.81542">
        <ele>189.8</ele>
        <time>2024-09-19T10:40:20Z</time>
      </trkpt>
      <trkpt lat="46.24585" lon="4.81541">
        <ele>189.8</ele>
        <time>2024-09-19T10:40:21Z</time>
      </trkpt>
      <trkpt lat="46.24582" lon="4.81541">
        <ele>189.8</ele>
        <time>2024-09-19T10:40:22Z</time>
      </trkpt>
      <trkpt lat="46.24575" lon="4.8154">
        <ele>189.8</ele>
        <time>2024-09-19T10:40:23Z</time>
      </trkpt>
      <trkpt lat="46.24573" lon="4.8154">
        <ele>189.8</ele>
        <time>2024-09-19T10:40:24Z</time>
      </trkpt>
      <trkpt lat="46.24568" lon="4.8154">
        <ele>190</ele>
        <time>2024-09-19T10:40:25Z</time>
      </trkpt>
      <trkpt lat="46.24564" lon="4.8154">
        <ele>190</ele>
        <time>2024-09-19T10:40:26Z</time>
      </trkpt>
      <trkpt lat="46.24559" lon="4.8154">
        <ele>190</ele>
        <time>2024-09-19T10:40:27Z</time>
      </trkpt>
      <trkpt lat="46.24553" lon="4.8154">
        <ele>190</ele>
        <time>2024-09-19T10:40:28Z</time>
      </trkpt>
      <trkpt lat="46.24551" lon="4.8154">
        <ele>190</ele>
        <time>2024-09-19T10:40:29Z</time>
      </trkpt>
      <trkpt lat="46.24544" lon="4.8154">
        <ele>190.2</ele>
        <time>2024-09-19T10:40:30Z</time>
      </trkpt>
      <trkpt lat="46.24542" lon="4.8154">
        <ele>190.2</ele>
        <time>2024-09-19T10:40:31Z</time>
      </trkpt>
      <trkpt lat="46.24538" lon="4.8154">
        <ele>190.2</ele>
        <time>2024-09-19T10:40:32Z</time>
      </trkpt>
      <trkpt lat="46.2453" lon="4.8154">
        <ele>190.2</ele>
        <time>2024-09-19T10:40:33Z</time>
      </trkpt>
      <trkpt lat="46.24528" lon="4.8154">
        <ele>189.8</ele>
        <time>2024-09-19T10:40:34Z</time>
      </trkpt>
      <trkpt lat="46.24523" lon="4.8154">
        <ele>189.8</ele>
        <time>2024-09-19T10:40:35Z</time>
      </trkpt>
      <trkpt lat="46.24519" lon="4.81539">
        <ele>189.8</ele>
        <time>2024-09-19T10:40:36Z</time>
      </trkpt>
      <trkpt lat="46.24514" lon="4.81539">
        <ele>189.8</ele>
        <time>2024-09-19T10:40:37Z</time>
      </trkpt>
      <trkpt lat="46.2451" lon="4.81538">
        <ele>189.8</ele>
        <time>2024-09-19T10:40:38Z</time>
      </trkpt>
      <trkpt lat="46.24505" lon="4.81537">
        <ele>189.8</ele>
        <time>2024-09-19T10:40:39Z</time>
      </trkpt>
      <trkpt lat="46.24501" lon="4.8153">
        <ele>189.8</ele>
        <time>2024-09-19T10:40:40Z</time>
      </trkpt>
      <trkpt lat="46.245" lon="4.81528">
        <ele>189.8</ele>
        <time>2024-09-19T10:40:41Z</time>
      </trkpt>
      <trkpt lat="46.245" lon="4.81522">
        <ele>189.8</ele>
        <time>2024-09-19T10:40:42Z</time>
      </trkpt>
      <trkpt lat="46.24501" lon="4.81513">
        <ele>189.2</ele>
        <time>2024-09-19T10:40:43Z</time>
      </trkpt>
      <trkpt lat="46.24501" lon="4.8151">
        <ele>189.2</ele>
        <time>2024-09-19T10:40:44Z</time>
      </trkpt>
      <trkpt lat="46.24503" lon="4.81504">
        <ele>189.2</ele>
        <time>2024-09-19T10:40:45Z</time>
      </trkpt>
      <trkpt lat="46.24504" lon="4.81497">
        <ele>189.2</ele>
        <time>2024-09-19T10:40:46Z</time>
      </trkpt>
      <trkpt lat="46.24505" lon="4.81491">
        <ele>189.2</ele>
        <time>2024-09-19T10:40:47Z</time>
      </trkpt>
      <trkpt lat="46.24506" lon="4.81485">
        <ele>188.8</ele>
        <time>2024-09-19T10:40:48Z</time>
      </trkpt>
      <trkpt lat="46.24508" lon="4.81478">
        <ele>188.8</ele>
        <time>2024-09-19T10:40:49Z</time>
      </trkpt>
      <trkpt lat="46.2451" lon="4.81469">
        <ele>188.8</ele>
        <time>2024-09-19T10:40:50Z</time>
      </trkpt>
      <trkpt lat="46.2451" lon="4.81465">
        <ele>188.8</ele>
        <time>2024-09-19T10:40:51Z</time>
      </trkpt>
      <trkpt lat="46.24512" lon="4.81456">
        <ele>188.8</ele>
        <time>2024-09-19T10:40:52Z</time>
      </trkpt>
      <trkpt lat="46.24513" lon="4.81453">
        <ele>188.6</ele>
        <time>2024-09-19T10:40:53Z</time>
      </trkpt>
      <trkpt lat="46.24515" lon="4.81443">
        <ele>188.6</ele>
        <time>2024-09-19T10:40:54Z</time>
      </trkpt>
      <trkpt lat="46.24516" lon="4.8144">
        <ele>188.6</ele>
        <time>2024-09-19T10:40:55Z</time>
      </trkpt>
      <trkpt lat="46.24517" lon="4.81433">
        <ele>189</ele>
        <time>2024-09-19T10:40:56Z</time>
      </trkpt>
      <trkpt lat="46.24518" lon="4.81427">
        <ele>189</ele>
        <time>2024-09-19T10:40:57Z</time>
      </trkpt>
      <trkpt lat="46.2452" lon="4.8142">
        <ele>189</ele>
        <time>2024-09-19T10:40:58Z</time>
      </trkpt>
      <trkpt lat="46.24522" lon="4.81411">
        <ele>189</ele>
        <time>2024-09-19T10:40:59Z</time>
      </trkpt>
      <trkpt lat="46.24523" lon="4.81408">
        <ele>189</ele>
        <time>2024-09-19T10:41:00Z</time>
      </trkpt>
      <trkpt lat="46.24524" lon="4.81401">
        <ele>189.2</ele>
        <time>2024-09-19T10:41:01Z</time>
      </trkpt>
      <trkpt lat="46.24526" lon="4.81392">
        <ele>189.2</ele>
        <time>2024-09-19T10:41:02Z</time>
      </trkpt>
      <trkpt lat="46.24527" lon="4.81389">
        <ele>189.2</ele>
        <time>2024-09-19T10:41:03Z</time>
      </trkpt>
      <trkpt lat="46.24528" lon="4.8138">
        <ele>189.2</ele>
        <time>2024-09-19T10:41:04Z</time>
      </trkpt>
      <trkpt lat="46.24529" lon="4.81377">
        <ele>188.8</ele>
        <time>2024-09-19T10:41:05Z</time>
      </trkpt>
      <trkpt lat="46.2453" lon="4.81371">
        <ele>189</ele>
        <time>2024-09-19T10:41:06Z</time>
      </trkpt>
      <trkpt lat="46.24531" lon="4.81365">
        <ele>189</ele>
        <time>2024-09-19T10:41:07Z</time>
      </trkpt>
      <trkpt lat="46.24533" lon="4.81359">
        <ele>189</ele>
        <time>2024-09-19T10:41:08Z</time>
      </trkpt>
      <trkpt lat="46.24534" lon="4.81352">
        <ele>189</ele>
        <time>2024-09-19T10:41:09Z</time>
      </trkpt>
      <trkpt lat="46.24535" lon="4.81346">
        <ele>189</ele>
        <time>2024-09-19T10:41:10Z</time>
      </trkpt>
      <trkpt lat="46.24536" lon="4.81339">
        <ele>189</ele>
        <time>2024-09-19T10:41:11Z</time>
      </trkpt>
      <trkpt lat="46.24537" lon="4.8133">
        <ele>189</ele>
        <time>2024-09-19T10:41:12Z</time>
      </trkpt>
      <trkpt lat="46.24538" lon="4.81327">
        <ele>189</ele>
        <time>2024-09-19T10:41:13Z</time>
      </trkpt>
      <trkpt lat="46.24539" lon="4.8132">
        <ele>189</ele>
        <time>2024-09-19T10:41:14Z</time>
      </trkpt>
      <trkpt lat="46.2454" lon="4.81312">
        <ele>189</ele>
        <time>2024-09-19T10:41:15Z</time>
      </trkpt>
      <trkpt lat="46.2454" lon="4.81309">
        <ele>189</ele>
        <time>2024-09-19T10:41:16Z</time>
      </trkpt>
      <trkpt lat="46.2454" lon="4.81303">
        <ele>189</ele>
        <time>2024-09-19T10:41:17Z</time>
      </trkpt>
      <trkpt lat="46.24539" lon="4.81298">
        <ele>189</ele>
        <time>2024-09-19T10:41:18Z</time>
      </trkpt>
      <trkpt lat="46.24538" lon="4.81293">
        <ele>189.2</ele>
        <time>2024-09-19T10:41:19Z</time>
      </trkpt>
      <trkpt lat="46.24538" lon="4.81288">
        <ele>189</ele>
        <time>2024-09-19T10:41:20Z</time>
      </trkpt>
      <trkpt lat="46.24536" lon="4.81284">
        <ele>189</ele>
        <time>2024-09-19T10:41:21Z</time>
      </trkpt>
      <trkpt lat="46.24534" lon="4.81281">
        <ele>189</ele>
        <time>2024-09-19T10:41:22Z</time>
      </trkpt>
      <trkpt lat="46.24531" lon="4.81279">
        <ele>189</ele>
        <time>2024-09-19T10:41:23Z</time>
      </trkpt>
      <trkpt lat="46.24529" lon="4.81277">
        <ele>189</ele>
        <time>2024-09-19T10:41:24Z</time>
      </trkpt>
      <trkpt lat="46.24526" lon="4.81276">
        <ele>189</ele>
        <time>2024-09-19T10:41:25Z</time>
      </trkpt>
      <trkpt lat="46.24523" lon="4.81276">
        <ele>189</ele>
        <time>2024-09-19T10:41:26Z</time>
      </trkpt>
      <trkpt lat="46.2452" lon="4.81275">
        <ele>189</ele>
        <time>2024-09-19T10:41:27Z</time>
      </trkpt>
      <trkpt lat="46.24517" lon="4.81274">
        <ele>188.8</ele>
        <time>2024-09-19T10:41:28Z</time>
      </trkpt>
      <trkpt lat="46.24514" lon="4.81274">
        <ele>188.8</ele>
        <time>2024-09-19T10:41:29Z</time>
      </trkpt>
      <trkpt lat="46.24511" lon="4.81273">
        <ele>188.8</ele>
        <time>2024-09-19T10:41:30Z</time>
      </trkpt>
      <trkpt lat="46.24508" lon="4.81272">
        <ele>188.8</ele>
        <time>2024-09-19T10:41:31Z</time>
      </trkpt>
      <trkpt lat="46.24505" lon="4.81271">
        <ele>188.8</ele>
        <time>2024-09-19T10:41:32Z</time>
      </trkpt>
      <trkpt lat="46.245" lon="4.81269">
        <ele>188.8</ele>
        <time>2024-09-19T10:41:33Z</time>
      </trkpt>
      <trkpt lat="46.24498" lon="4.81269">
        <ele>188.8</ele>
        <time>2024-09-19T10:41:34Z</time>
      </trkpt>
      <trkpt lat="46.24493" lon="4.81267">
        <ele>188.8</ele>
        <time>2024-09-19T10:41:35Z</time>
      </trkpt>
      <trkpt lat="46.24492" lon="4.81266">
        <ele>188.8</ele>
        <time>2024-09-19T10:41:36Z</time>
      </trkpt>
      <trkpt lat="46.24486" lon="4.81265">
        <ele>188.4</ele>
        <time>2024-09-19T10:41:37Z</time>
      </trkpt>
      <trkpt lat="46.24485" lon="4.81264">
        <ele>188.4</ele>
        <time>2024-09-19T10:41:38Z</time>
      </trkpt>
      <trkpt lat="46.24481" lon="4.81263">
        <ele>188.4</ele>
        <time>2024-09-19T10:41:39Z</time>
      </trkpt>
      <trkpt lat="46.24475" lon="4.81261">
        <ele>188.4</ele>
        <time>2024-09-19T10:41:40Z</time>
      </trkpt>
      <trkpt lat="46.24473" lon="4.8126">
        <ele>188.6</ele>
        <time>2024-09-19T10:41:41Z</time>
      </trkpt>
      <trkpt lat="46.24467" lon="4.81257">
        <ele>188.8</ele>
        <time>2024-09-19T10:41:42Z</time>
      </trkpt>
      <trkpt lat="46.24464" lon="4.81257">
        <ele>188.8</ele>
        <time>2024-09-19T10:41:43Z</time>
      </trkpt>
      <trkpt lat="46.2446" lon="4.81255">
        <ele>188.8</ele>
        <time>2024-09-19T10:41:44Z</time>
      </trkpt>
      <trkpt lat="46.24453" lon="4.81253">
        <ele>188.8</ele>
        <time>2024-09-19T10:41:45Z</time>
      </trkpt>
      <trkpt lat="46.24451" lon="4.81252">
        <ele>188.4</ele>
        <time>2024-09-19T10:41:46Z</time>
      </trkpt>
      <trkpt lat="46.24444" lon="4.81249">
        <ele>188.4</ele>
        <time>2024-09-19T10:41:47Z</time>
      </trkpt>
      <trkpt lat="46.24442" lon="4.81248">
        <ele>188.4</ele>
        <time>2024-09-19T10:41:48Z</time>
      </trkpt>
      <trkpt lat="46.24435" lon="4.81246">
        <ele>188.4</ele>
        <time>2024-09-19T10:41:49Z</time>
      </trkpt>
      <trkpt lat="46.24433" lon="4.81246">
        <ele>188.4</ele>
        <time>2024-09-19T10:41:50Z</time>
      </trkpt>
      <trkpt lat="46.24428" lon="4.81244">
        <ele>188.2</ele>
        <time>2024-09-19T10:41:51Z</time>
      </trkpt>
      <trkpt lat="46.24423" lon="4.81242">
        <ele>188.2</ele>
        <time>2024-09-19T10:41:52Z</time>
      </trkpt>
      <trkpt lat="46.24419" lon="4.8124">
        <ele>188.2</ele>
        <time>2024-09-19T10:41:53Z</time>
      </trkpt>
      <trkpt lat="46.24414" lon="4.81238">
        <ele>188.8</ele>
        <time>2024-09-19T10:41:54Z</time>
      </trkpt>
      <trkpt lat="46.24409" lon="4.81237">
        <ele>188.8</ele>
        <time>2024-09-19T10:41:55Z</time>
      </trkpt>
      <trkpt lat="46.24402" lon="4.81234">
        <ele>188.8</ele>
        <time>2024-09-19T10:41:56Z</time>
      </trkpt>
      <trkpt lat="46.244" lon="4.81233">
        <ele>188.8</ele>
        <time>2024-09-19T10:41:57Z</time>
      </trkpt>
      <trkpt lat="46.24395" lon="4.81232">
        <ele>188.8</ele>
        <time>2024-09-19T10:41:58Z</time>
      </trkpt>
      <trkpt lat="46.24388" lon="4.81229">
        <ele>188.8</ele>
        <time>2024-09-19T10:41:59Z</time>
      </trkpt>
      <trkpt lat="46.24386" lon="4.81228">
        <ele>188.8</ele>
        <time>2024-09-19T10:42:00Z</time>
      </trkpt>
      <trkpt lat="46.24382" lon="4.81227">
        <ele>188.8</ele>
        <time>2024-09-19T10:42:01Z</time>
      </trkpt>
      <trkpt lat="46.24377" lon="4.81225">
        <ele>188.8</ele>
        <time>2024-09-19T10:42:02Z</time>
      </trkpt>
      <trkpt lat="46.24372" lon="4.81223">
        <ele>188.8</ele>
        <time>2024-09-19T10:42:03Z</time>
      </trkpt>
      <trkpt lat="46.24368" lon="4.81221">
        <ele>188.8</ele>
        <time>2024-09-19T10:42:04Z</time>
      </trkpt>
      <trkpt lat="46.24363" lon="4.8122">
        <ele>188.8</ele>
        <time>2024-09-19T10:42:05Z</time>
      </trkpt>
      <trkpt lat="46.24356" lon="4.81217">
        <ele>188.8</ele>
        <time>2024-09-19T10:42:06Z</time>
      </trkpt>
      <trkpt lat="46.24354" lon="4.81216">
        <ele>188.8</ele>
        <time>2024-09-19T10:42:07Z</time>
      </trkpt>
      <trkpt lat="46.24349" lon="4.81214">
        <ele>188.6</ele>
        <time>2024-09-19T10:42:08Z</time>
      </trkpt>
      <trkpt lat="46.24342" lon="4.81212">
        <ele>188.6</ele>
        <time>2024-09-19T10:42:09Z</time>
      </trkpt>
      <trkpt lat="46.24339" lon="4.81211">
        <ele>188.6</ele>
        <time>2024-09-19T10:42:10Z</time>
      </trkpt>
      <trkpt lat="46.24334" lon="4.8121">
        <ele>188.6</ele>
        <time>2024-09-19T10:42:11Z</time>
      </trkpt>
      <trkpt lat="46.24329" lon="4.81208">
        <ele>188.6</ele>
        <time>2024-09-19T10:42:12Z</time>
      </trkpt>
      <trkpt lat="46.24325" lon="4.81206">
        <ele>188.4</ele>
        <time>2024-09-19T10:42:13Z</time>
      </trkpt>
      <trkpt lat="46.2432" lon="4.81205">
        <ele>188.8</ele>
        <time>2024-09-19T10:42:14Z</time>
      </trkpt>
      <trkpt lat="46.24315" lon="4.81203">
        <ele>188.8</ele>
        <time>2024-09-19T10:42:15Z</time>
      </trkpt>
      <trkpt lat="46.2431" lon="4.81201">
        <ele>188.8</ele>
        <time>2024-09-19T10:42:16Z</time>
      </trkpt>
      <trkpt lat="46.24305" lon="4.81199">
        <ele>188.8</ele>
        <time>2024-09-19T10:42:17Z</time>
      </trkpt>
      <trkpt lat="46.24301" lon="4.81198">
        <ele>188.8</ele>
        <time>2024-09-19T10:42:18Z</time>
      </trkpt>
      <trkpt lat="46.24296" lon="4.81196">
        <ele>188.8</ele>
        <time>2024-09-19T10:42:19Z</time>
      </trkpt>
      <trkpt lat="46.24292" lon="4.81193">
        <ele>188.8</ele>
        <time>2024-09-19T10:42:20Z</time>
      </trkpt>
      <trkpt lat="46.24287" lon="4.81192">
        <ele>188.8</ele>
        <time>2024-09-19T10:42:21Z</time>
      </trkpt>
      <trkpt lat="46.24282" lon="4.8119">
        <ele>188.4</ele>
        <time>2024-09-19T10:42:22Z</time>
      </trkpt>
      <trkpt lat="46.24278" lon="4.81188">
        <ele>188.4</ele>
        <time>2024-09-19T10:42:23Z</time>
      </trkpt>
      <trkpt lat="46.24271" lon="4.81186">
        <ele>188.4</ele>
        <time>2024-09-19T10:42:24Z</time>
      </trkpt>
      <trkpt lat="46.24268" lon="4.81185">
        <ele>188.4</ele>
        <time>2024-09-19T10:42:25Z</time>
      </trkpt>
      <trkpt lat="46.24261" lon="4.81182">
        <ele>188.8</ele>
        <time>2024-09-19T10:42:26Z</time>
      </trkpt>
      <trkpt lat="46.24259" lon="4.81182">
        <ele>188.8</ele>
        <time>2024-09-19T10:42:27Z</time>
      </trkpt>
      <trkpt lat="46.24251" lon="4.81179">
        <ele>188.8</ele>
        <time>2024-09-19T10:42:28Z</time>
      </trkpt>
      <trkpt lat="46.24249" lon="4.81178">
        <ele>188.8</ele>
        <time>2024-09-19T10:42:29Z</time>
      </trkpt>
      <trkpt lat="46.24244" lon="4.81177">
        <ele>188.8</ele>
        <time>2024-09-19T10:42:30Z</time>
      </trkpt>
      <trkpt lat="46.24239" lon="4.81175">
        <ele>188.8</ele>
        <time>2024-09-19T10:42:31Z</time>
      </trkpt>
      <trkpt lat="46.24232" lon="4.81173">
        <ele>188.4</ele>
        <time>2024-09-19T10:42:32Z</time>
      </trkpt>
      <trkpt lat="46.24229" lon="4.81172">
        <ele>188.4</ele>
        <time>2024-09-19T10:42:33Z</time>
      </trkpt>
      <trkpt lat="46.24222" lon="4.8117">
        <ele>188.4</ele>
        <time>2024-09-19T10:42:34Z</time>
      </trkpt>
      <trkpt lat="46.2422" lon="4.81169">
        <ele>188.8</ele>
        <time>2024-09-19T10:42:35Z</time>
      </trkpt>
      <trkpt lat="46.24215" lon="4.81168">
        <ele>188.4</ele>
        <time>2024-09-19T10:42:36Z</time>
      </trkpt>
      <trkpt lat="46.2421" lon="4.81167">
        <ele>188.4</ele>
        <time>2024-09-19T10:42:37Z</time>
      </trkpt>
      <trkpt lat="46.24205" lon="4.81166">
        <ele>188.4</ele>
        <time>2024-09-19T10:42:38Z</time>
      </trkpt>
      <trkpt lat="46.24198" lon="4.81163">
        <ele>188.4</ele>
        <time>2024-09-19T10:42:39Z</time>
      </trkpt>
      <trkpt lat="46.24196" lon="4.81161">
        <ele>188.4</ele>
        <time>2024-09-19T10:42:40Z</time>
      </trkpt>
      <trkpt lat="46.24192" lon="4.81158">
        <ele>188.8</ele>
        <time>2024-09-19T10:42:41Z</time>
      </trkpt>
      <trkpt lat="46.24186" lon="4.81152">
        <ele>188.8</ele>
        <time>2024-09-19T10:42:42Z</time>
      </trkpt>
      <trkpt lat="46.24185" lon="4.81149">
        <ele>188.8</ele>
        <time>2024-09-19T10:42:43Z</time>
      </trkpt>
      <trkpt lat="46.24182" lon="4.81144">
        <ele>188.8</ele>
        <time>2024-09-19T10:42:44Z</time>
      </trkpt>
      <trkpt lat="46.24179" lon="4.81139">
        <ele>188.2</ele>
        <time>2024-09-19T10:42:45Z</time>
      </trkpt>
      <trkpt lat="46.24176" lon="4.81135">
        <ele>188.2</ele>
        <time>2024-09-19T10:42:46Z</time>
      </trkpt>
      <trkpt lat="46.24172" lon="4.81132">
        <ele>188.2</ele>
        <time>2024-09-19T10:42:47Z</time>
      </trkpt>
      <trkpt lat="46.24168" lon="4.8113">
        <ele>188.2</ele>
        <time>2024-09-19T10:42:48Z</time>
      </trkpt>
      <trkpt lat="46.24161" lon="4.81129">
        <ele>188.6</ele>
        <time>2024-09-19T10:42:49Z</time>
      </trkpt>
      <trkpt lat="46.24159" lon="4.81129">
        <ele>188.8</ele>
        <time>2024-09-19T10:42:50Z</time>
      </trkpt>
      <trkpt lat="46.24152" lon="4.81129">
        <ele>188.8</ele>
        <time>2024-09-19T10:42:51Z</time>
      </trkpt>
      <trkpt lat="46.2415" lon="4.8113">
        <ele>188.8</ele>
        <time>2024-09-19T10:42:52Z</time>
      </trkpt>
      <trkpt lat="46.24146" lon="4.81131">
        <ele>188.8</ele>
        <time>2024-09-19T10:42:53Z</time>
      </trkpt>
      <trkpt lat="46.24142" lon="4.81133">
        <ele>189</ele>
        <time>2024-09-19T10:42:54Z</time>
      </trkpt>
      <trkpt lat="46.24137" lon="4.81135">
        <ele>189</ele>
        <time>2024-09-19T10:42:55Z</time>
      </trkpt>
      <trkpt lat="46.24133" lon="4.81136">
        <ele>189</ele>
        <time>2024-09-19T10:42:56Z</time>
      </trkpt>
      <trkpt lat="46.24128" lon="4.81135">
        <ele>188.6</ele>
        <time>2024-09-19T10:42:57Z</time>
      </trkpt>
      <trkpt lat="46.24124" lon="4.81134">
        <ele>188.6</ele>
        <time>2024-09-19T10:42:58Z</time>
      </trkpt>
      <trkpt lat="46.24119" lon="4.81133">
        <ele>188.6</ele>
        <time>2024-09-19T10:42:59Z</time>
      </trkpt>
      <trkpt lat="46.24113" lon="4.81128">
        <ele>188.6</ele>
        <time>2024-09-19T10:43:00Z</time>
      </trkpt>
      <trkpt lat="46.24111" lon="4.81127">
        <ele>188.6</ele>
        <time>2024-09-19T10:43:01Z</time>
      </trkpt>
      <trkpt lat="46.24107" lon="4.81123">
        <ele>188.6</ele>
        <time>2024-09-19T10:43:02Z</time>
      </trkpt>
      <trkpt lat="46.24101" lon="4.81116">
        <ele>188.6</ele>
        <time>2024-09-19T10:43:03Z</time>
      </trkpt>
      <trkpt lat="46.24099" lon="4.81114">
        <ele>188.6</ele>
        <time>2024-09-19T10:43:04Z</time>
      </trkpt>
      <trkpt lat="46.24096" lon="4.81108">
        <ele>188.6</ele>
        <time>2024-09-19T10:43:05Z</time>
      </trkpt>
      <trkpt lat="46.24091" lon="4.81101">
        <ele>188.6</ele>
        <time>2024-09-19T10:43:06Z</time>
      </trkpt>
      <trkpt lat="46.2409" lon="4.81099">
        <ele>188.2</ele>
        <time>2024-09-19T10:43:07Z</time>
      </trkpt>
      <trkpt lat="46.24085" lon="4.81091">
        <ele>188.2</ele>
        <time>2024-09-19T10:43:08Z</time>
      </trkpt>
      <trkpt lat="46.24083" lon="4.81089">
        <ele>188.2</ele>
        <time>2024-09-19T10:43:09Z</time>
      </trkpt>
      <trkpt lat="46.24078" lon="4.81084">
        <ele>188.2</ele>
        <time>2024-09-19T10:43:10Z</time>
      </trkpt>
      <trkpt lat="46.24076" lon="4.81082">
        <ele>188.8</ele>
        <time>2024-09-19T10:43:11Z</time>
      </trkpt>
      <trkpt lat="46.24069" lon="4.81078">
        <ele>188.8</ele>
        <time>2024-09-19T10:43:12Z</time>
      </trkpt>
      <trkpt lat="46.24067" lon="4.81076">
        <ele>188.8</ele>
        <time>2024-09-19T10:43:13Z</time>
      </trkpt>
      <trkpt lat="46.2406" lon="4.81074">
        <ele>188.8</ele>
        <time>2024-09-19T10:43:14Z</time>
      </trkpt>
      <trkpt lat="46.24058" lon="4.81073">
        <ele>188.8</ele>
        <time>2024-09-19T10:43:15Z</time>
      </trkpt>
      <trkpt lat="46.24051" lon="4.81072">
        <ele>189</ele>
        <time>2024-09-19T10:43:16Z</time>
      </trkpt>
      <trkpt lat="46.24049" lon="4.81072">
        <ele>189</ele>
        <time>2024-09-19T10:43:17Z</time>
      </trkpt>
      <trkpt lat="46.24044" lon="4.81073">
        <ele>189</ele>
        <time>2024-09-19T10:43:18Z</time>
      </trkpt>
      <trkpt lat="46.24039" lon="4.81074">
        <ele>189</ele>
        <time>2024-09-19T10:43:19Z</time>
      </trkpt>
      <trkpt lat="46.24035" lon="4.81076">
        <ele>189</ele>
        <time>2024-09-19T10:43:20Z</time>
      </trkpt>
      <trkpt lat="46.24029" lon="4.8108">
        <ele>188.8</ele>
        <time>2024-09-19T10:43:21Z</time>
      </trkpt>
      <trkpt lat="46.24027" lon="4.81082">
        <ele>188.8</ele>
        <time>2024-09-19T10:43:22Z</time>
      </trkpt>
      <trkpt lat="46.24023" lon="4.81086">
        <ele>188.8</ele>
        <time>2024-09-19T10:43:23Z</time>
      </trkpt>
      <trkpt lat="46.24018" lon="4.81092">
        <ele>188.8</ele>
        <time>2024-09-19T10:43:24Z</time>
      </trkpt>
      <trkpt lat="46.24016" lon="4.81094">
        <ele>188.8</ele>
        <time>2024-09-19T10:43:25Z</time>
      </trkpt>
      <trkpt lat="46.24013" lon="4.81098">
        <ele>189</ele>
        <time>2024-09-19T10:43:26Z</time>
      </trkpt>
      <trkpt lat="46.2401" lon="4.81102">
        <ele>189</ele>
        <time>2024-09-19T10:43:27Z</time>
      </trkpt>
      <trkpt lat="46.24006" lon="4.81104">
        <ele>189</ele>
        <time>2024-09-19T10:43:28Z</time>
      </trkpt>
      <trkpt lat="46.24002" lon="4.81106">
        <ele>189</ele>
        <time>2024-09-19T10:43:29Z</time>
      </trkpt>
      <trkpt lat="46.23998" lon="4.81106">
        <ele>189</ele>
        <time>2024-09-19T10:43:30Z</time>
      </trkpt>
      <trkpt lat="46.23992" lon="4.81106">
        <ele>188.8</ele>
        <time>2024-09-19T10:43:31Z</time>
      </trkpt>
      <trkpt lat="46.2399" lon="4.81105">
        <ele>188.8</ele>
        <time>2024-09-19T10:43:32Z</time>
      </trkpt>
      <trkpt lat="46.23985" lon="4.81104">
        <ele>188.8</ele>
        <time>2024-09-19T10:43:33Z</time>
      </trkpt>
      <trkpt lat="46.23979" lon="4.81102">
        <ele>188.8</ele>
        <time>2024-09-19T10:43:34Z</time>
      </trkpt>
      <trkpt lat="46.23977" lon="4.81101">
        <ele>188.8</ele>
        <time>2024-09-19T10:43:35Z</time>
      </trkpt>
      <trkpt lat="46.23972" lon="4.811">
        <ele>188.8</ele>
        <time>2024-09-19T10:43:36Z</time>
      </trkpt>
      <trkpt lat="46.23968" lon="4.81099">
        <ele>188.8</ele>
        <time>2024-09-19T10:43:37Z</time>
      </trkpt>
      <trkpt lat="46.23964" lon="4.81098">
        <ele>188.8</ele>
        <time>2024-09-19T10:43:38Z</time>
      </trkpt>
      <trkpt lat="46.23959" lon="4.81097">
        <ele>189.2</ele>
        <time>2024-09-19T10:43:39Z</time>
      </trkpt>
      <trkpt lat="46.23955" lon="4.81095">
        <ele>189.2</ele>
        <time>2024-09-19T10:43:40Z</time>
      </trkpt>
      <trkpt lat="46.23951" lon="4.81094">
        <ele>189.2</ele>
        <time>2024-09-19T10:43:41Z</time>
      </trkpt>
      <trkpt lat="46.23946" lon="4.81093">
        <ele>189.2</ele>
        <time>2024-09-19T10:43:42Z</time>
      </trkpt>
      <trkpt lat="46.23941" lon="4.81093">
        <ele>189</ele>
        <time>2024-09-19T10:43:43Z</time>
      </trkpt>
      <trkpt lat="46.23934" lon="4.81092">
        <ele>188.8</ele>
        <time>2024-09-19T10:43:44Z</time>
      </trkpt>
      <trkpt lat="46.23932" lon="4.81092">
        <ele>188.8</ele>
        <time>2024-09-19T10:43:45Z</time>
      </trkpt>
      <trkpt lat="46.23924" lon="4.81091">
        <ele>188.8</ele>
        <time>2024-09-19T10:43:46Z</time>
      </trkpt>
      <trkpt lat="46.23922" lon="4.81091">
        <ele>188.8</ele>
        <time>2024-09-19T10:43:47Z</time>
      </trkpt>
      <trkpt lat="46.23917" lon="4.8109">
        <ele>189</ele>
        <time>2024-09-19T10:43:48Z</time>
      </trkpt>
      <trkpt lat="46.2391" lon="4.81089">
        <ele>189</ele>
        <time>2024-09-19T10:43:49Z</time>
      </trkpt>
      <trkpt lat="46.23907" lon="4.81088">
        <ele>189</ele>
        <time>2024-09-19T10:43:50Z</time>
      </trkpt>
      <trkpt lat="46.23901" lon="4.81086">
        <ele>189</ele>
        <time>2024-09-19T10:43:51Z</time>
      </trkpt>
      <trkpt lat="46.23898" lon="4.81085">
        <ele>189.4</ele>
        <time>2024-09-19T10:43:52Z</time>
      </trkpt>
      <trkpt lat="46.23892" lon="4.81083">
        <ele>189.2</ele>
        <time>2024-09-19T10:43:53Z</time>
      </trkpt>
      <trkpt lat="46.2389" lon="4.81083">
        <ele>189.2</ele>
        <time>2024-09-19T10:43:54Z</time>
      </trkpt>
      <trkpt lat="46.23882" lon="4.8108">
        <ele>189.2</ele>
        <time>2024-09-19T10:43:55Z</time>
      </trkpt>
      <trkpt lat="46.2388" lon="4.81079">
        <ele>189.2</ele>
        <time>2024-09-19T10:43:56Z</time>
      </trkpt>
      <trkpt lat="46.23873" lon="4.81077">
        <ele>189</ele>
        <time>2024-09-19T10:43:57Z</time>
      </trkpt>
      <trkpt lat="46.23871" lon="4.81076">
        <ele>189</ele>
        <time>2024-09-19T10:43:58Z</time>
      </trkpt>
      <trkpt lat="46.23863" lon="4.81074">
        <ele>189</ele>
        <time>2024-09-19T10:43:59Z</time>
      </trkpt>
      <trkpt lat="46.23861" lon="4.81074">
        <ele>189.2</ele>
        <time>2024-09-19T10:44:00Z</time>
      </trkpt>
      <trkpt lat="46.23856" lon="4.81072">
        <ele>189.4</ele>
        <time>2024-09-19T10:44:01Z</time>
      </trkpt>
      <trkpt lat="46.23851" lon="4.81071">
        <ele>189.4</ele>
        <time>2024-09-19T10:44:02Z</time>
      </trkpt>
      <trkpt lat="46.23846" lon="4.81069">
        <ele>189.4</ele>
        <time>2024-09-19T10:44:03Z</time>
      </trkpt>
      <trkpt lat="46.23839" lon="4.81067">
        <ele>189.4</ele>
        <time>2024-09-19T10:44:04Z</time>
      </trkpt>
      <trkpt lat="46.23837" lon="4.81066">
        <ele>189.4</ele>
        <time>2024-09-19T10:44:05Z</time>
      </trkpt>
      <trkpt lat="46.23833" lon="4.81065">
        <ele>189.4</ele>
        <time>2024-09-19T10:44:06Z</time>
      </trkpt>
      <trkpt lat="46.23825" lon="4.81062">
        <ele>189</ele>
        <time>2024-09-19T10:44:07Z</time>
      </trkpt>
      <trkpt lat="46.23823" lon="4.81061">
        <ele>189</ele>
        <time>2024-09-19T10:44:08Z</time>
      </trkpt>
      <trkpt lat="46.23818" lon="4.81059">
        <ele>189</ele>
        <time>2024-09-19T10:44:09Z</time>
      </trkpt>
      <trkpt lat="46.23813" lon="4.81057">
        <ele>189</ele>
        <time>2024-09-19T10:44:10Z</time>
      </trkpt>
      <trkpt lat="46.23808" lon="4.81055">
        <ele>189</ele>
        <time>2024-09-19T10:44:11Z</time>
      </trkpt>
      <trkpt lat="46.23804" lon="4.81053">
        <ele>189</ele>
        <time>2024-09-19T10:44:12Z</time>
      </trkpt>
      <trkpt lat="46.23799" lon="4.81051">
        <ele>189</ele>
        <time>2024-09-19T10:44:13Z</time>
      </trkpt>
      <trkpt lat="46.23792" lon="4.81048">
        <ele>189</ele>
        <time>2024-09-19T10:44:14Z</time>
      </trkpt>
      <trkpt lat="46.23789" lon="4.81047">
        <ele>189</ele>
        <time>2024-09-19T10:44:15Z</time>
      </trkpt>
      <trkpt lat="46.23785" lon="4.81044">
        <ele>189.2</ele>
        <time>2024-09-19T10:44:16Z</time>
      </trkpt>
      <trkpt lat="46.23778" lon="4.81041">
        <ele>189.2</ele>
        <time>2024-09-19T10:44:17Z</time>
      </trkpt>
      <trkpt lat="46.23776" lon="4.8104">
        <ele>189.2</ele>
        <time>2024-09-19T10:44:18Z</time>
      </trkpt>
      <trkpt lat="46.23771" lon="4.81038">
        <ele>189.2</ele>
        <time>2024-09-19T10:44:19Z</time>
      </trkpt>
      <trkpt lat="46.23767" lon="4.81036">
        <ele>189.2</ele>
        <time>2024-09-19T10:44:20Z</time>
      </trkpt>
      <trkpt lat="46.23762" lon="4.81034">
        <ele>189.2</ele>
        <time>2024-09-19T10:44:21Z</time>
      </trkpt>
      <trkpt lat="46.23757" lon="4.81032">
        <ele>189.2</ele>
        <time>2024-09-19T10:44:22Z</time>
      </trkpt>
      <trkpt lat="46.23753" lon="4.8103">
        <ele>189.2</ele>
        <time>2024-09-19T10:44:23Z</time>
      </trkpt>
      <trkpt lat="46.23748" lon="4.81027">
        <ele>189.2</ele>
        <time>2024-09-19T10:44:24Z</time>
      </trkpt>
      <trkpt lat="46.23744" lon="4.81025">
        <ele>189.4</ele>
        <time>2024-09-19T10:44:25Z</time>
      </trkpt>
      <trkpt lat="46.23737" lon="4.81022">
        <ele>189.4</ele>
        <time>2024-09-19T10:44:26Z</time>
      </trkpt>
      <trkpt lat="46.23735" lon="4.81021">
        <ele>189.4</ele>
        <time>2024-09-19T10:44:27Z</time>
      </trkpt>
      <trkpt lat="46.2373" lon="4.81019">
        <ele>189.4</ele>
        <time>2024-09-19T10:44:28Z</time>
      </trkpt>
      <trkpt lat="46.23723" lon="4.81015">
        <ele>189.4</ele>
        <time>2024-09-19T10:44:29Z</time>
      </trkpt>
      <trkpt lat="46.23721" lon="4.81014">
        <ele>189.6</ele>
        <time>2024-09-19T10:44:30Z</time>
      </trkpt>
      <trkpt lat="46.23717" lon="4.81011">
        <ele>189.6</ele>
        <time>2024-09-19T10:44:31Z</time>
      </trkpt>
      <trkpt lat="46.2371" lon="4.81007">
        <ele>189.6</ele>
        <time>2024-09-19T10:44:32Z</time>
      </trkpt>
      <trkpt lat="46.23708" lon="4.81006">
        <ele>189.2</ele>
        <time>2024-09-19T10:44:33Z</time>
      </trkpt>
      <trkpt lat="46.23701" lon="4.81002">
        <ele>189.2</ele>
        <time>2024-09-19T10:44:34Z</time>
      </trkpt>
      <trkpt lat="46.23699" lon="4.81">
        <ele>189.2</ele>
        <time>2024-09-19T10:44:35Z</time>
      </trkpt>
      <trkpt lat="46.23692" lon="4.80996">
        <ele>189.2</ele>
        <time>2024-09-19T10:44:36Z</time>
      </trkpt>
      <trkpt lat="46.2369" lon="4.80995">
        <ele>189.6</ele>
        <time>2024-09-19T10:44:37Z</time>
      </trkpt>
      <trkpt lat="46.23683" lon="4.80991">
        <ele>189.2</ele>
        <time>2024-09-19T10:44:38Z</time>
      </trkpt>
      <trkpt lat="46.23681" lon="4.80989">
        <ele>189.2</ele>
        <time>2024-09-19T10:44:39Z</time>
      </trkpt>
      <trkpt lat="46.23674" lon="4.80985">
        <ele>189.2</ele>
        <time>2024-09-19T10:44:40Z</time>
      </trkpt>
      <trkpt lat="46.23672" lon="4.80983">
        <ele>189.2</ele>
        <time>2024-09-19T10:44:41Z</time>
      </trkpt>
      <trkpt lat="46.23668" lon="4.80981">
        <ele>189.4</ele>
        <time>2024-09-19T10:44:42Z</time>
      </trkpt>
      <trkpt lat="46.23663" lon="4.80978">
        <ele>189.4</ele>
        <time>2024-09-19T10:44:43Z</time>
      </trkpt>
      <trkpt lat="46.23659" lon="4.80975">
        <ele>189.4</ele>
        <time>2024-09-19T10:44:44Z</time>
      </trkpt>
      <trkpt lat="46.23655" lon="4.80972">
        <ele>189.4</ele>
        <time>2024-09-19T10:44:45Z</time>
      </trkpt>
      <trkpt lat="46.23651" lon="4.80969">
        <ele>189.4</ele>
        <time>2024-09-19T10:44:46Z</time>
      </trkpt>
      <trkpt lat="46.23644" lon="4.80964">
        <ele>189.6</ele>
        <time>2024-09-19T10:44:47Z</time>
      </trkpt>
      <trkpt lat="46.23642" lon="4.80963">
        <ele>189.6</ele>
        <time>2024-09-19T10:44:48Z</time>
      </trkpt>
      <trkpt lat="46.23638" lon="4.8096">
        <ele>189.6</ele>
        <time>2024-09-19T10:44:49Z</time>
      </trkpt>
      <trkpt lat="46.23631" lon="4.80955">
        <ele>189.6</ele>
        <time>2024-09-19T10:44:50Z</time>
      </trkpt>
      <trkpt lat="46.23629" lon="4.80954">
        <ele>189.6</ele>
        <time>2024-09-19T10:44:51Z</time>
      </trkpt>
      <trkpt lat="46.23625" lon="4.80951">
        <ele>189.2</ele>
        <time>2024-09-19T10:44:52Z</time>
      </trkpt>
      <trkpt lat="46.23621" lon="4.80948">
        <ele>189.2</ele>
        <time>2024-09-19T10:44:53Z</time>
      </trkpt>
      <trkpt lat="46.23617" lon="4.80945">
        <ele>189.2</ele>
        <time>2024-09-19T10:44:54Z</time>
      </trkpt>
      <trkpt lat="46.23612" lon="4.80942">
        <ele>189.2</ele>
        <time>2024-09-19T10:44:55Z</time>
      </trkpt>
      <trkpt lat="46.23608" lon="4.80939">
        <ele>189.2</ele>
        <time>2024-09-19T10:44:56Z</time>
      </trkpt>
      <trkpt lat="46.23604" lon="4.80935">
        <ele>189.2</ele>
        <time>2024-09-19T10:44:57Z</time>
      </trkpt>
      <trkpt lat="46.236" lon="4.80932">
        <ele>189.2</ele>
        <time>2024-09-19T10:44:58Z</time>
      </trkpt>
      <trkpt lat="46.23593" lon="4.80927">
        <ele>189.2</ele>
        <time>2024-09-19T10:44:59Z</time>
      </trkpt>
      <trkpt lat="46.23591" lon="4.80925">
        <ele>189.2</ele>
        <time>2024-09-19T10:45:00Z</time>
      </trkpt>
      <trkpt lat="46.23587" lon="4.80921">
        <ele>189.6</ele>
        <time>2024-09-19T10:45:01Z</time>
      </trkpt>
      <trkpt lat="46.23583" lon="4.80918">
        <ele>189.6</ele>
        <time>2024-09-19T10:45:02Z</time>
      </trkpt>
      <trkpt lat="46.23579" lon="4.80915">
        <ele>189.6</ele>
        <time>2024-09-19T10:45:03Z</time>
      </trkpt>
      <trkpt lat="46.23575" lon="4.80911">
        <ele>189.6</ele>
        <time>2024-09-19T10:45:04Z</time>
      </trkpt>
      <trkpt lat="46.23571" lon="4.80908">
        <ele>189.2</ele>
        <time>2024-09-19T10:45:05Z</time>
      </trkpt>
      <trkpt lat="46.23564" lon="4.80903">
        <ele>189.2</ele>
        <time>2024-09-19T10:45:06Z</time>
      </trkpt>
      <trkpt lat="46.23562" lon="4.80901">
        <ele>189.2</ele>
        <time>2024-09-19T10:45:07Z</time>
      </trkpt>
      <trkpt lat="46.23558" lon="4.80898">
        <ele>189.6</ele>
        <time>2024-09-19T10:45:08Z</time>
      </trkpt>
      <trkpt lat="46.23555" lon="4.80895">
        <ele>189.6</ele>
        <time>2024-09-19T10:45:09Z</time>
      </trkpt>
      <trkpt lat="46.2355" lon="4.8089">
        <ele>189.8</ele>
        <time>2024-09-19T10:45:10Z</time>
      </trkpt>
      <trkpt lat="46.23549" lon="4.80888">
        <ele>189.8</ele>
        <time>2024-09-19T10:45:11Z</time>
      </trkpt>
      <trkpt lat="46.23546" lon="4.80885">
        <ele>189.8</ele>
        <time>2024-09-19T10:45:12Z</time>
      </trkpt>
      <trkpt lat="46.23542" lon="4.80882">
        <ele>188.8</ele>
        <time>2024-09-19T10:45:13Z</time>
      </trkpt>
      <trkpt lat="46.23538" lon="4.8088">
        <ele>189.4</ele>
        <time>2024-09-19T10:45:14Z</time>
      </trkpt>
      <trkpt lat="46.23532" lon="4.80875">
        <ele>189.4</ele>
        <time>2024-09-19T10:45:15Z</time>
      </trkpt>
      <trkpt lat="46.2353" lon="4.80873">
        <ele>189.4</ele>
        <time>2024-09-19T10:45:16Z</time>
      </trkpt>
      <trkpt lat="46.23524" lon="4.80868">
        <ele>189</ele>
        <time>2024-09-19T10:45:17Z</time>
      </trkpt>
      <trkpt lat="46.23522" lon="4.80867">
        <ele>189.6</ele>
        <time>2024-09-19T10:45:18Z</time>
      </trkpt>
      <trkpt lat="46.23516" lon="4.80862">
        <ele>189.6</ele>
        <time>2024-09-19T10:45:19Z</time>
      </trkpt>
      <trkpt lat="46.23514" lon="4.8086">
        <ele>189.6</ele>
        <time>2024-09-19T10:45:20Z</time>
      </trkpt>
      <trkpt lat="46.23508" lon="4.80855">
        <ele>189.6</ele>
        <time>2024-09-19T10:45:21Z</time>
      </trkpt>
      <trkpt lat="46.23506" lon="4.80853">
        <ele>189.4</ele>
        <time>2024-09-19T10:45:22Z</time>
      </trkpt>
      <trkpt lat="46.235" lon="4.80848">
        <ele>189.2</ele>
        <time>2024-09-19T10:45:23Z</time>
      </trkpt>
      <trkpt lat="46.23498" lon="4.80846">
        <ele>189.2</ele>
        <time>2024-09-19T10:45:24Z</time>
      </trkpt>
      <trkpt lat="46.23492" lon="4.8084">
        <ele>189.2</ele>
        <time>2024-09-19T10:45:25Z</time>
      </trkpt>
      <trkpt lat="46.2349" lon="4.80839">
        <ele>189.2</ele>
        <time>2024-09-19T10:45:26Z</time>
      </trkpt>
      <trkpt lat="46.23487" lon="4.80835">
        <ele>189</ele>
        <time>2024-09-19T10:45:27Z</time>
      </trkpt>
      <trkpt lat="46.23483" lon="4.80831">
        <ele>189</ele>
        <time>2024-09-19T10:45:28Z</time>
      </trkpt>
      <trkpt lat="46.2348" lon="4.80827">
        <ele>189</ele>
        <time>2024-09-19T10:45:29Z</time>
      </trkpt>
      <trkpt lat="46.23475" lon="4.80821">
        <ele>189</ele>
        <time>2024-09-19T10:45:30Z</time>
      </trkpt>
      <trkpt lat="46.23474" lon="4.80818">
        <ele>189</ele>
        <time>2024-09-19T10:45:31Z</time>
      </trkpt>
      <trkpt lat="46.23471" lon="4.80814">
        <ele>189</ele>
        <time>2024-09-19T10:45:32Z</time>
      </trkpt>
      <trkpt lat="46.23467" lon="4.8081">
        <ele>189</ele>
        <time>2024-09-19T10:45:33Z</time>
      </trkpt>
      <trkpt lat="46.23463" lon="4.80807">
        <ele>189</ele>
        <time>2024-09-19T10:45:34Z</time>
      </trkpt>
      <trkpt lat="46.23458" lon="4.80804">
        <ele>189</ele>
        <time>2024-09-19T10:45:35Z</time>
      </trkpt>
      <trkpt lat="46.23455" lon="4.80801">
        <ele>189</ele>
        <time>2024-09-19T10:45:36Z</time>
      </trkpt>
      <trkpt lat="46.23451" lon="4.80798">
        <ele>189.4</ele>
        <time>2024-09-19T10:45:37Z</time>
      </trkpt>
      <trkpt lat="46.23447" lon="4.80795">
        <ele>189.4</ele>
        <time>2024-09-19T10:45:38Z</time>
      </trkpt>
      <trkpt lat="46.23444" lon="4.80792">
        <ele>189.4</ele>
        <time>2024-09-19T10:45:39Z</time>
      </trkpt>
      <trkpt lat="46.2344" lon="4.80788">
        <ele>189</ele>
        <time>2024-09-19T10:45:40Z</time>
      </trkpt>
      <trkpt lat="46.23436" lon="4.80784">
        <ele>189.2</ele>
        <time>2024-09-19T10:45:41Z</time>
      </trkpt>
      <trkpt lat="46.2343" lon="4.80778">
        <ele>189.2</ele>
        <time>2024-09-19T10:45:42Z</time>
      </trkpt>
      <trkpt lat="46.23428" lon="4.80777">
        <ele>189.2</ele>
        <time>2024-09-19T10:45:43Z</time>
      </trkpt>
      <trkpt lat="46.23424" lon="4.80773">
        <ele>189.2</ele>
        <time>2024-09-19T10:45:44Z</time>
      </trkpt>
      <trkpt lat="46.2342" lon="4.80769">
        <ele>189.2</ele>
        <time>2024-09-19T10:45:45Z</time>
      </trkpt>
      <trkpt lat="46.23416" lon="4.80765">
        <ele>189.2</ele>
        <time>2024-09-19T10:45:46Z</time>
      </trkpt>
      <trkpt lat="46.23412" lon="4.80761">
        <ele>189.2</ele>
        <time>2024-09-19T10:45:47Z</time>
      </trkpt>
      <trkpt lat="46.23408" lon="4.80757">
        <ele>189.2</ele>
        <time>2024-09-19T10:45:48Z</time>
      </trkpt>
      <trkpt lat="46.23404" lon="4.80753">
        <ele>189.2</ele>
        <time>2024-09-19T10:45:49Z</time>
      </trkpt>
      <trkpt lat="46.234" lon="4.80749">
        <ele>189.4</ele>
        <time>2024-09-19T10:45:50Z</time>
      </trkpt>
      <trkpt lat="46.23396" lon="4.80745">
        <ele>189.4</ele>
        <time>2024-09-19T10:45:51Z</time>
      </trkpt>
      <trkpt lat="46.23392" lon="4.80741">
        <ele>189.4</ele>
        <time>2024-09-19T10:45:52Z</time>
      </trkpt>
      <trkpt lat="46.23386" lon="4.80736">
        <ele>189.4</ele>
        <time>2024-09-19T10:45:53Z</time>
      </trkpt>
      <trkpt lat="46.23384" lon="4.80733">
        <ele>189.2</ele>
        <time>2024-09-19T10:45:54Z</time>
      </trkpt>
      <trkpt lat="46.2338" lon="4.8073">
        <ele>189.2</ele>
        <time>2024-09-19T10:45:55Z</time>
      </trkpt>
      <trkpt lat="46.23376" lon="4.80726">
        <ele>189.2</ele>
        <time>2024-09-19T10:45:56Z</time>
      </trkpt>
      <trkpt lat="46.23373" lon="4.80721">
        <ele>189.2</ele>
        <time>2024-09-19T10:45:57Z</time>
      </trkpt>
      <trkpt lat="46.23367" lon="4.80715">
        <ele>189.4</ele>
        <time>2024-09-19T10:45:58Z</time>
      </trkpt>
      <trkpt lat="46.23366" lon="4.80713">
        <ele>189.4</ele>
        <time>2024-09-19T10:45:59Z</time>
      </trkpt>
      <trkpt lat="46.2336" lon="4.80707">
        <ele>189.4</ele>
        <time>2024-09-19T10:46:00Z</time>
      </trkpt>
      <trkpt lat="46.23358" lon="4.80705">
        <ele>189.4</ele>
        <time>2024-09-19T10:46:01Z</time>
      </trkpt>
      <trkpt lat="46.23352" lon="4.80698">
        <ele>189.4</ele>
        <time>2024-09-19T10:46:02Z</time>
      </trkpt>
      <trkpt lat="46.2335" lon="4.80696">
        <ele>189.2</ele>
        <time>2024-09-19T10:46:03Z</time>
      </trkpt>
      <trkpt lat="46.23346" lon="4.80692">
        <ele>189.2</ele>
        <time>2024-09-19T10:46:04Z</time>
      </trkpt>
      <trkpt lat="46.23342" lon="4.80688">
        <ele>189.2</ele>
        <time>2024-09-19T10:46:05Z</time>
      </trkpt>
      <trkpt lat="46.23337" lon="4.80682">
        <ele>189.4</ele>
        <time>2024-09-19T10:46:06Z</time>
      </trkpt>
      <trkpt lat="46.23335" lon="4.8068">
        <ele>189.4</ele>
        <time>2024-09-19T10:46:07Z</time>
      </trkpt>
      <trkpt lat="46.23329" lon="4.80674">
        <ele>189.4</ele>
        <time>2024-09-19T10:46:08Z</time>
      </trkpt>
      <trkpt lat="46.23327" lon="4.80672">
        <ele>189.4</ele>
        <time>2024-09-19T10:46:09Z</time>
      </trkpt>
      <trkpt lat="46.23323" lon="4.80667">
        <ele>189.4</ele>
        <time>2024-09-19T10:46:10Z</time>
      </trkpt>
      <trkpt lat="46.2332" lon="4.80663">
        <ele>189.4</ele>
        <time>2024-09-19T10:46:11Z</time>
      </trkpt>
      <trkpt lat="46.23316" lon="4.80658">
        <ele>189.4</ele>
        <time>2024-09-19T10:46:12Z</time>
      </trkpt>
      <trkpt lat="46.23311" lon="4.80651">
        <ele>189.4</ele>
        <time>2024-09-19T10:46:13Z</time>
      </trkpt>
      <trkpt lat="46.23309" lon="4.80649">
        <ele>189.4</ele>
        <time>2024-09-19T10:46:14Z</time>
      </trkpt>
      <trkpt lat="46.23305" lon="4.80645">
        <ele>189.4</ele>
        <time>2024-09-19T10:46:15Z</time>
      </trkpt>
      <trkpt lat="46.23299" lon="4.80638">
        <ele>189.4</ele>
        <time>2024-09-19T10:46:16Z</time>
      </trkpt>
      <trkpt lat="46.23297" lon="4.80636">
        <ele>189.6</ele>
        <time>2024-09-19T10:46:17Z</time>
      </trkpt>
      <trkpt lat="46.23294" lon="4.80632">
        <ele>189.6</ele>
        <time>2024-09-19T10:46:18Z</time>
      </trkpt>
      <trkpt lat="46.2329" lon="4.80628">
        <ele>189.6</ele>
        <time>2024-09-19T10:46:19Z</time>
      </trkpt>
      <trkpt lat="46.23284" lon="4.80621">
        <ele>189.6</ele>
        <time>2024-09-19T10:46:20Z</time>
      </trkpt>
      <trkpt lat="46.23283" lon="4.80619">
        <ele>190</ele>
        <time>2024-09-19T10:46:21Z</time>
      </trkpt>
      <trkpt lat="46.23279" lon="4.80615">
        <ele>190</ele>
        <time>2024-09-19T10:46:22Z</time>
      </trkpt>
      <trkpt lat="46.23273" lon="4.80608">
        <ele>190</ele>
        <time>2024-09-19T10:46:23Z</time>
      </trkpt>
      <trkpt lat="46.23271" lon="4.80606">
        <ele>189.4</ele>
        <time>2024-09-19T10:46:24Z</time>
      </trkpt>
      <trkpt lat="46.23268" lon="4.80602">
        <ele>189.2</ele>
        <time>2024-09-19T10:46:25Z</time>
      </trkpt>
      <trkpt lat="46.23262" lon="4.80596">
        <ele>189.2</ele>
        <time>2024-09-19T10:46:26Z</time>
      </trkpt>
      <trkpt lat="46.2326" lon="4.80594">
        <ele>189.2</ele>
        <time>2024-09-19T10:46:27Z</time>
      </trkpt>
      <trkpt lat="46.23256" lon="4.80589">
        <ele>189.2</ele>
        <time>2024-09-19T10:46:28Z</time>
      </trkpt>
      <trkpt lat="46.23252" lon="4.80584">
        <ele>189.4</ele>
        <time>2024-09-19T10:46:29Z</time>
      </trkpt>
      <trkpt lat="46.23248" lon="4.8058">
        <ele>189.4</ele>
        <time>2024-09-19T10:46:30Z</time>
      </trkpt>
      <trkpt lat="46.23245" lon="4.80575">
        <ele>189.4</ele>
        <time>2024-09-19T10:46:31Z</time>
      </trkpt>
      <trkpt lat="46.23241" lon="4.8057">
        <ele>189.4</ele>
        <time>2024-09-19T10:46:32Z</time>
      </trkpt>
      <trkpt lat="46.23237" lon="4.80566">
        <ele>189.2</ele>
        <time>2024-09-19T10:46:33Z</time>
      </trkpt>
      <trkpt lat="46.23233" lon="4.80562">
        <ele>189.4</ele>
        <time>2024-09-19T10:46:34Z</time>
      </trkpt>
      <trkpt lat="46.23227" lon="4.80556">
        <ele>189.4</ele>
        <time>2024-09-19T10:46:35Z</time>
      </trkpt>
      <trkpt lat="46.23225" lon="4.80554">
        <ele>189.4</ele>
        <time>2024-09-19T10:46:36Z</time>
      </trkpt>
      <trkpt lat="46.23221" lon="4.80549">
        <ele>189.4</ele>
        <time>2024-09-19T10:46:37Z</time>
      </trkpt>
      <trkpt lat="46.23217" lon="4.80545">
        <ele>189.8</ele>
        <time>2024-09-19T10:46:38Z</time>
      </trkpt>
      <trkpt lat="46.23214" lon="4.8054">
        <ele>189.4</ele>
        <time>2024-09-19T10:46:39Z</time>
      </trkpt>
      <trkpt lat="46.2321" lon="4.80535">
        <ele>189.4</ele>
        <time>2024-09-19T10:46:40Z</time>
      </trkpt>
      <trkpt lat="46.23207" lon="4.8053">
        <ele>189.4</ele>
        <time>2024-09-19T10:46:41Z</time>
      </trkpt>
      <trkpt lat="46.23202" lon="4.80523">
        <ele>189.4</ele>
        <time>2024-09-19T10:46:42Z</time>
      </trkpt>
      <trkpt lat="46.232" lon="4.8052">
        <ele>188.8</ele>
        <time>2024-09-19T10:46:43Z</time>
      </trkpt>
      <trkpt lat="46.23195" lon="4.80513">
        <ele>188.8</ele>
        <time>2024-09-19T10:46:44Z</time>
      </trkpt>
      <trkpt lat="46.23193" lon="4.80511">
        <ele>188.8</ele>
        <time>2024-09-19T10:46:45Z</time>
      </trkpt>
      <trkpt lat="46.23188" lon="4.80503">
        <ele>189</ele>
        <time>2024-09-19T10:46:46Z</time>
      </trkpt>
      <trkpt lat="46.23186" lon="4.80501">
        <ele>189</ele>
        <time>2024-09-19T10:46:47Z</time>
      </trkpt>
      <trkpt lat="46.2318" lon="4.80494">
        <ele>188.8</ele>
        <time>2024-09-19T10:46:48Z</time>
      </trkpt>
      <trkpt lat="46.23178" lon="4.80492">
        <ele>188.8</ele>
        <time>2024-09-19T10:46:49Z</time>
      </trkpt>
      <trkpt lat="46.23173" lon="4.80485">
        <ele>188.8</ele>
        <time>2024-09-19T10:46:50Z</time>
      </trkpt>
      <trkpt lat="46.23171" lon="4.80482">
        <ele>189.4</ele>
        <time>2024-09-19T10:46:51Z</time>
      </trkpt>
      <trkpt lat="46.23167" lon="4.80478">
        <ele>189.2</ele>
        <time>2024-09-19T10:46:52Z</time>
      </trkpt>
      <trkpt lat="46.23163" lon="4.80473">
        <ele>189.2</ele>
        <time>2024-09-19T10:46:53Z</time>
      </trkpt>
      <trkpt lat="46.23159" lon="4.80468">
        <ele>189.2</ele>
        <time>2024-09-19T10:46:54Z</time>
      </trkpt>
      <trkpt lat="46.23153" lon="4.80462">
        <ele>189.2</ele>
        <time>2024-09-19T10:46:55Z</time>
      </trkpt>
      <trkpt lat="46.23151" lon="4.8046">
        <ele>189.2</ele>
        <time>2024-09-19T10:46:56Z</time>
      </trkpt>
      <trkpt lat="46.23145" lon="4.80453">
        <ele>189.2</ele>
        <time>2024-09-19T10:46:57Z</time>
      </trkpt>
      <trkpt lat="46.23143" lon="4.80451">
        <ele>189.2</ele>
        <time>2024-09-19T10:46:58Z</time>
      </trkpt>
      <trkpt lat="46.23137" lon="4.80445">
        <ele>189.2</ele>
        <time>2024-09-19T10:46:59Z</time>
      </trkpt>
      <trkpt lat="46.23135" lon="4.80443">
        <ele>189.2</ele>
        <time>2024-09-19T10:47:00Z</time>
      </trkpt>
      <trkpt lat="46.23131" lon="4.80438">
        <ele>189.2</ele>
        <time>2024-09-19T10:47:01Z</time>
      </trkpt>
      <trkpt lat="46.23126" lon="4.80434">
        <ele>189.2</ele>
        <time>2024-09-19T10:47:02Z</time>
      </trkpt>
      <trkpt lat="46.23122" lon="4.8043">
        <ele>189.2</ele>
        <time>2024-09-19T10:47:03Z</time>
      </trkpt>
      <trkpt lat="46.23117" lon="4.80426">
        <ele>189.2</ele>
        <time>2024-09-19T10:47:04Z</time>
      </trkpt>
      <trkpt lat="46.23113" lon="4.80421">
        <ele>189.6</ele>
        <time>2024-09-19T10:47:05Z</time>
      </trkpt>
      <trkpt lat="46.23107" lon="4.80414">
        <ele>189.6</ele>
        <time>2024-09-19T10:47:06Z</time>
      </trkpt>
      <trkpt lat="46.23105" lon="4.80412">
        <ele>189.6</ele>
        <time>2024-09-19T10:47:07Z</time>
      </trkpt>
      <trkpt lat="46.23101" lon="4.80408">
        <ele>189.6</ele>
        <time>2024-09-19T10:47:08Z</time>
      </trkpt>
      <trkpt lat="46.23095" lon="4.80401">
        <ele>189.6</ele>
        <time>2024-09-19T10:47:09Z</time>
      </trkpt>
      <trkpt lat="46.23093" lon="4.80399">
        <ele>189.6</ele>
        <time>2024-09-19T10:47:10Z</time>
      </trkpt>
      <trkpt lat="46.23088" lon="4.80395">
        <ele>189.6</ele>
        <time>2024-09-19T10:47:11Z</time>
      </trkpt>
      <trkpt lat="46.23084" lon="4.80391">
        <ele>189.6</ele>
        <time>2024-09-19T10:47:12Z</time>
      </trkpt>
      <trkpt lat="46.2308" lon="4.80386">
        <ele>189.6</ele>
        <time>2024-09-19T10:47:13Z</time>
      </trkpt>
      <trkpt lat="46.23077" lon="4.80381">
        <ele>189.4</ele>
        <time>2024-09-19T10:47:14Z</time>
      </trkpt>
      <trkpt lat="46.23073" lon="4.80377">
        <ele>189</ele>
        <time>2024-09-19T10:47:15Z</time>
      </trkpt>
      <trkpt lat="46.23069" lon="4.80373">
        <ele>189</ele>
        <time>2024-09-19T10:47:16Z</time>
      </trkpt>
      <trkpt lat="46.23065" lon="4.80369">
        <ele>189</ele>
        <time>2024-09-19T10:47:17Z</time>
      </trkpt>
      <trkpt lat="46.23061" lon="4.80364">
        <ele>189.2</ele>
        <time>2024-09-19T10:47:18Z</time>
      </trkpt>
      <trkpt lat="46.23055" lon="4.80358">
        <ele>189.2</ele>
        <time>2024-09-19T10:47:19Z</time>
      </trkpt>
      <trkpt lat="46.23053" lon="4.80355">
        <ele>189.2</ele>
        <time>2024-09-19T10:47:20Z</time>
      </trkpt>
      <trkpt lat="46.23047" lon="4.80349">
        <ele>189.2</ele>
        <time>2024-09-19T10:47:21Z</time>
      </trkpt>
      <trkpt lat="46.23045" lon="4.80346">
        <ele>189.2</ele>
        <time>2024-09-19T10:47:22Z</time>
      </trkpt>
      <trkpt lat="46.23039" lon="4.8034">
        <ele>189.2</ele>
        <time>2024-09-19T10:47:23Z</time>
      </trkpt>
      <trkpt lat="46.23037" lon="4.80338">
        <ele>189.2</ele>
        <time>2024-09-19T10:47:24Z</time>
      </trkpt>
      <trkpt lat="46.2303" lon="4.80332">
        <ele>189.2</ele>
        <time>2024-09-19T10:47:25Z</time>
      </trkpt>
      <trkpt lat="46.23028" lon="4.8033">
        <ele>189.2</ele>
        <time>2024-09-19T10:47:26Z</time>
      </trkpt>
      <trkpt lat="46.23021" lon="4.80324">
        <ele>189.2</ele>
        <time>2024-09-19T10:47:27Z</time>
      </trkpt>
      <trkpt lat="46.23019" lon="4.80322">
        <ele>189.2</ele>
        <time>2024-09-19T10:47:28Z</time>
      </trkpt>
      <trkpt lat="46.23015" lon="4.80319">
        <ele>189.4</ele>
        <time>2024-09-19T10:47:29Z</time>
      </trkpt>
      <trkpt lat="46.23011" lon="4.80315">
        <ele>189.4</ele>
        <time>2024-09-19T10:47:30Z</time>
      </trkpt>
      <trkpt lat="46.23007" lon="4.80312">
        <ele>189.4</ele>
        <time>2024-09-19T10:47:31Z</time>
      </trkpt>
      <trkpt lat="46.23002" lon="4.80308">
        <ele>189.4</ele>
        <time>2024-09-19T10:47:32Z</time>
      </trkpt>
      <trkpt lat="46.22998" lon="4.80304">
        <ele>189</ele>
        <time>2024-09-19T10:47:33Z</time>
      </trkpt>
      <trkpt lat="46.22994" lon="4.80301">
        <ele>189</ele>
        <time>2024-09-19T10:47:34Z</time>
      </trkpt>
      <trkpt lat="46.2299" lon="4.80297">
        <ele>189</ele>
        <time>2024-09-19T10:47:35Z</time>
      </trkpt>
      <trkpt lat="46.22986" lon="4.80293">
        <ele>189.4</ele>
        <time>2024-09-19T10:47:36Z</time>
      </trkpt>
      <trkpt lat="46.22982" lon="4.8029">
        <ele>189.4</ele>
        <time>2024-09-19T10:47:37Z</time>
      </trkpt>
      <trkpt lat="46.22978" lon="4.80288">
        <ele>189.4</ele>
        <time>2024-09-19T10:47:38Z</time>
      </trkpt>
      <trkpt lat="46.22972" lon="4.80283">
        <ele>189.4</ele>
        <time>2024-09-19T10:47:39Z</time>
      </trkpt>
      <trkpt lat="46.2297" lon="4.80281">
        <ele>189.4</ele>
        <time>2024-09-19T10:47:40Z</time>
      </trkpt>
      <trkpt lat="46.22966" lon="4.80278">
        <ele>189.2</ele>
        <time>2024-09-19T10:47:41Z</time>
      </trkpt>
      <trkpt lat="46.2296" lon="4.80274">
        <ele>189.2</ele>
        <time>2024-09-19T10:47:42Z</time>
      </trkpt>
      <trkpt lat="46.22958" lon="4.80272">
        <ele>189.6</ele>
        <time>2024-09-19T10:47:43Z</time>
      </trkpt>
      <trkpt lat="46.22954" lon="4.80269">
        <ele>189.6</ele>
        <time>2024-09-19T10:47:44Z</time>
      </trkpt>
      <trkpt lat="46.2295" lon="4.80266">
        <ele>189.6</ele>
        <time>2024-09-19T10:47:45Z</time>
      </trkpt>
      <trkpt lat="46.22946" lon="4.80263">
        <ele>189.6</ele>
        <time>2024-09-19T10:47:46Z</time>
      </trkpt>
      <trkpt lat="46.22943" lon="4.80261">
        <ele>190.2</ele>
        <time>2024-09-19T10:47:47Z</time>
      </trkpt>
      <trkpt lat="46.22939" lon="4.80259">
        <ele>190.2</ele>
        <time>2024-09-19T10:47:48Z</time>
      </trkpt>
      <trkpt lat="46.22934" lon="4.80256">
        <ele>190.2</ele>
        <time>2024-09-19T10:47:49Z</time>
      </trkpt>
      <trkpt lat="46.22932" lon="4.80254">
        <ele>189.8</ele>
        <time>2024-09-19T10:47:50Z</time>
      </trkpt>
      <trkpt lat="46.22928" lon="4.80252">
        <ele>190</ele>
        <time>2024-09-19T10:47:51Z</time>
      </trkpt>
      <trkpt lat="46.22921" lon="4.80248">
        <ele>190</ele>
        <time>2024-09-19T10:47:52Z</time>
      </trkpt>
      <trkpt lat="46.22919" lon="4.80246">
        <ele>190</ele>
        <time>2024-09-19T10:47:53Z</time>
      </trkpt>
      <trkpt lat="46.22915" lon="4.80244">
        <ele>190</ele>
        <time>2024-09-19T10:47:54Z</time>
      </trkpt>
      <trkpt lat="46.2291" lon="4.80241">
        <ele>190</ele>
        <time>2024-09-19T10:47:55Z</time>
      </trkpt>
      <trkpt lat="46.22906" lon="4.80238">
        <ele>189.6</ele>
        <time>2024-09-19T10:47:56Z</time>
      </trkpt>
      <trkpt lat="46.22902" lon="4.80234">
        <ele>189.6</ele>
        <time>2024-09-19T10:47:57Z</time>
      </trkpt>
      <trkpt lat="46.22898" lon="4.80231">
        <ele>189.6</ele>
        <time>2024-09-19T10:47:58Z</time>
      </trkpt>
      <trkpt lat="46.22891" lon="4.80225">
        <ele>189.6</ele>
        <time>2024-09-19T10:47:59Z</time>
      </trkpt>
      <trkpt lat="46.22889" lon="4.80223">
        <ele>189</ele>
        <time>2024-09-19T10:48:00Z</time>
      </trkpt>
      <trkpt lat="46.22885" lon="4.8022">
        <ele>189</ele>
        <time>2024-09-19T10:48:01Z</time>
      </trkpt>
      <trkpt lat="46.2288" lon="4.80216">
        <ele>189</ele>
        <time>2024-09-19T10:48:02Z</time>
      </trkpt>
      <trkpt lat="46.22874" lon="4.8021">
        <ele>189.4</ele>
        <time>2024-09-19T10:48:03Z</time>
      </trkpt>
      <trkpt lat="46.22872" lon="4.80209">
        <ele>189.2</ele>
        <time>2024-09-19T10:48:04Z</time>
      </trkpt>
      <trkpt lat="46.22866" lon="4.80203">
        <ele>189.2</ele>
        <time>2024-09-19T10:48:05Z</time>
      </trkpt>
      <trkpt lat="46.22864" lon="4.80201">
        <ele>189.2</ele>
        <time>2024-09-19T10:48:06Z</time>
      </trkpt>
      <trkpt lat="46.22858" lon="4.80197">
        <ele>189.2</ele>
        <time>2024-09-19T10:48:07Z</time>
      </trkpt>
      <trkpt lat="46.22856" lon="4.80195">
        <ele>189.2</ele>
        <time>2024-09-19T10:48:08Z</time>
      </trkpt>
      <trkpt lat="46.2285" lon="4.8019">
        <ele>189</ele>
        <time>2024-09-19T10:48:09Z</time>
      </trkpt>
      <trkpt lat="46.22848" lon="4.80188">
        <ele>189</ele>
        <time>2024-09-19T10:48:10Z</time>
      </trkpt>
      <trkpt lat="46.22842" lon="4.80184">
        <ele>189</ele>
        <time>2024-09-19T10:48:11Z</time>
      </trkpt>
      <trkpt lat="46.2284" lon="4.80183">
        <ele>189.4</ele>
        <time>2024-09-19T10:48:12Z</time>
      </trkpt>
      <trkpt lat="46.22836" lon="4.8018">
        <ele>189.2</ele>
        <time>2024-09-19T10:48:13Z</time>
      </trkpt>
      <trkpt lat="46.22832" lon="4.80177">
        <ele>189.2</ele>
        <time>2024-09-19T10:48:14Z</time>
      </trkpt>
      <trkpt lat="46.22826" lon="4.80171">
        <ele>189.2</ele>
        <time>2024-09-19T10:48:15Z</time>
      </trkpt>
      <trkpt lat="46.22824" lon="4.80169">
        <ele>189.2</ele>
        <time>2024-09-19T10:48:16Z</time>
      </trkpt>
      <trkpt lat="46.22817" lon="4.80165">
        <ele>189</ele>
        <time>2024-09-19T10:48:17Z</time>
      </trkpt>
      <trkpt lat="46.22815" lon="4.80163">
        <ele>189</ele>
        <time>2024-09-19T10:48:18Z</time>
      </trkpt>
      <trkpt lat="46.22811" lon="4.80161">
        <ele>189</ele>
        <time>2024-09-19T10:48:19Z</time>
      </trkpt>
      <trkpt lat="46.22806" lon="4.80158">
        <ele>189.4</ele>
        <time>2024-09-19T10:48:20Z</time>
      </trkpt>
      <trkpt lat="46.22802" lon="4.80155">
        <ele>189.4</ele>
        <time>2024-09-19T10:48:21Z</time>
      </trkpt>
      <trkpt lat="46.22795" lon="4.8015">
        <ele>189.2</ele>
        <time>2024-09-19T10:48:22Z</time>
      </trkpt>
      <trkpt lat="46.22793" lon="4.80149">
        <ele>189.2</ele>
        <time>2024-09-19T10:48:23Z</time>
      </trkpt>
      <trkpt lat="46.22788" lon="4.80146">
        <ele>189.2</ele>
        <time>2024-09-19T10:48:24Z</time>
      </trkpt>
      <trkpt lat="46.22781" lon="4.80142">
        <ele>189.2</ele>
        <time>2024-09-19T10:48:25Z</time>
      </trkpt>
      <trkpt lat="46.22779" lon="4.8014">
        <ele>189.2</ele>
        <time>2024-09-19T10:48:26Z</time>
      </trkpt>
      <trkpt lat="46.22774" lon="4.80138">
        <ele>189.2</ele>
        <time>2024-09-19T10:48:27Z</time>
      </trkpt>
      <trkpt lat="46.2277" lon="4.80135">
        <ele>189.2</ele>
        <time>2024-09-19T10:48:28Z</time>
      </trkpt>
      <trkpt lat="46.22765" lon="4.80132">
        <ele>189.2</ele>
        <time>2024-09-19T10:48:29Z</time>
      </trkpt>
      <trkpt lat="46.2276" lon="4.80129">
        <ele>189.2</ele>
        <time>2024-09-19T10:48:30Z</time>
      </trkpt>
      <trkpt lat="46.22756" lon="4.80126">
        <ele>189.2</ele>
        <time>2024-09-19T10:48:31Z</time>
      </trkpt>
      <trkpt lat="46.22749" lon="4.80122">
        <ele>189.2</ele>
        <time>2024-09-19T10:48:32Z</time>
      </trkpt>
      <trkpt lat="46.22747" lon="4.80121">
        <ele>189.2</ele>
        <time>2024-09-19T10:48:33Z</time>
      </trkpt>
      <trkpt lat="46.22743" lon="4.80118">
        <ele>189.2</ele>
        <time>2024-09-19T10:48:34Z</time>
      </trkpt>
      <trkpt lat="46.22736" lon="4.80113">
        <ele>189.2</ele>
        <time>2024-09-19T10:48:35Z</time>
      </trkpt>
      <trkpt lat="46.22734" lon="4.80112">
        <ele>189.2</ele>
        <time>2024-09-19T10:48:36Z</time>
      </trkpt>
      <trkpt lat="46.2273" lon="4.80109">
        <ele>188.8</ele>
        <time>2024-09-19T10:48:37Z</time>
      </trkpt>
      <trkpt lat="46.22725" lon="4.80106">
        <ele>188.8</ele>
        <time>2024-09-19T10:48:38Z</time>
      </trkpt>
      <trkpt lat="46.22721" lon="4.80104">
        <ele>189</ele>
        <time>2024-09-19T10:48:39Z</time>
      </trkpt>
      <trkpt lat="46.22717" lon="4.80101">
        <ele>189</ele>
        <time>2024-09-19T10:48:40Z</time>
      </trkpt>
      <trkpt lat="46.22712" lon="4.80099">
        <ele>189.2</ele>
        <time>2024-09-19T10:48:41Z</time>
      </trkpt>
      <trkpt lat="46.22705" lon="4.80095">
        <ele>189.2</ele>
        <time>2024-09-19T10:48:42Z</time>
      </trkpt>
      <trkpt lat="46.22703" lon="4.80094">
        <ele>189.2</ele>
        <time>2024-09-19T10:48:43Z</time>
      </trkpt>
      <trkpt lat="46.22698" lon="4.80091">
        <ele>189.2</ele>
        <time>2024-09-19T10:48:44Z</time>
      </trkpt>
      <trkpt lat="46.22694" lon="4.80089">
        <ele>189.4</ele>
        <time>2024-09-19T10:48:45Z</time>
      </trkpt>
      <trkpt lat="46.22687" lon="4.80086">
        <ele>189.4</ele>
        <time>2024-09-19T10:48:46Z</time>
      </trkpt>
      <trkpt lat="46.22685" lon="4.80085">
        <ele>189.4</ele>
        <time>2024-09-19T10:48:47Z</time>
      </trkpt>
      <trkpt lat="46.22678" lon="4.80082">
        <ele>189.4</ele>
        <time>2024-09-19T10:48:48Z</time>
      </trkpt>
      <trkpt lat="46.22676" lon="4.80081">
        <ele>189.2</ele>
        <time>2024-09-19T10:48:49Z</time>
      </trkpt>
      <trkpt lat="46.22669" lon="4.80078">
        <ele>189.2</ele>
        <time>2024-09-19T10:48:50Z</time>
      </trkpt>
      <trkpt lat="46.22667" lon="4.80077">
        <ele>189.2</ele>
        <time>2024-09-19T10:48:51Z</time>
      </trkpt>
      <trkpt lat="46.22659" lon="4.80074">
        <ele>189.2</ele>
        <time>2024-09-19T10:48:52Z</time>
      </trkpt>
      <trkpt lat="46.22657" lon="4.80073">
        <ele>189.2</ele>
        <time>2024-09-19T10:48:53Z</time>
      </trkpt>
      <trkpt lat="46.2265" lon="4.8007">
        <ele>189.4</ele>
        <time>2024-09-19T10:48:54Z</time>
      </trkpt>
      <trkpt lat="46.22648" lon="4.80069">
        <ele>189.4</ele>
        <time>2024-09-19T10:48:55Z</time>
      </trkpt>
      <trkpt lat="46.22641" lon="4.80066">
        <ele>189.4</ele>
        <time>2024-09-19T10:48:56Z</time>
      </trkpt>
      <trkpt lat="46.22639" lon="4.80065">
        <ele>189.4</ele>
        <time>2024-09-19T10:48:57Z</time>
      </trkpt>
      <trkpt lat="46.22634" lon="4.80063">
        <ele>189.4</ele>
        <time>2024-09-19T10:48:58Z</time>
      </trkpt>
      <trkpt lat="46.2263" lon="4.80061">
        <ele>189.4</ele>
        <time>2024-09-19T10:48:59Z</time>
      </trkpt>
      <trkpt lat="46.22625" lon="4.80059">
        <ele>189.4</ele>
        <time>2024-09-19T10:49:00Z</time>
      </trkpt>
      <trkpt lat="46.22621" lon="4.80057">
        <ele>189.4</ele>
        <time>2024-09-19T10:49:01Z</time>
      </trkpt>
      <trkpt lat="46.22617" lon="4.80055">
        <ele>189.4</ele>
        <time>2024-09-19T10:49:02Z</time>
      </trkpt>
      <trkpt lat="46.22612" lon="4.80053">
        <ele>189.4</ele>
        <time>2024-09-19T10:49:03Z</time>
      </trkpt>
      <trkpt lat="46.22608" lon="4.80051">
        <ele>189.4</ele>
        <time>2024-09-19T10:49:04Z</time>
      </trkpt>
      <trkpt lat="46.22603" lon="4.80049">
        <ele>189.4</ele>
        <time>2024-09-19T10:49:05Z</time>
      </trkpt>
      <trkpt lat="46.22596" lon="4.80047">
        <ele>189.4</ele>
        <time>2024-09-19T10:49:06Z</time>
      </trkpt>
      <trkpt lat="46.22594" lon="4.80046">
        <ele>189.4</ele>
        <time>2024-09-19T10:49:07Z</time>
      </trkpt>
      <trkpt lat="46.22589" lon="4.80044">
        <ele>189.4</ele>
        <time>2024-09-19T10:49:08Z</time>
      </trkpt>
      <trkpt lat="46.22582" lon="4.80041">
        <ele>189.4</ele>
        <time>2024-09-19T10:49:09Z</time>
      </trkpt>
      <trkpt lat="46.2258" lon="4.8004">
        <ele>189.4</ele>
        <time>2024-09-19T10:49:10Z</time>
      </trkpt>
      <trkpt lat="46.22575" lon="4.80038">
        <ele>189.4</ele>
        <time>2024-09-19T10:49:11Z</time>
      </trkpt>
      <trkpt lat="46.2257" lon="4.80036">
        <ele>189.4</ele>
        <time>2024-09-19T10:49:12Z</time>
      </trkpt>
      <trkpt lat="46.22565" lon="4.80034">
        <ele>189.4</ele>
        <time>2024-09-19T10:49:13Z</time>
      </trkpt>
      <trkpt lat="46.22561" lon="4.80032">
        <ele>189.4</ele>
        <time>2024-09-19T10:49:14Z</time>
      </trkpt>
      <trkpt lat="46.22556" lon="4.8003">
        <ele>189.4</ele>
        <time>2024-09-19T10:49:15Z</time>
      </trkpt>
      <trkpt lat="46.22549" lon="4.80027">
        <ele>189.2</ele>
        <time>2024-09-19T10:49:16Z</time>
      </trkpt>
      <trkpt lat="46.22547" lon="4.80026">
        <ele>189.4</ele>
        <time>2024-09-19T10:49:17Z</time>
      </trkpt>
      <trkpt lat="46.22542" lon="4.80024">
        <ele>189.4</ele>
        <time>2024-09-19T10:49:18Z</time>
      </trkpt>
      <trkpt lat="46.22535" lon="4.80021">
        <ele>189.4</ele>
        <time>2024-09-19T10:49:19Z</time>
      </trkpt>
      <trkpt lat="46.22533" lon="4.80021">
        <ele>189.4</ele>
        <time>2024-09-19T10:49:20Z</time>
      </trkpt>
      <trkpt lat="46.22529" lon="4.80019">
        <ele>189.6</ele>
        <time>2024-09-19T10:49:21Z</time>
      </trkpt>
      <trkpt lat="46.22524" lon="4.80018">
        <ele>189.6</ele>
        <time>2024-09-19T10:49:22Z</time>
      </trkpt>
      <trkpt lat="46.22519" lon="4.80016">
        <ele>189.6</ele>
        <time>2024-09-19T10:49:23Z</time>
      </trkpt>
      <trkpt lat="46.22515" lon="4.80015">
        <ele>189.6</ele>
        <time>2024-09-19T10:49:24Z</time>
      </trkpt>
      <trkpt lat="46.2251" lon="4.80013">
        <ele>189.8</ele>
        <time>2024-09-19T10:49:25Z</time>
      </trkpt>
      <trkpt lat="46.22503" lon="4.8001">
        <ele>189.8</ele>
        <time>2024-09-19T10:49:26Z</time>
      </trkpt>
      <trkpt lat="46.22501" lon="4.80009">
        <ele>189.8</ele>
        <time>2024-09-19T10:49:27Z</time>
      </trkpt>
      <trkpt lat="46.22497" lon="4.80008">
        <ele>189.8</ele>
        <time>2024-09-19T10:49:28Z</time>
      </trkpt>
      <trkpt lat="46.22492" lon="4.80006">
        <ele>189.8</ele>
        <time>2024-09-19T10:49:29Z</time>
      </trkpt>
      <trkpt lat="46.22485" lon="4.80003">
        <ele>189.8</ele>
        <time>2024-09-19T10:49:30Z</time>
      </trkpt>
      <trkpt lat="46.22483" lon="4.80002">
        <ele>189.8</ele>
        <time>2024-09-19T10:49:31Z</time>
      </trkpt>
      <trkpt lat="46.22478" lon="4.8">
        <ele>189.8</ele>
        <time>2024-09-19T10:49:32Z</time>
      </trkpt>
      <trkpt lat="46.22474" lon="4.79998">
        <ele>189.8</ele>
        <time>2024-09-19T10:49:33Z</time>
      </trkpt>
      <trkpt lat="46.22467" lon="4.79995">
        <ele>189.6</ele>
        <time>2024-09-19T10:49:34Z</time>
      </trkpt>
      <trkpt lat="46.22464" lon="4.79994">
        <ele>189.6</ele>
        <time>2024-09-19T10:49:35Z</time>
      </trkpt>
      <trkpt lat="46.22458" lon="4.79992">
        <ele>189.6</ele>
        <time>2024-09-19T10:49:36Z</time>
      </trkpt>
      <trkpt lat="46.22455" lon="4.79991">
        <ele>189.8</ele>
        <time>2024-09-19T10:49:37Z</time>
      </trkpt>
      <trkpt lat="46.22449" lon="4.79988">
        <ele>190</ele>
        <time>2024-09-19T10:49:38Z</time>
      </trkpt>
      <trkpt lat="46.22447" lon="4.79987">
        <ele>190</ele>
        <time>2024-09-19T10:49:39Z</time>
      </trkpt>
      <trkpt lat="46.2244" lon="4.79984">
        <ele>190</ele>
        <time>2024-09-19T10:49:40Z</time>
      </trkpt>
      <trkpt lat="46.22438" lon="4.79983">
        <ele>190</ele>
        <time>2024-09-19T10:49:41Z</time>
      </trkpt>
      <trkpt lat="46.22434" lon="4.79981">
        <ele>190</ele>
        <time>2024-09-19T10:49:42Z</time>
      </trkpt>
      <trkpt lat="46.22429" lon="4.79979">
        <ele>190.2</ele>
        <time>2024-09-19T10:49:43Z</time>
      </trkpt>
      <trkpt lat="46.22424" lon="4.79977">
        <ele>190.2</ele>
        <time>2024-09-19T10:49:44Z</time>
      </trkpt>
      <trkpt lat="46.2242" lon="4.79975">
        <ele>190.2</ele>
        <time>2024-09-19T10:49:45Z</time>
      </trkpt>
      <trkpt lat="46.22415" lon="4.79972">
        <ele>190.2</ele>
        <time>2024-09-19T10:49:46Z</time>
      </trkpt>
      <trkpt lat="46.2241" lon="4.7997">
        <ele>190.2</ele>
        <time>2024-09-19T10:49:47Z</time>
      </trkpt>
      <trkpt lat="46.22405" lon="4.79968">
        <ele>190.2</ele>
        <time>2024-09-19T10:49:48Z</time>
      </trkpt>
      <trkpt lat="46.22398" lon="4.79964">
        <ele>190.2</ele>
        <time>2024-09-19T10:49:49Z</time>
      </trkpt>
      <trkpt lat="46.22395" lon="4.79963">
        <ele>190.2</ele>
        <time>2024-09-19T10:49:50Z</time>
      </trkpt>
      <trkpt lat="46.22391" lon="4.79961">
        <ele>190.2</ele>
        <time>2024-09-19T10:49:51Z</time>
      </trkpt>
      <trkpt lat="46.22384" lon="4.79957">
        <ele>190.2</ele>
        <time>2024-09-19T10:49:52Z</time>
      </trkpt>
      <trkpt lat="46.22382" lon="4.79956">
        <ele>190</ele>
        <time>2024-09-19T10:49:53Z</time>
      </trkpt>
      <trkpt lat="46.22377" lon="4.79954">
        <ele>190</ele>
        <time>2024-09-19T10:49:54Z</time>
      </trkpt>
      <trkpt lat="46.22372" lon="4.79951">
        <ele>190</ele>
        <time>2024-09-19T10:49:55Z</time>
      </trkpt>
      <trkpt lat="46.22367" lon="4.79949">
        <ele>190.2</ele>
        <time>2024-09-19T10:49:56Z</time>
      </trkpt>
      <trkpt lat="46.22363" lon="4.79947">
        <ele>190</ele>
        <time>2024-09-19T10:49:57Z</time>
      </trkpt>
      <trkpt lat="46.22358" lon="4.79944">
        <ele>190</ele>
        <time>2024-09-19T10:49:58Z</time>
      </trkpt>
      <trkpt lat="46.2235" lon="4.79941">
        <ele>190</ele>
        <time>2024-09-19T10:49:59Z</time>
      </trkpt>
      <trkpt lat="46.22348" lon="4.7994">
        <ele>190</ele>
        <time>2024-09-19T10:50:00Z</time>
      </trkpt>
      <trkpt lat="46.22343" lon="4.79937">
        <ele>189.8</ele>
        <time>2024-09-19T10:50:01Z</time>
      </trkpt>
      <trkpt lat="46.22336" lon="4.79934">
        <ele>189.8</ele>
        <time>2024-09-19T10:50:02Z</time>
      </trkpt>
      <trkpt lat="46.22334" lon="4.79933">
        <ele>189.8</ele>
        <time>2024-09-19T10:50:03Z</time>
      </trkpt>
      <trkpt lat="46.22329" lon="4.7993">
        <ele>189.8</ele>
        <time>2024-09-19T10:50:04Z</time>
      </trkpt>
      <trkpt lat="46.22324" lon="4.79928">
        <ele>189.8</ele>
        <time>2024-09-19T10:50:05Z</time>
      </trkpt>
      <trkpt lat="46.2232" lon="4.79926">
        <ele>189.8</ele>
        <time>2024-09-19T10:50:06Z</time>
      </trkpt>
      <trkpt lat="46.22315" lon="4.79923">
        <ele>189.8</ele>
        <time>2024-09-19T10:50:07Z</time>
      </trkpt>
      <trkpt lat="46.2231" lon="4.79921">
        <ele>189.8</ele>
        <time>2024-09-19T10:50:08Z</time>
      </trkpt>
      <trkpt lat="46.22303" lon="4.79917">
        <ele>189.6</ele>
        <time>2024-09-19T10:50:09Z</time>
      </trkpt>
      <trkpt lat="46.22301" lon="4.79916">
        <ele>189.4</ele>
        <time>2024-09-19T10:50:10Z</time>
      </trkpt>
      <trkpt lat="46.22294" lon="4.79912">
        <ele>189.4</ele>
        <time>2024-09-19T10:50:11Z</time>
      </trkpt>
      <trkpt lat="46.22291" lon="4.79911">
        <ele>189.4</ele>
        <time>2024-09-19T10:50:12Z</time>
      </trkpt>
      <trkpt lat="46.22284" lon="4.79908">
        <ele>189.4</ele>
        <time>2024-09-19T10:50:13Z</time>
      </trkpt>
      <trkpt lat="46.22282" lon="4.79907">
        <ele>189.4</ele>
        <time>2024-09-19T10:50:14Z</time>
      </trkpt>
      <trkpt lat="46.22277" lon="4.79906">
        <ele>189.6</ele>
        <time>2024-09-19T10:50:15Z</time>
      </trkpt>
      <trkpt lat="46.22272" lon="4.79905">
        <ele>189.6</ele>
        <time>2024-09-19T10:50:16Z</time>
      </trkpt>
      <trkpt lat="46.22265" lon="4.79902">
        <ele>189.6</ele>
        <time>2024-09-19T10:50:17Z</time>
      </trkpt>
      <trkpt lat="46.22263" lon="4.79902">
        <ele>189.6</ele>
        <time>2024-09-19T10:50:18Z</time>
      </trkpt>
      <trkpt lat="46.22256" lon="4.79898">
        <ele>189.4</ele>
        <time>2024-09-19T10:50:19Z</time>
      </trkpt>
      <trkpt lat="46.22254" lon="4.79897">
        <ele>189.4</ele>
        <time>2024-09-19T10:50:20Z</time>
      </trkpt>
      <trkpt lat="46.22247" lon="4.79894">
        <ele>189.4</ele>
        <time>2024-09-19T10:50:21Z</time>
      </trkpt>
      <trkpt lat="46.22245" lon="4.79893">
        <ele>189.6</ele>
        <time>2024-09-19T10:50:22Z</time>
      </trkpt>
      <trkpt lat="46.22241" lon="4.79891">
        <ele>189.8</ele>
        <time>2024-09-19T10:50:23Z</time>
      </trkpt>
      <trkpt lat="46.22236" lon="4.79889">
        <ele>189.8</ele>
        <time>2024-09-19T10:50:24Z</time>
      </trkpt>
      <trkpt lat="46.22232" lon="4.79887">
        <ele>189.8</ele>
        <time>2024-09-19T10:50:25Z</time>
      </trkpt>
      <trkpt lat="46.22225" lon="4.79884">
        <ele>189.8</ele>
        <time>2024-09-19T10:50:26Z</time>
      </trkpt>
      <trkpt lat="46.22223" lon="4.79883">
        <ele>189.8</ele>
        <time>2024-09-19T10:50:27Z</time>
      </trkpt>
      <trkpt lat="46.22218" lon="4.79881">
        <ele>189.8</ele>
        <time>2024-09-19T10:50:28Z</time>
      </trkpt>
      <trkpt lat="46.22214" lon="4.79879">
        <ele>189.8</ele>
        <time>2024-09-19T10:50:29Z</time>
      </trkpt>
      <trkpt lat="46.22209" lon="4.79877">
        <ele>189.8</ele>
        <time>2024-09-19T10:50:30Z</time>
      </trkpt>
      <trkpt lat="46.22202" lon="4.79873">
        <ele>190.2</ele>
        <time>2024-09-19T10:50:31Z</time>
      </trkpt>
      <trkpt lat="46.222" lon="4.79872">
        <ele>190</ele>
        <time>2024-09-19T10:50:32Z</time>
      </trkpt>
      <trkpt lat="46.22195" lon="4.79869">
        <ele>190</ele>
        <time>2024-09-19T10:50:33Z</time>
      </trkpt>
      <trkpt lat="46.22191" lon="4.79867">
        <ele>190</ele>
        <time>2024-09-19T10:50:34Z</time>
      </trkpt>
      <trkpt lat="46.22187" lon="4.79864">
        <ele>190</ele>
        <time>2024-09-19T10:50:35Z</time>
      </trkpt>
      <trkpt lat="46.22183" lon="4.79862">
        <ele>189.6</ele>
        <time>2024-09-19T10:50:36Z</time>
      </trkpt>
      <trkpt lat="46.22179" lon="4.7986">
        <ele>190</ele>
        <time>2024-09-19T10:50:37Z</time>
      </trkpt>
      <trkpt lat="46.22174" lon="4.79857">
        <ele>190</ele>
        <time>2024-09-19T10:50:38Z</time>
      </trkpt>
      <trkpt lat="46.2217" lon="4.79855">
        <ele>190</ele>
        <time>2024-09-19T10:50:39Z</time>
      </trkpt>
      <trkpt lat="46.22165" lon="4.79852">
        <ele>190</ele>
        <time>2024-09-19T10:50:40Z</time>
      </trkpt>
      <trkpt lat="46.22158" lon="4.79848">
        <ele>189.8</ele>
        <time>2024-09-19T10:50:41Z</time>
      </trkpt>
      <trkpt lat="46.22156" lon="4.79847">
        <ele>190.2</ele>
        <time>2024-09-19T10:50:42Z</time>
      </trkpt>
      <trkpt lat="46.22148" lon="4.79843">
        <ele>190.2</ele>
        <time>2024-09-19T10:50:43Z</time>
      </trkpt>
      <trkpt lat="46.22146" lon="4.79842">
        <ele>190.2</ele>
        <time>2024-09-19T10:50:44Z</time>
      </trkpt>
      <trkpt lat="46.22142" lon="4.79839">
        <ele>190.2</ele>
        <time>2024-09-19T10:50:45Z</time>
      </trkpt>
      <trkpt lat="46.22137" lon="4.79836">
        <ele>190.2</ele>
        <time>2024-09-19T10:50:46Z</time>
      </trkpt>
      <trkpt lat="46.22133" lon="4.79834">
        <ele>190.2</ele>
        <time>2024-09-19T10:50:47Z</time>
      </trkpt>
      <trkpt lat="46.22128" lon="4.79831">
        <ele>190.2</ele>
        <time>2024-09-19T10:50:48Z</time>
      </trkpt>
      <trkpt lat="46.22124" lon="4.79829">
        <ele>190.2</ele>
        <time>2024-09-19T10:50:49Z</time>
      </trkpt>
      <trkpt lat="46.22119" lon="4.79826">
        <ele>190</ele>
        <time>2024-09-19T10:50:50Z</time>
      </trkpt>
      <trkpt lat="46.22115" lon="4.79823">
        <ele>190</ele>
        <time>2024-09-19T10:50:51Z</time>
      </trkpt>
      <trkpt lat="46.22108" lon="4.79818">
        <ele>190</ele>
        <time>2024-09-19T10:50:52Z</time>
      </trkpt>
      <trkpt lat="46.22106" lon="4.79816">
        <ele>190</ele>
        <time>2024-09-19T10:50:53Z</time>
      </trkpt>
      <trkpt lat="46.22099" lon="4.79811">
        <ele>190</ele>
        <time>2024-09-19T10:50:54Z</time>
      </trkpt>
      <trkpt lat="46.22097" lon="4.7981">
        <ele>190</ele>
        <time>2024-09-19T10:50:55Z</time>
      </trkpt>
      <trkpt lat="46.2209" lon="4.79805">
        <ele>190</ele>
        <time>2024-09-19T10:50:56Z</time>
      </trkpt>
      <trkpt lat="46.22088" lon="4.79804">
        <ele>190</ele>
        <time>2024-09-19T10:50:57Z</time>
      </trkpt>
      <trkpt lat="46.22084" lon="4.798">
        <ele>190</ele>
        <time>2024-09-19T10:50:58Z</time>
      </trkpt>
      <trkpt lat="46.22079" lon="4.79797">
        <ele>190</ele>
        <time>2024-09-19T10:50:59Z</time>
      </trkpt>
      <trkpt lat="46.22074" lon="4.79794">
        <ele>189.8</ele>
        <time>2024-09-19T10:51:00Z</time>
      </trkpt>
      <trkpt lat="46.2207" lon="4.79791">
        <ele>189.8</ele>
        <time>2024-09-19T10:51:01Z</time>
      </trkpt>
      <trkpt lat="46.22063" lon="4.79787">
        <ele>189.8</ele>
        <time>2024-09-19T10:51:02Z</time>
      </trkpt>
      <trkpt lat="46.22061" lon="4.79785">
        <ele>189.8</ele>
        <time>2024-09-19T10:51:03Z</time>
      </trkpt>
      <trkpt lat="46.22055" lon="4.7978">
        <ele>190.2</ele>
        <time>2024-09-19T10:51:04Z</time>
      </trkpt>
      <trkpt lat="46.22053" lon="4.79779">
        <ele>190.2</ele>
        <time>2024-09-19T10:51:05Z</time>
      </trkpt>
      <trkpt lat="46.22046" lon="4.79774">
        <ele>190.2</ele>
        <time>2024-09-19T10:51:06Z</time>
      </trkpt>
      <trkpt lat="46.22043" lon="4.79773">
        <ele>190</ele>
        <time>2024-09-19T10:51:07Z</time>
      </trkpt>
      <trkpt lat="46.22039" lon="4.79771">
        <ele>190</ele>
        <time>2024-09-19T10:51:08Z</time>
      </trkpt>
      <trkpt lat="46.22034" lon="4.79768">
        <ele>190</ele>
        <time>2024-09-19T10:51:09Z</time>
      </trkpt>
      <trkpt lat="46.2203" lon="4.79765">
        <ele>190</ele>
        <time>2024-09-19T10:51:10Z</time>
      </trkpt>
      <trkpt lat="46.22025" lon="4.79762">
        <ele>190</ele>
        <time>2024-09-19T10:51:11Z</time>
      </trkpt>
      <trkpt lat="46.2202" lon="4.79759">
        <ele>190.2</ele>
        <time>2024-09-19T10:51:12Z</time>
      </trkpt>
      <trkpt lat="46.22015" lon="4.79756">
        <ele>190.2</ele>
        <time>2024-09-19T10:51:13Z</time>
      </trkpt>
      <trkpt lat="46.22011" lon="4.79754">
        <ele>190.2</ele>
        <time>2024-09-19T10:51:14Z</time>
      </trkpt>
      <trkpt lat="46.22006" lon="4.7975">
        <ele>190.2</ele>
        <time>2024-09-19T10:51:15Z</time>
      </trkpt>
      <trkpt lat="46.22" lon="4.79746">
        <ele>190.2</ele>
        <time>2024-09-19T10:51:16Z</time>
      </trkpt>
      <trkpt lat="46.21997" lon="4.79744">
        <ele>190.2</ele>
        <time>2024-09-19T10:51:17Z</time>
      </trkpt>
      <trkpt lat="46.2199" lon="4.7974">
        <ele>190.2</ele>
        <time>2024-09-19T10:51:18Z</time>
      </trkpt>
      <trkpt lat="46.21988" lon="4.79738">
        <ele>190.2</ele>
        <time>2024-09-19T10:51:19Z</time>
      </trkpt>
      <trkpt lat="46.21984" lon="4.79735">
        <ele>190.2</ele>
        <time>2024-09-19T10:51:20Z</time>
      </trkpt>
      <trkpt lat="46.21979" lon="4.79732">
        <ele>190.2</ele>
        <time>2024-09-19T10:51:21Z</time>
      </trkpt>
      <trkpt lat="46.21974" lon="4.7973">
        <ele>190</ele>
        <time>2024-09-19T10:51:22Z</time>
      </trkpt>
      <trkpt lat="46.21969" lon="4.79727">
        <ele>190</ele>
        <time>2024-09-19T10:51:23Z</time>
      </trkpt>
      <trkpt lat="46.21964" lon="4.79724">
        <ele>190</ele>
        <time>2024-09-19T10:51:24Z</time>
      </trkpt>
      <trkpt lat="46.2196" lon="4.79721">
        <ele>190</ele>
        <time>2024-09-19T10:51:25Z</time>
      </trkpt>
      <trkpt lat="46.21955" lon="4.79718">
        <ele>190</ele>
        <time>2024-09-19T10:51:26Z</time>
      </trkpt>
      <trkpt lat="46.21951" lon="4.79715">
        <ele>190.2</ele>
        <time>2024-09-19T10:51:27Z</time>
      </trkpt>
      <trkpt lat="46.21943" lon="4.7971">
        <ele>190.2</ele>
        <time>2024-09-19T10:51:28Z</time>
      </trkpt>
      <trkpt lat="46.21941" lon="4.79708">
        <ele>190.2</ele>
        <time>2024-09-19T10:51:29Z</time>
      </trkpt>
      <trkpt lat="46.21937" lon="4.79705">
        <ele>190.4</ele>
        <time>2024-09-19T10:51:30Z</time>
      </trkpt>
      <trkpt lat="46.21932" lon="4.79702">
        <ele>190.4</ele>
        <time>2024-09-19T10:51:31Z</time>
      </trkpt>
      <trkpt lat="46.21927" lon="4.79698">
        <ele>190.6</ele>
        <time>2024-09-19T10:51:32Z</time>
      </trkpt>
      <trkpt lat="46.21921" lon="4.79693">
        <ele>190.6</ele>
        <time>2024-09-19T10:51:33Z</time>
      </trkpt>
      <trkpt lat="46.21918" lon="4.79692">
        <ele>190.6</ele>
        <time>2024-09-19T10:51:34Z</time>
      </trkpt>
      <trkpt lat="46.21914" lon="4.79689">
        <ele>190</ele>
        <time>2024-09-19T10:51:35Z</time>
      </trkpt>
      <trkpt lat="46.21907" lon="4.79684">
        <ele>189.8</ele>
        <time>2024-09-19T10:51:36Z</time>
      </trkpt>
      <trkpt lat="46.21905" lon="4.79683">
        <ele>189.8</ele>
        <time>2024-09-19T10:51:37Z</time>
      </trkpt>
      <trkpt lat="46.219" lon="4.7968">
        <ele>189.8</ele>
        <time>2024-09-19T10:51:38Z</time>
      </trkpt>
      <trkpt lat="46.21896" lon="4.79677">
        <ele>189.8</ele>
        <time>2024-09-19T10:51:39Z</time>
      </trkpt>
      <trkpt lat="46.21891" lon="4.79675">
        <ele>190</ele>
        <time>2024-09-19T10:51:40Z</time>
      </trkpt>
      <trkpt lat="46.21885" lon="4.79671">
        <ele>190</ele>
        <time>2024-09-19T10:51:41Z</time>
      </trkpt>
      <trkpt lat="46.21882" lon="4.79669">
        <ele>190</ele>
        <time>2024-09-19T10:51:42Z</time>
      </trkpt>
      <trkpt lat="46.21876" lon="4.79666">
        <ele>190</ele>
        <time>2024-09-19T10:51:43Z</time>
      </trkpt>
      <trkpt lat="46.21873" lon="4.79665">
        <ele>189.8</ele>
        <time>2024-09-19T10:51:44Z</time>
      </trkpt>
      <trkpt lat="46.21866" lon="4.7966">
        <ele>189.8</ele>
        <time>2024-09-19T10:51:45Z</time>
      </trkpt>
      <trkpt lat="46.21864" lon="4.79659">
        <ele>189.8</ele>
        <time>2024-09-19T10:51:46Z</time>
      </trkpt>
      <trkpt lat="46.21858" lon="4.79655">
        <ele>189.8</ele>
        <time>2024-09-19T10:51:47Z</time>
      </trkpt>
      <trkpt lat="46.21855" lon="4.79653">
        <ele>190.2</ele>
        <time>2024-09-19T10:51:48Z</time>
      </trkpt>
      <trkpt lat="46.21848" lon="4.7965">
        <ele>190.2</ele>
        <time>2024-09-19T10:51:49Z</time>
      </trkpt>
      <trkpt lat="46.21846" lon="4.79648">
        <ele>190.2</ele>
        <time>2024-09-19T10:51:50Z</time>
      </trkpt>
      <trkpt lat="46.21842" lon="4.79646">
        <ele>190.2</ele>
        <time>2024-09-19T10:51:51Z</time>
      </trkpt>
      <trkpt lat="46.21837" lon="4.79644">
        <ele>190</ele>
        <time>2024-09-19T10:51:52Z</time>
      </trkpt>
      <trkpt lat="46.21833" lon="4.79642">
        <ele>190.4</ele>
        <time>2024-09-19T10:51:53Z</time>
      </trkpt>
      <trkpt lat="46.21828" lon="4.79639">
        <ele>190.4</ele>
        <time>2024-09-19T10:51:54Z</time>
      </trkpt>
      <trkpt lat="46.21824" lon="4.79637">
        <ele>190.4</ele>
        <time>2024-09-19T10:51:55Z</time>
      </trkpt>
      <trkpt lat="46.21819" lon="4.79635">
        <ele>190.4</ele>
        <time>2024-09-19T10:51:56Z</time>
      </trkpt>
      <trkpt lat="46.21812" lon="4.79632">
        <ele>190.2</ele>
        <time>2024-09-19T10:51:57Z</time>
      </trkpt>
      <trkpt lat="46.2181" lon="4.79631">
        <ele>190.2</ele>
        <time>2024-09-19T10:51:58Z</time>
      </trkpt>
      <trkpt lat="46.21805" lon="4.79629">
        <ele>190.2</ele>
        <time>2024-09-19T10:51:59Z</time>
      </trkpt>
      <trkpt lat="46.21798" lon="4.79626">
        <ele>190.2</ele>
        <time>2024-09-19T10:52:00Z</time>
      </trkpt>
      <trkpt lat="46.21796" lon="4.79624">
        <ele>190.2</ele>
        <time>2024-09-19T10:52:01Z</time>
      </trkpt>
      <trkpt lat="46.21792" lon="4.79622">
        <ele>190.2</ele>
        <time>2024-09-19T10:52:02Z</time>
      </trkpt>
      <trkpt lat="46.21787" lon="4.7962">
        <ele>190.2</ele>
        <time>2024-09-19T10:52:03Z</time>
      </trkpt>
      <trkpt lat="46.21782" lon="4.79618">
        <ele>190.2</ele>
        <time>2024-09-19T10:52:04Z</time>
      </trkpt>
      <trkpt lat="46.21778" lon="4.79615">
        <ele>190.2</ele>
        <time>2024-09-19T10:52:05Z</time>
      </trkpt>
      <trkpt lat="46.21773" lon="4.79613">
        <ele>190.2</ele>
        <time>2024-09-19T10:52:06Z</time>
      </trkpt>
      <trkpt lat="46.21767" lon="4.7961">
        <ele>190.4</ele>
        <time>2024-09-19T10:52:07Z</time>
      </trkpt>
      <trkpt lat="46.21764" lon="4.79609">
        <ele>190.4</ele>
        <time>2024-09-19T10:52:08Z</time>
      </trkpt>
      <trkpt lat="46.2176" lon="4.79607">
        <ele>190.4</ele>
        <time>2024-09-19T10:52:09Z</time>
      </trkpt>
      <trkpt lat="46.21753" lon="4.79604">
        <ele>190.4</ele>
        <time>2024-09-19T10:52:10Z</time>
      </trkpt>
      <trkpt lat="46.21751" lon="4.79602">
        <ele>190.4</ele>
        <time>2024-09-19T10:52:11Z</time>
      </trkpt>
      <trkpt lat="46.21746" lon="4.79601">
        <ele>190.4</ele>
        <time>2024-09-19T10:52:12Z</time>
      </trkpt>
      <trkpt lat="46.21741" lon="4.79599">
        <ele>190.4</ele>
        <time>2024-09-19T10:52:13Z</time>
      </trkpt>
      <trkpt lat="46.21734" lon="4.79597">
        <ele>190.4</ele>
        <time>2024-09-19T10:52:14Z</time>
      </trkpt>
      <trkpt lat="46.21732" lon="4.79596">
        <ele>190.4</ele>
        <time>2024-09-19T10:52:15Z</time>
      </trkpt>
      <trkpt lat="46.21727" lon="4.79595">
        <ele>190.4</ele>
        <time>2024-09-19T10:52:16Z</time>
      </trkpt>
      <trkpt lat="46.2172" lon="4.79592">
        <ele>190.4</ele>
        <time>2024-09-19T10:52:17Z</time>
      </trkpt>
      <trkpt lat="46.21717" lon="4.79591">
        <ele>190.4</ele>
        <time>2024-09-19T10:52:18Z</time>
      </trkpt>
      <trkpt lat="46.21713" lon="4.7959">
        <ele>190.4</ele>
        <time>2024-09-19T10:52:19Z</time>
      </trkpt>
      <trkpt lat="46.21708" lon="4.79588">
        <ele>190.2</ele>
        <time>2024-09-19T10:52:20Z</time>
      </trkpt>
      <trkpt lat="46.21701" lon="4.79586">
        <ele>190.2</ele>
        <time>2024-09-19T10:52:21Z</time>
      </trkpt>
      <trkpt lat="46.21699" lon="4.79585">
        <ele>190.2</ele>
        <time>2024-09-19T10:52:22Z</time>
      </trkpt>
      <trkpt lat="46.21694" lon="4.79585">
        <ele>190.2</ele>
        <time>2024-09-19T10:52:23Z</time>
      </trkpt>
      <trkpt lat="46.21689" lon="4.79584">
        <ele>190.2</ele>
        <time>2024-09-19T10:52:24Z</time>
      </trkpt>
      <trkpt lat="46.21681" lon="4.79581">
        <ele>190.4</ele>
        <time>2024-09-19T10:52:25Z</time>
      </trkpt>
      <trkpt lat="46.21679" lon="4.79581">
        <ele>190.4</ele>
        <time>2024-09-19T10:52:26Z</time>
      </trkpt>
      <trkpt lat="46.21672" lon="4.79578">
        <ele>190.4</ele>
        <time>2024-09-19T10:52:27Z</time>
      </trkpt>
      <trkpt lat="46.21669" lon="4.79578">
        <ele>190.4</ele>
        <time>2024-09-19T10:52:28Z</time>
      </trkpt>
      <trkpt lat="46.21662" lon="4.79576">
        <ele>190.6</ele>
        <time>2024-09-19T10:52:29Z</time>
      </trkpt>
      <trkpt lat="46.2166" lon="4.79575">
        <ele>190.6</ele>
        <time>2024-09-19T10:52:30Z</time>
      </trkpt>
      <trkpt lat="46.21653" lon="4.79573">
        <ele>190.6</ele>
        <time>2024-09-19T10:52:31Z</time>
      </trkpt>
      <trkpt lat="46.2165" lon="4.79572">
        <ele>190.6</ele>
        <time>2024-09-19T10:52:32Z</time>
      </trkpt>
      <trkpt lat="46.21643" lon="4.7957">
        <ele>190.6</ele>
        <time>2024-09-19T10:52:33Z</time>
      </trkpt>
      <trkpt lat="46.2164" lon="4.7957">
        <ele>190.6</ele>
        <time>2024-09-19T10:52:34Z</time>
      </trkpt>
      <trkpt lat="46.21633" lon="4.79568">
        <ele>190</ele>
        <time>2024-09-19T10:52:35Z</time>
      </trkpt>
      <trkpt lat="46.21631" lon="4.79568">
        <ele>190</ele>
        <time>2024-09-19T10:52:36Z</time>
      </trkpt>
      <trkpt lat="46.21626" lon="4.79566">
        <ele>190.4</ele>
        <time>2024-09-19T10:52:37Z</time>
      </trkpt>
      <trkpt lat="46.21622" lon="4.79564">
        <ele>190.4</ele>
        <time>2024-09-19T10:52:38Z</time>
      </trkpt>
      <trkpt lat="46.21617" lon="4.79562">
        <ele>190.4</ele>
        <time>2024-09-19T10:52:39Z</time>
      </trkpt>
      <trkpt lat="46.21609" lon="4.79559">
        <ele>190.4</ele>
        <time>2024-09-19T10:52:40Z</time>
      </trkpt>
      <trkpt lat="46.21607" lon="4.79558">
        <ele>190.4</ele>
        <time>2024-09-19T10:52:41Z</time>
      </trkpt>
      <trkpt lat="46.21602" lon="4.79556">
        <ele>190.4</ele>
        <time>2024-09-19T10:52:42Z</time>
      </trkpt>
      <trkpt lat="46.21595" lon="4.79553">
        <ele>190.4</ele>
        <time>2024-09-19T10:52:43Z</time>
      </trkpt>
      <trkpt lat="46.21592" lon="4.79552">
        <ele>190.6</ele>
        <time>2024-09-19T10:52:44Z</time>
      </trkpt>
      <trkpt lat="46.21588" lon="4.79551">
        <ele>190.6</ele>
        <time>2024-09-19T10:52:45Z</time>
      </trkpt>
      <trkpt lat="46.21583" lon="4.79549">
        <ele>190.6</ele>
        <time>2024-09-19T10:52:46Z</time>
      </trkpt>
      <trkpt lat="46.21578" lon="4.79548">
        <ele>190.2</ele>
        <time>2024-09-19T10:52:47Z</time>
      </trkpt>
      <trkpt lat="46.21573" lon="4.79546">
        <ele>190.6</ele>
        <time>2024-09-19T10:52:48Z</time>
      </trkpt>
      <trkpt lat="46.21569" lon="4.79545">
        <ele>190.6</ele>
        <time>2024-09-19T10:52:49Z</time>
      </trkpt>
      <trkpt lat="46.21562" lon="4.79542">
        <ele>190.6</ele>
        <time>2024-09-19T10:52:50Z</time>
      </trkpt>
      <trkpt lat="46.21559" lon="4.79541">
        <ele>190.6</ele>
        <time>2024-09-19T10:52:51Z</time>
      </trkpt>
      <trkpt lat="46.21555" lon="4.79539">
        <ele>190.6</ele>
        <time>2024-09-19T10:52:52Z</time>
      </trkpt>
      <trkpt lat="46.2155" lon="4.79538">
        <ele>190.6</ele>
        <time>2024-09-19T10:52:53Z</time>
      </trkpt>
      <trkpt lat="46.21545" lon="4.79537">
        <ele>190.6</ele>
        <time>2024-09-19T10:52:54Z</time>
      </trkpt>
      <trkpt lat="46.21538" lon="4.79535">
        <ele>190.6</ele>
        <time>2024-09-19T10:52:55Z</time>
      </trkpt>
      <trkpt lat="46.21535" lon="4.79534">
        <ele>190.4</ele>
        <time>2024-09-19T10:52:56Z</time>
      </trkpt>
      <trkpt lat="46.2153" lon="4.79532">
        <ele>190.6</ele>
        <time>2024-09-19T10:52:57Z</time>
      </trkpt>
      <trkpt lat="46.21526" lon="4.79531">
        <ele>190.6</ele>
        <time>2024-09-19T10:52:58Z</time>
      </trkpt>
      <trkpt lat="46.21521" lon="4.79529">
        <ele>190.6</ele>
        <time>2024-09-19T10:52:59Z</time>
      </trkpt>
      <trkpt lat="46.21514" lon="4.79526">
        <ele>190.4</ele>
        <time>2024-09-19T10:53:00Z</time>
      </trkpt>
      <trkpt lat="46.21511" lon="4.79526">
        <ele>190.4</ele>
        <time>2024-09-19T10:53:01Z</time>
      </trkpt>
      <trkpt lat="46.21506" lon="4.79524">
        <ele>190.4</ele>
        <time>2024-09-19T10:53:02Z</time>
      </trkpt>
      <trkpt lat="46.21501" lon="4.79523">
        <ele>190.4</ele>
        <time>2024-09-19T10:53:03Z</time>
      </trkpt>
      <trkpt lat="46.21494" lon="4.79521">
        <ele>190.4</ele>
        <time>2024-09-19T10:53:04Z</time>
      </trkpt>
      <trkpt lat="46.21492" lon="4.7952">
        <ele>190.4</ele>
        <time>2024-09-19T10:53:05Z</time>
      </trkpt>
      <trkpt lat="46.21485" lon="4.79518">
        <ele>190.2</ele>
        <time>2024-09-19T10:53:06Z</time>
      </trkpt>
      <trkpt lat="46.21482" lon="4.79517">
        <ele>190.2</ele>
        <time>2024-09-19T10:53:07Z</time>
      </trkpt>
      <trkpt lat="46.21475" lon="4.79515">
        <ele>190.2</ele>
        <time>2024-09-19T10:53:08Z</time>
      </trkpt>
      <trkpt lat="46.21473" lon="4.79514">
        <ele>190.4</ele>
        <time>2024-09-19T10:53:09Z</time>
      </trkpt>
      <trkpt lat="46.21468" lon="4.79513">
        <ele>190</ele>
        <time>2024-09-19T10:53:10Z</time>
      </trkpt>
      <trkpt lat="46.21463" lon="4.79512">
        <ele>190</ele>
        <time>2024-09-19T10:53:11Z</time>
      </trkpt>
      <trkpt lat="46.21456" lon="4.79509">
        <ele>190</ele>
        <time>2024-09-19T10:53:12Z</time>
      </trkpt>
      <trkpt lat="46.21453" lon="4.79509">
        <ele>190.2</ele>
        <time>2024-09-19T10:53:13Z</time>
      </trkpt>
      <trkpt lat="46.21446" lon="4.79506">
        <ele>190.6</ele>
        <time>2024-09-19T10:53:14Z</time>
      </trkpt>
      <trkpt lat="46.21443" lon="4.79505">
        <ele>190.6</ele>
        <time>2024-09-19T10:53:15Z</time>
      </trkpt>
      <trkpt lat="46.21436" lon="4.79502">
        <ele>190.6</ele>
        <time>2024-09-19T10:53:16Z</time>
      </trkpt>
      <trkpt lat="46.21434" lon="4.79502">
        <ele>190.6</ele>
        <time>2024-09-19T10:53:17Z</time>
      </trkpt>
      <trkpt lat="46.21426" lon="4.79499">
        <ele>190.6</ele>
        <time>2024-09-19T10:53:18Z</time>
      </trkpt>
      <trkpt lat="46.21424" lon="4.79499">
        <ele>190.2</ele>
        <time>2024-09-19T10:53:19Z</time>
      </trkpt>
      <trkpt lat="46.21419" lon="4.79497">
        <ele>190.2</ele>
        <time>2024-09-19T10:53:20Z</time>
      </trkpt>
      <trkpt lat="46.21414" lon="4.79496">
        <ele>190.2</ele>
        <time>2024-09-19T10:53:21Z</time>
      </trkpt>
      <trkpt lat="46.21409" lon="4.79494">
        <ele>190.2</ele>
        <time>2024-09-19T10:53:22Z</time>
      </trkpt>
      <trkpt lat="46.21402" lon="4.79492">
        <ele>190.4</ele>
        <time>2024-09-19T10:53:23Z</time>
      </trkpt>
      <trkpt lat="46.21399" lon="4.79491">
        <ele>190.4</ele>
        <time>2024-09-19T10:53:24Z</time>
      </trkpt>
      <trkpt lat="46.21394" lon="4.7949">
        <ele>190.4</ele>
        <time>2024-09-19T10:53:25Z</time>
      </trkpt>
      <trkpt lat="46.21387" lon="4.79488">
        <ele>190.4</ele>
        <time>2024-09-19T10:53:26Z</time>
      </trkpt>
      <trkpt lat="46.21384" lon="4.79487">
        <ele>190.2</ele>
        <time>2024-09-19T10:53:27Z</time>
      </trkpt>
      <trkpt lat="46.21379" lon="4.79487">
        <ele>190.6</ele>
        <time>2024-09-19T10:53:28Z</time>
      </trkpt>
      <trkpt lat="46.21374" lon="4.79486">
        <ele>190.6</ele>
        <time>2024-09-19T10:53:29Z</time>
      </trkpt>
      <trkpt lat="46.21369" lon="4.79485">
        <ele>190.6</ele>
        <time>2024-09-19T10:53:30Z</time>
      </trkpt>
      <trkpt lat="46.21364" lon="4.79485">
        <ele>190.6</ele>
        <time>2024-09-19T10:53:31Z</time>
      </trkpt>
      <trkpt lat="46.21359" lon="4.79484">
        <ele>190.6</ele>
        <time>2024-09-19T10:53:32Z</time>
      </trkpt>
      <trkpt lat="46.21351" lon="4.79484">
        <ele>190.4</ele>
        <time>2024-09-19T10:53:33Z</time>
      </trkpt>
      <trkpt lat="46.21349" lon="4.79484">
        <ele>190.4</ele>
        <time>2024-09-19T10:53:34Z</time>
      </trkpt>
      <trkpt lat="46.21344" lon="4.79483">
        <ele>190.4</ele>
        <time>2024-09-19T10:53:35Z</time>
      </trkpt>
      <trkpt lat="46.21336" lon="4.79482">
        <ele>190.4</ele>
        <time>2024-09-19T10:53:36Z</time>
      </trkpt>
      <trkpt lat="46.21334" lon="4.79482">
        <ele>190.4</ele>
        <time>2024-09-19T10:53:37Z</time>
      </trkpt>
      <trkpt lat="46.21326" lon="4.79481">
        <ele>190.4</ele>
        <time>2024-09-19T10:53:38Z</time>
      </trkpt>
      <trkpt lat="46.21323" lon="4.7948">
        <ele>190.4</ele>
        <time>2024-09-19T10:53:39Z</time>
      </trkpt>
      <trkpt lat="46.21318" lon="4.7948">
        <ele>190.4</ele>
        <time>2024-09-19T10:53:40Z</time>
      </trkpt>
      <trkpt lat="46.21313" lon="4.79479">
        <ele>190.4</ele>
        <time>2024-09-19T10:53:41Z</time>
      </trkpt>
      <trkpt lat="46.21308" lon="4.79478">
        <ele>190.2</ele>
        <time>2024-09-19T10:53:42Z</time>
      </trkpt>
      <trkpt lat="46.21301" lon="4.79477">
        <ele>190.2</ele>
        <time>2024-09-19T10:53:43Z</time>
      </trkpt>
      <trkpt lat="46.21298" lon="4.79477">
        <ele>190.2</ele>
        <time>2024-09-19T10:53:44Z</time>
      </trkpt>
      <trkpt lat="46.21293" lon="4.79476">
        <ele>190.4</ele>
        <time>2024-09-19T10:53:45Z</time>
      </trkpt>
      <trkpt lat="46.21288" lon="4.79476">
        <ele>190.4</ele>
        <time>2024-09-19T10:53:46Z</time>
      </trkpt>
      <trkpt lat="46.2128" lon="4.79475">
        <ele>190.4</ele>
        <time>2024-09-19T10:53:47Z</time>
      </trkpt>
      <trkpt lat="46.21277" lon="4.79475">
        <ele>190.4</ele>
        <time>2024-09-19T10:53:48Z</time>
      </trkpt>
      <trkpt lat="46.21269" lon="4.79474">
        <ele>190.4</ele>
        <time>2024-09-19T10:53:49Z</time>
      </trkpt>
      <trkpt lat="46.21267" lon="4.79474">
        <ele>190.4</ele>
        <time>2024-09-19T10:53:50Z</time>
      </trkpt>
      <trkpt lat="46.21262" lon="4.79473">
        <ele>190.2</ele>
        <time>2024-09-19T10:53:51Z</time>
      </trkpt>
      <trkpt lat="46.21257" lon="4.79473">
        <ele>190.2</ele>
        <time>2024-09-19T10:53:52Z</time>
      </trkpt>
      <trkpt lat="46.21251" lon="4.79472">
        <ele>190.2</ele>
        <time>2024-09-19T10:53:53Z</time>
      </trkpt>
      <trkpt lat="46.21244" lon="4.79471">
        <ele>190.2</ele>
        <time>2024-09-19T10:53:54Z</time>
      </trkpt>
      <trkpt lat="46.21241" lon="4.79471">
        <ele>190.6</ele>
        <time>2024-09-19T10:53:55Z</time>
      </trkpt>
      <trkpt lat="46.21234" lon="4.7947">
        <ele>190.6</ele>
        <time>2024-09-19T10:53:56Z</time>
      </trkpt>
      <trkpt lat="46.21231" lon="4.7947">
        <ele>190.6</ele>
        <time>2024-09-19T10:53:57Z</time>
      </trkpt>
      <trkpt lat="46.21224" lon="4.79469">
        <ele>190.4</ele>
        <time>2024-09-19T10:53:58Z</time>
      </trkpt>
      <trkpt lat="46.21222" lon="4.79469">
        <ele>190.6</ele>
        <time>2024-09-19T10:53:59Z</time>
      </trkpt>
      <trkpt lat="46.21215" lon="4.79468">
        <ele>190.6</ele>
        <time>2024-09-19T10:54:00Z</time>
      </trkpt>
      <trkpt lat="46.21212" lon="4.79468">
        <ele>190.6</ele>
        <time>2024-09-19T10:54:01Z</time>
      </trkpt>
      <trkpt lat="46.21205" lon="4.79467">
        <ele>190.6</ele>
        <time>2024-09-19T10:54:02Z</time>
      </trkpt>
      <trkpt lat="46.21203" lon="4.79467">
        <ele>190.6</ele>
        <time>2024-09-19T10:54:03Z</time>
      </trkpt>
      <trkpt lat="46.21198" lon="4.79467">
        <ele>190.6</ele>
        <time>2024-09-19T10:54:04Z</time>
      </trkpt>
      <trkpt lat="46.21193" lon="4.79466">
        <ele>190.6</ele>
        <time>2024-09-19T10:54:05Z</time>
      </trkpt>
      <trkpt lat="46.21188" lon="4.79466">
        <ele>190.6</ele>
        <time>2024-09-19T10:54:06Z</time>
      </trkpt>
      <trkpt lat="46.21181" lon="4.79465">
        <ele>190.6</ele>
        <time>2024-09-19T10:54:07Z</time>
      </trkpt>
      <trkpt lat="46.21178" lon="4.79465">
        <ele>190.6</ele>
        <time>2024-09-19T10:54:08Z</time>
      </trkpt>
      <trkpt lat="46.21173" lon="4.79464">
        <ele>190.4</ele>
        <time>2024-09-19T10:54:09Z</time>
      </trkpt>
      <trkpt lat="46.21166" lon="4.79463">
        <ele>190.4</ele>
        <time>2024-09-19T10:54:10Z</time>
      </trkpt>
      <trkpt lat="46.21163" lon="4.79463">
        <ele>190.4</ele>
        <time>2024-09-19T10:54:11Z</time>
      </trkpt>
      <trkpt lat="46.21158" lon="4.79463">
        <ele>190.4</ele>
        <time>2024-09-19T10:54:12Z</time>
      </trkpt>
      <trkpt lat="46.21153" lon="4.79462">
        <ele>190.2</ele>
        <time>2024-09-19T10:54:13Z</time>
      </trkpt>
      <trkpt lat="46.21148" lon="4.79462">
        <ele>190.2</ele>
        <time>2024-09-19T10:54:14Z</time>
      </trkpt>
      <trkpt lat="46.21141" lon="4.79461">
        <ele>190.2</ele>
        <time>2024-09-19T10:54:15Z</time>
      </trkpt>
      <trkpt lat="46.21138" lon="4.7946">
        <ele>190.2</ele>
        <time>2024-09-19T10:54:16Z</time>
      </trkpt>
      <trkpt lat="46.21133" lon="4.79459">
        <ele>190.2</ele>
        <time>2024-09-19T10:54:17Z</time>
      </trkpt>
      <trkpt lat="46.21126" lon="4.79459">
        <ele>190.2</ele>
        <time>2024-09-19T10:54:18Z</time>
      </trkpt>
      <trkpt lat="46.21123" lon="4.79459">
        <ele>190.2</ele>
        <time>2024-09-19T10:54:19Z</time>
      </trkpt>
      <trkpt lat="46.21118" lon="4.79459">
        <ele>190.2</ele>
        <time>2024-09-19T10:54:20Z</time>
      </trkpt>
      <trkpt lat="46.2111" lon="4.79458">
        <ele>190.2</ele>
        <time>2024-09-19T10:54:21Z</time>
      </trkpt>
      <trkpt lat="46.21107" lon="4.79458">
        <ele>190.6</ele>
        <time>2024-09-19T10:54:22Z</time>
      </trkpt>
      <trkpt lat="46.21102" lon="4.79458">
        <ele>190.6</ele>
        <time>2024-09-19T10:54:23Z</time>
      </trkpt>
      <trkpt lat="46.21097" lon="4.79458">
        <ele>190.6</ele>
        <time>2024-09-19T10:54:24Z</time>
      </trkpt>
      <trkpt lat="46.21092" lon="4.79458">
        <ele>190.6</ele>
        <time>2024-09-19T10:54:25Z</time>
      </trkpt>
      <trkpt lat="46.21087" lon="4.79458">
        <ele>190.6</ele>
        <time>2024-09-19T10:54:26Z</time>
      </trkpt>
      <trkpt lat="46.21082" lon="4.79458">
        <ele>190.4</ele>
        <time>2024-09-19T10:54:27Z</time>
      </trkpt>
      <trkpt lat="46.21074" lon="4.79458">
        <ele>190.4</ele>
        <time>2024-09-19T10:54:28Z</time>
      </trkpt>
      <trkpt lat="46.21071" lon="4.79458">
        <ele>190.4</ele>
        <time>2024-09-19T10:54:29Z</time>
      </trkpt>
      <trkpt lat="46.21063" lon="4.79459">
        <ele>190.4</ele>
        <time>2024-09-19T10:54:30Z</time>
      </trkpt>
      <trkpt lat="46.2106" lon="4.79459">
        <ele>190</ele>
        <time>2024-09-19T10:54:31Z</time>
      </trkpt>
      <trkpt lat="46.21052" lon="4.79459">
        <ele>190</ele>
        <time>2024-09-19T10:54:32Z</time>
      </trkpt>
      <trkpt lat="46.21049" lon="4.79459">
        <ele>190</ele>
        <time>2024-09-19T10:54:33Z</time>
      </trkpt>
      <trkpt lat="46.21041" lon="4.79459">
        <ele>190</ele>
        <time>2024-09-19T10:54:34Z</time>
      </trkpt>
      <trkpt lat="46.21038" lon="4.79459">
        <ele>190</ele>
        <time>2024-09-19T10:54:35Z</time>
      </trkpt>
      <trkpt lat="46.2103" lon="4.79459">
        <ele>189.4</ele>
        <time>2024-09-19T10:54:36Z</time>
      </trkpt>
      <trkpt lat="46.21028" lon="4.79459">
        <ele>189.4</ele>
        <time>2024-09-19T10:54:37Z</time>
      </trkpt>
      <trkpt lat="46.2102" lon="4.79459">
        <ele>189.4</ele>
        <time>2024-09-19T10:54:38Z</time>
      </trkpt>
      <trkpt lat="46.21017" lon="4.79459">
        <ele>189.4</ele>
        <time>2024-09-19T10:54:39Z</time>
      </trkpt>
      <trkpt lat="46.21009" lon="4.79459">
        <ele>190</ele>
        <time>2024-09-19T10:54:40Z</time>
      </trkpt>
      <trkpt lat="46.21006" lon="4.79459">
        <ele>190</ele>
        <time>2024-09-19T10:54:41Z</time>
      </trkpt>
      <trkpt lat="46.20998" lon="4.79459">
        <ele>190</ele>
        <time>2024-09-19T10:54:42Z</time>
      </trkpt>
      <trkpt lat="46.20996" lon="4.79459">
        <ele>190</ele>
        <time>2024-09-19T10:54:43Z</time>
      </trkpt>
      <trkpt lat="46.20988" lon="4.79459">
        <ele>190</ele>
        <time>2024-09-19T10:54:44Z</time>
      </trkpt>
      <trkpt lat="46.20985" lon="4.79459">
        <ele>190</ele>
        <time>2024-09-19T10:54:45Z</time>
      </trkpt>
      <trkpt lat="46.2098" lon="4.7946">
        <ele>190</ele>
        <time>2024-09-19T10:54:46Z</time>
      </trkpt>
      <trkpt lat="46.20975" lon="4.7946">
        <ele>190.4</ele>
        <time>2024-09-19T10:54:47Z</time>
      </trkpt>
      <trkpt lat="46.2097" lon="4.7946">
        <ele>190.4</ele>
        <time>2024-09-19T10:54:48Z</time>
      </trkpt>
      <trkpt lat="46.20965" lon="4.79461">
        <ele>189.8</ele>
        <time>2024-09-19T10:54:49Z</time>
      </trkpt>
      <trkpt lat="46.20957" lon="4.79461">
        <ele>189.8</ele>
        <time>2024-09-19T10:54:50Z</time>
      </trkpt>
      <trkpt lat="46.20955" lon="4.79461">
        <ele>189.8</ele>
        <time>2024-09-19T10:54:51Z</time>
      </trkpt>
      <trkpt lat="46.2095" lon="4.79462">
        <ele>189.8</ele>
        <time>2024-09-19T10:54:52Z</time>
      </trkpt>
      <trkpt lat="46.20943" lon="4.79463">
        <ele>190</ele>
        <time>2024-09-19T10:54:53Z</time>
      </trkpt>
      <trkpt lat="46.2094" lon="4.79463">
        <ele>189.8</ele>
        <time>2024-09-19T10:54:54Z</time>
      </trkpt>
      <trkpt lat="46.20935" lon="4.79464">
        <ele>189.8</ele>
        <time>2024-09-19T10:54:55Z</time>
      </trkpt>
      <trkpt lat="46.2093" lon="4.79464">
        <ele>189.8</ele>
        <time>2024-09-19T10:54:56Z</time>
      </trkpt>
      <trkpt lat="46.20925" lon="4.79464">
        <ele>190.2</ele>
        <time>2024-09-19T10:54:57Z</time>
      </trkpt>
      <trkpt lat="46.2092" lon="4.79465">
        <ele>189.8</ele>
        <time>2024-09-19T10:54:58Z</time>
      </trkpt>
      <trkpt lat="46.20915" lon="4.79465">
        <ele>189.8</ele>
        <time>2024-09-19T10:54:59Z</time>
      </trkpt>
      <trkpt lat="46.20907" lon="4.79466">
        <ele>189.8</ele>
        <time>2024-09-19T10:55:00Z</time>
      </trkpt>
      <trkpt lat="46.20905" lon="4.79466">
        <ele>189.8</ele>
        <time>2024-09-19T10:55:01Z</time>
      </trkpt>
      <trkpt lat="46.209" lon="4.79467">
        <ele>189.8</ele>
        <time>2024-09-19T10:55:02Z</time>
      </trkpt>
      <trkpt lat="46.20892" lon="4.79468">
        <ele>190.2</ele>
        <time>2024-09-19T10:55:03Z</time>
      </trkpt>
      <trkpt lat="46.2089" lon="4.79468">
        <ele>190.2</ele>
        <time>2024-09-19T10:55:04Z</time>
      </trkpt>
      <trkpt lat="46.20885" lon="4.79469">
        <ele>190.2</ele>
        <time>2024-09-19T10:55:05Z</time>
      </trkpt>
      <trkpt lat="46.2088" lon="4.79471">
        <ele>190.2</ele>
        <time>2024-09-19T10:55:06Z</time>
      </trkpt>
      <trkpt lat="46.20875" lon="4.79471">
        <ele>189.8</ele>
        <time>2024-09-19T10:55:07Z</time>
      </trkpt>
      <trkpt lat="46.20869" lon="4.79472">
        <ele>189.8</ele>
        <time>2024-09-19T10:55:08Z</time>
      </trkpt>
      <trkpt lat="46.20864" lon="4.79473">
        <ele>189.8</ele>
        <time>2024-09-19T10:55:09Z</time>
      </trkpt>
      <trkpt lat="46.20856" lon="4.79474">
        <ele>189.8</ele>
        <time>2024-09-19T10:55:10Z</time>
      </trkpt>
      <trkpt lat="46.20854" lon="4.79475">
        <ele>190.2</ele>
        <time>2024-09-19T10:55:11Z</time>
      </trkpt>
      <trkpt lat="46.20849" lon="4.79476">
        <ele>190.6</ele>
        <time>2024-09-19T10:55:12Z</time>
      </trkpt>
      <trkpt lat="46.20844" lon="4.79477">
        <ele>190.6</ele>
        <time>2024-09-19T10:55:13Z</time>
      </trkpt>
      <trkpt lat="46.20836" lon="4.79478">
        <ele>190.6</ele>
        <time>2024-09-19T10:55:14Z</time>
      </trkpt>
      <trkpt lat="46.20833" lon="4.79478">
        <ele>190</ele>
        <time>2024-09-19T10:55:15Z</time>
      </trkpt>
      <trkpt lat="46.20826" lon="4.79479">
        <ele>190.4</ele>
        <time>2024-09-19T10:55:16Z</time>
      </trkpt>
      <trkpt lat="46.20823" lon="4.7948">
        <ele>190.4</ele>
        <time>2024-09-19T10:55:17Z</time>
      </trkpt>
      <trkpt lat="46.20816" lon="4.79481">
        <ele>190.4</ele>
        <time>2024-09-19T10:55:18Z</time>
      </trkpt>
      <trkpt lat="46.20814" lon="4.79482">
        <ele>190.2</ele>
        <time>2024-09-19T10:55:19Z</time>
      </trkpt>
      <trkpt lat="46.20807" lon="4.79483">
        <ele>190.2</ele>
        <time>2024-09-19T10:55:20Z</time>
      </trkpt>
      <trkpt lat="46.20804" lon="4.79484">
        <ele>190</ele>
        <time>2024-09-19T10:55:21Z</time>
      </trkpt>
      <trkpt lat="46.20797" lon="4.79485">
        <ele>190</ele>
        <time>2024-09-19T10:55:22Z</time>
      </trkpt>
      <trkpt lat="46.20794" lon="4.79486">
        <ele>190</ele>
        <time>2024-09-19T10:55:23Z</time>
      </trkpt>
      <trkpt lat="46.20786" lon="4.79488">
        <ele>190</ele>
        <time>2024-09-19T10:55:24Z</time>
      </trkpt>
      <trkpt lat="46.20784" lon="4.79488">
        <ele>190.4</ele>
        <time>2024-09-19T10:55:25Z</time>
      </trkpt>
      <trkpt lat="46.20776" lon="4.7949">
        <ele>190.4</ele>
        <time>2024-09-19T10:55:26Z</time>
      </trkpt>
      <trkpt lat="46.20774" lon="4.7949">
        <ele>190.4</ele>
        <time>2024-09-19T10:55:27Z</time>
      </trkpt>
      <trkpt lat="46.20766" lon="4.79491">
        <ele>190.4</ele>
        <time>2024-09-19T10:55:28Z</time>
      </trkpt>
      <trkpt lat="46.20764" lon="4.79492">
        <ele>190.6</ele>
        <time>2024-09-19T10:55:29Z</time>
      </trkpt>
      <trkpt lat="46.20759" lon="4.79493">
        <ele>190.6</ele>
        <time>2024-09-19T10:55:30Z</time>
      </trkpt>
      <trkpt lat="46.20754" lon="4.79494">
        <ele>190.6</ele>
        <time>2024-09-19T10:55:31Z</time>
      </trkpt>
      <trkpt lat="46.20749" lon="4.79494">
        <ele>190.4</ele>
        <time>2024-09-19T10:55:32Z</time>
      </trkpt>
      <trkpt lat="46.20741" lon="4.79495">
        <ele>190.2</ele>
        <time>2024-09-19T10:55:33Z</time>
      </trkpt>
      <trkpt lat="46.20738" lon="4.79495">
        <ele>190.2</ele>
        <time>2024-09-19T10:55:34Z</time>
      </trkpt>
      <trkpt lat="46.20733" lon="4.79494">
        <ele>190.2</ele>
        <time>2024-09-19T10:55:35Z</time>
      </trkpt>
      <trkpt lat="46.20725" lon="4.79493">
        <ele>190.2</ele>
        <time>2024-09-19T10:55:36Z</time>
      </trkpt>
      <trkpt lat="46.20722" lon="4.79493">
        <ele>190.2</ele>
        <time>2024-09-19T10:55:37Z</time>
      </trkpt>
      <trkpt lat="46.20717" lon="4.79491">
        <ele>190.2</ele>
        <time>2024-09-19T10:55:38Z</time>
      </trkpt>
      <trkpt lat="46.20713" lon="4.79487">
        <ele>190.4</ele>
        <time>2024-09-19T10:55:39Z</time>
      </trkpt>
      <trkpt lat="46.20708" lon="4.79483">
        <ele>190.4</ele>
        <time>2024-09-19T10:55:40Z</time>
      </trkpt>
      <trkpt lat="46.20704" lon="4.79478">
        <ele>190.4</ele>
        <time>2024-09-19T10:55:41Z</time>
      </trkpt>
      <trkpt lat="46.207" lon="4.79474">
        <ele>190.4</ele>
        <time>2024-09-19T10:55:42Z</time>
      </trkpt>
      <trkpt lat="46.20695" lon="4.79469">
        <ele>189.6</ele>
        <time>2024-09-19T10:55:43Z</time>
      </trkpt>
      <trkpt lat="46.20693" lon="4.79468">
        <ele>189.6</ele>
        <time>2024-09-19T10:55:44Z</time>
      </trkpt>
      <trkpt lat="46.20689" lon="4.79467">
        <ele>189.6</ele>
        <time>2024-09-19T10:55:45Z</time>
      </trkpt>
      <trkpt lat="46.20683" lon="4.79467">
        <ele>189.6</ele>
        <time>2024-09-19T10:55:46Z</time>
      </trkpt>
      <trkpt lat="46.20681" lon="4.79468">
        <ele>189.6</ele>
        <time>2024-09-19T10:55:47Z</time>
      </trkpt>
      <trkpt lat="46.20677" lon="4.79469">
        <ele>189.8</ele>
        <time>2024-09-19T10:55:48Z</time>
      </trkpt>
      <trkpt lat="46.20673" lon="4.7947">
        <ele>189.8</ele>
        <time>2024-09-19T10:55:49Z</time>
      </trkpt>
      <trkpt lat="46.20669" lon="4.79471">
        <ele>189.8</ele>
        <time>2024-09-19T10:55:50Z</time>
      </trkpt>
      <trkpt lat="46.20665" lon="4.79472">
        <ele>189.8</ele>
        <time>2024-09-19T10:55:51Z</time>
      </trkpt>
      <trkpt lat="46.2066" lon="4.79473">
        <ele>190</ele>
        <time>2024-09-19T10:55:52Z</time>
      </trkpt>
      <trkpt lat="46.20653" lon="4.79476">
        <ele>190</ele>
        <time>2024-09-19T10:55:53Z</time>
      </trkpt>
      <trkpt lat="46.20651" lon="4.79477">
        <ele>190</ele>
        <time>2024-09-19T10:55:54Z</time>
      </trkpt>
      <trkpt lat="46.20647" lon="4.79479">
        <ele>190</ele>
        <time>2024-09-19T10:55:55Z</time>
      </trkpt>
      <trkpt lat="46.20643" lon="4.79482">
        <ele>189.8</ele>
        <time>2024-09-19T10:55:56Z</time>
      </trkpt>
      <trkpt lat="46.20637" lon="4.79487">
        <ele>189.8</ele>
        <time>2024-09-19T10:55:57Z</time>
      </trkpt>
      <trkpt lat="46.20636" lon="4.7949">
        <ele>189.8</ele>
        <time>2024-09-19T10:55:58Z</time>
      </trkpt>
      <trkpt lat="46.20633" lon="4.79495">
        <ele>189.8</ele>
        <time>2024-09-19T10:55:59Z</time>
      </trkpt>
      <trkpt lat="46.20627" lon="4.79503">
        <ele>189.8</ele>
        <time>2024-09-19T10:56:00Z</time>
      </trkpt>
      <trkpt lat="46.20625" lon="4.79505">
        <ele>189.6</ele>
        <time>2024-09-19T10:56:01Z</time>
      </trkpt>
      <trkpt lat="46.20619" lon="4.79513">
        <ele>189.6</ele>
        <time>2024-09-19T10:56:02Z</time>
      </trkpt>
      <trkpt lat="46.20617" lon="4.79515">
        <ele>189.6</ele>
        <time>2024-09-19T10:56:03Z</time>
      </trkpt>
      <trkpt lat="46.20613" lon="4.79519">
        <ele>190</ele>
        <time>2024-09-19T10:56:04Z</time>
      </trkpt>
      <trkpt lat="46.20606" lon="4.79524">
        <ele>190</ele>
        <time>2024-09-19T10:56:05Z</time>
      </trkpt>
      <trkpt lat="46.20604" lon="4.79526">
        <ele>190</ele>
        <time>2024-09-19T10:56:06Z</time>
      </trkpt>
      <trkpt lat="46.20597" lon="4.7953">
        <ele>190</ele>
        <time>2024-09-19T10:56:07Z</time>
      </trkpt>
      <trkpt lat="46.20595" lon="4.79532">
        <ele>190</ele>
        <time>2024-09-19T10:56:08Z</time>
      </trkpt>
      <trkpt lat="46.20588" lon="4.79535">
        <ele>190</ele>
        <time>2024-09-19T10:56:09Z</time>
      </trkpt>
      <trkpt lat="46.20585" lon="4.79536">
        <ele>190</ele>
        <time>2024-09-19T10:56:10Z</time>
      </trkpt>
      <trkpt lat="46.20578" lon="4.79539">
        <ele>190</ele>
        <time>2024-09-19T10:56:11Z</time>
      </trkpt>
      <trkpt lat="46.20576" lon="4.79541">
        <ele>190</ele>
        <time>2024-09-19T10:56:12Z</time>
      </trkpt>
      <trkpt lat="46.20571" lon="4.79543">
        <ele>189.8</ele>
        <time>2024-09-19T10:56:13Z</time>
      </trkpt>
      <trkpt lat="46.20567" lon="4.79545">
        <ele>190</ele>
        <time>2024-09-19T10:56:14Z</time>
      </trkpt>
      <trkpt lat="46.20562" lon="4.79547">
        <ele>190</ele>
        <time>2024-09-19T10:56:15Z</time>
      </trkpt>
      <trkpt lat="46.20555" lon="4.79551">
        <ele>190</ele>
        <time>2024-09-19T10:56:16Z</time>
      </trkpt>
      <trkpt lat="46.20552" lon="4.79552">
        <ele>190</ele>
        <time>2024-09-19T10:56:17Z</time>
      </trkpt>
      <trkpt lat="46.20547" lon="4.79554">
        <ele>189.8</ele>
        <time>2024-09-19T10:56:18Z</time>
      </trkpt>
      <trkpt lat="46.2054" lon="4.79557">
        <ele>190.2</ele>
        <time>2024-09-19T10:56:19Z</time>
      </trkpt>
      <trkpt lat="46.20538" lon="4.79558">
        <ele>190.2</ele>
        <time>2024-09-19T10:56:20Z</time>
      </trkpt>
      <trkpt lat="46.20533" lon="4.79559">
        <ele>190.2</ele>
        <time>2024-09-19T10:56:21Z</time>
      </trkpt>
      <trkpt lat="46.20528" lon="4.79561">
        <ele>190.2</ele>
        <time>2024-09-19T10:56:22Z</time>
      </trkpt>
      <trkpt lat="46.20523" lon="4.79562">
        <ele>190</ele>
        <time>2024-09-19T10:56:23Z</time>
      </trkpt>
      <trkpt lat="46.20518" lon="4.79564">
        <ele>189.8</ele>
        <time>2024-09-19T10:56:24Z</time>
      </trkpt>
      <trkpt lat="46.20512" lon="4.79565">
        <ele>189.8</ele>
        <time>2024-09-19T10:56:25Z</time>
      </trkpt>
      <trkpt lat="46.20505" lon="4.79566">
        <ele>189.8</ele>
        <time>2024-09-19T10:56:26Z</time>
      </trkpt>
      <trkpt lat="46.20502" lon="4.79567">
        <ele>189.8</ele>
        <time>2024-09-19T10:56:27Z</time>
      </trkpt>
      <trkpt lat="46.20497" lon="4.79568">
        <ele>189.8</ele>
        <time>2024-09-19T10:56:28Z</time>
      </trkpt>
      <trkpt lat="46.2049" lon="4.79569">
        <ele>189.8</ele>
        <time>2024-09-19T10:56:29Z</time>
      </trkpt>
      <trkpt lat="46.20487" lon="4.79569">
        <ele>189.8</ele>
        <time>2024-09-19T10:56:30Z</time>
      </trkpt>
      <trkpt lat="46.20482" lon="4.7957">
        <ele>189.8</ele>
        <time>2024-09-19T10:56:31Z</time>
      </trkpt>
      <trkpt lat="46.20477" lon="4.79571">
        <ele>189.8</ele>
        <time>2024-09-19T10:56:32Z</time>
      </trkpt>
      <trkpt lat="46.20472" lon="4.79572">
        <ele>190</ele>
        <time>2024-09-19T10:56:33Z</time>
      </trkpt>
      <trkpt lat="46.20467" lon="4.79573">
        <ele>190</ele>
        <time>2024-09-19T10:56:34Z</time>
      </trkpt>
      <trkpt lat="46.20463" lon="4.79573">
        <ele>190</ele>
        <time>2024-09-19T10:56:35Z</time>
      </trkpt>
      <trkpt lat="46.20456" lon="4.79575">
        <ele>190</ele>
        <time>2024-09-19T10:56:36Z</time>
      </trkpt>
      <trkpt lat="46.20453" lon="4.79575">
        <ele>190.2</ele>
        <time>2024-09-19T10:56:37Z</time>
      </trkpt>
      <trkpt lat="46.20448" lon="4.79576">
        <ele>190.2</ele>
        <time>2024-09-19T10:56:38Z</time>
      </trkpt>
      <trkpt lat="46.20443" lon="4.79577">
        <ele>190.2</ele>
        <time>2024-09-19T10:56:39Z</time>
      </trkpt>
      <trkpt lat="46.20436" lon="4.7958">
        <ele>190.2</ele>
        <time>2024-09-19T10:56:40Z</time>
      </trkpt>
      <trkpt lat="46.20433" lon="4.7958">
        <ele>189.8</ele>
        <time>2024-09-19T10:56:41Z</time>
      </trkpt>
      <trkpt lat="46.20426" lon="4.79582">
        <ele>189.8</ele>
        <time>2024-09-19T10:56:42Z</time>
      </trkpt>
      <trkpt lat="46.20424" lon="4.79583">
        <ele>189.8</ele>
        <time>2024-09-19T10:56:43Z</time>
      </trkpt>
      <trkpt lat="46.20416" lon="4.79585">
        <ele>189.8</ele>
        <time>2024-09-19T10:56:44Z</time>
      </trkpt>
      <trkpt lat="46.20414" lon="4.79585">
        <ele>189.8</ele>
        <time>2024-09-19T10:56:45Z</time>
      </trkpt>
      <trkpt lat="46.20409" lon="4.79586">
        <ele>190.2</ele>
        <time>2024-09-19T10:56:46Z</time>
      </trkpt>
      <trkpt lat="46.20404" lon="4.79587">
        <ele>190.2</ele>
        <time>2024-09-19T10:56:47Z</time>
      </trkpt>
      <trkpt lat="46.20399" lon="4.79589">
        <ele>190.2</ele>
        <time>2024-09-19T10:56:48Z</time>
      </trkpt>
      <trkpt lat="46.20394" lon="4.7959">
        <ele>190.2</ele>
        <time>2024-09-19T10:56:49Z</time>
      </trkpt>
      <trkpt lat="46.20386" lon="4.7959">
        <ele>190.2</ele>
        <time>2024-09-19T10:56:50Z</time>
      </trkpt>
      <trkpt lat="46.20384" lon="4.7959">
        <ele>190.2</ele>
        <time>2024-09-19T10:56:51Z</time>
      </trkpt>
      <trkpt lat="46.20379" lon="4.7959">
        <ele>190.2</ele>
        <time>2024-09-19T10:56:52Z</time>
      </trkpt>
      <trkpt lat="46.20374" lon="4.7959">
        <ele>189.8</ele>
        <time>2024-09-19T10:56:53Z</time>
      </trkpt>
      <trkpt lat="46.2037" lon="4.7959">
        <ele>190.2</ele>
        <time>2024-09-19T10:56:54Z</time>
      </trkpt>
      <trkpt lat="46.20365" lon="4.7959">
        <ele>190.2</ele>
        <time>2024-09-19T10:56:55Z</time>
      </trkpt>
      <trkpt lat="46.2036" lon="4.79589">
        <ele>190.2</ele>
        <time>2024-09-19T10:56:56Z</time>
      </trkpt>
      <trkpt lat="46.20356" lon="4.79588">
        <ele>190.2</ele>
        <time>2024-09-19T10:56:57Z</time>
      </trkpt>
      <trkpt lat="46.20351" lon="4.79588">
        <ele>190.2</ele>
        <time>2024-09-19T10:56:58Z</time>
      </trkpt>
      <trkpt lat="46.20346" lon="4.79587">
        <ele>190.2</ele>
        <time>2024-09-19T10:56:59Z</time>
      </trkpt>
      <trkpt lat="46.20341" lon="4.79585">
        <ele>190.2</ele>
        <time>2024-09-19T10:57:00Z</time>
      </trkpt>
      <trkpt lat="46.20334" lon="4.79584">
        <ele>190.2</ele>
        <time>2024-09-19T10:57:01Z</time>
      </trkpt>
      <trkpt lat="46.20331" lon="4.79583">
        <ele>190.2</ele>
        <time>2024-09-19T10:57:02Z</time>
      </trkpt>
      <trkpt lat="46.20326" lon="4.79582">
        <ele>190.2</ele>
        <time>2024-09-19T10:57:03Z</time>
      </trkpt>
      <trkpt lat="46.20319" lon="4.7958">
        <ele>190.2</ele>
        <time>2024-09-19T10:57:04Z</time>
      </trkpt>
      <trkpt lat="46.20316" lon="4.7958">
        <ele>190.2</ele>
        <time>2024-09-19T10:57:05Z</time>
      </trkpt>
      <trkpt lat="46.20311" lon="4.79579">
        <ele>190.2</ele>
        <time>2024-09-19T10:57:06Z</time>
      </trkpt>
      <trkpt lat="46.20306" lon="4.79578">
        <ele>190.2</ele>
        <time>2024-09-19T10:57:07Z</time>
      </trkpt>
      <trkpt lat="46.20301" lon="4.79578">
        <ele>190.2</ele>
        <time>2024-09-19T10:57:08Z</time>
      </trkpt>
      <trkpt lat="46.20296" lon="4.79577">
        <ele>190.4</ele>
        <time>2024-09-19T10:57:09Z</time>
      </trkpt>
      <trkpt lat="46.20291" lon="4.79576">
        <ele>190.4</ele>
        <time>2024-09-19T10:57:10Z</time>
      </trkpt>
      <trkpt lat="46.20284" lon="4.79574">
        <ele>190.4</ele>
        <time>2024-09-19T10:57:11Z</time>
      </trkpt>
      <trkpt lat="46.20281" lon="4.79574">
        <ele>190.4</ele>
        <time>2024-09-19T10:57:12Z</time>
      </trkpt>
      <trkpt lat="46.20276" lon="4.79573">
        <ele>190.4</ele>
        <time>2024-09-19T10:57:13Z</time>
      </trkpt>
      <trkpt lat="46.20271" lon="4.79571">
        <ele>190.4</ele>
        <time>2024-09-19T10:57:14Z</time>
      </trkpt>
      <trkpt lat="46.20266" lon="4.7957">
        <ele>190.4</ele>
        <time>2024-09-19T10:57:15Z</time>
      </trkpt>
      <trkpt lat="46.20259" lon="4.79568">
        <ele>190.4</ele>
        <time>2024-09-19T10:57:16Z</time>
      </trkpt>
      <trkpt lat="46.20257" lon="4.79568">
        <ele>190</ele>
        <time>2024-09-19T10:57:17Z</time>
      </trkpt>
      <trkpt lat="46.20252" lon="4.79566">
        <ele>190.4</ele>
        <time>2024-09-19T10:57:18Z</time>
      </trkpt>
      <trkpt lat="46.20245" lon="4.79563">
        <ele>190.4</ele>
        <time>2024-09-19T10:57:19Z</time>
      </trkpt>
      <trkpt lat="46.20242" lon="4.79562">
        <ele>190.4</ele>
        <time>2024-09-19T10:57:20Z</time>
      </trkpt>
      <trkpt lat="46.20238" lon="4.7956">
        <ele>190.4</ele>
        <time>2024-09-19T10:57:21Z</time>
      </trkpt>
      <trkpt lat="46.20233" lon="4.79557">
        <ele>190.4</ele>
        <time>2024-09-19T10:57:22Z</time>
      </trkpt>
      <trkpt lat="46.20227" lon="4.79552">
        <ele>190.4</ele>
        <time>2024-09-19T10:57:23Z</time>
      </trkpt>
      <trkpt lat="46.20225" lon="4.7955">
        <ele>190.4</ele>
        <time>2024-09-19T10:57:24Z</time>
      </trkpt>
      <trkpt lat="46.2022" lon="4.79544">
        <ele>190.4</ele>
        <time>2024-09-19T10:57:25Z</time>
      </trkpt>
      <trkpt lat="46.20218" lon="4.79541">
        <ele>190.4</ele>
        <time>2024-09-19T10:57:26Z</time>
      </trkpt>
      <trkpt lat="46.20212" lon="4.79534">
        <ele>190.4</ele>
        <time>2024-09-19T10:57:27Z</time>
      </trkpt>
      <trkpt lat="46.2021" lon="4.79532">
        <ele>190.4</ele>
        <time>2024-09-19T10:57:28Z</time>
      </trkpt>
      <trkpt lat="46.20204" lon="4.79526">
        <ele>190.4</ele>
        <time>2024-09-19T10:57:29Z</time>
      </trkpt>
      <trkpt lat="46.20203" lon="4.79524">
        <ele>190.2</ele>
        <time>2024-09-19T10:57:30Z</time>
      </trkpt>
      <trkpt lat="46.20197" lon="4.79519">
        <ele>190.2</ele>
        <time>2024-09-19T10:57:31Z</time>
      </trkpt>
      <trkpt lat="46.20195" lon="4.79517">
        <ele>190.2</ele>
        <time>2024-09-19T10:57:32Z</time>
      </trkpt>
      <trkpt lat="46.20189" lon="4.79512">
        <ele>190.2</ele>
        <time>2024-09-19T10:57:33Z</time>
      </trkpt>
      <trkpt lat="46.20187" lon="4.7951">
        <ele>190.2</ele>
        <time>2024-09-19T10:57:34Z</time>
      </trkpt>
      <trkpt lat="46.20183" lon="4.79507">
        <ele>190.6</ele>
        <time>2024-09-19T10:57:35Z</time>
      </trkpt>
      <trkpt lat="46.2018" lon="4.79504">
        <ele>190.6</ele>
        <time>2024-09-19T10:57:36Z</time>
      </trkpt>
      <trkpt lat="46.20177" lon="4.79501">
        <ele>190.6</ele>
        <time>2024-09-19T10:57:37Z</time>
      </trkpt>
      <trkpt lat="46.20173" lon="4.79498">
        <ele>190.8</ele>
        <time>2024-09-19T10:57:38Z</time>
      </trkpt>
      <trkpt lat="46.20169" lon="4.79495">
        <ele>190.8</ele>
        <time>2024-09-19T10:57:39Z</time>
      </trkpt>
      <trkpt lat="46.20165" lon="4.79492">
        <ele>190.8</ele>
        <time>2024-09-19T10:57:40Z</time>
      </trkpt>
      <trkpt lat="46.2016" lon="4.7949">
        <ele>190.8</ele>
        <time>2024-09-19T10:57:41Z</time>
      </trkpt>
      <trkpt lat="46.20156" lon="4.79487">
        <ele>190.8</ele>
        <time>2024-09-19T10:57:42Z</time>
      </trkpt>
      <trkpt lat="46.2015" lon="4.79482">
        <ele>190.2</ele>
        <time>2024-09-19T10:57:43Z</time>
      </trkpt>
      <trkpt lat="46.20148" lon="4.7948">
        <ele>190.6</ele>
        <time>2024-09-19T10:57:44Z</time>
      </trkpt>
      <trkpt lat="46.20144" lon="4.79477">
        <ele>190.6</ele>
        <time>2024-09-19T10:57:45Z</time>
      </trkpt>
      <trkpt lat="46.20138" lon="4.79471">
        <ele>190.6</ele>
        <time>2024-09-19T10:57:46Z</time>
      </trkpt>
      <trkpt lat="46.20136" lon="4.7947">
        <ele>190.6</ele>
        <time>2024-09-19T10:57:47Z</time>
      </trkpt>
      <trkpt lat="46.20132" lon="4.79466">
        <ele>190.6</ele>
        <time>2024-09-19T10:57:48Z</time>
      </trkpt>
      <trkpt lat="46.20128" lon="4.79463">
        <ele>190.2</ele>
        <time>2024-09-19T10:57:49Z</time>
      </trkpt>
      <trkpt lat="46.20122" lon="4.79456">
        <ele>190.2</ele>
        <time>2024-09-19T10:57:50Z</time>
      </trkpt>
      <trkpt lat="46.2012" lon="4.79454">
        <ele>190.2</ele>
        <time>2024-09-19T10:57:51Z</time>
      </trkpt>
      <trkpt lat="46.20116" lon="4.7945">
        <ele>190.2</ele>
        <time>2024-09-19T10:57:52Z</time>
      </trkpt>
      <trkpt lat="46.20112" lon="4.79446">
        <ele>190.4</ele>
        <time>2024-09-19T10:57:53Z</time>
      </trkpt>
      <trkpt lat="46.20108" lon="4.79442">
        <ele>190.4</ele>
        <time>2024-09-19T10:57:54Z</time>
      </trkpt>
      <trkpt lat="46.20103" lon="4.79435">
        <ele>190.4</ele>
        <time>2024-09-19T10:57:55Z</time>
      </trkpt>
      <trkpt lat="46.20101" lon="4.79433">
        <ele>190.4</ele>
        <time>2024-09-19T10:57:56Z</time>
      </trkpt>
      <trkpt lat="46.20097" lon="4.79428">
        <ele>190.8</ele>
        <time>2024-09-19T10:57:57Z</time>
      </trkpt>
      <trkpt lat="46.20091" lon="4.79421">
        <ele>190.8</ele>
        <time>2024-09-19T10:57:58Z</time>
      </trkpt>
      <trkpt lat="46.20089" lon="4.79419">
        <ele>190.8</ele>
        <time>2024-09-19T10:57:59Z</time>
      </trkpt>
      <trkpt lat="46.20086" lon="4.79415">
        <ele>190.8</ele>
        <time>2024-09-19T10:58:00Z</time>
      </trkpt>
      <trkpt lat="46.20082" lon="4.7941">
        <ele>190.8</ele>
        <time>2024-09-19T10:58:01Z</time>
      </trkpt>
      <trkpt lat="46.20078" lon="4.79405">
        <ele>190.8</ele>
        <time>2024-09-19T10:58:02Z</time>
      </trkpt>
      <trkpt lat="46.20072" lon="4.79398">
        <ele>190.8</ele>
        <time>2024-09-19T10:58:03Z</time>
      </trkpt>
      <trkpt lat="46.2007" lon="4.79396">
        <ele>190.8</ele>
        <time>2024-09-19T10:58:04Z</time>
      </trkpt>
      <trkpt lat="46.20067" lon="4.79391">
        <ele>190.8</ele>
        <time>2024-09-19T10:58:05Z</time>
      </trkpt>
      <trkpt lat="46.20063" lon="4.79387">
        <ele>190.6</ele>
        <time>2024-09-19T10:58:06Z</time>
      </trkpt>
      <trkpt lat="46.20058" lon="4.7938">
        <ele>190.6</ele>
        <time>2024-09-19T10:58:07Z</time>
      </trkpt>
      <trkpt lat="46.20056" lon="4.79378">
        <ele>190.6</ele>
        <time>2024-09-19T10:58:08Z</time>
      </trkpt>
      <trkpt lat="46.20052" lon="4.79374">
        <ele>190.6</ele>
        <time>2024-09-19T10:58:09Z</time>
      </trkpt>
      <trkpt lat="46.20048" lon="4.7937">
        <ele>190.6</ele>
        <time>2024-09-19T10:58:10Z</time>
      </trkpt>
      <trkpt lat="46.20042" lon="4.79363">
        <ele>190.6</ele>
        <time>2024-09-19T10:58:11Z</time>
      </trkpt>
      <trkpt lat="46.20041" lon="4.79361">
        <ele>190.6</ele>
        <time>2024-09-19T10:58:12Z</time>
      </trkpt>
      <trkpt lat="46.20037" lon="4.79356">
        <ele>190.6</ele>
        <time>2024-09-19T10:58:13Z</time>
      </trkpt>
      <trkpt lat="46.20033" lon="4.79352">
        <ele>190.6</ele>
        <time>2024-09-19T10:58:14Z</time>
      </trkpt>
      <trkpt lat="46.20027" lon="4.79345">
        <ele>191</ele>
        <time>2024-09-19T10:58:15Z</time>
      </trkpt>
      <trkpt lat="46.20026" lon="4.79343">
        <ele>191</ele>
        <time>2024-09-19T10:58:16Z</time>
      </trkpt>
      <trkpt lat="46.2002" lon="4.79336">
        <ele>191</ele>
        <time>2024-09-19T10:58:17Z</time>
      </trkpt>
      <trkpt lat="46.20018" lon="4.79334">
        <ele>191</ele>
        <time>2024-09-19T10:58:18Z</time>
      </trkpt>
      <trkpt lat="46.20013" lon="4.79328">
        <ele>191</ele>
        <time>2024-09-19T10:58:19Z</time>
      </trkpt>
      <trkpt lat="46.20011" lon="4.79325">
        <ele>191</ele>
        <time>2024-09-19T10:58:20Z</time>
      </trkpt>
      <trkpt lat="46.20005" lon="4.79319">
        <ele>191</ele>
        <time>2024-09-19T10:58:21Z</time>
      </trkpt>
      <trkpt lat="46.20003" lon="4.79317">
        <ele>191</ele>
        <time>2024-09-19T10:58:22Z</time>
      </trkpt>
      <trkpt lat="46.19999" lon="4.79312">
        <ele>190.6</ele>
        <time>2024-09-19T10:58:23Z</time>
      </trkpt>
      <trkpt lat="46.19995" lon="4.79308">
        <ele>190.6</ele>
        <time>2024-09-19T10:58:24Z</time>
      </trkpt>
      <trkpt lat="46.19992" lon="4.79303">
        <ele>190.6</ele>
        <time>2024-09-19T10:58:25Z</time>
      </trkpt>
      <trkpt lat="46.19988" lon="4.79299">
        <ele>190.6</ele>
        <time>2024-09-19T10:58:26Z</time>
      </trkpt>
      <trkpt lat="46.19984" lon="4.79294">
        <ele>190.2</ele>
        <time>2024-09-19T10:58:27Z</time>
      </trkpt>
      <trkpt lat="46.19978" lon="4.79287">
        <ele>190.2</ele>
        <time>2024-09-19T10:58:28Z</time>
      </trkpt>
      <trkpt lat="46.19977" lon="4.79285">
        <ele>190.2</ele>
        <time>2024-09-19T10:58:29Z</time>
      </trkpt>
      <trkpt lat="46.19973" lon="4.79281">
        <ele>190.2</ele>
        <time>2024-09-19T10:58:30Z</time>
      </trkpt>
      <trkpt lat="46.19967" lon="4.79274">
        <ele>190.2</ele>
        <time>2024-09-19T10:58:31Z</time>
      </trkpt>
      <trkpt lat="46.19965" lon="4.79271">
        <ele>190.2</ele>
        <time>2024-09-19T10:58:32Z</time>
      </trkpt>
      <trkpt lat="46.19961" lon="4.79267">
        <ele>190.2</ele>
        <time>2024-09-19T10:58:33Z</time>
      </trkpt>
      <trkpt lat="46.19958" lon="4.79262">
        <ele>190.2</ele>
        <time>2024-09-19T10:58:34Z</time>
      </trkpt>
      <trkpt lat="46.19954" lon="4.79257">
        <ele>190.2</ele>
        <time>2024-09-19T10:58:35Z</time>
      </trkpt>
      <trkpt lat="46.1995" lon="4.79253">
        <ele>190.2</ele>
        <time>2024-09-19T10:58:36Z</time>
      </trkpt>
      <trkpt lat="46.19946" lon="4.79248">
        <ele>190</ele>
        <time>2024-09-19T10:58:37Z</time>
      </trkpt>
      <trkpt lat="46.1994" lon="4.79241">
        <ele>190.2</ele>
        <time>2024-09-19T10:58:38Z</time>
      </trkpt>
      <trkpt lat="46.19939" lon="4.79239">
        <ele>190.2</ele>
        <time>2024-09-19T10:58:39Z</time>
      </trkpt>
      <trkpt lat="46.19935" lon="4.79234">
        <ele>190.2</ele>
        <time>2024-09-19T10:58:40Z</time>
      </trkpt>
      <trkpt lat="46.19929" lon="4.79227">
        <ele>190.2</ele>
        <time>2024-09-19T10:58:41Z</time>
      </trkpt>
      <trkpt lat="46.19927" lon="4.79225">
        <ele>190</ele>
        <time>2024-09-19T10:58:42Z</time>
      </trkpt>
      <trkpt lat="46.19924" lon="4.7922">
        <ele>190.4</ele>
        <time>2024-09-19T10:58:43Z</time>
      </trkpt>
      <trkpt lat="46.1992" lon="4.79215">
        <ele>190.4</ele>
        <time>2024-09-19T10:58:44Z</time>
      </trkpt>
      <trkpt lat="46.19916" lon="4.7921">
        <ele>190.4</ele>
        <time>2024-09-19T10:58:45Z</time>
      </trkpt>
      <trkpt lat="46.19912" lon="4.79205">
        <ele>190</ele>
        <time>2024-09-19T10:58:46Z</time>
      </trkpt>
      <trkpt lat="46.19908" lon="4.79201">
        <ele>189.8</ele>
        <time>2024-09-19T10:58:47Z</time>
      </trkpt>
      <trkpt lat="46.19904" lon="4.79196">
        <ele>189.8</ele>
        <time>2024-09-19T10:58:48Z</time>
      </trkpt>
      <trkpt lat="46.19901" lon="4.79192">
        <ele>189.8</ele>
        <time>2024-09-19T10:58:49Z</time>
      </trkpt>
      <trkpt lat="46.19896" lon="4.79187">
        <ele>189.8</ele>
        <time>2024-09-19T10:58:50Z</time>
      </trkpt>
      <trkpt lat="46.1989" lon="4.79181">
        <ele>189.8</ele>
        <time>2024-09-19T10:58:51Z</time>
      </trkpt>
      <trkpt lat="46.19888" lon="4.79178">
        <ele>189.6</ele>
        <time>2024-09-19T10:58:52Z</time>
      </trkpt>
      <trkpt lat="46.19882" lon="4.79171">
        <ele>189.6</ele>
        <time>2024-09-19T10:58:53Z</time>
      </trkpt>
      <trkpt lat="46.19881" lon="4.79169">
        <ele>189.6</ele>
        <time>2024-09-19T10:58:54Z</time>
      </trkpt>
      <trkpt lat="46.19875" lon="4.79162">
        <ele>189.6</ele>
        <time>2024-09-19T10:58:55Z</time>
      </trkpt>
      <trkpt lat="46.19873" lon="4.7916">
        <ele>189.6</ele>
        <time>2024-09-19T10:58:56Z</time>
      </trkpt>
      <trkpt lat="46.19869" lon="4.79155">
        <ele>189.6</ele>
        <time>2024-09-19T10:58:57Z</time>
      </trkpt>
      <trkpt lat="46.19863" lon="4.79149">
        <ele>189.6</ele>
        <time>2024-09-19T10:58:58Z</time>
      </trkpt>
      <trkpt lat="46.19862" lon="4.79146">
        <ele>189.6</ele>
        <time>2024-09-19T10:58:59Z</time>
      </trkpt>
      <trkpt lat="46.19856" lon="4.7914">
        <ele>189.2</ele>
        <time>2024-09-19T10:59:00Z</time>
      </trkpt>
      <trkpt lat="46.19854" lon="4.79138">
        <ele>189.2</ele>
        <time>2024-09-19T10:59:01Z</time>
      </trkpt>
      <trkpt lat="46.19848" lon="4.79131">
        <ele>189.2</ele>
        <time>2024-09-19T10:59:02Z</time>
      </trkpt>
      <trkpt lat="46.19847" lon="4.79129">
        <ele>189.2</ele>
        <time>2024-09-19T10:59:03Z</time>
      </trkpt>
      <trkpt lat="46.19841" lon="4.79122">
        <ele>189.8</ele>
        <time>2024-09-19T10:59:04Z</time>
      </trkpt>
      <trkpt lat="46.19839" lon="4.7912">
        <ele>189.8</ele>
        <time>2024-09-19T10:59:05Z</time>
      </trkpt>
      <trkpt lat="46.19835" lon="4.79115">
        <ele>189.8</ele>
        <time>2024-09-19T10:59:06Z</time>
      </trkpt>
      <trkpt lat="46.19831" lon="4.79111">
        <ele>189.8</ele>
        <time>2024-09-19T10:59:07Z</time>
      </trkpt>
      <trkpt lat="46.19828" lon="4.79106">
        <ele>189.6</ele>
        <time>2024-09-19T10:59:08Z</time>
      </trkpt>
      <trkpt lat="46.19824" lon="4.79101">
        <ele>189.8</ele>
        <time>2024-09-19T10:59:09Z</time>
      </trkpt>
      <trkpt lat="46.19818" lon="4.79094">
        <ele>189.8</ele>
        <time>2024-09-19T10:59:10Z</time>
      </trkpt>
      <trkpt lat="46.19816" lon="4.79092">
        <ele>189.8</ele>
        <time>2024-09-19T10:59:11Z</time>
      </trkpt>
      <trkpt lat="46.19812" lon="4.79087">
        <ele>189.8</ele>
        <time>2024-09-19T10:59:12Z</time>
      </trkpt>
      <trkpt lat="46.19806" lon="4.7908">
        <ele>189.6</ele>
        <time>2024-09-19T10:59:13Z</time>
      </trkpt>
      <trkpt lat="46.19804" lon="4.79078">
        <ele>189.4</ele>
        <time>2024-09-19T10:59:14Z</time>
      </trkpt>
      <trkpt lat="46.19801" lon="4.79073">
        <ele>189.4</ele>
        <time>2024-09-19T10:59:15Z</time>
      </trkpt>
      <trkpt lat="46.19797" lon="4.79068">
        <ele>189.4</ele>
        <time>2024-09-19T10:59:16Z</time>
      </trkpt>
      <trkpt lat="46.19793" lon="4.79063">
        <ele>189.6</ele>
        <time>2024-09-19T10:59:17Z</time>
      </trkpt>
      <trkpt lat="46.19789" lon="4.79059">
        <ele>189.6</ele>
        <time>2024-09-19T10:59:18Z</time>
      </trkpt>
      <trkpt lat="46.19785" lon="4.79054">
        <ele>189.6</ele>
        <time>2024-09-19T10:59:19Z</time>
      </trkpt>
      <trkpt lat="46.19779" lon="4.79047">
        <ele>189.6</ele>
        <time>2024-09-19T10:59:20Z</time>
      </trkpt>
      <trkpt lat="46.19777" lon="4.79045">
        <ele>189.6</ele>
        <time>2024-09-19T10:59:21Z</time>
      </trkpt>
      <trkpt lat="46.19773" lon="4.79041">
        <ele>189.6</ele>
        <time>2024-09-19T10:59:22Z</time>
      </trkpt>
      <trkpt lat="46.19767" lon="4.79034">
        <ele>189.8</ele>
        <time>2024-09-19T10:59:23Z</time>
      </trkpt>
      <trkpt lat="46.19765" lon="4.79032">
        <ele>189.8</ele>
        <time>2024-09-19T10:59:24Z</time>
      </trkpt>
      <trkpt lat="46.19761" lon="4.79027">
        <ele>189.8</ele>
        <time>2024-09-19T10:59:25Z</time>
      </trkpt>
      <trkpt lat="46.19757" lon="4.79023">
        <ele>189.8</ele>
        <time>2024-09-19T10:59:26Z</time>
      </trkpt>
      <trkpt lat="46.19754" lon="4.79018">
        <ele>189.4</ele>
        <time>2024-09-19T10:59:27Z</time>
      </trkpt>
      <trkpt lat="46.1975" lon="4.79014">
        <ele>189.4</ele>
        <time>2024-09-19T10:59:28Z</time>
      </trkpt>
      <trkpt lat="46.19746" lon="4.79009">
        <ele>189.4</ele>
        <time>2024-09-19T10:59:29Z</time>
      </trkpt>
      <trkpt lat="46.1974" lon="4.79002">
        <ele>189.6</ele>
        <time>2024-09-19T10:59:30Z</time>
      </trkpt>
      <trkpt lat="46.19739" lon="4.79">
        <ele>189.6</ele>
        <time>2024-09-19T10:59:31Z</time>
      </trkpt>
      <trkpt lat="46.19736" lon="4.78996">
        <ele>189.8</ele>
        <time>2024-09-19T10:59:32Z</time>
      </trkpt>
      <trkpt lat="46.19733" lon="4.78993">
        <ele>189.8</ele>
        <time>2024-09-19T10:59:33Z</time>
      </trkpt>
      <trkpt lat="46.19731" lon="4.78988">
        <ele>189.8</ele>
        <time>2024-09-19T10:59:34Z</time>
      </trkpt>
      <trkpt lat="46.1973" lon="4.78986">
        <ele>189.8</ele>
        <time>2024-09-19T10:59:35Z</time>
      </trkpt>
      <trkpt lat="46.19729" lon="4.78983">
        <ele>189.4</ele>
        <time>2024-09-19T10:59:36Z</time>
      </trkpt>
      <trkpt lat="46.19729" lon="4.78981">
        <ele>189.4</ele>
        <time>2024-09-19T10:59:37Z</time>
      </trkpt>
      <trkpt lat="46.19729" lon="4.78979">
        <ele>189.4</ele>
        <time>2024-09-19T10:59:38Z</time>
      </trkpt>
      <trkpt lat="46.19729" lon="4.78977">
        <ele>189.4</ele>
        <time>2024-09-19T10:59:39Z</time>
      </trkpt>
      <trkpt lat="46.19729" lon="4.78977">
        <ele>189.4</ele>
        <time>2024-09-19T10:59:40Z</time>
      </trkpt>
      <trkpt lat="46.19729" lon="4.78977">
        <ele>189.4</ele>
        <time>2024-09-19T10:59:41Z</time>
      </trkpt>
      <trkpt lat="46.19729" lon="4.78977">
        <ele>189.4</ele>
        <time>2024-09-19T10:59:42Z</time>
      </trkpt>
      <trkpt lat="46.19727" lon="4.78976">
        <ele>189</ele>
        <time>2024-09-19T11:06:08Z</time>
      </trkpt>
      <trkpt lat="46.19726" lon="4.78977">
        <ele>189</ele>
        <time>2024-09-19T11:06:09Z</time>
      </trkpt>
      <trkpt lat="46.19725" lon="4.78977">
        <ele>189</ele>
        <time>2024-09-19T11:06:10Z</time>
      </trkpt>
      <trkpt lat="46.19725" lon="4.78976">
        <ele>189</ele>
        <time>2024-09-19T11:06:11Z</time>
      </trkpt>
      <trkpt lat="46.19725" lon="4.78976">
        <ele>189</ele>
        <time>2024-09-19T11:06:12Z</time>
      </trkpt>
      <trkpt lat="46.19719" lon="4.7897">
        <ele>189</ele>
        <time>2024-09-19T11:06:35Z</time>
      </trkpt>
      <trkpt lat="46.19716" lon="4.78968">
        <ele>189.4</ele>
        <time>2024-09-19T11:06:36Z</time>
      </trkpt>
      <trkpt lat="46.19714" lon="4.78966">
        <ele>189.4</ele>
        <time>2024-09-19T11:06:37Z</time>
      </trkpt>
      <trkpt lat="46.19712" lon="4.78963">
        <ele>189.4</ele>
        <time>2024-09-19T11:06:38Z</time>
      </trkpt>
      <trkpt lat="46.19709" lon="4.7896">
        <ele>189</ele>
        <time>2024-09-19T11:06:39Z</time>
      </trkpt>
      <trkpt lat="46.19704" lon="4.78955">
        <ele>189</ele>
        <time>2024-09-19T11:06:40Z</time>
      </trkpt>
      <trkpt lat="46.19703" lon="4.78953">
        <ele>189</ele>
        <time>2024-09-19T11:06:41Z</time>
      </trkpt>
      <trkpt lat="46.197" lon="4.78949">
        <ele>189</ele>
        <time>2024-09-19T11:06:42Z</time>
      </trkpt>
      <trkpt lat="46.19697" lon="4.78945">
        <ele>189</ele>
        <time>2024-09-19T11:06:43Z</time>
      </trkpt>
      <trkpt lat="46.19692" lon="4.7894">
        <ele>189.4</ele>
        <time>2024-09-19T11:06:44Z</time>
      </trkpt>
      <trkpt lat="46.1969" lon="4.78938">
        <ele>189.4</ele>
        <time>2024-09-19T11:06:45Z</time>
      </trkpt>
      <trkpt lat="46.19687" lon="4.78934">
        <ele>189.4</ele>
        <time>2024-09-19T11:06:46Z</time>
      </trkpt>
      <trkpt lat="46.19682" lon="4.78927">
        <ele>189.4</ele>
        <time>2024-09-19T11:06:47Z</time>
      </trkpt>
      <trkpt lat="46.1968" lon="4.78925">
        <ele>189.4</ele>
        <time>2024-09-19T11:06:48Z</time>
      </trkpt>
      <trkpt lat="46.19674" lon="4.78919">
        <ele>189.8</ele>
        <time>2024-09-19T11:06:49Z</time>
      </trkpt>
      <trkpt lat="46.19672" lon="4.78917">
        <ele>189.8</ele>
        <time>2024-09-19T11:06:50Z</time>
      </trkpt>
      <trkpt lat="46.19667" lon="4.78911">
        <ele>189.8</ele>
        <time>2024-09-19T11:06:51Z</time>
      </trkpt>
      <trkpt lat="46.19665" lon="4.78909">
        <ele>189.2</ele>
        <time>2024-09-19T11:06:52Z</time>
      </trkpt>
      <trkpt lat="46.19659" lon="4.78903">
        <ele>189.4</ele>
        <time>2024-09-19T11:06:53Z</time>
      </trkpt>
      <trkpt lat="46.19657" lon="4.78901">
        <ele>189.4</ele>
        <time>2024-09-19T11:06:54Z</time>
      </trkpt>
      <trkpt lat="46.19651" lon="4.78894">
        <ele>189.4</ele>
        <time>2024-09-19T11:06:55Z</time>
      </trkpt>
      <trkpt lat="46.19649" lon="4.78892">
        <ele>189.4</ele>
        <time>2024-09-19T11:06:56Z</time>
      </trkpt>
      <trkpt lat="46.19645" lon="4.78887">
        <ele>189.8</ele>
        <time>2024-09-19T11:06:57Z</time>
      </trkpt>
      <trkpt lat="46.1964" lon="4.7888">
        <ele>189.6</ele>
        <time>2024-09-19T11:06:58Z</time>
      </trkpt>
      <trkpt lat="46.19638" lon="4.78878">
        <ele>189.6</ele>
        <time>2024-09-19T11:06:59Z</time>
      </trkpt>
      <trkpt lat="46.19632" lon="4.78871">
        <ele>189.6</ele>
        <time>2024-09-19T11:07:00Z</time>
      </trkpt>
      <trkpt lat="46.1963" lon="4.78869">
        <ele>189.6</ele>
        <time>2024-09-19T11:07:01Z</time>
      </trkpt>
      <trkpt lat="46.19624" lon="4.78862">
        <ele>189.6</ele>
        <time>2024-09-19T11:07:02Z</time>
      </trkpt>
      <trkpt lat="46.19623" lon="4.7886">
        <ele>189.6</ele>
        <time>2024-09-19T11:07:03Z</time>
      </trkpt>
      <trkpt lat="46.19619" lon="4.78855">
        <ele>189.6</ele>
        <time>2024-09-19T11:07:04Z</time>
      </trkpt>
      <trkpt lat="46.19615" lon="4.78851">
        <ele>189.8</ele>
        <time>2024-09-19T11:07:05Z</time>
      </trkpt>
      <trkpt lat="46.19612" lon="4.78847">
        <ele>189.8</ele>
        <time>2024-09-19T11:07:06Z</time>
      </trkpt>
      <trkpt lat="46.19608" lon="4.78842">
        <ele>189.8</ele>
        <time>2024-09-19T11:07:07Z</time>
      </trkpt>
      <trkpt lat="46.19604" lon="4.78838">
        <ele>189.8</ele>
        <time>2024-09-19T11:07:08Z</time>
      </trkpt>
      <trkpt lat="46.19601" lon="4.78833">
        <ele>189.8</ele>
        <time>2024-09-19T11:07:09Z</time>
      </trkpt>
      <trkpt lat="46.19597" lon="4.78829">
        <ele>189.8</ele>
        <time>2024-09-19T11:07:10Z</time>
      </trkpt>
      <trkpt lat="46.19591" lon="4.78822">
        <ele>189.8</ele>
        <time>2024-09-19T11:07:11Z</time>
      </trkpt>
      <trkpt lat="46.19589" lon="4.7882">
        <ele>190</ele>
        <time>2024-09-19T11:07:12Z</time>
      </trkpt>
      <trkpt lat="46.19586" lon="4.78815">
        <ele>190</ele>
        <time>2024-09-19T11:07:13Z</time>
      </trkpt>
      <trkpt lat="46.1958" lon="4.78809">
        <ele>190</ele>
        <time>2024-09-19T11:07:14Z</time>
      </trkpt>
      <trkpt lat="46.19578" lon="4.78806">
        <ele>190</ele>
        <time>2024-09-19T11:07:15Z</time>
      </trkpt>
      <trkpt lat="46.19574" lon="4.78802">
        <ele>189.8</ele>
        <time>2024-09-19T11:07:16Z</time>
      </trkpt>
      <trkpt lat="46.1957" lon="4.78797">
        <ele>189.8</ele>
        <time>2024-09-19T11:07:17Z</time>
      </trkpt>
      <trkpt lat="46.19566" lon="4.78792">
        <ele>189.8</ele>
        <time>2024-09-19T11:07:18Z</time>
      </trkpt>
      <trkpt lat="46.19563" lon="4.78787">
        <ele>189.8</ele>
        <time>2024-09-19T11:07:19Z</time>
      </trkpt>
      <trkpt lat="46.19559" lon="4.78783">
        <ele>189.8</ele>
        <time>2024-09-19T11:07:20Z</time>
      </trkpt>
      <trkpt lat="46.19553" lon="4.78776">
        <ele>189.8</ele>
        <time>2024-09-19T11:07:21Z</time>
      </trkpt>
      <trkpt lat="46.19551" lon="4.78773">
        <ele>189.8</ele>
        <time>2024-09-19T11:07:22Z</time>
      </trkpt>
      <trkpt lat="46.19547" lon="4.78769">
        <ele>189.8</ele>
        <time>2024-09-19T11:07:23Z</time>
      </trkpt>
      <trkpt lat="46.19542" lon="4.78762">
        <ele>190</ele>
        <time>2024-09-19T11:07:24Z</time>
      </trkpt>
      <trkpt lat="46.1954" lon="4.7876">
        <ele>190</ele>
        <time>2024-09-19T11:07:25Z</time>
      </trkpt>
      <trkpt lat="46.19536" lon="4.78755">
        <ele>190</ele>
        <time>2024-09-19T11:07:26Z</time>
      </trkpt>
      <trkpt lat="46.19532" lon="4.7875">
        <ele>190</ele>
        <time>2024-09-19T11:07:27Z</time>
      </trkpt>
      <trkpt lat="46.19528" lon="4.78746">
        <ele>190</ele>
        <time>2024-09-19T11:07:28Z</time>
      </trkpt>
      <trkpt lat="46.19522" lon="4.78739">
        <ele>189.8</ele>
        <time>2024-09-19T11:07:29Z</time>
      </trkpt>
      <trkpt lat="46.1952" lon="4.78737">
        <ele>189.8</ele>
        <time>2024-09-19T11:07:30Z</time>
      </trkpt>
      <trkpt lat="46.19516" lon="4.78732">
        <ele>189.8</ele>
        <time>2024-09-19T11:07:31Z</time>
      </trkpt>
      <trkpt lat="46.19513" lon="4.78727">
        <ele>189.8</ele>
        <time>2024-09-19T11:07:32Z</time>
      </trkpt>
      <trkpt lat="46.19509" lon="4.78722">
        <ele>189.8</ele>
        <time>2024-09-19T11:07:33Z</time>
      </trkpt>
      <trkpt lat="46.19505" lon="4.78718">
        <ele>190</ele>
        <time>2024-09-19T11:07:34Z</time>
      </trkpt>
      <trkpt lat="46.195" lon="4.78711">
        <ele>190</ele>
        <time>2024-09-19T11:07:35Z</time>
      </trkpt>
      <trkpt lat="46.19498" lon="4.78709">
        <ele>190</ele>
        <time>2024-09-19T11:07:36Z</time>
      </trkpt>
      <trkpt lat="46.19492" lon="4.78702">
        <ele>190.2</ele>
        <time>2024-09-19T11:07:37Z</time>
      </trkpt>
      <trkpt lat="46.1949" lon="4.787">
        <ele>189.8</ele>
        <time>2024-09-19T11:07:38Z</time>
      </trkpt>
      <trkpt lat="46.19486" lon="4.78696">
        <ele>189.8</ele>
        <time>2024-09-19T11:07:39Z</time>
      </trkpt>
      <trkpt lat="46.19482" lon="4.78691">
        <ele>189.8</ele>
        <time>2024-09-19T11:07:40Z</time>
      </trkpt>
      <trkpt lat="46.19478" lon="4.78686">
        <ele>190</ele>
        <time>2024-09-19T11:07:41Z</time>
      </trkpt>
      <trkpt lat="46.19473" lon="4.78679">
        <ele>190</ele>
        <time>2024-09-19T11:07:42Z</time>
      </trkpt>
      <trkpt lat="46.19471" lon="4.78677">
        <ele>190.2</ele>
        <time>2024-09-19T11:07:43Z</time>
      </trkpt>
      <trkpt lat="46.19465" lon="4.7867">
        <ele>190.2</ele>
        <time>2024-09-19T11:07:44Z</time>
      </trkpt>
      <trkpt lat="46.19463" lon="4.78668">
        <ele>190.2</ele>
        <time>2024-09-19T11:07:45Z</time>
      </trkpt>
      <trkpt lat="46.19457" lon="4.78661">
        <ele>190</ele>
        <time>2024-09-19T11:07:46Z</time>
      </trkpt>
      <trkpt lat="46.19455" lon="4.78659">
        <ele>190</ele>
        <time>2024-09-19T11:07:47Z</time>
      </trkpt>
      <trkpt lat="46.1945" lon="4.78652">
        <ele>190</ele>
        <time>2024-09-19T11:07:48Z</time>
      </trkpt>
      <trkpt lat="46.19448" lon="4.7865">
        <ele>190</ele>
        <time>2024-09-19T11:07:49Z</time>
      </trkpt>
      <trkpt lat="46.19444" lon="4.78646">
        <ele>190</ele>
        <time>2024-09-19T11:07:50Z</time>
      </trkpt>
      <trkpt lat="46.1944" lon="4.78642">
        <ele>190</ele>
        <time>2024-09-19T11:07:51Z</time>
      </trkpt>
      <trkpt lat="46.19437" lon="4.78638">
        <ele>190</ele>
        <time>2024-09-19T11:07:52Z</time>
      </trkpt>
      <trkpt lat="46.19431" lon="4.78632">
        <ele>190</ele>
        <time>2024-09-19T11:07:53Z</time>
      </trkpt>
      <trkpt lat="46.19429" lon="4.7863">
        <ele>190</ele>
        <time>2024-09-19T11:07:54Z</time>
      </trkpt>
      <trkpt lat="46.19425" lon="4.78625">
        <ele>190</ele>
        <time>2024-09-19T11:07:55Z</time>
      </trkpt>
      <trkpt lat="46.1942" lon="4.78619">
        <ele>190</ele>
        <time>2024-09-19T11:07:56Z</time>
      </trkpt>
      <trkpt lat="46.19418" lon="4.78617">
        <ele>190.4</ele>
        <time>2024-09-19T11:07:57Z</time>
      </trkpt>
      <trkpt lat="46.19414" lon="4.78613">
        <ele>190.4</ele>
        <time>2024-09-19T11:07:58Z</time>
      </trkpt>
      <trkpt lat="46.1941" lon="4.78608">
        <ele>190.4</ele>
        <time>2024-09-19T11:07:59Z</time>
      </trkpt>
      <trkpt lat="46.19406" lon="4.78604">
        <ele>190.4</ele>
        <time>2024-09-19T11:08:00Z</time>
      </trkpt>
      <trkpt lat="46.19403" lon="4.786">
        <ele>190.4</ele>
        <time>2024-09-19T11:08:01Z</time>
      </trkpt>
      <trkpt lat="46.19399" lon="4.78596">
        <ele>190.4</ele>
        <time>2024-09-19T11:08:02Z</time>
      </trkpt>
      <trkpt lat="46.19393" lon="4.7859">
        <ele>190.4</ele>
        <time>2024-09-19T11:08:03Z</time>
      </trkpt>
      <trkpt lat="46.19391" lon="4.78588">
        <ele>190.4</ele>
        <time>2024-09-19T11:08:04Z</time>
      </trkpt>
      <trkpt lat="46.19387" lon="4.78584">
        <ele>190.4</ele>
        <time>2024-09-19T11:08:05Z</time>
      </trkpt>
      <trkpt lat="46.19382" lon="4.78578">
        <ele>190.2</ele>
        <time>2024-09-19T11:08:06Z</time>
      </trkpt>
      <trkpt lat="46.1938" lon="4.78576">
        <ele>190.2</ele>
        <time>2024-09-19T11:08:07Z</time>
      </trkpt>
      <trkpt lat="46.19376" lon="4.78572">
        <ele>190.2</ele>
        <time>2024-09-19T11:08:08Z</time>
      </trkpt>
      <trkpt lat="46.19372" lon="4.78568">
        <ele>190.2</ele>
        <time>2024-09-19T11:08:09Z</time>
      </trkpt>
      <trkpt lat="46.19368" lon="4.78564">
        <ele>190.2</ele>
        <time>2024-09-19T11:08:10Z</time>
      </trkpt>
      <trkpt lat="46.19364" lon="4.7856">
        <ele>190.2</ele>
        <time>2024-09-19T11:08:11Z</time>
      </trkpt>
      <trkpt lat="46.1936" lon="4.78556">
        <ele>190.2</ele>
        <time>2024-09-19T11:08:12Z</time>
      </trkpt>
      <trkpt lat="46.19354" lon="4.7855">
        <ele>190.2</ele>
        <time>2024-09-19T11:08:13Z</time>
      </trkpt>
      <trkpt lat="46.19352" lon="4.78548">
        <ele>190.2</ele>
        <time>2024-09-19T11:08:14Z</time>
      </trkpt>
      <trkpt lat="46.19348" lon="4.78544">
        <ele>190.2</ele>
        <time>2024-09-19T11:08:15Z</time>
      </trkpt>
      <trkpt lat="46.19344" lon="4.7854">
        <ele>190.2</ele>
        <time>2024-09-19T11:08:16Z</time>
      </trkpt>
      <trkpt lat="46.19338" lon="4.78534">
        <ele>190.2</ele>
        <time>2024-09-19T11:08:17Z</time>
      </trkpt>
      <trkpt lat="46.19336" lon="4.78532">
        <ele>190.2</ele>
        <time>2024-09-19T11:08:18Z</time>
      </trkpt>
      <trkpt lat="46.19332" lon="4.78528">
        <ele>190.2</ele>
        <time>2024-09-19T11:08:19Z</time>
      </trkpt>
      <trkpt lat="46.19328" lon="4.78524">
        <ele>190.2</ele>
        <time>2024-09-19T11:08:20Z</time>
      </trkpt>
      <trkpt lat="46.19324" lon="4.7852">
        <ele>190.2</ele>
        <time>2024-09-19T11:08:21Z</time>
      </trkpt>
      <trkpt lat="46.1932" lon="4.78516">
        <ele>190.2</ele>
        <time>2024-09-19T11:08:22Z</time>
      </trkpt>
      <trkpt lat="46.19316" lon="4.78512">
        <ele>190.2</ele>
        <time>2024-09-19T11:08:23Z</time>
      </trkpt>
      <trkpt lat="46.1931" lon="4.78506">
        <ele>190.2</ele>
        <time>2024-09-19T11:08:24Z</time>
      </trkpt>
      <trkpt lat="46.19307" lon="4.78504">
        <ele>190.2</ele>
        <time>2024-09-19T11:08:25Z</time>
      </trkpt>
      <trkpt lat="46.19301" lon="4.78498">
        <ele>190.2</ele>
        <time>2024-09-19T11:08:26Z</time>
      </trkpt>
      <trkpt lat="46.19299" lon="4.78496">
        <ele>190.2</ele>
        <time>2024-09-19T11:08:27Z</time>
      </trkpt>
      <trkpt lat="46.19293" lon="4.78491">
        <ele>190.2</ele>
        <time>2024-09-19T11:08:28Z</time>
      </trkpt>
      <trkpt lat="46.19291" lon="4.78489">
        <ele>190.2</ele>
        <time>2024-09-19T11:08:29Z</time>
      </trkpt>
      <trkpt lat="46.19285" lon="4.78482">
        <ele>190.2</ele>
        <time>2024-09-19T11:08:30Z</time>
      </trkpt>
      <trkpt lat="46.19283" lon="4.7848">
        <ele>190.2</ele>
        <time>2024-09-19T11:08:31Z</time>
      </trkpt>
      <trkpt lat="46.19279" lon="4.78476">
        <ele>189.8</ele>
        <time>2024-09-19T11:08:32Z</time>
      </trkpt>
      <trkpt lat="46.19275" lon="4.78472">
        <ele>189.8</ele>
        <time>2024-09-19T11:08:33Z</time>
      </trkpt>
      <trkpt lat="46.1927" lon="4.78468">
        <ele>189.8</ele>
        <time>2024-09-19T11:08:34Z</time>
      </trkpt>
      <trkpt lat="46.19266" lon="4.78464">
        <ele>190</ele>
        <time>2024-09-19T11:08:35Z</time>
      </trkpt>
      <trkpt lat="46.19262" lon="4.7846">
        <ele>190</ele>
        <time>2024-09-19T11:08:36Z</time>
      </trkpt>
      <trkpt lat="46.19256" lon="4.78454">
        <ele>190</ele>
        <time>2024-09-19T11:08:37Z</time>
      </trkpt>
      <trkpt lat="46.19254" lon="4.78452">
        <ele>190</ele>
        <time>2024-09-19T11:08:38Z</time>
      </trkpt>
      <trkpt lat="46.19249" lon="4.78448">
        <ele>190</ele>
        <time>2024-09-19T11:08:39Z</time>
      </trkpt>
      <trkpt lat="46.19243" lon="4.78441">
        <ele>190</ele>
        <time>2024-09-19T11:08:40Z</time>
      </trkpt>
      <trkpt lat="46.19241" lon="4.78439">
        <ele>190</ele>
        <time>2024-09-19T11:08:41Z</time>
      </trkpt>
      <trkpt lat="46.19236" lon="4.78435">
        <ele>190.2</ele>
        <time>2024-09-19T11:08:42Z</time>
      </trkpt>
      <trkpt lat="46.19232" lon="4.78431">
        <ele>190.2</ele>
        <time>2024-09-19T11:08:43Z</time>
      </trkpt>
      <trkpt lat="46.19228" lon="4.78427">
        <ele>190.2</ele>
        <time>2024-09-19T11:08:44Z</time>
      </trkpt>
      <trkpt lat="46.19224" lon="4.78423">
        <ele>190.2</ele>
        <time>2024-09-19T11:08:45Z</time>
      </trkpt>
      <trkpt lat="46.19219" lon="4.78419">
        <ele>190</ele>
        <time>2024-09-19T11:08:46Z</time>
      </trkpt>
      <trkpt lat="46.19213" lon="4.78413">
        <ele>190</ele>
        <time>2024-09-19T11:08:47Z</time>
      </trkpt>
      <trkpt lat="46.19211" lon="4.78411">
        <ele>190</ele>
        <time>2024-09-19T11:08:48Z</time>
      </trkpt>
      <trkpt lat="46.19207" lon="4.78407">
        <ele>190</ele>
        <time>2024-09-19T11:08:49Z</time>
      </trkpt>
      <trkpt lat="46.192" lon="4.784">
        <ele>190.2</ele>
        <time>2024-09-19T11:08:50Z</time>
      </trkpt>
      <trkpt lat="46.19198" lon="4.78398">
        <ele>190.2</ele>
        <time>2024-09-19T11:08:51Z</time>
      </trkpt>
      <trkpt lat="46.19194" lon="4.78394">
        <ele>190.2</ele>
        <time>2024-09-19T11:08:52Z</time>
      </trkpt>
      <trkpt lat="46.1919" lon="4.7839">
        <ele>190.2</ele>
        <time>2024-09-19T11:08:53Z</time>
      </trkpt>
      <trkpt lat="46.19186" lon="4.78385">
        <ele>190.2</ele>
        <time>2024-09-19T11:08:54Z</time>
      </trkpt>
      <trkpt lat="46.19182" lon="4.78381">
        <ele>190.2</ele>
        <time>2024-09-19T11:08:55Z</time>
      </trkpt>
      <trkpt lat="46.19177" lon="4.78377">
        <ele>190.2</ele>
        <time>2024-09-19T11:08:56Z</time>
      </trkpt>
      <trkpt lat="46.19171" lon="4.78371">
        <ele>190.2</ele>
        <time>2024-09-19T11:08:57Z</time>
      </trkpt>
      <trkpt lat="46.19169" lon="4.78369">
        <ele>190</ele>
        <time>2024-09-19T11:08:58Z</time>
      </trkpt>
      <trkpt lat="46.19162" lon="4.78362">
        <ele>190</ele>
        <time>2024-09-19T11:08:59Z</time>
      </trkpt>
      <trkpt lat="46.1916" lon="4.7836">
        <ele>190</ele>
        <time>2024-09-19T11:09:00Z</time>
      </trkpt>
      <trkpt lat="46.19156" lon="4.78356">
        <ele>190</ele>
        <time>2024-09-19T11:09:01Z</time>
      </trkpt>
      <trkpt lat="46.19151" lon="4.78352">
        <ele>190</ele>
        <time>2024-09-19T11:09:02Z</time>
      </trkpt>
      <trkpt lat="46.19145" lon="4.78346">
        <ele>190</ele>
        <time>2024-09-19T11:09:03Z</time>
      </trkpt>
      <trkpt lat="46.19143" lon="4.78343">
        <ele>190.2</ele>
        <time>2024-09-19T11:09:04Z</time>
      </trkpt>
      <trkpt lat="46.19139" lon="4.78339">
        <ele>190.2</ele>
        <time>2024-09-19T11:09:05Z</time>
      </trkpt>
      <trkpt lat="46.19135" lon="4.78335">
        <ele>190.2</ele>
        <time>2024-09-19T11:09:06Z</time>
      </trkpt>
      <trkpt lat="46.19131" lon="4.78332">
        <ele>190.2</ele>
        <time>2024-09-19T11:09:07Z</time>
      </trkpt>
      <trkpt lat="46.19125" lon="4.78326">
        <ele>190</ele>
        <time>2024-09-19T11:09:08Z</time>
      </trkpt>
      <trkpt lat="46.19123" lon="4.78324">
        <ele>190</ele>
        <time>2024-09-19T11:09:09Z</time>
      </trkpt>
      <trkpt lat="46.19116" lon="4.78317">
        <ele>190</ele>
        <time>2024-09-19T11:09:10Z</time>
      </trkpt>
      <trkpt lat="46.19114" lon="4.78315">
        <ele>190</ele>
        <time>2024-09-19T11:09:11Z</time>
      </trkpt>
      <trkpt lat="46.19108" lon="4.78309">
        <ele>190</ele>
        <time>2024-09-19T11:09:12Z</time>
      </trkpt>
      <trkpt lat="46.19106" lon="4.78307">
        <ele>190</ele>
        <time>2024-09-19T11:09:13Z</time>
      </trkpt>
      <trkpt lat="46.19102" lon="4.78303">
        <ele>190</ele>
        <time>2024-09-19T11:09:14Z</time>
      </trkpt>
      <trkpt lat="46.19097" lon="4.78299">
        <ele>190</ele>
        <time>2024-09-19T11:09:15Z</time>
      </trkpt>
      <trkpt lat="46.19093" lon="4.78294">
        <ele>190</ele>
        <time>2024-09-19T11:09:16Z</time>
      </trkpt>
      <trkpt lat="46.19089" lon="4.7829">
        <ele>190.4</ele>
        <time>2024-09-19T11:09:17Z</time>
      </trkpt>
      <trkpt lat="46.19084" lon="4.78286">
        <ele>190.4</ele>
        <time>2024-09-19T11:09:18Z</time>
      </trkpt>
      <trkpt lat="46.1908" lon="4.78282">
        <ele>190.4</ele>
        <time>2024-09-19T11:09:19Z</time>
      </trkpt>
      <trkpt lat="46.19076" lon="4.78277">
        <ele>190</ele>
        <time>2024-09-19T11:09:20Z</time>
      </trkpt>
      <trkpt lat="46.19069" lon="4.78271">
        <ele>190</ele>
        <time>2024-09-19T11:09:21Z</time>
      </trkpt>
      <trkpt lat="46.19067" lon="4.78269">
        <ele>190</ele>
        <time>2024-09-19T11:09:22Z</time>
      </trkpt>
      <trkpt lat="46.19063" lon="4.78264">
        <ele>190</ele>
        <time>2024-09-19T11:09:23Z</time>
      </trkpt>
      <trkpt lat="46.19056" lon="4.78258">
        <ele>190</ele>
        <time>2024-09-19T11:09:24Z</time>
      </trkpt>
      <trkpt lat="46.19054" lon="4.78256">
        <ele>190</ele>
        <time>2024-09-19T11:09:25Z</time>
      </trkpt>
      <trkpt lat="46.1905" lon="4.78252">
        <ele>190.4</ele>
        <time>2024-09-19T11:09:26Z</time>
      </trkpt>
      <trkpt lat="46.19045" lon="4.78247">
        <ele>190.4</ele>
        <time>2024-09-19T11:09:27Z</time>
      </trkpt>
      <trkpt lat="46.19041" lon="4.78243">
        <ele>190.4</ele>
        <time>2024-09-19T11:09:28Z</time>
      </trkpt>
      <trkpt lat="46.19037" lon="4.78238">
        <ele>190.4</ele>
        <time>2024-09-19T11:09:29Z</time>
      </trkpt>
      <trkpt lat="46.19032" lon="4.78234">
        <ele>189.8</ele>
        <time>2024-09-19T11:09:30Z</time>
      </trkpt>
      <trkpt lat="46.19026" lon="4.78227">
        <ele>189.8</ele>
        <time>2024-09-19T11:09:31Z</time>
      </trkpt>
      <trkpt lat="46.19024" lon="4.78225">
        <ele>189.8</ele>
        <time>2024-09-19T11:09:32Z</time>
      </trkpt>
      <trkpt lat="46.19019" lon="4.78221">
        <ele>189.8</ele>
        <time>2024-09-19T11:09:33Z</time>
      </trkpt>
      <trkpt lat="46.19015" lon="4.78216">
        <ele>190</ele>
        <time>2024-09-19T11:09:34Z</time>
      </trkpt>
      <trkpt lat="46.19011" lon="4.78212">
        <ele>189.8</ele>
        <time>2024-09-19T11:09:35Z</time>
      </trkpt>
      <trkpt lat="46.19006" lon="4.78208">
        <ele>189.8</ele>
        <time>2024-09-19T11:09:36Z</time>
      </trkpt>
      <trkpt lat="46.19002" lon="4.78203">
        <ele>189.8</ele>
        <time>2024-09-19T11:09:37Z</time>
      </trkpt>
      <trkpt lat="46.18998" lon="4.78199">
        <ele>189.8</ele>
        <time>2024-09-19T11:09:38Z</time>
      </trkpt>
      <trkpt lat="46.18994" lon="4.78196">
        <ele>189.8</ele>
        <time>2024-09-19T11:09:39Z</time>
      </trkpt>
      <trkpt lat="46.18987" lon="4.7819">
        <ele>190.2</ele>
        <time>2024-09-19T11:09:40Z</time>
      </trkpt>
      <trkpt lat="46.18985" lon="4.78188">
        <ele>190.2</ele>
        <time>2024-09-19T11:09:41Z</time>
      </trkpt>
      <trkpt lat="46.1898" lon="4.78184">
        <ele>190.2</ele>
        <time>2024-09-19T11:09:42Z</time>
      </trkpt>
      <trkpt lat="46.18976" lon="4.78181">
        <ele>190.2</ele>
        <time>2024-09-19T11:09:43Z</time>
      </trkpt>
      <trkpt lat="46.1897" lon="4.78177">
        <ele>190.2</ele>
        <time>2024-09-19T11:09:44Z</time>
      </trkpt>
      <trkpt lat="46.18967" lon="4.78175">
        <ele>190.4</ele>
        <time>2024-09-19T11:09:45Z</time>
      </trkpt>
      <trkpt lat="46.18963" lon="4.78172">
        <ele>190.4</ele>
        <time>2024-09-19T11:09:46Z</time>
      </trkpt>
      <trkpt lat="46.18959" lon="4.7817">
        <ele>190.4</ele>
        <time>2024-09-19T11:09:47Z</time>
      </trkpt>
      <trkpt lat="46.18952" lon="4.78166">
        <ele>190.4</ele>
        <time>2024-09-19T11:09:48Z</time>
      </trkpt>
      <trkpt lat="46.1895" lon="4.78165">
        <ele>190</ele>
        <time>2024-09-19T11:09:49Z</time>
      </trkpt>
      <trkpt lat="46.18946" lon="4.78163">
        <ele>190</ele>
        <time>2024-09-19T11:09:50Z</time>
      </trkpt>
      <trkpt lat="46.18942" lon="4.78161">
        <ele>190</ele>
        <time>2024-09-19T11:09:51Z</time>
      </trkpt>
      <trkpt lat="46.18937" lon="4.78159">
        <ele>190.6</ele>
        <time>2024-09-19T11:09:52Z</time>
      </trkpt>
      <trkpt lat="46.1893" lon="4.78156">
        <ele>190.6</ele>
        <time>2024-09-19T11:09:53Z</time>
      </trkpt>
      <trkpt lat="46.18928" lon="4.78155">
        <ele>190.6</ele>
        <time>2024-09-19T11:09:54Z</time>
      </trkpt>
      <trkpt lat="46.18921" lon="4.78153">
        <ele>190.6</ele>
        <time>2024-09-19T11:09:55Z</time>
      </trkpt>
      <trkpt lat="46.18918" lon="4.78152">
        <ele>190.4</ele>
        <time>2024-09-19T11:09:56Z</time>
      </trkpt>
      <trkpt lat="46.18913" lon="4.7815">
        <ele>190</ele>
        <time>2024-09-19T11:09:57Z</time>
      </trkpt>
      <trkpt lat="46.18909" lon="4.78149">
        <ele>190</ele>
        <time>2024-09-19T11:09:58Z</time>
      </trkpt>
      <trkpt lat="46.18904" lon="4.78147">
        <ele>190</ele>
        <time>2024-09-19T11:09:59Z</time>
      </trkpt>
      <trkpt lat="46.18899" lon="4.78146">
        <ele>190.8</ele>
        <time>2024-09-19T11:10:00Z</time>
      </trkpt>
      <trkpt lat="46.18894" lon="4.78144">
        <ele>190.8</ele>
        <time>2024-09-19T11:10:01Z</time>
      </trkpt>
      <trkpt lat="46.1889" lon="4.78143">
        <ele>190.6</ele>
        <time>2024-09-19T11:10:02Z</time>
      </trkpt>
      <trkpt lat="46.18885" lon="4.78142">
        <ele>190.6</ele>
        <time>2024-09-19T11:10:03Z</time>
      </trkpt>
      <trkpt lat="46.18879" lon="4.7814">
        <ele>190.6</ele>
        <time>2024-09-19T11:10:04Z</time>
      </trkpt>
      <trkpt lat="46.18876" lon="4.78139">
        <ele>190.6</ele>
        <time>2024-09-19T11:10:05Z</time>
      </trkpt>
      <trkpt lat="46.18872" lon="4.78137">
        <ele>190.6</ele>
        <time>2024-09-19T11:10:06Z</time>
      </trkpt>
      <trkpt lat="46.18865" lon="4.78135">
        <ele>189.8</ele>
        <time>2024-09-19T11:10:07Z</time>
      </trkpt>
      <trkpt lat="46.18863" lon="4.78134">
        <ele>189.8</ele>
        <time>2024-09-19T11:10:08Z</time>
      </trkpt>
      <trkpt lat="46.18858" lon="4.78133">
        <ele>189.8</ele>
        <time>2024-09-19T11:10:09Z</time>
      </trkpt>
      <trkpt lat="46.18853" lon="4.78131">
        <ele>190.4</ele>
        <time>2024-09-19T11:10:10Z</time>
      </trkpt>
      <trkpt lat="46.18849" lon="4.7813">
        <ele>190.4</ele>
        <time>2024-09-19T11:10:11Z</time>
      </trkpt>
      <trkpt lat="46.18845" lon="4.78127">
        <ele>190.4</ele>
        <time>2024-09-19T11:10:12Z</time>
      </trkpt>
      <trkpt lat="46.18841" lon="4.78124">
        <ele>190.4</ele>
        <time>2024-09-19T11:10:13Z</time>
      </trkpt>
      <trkpt lat="46.18838" lon="4.7812">
        <ele>190.4</ele>
        <time>2024-09-19T11:10:14Z</time>
      </trkpt>
      <trkpt lat="46.18835" lon="4.78117">
        <ele>190.4</ele>
        <time>2024-09-19T11:10:15Z</time>
      </trkpt>
      <trkpt lat="46.18829" lon="4.78113">
        <ele>190.4</ele>
        <time>2024-09-19T11:10:16Z</time>
      </trkpt>
      <trkpt lat="46.18828" lon="4.78113">
        <ele>190.4</ele>
        <time>2024-09-19T11:10:17Z</time>
      </trkpt>
      <trkpt lat="46.18824" lon="4.78113">
        <ele>190.4</ele>
        <time>2024-09-19T11:10:18Z</time>
      </trkpt>
      <trkpt lat="46.1882" lon="4.78113">
        <ele>190.4</ele>
        <time>2024-09-19T11:10:19Z</time>
      </trkpt>
      <trkpt lat="46.18817" lon="4.78115">
        <ele>190.6</ele>
        <time>2024-09-19T11:10:20Z</time>
      </trkpt>
      <trkpt lat="46.18813" lon="4.78117">
        <ele>190.6</ele>
        <time>2024-09-19T11:10:21Z</time>
      </trkpt>
      <trkpt lat="46.1881" lon="4.78118">
        <ele>190.6</ele>
        <time>2024-09-19T11:10:22Z</time>
      </trkpt>
      <trkpt lat="46.18805" lon="4.78121">
        <ele>190.6</ele>
        <time>2024-09-19T11:10:23Z</time>
      </trkpt>
      <trkpt lat="46.18803" lon="4.78122">
        <ele>190.6</ele>
        <time>2024-09-19T11:10:24Z</time>
      </trkpt>
      <trkpt lat="46.18799" lon="4.78124">
        <ele>190.4</ele>
        <time>2024-09-19T11:10:25Z</time>
      </trkpt>
      <trkpt lat="46.18796" lon="4.78127">
        <ele>190.4</ele>
        <time>2024-09-19T11:10:26Z</time>
      </trkpt>
      <trkpt lat="46.18791" lon="4.7813">
        <ele>190.4</ele>
        <time>2024-09-19T11:10:27Z</time>
      </trkpt>
      <trkpt lat="46.18789" lon="4.78132">
        <ele>190.4</ele>
        <time>2024-09-19T11:10:28Z</time>
      </trkpt>
      <trkpt lat="46.18783" lon="4.78135">
        <ele>190.6</ele>
        <time>2024-09-19T11:10:29Z</time>
      </trkpt>
      <trkpt lat="46.18781" lon="4.78136">
        <ele>190.6</ele>
        <time>2024-09-19T11:10:30Z</time>
      </trkpt>
      <trkpt lat="46.18778" lon="4.78138">
        <ele>190.6</ele>
        <time>2024-09-19T11:10:31Z</time>
      </trkpt>
      <trkpt lat="46.18774" lon="4.7814">
        <ele>190.6</ele>
        <time>2024-09-19T11:10:32Z</time>
      </trkpt>
      <trkpt lat="46.1877" lon="4.78142">
        <ele>190.6</ele>
        <time>2024-09-19T11:10:33Z</time>
      </trkpt>
      <trkpt lat="46.18764" lon="4.78145">
        <ele>190.4</ele>
        <time>2024-09-19T11:10:34Z</time>
      </trkpt>
      <trkpt lat="46.18762" lon="4.78146">
        <ele>190.4</ele>
        <time>2024-09-19T11:10:35Z</time>
      </trkpt>
      <trkpt lat="46.18755" lon="4.78148">
        <ele>190.4</ele>
        <time>2024-09-19T11:10:36Z</time>
      </trkpt>
      <trkpt lat="46.18753" lon="4.78149">
        <ele>190.4</ele>
        <time>2024-09-19T11:10:37Z</time>
      </trkpt>
      <trkpt lat="46.18746" lon="4.7815">
        <ele>190.6</ele>
        <time>2024-09-19T11:10:38Z</time>
      </trkpt>
      <trkpt lat="46.18744" lon="4.78151">
        <ele>190.6</ele>
        <time>2024-09-19T11:10:39Z</time>
      </trkpt>
      <trkpt lat="46.18736" lon="4.78151">
        <ele>190.6</ele>
        <time>2024-09-19T11:10:40Z</time>
      </trkpt>
      <trkpt lat="46.18734" lon="4.78152">
        <ele>190.4</ele>
        <time>2024-09-19T11:10:41Z</time>
      </trkpt>
      <trkpt lat="46.1873" lon="4.78152">
        <ele>190.2</ele>
        <time>2024-09-19T11:10:42Z</time>
      </trkpt>
      <trkpt lat="46.18725" lon="4.78152">
        <ele>190.2</ele>
        <time>2024-09-19T11:10:43Z</time>
      </trkpt>
      <trkpt lat="46.18721" lon="4.78152">
        <ele>190.2</ele>
        <time>2024-09-19T11:10:44Z</time>
      </trkpt>
      <trkpt lat="46.18717" lon="4.78152">
        <ele>190.2</ele>
        <time>2024-09-19T11:10:45Z</time>
      </trkpt>
      <trkpt lat="46.18713" lon="4.78153">
        <ele>190.4</ele>
        <time>2024-09-19T11:10:46Z</time>
      </trkpt>
      <trkpt lat="46.18707" lon="4.78154">
        <ele>190.8</ele>
        <time>2024-09-19T11:10:47Z</time>
      </trkpt>
      <trkpt lat="46.18705" lon="4.78154">
        <ele>190.8</ele>
        <time>2024-09-19T11:10:48Z</time>
      </trkpt>
      <trkpt lat="46.18701" lon="4.78155">
        <ele>190.8</ele>
        <time>2024-09-19T11:10:49Z</time>
      </trkpt>
      <trkpt lat="46.18694" lon="4.78156">
        <ele>190.8</ele>
        <time>2024-09-19T11:10:50Z</time>
      </trkpt>
      <trkpt lat="46.18692" lon="4.78157">
        <ele>190.6</ele>
        <time>2024-09-19T11:10:51Z</time>
      </trkpt>
      <trkpt lat="46.18688" lon="4.78158">
        <ele>190.4</ele>
        <time>2024-09-19T11:10:52Z</time>
      </trkpt>
      <trkpt lat="46.18684" lon="4.78158">
        <ele>190.4</ele>
        <time>2024-09-19T11:10:53Z</time>
      </trkpt>
      <trkpt lat="46.18679" lon="4.78159">
        <ele>190.4</ele>
        <time>2024-09-19T11:10:54Z</time>
      </trkpt>
      <trkpt lat="46.18675" lon="4.78159">
        <ele>190.4</ele>
        <time>2024-09-19T11:10:55Z</time>
      </trkpt>
      <trkpt lat="46.18671" lon="4.7816">
        <ele>190.4</ele>
        <time>2024-09-19T11:10:56Z</time>
      </trkpt>
      <trkpt lat="46.18665" lon="4.7816">
        <ele>190.6</ele>
        <time>2024-09-19T11:10:57Z</time>
      </trkpt>
      <trkpt lat="46.18662" lon="4.7816">
        <ele>190.6</ele>
        <time>2024-09-19T11:10:58Z</time>
      </trkpt>
      <trkpt lat="46.18658" lon="4.7816">
        <ele>190.6</ele>
        <time>2024-09-19T11:10:59Z</time>
      </trkpt>
      <trkpt lat="46.18651" lon="4.7816">
        <ele>190.6</ele>
        <time>2024-09-19T11:11:00Z</time>
      </trkpt>
      <trkpt lat="46.18649" lon="4.7816">
        <ele>190.6</ele>
        <time>2024-09-19T11:11:01Z</time>
      </trkpt>
      <trkpt lat="46.18644" lon="4.78161">
        <ele>190.6</ele>
        <time>2024-09-19T11:11:02Z</time>
      </trkpt>
      <trkpt lat="46.1864" lon="4.78162">
        <ele>190.6</ele>
        <time>2024-09-19T11:11:03Z</time>
      </trkpt>
      <trkpt lat="46.18636" lon="4.78162">
        <ele>190.6</ele>
        <time>2024-09-19T11:11:04Z</time>
      </trkpt>
      <trkpt lat="46.1863" lon="4.78163">
        <ele>190.4</ele>
        <time>2024-09-19T11:11:05Z</time>
      </trkpt>
      <trkpt lat="46.18628" lon="4.78164">
        <ele>190.4</ele>
        <time>2024-09-19T11:11:06Z</time>
      </trkpt>
      <trkpt lat="46.18623" lon="4.78165">
        <ele>190.4</ele>
        <time>2024-09-19T11:11:07Z</time>
      </trkpt>
      <trkpt lat="46.18619" lon="4.78167">
        <ele>190.2</ele>
        <time>2024-09-19T11:11:08Z</time>
      </trkpt>
      <trkpt lat="46.18611" lon="4.78169">
        <ele>190.2</ele>
        <time>2024-09-19T11:11:09Z</time>
      </trkpt>
      <trkpt lat="46.18609" lon="4.7817">
        <ele>190.2</ele>
        <time>2024-09-19T11:11:10Z</time>
      </trkpt>
      <trkpt lat="46.18601" lon="4.78172">
        <ele>190.2</ele>
        <time>2024-09-19T11:11:11Z</time>
      </trkpt>
      <trkpt lat="46.18598" lon="4.78172">
        <ele>190.2</ele>
        <time>2024-09-19T11:11:12Z</time>
      </trkpt>
      <trkpt lat="46.1859" lon="4.78173">
        <ele>190.2</ele>
        <time>2024-09-19T11:11:13Z</time>
      </trkpt>
      <trkpt lat="46.18588" lon="4.78174">
        <ele>190.2</ele>
        <time>2024-09-19T11:11:14Z</time>
      </trkpt>
      <trkpt lat="46.18582" lon="4.78174">
        <ele>190.2</ele>
        <time>2024-09-19T11:11:15Z</time>
      </trkpt>
      <trkpt lat="46.18577" lon="4.78175">
        <ele>190.2</ele>
        <time>2024-09-19T11:11:16Z</time>
      </trkpt>
      <trkpt lat="46.18572" lon="4.78175">
        <ele>190.2</ele>
        <time>2024-09-19T11:11:17Z</time>
      </trkpt>
      <trkpt lat="46.18564" lon="4.78176">
        <ele>190.2</ele>
        <time>2024-09-19T11:11:18Z</time>
      </trkpt>
      <trkpt lat="46.18561" lon="4.78176">
        <ele>190.2</ele>
        <time>2024-09-19T11:11:19Z</time>
      </trkpt>
      <trkpt lat="46.18554" lon="4.78176">
        <ele>190.2</ele>
        <time>2024-09-19T11:11:20Z</time>
      </trkpt>
      <trkpt lat="46.18551" lon="4.78177">
        <ele>190.2</ele>
        <time>2024-09-19T11:11:21Z</time>
      </trkpt>
      <trkpt lat="46.18544" lon="4.78177">
        <ele>190.4</ele>
        <time>2024-09-19T11:11:22Z</time>
      </trkpt>
      <trkpt lat="46.18541" lon="4.78178">
        <ele>190.4</ele>
        <time>2024-09-19T11:11:23Z</time>
      </trkpt>
      <trkpt lat="46.18534" lon="4.78179">
        <ele>190.4</ele>
        <time>2024-09-19T11:11:24Z</time>
      </trkpt>
      <trkpt lat="46.18532" lon="4.7818">
        <ele>190.4</ele>
        <time>2024-09-19T11:11:25Z</time>
      </trkpt>
      <trkpt lat="46.18527" lon="4.78181">
        <ele>190.4</ele>
        <time>2024-09-19T11:11:26Z</time>
      </trkpt>
      <trkpt lat="46.18522" lon="4.78182">
        <ele>190.4</ele>
        <time>2024-09-19T11:11:27Z</time>
      </trkpt>
      <trkpt lat="46.18518" lon="4.78183">
        <ele>190.4</ele>
        <time>2024-09-19T11:11:28Z</time>
      </trkpt>
      <trkpt lat="46.1851" lon="4.78184">
        <ele>190.4</ele>
        <time>2024-09-19T11:11:29Z</time>
      </trkpt>
      <trkpt lat="46.18508" lon="4.78184">
        <ele>190.4</ele>
        <time>2024-09-19T11:11:30Z</time>
      </trkpt>
      <trkpt lat="46.18504" lon="4.78185">
        <ele>190.4</ele>
        <time>2024-09-19T11:11:31Z</time>
      </trkpt>
      <trkpt lat="46.18496" lon="4.78187">
        <ele>190.4</ele>
        <time>2024-09-19T11:11:32Z</time>
      </trkpt>
      <trkpt lat="46.18494" lon="4.78187">
        <ele>190.4</ele>
        <time>2024-09-19T11:11:33Z</time>
      </trkpt>
      <trkpt lat="46.18489" lon="4.78188">
        <ele>190.4</ele>
        <time>2024-09-19T11:11:34Z</time>
      </trkpt>
      <trkpt lat="46.18485" lon="4.78188">
        <ele>190.4</ele>
        <time>2024-09-19T11:11:35Z</time>
      </trkpt>
      <trkpt lat="46.18481" lon="4.78189">
        <ele>190.4</ele>
        <time>2024-09-19T11:11:36Z</time>
      </trkpt>
      <trkpt lat="46.18476" lon="4.7819">
        <ele>190.4</ele>
        <time>2024-09-19T11:11:37Z</time>
      </trkpt>
      <trkpt lat="46.18471" lon="4.7819">
        <ele>190.4</ele>
        <time>2024-09-19T11:11:38Z</time>
      </trkpt>
      <trkpt lat="46.18467" lon="4.7819">
        <ele>190.4</ele>
        <time>2024-09-19T11:11:39Z</time>
      </trkpt>
      <trkpt lat="46.1846" lon="4.78191">
        <ele>190.8</ele>
        <time>2024-09-19T11:11:40Z</time>
      </trkpt>
      <trkpt lat="46.18458" lon="4.78191">
        <ele>190.8</ele>
        <time>2024-09-19T11:11:41Z</time>
      </trkpt>
      <trkpt lat="46.18453" lon="4.78192">
        <ele>190.8</ele>
        <time>2024-09-19T11:11:42Z</time>
      </trkpt>
      <trkpt lat="46.18446" lon="4.78191">
        <ele>190.8</ele>
        <time>2024-09-19T11:11:43Z</time>
      </trkpt>
      <trkpt lat="46.18443" lon="4.78191">
        <ele>190.8</ele>
        <time>2024-09-19T11:11:44Z</time>
      </trkpt>
      <trkpt lat="46.18438" lon="4.7819">
        <ele>190.8</ele>
        <time>2024-09-19T11:11:45Z</time>
      </trkpt>
      <trkpt lat="46.18433" lon="4.7819">
        <ele>190.8</ele>
        <time>2024-09-19T11:11:46Z</time>
      </trkpt>
      <trkpt lat="46.18428" lon="4.7819">
        <ele>190.6</ele>
        <time>2024-09-19T11:11:47Z</time>
      </trkpt>
      <trkpt lat="46.18423" lon="4.7819">
        <ele>190.6</ele>
        <time>2024-09-19T11:11:48Z</time>
      </trkpt>
      <trkpt lat="46.18417" lon="4.7819">
        <ele>190.6</ele>
        <time>2024-09-19T11:11:49Z</time>
      </trkpt>
      <trkpt lat="46.1841" lon="4.78191">
        <ele>190.4</ele>
        <time>2024-09-19T11:11:50Z</time>
      </trkpt>
      <trkpt lat="46.18407" lon="4.78192">
        <ele>190.4</ele>
        <time>2024-09-19T11:11:51Z</time>
      </trkpt>
      <trkpt lat="46.18399" lon="4.78193">
        <ele>190.4</ele>
        <time>2024-09-19T11:11:52Z</time>
      </trkpt>
      <trkpt lat="46.18397" lon="4.78193">
        <ele>190.4</ele>
        <time>2024-09-19T11:11:53Z</time>
      </trkpt>
      <trkpt lat="46.18389" lon="4.78194">
        <ele>190.4</ele>
        <time>2024-09-19T11:11:54Z</time>
      </trkpt>
      <trkpt lat="46.18387" lon="4.78195">
        <ele>190.8</ele>
        <time>2024-09-19T11:11:55Z</time>
      </trkpt>
      <trkpt lat="46.18379" lon="4.78196">
        <ele>190.8</ele>
        <time>2024-09-19T11:11:56Z</time>
      </trkpt>
      <trkpt lat="46.18377" lon="4.78196">
        <ele>190.8</ele>
        <time>2024-09-19T11:11:57Z</time>
      </trkpt>
      <trkpt lat="46.1837" lon="4.78196">
        <ele>190.8</ele>
        <time>2024-09-19T11:11:58Z</time>
      </trkpt>
      <trkpt lat="46.18368" lon="4.78196">
        <ele>190.8</ele>
        <time>2024-09-19T11:11:59Z</time>
      </trkpt>
      <trkpt lat="46.18363" lon="4.78196">
        <ele>191.2</ele>
        <time>2024-09-19T11:12:00Z</time>
      </trkpt>
      <trkpt lat="46.18358" lon="4.78196">
        <ele>191.2</ele>
        <time>2024-09-19T11:12:01Z</time>
      </trkpt>
      <trkpt lat="46.18351" lon="4.78197">
        <ele>191.2</ele>
        <time>2024-09-19T11:12:02Z</time>
      </trkpt>
      <trkpt lat="46.18348" lon="4.78197">
        <ele>191.2</ele>
        <time>2024-09-19T11:12:03Z</time>
      </trkpt>
      <trkpt lat="46.18341" lon="4.78197">
        <ele>191</ele>
        <time>2024-09-19T11:12:04Z</time>
      </trkpt>
      <trkpt lat="46.18339" lon="4.78197">
        <ele>191</ele>
        <time>2024-09-19T11:12:05Z</time>
      </trkpt>
      <trkpt lat="46.18332" lon="4.78197">
        <ele>191</ele>
        <time>2024-09-19T11:12:06Z</time>
      </trkpt>
      <trkpt lat="46.1833" lon="4.78197">
        <ele>191</ele>
        <time>2024-09-19T11:12:07Z</time>
      </trkpt>
      <trkpt lat="46.18325" lon="4.78197">
        <ele>191</ele>
        <time>2024-09-19T11:12:08Z</time>
      </trkpt>
      <trkpt lat="46.1832" lon="4.78197">
        <ele>191</ele>
        <time>2024-09-19T11:12:09Z</time>
      </trkpt>
      <trkpt lat="46.18315" lon="4.78196">
        <ele>191</ele>
        <time>2024-09-19T11:12:10Z</time>
      </trkpt>
      <trkpt lat="46.18311" lon="4.78196">
        <ele>191</ele>
        <time>2024-09-19T11:12:11Z</time>
      </trkpt>
      <trkpt lat="46.18306" lon="4.78197">
        <ele>191</ele>
        <time>2024-09-19T11:12:12Z</time>
      </trkpt>
      <trkpt lat="46.18298" lon="4.78197">
        <ele>191</ele>
        <time>2024-09-19T11:12:13Z</time>
      </trkpt>
      <trkpt lat="46.18296" lon="4.78197">
        <ele>191</ele>
        <time>2024-09-19T11:12:14Z</time>
      </trkpt>
      <trkpt lat="46.18291" lon="4.78197">
        <ele>191</ele>
        <time>2024-09-19T11:12:15Z</time>
      </trkpt>
      <trkpt lat="46.18284" lon="4.78197">
        <ele>191</ele>
        <time>2024-09-19T11:12:16Z</time>
      </trkpt>
      <trkpt lat="46.18282" lon="4.78197">
        <ele>191</ele>
        <time>2024-09-19T11:12:17Z</time>
      </trkpt>
      <trkpt lat="46.18277" lon="4.78198">
        <ele>190.8</ele>
        <time>2024-09-19T11:12:18Z</time>
      </trkpt>
      <trkpt lat="46.18273" lon="4.78198">
        <ele>190.8</ele>
        <time>2024-09-19T11:12:19Z</time>
      </trkpt>
      <trkpt lat="46.18266" lon="4.78199">
        <ele>190.8</ele>
        <time>2024-09-19T11:12:20Z</time>
      </trkpt>
      <trkpt lat="46.18263" lon="4.78199">
        <ele>190.8</ele>
        <time>2024-09-19T11:12:21Z</time>
      </trkpt>
      <trkpt lat="46.18259" lon="4.78198">
        <ele>190.8</ele>
        <time>2024-09-19T11:12:22Z</time>
      </trkpt>
      <trkpt lat="46.18252" lon="4.78198">
        <ele>191</ele>
        <time>2024-09-19T11:12:23Z</time>
      </trkpt>
      <trkpt lat="46.18249" lon="4.78198">
        <ele>191</ele>
        <time>2024-09-19T11:12:24Z</time>
      </trkpt>
      <trkpt lat="46.18245" lon="4.78198">
        <ele>191</ele>
        <time>2024-09-19T11:12:25Z</time>
      </trkpt>
      <trkpt lat="46.1824" lon="4.78199">
        <ele>191</ele>
        <time>2024-09-19T11:12:26Z</time>
      </trkpt>
      <trkpt lat="46.18235" lon="4.78199">
        <ele>191</ele>
        <time>2024-09-19T11:12:27Z</time>
      </trkpt>
      <trkpt lat="46.1823" lon="4.78199">
        <ele>191</ele>
        <time>2024-09-19T11:12:28Z</time>
      </trkpt>
      <trkpt lat="46.18226" lon="4.782">
        <ele>191</ele>
        <time>2024-09-19T11:12:29Z</time>
      </trkpt>
      <trkpt lat="46.18221" lon="4.782">
        <ele>191</ele>
        <time>2024-09-19T11:12:30Z</time>
      </trkpt>
      <trkpt lat="46.18216" lon="4.782">
        <ele>190.8</ele>
        <time>2024-09-19T11:12:31Z</time>
      </trkpt>
      <trkpt lat="46.18209" lon="4.78201">
        <ele>190.8</ele>
        <time>2024-09-19T11:12:32Z</time>
      </trkpt>
      <trkpt lat="46.18206" lon="4.78202">
        <ele>190.8</ele>
        <time>2024-09-19T11:12:33Z</time>
      </trkpt>
      <trkpt lat="46.18201" lon="4.78203">
        <ele>190.8</ele>
        <time>2024-09-19T11:12:34Z</time>
      </trkpt>
      <trkpt lat="46.18196" lon="4.78204">
        <ele>191</ele>
        <time>2024-09-19T11:12:35Z</time>
      </trkpt>
      <trkpt lat="46.18188" lon="4.78204">
        <ele>191</ele>
        <time>2024-09-19T11:12:36Z</time>
      </trkpt>
      <trkpt lat="46.18186" lon="4.78204">
        <ele>191</ele>
        <time>2024-09-19T11:12:37Z</time>
      </trkpt>
      <trkpt lat="46.18178" lon="4.78204">
        <ele>191</ele>
        <time>2024-09-19T11:12:38Z</time>
      </trkpt>
      <trkpt lat="46.18176" lon="4.78204">
        <ele>191</ele>
        <time>2024-09-19T11:12:39Z</time>
      </trkpt>
      <trkpt lat="46.18171" lon="4.78204">
        <ele>191.4</ele>
        <time>2024-09-19T11:12:40Z</time>
      </trkpt>
      <trkpt lat="46.18166" lon="4.78205">
        <ele>191.4</ele>
        <time>2024-09-19T11:12:41Z</time>
      </trkpt>
      <trkpt lat="46.18161" lon="4.78205">
        <ele>191.4</ele>
        <time>2024-09-19T11:12:42Z</time>
      </trkpt>
      <trkpt lat="46.18154" lon="4.78206">
        <ele>191.4</ele>
        <time>2024-09-19T11:12:43Z</time>
      </trkpt>
      <trkpt lat="46.18151" lon="4.78206">
        <ele>191</ele>
        <time>2024-09-19T11:12:44Z</time>
      </trkpt>
      <trkpt lat="46.18144" lon="4.78207">
        <ele>191.4</ele>
        <time>2024-09-19T11:12:45Z</time>
      </trkpt>
      <trkpt lat="46.18142" lon="4.78207">
        <ele>191.4</ele>
        <time>2024-09-19T11:12:46Z</time>
      </trkpt>
      <trkpt lat="46.18135" lon="4.78207">
        <ele>191.4</ele>
        <time>2024-09-19T11:12:47Z</time>
      </trkpt>
      <trkpt lat="46.18132" lon="4.78207">
        <ele>191.4</ele>
        <time>2024-09-19T11:12:48Z</time>
      </trkpt>
      <trkpt lat="46.18125" lon="4.78206">
        <ele>191</ele>
        <time>2024-09-19T11:12:49Z</time>
      </trkpt>
      <trkpt lat="46.18123" lon="4.78206">
        <ele>191</ele>
        <time>2024-09-19T11:12:50Z</time>
      </trkpt>
      <trkpt lat="46.18119" lon="4.78205">
        <ele>191</ele>
        <time>2024-09-19T11:12:51Z</time>
      </trkpt>
      <trkpt lat="46.18114" lon="4.78205">
        <ele>191</ele>
        <time>2024-09-19T11:12:52Z</time>
      </trkpt>
      <trkpt lat="46.18109" lon="4.78205">
        <ele>191.2</ele>
        <time>2024-09-19T11:12:53Z</time>
      </trkpt>
      <trkpt lat="46.18104" lon="4.78205">
        <ele>191.2</ele>
        <time>2024-09-19T11:12:54Z</time>
      </trkpt>
      <trkpt lat="46.18099" lon="4.78205">
        <ele>191.2</ele>
        <time>2024-09-19T11:12:55Z</time>
      </trkpt>
      <trkpt lat="46.18093" lon="4.78206">
        <ele>191.2</ele>
        <time>2024-09-19T11:12:56Z</time>
      </trkpt>
      <trkpt lat="46.1809" lon="4.78206">
        <ele>191.2</ele>
        <time>2024-09-19T11:12:57Z</time>
      </trkpt>
      <trkpt lat="46.18086" lon="4.78206">
        <ele>191.2</ele>
        <time>2024-09-19T11:12:58Z</time>
      </trkpt>
      <trkpt lat="46.18078" lon="4.78206">
        <ele>191</ele>
        <time>2024-09-19T11:12:59Z</time>
      </trkpt>
      <trkpt lat="46.18076" lon="4.78206">
        <ele>191</ele>
        <time>2024-09-19T11:13:00Z</time>
      </trkpt>
      <trkpt lat="46.18071" lon="4.78206">
        <ele>191</ele>
        <time>2024-09-19T11:13:01Z</time>
      </trkpt>
      <trkpt lat="46.18066" lon="4.78206">
        <ele>191</ele>
        <time>2024-09-19T11:13:02Z</time>
      </trkpt>
      <trkpt lat="46.18061" lon="4.78206">
        <ele>191.4</ele>
        <time>2024-09-19T11:13:03Z</time>
      </trkpt>
      <trkpt lat="46.18056" lon="4.78206">
        <ele>191.4</ele>
        <time>2024-09-19T11:13:04Z</time>
      </trkpt>
      <trkpt lat="46.18052" lon="4.78206">
        <ele>191.4</ele>
        <time>2024-09-19T11:13:05Z</time>
      </trkpt>
      <trkpt lat="46.18045" lon="4.78207">
        <ele>191.4</ele>
        <time>2024-09-19T11:13:06Z</time>
      </trkpt>
      <trkpt lat="46.18043" lon="4.78207">
        <ele>191</ele>
        <time>2024-09-19T11:13:07Z</time>
      </trkpt>
      <trkpt lat="46.18038" lon="4.78207">
        <ele>191.2</ele>
        <time>2024-09-19T11:13:08Z</time>
      </trkpt>
      <trkpt lat="46.18031" lon="4.78207">
        <ele>191.2</ele>
        <time>2024-09-19T11:13:09Z</time>
      </trkpt>
      <trkpt lat="46.18028" lon="4.78207">
        <ele>191.2</ele>
        <time>2024-09-19T11:13:10Z</time>
      </trkpt>
      <trkpt lat="46.18024" lon="4.78208">
        <ele>191.2</ele>
        <time>2024-09-19T11:13:11Z</time>
      </trkpt>
      <trkpt lat="46.18019" lon="4.78208">
        <ele>191</ele>
        <time>2024-09-19T11:13:12Z</time>
      </trkpt>
      <trkpt lat="46.18015" lon="4.78209">
        <ele>191</ele>
        <time>2024-09-19T11:13:13Z</time>
      </trkpt>
      <trkpt lat="46.1801" lon="4.78209">
        <ele>191</ele>
        <time>2024-09-19T11:13:14Z</time>
      </trkpt>
      <trkpt lat="46.18005" lon="4.7821">
        <ele>191.4</ele>
        <time>2024-09-19T11:13:15Z</time>
      </trkpt>
      <trkpt lat="46.18001" lon="4.7821">
        <ele>191.4</ele>
        <time>2024-09-19T11:13:16Z</time>
      </trkpt>
      <trkpt lat="46.17996" lon="4.7821">
        <ele>191.2</ele>
        <time>2024-09-19T11:13:17Z</time>
      </trkpt>
      <trkpt lat="46.17992" lon="4.7821">
        <ele>191.2</ele>
        <time>2024-09-19T11:13:18Z</time>
      </trkpt>
      <trkpt lat="46.17988" lon="4.7821">
        <ele>191.2</ele>
        <time>2024-09-19T11:13:19Z</time>
      </trkpt>
      <trkpt lat="46.17983" lon="4.7821">
        <ele>191.2</ele>
        <time>2024-09-19T11:13:20Z</time>
      </trkpt>
      <trkpt lat="46.17976" lon="4.78211">
        <ele>191.2</ele>
        <time>2024-09-19T11:13:21Z</time>
      </trkpt>
      <trkpt lat="46.17973" lon="4.78212">
        <ele>191.2</ele>
        <time>2024-09-19T11:13:22Z</time>
      </trkpt>
      <trkpt lat="46.17966" lon="4.78213">
        <ele>191.2</ele>
        <time>2024-09-19T11:13:23Z</time>
      </trkpt>
      <trkpt lat="46.17963" lon="4.78213">
        <ele>191.2</ele>
        <time>2024-09-19T11:13:24Z</time>
      </trkpt>
      <trkpt lat="46.17959" lon="4.78213">
        <ele>191.2</ele>
        <time>2024-09-19T11:13:25Z</time>
      </trkpt>
      <trkpt lat="46.17951" lon="4.78214">
        <ele>191.2</ele>
        <time>2024-09-19T11:13:26Z</time>
      </trkpt>
      <trkpt lat="46.17948" lon="4.78214">
        <ele>191.2</ele>
        <time>2024-09-19T11:13:27Z</time>
      </trkpt>
      <trkpt lat="46.17941" lon="4.78214">
        <ele>191.2</ele>
        <time>2024-09-19T11:13:28Z</time>
      </trkpt>
      <trkpt lat="46.17938" lon="4.78215">
        <ele>191.2</ele>
        <time>2024-09-19T11:13:29Z</time>
      </trkpt>
      <trkpt lat="46.1793" lon="4.78216">
        <ele>191.2</ele>
        <time>2024-09-19T11:13:30Z</time>
      </trkpt>
      <trkpt lat="46.17928" lon="4.78216">
        <ele>191.2</ele>
        <time>2024-09-19T11:13:31Z</time>
      </trkpt>
      <trkpt lat="46.1792" lon="4.78217">
        <ele>191.2</ele>
        <time>2024-09-19T11:13:32Z</time>
      </trkpt>
      <trkpt lat="46.17918" lon="4.78217">
        <ele>191.2</ele>
        <time>2024-09-19T11:13:33Z</time>
      </trkpt>
      <trkpt lat="46.17913" lon="4.78218">
        <ele>191</ele>
        <time>2024-09-19T11:13:34Z</time>
      </trkpt>
      <trkpt lat="46.17908" lon="4.78219">
        <ele>191</ele>
        <time>2024-09-19T11:13:35Z</time>
      </trkpt>
      <trkpt lat="46.17903" lon="4.78219">
        <ele>191</ele>
        <time>2024-09-19T11:13:36Z</time>
      </trkpt>
      <trkpt lat="46.17898" lon="4.7822">
        <ele>191</ele>
        <time>2024-09-19T11:13:37Z</time>
      </trkpt>
      <trkpt lat="46.17893" lon="4.7822">
        <ele>191</ele>
        <time>2024-09-19T11:13:38Z</time>
      </trkpt>
      <trkpt lat="46.17886" lon="4.78221">
        <ele>191.2</ele>
        <time>2024-09-19T11:13:39Z</time>
      </trkpt>
      <trkpt lat="46.17884" lon="4.78221">
        <ele>191.2</ele>
        <time>2024-09-19T11:13:40Z</time>
      </trkpt>
      <trkpt lat="46.17879" lon="4.78221">
        <ele>191.2</ele>
        <time>2024-09-19T11:13:41Z</time>
      </trkpt>
      <trkpt lat="46.17871" lon="4.78221">
        <ele>191.2</ele>
        <time>2024-09-19T11:13:42Z</time>
      </trkpt>
      <trkpt lat="46.17869" lon="4.78221">
        <ele>191</ele>
        <time>2024-09-19T11:13:43Z</time>
      </trkpt>
      <trkpt lat="46.17864" lon="4.78222">
        <ele>191</ele>
        <time>2024-09-19T11:13:44Z</time>
      </trkpt>
      <trkpt lat="46.17859" lon="4.78222">
        <ele>191</ele>
        <time>2024-09-19T11:13:45Z</time>
      </trkpt>
      <trkpt lat="46.17854" lon="4.78222">
        <ele>191</ele>
        <time>2024-09-19T11:13:46Z</time>
      </trkpt>
      <trkpt lat="46.17849" lon="4.78223">
        <ele>191</ele>
        <time>2024-09-19T11:13:47Z</time>
      </trkpt>
      <trkpt lat="46.17844" lon="4.78224">
        <ele>191</ele>
        <time>2024-09-19T11:13:48Z</time>
      </trkpt>
      <trkpt lat="46.17837" lon="4.78224">
        <ele>191</ele>
        <time>2024-09-19T11:13:49Z</time>
      </trkpt>
      <trkpt lat="46.17835" lon="4.78224">
        <ele>191</ele>
        <time>2024-09-19T11:13:50Z</time>
      </trkpt>
      <trkpt lat="46.1783" lon="4.78225">
        <ele>191</ele>
        <time>2024-09-19T11:13:51Z</time>
      </trkpt>
      <trkpt lat="46.17823" lon="4.78225">
        <ele>190.8</ele>
        <time>2024-09-19T11:13:52Z</time>
      </trkpt>
      <trkpt lat="46.1782" lon="4.78225">
        <ele>190.8</ele>
        <time>2024-09-19T11:13:53Z</time>
      </trkpt>
      <trkpt lat="46.17813" lon="4.78224">
        <ele>190.8</ele>
        <time>2024-09-19T11:13:54Z</time>
      </trkpt>
      <trkpt lat="46.17811" lon="4.78224">
        <ele>190.8</ele>
        <time>2024-09-19T11:13:55Z</time>
      </trkpt>
      <trkpt lat="46.17806" lon="4.78224">
        <ele>190.8</ele>
        <time>2024-09-19T11:13:56Z</time>
      </trkpt>
      <trkpt lat="46.17801" lon="4.78224">
        <ele>190.8</ele>
        <time>2024-09-19T11:13:57Z</time>
      </trkpt>
      <trkpt lat="46.17796" lon="4.78224">
        <ele>191</ele>
        <time>2024-09-19T11:13:58Z</time>
      </trkpt>
      <trkpt lat="46.17789" lon="4.78225">
        <ele>191</ele>
        <time>2024-09-19T11:13:59Z</time>
      </trkpt>
      <trkpt lat="46.17787" lon="4.78225">
        <ele>191</ele>
        <time>2024-09-19T11:14:00Z</time>
      </trkpt>
      <trkpt lat="46.17782" lon="4.78225">
        <ele>191</ele>
        <time>2024-09-19T11:14:01Z</time>
      </trkpt>
      <trkpt lat="46.17777" lon="4.78226">
        <ele>191.2</ele>
        <time>2024-09-19T11:14:02Z</time>
      </trkpt>
      <trkpt lat="46.17772" lon="4.78226">
        <ele>191.2</ele>
        <time>2024-09-19T11:14:03Z</time>
      </trkpt>
      <trkpt lat="46.17767" lon="4.78227">
        <ele>191.2</ele>
        <time>2024-09-19T11:14:04Z</time>
      </trkpt>
      <trkpt lat="46.1776" lon="4.78227">
        <ele>191.2</ele>
        <time>2024-09-19T11:14:05Z</time>
      </trkpt>
      <trkpt lat="46.17758" lon="4.78228">
        <ele>191.2</ele>
        <time>2024-09-19T11:14:06Z</time>
      </trkpt>
      <trkpt lat="46.17751" lon="4.78228">
        <ele>191.2</ele>
        <time>2024-09-19T11:14:07Z</time>
      </trkpt>
      <trkpt lat="46.17749" lon="4.78228">
        <ele>191.2</ele>
        <time>2024-09-19T11:14:08Z</time>
      </trkpt>
      <trkpt lat="46.17744" lon="4.78228">
        <ele>191.2</ele>
        <time>2024-09-19T11:14:09Z</time>
      </trkpt>
      <trkpt lat="46.17737" lon="4.78229">
        <ele>191.2</ele>
        <time>2024-09-19T11:14:10Z</time>
      </trkpt>
      <trkpt lat="46.17734" lon="4.78229">
        <ele>191.2</ele>
        <time>2024-09-19T11:14:11Z</time>
      </trkpt>
      <trkpt lat="46.17728" lon="4.78229">
        <ele>191.2</ele>
        <time>2024-09-19T11:14:12Z</time>
      </trkpt>
      <trkpt lat="46.17726" lon="4.7823">
        <ele>191.2</ele>
        <time>2024-09-19T11:14:13Z</time>
      </trkpt>
      <trkpt lat="46.17719" lon="4.7823">
        <ele>191.2</ele>
        <time>2024-09-19T11:14:14Z</time>
      </trkpt>
      <trkpt lat="46.17716" lon="4.7823">
        <ele>191.2</ele>
        <time>2024-09-19T11:14:15Z</time>
      </trkpt>
      <trkpt lat="46.1771" lon="4.78231">
        <ele>191.2</ele>
        <time>2024-09-19T11:14:16Z</time>
      </trkpt>
      <trkpt lat="46.17707" lon="4.78232">
        <ele>191.2</ele>
        <time>2024-09-19T11:14:17Z</time>
      </trkpt>
      <trkpt lat="46.17703" lon="4.78232">
        <ele>191</ele>
        <time>2024-09-19T11:14:18Z</time>
      </trkpt>
      <trkpt lat="46.17698" lon="4.78233">
        <ele>191.2</ele>
        <time>2024-09-19T11:14:19Z</time>
      </trkpt>
      <trkpt lat="46.17694" lon="4.78234">
        <ele>191.2</ele>
        <time>2024-09-19T11:14:20Z</time>
      </trkpt>
      <trkpt lat="46.17689" lon="4.78235">
        <ele>191.2</ele>
        <time>2024-09-19T11:14:21Z</time>
      </trkpt>
      <trkpt lat="46.17684" lon="4.78236">
        <ele>191.2</ele>
        <time>2024-09-19T11:14:22Z</time>
      </trkpt>
      <trkpt lat="46.17679" lon="4.78237">
        <ele>191.2</ele>
        <time>2024-09-19T11:14:23Z</time>
      </trkpt>
      <trkpt lat="46.17674" lon="4.78238">
        <ele>191.2</ele>
        <time>2024-09-19T11:14:24Z</time>
      </trkpt>
      <trkpt lat="46.17667" lon="4.78239">
        <ele>191.8</ele>
        <time>2024-09-19T11:14:25Z</time>
      </trkpt>
      <trkpt lat="46.17665" lon="4.78239">
        <ele>191.8</ele>
        <time>2024-09-19T11:14:26Z</time>
      </trkpt>
      <trkpt lat="46.17661" lon="4.78241">
        <ele>191.8</ele>
        <time>2024-09-19T11:14:27Z</time>
      </trkpt>
      <trkpt lat="46.17656" lon="4.78242">
        <ele>191.6</ele>
        <time>2024-09-19T11:14:28Z</time>
      </trkpt>
      <trkpt lat="46.17652" lon="4.78243">
        <ele>191.4</ele>
        <time>2024-09-19T11:14:29Z</time>
      </trkpt>
      <trkpt lat="46.17647" lon="4.78244">
        <ele>191.4</ele>
        <time>2024-09-19T11:14:30Z</time>
      </trkpt>
      <trkpt lat="46.17642" lon="4.78245">
        <ele>191.4</ele>
        <time>2024-09-19T11:14:31Z</time>
      </trkpt>
      <trkpt lat="46.17638" lon="4.78246">
        <ele>191.4</ele>
        <time>2024-09-19T11:14:32Z</time>
      </trkpt>
      <trkpt lat="46.17633" lon="4.78247">
        <ele>191</ele>
        <time>2024-09-19T11:14:33Z</time>
      </trkpt>
      <trkpt lat="46.17626" lon="4.78247">
        <ele>191</ele>
        <time>2024-09-19T11:14:34Z</time>
      </trkpt>
      <trkpt lat="46.17624" lon="4.78248">
        <ele>191</ele>
        <time>2024-09-19T11:14:35Z</time>
      </trkpt>
      <trkpt lat="46.17619" lon="4.78248">
        <ele>191</ele>
        <time>2024-09-19T11:14:36Z</time>
      </trkpt>
      <trkpt lat="46.17614" lon="4.78249">
        <ele>191.2</ele>
        <time>2024-09-19T11:14:37Z</time>
      </trkpt>
      <trkpt lat="46.17609" lon="4.78249">
        <ele>191.4</ele>
        <time>2024-09-19T11:14:38Z</time>
      </trkpt>
      <trkpt lat="46.17604" lon="4.78249">
        <ele>191.4</ele>
        <time>2024-09-19T11:14:39Z</time>
      </trkpt>
      <trkpt lat="46.17599" lon="4.7825">
        <ele>191.4</ele>
        <time>2024-09-19T11:14:40Z</time>
      </trkpt>
      <trkpt lat="46.17591" lon="4.78251">
        <ele>191.2</ele>
        <time>2024-09-19T11:14:41Z</time>
      </trkpt>
      <trkpt lat="46.17588" lon="4.78252">
        <ele>191.2</ele>
        <time>2024-09-19T11:14:42Z</time>
      </trkpt>
      <trkpt lat="46.17583" lon="4.78253">
        <ele>191.2</ele>
        <time>2024-09-19T11:14:43Z</time>
      </trkpt>
      <trkpt lat="46.17578" lon="4.78254">
        <ele>191.2</ele>
        <time>2024-09-19T11:14:44Z</time>
      </trkpt>
      <trkpt lat="46.1757" lon="4.78255">
        <ele>191.2</ele>
        <time>2024-09-19T11:14:45Z</time>
      </trkpt>
      <trkpt lat="46.17568" lon="4.78256">
        <ele>191.2</ele>
        <time>2024-09-19T11:14:46Z</time>
      </trkpt>
      <trkpt lat="46.17563" lon="4.78257">
        <ele>191.2</ele>
        <time>2024-09-19T11:14:47Z</time>
      </trkpt>
      <trkpt lat="46.17558" lon="4.78258">
        <ele>191.2</ele>
        <time>2024-09-19T11:14:48Z</time>
      </trkpt>
      <trkpt lat="46.17553" lon="4.78259">
        <ele>191.2</ele>
        <time>2024-09-19T11:14:49Z</time>
      </trkpt>
      <trkpt lat="46.17549" lon="4.7826">
        <ele>191.2</ele>
        <time>2024-09-19T11:14:50Z</time>
      </trkpt>
      <trkpt lat="46.17542" lon="4.78262">
        <ele>191.2</ele>
        <time>2024-09-19T11:14:51Z</time>
      </trkpt>
      <trkpt lat="46.1754" lon="4.78263">
        <ele>191.2</ele>
        <time>2024-09-19T11:14:52Z</time>
      </trkpt>
      <trkpt lat="46.17535" lon="4.78264">
        <ele>191.2</ele>
        <time>2024-09-19T11:14:53Z</time>
      </trkpt>
      <trkpt lat="46.17528" lon="4.78266">
        <ele>191.2</ele>
        <time>2024-09-19T11:14:54Z</time>
      </trkpt>
      <trkpt lat="46.17525" lon="4.78267">
        <ele>191.2</ele>
        <time>2024-09-19T11:14:55Z</time>
      </trkpt>
      <trkpt lat="46.17518" lon="4.78268">
        <ele>191.4</ele>
        <time>2024-09-19T11:14:56Z</time>
      </trkpt>
      <trkpt lat="46.17516" lon="4.78269">
        <ele>191.4</ele>
        <time>2024-09-19T11:14:57Z</time>
      </trkpt>
      <trkpt lat="46.17509" lon="4.7827">
        <ele>191.4</ele>
        <time>2024-09-19T11:14:58Z</time>
      </trkpt>
      <trkpt lat="46.17507" lon="4.78271">
        <ele>191.4</ele>
        <time>2024-09-19T11:14:59Z</time>
      </trkpt>
      <trkpt lat="46.17502" lon="4.78271">
        <ele>191.4</ele>
        <time>2024-09-19T11:15:00Z</time>
      </trkpt>
      <trkpt lat="46.17498" lon="4.78272">
        <ele>191.4</ele>
        <time>2024-09-19T11:15:01Z</time>
      </trkpt>
      <trkpt lat="46.17493" lon="4.78273">
        <ele>191.4</ele>
        <time>2024-09-19T11:15:02Z</time>
      </trkpt>
      <trkpt lat="46.17488" lon="4.78274">
        <ele>191</ele>
        <time>2024-09-19T11:15:03Z</time>
      </trkpt>
      <trkpt lat="46.17484" lon="4.78275">
        <ele>191.2</ele>
        <time>2024-09-19T11:15:04Z</time>
      </trkpt>
      <trkpt lat="46.17476" lon="4.78277">
        <ele>191.2</ele>
        <time>2024-09-19T11:15:05Z</time>
      </trkpt>
      <trkpt lat="46.17474" lon="4.78278">
        <ele>191.2</ele>
        <time>2024-09-19T11:15:06Z</time>
      </trkpt>
      <trkpt lat="46.17469" lon="4.78279">
        <ele>191.2</ele>
        <time>2024-09-19T11:15:07Z</time>
      </trkpt>
      <trkpt lat="46.17462" lon="4.78281">
        <ele>191.2</ele>
        <time>2024-09-19T11:15:08Z</time>
      </trkpt>
      <trkpt lat="46.17459" lon="4.78281">
        <ele>191.2</ele>
        <time>2024-09-19T11:15:09Z</time>
      </trkpt>
      <trkpt lat="46.17455" lon="4.78282">
        <ele>191.2</ele>
        <time>2024-09-19T11:15:10Z</time>
      </trkpt>
      <trkpt lat="46.1745" lon="4.78283">
        <ele>191.2</ele>
        <time>2024-09-19T11:15:11Z</time>
      </trkpt>
      <trkpt lat="46.17446" lon="4.78284">
        <ele>191.2</ele>
        <time>2024-09-19T11:15:12Z</time>
      </trkpt>
      <trkpt lat="46.17441" lon="4.78286">
        <ele>191.2</ele>
        <time>2024-09-19T11:15:13Z</time>
      </trkpt>
      <trkpt lat="46.17437" lon="4.78287">
        <ele>191.4</ele>
        <time>2024-09-19T11:15:14Z</time>
      </trkpt>
      <trkpt lat="46.1743" lon="4.78288">
        <ele>191.4</ele>
        <time>2024-09-19T11:15:15Z</time>
      </trkpt>
      <trkpt lat="46.17428" lon="4.78289">
        <ele>191.4</ele>
        <time>2024-09-19T11:15:16Z</time>
      </trkpt>
      <trkpt lat="46.17424" lon="4.7829">
        <ele>191.4</ele>
        <time>2024-09-19T11:15:17Z</time>
      </trkpt>
      <trkpt lat="46.17417" lon="4.78291">
        <ele>191.2</ele>
        <time>2024-09-19T11:15:18Z</time>
      </trkpt>
      <trkpt lat="46.17415" lon="4.78291">
        <ele>191.2</ele>
        <time>2024-09-19T11:15:19Z</time>
      </trkpt>
      <trkpt lat="46.1741" lon="4.78292">
        <ele>191.2</ele>
        <time>2024-09-19T11:15:20Z</time>
      </trkpt>
      <trkpt lat="46.17406" lon="4.78293">
        <ele>191.2</ele>
        <time>2024-09-19T11:15:21Z</time>
      </trkpt>
      <trkpt lat="46.17401" lon="4.78294">
        <ele>191.2</ele>
        <time>2024-09-19T11:15:22Z</time>
      </trkpt>
      <trkpt lat="46.17397" lon="4.78295">
        <ele>191.4</ele>
        <time>2024-09-19T11:15:23Z</time>
      </trkpt>
      <trkpt lat="46.17392" lon="4.78296">
        <ele>191.4</ele>
        <time>2024-09-19T11:15:24Z</time>
      </trkpt>
      <trkpt lat="46.17385" lon="4.78298">
        <ele>191.4</ele>
        <time>2024-09-19T11:15:25Z</time>
      </trkpt>
      <trkpt lat="46.17383" lon="4.78299">
        <ele>191.6</ele>
        <time>2024-09-19T11:15:26Z</time>
      </trkpt>
      <trkpt lat="46.17376" lon="4.78301">
        <ele>191.6</ele>
        <time>2024-09-19T11:15:27Z</time>
      </trkpt>
      <trkpt lat="46.17374" lon="4.78302">
        <ele>191.2</ele>
        <time>2024-09-19T11:15:28Z</time>
      </trkpt>
      <trkpt lat="46.17367" lon="4.78304">
        <ele>191.2</ele>
        <time>2024-09-19T11:15:29Z</time>
      </trkpt>
      <trkpt lat="46.17364" lon="4.78304">
        <ele>191.2</ele>
        <time>2024-09-19T11:15:30Z</time>
      </trkpt>
      <trkpt lat="46.17358" lon="4.78307">
        <ele>191.6</ele>
        <time>2024-09-19T11:15:31Z</time>
      </trkpt>
      <trkpt lat="46.17355" lon="4.78307">
        <ele>191.4</ele>
        <time>2024-09-19T11:15:32Z</time>
      </trkpt>
      <trkpt lat="46.17351" lon="4.78309">
        <ele>191.4</ele>
        <time>2024-09-19T11:15:33Z</time>
      </trkpt>
      <trkpt lat="46.17346" lon="4.78311">
        <ele>191.4</ele>
        <time>2024-09-19T11:15:34Z</time>
      </trkpt>
      <trkpt lat="46.17342" lon="4.78313">
        <ele>191.4</ele>
        <time>2024-09-19T11:15:35Z</time>
      </trkpt>
      <trkpt lat="46.17335" lon="4.78315">
        <ele>191.6</ele>
        <time>2024-09-19T11:15:36Z</time>
      </trkpt>
      <trkpt lat="46.17333" lon="4.78316">
        <ele>191.6</ele>
        <time>2024-09-19T11:15:37Z</time>
      </trkpt>
      <trkpt lat="46.17326" lon="4.78319">
        <ele>191.6</ele>
        <time>2024-09-19T11:15:38Z</time>
      </trkpt>
      <trkpt lat="46.17324" lon="4.7832">
        <ele>192</ele>
        <time>2024-09-19T11:15:39Z</time>
      </trkpt>
      <trkpt lat="46.17317" lon="4.78323">
        <ele>191.6</ele>
        <time>2024-09-19T11:15:40Z</time>
      </trkpt>
      <trkpt lat="46.17315" lon="4.78324">
        <ele>191.6</ele>
        <time>2024-09-19T11:15:41Z</time>
      </trkpt>
      <trkpt lat="46.17308" lon="4.78327">
        <ele>191.6</ele>
        <time>2024-09-19T11:15:42Z</time>
      </trkpt>
      <trkpt lat="46.17306" lon="4.78328">
        <ele>191.6</ele>
        <time>2024-09-19T11:15:43Z</time>
      </trkpt>
      <trkpt lat="46.17301" lon="4.7833">
        <ele>191.6</ele>
        <time>2024-09-19T11:15:44Z</time>
      </trkpt>
      <trkpt lat="46.17296" lon="4.78333">
        <ele>191.6</ele>
        <time>2024-09-19T11:15:45Z</time>
      </trkpt>
      <trkpt lat="46.17292" lon="4.78336">
        <ele>191.6</ele>
        <time>2024-09-19T11:15:46Z</time>
      </trkpt>
      <trkpt lat="46.17285" lon="4.7834">
        <ele>191.6</ele>
        <time>2024-09-19T11:15:47Z</time>
      </trkpt>
      <trkpt lat="46.17283" lon="4.78341">
        <ele>191.6</ele>
        <time>2024-09-19T11:15:48Z</time>
      </trkpt>
      <trkpt lat="46.17278" lon="4.78344">
        <ele>191.6</ele>
        <time>2024-09-19T11:15:49Z</time>
      </trkpt>
      <trkpt lat="46.17272" lon="4.78348">
        <ele>191.8</ele>
        <time>2024-09-19T11:15:50Z</time>
      </trkpt>
      <trkpt lat="46.17269" lon="4.7835">
        <ele>191.8</ele>
        <time>2024-09-19T11:15:51Z</time>
      </trkpt>
      <trkpt lat="46.17265" lon="4.78352">
        <ele>191.8</ele>
        <time>2024-09-19T11:15:52Z</time>
      </trkpt>
      <trkpt lat="46.17261" lon="4.78354">
        <ele>191.8</ele>
        <time>2024-09-19T11:15:53Z</time>
      </trkpt>
      <trkpt lat="46.17257" lon="4.78357">
        <ele>191.8</ele>
        <time>2024-09-19T11:15:54Z</time>
      </trkpt>
      <trkpt lat="46.17253" lon="4.78359">
        <ele>191.4</ele>
        <time>2024-09-19T11:15:55Z</time>
      </trkpt>
      <trkpt lat="46.17248" lon="4.78361">
        <ele>191.4</ele>
        <time>2024-09-19T11:15:56Z</time>
      </trkpt>
      <trkpt lat="46.17243" lon="4.78363">
        <ele>191.4</ele>
        <time>2024-09-19T11:15:57Z</time>
      </trkpt>
      <trkpt lat="46.17239" lon="4.78366">
        <ele>191.6</ele>
        <time>2024-09-19T11:15:58Z</time>
      </trkpt>
      <trkpt lat="46.17232" lon="4.78369">
        <ele>191.4</ele>
        <time>2024-09-19T11:15:59Z</time>
      </trkpt>
      <trkpt lat="46.1723" lon="4.7837">
        <ele>191.4</ele>
        <time>2024-09-19T11:16:00Z</time>
      </trkpt>
      <trkpt lat="46.17226" lon="4.78372">
        <ele>191.4</ele>
        <time>2024-09-19T11:16:01Z</time>
      </trkpt>
      <trkpt lat="46.17221" lon="4.78374">
        <ele>191.4</ele>
        <time>2024-09-19T11:16:02Z</time>
      </trkpt>
      <trkpt lat="46.17214" lon="4.78377">
        <ele>191.6</ele>
        <time>2024-09-19T11:16:03Z</time>
      </trkpt>
      <trkpt lat="46.17212" lon="4.78378">
        <ele>191.6</ele>
        <time>2024-09-19T11:16:04Z</time>
      </trkpt>
      <trkpt lat="46.17208" lon="4.78379">
        <ele>191.6</ele>
        <time>2024-09-19T11:16:05Z</time>
      </trkpt>
      <trkpt lat="46.17204" lon="4.78382">
        <ele>191.6</ele>
        <time>2024-09-19T11:16:06Z</time>
      </trkpt>
      <trkpt lat="46.17199" lon="4.78384">
        <ele>191.6</ele>
        <time>2024-09-19T11:16:07Z</time>
      </trkpt>
      <trkpt lat="46.17192" lon="4.78388">
        <ele>191.6</ele>
        <time>2024-09-19T11:16:08Z</time>
      </trkpt>
      <trkpt lat="46.1719" lon="4.7839">
        <ele>191.6</ele>
        <time>2024-09-19T11:16:09Z</time>
      </trkpt>
      <trkpt lat="46.17186" lon="4.78393">
        <ele>191.6</ele>
        <time>2024-09-19T11:16:10Z</time>
      </trkpt>
      <trkpt lat="46.17181" lon="4.78395">
        <ele>191.6</ele>
        <time>2024-09-19T11:16:11Z</time>
      </trkpt>
      <trkpt lat="46.17177" lon="4.78397">
        <ele>191.4</ele>
        <time>2024-09-19T11:16:12Z</time>
      </trkpt>
      <trkpt lat="46.17173" lon="4.78399">
        <ele>191.4</ele>
        <time>2024-09-19T11:16:13Z</time>
      </trkpt>
      <trkpt lat="46.17169" lon="4.78401">
        <ele>191.4</ele>
        <time>2024-09-19T11:16:14Z</time>
      </trkpt>
      <trkpt lat="46.17165" lon="4.78403">
        <ele>191.4</ele>
        <time>2024-09-19T11:16:15Z</time>
      </trkpt>
      <trkpt lat="46.17161" lon="4.78406">
        <ele>191.4</ele>
        <time>2024-09-19T11:16:16Z</time>
      </trkpt>
      <trkpt lat="46.17158" lon="4.78407">
        <ele>191.4</ele>
        <time>2024-09-19T11:16:17Z</time>
      </trkpt>
      <trkpt lat="46.17155" lon="4.7841">
        <ele>191.4</ele>
        <time>2024-09-19T11:16:18Z</time>
      </trkpt>
      <trkpt lat="46.17152" lon="4.78412">
        <ele>191.4</ele>
        <time>2024-09-19T11:16:19Z</time>
      </trkpt>
      <trkpt lat="46.17148" lon="4.78414">
        <ele>191.4</ele>
        <time>2024-09-19T11:16:20Z</time>
      </trkpt>
      <trkpt lat="46.17141" lon="4.78418">
        <ele>191.4</ele>
        <time>2024-09-19T11:16:21Z</time>
      </trkpt>
      <trkpt lat="46.17139" lon="4.7842">
        <ele>191.4</ele>
        <time>2024-09-19T11:16:22Z</time>
      </trkpt>
      <trkpt lat="46.17134" lon="4.78422">
        <ele>191.4</ele>
        <time>2024-09-19T11:16:23Z</time>
      </trkpt>
      <trkpt lat="46.17129" lon="4.78425">
        <ele>191.4</ele>
        <time>2024-09-19T11:16:24Z</time>
      </trkpt>
      <trkpt lat="46.17125" lon="4.78428">
        <ele>191.8</ele>
        <time>2024-09-19T11:16:25Z</time>
      </trkpt>
      <trkpt lat="46.1712" lon="4.78431">
        <ele>191.8</ele>
        <time>2024-09-19T11:16:26Z</time>
      </trkpt>
      <trkpt lat="46.17115" lon="4.78435">
        <ele>191.8</ele>
        <time>2024-09-19T11:16:27Z</time>
      </trkpt>
      <trkpt lat="46.17111" lon="4.78438">
        <ele>191.4</ele>
        <time>2024-09-19T11:16:28Z</time>
      </trkpt>
      <trkpt lat="46.17106" lon="4.7844">
        <ele>191.8</ele>
        <time>2024-09-19T11:16:29Z</time>
      </trkpt>
      <trkpt lat="46.17102" lon="4.78443">
        <ele>191.8</ele>
        <time>2024-09-19T11:16:30Z</time>
      </trkpt>
      <trkpt lat="46.17094" lon="4.78448">
        <ele>191.8</ele>
        <time>2024-09-19T11:16:31Z</time>
      </trkpt>
      <trkpt lat="46.17092" lon="4.78449">
        <ele>191.8</ele>
        <time>2024-09-19T11:16:32Z</time>
      </trkpt>
      <trkpt lat="46.17087" lon="4.78452">
        <ele>191.6</ele>
        <time>2024-09-19T11:16:33Z</time>
      </trkpt>
      <trkpt lat="46.1708" lon="4.78456">
        <ele>191.6</ele>
        <time>2024-09-19T11:16:34Z</time>
      </trkpt>
      <trkpt lat="46.17078" lon="4.78458">
        <ele>191.2</ele>
        <time>2024-09-19T11:16:35Z</time>
      </trkpt>
      <trkpt lat="46.17073" lon="4.78461">
        <ele>191.2</ele>
        <time>2024-09-19T11:16:36Z</time>
      </trkpt>
      <trkpt lat="46.17068" lon="4.78464">
        <ele>191.2</ele>
        <time>2024-09-19T11:16:37Z</time>
      </trkpt>
      <trkpt lat="46.17063" lon="4.78467">
        <ele>191.4</ele>
        <time>2024-09-19T11:16:38Z</time>
      </trkpt>
      <trkpt lat="46.17059" lon="4.7847">
        <ele>191</ele>
        <time>2024-09-19T11:16:39Z</time>
      </trkpt>
      <trkpt lat="46.17054" lon="4.78473">
        <ele>191</ele>
        <time>2024-09-19T11:16:40Z</time>
      </trkpt>
      <trkpt lat="46.17047" lon="4.78478">
        <ele>191</ele>
        <time>2024-09-19T11:16:41Z</time>
      </trkpt>
      <trkpt lat="46.17045" lon="4.78479">
        <ele>191.2</ele>
        <time>2024-09-19T11:16:42Z</time>
      </trkpt>
      <trkpt lat="46.17038" lon="4.78483">
        <ele>191.2</ele>
        <time>2024-09-19T11:16:43Z</time>
      </trkpt>
      <trkpt lat="46.17036" lon="4.78485">
        <ele>191.2</ele>
        <time>2024-09-19T11:16:44Z</time>
      </trkpt>
      <trkpt lat="46.17032" lon="4.78487">
        <ele>191.2</ele>
        <time>2024-09-19T11:16:45Z</time>
      </trkpt>
      <trkpt lat="46.17027" lon="4.7849">
        <ele>191.2</ele>
        <time>2024-09-19T11:16:46Z</time>
      </trkpt>
      <trkpt lat="46.17022" lon="4.78492">
        <ele>191.2</ele>
        <time>2024-09-19T11:16:47Z</time>
      </trkpt>
      <trkpt lat="46.17018" lon="4.78494">
        <ele>191.2</ele>
        <time>2024-09-19T11:16:48Z</time>
      </trkpt>
      <trkpt lat="46.17013" lon="4.78496">
        <ele>191.2</ele>
        <time>2024-09-19T11:16:49Z</time>
      </trkpt>
      <trkpt lat="46.17006" lon="4.785">
        <ele>191.2</ele>
        <time>2024-09-19T11:16:50Z</time>
      </trkpt>
      <trkpt lat="46.17003" lon="4.78501">
        <ele>191.2</ele>
        <time>2024-09-19T11:16:51Z</time>
      </trkpt>
      <trkpt lat="46.16999" lon="4.78503">
        <ele>191.2</ele>
        <time>2024-09-19T11:16:52Z</time>
      </trkpt>
      <trkpt lat="46.16995" lon="4.78504">
        <ele>191.2</ele>
        <time>2024-09-19T11:16:53Z</time>
      </trkpt>
      <trkpt lat="46.16989" lon="4.78507">
        <ele>191.2</ele>
        <time>2024-09-19T11:16:54Z</time>
      </trkpt>
      <trkpt lat="46.16987" lon="4.78508">
        <ele>190.8</ele>
        <time>2024-09-19T11:16:55Z</time>
      </trkpt>
      <trkpt lat="46.16983" lon="4.78511">
        <ele>190.8</ele>
        <time>2024-09-19T11:16:56Z</time>
      </trkpt>
      <trkpt lat="46.16979" lon="4.78514">
        <ele>190.8</ele>
        <time>2024-09-19T11:16:57Z</time>
      </trkpt>
      <trkpt lat="46.16972" lon="4.78519">
        <ele>190.8</ele>
        <time>2024-09-19T11:16:58Z</time>
      </trkpt>
      <trkpt lat="46.1697" lon="4.78521">
        <ele>190.8</ele>
        <time>2024-09-19T11:16:59Z</time>
      </trkpt>
      <trkpt lat="46.16963" lon="4.78526">
        <ele>190.2</ele>
        <time>2024-09-19T11:17:00Z</time>
      </trkpt>
      <trkpt lat="46.1696" lon="4.78528">
        <ele>190.6</ele>
        <time>2024-09-19T11:17:01Z</time>
      </trkpt>
      <trkpt lat="46.16955" lon="4.78532">
        <ele>190.6</ele>
        <time>2024-09-19T11:17:02Z</time>
      </trkpt>
      <trkpt lat="46.16948" lon="4.78538">
        <ele>190.6</ele>
        <time>2024-09-19T11:17:03Z</time>
      </trkpt>
      <trkpt lat="46.16946" lon="4.7854">
        <ele>190.6</ele>
        <time>2024-09-19T11:17:04Z</time>
      </trkpt>
      <trkpt lat="46.16938" lon="4.78545">
        <ele>191</ele>
        <time>2024-09-19T11:17:05Z</time>
      </trkpt>
      <trkpt lat="46.16936" lon="4.78547">
        <ele>191</ele>
        <time>2024-09-19T11:17:06Z</time>
      </trkpt>
      <trkpt lat="46.16929" lon="4.78553">
        <ele>191</ele>
        <time>2024-09-19T11:17:07Z</time>
      </trkpt>
      <trkpt lat="46.16927" lon="4.78555">
        <ele>190.8</ele>
        <time>2024-09-19T11:17:08Z</time>
      </trkpt>
      <trkpt lat="46.16922" lon="4.78558">
        <ele>190.8</ele>
        <time>2024-09-19T11:17:09Z</time>
      </trkpt>
      <trkpt lat="46.16917" lon="4.78561">
        <ele>190.8</ele>
        <time>2024-09-19T11:17:10Z</time>
      </trkpt>
      <trkpt lat="46.16912" lon="4.78565">
        <ele>190.8</ele>
        <time>2024-09-19T11:17:11Z</time>
      </trkpt>
      <trkpt lat="46.16908" lon="4.78568">
        <ele>190.8</ele>
        <time>2024-09-19T11:17:12Z</time>
      </trkpt>
      <trkpt lat="46.16904" lon="4.78571">
        <ele>190.8</ele>
        <time>2024-09-19T11:17:13Z</time>
      </trkpt>
      <trkpt lat="46.16897" lon="4.78576">
        <ele>190.8</ele>
        <time>2024-09-19T11:17:14Z</time>
      </trkpt>
      <trkpt lat="46.16895" lon="4.78578">
        <ele>190.8</ele>
        <time>2024-09-19T11:17:15Z</time>
      </trkpt>
      <trkpt lat="46.1689" lon="4.78581">
        <ele>190.8</ele>
        <time>2024-09-19T11:17:16Z</time>
      </trkpt>
      <trkpt lat="46.16884" lon="4.78586">
        <ele>190.8</ele>
        <time>2024-09-19T11:17:17Z</time>
      </trkpt>
      <trkpt lat="46.16882" lon="4.78587">
        <ele>190.6</ele>
        <time>2024-09-19T11:17:18Z</time>
      </trkpt>
      <trkpt lat="46.16877" lon="4.7859">
        <ele>190.6</ele>
        <time>2024-09-19T11:17:19Z</time>
      </trkpt>
      <trkpt lat="46.16872" lon="4.78593">
        <ele>190.6</ele>
        <time>2024-09-19T11:17:20Z</time>
      </trkpt>
      <trkpt lat="46.16868" lon="4.78596">
        <ele>190.6</ele>
        <time>2024-09-19T11:17:21Z</time>
      </trkpt>
      <trkpt lat="46.16863" lon="4.78598">
        <ele>190.6</ele>
        <time>2024-09-19T11:17:22Z</time>
      </trkpt>
      <trkpt lat="46.16858" lon="4.786">
        <ele>190.6</ele>
        <time>2024-09-19T11:17:23Z</time>
      </trkpt>
      <trkpt lat="46.16851" lon="4.78603">
        <ele>190.8</ele>
        <time>2024-09-19T11:17:24Z</time>
      </trkpt>
      <trkpt lat="46.16849" lon="4.78603">
        <ele>190.8</ele>
        <time>2024-09-19T11:17:25Z</time>
      </trkpt>
      <trkpt lat="46.16844" lon="4.78605">
        <ele>190.8</ele>
        <time>2024-09-19T11:17:26Z</time>
      </trkpt>
      <trkpt lat="46.16837" lon="4.78608">
        <ele>190.8</ele>
        <time>2024-09-19T11:17:27Z</time>
      </trkpt>
      <trkpt lat="46.16835" lon="4.78609">
        <ele>190.6</ele>
        <time>2024-09-19T11:17:28Z</time>
      </trkpt>
      <trkpt lat="46.1683" lon="4.78612">
        <ele>190.6</ele>
        <time>2024-09-19T11:17:29Z</time>
      </trkpt>
      <trkpt lat="46.16826" lon="4.78615">
        <ele>190.6</ele>
        <time>2024-09-19T11:17:30Z</time>
      </trkpt>
      <trkpt lat="46.16822" lon="4.78618">
        <ele>190.6</ele>
        <time>2024-09-19T11:17:31Z</time>
      </trkpt>
      <trkpt lat="46.16818" lon="4.78621">
        <ele>190.6</ele>
        <time>2024-09-19T11:17:32Z</time>
      </trkpt>
      <trkpt lat="46.16814" lon="4.78625">
        <ele>190.4</ele>
        <time>2024-09-19T11:17:33Z</time>
      </trkpt>
      <trkpt lat="46.16808" lon="4.78631">
        <ele>190.4</ele>
        <time>2024-09-19T11:17:34Z</time>
      </trkpt>
      <trkpt lat="46.16807" lon="4.78633">
        <ele>190.4</ele>
        <time>2024-09-19T11:17:35Z</time>
      </trkpt>
      <trkpt lat="46.16801" lon="4.7864">
        <ele>190.4</ele>
        <time>2024-09-19T11:17:36Z</time>
      </trkpt>
      <trkpt lat="46.16799" lon="4.78642">
        <ele>191</ele>
        <time>2024-09-19T11:17:37Z</time>
      </trkpt>
      <trkpt lat="46.16794" lon="4.78649">
        <ele>191</ele>
        <time>2024-09-19T11:17:38Z</time>
      </trkpt>
      <trkpt lat="46.16792" lon="4.78651">
        <ele>191</ele>
        <time>2024-09-19T11:17:39Z</time>
      </trkpt>
      <trkpt lat="46.16786" lon="4.78658">
        <ele>191</ele>
        <time>2024-09-19T11:17:40Z</time>
      </trkpt>
      <trkpt lat="46.16784" lon="4.7866">
        <ele>190.4</ele>
        <time>2024-09-19T11:17:41Z</time>
      </trkpt>
      <trkpt lat="46.1678" lon="4.78665">
        <ele>190.4</ele>
        <time>2024-09-19T11:17:42Z</time>
      </trkpt>
      <trkpt lat="46.16776" lon="4.78669">
        <ele>190.4</ele>
        <time>2024-09-19T11:17:43Z</time>
      </trkpt>
      <trkpt lat="46.16772" lon="4.78674">
        <ele>190.4</ele>
        <time>2024-09-19T11:17:44Z</time>
      </trkpt>
      <trkpt lat="46.16766" lon="4.78681">
        <ele>190.4</ele>
        <time>2024-09-19T11:17:45Z</time>
      </trkpt>
      <trkpt lat="46.16765" lon="4.78683">
        <ele>190</ele>
        <time>2024-09-19T11:17:46Z</time>
      </trkpt>
      <trkpt lat="46.16759" lon="4.78689">
        <ele>190</ele>
        <time>2024-09-19T11:17:47Z</time>
      </trkpt>
      <trkpt lat="46.16757" lon="4.78691">
        <ele>190</ele>
        <time>2024-09-19T11:17:48Z</time>
      </trkpt>
      <trkpt lat="46.16751" lon="4.78696">
        <ele>190.4</ele>
        <time>2024-09-19T11:17:49Z</time>
      </trkpt>
      <trkpt lat="46.16749" lon="4.78698">
        <ele>190.6</ele>
        <time>2024-09-19T11:17:50Z</time>
      </trkpt>
      <trkpt lat="46.16745" lon="4.78702">
        <ele>190.6</ele>
        <time>2024-09-19T11:17:51Z</time>
      </trkpt>
      <trkpt lat="46.1674" lon="4.78706">
        <ele>190.6</ele>
        <time>2024-09-19T11:17:52Z</time>
      </trkpt>
      <trkpt lat="46.16736" lon="4.7871">
        <ele>190.4</ele>
        <time>2024-09-19T11:17:53Z</time>
      </trkpt>
      <trkpt lat="46.16733" lon="4.78714">
        <ele>190.6</ele>
        <time>2024-09-19T11:17:54Z</time>
      </trkpt>
      <trkpt lat="46.16729" lon="4.78718">
        <ele>190.6</ele>
        <time>2024-09-19T11:17:55Z</time>
      </trkpt>
      <trkpt lat="46.16723" lon="4.78724">
        <ele>190.6</ele>
        <time>2024-09-19T11:17:56Z</time>
      </trkpt>
      <trkpt lat="46.16722" lon="4.78726">
        <ele>190.6</ele>
        <time>2024-09-19T11:17:57Z</time>
      </trkpt>
      <trkpt lat="46.16719" lon="4.78731">
        <ele>190.6</ele>
        <time>2024-09-19T11:17:58Z</time>
      </trkpt>
      <trkpt lat="46.16714" lon="4.78739">
        <ele>190.6</ele>
        <time>2024-09-19T11:17:59Z</time>
      </trkpt>
      <trkpt lat="46.16713" lon="4.78742">
        <ele>190.4</ele>
        <time>2024-09-19T11:18:00Z</time>
      </trkpt>
      <trkpt lat="46.1671" lon="4.78747">
        <ele>190.4</ele>
        <time>2024-09-19T11:18:01Z</time>
      </trkpt>
      <trkpt lat="46.16707" lon="4.78753">
        <ele>190.4</ele>
        <time>2024-09-19T11:18:02Z</time>
      </trkpt>
      <trkpt lat="46.16704" lon="4.78759">
        <ele>190.4</ele>
        <time>2024-09-19T11:18:03Z</time>
      </trkpt>
      <trkpt lat="46.16701" lon="4.78765">
        <ele>190.2</ele>
        <time>2024-09-19T11:18:04Z</time>
      </trkpt>
      <trkpt lat="46.16698" lon="4.78771">
        <ele>190.2</ele>
        <time>2024-09-19T11:18:05Z</time>
      </trkpt>
      <trkpt lat="46.16693" lon="4.7878">
        <ele>190.2</ele>
        <time>2024-09-19T11:18:06Z</time>
      </trkpt>
      <trkpt lat="46.16692" lon="4.78783">
        <ele>190.2</ele>
        <time>2024-09-19T11:18:07Z</time>
      </trkpt>
      <trkpt lat="46.16689" lon="4.78789">
        <ele>190.2</ele>
        <time>2024-09-19T11:18:08Z</time>
      </trkpt>
      <trkpt lat="46.16684" lon="4.78798">
        <ele>189.6</ele>
        <time>2024-09-19T11:18:09Z</time>
      </trkpt>
      <trkpt lat="46.16683" lon="4.78801">
        <ele>189.6</ele>
        <time>2024-09-19T11:18:10Z</time>
      </trkpt>
      <trkpt lat="46.1668" lon="4.78807">
        <ele>189.6</ele>
        <time>2024-09-19T11:18:11Z</time>
      </trkpt>
      <trkpt lat="46.16677" lon="4.78813">
        <ele>189.8</ele>
        <time>2024-09-19T11:18:12Z</time>
      </trkpt>
      <trkpt lat="46.16674" lon="4.78819">
        <ele>189.8</ele>
        <time>2024-09-19T11:18:13Z</time>
      </trkpt>
      <trkpt lat="46.16672" lon="4.78824">
        <ele>189.8</ele>
        <time>2024-09-19T11:18:14Z</time>
      </trkpt>
      <trkpt lat="46.16669" lon="4.7883">
        <ele>189.8</ele>
        <time>2024-09-19T11:18:15Z</time>
      </trkpt>
      <trkpt lat="46.16665" lon="4.78839">
        <ele>189.8</ele>
        <time>2024-09-19T11:18:16Z</time>
      </trkpt>
      <trkpt lat="46.16663" lon="4.78842">
        <ele>189.8</ele>
        <time>2024-09-19T11:18:17Z</time>
      </trkpt>
      <trkpt lat="46.16659" lon="4.7885">
        <ele>190</ele>
        <time>2024-09-19T11:18:18Z</time>
      </trkpt>
      <trkpt lat="46.16658" lon="4.78853">
        <ele>190</ele>
        <time>2024-09-19T11:18:19Z</time>
      </trkpt>
      <trkpt lat="46.16653" lon="4.78861">
        <ele>190</ele>
        <time>2024-09-19T11:18:20Z</time>
      </trkpt>
      <trkpt lat="46.16652" lon="4.78864">
        <ele>190</ele>
        <time>2024-09-19T11:18:21Z</time>
      </trkpt>
      <trkpt lat="46.16649" lon="4.7887">
        <ele>190</ele>
        <time>2024-09-19T11:18:22Z</time>
      </trkpt>
      <trkpt lat="46.16646" lon="4.78876">
        <ele>189.8</ele>
        <time>2024-09-19T11:18:23Z</time>
      </trkpt>
      <trkpt lat="46.16643" lon="4.78882">
        <ele>189.8</ele>
        <time>2024-09-19T11:18:24Z</time>
      </trkpt>
      <trkpt lat="46.1664" lon="4.78887">
        <ele>189.8</ele>
        <time>2024-09-19T11:18:25Z</time>
      </trkpt>
      <trkpt lat="46.16636" lon="4.78896">
        <ele>189.8</ele>
        <time>2024-09-19T11:18:26Z</time>
      </trkpt>
      <trkpt lat="46.16634" lon="4.78899">
        <ele>189.6</ele>
        <time>2024-09-19T11:18:27Z</time>
      </trkpt>
      <trkpt lat="46.1663" lon="4.78907">
        <ele>189.6</ele>
        <time>2024-09-19T11:18:28Z</time>
      </trkpt>
      <trkpt lat="46.16628" lon="4.7891">
        <ele>189.6</ele>
        <time>2024-09-19T11:18:29Z</time>
      </trkpt>
      <trkpt lat="46.16624" lon="4.78919">
        <ele>189.8</ele>
        <time>2024-09-19T11:18:30Z</time>
      </trkpt>
      <trkpt lat="46.16622" lon="4.78921">
        <ele>189.8</ele>
        <time>2024-09-19T11:18:31Z</time>
      </trkpt>
      <trkpt lat="46.16618" lon="4.78929">
        <ele>189.8</ele>
        <time>2024-09-19T11:18:32Z</time>
      </trkpt>
      <trkpt lat="46.16617" lon="4.78932">
        <ele>189.8</ele>
        <time>2024-09-19T11:18:33Z</time>
      </trkpt>
      <trkpt lat="46.16614" lon="4.78938">
        <ele>189.8</ele>
        <time>2024-09-19T11:18:34Z</time>
      </trkpt>
      <trkpt lat="46.16611" lon="4.78943">
        <ele>189</ele>
        <time>2024-09-19T11:18:35Z</time>
      </trkpt>
      <trkpt lat="46.16608" lon="4.78949">
        <ele>189</ele>
        <time>2024-09-19T11:18:36Z</time>
      </trkpt>
      <trkpt lat="46.16605" lon="4.78955">
        <ele>189</ele>
        <time>2024-09-19T11:18:37Z</time>
      </trkpt>
      <trkpt lat="46.16602" lon="4.7896">
        <ele>189</ele>
        <time>2024-09-19T11:18:38Z</time>
      </trkpt>
      <trkpt lat="46.16597" lon="4.78968">
        <ele>190</ele>
        <time>2024-09-19T11:18:39Z</time>
      </trkpt>
      <trkpt lat="46.16596" lon="4.78971">
        <ele>190</ele>
        <time>2024-09-19T11:18:40Z</time>
      </trkpt>
      <trkpt lat="46.16593" lon="4.78977">
        <ele>190.2</ele>
        <time>2024-09-19T11:18:41Z</time>
      </trkpt>
      <trkpt lat="46.16589" lon="4.78985">
        <ele>190.2</ele>
        <time>2024-09-19T11:18:42Z</time>
      </trkpt>
      <trkpt lat="46.16587" lon="4.78987">
        <ele>190.2</ele>
        <time>2024-09-19T11:18:43Z</time>
      </trkpt>
      <trkpt lat="46.16585" lon="4.78992">
        <ele>190.2</ele>
        <time>2024-09-19T11:18:44Z</time>
      </trkpt>
      <trkpt lat="46.16582" lon="4.78998">
        <ele>190.2</ele>
        <time>2024-09-19T11:18:45Z</time>
      </trkpt>
      <trkpt lat="46.16579" lon="4.79003">
        <ele>190.2</ele>
        <time>2024-09-19T11:18:46Z</time>
      </trkpt>
      <trkpt lat="46.16576" lon="4.79007">
        <ele>190.2</ele>
        <time>2024-09-19T11:18:47Z</time>
      </trkpt>
      <trkpt lat="46.16573" lon="4.79012">
        <ele>190.2</ele>
        <time>2024-09-19T11:18:48Z</time>
      </trkpt>
      <trkpt lat="46.16569" lon="4.79019">
        <ele>190</ele>
        <time>2024-09-19T11:18:49Z</time>
      </trkpt>
      <trkpt lat="46.16568" lon="4.79022">
        <ele>190</ele>
        <time>2024-09-19T11:18:50Z</time>
      </trkpt>
      <trkpt lat="46.16566" lon="4.79026">
        <ele>190</ele>
        <time>2024-09-19T11:18:51Z</time>
      </trkpt>
      <trkpt lat="46.16563" lon="4.79029">
        <ele>190</ele>
        <time>2024-09-19T11:18:52Z</time>
      </trkpt>
      <trkpt lat="46.16561" lon="4.79033">
        <ele>190</ele>
        <time>2024-09-19T11:18:53Z</time>
      </trkpt>
      <trkpt lat="46.16559" lon="4.79036">
        <ele>190.2</ele>
        <time>2024-09-19T11:18:54Z</time>
      </trkpt>
      <trkpt lat="46.16557" lon="4.7904">
        <ele>190.2</ele>
        <time>2024-09-19T11:18:55Z</time>
      </trkpt>
      <trkpt lat="46.16554" lon="4.79044">
        <ele>190.2</ele>
        <time>2024-09-19T11:18:56Z</time>
      </trkpt>
      <trkpt lat="46.16552" lon="4.79048">
        <ele>190.2</ele>
        <time>2024-09-19T11:18:57Z</time>
      </trkpt>
      <trkpt lat="46.16549" lon="4.79052">
        <ele>190.4</ele>
        <time>2024-09-19T11:18:58Z</time>
      </trkpt>
      <trkpt lat="46.16546" lon="4.79058">
        <ele>190.4</ele>
        <time>2024-09-19T11:18:59Z</time>
      </trkpt>
      <trkpt lat="46.16545" lon="4.7906">
        <ele>190.4</ele>
        <time>2024-09-19T11:19:00Z</time>
      </trkpt>
      <trkpt lat="46.16543" lon="4.79064">
        <ele>190.4</ele>
        <time>2024-09-19T11:19:01Z</time>
      </trkpt>
      <trkpt lat="46.16541" lon="4.79068">
        <ele>190.4</ele>
        <time>2024-09-19T11:19:02Z</time>
      </trkpt>
      <trkpt lat="46.16539" lon="4.79073">
        <ele>190.2</ele>
        <time>2024-09-19T11:19:03Z</time>
      </trkpt>
      <trkpt lat="46.16537" lon="4.79078">
        <ele>190.2</ele>
        <time>2024-09-19T11:19:04Z</time>
      </trkpt>
      <trkpt lat="46.16536" lon="4.79082">
        <ele>190.2</ele>
        <time>2024-09-19T11:19:05Z</time>
      </trkpt>
      <trkpt lat="46.16535" lon="4.79087">
        <ele>190</ele>
        <time>2024-09-19T11:19:06Z</time>
      </trkpt>
      <trkpt lat="46.16534" lon="4.79092">
        <ele>190</ele>
        <time>2024-09-19T11:19:07Z</time>
      </trkpt>
      <trkpt lat="46.16532" lon="4.79096">
        <ele>190</ele>
        <time>2024-09-19T11:19:08Z</time>
      </trkpt>
      <trkpt lat="46.16531" lon="4.79101">
        <ele>190</ele>
        <time>2024-09-19T11:19:09Z</time>
      </trkpt>
      <trkpt lat="46.1653" lon="4.79106">
        <ele>190</ele>
        <time>2024-09-19T11:19:10Z</time>
      </trkpt>
      <trkpt lat="46.16528" lon="4.7911">
        <ele>190</ele>
        <time>2024-09-19T11:19:11Z</time>
      </trkpt>
      <trkpt lat="46.16527" lon="4.79114">
        <ele>190</ele>
        <time>2024-09-19T11:19:12Z</time>
      </trkpt>
      <trkpt lat="46.16525" lon="4.79121">
        <ele>190</ele>
        <time>2024-09-19T11:19:13Z</time>
      </trkpt>
      <trkpt lat="46.16524" lon="4.79123">
        <ele>190</ele>
        <time>2024-09-19T11:19:14Z</time>
      </trkpt>
      <trkpt lat="46.16522" lon="4.79128">
        <ele>190</ele>
        <time>2024-09-19T11:19:15Z</time>
      </trkpt>
      <trkpt lat="46.16521" lon="4.79133">
        <ele>190.2</ele>
        <time>2024-09-19T11:19:16Z</time>
      </trkpt>
      <trkpt lat="46.1652" lon="4.79137">
        <ele>190.2</ele>
        <time>2024-09-19T11:19:17Z</time>
      </trkpt>
      <trkpt lat="46.16518" lon="4.79142">
        <ele>190.2</ele>
        <time>2024-09-19T11:19:18Z</time>
      </trkpt>
      <trkpt lat="46.16517" lon="4.79146">
        <ele>190.2</ele>
        <time>2024-09-19T11:19:19Z</time>
      </trkpt>
      <trkpt lat="46.16516" lon="4.79151">
        <ele>190.6</ele>
        <time>2024-09-19T11:19:20Z</time>
      </trkpt>
      <trkpt lat="46.16515" lon="4.79155">
        <ele>190.6</ele>
        <time>2024-09-19T11:19:21Z</time>
      </trkpt>
      <trkpt lat="46.16514" lon="4.79158">
        <ele>190.6</ele>
        <time>2024-09-19T11:19:22Z</time>
      </trkpt>
      <trkpt lat="46.16514" lon="4.79162">
        <ele>191.4</ele>
        <time>2024-09-19T11:19:23Z</time>
      </trkpt>
      <trkpt lat="46.16514" lon="4.79166">
        <ele>191.4</ele>
        <time>2024-09-19T11:19:24Z</time>
      </trkpt>
      <trkpt lat="46.16514" lon="4.79168">
        <ele>191.4</ele>
        <time>2024-09-19T11:19:25Z</time>
      </trkpt>
      <trkpt lat="46.16514" lon="4.79172">
        <ele>191.6</ele>
        <time>2024-09-19T11:19:26Z</time>
      </trkpt>
      <trkpt lat="46.16515" lon="4.79175">
        <ele>191.6</ele>
        <time>2024-09-19T11:19:27Z</time>
      </trkpt>
      <trkpt lat="46.16515" lon="4.79178">
        <ele>191.6</ele>
        <time>2024-09-19T11:19:28Z</time>
      </trkpt>
      <trkpt lat="46.16515" lon="4.79181">
        <ele>192.2</ele>
        <time>2024-09-19T11:19:29Z</time>
      </trkpt>
      <trkpt lat="46.16515" lon="4.79184">
        <ele>192.4</ele>
        <time>2024-09-19T11:19:30Z</time>
      </trkpt>
      <trkpt lat="46.16516" lon="4.79187">
        <ele>192.4</ele>
        <time>2024-09-19T11:19:31Z</time>
      </trkpt>
      <trkpt lat="46.16516" lon="4.79191">
        <ele>192.4</ele>
        <time>2024-09-19T11:19:32Z</time>
      </trkpt>
      <trkpt lat="46.16517" lon="4.79194">
        <ele>192.4</ele>
        <time>2024-09-19T11:19:33Z</time>
      </trkpt>
      <trkpt lat="46.16517" lon="4.79198">
        <ele>192.6</ele>
        <time>2024-09-19T11:19:34Z</time>
      </trkpt>
      <trkpt lat="46.16517" lon="4.79202">
        <ele>192.6</ele>
        <time>2024-09-19T11:19:35Z</time>
      </trkpt>
      <trkpt lat="46.16516" lon="4.79206">
        <ele>192.6</ele>
        <time>2024-09-19T11:19:36Z</time>
      </trkpt>
      <trkpt lat="46.16516" lon="4.79209">
        <ele>192.6</ele>
        <time>2024-09-19T11:19:37Z</time>
      </trkpt>
      <trkpt lat="46.16515" lon="4.79213">
        <ele>192.6</ele>
        <time>2024-09-19T11:19:38Z</time>
      </trkpt>
      <trkpt lat="46.16513" lon="4.79217">
        <ele>192.4</ele>
        <time>2024-09-19T11:19:39Z</time>
      </trkpt>
      <trkpt lat="46.16512" lon="4.7922">
        <ele>192.4</ele>
        <time>2024-09-19T11:19:40Z</time>
      </trkpt>
      <trkpt lat="46.16511" lon="4.79224">
        <ele>192.4</ele>
        <time>2024-09-19T11:19:41Z</time>
      </trkpt>
      <trkpt lat="46.16509" lon="4.79229">
        <ele>191.6</ele>
        <time>2024-09-19T11:19:42Z</time>
      </trkpt>
      <trkpt lat="46.16509" lon="4.79231">
        <ele>191.4</ele>
        <time>2024-09-19T11:19:43Z</time>
      </trkpt>
      <trkpt lat="46.16506" lon="4.79236">
        <ele>191.4</ele>
        <time>2024-09-19T11:19:44Z</time>
      </trkpt>
      <trkpt lat="46.16506" lon="4.79238">
        <ele>191.4</ele>
        <time>2024-09-19T11:19:45Z</time>
      </trkpt>
      <trkpt lat="46.16503" lon="4.79242">
        <ele>191.4</ele>
        <time>2024-09-19T11:19:46Z</time>
      </trkpt>
      <trkpt lat="46.16503" lon="4.79244">
        <ele>190.4</ele>
        <time>2024-09-19T11:19:47Z</time>
      </trkpt>
      <trkpt lat="46.16501" lon="4.79247">
        <ele>190.4</ele>
        <time>2024-09-19T11:19:48Z</time>
      </trkpt>
      <trkpt lat="46.165" lon="4.7925">
        <ele>190.4</ele>
        <time>2024-09-19T11:19:49Z</time>
      </trkpt>
      <trkpt lat="46.16498" lon="4.79254">
        <ele>190.4</ele>
        <time>2024-09-19T11:19:50Z</time>
      </trkpt>
      <trkpt lat="46.16497" lon="4.79257">
        <ele>190</ele>
        <time>2024-09-19T11:19:51Z</time>
      </trkpt>
      <trkpt lat="46.16495" lon="4.79259">
        <ele>190</ele>
        <time>2024-09-19T11:19:52Z</time>
      </trkpt>
      <trkpt lat="46.16493" lon="4.79263">
        <ele>190</ele>
        <time>2024-09-19T11:19:53Z</time>
      </trkpt>
      <trkpt lat="46.16492" lon="4.79265">
        <ele>190</ele>
        <time>2024-09-19T11:19:54Z</time>
      </trkpt>
      <trkpt lat="46.1649" lon="4.79268">
        <ele>189.8</ele>
        <time>2024-09-19T11:19:55Z</time>
      </trkpt>
      <trkpt lat="46.1649" lon="4.7927">
        <ele>189.8</ele>
        <time>2024-09-19T11:19:56Z</time>
      </trkpt>
      <trkpt lat="46.16488" lon="4.79273">
        <ele>189.8</ele>
        <time>2024-09-19T11:19:57Z</time>
      </trkpt>
      <trkpt lat="46.16487" lon="4.79275">
        <ele>189.8</ele>
        <time>2024-09-19T11:19:58Z</time>
      </trkpt>
      <trkpt lat="46.16486" lon="4.79278">
        <ele>189.8</ele>
        <time>2024-09-19T11:19:59Z</time>
      </trkpt>
      <trkpt lat="46.16484" lon="4.79281">
        <ele>189.8</ele>
        <time>2024-09-19T11:20:00Z</time>
      </trkpt>
      <trkpt lat="46.16482" lon="4.79284">
        <ele>190</ele>
        <time>2024-09-19T11:20:01Z</time>
      </trkpt>
      <trkpt lat="46.1648" lon="4.79287">
        <ele>190</ele>
        <time>2024-09-19T11:20:02Z</time>
      </trkpt>
      <trkpt lat="46.16478" lon="4.7929">
        <ele>190</ele>
        <time>2024-09-19T11:20:03Z</time>
      </trkpt>
      <trkpt lat="46.16475" lon="4.79294">
        <ele>189.8</ele>
        <time>2024-09-19T11:20:04Z</time>
      </trkpt>
      <trkpt lat="46.16473" lon="4.79298">
        <ele>189.8</ele>
        <time>2024-09-19T11:20:05Z</time>
      </trkpt>
      <trkpt lat="46.16471" lon="4.79302">
        <ele>189.8</ele>
        <time>2024-09-19T11:20:06Z</time>
      </trkpt>
      <trkpt lat="46.16468" lon="4.79309">
        <ele>189.8</ele>
        <time>2024-09-19T11:20:07Z</time>
      </trkpt>
      <trkpt lat="46.16467" lon="4.79311">
        <ele>189.8</ele>
        <time>2024-09-19T11:20:08Z</time>
      </trkpt>
      <trkpt lat="46.16465" lon="4.79316">
        <ele>189.8</ele>
        <time>2024-09-19T11:20:09Z</time>
      </trkpt>
      <trkpt lat="46.16463" lon="4.7932">
        <ele>190</ele>
        <time>2024-09-19T11:20:10Z</time>
      </trkpt>
      <trkpt lat="46.16461" lon="4.79325">
        <ele>190</ele>
        <time>2024-09-19T11:20:11Z</time>
      </trkpt>
      <trkpt lat="46.16458" lon="4.79329">
        <ele>190</ele>
        <time>2024-09-19T11:20:12Z</time>
      </trkpt>
      <trkpt lat="46.16456" lon="4.79334">
        <ele>190</ele>
        <time>2024-09-19T11:20:13Z</time>
      </trkpt>
      <trkpt lat="46.16454" lon="4.79338">
        <ele>190</ele>
        <time>2024-09-19T11:20:14Z</time>
      </trkpt>
      <trkpt lat="46.16451" lon="4.79342">
        <ele>190.2</ele>
        <time>2024-09-19T11:20:15Z</time>
      </trkpt>
      <trkpt lat="46.16449" lon="4.79345">
        <ele>190.2</ele>
        <time>2024-09-19T11:20:16Z</time>
      </trkpt>
      <trkpt lat="46.16447" lon="4.79349">
        <ele>190.2</ele>
        <time>2024-09-19T11:20:17Z</time>
      </trkpt>
      <trkpt lat="46.16445" lon="4.79353">
        <ele>190.2</ele>
        <time>2024-09-19T11:20:18Z</time>
      </trkpt>
      <trkpt lat="46.16443" lon="4.79357">
        <ele>190.4</ele>
        <time>2024-09-19T11:20:19Z</time>
      </trkpt>
      <trkpt lat="46.16441" lon="4.7936">
        <ele>190.4</ele>
        <time>2024-09-19T11:20:20Z</time>
      </trkpt>
      <trkpt lat="46.1644" lon="4.79364">
        <ele>190.4</ele>
        <time>2024-09-19T11:20:21Z</time>
      </trkpt>
      <trkpt lat="46.16438" lon="4.79368">
        <ele>190.4</ele>
        <time>2024-09-19T11:20:22Z</time>
      </trkpt>
      <trkpt lat="46.16437" lon="4.79372">
        <ele>190.4</ele>
        <time>2024-09-19T11:20:23Z</time>
      </trkpt>
      <trkpt lat="46.16433" lon="4.79377">
        <ele>190.4</ele>
        <time>2024-09-19T11:20:24Z</time>
      </trkpt>
      <trkpt lat="46.16432" lon="4.79379">
        <ele>190.4</ele>
        <time>2024-09-19T11:20:25Z</time>
      </trkpt>
      <trkpt lat="46.16429" lon="4.79384">
        <ele>190.4</ele>
        <time>2024-09-19T11:20:26Z</time>
      </trkpt>
      <trkpt lat="46.16428" lon="4.79386">
        <ele>190.2</ele>
        <time>2024-09-19T11:20:27Z</time>
      </trkpt>
      <trkpt lat="46.16424" lon="4.79392">
        <ele>190.2</ele>
        <time>2024-09-19T11:20:28Z</time>
      </trkpt>
      <trkpt lat="46.16423" lon="4.79394">
        <ele>190.4</ele>
        <time>2024-09-19T11:20:29Z</time>
      </trkpt>
      <trkpt lat="46.1642" lon="4.79399">
        <ele>190.4</ele>
        <time>2024-09-19T11:20:30Z</time>
      </trkpt>
      <trkpt lat="46.16419" lon="4.79401">
        <ele>190.4</ele>
        <time>2024-09-19T11:20:31Z</time>
      </trkpt>
      <trkpt lat="46.16417" lon="4.79405">
        <ele>190.4</ele>
        <time>2024-09-19T11:20:32Z</time>
      </trkpt>
      <trkpt lat="46.16416" lon="4.79408">
        <ele>190.4</ele>
        <time>2024-09-19T11:20:33Z</time>
      </trkpt>
      <trkpt lat="46.16414" lon="4.79411">
        <ele>190.4</ele>
        <time>2024-09-19T11:20:34Z</time>
      </trkpt>
      <trkpt lat="46.16412" lon="4.79414">
        <ele>190.4</ele>
        <time>2024-09-19T11:20:35Z</time>
      </trkpt>
      <trkpt lat="46.16411" lon="4.79417">
        <ele>190.6</ele>
        <time>2024-09-19T11:20:36Z</time>
      </trkpt>
      <trkpt lat="46.16409" lon="4.7942">
        <ele>190.6</ele>
        <time>2024-09-19T11:20:37Z</time>
      </trkpt>
      <trkpt lat="46.16409" lon="4.79422">
        <ele>190.6</ele>
        <time>2024-09-19T11:20:38Z</time>
      </trkpt>
      <trkpt lat="46.16408" lon="4.79425">
        <ele>190.6</ele>
        <time>2024-09-19T11:20:39Z</time>
      </trkpt>
      <trkpt lat="46.16407" lon="4.79427">
        <ele>190.6</ele>
        <time>2024-09-19T11:20:40Z</time>
      </trkpt>
      <trkpt lat="46.16407" lon="4.79429">
        <ele>190.4</ele>
        <time>2024-09-19T11:20:41Z</time>
      </trkpt>
      <trkpt lat="46.16406" lon="4.79431">
        <ele>190.4</ele>
        <time>2024-09-19T11:20:42Z</time>
      </trkpt>
      <trkpt lat="46.16405" lon="4.79431">
        <ele>190.4</ele>
        <time>2024-09-19T11:20:43Z</time>
      </trkpt>
      <trkpt lat="46.16404" lon="4.79431">
        <ele>190.4</ele>
        <time>2024-09-19T11:20:44Z</time>
      </trkpt>
      <trkpt lat="46.16403" lon="4.79431">
        <ele>190.4</ele>
        <time>2024-09-19T11:20:45Z</time>
      </trkpt>
      <trkpt lat="46.16403" lon="4.79431">
        <ele>190.4</ele>
        <time>2024-09-19T11:20:46Z</time>
      </trkpt>
      <trkpt lat="46.16403" lon="4.79431">
        <ele>190.4</ele>
        <time>2024-09-19T11:20:47Z</time>
      </trkpt>
      <trkpt lat="46.16409" lon="4.7942">
        <ele>190.2</ele>
        <time>2024-09-19T11:21:01Z</time>
      </trkpt>
      <trkpt lat="46.16411" lon="4.79417">
        <ele>190.4</ele>
        <time>2024-09-19T11:21:02Z</time>
      </trkpt>
      <trkpt lat="46.16413" lon="4.79413">
        <ele>190.6</ele>
        <time>2024-09-19T11:21:03Z</time>
      </trkpt>
      <trkpt lat="46.16415" lon="4.79409">
        <ele>190.6</ele>
        <time>2024-09-19T11:21:04Z</time>
      </trkpt>
      <trkpt lat="46.16418" lon="4.79405">
        <ele>190.6</ele>
        <time>2024-09-19T11:21:05Z</time>
      </trkpt>
      <trkpt lat="46.1642" lon="4.79401">
        <ele>190.6</ele>
        <time>2024-09-19T11:21:06Z</time>
      </trkpt>
      <trkpt lat="46.16422" lon="4.79397">
        <ele>190.4</ele>
        <time>2024-09-19T11:21:07Z</time>
      </trkpt>
      <trkpt lat="46.16424" lon="4.79393">
        <ele>190.6</ele>
        <time>2024-09-19T11:21:08Z</time>
      </trkpt>
      <trkpt lat="46.16426" lon="4.79389">
        <ele>190.6</ele>
        <time>2024-09-19T11:21:09Z</time>
      </trkpt>
      <trkpt lat="46.16428" lon="4.79386">
        <ele>190.6</ele>
        <time>2024-09-19T11:21:10Z</time>
      </trkpt>
      <trkpt lat="46.1643" lon="4.79382">
        <ele>190.4</ele>
        <time>2024-09-19T11:21:11Z</time>
      </trkpt>
      <trkpt lat="46.16432" lon="4.79378">
        <ele>190.4</ele>
        <time>2024-09-19T11:21:12Z</time>
      </trkpt>
      <trkpt lat="46.16434" lon="4.79375">
        <ele>190.4</ele>
        <time>2024-09-19T11:21:13Z</time>
      </trkpt>
      <trkpt lat="46.16436" lon="4.79372">
        <ele>190.4</ele>
        <time>2024-09-19T11:21:14Z</time>
      </trkpt>
      <trkpt lat="46.16438" lon="4.79369">
        <ele>190.4</ele>
        <time>2024-09-19T11:21:15Z</time>
      </trkpt>
      <trkpt lat="46.1644" lon="4.79367">
        <ele>190.4</ele>
        <time>2024-09-19T11:21:16Z</time>
      </trkpt>
      <trkpt lat="46.1644" lon="4.79367">
        <ele>190.6</ele>
        <time>2024-09-19T11:21:17Z</time>
      </trkpt>
      <trkpt lat="46.1644" lon="4.79367">
        <ele>190.6</ele>
        <time>2024-09-19T11:21:18Z</time>
      </trkpt>
      <trkpt lat="46.16439" lon="4.79368">
        <ele>190.6</ele>
        <time>2024-09-19T11:21:19Z</time>
      </trkpt>
      <trkpt lat="46.16438" lon="4.79369">
        <ele>190.6</ele>
        <time>2024-09-19T11:21:20Z</time>
      </trkpt>
      <trkpt lat="46.16437" lon="4.79369">
        <ele>190.6</ele>
        <time>2024-09-19T11:21:21Z</time>
      </trkpt>
      <trkpt lat="46.16437" lon="4.7937">
        <ele>194</ele>
        <time>2024-09-19T12:06:45Z</time>
      </trkpt>
      <trkpt lat="46.16436" lon="4.7937">
        <ele>194</ele>
        <time>2024-09-19T12:06:46Z</time>
      </trkpt>
      <trkpt lat="46.16435" lon="4.79371">
        <ele>194.2</ele>
        <time>2024-09-19T12:06:47Z</time>
      </trkpt>
      <trkpt lat="46.16435" lon="4.79371">
        <ele>194.2</ele>
        <time>2024-09-19T12:06:48Z</time>
      </trkpt>
      <trkpt lat="46.16434" lon="4.79372">
        <ele>194.2</ele>
        <time>2024-09-19T12:06:49Z</time>
      </trkpt>
      <trkpt lat="46.16433" lon="4.79372">
        <ele>194.2</ele>
        <time>2024-09-19T12:06:50Z</time>
      </trkpt>
      <trkpt lat="46.16432" lon="4.79373">
        <ele>194.2</ele>
        <time>2024-09-19T12:06:51Z</time>
      </trkpt>
      <trkpt lat="46.16432" lon="4.79373">
        <ele>194.2</ele>
        <time>2024-09-19T12:06:52Z</time>
      </trkpt>
      <trkpt lat="46.16431" lon="4.79374">
        <ele>194.8</ele>
        <time>2024-09-19T12:07:33Z</time>
      </trkpt>
      <trkpt lat="46.1643" lon="4.79374">
        <ele>194.8</ele>
        <time>2024-09-19T12:07:34Z</time>
      </trkpt>
      <trkpt lat="46.16429" lon="4.79375">
        <ele>194.8</ele>
        <time>2024-09-19T12:07:35Z</time>
      </trkpt>
      <trkpt lat="46.16429" lon="4.79377">
        <ele>194.8</ele>
        <time>2024-09-19T12:07:36Z</time>
      </trkpt>
      <trkpt lat="46.16428" lon="4.79379">
        <ele>194.6</ele>
        <time>2024-09-19T12:07:37Z</time>
      </trkpt>
      <trkpt lat="46.16427" lon="4.79381">
        <ele>194.6</ele>
        <time>2024-09-19T12:07:38Z</time>
      </trkpt>
      <trkpt lat="46.16426" lon="4.79384">
        <ele>194.6</ele>
        <time>2024-09-19T12:07:39Z</time>
      </trkpt>
      <trkpt lat="46.16425" lon="4.79387">
        <ele>194.6</ele>
        <time>2024-09-19T12:07:40Z</time>
      </trkpt>
      <trkpt lat="46.16423" lon="4.7939">
        <ele>194.6</ele>
        <time>2024-09-19T12:07:41Z</time>
      </trkpt>
      <trkpt lat="46.16422" lon="4.79393">
        <ele>194.6</ele>
        <time>2024-09-19T12:07:42Z</time>
      </trkpt>
      <trkpt lat="46.1642" lon="4.79396">
        <ele>194.6</ele>
        <time>2024-09-19T12:07:43Z</time>
      </trkpt>
      <trkpt lat="46.16418" lon="4.79399">
        <ele>194.6</ele>
        <time>2024-09-19T12:07:44Z</time>
      </trkpt>
      <trkpt lat="46.16416" lon="4.79403">
        <ele>194.6</ele>
        <time>2024-09-19T12:07:45Z</time>
      </trkpt>
      <trkpt lat="46.16414" lon="4.79406">
        <ele>194.6</ele>
        <time>2024-09-19T12:07:46Z</time>
      </trkpt>
      <trkpt lat="46.16412" lon="4.7941">
        <ele>195</ele>
        <time>2024-09-19T12:07:47Z</time>
      </trkpt>
      <trkpt lat="46.16409" lon="4.79414">
        <ele>195</ele>
        <time>2024-09-19T12:07:48Z</time>
      </trkpt>
      <trkpt lat="46.16407" lon="4.79419">
        <ele>195</ele>
        <time>2024-09-19T12:07:49Z</time>
      </trkpt>
      <trkpt lat="46.16405" lon="4.79423">
        <ele>195</ele>
        <time>2024-09-19T12:07:50Z</time>
      </trkpt>
      <trkpt lat="46.16403" lon="4.79428">
        <ele>195.2</ele>
        <time>2024-09-19T12:07:51Z</time>
      </trkpt>
      <trkpt lat="46.16401" lon="4.79433">
        <ele>195.2</ele>
        <time>2024-09-19T12:07:52Z</time>
      </trkpt>
      <trkpt lat="46.16399" lon="4.79437">
        <ele>195.2</ele>
        <time>2024-09-19T12:07:53Z</time>
      </trkpt>
      <trkpt lat="46.16397" lon="4.79441">
        <ele>195.2</ele>
        <time>2024-09-19T12:07:54Z</time>
      </trkpt>
      <trkpt lat="46.16394" lon="4.79446">
        <ele>195.2</ele>
        <time>2024-09-19T12:07:55Z</time>
      </trkpt>
      <trkpt lat="46.16392" lon="4.7945">
        <ele>195.2</ele>
        <time>2024-09-19T12:07:56Z</time>
      </trkpt>
      <trkpt lat="46.16389" lon="4.79454">
        <ele>195.2</ele>
        <time>2024-09-19T12:07:57Z</time>
      </trkpt>
      <trkpt lat="46.16387" lon="4.79459">
        <ele>195.2</ele>
        <time>2024-09-19T12:07:58Z</time>
      </trkpt>
      <trkpt lat="46.16384" lon="4.79463">
        <ele>195.2</ele>
        <time>2024-09-19T12:07:59Z</time>
      </trkpt>
      <trkpt lat="46.1638" lon="4.7947">
        <ele>195.4</ele>
        <time>2024-09-19T12:08:00Z</time>
      </trkpt>
      <trkpt lat="46.16379" lon="4.79472">
        <ele>195.6</ele>
        <time>2024-09-19T12:08:01Z</time>
      </trkpt>
      <trkpt lat="46.16377" lon="4.79477">
        <ele>195.6</ele>
        <time>2024-09-19T12:08:02Z</time>
      </trkpt>
      <trkpt lat="46.16374" lon="4.79482">
        <ele>195.6</ele>
        <time>2024-09-19T12:08:03Z</time>
      </trkpt>
      <trkpt lat="46.1637" lon="4.79489">
        <ele>195.4</ele>
        <time>2024-09-19T12:08:04Z</time>
      </trkpt>
      <trkpt lat="46.16369" lon="4.79491">
        <ele>195.2</ele>
        <time>2024-09-19T12:08:05Z</time>
      </trkpt>
      <trkpt lat="46.16365" lon="4.79499">
        <ele>195.2</ele>
        <time>2024-09-19T12:08:06Z</time>
      </trkpt>
      <trkpt lat="46.16364" lon="4.79501">
        <ele>195.2</ele>
        <time>2024-09-19T12:08:07Z</time>
      </trkpt>
      <trkpt lat="46.1636" lon="4.79509">
        <ele>195.2</ele>
        <time>2024-09-19T12:08:08Z</time>
      </trkpt>
      <trkpt lat="46.16358" lon="4.79512">
        <ele>195.2</ele>
        <time>2024-09-19T12:08:09Z</time>
      </trkpt>
      <trkpt lat="46.16355" lon="4.79519">
        <ele>195.4</ele>
        <time>2024-09-19T12:08:10Z</time>
      </trkpt>
      <trkpt lat="46.16353" lon="4.79522">
        <ele>195.4</ele>
        <time>2024-09-19T12:08:11Z</time>
      </trkpt>
      <trkpt lat="46.16351" lon="4.79527">
        <ele>195.4</ele>
        <time>2024-09-19T12:08:12Z</time>
      </trkpt>
      <trkpt lat="46.16349" lon="4.79532">
        <ele>195.4</ele>
        <time>2024-09-19T12:08:13Z</time>
      </trkpt>
      <trkpt lat="46.16346" lon="4.7954">
        <ele>195.4</ele>
        <time>2024-09-19T12:08:14Z</time>
      </trkpt>
      <trkpt lat="46.16345" lon="4.79543">
        <ele>195.4</ele>
        <time>2024-09-19T12:08:15Z</time>
      </trkpt>
      <trkpt lat="46.16342" lon="4.79551">
        <ele>195.4</ele>
        <time>2024-09-19T12:08:16Z</time>
      </trkpt>
      <trkpt lat="46.16342" lon="4.79554">
        <ele>195.4</ele>
        <time>2024-09-19T12:08:17Z</time>
      </trkpt>
      <trkpt lat="46.16341" lon="4.7956">
        <ele>195</ele>
        <time>2024-09-19T12:08:18Z</time>
      </trkpt>
      <trkpt lat="46.16341" lon="4.79569">
        <ele>195</ele>
        <time>2024-09-19T12:08:19Z</time>
      </trkpt>
      <trkpt lat="46.16341" lon="4.79572">
        <ele>195</ele>
        <time>2024-09-19T12:08:20Z</time>
      </trkpt>
      <trkpt lat="46.16339" lon="4.7958">
        <ele>195</ele>
        <time>2024-09-19T12:08:21Z</time>
      </trkpt>
      <trkpt lat="46.16338" lon="4.79582">
        <ele>195.2</ele>
        <time>2024-09-19T12:08:22Z</time>
      </trkpt>
      <trkpt lat="46.16336" lon="4.79588">
        <ele>195.2</ele>
        <time>2024-09-19T12:08:23Z</time>
      </trkpt>
      <trkpt lat="46.16334" lon="4.79593">
        <ele>195.2</ele>
        <time>2024-09-19T12:08:24Z</time>
      </trkpt>
      <trkpt lat="46.16332" lon="4.79598">
        <ele>195.2</ele>
        <time>2024-09-19T12:08:25Z</time>
      </trkpt>
      <trkpt lat="46.1633" lon="4.79603">
        <ele>195.4</ele>
        <time>2024-09-19T12:08:26Z</time>
      </trkpt>
      <trkpt lat="46.16328" lon="4.79608">
        <ele>195.4</ele>
        <time>2024-09-19T12:08:27Z</time>
      </trkpt>
      <trkpt lat="46.16326" lon="4.79613">
        <ele>195.4</ele>
        <time>2024-09-19T12:08:28Z</time>
      </trkpt>
      <trkpt lat="46.16324" lon="4.79618">
        <ele>195.4</ele>
        <time>2024-09-19T12:08:29Z</time>
      </trkpt>
      <trkpt lat="46.16321" lon="4.79625">
        <ele>195.4</ele>
        <time>2024-09-19T12:08:30Z</time>
      </trkpt>
      <trkpt lat="46.1632" lon="4.79628">
        <ele>195.4</ele>
        <time>2024-09-19T12:08:31Z</time>
      </trkpt>
      <trkpt lat="46.16318" lon="4.79635">
        <ele>195.6</ele>
        <time>2024-09-19T12:08:32Z</time>
      </trkpt>
      <trkpt lat="46.16317" lon="4.79638">
        <ele>195.6</ele>
        <time>2024-09-19T12:08:33Z</time>
      </trkpt>
      <trkpt lat="46.16314" lon="4.79646">
        <ele>195.6</ele>
        <time>2024-09-19T12:08:34Z</time>
      </trkpt>
      <trkpt lat="46.16313" lon="4.79649">
        <ele>195.6</ele>
        <time>2024-09-19T12:08:35Z</time>
      </trkpt>
      <trkpt lat="46.1631" lon="4.79654">
        <ele>195.6</ele>
        <time>2024-09-19T12:08:36Z</time>
      </trkpt>
      <trkpt lat="46.16307" lon="4.79658">
        <ele>195.6</ele>
        <time>2024-09-19T12:08:37Z</time>
      </trkpt>
      <trkpt lat="46.16304" lon="4.79663">
        <ele>195.6</ele>
        <time>2024-09-19T12:08:38Z</time>
      </trkpt>
      <trkpt lat="46.163" lon="4.7967">
        <ele>195.6</ele>
        <time>2024-09-19T12:08:39Z</time>
      </trkpt>
      <trkpt lat="46.16299" lon="4.79673">
        <ele>195.6</ele>
        <time>2024-09-19T12:08:40Z</time>
      </trkpt>
      <trkpt lat="46.16297" lon="4.79678">
        <ele>195.6</ele>
        <time>2024-09-19T12:08:41Z</time>
      </trkpt>
      <trkpt lat="46.16295" lon="4.79683">
        <ele>195.6</ele>
        <time>2024-09-19T12:08:42Z</time>
      </trkpt>
      <trkpt lat="46.16292" lon="4.79688">
        <ele>195.6</ele>
        <time>2024-09-19T12:08:43Z</time>
      </trkpt>
      <trkpt lat="46.16289" lon="4.79693">
        <ele>195.6</ele>
        <time>2024-09-19T12:08:44Z</time>
      </trkpt>
      <trkpt lat="46.16286" lon="4.797">
        <ele>195.8</ele>
        <time>2024-09-19T12:08:45Z</time>
      </trkpt>
      <trkpt lat="46.16284" lon="4.79702">
        <ele>195.6</ele>
        <time>2024-09-19T12:08:46Z</time>
      </trkpt>
      <trkpt lat="46.16281" lon="4.79709">
        <ele>195.6</ele>
        <time>2024-09-19T12:08:47Z</time>
      </trkpt>
      <trkpt lat="46.1628" lon="4.79712">
        <ele>195.6</ele>
        <time>2024-09-19T12:08:48Z</time>
      </trkpt>
      <trkpt lat="46.16276" lon="4.79719">
        <ele>195.6</ele>
        <time>2024-09-19T12:08:49Z</time>
      </trkpt>
      <trkpt lat="46.16275" lon="4.79721">
        <ele>196</ele>
        <time>2024-09-19T12:08:50Z</time>
      </trkpt>
      <trkpt lat="46.16273" lon="4.79726">
        <ele>196</ele>
        <time>2024-09-19T12:08:51Z</time>
      </trkpt>
      <trkpt lat="46.1627" lon="4.79731">
        <ele>196</ele>
        <time>2024-09-19T12:08:52Z</time>
      </trkpt>
      <trkpt lat="46.16268" lon="4.79736">
        <ele>196</ele>
        <time>2024-09-19T12:08:53Z</time>
      </trkpt>
      <trkpt lat="46.16265" lon="4.79741">
        <ele>195.6</ele>
        <time>2024-09-19T12:08:54Z</time>
      </trkpt>
      <trkpt lat="46.16262" lon="4.79745">
        <ele>195.6</ele>
        <time>2024-09-19T12:08:55Z</time>
      </trkpt>
      <trkpt lat="46.16259" lon="4.79753">
        <ele>195.6</ele>
        <time>2024-09-19T12:08:56Z</time>
      </trkpt>
      <trkpt lat="46.16257" lon="4.79755">
        <ele>195.6</ele>
        <time>2024-09-19T12:08:57Z</time>
      </trkpt>
      <trkpt lat="46.16255" lon="4.79759">
        <ele>195.6</ele>
        <time>2024-09-19T12:08:58Z</time>
      </trkpt>
      <trkpt lat="46.16253" lon="4.79761">
        <ele>195.6</ele>
        <time>2024-09-19T12:08:59Z</time>
      </trkpt>
      <trkpt lat="46.16251" lon="4.79761">
        <ele>195.6</ele>
        <time>2024-09-19T12:09:00Z</time>
      </trkpt>
      <trkpt lat="46.1625" lon="4.79758">
        <ele>195.6</ele>
        <time>2024-09-19T12:09:01Z</time>
      </trkpt>
      <trkpt lat="46.1625" lon="4.79757">
        <ele>195.6</ele>
        <time>2024-09-19T12:09:02Z</time>
      </trkpt>
      <trkpt lat="46.16251" lon="4.79755">
        <ele>195.4</ele>
        <time>2024-09-19T12:09:03Z</time>
      </trkpt>
      <trkpt lat="46.16252" lon="4.79752">
        <ele>195.4</ele>
        <time>2024-09-19T12:09:04Z</time>
      </trkpt>
      <trkpt lat="46.16254" lon="4.7975">
        <ele>195.4</ele>
        <time>2024-09-19T12:09:05Z</time>
      </trkpt>
      <trkpt lat="46.16255" lon="4.79747">
        <ele>195.4</ele>
        <time>2024-09-19T12:09:06Z</time>
      </trkpt>
      <trkpt lat="46.16257" lon="4.79746">
        <ele>195.4</ele>
        <time>2024-09-19T12:09:07Z</time>
      </trkpt>
      <trkpt lat="46.16258" lon="4.79748">
        <ele>195.4</ele>
        <time>2024-09-19T12:09:08Z</time>
      </trkpt>
      <trkpt lat="46.16259" lon="4.79751">
        <ele>195.4</ele>
        <time>2024-09-19T12:09:09Z</time>
      </trkpt>
      <trkpt lat="46.16259" lon="4.79754">
        <ele>195.4</ele>
        <time>2024-09-19T12:09:10Z</time>
      </trkpt>
      <trkpt lat="46.16258" lon="4.79756">
        <ele>195.4</ele>
        <time>2024-09-19T12:09:11Z</time>
      </trkpt>
      <trkpt lat="46.16257" lon="4.79759">
        <ele>195.2</ele>
        <time>2024-09-19T12:09:12Z</time>
      </trkpt>
      <trkpt lat="46.16254" lon="4.79762">
        <ele>195.2</ele>
        <time>2024-09-19T12:09:13Z</time>
      </trkpt>
      <trkpt lat="46.16252" lon="4.79766">
        <ele>195.2</ele>
        <time>2024-09-19T12:09:14Z</time>
      </trkpt>
      <trkpt lat="46.16248" lon="4.79773">
        <ele>195.2</ele>
        <time>2024-09-19T12:09:15Z</time>
      </trkpt>
      <trkpt lat="46.16247" lon="4.79776">
        <ele>195.4</ele>
        <time>2024-09-19T12:09:16Z</time>
      </trkpt>
      <trkpt lat="46.16244" lon="4.79781">
        <ele>195.4</ele>
        <time>2024-09-19T12:09:17Z</time>
      </trkpt>
      <trkpt lat="46.16241" lon="4.79787">
        <ele>195.4</ele>
        <time>2024-09-19T12:09:18Z</time>
      </trkpt>
      <trkpt lat="46.16238" lon="4.79792">
        <ele>195.4</ele>
        <time>2024-09-19T12:09:19Z</time>
      </trkpt>
      <trkpt lat="46.16235" lon="4.79797">
        <ele>195.4</ele>
        <time>2024-09-19T12:09:20Z</time>
      </trkpt>
      <trkpt lat="46.16232" lon="4.79803">
        <ele>195.6</ele>
        <time>2024-09-19T12:09:21Z</time>
      </trkpt>
      <trkpt lat="46.16228" lon="4.7981">
        <ele>195.6</ele>
        <time>2024-09-19T12:09:22Z</time>
      </trkpt>
      <trkpt lat="46.16227" lon="4.79813">
        <ele>195.6</ele>
        <time>2024-09-19T12:09:23Z</time>
      </trkpt>
      <trkpt lat="46.16224" lon="4.79819">
        <ele>195.6</ele>
        <time>2024-09-19T12:09:24Z</time>
      </trkpt>
      <trkpt lat="46.16221" lon="4.79824">
        <ele>195.6</ele>
        <time>2024-09-19T12:09:25Z</time>
      </trkpt>
      <trkpt lat="46.16216" lon="4.79833">
        <ele>195.8</ele>
        <time>2024-09-19T12:09:26Z</time>
      </trkpt>
      <trkpt lat="46.16215" lon="4.79835">
        <ele>195.8</ele>
        <time>2024-09-19T12:09:27Z</time>
      </trkpt>
      <trkpt lat="46.16212" lon="4.79841">
        <ele>195.8</ele>
        <time>2024-09-19T12:09:28Z</time>
      </trkpt>
      <trkpt lat="46.16209" lon="4.79846">
        <ele>195.6</ele>
        <time>2024-09-19T12:09:29Z</time>
      </trkpt>
      <trkpt lat="46.16205" lon="4.79852">
        <ele>195.6</ele>
        <time>2024-09-19T12:09:30Z</time>
      </trkpt>
      <trkpt lat="46.16202" lon="4.79858">
        <ele>195.6</ele>
        <time>2024-09-19T12:09:31Z</time>
      </trkpt>
      <trkpt lat="46.16199" lon="4.79863">
        <ele>195.6</ele>
        <time>2024-09-19T12:09:32Z</time>
      </trkpt>
      <trkpt lat="46.16196" lon="4.79869">
        <ele>195.6</ele>
        <time>2024-09-19T12:09:33Z</time>
      </trkpt>
      <trkpt lat="46.16191" lon="4.79878">
        <ele>195.6</ele>
        <time>2024-09-19T12:09:34Z</time>
      </trkpt>
      <trkpt lat="46.16189" lon="4.79881">
        <ele>195.4</ele>
        <time>2024-09-19T12:09:35Z</time>
      </trkpt>
      <trkpt lat="46.16185" lon="4.79889">
        <ele>195.4</ele>
        <time>2024-09-19T12:09:36Z</time>
      </trkpt>
      <trkpt lat="46.16183" lon="4.79892">
        <ele>195.4</ele>
        <time>2024-09-19T12:09:37Z</time>
      </trkpt>
      <trkpt lat="46.1618" lon="4.79898">
        <ele>195.4</ele>
        <time>2024-09-19T12:09:38Z</time>
      </trkpt>
      <trkpt lat="46.16177" lon="4.79904">
        <ele>195.4</ele>
        <time>2024-09-19T12:09:39Z</time>
      </trkpt>
      <trkpt lat="46.16174" lon="4.7991">
        <ele>195.4</ele>
        <time>2024-09-19T12:09:40Z</time>
      </trkpt>
      <trkpt lat="46.1617" lon="4.79916">
        <ele>195.4</ele>
        <time>2024-09-19T12:09:41Z</time>
      </trkpt>
      <trkpt lat="46.16167" lon="4.79921">
        <ele>195.4</ele>
        <time>2024-09-19T12:09:42Z</time>
      </trkpt>
      <trkpt lat="46.16164" lon="4.79927">
        <ele>195.4</ele>
        <time>2024-09-19T12:09:43Z</time>
      </trkpt>
      <trkpt lat="46.1616" lon="4.79936">
        <ele>195.4</ele>
        <time>2024-09-19T12:09:44Z</time>
      </trkpt>
      <trkpt lat="46.16158" lon="4.79939">
        <ele>195.4</ele>
        <time>2024-09-19T12:09:45Z</time>
      </trkpt>
      <trkpt lat="46.16154" lon="4.79948">
        <ele>195.4</ele>
        <time>2024-09-19T12:09:46Z</time>
      </trkpt>
      <trkpt lat="46.16152" lon="4.79951">
        <ele>195.4</ele>
        <time>2024-09-19T12:09:47Z</time>
      </trkpt>
      <trkpt lat="46.16149" lon="4.79957">
        <ele>195.4</ele>
        <time>2024-09-19T12:09:48Z</time>
      </trkpt>
      <trkpt lat="46.16146" lon="4.79962">
        <ele>195.4</ele>
        <time>2024-09-19T12:09:49Z</time>
      </trkpt>
      <trkpt lat="46.16142" lon="4.79968">
        <ele>195.4</ele>
        <time>2024-09-19T12:09:50Z</time>
      </trkpt>
      <trkpt lat="46.16139" lon="4.79973">
        <ele>195.4</ele>
        <time>2024-09-19T12:09:51Z</time>
      </trkpt>
      <trkpt lat="46.16136" lon="4.79979">
        <ele>195.2</ele>
        <time>2024-09-19T12:09:52Z</time>
      </trkpt>
      <trkpt lat="46.16133" lon="4.79985">
        <ele>195.2</ele>
        <time>2024-09-19T12:09:53Z</time>
      </trkpt>
      <trkpt lat="46.16129" lon="4.79993">
        <ele>195.2</ele>
        <time>2024-09-19T12:09:54Z</time>
      </trkpt>
      <trkpt lat="46.16127" lon="4.79996">
        <ele>195.2</ele>
        <time>2024-09-19T12:09:55Z</time>
      </trkpt>
      <trkpt lat="46.16124" lon="4.80001">
        <ele>195.2</ele>
        <time>2024-09-19T12:09:56Z</time>
      </trkpt>
      <trkpt lat="46.1612" lon="4.8001">
        <ele>195.2</ele>
        <time>2024-09-19T12:09:57Z</time>
      </trkpt>
      <trkpt lat="46.16119" lon="4.80013">
        <ele>195.2</ele>
        <time>2024-09-19T12:09:58Z</time>
      </trkpt>
      <trkpt lat="46.16114" lon="4.80021">
        <ele>195.2</ele>
        <time>2024-09-19T12:09:59Z</time>
      </trkpt>
      <trkpt lat="46.16113" lon="4.80024">
        <ele>195.2</ele>
        <time>2024-09-19T12:10:00Z</time>
      </trkpt>
      <trkpt lat="46.1611" lon="4.8003">
        <ele>195.2</ele>
        <time>2024-09-19T12:10:01Z</time>
      </trkpt>
      <trkpt lat="46.16107" lon="4.80036">
        <ele>194.8</ele>
        <time>2024-09-19T12:10:02Z</time>
      </trkpt>
      <trkpt lat="46.16104" lon="4.80041">
        <ele>194.8</ele>
        <time>2024-09-19T12:10:03Z</time>
      </trkpt>
      <trkpt lat="46.161" lon="4.80049">
        <ele>194.8</ele>
        <time>2024-09-19T12:10:04Z</time>
      </trkpt>
      <trkpt lat="46.16098" lon="4.80052">
        <ele>194.8</ele>
        <time>2024-09-19T12:10:05Z</time>
      </trkpt>
      <trkpt lat="46.16095" lon="4.80057">
        <ele>195.2</ele>
        <time>2024-09-19T12:10:06Z</time>
      </trkpt>
      <trkpt lat="46.16091" lon="4.80064">
        <ele>195.4</ele>
        <time>2024-09-19T12:10:07Z</time>
      </trkpt>
      <trkpt lat="46.1609" lon="4.80067">
        <ele>195.4</ele>
        <time>2024-09-19T12:10:08Z</time>
      </trkpt>
      <trkpt lat="46.16087" lon="4.80072">
        <ele>195.4</ele>
        <time>2024-09-19T12:10:09Z</time>
      </trkpt>
      <trkpt lat="46.16084" lon="4.80077">
        <ele>195.4</ele>
        <time>2024-09-19T12:10:10Z</time>
      </trkpt>
      <trkpt lat="46.1608" lon="4.80084">
        <ele>195.4</ele>
        <time>2024-09-19T12:10:11Z</time>
      </trkpt>
      <trkpt lat="46.16078" lon="4.80087">
        <ele>195.4</ele>
        <time>2024-09-19T12:10:12Z</time>
      </trkpt>
      <trkpt lat="46.16074" lon="4.80094">
        <ele>195.4</ele>
        <time>2024-09-19T12:10:13Z</time>
      </trkpt>
      <trkpt lat="46.16072" lon="4.80097">
        <ele>195.4</ele>
        <time>2024-09-19T12:10:14Z</time>
      </trkpt>
      <trkpt lat="46.16067" lon="4.80103">
        <ele>195.4</ele>
        <time>2024-09-19T12:10:15Z</time>
      </trkpt>
      <trkpt lat="46.16065" lon="4.80105">
        <ele>195.8</ele>
        <time>2024-09-19T12:10:16Z</time>
      </trkpt>
      <trkpt lat="46.16062" lon="4.80109">
        <ele>195.8</ele>
        <time>2024-09-19T12:10:17Z</time>
      </trkpt>
      <trkpt lat="46.16056" lon="4.80115">
        <ele>195.8</ele>
        <time>2024-09-19T12:10:18Z</time>
      </trkpt>
      <trkpt lat="46.16054" lon="4.80117">
        <ele>195.8</ele>
        <time>2024-09-19T12:10:19Z</time>
      </trkpt>
      <trkpt lat="46.16051" lon="4.80121">
        <ele>195.4</ele>
        <time>2024-09-19T12:10:20Z</time>
      </trkpt>
      <trkpt lat="46.16048" lon="4.80125">
        <ele>195.4</ele>
        <time>2024-09-19T12:10:21Z</time>
      </trkpt>
      <trkpt lat="46.16045" lon="4.8013">
        <ele>195.4</ele>
        <time>2024-09-19T12:10:22Z</time>
      </trkpt>
      <trkpt lat="46.16042" lon="4.80134">
        <ele>195.4</ele>
        <time>2024-09-19T12:10:23Z</time>
      </trkpt>
      <trkpt lat="46.16039" lon="4.80139">
        <ele>195.6</ele>
        <time>2024-09-19T12:10:24Z</time>
      </trkpt>
      <trkpt lat="46.16036" lon="4.80144">
        <ele>195.6</ele>
        <time>2024-09-19T12:10:25Z</time>
      </trkpt>
      <trkpt lat="46.16032" lon="4.80151">
        <ele>195.6</ele>
        <time>2024-09-19T12:10:26Z</time>
      </trkpt>
      <trkpt lat="46.16031" lon="4.80153">
        <ele>195.6</ele>
        <time>2024-09-19T12:10:27Z</time>
      </trkpt>
      <trkpt lat="46.16026" lon="4.80161">
        <ele>195.8</ele>
        <time>2024-09-19T12:10:28Z</time>
      </trkpt>
      <trkpt lat="46.16024" lon="4.80163">
        <ele>195.6</ele>
        <time>2024-09-19T12:10:29Z</time>
      </trkpt>
      <trkpt lat="46.1602" lon="4.80171">
        <ele>195.6</ele>
        <time>2024-09-19T12:10:30Z</time>
      </trkpt>
      <trkpt lat="46.16018" lon="4.80173">
        <ele>195.6</ele>
        <time>2024-09-19T12:10:31Z</time>
      </trkpt>
      <trkpt lat="46.16016" lon="4.80178">
        <ele>195.6</ele>
        <time>2024-09-19T12:10:32Z</time>
      </trkpt>
      <trkpt lat="46.16012" lon="4.80183">
        <ele>195.6</ele>
        <time>2024-09-19T12:10:33Z</time>
      </trkpt>
      <trkpt lat="46.16009" lon="4.80188">
        <ele>195.6</ele>
        <time>2024-09-19T12:10:34Z</time>
      </trkpt>
      <trkpt lat="46.16007" lon="4.80193">
        <ele>195.6</ele>
        <time>2024-09-19T12:10:35Z</time>
      </trkpt>
      <trkpt lat="46.16003" lon="4.80198">
        <ele>195.6</ele>
        <time>2024-09-19T12:10:36Z</time>
      </trkpt>
      <trkpt lat="46.15998" lon="4.80205">
        <ele>195.6</ele>
        <time>2024-09-19T12:10:37Z</time>
      </trkpt>
      <trkpt lat="46.15997" lon="4.80207">
        <ele>195.4</ele>
        <time>2024-09-19T12:10:38Z</time>
      </trkpt>
      <trkpt lat="46.15993" lon="4.80211">
        <ele>195.4</ele>
        <time>2024-09-19T12:10:39Z</time>
      </trkpt>
      <trkpt lat="46.15988" lon="4.80218">
        <ele>195.4</ele>
        <time>2024-09-19T12:10:40Z</time>
      </trkpt>
      <trkpt lat="46.15987" lon="4.80221">
        <ele>195.4</ele>
        <time>2024-09-19T12:10:41Z</time>
      </trkpt>
      <trkpt lat="46.15984" lon="4.80225">
        <ele>195.2</ele>
        <time>2024-09-19T12:10:42Z</time>
      </trkpt>
      <trkpt lat="46.1598" lon="4.8023">
        <ele>195.2</ele>
        <time>2024-09-19T12:10:43Z</time>
      </trkpt>
      <trkpt lat="46.15977" lon="4.80235">
        <ele>195.2</ele>
        <time>2024-09-19T12:10:44Z</time>
      </trkpt>
      <trkpt lat="46.15974" lon="4.80239">
        <ele>195.2</ele>
        <time>2024-09-19T12:10:45Z</time>
      </trkpt>
      <trkpt lat="46.1597" lon="4.80244">
        <ele>195.2</ele>
        <time>2024-09-19T12:10:46Z</time>
      </trkpt>
      <trkpt lat="46.15967" lon="4.80248">
        <ele>195.2</ele>
        <time>2024-09-19T12:10:47Z</time>
      </trkpt>
      <trkpt lat="46.15964" lon="4.80253">
        <ele>195.2</ele>
        <time>2024-09-19T12:10:48Z</time>
      </trkpt>
      <trkpt lat="46.15959" lon="4.8026">
        <ele>195.2</ele>
        <time>2024-09-19T12:10:49Z</time>
      </trkpt>
      <trkpt lat="46.15957" lon="4.80263">
        <ele>195.2</ele>
        <time>2024-09-19T12:10:50Z</time>
      </trkpt>
      <trkpt lat="46.15954" lon="4.80268">
        <ele>195.2</ele>
        <time>2024-09-19T12:10:51Z</time>
      </trkpt>
      <trkpt lat="46.15951" lon="4.80273">
        <ele>195</ele>
        <time>2024-09-19T12:10:52Z</time>
      </trkpt>
      <trkpt lat="46.15947" lon="4.80277">
        <ele>195</ele>
        <time>2024-09-19T12:10:53Z</time>
      </trkpt>
      <trkpt lat="46.15944" lon="4.80282">
        <ele>195</ele>
        <time>2024-09-19T12:10:54Z</time>
      </trkpt>
      <trkpt lat="46.15939" lon="4.80288">
        <ele>195</ele>
        <time>2024-09-19T12:10:55Z</time>
      </trkpt>
      <trkpt lat="46.15937" lon="4.80291">
        <ele>195</ele>
        <time>2024-09-19T12:10:56Z</time>
      </trkpt>
      <trkpt lat="46.15932" lon="4.80298">
        <ele>195</ele>
        <time>2024-09-19T12:10:57Z</time>
      </trkpt>
      <trkpt lat="46.1593" lon="4.803">
        <ele>195</ele>
        <time>2024-09-19T12:10:58Z</time>
      </trkpt>
      <trkpt lat="46.15925" lon="4.80307">
        <ele>195</ele>
        <time>2024-09-19T12:10:59Z</time>
      </trkpt>
      <trkpt lat="46.15923" lon="4.80309">
        <ele>195</ele>
        <time>2024-09-19T12:11:00Z</time>
      </trkpt>
      <trkpt lat="46.15919" lon="4.80315">
        <ele>195</ele>
        <time>2024-09-19T12:11:01Z</time>
      </trkpt>
      <trkpt lat="46.15917" lon="4.80317">
        <ele>195</ele>
        <time>2024-09-19T12:11:02Z</time>
      </trkpt>
      <trkpt lat="46.15914" lon="4.80321">
        <ele>195</ele>
        <time>2024-09-19T12:11:03Z</time>
      </trkpt>
      <trkpt lat="46.1591" lon="4.80325">
        <ele>194.8</ele>
        <time>2024-09-19T12:11:04Z</time>
      </trkpt>
      <trkpt lat="46.15907" lon="4.80329">
        <ele>194.4</ele>
        <time>2024-09-19T12:11:05Z</time>
      </trkpt>
      <trkpt lat="46.15904" lon="4.80333">
        <ele>194.4</ele>
        <time>2024-09-19T12:11:06Z</time>
      </trkpt>
      <trkpt lat="46.159" lon="4.80337">
        <ele>194.4</ele>
        <time>2024-09-19T12:11:07Z</time>
      </trkpt>
      <trkpt lat="46.15895" lon="4.80343">
        <ele>195</ele>
        <time>2024-09-19T12:11:08Z</time>
      </trkpt>
      <trkpt lat="46.15894" lon="4.80345">
        <ele>195</ele>
        <time>2024-09-19T12:11:09Z</time>
      </trkpt>
      <trkpt lat="46.15889" lon="4.80352">
        <ele>195.4</ele>
        <time>2024-09-19T12:11:10Z</time>
      </trkpt>
      <trkpt lat="46.15887" lon="4.80354">
        <ele>195.4</ele>
        <time>2024-09-19T12:11:11Z</time>
      </trkpt>
      <trkpt lat="46.15882" lon="4.80359">
        <ele>195.4</ele>
        <time>2024-09-19T12:11:12Z</time>
      </trkpt>
      <trkpt lat="46.1588" lon="4.80361">
        <ele>195.4</ele>
        <time>2024-09-19T12:11:13Z</time>
      </trkpt>
      <trkpt lat="46.15875" lon="4.80367">
        <ele>195</ele>
        <time>2024-09-19T12:11:14Z</time>
      </trkpt>
      <trkpt lat="46.15873" lon="4.80369">
        <ele>195</ele>
        <time>2024-09-19T12:11:15Z</time>
      </trkpt>
      <trkpt lat="46.1587" lon="4.80372">
        <ele>195</ele>
        <time>2024-09-19T12:11:16Z</time>
      </trkpt>
      <trkpt lat="46.15866" lon="4.80375">
        <ele>195.2</ele>
        <time>2024-09-19T12:11:17Z</time>
      </trkpt>
      <trkpt lat="46.15863" lon="4.80379">
        <ele>195</ele>
        <time>2024-09-19T12:11:18Z</time>
      </trkpt>
      <trkpt lat="46.15858" lon="4.80385">
        <ele>195</ele>
        <time>2024-09-19T12:11:19Z</time>
      </trkpt>
      <trkpt lat="46.15856" lon="4.80387">
        <ele>195</ele>
        <time>2024-09-19T12:11:20Z</time>
      </trkpt>
      <trkpt lat="46.15852" lon="4.80391">
        <ele>195</ele>
        <time>2024-09-19T12:11:21Z</time>
      </trkpt>
      <trkpt lat="46.15847" lon="4.80396">
        <ele>195</ele>
        <time>2024-09-19T12:11:22Z</time>
      </trkpt>
      <trkpt lat="46.15845" lon="4.80397">
        <ele>195</ele>
        <time>2024-09-19T12:11:23Z</time>
      </trkpt>
      <trkpt lat="46.15842" lon="4.80401">
        <ele>195</ele>
        <time>2024-09-19T12:11:24Z</time>
      </trkpt>
      <trkpt lat="46.15838" lon="4.80404">
        <ele>195</ele>
        <time>2024-09-19T12:11:25Z</time>
      </trkpt>
      <trkpt lat="46.15834" lon="4.80407">
        <ele>195</ele>
        <time>2024-09-19T12:11:26Z</time>
      </trkpt>
      <trkpt lat="46.1583" lon="4.80411">
        <ele>195</ele>
        <time>2024-09-19T12:11:27Z</time>
      </trkpt>
      <trkpt lat="46.15826" lon="4.80414">
        <ele>195</ele>
        <time>2024-09-19T12:11:28Z</time>
      </trkpt>
      <trkpt lat="46.1582" lon="4.80419">
        <ele>195</ele>
        <time>2024-09-19T12:11:29Z</time>
      </trkpt>
      <trkpt lat="46.15818" lon="4.8042">
        <ele>195</ele>
        <time>2024-09-19T12:11:30Z</time>
      </trkpt>
      <trkpt lat="46.15814" lon="4.80424">
        <ele>195</ele>
        <time>2024-09-19T12:11:31Z</time>
      </trkpt>
      <trkpt lat="46.15807" lon="4.80428">
        <ele>195.2</ele>
        <time>2024-09-19T12:11:32Z</time>
      </trkpt>
      <trkpt lat="46.15805" lon="4.80429">
        <ele>195.2</ele>
        <time>2024-09-19T12:11:33Z</time>
      </trkpt>
      <trkpt lat="46.15801" lon="4.80432">
        <ele>195.2</ele>
        <time>2024-09-19T12:11:34Z</time>
      </trkpt>
      <trkpt lat="46.15797" lon="4.80435">
        <ele>195.2</ele>
        <time>2024-09-19T12:11:35Z</time>
      </trkpt>
      <trkpt lat="46.15792" lon="4.80438">
        <ele>195.2</ele>
        <time>2024-09-19T12:11:36Z</time>
      </trkpt>
      <trkpt lat="46.15788" lon="4.80441">
        <ele>195.2</ele>
        <time>2024-09-19T12:11:37Z</time>
      </trkpt>
      <trkpt lat="46.15781" lon="4.80443">
        <ele>195.2</ele>
        <time>2024-09-19T12:11:38Z</time>
      </trkpt>
      <trkpt lat="46.15779" lon="4.80444">
        <ele>195.2</ele>
        <time>2024-09-19T12:11:39Z</time>
      </trkpt>
      <trkpt lat="46.15772" lon="4.80446">
        <ele>195.2</ele>
        <time>2024-09-19T12:11:40Z</time>
      </trkpt>
      <trkpt lat="46.15769" lon="4.80446">
        <ele>195.2</ele>
        <time>2024-09-19T12:11:41Z</time>
      </trkpt>
      <trkpt lat="46.15765" lon="4.80447">
        <ele>195.2</ele>
        <time>2024-09-19T12:11:42Z</time>
      </trkpt>
      <trkpt lat="46.1576" lon="4.80448">
        <ele>195.2</ele>
        <time>2024-09-19T12:11:43Z</time>
      </trkpt>
      <trkpt lat="46.15755" lon="4.80449">
        <ele>195.2</ele>
        <time>2024-09-19T12:11:44Z</time>
      </trkpt>
      <trkpt lat="46.1575" lon="4.8045">
        <ele>195.2</ele>
        <time>2024-09-19T12:11:45Z</time>
      </trkpt>
      <trkpt lat="46.15746" lon="4.80451">
        <ele>195.2</ele>
        <time>2024-09-19T12:11:46Z</time>
      </trkpt>
      <trkpt lat="46.15742" lon="4.80451">
        <ele>195.2</ele>
        <time>2024-09-19T12:11:47Z</time>
      </trkpt>
      <trkpt lat="46.15737" lon="4.80452">
        <ele>195.2</ele>
        <time>2024-09-19T12:11:48Z</time>
      </trkpt>
      <trkpt lat="46.15733" lon="4.80453">
        <ele>195.2</ele>
        <time>2024-09-19T12:11:49Z</time>
      </trkpt>
      <trkpt lat="46.15728" lon="4.80454">
        <ele>195.4</ele>
        <time>2024-09-19T12:11:50Z</time>
      </trkpt>
      <trkpt lat="46.15721" lon="4.80456">
        <ele>195.4</ele>
        <time>2024-09-19T12:11:51Z</time>
      </trkpt>
      <trkpt lat="46.15719" lon="4.80457">
        <ele>195.4</ele>
        <time>2024-09-19T12:11:52Z</time>
      </trkpt>
      <trkpt lat="46.15711" lon="4.80459">
        <ele>195.4</ele>
        <time>2024-09-19T12:11:53Z</time>
      </trkpt>
      <trkpt lat="46.15709" lon="4.8046">
        <ele>195.4</ele>
        <time>2024-09-19T12:11:54Z</time>
      </trkpt>
      <trkpt lat="46.15702" lon="4.80461">
        <ele>195.4</ele>
        <time>2024-09-19T12:11:55Z</time>
      </trkpt>
      <trkpt lat="46.157" lon="4.80462">
        <ele>195.4</ele>
        <time>2024-09-19T12:11:56Z</time>
      </trkpt>
      <trkpt lat="46.15695" lon="4.80462">
        <ele>195.4</ele>
        <time>2024-09-19T12:11:57Z</time>
      </trkpt>
      <trkpt lat="46.1569" lon="4.80463">
        <ele>195.4</ele>
        <time>2024-09-19T12:11:58Z</time>
      </trkpt>
      <trkpt lat="46.15686" lon="4.80464">
        <ele>195.4</ele>
        <time>2024-09-19T12:11:59Z</time>
      </trkpt>
      <trkpt lat="46.15681" lon="4.80464">
        <ele>195.4</ele>
        <time>2024-09-19T12:12:00Z</time>
      </trkpt>
      <trkpt lat="46.15676" lon="4.80465">
        <ele>195.4</ele>
        <time>2024-09-19T12:12:01Z</time>
      </trkpt>
      <trkpt lat="46.15668" lon="4.80467">
        <ele>195.4</ele>
        <time>2024-09-19T12:12:02Z</time>
      </trkpt>
      <trkpt lat="46.15666" lon="4.80467">
        <ele>195</ele>
        <time>2024-09-19T12:12:03Z</time>
      </trkpt>
      <trkpt lat="46.15661" lon="4.80469">
        <ele>195</ele>
        <time>2024-09-19T12:12:04Z</time>
      </trkpt>
      <trkpt lat="46.15654" lon="4.80471">
        <ele>195</ele>
        <time>2024-09-19T12:12:05Z</time>
      </trkpt>
      <trkpt lat="46.15651" lon="4.80472">
        <ele>195</ele>
        <time>2024-09-19T12:12:06Z</time>
      </trkpt>
      <trkpt lat="46.15647" lon="4.80473">
        <ele>195</ele>
        <time>2024-09-19T12:12:07Z</time>
      </trkpt>
      <trkpt lat="46.15642" lon="4.80474">
        <ele>195</ele>
        <time>2024-09-19T12:12:08Z</time>
      </trkpt>
      <trkpt lat="46.15638" lon="4.80475">
        <ele>195.2</ele>
        <time>2024-09-19T12:12:09Z</time>
      </trkpt>
      <trkpt lat="46.15634" lon="4.80476">
        <ele>195.2</ele>
        <time>2024-09-19T12:12:10Z</time>
      </trkpt>
      <trkpt lat="46.15629" lon="4.80478">
        <ele>195.2</ele>
        <time>2024-09-19T12:12:11Z</time>
      </trkpt>
      <trkpt lat="46.15624" lon="4.80479">
        <ele>195.2</ele>
        <time>2024-09-19T12:12:12Z</time>
      </trkpt>
      <trkpt lat="46.15619" lon="4.80481">
        <ele>195.2</ele>
        <time>2024-09-19T12:12:13Z</time>
      </trkpt>
      <trkpt lat="46.15612" lon="4.80484">
        <ele>195.2</ele>
        <time>2024-09-19T12:12:14Z</time>
      </trkpt>
      <trkpt lat="46.1561" lon="4.80484">
        <ele>195.2</ele>
        <time>2024-09-19T12:12:15Z</time>
      </trkpt>
      <trkpt lat="46.15606" lon="4.80486">
        <ele>195.2</ele>
        <time>2024-09-19T12:12:16Z</time>
      </trkpt>
      <trkpt lat="46.15599" lon="4.80488">
        <ele>195.4</ele>
        <time>2024-09-19T12:12:17Z</time>
      </trkpt>
      <trkpt lat="46.15596" lon="4.80489">
        <ele>195.4</ele>
        <time>2024-09-19T12:12:18Z</time>
      </trkpt>
      <trkpt lat="46.15592" lon="4.80491">
        <ele>195.4</ele>
        <time>2024-09-19T12:12:19Z</time>
      </trkpt>
      <trkpt lat="46.15587" lon="4.80493">
        <ele>195.4</ele>
        <time>2024-09-19T12:12:20Z</time>
      </trkpt>
      <trkpt lat="46.15581" lon="4.80496">
        <ele>195.2</ele>
        <time>2024-09-19T12:12:21Z</time>
      </trkpt>
      <trkpt lat="46.15578" lon="4.80497">
        <ele>195.4</ele>
        <time>2024-09-19T12:12:22Z</time>
      </trkpt>
      <trkpt lat="46.15571" lon="4.805">
        <ele>195.4</ele>
        <time>2024-09-19T12:12:23Z</time>
      </trkpt>
      <trkpt lat="46.15569" lon="4.80501">
        <ele>195.4</ele>
        <time>2024-09-19T12:12:24Z</time>
      </trkpt>
      <trkpt lat="46.15563" lon="4.80504">
        <ele>195.4</ele>
        <time>2024-09-19T12:12:25Z</time>
      </trkpt>
      <trkpt lat="46.15561" lon="4.80504">
        <ele>195.4</ele>
        <time>2024-09-19T12:12:26Z</time>
      </trkpt>
      <trkpt lat="46.15554" lon="4.80507">
        <ele>195.4</ele>
        <time>2024-09-19T12:12:27Z</time>
      </trkpt>
      <trkpt lat="46.15552" lon="4.80507">
        <ele>195.4</ele>
        <time>2024-09-19T12:12:28Z</time>
      </trkpt>
      <trkpt lat="46.15545" lon="4.80511">
        <ele>195.4</ele>
        <time>2024-09-19T12:12:29Z</time>
      </trkpt>
      <trkpt lat="46.15543" lon="4.80512">
        <ele>195</ele>
        <time>2024-09-19T12:12:30Z</time>
      </trkpt>
      <trkpt lat="46.15536" lon="4.80514">
        <ele>195</ele>
        <time>2024-09-19T12:12:31Z</time>
      </trkpt>
      <trkpt lat="46.15534" lon="4.80514">
        <ele>195</ele>
        <time>2024-09-19T12:12:32Z</time>
      </trkpt>
      <trkpt lat="46.15527" lon="4.80516">
        <ele>195</ele>
        <time>2024-09-19T12:12:33Z</time>
      </trkpt>
      <trkpt lat="46.15525" lon="4.80516">
        <ele>195</ele>
        <time>2024-09-19T12:12:34Z</time>
      </trkpt>
      <trkpt lat="46.15521" lon="4.80518">
        <ele>195.2</ele>
        <time>2024-09-19T12:12:35Z</time>
      </trkpt>
      <trkpt lat="46.15514" lon="4.80519">
        <ele>195.2</ele>
        <time>2024-09-19T12:12:36Z</time>
      </trkpt>
      <trkpt lat="46.15512" lon="4.8052">
        <ele>195.2</ele>
        <time>2024-09-19T12:12:37Z</time>
      </trkpt>
      <trkpt lat="46.15506" lon="4.80521">
        <ele>195.2</ele>
        <time>2024-09-19T12:12:38Z</time>
      </trkpt>
      <trkpt lat="46.15503" lon="4.80522">
        <ele>195</ele>
        <time>2024-09-19T12:12:39Z</time>
      </trkpt>
      <trkpt lat="46.15496" lon="4.80523">
        <ele>195</ele>
        <time>2024-09-19T12:12:40Z</time>
      </trkpt>
      <trkpt lat="46.15494" lon="4.80523">
        <ele>195</ele>
        <time>2024-09-19T12:12:41Z</time>
      </trkpt>
      <trkpt lat="46.1549" lon="4.80524">
        <ele>195</ele>
        <time>2024-09-19T12:12:42Z</time>
      </trkpt>
      <trkpt lat="46.15485" lon="4.80524">
        <ele>195</ele>
        <time>2024-09-19T12:12:43Z</time>
      </trkpt>
      <trkpt lat="46.15481" lon="4.80525">
        <ele>195</ele>
        <time>2024-09-19T12:12:44Z</time>
      </trkpt>
      <trkpt lat="46.15477" lon="4.80525">
        <ele>195</ele>
        <time>2024-09-19T12:12:45Z</time>
      </trkpt>
      <trkpt lat="46.15472" lon="4.80525">
        <ele>195</ele>
        <time>2024-09-19T12:12:46Z</time>
      </trkpt>
      <trkpt lat="46.15466" lon="4.80524">
        <ele>195.2</ele>
        <time>2024-09-19T12:12:47Z</time>
      </trkpt>
      <trkpt lat="46.15464" lon="4.80524">
        <ele>195.2</ele>
        <time>2024-09-19T12:12:48Z</time>
      </trkpt>
      <trkpt lat="46.15459" lon="4.80524">
        <ele>195.2</ele>
        <time>2024-09-19T12:12:49Z</time>
      </trkpt>
      <trkpt lat="46.15452" lon="4.80523">
        <ele>195.2</ele>
        <time>2024-09-19T12:12:50Z</time>
      </trkpt>
      <trkpt lat="46.1545" lon="4.80523">
        <ele>195.2</ele>
        <time>2024-09-19T12:12:51Z</time>
      </trkpt>
      <trkpt lat="46.15445" lon="4.80523">
        <ele>195.2</ele>
        <time>2024-09-19T12:12:52Z</time>
      </trkpt>
      <trkpt lat="46.15441" lon="4.80522">
        <ele>195</ele>
        <time>2024-09-19T12:12:53Z</time>
      </trkpt>
      <trkpt lat="46.15436" lon="4.80522">
        <ele>195</ele>
        <time>2024-09-19T12:12:54Z</time>
      </trkpt>
      <trkpt lat="46.15431" lon="4.8052">
        <ele>195</ele>
        <time>2024-09-19T12:12:55Z</time>
      </trkpt>
      <trkpt lat="46.15426" lon="4.80519">
        <ele>195</ele>
        <time>2024-09-19T12:12:56Z</time>
      </trkpt>
      <trkpt lat="46.15419" lon="4.80517">
        <ele>195</ele>
        <time>2024-09-19T12:12:57Z</time>
      </trkpt>
      <trkpt lat="46.15417" lon="4.80517">
        <ele>195</ele>
        <time>2024-09-19T12:12:58Z</time>
      </trkpt>
      <trkpt lat="46.15413" lon="4.80516">
        <ele>195</ele>
        <time>2024-09-19T12:12:59Z</time>
      </trkpt>
      <trkpt lat="46.15406" lon="4.80515">
        <ele>195</ele>
        <time>2024-09-19T12:13:00Z</time>
      </trkpt>
      <trkpt lat="46.15404" lon="4.80514">
        <ele>195.4</ele>
        <time>2024-09-19T12:13:01Z</time>
      </trkpt>
      <trkpt lat="46.154" lon="4.80514">
        <ele>195.2</ele>
        <time>2024-09-19T12:13:02Z</time>
      </trkpt>
      <trkpt lat="46.15395" lon="4.80513">
        <ele>195.2</ele>
        <time>2024-09-19T12:13:03Z</time>
      </trkpt>
      <trkpt lat="46.15388" lon="4.8051">
        <ele>195.2</ele>
        <time>2024-09-19T12:13:04Z</time>
      </trkpt>
      <trkpt lat="46.15385" lon="4.80509">
        <ele>195.2</ele>
        <time>2024-09-19T12:13:05Z</time>
      </trkpt>
      <trkpt lat="46.15379" lon="4.80506">
        <ele>195.2</ele>
        <time>2024-09-19T12:13:06Z</time>
      </trkpt>
      <trkpt lat="46.15377" lon="4.80506">
        <ele>195</ele>
        <time>2024-09-19T12:13:07Z</time>
      </trkpt>
      <trkpt lat="46.15372" lon="4.80505">
        <ele>195</ele>
        <time>2024-09-19T12:13:08Z</time>
      </trkpt>
      <trkpt lat="46.15368" lon="4.80504">
        <ele>195</ele>
        <time>2024-09-19T12:13:09Z</time>
      </trkpt>
      <trkpt lat="46.15363" lon="4.80503">
        <ele>195</ele>
        <time>2024-09-19T12:13:10Z</time>
      </trkpt>
      <trkpt lat="46.15358" lon="4.80502">
        <ele>195.2</ele>
        <time>2024-09-19T12:13:11Z</time>
      </trkpt>
      <trkpt lat="46.15354" lon="4.80502">
        <ele>195.2</ele>
        <time>2024-09-19T12:13:12Z</time>
      </trkpt>
      <trkpt lat="46.15349" lon="4.80501">
        <ele>195.2</ele>
        <time>2024-09-19T12:13:13Z</time>
      </trkpt>
      <trkpt lat="46.15345" lon="4.805">
        <ele>195.2</ele>
        <time>2024-09-19T12:13:14Z</time>
      </trkpt>
      <trkpt lat="46.1534" lon="4.80499">
        <ele>195</ele>
        <time>2024-09-19T12:13:15Z</time>
      </trkpt>
      <trkpt lat="46.15336" lon="4.80498">
        <ele>195</ele>
        <time>2024-09-19T12:13:16Z</time>
      </trkpt>
      <trkpt lat="46.15331" lon="4.80496">
        <ele>195</ele>
        <time>2024-09-19T12:13:17Z</time>
      </trkpt>
      <trkpt lat="46.15324" lon="4.80494">
        <ele>195</ele>
        <time>2024-09-19T12:13:18Z</time>
      </trkpt>
      <trkpt lat="46.15321" lon="4.80493">
        <ele>195</ele>
        <time>2024-09-19T12:13:19Z</time>
      </trkpt>
      <trkpt lat="46.15314" lon="4.80491">
        <ele>195</ele>
        <time>2024-09-19T12:13:20Z</time>
      </trkpt>
      <trkpt lat="46.15312" lon="4.80491">
        <ele>195</ele>
        <time>2024-09-19T12:13:21Z</time>
      </trkpt>
      <trkpt lat="46.15305" lon="4.8049">
        <ele>194.8</ele>
        <time>2024-09-19T12:13:22Z</time>
      </trkpt>
      <trkpt lat="46.15303" lon="4.80489">
        <ele>194.8</ele>
        <time>2024-09-19T12:13:23Z</time>
      </trkpt>
      <trkpt lat="46.15296" lon="4.80487">
        <ele>194.8</ele>
        <time>2024-09-19T12:13:24Z</time>
      </trkpt>
      <trkpt lat="46.15294" lon="4.80486">
        <ele>194.8</ele>
        <time>2024-09-19T12:13:25Z</time>
      </trkpt>
      <trkpt lat="46.15289" lon="4.80485">
        <ele>194.8</ele>
        <time>2024-09-19T12:13:26Z</time>
      </trkpt>
      <trkpt lat="46.15284" lon="4.80484">
        <ele>194.8</ele>
        <time>2024-09-19T12:13:27Z</time>
      </trkpt>
      <trkpt lat="46.1528" lon="4.80483">
        <ele>195</ele>
        <time>2024-09-19T12:13:28Z</time>
      </trkpt>
      <trkpt lat="46.15273" lon="4.80481">
        <ele>195</ele>
        <time>2024-09-19T12:13:29Z</time>
      </trkpt>
      <trkpt lat="46.1527" lon="4.80481">
        <ele>195</ele>
        <time>2024-09-19T12:13:30Z</time>
      </trkpt>
      <trkpt lat="46.15264" lon="4.80478">
        <ele>195</ele>
        <time>2024-09-19T12:13:31Z</time>
      </trkpt>
      <trkpt lat="46.15261" lon="4.80477">
        <ele>195</ele>
        <time>2024-09-19T12:13:32Z</time>
      </trkpt>
      <trkpt lat="46.15254" lon="4.80475">
        <ele>194.8</ele>
        <time>2024-09-19T12:13:33Z</time>
      </trkpt>
      <trkpt lat="46.15252" lon="4.80475">
        <ele>194.8</ele>
        <time>2024-09-19T12:13:34Z</time>
      </trkpt>
      <trkpt lat="46.15247" lon="4.80473">
        <ele>194.8</ele>
        <time>2024-09-19T12:13:35Z</time>
      </trkpt>
      <trkpt lat="46.15243" lon="4.80472">
        <ele>194.8</ele>
        <time>2024-09-19T12:13:36Z</time>
      </trkpt>
      <trkpt lat="46.15239" lon="4.80471">
        <ele>194.8</ele>
        <time>2024-09-19T12:13:37Z</time>
      </trkpt>
      <trkpt lat="46.15234" lon="4.80469">
        <ele>195</ele>
        <time>2024-09-19T12:13:38Z</time>
      </trkpt>
      <trkpt lat="46.15229" lon="4.80468">
        <ele>195</ele>
        <time>2024-09-19T12:13:39Z</time>
      </trkpt>
      <trkpt lat="46.15222" lon="4.80466">
        <ele>195</ele>
        <time>2024-09-19T12:13:40Z</time>
      </trkpt>
      <trkpt lat="46.1522" lon="4.80466">
        <ele>195</ele>
        <time>2024-09-19T12:13:41Z</time>
      </trkpt>
      <trkpt lat="46.15215" lon="4.80465">
        <ele>194.8</ele>
        <time>2024-09-19T12:13:42Z</time>
      </trkpt>
      <trkpt lat="46.15211" lon="4.80463">
        <ele>194.8</ele>
        <time>2024-09-19T12:13:43Z</time>
      </trkpt>
      <trkpt lat="46.15206" lon="4.80462">
        <ele>194.8</ele>
        <time>2024-09-19T12:13:44Z</time>
      </trkpt>
      <trkpt lat="46.15202" lon="4.8046">
        <ele>194.8</ele>
        <time>2024-09-19T12:13:45Z</time>
      </trkpt>
      <trkpt lat="46.15195" lon="4.80457">
        <ele>195</ele>
        <time>2024-09-19T12:13:46Z</time>
      </trkpt>
      <trkpt lat="46.15193" lon="4.80456">
        <ele>195</ele>
        <time>2024-09-19T12:13:47Z</time>
      </trkpt>
      <trkpt lat="46.15186" lon="4.80454">
        <ele>195</ele>
        <time>2024-09-19T12:13:48Z</time>
      </trkpt>
      <trkpt lat="46.15184" lon="4.80454">
        <ele>195</ele>
        <time>2024-09-19T12:13:49Z</time>
      </trkpt>
      <trkpt lat="46.15177" lon="4.80452">
        <ele>195</ele>
        <time>2024-09-19T12:13:50Z</time>
      </trkpt>
      <trkpt lat="46.15175" lon="4.80451">
        <ele>194.8</ele>
        <time>2024-09-19T12:13:51Z</time>
      </trkpt>
      <trkpt lat="46.1517" lon="4.8045">
        <ele>194.8</ele>
        <time>2024-09-19T12:13:52Z</time>
      </trkpt>
      <trkpt lat="46.15165" lon="4.80448">
        <ele>194.8</ele>
        <time>2024-09-19T12:13:53Z</time>
      </trkpt>
      <trkpt lat="46.15161" lon="4.80447">
        <ele>194.8</ele>
        <time>2024-09-19T12:13:54Z</time>
      </trkpt>
      <trkpt lat="46.15157" lon="4.80446">
        <ele>195</ele>
        <time>2024-09-19T12:13:55Z</time>
      </trkpt>
      <trkpt lat="46.15152" lon="4.80444">
        <ele>195</ele>
        <time>2024-09-19T12:13:56Z</time>
      </trkpt>
      <trkpt lat="46.15148" lon="4.80443">
        <ele>195</ele>
        <time>2024-09-19T12:13:57Z</time>
      </trkpt>
      <trkpt lat="46.15143" lon="4.80441">
        <ele>195</ele>
        <time>2024-09-19T12:13:58Z</time>
      </trkpt>
      <trkpt lat="46.15139" lon="4.80439">
        <ele>195</ele>
        <time>2024-09-19T12:13:59Z</time>
      </trkpt>
      <trkpt lat="46.15132" lon="4.80437">
        <ele>195</ele>
        <time>2024-09-19T12:14:00Z</time>
      </trkpt>
      <trkpt lat="46.1513" lon="4.80436">
        <ele>195</ele>
        <time>2024-09-19T12:14:01Z</time>
      </trkpt>
      <trkpt lat="46.15123" lon="4.80434">
        <ele>195</ele>
        <time>2024-09-19T12:14:02Z</time>
      </trkpt>
      <trkpt lat="46.15121" lon="4.80433">
        <ele>195</ele>
        <time>2024-09-19T12:14:03Z</time>
      </trkpt>
      <trkpt lat="46.15114" lon="4.8043">
        <ele>195</ele>
        <time>2024-09-19T12:14:04Z</time>
      </trkpt>
      <trkpt lat="46.15112" lon="4.8043">
        <ele>195</ele>
        <time>2024-09-19T12:14:05Z</time>
      </trkpt>
      <trkpt lat="46.15108" lon="4.80428">
        <ele>195</ele>
        <time>2024-09-19T12:14:06Z</time>
      </trkpt>
      <trkpt lat="46.15103" lon="4.80427">
        <ele>195</ele>
        <time>2024-09-19T12:14:07Z</time>
      </trkpt>
      <trkpt lat="46.15099" lon="4.80425">
        <ele>195</ele>
        <time>2024-09-19T12:14:08Z</time>
      </trkpt>
      <trkpt lat="46.15095" lon="4.80423">
        <ele>195</ele>
        <time>2024-09-19T12:14:09Z</time>
      </trkpt>
      <trkpt lat="46.1509" lon="4.80421">
        <ele>195</ele>
        <time>2024-09-19T12:14:10Z</time>
      </trkpt>
      <trkpt lat="46.15086" lon="4.80419">
        <ele>195</ele>
        <time>2024-09-19T12:14:11Z</time>
      </trkpt>
      <trkpt lat="46.15081" lon="4.80417">
        <ele>195</ele>
        <time>2024-09-19T12:14:12Z</time>
      </trkpt>
      <trkpt lat="46.15075" lon="4.80414">
        <ele>194.8</ele>
        <time>2024-09-19T12:14:13Z</time>
      </trkpt>
      <trkpt lat="46.15072" lon="4.80414">
        <ele>194.8</ele>
        <time>2024-09-19T12:14:14Z</time>
      </trkpt>
      <trkpt lat="46.15068" lon="4.80412">
        <ele>194.8</ele>
        <time>2024-09-19T12:14:15Z</time>
      </trkpt>
      <trkpt lat="46.15062" lon="4.80411">
        <ele>194.8</ele>
        <time>2024-09-19T12:14:16Z</time>
      </trkpt>
      <trkpt lat="46.15059" lon="4.8041">
        <ele>194.8</ele>
        <time>2024-09-19T12:14:17Z</time>
      </trkpt>
      <trkpt lat="46.15055" lon="4.80409">
        <ele>195.2</ele>
        <time>2024-09-19T12:14:18Z</time>
      </trkpt>
      <trkpt lat="46.15051" lon="4.80408">
        <ele>195.2</ele>
        <time>2024-09-19T12:14:19Z</time>
      </trkpt>
      <trkpt lat="46.15046" lon="4.80407">
        <ele>195.2</ele>
        <time>2024-09-19T12:14:20Z</time>
      </trkpt>
      <trkpt lat="46.1504" lon="4.80405">
        <ele>195.2</ele>
        <time>2024-09-19T12:14:21Z</time>
      </trkpt>
      <trkpt lat="46.15037" lon="4.80404">
        <ele>195.4</ele>
        <time>2024-09-19T12:14:22Z</time>
      </trkpt>
      <trkpt lat="46.15033" lon="4.80403">
        <ele>195.4</ele>
        <time>2024-09-19T12:14:23Z</time>
      </trkpt>
      <trkpt lat="46.15026" lon="4.80401">
        <ele>195.4</ele>
        <time>2024-09-19T12:14:24Z</time>
      </trkpt>
      <trkpt lat="46.15024" lon="4.804">
        <ele>195.4</ele>
        <time>2024-09-19T12:14:25Z</time>
      </trkpt>
      <trkpt lat="46.1502" lon="4.80398">
        <ele>194.8</ele>
        <time>2024-09-19T12:14:26Z</time>
      </trkpt>
      <trkpt lat="46.15015" lon="4.80397">
        <ele>194.8</ele>
        <time>2024-09-19T12:14:27Z</time>
      </trkpt>
      <trkpt lat="46.15008" lon="4.80394">
        <ele>194.8</ele>
        <time>2024-09-19T12:14:28Z</time>
      </trkpt>
      <trkpt lat="46.15006" lon="4.80394">
        <ele>194.8</ele>
        <time>2024-09-19T12:14:29Z</time>
      </trkpt>
      <trkpt lat="46.14999" lon="4.80391">
        <ele>194.8</ele>
        <time>2024-09-19T12:14:30Z</time>
      </trkpt>
      <trkpt lat="46.14997" lon="4.80391">
        <ele>195</ele>
        <time>2024-09-19T12:14:31Z</time>
      </trkpt>
      <trkpt lat="46.14992" lon="4.80389">
        <ele>195</ele>
        <time>2024-09-19T12:14:32Z</time>
      </trkpt>
      <trkpt lat="46.14985" lon="4.80386">
        <ele>195</ele>
        <time>2024-09-19T12:14:33Z</time>
      </trkpt>
      <trkpt lat="46.14983" lon="4.80386">
        <ele>195</ele>
        <time>2024-09-19T12:14:34Z</time>
      </trkpt>
      <trkpt lat="46.14979" lon="4.80384">
        <ele>194.8</ele>
        <time>2024-09-19T12:14:35Z</time>
      </trkpt>
      <trkpt lat="46.14974" lon="4.80382">
        <ele>194.8</ele>
        <time>2024-09-19T12:14:36Z</time>
      </trkpt>
      <trkpt lat="46.14969" lon="4.80381">
        <ele>194.8</ele>
        <time>2024-09-19T12:14:37Z</time>
      </trkpt>
      <trkpt lat="46.14965" lon="4.80379">
        <ele>194.8</ele>
        <time>2024-09-19T12:14:38Z</time>
      </trkpt>
      <trkpt lat="46.14958" lon="4.80377">
        <ele>194.8</ele>
        <time>2024-09-19T12:14:39Z</time>
      </trkpt>
      <trkpt lat="46.14956" lon="4.80376">
        <ele>194.8</ele>
        <time>2024-09-19T12:14:40Z</time>
      </trkpt>
      <trkpt lat="46.14951" lon="4.80375">
        <ele>194.8</ele>
        <time>2024-09-19T12:14:41Z</time>
      </trkpt>
      <trkpt lat="46.14946" lon="4.80373">
        <ele>194.8</ele>
        <time>2024-09-19T12:14:42Z</time>
      </trkpt>
      <trkpt lat="46.14942" lon="4.80371">
        <ele>194.8</ele>
        <time>2024-09-19T12:14:43Z</time>
      </trkpt>
      <trkpt lat="46.14935" lon="4.80369">
        <ele>194.8</ele>
        <time>2024-09-19T12:14:44Z</time>
      </trkpt>
      <trkpt lat="46.14932" lon="4.80368">
        <ele>194.8</ele>
        <time>2024-09-19T12:14:45Z</time>
      </trkpt>
      <trkpt lat="46.14926" lon="4.80365">
        <ele>194.8</ele>
        <time>2024-09-19T12:14:46Z</time>
      </trkpt>
      <trkpt lat="46.14923" lon="4.80364">
        <ele>195.2</ele>
        <time>2024-09-19T12:14:47Z</time>
      </trkpt>
      <trkpt lat="46.14919" lon="4.80363">
        <ele>195</ele>
        <time>2024-09-19T12:14:48Z</time>
      </trkpt>
      <trkpt lat="46.14914" lon="4.80361">
        <ele>195</ele>
        <time>2024-09-19T12:14:49Z</time>
      </trkpt>
      <trkpt lat="46.1491" lon="4.8036">
        <ele>195</ele>
        <time>2024-09-19T12:14:50Z</time>
      </trkpt>
      <trkpt lat="46.14905" lon="4.80358">
        <ele>195</ele>
        <time>2024-09-19T12:14:51Z</time>
      </trkpt>
      <trkpt lat="46.149" lon="4.80356">
        <ele>195</ele>
        <time>2024-09-19T12:14:52Z</time>
      </trkpt>
      <trkpt lat="46.14896" lon="4.80354">
        <ele>195</ele>
        <time>2024-09-19T12:14:53Z</time>
      </trkpt>
      <trkpt lat="46.14891" lon="4.80352">
        <ele>195</ele>
        <time>2024-09-19T12:14:54Z</time>
      </trkpt>
      <trkpt lat="46.14886" lon="4.80351">
        <ele>195</ele>
        <time>2024-09-19T12:14:55Z</time>
      </trkpt>
      <trkpt lat="46.14882" lon="4.80349">
        <ele>194.8</ele>
        <time>2024-09-19T12:14:56Z</time>
      </trkpt>
      <trkpt lat="46.14875" lon="4.80346">
        <ele>194.8</ele>
        <time>2024-09-19T12:14:57Z</time>
      </trkpt>
      <trkpt lat="46.14872" lon="4.80345">
        <ele>194.8</ele>
        <time>2024-09-19T12:14:58Z</time>
      </trkpt>
      <trkpt lat="46.14868" lon="4.80344">
        <ele>194.8</ele>
        <time>2024-09-19T12:14:59Z</time>
      </trkpt>
      <trkpt lat="46.14863" lon="4.80342">
        <ele>194.8</ele>
        <time>2024-09-19T12:15:00Z</time>
      </trkpt>
      <trkpt lat="46.14858" lon="4.8034">
        <ele>194.8</ele>
        <time>2024-09-19T12:15:01Z</time>
      </trkpt>
      <trkpt lat="46.14854" lon="4.80338">
        <ele>195</ele>
        <time>2024-09-19T12:15:02Z</time>
      </trkpt>
      <trkpt lat="46.14849" lon="4.80336">
        <ele>195</ele>
        <time>2024-09-19T12:15:03Z</time>
      </trkpt>
      <trkpt lat="46.14842" lon="4.80333">
        <ele>195</ele>
        <time>2024-09-19T12:15:04Z</time>
      </trkpt>
      <trkpt lat="46.1484" lon="4.80333">
        <ele>195</ele>
        <time>2024-09-19T12:15:05Z</time>
      </trkpt>
      <trkpt lat="46.14835" lon="4.80331">
        <ele>195</ele>
        <time>2024-09-19T12:15:06Z</time>
      </trkpt>
      <trkpt lat="46.14829" lon="4.80328">
        <ele>194.8</ele>
        <time>2024-09-19T12:15:07Z</time>
      </trkpt>
      <trkpt lat="46.14827" lon="4.80326">
        <ele>194.8</ele>
        <time>2024-09-19T12:15:08Z</time>
      </trkpt>
      <trkpt lat="46.14823" lon="4.80324">
        <ele>194.8</ele>
        <time>2024-09-19T12:15:09Z</time>
      </trkpt>
      <trkpt lat="46.14819" lon="4.80321">
        <ele>195</ele>
        <time>2024-09-19T12:15:10Z</time>
      </trkpt>
      <trkpt lat="46.14815" lon="4.80318">
        <ele>195</ele>
        <time>2024-09-19T12:15:11Z</time>
      </trkpt>
      <trkpt lat="46.1481" lon="4.80316">
        <ele>195</ele>
        <time>2024-09-19T12:15:12Z</time>
      </trkpt>
      <trkpt lat="46.14804" lon="4.80313">
        <ele>195</ele>
        <time>2024-09-19T12:15:13Z</time>
      </trkpt>
      <trkpt lat="46.14802" lon="4.80312">
        <ele>195</ele>
        <time>2024-09-19T12:15:14Z</time>
      </trkpt>
      <trkpt lat="46.14795" lon="4.8031">
        <ele>195</ele>
        <time>2024-09-19T12:15:15Z</time>
      </trkpt>
      <trkpt lat="46.14792" lon="4.80309">
        <ele>195</ele>
        <time>2024-09-19T12:15:16Z</time>
      </trkpt>
      <trkpt lat="46.14786" lon="4.80306">
        <ele>195</ele>
        <time>2024-09-19T12:15:17Z</time>
      </trkpt>
      <trkpt lat="46.14783" lon="4.80305">
        <ele>195</ele>
        <time>2024-09-19T12:15:18Z</time>
      </trkpt>
      <trkpt lat="46.14776" lon="4.80302">
        <ele>195</ele>
        <time>2024-09-19T12:15:19Z</time>
      </trkpt>
      <trkpt lat="46.14774" lon="4.80301">
        <ele>194.8</ele>
        <time>2024-09-19T12:15:20Z</time>
      </trkpt>
      <trkpt lat="46.1477" lon="4.803">
        <ele>194.8</ele>
        <time>2024-09-19T12:15:21Z</time>
      </trkpt>
      <trkpt lat="46.14765" lon="4.80298">
        <ele>194.8</ele>
        <time>2024-09-19T12:15:22Z</time>
      </trkpt>
      <trkpt lat="46.14758" lon="4.80295">
        <ele>194.8</ele>
        <time>2024-09-19T12:15:23Z</time>
      </trkpt>
      <trkpt lat="46.14756" lon="4.80295">
        <ele>194.8</ele>
        <time>2024-09-19T12:15:24Z</time>
      </trkpt>
      <trkpt lat="46.14749" lon="4.80292">
        <ele>194.8</ele>
        <time>2024-09-19T12:15:25Z</time>
      </trkpt>
      <trkpt lat="46.14746" lon="4.80291">
        <ele>194.8</ele>
        <time>2024-09-19T12:15:26Z</time>
      </trkpt>
      <trkpt lat="46.14741" lon="4.80289">
        <ele>194.8</ele>
        <time>2024-09-19T12:15:27Z</time>
      </trkpt>
      <trkpt lat="46.14734" lon="4.80286">
        <ele>194.4</ele>
        <time>2024-09-19T12:15:28Z</time>
      </trkpt>
      <trkpt lat="46.14732" lon="4.80286">
        <ele>194.8</ele>
        <time>2024-09-19T12:15:29Z</time>
      </trkpt>
      <trkpt lat="46.14725" lon="4.80283">
        <ele>194.8</ele>
        <time>2024-09-19T12:15:30Z</time>
      </trkpt>
      <trkpt lat="46.14723" lon="4.80281">
        <ele>194.8</ele>
        <time>2024-09-19T12:15:31Z</time>
      </trkpt>
      <trkpt lat="46.14719" lon="4.80279">
        <ele>194.2</ele>
        <time>2024-09-19T12:15:32Z</time>
      </trkpt>
      <trkpt lat="46.14714" lon="4.80277">
        <ele>194.2</ele>
        <time>2024-09-19T12:15:33Z</time>
      </trkpt>
      <trkpt lat="46.1471" lon="4.80275">
        <ele>194.2</ele>
        <time>2024-09-19T12:15:34Z</time>
      </trkpt>
      <trkpt lat="46.14705" lon="4.80273">
        <ele>194.2</ele>
        <time>2024-09-19T12:15:35Z</time>
      </trkpt>
      <trkpt lat="46.147" lon="4.80271">
        <ele>194.4</ele>
        <time>2024-09-19T12:15:36Z</time>
      </trkpt>
      <trkpt lat="46.14696" lon="4.80269">
        <ele>194.4</ele>
        <time>2024-09-19T12:15:37Z</time>
      </trkpt>
      <trkpt lat="46.14691" lon="4.80266">
        <ele>194</ele>
        <time>2024-09-19T12:15:38Z</time>
      </trkpt>
      <trkpt lat="46.14687" lon="4.80263">
        <ele>194</ele>
        <time>2024-09-19T12:15:39Z</time>
      </trkpt>
      <trkpt lat="46.14683" lon="4.80261">
        <ele>194</ele>
        <time>2024-09-19T12:15:40Z</time>
      </trkpt>
      <trkpt lat="46.14677" lon="4.80258">
        <ele>194</ele>
        <time>2024-09-19T12:15:41Z</time>
      </trkpt>
      <trkpt lat="46.14675" lon="4.80257">
        <ele>194.4</ele>
        <time>2024-09-19T12:15:42Z</time>
      </trkpt>
      <trkpt lat="46.1467" lon="4.80255">
        <ele>194.4</ele>
        <time>2024-09-19T12:15:43Z</time>
      </trkpt>
      <trkpt lat="46.14666" lon="4.80252">
        <ele>194.4</ele>
        <time>2024-09-19T12:15:44Z</time>
      </trkpt>
      <trkpt lat="46.14662" lon="4.8025">
        <ele>194.4</ele>
        <time>2024-09-19T12:15:45Z</time>
      </trkpt>
      <trkpt lat="46.14657" lon="4.80248">
        <ele>194.4</ele>
        <time>2024-09-19T12:15:46Z</time>
      </trkpt>
      <trkpt lat="46.14653" lon="4.80246">
        <ele>194.4</ele>
        <time>2024-09-19T12:15:47Z</time>
      </trkpt>
      <trkpt lat="46.14646" lon="4.80243">
        <ele>194.8</ele>
        <time>2024-09-19T12:15:48Z</time>
      </trkpt>
      <trkpt lat="46.14644" lon="4.80241">
        <ele>194.8</ele>
        <time>2024-09-19T12:15:49Z</time>
      </trkpt>
      <trkpt lat="46.1464" lon="4.8024">
        <ele>194.8</ele>
        <time>2024-09-19T12:15:50Z</time>
      </trkpt>
      <trkpt lat="46.14633" lon="4.80239">
        <ele>194.8</ele>
        <time>2024-09-19T12:15:51Z</time>
      </trkpt>
      <trkpt lat="46.1463" lon="4.80239">
        <ele>194.6</ele>
        <time>2024-09-19T12:15:52Z</time>
      </trkpt>
      <trkpt lat="46.14625" lon="4.80241">
        <ele>194.6</ele>
        <time>2024-09-19T12:15:53Z</time>
      </trkpt>
      <trkpt lat="46.1462" lon="4.80243">
        <ele>194.6</ele>
        <time>2024-09-19T12:15:54Z</time>
      </trkpt>
      <trkpt lat="46.14614" lon="4.80247">
        <ele>194.6</ele>
        <time>2024-09-19T12:15:55Z</time>
      </trkpt>
      <trkpt lat="46.14611" lon="4.80248">
        <ele>194.6</ele>
        <time>2024-09-19T12:15:56Z</time>
      </trkpt>
      <trkpt lat="46.14607" lon="4.80249">
        <ele>194.6</ele>
        <time>2024-09-19T12:15:57Z</time>
      </trkpt>
      <trkpt lat="46.14602" lon="4.8025">
        <ele>194.6</ele>
        <time>2024-09-19T12:15:58Z</time>
      </trkpt>
      <trkpt lat="46.14595" lon="4.8025">
        <ele>194.6</ele>
        <time>2024-09-19T12:15:59Z</time>
      </trkpt>
      <trkpt lat="46.14593" lon="4.8025">
        <ele>194.4</ele>
        <time>2024-09-19T12:16:00Z</time>
      </trkpt>
      <trkpt lat="46.14588" lon="4.80249">
        <ele>194.4</ele>
        <time>2024-09-19T12:16:01Z</time>
      </trkpt>
      <trkpt lat="46.14584" lon="4.80247">
        <ele>194.4</ele>
        <time>2024-09-19T12:16:02Z</time>
      </trkpt>
      <trkpt lat="46.14579" lon="4.80245">
        <ele>194.4</ele>
        <time>2024-09-19T12:16:03Z</time>
      </trkpt>
      <trkpt lat="46.14575" lon="4.80244">
        <ele>194.4</ele>
        <time>2024-09-19T12:16:04Z</time>
      </trkpt>
      <trkpt lat="46.14568" lon="4.80242">
        <ele>194.6</ele>
        <time>2024-09-19T12:16:05Z</time>
      </trkpt>
      <trkpt lat="46.14565" lon="4.80241">
        <ele>194.6</ele>
        <time>2024-09-19T12:16:06Z</time>
      </trkpt>
      <trkpt lat="46.14561" lon="4.8024">
        <ele>194.6</ele>
        <time>2024-09-19T12:16:07Z</time>
      </trkpt>
      <trkpt lat="46.14556" lon="4.80239">
        <ele>194.6</ele>
        <time>2024-09-19T12:16:08Z</time>
      </trkpt>
      <trkpt lat="46.14551" lon="4.80238">
        <ele>194.6</ele>
        <time>2024-09-19T12:16:09Z</time>
      </trkpt>
      <trkpt lat="46.14544" lon="4.80236">
        <ele>194.6</ele>
        <time>2024-09-19T12:16:10Z</time>
      </trkpt>
      <trkpt lat="46.14541" lon="4.80235">
        <ele>194.6</ele>
        <time>2024-09-19T12:16:11Z</time>
      </trkpt>
      <trkpt lat="46.14534" lon="4.80233">
        <ele>194.6</ele>
        <time>2024-09-19T12:16:12Z</time>
      </trkpt>
      <trkpt lat="46.14532" lon="4.80233">
        <ele>194.6</ele>
        <time>2024-09-19T12:16:13Z</time>
      </trkpt>
      <trkpt lat="46.14524" lon="4.80231">
        <ele>194.6</ele>
        <time>2024-09-19T12:16:14Z</time>
      </trkpt>
      <trkpt lat="46.14522" lon="4.8023">
        <ele>194.6</ele>
        <time>2024-09-19T12:16:15Z</time>
      </trkpt>
      <trkpt lat="46.14517" lon="4.80229">
        <ele>194.6</ele>
        <time>2024-09-19T12:16:16Z</time>
      </trkpt>
      <trkpt lat="46.14512" lon="4.80228">
        <ele>194.6</ele>
        <time>2024-09-19T12:16:17Z</time>
      </trkpt>
      <trkpt lat="46.14508" lon="4.80227">
        <ele>194.6</ele>
        <time>2024-09-19T12:16:18Z</time>
      </trkpt>
      <trkpt lat="46.145" lon="4.80225">
        <ele>194.6</ele>
        <time>2024-09-19T12:16:19Z</time>
      </trkpt>
      <trkpt lat="46.14498" lon="4.80225">
        <ele>194.6</ele>
        <time>2024-09-19T12:16:20Z</time>
      </trkpt>
      <trkpt lat="46.14491" lon="4.80224">
        <ele>194.6</ele>
        <time>2024-09-19T12:16:21Z</time>
      </trkpt>
      <trkpt lat="46.14489" lon="4.80223">
        <ele>194.6</ele>
        <time>2024-09-19T12:16:22Z</time>
      </trkpt>
      <trkpt lat="46.14485" lon="4.80222">
        <ele>194.6</ele>
        <time>2024-09-19T12:16:23Z</time>
      </trkpt>
      <trkpt lat="46.14478" lon="4.8022">
        <ele>194.4</ele>
        <time>2024-09-19T12:16:24Z</time>
      </trkpt>
      <trkpt lat="46.14475" lon="4.8022">
        <ele>194.4</ele>
        <time>2024-09-19T12:16:25Z</time>
      </trkpt>
      <trkpt lat="46.14471" lon="4.80219">
        <ele>194.4</ele>
        <time>2024-09-19T12:16:26Z</time>
      </trkpt>
      <trkpt lat="46.14466" lon="4.80218">
        <ele>194.4</ele>
        <time>2024-09-19T12:16:27Z</time>
      </trkpt>
      <trkpt lat="46.14461" lon="4.80217">
        <ele>194.8</ele>
        <time>2024-09-19T12:16:28Z</time>
      </trkpt>
      <trkpt lat="46.14456" lon="4.80216">
        <ele>194.8</ele>
        <time>2024-09-19T12:16:29Z</time>
      </trkpt>
      <trkpt lat="46.14451" lon="4.80215">
        <ele>194.8</ele>
        <time>2024-09-19T12:16:30Z</time>
      </trkpt>
      <trkpt lat="46.14444" lon="4.80213">
        <ele>194.8</ele>
        <time>2024-09-19T12:16:31Z</time>
      </trkpt>
      <trkpt lat="46.14442" lon="4.80212">
        <ele>194.6</ele>
        <time>2024-09-19T12:16:32Z</time>
      </trkpt>
      <trkpt lat="46.14437" lon="4.80211">
        <ele>194.8</ele>
        <time>2024-09-19T12:16:33Z</time>
      </trkpt>
      <trkpt lat="46.1443" lon="4.80209">
        <ele>194.8</ele>
        <time>2024-09-19T12:16:34Z</time>
      </trkpt>
      <trkpt lat="46.14428" lon="4.80208">
        <ele>194.8</ele>
        <time>2024-09-19T12:16:35Z</time>
      </trkpt>
      <trkpt lat="46.14423" lon="4.80207">
        <ele>194.8</ele>
        <time>2024-09-19T12:16:36Z</time>
      </trkpt>
      <trkpt lat="46.14418" lon="4.80205">
        <ele>194.8</ele>
        <time>2024-09-19T12:16:37Z</time>
      </trkpt>
      <trkpt lat="46.14411" lon="4.80203">
        <ele>194.8</ele>
        <time>2024-09-19T12:16:38Z</time>
      </trkpt>
      <trkpt lat="46.14409" lon="4.80202">
        <ele>194.8</ele>
        <time>2024-09-19T12:16:39Z</time>
      </trkpt>
      <trkpt lat="46.14402" lon="4.802">
        <ele>194.8</ele>
        <time>2024-09-19T12:16:40Z</time>
      </trkpt>
      <trkpt lat="46.144" lon="4.80199">
        <ele>194.8</ele>
        <time>2024-09-19T12:16:41Z</time>
      </trkpt>
      <trkpt lat="46.14395" lon="4.80197">
        <ele>194.8</ele>
        <time>2024-09-19T12:16:42Z</time>
      </trkpt>
      <trkpt lat="46.14391" lon="4.80195">
        <ele>194.8</ele>
        <time>2024-09-19T12:16:43Z</time>
      </trkpt>
      <trkpt lat="46.14386" lon="4.80194">
        <ele>194.8</ele>
        <time>2024-09-19T12:16:44Z</time>
      </trkpt>
      <trkpt lat="46.14382" lon="4.80193">
        <ele>194.8</ele>
        <time>2024-09-19T12:16:45Z</time>
      </trkpt>
      <trkpt lat="46.14377" lon="4.80191">
        <ele>195</ele>
        <time>2024-09-19T12:16:46Z</time>
      </trkpt>
      <trkpt lat="46.14373" lon="4.80189">
        <ele>195</ele>
        <time>2024-09-19T12:16:47Z</time>
      </trkpt>
      <trkpt lat="46.14369" lon="4.80187">
        <ele>195</ele>
        <time>2024-09-19T12:16:48Z</time>
      </trkpt>
      <trkpt lat="46.14362" lon="4.80184">
        <ele>195</ele>
        <time>2024-09-19T12:16:49Z</time>
      </trkpt>
      <trkpt lat="46.1436" lon="4.80183">
        <ele>195</ele>
        <time>2024-09-19T12:16:50Z</time>
      </trkpt>
      <trkpt lat="46.14355" lon="4.80182">
        <ele>195.2</ele>
        <time>2024-09-19T12:16:51Z</time>
      </trkpt>
      <trkpt lat="46.14351" lon="4.80179">
        <ele>195.2</ele>
        <time>2024-09-19T12:16:52Z</time>
      </trkpt>
      <trkpt lat="46.14346" lon="4.80178">
        <ele>195.2</ele>
        <time>2024-09-19T12:16:53Z</time>
      </trkpt>
      <trkpt lat="46.1434" lon="4.80174">
        <ele>194.8</ele>
        <time>2024-09-19T12:16:54Z</time>
      </trkpt>
      <trkpt lat="46.14338" lon="4.80173">
        <ele>195</ele>
        <time>2024-09-19T12:16:55Z</time>
      </trkpt>
      <trkpt lat="46.14331" lon="4.80169">
        <ele>195</ele>
        <time>2024-09-19T12:16:56Z</time>
      </trkpt>
      <trkpt lat="46.14329" lon="4.80168">
        <ele>195</ele>
        <time>2024-09-19T12:16:57Z</time>
      </trkpt>
      <trkpt lat="46.14324" lon="4.80166">
        <ele>194.8</ele>
        <time>2024-09-19T12:16:58Z</time>
      </trkpt>
      <trkpt lat="46.1432" lon="4.80164">
        <ele>194.8</ele>
        <time>2024-09-19T12:16:59Z</time>
      </trkpt>
      <trkpt lat="46.14316" lon="4.80161">
        <ele>194.8</ele>
        <time>2024-09-19T12:17:00Z</time>
      </trkpt>
      <trkpt lat="46.14311" lon="4.80159">
        <ele>194.8</ele>
        <time>2024-09-19T12:17:01Z</time>
      </trkpt>
      <trkpt lat="46.14307" lon="4.80156">
        <ele>194.8</ele>
        <time>2024-09-19T12:17:02Z</time>
      </trkpt>
      <trkpt lat="46.143" lon="4.80152">
        <ele>194.8</ele>
        <time>2024-09-19T12:17:03Z</time>
      </trkpt>
      <trkpt lat="46.14298" lon="4.80151">
        <ele>194.8</ele>
        <time>2024-09-19T12:17:04Z</time>
      </trkpt>
      <trkpt lat="46.14291" lon="4.80147">
        <ele>194.8</ele>
        <time>2024-09-19T12:17:05Z</time>
      </trkpt>
      <trkpt lat="46.14289" lon="4.80146">
        <ele>194.8</ele>
        <time>2024-09-19T12:17:06Z</time>
      </trkpt>
      <trkpt lat="46.14285" lon="4.80143">
        <ele>194.8</ele>
        <time>2024-09-19T12:17:07Z</time>
      </trkpt>
      <trkpt lat="46.1428" lon="4.80141">
        <ele>194.8</ele>
        <time>2024-09-19T12:17:08Z</time>
      </trkpt>
      <trkpt lat="46.14273" lon="4.80137">
        <ele>194.8</ele>
        <time>2024-09-19T12:17:09Z</time>
      </trkpt>
      <trkpt lat="46.14271" lon="4.80136">
        <ele>194.8</ele>
        <time>2024-09-19T12:17:10Z</time>
      </trkpt>
      <trkpt lat="46.14267" lon="4.80134">
        <ele>194.8</ele>
        <time>2024-09-19T12:17:11Z</time>
      </trkpt>
      <trkpt lat="46.1426" lon="4.8013">
        <ele>194.8</ele>
        <time>2024-09-19T12:17:12Z</time>
      </trkpt>
      <trkpt lat="46.14258" lon="4.80129">
        <ele>194.8</ele>
        <time>2024-09-19T12:17:13Z</time>
      </trkpt>
      <trkpt lat="46.14253" lon="4.80127">
        <ele>194.8</ele>
        <time>2024-09-19T12:17:14Z</time>
      </trkpt>
      <trkpt lat="46.14249" lon="4.80124">
        <ele>194.8</ele>
        <time>2024-09-19T12:17:15Z</time>
      </trkpt>
      <trkpt lat="46.14245" lon="4.80121">
        <ele>194.8</ele>
        <time>2024-09-19T12:17:16Z</time>
      </trkpt>
      <trkpt lat="46.14238" lon="4.80117">
        <ele>195</ele>
        <time>2024-09-19T12:17:17Z</time>
      </trkpt>
      <trkpt lat="46.14236" lon="4.80115">
        <ele>194.8</ele>
        <time>2024-09-19T12:17:18Z</time>
      </trkpt>
      <trkpt lat="46.14231" lon="4.80112">
        <ele>194.8</ele>
        <time>2024-09-19T12:17:19Z</time>
      </trkpt>
      <trkpt lat="46.14227" lon="4.80109">
        <ele>194.8</ele>
        <time>2024-09-19T12:17:20Z</time>
      </trkpt>
      <trkpt lat="46.1422" lon="4.80105">
        <ele>194.8</ele>
        <time>2024-09-19T12:17:21Z</time>
      </trkpt>
      <trkpt lat="46.14218" lon="4.80104">
        <ele>194.6</ele>
        <time>2024-09-19T12:17:22Z</time>
      </trkpt>
      <trkpt lat="46.14211" lon="4.80099">
        <ele>194.6</ele>
        <time>2024-09-19T12:17:23Z</time>
      </trkpt>
      <trkpt lat="46.14209" lon="4.80097">
        <ele>194.6</ele>
        <time>2024-09-19T12:17:24Z</time>
      </trkpt>
      <trkpt lat="46.14205" lon="4.80094">
        <ele>194.6</ele>
        <time>2024-09-19T12:17:25Z</time>
      </trkpt>
      <trkpt lat="46.142" lon="4.80091">
        <ele>194.8</ele>
        <time>2024-09-19T12:17:26Z</time>
      </trkpt>
      <trkpt lat="46.14193" lon="4.80086">
        <ele>194.8</ele>
        <time>2024-09-19T12:17:27Z</time>
      </trkpt>
      <trkpt lat="46.14191" lon="4.80085">
        <ele>194.8</ele>
        <time>2024-09-19T12:17:28Z</time>
      </trkpt>
      <trkpt lat="46.14187" lon="4.80081">
        <ele>194.8</ele>
        <time>2024-09-19T12:17:29Z</time>
      </trkpt>
      <trkpt lat="46.14183" lon="4.80078">
        <ele>194.4</ele>
        <time>2024-09-19T12:17:30Z</time>
      </trkpt>
      <trkpt lat="46.14178" lon="4.80075">
        <ele>194.4</ele>
        <time>2024-09-19T12:17:31Z</time>
      </trkpt>
      <trkpt lat="46.14174" lon="4.80072">
        <ele>194.6</ele>
        <time>2024-09-19T12:17:32Z</time>
      </trkpt>
      <trkpt lat="46.14169" lon="4.80069">
        <ele>194.6</ele>
        <time>2024-09-19T12:17:33Z</time>
      </trkpt>
      <trkpt lat="46.14165" lon="4.80066">
        <ele>194.6</ele>
        <time>2024-09-19T12:17:34Z</time>
      </trkpt>
      <trkpt lat="46.14158" lon="4.80061">
        <ele>195</ele>
        <time>2024-09-19T12:17:35Z</time>
      </trkpt>
      <trkpt lat="46.14156" lon="4.80059">
        <ele>195</ele>
        <time>2024-09-19T12:17:36Z</time>
      </trkpt>
      <trkpt lat="46.1415" lon="4.80054">
        <ele>195</ele>
        <time>2024-09-19T12:17:37Z</time>
      </trkpt>
      <trkpt lat="46.14147" lon="4.80052">
        <ele>195</ele>
        <time>2024-09-19T12:17:38Z</time>
      </trkpt>
      <trkpt lat="46.14143" lon="4.80049">
        <ele>194.6</ele>
        <time>2024-09-19T12:17:39Z</time>
      </trkpt>
      <trkpt lat="46.14139" lon="4.80046">
        <ele>194.6</ele>
        <time>2024-09-19T12:17:40Z</time>
      </trkpt>
      <trkpt lat="46.14135" lon="4.80042">
        <ele>194.6</ele>
        <time>2024-09-19T12:17:41Z</time>
      </trkpt>
      <trkpt lat="46.14131" lon="4.80039">
        <ele>194.6</ele>
        <time>2024-09-19T12:17:42Z</time>
      </trkpt>
      <trkpt lat="46.14126" lon="4.80035">
        <ele>194.6</ele>
        <time>2024-09-19T12:17:43Z</time>
      </trkpt>
      <trkpt lat="46.14122" lon="4.80032">
        <ele>194.6</ele>
        <time>2024-09-19T12:17:44Z</time>
      </trkpt>
      <trkpt lat="46.14118" lon="4.80028">
        <ele>194.6</ele>
        <time>2024-09-19T12:17:45Z</time>
      </trkpt>
      <trkpt lat="46.14112" lon="4.80022">
        <ele>194.6</ele>
        <time>2024-09-19T12:17:46Z</time>
      </trkpt>
      <trkpt lat="46.1411" lon="4.8002">
        <ele>194.6</ele>
        <time>2024-09-19T12:17:47Z</time>
      </trkpt>
      <trkpt lat="46.14106" lon="4.80016">
        <ele>194.6</ele>
        <time>2024-09-19T12:17:48Z</time>
      </trkpt>
      <trkpt lat="46.14099" lon="4.80009">
        <ele>194.6</ele>
        <time>2024-09-19T12:17:49Z</time>
      </trkpt>
      <trkpt lat="46.14097" lon="4.80007">
        <ele>194.6</ele>
        <time>2024-09-19T12:17:50Z</time>
      </trkpt>
      <trkpt lat="46.14093" lon="4.80003">
        <ele>194.6</ele>
        <time>2024-09-19T12:17:51Z</time>
      </trkpt>
      <trkpt lat="46.14089" lon="4.79999">
        <ele>194.6</ele>
        <time>2024-09-19T12:17:52Z</time>
      </trkpt>
      <trkpt lat="46.14085" lon="4.79995">
        <ele>194.8</ele>
        <time>2024-09-19T12:17:53Z</time>
      </trkpt>
      <trkpt lat="46.14081" lon="4.7999">
        <ele>194.8</ele>
        <time>2024-09-19T12:17:54Z</time>
      </trkpt>
      <trkpt lat="46.14076" lon="4.79986">
        <ele>194.8</ele>
        <time>2024-09-19T12:17:55Z</time>
      </trkpt>
      <trkpt lat="46.14072" lon="4.79981">
        <ele>194.8</ele>
        <time>2024-09-19T12:17:56Z</time>
      </trkpt>
      <trkpt lat="46.14068" lon="4.79977">
        <ele>194.8</ele>
        <time>2024-09-19T12:17:57Z</time>
      </trkpt>
      <trkpt lat="46.14062" lon="4.7997">
        <ele>194.4</ele>
        <time>2024-09-19T12:17:58Z</time>
      </trkpt>
      <trkpt lat="46.14059" lon="4.79967">
        <ele>194.4</ele>
        <time>2024-09-19T12:17:59Z</time>
      </trkpt>
      <trkpt lat="46.14055" lon="4.79962">
        <ele>194.4</ele>
        <time>2024-09-19T12:18:00Z</time>
      </trkpt>
      <trkpt lat="46.14051" lon="4.79957">
        <ele>194.4</ele>
        <time>2024-09-19T12:18:01Z</time>
      </trkpt>
      <trkpt lat="46.14047" lon="4.79953">
        <ele>194.6</ele>
        <time>2024-09-19T12:18:02Z</time>
      </trkpt>
      <trkpt lat="46.14044" lon="4.79949">
        <ele>194.4</ele>
        <time>2024-09-19T12:18:03Z</time>
      </trkpt>
      <trkpt lat="46.14038" lon="4.79943">
        <ele>194.4</ele>
        <time>2024-09-19T12:18:04Z</time>
      </trkpt>
      <trkpt lat="46.14036" lon="4.79941">
        <ele>194.4</ele>
        <time>2024-09-19T12:18:05Z</time>
      </trkpt>
      <trkpt lat="46.14032" lon="4.79937">
        <ele>194.8</ele>
        <time>2024-09-19T12:18:06Z</time>
      </trkpt>
      <trkpt lat="46.14028" lon="4.79933">
        <ele>194.6</ele>
        <time>2024-09-19T12:18:07Z</time>
      </trkpt>
      <trkpt lat="46.14022" lon="4.79926">
        <ele>194.6</ele>
        <time>2024-09-19T12:18:08Z</time>
      </trkpt>
      <trkpt lat="46.1402" lon="4.79924">
        <ele>194.6</ele>
        <time>2024-09-19T12:18:09Z</time>
      </trkpt>
      <trkpt lat="46.14014" lon="4.79917">
        <ele>194.6</ele>
        <time>2024-09-19T12:18:10Z</time>
      </trkpt>
      <trkpt lat="46.14012" lon="4.79915">
        <ele>194.8</ele>
        <time>2024-09-19T12:18:11Z</time>
      </trkpt>
      <trkpt lat="46.14008" lon="4.79911">
        <ele>195</ele>
        <time>2024-09-19T12:18:12Z</time>
      </trkpt>
      <trkpt lat="46.14004" lon="4.79907">
        <ele>195</ele>
        <time>2024-09-19T12:18:13Z</time>
      </trkpt>
      <trkpt lat="46.14001" lon="4.79903">
        <ele>195</ele>
        <time>2024-09-19T12:18:14Z</time>
      </trkpt>
      <trkpt lat="46.13997" lon="4.79899">
        <ele>195</ele>
        <time>2024-09-19T12:18:15Z</time>
      </trkpt>
      <trkpt lat="46.13993" lon="4.79895">
        <ele>195</ele>
        <time>2024-09-19T12:18:16Z</time>
      </trkpt>
      <trkpt lat="46.13987" lon="4.79888">
        <ele>195</ele>
        <time>2024-09-19T12:18:17Z</time>
      </trkpt>
      <trkpt lat="46.13985" lon="4.79886">
        <ele>195</ele>
        <time>2024-09-19T12:18:18Z</time>
      </trkpt>
      <trkpt lat="46.1398" lon="4.7988">
        <ele>195</ele>
        <time>2024-09-19T12:18:19Z</time>
      </trkpt>
      <trkpt lat="46.13978" lon="4.79878">
        <ele>194.6</ele>
        <time>2024-09-19T12:18:20Z</time>
      </trkpt>
      <trkpt lat="46.13973" lon="4.79873">
        <ele>194.6</ele>
        <time>2024-09-19T12:18:21Z</time>
      </trkpt>
      <trkpt lat="46.13971" lon="4.79871">
        <ele>194.6</ele>
        <time>2024-09-19T12:18:22Z</time>
      </trkpt>
      <trkpt lat="46.13967" lon="4.79867">
        <ele>194.6</ele>
        <time>2024-09-19T12:18:23Z</time>
      </trkpt>
      <trkpt lat="46.13964" lon="4.79863">
        <ele>194.6</ele>
        <time>2024-09-19T12:18:24Z</time>
      </trkpt>
      <trkpt lat="46.1396" lon="4.79859">
        <ele>194.8</ele>
        <time>2024-09-19T12:18:25Z</time>
      </trkpt>
      <trkpt lat="46.13956" lon="4.79855">
        <ele>194.8</ele>
        <time>2024-09-19T12:18:26Z</time>
      </trkpt>
      <trkpt lat="46.13953" lon="4.79851">
        <ele>194.8</ele>
        <time>2024-09-19T12:18:27Z</time>
      </trkpt>
      <trkpt lat="46.13947" lon="4.79845">
        <ele>194.8</ele>
        <time>2024-09-19T12:18:28Z</time>
      </trkpt>
      <trkpt lat="46.13946" lon="4.79843">
        <ele>194.8</ele>
        <time>2024-09-19T12:18:29Z</time>
      </trkpt>
      <trkpt lat="46.13942" lon="4.79839">
        <ele>194.8</ele>
        <time>2024-09-19T12:18:30Z</time>
      </trkpt>
      <trkpt lat="46.13937" lon="4.79833">
        <ele>194.8</ele>
        <time>2024-09-19T12:18:31Z</time>
      </trkpt>
      <trkpt lat="46.13935" lon="4.79831">
        <ele>194.8</ele>
        <time>2024-09-19T12:18:32Z</time>
      </trkpt>
      <trkpt lat="46.13929" lon="4.79826">
        <ele>194.8</ele>
        <time>2024-09-19T12:18:33Z</time>
      </trkpt>
      <trkpt lat="46.13928" lon="4.79824">
        <ele>194.8</ele>
        <time>2024-09-19T12:18:34Z</time>
      </trkpt>
      <trkpt lat="46.13924" lon="4.7982">
        <ele>195</ele>
        <time>2024-09-19T12:18:35Z</time>
      </trkpt>
      <trkpt lat="46.1392" lon="4.79817">
        <ele>195</ele>
        <time>2024-09-19T12:18:36Z</time>
      </trkpt>
      <trkpt lat="46.13916" lon="4.79813">
        <ele>195</ele>
        <time>2024-09-19T12:18:37Z</time>
      </trkpt>
      <trkpt lat="46.13912" lon="4.79809">
        <ele>195</ele>
        <time>2024-09-19T12:18:38Z</time>
      </trkpt>
      <trkpt lat="46.13908" lon="4.79805">
        <ele>195</ele>
        <time>2024-09-19T12:18:39Z</time>
      </trkpt>
      <trkpt lat="46.13903" lon="4.79799">
        <ele>195</ele>
        <time>2024-09-19T12:18:40Z</time>
      </trkpt>
      <trkpt lat="46.13901" lon="4.79797">
        <ele>195</ele>
        <time>2024-09-19T12:18:41Z</time>
      </trkpt>
      <trkpt lat="46.13897" lon="4.79793">
        <ele>195</ele>
        <time>2024-09-19T12:18:42Z</time>
      </trkpt>
      <trkpt lat="46.13894" lon="4.79789">
        <ele>195</ele>
        <time>2024-09-19T12:18:43Z</time>
      </trkpt>
      <trkpt lat="46.1389" lon="4.79785">
        <ele>194.8</ele>
        <time>2024-09-19T12:18:44Z</time>
      </trkpt>
      <trkpt lat="46.13886" lon="4.79781">
        <ele>194.8</ele>
        <time>2024-09-19T12:18:45Z</time>
      </trkpt>
      <trkpt lat="46.1388" lon="4.79775">
        <ele>194.8</ele>
        <time>2024-09-19T12:18:46Z</time>
      </trkpt>
      <trkpt lat="46.13878" lon="4.79773">
        <ele>194.8</ele>
        <time>2024-09-19T12:18:47Z</time>
      </trkpt>
      <trkpt lat="46.13872" lon="4.79767">
        <ele>194.8</ele>
        <time>2024-09-19T12:18:48Z</time>
      </trkpt>
      <trkpt lat="46.1387" lon="4.79765">
        <ele>195</ele>
        <time>2024-09-19T12:18:49Z</time>
      </trkpt>
      <trkpt lat="46.13865" lon="4.79759">
        <ele>195</ele>
        <time>2024-09-19T12:18:50Z</time>
      </trkpt>
      <trkpt lat="46.13863" lon="4.79757">
        <ele>195</ele>
        <time>2024-09-19T12:18:51Z</time>
      </trkpt>
      <trkpt lat="46.13857" lon="4.79751">
        <ele>195</ele>
        <time>2024-09-19T12:18:52Z</time>
      </trkpt>
      <trkpt lat="46.13856" lon="4.79749">
        <ele>194.8</ele>
        <time>2024-09-19T12:18:53Z</time>
      </trkpt>
      <trkpt lat="46.13852" lon="4.79745">
        <ele>194.8</ele>
        <time>2024-09-19T12:18:54Z</time>
      </trkpt>
      <trkpt lat="46.13849" lon="4.79741">
        <ele>194.8</ele>
        <time>2024-09-19T12:18:55Z</time>
      </trkpt>
      <trkpt lat="46.13845" lon="4.79736">
        <ele>195</ele>
        <time>2024-09-19T12:18:56Z</time>
      </trkpt>
      <trkpt lat="46.13842" lon="4.79732">
        <ele>195.2</ele>
        <time>2024-09-19T12:18:57Z</time>
      </trkpt>
      <trkpt lat="46.13839" lon="4.79727">
        <ele>195.2</ele>
        <time>2024-09-19T12:18:58Z</time>
      </trkpt>
      <trkpt lat="46.13836" lon="4.79723">
        <ele>195.2</ele>
        <time>2024-09-19T12:18:59Z</time>
      </trkpt>
      <trkpt lat="46.13831" lon="4.79716">
        <ele>195.2</ele>
        <time>2024-09-19T12:19:00Z</time>
      </trkpt>
      <trkpt lat="46.13829" lon="4.79714">
        <ele>195.2</ele>
        <time>2024-09-19T12:19:01Z</time>
      </trkpt>
      <trkpt lat="46.13824" lon="4.79707">
        <ele>195.2</ele>
        <time>2024-09-19T12:19:02Z</time>
      </trkpt>
      <trkpt lat="46.13822" lon="4.79705">
        <ele>195.2</ele>
        <time>2024-09-19T12:19:03Z</time>
      </trkpt>
      <trkpt lat="46.13817" lon="4.79698">
        <ele>195.2</ele>
        <time>2024-09-19T12:19:04Z</time>
      </trkpt>
      <trkpt lat="46.13815" lon="4.79696">
        <ele>195</ele>
        <time>2024-09-19T12:19:05Z</time>
      </trkpt>
      <trkpt lat="46.13812" lon="4.79692">
        <ele>195</ele>
        <time>2024-09-19T12:19:06Z</time>
      </trkpt>
      <trkpt lat="46.13808" lon="4.79688">
        <ele>195</ele>
        <time>2024-09-19T12:19:07Z</time>
      </trkpt>
      <trkpt lat="46.13804" lon="4.79684">
        <ele>195</ele>
        <time>2024-09-19T12:19:08Z</time>
      </trkpt>
      <trkpt lat="46.13801" lon="4.7968">
        <ele>195</ele>
        <time>2024-09-19T12:19:09Z</time>
      </trkpt>
      <trkpt lat="46.13797" lon="4.79675">
        <ele>195.2</ele>
        <time>2024-09-19T12:19:10Z</time>
      </trkpt>
      <trkpt lat="46.13791" lon="4.79669">
        <ele>195.2</ele>
        <time>2024-09-19T12:19:11Z</time>
      </trkpt>
      <trkpt lat="46.1379" lon="4.79667">
        <ele>195.2</ele>
        <time>2024-09-19T12:19:12Z</time>
      </trkpt>
      <trkpt lat="46.13786" lon="4.79663">
        <ele>195.2</ele>
        <time>2024-09-19T12:19:13Z</time>
      </trkpt>
      <trkpt lat="46.13782" lon="4.79659">
        <ele>195.2</ele>
        <time>2024-09-19T12:19:14Z</time>
      </trkpt>
      <trkpt lat="46.13778" lon="4.79655">
        <ele>195</ele>
        <time>2024-09-19T12:19:15Z</time>
      </trkpt>
      <trkpt lat="46.13774" lon="4.7965">
        <ele>195</ele>
        <time>2024-09-19T12:19:16Z</time>
      </trkpt>
      <trkpt lat="46.1377" lon="4.79646">
        <ele>195</ele>
        <time>2024-09-19T12:19:17Z</time>
      </trkpt>
      <trkpt lat="46.13766" lon="4.79642">
        <ele>195</ele>
        <time>2024-09-19T12:19:18Z</time>
      </trkpt>
      <trkpt lat="46.13762" lon="4.79638">
        <ele>195</ele>
        <time>2024-09-19T12:19:19Z</time>
      </trkpt>
      <trkpt lat="46.13758" lon="4.79634">
        <ele>195.2</ele>
        <time>2024-09-19T12:19:20Z</time>
      </trkpt>
      <trkpt lat="46.13754" lon="4.7963">
        <ele>195.2</ele>
        <time>2024-09-19T12:19:21Z</time>
      </trkpt>
      <trkpt lat="46.13748" lon="4.79624">
        <ele>195.2</ele>
        <time>2024-09-19T12:19:22Z</time>
      </trkpt>
      <trkpt lat="46.13746" lon="4.79622">
        <ele>195.4</ele>
        <time>2024-09-19T12:19:23Z</time>
      </trkpt>
      <trkpt lat="46.13743" lon="4.79617">
        <ele>195.4</ele>
        <time>2024-09-19T12:19:24Z</time>
      </trkpt>
      <trkpt lat="46.13739" lon="4.79613">
        <ele>195.4</ele>
        <time>2024-09-19T12:19:25Z</time>
      </trkpt>
      <trkpt lat="46.13733" lon="4.79606">
        <ele>195.4</ele>
        <time>2024-09-19T12:19:26Z</time>
      </trkpt>
      <trkpt lat="46.13731" lon="4.79604">
        <ele>195.4</ele>
        <time>2024-09-19T12:19:27Z</time>
      </trkpt>
      <trkpt lat="46.13725" lon="4.79597">
        <ele>195.2</ele>
        <time>2024-09-19T12:19:28Z</time>
      </trkpt>
      <trkpt lat="46.13722" lon="4.79595">
        <ele>195.2</ele>
        <time>2024-09-19T12:19:29Z</time>
      </trkpt>
      <trkpt lat="46.13716" lon="4.79589">
        <ele>195.2</ele>
        <time>2024-09-19T12:19:30Z</time>
      </trkpt>
      <trkpt lat="46.13714" lon="4.79587">
        <ele>195.2</ele>
        <time>2024-09-19T12:19:31Z</time>
      </trkpt>
      <trkpt lat="46.13708" lon="4.7958">
        <ele>195.2</ele>
        <time>2024-09-19T12:19:32Z</time>
      </trkpt>
      <trkpt lat="46.13706" lon="4.79578">
        <ele>195</ele>
        <time>2024-09-19T12:19:33Z</time>
      </trkpt>
      <trkpt lat="46.137" lon="4.79572">
        <ele>195</ele>
        <time>2024-09-19T12:19:34Z</time>
      </trkpt>
      <trkpt lat="46.13698" lon="4.7957">
        <ele>195</ele>
        <time>2024-09-19T12:19:35Z</time>
      </trkpt>
      <trkpt lat="46.13694" lon="4.79565">
        <ele>195.2</ele>
        <time>2024-09-19T12:19:36Z</time>
      </trkpt>
      <trkpt lat="46.1369" lon="4.79561">
        <ele>195.2</ele>
        <time>2024-09-19T12:19:37Z</time>
      </trkpt>
      <trkpt lat="46.13683" lon="4.79555">
        <ele>195.2</ele>
        <time>2024-09-19T12:19:38Z</time>
      </trkpt>
      <trkpt lat="46.13681" lon="4.79553">
        <ele>195.2</ele>
        <time>2024-09-19T12:19:39Z</time>
      </trkpt>
      <trkpt lat="46.13677" lon="4.79548">
        <ele>195.2</ele>
        <time>2024-09-19T12:19:40Z</time>
      </trkpt>
      <trkpt lat="46.13673" lon="4.79544">
        <ele>195</ele>
        <time>2024-09-19T12:19:41Z</time>
      </trkpt>
      <trkpt lat="46.13669" lon="4.79539">
        <ele>195</ele>
        <time>2024-09-19T12:19:42Z</time>
      </trkpt>
      <trkpt lat="46.13662" lon="4.79533">
        <ele>195</ele>
        <time>2024-09-19T12:19:43Z</time>
      </trkpt>
      <trkpt lat="46.1366" lon="4.79531">
        <ele>195</ele>
        <time>2024-09-19T12:19:44Z</time>
      </trkpt>
      <trkpt lat="46.13654" lon="4.79525">
        <ele>195.2</ele>
        <time>2024-09-19T12:19:45Z</time>
      </trkpt>
      <trkpt lat="46.13652" lon="4.79522">
        <ele>195.2</ele>
        <time>2024-09-19T12:19:46Z</time>
      </trkpt>
      <trkpt lat="46.13646" lon="4.79516">
        <ele>195.2</ele>
        <time>2024-09-19T12:19:47Z</time>
      </trkpt>
      <trkpt lat="46.13644" lon="4.79514">
        <ele>195.2</ele>
        <time>2024-09-19T12:19:48Z</time>
      </trkpt>
      <trkpt lat="46.13639" lon="4.7951">
        <ele>195.2</ele>
        <time>2024-09-19T12:19:49Z</time>
      </trkpt>
      <trkpt lat="46.13635" lon="4.79505">
        <ele>195</ele>
        <time>2024-09-19T12:19:50Z</time>
      </trkpt>
      <trkpt lat="46.13631" lon="4.79501">
        <ele>195</ele>
        <time>2024-09-19T12:19:51Z</time>
      </trkpt>
      <trkpt lat="46.13627" lon="4.79496">
        <ele>195</ele>
        <time>2024-09-19T12:19:52Z</time>
      </trkpt>
      <trkpt lat="46.13622" lon="4.79492">
        <ele>195</ele>
        <time>2024-09-19T12:19:53Z</time>
      </trkpt>
      <trkpt lat="46.13616" lon="4.79486">
        <ele>195</ele>
        <time>2024-09-19T12:19:54Z</time>
      </trkpt>
      <trkpt lat="46.13614" lon="4.79484">
        <ele>194.8</ele>
        <time>2024-09-19T12:19:55Z</time>
      </trkpt>
      <trkpt lat="46.13607" lon="4.79478">
        <ele>194.8</ele>
        <time>2024-09-19T12:19:56Z</time>
      </trkpt>
      <trkpt lat="46.13605" lon="4.79476">
        <ele>194.8</ele>
        <time>2024-09-19T12:19:57Z</time>
      </trkpt>
      <trkpt lat="46.13601" lon="4.79472">
        <ele>194.8</ele>
        <time>2024-09-19T12:19:58Z</time>
      </trkpt>
      <trkpt lat="46.13597" lon="4.79468">
        <ele>194.8</ele>
        <time>2024-09-19T12:19:59Z</time>
      </trkpt>
      <trkpt lat="46.13591" lon="4.79462">
        <ele>195</ele>
        <time>2024-09-19T12:20:00Z</time>
      </trkpt>
      <trkpt lat="46.13589" lon="4.7946">
        <ele>195</ele>
        <time>2024-09-19T12:20:01Z</time>
      </trkpt>
      <trkpt lat="46.13585" lon="4.79456">
        <ele>195</ele>
        <time>2024-09-19T12:20:02Z</time>
      </trkpt>
      <trkpt lat="46.13579" lon="4.7945">
        <ele>195</ele>
        <time>2024-09-19T12:20:03Z</time>
      </trkpt>
      <trkpt lat="46.13577" lon="4.79448">
        <ele>195</ele>
        <time>2024-09-19T12:20:04Z</time>
      </trkpt>
      <trkpt lat="46.13572" lon="4.79444">
        <ele>195</ele>
        <time>2024-09-19T12:20:05Z</time>
      </trkpt>
      <trkpt lat="46.13568" lon="4.7944">
        <ele>195</ele>
        <time>2024-09-19T12:20:06Z</time>
      </trkpt>
      <trkpt lat="46.13564" lon="4.79436">
        <ele>195</ele>
        <time>2024-09-19T12:20:07Z</time>
      </trkpt>
      <trkpt lat="46.13559" lon="4.79432">
        <ele>195</ele>
        <time>2024-09-19T12:20:08Z</time>
      </trkpt>
      <trkpt lat="46.13553" lon="4.79426">
        <ele>194.8</ele>
        <time>2024-09-19T12:20:09Z</time>
      </trkpt>
      <trkpt lat="46.1355" lon="4.79424">
        <ele>194.8</ele>
        <time>2024-09-19T12:20:10Z</time>
      </trkpt>
      <trkpt lat="46.13544" lon="4.79419">
        <ele>194.8</ele>
        <time>2024-09-19T12:20:11Z</time>
      </trkpt>
      <trkpt lat="46.13542" lon="4.79417">
        <ele>195.2</ele>
        <time>2024-09-19T12:20:12Z</time>
      </trkpt>
      <trkpt lat="46.13535" lon="4.79411">
        <ele>195.2</ele>
        <time>2024-09-19T12:20:13Z</time>
      </trkpt>
      <trkpt lat="46.13533" lon="4.79409">
        <ele>195.2</ele>
        <time>2024-09-19T12:20:14Z</time>
      </trkpt>
      <trkpt lat="46.13527" lon="4.79402">
        <ele>195.2</ele>
        <time>2024-09-19T12:20:15Z</time>
      </trkpt>
      <trkpt lat="46.13525" lon="4.794">
        <ele>195</ele>
        <time>2024-09-19T12:20:16Z</time>
      </trkpt>
      <trkpt lat="46.1352" lon="4.79396">
        <ele>195</ele>
        <time>2024-09-19T12:20:17Z</time>
      </trkpt>
      <trkpt lat="46.13516" lon="4.79392">
        <ele>195</ele>
        <time>2024-09-19T12:20:18Z</time>
      </trkpt>
      <trkpt lat="46.13511" lon="4.79387">
        <ele>195</ele>
        <time>2024-09-19T12:20:19Z</time>
      </trkpt>
      <trkpt lat="46.13507" lon="4.79383">
        <ele>195</ele>
        <time>2024-09-19T12:20:20Z</time>
      </trkpt>
      <trkpt lat="46.135" lon="4.79377">
        <ele>195.2</ele>
        <time>2024-09-19T12:20:21Z</time>
      </trkpt>
      <trkpt lat="46.13498" lon="4.79374">
        <ele>195</ele>
        <time>2024-09-19T12:20:22Z</time>
      </trkpt>
      <trkpt lat="46.13494" lon="4.7937">
        <ele>195</ele>
        <time>2024-09-19T12:20:23Z</time>
      </trkpt>
      <trkpt lat="46.13489" lon="4.79365">
        <ele>195</ele>
        <time>2024-09-19T12:20:24Z</time>
      </trkpt>
      <trkpt lat="46.13483" lon="4.79359">
        <ele>195</ele>
        <time>2024-09-19T12:20:25Z</time>
      </trkpt>
      <trkpt lat="46.13481" lon="4.79357">
        <ele>194.8</ele>
        <time>2024-09-19T12:20:26Z</time>
      </trkpt>
      <trkpt lat="46.13474" lon="4.7935">
        <ele>194.8</ele>
        <time>2024-09-19T12:20:27Z</time>
      </trkpt>
      <trkpt lat="46.13472" lon="4.79348">
        <ele>194.8</ele>
        <time>2024-09-19T12:20:28Z</time>
      </trkpt>
      <trkpt lat="46.13468" lon="4.79344">
        <ele>194.8</ele>
        <time>2024-09-19T12:20:29Z</time>
      </trkpt>
      <trkpt lat="46.13464" lon="4.7934">
        <ele>194.8</ele>
        <time>2024-09-19T12:20:30Z</time>
      </trkpt>
      <trkpt lat="46.13457" lon="4.79334">
        <ele>194.8</ele>
        <time>2024-09-19T12:20:31Z</time>
      </trkpt>
      <trkpt lat="46.13455" lon="4.79332">
        <ele>194.8</ele>
        <time>2024-09-19T12:20:32Z</time>
      </trkpt>
      <trkpt lat="46.13451" lon="4.79328">
        <ele>194.8</ele>
        <time>2024-09-19T12:20:33Z</time>
      </trkpt>
      <trkpt lat="46.13446" lon="4.79324">
        <ele>194.8</ele>
        <time>2024-09-19T12:20:34Z</time>
      </trkpt>
      <trkpt lat="46.13442" lon="4.7932">
        <ele>195</ele>
        <time>2024-09-19T12:20:35Z</time>
      </trkpt>
      <trkpt lat="46.13436" lon="4.79314">
        <ele>195</ele>
        <time>2024-09-19T12:20:36Z</time>
      </trkpt>
      <trkpt lat="46.13434" lon="4.79312">
        <ele>195</ele>
        <time>2024-09-19T12:20:37Z</time>
      </trkpt>
      <trkpt lat="46.13429" lon="4.79308">
        <ele>195</ele>
        <time>2024-09-19T12:20:38Z</time>
      </trkpt>
      <trkpt lat="46.13423" lon="4.79302">
        <ele>195</ele>
        <time>2024-09-19T12:20:39Z</time>
      </trkpt>
      <trkpt lat="46.13421" lon="4.793">
        <ele>194.6</ele>
        <time>2024-09-19T12:20:40Z</time>
      </trkpt>
      <trkpt lat="46.13416" lon="4.79296">
        <ele>194.6</ele>
        <time>2024-09-19T12:20:41Z</time>
      </trkpt>
      <trkpt lat="46.13412" lon="4.79291">
        <ele>194.6</ele>
        <time>2024-09-19T12:20:42Z</time>
      </trkpt>
      <trkpt lat="46.13407" lon="4.79287">
        <ele>195</ele>
        <time>2024-09-19T12:20:43Z</time>
      </trkpt>
      <trkpt lat="46.13403" lon="4.79283">
        <ele>195</ele>
        <time>2024-09-19T12:20:44Z</time>
      </trkpt>
      <trkpt lat="46.13398" lon="4.79279">
        <ele>195.2</ele>
        <time>2024-09-19T12:20:45Z</time>
      </trkpt>
      <trkpt lat="46.13391" lon="4.79273">
        <ele>195.2</ele>
        <time>2024-09-19T12:20:46Z</time>
      </trkpt>
      <trkpt lat="46.13389" lon="4.79271">
        <ele>195.2</ele>
        <time>2024-09-19T12:20:47Z</time>
      </trkpt>
      <trkpt lat="46.13384" lon="4.79267">
        <ele>195</ele>
        <time>2024-09-19T12:20:48Z</time>
      </trkpt>
      <trkpt lat="46.13377" lon="4.79261">
        <ele>195</ele>
        <time>2024-09-19T12:20:49Z</time>
      </trkpt>
      <trkpt lat="46.13375" lon="4.79259">
        <ele>195</ele>
        <time>2024-09-19T12:20:50Z</time>
      </trkpt>
      <trkpt lat="46.13371" lon="4.79255">
        <ele>195</ele>
        <time>2024-09-19T12:20:51Z</time>
      </trkpt>
      <trkpt lat="46.13366" lon="4.79251">
        <ele>194.8</ele>
        <time>2024-09-19T12:20:52Z</time>
      </trkpt>
      <trkpt lat="46.13359" lon="4.79246">
        <ele>194.2</ele>
        <time>2024-09-19T12:20:53Z</time>
      </trkpt>
      <trkpt lat="46.13357" lon="4.79244">
        <ele>194.2</ele>
        <time>2024-09-19T12:20:54Z</time>
      </trkpt>
      <trkpt lat="46.1335" lon="4.79238">
        <ele>194.2</ele>
        <time>2024-09-19T12:20:55Z</time>
      </trkpt>
      <trkpt lat="46.13347" lon="4.79236">
        <ele>194.2</ele>
        <time>2024-09-19T12:20:56Z</time>
      </trkpt>
      <trkpt lat="46.13341" lon="4.79231">
        <ele>194.8</ele>
        <time>2024-09-19T12:20:57Z</time>
      </trkpt>
      <trkpt lat="46.13338" lon="4.79229">
        <ele>194.8</ele>
        <time>2024-09-19T12:20:58Z</time>
      </trkpt>
      <trkpt lat="46.13334" lon="4.79225">
        <ele>194.8</ele>
        <time>2024-09-19T12:20:59Z</time>
      </trkpt>
      <trkpt lat="46.1333" lon="4.79221">
        <ele>194.8</ele>
        <time>2024-09-19T12:21:00Z</time>
      </trkpt>
      <trkpt lat="46.13325" lon="4.79217">
        <ele>195</ele>
        <time>2024-09-19T12:21:01Z</time>
      </trkpt>
      <trkpt lat="46.13321" lon="4.79214">
        <ele>195</ele>
        <time>2024-09-19T12:21:02Z</time>
      </trkpt>
      <trkpt lat="46.13317" lon="4.7921">
        <ele>195</ele>
        <time>2024-09-19T12:21:03Z</time>
      </trkpt>
      <trkpt lat="46.13313" lon="4.79206">
        <ele>195</ele>
        <time>2024-09-19T12:21:04Z</time>
      </trkpt>
      <trkpt lat="46.13306" lon="4.792">
        <ele>195.2</ele>
        <time>2024-09-19T12:21:05Z</time>
      </trkpt>
      <trkpt lat="46.13304" lon="4.79198">
        <ele>195.2</ele>
        <time>2024-09-19T12:21:06Z</time>
      </trkpt>
      <trkpt lat="46.133" lon="4.79193">
        <ele>194.8</ele>
        <time>2024-09-19T12:21:07Z</time>
      </trkpt>
      <trkpt lat="46.13293" lon="4.79187">
        <ele>194.8</ele>
        <time>2024-09-19T12:21:08Z</time>
      </trkpt>
      <trkpt lat="46.13291" lon="4.79185">
        <ele>194.8</ele>
        <time>2024-09-19T12:21:09Z</time>
      </trkpt>
      <trkpt lat="46.13284" lon="4.79179">
        <ele>195</ele>
        <time>2024-09-19T12:21:10Z</time>
      </trkpt>
      <trkpt lat="46.13282" lon="4.79177">
        <ele>194.8</ele>
        <time>2024-09-19T12:21:11Z</time>
      </trkpt>
      <trkpt lat="46.13278" lon="4.79173">
        <ele>194.8</ele>
        <time>2024-09-19T12:21:12Z</time>
      </trkpt>
      <trkpt lat="46.13274" lon="4.79169">
        <ele>194.8</ele>
        <time>2024-09-19T12:21:13Z</time>
      </trkpt>
      <trkpt lat="46.13267" lon="4.79163">
        <ele>195.2</ele>
        <time>2024-09-19T12:21:14Z</time>
      </trkpt>
      <trkpt lat="46.13265" lon="4.7916">
        <ele>195.2</ele>
        <time>2024-09-19T12:21:15Z</time>
      </trkpt>
      <trkpt lat="46.13261" lon="4.79156">
        <ele>195.2</ele>
        <time>2024-09-19T12:21:16Z</time>
      </trkpt>
      <trkpt lat="46.13257" lon="4.79151">
        <ele>195.2</ele>
        <time>2024-09-19T12:21:17Z</time>
      </trkpt>
      <trkpt lat="46.13253" lon="4.79146">
        <ele>195.2</ele>
        <time>2024-09-19T12:21:18Z</time>
      </trkpt>
      <trkpt lat="46.13248" lon="4.79142">
        <ele>195.2</ele>
        <time>2024-09-19T12:21:19Z</time>
      </trkpt>
      <trkpt lat="46.13244" lon="4.79138">
        <ele>195.4</ele>
        <time>2024-09-19T12:21:20Z</time>
      </trkpt>
      <trkpt lat="46.13238" lon="4.7913">
        <ele>195.4</ele>
        <time>2024-09-19T12:21:21Z</time>
      </trkpt>
      <trkpt lat="46.13236" lon="4.79128">
        <ele>195.4</ele>
        <time>2024-09-19T12:21:22Z</time>
      </trkpt>
      <trkpt lat="46.1323" lon="4.79121">
        <ele>195.4</ele>
        <time>2024-09-19T12:21:23Z</time>
      </trkpt>
      <trkpt lat="46.13228" lon="4.79118">
        <ele>195.4</ele>
        <time>2024-09-19T12:21:24Z</time>
      </trkpt>
      <trkpt lat="46.13222" lon="4.7911">
        <ele>195.4</ele>
        <time>2024-09-19T12:21:25Z</time>
      </trkpt>
      <trkpt lat="46.13219" lon="4.79108">
        <ele>195.4</ele>
        <time>2024-09-19T12:21:26Z</time>
      </trkpt>
      <trkpt lat="46.13215" lon="4.79103">
        <ele>195.4</ele>
        <time>2024-09-19T12:21:27Z</time>
      </trkpt>
      <trkpt lat="46.13211" lon="4.79098">
        <ele>195.4</ele>
        <time>2024-09-19T12:21:28Z</time>
      </trkpt>
      <trkpt lat="46.13207" lon="4.79093">
        <ele>195.4</ele>
        <time>2024-09-19T12:21:29Z</time>
      </trkpt>
      <trkpt lat="46.13201" lon="4.79084">
        <ele>195.4</ele>
        <time>2024-09-19T12:21:30Z</time>
      </trkpt>
      <trkpt lat="46.13199" lon="4.79082">
        <ele>195.4</ele>
        <time>2024-09-19T12:21:31Z</time>
      </trkpt>
      <trkpt lat="46.13195" lon="4.79076">
        <ele>195.4</ele>
        <time>2024-09-19T12:21:32Z</time>
      </trkpt>
      <trkpt lat="46.13188" lon="4.79069">
        <ele>195.4</ele>
        <time>2024-09-19T12:21:33Z</time>
      </trkpt>
      <trkpt lat="46.13186" lon="4.79067">
        <ele>195.6</ele>
        <time>2024-09-19T12:21:34Z</time>
      </trkpt>
      <trkpt lat="46.13182" lon="4.79062">
        <ele>195.6</ele>
        <time>2024-09-19T12:21:35Z</time>
      </trkpt>
      <trkpt lat="46.13179" lon="4.79057">
        <ele>195.6</ele>
        <time>2024-09-19T12:21:36Z</time>
      </trkpt>
      <trkpt lat="46.13173" lon="4.79049">
        <ele>195.2</ele>
        <time>2024-09-19T12:21:37Z</time>
      </trkpt>
      <trkpt lat="46.13171" lon="4.79047">
        <ele>195.6</ele>
        <time>2024-09-19T12:21:38Z</time>
      </trkpt>
      <trkpt lat="46.13165" lon="4.79039">
        <ele>195.6</ele>
        <time>2024-09-19T12:21:39Z</time>
      </trkpt>
      <trkpt lat="46.13163" lon="4.79037">
        <ele>195.6</ele>
        <time>2024-09-19T12:21:40Z</time>
      </trkpt>
      <trkpt lat="46.13157" lon="4.79029">
        <ele>195.6</ele>
        <time>2024-09-19T12:21:41Z</time>
      </trkpt>
      <trkpt lat="46.13155" lon="4.79027">
        <ele>195.6</ele>
        <time>2024-09-19T12:21:42Z</time>
      </trkpt>
      <trkpt lat="46.13148" lon="4.79019">
        <ele>195.6</ele>
        <time>2024-09-19T12:21:43Z</time>
      </trkpt>
      <trkpt lat="46.13146" lon="4.79017">
        <ele>195.4</ele>
        <time>2024-09-19T12:21:44Z</time>
      </trkpt>
      <trkpt lat="46.13142" lon="4.79012">
        <ele>195.4</ele>
        <time>2024-09-19T12:21:45Z</time>
      </trkpt>
      <trkpt lat="46.13138" lon="4.79007">
        <ele>195.4</ele>
        <time>2024-09-19T12:21:46Z</time>
      </trkpt>
      <trkpt lat="46.13132" lon="4.78999">
        <ele>195</ele>
        <time>2024-09-19T12:21:47Z</time>
      </trkpt>
      <trkpt lat="46.1313" lon="4.78997">
        <ele>195</ele>
        <time>2024-09-19T12:21:48Z</time>
      </trkpt>
      <trkpt lat="46.13126" lon="4.78991">
        <ele>195</ele>
        <time>2024-09-19T12:21:49Z</time>
      </trkpt>
      <trkpt lat="46.13122" lon="4.78986">
        <ele>195</ele>
        <time>2024-09-19T12:21:50Z</time>
      </trkpt>
      <trkpt lat="46.13118" lon="4.78981">
        <ele>195.4</ele>
        <time>2024-09-19T12:21:51Z</time>
      </trkpt>
      <trkpt lat="46.13111" lon="4.78974">
        <ele>195.4</ele>
        <time>2024-09-19T12:21:52Z</time>
      </trkpt>
      <trkpt lat="46.13109" lon="4.78971">
        <ele>195.4</ele>
        <time>2024-09-19T12:21:53Z</time>
      </trkpt>
      <trkpt lat="46.13103" lon="4.78964">
        <ele>195.4</ele>
        <time>2024-09-19T12:21:54Z</time>
      </trkpt>
      <trkpt lat="46.13101" lon="4.78961">
        <ele>195.2</ele>
        <time>2024-09-19T12:21:55Z</time>
      </trkpt>
      <trkpt lat="46.13097" lon="4.78956">
        <ele>195.2</ele>
        <time>2024-09-19T12:21:56Z</time>
      </trkpt>
      <trkpt lat="46.13094" lon="4.78951">
        <ele>195.2</ele>
        <time>2024-09-19T12:21:57Z</time>
      </trkpt>
      <trkpt lat="46.1309" lon="4.78945">
        <ele>195.2</ele>
        <time>2024-09-19T12:21:58Z</time>
      </trkpt>
      <trkpt lat="46.13086" lon="4.7894">
        <ele>195.2</ele>
        <time>2024-09-19T12:21:59Z</time>
      </trkpt>
      <trkpt lat="46.13083" lon="4.78934">
        <ele>195.2</ele>
        <time>2024-09-19T12:22:00Z</time>
      </trkpt>
      <trkpt lat="46.13079" lon="4.78929">
        <ele>195.2</ele>
        <time>2024-09-19T12:22:01Z</time>
      </trkpt>
      <trkpt lat="46.13076" lon="4.78924">
        <ele>195.2</ele>
        <time>2024-09-19T12:22:02Z</time>
      </trkpt>
      <trkpt lat="46.1307" lon="4.78917">
        <ele>195.2</ele>
        <time>2024-09-19T12:22:03Z</time>
      </trkpt>
      <trkpt lat="46.13068" lon="4.78915">
        <ele>195.2</ele>
        <time>2024-09-19T12:22:04Z</time>
      </trkpt>
      <trkpt lat="46.13063" lon="4.78911">
        <ele>195.2</ele>
        <time>2024-09-19T12:22:05Z</time>
      </trkpt>
      <trkpt lat="46.13059" lon="4.78908">
        <ele>195.4</ele>
        <time>2024-09-19T12:22:06Z</time>
      </trkpt>
      <trkpt lat="46.13054" lon="4.78905">
        <ele>195.4</ele>
        <time>2024-09-19T12:22:07Z</time>
      </trkpt>
      <trkpt lat="46.13049" lon="4.78901">
        <ele>195.4</ele>
        <time>2024-09-19T12:22:08Z</time>
      </trkpt>
      <trkpt lat="46.13044" lon="4.78898">
        <ele>195</ele>
        <time>2024-09-19T12:22:09Z</time>
      </trkpt>
      <trkpt lat="46.13039" lon="4.78894">
        <ele>195</ele>
        <time>2024-09-19T12:22:10Z</time>
      </trkpt>
      <trkpt lat="46.13034" lon="4.78891">
        <ele>195</ele>
        <time>2024-09-19T12:22:11Z</time>
      </trkpt>
      <trkpt lat="46.13027" lon="4.78887">
        <ele>195</ele>
        <time>2024-09-19T12:22:12Z</time>
      </trkpt>
      <trkpt lat="46.13024" lon="4.78886">
        <ele>195</ele>
        <time>2024-09-19T12:22:13Z</time>
      </trkpt>
      <trkpt lat="46.13019" lon="4.78883">
        <ele>195.2</ele>
        <time>2024-09-19T12:22:14Z</time>
      </trkpt>
      <trkpt lat="46.13014" lon="4.7888">
        <ele>195</ele>
        <time>2024-09-19T12:22:15Z</time>
      </trkpt>
      <trkpt lat="46.13009" lon="4.78876">
        <ele>195</ele>
        <time>2024-09-19T12:22:16Z</time>
      </trkpt>
      <trkpt lat="46.13004" lon="4.78872">
        <ele>195</ele>
        <time>2024-09-19T12:22:17Z</time>
      </trkpt>
      <trkpt lat="46.13" lon="4.78867">
        <ele>195</ele>
        <time>2024-09-19T12:22:18Z</time>
      </trkpt>
      <trkpt lat="46.12996" lon="4.78863">
        <ele>195</ele>
        <time>2024-09-19T12:22:19Z</time>
      </trkpt>
      <trkpt lat="46.1299" lon="4.78856">
        <ele>195</ele>
        <time>2024-09-19T12:22:20Z</time>
      </trkpt>
      <trkpt lat="46.12988" lon="4.78854">
        <ele>195</ele>
        <time>2024-09-19T12:22:21Z</time>
      </trkpt>
      <trkpt lat="46.12982" lon="4.78847">
        <ele>195</ele>
        <time>2024-09-19T12:22:22Z</time>
      </trkpt>
      <trkpt lat="46.1298" lon="4.78845">
        <ele>195</ele>
        <time>2024-09-19T12:22:23Z</time>
      </trkpt>
      <trkpt lat="46.12976" lon="4.7884">
        <ele>195.2</ele>
        <time>2024-09-19T12:22:24Z</time>
      </trkpt>
      <trkpt lat="46.1297" lon="4.78833">
        <ele>195.2</ele>
        <time>2024-09-19T12:22:25Z</time>
      </trkpt>
      <trkpt lat="46.12968" lon="4.78831">
        <ele>195.2</ele>
        <time>2024-09-19T12:22:26Z</time>
      </trkpt>
      <trkpt lat="46.12964" lon="4.78826">
        <ele>195.2</ele>
        <time>2024-09-19T12:22:27Z</time>
      </trkpt>
      <trkpt lat="46.12961" lon="4.78821">
        <ele>195</ele>
        <time>2024-09-19T12:22:28Z</time>
      </trkpt>
      <trkpt lat="46.12957" lon="4.78816">
        <ele>195</ele>
        <time>2024-09-19T12:22:29Z</time>
      </trkpt>
      <trkpt lat="46.12953" lon="4.78811">
        <ele>195</ele>
        <time>2024-09-19T12:22:30Z</time>
      </trkpt>
      <trkpt lat="46.12948" lon="4.78804">
        <ele>195</ele>
        <time>2024-09-19T12:22:31Z</time>
      </trkpt>
      <trkpt lat="46.12946" lon="4.78802">
        <ele>195</ele>
        <time>2024-09-19T12:22:32Z</time>
      </trkpt>
      <trkpt lat="46.12942" lon="4.78797">
        <ele>195.2</ele>
        <time>2024-09-19T12:22:33Z</time>
      </trkpt>
      <trkpt lat="46.12936" lon="4.7879">
        <ele>195.2</ele>
        <time>2024-09-19T12:22:34Z</time>
      </trkpt>
      <trkpt lat="46.12935" lon="4.78787">
        <ele>195.2</ele>
        <time>2024-09-19T12:22:35Z</time>
      </trkpt>
      <trkpt lat="46.12929" lon="4.7878">
        <ele>195.2</ele>
        <time>2024-09-19T12:22:36Z</time>
      </trkpt>
      <trkpt lat="46.12927" lon="4.78777">
        <ele>195.2</ele>
        <time>2024-09-19T12:22:37Z</time>
      </trkpt>
      <trkpt lat="46.12921" lon="4.7877">
        <ele>195.2</ele>
        <time>2024-09-19T12:22:38Z</time>
      </trkpt>
      <trkpt lat="46.12919" lon="4.78768">
        <ele>195.2</ele>
        <time>2024-09-19T12:22:39Z</time>
      </trkpt>
      <trkpt lat="46.12915" lon="4.78762">
        <ele>195.2</ele>
        <time>2024-09-19T12:22:40Z</time>
      </trkpt>
      <trkpt lat="46.12912" lon="4.78758">
        <ele>195</ele>
        <time>2024-09-19T12:22:41Z</time>
      </trkpt>
      <trkpt lat="46.12908" lon="4.78753">
        <ele>195</ele>
        <time>2024-09-19T12:22:42Z</time>
      </trkpt>
      <trkpt lat="46.12904" lon="4.78748">
        <ele>195</ele>
        <time>2024-09-19T12:22:43Z</time>
      </trkpt>
      <trkpt lat="46.129" lon="4.78743">
        <ele>195</ele>
        <time>2024-09-19T12:22:44Z</time>
      </trkpt>
      <trkpt lat="46.12894" lon="4.78736">
        <ele>195.2</ele>
        <time>2024-09-19T12:22:45Z</time>
      </trkpt>
      <trkpt lat="46.12892" lon="4.78733">
        <ele>195.2</ele>
        <time>2024-09-19T12:22:46Z</time>
      </trkpt>
      <trkpt lat="46.12888" lon="4.78728">
        <ele>195.2</ele>
        <time>2024-09-19T12:22:47Z</time>
      </trkpt>
      <trkpt lat="46.12883" lon="4.78721">
        <ele>195.2</ele>
        <time>2024-09-19T12:22:48Z</time>
      </trkpt>
      <trkpt lat="46.12881" lon="4.78718">
        <ele>195.2</ele>
        <time>2024-09-19T12:22:49Z</time>
      </trkpt>
      <trkpt lat="46.12877" lon="4.78713">
        <ele>195.2</ele>
        <time>2024-09-19T12:22:50Z</time>
      </trkpt>
      <trkpt lat="46.12873" lon="4.78708">
        <ele>195.2</ele>
        <time>2024-09-19T12:22:51Z</time>
      </trkpt>
      <trkpt lat="46.1287" lon="4.78703">
        <ele>195.2</ele>
        <time>2024-09-19T12:22:52Z</time>
      </trkpt>
      <trkpt lat="46.12866" lon="4.78698">
        <ele>195.2</ele>
        <time>2024-09-19T12:22:53Z</time>
      </trkpt>
      <trkpt lat="46.12862" lon="4.78693">
        <ele>195</ele>
        <time>2024-09-19T12:22:54Z</time>
      </trkpt>
      <trkpt lat="46.12856" lon="4.78685">
        <ele>195.2</ele>
        <time>2024-09-19T12:22:55Z</time>
      </trkpt>
      <trkpt lat="46.12854" lon="4.78682">
        <ele>195.2</ele>
        <time>2024-09-19T12:22:56Z</time>
      </trkpt>
      <trkpt lat="46.1285" lon="4.78677">
        <ele>195.2</ele>
        <time>2024-09-19T12:22:57Z</time>
      </trkpt>
      <trkpt lat="46.12844" lon="4.7867">
        <ele>195.2</ele>
        <time>2024-09-19T12:22:58Z</time>
      </trkpt>
      <trkpt lat="46.12842" lon="4.78667">
        <ele>195</ele>
        <time>2024-09-19T12:22:59Z</time>
      </trkpt>
      <trkpt lat="46.12838" lon="4.78662">
        <ele>195.2</ele>
        <time>2024-09-19T12:23:00Z</time>
      </trkpt>
      <trkpt lat="46.12834" lon="4.78657">
        <ele>195.2</ele>
        <time>2024-09-19T12:23:01Z</time>
      </trkpt>
      <trkpt lat="46.12829" lon="4.78649">
        <ele>195.2</ele>
        <time>2024-09-19T12:23:02Z</time>
      </trkpt>
      <trkpt lat="46.12827" lon="4.78647">
        <ele>195.2</ele>
        <time>2024-09-19T12:23:03Z</time>
      </trkpt>
      <trkpt lat="46.12821" lon="4.78639">
        <ele>194.8</ele>
        <time>2024-09-19T12:23:04Z</time>
      </trkpt>
      <trkpt lat="46.12819" lon="4.78637">
        <ele>194.8</ele>
        <time>2024-09-19T12:23:05Z</time>
      </trkpt>
      <trkpt lat="46.12813" lon="4.78629">
        <ele>194.8</ele>
        <time>2024-09-19T12:23:06Z</time>
      </trkpt>
      <trkpt lat="46.12811" lon="4.78626">
        <ele>195</ele>
        <time>2024-09-19T12:23:07Z</time>
      </trkpt>
      <trkpt lat="46.12807" lon="4.78621">
        <ele>195</ele>
        <time>2024-09-19T12:23:08Z</time>
      </trkpt>
      <trkpt lat="46.12803" lon="4.78616">
        <ele>195</ele>
        <time>2024-09-19T12:23:09Z</time>
      </trkpt>
      <trkpt lat="46.128" lon="4.78611">
        <ele>195</ele>
        <time>2024-09-19T12:23:10Z</time>
      </trkpt>
      <trkpt lat="46.12796" lon="4.78606">
        <ele>195</ele>
        <time>2024-09-19T12:23:11Z</time>
      </trkpt>
      <trkpt lat="46.12792" lon="4.78601">
        <ele>195</ele>
        <time>2024-09-19T12:23:12Z</time>
      </trkpt>
      <trkpt lat="46.12788" lon="4.78596">
        <ele>195</ele>
        <time>2024-09-19T12:23:13Z</time>
      </trkpt>
      <trkpt lat="46.12784" lon="4.78591">
        <ele>195</ele>
        <time>2024-09-19T12:23:14Z</time>
      </trkpt>
      <trkpt lat="46.1278" lon="4.78586">
        <ele>195</ele>
        <time>2024-09-19T12:23:15Z</time>
      </trkpt>
      <trkpt lat="46.12777" lon="4.78581">
        <ele>195</ele>
        <time>2024-09-19T12:23:16Z</time>
      </trkpt>
      <trkpt lat="46.12773" lon="4.78576">
        <ele>195</ele>
        <time>2024-09-19T12:23:17Z</time>
      </trkpt>
      <trkpt lat="46.12767" lon="4.78569">
        <ele>195</ele>
        <time>2024-09-19T12:23:18Z</time>
      </trkpt>
      <trkpt lat="46.12765" lon="4.78566">
        <ele>195</ele>
        <time>2024-09-19T12:23:19Z</time>
      </trkpt>
      <trkpt lat="46.12759" lon="4.78559">
        <ele>195</ele>
        <time>2024-09-19T12:23:20Z</time>
      </trkpt>
      <trkpt lat="46.12757" lon="4.78557">
        <ele>195</ele>
        <time>2024-09-19T12:23:21Z</time>
      </trkpt>
      <trkpt lat="46.12752" lon="4.78552">
        <ele>195</ele>
        <time>2024-09-19T12:23:22Z</time>
      </trkpt>
      <trkpt lat="46.12748" lon="4.78547">
        <ele>195</ele>
        <time>2024-09-19T12:23:23Z</time>
      </trkpt>
      <trkpt lat="46.12745" lon="4.78541">
        <ele>195</ele>
        <time>2024-09-19T12:23:24Z</time>
      </trkpt>
      <trkpt lat="46.12741" lon="4.78536">
        <ele>195.4</ele>
        <time>2024-09-19T12:23:25Z</time>
      </trkpt>
      <trkpt lat="46.12737" lon="4.78531">
        <ele>195.4</ele>
        <time>2024-09-19T12:23:26Z</time>
      </trkpt>
      <trkpt lat="46.12731" lon="4.78524">
        <ele>195.4</ele>
        <time>2024-09-19T12:23:27Z</time>
      </trkpt>
      <trkpt lat="46.12729" lon="4.78521">
        <ele>195.4</ele>
        <time>2024-09-19T12:23:28Z</time>
      </trkpt>
      <trkpt lat="46.12724" lon="4.78513">
        <ele>195.2</ele>
        <time>2024-09-19T12:23:29Z</time>
      </trkpt>
      <trkpt lat="46.12722" lon="4.78511">
        <ele>195.2</ele>
        <time>2024-09-19T12:23:30Z</time>
      </trkpt>
      <trkpt lat="46.12716" lon="4.78503">
        <ele>195.2</ele>
        <time>2024-09-19T12:23:31Z</time>
      </trkpt>
      <trkpt lat="46.12714" lon="4.785">
        <ele>195.4</ele>
        <time>2024-09-19T12:23:32Z</time>
      </trkpt>
      <trkpt lat="46.1271" lon="4.78495">
        <ele>195.4</ele>
        <time>2024-09-19T12:23:33Z</time>
      </trkpt>
      <trkpt lat="46.12706" lon="4.7849">
        <ele>195.4</ele>
        <time>2024-09-19T12:23:34Z</time>
      </trkpt>
      <trkpt lat="46.12702" lon="4.78485">
        <ele>195.4</ele>
        <time>2024-09-19T12:23:35Z</time>
      </trkpt>
      <trkpt lat="46.12698" lon="4.7848">
        <ele>195.4</ele>
        <time>2024-09-19T12:23:36Z</time>
      </trkpt>
      <trkpt lat="46.12694" lon="4.78475">
        <ele>195.4</ele>
        <time>2024-09-19T12:23:37Z</time>
      </trkpt>
      <trkpt lat="46.12688" lon="4.78467">
        <ele>195.4</ele>
        <time>2024-09-19T12:23:38Z</time>
      </trkpt>
      <trkpt lat="46.12686" lon="4.78464">
        <ele>195.6</ele>
        <time>2024-09-19T12:23:39Z</time>
      </trkpt>
      <trkpt lat="46.12682" lon="4.78459">
        <ele>195.2</ele>
        <time>2024-09-19T12:23:40Z</time>
      </trkpt>
      <trkpt lat="46.12677" lon="4.78452">
        <ele>195.2</ele>
        <time>2024-09-19T12:23:41Z</time>
      </trkpt>
      <trkpt lat="46.12675" lon="4.78449">
        <ele>195.2</ele>
        <time>2024-09-19T12:23:42Z</time>
      </trkpt>
      <trkpt lat="46.12671" lon="4.78444">
        <ele>195.2</ele>
        <time>2024-09-19T12:23:43Z</time>
      </trkpt>
      <trkpt lat="46.12667" lon="4.78439">
        <ele>195.6</ele>
        <time>2024-09-19T12:23:44Z</time>
      </trkpt>
      <trkpt lat="46.12661" lon="4.78431">
        <ele>195.6</ele>
        <time>2024-09-19T12:23:45Z</time>
      </trkpt>
      <trkpt lat="46.12659" lon="4.78429">
        <ele>195.6</ele>
        <time>2024-09-19T12:23:46Z</time>
      </trkpt>
      <trkpt lat="46.12654" lon="4.78421">
        <ele>195.6</ele>
        <time>2024-09-19T12:23:47Z</time>
      </trkpt>
      <trkpt lat="46.12652" lon="4.78419">
        <ele>195.6</ele>
        <time>2024-09-19T12:23:48Z</time>
      </trkpt>
      <trkpt lat="46.12649" lon="4.78414">
        <ele>195.4</ele>
        <time>2024-09-19T12:23:49Z</time>
      </trkpt>
      <trkpt lat="46.12645" lon="4.78409">
        <ele>195.4</ele>
        <time>2024-09-19T12:23:50Z</time>
      </trkpt>
      <trkpt lat="46.12641" lon="4.78404">
        <ele>195.4</ele>
        <time>2024-09-19T12:23:51Z</time>
      </trkpt>
      <trkpt lat="46.12638" lon="4.784">
        <ele>195.4</ele>
        <time>2024-09-19T12:23:52Z</time>
      </trkpt>
      <trkpt lat="46.12633" lon="4.78392">
        <ele>195.4</ele>
        <time>2024-09-19T12:23:53Z</time>
      </trkpt>
      <trkpt lat="46.12631" lon="4.7839">
        <ele>195.4</ele>
        <time>2024-09-19T12:23:54Z</time>
      </trkpt>
      <trkpt lat="46.12628" lon="4.78385">
        <ele>195.4</ele>
        <time>2024-09-19T12:23:55Z</time>
      </trkpt>
      <trkpt lat="46.12625" lon="4.7838">
        <ele>195.4</ele>
        <time>2024-09-19T12:23:56Z</time>
      </trkpt>
      <trkpt lat="46.1262" lon="4.78374">
        <ele>195.4</ele>
        <time>2024-09-19T12:23:57Z</time>
      </trkpt>
      <trkpt lat="46.12619" lon="4.78371">
        <ele>195.4</ele>
        <time>2024-09-19T12:23:58Z</time>
      </trkpt>
      <trkpt lat="46.12616" lon="4.78367">
        <ele>195.4</ele>
        <time>2024-09-19T12:23:59Z</time>
      </trkpt>
      <trkpt lat="46.12611" lon="4.78361">
        <ele>195.4</ele>
        <time>2024-09-19T12:24:00Z</time>
      </trkpt>
      <trkpt lat="46.1261" lon="4.78359">
        <ele>195.2</ele>
        <time>2024-09-19T12:24:01Z</time>
      </trkpt>
      <trkpt lat="46.12605" lon="4.78353">
        <ele>195.4</ele>
        <time>2024-09-19T12:24:02Z</time>
      </trkpt>
      <trkpt lat="46.12603" lon="4.78352">
        <ele>195.4</ele>
        <time>2024-09-19T12:24:03Z</time>
      </trkpt>
      <trkpt lat="46.12598" lon="4.78346">
        <ele>195.4</ele>
        <time>2024-09-19T12:24:04Z</time>
      </trkpt>
      <trkpt lat="46.12596" lon="4.78344">
        <ele>195.2</ele>
        <time>2024-09-19T12:24:05Z</time>
      </trkpt>
      <trkpt lat="46.12592" lon="4.78339">
        <ele>195.2</ele>
        <time>2024-09-19T12:24:06Z</time>
      </trkpt>
      <trkpt lat="46.12589" lon="4.78336">
        <ele>195.2</ele>
        <time>2024-09-19T12:24:07Z</time>
      </trkpt>
      <trkpt lat="46.12586" lon="4.78332">
        <ele>195.2</ele>
        <time>2024-09-19T12:24:08Z</time>
      </trkpt>
      <trkpt lat="46.12582" lon="4.78328">
        <ele>195.2</ele>
        <time>2024-09-19T12:24:09Z</time>
      </trkpt>
      <trkpt lat="46.12579" lon="4.78324">
        <ele>195.2</ele>
        <time>2024-09-19T12:24:10Z</time>
      </trkpt>
      <trkpt lat="46.12576" lon="4.7832">
        <ele>195.4</ele>
        <time>2024-09-19T12:24:11Z</time>
      </trkpt>
      <trkpt lat="46.12573" lon="4.78316">
        <ele>195.4</ele>
        <time>2024-09-19T12:24:12Z</time>
      </trkpt>
      <trkpt lat="46.12568" lon="4.78309">
        <ele>195.4</ele>
        <time>2024-09-19T12:24:13Z</time>
      </trkpt>
      <trkpt lat="46.12567" lon="4.78307">
        <ele>195.4</ele>
        <time>2024-09-19T12:24:14Z</time>
      </trkpt>
      <trkpt lat="46.12563" lon="4.78303">
        <ele>195.2</ele>
        <time>2024-09-19T12:24:15Z</time>
      </trkpt>
      <trkpt lat="46.1256" lon="4.78299">
        <ele>194.8</ele>
        <time>2024-09-19T12:24:16Z</time>
      </trkpt>
      <trkpt lat="46.12557" lon="4.78295">
        <ele>194.8</ele>
        <time>2024-09-19T12:24:17Z</time>
      </trkpt>
      <trkpt lat="46.12554" lon="4.78291">
        <ele>194.8</ele>
        <time>2024-09-19T12:24:18Z</time>
      </trkpt>
      <trkpt lat="46.1255" lon="4.78287">
        <ele>194.8</ele>
        <time>2024-09-19T12:24:19Z</time>
      </trkpt>
      <trkpt lat="46.12547" lon="4.78282">
        <ele>195.4</ele>
        <time>2024-09-19T12:24:20Z</time>
      </trkpt>
      <trkpt lat="46.12544" lon="4.78278">
        <ele>195.6</ele>
        <time>2024-09-19T12:24:21Z</time>
      </trkpt>
      <trkpt lat="46.12538" lon="4.78272">
        <ele>195.6</ele>
        <time>2024-09-19T12:24:22Z</time>
      </trkpt>
      <trkpt lat="46.12536" lon="4.78271">
        <ele>195.6</ele>
        <time>2024-09-19T12:24:23Z</time>
      </trkpt>
      <trkpt lat="46.12532" lon="4.78266">
        <ele>195.4</ele>
        <time>2024-09-19T12:24:24Z</time>
      </trkpt>
      <trkpt lat="46.12528" lon="4.78259">
        <ele>195.4</ele>
        <time>2024-09-19T12:24:25Z</time>
      </trkpt>
      <trkpt lat="46.12526" lon="4.78257">
        <ele>195.4</ele>
        <time>2024-09-19T12:24:26Z</time>
      </trkpt>
      <trkpt lat="46.12523" lon="4.78253">
        <ele>195.4</ele>
        <time>2024-09-19T12:24:27Z</time>
      </trkpt>
      <trkpt lat="46.1252" lon="4.78249">
        <ele>195.4</ele>
        <time>2024-09-19T12:24:28Z</time>
      </trkpt>
      <trkpt lat="46.12517" lon="4.78244">
        <ele>195.6</ele>
        <time>2024-09-19T12:24:29Z</time>
      </trkpt>
      <trkpt lat="46.12513" lon="4.7824">
        <ele>195.6</ele>
        <time>2024-09-19T12:24:30Z</time>
      </trkpt>
      <trkpt lat="46.12508" lon="4.78234">
        <ele>195.6</ele>
        <time>2024-09-19T12:24:31Z</time>
      </trkpt>
      <trkpt lat="46.12506" lon="4.78232">
        <ele>195.6</ele>
        <time>2024-09-19T12:24:32Z</time>
      </trkpt>
      <trkpt lat="46.12501" lon="4.78225">
        <ele>195.6</ele>
        <time>2024-09-19T12:24:33Z</time>
      </trkpt>
      <trkpt lat="46.12499" lon="4.78223">
        <ele>196</ele>
        <time>2024-09-19T12:24:34Z</time>
      </trkpt>
      <trkpt lat="46.12496" lon="4.78219">
        <ele>196</ele>
        <time>2024-09-19T12:24:35Z</time>
      </trkpt>
      <trkpt lat="46.12492" lon="4.78214">
        <ele>196</ele>
        <time>2024-09-19T12:24:36Z</time>
      </trkpt>
      <trkpt lat="46.12489" lon="4.7821">
        <ele>195.6</ele>
        <time>2024-09-19T12:24:37Z</time>
      </trkpt>
      <trkpt lat="46.12486" lon="4.78205">
        <ele>195.4</ele>
        <time>2024-09-19T12:24:38Z</time>
      </trkpt>
      <trkpt lat="46.12482" lon="4.78201">
        <ele>195.4</ele>
        <time>2024-09-19T12:24:39Z</time>
      </trkpt>
      <trkpt lat="46.12479" lon="4.78197">
        <ele>195.4</ele>
        <time>2024-09-19T12:24:40Z</time>
      </trkpt>
      <trkpt lat="46.12474" lon="4.7819">
        <ele>195.4</ele>
        <time>2024-09-19T12:24:41Z</time>
      </trkpt>
      <trkpt lat="46.12472" lon="4.78188">
        <ele>195.4</ele>
        <time>2024-09-19T12:24:42Z</time>
      </trkpt>
      <trkpt lat="46.12469" lon="4.78183">
        <ele>195.2</ele>
        <time>2024-09-19T12:24:43Z</time>
      </trkpt>
      <trkpt lat="46.12464" lon="4.78176">
        <ele>195.2</ele>
        <time>2024-09-19T12:24:44Z</time>
      </trkpt>
      <trkpt lat="46.12462" lon="4.78174">
        <ele>195.2</ele>
        <time>2024-09-19T12:24:45Z</time>
      </trkpt>
      <trkpt lat="46.12457" lon="4.78168">
        <ele>195.2</ele>
        <time>2024-09-19T12:24:46Z</time>
      </trkpt>
      <trkpt lat="46.12455" lon="4.78166">
        <ele>195.4</ele>
        <time>2024-09-19T12:24:47Z</time>
      </trkpt>
      <trkpt lat="46.12451" lon="4.78162">
        <ele>195.4</ele>
        <time>2024-09-19T12:24:48Z</time>
      </trkpt>
      <trkpt lat="46.12448" lon="4.78158">
        <ele>195.4</ele>
        <time>2024-09-19T12:24:49Z</time>
      </trkpt>
      <trkpt lat="46.12445" lon="4.78153">
        <ele>195.4</ele>
        <time>2024-09-19T12:24:50Z</time>
      </trkpt>
      <trkpt lat="46.12442" lon="4.78148">
        <ele>195.2</ele>
        <time>2024-09-19T12:24:51Z</time>
      </trkpt>
      <trkpt lat="46.12439" lon="4.78144">
        <ele>195.2</ele>
        <time>2024-09-19T12:24:52Z</time>
      </trkpt>
      <trkpt lat="46.12436" lon="4.7814">
        <ele>195.2</ele>
        <time>2024-09-19T12:24:53Z</time>
      </trkpt>
      <trkpt lat="46.12432" lon="4.78135">
        <ele>195.2</ele>
        <time>2024-09-19T12:24:54Z</time>
      </trkpt>
      <trkpt lat="46.12428" lon="4.78128">
        <ele>195.2</ele>
        <time>2024-09-19T12:24:55Z</time>
      </trkpt>
      <trkpt lat="46.12426" lon="4.78126">
        <ele>195.2</ele>
        <time>2024-09-19T12:24:56Z</time>
      </trkpt>
      <trkpt lat="46.12422" lon="4.78122">
        <ele>195.6</ele>
        <time>2024-09-19T12:24:57Z</time>
      </trkpt>
      <trkpt lat="46.12419" lon="4.78117">
        <ele>195.6</ele>
        <time>2024-09-19T12:24:58Z</time>
      </trkpt>
      <trkpt lat="46.12415" lon="4.78112">
        <ele>195.6</ele>
        <time>2024-09-19T12:24:59Z</time>
      </trkpt>
      <trkpt lat="46.12412" lon="4.78108">
        <ele>195.6</ele>
        <time>2024-09-19T12:25:00Z</time>
      </trkpt>
      <trkpt lat="46.12407" lon="4.78101">
        <ele>195.6</ele>
        <time>2024-09-19T12:25:01Z</time>
      </trkpt>
      <trkpt lat="46.12405" lon="4.78098">
        <ele>195.6</ele>
        <time>2024-09-19T12:25:02Z</time>
      </trkpt>
      <trkpt lat="46.12402" lon="4.78094">
        <ele>195.6</ele>
        <time>2024-09-19T12:25:03Z</time>
      </trkpt>
      <trkpt lat="46.12397" lon="4.78087">
        <ele>195.6</ele>
        <time>2024-09-19T12:25:04Z</time>
      </trkpt>
      <trkpt lat="46.12395" lon="4.78085">
        <ele>195.4</ele>
        <time>2024-09-19T12:25:05Z</time>
      </trkpt>
      <trkpt lat="46.12392" lon="4.7808">
        <ele>195.4</ele>
        <time>2024-09-19T12:25:06Z</time>
      </trkpt>
      <trkpt lat="46.12388" lon="4.78076">
        <ele>195.4</ele>
        <time>2024-09-19T12:25:07Z</time>
      </trkpt>
      <trkpt lat="46.12385" lon="4.78071">
        <ele>195.4</ele>
        <time>2024-09-19T12:25:08Z</time>
      </trkpt>
      <trkpt lat="46.12381" lon="4.78066">
        <ele>195.4</ele>
        <time>2024-09-19T12:25:09Z</time>
      </trkpt>
      <trkpt lat="46.12378" lon="4.78062">
        <ele>195.4</ele>
        <time>2024-09-19T12:25:10Z</time>
      </trkpt>
      <trkpt lat="46.12374" lon="4.78057">
        <ele>195.4</ele>
        <time>2024-09-19T12:25:11Z</time>
      </trkpt>
      <trkpt lat="46.12369" lon="4.78051">
        <ele>195.4</ele>
        <time>2024-09-19T12:25:12Z</time>
      </trkpt>
      <trkpt lat="46.12367" lon="4.78048">
        <ele>195.4</ele>
        <time>2024-09-19T12:25:13Z</time>
      </trkpt>
      <trkpt lat="46.12362" lon="4.78041">
        <ele>195.4</ele>
        <time>2024-09-19T12:25:14Z</time>
      </trkpt>
      <trkpt lat="46.1236" lon="4.78039">
        <ele>195.4</ele>
        <time>2024-09-19T12:25:15Z</time>
      </trkpt>
      <trkpt lat="46.12357" lon="4.78034">
        <ele>195.4</ele>
        <time>2024-09-19T12:25:16Z</time>
      </trkpt>
      <trkpt lat="46.12353" lon="4.7803">
        <ele>195.8</ele>
        <time>2024-09-19T12:25:17Z</time>
      </trkpt>
      <trkpt lat="46.12349" lon="4.78026">
        <ele>195.8</ele>
        <time>2024-09-19T12:25:18Z</time>
      </trkpt>
      <trkpt lat="46.12346" lon="4.78022">
        <ele>195.6</ele>
        <time>2024-09-19T12:25:19Z</time>
      </trkpt>
      <trkpt lat="46.12342" lon="4.78017">
        <ele>195.6</ele>
        <time>2024-09-19T12:25:20Z</time>
      </trkpt>
      <trkpt lat="46.12339" lon="4.78013">
        <ele>195.6</ele>
        <time>2024-09-19T12:25:21Z</time>
      </trkpt>
      <trkpt lat="46.12333" lon="4.78006">
        <ele>195.6</ele>
        <time>2024-09-19T12:25:22Z</time>
      </trkpt>
      <trkpt lat="46.12331" lon="4.78004">
        <ele>195.8</ele>
        <time>2024-09-19T12:25:23Z</time>
      </trkpt>
      <trkpt lat="46.12327" lon="4.78">
        <ele>195.8</ele>
        <time>2024-09-19T12:25:24Z</time>
      </trkpt>
      <trkpt lat="46.12322" lon="4.77993">
        <ele>195.8</ele>
        <time>2024-09-19T12:25:25Z</time>
      </trkpt>
      <trkpt lat="46.1232" lon="4.77991">
        <ele>195.4</ele>
        <time>2024-09-19T12:25:26Z</time>
      </trkpt>
      <trkpt lat="46.12314" lon="4.77984">
        <ele>195.8</ele>
        <time>2024-09-19T12:25:27Z</time>
      </trkpt>
      <trkpt lat="46.12312" lon="4.77982">
        <ele>195.8</ele>
        <time>2024-09-19T12:25:28Z</time>
      </trkpt>
      <trkpt lat="46.12306" lon="4.77976">
        <ele>195.8</ele>
        <time>2024-09-19T12:25:29Z</time>
      </trkpt>
      <trkpt lat="46.12304" lon="4.77974">
        <ele>195.8</ele>
        <time>2024-09-19T12:25:30Z</time>
      </trkpt>
      <trkpt lat="46.123" lon="4.7797">
        <ele>195.6</ele>
        <time>2024-09-19T12:25:31Z</time>
      </trkpt>
      <trkpt lat="46.12296" lon="4.77966">
        <ele>195.8</ele>
        <time>2024-09-19T12:25:32Z</time>
      </trkpt>
      <trkpt lat="46.12292" lon="4.77962">
        <ele>195.8</ele>
        <time>2024-09-19T12:25:33Z</time>
      </trkpt>
      <trkpt lat="46.12287" lon="4.77958">
        <ele>195.8</ele>
        <time>2024-09-19T12:25:34Z</time>
      </trkpt>
      <trkpt lat="46.12283" lon="4.77954">
        <ele>195.4</ele>
        <time>2024-09-19T12:25:35Z</time>
      </trkpt>
      <trkpt lat="46.12277" lon="4.77948">
        <ele>195.6</ele>
        <time>2024-09-19T12:25:36Z</time>
      </trkpt>
      <trkpt lat="46.12275" lon="4.77946">
        <ele>195.6</ele>
        <time>2024-09-19T12:25:37Z</time>
      </trkpt>
      <trkpt lat="46.1227" lon="4.77941">
        <ele>195.6</ele>
        <time>2024-09-19T12:25:38Z</time>
      </trkpt>
      <trkpt lat="46.12266" lon="4.77937">
        <ele>195.6</ele>
        <time>2024-09-19T12:25:39Z</time>
      </trkpt>
      <trkpt lat="46.1226" lon="4.77931">
        <ele>195.6</ele>
        <time>2024-09-19T12:25:40Z</time>
      </trkpt>
      <trkpt lat="46.12258" lon="4.77928">
        <ele>195.6</ele>
        <time>2024-09-19T12:25:41Z</time>
      </trkpt>
      <trkpt lat="46.12254" lon="4.77924">
        <ele>195.4</ele>
        <time>2024-09-19T12:25:42Z</time>
      </trkpt>
      <trkpt lat="46.1225" lon="4.77919">
        <ele>195.4</ele>
        <time>2024-09-19T12:25:43Z</time>
      </trkpt>
      <trkpt lat="46.12246" lon="4.77915">
        <ele>195.4</ele>
        <time>2024-09-19T12:25:44Z</time>
      </trkpt>
      <trkpt lat="46.1224" lon="4.77907">
        <ele>195.6</ele>
        <time>2024-09-19T12:25:45Z</time>
      </trkpt>
      <trkpt lat="46.12238" lon="4.77905">
        <ele>195.6</ele>
        <time>2024-09-19T12:25:46Z</time>
      </trkpt>
      <trkpt lat="46.12234" lon="4.779">
        <ele>195.6</ele>
        <time>2024-09-19T12:25:47Z</time>
      </trkpt>
      <trkpt lat="46.12229" lon="4.77892">
        <ele>195.6</ele>
        <time>2024-09-19T12:25:48Z</time>
      </trkpt>
      <trkpt lat="46.12227" lon="4.7789">
        <ele>195.4</ele>
        <time>2024-09-19T12:25:49Z</time>
      </trkpt>
      <trkpt lat="46.12223" lon="4.77885">
        <ele>195.4</ele>
        <time>2024-09-19T12:25:50Z</time>
      </trkpt>
      <trkpt lat="46.1222" lon="4.77879">
        <ele>195.4</ele>
        <time>2024-09-19T12:25:51Z</time>
      </trkpt>
      <trkpt lat="46.12214" lon="4.77871">
        <ele>195.4</ele>
        <time>2024-09-19T12:25:52Z</time>
      </trkpt>
      <trkpt lat="46.12213" lon="4.77869">
        <ele>195.4</ele>
        <time>2024-09-19T12:25:53Z</time>
      </trkpt>
      <trkpt lat="46.12207" lon="4.77861">
        <ele>195.4</ele>
        <time>2024-09-19T12:25:54Z</time>
      </trkpt>
      <trkpt lat="46.12206" lon="4.77858">
        <ele>195.4</ele>
        <time>2024-09-19T12:25:55Z</time>
      </trkpt>
      <trkpt lat="46.122" lon="4.7785">
        <ele>195.4</ele>
        <time>2024-09-19T12:25:56Z</time>
      </trkpt>
      <trkpt lat="46.12198" lon="4.77848">
        <ele>195.4</ele>
        <time>2024-09-19T12:25:57Z</time>
      </trkpt>
      <trkpt lat="46.12195" lon="4.77843">
        <ele>195.4</ele>
        <time>2024-09-19T12:25:58Z</time>
      </trkpt>
      <trkpt lat="46.12192" lon="4.77837">
        <ele>195.4</ele>
        <time>2024-09-19T12:25:59Z</time>
      </trkpt>
      <trkpt lat="46.12187" lon="4.77829">
        <ele>195.4</ele>
        <time>2024-09-19T12:26:00Z</time>
      </trkpt>
      <trkpt lat="46.12186" lon="4.77826">
        <ele>195.4</ele>
        <time>2024-09-19T12:26:01Z</time>
      </trkpt>
      <trkpt lat="46.12182" lon="4.7782">
        <ele>195.4</ele>
        <time>2024-09-19T12:26:02Z</time>
      </trkpt>
      <trkpt lat="46.12179" lon="4.77815">
        <ele>195.4</ele>
        <time>2024-09-19T12:26:03Z</time>
      </trkpt>
      <trkpt lat="46.12176" lon="4.77809">
        <ele>195.6</ele>
        <time>2024-09-19T12:26:04Z</time>
      </trkpt>
      <trkpt lat="46.12172" lon="4.77805">
        <ele>195.6</ele>
        <time>2024-09-19T12:26:05Z</time>
      </trkpt>
      <trkpt lat="46.12168" lon="4.778">
        <ele>195.6</ele>
        <time>2024-09-19T12:26:06Z</time>
      </trkpt>
      <trkpt lat="46.12164" lon="4.77797">
        <ele>195.6</ele>
        <time>2024-09-19T12:26:07Z</time>
      </trkpt>
      <trkpt lat="46.12157" lon="4.77792">
        <ele>195.8</ele>
        <time>2024-09-19T12:26:08Z</time>
      </trkpt>
      <trkpt lat="46.12154" lon="4.77791">
        <ele>195.8</ele>
        <time>2024-09-19T12:26:09Z</time>
      </trkpt>
      <trkpt lat="46.12147" lon="4.77786">
        <ele>195.8</ele>
        <time>2024-09-19T12:26:10Z</time>
      </trkpt>
      <trkpt lat="46.12145" lon="4.77784">
        <ele>195.4</ele>
        <time>2024-09-19T12:26:11Z</time>
      </trkpt>
      <trkpt lat="46.12139" lon="4.77778">
        <ele>195.2</ele>
        <time>2024-09-19T12:26:12Z</time>
      </trkpt>
      <trkpt lat="46.12137" lon="4.77776">
        <ele>195.2</ele>
        <time>2024-09-19T12:26:13Z</time>
      </trkpt>
      <trkpt lat="46.12133" lon="4.77772">
        <ele>195.2</ele>
        <time>2024-09-19T12:26:14Z</time>
      </trkpt>
      <trkpt lat="46.12129" lon="4.77768">
        <ele>195.2</ele>
        <time>2024-09-19T12:26:15Z</time>
      </trkpt>
      <trkpt lat="46.12125" lon="4.77764">
        <ele>195.6</ele>
        <time>2024-09-19T12:26:16Z</time>
      </trkpt>
      <trkpt lat="46.1212" lon="4.7776">
        <ele>195.4</ele>
        <time>2024-09-19T12:26:17Z</time>
      </trkpt>
      <trkpt lat="46.12114" lon="4.77753">
        <ele>195.4</ele>
        <time>2024-09-19T12:26:18Z</time>
      </trkpt>
      <trkpt lat="46.12113" lon="4.77751">
        <ele>195.4</ele>
        <time>2024-09-19T12:26:19Z</time>
      </trkpt>
      <trkpt lat="46.12108" lon="4.77748">
        <ele>195.4</ele>
        <time>2024-09-19T12:26:20Z</time>
      </trkpt>
      <trkpt lat="46.12102" lon="4.77741">
        <ele>195.4</ele>
        <time>2024-09-19T12:26:21Z</time>
      </trkpt>
      <trkpt lat="46.121" lon="4.77739">
        <ele>195.2</ele>
        <time>2024-09-19T12:26:22Z</time>
      </trkpt>
      <trkpt lat="46.12093" lon="4.77733">
        <ele>195.2</ele>
        <time>2024-09-19T12:26:23Z</time>
      </trkpt>
      <trkpt lat="46.12091" lon="4.77731">
        <ele>195.2</ele>
        <time>2024-09-19T12:26:24Z</time>
      </trkpt>
      <trkpt lat="46.12086" lon="4.77727">
        <ele>195.2</ele>
        <time>2024-09-19T12:26:25Z</time>
      </trkpt>
      <trkpt lat="46.12082" lon="4.77723">
        <ele>195.2</ele>
        <time>2024-09-19T12:26:26Z</time>
      </trkpt>
      <trkpt lat="46.12078" lon="4.77719">
        <ele>195.4</ele>
        <time>2024-09-19T12:26:27Z</time>
      </trkpt>
      <trkpt lat="46.12071" lon="4.77713">
        <ele>195.4</ele>
        <time>2024-09-19T12:26:28Z</time>
      </trkpt>
      <trkpt lat="46.12069" lon="4.77711">
        <ele>195.4</ele>
        <time>2024-09-19T12:26:29Z</time>
      </trkpt>
      <trkpt lat="46.12065" lon="4.77707">
        <ele>195.4</ele>
        <time>2024-09-19T12:26:30Z</time>
      </trkpt>
      <trkpt lat="46.12058" lon="4.777">
        <ele>195.6</ele>
        <time>2024-09-19T12:26:31Z</time>
      </trkpt>
      <trkpt lat="46.12056" lon="4.77698">
        <ele>195.6</ele>
        <time>2024-09-19T12:26:32Z</time>
      </trkpt>
      <trkpt lat="46.1205" lon="4.77692">
        <ele>195.6</ele>
        <time>2024-09-19T12:26:33Z</time>
      </trkpt>
      <trkpt lat="46.12048" lon="4.7769">
        <ele>195.6</ele>
        <time>2024-09-19T12:26:34Z</time>
      </trkpt>
      <trkpt lat="46.12041" lon="4.77684">
        <ele>195.6</ele>
        <time>2024-09-19T12:26:35Z</time>
      </trkpt>
      <trkpt lat="46.12039" lon="4.77682">
        <ele>195.6</ele>
        <time>2024-09-19T12:26:36Z</time>
      </trkpt>
      <trkpt lat="46.12032" lon="4.77677">
        <ele>195.6</ele>
        <time>2024-09-19T12:26:37Z</time>
      </trkpt>
      <trkpt lat="46.1203" lon="4.77676">
        <ele>195.6</ele>
        <time>2024-09-19T12:26:38Z</time>
      </trkpt>
      <trkpt lat="46.12023" lon="4.77672">
        <ele>195.6</ele>
        <time>2024-09-19T12:26:39Z</time>
      </trkpt>
      <trkpt lat="46.1202" lon="4.7767">
        <ele>195.6</ele>
        <time>2024-09-19T12:26:40Z</time>
      </trkpt>
      <trkpt lat="46.12013" lon="4.77666">
        <ele>195.6</ele>
        <time>2024-09-19T12:26:41Z</time>
      </trkpt>
      <trkpt lat="46.12011" lon="4.77665">
        <ele>195.6</ele>
        <time>2024-09-19T12:26:42Z</time>
      </trkpt>
      <trkpt lat="46.12004" lon="4.77661">
        <ele>195.6</ele>
        <time>2024-09-19T12:26:43Z</time>
      </trkpt>
      <trkpt lat="46.12002" lon="4.77659">
        <ele>195.8</ele>
        <time>2024-09-19T12:26:44Z</time>
      </trkpt>
      <trkpt lat="46.11997" lon="4.77657">
        <ele>195.8</ele>
        <time>2024-09-19T12:26:45Z</time>
      </trkpt>
      <trkpt lat="46.11992" lon="4.77655">
        <ele>195.8</ele>
        <time>2024-09-19T12:26:46Z</time>
      </trkpt>
      <trkpt lat="46.11988" lon="4.77652">
        <ele>195.8</ele>
        <time>2024-09-19T12:26:47Z</time>
      </trkpt>
      <trkpt lat="46.11983" lon="4.77649">
        <ele>195.6</ele>
        <time>2024-09-19T12:26:48Z</time>
      </trkpt>
      <trkpt lat="46.11978" lon="4.77646">
        <ele>195.6</ele>
        <time>2024-09-19T12:26:49Z</time>
      </trkpt>
      <trkpt lat="46.11974" lon="4.77643">
        <ele>195.6</ele>
        <time>2024-09-19T12:26:50Z</time>
      </trkpt>
      <trkpt lat="46.11967" lon="4.77639">
        <ele>195.6</ele>
        <time>2024-09-19T12:26:51Z</time>
      </trkpt>
      <trkpt lat="46.11964" lon="4.77638">
        <ele>195.6</ele>
        <time>2024-09-19T12:26:52Z</time>
      </trkpt>
      <trkpt lat="46.11959" lon="4.77635">
        <ele>195.8</ele>
        <time>2024-09-19T12:26:53Z</time>
      </trkpt>
      <trkpt lat="46.11952" lon="4.77632">
        <ele>195.8</ele>
        <time>2024-09-19T12:26:54Z</time>
      </trkpt>
      <trkpt lat="46.1195" lon="4.7763">
        <ele>195.8</ele>
        <time>2024-09-19T12:26:55Z</time>
      </trkpt>
      <trkpt lat="46.11946" lon="4.77628">
        <ele>195.8</ele>
        <time>2024-09-19T12:26:56Z</time>
      </trkpt>
      <trkpt lat="46.11941" lon="4.77626">
        <ele>196</ele>
        <time>2024-09-19T12:26:57Z</time>
      </trkpt>
      <trkpt lat="46.11937" lon="4.77624">
        <ele>196</ele>
        <time>2024-09-19T12:26:58Z</time>
      </trkpt>
      <trkpt lat="46.11932" lon="4.77622">
        <ele>196</ele>
        <time>2024-09-19T12:26:59Z</time>
      </trkpt>
      <trkpt lat="46.11928" lon="4.77621">
        <ele>196</ele>
        <time>2024-09-19T12:27:00Z</time>
      </trkpt>
      <trkpt lat="46.11923" lon="4.77619">
        <ele>196.2</ele>
        <time>2024-09-19T12:27:01Z</time>
      </trkpt>
      <trkpt lat="46.11919" lon="4.77617">
        <ele>196.2</ele>
        <time>2024-09-19T12:27:02Z</time>
      </trkpt>
      <trkpt lat="46.11912" lon="4.77614">
        <ele>196.2</ele>
        <time>2024-09-19T12:27:03Z</time>
      </trkpt>
      <trkpt lat="46.1191" lon="4.77612">
        <ele>196.2</ele>
        <time>2024-09-19T12:27:04Z</time>
      </trkpt>
      <trkpt lat="46.11906" lon="4.7761">
        <ele>196.2</ele>
        <time>2024-09-19T12:27:05Z</time>
      </trkpt>
      <trkpt lat="46.11902" lon="4.77608">
        <ele>196</ele>
        <time>2024-09-19T12:27:06Z</time>
      </trkpt>
      <trkpt lat="46.11898" lon="4.77606">
        <ele>196</ele>
        <time>2024-09-19T12:27:07Z</time>
      </trkpt>
      <trkpt lat="46.11894" lon="4.77604">
        <ele>196</ele>
        <time>2024-09-19T12:27:08Z</time>
      </trkpt>
      <trkpt lat="46.11891" lon="4.77602">
        <ele>196</ele>
        <time>2024-09-19T12:27:09Z</time>
      </trkpt>
      <trkpt lat="46.11885" lon="4.77599">
        <ele>196</ele>
        <time>2024-09-19T12:27:10Z</time>
      </trkpt>
      <trkpt lat="46.11883" lon="4.77598">
        <ele>196</ele>
        <time>2024-09-19T12:27:11Z</time>
      </trkpt>
      <trkpt lat="46.11879" lon="4.77596">
        <ele>196</ele>
        <time>2024-09-19T12:27:12Z</time>
      </trkpt>
      <trkpt lat="46.11872" lon="4.77593">
        <ele>196</ele>
        <time>2024-09-19T12:27:13Z</time>
      </trkpt>
      <trkpt lat="46.1187" lon="4.77592">
        <ele>196</ele>
        <time>2024-09-19T12:27:14Z</time>
      </trkpt>
      <trkpt lat="46.11866" lon="4.77589">
        <ele>196</ele>
        <time>2024-09-19T12:27:15Z</time>
      </trkpt>
      <trkpt lat="46.11862" lon="4.77587">
        <ele>196</ele>
        <time>2024-09-19T12:27:16Z</time>
      </trkpt>
      <trkpt lat="46.11857" lon="4.77584">
        <ele>196</ele>
        <time>2024-09-19T12:27:17Z</time>
      </trkpt>
      <trkpt lat="46.11853" lon="4.77582">
        <ele>196</ele>
        <time>2024-09-19T12:27:18Z</time>
      </trkpt>
      <trkpt lat="46.11846" lon="4.77578">
        <ele>196</ele>
        <time>2024-09-19T12:27:19Z</time>
      </trkpt>
      <trkpt lat="46.11844" lon="4.77577">
        <ele>196</ele>
        <time>2024-09-19T12:27:20Z</time>
      </trkpt>
      <trkpt lat="46.11837" lon="4.77573">
        <ele>196</ele>
        <time>2024-09-19T12:27:21Z</time>
      </trkpt>
      <trkpt lat="46.11835" lon="4.77572">
        <ele>196</ele>
        <time>2024-09-19T12:27:22Z</time>
      </trkpt>
      <trkpt lat="46.11828" lon="4.77568">
        <ele>196</ele>
        <time>2024-09-19T12:27:23Z</time>
      </trkpt>
      <trkpt lat="46.11826" lon="4.77567">
        <ele>196</ele>
        <time>2024-09-19T12:27:24Z</time>
      </trkpt>
      <trkpt lat="46.11819" lon="4.77563">
        <ele>196</ele>
        <time>2024-09-19T12:27:25Z</time>
      </trkpt>
      <trkpt lat="46.11817" lon="4.77561">
        <ele>196</ele>
        <time>2024-09-19T12:27:26Z</time>
      </trkpt>
      <trkpt lat="46.11812" lon="4.77559">
        <ele>196</ele>
        <time>2024-09-19T12:27:27Z</time>
      </trkpt>
      <trkpt lat="46.11808" lon="4.77556">
        <ele>196.4</ele>
        <time>2024-09-19T12:27:28Z</time>
      </trkpt>
      <trkpt lat="46.11801" lon="4.77552">
        <ele>196.2</ele>
        <time>2024-09-19T12:27:29Z</time>
      </trkpt>
      <trkpt lat="46.11799" lon="4.77551">
        <ele>196.2</ele>
        <time>2024-09-19T12:27:30Z</time>
      </trkpt>
      <trkpt lat="46.11792" lon="4.77547">
        <ele>196.2</ele>
        <time>2024-09-19T12:27:31Z</time>
      </trkpt>
      <trkpt lat="46.1179" lon="4.77546">
        <ele>196.2</ele>
        <time>2024-09-19T12:27:32Z</time>
      </trkpt>
      <trkpt lat="46.11785" lon="4.77543">
        <ele>196.2</ele>
        <time>2024-09-19T12:27:33Z</time>
      </trkpt>
      <trkpt lat="46.11779" lon="4.77539">
        <ele>196.2</ele>
        <time>2024-09-19T12:27:34Z</time>
      </trkpt>
      <trkpt lat="46.11777" lon="4.77538">
        <ele>196.2</ele>
        <time>2024-09-19T12:27:35Z</time>
      </trkpt>
      <trkpt lat="46.1177" lon="4.77534">
        <ele>196.2</ele>
        <time>2024-09-19T12:27:36Z</time>
      </trkpt>
      <trkpt lat="46.11768" lon="4.77532">
        <ele>196.2</ele>
        <time>2024-09-19T12:27:37Z</time>
      </trkpt>
      <trkpt lat="46.11763" lon="4.77529">
        <ele>196.2</ele>
        <time>2024-09-19T12:27:38Z</time>
      </trkpt>
      <trkpt lat="46.11758" lon="4.77526">
        <ele>196.2</ele>
        <time>2024-09-19T12:27:39Z</time>
      </trkpt>
      <trkpt lat="46.11754" lon="4.77523">
        <ele>196.2</ele>
        <time>2024-09-19T12:27:40Z</time>
      </trkpt>
      <trkpt lat="46.11749" lon="4.7752">
        <ele>196.2</ele>
        <time>2024-09-19T12:27:41Z</time>
      </trkpt>
      <trkpt lat="46.11745" lon="4.77517">
        <ele>196.2</ele>
        <time>2024-09-19T12:27:42Z</time>
      </trkpt>
      <trkpt lat="46.11738" lon="4.77512">
        <ele>196.2</ele>
        <time>2024-09-19T12:27:43Z</time>
      </trkpt>
      <trkpt lat="46.11736" lon="4.7751">
        <ele>196.2</ele>
        <time>2024-09-19T12:27:44Z</time>
      </trkpt>
      <trkpt lat="46.11731" lon="4.77507">
        <ele>196.2</ele>
        <time>2024-09-19T12:27:45Z</time>
      </trkpt>
      <trkpt lat="46.11724" lon="4.77502">
        <ele>196.2</ele>
        <time>2024-09-19T12:27:46Z</time>
      </trkpt>
      <trkpt lat="46.11722" lon="4.775">
        <ele>196.2</ele>
        <time>2024-09-19T12:27:47Z</time>
      </trkpt>
      <trkpt lat="46.11718" lon="4.77497">
        <ele>196.4</ele>
        <time>2024-09-19T12:27:48Z</time>
      </trkpt>
      <trkpt lat="46.11713" lon="4.77493">
        <ele>196.4</ele>
        <time>2024-09-19T12:27:49Z</time>
      </trkpt>
      <trkpt lat="46.11706" lon="4.77488">
        <ele>196.4</ele>
        <time>2024-09-19T12:27:50Z</time>
      </trkpt>
      <trkpt lat="46.11704" lon="4.77486">
        <ele>196.2</ele>
        <time>2024-09-19T12:27:51Z</time>
      </trkpt>
      <trkpt lat="46.117" lon="4.77483">
        <ele>196.2</ele>
        <time>2024-09-19T12:27:52Z</time>
      </trkpt>
      <trkpt lat="46.11693" lon="4.77478">
        <ele>196.2</ele>
        <time>2024-09-19T12:27:53Z</time>
      </trkpt>
      <trkpt lat="46.11691" lon="4.77476">
        <ele>196.2</ele>
        <time>2024-09-19T12:27:54Z</time>
      </trkpt>
      <trkpt lat="46.11686" lon="4.77473">
        <ele>196.2</ele>
        <time>2024-09-19T12:27:55Z</time>
      </trkpt>
      <trkpt lat="46.11682" lon="4.77469">
        <ele>196.2</ele>
        <time>2024-09-19T12:27:56Z</time>
      </trkpt>
      <trkpt lat="46.11677" lon="4.77465">
        <ele>196.2</ele>
        <time>2024-09-19T12:27:57Z</time>
      </trkpt>
      <trkpt lat="46.1167" lon="4.77459">
        <ele>196.2</ele>
        <time>2024-09-19T12:27:58Z</time>
      </trkpt>
      <trkpt lat="46.11668" lon="4.77457">
        <ele>196.2</ele>
        <time>2024-09-19T12:27:59Z</time>
      </trkpt>
      <trkpt lat="46.11663" lon="4.77454">
        <ele>196.2</ele>
        <time>2024-09-19T12:28:00Z</time>
      </trkpt>
      <trkpt lat="46.11659" lon="4.7745">
        <ele>196.2</ele>
        <time>2024-09-19T12:28:01Z</time>
      </trkpt>
      <trkpt lat="46.11652" lon="4.77445">
        <ele>196</ele>
        <time>2024-09-19T12:28:02Z</time>
      </trkpt>
      <trkpt lat="46.11649" lon="4.77443">
        <ele>196</ele>
        <time>2024-09-19T12:28:03Z</time>
      </trkpt>
      <trkpt lat="46.11642" lon="4.77438">
        <ele>196</ele>
        <time>2024-09-19T12:28:04Z</time>
      </trkpt>
      <trkpt lat="46.1164" lon="4.77436">
        <ele>196</ele>
        <time>2024-09-19T12:28:05Z</time>
      </trkpt>
      <trkpt lat="46.11633" lon="4.7743">
        <ele>196</ele>
        <time>2024-09-19T12:28:06Z</time>
      </trkpt>
      <trkpt lat="46.11631" lon="4.77428">
        <ele>196</ele>
        <time>2024-09-19T12:28:07Z</time>
      </trkpt>
      <trkpt lat="46.11626" lon="4.77425">
        <ele>196</ele>
        <time>2024-09-19T12:28:08Z</time>
      </trkpt>
      <trkpt lat="46.11621" lon="4.77423">
        <ele>196</ele>
        <time>2024-09-19T12:28:09Z</time>
      </trkpt>
      <trkpt lat="46.11616" lon="4.7742">
        <ele>196.2</ele>
        <time>2024-09-19T12:28:10Z</time>
      </trkpt>
      <trkpt lat="46.11612" lon="4.77418">
        <ele>196.2</ele>
        <time>2024-09-19T12:28:11Z</time>
      </trkpt>
      <trkpt lat="46.11606" lon="4.77415">
        <ele>196.2</ele>
        <time>2024-09-19T12:28:12Z</time>
      </trkpt>
      <trkpt lat="46.11601" lon="4.77413">
        <ele>196.2</ele>
        <time>2024-09-19T12:28:13Z</time>
      </trkpt>
      <trkpt lat="46.11597" lon="4.77411">
        <ele>195.8</ele>
        <time>2024-09-19T12:28:14Z</time>
      </trkpt>
      <trkpt lat="46.11592" lon="4.77408">
        <ele>196</ele>
        <time>2024-09-19T12:28:15Z</time>
      </trkpt>
      <trkpt lat="46.11584" lon="4.77405">
        <ele>196</ele>
        <time>2024-09-19T12:28:16Z</time>
      </trkpt>
      <trkpt lat="46.11582" lon="4.77404">
        <ele>196</ele>
        <time>2024-09-19T12:28:17Z</time>
      </trkpt>
      <trkpt lat="46.11574" lon="4.774">
        <ele>196</ele>
        <time>2024-09-19T12:28:18Z</time>
      </trkpt>
      <trkpt lat="46.11572" lon="4.77399">
        <ele>195.8</ele>
        <time>2024-09-19T12:28:19Z</time>
      </trkpt>
      <trkpt lat="46.11564" lon="4.77396">
        <ele>195.8</ele>
        <time>2024-09-19T12:28:20Z</time>
      </trkpt>
      <trkpt lat="46.11562" lon="4.77395">
        <ele>195.8</ele>
        <time>2024-09-19T12:28:21Z</time>
      </trkpt>
      <trkpt lat="46.11557" lon="4.77392">
        <ele>195.8</ele>
        <time>2024-09-19T12:28:22Z</time>
      </trkpt>
      <trkpt lat="46.11553" lon="4.7739">
        <ele>196.2</ele>
        <time>2024-09-19T12:28:23Z</time>
      </trkpt>
      <trkpt lat="46.11548" lon="4.77388">
        <ele>196.2</ele>
        <time>2024-09-19T12:28:24Z</time>
      </trkpt>
      <trkpt lat="46.11543" lon="4.77386">
        <ele>196.2</ele>
        <time>2024-09-19T12:28:25Z</time>
      </trkpt>
      <trkpt lat="46.11538" lon="4.77384">
        <ele>196.2</ele>
        <time>2024-09-19T12:28:26Z</time>
      </trkpt>
      <trkpt lat="46.11532" lon="4.7738">
        <ele>196.2</ele>
        <time>2024-09-19T12:28:27Z</time>
      </trkpt>
      <trkpt lat="46.11529" lon="4.77379">
        <ele>196.2</ele>
        <time>2024-09-19T12:28:28Z</time>
      </trkpt>
      <trkpt lat="46.11522" lon="4.77376">
        <ele>196</ele>
        <time>2024-09-19T12:28:29Z</time>
      </trkpt>
      <trkpt lat="46.1152" lon="4.77375">
        <ele>196</ele>
        <time>2024-09-19T12:28:30Z</time>
      </trkpt>
      <trkpt lat="46.11512" lon="4.77372">
        <ele>196</ele>
        <time>2024-09-19T12:28:31Z</time>
      </trkpt>
      <trkpt lat="46.1151" lon="4.7737">
        <ele>195.8</ele>
        <time>2024-09-19T12:28:32Z</time>
      </trkpt>
      <trkpt lat="46.11504" lon="4.77368">
        <ele>196</ele>
        <time>2024-09-19T12:28:33Z</time>
      </trkpt>
      <trkpt lat="46.11499" lon="4.77367">
        <ele>196</ele>
        <time>2024-09-19T12:28:34Z</time>
      </trkpt>
      <trkpt lat="46.11494" lon="4.77365">
        <ele>196</ele>
        <time>2024-09-19T12:28:35Z</time>
      </trkpt>
      <trkpt lat="46.11486" lon="4.77362">
        <ele>195.8</ele>
        <time>2024-09-19T12:28:36Z</time>
      </trkpt>
      <trkpt lat="46.11484" lon="4.77361">
        <ele>195.8</ele>
        <time>2024-09-19T12:28:37Z</time>
      </trkpt>
      <trkpt lat="46.11478" lon="4.7736">
        <ele>195.8</ele>
        <time>2024-09-19T12:28:38Z</time>
      </trkpt>
      <trkpt lat="46.11471" lon="4.77358">
        <ele>195.8</ele>
        <time>2024-09-19T12:28:39Z</time>
      </trkpt>
      <trkpt lat="46.11468" lon="4.77358">
        <ele>195.8</ele>
        <time>2024-09-19T12:28:40Z</time>
      </trkpt>
      <trkpt lat="46.11463" lon="4.77357">
        <ele>195.8</ele>
        <time>2024-09-19T12:28:41Z</time>
      </trkpt>
      <trkpt lat="46.11458" lon="4.77356">
        <ele>195.6</ele>
        <time>2024-09-19T12:28:42Z</time>
      </trkpt>
      <trkpt lat="46.1145" lon="4.77356">
        <ele>195.6</ele>
        <time>2024-09-19T12:28:43Z</time>
      </trkpt>
      <trkpt lat="46.11447" lon="4.77355">
        <ele>195.6</ele>
        <time>2024-09-19T12:28:44Z</time>
      </trkpt>
      <trkpt lat="46.11439" lon="4.77354">
        <ele>195.6</ele>
        <time>2024-09-19T12:28:45Z</time>
      </trkpt>
      <trkpt lat="46.11437" lon="4.77353">
        <ele>195.6</ele>
        <time>2024-09-19T12:28:46Z</time>
      </trkpt>
      <trkpt lat="46.11429" lon="4.77351">
        <ele>195.6</ele>
        <time>2024-09-19T12:28:47Z</time>
      </trkpt>
      <trkpt lat="46.11426" lon="4.7735">
        <ele>195.6</ele>
        <time>2024-09-19T12:28:48Z</time>
      </trkpt>
      <trkpt lat="46.1142" lon="4.77349">
        <ele>195.6</ele>
        <time>2024-09-19T12:28:49Z</time>
      </trkpt>
      <trkpt lat="46.11415" lon="4.77347">
        <ele>195.6</ele>
        <time>2024-09-19T12:28:50Z</time>
      </trkpt>
      <trkpt lat="46.1141" lon="4.77346">
        <ele>196</ele>
        <time>2024-09-19T12:28:51Z</time>
      </trkpt>
      <trkpt lat="46.11402" lon="4.77343">
        <ele>196</ele>
        <time>2024-09-19T12:28:52Z</time>
      </trkpt>
      <trkpt lat="46.114" lon="4.77343">
        <ele>196</ele>
        <time>2024-09-19T12:28:53Z</time>
      </trkpt>
      <trkpt lat="46.11395" lon="4.77342">
        <ele>196</ele>
        <time>2024-09-19T12:28:54Z</time>
      </trkpt>
      <trkpt lat="46.11389" lon="4.77341">
        <ele>196</ele>
        <time>2024-09-19T12:28:55Z</time>
      </trkpt>
      <trkpt lat="46.11381" lon="4.77339">
        <ele>196</ele>
        <time>2024-09-19T12:28:56Z</time>
      </trkpt>
      <trkpt lat="46.11378" lon="4.77339">
        <ele>196</ele>
        <time>2024-09-19T12:28:57Z</time>
      </trkpt>
      <trkpt lat="46.11373" lon="4.77338">
        <ele>195.8</ele>
        <time>2024-09-19T12:28:58Z</time>
      </trkpt>
      <trkpt lat="46.11365" lon="4.77337">
        <ele>195.2</ele>
        <time>2024-09-19T12:28:59Z</time>
      </trkpt>
      <trkpt lat="46.11362" lon="4.77336">
        <ele>195.2</ele>
        <time>2024-09-19T12:29:00Z</time>
      </trkpt>
      <trkpt lat="46.11353" lon="4.77336">
        <ele>195.2</ele>
        <time>2024-09-19T12:29:01Z</time>
      </trkpt>
      <trkpt lat="46.11351" lon="4.77335">
        <ele>195.2</ele>
        <time>2024-09-19T12:29:02Z</time>
      </trkpt>
      <trkpt lat="46.11342" lon="4.77335">
        <ele>195.6</ele>
        <time>2024-09-19T12:29:03Z</time>
      </trkpt>
      <trkpt lat="46.11339" lon="4.77334">
        <ele>196.2</ele>
        <time>2024-09-19T12:29:04Z</time>
      </trkpt>
      <trkpt lat="46.11334" lon="4.77333">
        <ele>196.2</ele>
        <time>2024-09-19T12:29:05Z</time>
      </trkpt>
      <trkpt lat="46.11328" lon="4.77332">
        <ele>196.2</ele>
        <time>2024-09-19T12:29:06Z</time>
      </trkpt>
      <trkpt lat="46.11323" lon="4.77331">
        <ele>195.6</ele>
        <time>2024-09-19T12:29:07Z</time>
      </trkpt>
      <trkpt lat="46.11317" lon="4.7733">
        <ele>195.6</ele>
        <time>2024-09-19T12:29:08Z</time>
      </trkpt>
      <trkpt lat="46.11311" lon="4.77329">
        <ele>195.6</ele>
        <time>2024-09-19T12:29:09Z</time>
      </trkpt>
      <trkpt lat="46.11303" lon="4.77327">
        <ele>195.6</ele>
        <time>2024-09-19T12:29:10Z</time>
      </trkpt>
      <trkpt lat="46.113" lon="4.77327">
        <ele>195.8</ele>
        <time>2024-09-19T12:29:11Z</time>
      </trkpt>
      <trkpt lat="46.11294" lon="4.77326">
        <ele>195.8</ele>
        <time>2024-09-19T12:29:12Z</time>
      </trkpt>
      <trkpt lat="46.11285" lon="4.77325">
        <ele>195.8</ele>
        <time>2024-09-19T12:29:13Z</time>
      </trkpt>
      <trkpt lat="46.11282" lon="4.77324">
        <ele>195.8</ele>
        <time>2024-09-19T12:29:14Z</time>
      </trkpt>
      <trkpt lat="46.11277" lon="4.77324">
        <ele>195.8</ele>
        <time>2024-09-19T12:29:15Z</time>
      </trkpt>
      <trkpt lat="46.11271" lon="4.77323">
        <ele>195.8</ele>
        <time>2024-09-19T12:29:16Z</time>
      </trkpt>
      <trkpt lat="46.11265" lon="4.77323">
        <ele>195.6</ele>
        <time>2024-09-19T12:29:17Z</time>
      </trkpt>
      <trkpt lat="46.1126" lon="4.77322">
        <ele>195.6</ele>
        <time>2024-09-19T12:29:18Z</time>
      </trkpt>
      <trkpt lat="46.11254" lon="4.77321">
        <ele>195.6</ele>
        <time>2024-09-19T12:29:19Z</time>
      </trkpt>
      <trkpt lat="46.11246" lon="4.7732">
        <ele>195.6</ele>
        <time>2024-09-19T12:29:20Z</time>
      </trkpt>
      <trkpt lat="46.11243" lon="4.77319">
        <ele>196</ele>
        <time>2024-09-19T12:29:21Z</time>
      </trkpt>
      <trkpt lat="46.11238" lon="4.77319">
        <ele>195.6</ele>
        <time>2024-09-19T12:29:22Z</time>
      </trkpt>
      <trkpt lat="46.1123" lon="4.77318">
        <ele>195.6</ele>
        <time>2024-09-19T12:29:23Z</time>
      </trkpt>
      <trkpt lat="46.11227" lon="4.77317">
        <ele>195.6</ele>
        <time>2024-09-19T12:29:24Z</time>
      </trkpt>
      <trkpt lat="46.11218" lon="4.77316">
        <ele>195.6</ele>
        <time>2024-09-19T12:29:25Z</time>
      </trkpt>
      <trkpt lat="46.11216" lon="4.77316">
        <ele>195.6</ele>
        <time>2024-09-19T12:29:26Z</time>
      </trkpt>
      <trkpt lat="46.11208" lon="4.77314">
        <ele>195.6</ele>
        <time>2024-09-19T12:29:27Z</time>
      </trkpt>
      <trkpt lat="46.11205" lon="4.77313">
        <ele>195.6</ele>
        <time>2024-09-19T12:29:28Z</time>
      </trkpt>
      <trkpt lat="46.11197" lon="4.77311">
        <ele>195.6</ele>
        <time>2024-09-19T12:29:29Z</time>
      </trkpt>
      <trkpt lat="46.11194" lon="4.7731">
        <ele>196</ele>
        <time>2024-09-19T12:29:30Z</time>
      </trkpt>
      <trkpt lat="46.11186" lon="4.77308">
        <ele>196</ele>
        <time>2024-09-19T12:29:31Z</time>
      </trkpt>
      <trkpt lat="46.11183" lon="4.77307">
        <ele>195.8</ele>
        <time>2024-09-19T12:29:32Z</time>
      </trkpt>
      <trkpt lat="46.11175" lon="4.77305">
        <ele>195.8</ele>
        <time>2024-09-19T12:29:33Z</time>
      </trkpt>
      <trkpt lat="46.11173" lon="4.77305">
        <ele>195.8</ele>
        <time>2024-09-19T12:29:34Z</time>
      </trkpt>
      <trkpt lat="46.11168" lon="4.77303">
        <ele>195.8</ele>
        <time>2024-09-19T12:29:35Z</time>
      </trkpt>
      <trkpt lat="46.11163" lon="4.77302">
        <ele>196</ele>
        <time>2024-09-19T12:29:36Z</time>
      </trkpt>
      <trkpt lat="46.11158" lon="4.77301">
        <ele>196</ele>
        <time>2024-09-19T12:29:37Z</time>
      </trkpt>
      <trkpt lat="46.11153" lon="4.77299">
        <ele>196</ele>
        <time>2024-09-19T12:29:38Z</time>
      </trkpt>
      <trkpt lat="46.11148" lon="4.77298">
        <ele>195.8</ele>
        <time>2024-09-19T12:29:39Z</time>
      </trkpt>
      <trkpt lat="46.11144" lon="4.77297">
        <ele>195.6</ele>
        <time>2024-09-19T12:29:40Z</time>
      </trkpt>
      <trkpt lat="46.11137" lon="4.77295">
        <ele>195.6</ele>
        <time>2024-09-19T12:29:41Z</time>
      </trkpt>
      <trkpt lat="46.11135" lon="4.77294">
        <ele>195.6</ele>
        <time>2024-09-19T12:29:42Z</time>
      </trkpt>
      <trkpt lat="46.11131" lon="4.77293">
        <ele>195.6</ele>
        <time>2024-09-19T12:29:43Z</time>
      </trkpt>
      <trkpt lat="46.11125" lon="4.77291">
        <ele>195.4</ele>
        <time>2024-09-19T12:29:44Z</time>
      </trkpt>
      <trkpt lat="46.11123" lon="4.77291">
        <ele>195.4</ele>
        <time>2024-09-19T12:29:45Z</time>
      </trkpt>
      <trkpt lat="46.11117" lon="4.77289">
        <ele>195.4</ele>
        <time>2024-09-19T12:29:46Z</time>
      </trkpt>
      <trkpt lat="46.11115" lon="4.77288">
        <ele>195.6</ele>
        <time>2024-09-19T12:29:47Z</time>
      </trkpt>
      <trkpt lat="46.11111" lon="4.77287">
        <ele>195.8</ele>
        <time>2024-09-19T12:29:48Z</time>
      </trkpt>
      <trkpt lat="46.11107" lon="4.77286">
        <ele>195.8</ele>
        <time>2024-09-19T12:29:49Z</time>
      </trkpt>
      <trkpt lat="46.11103" lon="4.77285">
        <ele>195.8</ele>
        <time>2024-09-19T12:29:50Z</time>
      </trkpt>
      <trkpt lat="46.11098" lon="4.77285">
        <ele>195.8</ele>
        <time>2024-09-19T12:29:51Z</time>
      </trkpt>
      <trkpt lat="46.11094" lon="4.77285">
        <ele>195.8</ele>
        <time>2024-09-19T12:29:52Z</time>
      </trkpt>
      <trkpt lat="46.11087" lon="4.77286">
        <ele>196</ele>
        <time>2024-09-19T12:29:53Z</time>
      </trkpt>
      <trkpt lat="46.11085" lon="4.77287">
        <ele>196</ele>
        <time>2024-09-19T12:29:54Z</time>
      </trkpt>
      <trkpt lat="46.1108" lon="4.77288">
        <ele>196</ele>
        <time>2024-09-19T12:29:55Z</time>
      </trkpt>
      <trkpt lat="46.11074" lon="4.77287">
        <ele>196</ele>
        <time>2024-09-19T12:29:56Z</time>
      </trkpt>
      <trkpt lat="46.11072" lon="4.77287">
        <ele>195.6</ele>
        <time>2024-09-19T12:29:57Z</time>
      </trkpt>
      <trkpt lat="46.11068" lon="4.77285">
        <ele>196.2</ele>
        <time>2024-09-19T12:29:58Z</time>
      </trkpt>
      <trkpt lat="46.11064" lon="4.77283">
        <ele>196.2</ele>
        <time>2024-09-19T12:29:59Z</time>
      </trkpt>
      <trkpt lat="46.1106" lon="4.7728">
        <ele>196.2</ele>
        <time>2024-09-19T12:30:00Z</time>
      </trkpt>
      <trkpt lat="46.11057" lon="4.77276">
        <ele>196.2</ele>
        <time>2024-09-19T12:30:01Z</time>
      </trkpt>
      <trkpt lat="46.11053" lon="4.77272">
        <ele>195.8</ele>
        <time>2024-09-19T12:30:02Z</time>
      </trkpt>
      <trkpt lat="46.11049" lon="4.77265">
        <ele>195.8</ele>
        <time>2024-09-19T12:30:03Z</time>
      </trkpt>
      <trkpt lat="46.11047" lon="4.77263">
        <ele>195.8</ele>
        <time>2024-09-19T12:30:04Z</time>
      </trkpt>
      <trkpt lat="46.11044" lon="4.77258">
        <ele>195.8</ele>
        <time>2024-09-19T12:30:05Z</time>
      </trkpt>
      <trkpt lat="46.11038" lon="4.77252">
        <ele>195.8</ele>
        <time>2024-09-19T12:30:06Z</time>
      </trkpt>
      <trkpt lat="46.11036" lon="4.77251">
        <ele>195.8</ele>
        <time>2024-09-19T12:30:07Z</time>
      </trkpt>
      <trkpt lat="46.11032" lon="4.77247">
        <ele>195.8</ele>
        <time>2024-09-19T12:30:08Z</time>
      </trkpt>
      <trkpt lat="46.11028" lon="4.77244">
        <ele>195.8</ele>
        <time>2024-09-19T12:30:09Z</time>
      </trkpt>
      <trkpt lat="46.11021" lon="4.77239">
        <ele>195.8</ele>
        <time>2024-09-19T12:30:10Z</time>
      </trkpt>
      <trkpt lat="46.11019" lon="4.77238">
        <ele>195.8</ele>
        <time>2024-09-19T12:30:11Z</time>
      </trkpt>
      <trkpt lat="46.11013" lon="4.77232">
        <ele>195.8</ele>
        <time>2024-09-19T12:30:12Z</time>
      </trkpt>
      <trkpt lat="46.11011" lon="4.77231">
        <ele>195.8</ele>
        <time>2024-09-19T12:30:13Z</time>
      </trkpt>
      <trkpt lat="46.11005" lon="4.77225">
        <ele>195.8</ele>
        <time>2024-09-19T12:30:14Z</time>
      </trkpt>
      <trkpt lat="46.11003" lon="4.77223">
        <ele>195.8</ele>
        <time>2024-09-19T12:30:15Z</time>
      </trkpt>
      <trkpt lat="46.10997" lon="4.77218">
        <ele>195.8</ele>
        <time>2024-09-19T12:30:16Z</time>
      </trkpt>
      <trkpt lat="46.10995" lon="4.77217">
        <ele>195.8</ele>
        <time>2024-09-19T12:30:17Z</time>
      </trkpt>
      <trkpt lat="46.10989" lon="4.77211">
        <ele>195.8</ele>
        <time>2024-09-19T12:30:18Z</time>
      </trkpt>
      <trkpt lat="46.10987" lon="4.77209">
        <ele>195.8</ele>
        <time>2024-09-19T12:30:19Z</time>
      </trkpt>
      <trkpt lat="46.10983" lon="4.77205">
        <ele>195.8</ele>
        <time>2024-09-19T12:30:20Z</time>
      </trkpt>
      <trkpt lat="46.10979" lon="4.77201">
        <ele>195.6</ele>
        <time>2024-09-19T12:30:21Z</time>
      </trkpt>
      <trkpt lat="46.10975" lon="4.77198">
        <ele>195.6</ele>
        <time>2024-09-19T12:30:22Z</time>
      </trkpt>
      <trkpt lat="46.10971" lon="4.77194">
        <ele>195.6</ele>
        <time>2024-09-19T12:30:23Z</time>
      </trkpt>
      <trkpt lat="46.10965" lon="4.77188">
        <ele>195.6</ele>
        <time>2024-09-19T12:30:24Z</time>
      </trkpt>
      <trkpt lat="46.10964" lon="4.77186">
        <ele>195.6</ele>
        <time>2024-09-19T12:30:25Z</time>
      </trkpt>
      <trkpt lat="46.10958" lon="4.7718">
        <ele>195.6</ele>
        <time>2024-09-19T12:30:26Z</time>
      </trkpt>
      <trkpt lat="46.10956" lon="4.77178">
        <ele>195.6</ele>
        <time>2024-09-19T12:30:27Z</time>
      </trkpt>
      <trkpt lat="46.1095" lon="4.77172">
        <ele>195.8</ele>
        <time>2024-09-19T12:30:28Z</time>
      </trkpt>
      <trkpt lat="46.10948" lon="4.7717">
        <ele>195.6</ele>
        <time>2024-09-19T12:30:29Z</time>
      </trkpt>
      <trkpt lat="46.10944" lon="4.77165">
        <ele>195.6</ele>
        <time>2024-09-19T12:30:30Z</time>
      </trkpt>
      <trkpt lat="46.10941" lon="4.77161">
        <ele>195.6</ele>
        <time>2024-09-19T12:30:31Z</time>
      </trkpt>
      <trkpt lat="46.10937" lon="4.77157">
        <ele>195.8</ele>
        <time>2024-09-19T12:30:32Z</time>
      </trkpt>
      <trkpt lat="46.10933" lon="4.77153">
        <ele>195.8</ele>
        <time>2024-09-19T12:30:33Z</time>
      </trkpt>
      <trkpt lat="46.10929" lon="4.77148">
        <ele>195.8</ele>
        <time>2024-09-19T12:30:34Z</time>
      </trkpt>
      <trkpt lat="46.10923" lon="4.77142">
        <ele>195.8</ele>
        <time>2024-09-19T12:30:35Z</time>
      </trkpt>
      <trkpt lat="46.10921" lon="4.7714">
        <ele>195.8</ele>
        <time>2024-09-19T12:30:36Z</time>
      </trkpt>
      <trkpt lat="46.10916" lon="4.77133">
        <ele>195.8</ele>
        <time>2024-09-19T12:30:37Z</time>
      </trkpt>
      <trkpt lat="46.10914" lon="4.7713">
        <ele>195.6</ele>
        <time>2024-09-19T12:30:38Z</time>
      </trkpt>
      <trkpt lat="46.10908" lon="4.77124">
        <ele>195.8</ele>
        <time>2024-09-19T12:30:39Z</time>
      </trkpt>
      <trkpt lat="46.10906" lon="4.77122">
        <ele>195.8</ele>
        <time>2024-09-19T12:30:40Z</time>
      </trkpt>
      <trkpt lat="46.10902" lon="4.77117">
        <ele>195.8</ele>
        <time>2024-09-19T12:30:41Z</time>
      </trkpt>
      <trkpt lat="46.10896" lon="4.77109">
        <ele>195.8</ele>
        <time>2024-09-19T12:30:42Z</time>
      </trkpt>
      <trkpt lat="46.10894" lon="4.77107">
        <ele>195.8</ele>
        <time>2024-09-19T12:30:43Z</time>
      </trkpt>
      <trkpt lat="46.10891" lon="4.77102">
        <ele>195.8</ele>
        <time>2024-09-19T12:30:44Z</time>
      </trkpt>
      <trkpt lat="46.10886" lon="4.77094">
        <ele>195.8</ele>
        <time>2024-09-19T12:30:45Z</time>
      </trkpt>
      <trkpt lat="46.10884" lon="4.77091">
        <ele>195.8</ele>
        <time>2024-09-19T12:30:46Z</time>
      </trkpt>
      <trkpt lat="46.1088" lon="4.77085">
        <ele>195.8</ele>
        <time>2024-09-19T12:30:47Z</time>
      </trkpt>
      <trkpt lat="46.10877" lon="4.7708">
        <ele>195</ele>
        <time>2024-09-19T12:30:48Z</time>
      </trkpt>
      <trkpt lat="46.10873" lon="4.77074">
        <ele>195</ele>
        <time>2024-09-19T12:30:49Z</time>
      </trkpt>
      <trkpt lat="46.10867" lon="4.77066">
        <ele>195</ele>
        <time>2024-09-19T12:30:50Z</time>
      </trkpt>
      <trkpt lat="46.10866" lon="4.77063">
        <ele>196</ele>
        <time>2024-09-19T12:30:51Z</time>
      </trkpt>
      <trkpt lat="46.10861" lon="4.77058">
        <ele>196</ele>
        <time>2024-09-19T12:30:52Z</time>
      </trkpt>
      <trkpt lat="46.10857" lon="4.77053">
        <ele>196</ele>
        <time>2024-09-19T12:30:53Z</time>
      </trkpt>
      <trkpt lat="46.10851" lon="4.77045">
        <ele>196</ele>
        <time>2024-09-19T12:30:54Z</time>
      </trkpt>
      <trkpt lat="46.10849" lon="4.77043">
        <ele>195.6</ele>
        <time>2024-09-19T12:30:55Z</time>
      </trkpt>
      <trkpt lat="46.10845" lon="4.77038">
        <ele>195.6</ele>
        <time>2024-09-19T12:30:56Z</time>
      </trkpt>
      <trkpt lat="46.10841" lon="4.77032">
        <ele>195.8</ele>
        <time>2024-09-19T12:30:57Z</time>
      </trkpt>
      <trkpt lat="46.10837" lon="4.77028">
        <ele>195.8</ele>
        <time>2024-09-19T12:30:58Z</time>
      </trkpt>
      <trkpt lat="46.10833" lon="4.77023">
        <ele>195.8</ele>
        <time>2024-09-19T12:30:59Z</time>
      </trkpt>
      <trkpt lat="46.10829" lon="4.77018">
        <ele>195.8</ele>
        <time>2024-09-19T12:31:00Z</time>
      </trkpt>
      <trkpt lat="46.10825" lon="4.77014">
        <ele>196</ele>
        <time>2024-09-19T12:31:01Z</time>
      </trkpt>
      <trkpt lat="46.10822" lon="4.77009">
        <ele>196</ele>
        <time>2024-09-19T12:31:02Z</time>
      </trkpt>
      <trkpt lat="46.10816" lon="4.77002">
        <ele>196</ele>
        <time>2024-09-19T12:31:03Z</time>
      </trkpt>
      <trkpt lat="46.10814" lon="4.77">
        <ele>195.8</ele>
        <time>2024-09-19T12:31:04Z</time>
      </trkpt>
      <trkpt lat="46.10808" lon="4.76993">
        <ele>195.8</ele>
        <time>2024-09-19T12:31:05Z</time>
      </trkpt>
      <trkpt lat="46.10806" lon="4.76991">
        <ele>195.8</ele>
        <time>2024-09-19T12:31:06Z</time>
      </trkpt>
      <trkpt lat="46.10803" lon="4.76987">
        <ele>195.8</ele>
        <time>2024-09-19T12:31:07Z</time>
      </trkpt>
      <trkpt lat="46.10798" lon="4.76981">
        <ele>195.8</ele>
        <time>2024-09-19T12:31:08Z</time>
      </trkpt>
      <trkpt lat="46.10796" lon="4.76978">
        <ele>196</ele>
        <time>2024-09-19T12:31:09Z</time>
      </trkpt>
      <trkpt lat="46.10791" lon="4.76973">
        <ele>196</ele>
        <time>2024-09-19T12:31:10Z</time>
      </trkpt>
      <trkpt lat="46.10789" lon="4.76972">
        <ele>196</ele>
        <time>2024-09-19T12:31:11Z</time>
      </trkpt>
      <trkpt lat="46.10787" lon="4.76968">
        <ele>196</ele>
        <time>2024-09-19T12:31:12Z</time>
      </trkpt>
      <trkpt lat="46.10784" lon="4.76965">
        <ele>195.8</ele>
        <time>2024-09-19T12:31:13Z</time>
      </trkpt>
      <trkpt lat="46.10781" lon="4.76962">
        <ele>195.6</ele>
        <time>2024-09-19T12:31:14Z</time>
      </trkpt>
      <trkpt lat="46.10778" lon="4.76959">
        <ele>195.6</ele>
        <time>2024-09-19T12:31:15Z</time>
      </trkpt>
      <trkpt lat="46.10774" lon="4.76956">
        <ele>195.6</ele>
        <time>2024-09-19T12:31:16Z</time>
      </trkpt>
      <trkpt lat="46.10771" lon="4.76952">
        <ele>195.6</ele>
        <time>2024-09-19T12:31:17Z</time>
      </trkpt>
      <trkpt lat="46.10768" lon="4.76948">
        <ele>195.8</ele>
        <time>2024-09-19T12:31:18Z</time>
      </trkpt>
      <trkpt lat="46.10765" lon="4.76944">
        <ele>195.8</ele>
        <time>2024-09-19T12:31:19Z</time>
      </trkpt>
      <trkpt lat="46.10761" lon="4.76939">
        <ele>195.8</ele>
        <time>2024-09-19T12:31:20Z</time>
      </trkpt>
      <trkpt lat="46.10758" lon="4.76935">
        <ele>195.8</ele>
        <time>2024-09-19T12:31:21Z</time>
      </trkpt>
      <trkpt lat="46.10754" lon="4.76931">
        <ele>195.8</ele>
        <time>2024-09-19T12:31:22Z</time>
      </trkpt>
      <trkpt lat="46.1075" lon="4.76927">
        <ele>196</ele>
        <time>2024-09-19T12:31:23Z</time>
      </trkpt>
      <trkpt lat="46.10746" lon="4.76923">
        <ele>196</ele>
        <time>2024-09-19T12:31:24Z</time>
      </trkpt>
      <trkpt lat="46.10741" lon="4.76918">
        <ele>196</ele>
        <time>2024-09-19T12:31:25Z</time>
      </trkpt>
      <trkpt lat="46.10739" lon="4.76916">
        <ele>196</ele>
        <time>2024-09-19T12:31:26Z</time>
      </trkpt>
      <trkpt lat="46.10735" lon="4.76913">
        <ele>196</ele>
        <time>2024-09-19T12:31:27Z</time>
      </trkpt>
      <trkpt lat="46.10732" lon="4.76909">
        <ele>195.8</ele>
        <time>2024-09-19T12:31:28Z</time>
      </trkpt>
      <trkpt lat="46.10727" lon="4.76904">
        <ele>195.8</ele>
        <time>2024-09-19T12:31:29Z</time>
      </trkpt>
      <trkpt lat="46.10725" lon="4.76903">
        <ele>195.8</ele>
        <time>2024-09-19T12:31:30Z</time>
      </trkpt>
      <trkpt lat="46.10721" lon="4.76899">
        <ele>196</ele>
        <time>2024-09-19T12:31:31Z</time>
      </trkpt>
      <trkpt lat="46.10718" lon="4.76895">
        <ele>196</ele>
        <time>2024-09-19T12:31:32Z</time>
      </trkpt>
      <trkpt lat="46.10715" lon="4.76892">
        <ele>196</ele>
        <time>2024-09-19T12:31:33Z</time>
      </trkpt>
      <trkpt lat="46.1071" lon="4.76886">
        <ele>196</ele>
        <time>2024-09-19T12:31:34Z</time>
      </trkpt>
      <trkpt lat="46.10708" lon="4.76884">
        <ele>196</ele>
        <time>2024-09-19T12:31:35Z</time>
      </trkpt>
      <trkpt lat="46.10702" lon="4.76878">
        <ele>195.8</ele>
        <time>2024-09-19T12:31:36Z</time>
      </trkpt>
      <trkpt lat="46.107" lon="4.76876">
        <ele>195.8</ele>
        <time>2024-09-19T12:31:37Z</time>
      </trkpt>
      <trkpt lat="46.10695" lon="4.7687">
        <ele>195.8</ele>
        <time>2024-09-19T12:31:38Z</time>
      </trkpt>
      <trkpt lat="46.10693" lon="4.76868">
        <ele>195.8</ele>
        <time>2024-09-19T12:31:39Z</time>
      </trkpt>
      <trkpt lat="46.10689" lon="4.76864">
        <ele>196</ele>
        <time>2024-09-19T12:31:40Z</time>
      </trkpt>
      <trkpt lat="46.10685" lon="4.7686">
        <ele>196</ele>
        <time>2024-09-19T12:31:41Z</time>
      </trkpt>
      <trkpt lat="46.10681" lon="4.76857">
        <ele>195.8</ele>
        <time>2024-09-19T12:31:42Z</time>
      </trkpt>
      <trkpt lat="46.10675" lon="4.7685">
        <ele>195.8</ele>
        <time>2024-09-19T12:31:43Z</time>
      </trkpt>
      <trkpt lat="46.10673" lon="4.76848">
        <ele>196</ele>
        <time>2024-09-19T12:31:44Z</time>
      </trkpt>
      <trkpt lat="46.10669" lon="4.76844">
        <ele>196</ele>
        <time>2024-09-19T12:31:45Z</time>
      </trkpt>
      <trkpt lat="46.10663" lon="4.76838">
        <ele>196</ele>
        <time>2024-09-19T12:31:46Z</time>
      </trkpt>
      <trkpt lat="46.10661" lon="4.76836">
        <ele>196</ele>
        <time>2024-09-19T12:31:47Z</time>
      </trkpt>
      <trkpt lat="46.10657" lon="4.76832">
        <ele>196</ele>
        <time>2024-09-19T12:31:48Z</time>
      </trkpt>
      <trkpt lat="46.10654" lon="4.76828">
        <ele>196</ele>
        <time>2024-09-19T12:31:49Z</time>
      </trkpt>
      <trkpt lat="46.1065" lon="4.76824">
        <ele>196</ele>
        <time>2024-09-19T12:31:50Z</time>
      </trkpt>
      <trkpt lat="46.10643" lon="4.76819">
        <ele>196</ele>
        <time>2024-09-19T12:31:51Z</time>
      </trkpt>
      <trkpt lat="46.10641" lon="4.76817">
        <ele>196</ele>
        <time>2024-09-19T12:31:52Z</time>
      </trkpt>
      <trkpt lat="46.10636" lon="4.76812">
        <ele>196</ele>
        <time>2024-09-19T12:31:53Z</time>
      </trkpt>
      <trkpt lat="46.10634" lon="4.7681">
        <ele>196</ele>
        <time>2024-09-19T12:31:54Z</time>
      </trkpt>
      <trkpt lat="46.1063" lon="4.76806">
        <ele>196</ele>
        <time>2024-09-19T12:31:55Z</time>
      </trkpt>
      <trkpt lat="46.10626" lon="4.76802">
        <ele>196</ele>
        <time>2024-09-19T12:31:56Z</time>
      </trkpt>
      <trkpt lat="46.10622" lon="4.76798">
        <ele>196</ele>
        <time>2024-09-19T12:31:57Z</time>
      </trkpt>
      <trkpt lat="46.10618" lon="4.76794">
        <ele>196.2</ele>
        <time>2024-09-19T12:31:58Z</time>
      </trkpt>
      <trkpt lat="46.10614" lon="4.7679">
        <ele>196.2</ele>
        <time>2024-09-19T12:31:59Z</time>
      </trkpt>
      <trkpt lat="46.10609" lon="4.76784">
        <ele>196.2</ele>
        <time>2024-09-19T12:32:00Z</time>
      </trkpt>
      <trkpt lat="46.10607" lon="4.76782">
        <ele>196.2</ele>
        <time>2024-09-19T12:32:01Z</time>
      </trkpt>
      <trkpt lat="46.10601" lon="4.76775">
        <ele>195.8</ele>
        <time>2024-09-19T12:32:02Z</time>
      </trkpt>
      <trkpt lat="46.10599" lon="4.76773">
        <ele>195.8</ele>
        <time>2024-09-19T12:32:03Z</time>
      </trkpt>
      <trkpt lat="46.10595" lon="4.76769">
        <ele>195.8</ele>
        <time>2024-09-19T12:32:04Z</time>
      </trkpt>
      <trkpt lat="46.10589" lon="4.76762">
        <ele>195.8</ele>
        <time>2024-09-19T12:32:05Z</time>
      </trkpt>
      <trkpt lat="46.10587" lon="4.7676">
        <ele>195.8</ele>
        <time>2024-09-19T12:32:06Z</time>
      </trkpt>
      <trkpt lat="46.10584" lon="4.76756">
        <ele>195.8</ele>
        <time>2024-09-19T12:32:07Z</time>
      </trkpt>
      <trkpt lat="46.1058" lon="4.76752">
        <ele>196.2</ele>
        <time>2024-09-19T12:32:08Z</time>
      </trkpt>
      <trkpt lat="46.10575" lon="4.76748">
        <ele>196.2</ele>
        <time>2024-09-19T12:32:09Z</time>
      </trkpt>
      <trkpt lat="46.10571" lon="4.76744">
        <ele>196.2</ele>
        <time>2024-09-19T12:32:10Z</time>
      </trkpt>
      <trkpt lat="46.10567" lon="4.7674">
        <ele>196.2</ele>
        <time>2024-09-19T12:32:11Z</time>
      </trkpt>
      <trkpt lat="46.10563" lon="4.76736">
        <ele>195.8</ele>
        <time>2024-09-19T12:32:12Z</time>
      </trkpt>
      <trkpt lat="46.10559" lon="4.76731">
        <ele>195.8</ele>
        <time>2024-09-19T12:32:13Z</time>
      </trkpt>
      <trkpt lat="46.10555" lon="4.76727">
        <ele>195.8</ele>
        <time>2024-09-19T12:32:14Z</time>
      </trkpt>
      <trkpt lat="46.10551" lon="4.76723">
        <ele>195.8</ele>
        <time>2024-09-19T12:32:15Z</time>
      </trkpt>
      <trkpt lat="46.10547" lon="4.7672">
        <ele>196.2</ele>
        <time>2024-09-19T12:32:16Z</time>
      </trkpt>
      <trkpt lat="46.10543" lon="4.76715">
        <ele>195.8</ele>
        <time>2024-09-19T12:32:17Z</time>
      </trkpt>
      <trkpt lat="46.1054" lon="4.76711">
        <ele>195.8</ele>
        <time>2024-09-19T12:32:18Z</time>
      </trkpt>
      <trkpt lat="46.10534" lon="4.76705">
        <ele>195.8</ele>
        <time>2024-09-19T12:32:19Z</time>
      </trkpt>
      <trkpt lat="46.10532" lon="4.76703">
        <ele>196</ele>
        <time>2024-09-19T12:32:20Z</time>
      </trkpt>
      <trkpt lat="46.10527" lon="4.76696">
        <ele>196</ele>
        <time>2024-09-19T12:32:21Z</time>
      </trkpt>
      <trkpt lat="46.10525" lon="4.76694">
        <ele>196</ele>
        <time>2024-09-19T12:32:22Z</time>
      </trkpt>
      <trkpt lat="46.10521" lon="4.7669">
        <ele>196</ele>
        <time>2024-09-19T12:32:23Z</time>
      </trkpt>
      <trkpt lat="46.10517" lon="4.76686">
        <ele>196</ele>
        <time>2024-09-19T12:32:24Z</time>
      </trkpt>
      <trkpt lat="46.10513" lon="4.76682">
        <ele>196.2</ele>
        <time>2024-09-19T12:32:25Z</time>
      </trkpt>
      <trkpt lat="46.10507" lon="4.76676">
        <ele>196.2</ele>
        <time>2024-09-19T12:32:26Z</time>
      </trkpt>
      <trkpt lat="46.10505" lon="4.76675">
        <ele>196.2</ele>
        <time>2024-09-19T12:32:27Z</time>
      </trkpt>
      <trkpt lat="46.10498" lon="4.76669">
        <ele>196.2</ele>
        <time>2024-09-19T12:32:28Z</time>
      </trkpt>
      <trkpt lat="46.10496" lon="4.76667">
        <ele>195.8</ele>
        <time>2024-09-19T12:32:29Z</time>
      </trkpt>
      <trkpt lat="46.10492" lon="4.76663">
        <ele>196</ele>
        <time>2024-09-19T12:32:30Z</time>
      </trkpt>
      <trkpt lat="46.10488" lon="4.76659">
        <ele>196</ele>
        <time>2024-09-19T12:32:31Z</time>
      </trkpt>
      <trkpt lat="46.10484" lon="4.76655">
        <ele>196</ele>
        <time>2024-09-19T12:32:32Z</time>
      </trkpt>
      <trkpt lat="46.10478" lon="4.7665">
        <ele>195.8</ele>
        <time>2024-09-19T12:32:33Z</time>
      </trkpt>
      <trkpt lat="46.10476" lon="4.76648">
        <ele>195.8</ele>
        <time>2024-09-19T12:32:34Z</time>
      </trkpt>
      <trkpt lat="46.10469" lon="4.76642">
        <ele>195.8</ele>
        <time>2024-09-19T12:32:35Z</time>
      </trkpt>
      <trkpt lat="46.10467" lon="4.7664">
        <ele>195.8</ele>
        <time>2024-09-19T12:32:36Z</time>
      </trkpt>
      <trkpt lat="46.1046" lon="4.76634">
        <ele>195.8</ele>
        <time>2024-09-19T12:32:37Z</time>
      </trkpt>
      <trkpt lat="46.10458" lon="4.76632">
        <ele>195.8</ele>
        <time>2024-09-19T12:32:38Z</time>
      </trkpt>
      <trkpt lat="46.10454" lon="4.76627">
        <ele>196</ele>
        <time>2024-09-19T12:32:39Z</time>
      </trkpt>
      <trkpt lat="46.1045" lon="4.76623">
        <ele>196</ele>
        <time>2024-09-19T12:32:40Z</time>
      </trkpt>
      <trkpt lat="46.10446" lon="4.76619">
        <ele>196</ele>
        <time>2024-09-19T12:32:41Z</time>
      </trkpt>
      <trkpt lat="46.10442" lon="4.76615">
        <ele>196</ele>
        <time>2024-09-19T12:32:42Z</time>
      </trkpt>
      <trkpt lat="46.10438" lon="4.76611">
        <ele>196</ele>
        <time>2024-09-19T12:32:43Z</time>
      </trkpt>
      <trkpt lat="46.10433" lon="4.76607">
        <ele>196</ele>
        <time>2024-09-19T12:32:44Z</time>
      </trkpt>
      <trkpt lat="46.10429" lon="4.76603">
        <ele>196</ele>
        <time>2024-09-19T12:32:45Z</time>
      </trkpt>
      <trkpt lat="46.10423" lon="4.76598">
        <ele>196</ele>
        <time>2024-09-19T12:32:46Z</time>
      </trkpt>
      <trkpt lat="46.10421" lon="4.76596">
        <ele>196</ele>
        <time>2024-09-19T12:32:47Z</time>
      </trkpt>
      <trkpt lat="46.10417" lon="4.76592">
        <ele>196.2</ele>
        <time>2024-09-19T12:32:48Z</time>
      </trkpt>
      <trkpt lat="46.10413" lon="4.76587">
        <ele>196.2</ele>
        <time>2024-09-19T12:32:49Z</time>
      </trkpt>
      <trkpt lat="46.1041" lon="4.76583">
        <ele>196.2</ele>
        <time>2024-09-19T12:32:50Z</time>
      </trkpt>
      <trkpt lat="46.10406" lon="4.76578">
        <ele>196.2</ele>
        <time>2024-09-19T12:32:51Z</time>
      </trkpt>
      <trkpt lat="46.10402" lon="4.76574">
        <ele>196</ele>
        <time>2024-09-19T12:32:52Z</time>
      </trkpt>
      <trkpt lat="46.10395" lon="4.76568">
        <ele>195.6</ele>
        <time>2024-09-19T12:32:53Z</time>
      </trkpt>
      <trkpt lat="46.10393" lon="4.76566">
        <ele>195.6</ele>
        <time>2024-09-19T12:32:54Z</time>
      </trkpt>
      <trkpt lat="46.10388" lon="4.76562">
        <ele>195.6</ele>
        <time>2024-09-19T12:32:55Z</time>
      </trkpt>
      <trkpt lat="46.10382" lon="4.76556">
        <ele>195.8</ele>
        <time>2024-09-19T12:32:56Z</time>
      </trkpt>
      <trkpt lat="46.1038" lon="4.76553">
        <ele>195.8</ele>
        <time>2024-09-19T12:32:57Z</time>
      </trkpt>
      <trkpt lat="46.10376" lon="4.76549">
        <ele>195.8</ele>
        <time>2024-09-19T12:32:58Z</time>
      </trkpt>
      <trkpt lat="46.10372" lon="4.76545">
        <ele>195.8</ele>
        <time>2024-09-19T12:32:59Z</time>
      </trkpt>
      <trkpt lat="46.10368" lon="4.7654">
        <ele>195.8</ele>
        <time>2024-09-19T12:33:00Z</time>
      </trkpt>
      <trkpt lat="46.10364" lon="4.76536">
        <ele>195.8</ele>
        <time>2024-09-19T12:33:01Z</time>
      </trkpt>
      <trkpt lat="46.10358" lon="4.7653">
        <ele>195.8</ele>
        <time>2024-09-19T12:33:02Z</time>
      </trkpt>
      <trkpt lat="46.10355" lon="4.76528">
        <ele>195.8</ele>
        <time>2024-09-19T12:33:03Z</time>
      </trkpt>
      <trkpt lat="46.10349" lon="4.76522">
        <ele>195.8</ele>
        <time>2024-09-19T12:33:04Z</time>
      </trkpt>
      <trkpt lat="46.10347" lon="4.7652">
        <ele>195.8</ele>
        <time>2024-09-19T12:33:05Z</time>
      </trkpt>
      <trkpt lat="46.10341" lon="4.76513">
        <ele>195.8</ele>
        <time>2024-09-19T12:33:06Z</time>
      </trkpt>
      <trkpt lat="46.10339" lon="4.76511">
        <ele>196</ele>
        <time>2024-09-19T12:33:07Z</time>
      </trkpt>
      <trkpt lat="46.10334" lon="4.76507">
        <ele>196</ele>
        <time>2024-09-19T12:33:08Z</time>
      </trkpt>
      <trkpt lat="46.1033" lon="4.76503">
        <ele>196</ele>
        <time>2024-09-19T12:33:09Z</time>
      </trkpt>
      <trkpt lat="46.10326" lon="4.76499">
        <ele>195.6</ele>
        <time>2024-09-19T12:33:10Z</time>
      </trkpt>
      <trkpt lat="46.10319" lon="4.76493">
        <ele>195.6</ele>
        <time>2024-09-19T12:33:11Z</time>
      </trkpt>
      <trkpt lat="46.10317" lon="4.76491">
        <ele>195.6</ele>
        <time>2024-09-19T12:33:12Z</time>
      </trkpt>
      <trkpt lat="46.10311" lon="4.76485">
        <ele>195.6</ele>
        <time>2024-09-19T12:33:13Z</time>
      </trkpt>
      <trkpt lat="46.10309" lon="4.76482">
        <ele>196</ele>
        <time>2024-09-19T12:33:14Z</time>
      </trkpt>
      <trkpt lat="46.10305" lon="4.76478">
        <ele>195.8</ele>
        <time>2024-09-19T12:33:15Z</time>
      </trkpt>
      <trkpt lat="46.10299" lon="4.76471">
        <ele>195.8</ele>
        <time>2024-09-19T12:33:16Z</time>
      </trkpt>
      <trkpt lat="46.10296" lon="4.76469">
        <ele>195.8</ele>
        <time>2024-09-19T12:33:17Z</time>
      </trkpt>
      <trkpt lat="46.1029" lon="4.76462">
        <ele>195.6</ele>
        <time>2024-09-19T12:33:18Z</time>
      </trkpt>
      <trkpt lat="46.10288" lon="4.7646">
        <ele>195.8</ele>
        <time>2024-09-19T12:33:19Z</time>
      </trkpt>
      <trkpt lat="46.10283" lon="4.76452">
        <ele>195.8</ele>
        <time>2024-09-19T12:33:20Z</time>
      </trkpt>
      <trkpt lat="46.10281" lon="4.7645">
        <ele>195.8</ele>
        <time>2024-09-19T12:33:21Z</time>
      </trkpt>
      <trkpt lat="46.10277" lon="4.76445">
        <ele>195.6</ele>
        <time>2024-09-19T12:33:22Z</time>
      </trkpt>
      <trkpt lat="46.10273" lon="4.76439">
        <ele>195.6</ele>
        <time>2024-09-19T12:33:23Z</time>
      </trkpt>
      <trkpt lat="46.10268" lon="4.7643">
        <ele>195.6</ele>
        <time>2024-09-19T12:33:24Z</time>
      </trkpt>
      <trkpt lat="46.10267" lon="4.76427">
        <ele>195.6</ele>
        <time>2024-09-19T12:33:25Z</time>
      </trkpt>
      <trkpt lat="46.10263" lon="4.76421">
        <ele>195.6</ele>
        <time>2024-09-19T12:33:26Z</time>
      </trkpt>
      <trkpt lat="46.10259" lon="4.76412">
        <ele>195.4</ele>
        <time>2024-09-19T12:33:27Z</time>
      </trkpt>
      <trkpt lat="46.10257" lon="4.76409">
        <ele>195.8</ele>
        <time>2024-09-19T12:33:28Z</time>
      </trkpt>
      <trkpt lat="46.10254" lon="4.76403">
        <ele>195.8</ele>
        <time>2024-09-19T12:33:29Z</time>
      </trkpt>
      <trkpt lat="46.1025" lon="4.76394">
        <ele>195.8</ele>
        <time>2024-09-19T12:33:30Z</time>
      </trkpt>
      <trkpt lat="46.10249" lon="4.76391">
        <ele>195.8</ele>
        <time>2024-09-19T12:33:31Z</time>
      </trkpt>
      <trkpt lat="46.10246" lon="4.76385">
        <ele>195.8</ele>
        <time>2024-09-19T12:33:32Z</time>
      </trkpt>
      <trkpt lat="46.10243" lon="4.7638">
        <ele>195.8</ele>
        <time>2024-09-19T12:33:33Z</time>
      </trkpt>
      <trkpt lat="46.1024" lon="4.76374">
        <ele>195.8</ele>
        <time>2024-09-19T12:33:34Z</time>
      </trkpt>
      <trkpt lat="46.10237" lon="4.76368">
        <ele>195.8</ele>
        <time>2024-09-19T12:33:35Z</time>
      </trkpt>
      <trkpt lat="46.10234" lon="4.76363">
        <ele>195.2</ele>
        <time>2024-09-19T12:33:36Z</time>
      </trkpt>
      <trkpt lat="46.10231" lon="4.76357">
        <ele>195.2</ele>
        <time>2024-09-19T12:33:37Z</time>
      </trkpt>
      <trkpt lat="46.10229" lon="4.76351">
        <ele>195.6</ele>
        <time>2024-09-19T12:33:38Z</time>
      </trkpt>
      <trkpt lat="46.10225" lon="4.76342">
        <ele>195.6</ele>
        <time>2024-09-19T12:33:39Z</time>
      </trkpt>
      <trkpt lat="46.10224" lon="4.76339">
        <ele>195.6</ele>
        <time>2024-09-19T12:33:40Z</time>
      </trkpt>
      <trkpt lat="46.10222" lon="4.76332">
        <ele>195.6</ele>
        <time>2024-09-19T12:33:41Z</time>
      </trkpt>
      <trkpt lat="46.1022" lon="4.76325">
        <ele>195.8</ele>
        <time>2024-09-19T12:33:42Z</time>
      </trkpt>
      <trkpt lat="46.10218" lon="4.76318">
        <ele>195.8</ele>
        <time>2024-09-19T12:33:43Z</time>
      </trkpt>
      <trkpt lat="46.10216" lon="4.76311">
        <ele>195.8</ele>
        <time>2024-09-19T12:33:44Z</time>
      </trkpt>
      <trkpt lat="46.10212" lon="4.76302">
        <ele>195.8</ele>
        <time>2024-09-19T12:33:45Z</time>
      </trkpt>
      <trkpt lat="46.10211" lon="4.763">
        <ele>195.6</ele>
        <time>2024-09-19T12:33:46Z</time>
      </trkpt>
      <trkpt lat="46.10206" lon="4.76294">
        <ele>195.6</ele>
        <time>2024-09-19T12:33:47Z</time>
      </trkpt>
      <trkpt lat="46.10204" lon="4.76292">
        <ele>195.6</ele>
        <time>2024-09-19T12:33:48Z</time>
      </trkpt>
      <trkpt lat="46.102" lon="4.76291">
        <ele>195.6</ele>
        <time>2024-09-19T12:33:49Z</time>
      </trkpt>
      <trkpt lat="46.10196" lon="4.76291">
        <ele>195.6</ele>
        <time>2024-09-19T12:33:50Z</time>
      </trkpt>
      <trkpt lat="46.10191" lon="4.76292">
        <ele>195.4</ele>
        <time>2024-09-19T12:33:51Z</time>
      </trkpt>
      <trkpt lat="46.10189" lon="4.76292">
        <ele>195.4</ele>
        <time>2024-09-19T12:33:52Z</time>
      </trkpt>
      <trkpt lat="46.10183" lon="4.76292">
        <ele>195.4</ele>
        <time>2024-09-19T12:33:53Z</time>
      </trkpt>
      <trkpt lat="46.10182" lon="4.76293">
        <ele>195.4</ele>
        <time>2024-09-19T12:33:54Z</time>
      </trkpt>
      <trkpt lat="46.10178" lon="4.76292">
        <ele>195.6</ele>
        <time>2024-09-19T12:33:55Z</time>
      </trkpt>
      <trkpt lat="46.10175" lon="4.76291">
        <ele>195.6</ele>
        <time>2024-09-19T12:33:56Z</time>
      </trkpt>
      <trkpt lat="46.10172" lon="4.76289">
        <ele>195.6</ele>
        <time>2024-09-19T12:33:57Z</time>
      </trkpt>
      <trkpt lat="46.10169" lon="4.76287">
        <ele>195.6</ele>
        <time>2024-09-19T12:33:58Z</time>
      </trkpt>
      <trkpt lat="46.10167" lon="4.76285">
        <ele>195.6</ele>
        <time>2024-09-19T12:33:59Z</time>
      </trkpt>
      <trkpt lat="46.10163" lon="4.76283">
        <ele>195.6</ele>
        <time>2024-09-19T12:34:00Z</time>
      </trkpt>
      <trkpt lat="46.10162" lon="4.76282">
        <ele>195.6</ele>
        <time>2024-09-19T12:34:01Z</time>
      </trkpt>
      <trkpt lat="46.10158" lon="4.7628">
        <ele>195.6</ele>
        <time>2024-09-19T12:34:02Z</time>
      </trkpt>
      <trkpt lat="46.10157" lon="4.76279">
        <ele>195.6</ele>
        <time>2024-09-19T12:34:03Z</time>
      </trkpt>
      <trkpt lat="46.10155" lon="4.76277">
        <ele>195.2</ele>
        <time>2024-09-19T12:34:04Z</time>
      </trkpt>
      <trkpt lat="46.10152" lon="4.76276">
        <ele>195.2</ele>
        <time>2024-09-19T12:34:05Z</time>
      </trkpt>
      <trkpt lat="46.10149" lon="4.76275">
        <ele>195.2</ele>
        <time>2024-09-19T12:34:06Z</time>
      </trkpt>
      <trkpt lat="46.10146" lon="4.76275">
        <ele>195.4</ele>
        <time>2024-09-19T12:34:07Z</time>
      </trkpt>
      <trkpt lat="46.10144" lon="4.76274">
        <ele>195.6</ele>
        <time>2024-09-19T12:34:08Z</time>
      </trkpt>
      <trkpt lat="46.10141" lon="4.76273">
        <ele>195.6</ele>
        <time>2024-09-19T12:34:09Z</time>
      </trkpt>
      <trkpt lat="46.10137" lon="4.76273">
        <ele>195.6</ele>
        <time>2024-09-19T12:34:10Z</time>
      </trkpt>
      <trkpt lat="46.10134" lon="4.76272">
        <ele>195.6</ele>
        <time>2024-09-19T12:34:11Z</time>
      </trkpt>
      <trkpt lat="46.1013" lon="4.76271">
        <ele>195.8</ele>
        <time>2024-09-19T12:34:12Z</time>
      </trkpt>
      <trkpt lat="46.10125" lon="4.76267">
        <ele>195.8</ele>
        <time>2024-09-19T12:34:13Z</time>
      </trkpt>
      <trkpt lat="46.10123" lon="4.76266">
        <ele>195.8</ele>
        <time>2024-09-19T12:34:14Z</time>
      </trkpt>
      <trkpt lat="46.1012" lon="4.76264">
        <ele>195.8</ele>
        <time>2024-09-19T12:34:15Z</time>
      </trkpt>
      <trkpt lat="46.10116" lon="4.76262">
        <ele>195.8</ele>
        <time>2024-09-19T12:34:16Z</time>
      </trkpt>
      <trkpt lat="46.10113" lon="4.76259">
        <ele>195.8</ele>
        <time>2024-09-19T12:34:17Z</time>
      </trkpt>
      <trkpt lat="46.1011" lon="4.76256">
        <ele>195.6</ele>
        <time>2024-09-19T12:34:18Z</time>
      </trkpt>
      <trkpt lat="46.10107" lon="4.76252">
        <ele>195.6</ele>
        <time>2024-09-19T12:34:19Z</time>
      </trkpt>
      <trkpt lat="46.10102" lon="4.76247">
        <ele>195.6</ele>
        <time>2024-09-19T12:34:20Z</time>
      </trkpt>
      <trkpt lat="46.101" lon="4.76245">
        <ele>195.6</ele>
        <time>2024-09-19T12:34:21Z</time>
      </trkpt>
      <trkpt lat="46.10095" lon="4.7624">
        <ele>195.6</ele>
        <time>2024-09-19T12:34:22Z</time>
      </trkpt>
      <trkpt lat="46.10093" lon="4.76238">
        <ele>195.6</ele>
        <time>2024-09-19T12:34:23Z</time>
      </trkpt>
      <trkpt lat="46.10089" lon="4.76234">
        <ele>195.6</ele>
        <time>2024-09-19T12:34:24Z</time>
      </trkpt>
      <trkpt lat="46.10084" lon="4.76228">
        <ele>195.6</ele>
        <time>2024-09-19T12:34:25Z</time>
      </trkpt>
      <trkpt lat="46.10083" lon="4.76226">
        <ele>196</ele>
        <time>2024-09-19T12:34:26Z</time>
      </trkpt>
      <trkpt lat="46.10079" lon="4.76221">
        <ele>195.8</ele>
        <time>2024-09-19T12:34:27Z</time>
      </trkpt>
      <trkpt lat="46.10076" lon="4.76217">
        <ele>195.8</ele>
        <time>2024-09-19T12:34:28Z</time>
      </trkpt>
      <trkpt lat="46.1007" lon="4.7621">
        <ele>195.8</ele>
        <time>2024-09-19T12:34:29Z</time>
      </trkpt>
      <trkpt lat="46.10068" lon="4.76208">
        <ele>196</ele>
        <time>2024-09-19T12:34:30Z</time>
      </trkpt>
      <trkpt lat="46.10065" lon="4.76203">
        <ele>195.8</ele>
        <time>2024-09-19T12:34:31Z</time>
      </trkpt>
      <trkpt lat="46.10061" lon="4.76198">
        <ele>195.8</ele>
        <time>2024-09-19T12:34:32Z</time>
      </trkpt>
      <trkpt lat="46.10058" lon="4.76194">
        <ele>195.8</ele>
        <time>2024-09-19T12:34:33Z</time>
      </trkpt>
      <trkpt lat="46.10052" lon="4.76187">
        <ele>195.8</ele>
        <time>2024-09-19T12:34:34Z</time>
      </trkpt>
      <trkpt lat="46.1005" lon="4.76184">
        <ele>195.8</ele>
        <time>2024-09-19T12:34:35Z</time>
      </trkpt>
      <trkpt lat="46.10046" lon="4.7618">
        <ele>195.8</ele>
        <time>2024-09-19T12:34:36Z</time>
      </trkpt>
      <trkpt lat="46.10042" lon="4.76175">
        <ele>195.8</ele>
        <time>2024-09-19T12:34:37Z</time>
      </trkpt>
      <trkpt lat="46.10038" lon="4.76171">
        <ele>195.8</ele>
        <time>2024-09-19T12:34:38Z</time>
      </trkpt>
      <trkpt lat="46.10034" lon="4.76167">
        <ele>195.8</ele>
        <time>2024-09-19T12:34:39Z</time>
      </trkpt>
      <trkpt lat="46.1003" lon="4.76162">
        <ele>195.8</ele>
        <time>2024-09-19T12:34:40Z</time>
      </trkpt>
      <trkpt lat="46.10026" lon="4.76157">
        <ele>195.8</ele>
        <time>2024-09-19T12:34:41Z</time>
      </trkpt>
      <trkpt lat="46.10022" lon="4.76152">
        <ele>195.8</ele>
        <time>2024-09-19T12:34:42Z</time>
      </trkpt>
      <trkpt lat="46.10018" lon="4.76148">
        <ele>195.8</ele>
        <time>2024-09-19T12:34:43Z</time>
      </trkpt>
      <trkpt lat="46.10012" lon="4.76141">
        <ele>195.8</ele>
        <time>2024-09-19T12:34:44Z</time>
      </trkpt>
      <trkpt lat="46.1001" lon="4.76139">
        <ele>195.8</ele>
        <time>2024-09-19T12:34:45Z</time>
      </trkpt>
      <trkpt lat="46.10004" lon="4.76132">
        <ele>195.8</ele>
        <time>2024-09-19T12:34:46Z</time>
      </trkpt>
      <trkpt lat="46.10002" lon="4.7613">
        <ele>195.8</ele>
        <time>2024-09-19T12:34:47Z</time>
      </trkpt>
      <trkpt lat="46.09998" lon="4.76125">
        <ele>195.6</ele>
        <time>2024-09-19T12:34:48Z</time>
      </trkpt>
      <trkpt lat="46.09993" lon="4.7612">
        <ele>195.6</ele>
        <time>2024-09-19T12:34:49Z</time>
      </trkpt>
      <trkpt lat="46.09989" lon="4.76116">
        <ele>195.6</ele>
        <time>2024-09-19T12:34:50Z</time>
      </trkpt>
      <trkpt lat="46.09985" lon="4.76111">
        <ele>195.6</ele>
        <time>2024-09-19T12:34:51Z</time>
      </trkpt>
      <trkpt lat="46.09981" lon="4.76107">
        <ele>196</ele>
        <time>2024-09-19T12:34:52Z</time>
      </trkpt>
      <trkpt lat="46.09975" lon="4.761">
        <ele>195.8</ele>
        <time>2024-09-19T12:34:53Z</time>
      </trkpt>
      <trkpt lat="46.09973" lon="4.76098">
        <ele>195.8</ele>
        <time>2024-09-19T12:34:54Z</time>
      </trkpt>
      <trkpt lat="46.09969" lon="4.76093">
        <ele>195.8</ele>
        <time>2024-09-19T12:34:55Z</time>
      </trkpt>
      <trkpt lat="46.09965" lon="4.76089">
        <ele>195.8</ele>
        <time>2024-09-19T12:34:56Z</time>
      </trkpt>
      <trkpt lat="46.09962" lon="4.76084">
        <ele>195.8</ele>
        <time>2024-09-19T12:34:57Z</time>
      </trkpt>
      <trkpt lat="46.09958" lon="4.76079">
        <ele>195.6</ele>
        <time>2024-09-19T12:34:58Z</time>
      </trkpt>
      <trkpt lat="46.09953" lon="4.76075">
        <ele>195.6</ele>
        <time>2024-09-19T12:34:59Z</time>
      </trkpt>
      <trkpt lat="46.09949" lon="4.7607">
        <ele>195.6</ele>
        <time>2024-09-19T12:35:00Z</time>
      </trkpt>
      <trkpt lat="46.09946" lon="4.76066">
        <ele>195.6</ele>
        <time>2024-09-19T12:35:01Z</time>
      </trkpt>
      <trkpt lat="46.09941" lon="4.76061">
        <ele>195.8</ele>
        <time>2024-09-19T12:35:02Z</time>
      </trkpt>
      <trkpt lat="46.09937" lon="4.76057">
        <ele>195.8</ele>
        <time>2024-09-19T12:35:03Z</time>
      </trkpt>
      <trkpt lat="46.09931" lon="4.76051">
        <ele>195.8</ele>
        <time>2024-09-19T12:35:04Z</time>
      </trkpt>
      <trkpt lat="46.09929" lon="4.76049">
        <ele>195.8</ele>
        <time>2024-09-19T12:35:05Z</time>
      </trkpt>
      <trkpt lat="46.09924" lon="4.76044">
        <ele>195.8</ele>
        <time>2024-09-19T12:35:06Z</time>
      </trkpt>
      <trkpt lat="46.0992" lon="4.76039">
        <ele>195.8</ele>
        <time>2024-09-19T12:35:07Z</time>
      </trkpt>
      <trkpt lat="46.09916" lon="4.76034">
        <ele>195.6</ele>
        <time>2024-09-19T12:35:08Z</time>
      </trkpt>
      <trkpt lat="46.09912" lon="4.76029">
        <ele>195.6</ele>
        <time>2024-09-19T12:35:09Z</time>
      </trkpt>
      <trkpt lat="46.09908" lon="4.76024">
        <ele>195.8</ele>
        <time>2024-09-19T12:35:10Z</time>
      </trkpt>
      <trkpt lat="46.09904" lon="4.76019">
        <ele>195.8</ele>
        <time>2024-09-19T12:35:11Z</time>
      </trkpt>
      <trkpt lat="46.09898" lon="4.76012">
        <ele>195.8</ele>
        <time>2024-09-19T12:35:12Z</time>
      </trkpt>
      <trkpt lat="46.09896" lon="4.7601">
        <ele>195.8</ele>
        <time>2024-09-19T12:35:13Z</time>
      </trkpt>
      <trkpt lat="46.0989" lon="4.76003">
        <ele>195.8</ele>
        <time>2024-09-19T12:35:14Z</time>
      </trkpt>
      <trkpt lat="46.09888" lon="4.76">
        <ele>195.8</ele>
        <time>2024-09-19T12:35:15Z</time>
      </trkpt>
      <trkpt lat="46.09884" lon="4.75995">
        <ele>195.8</ele>
        <time>2024-09-19T12:35:16Z</time>
      </trkpt>
      <trkpt lat="46.09881" lon="4.75991">
        <ele>195.6</ele>
        <time>2024-09-19T12:35:17Z</time>
      </trkpt>
      <trkpt lat="46.09875" lon="4.75984">
        <ele>195.6</ele>
        <time>2024-09-19T12:35:18Z</time>
      </trkpt>
      <trkpt lat="46.09873" lon="4.75981">
        <ele>195.6</ele>
        <time>2024-09-19T12:35:19Z</time>
      </trkpt>
      <trkpt lat="46.09867" lon="4.75974">
        <ele>195.6</ele>
        <time>2024-09-19T12:35:20Z</time>
      </trkpt>
      <trkpt lat="46.09865" lon="4.75972">
        <ele>195.6</ele>
        <time>2024-09-19T12:35:21Z</time>
      </trkpt>
      <trkpt lat="46.09859" lon="4.75965">
        <ele>195.6</ele>
        <time>2024-09-19T12:35:22Z</time>
      </trkpt>
      <trkpt lat="46.09857" lon="4.75962">
        <ele>195.6</ele>
        <time>2024-09-19T12:35:23Z</time>
      </trkpt>
      <trkpt lat="46.0985" lon="4.75955">
        <ele>195.6</ele>
        <time>2024-09-19T12:35:24Z</time>
      </trkpt>
      <trkpt lat="46.09848" lon="4.75953">
        <ele>195.6</ele>
        <time>2024-09-19T12:35:25Z</time>
      </trkpt>
      <trkpt lat="46.09844" lon="4.75948">
        <ele>195.8</ele>
        <time>2024-09-19T12:35:26Z</time>
      </trkpt>
      <trkpt lat="46.09838" lon="4.75941">
        <ele>195.8</ele>
        <time>2024-09-19T12:35:27Z</time>
      </trkpt>
      <trkpt lat="46.09836" lon="4.75939">
        <ele>195.4</ele>
        <time>2024-09-19T12:35:28Z</time>
      </trkpt>
      <trkpt lat="46.09832" lon="4.75935">
        <ele>195.4</ele>
        <time>2024-09-19T12:35:29Z</time>
      </trkpt>
      <trkpt lat="46.09826" lon="4.75928">
        <ele>195.6</ele>
        <time>2024-09-19T12:35:30Z</time>
      </trkpt>
      <trkpt lat="46.09824" lon="4.75926">
        <ele>195.6</ele>
        <time>2024-09-19T12:35:31Z</time>
      </trkpt>
      <trkpt lat="46.0982" lon="4.75921">
        <ele>195.6</ele>
        <time>2024-09-19T12:35:32Z</time>
      </trkpt>
      <trkpt lat="46.09816" lon="4.75917">
        <ele>195.6</ele>
        <time>2024-09-19T12:35:33Z</time>
      </trkpt>
      <trkpt lat="46.09812" lon="4.75912">
        <ele>195.6</ele>
        <time>2024-09-19T12:35:34Z</time>
      </trkpt>
      <trkpt lat="46.09808" lon="4.75907">
        <ele>195.6</ele>
        <time>2024-09-19T12:35:35Z</time>
      </trkpt>
      <trkpt lat="46.09801" lon="4.759">
        <ele>195.6</ele>
        <time>2024-09-19T12:35:36Z</time>
      </trkpt>
      <trkpt lat="46.09799" lon="4.75898">
        <ele>195.6</ele>
        <time>2024-09-19T12:35:37Z</time>
      </trkpt>
      <trkpt lat="46.09795" lon="4.75894">
        <ele>195.6</ele>
        <time>2024-09-19T12:35:38Z</time>
      </trkpt>
      <trkpt lat="46.09789" lon="4.75888">
        <ele>195.8</ele>
        <time>2024-09-19T12:35:39Z</time>
      </trkpt>
      <trkpt lat="46.09787" lon="4.75885">
        <ele>195.8</ele>
        <time>2024-09-19T12:35:40Z</time>
      </trkpt>
      <trkpt lat="46.09783" lon="4.75882">
        <ele>195.8</ele>
        <time>2024-09-19T12:35:41Z</time>
      </trkpt>
      <trkpt lat="46.09779" lon="4.75877">
        <ele>195.8</ele>
        <time>2024-09-19T12:35:42Z</time>
      </trkpt>
      <trkpt lat="46.09773" lon="4.75871">
        <ele>196</ele>
        <time>2024-09-19T12:35:43Z</time>
      </trkpt>
      <trkpt lat="46.09771" lon="4.75869">
        <ele>196</ele>
        <time>2024-09-19T12:35:44Z</time>
      </trkpt>
      <trkpt lat="46.09767" lon="4.75865">
        <ele>196</ele>
        <time>2024-09-19T12:35:45Z</time>
      </trkpt>
      <trkpt lat="46.0976" lon="4.75859">
        <ele>196</ele>
        <time>2024-09-19T12:35:46Z</time>
      </trkpt>
      <trkpt lat="46.09758" lon="4.75857">
        <ele>196</ele>
        <time>2024-09-19T12:35:47Z</time>
      </trkpt>
      <trkpt lat="46.09753" lon="4.75853">
        <ele>195.8</ele>
        <time>2024-09-19T12:35:48Z</time>
      </trkpt>
      <trkpt lat="46.09749" lon="4.75848">
        <ele>195.8</ele>
        <time>2024-09-19T12:35:49Z</time>
      </trkpt>
      <trkpt lat="46.09745" lon="4.75844">
        <ele>195.8</ele>
        <time>2024-09-19T12:35:50Z</time>
      </trkpt>
      <trkpt lat="46.09738" lon="4.75838">
        <ele>195.8</ele>
        <time>2024-09-19T12:35:51Z</time>
      </trkpt>
      <trkpt lat="46.09736" lon="4.75837">
        <ele>195.8</ele>
        <time>2024-09-19T12:35:52Z</time>
      </trkpt>
      <trkpt lat="46.09732" lon="4.75833">
        <ele>195.8</ele>
        <time>2024-09-19T12:35:53Z</time>
      </trkpt>
      <trkpt lat="46.09728" lon="4.75829">
        <ele>195.8</ele>
        <time>2024-09-19T12:35:54Z</time>
      </trkpt>
      <trkpt lat="46.09721" lon="4.75822">
        <ele>195.8</ele>
        <time>2024-09-19T12:35:55Z</time>
      </trkpt>
      <trkpt lat="46.09719" lon="4.7582">
        <ele>196</ele>
        <time>2024-09-19T12:35:56Z</time>
      </trkpt>
      <trkpt lat="46.09712" lon="4.75814">
        <ele>196</ele>
        <time>2024-09-19T12:35:57Z</time>
      </trkpt>
      <trkpt lat="46.0971" lon="4.75812">
        <ele>196</ele>
        <time>2024-09-19T12:35:58Z</time>
      </trkpt>
      <trkpt lat="46.09706" lon="4.75807">
        <ele>196</ele>
        <time>2024-09-19T12:35:59Z</time>
      </trkpt>
      <trkpt lat="46.09701" lon="4.75803">
        <ele>196</ele>
        <time>2024-09-19T12:36:00Z</time>
      </trkpt>
      <trkpt lat="46.09695" lon="4.75797">
        <ele>196</ele>
        <time>2024-09-19T12:36:01Z</time>
      </trkpt>
      <trkpt lat="46.09693" lon="4.75795">
        <ele>196.4</ele>
        <time>2024-09-19T12:36:02Z</time>
      </trkpt>
      <trkpt lat="46.09686" lon="4.75789">
        <ele>196.4</ele>
        <time>2024-09-19T12:36:03Z</time>
      </trkpt>
      <trkpt lat="46.09684" lon="4.75787">
        <ele>195.8</ele>
        <time>2024-09-19T12:36:04Z</time>
      </trkpt>
      <trkpt lat="46.09679" lon="4.75783">
        <ele>196</ele>
        <time>2024-09-19T12:36:05Z</time>
      </trkpt>
      <trkpt lat="46.09675" lon="4.75779">
        <ele>196</ele>
        <time>2024-09-19T12:36:06Z</time>
      </trkpt>
      <trkpt lat="46.09671" lon="4.75776">
        <ele>196</ele>
        <time>2024-09-19T12:36:07Z</time>
      </trkpt>
      <trkpt lat="46.09664" lon="4.7577">
        <ele>196</ele>
        <time>2024-09-19T12:36:08Z</time>
      </trkpt>
      <trkpt lat="46.09661" lon="4.75768">
        <ele>196</ele>
        <time>2024-09-19T12:36:09Z</time>
      </trkpt>
      <trkpt lat="46.09655" lon="4.75763">
        <ele>195.6</ele>
        <time>2024-09-19T12:36:10Z</time>
      </trkpt>
      <trkpt lat="46.09652" lon="4.75761">
        <ele>195.6</ele>
        <time>2024-09-19T12:36:11Z</time>
      </trkpt>
      <trkpt lat="46.09645" lon="4.75756">
        <ele>195.6</ele>
        <time>2024-09-19T12:36:12Z</time>
      </trkpt>
      <trkpt lat="46.09643" lon="4.75754">
        <ele>195.8</ele>
        <time>2024-09-19T12:36:13Z</time>
      </trkpt>
      <trkpt lat="46.09638" lon="4.75751">
        <ele>195.8</ele>
        <time>2024-09-19T12:36:14Z</time>
      </trkpt>
      <trkpt lat="46.09633" lon="4.75747">
        <ele>195.8</ele>
        <time>2024-09-19T12:36:15Z</time>
      </trkpt>
      <trkpt lat="46.09629" lon="4.75744">
        <ele>195.8</ele>
        <time>2024-09-19T12:36:16Z</time>
      </trkpt>
      <trkpt lat="46.09624" lon="4.7574">
        <ele>195.4</ele>
        <time>2024-09-19T12:36:17Z</time>
      </trkpt>
      <trkpt lat="46.09619" lon="4.75736">
        <ele>195.4</ele>
        <time>2024-09-19T12:36:18Z</time>
      </trkpt>
      <trkpt lat="46.09612" lon="4.75731">
        <ele>195.4</ele>
        <time>2024-09-19T12:36:19Z</time>
      </trkpt>
      <trkpt lat="46.09609" lon="4.75729">
        <ele>195.4</ele>
        <time>2024-09-19T12:36:20Z</time>
      </trkpt>
      <trkpt lat="46.09604" lon="4.75726">
        <ele>195.4</ele>
        <time>2024-09-19T12:36:21Z</time>
      </trkpt>
      <trkpt lat="46.09597" lon="4.75722">
        <ele>195.4</ele>
        <time>2024-09-19T12:36:22Z</time>
      </trkpt>
      <trkpt lat="46.09594" lon="4.7572">
        <ele>195.6</ele>
        <time>2024-09-19T12:36:23Z</time>
      </trkpt>
      <trkpt lat="46.09589" lon="4.75717">
        <ele>195.6</ele>
        <time>2024-09-19T12:36:24Z</time>
      </trkpt>
      <trkpt lat="46.09585" lon="4.75714">
        <ele>195.6</ele>
        <time>2024-09-19T12:36:25Z</time>
      </trkpt>
      <trkpt lat="46.0958" lon="4.75711">
        <ele>195.6</ele>
        <time>2024-09-19T12:36:26Z</time>
      </trkpt>
      <trkpt lat="46.09575" lon="4.75708">
        <ele>195.6</ele>
        <time>2024-09-19T12:36:27Z</time>
      </trkpt>
      <trkpt lat="46.0957" lon="4.75704">
        <ele>195.6</ele>
        <time>2024-09-19T12:36:28Z</time>
      </trkpt>
      <trkpt lat="46.09563" lon="4.757">
        <ele>195.8</ele>
        <time>2024-09-19T12:36:29Z</time>
      </trkpt>
      <trkpt lat="46.09561" lon="4.75699">
        <ele>195.8</ele>
        <time>2024-09-19T12:36:30Z</time>
      </trkpt>
      <trkpt lat="46.09556" lon="4.75696">
        <ele>195.8</ele>
        <time>2024-09-19T12:36:31Z</time>
      </trkpt>
      <trkpt lat="46.09551" lon="4.75693">
        <ele>195.8</ele>
        <time>2024-09-19T12:36:32Z</time>
      </trkpt>
      <trkpt lat="46.09546" lon="4.7569">
        <ele>195.4</ele>
        <time>2024-09-19T12:36:33Z</time>
      </trkpt>
      <trkpt lat="46.09538" lon="4.75686">
        <ele>195.4</ele>
        <time>2024-09-19T12:36:34Z</time>
      </trkpt>
      <trkpt lat="46.09536" lon="4.75685">
        <ele>195.4</ele>
        <time>2024-09-19T12:36:35Z</time>
      </trkpt>
      <trkpt lat="46.09529" lon="4.75681">
        <ele>195.4</ele>
        <time>2024-09-19T12:36:36Z</time>
      </trkpt>
      <trkpt lat="46.09526" lon="4.75679">
        <ele>195.6</ele>
        <time>2024-09-19T12:36:37Z</time>
      </trkpt>
      <trkpt lat="46.09519" lon="4.75675">
        <ele>195.6</ele>
        <time>2024-09-19T12:36:38Z</time>
      </trkpt>
      <trkpt lat="46.09516" lon="4.75674">
        <ele>195.6</ele>
        <time>2024-09-19T12:36:39Z</time>
      </trkpt>
      <trkpt lat="46.09509" lon="4.75669">
        <ele>195.6</ele>
        <time>2024-09-19T12:36:40Z</time>
      </trkpt>
      <trkpt lat="46.09506" lon="4.75668">
        <ele>195.6</ele>
        <time>2024-09-19T12:36:41Z</time>
      </trkpt>
      <trkpt lat="46.09501" lon="4.75665">
        <ele>195.6</ele>
        <time>2024-09-19T12:36:42Z</time>
      </trkpt>
      <trkpt lat="46.09496" lon="4.75663">
        <ele>195.6</ele>
        <time>2024-09-19T12:36:43Z</time>
      </trkpt>
      <trkpt lat="46.09491" lon="4.7566">
        <ele>195.6</ele>
        <time>2024-09-19T12:36:44Z</time>
      </trkpt>
      <trkpt lat="46.09484" lon="4.75656">
        <ele>195.4</ele>
        <time>2024-09-19T12:36:45Z</time>
      </trkpt>
      <trkpt lat="46.09482" lon="4.75655">
        <ele>195.4</ele>
        <time>2024-09-19T12:36:46Z</time>
      </trkpt>
      <trkpt lat="46.09474" lon="4.75651">
        <ele>195.4</ele>
        <time>2024-09-19T12:36:47Z</time>
      </trkpt>
      <trkpt lat="46.09472" lon="4.7565">
        <ele>195.4</ele>
        <time>2024-09-19T12:36:48Z</time>
      </trkpt>
      <trkpt lat="46.09465" lon="4.75646">
        <ele>195.4</ele>
        <time>2024-09-19T12:36:49Z</time>
      </trkpt>
      <trkpt lat="46.09463" lon="4.75644">
        <ele>195.4</ele>
        <time>2024-09-19T12:36:50Z</time>
      </trkpt>
      <trkpt lat="46.09458" lon="4.75642">
        <ele>195.6</ele>
        <time>2024-09-19T12:36:51Z</time>
      </trkpt>
      <trkpt lat="46.09451" lon="4.75639">
        <ele>195.6</ele>
        <time>2024-09-19T12:36:52Z</time>
      </trkpt>
      <trkpt lat="46.09448" lon="4.75638">
        <ele>195.6</ele>
        <time>2024-09-19T12:36:53Z</time>
      </trkpt>
      <trkpt lat="46.09441" lon="4.75634">
        <ele>195.6</ele>
        <time>2024-09-19T12:36:54Z</time>
      </trkpt>
      <trkpt lat="46.09439" lon="4.75633">
        <ele>195.2</ele>
        <time>2024-09-19T12:36:55Z</time>
      </trkpt>
      <trkpt lat="46.09435" lon="4.7563">
        <ele>195.2</ele>
        <time>2024-09-19T12:36:56Z</time>
      </trkpt>
      <trkpt lat="46.09431" lon="4.75628">
        <ele>195.2</ele>
        <time>2024-09-19T12:36:57Z</time>
      </trkpt>
      <trkpt lat="46.09427" lon="4.75625">
        <ele>195.4</ele>
        <time>2024-09-19T12:36:58Z</time>
      </trkpt>
      <trkpt lat="46.09423" lon="4.75623">
        <ele>195.4</ele>
        <time>2024-09-19T12:36:59Z</time>
      </trkpt>
      <trkpt lat="46.09419" lon="4.7562">
        <ele>195.4</ele>
        <time>2024-09-19T12:37:00Z</time>
      </trkpt>
      <trkpt lat="46.09415" lon="4.75618">
        <ele>195.4</ele>
        <time>2024-09-19T12:37:01Z</time>
      </trkpt>
      <trkpt lat="46.09411" lon="4.75616">
        <ele>195.4</ele>
        <time>2024-09-19T12:37:02Z</time>
      </trkpt>
      <trkpt lat="46.09404" lon="4.75613">
        <ele>195.4</ele>
        <time>2024-09-19T12:37:03Z</time>
      </trkpt>
      <trkpt lat="46.09402" lon="4.75612">
        <ele>195</ele>
        <time>2024-09-19T12:37:04Z</time>
      </trkpt>
      <trkpt lat="46.09398" lon="4.7561">
        <ele>195</ele>
        <time>2024-09-19T12:37:05Z</time>
      </trkpt>
      <trkpt lat="46.09391" lon="4.75606">
        <ele>195</ele>
        <time>2024-09-19T12:37:06Z</time>
      </trkpt>
      <trkpt lat="46.09389" lon="4.75605">
        <ele>195</ele>
        <time>2024-09-19T12:37:07Z</time>
      </trkpt>
      <trkpt lat="46.09384" lon="4.75603">
        <ele>195.2</ele>
        <time>2024-09-19T12:37:08Z</time>
      </trkpt>
      <trkpt lat="46.0938" lon="4.75601">
        <ele>195.2</ele>
        <time>2024-09-19T12:37:09Z</time>
      </trkpt>
      <trkpt lat="46.09375" lon="4.75598">
        <ele>195.2</ele>
        <time>2024-09-19T12:37:10Z</time>
      </trkpt>
      <trkpt lat="46.09371" lon="4.75595">
        <ele>195.2</ele>
        <time>2024-09-19T12:37:11Z</time>
      </trkpt>
      <trkpt lat="46.09367" lon="4.75593">
        <ele>195.2</ele>
        <time>2024-09-19T12:37:12Z</time>
      </trkpt>
      <trkpt lat="46.09362" lon="4.75591">
        <ele>195.4</ele>
        <time>2024-09-19T12:37:13Z</time>
      </trkpt>
      <trkpt lat="46.09358" lon="4.75589">
        <ele>195.6</ele>
        <time>2024-09-19T12:37:14Z</time>
      </trkpt>
      <trkpt lat="46.09351" lon="4.75585">
        <ele>195.6</ele>
        <time>2024-09-19T12:37:15Z</time>
      </trkpt>
      <trkpt lat="46.09349" lon="4.75584">
        <ele>195.6</ele>
        <time>2024-09-19T12:37:16Z</time>
      </trkpt>
      <trkpt lat="46.09345" lon="4.75581">
        <ele>195.2</ele>
        <time>2024-09-19T12:37:17Z</time>
      </trkpt>
      <trkpt lat="46.0934" lon="4.75579">
        <ele>195.6</ele>
        <time>2024-09-19T12:37:18Z</time>
      </trkpt>
      <trkpt lat="46.09333" lon="4.75575">
        <ele>195.6</ele>
        <time>2024-09-19T12:37:19Z</time>
      </trkpt>
      <trkpt lat="46.09331" lon="4.75574">
        <ele>195.6</ele>
        <time>2024-09-19T12:37:20Z</time>
      </trkpt>
      <trkpt lat="46.09324" lon="4.7557">
        <ele>195.6</ele>
        <time>2024-09-19T12:37:21Z</time>
      </trkpt>
      <trkpt lat="46.09322" lon="4.75569">
        <ele>195.6</ele>
        <time>2024-09-19T12:37:22Z</time>
      </trkpt>
      <trkpt lat="46.09317" lon="4.75567">
        <ele>195.6</ele>
        <time>2024-09-19T12:37:23Z</time>
      </trkpt>
      <trkpt lat="46.09312" lon="4.75565">
        <ele>195.6</ele>
        <time>2024-09-19T12:37:24Z</time>
      </trkpt>
      <trkpt lat="46.09307" lon="4.75563">
        <ele>195.6</ele>
        <time>2024-09-19T12:37:25Z</time>
      </trkpt>
      <trkpt lat="46.093" lon="4.75559">
        <ele>195.6</ele>
        <time>2024-09-19T12:37:26Z</time>
      </trkpt>
      <trkpt lat="46.09298" lon="4.75557">
        <ele>195.6</ele>
        <time>2024-09-19T12:37:27Z</time>
      </trkpt>
      <trkpt lat="46.09294" lon="4.75555">
        <ele>195.6</ele>
        <time>2024-09-19T12:37:28Z</time>
      </trkpt>
      <trkpt lat="46.0929" lon="4.75553">
        <ele>195.6</ele>
        <time>2024-09-19T12:37:29Z</time>
      </trkpt>
      <trkpt lat="46.09283" lon="4.75549">
        <ele>195.6</ele>
        <time>2024-09-19T12:37:30Z</time>
      </trkpt>
      <trkpt lat="46.09281" lon="4.75548">
        <ele>195.6</ele>
        <time>2024-09-19T12:37:31Z</time>
      </trkpt>
      <trkpt lat="46.09274" lon="4.75544">
        <ele>195.8</ele>
        <time>2024-09-19T12:37:32Z</time>
      </trkpt>
      <trkpt lat="46.09272" lon="4.75543">
        <ele>195.8</ele>
        <time>2024-09-19T12:37:33Z</time>
      </trkpt>
      <trkpt lat="46.09265" lon="4.75539">
        <ele>195.8</ele>
        <time>2024-09-19T12:37:34Z</time>
      </trkpt>
      <trkpt lat="46.09263" lon="4.75538">
        <ele>195.6</ele>
        <time>2024-09-19T12:37:35Z</time>
      </trkpt>
      <trkpt lat="46.09256" lon="4.75535">
        <ele>195.6</ele>
        <time>2024-09-19T12:37:36Z</time>
      </trkpt>
      <trkpt lat="46.09253" lon="4.75534">
        <ele>195.6</ele>
        <time>2024-09-19T12:37:37Z</time>
      </trkpt>
      <trkpt lat="46.09248" lon="4.75532">
        <ele>195.6</ele>
        <time>2024-09-19T12:37:38Z</time>
      </trkpt>
      <trkpt lat="46.09241" lon="4.75529">
        <ele>195.4</ele>
        <time>2024-09-19T12:37:39Z</time>
      </trkpt>
      <trkpt lat="46.09238" lon="4.75529">
        <ele>195.6</ele>
        <time>2024-09-19T12:37:40Z</time>
      </trkpt>
      <trkpt lat="46.09234" lon="4.75527">
        <ele>195.6</ele>
        <time>2024-09-19T12:37:41Z</time>
      </trkpt>
      <trkpt lat="46.09229" lon="4.75526">
        <ele>195.6</ele>
        <time>2024-09-19T12:37:42Z</time>
      </trkpt>
      <trkpt lat="46.09224" lon="4.75524">
        <ele>195.6</ele>
        <time>2024-09-19T12:37:43Z</time>
      </trkpt>
      <trkpt lat="46.09219" lon="4.75523">
        <ele>195.6</ele>
        <time>2024-09-19T12:37:44Z</time>
      </trkpt>
      <trkpt lat="46.09214" lon="4.75521">
        <ele>195.6</ele>
        <time>2024-09-19T12:37:45Z</time>
      </trkpt>
      <trkpt lat="46.09207" lon="4.75518">
        <ele>195.6</ele>
        <time>2024-09-19T12:37:46Z</time>
      </trkpt>
      <trkpt lat="46.09205" lon="4.75517">
        <ele>195.6</ele>
        <time>2024-09-19T12:37:47Z</time>
      </trkpt>
      <trkpt lat="46.092" lon="4.75515">
        <ele>195.6</ele>
        <time>2024-09-19T12:37:48Z</time>
      </trkpt>
      <trkpt lat="46.09195" lon="4.75512">
        <ele>195.4</ele>
        <time>2024-09-19T12:37:49Z</time>
      </trkpt>
      <trkpt lat="46.09188" lon="4.75508">
        <ele>195.4</ele>
        <time>2024-09-19T12:37:50Z</time>
      </trkpt>
      <trkpt lat="46.09186" lon="4.75506">
        <ele>195.4</ele>
        <time>2024-09-19T12:37:51Z</time>
      </trkpt>
      <trkpt lat="46.09181" lon="4.75503">
        <ele>195.4</ele>
        <time>2024-09-19T12:37:52Z</time>
      </trkpt>
      <trkpt lat="46.09176" lon="4.75501">
        <ele>195.4</ele>
        <time>2024-09-19T12:37:53Z</time>
      </trkpt>
      <trkpt lat="46.09171" lon="4.75499">
        <ele>195.4</ele>
        <time>2024-09-19T12:37:54Z</time>
      </trkpt>
      <trkpt lat="46.09166" lon="4.75496">
        <ele>195.4</ele>
        <time>2024-09-19T12:37:55Z</time>
      </trkpt>
      <trkpt lat="46.09161" lon="4.75494">
        <ele>195.4</ele>
        <time>2024-09-19T12:37:56Z</time>
      </trkpt>
      <trkpt lat="46.09153" lon="4.75492">
        <ele>195.4</ele>
        <time>2024-09-19T12:37:57Z</time>
      </trkpt>
      <trkpt lat="46.0915" lon="4.75491">
        <ele>195.4</ele>
        <time>2024-09-19T12:37:58Z</time>
      </trkpt>
      <trkpt lat="46.09142" lon="4.75488">
        <ele>195.6</ele>
        <time>2024-09-19T12:37:59Z</time>
      </trkpt>
      <trkpt lat="46.0914" lon="4.75487">
        <ele>195.6</ele>
        <time>2024-09-19T12:38:00Z</time>
      </trkpt>
      <trkpt lat="46.09134" lon="4.75485">
        <ele>195.6</ele>
        <time>2024-09-19T12:38:01Z</time>
      </trkpt>
      <trkpt lat="46.09129" lon="4.75484">
        <ele>195.6</ele>
        <time>2024-09-19T12:38:02Z</time>
      </trkpt>
      <trkpt lat="46.09121" lon="4.75481">
        <ele>195.6</ele>
        <time>2024-09-19T12:38:03Z</time>
      </trkpt>
      <trkpt lat="46.09119" lon="4.7548">
        <ele>195.4</ele>
        <time>2024-09-19T12:38:04Z</time>
      </trkpt>
      <trkpt lat="46.09114" lon="4.75478">
        <ele>195.4</ele>
        <time>2024-09-19T12:38:05Z</time>
      </trkpt>
      <trkpt lat="46.09109" lon="4.75476">
        <ele>195.4</ele>
        <time>2024-09-19T12:38:06Z</time>
      </trkpt>
      <trkpt lat="46.09102" lon="4.75472">
        <ele>195.4</ele>
        <time>2024-09-19T12:38:07Z</time>
      </trkpt>
      <trkpt lat="46.09099" lon="4.75472">
        <ele>195</ele>
        <time>2024-09-19T12:38:08Z</time>
      </trkpt>
      <trkpt lat="46.09094" lon="4.7547">
        <ele>195</ele>
        <time>2024-09-19T12:38:09Z</time>
      </trkpt>
      <trkpt lat="46.09089" lon="4.75468">
        <ele>195</ele>
        <time>2024-09-19T12:38:10Z</time>
      </trkpt>
      <trkpt lat="46.09084" lon="4.75467">
        <ele>195.4</ele>
        <time>2024-09-19T12:38:11Z</time>
      </trkpt>
      <trkpt lat="46.09079" lon="4.75465">
        <ele>195.4</ele>
        <time>2024-09-19T12:38:12Z</time>
      </trkpt>
      <trkpt lat="46.09072" lon="4.75462">
        <ele>195.4</ele>
        <time>2024-09-19T12:38:13Z</time>
      </trkpt>
      <trkpt lat="46.0907" lon="4.7546">
        <ele>195.4</ele>
        <time>2024-09-19T12:38:14Z</time>
      </trkpt>
      <trkpt lat="46.09062" lon="4.75457">
        <ele>195.4</ele>
        <time>2024-09-19T12:38:15Z</time>
      </trkpt>
      <trkpt lat="46.0906" lon="4.75456">
        <ele>195.2</ele>
        <time>2024-09-19T12:38:16Z</time>
      </trkpt>
      <trkpt lat="46.09053" lon="4.75454">
        <ele>195.2</ele>
        <time>2024-09-19T12:38:17Z</time>
      </trkpt>
      <trkpt lat="46.0905" lon="4.75453">
        <ele>195.2</ele>
        <time>2024-09-19T12:38:18Z</time>
      </trkpt>
      <trkpt lat="46.09043" lon="4.7545">
        <ele>195.2</ele>
        <time>2024-09-19T12:38:19Z</time>
      </trkpt>
      <trkpt lat="46.0904" lon="4.75449">
        <ele>195.2</ele>
        <time>2024-09-19T12:38:20Z</time>
      </trkpt>
      <trkpt lat="46.09033" lon="4.75446">
        <ele>195.2</ele>
        <time>2024-09-19T12:38:21Z</time>
      </trkpt>
      <trkpt lat="46.09031" lon="4.75445">
        <ele>195.2</ele>
        <time>2024-09-19T12:38:22Z</time>
      </trkpt>
      <trkpt lat="46.09026" lon="4.75443">
        <ele>195.2</ele>
        <time>2024-09-19T12:38:23Z</time>
      </trkpt>
      <trkpt lat="46.09021" lon="4.75442">
        <ele>195.2</ele>
        <time>2024-09-19T12:38:24Z</time>
      </trkpt>
      <trkpt lat="46.09016" lon="4.7544">
        <ele>195.2</ele>
        <time>2024-09-19T12:38:25Z</time>
      </trkpt>
      <trkpt lat="46.09012" lon="4.75438">
        <ele>194.8</ele>
        <time>2024-09-19T12:38:26Z</time>
      </trkpt>
      <trkpt lat="46.09007" lon="4.75436">
        <ele>194.8</ele>
        <time>2024-09-19T12:38:27Z</time>
      </trkpt>
      <trkpt lat="46.08999" lon="4.75433">
        <ele>194.8</ele>
        <time>2024-09-19T12:38:28Z</time>
      </trkpt>
      <trkpt lat="46.08997" lon="4.75432">
        <ele>195.6</ele>
        <time>2024-09-19T12:38:29Z</time>
      </trkpt>
      <trkpt lat="46.0899" lon="4.75429">
        <ele>195.6</ele>
        <time>2024-09-19T12:38:30Z</time>
      </trkpt>
      <trkpt lat="46.08987" lon="4.75428">
        <ele>195.4</ele>
        <time>2024-09-19T12:38:31Z</time>
      </trkpt>
      <trkpt lat="46.08982" lon="4.75426">
        <ele>195.4</ele>
        <time>2024-09-19T12:38:32Z</time>
      </trkpt>
      <trkpt lat="46.08975" lon="4.75423">
        <ele>195.4</ele>
        <time>2024-09-19T12:38:33Z</time>
      </trkpt>
      <trkpt lat="46.08972" lon="4.75422">
        <ele>195.4</ele>
        <time>2024-09-19T12:38:34Z</time>
      </trkpt>
      <trkpt lat="46.08967" lon="4.7542">
        <ele>195.4</ele>
        <time>2024-09-19T12:38:35Z</time>
      </trkpt>
      <trkpt lat="46.08963" lon="4.75417">
        <ele>195.4</ele>
        <time>2024-09-19T12:38:36Z</time>
      </trkpt>
      <trkpt lat="46.08958" lon="4.75415">
        <ele>195.4</ele>
        <time>2024-09-19T12:38:37Z</time>
      </trkpt>
      <trkpt lat="46.0895" lon="4.75412">
        <ele>195.4</ele>
        <time>2024-09-19T12:38:38Z</time>
      </trkpt>
      <trkpt lat="46.08948" lon="4.75411">
        <ele>195.4</ele>
        <time>2024-09-19T12:38:39Z</time>
      </trkpt>
      <trkpt lat="46.08943" lon="4.75409">
        <ele>195.2</ele>
        <time>2024-09-19T12:38:40Z</time>
      </trkpt>
      <trkpt lat="46.08938" lon="4.75407">
        <ele>195.2</ele>
        <time>2024-09-19T12:38:41Z</time>
      </trkpt>
      <trkpt lat="46.08932" lon="4.75405">
        <ele>195.2</ele>
        <time>2024-09-19T12:38:42Z</time>
      </trkpt>
      <trkpt lat="46.08927" lon="4.75402">
        <ele>195.2</ele>
        <time>2024-09-19T12:38:43Z</time>
      </trkpt>
      <trkpt lat="46.08922" lon="4.754">
        <ele>195.2</ele>
        <time>2024-09-19T12:38:44Z</time>
      </trkpt>
      <trkpt lat="46.08917" lon="4.75397">
        <ele>195.8</ele>
        <time>2024-09-19T12:38:45Z</time>
      </trkpt>
      <trkpt lat="46.0891" lon="4.75393">
        <ele>195.8</ele>
        <time>2024-09-19T12:38:46Z</time>
      </trkpt>
      <trkpt lat="46.08908" lon="4.75392">
        <ele>195.8</ele>
        <time>2024-09-19T12:38:47Z</time>
      </trkpt>
      <trkpt lat="46.089" lon="4.75388">
        <ele>195.4</ele>
        <time>2024-09-19T12:38:48Z</time>
      </trkpt>
      <trkpt lat="46.08898" lon="4.75387">
        <ele>195.2</ele>
        <time>2024-09-19T12:38:49Z</time>
      </trkpt>
      <trkpt lat="46.08893" lon="4.75384">
        <ele>195.2</ele>
        <time>2024-09-19T12:38:50Z</time>
      </trkpt>
      <trkpt lat="46.08888" lon="4.75382">
        <ele>195.2</ele>
        <time>2024-09-19T12:38:51Z</time>
      </trkpt>
      <trkpt lat="46.08883" lon="4.7538">
        <ele>195.2</ele>
        <time>2024-09-19T12:38:52Z</time>
      </trkpt>
      <trkpt lat="46.08878" lon="4.75379">
        <ele>195.2</ele>
        <time>2024-09-19T12:38:53Z</time>
      </trkpt>
      <trkpt lat="46.08872" lon="4.75375">
        <ele>195.2</ele>
        <time>2024-09-19T12:38:54Z</time>
      </trkpt>
      <trkpt lat="46.0887" lon="4.75374">
        <ele>195.2</ele>
        <time>2024-09-19T12:38:55Z</time>
      </trkpt>
      <trkpt lat="46.08865" lon="4.75373">
        <ele>195.2</ele>
        <time>2024-09-19T12:38:56Z</time>
      </trkpt>
      <trkpt lat="46.08861" lon="4.75371">
        <ele>195.2</ele>
        <time>2024-09-19T12:38:57Z</time>
      </trkpt>
      <trkpt lat="46.08855" lon="4.75368">
        <ele>195.4</ele>
        <time>2024-09-19T12:38:58Z</time>
      </trkpt>
      <trkpt lat="46.08853" lon="4.75367">
        <ele>195.4</ele>
        <time>2024-09-19T12:38:59Z</time>
      </trkpt>
      <trkpt lat="46.0885" lon="4.75365">
        <ele>195.4</ele>
        <time>2024-09-19T12:39:00Z</time>
      </trkpt>
      <trkpt lat="46.08846" lon="4.75363">
        <ele>195.4</ele>
        <time>2024-09-19T12:39:01Z</time>
      </trkpt>
      <trkpt lat="46.0884" lon="4.75361">
        <ele>195</ele>
        <time>2024-09-19T12:39:02Z</time>
      </trkpt>
      <trkpt lat="46.08838" lon="4.75361">
        <ele>195</ele>
        <time>2024-09-19T12:39:03Z</time>
      </trkpt>
      <trkpt lat="46.08832" lon="4.7536">
        <ele>195</ele>
        <time>2024-09-19T12:39:04Z</time>
      </trkpt>
      <trkpt lat="46.0883" lon="4.7536">
        <ele>195</ele>
        <time>2024-09-19T12:39:05Z</time>
      </trkpt>
      <trkpt lat="46.08823" lon="4.75358">
        <ele>195.8</ele>
        <time>2024-09-19T12:39:06Z</time>
      </trkpt>
      <trkpt lat="46.08821" lon="4.75357">
        <ele>195.6</ele>
        <time>2024-09-19T12:39:07Z</time>
      </trkpt>
      <trkpt lat="46.08817" lon="4.75356">
        <ele>195.6</ele>
        <time>2024-09-19T12:39:08Z</time>
      </trkpt>
      <trkpt lat="46.08812" lon="4.75354">
        <ele>195.6</ele>
        <time>2024-09-19T12:39:09Z</time>
      </trkpt>
      <trkpt lat="46.08808" lon="4.75353">
        <ele>195.4</ele>
        <time>2024-09-19T12:39:10Z</time>
      </trkpt>
      <trkpt lat="46.08802" lon="4.75351">
        <ele>195.6</ele>
        <time>2024-09-19T12:39:11Z</time>
      </trkpt>
      <trkpt lat="46.088" lon="4.7535">
        <ele>195.6</ele>
        <time>2024-09-19T12:39:12Z</time>
      </trkpt>
      <trkpt lat="46.08796" lon="4.75349">
        <ele>195.6</ele>
        <time>2024-09-19T12:39:13Z</time>
      </trkpt>
      <trkpt lat="46.08789" lon="4.75347">
        <ele>195.6</ele>
        <time>2024-09-19T12:39:14Z</time>
      </trkpt>
      <trkpt lat="46.08787" lon="4.75346">
        <ele>195.6</ele>
        <time>2024-09-19T12:39:15Z</time>
      </trkpt>
      <trkpt lat="46.08782" lon="4.75344">
        <ele>195.6</ele>
        <time>2024-09-19T12:39:16Z</time>
      </trkpt>
      <trkpt lat="46.08778" lon="4.75343">
        <ele>195.4</ele>
        <time>2024-09-19T12:39:17Z</time>
      </trkpt>
      <trkpt lat="46.08774" lon="4.75342">
        <ele>195.4</ele>
        <time>2024-09-19T12:39:18Z</time>
      </trkpt>
      <trkpt lat="46.08769" lon="4.75341">
        <ele>195.4</ele>
        <time>2024-09-19T12:39:19Z</time>
      </trkpt>
      <trkpt lat="46.08765" lon="4.7534">
        <ele>195.4</ele>
        <time>2024-09-19T12:39:20Z</time>
      </trkpt>
      <trkpt lat="46.08758" lon="4.75339">
        <ele>195.8</ele>
        <time>2024-09-19T12:39:21Z</time>
      </trkpt>
      <trkpt lat="46.08756" lon="4.75339">
        <ele>195.8</ele>
        <time>2024-09-19T12:39:22Z</time>
      </trkpt>
      <trkpt lat="46.0875" lon="4.75336">
        <ele>195.8</ele>
        <time>2024-09-19T12:39:23Z</time>
      </trkpt>
      <trkpt lat="46.08747" lon="4.75336">
        <ele>195.4</ele>
        <time>2024-09-19T12:39:24Z</time>
      </trkpt>
      <trkpt lat="46.08743" lon="4.75334">
        <ele>195.2</ele>
        <time>2024-09-19T12:39:25Z</time>
      </trkpt>
      <trkpt lat="46.08739" lon="4.75333">
        <ele>195.2</ele>
        <time>2024-09-19T12:39:26Z</time>
      </trkpt>
      <trkpt lat="46.08734" lon="4.75332">
        <ele>195.2</ele>
        <time>2024-09-19T12:39:27Z</time>
      </trkpt>
      <trkpt lat="46.0873" lon="4.75331">
        <ele>195.2</ele>
        <time>2024-09-19T12:39:28Z</time>
      </trkpt>
      <trkpt lat="46.08723" lon="4.75328">
        <ele>195.4</ele>
        <time>2024-09-19T12:39:29Z</time>
      </trkpt>
      <trkpt lat="46.08721" lon="4.75328">
        <ele>195.6</ele>
        <time>2024-09-19T12:39:30Z</time>
      </trkpt>
      <trkpt lat="46.08714" lon="4.75325">
        <ele>195.6</ele>
        <time>2024-09-19T12:39:31Z</time>
      </trkpt>
      <trkpt lat="46.08712" lon="4.75325">
        <ele>195.6</ele>
        <time>2024-09-19T12:39:32Z</time>
      </trkpt>
      <trkpt lat="46.08707" lon="4.75323">
        <ele>195.6</ele>
        <time>2024-09-19T12:39:33Z</time>
      </trkpt>
      <trkpt lat="46.08703" lon="4.75322">
        <ele>195.2</ele>
        <time>2024-09-19T12:39:34Z</time>
      </trkpt>
      <trkpt lat="46.08696" lon="4.75319">
        <ele>195.2</ele>
        <time>2024-09-19T12:39:35Z</time>
      </trkpt>
      <trkpt lat="46.08693" lon="4.75319">
        <ele>195.2</ele>
        <time>2024-09-19T12:39:36Z</time>
      </trkpt>
      <trkpt lat="46.08689" lon="4.75318">
        <ele>195.2</ele>
        <time>2024-09-19T12:39:37Z</time>
      </trkpt>
      <trkpt lat="46.08684" lon="4.75317">
        <ele>195.2</ele>
        <time>2024-09-19T12:39:38Z</time>
      </trkpt>
      <trkpt lat="46.08677" lon="4.75315">
        <ele>195.4</ele>
        <time>2024-09-19T12:39:39Z</time>
      </trkpt>
      <trkpt lat="46.08675" lon="4.75315">
        <ele>195.4</ele>
        <time>2024-09-19T12:39:40Z</time>
      </trkpt>
      <trkpt lat="46.0867" lon="4.75314">
        <ele>195.4</ele>
        <time>2024-09-19T12:39:41Z</time>
      </trkpt>
      <trkpt lat="46.08665" lon="4.75313">
        <ele>195.4</ele>
        <time>2024-09-19T12:39:42Z</time>
      </trkpt>
      <trkpt lat="46.0866" lon="4.75312">
        <ele>195.4</ele>
        <time>2024-09-19T12:39:43Z</time>
      </trkpt>
      <trkpt lat="46.08656" lon="4.75312">
        <ele>195.4</ele>
        <time>2024-09-19T12:39:44Z</time>
      </trkpt>
      <trkpt lat="46.08649" lon="4.7531">
        <ele>195.4</ele>
        <time>2024-09-19T12:39:45Z</time>
      </trkpt>
      <trkpt lat="46.08646" lon="4.7531">
        <ele>195.4</ele>
        <time>2024-09-19T12:39:46Z</time>
      </trkpt>
      <trkpt lat="46.08639" lon="4.75309">
        <ele>195.2</ele>
        <time>2024-09-19T12:39:47Z</time>
      </trkpt>
      <trkpt lat="46.08637" lon="4.75308">
        <ele>195.6</ele>
        <time>2024-09-19T12:39:48Z</time>
      </trkpt>
      <trkpt lat="46.08632" lon="4.75307">
        <ele>195.6</ele>
        <time>2024-09-19T12:39:49Z</time>
      </trkpt>
      <trkpt lat="46.08627" lon="4.75307">
        <ele>195.6</ele>
        <time>2024-09-19T12:39:50Z</time>
      </trkpt>
      <trkpt lat="46.08623" lon="4.75306">
        <ele>195.6</ele>
        <time>2024-09-19T12:39:51Z</time>
      </trkpt>
      <trkpt lat="46.08619" lon="4.75305">
        <ele>195</ele>
        <time>2024-09-19T12:39:52Z</time>
      </trkpt>
      <trkpt lat="46.08614" lon="4.75305">
        <ele>195</ele>
        <time>2024-09-19T12:39:53Z</time>
      </trkpt>
      <trkpt lat="46.0861" lon="4.75304">
        <ele>195</ele>
        <time>2024-09-19T12:39:54Z</time>
      </trkpt>
      <trkpt lat="46.08606" lon="4.75304">
        <ele>195.4</ele>
        <time>2024-09-19T12:39:55Z</time>
      </trkpt>
      <trkpt lat="46.08601" lon="4.75303">
        <ele>195.4</ele>
        <time>2024-09-19T12:39:56Z</time>
      </trkpt>
      <trkpt lat="46.08597" lon="4.75303">
        <ele>195.4</ele>
        <time>2024-09-19T12:39:57Z</time>
      </trkpt>
      <trkpt lat="46.08592" lon="4.75302">
        <ele>195.4</ele>
        <time>2024-09-19T12:39:58Z</time>
      </trkpt>
      <trkpt lat="46.08587" lon="4.75302">
        <ele>195.4</ele>
        <time>2024-09-19T12:39:59Z</time>
      </trkpt>
      <trkpt lat="46.08583" lon="4.75302">
        <ele>195.4</ele>
        <time>2024-09-19T12:40:00Z</time>
      </trkpt>
      <trkpt lat="46.08578" lon="4.75302">
        <ele>195.4</ele>
        <time>2024-09-19T12:40:01Z</time>
      </trkpt>
      <trkpt lat="46.08573" lon="4.75302">
        <ele>195.4</ele>
        <time>2024-09-19T12:40:02Z</time>
      </trkpt>
      <trkpt lat="46.08568" lon="4.75301">
        <ele>195.4</ele>
        <time>2024-09-19T12:40:03Z</time>
      </trkpt>
      <trkpt lat="46.08561" lon="4.75301">
        <ele>195.4</ele>
        <time>2024-09-19T12:40:04Z</time>
      </trkpt>
      <trkpt lat="46.08559" lon="4.753">
        <ele>195.4</ele>
        <time>2024-09-19T12:40:05Z</time>
      </trkpt>
      <trkpt lat="46.08554" lon="4.753">
        <ele>195.4</ele>
        <time>2024-09-19T12:40:06Z</time>
      </trkpt>
      <trkpt lat="46.08546" lon="4.75299">
        <ele>195.4</ele>
        <time>2024-09-19T12:40:07Z</time>
      </trkpt>
      <trkpt lat="46.08544" lon="4.75298">
        <ele>195.4</ele>
        <time>2024-09-19T12:40:08Z</time>
      </trkpt>
      <trkpt lat="46.08539" lon="4.75297">
        <ele>195.4</ele>
        <time>2024-09-19T12:40:09Z</time>
      </trkpt>
      <trkpt lat="46.08534" lon="4.75296">
        <ele>195.4</ele>
        <time>2024-09-19T12:40:10Z</time>
      </trkpt>
      <trkpt lat="46.08527" lon="4.75296">
        <ele>195.4</ele>
        <time>2024-09-19T12:40:11Z</time>
      </trkpt>
      <trkpt lat="46.08525" lon="4.75295">
        <ele>195.4</ele>
        <time>2024-09-19T12:40:12Z</time>
      </trkpt>
      <trkpt lat="46.08518" lon="4.75295">
        <ele>195.4</ele>
        <time>2024-09-19T12:40:13Z</time>
      </trkpt>
      <trkpt lat="46.08515" lon="4.75294">
        <ele>195.4</ele>
        <time>2024-09-19T12:40:14Z</time>
      </trkpt>
      <trkpt lat="46.08508" lon="4.75294">
        <ele>195.4</ele>
        <time>2024-09-19T12:40:15Z</time>
      </trkpt>
      <trkpt lat="46.08506" lon="4.75293">
        <ele>195.4</ele>
        <time>2024-09-19T12:40:16Z</time>
      </trkpt>
      <trkpt lat="46.08501" lon="4.75294">
        <ele>195.4</ele>
        <time>2024-09-19T12:40:17Z</time>
      </trkpt>
      <trkpt lat="46.08496" lon="4.75294">
        <ele>195.4</ele>
        <time>2024-09-19T12:40:18Z</time>
      </trkpt>
      <trkpt lat="46.08488" lon="4.75294">
        <ele>195.4</ele>
        <time>2024-09-19T12:40:19Z</time>
      </trkpt>
      <trkpt lat="46.08485" lon="4.75294">
        <ele>195.4</ele>
        <time>2024-09-19T12:40:20Z</time>
      </trkpt>
      <trkpt lat="46.08478" lon="4.75295">
        <ele>195.4</ele>
        <time>2024-09-19T12:40:21Z</time>
      </trkpt>
      <trkpt lat="46.08475" lon="4.75295">
        <ele>195.4</ele>
        <time>2024-09-19T12:40:22Z</time>
      </trkpt>
      <trkpt lat="46.08468" lon="4.75296">
        <ele>195.4</ele>
        <time>2024-09-19T12:40:23Z</time>
      </trkpt>
      <trkpt lat="46.08466" lon="4.75297">
        <ele>195.8</ele>
        <time>2024-09-19T12:40:24Z</time>
      </trkpt>
      <trkpt lat="46.08461" lon="4.75298">
        <ele>195.8</ele>
        <time>2024-09-19T12:40:25Z</time>
      </trkpt>
      <trkpt lat="46.08456" lon="4.75298">
        <ele>195.8</ele>
        <time>2024-09-19T12:40:26Z</time>
      </trkpt>
      <trkpt lat="46.0845" lon="4.75298">
        <ele>195.2</ele>
        <time>2024-09-19T12:40:27Z</time>
      </trkpt>
      <trkpt lat="46.08447" lon="4.75298">
        <ele>195.2</ele>
        <time>2024-09-19T12:40:28Z</time>
      </trkpt>
      <trkpt lat="46.08443" lon="4.75299">
        <ele>195.4</ele>
        <time>2024-09-19T12:40:29Z</time>
      </trkpt>
      <trkpt lat="46.08439" lon="4.75299">
        <ele>195.4</ele>
        <time>2024-09-19T12:40:30Z</time>
      </trkpt>
      <trkpt lat="46.08435" lon="4.75299">
        <ele>195.4</ele>
        <time>2024-09-19T12:40:31Z</time>
      </trkpt>
      <trkpt lat="46.0843" lon="4.753">
        <ele>195.4</ele>
        <time>2024-09-19T12:40:32Z</time>
      </trkpt>
      <trkpt lat="46.08426" lon="4.753">
        <ele>195.6</ele>
        <time>2024-09-19T12:40:33Z</time>
      </trkpt>
      <trkpt lat="46.08421" lon="4.75301">
        <ele>195.6</ele>
        <time>2024-09-19T12:40:34Z</time>
      </trkpt>
      <trkpt lat="46.08416" lon="4.75301">
        <ele>195.6</ele>
        <time>2024-09-19T12:40:35Z</time>
      </trkpt>
      <trkpt lat="46.08411" lon="4.75301">
        <ele>194.8</ele>
        <time>2024-09-19T12:40:36Z</time>
      </trkpt>
      <trkpt lat="46.08404" lon="4.75302">
        <ele>195.2</ele>
        <time>2024-09-19T12:40:37Z</time>
      </trkpt>
      <trkpt lat="46.08402" lon="4.75302">
        <ele>195.2</ele>
        <time>2024-09-19T12:40:38Z</time>
      </trkpt>
      <trkpt lat="46.08395" lon="4.75303">
        <ele>195.2</ele>
        <time>2024-09-19T12:40:39Z</time>
      </trkpt>
      <trkpt lat="46.08392" lon="4.75303">
        <ele>195.2</ele>
        <time>2024-09-19T12:40:40Z</time>
      </trkpt>
      <trkpt lat="46.08387" lon="4.75304">
        <ele>195.2</ele>
        <time>2024-09-19T12:40:41Z</time>
      </trkpt>
      <trkpt lat="46.08382" lon="4.75305">
        <ele>195.2</ele>
        <time>2024-09-19T12:40:42Z</time>
      </trkpt>
      <trkpt lat="46.08377" lon="4.75306">
        <ele>195.2</ele>
        <time>2024-09-19T12:40:43Z</time>
      </trkpt>
      <trkpt lat="46.08372" lon="4.75306">
        <ele>195.2</ele>
        <time>2024-09-19T12:40:44Z</time>
      </trkpt>
      <trkpt lat="46.08367" lon="4.75307">
        <ele>195.2</ele>
        <time>2024-09-19T12:40:45Z</time>
      </trkpt>
      <trkpt lat="46.08362" lon="4.75307">
        <ele>195.2</ele>
        <time>2024-09-19T12:40:46Z</time>
      </trkpt>
      <trkpt lat="46.08357" lon="4.75308">
        <ele>195</ele>
        <time>2024-09-19T12:40:47Z</time>
      </trkpt>
      <trkpt lat="46.08349" lon="4.75308">
        <ele>195</ele>
        <time>2024-09-19T12:40:48Z</time>
      </trkpt>
      <trkpt lat="46.08346" lon="4.75309">
        <ele>195</ele>
        <time>2024-09-19T12:40:49Z</time>
      </trkpt>
      <trkpt lat="46.08341" lon="4.75309">
        <ele>195.2</ele>
        <time>2024-09-19T12:40:50Z</time>
      </trkpt>
      <trkpt lat="46.08337" lon="4.7531">
        <ele>195.2</ele>
        <time>2024-09-19T12:40:51Z</time>
      </trkpt>
      <trkpt lat="46.08332" lon="4.75311">
        <ele>195.2</ele>
        <time>2024-09-19T12:40:52Z</time>
      </trkpt>
      <trkpt lat="46.08328" lon="4.75313">
        <ele>195.2</ele>
        <time>2024-09-19T12:40:53Z</time>
      </trkpt>
      <trkpt lat="46.08321" lon="4.75314">
        <ele>195.2</ele>
        <time>2024-09-19T12:40:54Z</time>
      </trkpt>
      <trkpt lat="46.08319" lon="4.75314">
        <ele>195.8</ele>
        <time>2024-09-19T12:40:55Z</time>
      </trkpt>
      <trkpt lat="46.08313" lon="4.75315">
        <ele>195.8</ele>
        <time>2024-09-19T12:40:56Z</time>
      </trkpt>
      <trkpt lat="46.08311" lon="4.75315">
        <ele>195.8</ele>
        <time>2024-09-19T12:40:57Z</time>
      </trkpt>
      <trkpt lat="46.08306" lon="4.75316">
        <ele>195.8</ele>
        <time>2024-09-19T12:40:58Z</time>
      </trkpt>
      <trkpt lat="46.08304" lon="4.75316">
        <ele>195</ele>
        <time>2024-09-19T12:40:59Z</time>
      </trkpt>
      <trkpt lat="46.083" lon="4.75317">
        <ele>195</ele>
        <time>2024-09-19T12:41:00Z</time>
      </trkpt>
      <trkpt lat="46.08297" lon="4.75319">
        <ele>195</ele>
        <time>2024-09-19T12:41:01Z</time>
      </trkpt>
      <trkpt lat="46.08294" lon="4.75321">
        <ele>195</ele>
        <time>2024-09-19T12:41:02Z</time>
      </trkpt>
      <trkpt lat="46.08293" lon="4.75325">
        <ele>195</ele>
        <time>2024-09-19T12:41:03Z</time>
      </trkpt>
      <trkpt lat="46.08292" lon="4.75328">
        <ele>195.2</ele>
        <time>2024-09-19T12:41:04Z</time>
      </trkpt>
      <trkpt lat="46.08292" lon="4.7533">
        <ele>195.2</ele>
        <time>2024-09-19T12:41:05Z</time>
      </trkpt>
      <trkpt lat="46.08292" lon="4.75332">
        <ele>195.2</ele>
        <time>2024-09-19T12:41:06Z</time>
      </trkpt>
      <trkpt lat="46.08292" lon="4.75335">
        <ele>195.4</ele>
        <time>2024-09-19T12:41:07Z</time>
      </trkpt>
      <trkpt lat="46.08293" lon="4.75337">
        <ele>195.4</ele>
        <time>2024-09-19T12:41:08Z</time>
      </trkpt>
      <trkpt lat="46.08294" lon="4.75338">
        <ele>195.6</ele>
        <time>2024-09-19T12:41:09Z</time>
      </trkpt>
      <trkpt lat="46.08294" lon="4.75338">
        <ele>195.6</ele>
        <time>2024-09-19T12:41:10Z</time>
      </trkpt>
      <trkpt lat="46.08294" lon="4.75339">
        <ele>195.6</ele>
        <time>2024-09-19T12:41:11Z</time>
      </trkpt>
      <trkpt lat="46.08294" lon="4.7534">
        <ele>195.6</ele>
        <time>2024-09-19T12:41:12Z</time>
      </trkpt>
      <trkpt lat="46.08295" lon="4.75341">
        <ele>195.8</ele>
        <time>2024-09-19T12:41:13Z</time>
      </trkpt>
      <trkpt lat="46.08296" lon="4.75343">
        <ele>195.8</ele>
        <time>2024-09-19T12:41:14Z</time>
      </trkpt>
      <trkpt lat="46.08298" lon="4.75346">
        <ele>195.8</ele>
        <time>2024-09-19T12:41:15Z</time>
      </trkpt>
      <trkpt lat="46.08299" lon="4.75348">
        <ele>195.8</ele>
        <time>2024-09-19T12:41:16Z</time>
      </trkpt>
      <trkpt lat="46.083" lon="4.75351">
        <ele>195.8</ele>
        <time>2024-09-19T12:41:17Z</time>
      </trkpt>
      <trkpt lat="46.08301" lon="4.75354">
        <ele>195.8</ele>
        <time>2024-09-19T12:41:18Z</time>
      </trkpt>
      <trkpt lat="46.08301" lon="4.75357">
        <ele>195.8</ele>
        <time>2024-09-19T12:41:19Z</time>
      </trkpt>
      <trkpt lat="46.08302" lon="4.75361">
        <ele>195.8</ele>
        <time>2024-09-19T12:41:20Z</time>
      </trkpt>
      <trkpt lat="46.08303" lon="4.75365">
        <ele>195.8</ele>
        <time>2024-09-19T12:41:21Z</time>
      </trkpt>
      <trkpt lat="46.08305" lon="4.75368">
        <ele>195.8</ele>
        <time>2024-09-19T12:41:22Z</time>
      </trkpt>
      <trkpt lat="46.08307" lon="4.75371">
        <ele>195.4</ele>
        <time>2024-09-19T12:41:23Z</time>
      </trkpt>
      <trkpt lat="46.08309" lon="4.75371">
        <ele>195.4</ele>
        <time>2024-09-19T12:41:24Z</time>
      </trkpt>
      <trkpt lat="46.08311" lon="4.75372">
        <ele>195.4</ele>
        <time>2024-09-19T12:41:25Z</time>
      </trkpt>
      <trkpt lat="46.08313" lon="4.75372">
        <ele>196</ele>
        <time>2024-09-19T12:41:26Z</time>
      </trkpt>
      <trkpt lat="46.08314" lon="4.75372">
        <ele>196.2</ele>
        <time>2024-09-19T12:41:27Z</time>
      </trkpt>
      <trkpt lat="46.08316" lon="4.75372">
        <ele>196.2</ele>
        <time>2024-09-19T12:41:28Z</time>
      </trkpt>
      <trkpt lat="46.08319" lon="4.75372">
        <ele>196.2</ele>
        <time>2024-09-19T12:41:29Z</time>
      </trkpt>
      <trkpt lat="46.0832" lon="4.75373">
        <ele>196.2</ele>
        <time>2024-09-19T12:41:30Z</time>
      </trkpt>
      <trkpt lat="46.08322" lon="4.75373">
        <ele>196.2</ele>
        <time>2024-09-19T12:41:31Z</time>
      </trkpt>
      <trkpt lat="46.08324" lon="4.75373">
        <ele>196.2</ele>
        <time>2024-09-19T12:41:32Z</time>
      </trkpt>
      <trkpt lat="46.08325" lon="4.75372">
        <ele>196.2</ele>
        <time>2024-09-19T12:41:33Z</time>
      </trkpt>
      <trkpt lat="46.08326" lon="4.75371">
        <ele>196.2</ele>
        <time>2024-09-19T12:41:34Z</time>
      </trkpt>
      <trkpt lat="46.08327" lon="4.75371">
        <ele>196.2</ele>
        <time>2024-09-19T12:41:35Z</time>
      </trkpt>
      <trkpt lat="46.08327" lon="4.7537">
        <ele>196.2</ele>
        <time>2024-09-19T12:41:36Z</time>
      </trkpt>
      <trkpt lat="46.08327" lon="4.7537">
        <ele>196.2</ele>
        <time>2024-09-19T12:41:37Z</time>
      </trkpt>
      <trkpt lat="46.08325" lon="4.75365">
        <ele>196.2</ele>
        <time>2024-09-19T12:41:54Z</time>
      </trkpt>
      <trkpt lat="46.08324" lon="4.75366">
        <ele>196.2</ele>
        <time>2024-09-19T12:41:55Z</time>
      </trkpt>
      <trkpt lat="46.08322" lon="4.75367">
        <ele>196.2</ele>
        <time>2024-09-19T12:41:56Z</time>
      </trkpt>
      <trkpt lat="46.0832" lon="4.75369">
        <ele>196.2</ele>
        <time>2024-09-19T12:41:57Z</time>
      </trkpt>
      <trkpt lat="46.08318" lon="4.7537">
        <ele>196.2</ele>
        <time>2024-09-19T12:41:58Z</time>
      </trkpt>
      <trkpt lat="46.08316" lon="4.7537">
        <ele>196.2</ele>
        <time>2024-09-19T12:41:59Z</time>
      </trkpt>
      <trkpt lat="46.08313" lon="4.7537">
        <ele>196.2</ele>
        <time>2024-09-19T12:42:00Z</time>
      </trkpt>
      <trkpt lat="46.0831" lon="4.75369">
        <ele>196</ele>
        <time>2024-09-19T12:42:01Z</time>
      </trkpt>
      <trkpt lat="46.08308" lon="4.75367">
        <ele>196</ele>
        <time>2024-09-19T12:42:02Z</time>
      </trkpt>
      <trkpt lat="46.08305" lon="4.75364">
        <ele>196</ele>
        <time>2024-09-19T12:42:03Z</time>
      </trkpt>
      <trkpt lat="46.08303" lon="4.75361">
        <ele>196</ele>
        <time>2024-09-19T12:42:04Z</time>
      </trkpt>
      <trkpt lat="46.08301" lon="4.75357">
        <ele>196</ele>
        <time>2024-09-19T12:42:05Z</time>
      </trkpt>
      <trkpt lat="46.083" lon="4.75354">
        <ele>196.2</ele>
        <time>2024-09-19T12:42:06Z</time>
      </trkpt>
      <trkpt lat="46.08298" lon="4.7535">
        <ele>196.2</ele>
        <time>2024-09-19T12:42:07Z</time>
      </trkpt>
      <trkpt lat="46.08296" lon="4.75347">
        <ele>196.2</ele>
        <time>2024-09-19T12:42:08Z</time>
      </trkpt>
      <trkpt lat="46.08294" lon="4.75343">
        <ele>196</ele>
        <time>2024-09-19T12:42:09Z</time>
      </trkpt>
      <trkpt lat="46.08292" lon="4.7534">
        <ele>195.8</ele>
        <time>2024-09-19T12:42:10Z</time>
      </trkpt>
      <trkpt lat="46.08291" lon="4.75338">
        <ele>195.8</ele>
        <time>2024-09-19T12:42:11Z</time>
      </trkpt>
      <trkpt lat="46.08291" lon="4.75333">
        <ele>195.8</ele>
        <time>2024-09-19T12:42:12Z</time>
      </trkpt>
      <trkpt lat="46.08291" lon="4.75331">
        <ele>195.8</ele>
        <time>2024-09-19T12:42:13Z</time>
      </trkpt>
      <trkpt lat="46.08291" lon="4.75328">
        <ele>195.8</ele>
        <time>2024-09-19T12:42:14Z</time>
      </trkpt>
      <trkpt lat="46.08291" lon="4.75326">
        <ele>196</ele>
        <time>2024-09-19T12:45:37Z</time>
      </trkpt>
      <trkpt lat="46.08291" lon="4.75323">
        <ele>196</ele>
        <time>2024-09-19T12:45:38Z</time>
      </trkpt>
      <trkpt lat="46.08291" lon="4.75321">
        <ele>196</ele>
        <time>2024-09-19T12:45:39Z</time>
      </trkpt>
      <trkpt lat="46.08291" lon="4.75318">
        <ele>195</ele>
        <time>2024-09-19T12:46:09Z</time>
      </trkpt>
      <trkpt lat="46.08291" lon="4.75316">
        <ele>195</ele>
        <time>2024-09-19T12:46:10Z</time>
      </trkpt>
      <trkpt lat="46.08291" lon="4.75313">
        <ele>195</ele>
        <time>2024-09-19T12:46:11Z</time>
      </trkpt>
      <trkpt lat="46.08289" lon="4.75314">
        <ele>195</ele>
        <time>2024-09-19T12:46:12Z</time>
      </trkpt>
      <trkpt lat="46.08287" lon="4.75315">
        <ele>195</ele>
        <time>2024-09-19T12:46:13Z</time>
      </trkpt>
      <trkpt lat="46.08286" lon="4.75316">
        <ele>195</ele>
        <time>2024-09-19T12:46:14Z</time>
      </trkpt>
      <trkpt lat="46.08284" lon="4.75317">
        <ele>195</ele>
        <time>2024-09-19T12:46:15Z</time>
      </trkpt>
      <trkpt lat="46.08283" lon="4.75318">
        <ele>195</ele>
        <time>2024-09-19T12:46:16Z</time>
      </trkpt>
      <trkpt lat="46.08282" lon="4.7532">
        <ele>195</ele>
        <time>2024-09-19T12:46:17Z</time>
      </trkpt>
      <trkpt lat="46.08281" lon="4.75322">
        <ele>194.8</ele>
        <time>2024-09-19T12:46:18Z</time>
      </trkpt>
      <trkpt lat="46.08279" lon="4.75324">
        <ele>194.8</ele>
        <time>2024-09-19T12:46:19Z</time>
      </trkpt>
      <trkpt lat="46.08277" lon="4.75325">
        <ele>194.8</ele>
        <time>2024-09-19T12:46:20Z</time>
      </trkpt>
      <trkpt lat="46.08276" lon="4.75327">
        <ele>194.8</ele>
        <time>2024-09-19T12:46:21Z</time>
      </trkpt>
      <trkpt lat="46.08274" lon="4.75329">
        <ele>194.8</ele>
        <time>2024-09-19T12:46:22Z</time>
      </trkpt>
      <trkpt lat="46.08272" lon="4.7533">
        <ele>194.8</ele>
        <time>2024-09-19T12:46:23Z</time>
      </trkpt>
      <trkpt lat="46.08271" lon="4.75331">
        <ele>194.8</ele>
        <time>2024-09-19T12:46:24Z</time>
      </trkpt>
      <trkpt lat="46.08269" lon="4.75333">
        <ele>194.8</ele>
        <time>2024-09-19T12:46:25Z</time>
      </trkpt>
      <trkpt lat="46.08268" lon="4.75335">
        <ele>194.8</ele>
        <time>2024-09-19T12:46:26Z</time>
      </trkpt>
      <trkpt lat="46.08266" lon="4.75336">
        <ele>194.8</ele>
        <time>2024-09-19T12:46:27Z</time>
      </trkpt>
      <trkpt lat="46.08264" lon="4.75338">
        <ele>194.8</ele>
        <time>2024-09-19T12:46:28Z</time>
      </trkpt>
      <trkpt lat="46.08263" lon="4.7534">
        <ele>194.8</ele>
        <time>2024-09-19T12:46:29Z</time>
      </trkpt>
      <trkpt lat="46.08261" lon="4.75342">
        <ele>195</ele>
        <time>2024-09-19T12:46:30Z</time>
      </trkpt>
      <trkpt lat="46.08258" lon="4.75344">
        <ele>194.8</ele>
        <time>2024-09-19T12:46:31Z</time>
      </trkpt>
      <trkpt lat="46.08257" lon="4.75345">
        <ele>194.8</ele>
        <time>2024-09-19T12:46:32Z</time>
      </trkpt>
      <trkpt lat="46.08254" lon="4.75349">
        <ele>194.8</ele>
        <time>2024-09-19T12:46:33Z</time>
      </trkpt>
      <trkpt lat="46.08254" lon="4.7535">
        <ele>194.8</ele>
        <time>2024-09-19T12:46:34Z</time>
      </trkpt>
      <trkpt lat="46.08252" lon="4.75352">
        <ele>195</ele>
        <time>2024-09-19T12:46:35Z</time>
      </trkpt>
      <trkpt lat="46.08251" lon="4.75355">
        <ele>195</ele>
        <time>2024-09-19T12:46:36Z</time>
      </trkpt>
      <trkpt lat="46.08249" lon="4.75357">
        <ele>195</ele>
        <time>2024-09-19T12:46:37Z</time>
      </trkpt>
      <trkpt lat="46.08248" lon="4.7536">
        <ele>195</ele>
        <time>2024-09-19T12:46:38Z</time>
      </trkpt>
      <trkpt lat="46.08246" lon="4.75362">
        <ele>195</ele>
        <time>2024-09-19T12:46:39Z</time>
      </trkpt>
      <trkpt lat="46.08245" lon="4.75365">
        <ele>195.2</ele>
        <time>2024-09-19T12:46:40Z</time>
      </trkpt>
      <trkpt lat="46.08243" lon="4.75369">
        <ele>195.2</ele>
        <time>2024-09-19T12:46:41Z</time>
      </trkpt>
      <trkpt lat="46.08241" lon="4.75372">
        <ele>195.2</ele>
        <time>2024-09-19T12:46:42Z</time>
      </trkpt>
      <trkpt lat="46.08238" lon="4.75376">
        <ele>195.2</ele>
        <time>2024-09-19T12:46:43Z</time>
      </trkpt>
      <trkpt lat="46.08235" lon="4.75382">
        <ele>195.2</ele>
        <time>2024-09-19T12:46:44Z</time>
      </trkpt>
      <trkpt lat="46.08234" lon="4.75384">
        <ele>195.4</ele>
        <time>2024-09-19T12:46:45Z</time>
      </trkpt>
      <trkpt lat="46.0823" lon="4.7539">
        <ele>195.4</ele>
        <time>2024-09-19T12:46:46Z</time>
      </trkpt>
      <trkpt lat="46.08228" lon="4.75392">
        <ele>195.4</ele>
        <time>2024-09-19T12:46:47Z</time>
      </trkpt>
      <trkpt lat="46.08224" lon="4.75398">
        <ele>195.4</ele>
        <time>2024-09-19T12:46:48Z</time>
      </trkpt>
      <trkpt lat="46.08223" lon="4.754">
        <ele>195.4</ele>
        <time>2024-09-19T12:46:49Z</time>
      </trkpt>
      <trkpt lat="46.0822" lon="4.75405">
        <ele>195.4</ele>
        <time>2024-09-19T12:46:50Z</time>
      </trkpt>
      <trkpt lat="46.08218" lon="4.7541">
        <ele>195.4</ele>
        <time>2024-09-19T12:46:51Z</time>
      </trkpt>
      <trkpt lat="46.08215" lon="4.75414">
        <ele>195.4</ele>
        <time>2024-09-19T12:46:52Z</time>
      </trkpt>
      <trkpt lat="46.08212" lon="4.75418">
        <ele>195.4</ele>
        <time>2024-09-19T12:46:53Z</time>
      </trkpt>
      <trkpt lat="46.08207" lon="4.75425">
        <ele>195.2</ele>
        <time>2024-09-19T12:46:54Z</time>
      </trkpt>
      <trkpt lat="46.08206" lon="4.75428">
        <ele>195.2</ele>
        <time>2024-09-19T12:46:55Z</time>
      </trkpt>
      <trkpt lat="46.08203" lon="4.75433">
        <ele>195.2</ele>
        <time>2024-09-19T12:46:56Z</time>
      </trkpt>
      <trkpt lat="46.08198" lon="4.75439">
        <ele>195.2</ele>
        <time>2024-09-19T12:46:57Z</time>
      </trkpt>
      <trkpt lat="46.08197" lon="4.75442">
        <ele>195.2</ele>
        <time>2024-09-19T12:46:58Z</time>
      </trkpt>
      <trkpt lat="46.08194" lon="4.75446">
        <ele>195</ele>
        <time>2024-09-19T12:46:59Z</time>
      </trkpt>
      <trkpt lat="46.0819" lon="4.75451">
        <ele>195</ele>
        <time>2024-09-19T12:47:00Z</time>
      </trkpt>
      <trkpt lat="46.08187" lon="4.75455">
        <ele>195</ele>
        <time>2024-09-19T12:47:01Z</time>
      </trkpt>
      <trkpt lat="46.08181" lon="4.75461">
        <ele>195</ele>
        <time>2024-09-19T12:47:02Z</time>
      </trkpt>
      <trkpt lat="46.08179" lon="4.75463">
        <ele>194.6</ele>
        <time>2024-09-19T12:47:03Z</time>
      </trkpt>
      <trkpt lat="46.08174" lon="4.75469">
        <ele>194.6</ele>
        <time>2024-09-19T12:47:04Z</time>
      </trkpt>
      <trkpt lat="46.08172" lon="4.75471">
        <ele>194.6</ele>
        <time>2024-09-19T12:47:05Z</time>
      </trkpt>
      <trkpt lat="46.08168" lon="4.75475">
        <ele>195</ele>
        <time>2024-09-19T12:47:06Z</time>
      </trkpt>
      <trkpt lat="46.08165" lon="4.75478">
        <ele>195</ele>
        <time>2024-09-19T12:47:07Z</time>
      </trkpt>
      <trkpt lat="46.08161" lon="4.75482">
        <ele>195</ele>
        <time>2024-09-19T12:47:08Z</time>
      </trkpt>
      <trkpt lat="46.08158" lon="4.75485">
        <ele>195</ele>
        <time>2024-09-19T12:47:09Z</time>
      </trkpt>
      <trkpt lat="46.08154" lon="4.75489">
        <ele>195</ele>
        <time>2024-09-19T12:47:10Z</time>
      </trkpt>
      <trkpt lat="46.0815" lon="4.75493">
        <ele>195</ele>
        <time>2024-09-19T12:47:11Z</time>
      </trkpt>
      <trkpt lat="46.08147" lon="4.75496">
        <ele>194.8</ele>
        <time>2024-09-19T12:47:12Z</time>
      </trkpt>
      <trkpt lat="46.08143" lon="4.755">
        <ele>194.8</ele>
        <time>2024-09-19T12:47:13Z</time>
      </trkpt>
      <trkpt lat="46.08137" lon="4.75506">
        <ele>194.8</ele>
        <time>2024-09-19T12:47:14Z</time>
      </trkpt>
      <trkpt lat="46.08135" lon="4.75507">
        <ele>194.8</ele>
        <time>2024-09-19T12:47:15Z</time>
      </trkpt>
      <trkpt lat="46.0813" lon="4.75513">
        <ele>195</ele>
        <time>2024-09-19T12:47:16Z</time>
      </trkpt>
      <trkpt lat="46.08128" lon="4.75515">
        <ele>195</ele>
        <time>2024-09-19T12:47:17Z</time>
      </trkpt>
      <trkpt lat="46.08122" lon="4.75521">
        <ele>195</ele>
        <time>2024-09-19T12:47:18Z</time>
      </trkpt>
      <trkpt lat="46.0812" lon="4.75523">
        <ele>195</ele>
        <time>2024-09-19T12:47:19Z</time>
      </trkpt>
      <trkpt lat="46.08115" lon="4.75529">
        <ele>195</ele>
        <time>2024-09-19T12:47:20Z</time>
      </trkpt>
      <trkpt lat="46.08113" lon="4.75531">
        <ele>195</ele>
        <time>2024-09-19T12:47:21Z</time>
      </trkpt>
      <trkpt lat="46.08109" lon="4.75535">
        <ele>195</ele>
        <time>2024-09-19T12:47:22Z</time>
      </trkpt>
      <trkpt lat="46.08105" lon="4.75539">
        <ele>195</ele>
        <time>2024-09-19T12:47:23Z</time>
      </trkpt>
      <trkpt lat="46.08101" lon="4.75543">
        <ele>195</ele>
        <time>2024-09-19T12:47:24Z</time>
      </trkpt>
      <trkpt lat="46.08098" lon="4.75548">
        <ele>195</ele>
        <time>2024-09-19T12:47:25Z</time>
      </trkpt>
      <trkpt lat="46.08093" lon="4.75551">
        <ele>195</ele>
        <time>2024-09-19T12:47:26Z</time>
      </trkpt>
      <trkpt lat="46.08088" lon="4.75558">
        <ele>195</ele>
        <time>2024-09-19T12:47:27Z</time>
      </trkpt>
      <trkpt lat="46.08086" lon="4.7556">
        <ele>195.2</ele>
        <time>2024-09-19T12:47:28Z</time>
      </trkpt>
      <trkpt lat="46.08081" lon="4.75565">
        <ele>195.2</ele>
        <time>2024-09-19T12:47:29Z</time>
      </trkpt>
      <trkpt lat="46.0808" lon="4.75567">
        <ele>195</ele>
        <time>2024-09-19T12:47:30Z</time>
      </trkpt>
      <trkpt lat="46.08076" lon="4.75572">
        <ele>195</ele>
        <time>2024-09-19T12:47:31Z</time>
      </trkpt>
      <trkpt lat="46.08072" lon="4.75576">
        <ele>195</ele>
        <time>2024-09-19T12:47:32Z</time>
      </trkpt>
      <trkpt lat="46.08068" lon="4.7558">
        <ele>195</ele>
        <time>2024-09-19T12:47:33Z</time>
      </trkpt>
      <trkpt lat="46.08064" lon="4.75585">
        <ele>195</ele>
        <time>2024-09-19T12:47:34Z</time>
      </trkpt>
      <trkpt lat="46.08058" lon="4.75591">
        <ele>194.8</ele>
        <time>2024-09-19T12:47:35Z</time>
      </trkpt>
      <trkpt lat="46.08056" lon="4.75593">
        <ele>194.8</ele>
        <time>2024-09-19T12:47:36Z</time>
      </trkpt>
      <trkpt lat="46.08052" lon="4.75598">
        <ele>194.8</ele>
        <time>2024-09-19T12:47:37Z</time>
      </trkpt>
      <trkpt lat="46.08048" lon="4.75602">
        <ele>194.8</ele>
        <time>2024-09-19T12:47:38Z</time>
      </trkpt>
      <trkpt lat="46.08043" lon="4.7561">
        <ele>194.8</ele>
        <time>2024-09-19T12:47:39Z</time>
      </trkpt>
      <trkpt lat="46.08041" lon="4.75612">
        <ele>194.8</ele>
        <time>2024-09-19T12:47:40Z</time>
      </trkpt>
      <trkpt lat="46.08036" lon="4.75618">
        <ele>194.8</ele>
        <time>2024-09-19T12:47:41Z</time>
      </trkpt>
      <trkpt lat="46.08033" lon="4.7562">
        <ele>194.8</ele>
        <time>2024-09-19T12:47:42Z</time>
      </trkpt>
      <trkpt lat="46.08028" lon="4.75627">
        <ele>195</ele>
        <time>2024-09-19T12:47:43Z</time>
      </trkpt>
      <trkpt lat="46.08026" lon="4.75629">
        <ele>195</ele>
        <time>2024-09-19T12:47:44Z</time>
      </trkpt>
      <trkpt lat="46.0802" lon="4.75637">
        <ele>195</ele>
        <time>2024-09-19T12:47:45Z</time>
      </trkpt>
      <trkpt lat="46.08018" lon="4.75639">
        <ele>195</ele>
        <time>2024-09-19T12:47:46Z</time>
      </trkpt>
      <trkpt lat="46.08013" lon="4.75647">
        <ele>194.8</ele>
        <time>2024-09-19T12:47:47Z</time>
      </trkpt>
      <trkpt lat="46.08012" lon="4.7565">
        <ele>195</ele>
        <time>2024-09-19T12:47:48Z</time>
      </trkpt>
      <trkpt lat="46.08006" lon="4.75655">
        <ele>195</ele>
        <time>2024-09-19T12:47:49Z</time>
      </trkpt>
      <trkpt lat="46.08004" lon="4.75657">
        <ele>195</ele>
        <time>2024-09-19T12:47:50Z</time>
      </trkpt>
      <trkpt lat="46.07998" lon="4.75663">
        <ele>195</ele>
        <time>2024-09-19T12:47:51Z</time>
      </trkpt>
      <trkpt lat="46.07996" lon="4.75665">
        <ele>195</ele>
        <time>2024-09-19T12:47:52Z</time>
      </trkpt>
      <trkpt lat="46.07991" lon="4.7567">
        <ele>195</ele>
        <time>2024-09-19T12:47:53Z</time>
      </trkpt>
      <trkpt lat="46.07989" lon="4.75672">
        <ele>195</ele>
        <time>2024-09-19T12:47:54Z</time>
      </trkpt>
      <trkpt lat="46.07985" lon="4.75676">
        <ele>195.4</ele>
        <time>2024-09-19T12:47:55Z</time>
      </trkpt>
      <trkpt lat="46.07981" lon="4.7568">
        <ele>195.2</ele>
        <time>2024-09-19T12:47:56Z</time>
      </trkpt>
      <trkpt lat="46.07975" lon="4.75685">
        <ele>195.2</ele>
        <time>2024-09-19T12:47:57Z</time>
      </trkpt>
      <trkpt lat="46.07973" lon="4.75687">
        <ele>195.2</ele>
        <time>2024-09-19T12:47:58Z</time>
      </trkpt>
      <trkpt lat="46.07967" lon="4.75693">
        <ele>195.2</ele>
        <time>2024-09-19T12:47:59Z</time>
      </trkpt>
      <trkpt lat="46.07965" lon="4.75695">
        <ele>195.4</ele>
        <time>2024-09-19T12:48:00Z</time>
      </trkpt>
      <trkpt lat="46.07959" lon="4.75701">
        <ele>195.6</ele>
        <time>2024-09-19T12:48:01Z</time>
      </trkpt>
      <trkpt lat="46.07957" lon="4.75703">
        <ele>195.6</ele>
        <time>2024-09-19T12:48:02Z</time>
      </trkpt>
      <trkpt lat="46.07951" lon="4.7571">
        <ele>195.6</ele>
        <time>2024-09-19T12:48:03Z</time>
      </trkpt>
      <trkpt lat="46.07949" lon="4.75712">
        <ele>195.6</ele>
        <time>2024-09-19T12:48:04Z</time>
      </trkpt>
      <trkpt lat="46.07943" lon="4.75718">
        <ele>195.4</ele>
        <time>2024-09-19T12:48:05Z</time>
      </trkpt>
      <trkpt lat="46.07941" lon="4.75719">
        <ele>195.4</ele>
        <time>2024-09-19T12:48:06Z</time>
      </trkpt>
      <trkpt lat="46.07937" lon="4.75723">
        <ele>195.4</ele>
        <time>2024-09-19T12:48:07Z</time>
      </trkpt>
      <trkpt lat="46.07933" lon="4.75727">
        <ele>195.4</ele>
        <time>2024-09-19T12:48:08Z</time>
      </trkpt>
      <trkpt lat="46.07928" lon="4.75732">
        <ele>195.8</ele>
        <time>2024-09-19T12:48:09Z</time>
      </trkpt>
      <trkpt lat="46.07924" lon="4.75736">
        <ele>195.8</ele>
        <time>2024-09-19T12:48:10Z</time>
      </trkpt>
      <trkpt lat="46.07918" lon="4.75741">
        <ele>195.8</ele>
        <time>2024-09-19T12:48:11Z</time>
      </trkpt>
      <trkpt lat="46.07916" lon="4.75743">
        <ele>195.8</ele>
        <time>2024-09-19T12:48:12Z</time>
      </trkpt>
      <trkpt lat="46.07909" lon="4.75749">
        <ele>195.8</ele>
        <time>2024-09-19T12:48:13Z</time>
      </trkpt>
      <trkpt lat="46.07907" lon="4.75751">
        <ele>195.8</ele>
        <time>2024-09-19T12:48:14Z</time>
      </trkpt>
      <trkpt lat="46.079" lon="4.75757">
        <ele>195.8</ele>
        <time>2024-09-19T12:48:15Z</time>
      </trkpt>
      <trkpt lat="46.07898" lon="4.75759">
        <ele>195.8</ele>
        <time>2024-09-19T12:48:16Z</time>
      </trkpt>
      <trkpt lat="46.07893" lon="4.75763">
        <ele>195.8</ele>
        <time>2024-09-19T12:48:17Z</time>
      </trkpt>
      <trkpt lat="46.07889" lon="4.75767">
        <ele>195.8</ele>
        <time>2024-09-19T12:48:18Z</time>
      </trkpt>
      <trkpt lat="46.07882" lon="4.75774">
        <ele>195.8</ele>
        <time>2024-09-19T12:48:19Z</time>
      </trkpt>
      <trkpt lat="46.0788" lon="4.75776">
        <ele>195.6</ele>
        <time>2024-09-19T12:48:20Z</time>
      </trkpt>
      <trkpt lat="46.07874" lon="4.75783">
        <ele>195.6</ele>
        <time>2024-09-19T12:48:21Z</time>
      </trkpt>
      <trkpt lat="46.07872" lon="4.75785">
        <ele>195.6</ele>
        <time>2024-09-19T12:48:22Z</time>
      </trkpt>
      <trkpt lat="46.07868" lon="4.75789">
        <ele>195.6</ele>
        <time>2024-09-19T12:48:23Z</time>
      </trkpt>
      <trkpt lat="46.07864" lon="4.75793">
        <ele>195.8</ele>
        <time>2024-09-19T12:48:24Z</time>
      </trkpt>
      <trkpt lat="46.0786" lon="4.75797">
        <ele>195.8</ele>
        <time>2024-09-19T12:48:25Z</time>
      </trkpt>
      <trkpt lat="46.07856" lon="4.75801">
        <ele>195.8</ele>
        <time>2024-09-19T12:48:26Z</time>
      </trkpt>
      <trkpt lat="46.07851" lon="4.75805">
        <ele>195.8</ele>
        <time>2024-09-19T12:48:27Z</time>
      </trkpt>
      <trkpt lat="46.07846" lon="4.75811">
        <ele>195.8</ele>
        <time>2024-09-19T12:48:28Z</time>
      </trkpt>
      <trkpt lat="46.07844" lon="4.75813">
        <ele>195.8</ele>
        <time>2024-09-19T12:48:29Z</time>
      </trkpt>
      <trkpt lat="46.07839" lon="4.75819">
        <ele>195.8</ele>
        <time>2024-09-19T12:48:30Z</time>
      </trkpt>
      <trkpt lat="46.07837" lon="4.7582">
        <ele>195.8</ele>
        <time>2024-09-19T12:48:31Z</time>
      </trkpt>
      <trkpt lat="46.07831" lon="4.75826">
        <ele>195.8</ele>
        <time>2024-09-19T12:48:32Z</time>
      </trkpt>
      <trkpt lat="46.07829" lon="4.75828">
        <ele>195.6</ele>
        <time>2024-09-19T12:48:33Z</time>
      </trkpt>
      <trkpt lat="46.07826" lon="4.75833">
        <ele>195.6</ele>
        <time>2024-09-19T12:48:34Z</time>
      </trkpt>
      <trkpt lat="46.07822" lon="4.75837">
        <ele>195.6</ele>
        <time>2024-09-19T12:48:35Z</time>
      </trkpt>
      <trkpt lat="46.07817" lon="4.75844">
        <ele>195.8</ele>
        <time>2024-09-19T12:48:36Z</time>
      </trkpt>
      <trkpt lat="46.07815" lon="4.75846">
        <ele>195.8</ele>
        <time>2024-09-19T12:48:37Z</time>
      </trkpt>
      <trkpt lat="46.07811" lon="4.7585">
        <ele>195.8</ele>
        <time>2024-09-19T12:48:38Z</time>
      </trkpt>
      <trkpt lat="46.07807" lon="4.75854">
        <ele>195.8</ele>
        <time>2024-09-19T12:48:39Z</time>
      </trkpt>
      <trkpt lat="46.07801" lon="4.7586">
        <ele>196</ele>
        <time>2024-09-19T12:48:40Z</time>
      </trkpt>
      <trkpt lat="46.07799" lon="4.75862">
        <ele>196</ele>
        <time>2024-09-19T12:48:41Z</time>
      </trkpt>
      <trkpt lat="46.07793" lon="4.75867">
        <ele>195.8</ele>
        <time>2024-09-19T12:48:42Z</time>
      </trkpt>
      <trkpt lat="46.07791" lon="4.75869">
        <ele>195.8</ele>
        <time>2024-09-19T12:48:43Z</time>
      </trkpt>
      <trkpt lat="46.07785" lon="4.75875">
        <ele>195.8</ele>
        <time>2024-09-19T12:48:44Z</time>
      </trkpt>
      <trkpt lat="46.07783" lon="4.75877">
        <ele>195.8</ele>
        <time>2024-09-19T12:48:45Z</time>
      </trkpt>
      <trkpt lat="46.07776" lon="4.75882">
        <ele>196</ele>
        <time>2024-09-19T12:48:46Z</time>
      </trkpt>
      <trkpt lat="46.07774" lon="4.75884">
        <ele>196</ele>
        <time>2024-09-19T12:48:47Z</time>
      </trkpt>
      <trkpt lat="46.0777" lon="4.75888">
        <ele>196</ele>
        <time>2024-09-19T12:48:48Z</time>
      </trkpt>
      <trkpt lat="46.07764" lon="4.75893">
        <ele>195.8</ele>
        <time>2024-09-19T12:48:49Z</time>
      </trkpt>
      <trkpt lat="46.07762" lon="4.75895">
        <ele>195.8</ele>
        <time>2024-09-19T12:48:50Z</time>
      </trkpt>
      <trkpt lat="46.07758" lon="4.75899">
        <ele>195.8</ele>
        <time>2024-09-19T12:48:51Z</time>
      </trkpt>
      <trkpt lat="46.07754" lon="4.75902">
        <ele>195.8</ele>
        <time>2024-09-19T12:48:52Z</time>
      </trkpt>
      <trkpt lat="46.07749" lon="4.75906">
        <ele>195.8</ele>
        <time>2024-09-19T12:48:53Z</time>
      </trkpt>
      <trkpt lat="46.07745" lon="4.75909">
        <ele>196</ele>
        <time>2024-09-19T12:48:54Z</time>
      </trkpt>
      <trkpt lat="46.07739" lon="4.75914">
        <ele>196</ele>
        <time>2024-09-19T12:48:55Z</time>
      </trkpt>
      <trkpt lat="46.07737" lon="4.75916">
        <ele>196</ele>
        <time>2024-09-19T12:48:56Z</time>
      </trkpt>
      <trkpt lat="46.0773" lon="4.75921">
        <ele>196</ele>
        <time>2024-09-19T12:48:57Z</time>
      </trkpt>
      <trkpt lat="46.07728" lon="4.75923">
        <ele>196</ele>
        <time>2024-09-19T12:48:58Z</time>
      </trkpt>
      <trkpt lat="46.07721" lon="4.75928">
        <ele>196</ele>
        <time>2024-09-19T12:48:59Z</time>
      </trkpt>
      <trkpt lat="46.07719" lon="4.7593">
        <ele>195.8</ele>
        <time>2024-09-19T12:49:00Z</time>
      </trkpt>
      <trkpt lat="46.07712" lon="4.75936">
        <ele>195.8</ele>
        <time>2024-09-19T12:49:01Z</time>
      </trkpt>
      <trkpt lat="46.0771" lon="4.75938">
        <ele>195.8</ele>
        <time>2024-09-19T12:49:02Z</time>
      </trkpt>
      <trkpt lat="46.07703" lon="4.75943">
        <ele>195.8</ele>
        <time>2024-09-19T12:49:03Z</time>
      </trkpt>
      <trkpt lat="46.07701" lon="4.75945">
        <ele>196</ele>
        <time>2024-09-19T12:49:04Z</time>
      </trkpt>
      <trkpt lat="46.07696" lon="4.75948">
        <ele>196</ele>
        <time>2024-09-19T12:49:05Z</time>
      </trkpt>
      <trkpt lat="46.0769" lon="4.75952">
        <ele>196</ele>
        <time>2024-09-19T12:49:06Z</time>
      </trkpt>
      <trkpt lat="46.07687" lon="4.75954">
        <ele>196</ele>
        <time>2024-09-19T12:49:07Z</time>
      </trkpt>
      <trkpt lat="46.0768" lon="4.75959">
        <ele>196</ele>
        <time>2024-09-19T12:49:08Z</time>
      </trkpt>
      <trkpt lat="46.07678" lon="4.75961">
        <ele>196</ele>
        <time>2024-09-19T12:49:09Z</time>
      </trkpt>
      <trkpt lat="46.07671" lon="4.75966">
        <ele>196</ele>
        <time>2024-09-19T12:49:10Z</time>
      </trkpt>
      <trkpt lat="46.07668" lon="4.75967">
        <ele>196</ele>
        <time>2024-09-19T12:49:11Z</time>
      </trkpt>
      <trkpt lat="46.07661" lon="4.75972">
        <ele>196</ele>
        <time>2024-09-19T12:49:12Z</time>
      </trkpt>
      <trkpt lat="46.07659" lon="4.75974">
        <ele>196</ele>
        <time>2024-09-19T12:49:13Z</time>
      </trkpt>
      <trkpt lat="46.07654" lon="4.75977">
        <ele>195.8</ele>
        <time>2024-09-19T12:49:14Z</time>
      </trkpt>
      <trkpt lat="46.07649" lon="4.7598">
        <ele>195.8</ele>
        <time>2024-09-19T12:49:15Z</time>
      </trkpt>
      <trkpt lat="46.07644" lon="4.75984">
        <ele>195.8</ele>
        <time>2024-09-19T12:49:16Z</time>
      </trkpt>
      <trkpt lat="46.0764" lon="4.75988">
        <ele>195.8</ele>
        <time>2024-09-19T12:49:17Z</time>
      </trkpt>
      <trkpt lat="46.07636" lon="4.75992">
        <ele>196.2</ele>
        <time>2024-09-19T12:49:18Z</time>
      </trkpt>
      <trkpt lat="46.0763" lon="4.75998">
        <ele>196.2</ele>
        <time>2024-09-19T12:49:19Z</time>
      </trkpt>
      <trkpt lat="46.07628" lon="4.76">
        <ele>196.2</ele>
        <time>2024-09-19T12:49:20Z</time>
      </trkpt>
      <trkpt lat="46.07621" lon="4.76003">
        <ele>196.2</ele>
        <time>2024-09-19T12:49:21Z</time>
      </trkpt>
      <trkpt lat="46.07619" lon="4.76004">
        <ele>196.2</ele>
        <time>2024-09-19T12:49:22Z</time>
      </trkpt>
      <trkpt lat="46.07613" lon="4.76007">
        <ele>196.8</ele>
        <time>2024-09-19T12:49:23Z</time>
      </trkpt>
      <trkpt lat="46.07611" lon="4.76009">
        <ele>196.8</ele>
        <time>2024-09-19T12:49:24Z</time>
      </trkpt>
      <trkpt lat="46.07606" lon="4.76012">
        <ele>196.8</ele>
        <time>2024-09-19T12:49:25Z</time>
      </trkpt>
      <trkpt lat="46.07604" lon="4.76013">
        <ele>196.8</ele>
        <time>2024-09-19T12:49:26Z</time>
      </trkpt>
      <trkpt lat="46.07599" lon="4.76018">
        <ele>197</ele>
        <time>2024-09-19T12:49:27Z</time>
      </trkpt>
      <trkpt lat="46.07598" lon="4.7602">
        <ele>197</ele>
        <time>2024-09-19T12:49:28Z</time>
      </trkpt>
      <trkpt lat="46.07593" lon="4.76024">
        <ele>197</ele>
        <time>2024-09-19T12:49:29Z</time>
      </trkpt>
      <trkpt lat="46.07591" lon="4.76025">
        <ele>197</ele>
        <time>2024-09-19T12:49:30Z</time>
      </trkpt>
      <trkpt lat="46.07588" lon="4.76028">
        <ele>197.2</ele>
        <time>2024-09-19T12:49:31Z</time>
      </trkpt>
      <trkpt lat="46.07585" lon="4.76031">
        <ele>197.2</ele>
        <time>2024-09-19T12:49:32Z</time>
      </trkpt>
      <trkpt lat="46.07582" lon="4.76033">
        <ele>197.2</ele>
        <time>2024-09-19T12:49:33Z</time>
      </trkpt>
      <trkpt lat="46.07577" lon="4.76035">
        <ele>197.2</ele>
        <time>2024-09-19T12:49:34Z</time>
      </trkpt>
      <trkpt lat="46.07573" lon="4.76037">
        <ele>197.2</ele>
        <time>2024-09-19T12:49:35Z</time>
      </trkpt>
      <trkpt lat="46.07566" lon="4.76041">
        <ele>197.4</ele>
        <time>2024-09-19T12:49:36Z</time>
      </trkpt>
      <trkpt lat="46.07564" lon="4.76042">
        <ele>197.4</ele>
        <time>2024-09-19T12:49:37Z</time>
      </trkpt>
      <trkpt lat="46.07557" lon="4.76046">
        <ele>197.4</ele>
        <time>2024-09-19T12:49:38Z</time>
      </trkpt>
      <trkpt lat="46.07554" lon="4.76047">
        <ele>197.4</ele>
        <time>2024-09-19T12:49:39Z</time>
      </trkpt>
      <trkpt lat="46.07547" lon="4.76051">
        <ele>197.2</ele>
        <time>2024-09-19T12:49:40Z</time>
      </trkpt>
      <trkpt lat="46.07544" lon="4.76052">
        <ele>197.6</ele>
        <time>2024-09-19T12:49:41Z</time>
      </trkpt>
      <trkpt lat="46.07537" lon="4.76055">
        <ele>197.6</ele>
        <time>2024-09-19T12:49:42Z</time>
      </trkpt>
      <trkpt lat="46.07535" lon="4.76056">
        <ele>197.6</ele>
        <time>2024-09-19T12:49:43Z</time>
      </trkpt>
      <trkpt lat="46.0753" lon="4.76058">
        <ele>197.4</ele>
        <time>2024-09-19T12:49:44Z</time>
      </trkpt>
      <trkpt lat="46.07523" lon="4.76061">
        <ele>197.4</ele>
        <time>2024-09-19T12:49:45Z</time>
      </trkpt>
      <trkpt lat="46.07521" lon="4.76062">
        <ele>197.4</ele>
        <time>2024-09-19T12:49:46Z</time>
      </trkpt>
      <trkpt lat="46.07516" lon="4.76063">
        <ele>197.4</ele>
        <time>2024-09-19T12:49:47Z</time>
      </trkpt>
      <trkpt lat="46.07509" lon="4.76066">
        <ele>197.4</ele>
        <time>2024-09-19T12:49:48Z</time>
      </trkpt>
      <trkpt lat="46.07507" lon="4.76067">
        <ele>197.4</ele>
        <time>2024-09-19T12:49:49Z</time>
      </trkpt>
      <trkpt lat="46.075" lon="4.7607">
        <ele>197.4</ele>
        <time>2024-09-19T12:49:50Z</time>
      </trkpt>
      <trkpt lat="46.07498" lon="4.76071">
        <ele>197.4</ele>
        <time>2024-09-19T12:49:51Z</time>
      </trkpt>
      <trkpt lat="46.07493" lon="4.76072">
        <ele>197.4</ele>
        <time>2024-09-19T12:49:52Z</time>
      </trkpt>
      <trkpt lat="46.07488" lon="4.76075">
        <ele>197.4</ele>
        <time>2024-09-19T12:49:53Z</time>
      </trkpt>
      <trkpt lat="46.07483" lon="4.76076">
        <ele>197.4</ele>
        <time>2024-09-19T12:49:54Z</time>
      </trkpt>
      <trkpt lat="46.07478" lon="4.76078">
        <ele>197.8</ele>
        <time>2024-09-19T12:49:55Z</time>
      </trkpt>
      <trkpt lat="46.07473" lon="4.7608">
        <ele>197.8</ele>
        <time>2024-09-19T12:49:56Z</time>
      </trkpt>
      <trkpt lat="46.07468" lon="4.76082">
        <ele>197.8</ele>
        <time>2024-09-19T12:49:57Z</time>
      </trkpt>
      <trkpt lat="46.07463" lon="4.76084">
        <ele>197.8</ele>
        <time>2024-09-19T12:49:58Z</time>
      </trkpt>
      <trkpt lat="46.07458" lon="4.76086">
        <ele>197.8</ele>
        <time>2024-09-19T12:49:59Z</time>
      </trkpt>
      <trkpt lat="46.07453" lon="4.76088">
        <ele>197.8</ele>
        <time>2024-09-19T12:50:00Z</time>
      </trkpt>
      <trkpt lat="46.07446" lon="4.7609">
        <ele>197.8</ele>
        <time>2024-09-19T12:50:01Z</time>
      </trkpt>
      <trkpt lat="46.07443" lon="4.76091">
        <ele>197.8</ele>
        <time>2024-09-19T12:50:02Z</time>
      </trkpt>
      <trkpt lat="46.07438" lon="4.76093">
        <ele>197.8</ele>
        <time>2024-09-19T12:50:03Z</time>
      </trkpt>
      <trkpt lat="46.07434" lon="4.76094">
        <ele>197.8</ele>
        <time>2024-09-19T12:50:04Z</time>
      </trkpt>
      <trkpt lat="46.07429" lon="4.76096">
        <ele>197.8</ele>
        <time>2024-09-19T12:50:05Z</time>
      </trkpt>
      <trkpt lat="46.07425" lon="4.76098">
        <ele>197.8</ele>
        <time>2024-09-19T12:50:06Z</time>
      </trkpt>
      <trkpt lat="46.0742" lon="4.761">
        <ele>197.8</ele>
        <time>2024-09-19T12:50:07Z</time>
      </trkpt>
      <trkpt lat="46.07414" lon="4.76103">
        <ele>198</ele>
        <time>2024-09-19T12:50:08Z</time>
      </trkpt>
      <trkpt lat="46.07412" lon="4.76104">
        <ele>198</ele>
        <time>2024-09-19T12:50:09Z</time>
      </trkpt>
      <trkpt lat="46.07405" lon="4.76107">
        <ele>198</ele>
        <time>2024-09-19T12:50:10Z</time>
      </trkpt>
      <trkpt lat="46.07403" lon="4.76108">
        <ele>198</ele>
        <time>2024-09-19T12:50:11Z</time>
      </trkpt>
      <trkpt lat="46.07397" lon="4.7611">
        <ele>197.8</ele>
        <time>2024-09-19T12:50:12Z</time>
      </trkpt>
      <trkpt lat="46.07395" lon="4.76111">
        <ele>197.8</ele>
        <time>2024-09-19T12:50:13Z</time>
      </trkpt>
      <trkpt lat="46.07389" lon="4.76113">
        <ele>197.8</ele>
        <time>2024-09-19T12:50:14Z</time>
      </trkpt>
      <trkpt lat="46.07387" lon="4.76114">
        <ele>197.8</ele>
        <time>2024-09-19T12:50:15Z</time>
      </trkpt>
      <trkpt lat="46.0738" lon="4.76116">
        <ele>197.6</ele>
        <time>2024-09-19T12:50:16Z</time>
      </trkpt>
      <trkpt lat="46.07378" lon="4.76117">
        <ele>197.6</ele>
        <time>2024-09-19T12:50:17Z</time>
      </trkpt>
      <trkpt lat="46.07371" lon="4.76121">
        <ele>197.6</ele>
        <time>2024-09-19T12:50:18Z</time>
      </trkpt>
      <trkpt lat="46.07369" lon="4.76122">
        <ele>197.6</ele>
        <time>2024-09-19T12:50:19Z</time>
      </trkpt>
      <trkpt lat="46.07365" lon="4.76123">
        <ele>197.6</ele>
        <time>2024-09-19T12:50:20Z</time>
      </trkpt>
      <trkpt lat="46.07358" lon="4.76125">
        <ele>198</ele>
        <time>2024-09-19T12:50:21Z</time>
      </trkpt>
      <trkpt lat="46.07355" lon="4.76126">
        <ele>198</ele>
        <time>2024-09-19T12:50:22Z</time>
      </trkpt>
      <trkpt lat="46.07348" lon="4.76128">
        <ele>198</ele>
        <time>2024-09-19T12:50:23Z</time>
      </trkpt>
      <trkpt lat="46.07345" lon="4.76129">
        <ele>198</ele>
        <time>2024-09-19T12:50:24Z</time>
      </trkpt>
      <trkpt lat="46.0734" lon="4.76131">
        <ele>197.8</ele>
        <time>2024-09-19T12:50:25Z</time>
      </trkpt>
      <trkpt lat="46.07336" lon="4.76133">
        <ele>197.6</ele>
        <time>2024-09-19T12:50:26Z</time>
      </trkpt>
      <trkpt lat="46.07331" lon="4.76135">
        <ele>197.6</ele>
        <time>2024-09-19T12:50:27Z</time>
      </trkpt>
      <trkpt lat="46.07324" lon="4.76137">
        <ele>197.6</ele>
        <time>2024-09-19T12:50:28Z</time>
      </trkpt>
      <trkpt lat="46.07321" lon="4.76138">
        <ele>197.6</ele>
        <time>2024-09-19T12:50:29Z</time>
      </trkpt>
      <trkpt lat="46.07316" lon="4.7614">
        <ele>197.8</ele>
        <time>2024-09-19T12:50:30Z</time>
      </trkpt>
      <trkpt lat="46.07312" lon="4.76142">
        <ele>197.8</ele>
        <time>2024-09-19T12:50:31Z</time>
      </trkpt>
      <trkpt lat="46.07304" lon="4.76144">
        <ele>197.8</ele>
        <time>2024-09-19T12:50:32Z</time>
      </trkpt>
      <trkpt lat="46.07302" lon="4.76145">
        <ele>197.8</ele>
        <time>2024-09-19T12:50:33Z</time>
      </trkpt>
      <trkpt lat="46.07295" lon="4.76148">
        <ele>197.6</ele>
        <time>2024-09-19T12:50:34Z</time>
      </trkpt>
      <trkpt lat="46.07292" lon="4.76149">
        <ele>197.6</ele>
        <time>2024-09-19T12:50:35Z</time>
      </trkpt>
      <trkpt lat="46.07285" lon="4.76152">
        <ele>197.6</ele>
        <time>2024-09-19T12:50:36Z</time>
      </trkpt>
      <trkpt lat="46.07283" lon="4.76153">
        <ele>197.6</ele>
        <time>2024-09-19T12:50:37Z</time>
      </trkpt>
      <trkpt lat="46.07278" lon="4.76155">
        <ele>197.6</ele>
        <time>2024-09-19T12:50:38Z</time>
      </trkpt>
      <trkpt lat="46.07273" lon="4.76157">
        <ele>197.8</ele>
        <time>2024-09-19T12:50:39Z</time>
      </trkpt>
      <trkpt lat="46.07267" lon="4.76159">
        <ele>197.8</ele>
        <time>2024-09-19T12:50:40Z</time>
      </trkpt>
      <trkpt lat="46.07262" lon="4.76161">
        <ele>197.8</ele>
        <time>2024-09-19T12:50:41Z</time>
      </trkpt>
      <trkpt lat="46.07257" lon="4.76163">
        <ele>197.4</ele>
        <time>2024-09-19T12:50:42Z</time>
      </trkpt>
      <trkpt lat="46.07249" lon="4.76167">
        <ele>197.2</ele>
        <time>2024-09-19T12:50:43Z</time>
      </trkpt>
      <trkpt lat="46.07247" lon="4.76169">
        <ele>197.2</ele>
        <time>2024-09-19T12:50:44Z</time>
      </trkpt>
      <trkpt lat="46.07242" lon="4.76171">
        <ele>197.2</ele>
        <time>2024-09-19T12:50:45Z</time>
      </trkpt>
      <trkpt lat="46.07237" lon="4.76173">
        <ele>197.2</ele>
        <time>2024-09-19T12:50:46Z</time>
      </trkpt>
      <trkpt lat="46.07229" lon="4.76177">
        <ele>197.2</ele>
        <time>2024-09-19T12:50:47Z</time>
      </trkpt>
      <trkpt lat="46.07226" lon="4.76178">
        <ele>197.4</ele>
        <time>2024-09-19T12:50:48Z</time>
      </trkpt>
      <trkpt lat="46.07221" lon="4.7618">
        <ele>197.4</ele>
        <time>2024-09-19T12:50:49Z</time>
      </trkpt>
      <trkpt lat="46.07216" lon="4.76183">
        <ele>197.4</ele>
        <time>2024-09-19T12:50:50Z</time>
      </trkpt>
      <trkpt lat="46.07209" lon="4.76186">
        <ele>197.4</ele>
        <time>2024-09-19T12:50:51Z</time>
      </trkpt>
      <trkpt lat="46.07206" lon="4.76187">
        <ele>197.2</ele>
        <time>2024-09-19T12:50:52Z</time>
      </trkpt>
      <trkpt lat="46.07199" lon="4.76191">
        <ele>197.2</ele>
        <time>2024-09-19T12:50:53Z</time>
      </trkpt>
      <trkpt lat="46.07196" lon="4.76192">
        <ele>197.2</ele>
        <time>2024-09-19T12:50:54Z</time>
      </trkpt>
      <trkpt lat="46.07191" lon="4.76195">
        <ele>197.2</ele>
        <time>2024-09-19T12:50:55Z</time>
      </trkpt>
      <trkpt lat="46.07186" lon="4.76198">
        <ele>197</ele>
        <time>2024-09-19T12:50:56Z</time>
      </trkpt>
      <trkpt lat="46.07179" lon="4.76202">
        <ele>197</ele>
        <time>2024-09-19T12:50:57Z</time>
      </trkpt>
      <trkpt lat="46.07176" lon="4.76203">
        <ele>197</ele>
        <time>2024-09-19T12:50:58Z</time>
      </trkpt>
      <trkpt lat="46.07169" lon="4.76207">
        <ele>197</ele>
        <time>2024-09-19T12:50:59Z</time>
      </trkpt>
      <trkpt lat="46.07167" lon="4.76208">
        <ele>197</ele>
        <time>2024-09-19T12:51:00Z</time>
      </trkpt>
      <trkpt lat="46.07159" lon="4.76213">
        <ele>197</ele>
        <time>2024-09-19T12:51:01Z</time>
      </trkpt>
      <trkpt lat="46.07157" lon="4.76214">
        <ele>197</ele>
        <time>2024-09-19T12:51:02Z</time>
      </trkpt>
      <trkpt lat="46.0715" lon="4.76219">
        <ele>197</ele>
        <time>2024-09-19T12:51:03Z</time>
      </trkpt>
      <trkpt lat="46.07147" lon="4.7622">
        <ele>197</ele>
        <time>2024-09-19T12:51:04Z</time>
      </trkpt>
      <trkpt lat="46.0714" lon="4.76224">
        <ele>197</ele>
        <time>2024-09-19T12:51:05Z</time>
      </trkpt>
      <trkpt lat="46.07137" lon="4.76226">
        <ele>196.8</ele>
        <time>2024-09-19T12:51:06Z</time>
      </trkpt>
      <trkpt lat="46.0713" lon="4.7623">
        <ele>196.8</ele>
        <time>2024-09-19T12:51:07Z</time>
      </trkpt>
      <trkpt lat="46.07127" lon="4.76231">
        <ele>196.8</ele>
        <time>2024-09-19T12:51:08Z</time>
      </trkpt>
      <trkpt lat="46.0712" lon="4.76234">
        <ele>196.8</ele>
        <time>2024-09-19T12:51:09Z</time>
      </trkpt>
      <trkpt lat="46.07118" lon="4.76235">
        <ele>196.8</ele>
        <time>2024-09-19T12:51:10Z</time>
      </trkpt>
      <trkpt lat="46.07113" lon="4.76238">
        <ele>197</ele>
        <time>2024-09-19T12:51:11Z</time>
      </trkpt>
      <trkpt lat="46.07108" lon="4.7624">
        <ele>197</ele>
        <time>2024-09-19T12:51:12Z</time>
      </trkpt>
      <trkpt lat="46.07103" lon="4.76243">
        <ele>197</ele>
        <time>2024-09-19T12:51:13Z</time>
      </trkpt>
      <trkpt lat="46.07098" lon="4.76245">
        <ele>196.8</ele>
        <time>2024-09-19T12:51:14Z</time>
      </trkpt>
      <trkpt lat="46.07093" lon="4.76247">
        <ele>196.8</ele>
        <time>2024-09-19T12:51:15Z</time>
      </trkpt>
      <trkpt lat="46.07087" lon="4.76249">
        <ele>196.8</ele>
        <time>2024-09-19T12:51:16Z</time>
      </trkpt>
      <trkpt lat="46.07079" lon="4.76253">
        <ele>196.8</ele>
        <time>2024-09-19T12:51:17Z</time>
      </trkpt>
      <trkpt lat="46.07077" lon="4.76254">
        <ele>196.8</ele>
        <time>2024-09-19T12:51:18Z</time>
      </trkpt>
      <trkpt lat="46.07069" lon="4.76258">
        <ele>196.6</ele>
        <time>2024-09-19T12:51:19Z</time>
      </trkpt>
      <trkpt lat="46.07066" lon="4.76259">
        <ele>196.6</ele>
        <time>2024-09-19T12:51:20Z</time>
      </trkpt>
      <trkpt lat="46.07058" lon="4.76263">
        <ele>196.6</ele>
        <time>2024-09-19T12:51:21Z</time>
      </trkpt>
      <trkpt lat="46.07056" lon="4.76264">
        <ele>196.6</ele>
        <time>2024-09-19T12:51:22Z</time>
      </trkpt>
      <trkpt lat="46.0705" lon="4.76267">
        <ele>196.6</ele>
        <time>2024-09-19T12:51:23Z</time>
      </trkpt>
      <trkpt lat="46.07045" lon="4.76269">
        <ele>196.4</ele>
        <time>2024-09-19T12:51:24Z</time>
      </trkpt>
      <trkpt lat="46.0704" lon="4.76271">
        <ele>196.4</ele>
        <time>2024-09-19T12:51:25Z</time>
      </trkpt>
      <trkpt lat="46.07035" lon="4.76274">
        <ele>196.4</ele>
        <time>2024-09-19T12:51:26Z</time>
      </trkpt>
      <trkpt lat="46.0703" lon="4.76276">
        <ele>196.4</ele>
        <time>2024-09-19T12:51:27Z</time>
      </trkpt>
      <trkpt lat="46.07025" lon="4.76279">
        <ele>196.6</ele>
        <time>2024-09-19T12:51:28Z</time>
      </trkpt>
      <trkpt lat="46.0702" lon="4.76281">
        <ele>196.8</ele>
        <time>2024-09-19T12:51:29Z</time>
      </trkpt>
      <trkpt lat="46.07016" lon="4.76284">
        <ele>196.8</ele>
        <time>2024-09-19T12:51:30Z</time>
      </trkpt>
      <trkpt lat="46.07009" lon="4.76287">
        <ele>196.8</ele>
        <time>2024-09-19T12:51:31Z</time>
      </trkpt>
      <trkpt lat="46.07006" lon="4.76289">
        <ele>196.8</ele>
        <time>2024-09-19T12:51:32Z</time>
      </trkpt>
      <trkpt lat="46.06999" lon="4.76293">
        <ele>196.8</ele>
        <time>2024-09-19T12:51:33Z</time>
      </trkpt>
      <trkpt lat="46.06997" lon="4.76294">
        <ele>196.8</ele>
        <time>2024-09-19T12:51:34Z</time>
      </trkpt>
      <trkpt lat="46.06989" lon="4.76299">
        <ele>196.8</ele>
        <time>2024-09-19T12:51:35Z</time>
      </trkpt>
      <trkpt lat="46.06987" lon="4.763">
        <ele>196.8</ele>
        <time>2024-09-19T12:51:36Z</time>
      </trkpt>
      <trkpt lat="46.0698" lon="4.76304">
        <ele>196.6</ele>
        <time>2024-09-19T12:51:37Z</time>
      </trkpt>
      <trkpt lat="46.06977" lon="4.76305">
        <ele>196.6</ele>
        <time>2024-09-19T12:51:38Z</time>
      </trkpt>
      <trkpt lat="46.0697" lon="4.76308">
        <ele>196.6</ele>
        <time>2024-09-19T12:51:39Z</time>
      </trkpt>
      <trkpt lat="46.06968" lon="4.76309">
        <ele>196.6</ele>
        <time>2024-09-19T12:51:40Z</time>
      </trkpt>
      <trkpt lat="46.06963" lon="4.76311">
        <ele>196.8</ele>
        <time>2024-09-19T12:51:41Z</time>
      </trkpt>
      <trkpt lat="46.06959" lon="4.76312">
        <ele>196.8</ele>
        <time>2024-09-19T12:51:42Z</time>
      </trkpt>
      <trkpt lat="46.06954" lon="4.76314">
        <ele>197</ele>
        <time>2024-09-19T12:51:43Z</time>
      </trkpt>
      <trkpt lat="46.0695" lon="4.76315">
        <ele>197</ele>
        <time>2024-09-19T12:51:44Z</time>
      </trkpt>
      <trkpt lat="46.06943" lon="4.76318">
        <ele>197</ele>
        <time>2024-09-19T12:51:45Z</time>
      </trkpt>
      <trkpt lat="46.0694" lon="4.76319">
        <ele>197</ele>
        <time>2024-09-19T12:51:46Z</time>
      </trkpt>
      <trkpt lat="46.06935" lon="4.7632">
        <ele>196.8</ele>
        <time>2024-09-19T12:51:47Z</time>
      </trkpt>
      <trkpt lat="46.06928" lon="4.76322">
        <ele>196.8</ele>
        <time>2024-09-19T12:51:48Z</time>
      </trkpt>
      <trkpt lat="46.06925" lon="4.76323">
        <ele>196.8</ele>
        <time>2024-09-19T12:51:49Z</time>
      </trkpt>
      <trkpt lat="46.06918" lon="4.76326">
        <ele>196.8</ele>
        <time>2024-09-19T12:51:50Z</time>
      </trkpt>
      <trkpt lat="46.06915" lon="4.76327">
        <ele>196.8</ele>
        <time>2024-09-19T12:51:51Z</time>
      </trkpt>
      <trkpt lat="46.0691" lon="4.76328">
        <ele>196.8</ele>
        <time>2024-09-19T12:51:52Z</time>
      </trkpt>
      <trkpt lat="46.06905" lon="4.7633">
        <ele>196.8</ele>
        <time>2024-09-19T12:51:53Z</time>
      </trkpt>
      <trkpt lat="46.06898" lon="4.76332">
        <ele>196.8</ele>
        <time>2024-09-19T12:51:54Z</time>
      </trkpt>
      <trkpt lat="46.06895" lon="4.76333">
        <ele>196.8</ele>
        <time>2024-09-19T12:51:55Z</time>
      </trkpt>
      <trkpt lat="46.06887" lon="4.76335">
        <ele>196.2</ele>
        <time>2024-09-19T12:51:56Z</time>
      </trkpt>
      <trkpt lat="46.06885" lon="4.76336">
        <ele>196.2</ele>
        <time>2024-09-19T12:51:57Z</time>
      </trkpt>
      <trkpt lat="46.06877" lon="4.76338">
        <ele>196.2</ele>
        <time>2024-09-19T12:51:58Z</time>
      </trkpt>
      <trkpt lat="46.06874" lon="4.76339">
        <ele>196.4</ele>
        <time>2024-09-19T12:51:59Z</time>
      </trkpt>
      <trkpt lat="46.06866" lon="4.76341">
        <ele>196.4</ele>
        <time>2024-09-19T12:52:00Z</time>
      </trkpt>
      <trkpt lat="46.06864" lon="4.76342">
        <ele>196.4</ele>
        <time>2024-09-19T12:52:01Z</time>
      </trkpt>
      <trkpt lat="46.06856" lon="4.76345">
        <ele>196.4</ele>
        <time>2024-09-19T12:52:02Z</time>
      </trkpt>
      <trkpt lat="46.06853" lon="4.76345">
        <ele>196.4</ele>
        <time>2024-09-19T12:52:03Z</time>
      </trkpt>
      <trkpt lat="46.06848" lon="4.76347">
        <ele>196.2</ele>
        <time>2024-09-19T12:52:04Z</time>
      </trkpt>
      <trkpt lat="46.06841" lon="4.76349">
        <ele>196.2</ele>
        <time>2024-09-19T12:52:05Z</time>
      </trkpt>
      <trkpt lat="46.06838" lon="4.7635">
        <ele>196.2</ele>
        <time>2024-09-19T12:52:06Z</time>
      </trkpt>
      <trkpt lat="46.06833" lon="4.76351">
        <ele>196.2</ele>
        <time>2024-09-19T12:52:07Z</time>
      </trkpt>
      <trkpt lat="46.06828" lon="4.76352">
        <ele>196.2</ele>
        <time>2024-09-19T12:52:08Z</time>
      </trkpt>
      <trkpt lat="46.06821" lon="4.76354">
        <ele>196</ele>
        <time>2024-09-19T12:52:09Z</time>
      </trkpt>
      <trkpt lat="46.06818" lon="4.76355">
        <ele>196</ele>
        <time>2024-09-19T12:52:10Z</time>
      </trkpt>
      <trkpt lat="46.06813" lon="4.76356">
        <ele>196</ele>
        <time>2024-09-19T12:52:11Z</time>
      </trkpt>
      <trkpt lat="46.06808" lon="4.76357">
        <ele>196</ele>
        <time>2024-09-19T12:52:12Z</time>
      </trkpt>
      <trkpt lat="46.06802" lon="4.76359">
        <ele>196</ele>
        <time>2024-09-19T12:52:13Z</time>
      </trkpt>
      <trkpt lat="46.06798" lon="4.76362">
        <ele>196.2</ele>
        <time>2024-09-19T12:52:14Z</time>
      </trkpt>
      <trkpt lat="46.06791" lon="4.76366">
        <ele>196.2</ele>
        <time>2024-09-19T12:52:15Z</time>
      </trkpt>
      <trkpt lat="46.06789" lon="4.76368">
        <ele>196.2</ele>
        <time>2024-09-19T12:52:16Z</time>
      </trkpt>
      <trkpt lat="46.06783" lon="4.76373">
        <ele>196.2</ele>
        <time>2024-09-19T12:52:17Z</time>
      </trkpt>
      <trkpt lat="46.06781" lon="4.76375">
        <ele>196.2</ele>
        <time>2024-09-19T12:52:18Z</time>
      </trkpt>
      <trkpt lat="46.06777" lon="4.76379">
        <ele>196.4</ele>
        <time>2024-09-19T12:52:19Z</time>
      </trkpt>
      <trkpt lat="46.06774" lon="4.76382">
        <ele>196.4</ele>
        <time>2024-09-19T12:52:20Z</time>
      </trkpt>
      <trkpt lat="46.0677" lon="4.76385">
        <ele>196.4</ele>
        <time>2024-09-19T12:52:21Z</time>
      </trkpt>
      <trkpt lat="46.06763" lon="4.76386">
        <ele>196.4</ele>
        <time>2024-09-19T12:52:22Z</time>
      </trkpt>
      <trkpt lat="46.06761" lon="4.76387">
        <ele>197.2</ele>
        <time>2024-09-19T12:52:23Z</time>
      </trkpt>
      <trkpt lat="46.06757" lon="4.76386">
        <ele>197.2</ele>
        <time>2024-09-19T12:52:24Z</time>
      </trkpt>
      <trkpt lat="46.06753" lon="4.76386">
        <ele>197.2</ele>
        <time>2024-09-19T12:52:25Z</time>
      </trkpt>
      <trkpt lat="46.0675" lon="4.76386">
        <ele>197.2</ele>
        <time>2024-09-19T12:52:26Z</time>
      </trkpt>
      <trkpt lat="46.06746" lon="4.76386">
        <ele>197.4</ele>
        <time>2024-09-19T12:52:27Z</time>
      </trkpt>
      <trkpt lat="46.06743" lon="4.76387">
        <ele>197.4</ele>
        <time>2024-09-19T12:52:28Z</time>
      </trkpt>
      <trkpt lat="46.0674" lon="4.76387">
        <ele>197.4</ele>
        <time>2024-09-19T12:52:29Z</time>
      </trkpt>
      <trkpt lat="46.06736" lon="4.76386">
        <ele>197.4</ele>
        <time>2024-09-19T12:52:30Z</time>
      </trkpt>
      <trkpt lat="46.06731" lon="4.76385">
        <ele>197.4</ele>
        <time>2024-09-19T12:52:31Z</time>
      </trkpt>
      <trkpt lat="46.06729" lon="4.76385">
        <ele>197.6</ele>
        <time>2024-09-19T12:52:32Z</time>
      </trkpt>
      <trkpt lat="46.06723" lon="4.76384">
        <ele>197.6</ele>
        <time>2024-09-19T12:52:33Z</time>
      </trkpt>
      <trkpt lat="46.06721" lon="4.76383">
        <ele>197.6</ele>
        <time>2024-09-19T12:52:34Z</time>
      </trkpt>
      <trkpt lat="46.06716" lon="4.76383">
        <ele>197.6</ele>
        <time>2024-09-19T12:52:35Z</time>
      </trkpt>
      <trkpt lat="46.06714" lon="4.76383">
        <ele>197.8</ele>
        <time>2024-09-19T12:52:36Z</time>
      </trkpt>
      <trkpt lat="46.06708" lon="4.76381">
        <ele>197.8</ele>
        <time>2024-09-19T12:52:37Z</time>
      </trkpt>
      <trkpt lat="46.06706" lon="4.76381">
        <ele>197.8</ele>
        <time>2024-09-19T12:52:38Z</time>
      </trkpt>
      <trkpt lat="46.06701" lon="4.76381">
        <ele>197.8</ele>
        <time>2024-09-19T12:52:39Z</time>
      </trkpt>
      <trkpt lat="46.06697" lon="4.76381">
        <ele>197.6</ele>
        <time>2024-09-19T12:52:40Z</time>
      </trkpt>
      <trkpt lat="46.0669" lon="4.76381">
        <ele>197.6</ele>
        <time>2024-09-19T12:52:41Z</time>
      </trkpt>
      <trkpt lat="46.06687" lon="4.76381">
        <ele>197.6</ele>
        <time>2024-09-19T12:52:42Z</time>
      </trkpt>
      <trkpt lat="46.06681" lon="4.76379">
        <ele>197.6</ele>
        <time>2024-09-19T12:52:43Z</time>
      </trkpt>
      <trkpt lat="46.06679" lon="4.76379">
        <ele>197.8</ele>
        <time>2024-09-19T12:52:44Z</time>
      </trkpt>
      <trkpt lat="46.06673" lon="4.76379">
        <ele>197.8</ele>
        <time>2024-09-19T12:52:45Z</time>
      </trkpt>
      <trkpt lat="46.06671" lon="4.76379">
        <ele>197.8</ele>
        <time>2024-09-19T12:52:46Z</time>
      </trkpt>
      <trkpt lat="46.06664" lon="4.76378">
        <ele>197.8</ele>
        <time>2024-09-19T12:52:47Z</time>
      </trkpt>
      <trkpt lat="46.06662" lon="4.76378">
        <ele>197.8</ele>
        <time>2024-09-19T12:52:48Z</time>
      </trkpt>
      <trkpt lat="46.06658" lon="4.76378">
        <ele>197.8</ele>
        <time>2024-09-19T12:52:49Z</time>
      </trkpt>
      <trkpt lat="46.06654" lon="4.76377">
        <ele>197.8</ele>
        <time>2024-09-19T12:52:50Z</time>
      </trkpt>
      <trkpt lat="46.0665" lon="4.76378">
        <ele>197.8</ele>
        <time>2024-09-19T12:52:51Z</time>
      </trkpt>
      <trkpt lat="46.06646" lon="4.76378">
        <ele>197.8</ele>
        <time>2024-09-19T12:52:52Z</time>
      </trkpt>
      <trkpt lat="46.06642" lon="4.76378">
        <ele>197.8</ele>
        <time>2024-09-19T12:52:53Z</time>
      </trkpt>
      <trkpt lat="46.06635" lon="4.76378">
        <ele>197.8</ele>
        <time>2024-09-19T12:52:54Z</time>
      </trkpt>
      <trkpt lat="46.06633" lon="4.76378">
        <ele>197.8</ele>
        <time>2024-09-19T12:52:55Z</time>
      </trkpt>
      <trkpt lat="46.06626" lon="4.76378">
        <ele>197.8</ele>
        <time>2024-09-19T12:52:56Z</time>
      </trkpt>
      <trkpt lat="46.06624" lon="4.76378">
        <ele>197.8</ele>
        <time>2024-09-19T12:52:57Z</time>
      </trkpt>
      <trkpt lat="46.0662" lon="4.76378">
        <ele>198.2</ele>
        <time>2024-09-19T12:52:58Z</time>
      </trkpt>
      <trkpt lat="46.06613" lon="4.76378">
        <ele>198.2</ele>
        <time>2024-09-19T12:52:59Z</time>
      </trkpt>
      <trkpt lat="46.06611" lon="4.76378">
        <ele>198.2</ele>
        <time>2024-09-19T12:53:00Z</time>
      </trkpt>
      <trkpt lat="46.06605" lon="4.76379">
        <ele>198.2</ele>
        <time>2024-09-19T12:53:01Z</time>
      </trkpt>
      <trkpt lat="46.06603" lon="4.76379">
        <ele>197.6</ele>
        <time>2024-09-19T12:53:02Z</time>
      </trkpt>
      <trkpt lat="46.06596" lon="4.76379">
        <ele>197.2</ele>
        <time>2024-09-19T12:53:03Z</time>
      </trkpt>
      <trkpt lat="46.06594" lon="4.76379">
        <ele>197.2</ele>
        <time>2024-09-19T12:53:04Z</time>
      </trkpt>
      <trkpt lat="46.0659" lon="4.76378">
        <ele>197.2</ele>
        <time>2024-09-19T12:53:05Z</time>
      </trkpt>
      <trkpt lat="46.06583" lon="4.76376">
        <ele>198.2</ele>
        <time>2024-09-19T12:53:06Z</time>
      </trkpt>
      <trkpt lat="46.0658" lon="4.76376">
        <ele>198.2</ele>
        <time>2024-09-19T12:53:07Z</time>
      </trkpt>
      <trkpt lat="46.06574" lon="4.76375">
        <ele>198.2</ele>
        <time>2024-09-19T12:53:08Z</time>
      </trkpt>
      <trkpt lat="46.06571" lon="4.76375">
        <ele>198.2</ele>
        <time>2024-09-19T12:53:09Z</time>
      </trkpt>
      <trkpt lat="46.06565" lon="4.76375">
        <ele>198.2</ele>
        <time>2024-09-19T12:53:10Z</time>
      </trkpt>
      <trkpt lat="46.06563" lon="4.76374">
        <ele>198.2</ele>
        <time>2024-09-19T12:53:11Z</time>
      </trkpt>
      <trkpt lat="46.06556" lon="4.76374">
        <ele>198.2</ele>
        <time>2024-09-19T12:53:12Z</time>
      </trkpt>
      <trkpt lat="46.06554" lon="4.76374">
        <ele>198</ele>
        <time>2024-09-19T12:53:13Z</time>
      </trkpt>
      <trkpt lat="46.06547" lon="4.76373">
        <ele>198</ele>
        <time>2024-09-19T12:53:14Z</time>
      </trkpt>
      <trkpt lat="46.06545" lon="4.76372">
        <ele>198</ele>
        <time>2024-09-19T12:53:15Z</time>
      </trkpt>
      <trkpt lat="46.06539" lon="4.76371">
        <ele>198.2</ele>
        <time>2024-09-19T12:53:16Z</time>
      </trkpt>
      <trkpt lat="46.06537" lon="4.76371">
        <ele>198.4</ele>
        <time>2024-09-19T12:53:17Z</time>
      </trkpt>
      <trkpt lat="46.06532" lon="4.76369">
        <ele>198.4</ele>
        <time>2024-09-19T12:53:18Z</time>
      </trkpt>
      <trkpt lat="46.06528" lon="4.76367">
        <ele>198.4</ele>
        <time>2024-09-19T12:53:19Z</time>
      </trkpt>
      <trkpt lat="46.06521" lon="4.76364">
        <ele>198.2</ele>
        <time>2024-09-19T12:53:20Z</time>
      </trkpt>
      <trkpt lat="46.06519" lon="4.76363">
        <ele>198</ele>
        <time>2024-09-19T12:53:21Z</time>
      </trkpt>
      <trkpt lat="46.06512" lon="4.76359">
        <ele>198</ele>
        <time>2024-09-19T12:53:22Z</time>
      </trkpt>
      <trkpt lat="46.0651" lon="4.76358">
        <ele>198</ele>
        <time>2024-09-19T12:53:23Z</time>
      </trkpt>
      <trkpt lat="46.06506" lon="4.76355">
        <ele>198</ele>
        <time>2024-09-19T12:53:24Z</time>
      </trkpt>
      <trkpt lat="46.06498" lon="4.76352">
        <ele>198</ele>
        <time>2024-09-19T12:53:25Z</time>
      </trkpt>
      <trkpt lat="46.06496" lon="4.76351">
        <ele>197.8</ele>
        <time>2024-09-19T12:53:26Z</time>
      </trkpt>
      <trkpt lat="46.0649" lon="4.76348">
        <ele>197.8</ele>
        <time>2024-09-19T12:53:27Z</time>
      </trkpt>
      <trkpt lat="46.06486" lon="4.76346">
        <ele>197.8</ele>
        <time>2024-09-19T12:53:28Z</time>
      </trkpt>
      <trkpt lat="46.06478" lon="4.76343">
        <ele>197.6</ele>
        <time>2024-09-19T12:53:29Z</time>
      </trkpt>
      <trkpt lat="46.06476" lon="4.76342">
        <ele>197.6</ele>
        <time>2024-09-19T12:53:30Z</time>
      </trkpt>
      <trkpt lat="46.06471" lon="4.76339">
        <ele>197.6</ele>
        <time>2024-09-19T12:53:31Z</time>
      </trkpt>
      <trkpt lat="46.06466" lon="4.76337">
        <ele>197.6</ele>
        <time>2024-09-19T12:53:32Z</time>
      </trkpt>
      <trkpt lat="46.06461" lon="4.76336">
        <ele>197.6</ele>
        <time>2024-09-19T12:53:33Z</time>
      </trkpt>
      <trkpt lat="46.06457" lon="4.76334">
        <ele>197.6</ele>
        <time>2024-09-19T12:53:34Z</time>
      </trkpt>
      <trkpt lat="46.06451" lon="4.76333">
        <ele>197.8</ele>
        <time>2024-09-19T12:53:35Z</time>
      </trkpt>
      <trkpt lat="46.06446" lon="4.76332">
        <ele>197.8</ele>
        <time>2024-09-19T12:53:36Z</time>
      </trkpt>
      <trkpt lat="46.06441" lon="4.7633">
        <ele>197.8</ele>
        <time>2024-09-19T12:53:37Z</time>
      </trkpt>
      <trkpt lat="46.06436" lon="4.76328">
        <ele>197.4</ele>
        <time>2024-09-19T12:53:38Z</time>
      </trkpt>
      <trkpt lat="46.06431" lon="4.76327">
        <ele>197.2</ele>
        <time>2024-09-19T12:53:39Z</time>
      </trkpt>
      <trkpt lat="46.06426" lon="4.76325">
        <ele>197.2</ele>
        <time>2024-09-19T12:53:40Z</time>
      </trkpt>
      <trkpt lat="46.06419" lon="4.76324">
        <ele>197.2</ele>
        <time>2024-09-19T12:53:41Z</time>
      </trkpt>
      <trkpt lat="46.06416" lon="4.76324">
        <ele>197.2</ele>
        <time>2024-09-19T12:53:42Z</time>
      </trkpt>
      <trkpt lat="46.0641" lon="4.76322">
        <ele>197.6</ele>
        <time>2024-09-19T12:53:43Z</time>
      </trkpt>
      <trkpt lat="46.06407" lon="4.76322">
        <ele>197.4</ele>
        <time>2024-09-19T12:53:44Z</time>
      </trkpt>
      <trkpt lat="46.06403" lon="4.7632">
        <ele>197.4</ele>
        <time>2024-09-19T12:53:45Z</time>
      </trkpt>
      <trkpt lat="46.06396" lon="4.76318">
        <ele>197.4</ele>
        <time>2024-09-19T12:53:46Z</time>
      </trkpt>
      <trkpt lat="46.06394" lon="4.76318">
        <ele>197.6</ele>
        <time>2024-09-19T12:53:47Z</time>
      </trkpt>
      <trkpt lat="46.0639" lon="4.76316">
        <ele>197.8</ele>
        <time>2024-09-19T12:53:48Z</time>
      </trkpt>
      <trkpt lat="46.06385" lon="4.76315">
        <ele>197.8</ele>
        <time>2024-09-19T12:53:49Z</time>
      </trkpt>
      <trkpt lat="46.06381" lon="4.76314">
        <ele>197.8</ele>
        <time>2024-09-19T12:53:50Z</time>
      </trkpt>
      <trkpt lat="46.06375" lon="4.76311">
        <ele>197.8</ele>
        <time>2024-09-19T12:53:51Z</time>
      </trkpt>
      <trkpt lat="46.06373" lon="4.7631">
        <ele>197.8</ele>
        <time>2024-09-19T12:53:52Z</time>
      </trkpt>
      <trkpt lat="46.06367" lon="4.76308">
        <ele>197.6</ele>
        <time>2024-09-19T12:53:53Z</time>
      </trkpt>
      <trkpt lat="46.06365" lon="4.76307">
        <ele>197.6</ele>
        <time>2024-09-19T12:53:54Z</time>
      </trkpt>
      <trkpt lat="46.06358" lon="4.76304">
        <ele>197.6</ele>
        <time>2024-09-19T12:53:55Z</time>
      </trkpt>
      <trkpt lat="46.06356" lon="4.76303">
        <ele>197.6</ele>
        <time>2024-09-19T12:53:56Z</time>
      </trkpt>
      <trkpt lat="46.0635" lon="4.763">
        <ele>197.6</ele>
        <time>2024-09-19T12:53:57Z</time>
      </trkpt>
      <trkpt lat="46.06348" lon="4.76299">
        <ele>197.6</ele>
        <time>2024-09-19T12:53:58Z</time>
      </trkpt>
      <trkpt lat="46.06342" lon="4.76296">
        <ele>197.6</ele>
        <time>2024-09-19T12:53:59Z</time>
      </trkpt>
      <trkpt lat="46.0634" lon="4.76295">
        <ele>197.6</ele>
        <time>2024-09-19T12:54:00Z</time>
      </trkpt>
      <trkpt lat="46.06333" lon="4.76291">
        <ele>197.6</ele>
        <time>2024-09-19T12:54:01Z</time>
      </trkpt>
      <trkpt lat="46.06331" lon="4.7629">
        <ele>197.6</ele>
        <time>2024-09-19T12:54:02Z</time>
      </trkpt>
      <trkpt lat="46.06324" lon="4.76286">
        <ele>197.6</ele>
        <time>2024-09-19T12:54:03Z</time>
      </trkpt>
      <trkpt lat="46.06322" lon="4.76285">
        <ele>197.6</ele>
        <time>2024-09-19T12:54:04Z</time>
      </trkpt>
      <trkpt lat="46.06316" lon="4.76281">
        <ele>197.6</ele>
        <time>2024-09-19T12:54:05Z</time>
      </trkpt>
      <trkpt lat="46.06313" lon="4.76279">
        <ele>197.6</ele>
        <time>2024-09-19T12:54:06Z</time>
      </trkpt>
      <trkpt lat="46.06307" lon="4.76275">
        <ele>197.4</ele>
        <time>2024-09-19T12:54:07Z</time>
      </trkpt>
      <trkpt lat="46.06305" lon="4.76273">
        <ele>197.4</ele>
        <time>2024-09-19T12:54:08Z</time>
      </trkpt>
      <trkpt lat="46.06299" lon="4.76269">
        <ele>197.4</ele>
        <time>2024-09-19T12:54:09Z</time>
      </trkpt>
      <trkpt lat="46.06297" lon="4.76267">
        <ele>197.6</ele>
        <time>2024-09-19T12:54:10Z</time>
      </trkpt>
      <trkpt lat="46.0629" lon="4.76263">
        <ele>197.6</ele>
        <time>2024-09-19T12:54:11Z</time>
      </trkpt>
      <trkpt lat="46.06288" lon="4.76262">
        <ele>197.2</ele>
        <time>2024-09-19T12:54:12Z</time>
      </trkpt>
      <trkpt lat="46.06284" lon="4.7626">
        <ele>197.2</ele>
        <time>2024-09-19T12:54:13Z</time>
      </trkpt>
      <trkpt lat="46.0628" lon="4.76257">
        <ele>197.2</ele>
        <time>2024-09-19T12:54:14Z</time>
      </trkpt>
      <trkpt lat="46.06273" lon="4.76254">
        <ele>197.4</ele>
        <time>2024-09-19T12:54:15Z</time>
      </trkpt>
      <trkpt lat="46.06271" lon="4.76252">
        <ele>197.6</ele>
        <time>2024-09-19T12:54:16Z</time>
      </trkpt>
      <trkpt lat="46.06264" lon="4.76248">
        <ele>197.6</ele>
        <time>2024-09-19T12:54:17Z</time>
      </trkpt>
      <trkpt lat="46.06262" lon="4.76246">
        <ele>197.6</ele>
        <time>2024-09-19T12:54:18Z</time>
      </trkpt>
      <trkpt lat="46.06257" lon="4.76243">
        <ele>197.6</ele>
        <time>2024-09-19T12:54:19Z</time>
      </trkpt>
      <trkpt lat="46.06252" lon="4.76239">
        <ele>197.4</ele>
        <time>2024-09-19T12:54:20Z</time>
      </trkpt>
      <trkpt lat="46.06248" lon="4.76236">
        <ele>197.4</ele>
        <time>2024-09-19T12:54:21Z</time>
      </trkpt>
      <trkpt lat="46.06244" lon="4.76233">
        <ele>197.4</ele>
        <time>2024-09-19T12:54:22Z</time>
      </trkpt>
      <trkpt lat="46.06239" lon="4.7623">
        <ele>197.4</ele>
        <time>2024-09-19T12:54:23Z</time>
      </trkpt>
      <trkpt lat="46.06235" lon="4.76227">
        <ele>197.4</ele>
        <time>2024-09-19T12:54:24Z</time>
      </trkpt>
      <trkpt lat="46.06228" lon="4.76223">
        <ele>197.4</ele>
        <time>2024-09-19T12:54:25Z</time>
      </trkpt>
      <trkpt lat="46.06226" lon="4.76222">
        <ele>197.4</ele>
        <time>2024-09-19T12:54:26Z</time>
      </trkpt>
      <trkpt lat="46.06219" lon="4.76219">
        <ele>197.4</ele>
        <time>2024-09-19T12:54:27Z</time>
      </trkpt>
      <trkpt lat="46.06217" lon="4.76218">
        <ele>197.6</ele>
        <time>2024-09-19T12:54:28Z</time>
      </trkpt>
      <trkpt lat="46.06211" lon="4.76214">
        <ele>197.8</ele>
        <time>2024-09-19T12:54:29Z</time>
      </trkpt>
      <trkpt lat="46.06209" lon="4.76213">
        <ele>197.8</ele>
        <time>2024-09-19T12:54:30Z</time>
      </trkpt>
      <trkpt lat="46.06206" lon="4.7621">
        <ele>197.8</ele>
        <time>2024-09-19T12:54:31Z</time>
      </trkpt>
      <trkpt lat="46.06202" lon="4.76207">
        <ele>197.8</ele>
        <time>2024-09-19T12:54:32Z</time>
      </trkpt>
      <trkpt lat="46.06196" lon="4.76203">
        <ele>198</ele>
        <time>2024-09-19T12:54:33Z</time>
      </trkpt>
      <trkpt lat="46.06194" lon="4.76202">
        <ele>198</ele>
        <time>2024-09-19T12:54:34Z</time>
      </trkpt>
      <trkpt lat="46.06189" lon="4.76198">
        <ele>198</ele>
        <time>2024-09-19T12:54:35Z</time>
      </trkpt>
      <trkpt lat="46.06187" lon="4.76196">
        <ele>198</ele>
        <time>2024-09-19T12:54:36Z</time>
      </trkpt>
      <trkpt lat="46.06184" lon="4.76193">
        <ele>198</ele>
        <time>2024-09-19T12:54:37Z</time>
      </trkpt>
      <trkpt lat="46.06181" lon="4.76191">
        <ele>198</ele>
        <time>2024-09-19T12:54:38Z</time>
      </trkpt>
      <trkpt lat="46.06177" lon="4.76188">
        <ele>198</ele>
        <time>2024-09-19T12:54:39Z</time>
      </trkpt>
      <trkpt lat="46.06173" lon="4.76185">
        <ele>198</ele>
        <time>2024-09-19T12:54:40Z</time>
      </trkpt>
      <trkpt lat="46.0617" lon="4.76182">
        <ele>198</ele>
        <time>2024-09-19T12:54:41Z</time>
      </trkpt>
      <trkpt lat="46.06165" lon="4.76179">
        <ele>198</ele>
        <time>2024-09-19T12:54:42Z</time>
      </trkpt>
      <trkpt lat="46.06159" lon="4.76175">
        <ele>197.8</ele>
        <time>2024-09-19T12:54:43Z</time>
      </trkpt>
      <trkpt lat="46.06157" lon="4.76173">
        <ele>197.8</ele>
        <time>2024-09-19T12:54:44Z</time>
      </trkpt>
      <trkpt lat="46.06153" lon="4.76169">
        <ele>197.8</ele>
        <time>2024-09-19T12:54:45Z</time>
      </trkpt>
      <trkpt lat="46.06148" lon="4.76166">
        <ele>197.8</ele>
        <time>2024-09-19T12:54:46Z</time>
      </trkpt>
      <trkpt lat="46.06144" lon="4.76162">
        <ele>197.4</ele>
        <time>2024-09-19T12:54:47Z</time>
      </trkpt>
      <trkpt lat="46.0614" lon="4.76158">
        <ele>197.4</ele>
        <time>2024-09-19T12:54:48Z</time>
      </trkpt>
      <trkpt lat="46.06135" lon="4.76155">
        <ele>197.4</ele>
        <time>2024-09-19T12:54:49Z</time>
      </trkpt>
      <trkpt lat="46.06132" lon="4.76151">
        <ele>197.4</ele>
        <time>2024-09-19T12:54:50Z</time>
      </trkpt>
      <trkpt lat="46.06126" lon="4.76146">
        <ele>197.4</ele>
        <time>2024-09-19T12:54:51Z</time>
      </trkpt>
      <trkpt lat="46.06124" lon="4.76144">
        <ele>197.4</ele>
        <time>2024-09-19T12:54:52Z</time>
      </trkpt>
      <trkpt lat="46.06119" lon="4.76138">
        <ele>197.4</ele>
        <time>2024-09-19T12:54:53Z</time>
      </trkpt>
      <trkpt lat="46.06117" lon="4.76136">
        <ele>197.4</ele>
        <time>2024-09-19T12:54:54Z</time>
      </trkpt>
      <trkpt lat="46.06111" lon="4.7613">
        <ele>197.4</ele>
        <time>2024-09-19T12:54:55Z</time>
      </trkpt>
      <trkpt lat="46.06109" lon="4.76128">
        <ele>197</ele>
        <time>2024-09-19T12:54:56Z</time>
      </trkpt>
      <trkpt lat="46.06105" lon="4.76124">
        <ele>197</ele>
        <time>2024-09-19T12:54:57Z</time>
      </trkpt>
      <trkpt lat="46.06101" lon="4.76121">
        <ele>197</ele>
        <time>2024-09-19T12:54:58Z</time>
      </trkpt>
      <trkpt lat="46.06097" lon="4.76118">
        <ele>197.4</ele>
        <time>2024-09-19T12:54:59Z</time>
      </trkpt>
      <trkpt lat="46.06091" lon="4.76112">
        <ele>197.4</ele>
        <time>2024-09-19T12:55:00Z</time>
      </trkpt>
      <trkpt lat="46.06089" lon="4.76111">
        <ele>197.4</ele>
        <time>2024-09-19T12:55:01Z</time>
      </trkpt>
      <trkpt lat="46.06085" lon="4.76107">
        <ele>197.4</ele>
        <time>2024-09-19T12:55:02Z</time>
      </trkpt>
      <trkpt lat="46.06082" lon="4.76105">
        <ele>197.4</ele>
        <time>2024-09-19T12:55:03Z</time>
      </trkpt>
      <trkpt lat="46.06078" lon="4.76103">
        <ele>197.6</ele>
        <time>2024-09-19T12:55:04Z</time>
      </trkpt>
      <trkpt lat="46.06075" lon="4.76101">
        <ele>198.2</ele>
        <time>2024-09-19T12:55:05Z</time>
      </trkpt>
      <trkpt lat="46.0607" lon="4.76098">
        <ele>198.2</ele>
        <time>2024-09-19T12:55:06Z</time>
      </trkpt>
      <trkpt lat="46.06069" lon="4.76096">
        <ele>198.2</ele>
        <time>2024-09-19T12:55:07Z</time>
      </trkpt>
      <trkpt lat="46.06065" lon="4.7609">
        <ele>197.6</ele>
        <time>2024-09-19T12:55:08Z</time>
      </trkpt>
      <trkpt lat="46.06063" lon="4.76088">
        <ele>197.8</ele>
        <time>2024-09-19T12:55:09Z</time>
      </trkpt>
      <trkpt lat="46.06058" lon="4.76081">
        <ele>197.8</ele>
        <time>2024-09-19T12:55:10Z</time>
      </trkpt>
      <trkpt lat="46.06056" lon="4.76079">
        <ele>197.8</ele>
        <time>2024-09-19T12:55:11Z</time>
      </trkpt>
      <trkpt lat="46.0605" lon="4.76073">
        <ele>197.8</ele>
        <time>2024-09-19T12:55:12Z</time>
      </trkpt>
      <trkpt lat="46.06048" lon="4.76071">
        <ele>197.2</ele>
        <time>2024-09-19T12:55:13Z</time>
      </trkpt>
      <trkpt lat="46.06041" lon="4.76064">
        <ele>197</ele>
        <time>2024-09-19T12:55:14Z</time>
      </trkpt>
      <trkpt lat="46.06039" lon="4.76062">
        <ele>197</ele>
        <time>2024-09-19T12:55:15Z</time>
      </trkpt>
      <trkpt lat="46.06035" lon="4.76058">
        <ele>197</ele>
        <time>2024-09-19T12:55:16Z</time>
      </trkpt>
      <trkpt lat="46.0603" lon="4.76055">
        <ele>197</ele>
        <time>2024-09-19T12:55:17Z</time>
      </trkpt>
      <trkpt lat="46.06024" lon="4.76049">
        <ele>196.8</ele>
        <time>2024-09-19T12:55:18Z</time>
      </trkpt>
      <trkpt lat="46.06022" lon="4.76047">
        <ele>196.8</ele>
        <time>2024-09-19T12:55:19Z</time>
      </trkpt>
      <trkpt lat="46.06016" lon="4.76042">
        <ele>196.8</ele>
        <time>2024-09-19T12:55:20Z</time>
      </trkpt>
      <trkpt lat="46.06014" lon="4.7604">
        <ele>196.8</ele>
        <time>2024-09-19T12:55:21Z</time>
      </trkpt>
      <trkpt lat="46.0601" lon="4.76037">
        <ele>197</ele>
        <time>2024-09-19T12:55:22Z</time>
      </trkpt>
      <trkpt lat="46.06004" lon="4.76032">
        <ele>196.8</ele>
        <time>2024-09-19T12:55:23Z</time>
      </trkpt>
      <trkpt lat="46.06003" lon="4.7603">
        <ele>196.8</ele>
        <time>2024-09-19T12:55:24Z</time>
      </trkpt>
      <trkpt lat="46.05997" lon="4.76024">
        <ele>196.8</ele>
        <time>2024-09-19T12:55:25Z</time>
      </trkpt>
      <trkpt lat="46.05995" lon="4.76022">
        <ele>196.8</ele>
        <time>2024-09-19T12:55:26Z</time>
      </trkpt>
      <trkpt lat="46.0599" lon="4.76018">
        <ele>197</ele>
        <time>2024-09-19T12:55:27Z</time>
      </trkpt>
      <trkpt lat="46.05987" lon="4.76014">
        <ele>197</ele>
        <time>2024-09-19T12:55:28Z</time>
      </trkpt>
      <trkpt lat="46.0598" lon="4.76008">
        <ele>197</ele>
        <time>2024-09-19T12:55:29Z</time>
      </trkpt>
      <trkpt lat="46.05978" lon="4.76006">
        <ele>197</ele>
        <time>2024-09-19T12:55:30Z</time>
      </trkpt>
      <trkpt lat="46.05973" lon="4.76">
        <ele>196.8</ele>
        <time>2024-09-19T12:55:31Z</time>
      </trkpt>
      <trkpt lat="46.05971" lon="4.75998">
        <ele>197</ele>
        <time>2024-09-19T12:55:32Z</time>
      </trkpt>
      <trkpt lat="46.05964" lon="4.75992">
        <ele>197</ele>
        <time>2024-09-19T12:55:33Z</time>
      </trkpt>
      <trkpt lat="46.05962" lon="4.7599">
        <ele>197</ele>
        <time>2024-09-19T12:55:34Z</time>
      </trkpt>
      <trkpt lat="46.05958" lon="4.75985">
        <ele>197</ele>
        <time>2024-09-19T12:55:35Z</time>
      </trkpt>
      <trkpt lat="46.05955" lon="4.75981">
        <ele>196.8</ele>
        <time>2024-09-19T12:55:36Z</time>
      </trkpt>
      <trkpt lat="46.05951" lon="4.75977">
        <ele>196.8</ele>
        <time>2024-09-19T12:55:37Z</time>
      </trkpt>
      <trkpt lat="46.05944" lon="4.75971">
        <ele>196.8</ele>
        <time>2024-09-19T12:55:38Z</time>
      </trkpt>
      <trkpt lat="46.05942" lon="4.75969">
        <ele>196.8</ele>
        <time>2024-09-19T12:55:39Z</time>
      </trkpt>
      <trkpt lat="46.05936" lon="4.75963">
        <ele>196.8</ele>
        <time>2024-09-19T12:55:40Z</time>
      </trkpt>
      <trkpt lat="46.05934" lon="4.75961">
        <ele>197.4</ele>
        <time>2024-09-19T12:55:41Z</time>
      </trkpt>
      <trkpt lat="46.0593" lon="4.75957">
        <ele>197.4</ele>
        <time>2024-09-19T12:55:42Z</time>
      </trkpt>
      <trkpt lat="46.05926" lon="4.75952">
        <ele>197.4</ele>
        <time>2024-09-19T12:55:43Z</time>
      </trkpt>
      <trkpt lat="46.05921" lon="4.75945">
        <ele>197.4</ele>
        <time>2024-09-19T12:55:44Z</time>
      </trkpt>
      <trkpt lat="46.05919" lon="4.75943">
        <ele>197.2</ele>
        <time>2024-09-19T12:55:45Z</time>
      </trkpt>
      <trkpt lat="46.05915" lon="4.75938">
        <ele>197.2</ele>
        <time>2024-09-19T12:55:46Z</time>
      </trkpt>
      <trkpt lat="46.05911" lon="4.75933">
        <ele>197.2</ele>
        <time>2024-09-19T12:55:47Z</time>
      </trkpt>
      <trkpt lat="46.05907" lon="4.75929">
        <ele>197.2</ele>
        <time>2024-09-19T12:55:48Z</time>
      </trkpt>
      <trkpt lat="46.05903" lon="4.75924">
        <ele>197.2</ele>
        <time>2024-09-19T12:55:49Z</time>
      </trkpt>
      <trkpt lat="46.05898" lon="4.75917">
        <ele>197</ele>
        <time>2024-09-19T12:55:50Z</time>
      </trkpt>
      <trkpt lat="46.05896" lon="4.75915">
        <ele>197</ele>
        <time>2024-09-19T12:55:51Z</time>
      </trkpt>
      <trkpt lat="46.0589" lon="4.75908">
        <ele>197</ele>
        <time>2024-09-19T12:55:52Z</time>
      </trkpt>
      <trkpt lat="46.05888" lon="4.75905">
        <ele>197.2</ele>
        <time>2024-09-19T12:55:53Z</time>
      </trkpt>
      <trkpt lat="46.05884" lon="4.75901">
        <ele>197.2</ele>
        <time>2024-09-19T12:55:54Z</time>
      </trkpt>
      <trkpt lat="46.05881" lon="4.75896">
        <ele>197</ele>
        <time>2024-09-19T12:55:55Z</time>
      </trkpt>
      <trkpt lat="46.05875" lon="4.75889">
        <ele>197</ele>
        <time>2024-09-19T12:55:56Z</time>
      </trkpt>
      <trkpt lat="46.05873" lon="4.75887">
        <ele>197</ele>
        <time>2024-09-19T12:55:57Z</time>
      </trkpt>
      <trkpt lat="46.0587" lon="4.75882">
        <ele>197.2</ele>
        <time>2024-09-19T12:55:58Z</time>
      </trkpt>
      <trkpt lat="46.05866" lon="4.75877">
        <ele>197</ele>
        <time>2024-09-19T12:55:59Z</time>
      </trkpt>
      <trkpt lat="46.0586" lon="4.7587">
        <ele>197</ele>
        <time>2024-09-19T12:56:00Z</time>
      </trkpt>
      <trkpt lat="46.05858" lon="4.75867">
        <ele>197</ele>
        <time>2024-09-19T12:56:01Z</time>
      </trkpt>
      <trkpt lat="46.05853" lon="4.7586">
        <ele>197</ele>
        <time>2024-09-19T12:56:02Z</time>
      </trkpt>
      <trkpt lat="46.05851" lon="4.75857">
        <ele>197</ele>
        <time>2024-09-19T12:56:03Z</time>
      </trkpt>
      <trkpt lat="46.05847" lon="4.75852">
        <ele>197</ele>
        <time>2024-09-19T12:56:04Z</time>
      </trkpt>
      <trkpt lat="46.05841" lon="4.75844">
        <ele>197</ele>
        <time>2024-09-19T12:56:05Z</time>
      </trkpt>
      <trkpt lat="46.05839" lon="4.75842">
        <ele>197</ele>
        <time>2024-09-19T12:56:06Z</time>
      </trkpt>
      <trkpt lat="46.05835" lon="4.75836">
        <ele>196.6</ele>
        <time>2024-09-19T12:56:07Z</time>
      </trkpt>
      <trkpt lat="46.05832" lon="4.75831">
        <ele>196.6</ele>
        <time>2024-09-19T12:56:08Z</time>
      </trkpt>
      <trkpt lat="46.05826" lon="4.75823">
        <ele>196.6</ele>
        <time>2024-09-19T12:56:09Z</time>
      </trkpt>
      <trkpt lat="46.05824" lon="4.7582">
        <ele>196.6</ele>
        <time>2024-09-19T12:56:10Z</time>
      </trkpt>
      <trkpt lat="46.05818" lon="4.75812">
        <ele>196.6</ele>
        <time>2024-09-19T12:56:11Z</time>
      </trkpt>
      <trkpt lat="46.05816" lon="4.7581">
        <ele>196.6</ele>
        <time>2024-09-19T12:56:12Z</time>
      </trkpt>
      <trkpt lat="46.0581" lon="4.75801">
        <ele>196.2</ele>
        <time>2024-09-19T12:56:13Z</time>
      </trkpt>
      <trkpt lat="46.05808" lon="4.75799">
        <ele>196.2</ele>
        <time>2024-09-19T12:56:14Z</time>
      </trkpt>
      <trkpt lat="46.05802" lon="4.75791">
        <ele>196.2</ele>
        <time>2024-09-19T12:56:15Z</time>
      </trkpt>
      <trkpt lat="46.058" lon="4.75788">
        <ele>196.2</ele>
        <time>2024-09-19T12:56:16Z</time>
      </trkpt>
      <trkpt lat="46.05794" lon="4.7578">
        <ele>196.2</ele>
        <time>2024-09-19T12:56:17Z</time>
      </trkpt>
      <trkpt lat="46.05792" lon="4.75778">
        <ele>195.8</ele>
        <time>2024-09-19T12:56:18Z</time>
      </trkpt>
      <trkpt lat="46.05788" lon="4.75773">
        <ele>195.8</ele>
        <time>2024-09-19T12:56:19Z</time>
      </trkpt>
      <trkpt lat="46.05782" lon="4.75765">
        <ele>196.2</ele>
        <time>2024-09-19T12:56:20Z</time>
      </trkpt>
      <trkpt lat="46.05781" lon="4.75762">
        <ele>196.2</ele>
        <time>2024-09-19T12:56:21Z</time>
      </trkpt>
      <trkpt lat="46.05775" lon="4.75755">
        <ele>196.2</ele>
        <time>2024-09-19T12:56:22Z</time>
      </trkpt>
      <trkpt lat="46.05773" lon="4.75752">
        <ele>196.2</ele>
        <time>2024-09-19T12:56:23Z</time>
      </trkpt>
      <trkpt lat="46.05767" lon="4.75745">
        <ele>196.2</ele>
        <time>2024-09-19T12:56:24Z</time>
      </trkpt>
      <trkpt lat="46.05765" lon="4.75742">
        <ele>196</ele>
        <time>2024-09-19T12:56:25Z</time>
      </trkpt>
      <trkpt lat="46.05761" lon="4.75737">
        <ele>196</ele>
        <time>2024-09-19T12:56:26Z</time>
      </trkpt>
      <trkpt lat="46.05757" lon="4.75733">
        <ele>195.8</ele>
        <time>2024-09-19T12:56:27Z</time>
      </trkpt>
      <trkpt lat="46.05751" lon="4.75726">
        <ele>195.8</ele>
        <time>2024-09-19T12:56:28Z</time>
      </trkpt>
      <trkpt lat="46.05749" lon="4.75723">
        <ele>195.8</ele>
        <time>2024-09-19T12:56:29Z</time>
      </trkpt>
      <trkpt lat="46.05744" lon="4.75716">
        <ele>195.8</ele>
        <time>2024-09-19T12:56:30Z</time>
      </trkpt>
      <trkpt lat="46.05742" lon="4.75714">
        <ele>195.8</ele>
        <time>2024-09-19T12:56:31Z</time>
      </trkpt>
      <trkpt lat="46.05738" lon="4.75709">
        <ele>195.8</ele>
        <time>2024-09-19T12:56:32Z</time>
      </trkpt>
      <trkpt lat="46.05734" lon="4.75705">
        <ele>195.8</ele>
        <time>2024-09-19T12:56:33Z</time>
      </trkpt>
      <trkpt lat="46.05729" lon="4.75698">
        <ele>196</ele>
        <time>2024-09-19T12:56:34Z</time>
      </trkpt>
      <trkpt lat="46.05727" lon="4.75695">
        <ele>196</ele>
        <time>2024-09-19T12:56:35Z</time>
      </trkpt>
      <trkpt lat="46.05721" lon="4.75688">
        <ele>196</ele>
        <time>2024-09-19T12:56:36Z</time>
      </trkpt>
      <trkpt lat="46.05719" lon="4.75686">
        <ele>196</ele>
        <time>2024-09-19T12:56:37Z</time>
      </trkpt>
      <trkpt lat="46.05713" lon="4.75679">
        <ele>196</ele>
        <time>2024-09-19T12:56:38Z</time>
      </trkpt>
      <trkpt lat="46.05712" lon="4.75677">
        <ele>195.8</ele>
        <time>2024-09-19T12:56:39Z</time>
      </trkpt>
      <trkpt lat="46.05708" lon="4.75673">
        <ele>195.8</ele>
        <time>2024-09-19T12:56:40Z</time>
      </trkpt>
      <trkpt lat="46.05704" lon="4.75668">
        <ele>195.8</ele>
        <time>2024-09-19T12:56:41Z</time>
      </trkpt>
      <trkpt lat="46.057" lon="4.75663">
        <ele>195.8</ele>
        <time>2024-09-19T12:56:42Z</time>
      </trkpt>
      <trkpt lat="46.05697" lon="4.75659">
        <ele>195.8</ele>
        <time>2024-09-19T12:56:43Z</time>
      </trkpt>
      <trkpt lat="46.05693" lon="4.75655">
        <ele>195.8</ele>
        <time>2024-09-19T12:56:44Z</time>
      </trkpt>
      <trkpt lat="46.05687" lon="4.75649">
        <ele>195.8</ele>
        <time>2024-09-19T12:56:45Z</time>
      </trkpt>
      <trkpt lat="46.05685" lon="4.75647">
        <ele>195.8</ele>
        <time>2024-09-19T12:56:46Z</time>
      </trkpt>
      <trkpt lat="46.05681" lon="4.75643">
        <ele>195.8</ele>
        <time>2024-09-19T12:56:47Z</time>
      </trkpt>
      <trkpt lat="46.05674" lon="4.75638">
        <ele>195.8</ele>
        <time>2024-09-19T12:56:48Z</time>
      </trkpt>
      <trkpt lat="46.05672" lon="4.75637">
        <ele>195.8</ele>
        <time>2024-09-19T12:56:49Z</time>
      </trkpt>
      <trkpt lat="46.05668" lon="4.75633">
        <ele>195.8</ele>
        <time>2024-09-19T12:56:50Z</time>
      </trkpt>
      <trkpt lat="46.05665" lon="4.7563">
        <ele>195.8</ele>
        <time>2024-09-19T12:56:51Z</time>
      </trkpt>
      <trkpt lat="46.0566" lon="4.75624">
        <ele>196.6</ele>
        <time>2024-09-19T12:56:52Z</time>
      </trkpt>
      <trkpt lat="46.05659" lon="4.75621">
        <ele>196.6</ele>
        <time>2024-09-19T12:56:53Z</time>
      </trkpt>
      <trkpt lat="46.05655" lon="4.75614">
        <ele>196.4</ele>
        <time>2024-09-19T12:56:54Z</time>
      </trkpt>
      <trkpt lat="46.05653" lon="4.75612">
        <ele>196.4</ele>
        <time>2024-09-19T12:56:55Z</time>
      </trkpt>
      <trkpt lat="46.0565" lon="4.75607">
        <ele>196.6</ele>
        <time>2024-09-19T12:56:56Z</time>
      </trkpt>
      <trkpt lat="46.05647" lon="4.75602">
        <ele>196.6</ele>
        <time>2024-09-19T12:56:57Z</time>
      </trkpt>
      <trkpt lat="46.05644" lon="4.75597">
        <ele>196.6</ele>
        <time>2024-09-19T12:56:58Z</time>
      </trkpt>
      <trkpt lat="46.05641" lon="4.75592">
        <ele>196.6</ele>
        <time>2024-09-19T12:56:59Z</time>
      </trkpt>
      <trkpt lat="46.05637" lon="4.75587">
        <ele>196.6</ele>
        <time>2024-09-19T12:57:00Z</time>
      </trkpt>
      <trkpt lat="46.05632" lon="4.75579">
        <ele>196.6</ele>
        <time>2024-09-19T12:57:01Z</time>
      </trkpt>
      <trkpt lat="46.05631" lon="4.75577">
        <ele>196.8</ele>
        <time>2024-09-19T12:57:02Z</time>
      </trkpt>
      <trkpt lat="46.05626" lon="4.75568">
        <ele>196.8</ele>
        <time>2024-09-19T12:57:03Z</time>
      </trkpt>
      <trkpt lat="46.05624" lon="4.75566">
        <ele>196.8</ele>
        <time>2024-09-19T12:57:04Z</time>
      </trkpt>
      <trkpt lat="46.05619" lon="4.75557">
        <ele>196.8</ele>
        <time>2024-09-19T12:57:05Z</time>
      </trkpt>
      <trkpt lat="46.05618" lon="4.75555">
        <ele>197</ele>
        <time>2024-09-19T12:57:06Z</time>
      </trkpt>
      <trkpt lat="46.05614" lon="4.75549">
        <ele>197</ele>
        <time>2024-09-19T12:57:07Z</time>
      </trkpt>
      <trkpt lat="46.05611" lon="4.75544">
        <ele>197</ele>
        <time>2024-09-19T12:57:08Z</time>
      </trkpt>
      <trkpt lat="46.05608" lon="4.75538">
        <ele>197</ele>
        <time>2024-09-19T12:57:09Z</time>
      </trkpt>
      <trkpt lat="46.05604" lon="4.75533">
        <ele>196.6</ele>
        <time>2024-09-19T12:57:10Z</time>
      </trkpt>
      <trkpt lat="46.056" lon="4.75528">
        <ele>197</ele>
        <time>2024-09-19T12:57:11Z</time>
      </trkpt>
      <trkpt lat="46.05595" lon="4.7552">
        <ele>197</ele>
        <time>2024-09-19T12:57:12Z</time>
      </trkpt>
      <trkpt lat="46.05594" lon="4.75518">
        <ele>197</ele>
        <time>2024-09-19T12:57:13Z</time>
      </trkpt>
      <trkpt lat="46.05589" lon="4.75509">
        <ele>197</ele>
        <time>2024-09-19T12:57:14Z</time>
      </trkpt>
      <trkpt lat="46.05587" lon="4.75507">
        <ele>197</ele>
        <time>2024-09-19T12:57:15Z</time>
      </trkpt>
      <trkpt lat="46.05584" lon="4.75501">
        <ele>197</ele>
        <time>2024-09-19T12:57:16Z</time>
      </trkpt>
      <trkpt lat="46.05581" lon="4.75496">
        <ele>197</ele>
        <time>2024-09-19T12:57:17Z</time>
      </trkpt>
      <trkpt lat="46.05577" lon="4.75491">
        <ele>197</ele>
        <time>2024-09-19T12:57:18Z</time>
      </trkpt>
      <trkpt lat="46.05574" lon="4.75485">
        <ele>197</ele>
        <time>2024-09-19T12:57:19Z</time>
      </trkpt>
      <trkpt lat="46.05571" lon="4.7548">
        <ele>197</ele>
        <time>2024-09-19T12:57:20Z</time>
      </trkpt>
      <trkpt lat="46.05566" lon="4.75472">
        <ele>197</ele>
        <time>2024-09-19T12:57:21Z</time>
      </trkpt>
      <trkpt lat="46.05564" lon="4.75469">
        <ele>197</ele>
        <time>2024-09-19T12:57:22Z</time>
      </trkpt>
      <trkpt lat="46.0556" lon="4.75464">
        <ele>197</ele>
        <time>2024-09-19T12:57:23Z</time>
      </trkpt>
      <trkpt lat="46.05557" lon="4.75458">
        <ele>197</ele>
        <time>2024-09-19T12:57:24Z</time>
      </trkpt>
      <trkpt lat="46.05553" lon="4.75453">
        <ele>197</ele>
        <time>2024-09-19T12:57:25Z</time>
      </trkpt>
      <trkpt lat="46.0555" lon="4.75448">
        <ele>197</ele>
        <time>2024-09-19T12:57:26Z</time>
      </trkpt>
      <trkpt lat="46.05547" lon="4.75442">
        <ele>197</ele>
        <time>2024-09-19T12:57:27Z</time>
      </trkpt>
      <trkpt lat="46.05541" lon="4.75434">
        <ele>196.6</ele>
        <time>2024-09-19T12:57:28Z</time>
      </trkpt>
      <trkpt lat="46.0554" lon="4.75431">
        <ele>196.6</ele>
        <time>2024-09-19T12:57:29Z</time>
      </trkpt>
      <trkpt lat="46.05534" lon="4.75424">
        <ele>196.6</ele>
        <time>2024-09-19T12:57:30Z</time>
      </trkpt>
      <trkpt lat="46.05533" lon="4.75421">
        <ele>196.6</ele>
        <time>2024-09-19T12:57:31Z</time>
      </trkpt>
      <trkpt lat="46.05528" lon="4.75414">
        <ele>196.8</ele>
        <time>2024-09-19T12:57:32Z</time>
      </trkpt>
      <trkpt lat="46.05526" lon="4.75411">
        <ele>197</ele>
        <time>2024-09-19T12:57:33Z</time>
      </trkpt>
      <trkpt lat="46.0552" lon="4.75403">
        <ele>197</ele>
        <time>2024-09-19T12:57:34Z</time>
      </trkpt>
      <trkpt lat="46.05519" lon="4.75401">
        <ele>197</ele>
        <time>2024-09-19T12:57:35Z</time>
      </trkpt>
      <trkpt lat="46.05515" lon="4.75395">
        <ele>197</ele>
        <time>2024-09-19T12:57:36Z</time>
      </trkpt>
      <trkpt lat="46.05512" lon="4.7539">
        <ele>197</ele>
        <time>2024-09-19T12:57:37Z</time>
      </trkpt>
      <trkpt lat="46.05508" lon="4.75385">
        <ele>196.8</ele>
        <time>2024-09-19T12:57:38Z</time>
      </trkpt>
      <trkpt lat="46.05504" lon="4.7538">
        <ele>196.8</ele>
        <time>2024-09-19T12:57:39Z</time>
      </trkpt>
      <trkpt lat="46.055" lon="4.75375">
        <ele>196.8</ele>
        <time>2024-09-19T12:57:40Z</time>
      </trkpt>
      <trkpt lat="46.05496" lon="4.7537">
        <ele>196.8</ele>
        <time>2024-09-19T12:57:41Z</time>
      </trkpt>
      <trkpt lat="46.05493" lon="4.75365">
        <ele>196.8</ele>
        <time>2024-09-19T12:57:42Z</time>
      </trkpt>
      <trkpt lat="46.05489" lon="4.7536">
        <ele>196.8</ele>
        <time>2024-09-19T12:57:43Z</time>
      </trkpt>
      <trkpt lat="46.05483" lon="4.75354">
        <ele>196.8</ele>
        <time>2024-09-19T12:57:44Z</time>
      </trkpt>
      <trkpt lat="46.05481" lon="4.75352">
        <ele>196.8</ele>
        <time>2024-09-19T12:57:45Z</time>
      </trkpt>
      <trkpt lat="46.05477" lon="4.75347">
        <ele>196.8</ele>
        <time>2024-09-19T12:57:46Z</time>
      </trkpt>
      <trkpt lat="46.05473" lon="4.75343">
        <ele>197</ele>
        <time>2024-09-19T12:57:47Z</time>
      </trkpt>
      <trkpt lat="46.05469" lon="4.75339">
        <ele>197</ele>
        <time>2024-09-19T12:57:48Z</time>
      </trkpt>
      <trkpt lat="46.05463" lon="4.75333">
        <ele>197</ele>
        <time>2024-09-19T12:57:49Z</time>
      </trkpt>
      <trkpt lat="46.05461" lon="4.7533">
        <ele>196.6</ele>
        <time>2024-09-19T12:57:50Z</time>
      </trkpt>
      <trkpt lat="46.05456" lon="4.75325">
        <ele>196.6</ele>
        <time>2024-09-19T12:57:51Z</time>
      </trkpt>
      <trkpt lat="46.05452" lon="4.75321">
        <ele>196.6</ele>
        <time>2024-09-19T12:57:52Z</time>
      </trkpt>
      <trkpt lat="46.05446" lon="4.75315">
        <ele>196.6</ele>
        <time>2024-09-19T12:57:53Z</time>
      </trkpt>
      <trkpt lat="46.05444" lon="4.75313">
        <ele>196.6</ele>
        <time>2024-09-19T12:57:54Z</time>
      </trkpt>
      <trkpt lat="46.0544" lon="4.7531">
        <ele>196.6</ele>
        <time>2024-09-19T12:57:55Z</time>
      </trkpt>
      <trkpt lat="46.05436" lon="4.75307">
        <ele>197</ele>
        <time>2024-09-19T12:57:56Z</time>
      </trkpt>
      <trkpt lat="46.05432" lon="4.75303">
        <ele>197</ele>
        <time>2024-09-19T12:57:57Z</time>
      </trkpt>
      <trkpt lat="46.05428" lon="4.753">
        <ele>197</ele>
        <time>2024-09-19T12:57:58Z</time>
      </trkpt>
      <trkpt lat="46.05424" lon="4.75296">
        <ele>196.8</ele>
        <time>2024-09-19T12:57:59Z</time>
      </trkpt>
      <trkpt lat="46.05421" lon="4.75291">
        <ele>196.8</ele>
        <time>2024-09-19T12:58:00Z</time>
      </trkpt>
      <trkpt lat="46.05417" lon="4.75286">
        <ele>196.8</ele>
        <time>2024-09-19T12:58:01Z</time>
      </trkpt>
      <trkpt lat="46.05414" lon="4.75281">
        <ele>196.8</ele>
        <time>2024-09-19T12:58:02Z</time>
      </trkpt>
      <trkpt lat="46.05411" lon="4.75271">
        <ele>196.8</ele>
        <time>2024-09-19T12:58:03Z</time>
      </trkpt>
      <trkpt lat="46.0541" lon="4.75268">
        <ele>197</ele>
        <time>2024-09-19T12:58:04Z</time>
      </trkpt>
      <trkpt lat="46.05407" lon="4.75258">
        <ele>197</ele>
        <time>2024-09-19T12:58:05Z</time>
      </trkpt>
      <trkpt lat="46.05406" lon="4.75255">
        <ele>197</ele>
        <time>2024-09-19T12:58:06Z</time>
      </trkpt>
      <trkpt lat="46.05403" lon="4.75245">
        <ele>197</ele>
        <time>2024-09-19T12:58:07Z</time>
      </trkpt>
      <trkpt lat="46.05402" lon="4.75241">
        <ele>197</ele>
        <time>2024-09-19T12:58:08Z</time>
      </trkpt>
      <trkpt lat="46.054" lon="4.7523">
        <ele>197</ele>
        <time>2024-09-19T12:58:09Z</time>
      </trkpt>
      <trkpt lat="46.05399" lon="4.75227">
        <ele>197</ele>
        <time>2024-09-19T12:58:10Z</time>
      </trkpt>
      <trkpt lat="46.05397" lon="4.75216">
        <ele>197</ele>
        <time>2024-09-19T12:58:11Z</time>
      </trkpt>
      <trkpt lat="46.05396" lon="4.75213">
        <ele>196.8</ele>
        <time>2024-09-19T12:58:12Z</time>
      </trkpt>
      <trkpt lat="46.05393" lon="4.75204">
        <ele>196.8</ele>
        <time>2024-09-19T12:58:13Z</time>
      </trkpt>
      <trkpt lat="46.05392" lon="4.75201">
        <ele>196.8</ele>
        <time>2024-09-19T12:58:14Z</time>
      </trkpt>
      <trkpt lat="46.0539" lon="4.75195">
        <ele>196.8</ele>
        <time>2024-09-19T12:58:15Z</time>
      </trkpt>
      <trkpt lat="46.05387" lon="4.75186">
        <ele>196.8</ele>
        <time>2024-09-19T12:58:16Z</time>
      </trkpt>
      <trkpt lat="46.05386" lon="4.75184">
        <ele>196.4</ele>
        <time>2024-09-19T12:58:17Z</time>
      </trkpt>
      <trkpt lat="46.05385" lon="4.75178">
        <ele>196.8</ele>
        <time>2024-09-19T12:58:18Z</time>
      </trkpt>
      <trkpt lat="46.05384" lon="4.75173">
        <ele>196.8</ele>
        <time>2024-09-19T12:58:19Z</time>
      </trkpt>
      <trkpt lat="46.05382" lon="4.75166">
        <ele>196.8</ele>
        <time>2024-09-19T12:58:20Z</time>
      </trkpt>
      <trkpt lat="46.05381" lon="4.75163">
        <ele>196.8</ele>
        <time>2024-09-19T12:58:21Z</time>
      </trkpt>
      <trkpt lat="46.0538" lon="4.75158">
        <ele>196.4</ele>
        <time>2024-09-19T12:58:22Z</time>
      </trkpt>
      <trkpt lat="46.05378" lon="4.75153">
        <ele>196.4</ele>
        <time>2024-09-19T12:58:23Z</time>
      </trkpt>
      <trkpt lat="46.05377" lon="4.75149">
        <ele>196.8</ele>
        <time>2024-09-19T12:58:24Z</time>
      </trkpt>
      <trkpt lat="46.05375" lon="4.75144">
        <ele>196.8</ele>
        <time>2024-09-19T12:58:25Z</time>
      </trkpt>
      <trkpt lat="46.05374" lon="4.7514">
        <ele>196.8</ele>
        <time>2024-09-19T12:58:26Z</time>
      </trkpt>
      <trkpt lat="46.05372" lon="4.75135">
        <ele>196.6</ele>
        <time>2024-09-19T12:58:27Z</time>
      </trkpt>
      <trkpt lat="46.05371" lon="4.75131">
        <ele>196.6</ele>
        <time>2024-09-19T12:58:28Z</time>
      </trkpt>
      <trkpt lat="46.05369" lon="4.75127">
        <ele>196.6</ele>
        <time>2024-09-19T12:58:29Z</time>
      </trkpt>
      <trkpt lat="46.05367" lon="4.75122">
        <ele>196.6</ele>
        <time>2024-09-19T12:58:30Z</time>
      </trkpt>
      <trkpt lat="46.05365" lon="4.75115">
        <ele>196.6</ele>
        <time>2024-09-19T12:58:31Z</time>
      </trkpt>
      <trkpt lat="46.05364" lon="4.75113">
        <ele>196.6</ele>
        <time>2024-09-19T12:58:32Z</time>
      </trkpt>
      <trkpt lat="46.05362" lon="4.75108">
        <ele>196.6</ele>
        <time>2024-09-19T12:58:33Z</time>
      </trkpt>
      <trkpt lat="46.05361" lon="4.75104">
        <ele>196.6</ele>
        <time>2024-09-19T12:58:34Z</time>
      </trkpt>
      <trkpt lat="46.05359" lon="4.751">
        <ele>196.6</ele>
        <time>2024-09-19T12:58:35Z</time>
      </trkpt>
      <trkpt lat="46.05357" lon="4.75096">
        <ele>196.6</ele>
        <time>2024-09-19T12:58:36Z</time>
      </trkpt>
      <trkpt lat="46.05356" lon="4.75092">
        <ele>196.8</ele>
        <time>2024-09-19T12:58:37Z</time>
      </trkpt>
      <trkpt lat="46.05355" lon="4.75088">
        <ele>196.8</ele>
        <time>2024-09-19T12:58:38Z</time>
      </trkpt>
      <trkpt lat="46.05354" lon="4.75084">
        <ele>196.8</ele>
        <time>2024-09-19T12:58:39Z</time>
      </trkpt>
      <trkpt lat="46.05353" lon="4.75081">
        <ele>196.6</ele>
        <time>2024-09-19T12:58:40Z</time>
      </trkpt>
      <trkpt lat="46.05352" lon="4.75078">
        <ele>196.6</ele>
        <time>2024-09-19T12:58:41Z</time>
      </trkpt>
      <trkpt lat="46.05351" lon="4.75072">
        <ele>196.6</ele>
        <time>2024-09-19T12:58:42Z</time>
      </trkpt>
      <trkpt lat="46.0535" lon="4.75069">
        <ele>196.6</ele>
        <time>2024-09-19T12:58:43Z</time>
      </trkpt>
      <trkpt lat="46.05348" lon="4.75066">
        <ele>196.6</ele>
        <time>2024-09-19T12:58:44Z</time>
      </trkpt>
      <trkpt lat="46.05347" lon="4.75062">
        <ele>196.6</ele>
        <time>2024-09-19T12:58:52Z</time>
      </trkpt>
      <trkpt lat="46.05346" lon="4.75059">
        <ele>196.6</ele>
        <time>2024-09-19T12:58:53Z</time>
      </trkpt>
      <trkpt lat="46.05345" lon="4.75055">
        <ele>196.8</ele>
        <time>2024-09-19T12:58:54Z</time>
      </trkpt>
      <trkpt lat="46.05344" lon="4.75051">
        <ele>196.8</ele>
        <time>2024-09-19T12:58:55Z</time>
      </trkpt>
      <trkpt lat="46.05342" lon="4.75046">
        <ele>196.8</ele>
        <time>2024-09-19T12:58:56Z</time>
      </trkpt>
      <trkpt lat="46.05341" lon="4.75041">
        <ele>196.8</ele>
        <time>2024-09-19T12:58:57Z</time>
      </trkpt>
      <trkpt lat="46.05339" lon="4.75036">
        <ele>196.6</ele>
        <time>2024-09-19T12:58:58Z</time>
      </trkpt>
      <trkpt lat="46.05336" lon="4.75027">
        <ele>196.6</ele>
        <time>2024-09-19T12:58:59Z</time>
      </trkpt>
      <trkpt lat="46.05335" lon="4.75024">
        <ele>196.6</ele>
        <time>2024-09-19T12:59:00Z</time>
      </trkpt>
      <trkpt lat="46.05332" lon="4.75015">
        <ele>196.6</ele>
        <time>2024-09-19T12:59:01Z</time>
      </trkpt>
      <trkpt lat="46.05331" lon="4.75011">
        <ele>196.6</ele>
        <time>2024-09-19T12:59:02Z</time>
      </trkpt>
      <trkpt lat="46.0533" lon="4.75005">
        <ele>196.6</ele>
        <time>2024-09-19T12:59:03Z</time>
      </trkpt>
      <trkpt lat="46.05327" lon="4.74995">
        <ele>196.6</ele>
        <time>2024-09-19T12:59:04Z</time>
      </trkpt>
      <trkpt lat="46.05326" lon="4.74991">
        <ele>196.6</ele>
        <time>2024-09-19T12:59:05Z</time>
      </trkpt>
      <trkpt lat="46.05325" lon="4.74985">
        <ele>196.6</ele>
        <time>2024-09-19T12:59:06Z</time>
      </trkpt>
      <trkpt lat="46.05323" lon="4.74978">
        <ele>196.6</ele>
        <time>2024-09-19T12:59:07Z</time>
      </trkpt>
      <trkpt lat="46.0532" lon="4.74968">
        <ele>196.4</ele>
        <time>2024-09-19T12:59:08Z</time>
      </trkpt>
      <trkpt lat="46.05319" lon="4.74965">
        <ele>196.4</ele>
        <time>2024-09-19T12:59:09Z</time>
      </trkpt>
      <trkpt lat="46.05317" lon="4.74958">
        <ele>196.4</ele>
        <time>2024-09-19T12:59:10Z</time>
      </trkpt>
      <trkpt lat="46.05314" lon="4.74951">
        <ele>196.4</ele>
        <time>2024-09-19T12:59:11Z</time>
      </trkpt>
      <trkpt lat="46.0531" lon="4.74941">
        <ele>196.4</ele>
        <time>2024-09-19T12:59:12Z</time>
      </trkpt>
      <trkpt lat="46.05309" lon="4.74938">
        <ele>196.6</ele>
        <time>2024-09-19T12:59:13Z</time>
      </trkpt>
      <trkpt lat="46.05306" lon="4.74931">
        <ele>196.6</ele>
        <time>2024-09-19T12:59:14Z</time>
      </trkpt>
      <trkpt lat="46.05302" lon="4.74921">
        <ele>196.8</ele>
        <time>2024-09-19T12:59:15Z</time>
      </trkpt>
      <trkpt lat="46.05301" lon="4.74918">
        <ele>197</ele>
        <time>2024-09-19T12:59:16Z</time>
      </trkpt>
      <trkpt lat="46.05299" lon="4.74911">
        <ele>197</ele>
        <time>2024-09-19T12:59:17Z</time>
      </trkpt>
      <trkpt lat="46.05296" lon="4.74901">
        <ele>197</ele>
        <time>2024-09-19T12:59:18Z</time>
      </trkpt>
      <trkpt lat="46.05294" lon="4.74897">
        <ele>197</ele>
        <time>2024-09-19T12:59:19Z</time>
      </trkpt>
      <trkpt lat="46.05291" lon="4.74888">
        <ele>196.6</ele>
        <time>2024-09-19T12:59:20Z</time>
      </trkpt>
      <trkpt lat="46.05289" lon="4.74884">
        <ele>196.6</ele>
        <time>2024-09-19T12:59:21Z</time>
      </trkpt>
      <trkpt lat="46.05286" lon="4.74875">
        <ele>196.6</ele>
        <time>2024-09-19T12:59:22Z</time>
      </trkpt>
      <trkpt lat="46.05284" lon="4.74872">
        <ele>196.6</ele>
        <time>2024-09-19T12:59:23Z</time>
      </trkpt>
      <trkpt lat="46.05282" lon="4.74866">
        <ele>196.6</ele>
        <time>2024-09-19T12:59:24Z</time>
      </trkpt>
      <trkpt lat="46.05279" lon="4.7486">
        <ele>196.6</ele>
        <time>2024-09-19T12:59:25Z</time>
      </trkpt>
      <trkpt lat="46.05276" lon="4.74854">
        <ele>196.6</ele>
        <time>2024-09-19T12:59:26Z</time>
      </trkpt>
      <trkpt lat="46.05274" lon="4.74847">
        <ele>196.6</ele>
        <time>2024-09-19T12:59:27Z</time>
      </trkpt>
      <trkpt lat="46.05271" lon="4.74841">
        <ele>196.6</ele>
        <time>2024-09-19T12:59:28Z</time>
      </trkpt>
      <trkpt lat="46.05269" lon="4.74835">
        <ele>196.6</ele>
        <time>2024-09-19T12:59:29Z</time>
      </trkpt>
      <trkpt lat="46.05266" lon="4.74829">
        <ele>196.6</ele>
        <time>2024-09-19T12:59:30Z</time>
      </trkpt>
      <trkpt lat="46.05262" lon="4.7482">
        <ele>196.6</ele>
        <time>2024-09-19T12:59:31Z</time>
      </trkpt>
      <trkpt lat="46.05261" lon="4.74817">
        <ele>196.6</ele>
        <time>2024-09-19T12:59:32Z</time>
      </trkpt>
      <trkpt lat="46.05257" lon="4.74807">
        <ele>196.6</ele>
        <time>2024-09-19T12:59:33Z</time>
      </trkpt>
      <trkpt lat="46.05256" lon="4.74804">
        <ele>196.6</ele>
        <time>2024-09-19T12:59:34Z</time>
      </trkpt>
      <trkpt lat="46.05253" lon="4.74798">
        <ele>196.6</ele>
        <time>2024-09-19T12:59:35Z</time>
      </trkpt>
      <trkpt lat="46.0525" lon="4.74792">
        <ele>196.6</ele>
        <time>2024-09-19T12:59:36Z</time>
      </trkpt>
      <trkpt lat="46.05247" lon="4.74785">
        <ele>196.6</ele>
        <time>2024-09-19T12:59:37Z</time>
      </trkpt>
      <trkpt lat="46.05245" lon="4.74779">
        <ele>196.6</ele>
        <time>2024-09-19T12:59:38Z</time>
      </trkpt>
      <trkpt lat="46.05242" lon="4.74773">
        <ele>196.6</ele>
        <time>2024-09-19T12:59:39Z</time>
      </trkpt>
      <trkpt lat="46.05239" lon="4.74767">
        <ele>196.6</ele>
        <time>2024-09-19T12:59:40Z</time>
      </trkpt>
      <trkpt lat="46.05235" lon="4.74757">
        <ele>196.6</ele>
        <time>2024-09-19T12:59:41Z</time>
      </trkpt>
      <trkpt lat="46.05234" lon="4.74754">
        <ele>196.6</ele>
        <time>2024-09-19T12:59:42Z</time>
      </trkpt>
      <trkpt lat="46.05231" lon="4.74748">
        <ele>196.6</ele>
        <time>2024-09-19T12:59:43Z</time>
      </trkpt>
      <trkpt lat="46.05227" lon="4.74738">
        <ele>196.4</ele>
        <time>2024-09-19T12:59:44Z</time>
      </trkpt>
      <trkpt lat="46.05226" lon="4.74735">
        <ele>196.4</ele>
        <time>2024-09-19T12:59:45Z</time>
      </trkpt>
      <trkpt lat="46.05222" lon="4.74726">
        <ele>196.4</ele>
        <time>2024-09-19T12:59:46Z</time>
      </trkpt>
      <trkpt lat="46.0522" lon="4.74723">
        <ele>196.4</ele>
        <time>2024-09-19T12:59:47Z</time>
      </trkpt>
      <trkpt lat="46.05216" lon="4.74713">
        <ele>196.6</ele>
        <time>2024-09-19T12:59:48Z</time>
      </trkpt>
      <trkpt lat="46.05215" lon="4.7471">
        <ele>196.6</ele>
        <time>2024-09-19T12:59:49Z</time>
      </trkpt>
      <trkpt lat="46.05213" lon="4.74704">
        <ele>196.6</ele>
        <time>2024-09-19T12:59:50Z</time>
      </trkpt>
      <trkpt lat="46.05209" lon="4.74695">
        <ele>196.6</ele>
        <time>2024-09-19T12:59:51Z</time>
      </trkpt>
      <trkpt lat="46.05207" lon="4.74691">
        <ele>196.6</ele>
        <time>2024-09-19T12:59:52Z</time>
      </trkpt>
      <trkpt lat="46.05203" lon="4.74682">
        <ele>196.6</ele>
        <time>2024-09-19T12:59:53Z</time>
      </trkpt>
      <trkpt lat="46.05202" lon="4.74679">
        <ele>196.6</ele>
        <time>2024-09-19T12:59:54Z</time>
      </trkpt>
      <trkpt lat="46.05199" lon="4.74673">
        <ele>196.6</ele>
        <time>2024-09-19T12:59:55Z</time>
      </trkpt>
      <trkpt lat="46.05195" lon="4.74663">
        <ele>196.6</ele>
        <time>2024-09-19T12:59:56Z</time>
      </trkpt>
      <trkpt lat="46.05194" lon="4.7466">
        <ele>196.6</ele>
        <time>2024-09-19T12:59:57Z</time>
      </trkpt>
      <trkpt lat="46.05191" lon="4.74654">
        <ele>196.6</ele>
        <time>2024-09-19T12:59:58Z</time>
      </trkpt>
      <trkpt lat="46.05187" lon="4.74644">
        <ele>196.6</ele>
        <time>2024-09-19T12:59:59Z</time>
      </trkpt>
      <trkpt lat="46.05186" lon="4.74641">
        <ele>196.4</ele>
        <time>2024-09-19T13:00:00Z</time>
      </trkpt>
      <trkpt lat="46.05183" lon="4.74634">
        <ele>196.4</ele>
        <time>2024-09-19T13:00:01Z</time>
      </trkpt>
      <trkpt lat="46.05181" lon="4.74628">
        <ele>196.4</ele>
        <time>2024-09-19T13:00:02Z</time>
      </trkpt>
      <trkpt lat="46.05178" lon="4.74622">
        <ele>196.4</ele>
        <time>2024-09-19T13:00:03Z</time>
      </trkpt>
      <trkpt lat="46.05175" lon="4.74615">
        <ele>196.4</ele>
        <time>2024-09-19T13:00:04Z</time>
      </trkpt>
      <trkpt lat="46.05173" lon="4.74609">
        <ele>196.6</ele>
        <time>2024-09-19T13:00:05Z</time>
      </trkpt>
      <trkpt lat="46.05169" lon="4.74599">
        <ele>196.6</ele>
        <time>2024-09-19T13:00:06Z</time>
      </trkpt>
      <trkpt lat="46.05167" lon="4.74596">
        <ele>196.6</ele>
        <time>2024-09-19T13:00:07Z</time>
      </trkpt>
      <trkpt lat="46.05164" lon="4.7459">
        <ele>196.6</ele>
        <time>2024-09-19T13:00:08Z</time>
      </trkpt>
      <trkpt lat="46.05161" lon="4.74584">
        <ele>196.6</ele>
        <time>2024-09-19T13:00:09Z</time>
      </trkpt>
      <trkpt lat="46.05157" lon="4.74574">
        <ele>196.6</ele>
        <time>2024-09-19T13:00:10Z</time>
      </trkpt>
      <trkpt lat="46.05156" lon="4.74571">
        <ele>196.6</ele>
        <time>2024-09-19T13:00:11Z</time>
      </trkpt>
      <trkpt lat="46.05153" lon="4.74565">
        <ele>196.6</ele>
        <time>2024-09-19T13:00:12Z</time>
      </trkpt>
      <trkpt lat="46.05151" lon="4.74558">
        <ele>196.6</ele>
        <time>2024-09-19T13:00:13Z</time>
      </trkpt>
      <trkpt lat="46.05147" lon="4.74549">
        <ele>196.6</ele>
        <time>2024-09-19T13:00:14Z</time>
      </trkpt>
      <trkpt lat="46.05145" lon="4.74546">
        <ele>196.8</ele>
        <time>2024-09-19T13:00:15Z</time>
      </trkpt>
      <trkpt lat="46.05142" lon="4.7454">
        <ele>196.8</ele>
        <time>2024-09-19T13:00:16Z</time>
      </trkpt>
      <trkpt lat="46.05139" lon="4.74534">
        <ele>196.8</ele>
        <time>2024-09-19T13:00:17Z</time>
      </trkpt>
      <trkpt lat="46.05135" lon="4.74525">
        <ele>196.8</ele>
        <time>2024-09-19T13:00:18Z</time>
      </trkpt>
      <trkpt lat="46.05133" lon="4.74522">
        <ele>196.8</ele>
        <time>2024-09-19T13:00:19Z</time>
      </trkpt>
      <trkpt lat="46.05129" lon="4.74513">
        <ele>196.6</ele>
        <time>2024-09-19T13:00:20Z</time>
      </trkpt>
      <trkpt lat="46.05128" lon="4.74511">
        <ele>196.6</ele>
        <time>2024-09-19T13:00:21Z</time>
      </trkpt>
      <trkpt lat="46.05124" lon="4.74503">
        <ele>196.6</ele>
        <time>2024-09-19T13:00:22Z</time>
      </trkpt>
      <trkpt lat="46.05123" lon="4.745">
        <ele>196.8</ele>
        <time>2024-09-19T13:00:23Z</time>
      </trkpt>
      <trkpt lat="46.05118" lon="4.74492">
        <ele>196.8</ele>
        <time>2024-09-19T13:00:24Z</time>
      </trkpt>
      <trkpt lat="46.05117" lon="4.74489">
        <ele>196.8</ele>
        <time>2024-09-19T13:00:25Z</time>
      </trkpt>
      <trkpt lat="46.05114" lon="4.74483">
        <ele>196.8</ele>
        <time>2024-09-19T13:00:26Z</time>
      </trkpt>
      <trkpt lat="46.0511" lon="4.74475">
        <ele>196.8</ele>
        <time>2024-09-19T13:00:27Z</time>
      </trkpt>
      <trkpt lat="46.05108" lon="4.74472">
        <ele>196.8</ele>
        <time>2024-09-19T13:00:28Z</time>
      </trkpt>
      <trkpt lat="46.05104" lon="4.74463">
        <ele>196.4</ele>
        <time>2024-09-19T13:00:29Z</time>
      </trkpt>
      <trkpt lat="46.05102" lon="4.7446">
        <ele>196.4</ele>
        <time>2024-09-19T13:00:30Z</time>
      </trkpt>
      <trkpt lat="46.05098" lon="4.74451">
        <ele>196.4</ele>
        <time>2024-09-19T13:00:31Z</time>
      </trkpt>
      <trkpt lat="46.05096" lon="4.74448">
        <ele>196.4</ele>
        <time>2024-09-19T13:00:32Z</time>
      </trkpt>
      <trkpt lat="46.05092" lon="4.74439">
        <ele>197</ele>
        <time>2024-09-19T13:00:33Z</time>
      </trkpt>
      <trkpt lat="46.0509" lon="4.74436">
        <ele>197</ele>
        <time>2024-09-19T13:00:34Z</time>
      </trkpt>
      <trkpt lat="46.05087" lon="4.7443">
        <ele>197</ele>
        <time>2024-09-19T13:00:35Z</time>
      </trkpt>
      <trkpt lat="46.05084" lon="4.74424">
        <ele>196.6</ele>
        <time>2024-09-19T13:00:36Z</time>
      </trkpt>
      <trkpt lat="46.05079" lon="4.74415">
        <ele>196.6</ele>
        <time>2024-09-19T13:00:37Z</time>
      </trkpt>
      <trkpt lat="46.05078" lon="4.74413">
        <ele>196.6</ele>
        <time>2024-09-19T13:00:38Z</time>
      </trkpt>
      <trkpt lat="46.05074" lon="4.74407">
        <ele>196.6</ele>
        <time>2024-09-19T13:00:39Z</time>
      </trkpt>
      <trkpt lat="46.0507" lon="4.74398">
        <ele>196.6</ele>
        <time>2024-09-19T13:00:40Z</time>
      </trkpt>
      <trkpt lat="46.05068" lon="4.74395">
        <ele>196.6</ele>
        <time>2024-09-19T13:00:41Z</time>
      </trkpt>
      <trkpt lat="46.05063" lon="4.74387">
        <ele>196.8</ele>
        <time>2024-09-19T13:00:42Z</time>
      </trkpt>
      <trkpt lat="46.05062" lon="4.74384">
        <ele>196.8</ele>
        <time>2024-09-19T13:00:43Z</time>
      </trkpt>
      <trkpt lat="46.05059" lon="4.74378">
        <ele>196.8</ele>
        <time>2024-09-19T13:00:44Z</time>
      </trkpt>
      <trkpt lat="46.05056" lon="4.74372">
        <ele>196.8</ele>
        <time>2024-09-19T13:00:45Z</time>
      </trkpt>
      <trkpt lat="46.05053" lon="4.74367">
        <ele>196.8</ele>
        <time>2024-09-19T13:00:46Z</time>
      </trkpt>
      <trkpt lat="46.05049" lon="4.74359">
        <ele>196.8</ele>
        <time>2024-09-19T13:00:47Z</time>
      </trkpt>
      <trkpt lat="46.05048" lon="4.74356">
        <ele>196.8</ele>
        <time>2024-09-19T13:00:48Z</time>
      </trkpt>
      <trkpt lat="46.05043" lon="4.7435">
        <ele>196.8</ele>
        <time>2024-09-19T13:00:49Z</time>
      </trkpt>
      <trkpt lat="46.05041" lon="4.74348">
        <ele>196.8</ele>
        <time>2024-09-19T13:00:50Z</time>
      </trkpt>
      <trkpt lat="46.05038" lon="4.74343">
        <ele>197</ele>
        <time>2024-09-19T13:00:51Z</time>
      </trkpt>
      <trkpt lat="46.05035" lon="4.74339">
        <ele>197</ele>
        <time>2024-09-19T13:00:52Z</time>
      </trkpt>
      <trkpt lat="46.05032" lon="4.74335">
        <ele>197</ele>
        <time>2024-09-19T13:00:53Z</time>
      </trkpt>
      <trkpt lat="46.05028" lon="4.7433">
        <ele>197</ele>
        <time>2024-09-19T13:00:54Z</time>
      </trkpt>
      <trkpt lat="46.05023" lon="4.74324">
        <ele>196.6</ele>
        <time>2024-09-19T13:00:55Z</time>
      </trkpt>
      <trkpt lat="46.05021" lon="4.74322">
        <ele>196.6</ele>
        <time>2024-09-19T13:00:56Z</time>
      </trkpt>
      <trkpt lat="46.05016" lon="4.74315">
        <ele>196.6</ele>
        <time>2024-09-19T13:00:57Z</time>
      </trkpt>
      <trkpt lat="46.05014" lon="4.74313">
        <ele>196.8</ele>
        <time>2024-09-19T13:00:58Z</time>
      </trkpt>
      <trkpt lat="46.05009" lon="4.74306">
        <ele>196.8</ele>
        <time>2024-09-19T13:00:59Z</time>
      </trkpt>
      <trkpt lat="46.05007" lon="4.74304">
        <ele>196.8</ele>
        <time>2024-09-19T13:01:00Z</time>
      </trkpt>
      <trkpt lat="46.05002" lon="4.74297">
        <ele>196.8</ele>
        <time>2024-09-19T13:01:01Z</time>
      </trkpt>
      <trkpt lat="46.05" lon="4.74295">
        <ele>196.8</ele>
        <time>2024-09-19T13:01:02Z</time>
      </trkpt>
      <trkpt lat="46.04996" lon="4.7429">
        <ele>196.8</ele>
        <time>2024-09-19T13:01:03Z</time>
      </trkpt>
      <trkpt lat="46.04992" lon="4.74286">
        <ele>197</ele>
        <time>2024-09-19T13:01:04Z</time>
      </trkpt>
      <trkpt lat="46.04988" lon="4.74282">
        <ele>197</ele>
        <time>2024-09-19T13:01:05Z</time>
      </trkpt>
      <trkpt lat="46.04984" lon="4.74277">
        <ele>197</ele>
        <time>2024-09-19T13:01:06Z</time>
      </trkpt>
      <trkpt lat="46.04978" lon="4.74271">
        <ele>197</ele>
        <time>2024-09-19T13:01:07Z</time>
      </trkpt>
      <trkpt lat="46.04976" lon="4.7427">
        <ele>197</ele>
        <time>2024-09-19T13:01:08Z</time>
      </trkpt>
      <trkpt lat="46.04972" lon="4.74266">
        <ele>197</ele>
        <time>2024-09-19T13:01:09Z</time>
      </trkpt>
      <trkpt lat="46.04967" lon="4.74261">
        <ele>197</ele>
        <time>2024-09-19T13:01:10Z</time>
      </trkpt>
      <trkpt lat="46.04965" lon="4.74259">
        <ele>197</ele>
        <time>2024-09-19T13:01:11Z</time>
      </trkpt>
      <trkpt lat="46.0496" lon="4.74254">
        <ele>197</ele>
        <time>2024-09-19T13:01:12Z</time>
      </trkpt>
      <trkpt lat="46.04958" lon="4.74252">
        <ele>196.8</ele>
        <time>2024-09-19T13:01:13Z</time>
      </trkpt>
      <trkpt lat="46.04953" lon="4.74247">
        <ele>196.8</ele>
        <time>2024-09-19T13:01:14Z</time>
      </trkpt>
      <trkpt lat="46.04951" lon="4.74245">
        <ele>196.8</ele>
        <time>2024-09-19T13:01:15Z</time>
      </trkpt>
      <trkpt lat="46.04946" lon="4.7424">
        <ele>196.8</ele>
        <time>2024-09-19T13:01:16Z</time>
      </trkpt>
      <trkpt lat="46.04944" lon="4.74239">
        <ele>196.8</ele>
        <time>2024-09-19T13:01:17Z</time>
      </trkpt>
      <trkpt lat="46.04939" lon="4.74233">
        <ele>197</ele>
        <time>2024-09-19T13:01:18Z</time>
      </trkpt>
      <trkpt lat="46.04937" lon="4.74232">
        <ele>197</ele>
        <time>2024-09-19T13:01:19Z</time>
      </trkpt>
      <trkpt lat="46.04931" lon="4.74226">
        <ele>197</ele>
        <time>2024-09-19T13:01:20Z</time>
      </trkpt>
      <trkpt lat="46.04929" lon="4.74225">
        <ele>197</ele>
        <time>2024-09-19T13:01:21Z</time>
      </trkpt>
      <trkpt lat="46.04922" lon="4.74219">
        <ele>196.8</ele>
        <time>2024-09-19T13:01:22Z</time>
      </trkpt>
      <trkpt lat="46.0492" lon="4.74217">
        <ele>196.8</ele>
        <time>2024-09-19T13:01:23Z</time>
      </trkpt>
      <trkpt lat="46.04914" lon="4.74211">
        <ele>196.8</ele>
        <time>2024-09-19T13:01:24Z</time>
      </trkpt>
      <trkpt lat="46.04912" lon="4.74209">
        <ele>196.8</ele>
        <time>2024-09-19T13:01:25Z</time>
      </trkpt>
      <trkpt lat="46.04908" lon="4.74205">
        <ele>196.8</ele>
        <time>2024-09-19T13:01:26Z</time>
      </trkpt>
      <trkpt lat="46.04904" lon="4.74202">
        <ele>196.8</ele>
        <time>2024-09-19T13:01:27Z</time>
      </trkpt>
      <trkpt lat="46.049" lon="4.74198">
        <ele>196.8</ele>
        <time>2024-09-19T13:01:28Z</time>
      </trkpt>
      <trkpt lat="46.04896" lon="4.74194">
        <ele>196.8</ele>
        <time>2024-09-19T13:01:29Z</time>
      </trkpt>
      <trkpt lat="46.04892" lon="4.7419">
        <ele>196.8</ele>
        <time>2024-09-19T13:01:30Z</time>
      </trkpt>
      <trkpt lat="46.04888" lon="4.74186">
        <ele>197.2</ele>
        <time>2024-09-19T13:01:31Z</time>
      </trkpt>
      <trkpt lat="46.04884" lon="4.74181">
        <ele>197.2</ele>
        <time>2024-09-19T13:01:32Z</time>
      </trkpt>
      <trkpt lat="46.0488" lon="4.74178">
        <ele>197.2</ele>
        <time>2024-09-19T13:01:33Z</time>
      </trkpt>
      <trkpt lat="46.04876" lon="4.74174">
        <ele>196.6</ele>
        <time>2024-09-19T13:01:34Z</time>
      </trkpt>
      <trkpt lat="46.04872" lon="4.7417">
        <ele>196.6</ele>
        <time>2024-09-19T13:01:35Z</time>
      </trkpt>
      <trkpt lat="46.04868" lon="4.74167">
        <ele>196.8</ele>
        <time>2024-09-19T13:01:36Z</time>
      </trkpt>
      <trkpt lat="46.04863" lon="4.74163">
        <ele>196.8</ele>
        <time>2024-09-19T13:01:37Z</time>
      </trkpt>
      <trkpt lat="46.04857" lon="4.74158">
        <ele>196.8</ele>
        <time>2024-09-19T13:01:38Z</time>
      </trkpt>
      <trkpt lat="46.04855" lon="4.74157">
        <ele>197</ele>
        <time>2024-09-19T13:01:39Z</time>
      </trkpt>
      <trkpt lat="46.04849" lon="4.74151">
        <ele>197</ele>
        <time>2024-09-19T13:01:40Z</time>
      </trkpt>
      <trkpt lat="46.04847" lon="4.74149">
        <ele>197</ele>
        <time>2024-09-19T13:01:41Z</time>
      </trkpt>
      <trkpt lat="46.04841" lon="4.74144">
        <ele>197</ele>
        <time>2024-09-19T13:01:42Z</time>
      </trkpt>
      <trkpt lat="46.04838" lon="4.74143">
        <ele>197</ele>
        <time>2024-09-19T13:01:43Z</time>
      </trkpt>
      <trkpt lat="46.04832" lon="4.74139">
        <ele>197</ele>
        <time>2024-09-19T13:01:44Z</time>
      </trkpt>
      <trkpt lat="46.04829" lon="4.74138">
        <ele>197</ele>
        <time>2024-09-19T13:01:45Z</time>
      </trkpt>
      <trkpt lat="46.04823" lon="4.74135">
        <ele>197</ele>
        <time>2024-09-19T13:01:46Z</time>
      </trkpt>
      <trkpt lat="46.0482" lon="4.74134">
        <ele>196.6</ele>
        <time>2024-09-19T13:01:47Z</time>
      </trkpt>
      <trkpt lat="46.04814" lon="4.7413">
        <ele>197</ele>
        <time>2024-09-19T13:01:48Z</time>
      </trkpt>
      <trkpt lat="46.04811" lon="4.74129">
        <ele>197</ele>
        <time>2024-09-19T13:01:49Z</time>
      </trkpt>
      <trkpt lat="46.04804" lon="4.74125">
        <ele>197</ele>
        <time>2024-09-19T13:01:50Z</time>
      </trkpt>
      <trkpt lat="46.04802" lon="4.74124">
        <ele>197</ele>
        <time>2024-09-19T13:01:51Z</time>
      </trkpt>
      <trkpt lat="46.04796" lon="4.7412">
        <ele>197</ele>
        <time>2024-09-19T13:01:52Z</time>
      </trkpt>
      <trkpt lat="46.04794" lon="4.74118">
        <ele>197.4</ele>
        <time>2024-09-19T13:01:53Z</time>
      </trkpt>
      <trkpt lat="46.04787" lon="4.74114">
        <ele>197.4</ele>
        <time>2024-09-19T13:01:54Z</time>
      </trkpt>
      <trkpt lat="46.04785" lon="4.74112">
        <ele>197.4</ele>
        <time>2024-09-19T13:01:55Z</time>
      </trkpt>
      <trkpt lat="46.04778" lon="4.74108">
        <ele>197.4</ele>
        <time>2024-09-19T13:01:56Z</time>
      </trkpt>
      <trkpt lat="46.04776" lon="4.74106">
        <ele>196.8</ele>
        <time>2024-09-19T13:01:57Z</time>
      </trkpt>
      <trkpt lat="46.04771" lon="4.74103">
        <ele>196.8</ele>
        <time>2024-09-19T13:01:58Z</time>
      </trkpt>
      <trkpt lat="46.04765" lon="4.74099">
        <ele>197</ele>
        <time>2024-09-19T13:01:59Z</time>
      </trkpt>
      <trkpt lat="46.04762" lon="4.74098">
        <ele>197</ele>
        <time>2024-09-19T13:02:00Z</time>
      </trkpt>
      <trkpt lat="46.04755" lon="4.74094">
        <ele>197</ele>
        <time>2024-09-19T13:02:01Z</time>
      </trkpt>
      <trkpt lat="46.04753" lon="4.74093">
        <ele>196.8</ele>
        <time>2024-09-19T13:02:02Z</time>
      </trkpt>
      <trkpt lat="46.04746" lon="4.7409">
        <ele>196.8</ele>
        <time>2024-09-19T13:02:03Z</time>
      </trkpt>
      <trkpt lat="46.04743" lon="4.7409">
        <ele>196.8</ele>
        <time>2024-09-19T13:02:04Z</time>
      </trkpt>
      <trkpt lat="46.04738" lon="4.74089">
        <ele>196.8</ele>
        <time>2024-09-19T13:02:05Z</time>
      </trkpt>
      <trkpt lat="46.04731" lon="4.74087">
        <ele>196.8</ele>
        <time>2024-09-19T13:02:06Z</time>
      </trkpt>
      <trkpt lat="46.04728" lon="4.74087">
        <ele>196.8</ele>
        <time>2024-09-19T13:02:07Z</time>
      </trkpt>
      <trkpt lat="46.04724" lon="4.74086">
        <ele>196.8</ele>
        <time>2024-09-19T13:02:08Z</time>
      </trkpt>
      <trkpt lat="46.04719" lon="4.74085">
        <ele>196.8</ele>
        <time>2024-09-19T13:02:09Z</time>
      </trkpt>
      <trkpt lat="46.04714" lon="4.74084">
        <ele>196.8</ele>
        <time>2024-09-19T13:02:10Z</time>
      </trkpt>
      <trkpt lat="46.04708" lon="4.74084">
        <ele>196.8</ele>
        <time>2024-09-19T13:02:11Z</time>
      </trkpt>
      <trkpt lat="46.04703" lon="4.74084">
        <ele>196.8</ele>
        <time>2024-09-19T13:02:12Z</time>
      </trkpt>
      <trkpt lat="46.04698" lon="4.74083">
        <ele>196.8</ele>
        <time>2024-09-19T13:02:13Z</time>
      </trkpt>
      <trkpt lat="46.04693" lon="4.74083">
        <ele>196.8</ele>
        <time>2024-09-19T13:02:14Z</time>
      </trkpt>
      <trkpt lat="46.04688" lon="4.74082">
        <ele>196.8</ele>
        <time>2024-09-19T13:02:15Z</time>
      </trkpt>
      <trkpt lat="46.04681" lon="4.74082">
        <ele>197</ele>
        <time>2024-09-19T13:02:16Z</time>
      </trkpt>
      <trkpt lat="46.04679" lon="4.74082">
        <ele>197</ele>
        <time>2024-09-19T13:02:17Z</time>
      </trkpt>
      <trkpt lat="46.04674" lon="4.74081">
        <ele>197</ele>
        <time>2024-09-19T13:02:18Z</time>
      </trkpt>
      <trkpt lat="46.04669" lon="4.74082">
        <ele>197</ele>
        <time>2024-09-19T13:02:19Z</time>
      </trkpt>
      <trkpt lat="46.04664" lon="4.74081">
        <ele>197.2</ele>
        <time>2024-09-19T13:02:20Z</time>
      </trkpt>
      <trkpt lat="46.0466" lon="4.74081">
        <ele>197.2</ele>
        <time>2024-09-19T13:02:21Z</time>
      </trkpt>
      <trkpt lat="46.04655" lon="4.7408">
        <ele>197.2</ele>
        <time>2024-09-19T13:02:22Z</time>
      </trkpt>
      <trkpt lat="46.04648" lon="4.74079">
        <ele>197.2</ele>
        <time>2024-09-19T13:02:23Z</time>
      </trkpt>
      <trkpt lat="46.04645" lon="4.74079">
        <ele>197.2</ele>
        <time>2024-09-19T13:02:24Z</time>
      </trkpt>
      <trkpt lat="46.04638" lon="4.7408">
        <ele>196.8</ele>
        <time>2024-09-19T13:02:25Z</time>
      </trkpt>
      <trkpt lat="46.04636" lon="4.7408">
        <ele>196.8</ele>
        <time>2024-09-19T13:02:26Z</time>
      </trkpt>
      <trkpt lat="46.04631" lon="4.74081">
        <ele>196.8</ele>
        <time>2024-09-19T13:02:27Z</time>
      </trkpt>
      <trkpt lat="46.04627" lon="4.74083">
        <ele>197</ele>
        <time>2024-09-19T13:02:28Z</time>
      </trkpt>
      <trkpt lat="46.04622" lon="4.74084">
        <ele>196.6</ele>
        <time>2024-09-19T13:02:29Z</time>
      </trkpt>
      <trkpt lat="46.04618" lon="4.74084">
        <ele>196.6</ele>
        <time>2024-09-19T13:02:30Z</time>
      </trkpt>
      <trkpt lat="46.04613" lon="4.74085">
        <ele>196.6</ele>
        <time>2024-09-19T13:02:31Z</time>
      </trkpt>
      <trkpt lat="46.04609" lon="4.74086">
        <ele>196.6</ele>
        <time>2024-09-19T13:02:32Z</time>
      </trkpt>
      <trkpt lat="46.04604" lon="4.74087">
        <ele>196.6</ele>
        <time>2024-09-19T13:02:33Z</time>
      </trkpt>
      <trkpt lat="46.04599" lon="4.74088">
        <ele>197</ele>
        <time>2024-09-19T13:02:34Z</time>
      </trkpt>
      <trkpt lat="46.04592" lon="4.74089">
        <ele>197</ele>
        <time>2024-09-19T13:02:35Z</time>
      </trkpt>
      <trkpt lat="46.04589" lon="4.7409">
        <ele>197</ele>
        <time>2024-09-19T13:02:36Z</time>
      </trkpt>
      <trkpt lat="46.04582" lon="4.74092">
        <ele>196.6</ele>
        <time>2024-09-19T13:02:37Z</time>
      </trkpt>
      <trkpt lat="46.0458" lon="4.74092">
        <ele>196.6</ele>
        <time>2024-09-19T13:02:38Z</time>
      </trkpt>
      <trkpt lat="46.04572" lon="4.74095">
        <ele>197</ele>
        <time>2024-09-19T13:02:39Z</time>
      </trkpt>
      <trkpt lat="46.0457" lon="4.74095">
        <ele>197</ele>
        <time>2024-09-19T13:02:40Z</time>
      </trkpt>
      <trkpt lat="46.04563" lon="4.74097">
        <ele>197</ele>
        <time>2024-09-19T13:02:41Z</time>
      </trkpt>
      <trkpt lat="46.0456" lon="4.74098">
        <ele>196.6</ele>
        <time>2024-09-19T13:02:42Z</time>
      </trkpt>
      <trkpt lat="46.04555" lon="4.74099">
        <ele>196.6</ele>
        <time>2024-09-19T13:02:43Z</time>
      </trkpt>
      <trkpt lat="46.0455" lon="4.74101">
        <ele>196.6</ele>
        <time>2024-09-19T13:02:44Z</time>
      </trkpt>
      <trkpt lat="46.04545" lon="4.74102">
        <ele>196.6</ele>
        <time>2024-09-19T13:02:45Z</time>
      </trkpt>
      <trkpt lat="46.04538" lon="4.74104">
        <ele>196.6</ele>
        <time>2024-09-19T13:02:46Z</time>
      </trkpt>
      <trkpt lat="46.04535" lon="4.74105">
        <ele>196.6</ele>
        <time>2024-09-19T13:02:47Z</time>
      </trkpt>
      <trkpt lat="46.0453" lon="4.74106">
        <ele>196.6</ele>
        <time>2024-09-19T13:02:48Z</time>
      </trkpt>
      <trkpt lat="46.04523" lon="4.74109">
        <ele>196.6</ele>
        <time>2024-09-19T13:02:49Z</time>
      </trkpt>
      <trkpt lat="46.0452" lon="4.7411">
        <ele>196.6</ele>
        <time>2024-09-19T13:02:50Z</time>
      </trkpt>
      <trkpt lat="46.04514" lon="4.74113">
        <ele>197</ele>
        <time>2024-09-19T13:02:51Z</time>
      </trkpt>
      <trkpt lat="46.04512" lon="4.74114">
        <ele>196.6</ele>
        <time>2024-09-19T13:02:52Z</time>
      </trkpt>
      <trkpt lat="46.04504" lon="4.74118">
        <ele>196.6</ele>
        <time>2024-09-19T13:02:53Z</time>
      </trkpt>
      <trkpt lat="46.04502" lon="4.74119">
        <ele>196.6</ele>
        <time>2024-09-19T13:02:54Z</time>
      </trkpt>
      <trkpt lat="46.04495" lon="4.74122">
        <ele>196.6</ele>
        <time>2024-09-19T13:02:55Z</time>
      </trkpt>
      <trkpt lat="46.04493" lon="4.74123">
        <ele>197</ele>
        <time>2024-09-19T13:02:56Z</time>
      </trkpt>
      <trkpt lat="46.04487" lon="4.74127">
        <ele>197</ele>
        <time>2024-09-19T13:02:57Z</time>
      </trkpt>
      <trkpt lat="46.04484" lon="4.74129">
        <ele>197</ele>
        <time>2024-09-19T13:02:58Z</time>
      </trkpt>
      <trkpt lat="46.04478" lon="4.74133">
        <ele>197</ele>
        <time>2024-09-19T13:02:59Z</time>
      </trkpt>
      <trkpt lat="46.04475" lon="4.74134">
        <ele>197.4</ele>
        <time>2024-09-19T13:03:00Z</time>
      </trkpt>
      <trkpt lat="46.04471" lon="4.74137">
        <ele>197.4</ele>
        <time>2024-09-19T13:03:01Z</time>
      </trkpt>
      <trkpt lat="46.04467" lon="4.74139">
        <ele>197.4</ele>
        <time>2024-09-19T13:03:02Z</time>
      </trkpt>
      <trkpt lat="46.04463" lon="4.74141">
        <ele>197.4</ele>
        <time>2024-09-19T13:03:03Z</time>
      </trkpt>
      <trkpt lat="46.04459" lon="4.74144">
        <ele>197</ele>
        <time>2024-09-19T13:03:04Z</time>
      </trkpt>
      <trkpt lat="46.04454" lon="4.74147">
        <ele>197.2</ele>
        <time>2024-09-19T13:03:05Z</time>
      </trkpt>
      <trkpt lat="46.0445" lon="4.74149">
        <ele>197.2</ele>
        <time>2024-09-19T13:03:06Z</time>
      </trkpt>
      <trkpt lat="46.04444" lon="4.74154">
        <ele>197.2</ele>
        <time>2024-09-19T13:03:07Z</time>
      </trkpt>
      <trkpt lat="46.04441" lon="4.74155">
        <ele>197.2</ele>
        <time>2024-09-19T13:03:08Z</time>
      </trkpt>
      <trkpt lat="46.04437" lon="4.74158">
        <ele>197.2</ele>
        <time>2024-09-19T13:03:09Z</time>
      </trkpt>
      <trkpt lat="46.04433" lon="4.74161">
        <ele>197.2</ele>
        <time>2024-09-19T13:03:10Z</time>
      </trkpt>
      <trkpt lat="46.04429" lon="4.74164">
        <ele>197.2</ele>
        <time>2024-09-19T13:03:11Z</time>
      </trkpt>
      <trkpt lat="46.04424" lon="4.74167">
        <ele>197.6</ele>
        <time>2024-09-19T13:03:12Z</time>
      </trkpt>
      <trkpt lat="46.0442" lon="4.74169">
        <ele>197.4</ele>
        <time>2024-09-19T13:03:13Z</time>
      </trkpt>
      <trkpt lat="46.04414" lon="4.74172">
        <ele>197.4</ele>
        <time>2024-09-19T13:03:14Z</time>
      </trkpt>
      <trkpt lat="46.04412" lon="4.74173">
        <ele>197.4</ele>
        <time>2024-09-19T13:03:15Z</time>
      </trkpt>
      <trkpt lat="46.04407" lon="4.74176">
        <ele>197.4</ele>
        <time>2024-09-19T13:03:16Z</time>
      </trkpt>
      <trkpt lat="46.04403" lon="4.74179">
        <ele>197.4</ele>
        <time>2024-09-19T13:03:17Z</time>
      </trkpt>
      <trkpt lat="46.04396" lon="4.74183">
        <ele>197.4</ele>
        <time>2024-09-19T13:03:18Z</time>
      </trkpt>
      <trkpt lat="46.04394" lon="4.74185">
        <ele>197.4</ele>
        <time>2024-09-19T13:03:19Z</time>
      </trkpt>
      <trkpt lat="46.04389" lon="4.74188">
        <ele>197.4</ele>
        <time>2024-09-19T13:03:20Z</time>
      </trkpt>
      <trkpt lat="46.04383" lon="4.74192">
        <ele>197.4</ele>
        <time>2024-09-19T13:03:21Z</time>
      </trkpt>
      <trkpt lat="46.0438" lon="4.74193">
        <ele>197.4</ele>
        <time>2024-09-19T13:03:22Z</time>
      </trkpt>
      <trkpt lat="46.04374" lon="4.74197">
        <ele>197.6</ele>
        <time>2024-09-19T13:03:23Z</time>
      </trkpt>
      <trkpt lat="46.04371" lon="4.74199">
        <ele>197.6</ele>
        <time>2024-09-19T13:03:24Z</time>
      </trkpt>
      <trkpt lat="46.04367" lon="4.74202">
        <ele>197.6</ele>
        <time>2024-09-19T13:03:25Z</time>
      </trkpt>
      <trkpt lat="46.04363" lon="4.74205">
        <ele>197.4</ele>
        <time>2024-09-19T13:03:26Z</time>
      </trkpt>
      <trkpt lat="46.04359" lon="4.74208">
        <ele>197.4</ele>
        <time>2024-09-19T13:03:27Z</time>
      </trkpt>
      <trkpt lat="46.04355" lon="4.74212">
        <ele>197.4</ele>
        <time>2024-09-19T13:03:28Z</time>
      </trkpt>
      <trkpt lat="46.04351" lon="4.74215">
        <ele>197.4</ele>
        <time>2024-09-19T13:03:29Z</time>
      </trkpt>
      <trkpt lat="46.04345" lon="4.7422">
        <ele>197.4</ele>
        <time>2024-09-19T13:03:30Z</time>
      </trkpt>
      <trkpt lat="46.04343" lon="4.74222">
        <ele>197.4</ele>
        <time>2024-09-19T13:03:31Z</time>
      </trkpt>
      <trkpt lat="46.04337" lon="4.74226">
        <ele>197.4</ele>
        <time>2024-09-19T13:03:32Z</time>
      </trkpt>
      <trkpt lat="46.04335" lon="4.74227">
        <ele>197.4</ele>
        <time>2024-09-19T13:03:33Z</time>
      </trkpt>
      <trkpt lat="46.04329" lon="4.74232">
        <ele>197.4</ele>
        <time>2024-09-19T13:03:34Z</time>
      </trkpt>
      <trkpt lat="46.04327" lon="4.74234">
        <ele>197.4</ele>
        <time>2024-09-19T13:03:35Z</time>
      </trkpt>
      <trkpt lat="46.04323" lon="4.74237">
        <ele>197.4</ele>
        <time>2024-09-19T13:03:36Z</time>
      </trkpt>
      <trkpt lat="46.04318" lon="4.7424">
        <ele>197.4</ele>
        <time>2024-09-19T13:03:37Z</time>
      </trkpt>
      <trkpt lat="46.04314" lon="4.74244">
        <ele>197.4</ele>
        <time>2024-09-19T13:03:38Z</time>
      </trkpt>
      <trkpt lat="46.0431" lon="4.74247">
        <ele>197.4</ele>
        <time>2024-09-19T13:03:39Z</time>
      </trkpt>
      <trkpt lat="46.04305" lon="4.74251">
        <ele>197.6</ele>
        <time>2024-09-19T13:03:40Z</time>
      </trkpt>
      <trkpt lat="46.04301" lon="4.74254">
        <ele>197.6</ele>
        <time>2024-09-19T13:03:41Z</time>
      </trkpt>
      <trkpt lat="46.04297" lon="4.74258">
        <ele>197.6</ele>
        <time>2024-09-19T13:03:42Z</time>
      </trkpt>
      <trkpt lat="46.04293" lon="4.74261">
        <ele>197.6</ele>
        <time>2024-09-19T13:03:43Z</time>
      </trkpt>
      <trkpt lat="46.04289" lon="4.74265">
        <ele>197.4</ele>
        <time>2024-09-19T13:03:44Z</time>
      </trkpt>
      <trkpt lat="46.04284" lon="4.74269">
        <ele>197.4</ele>
        <time>2024-09-19T13:03:45Z</time>
      </trkpt>
      <trkpt lat="46.0428" lon="4.74272">
        <ele>197.4</ele>
        <time>2024-09-19T13:03:46Z</time>
      </trkpt>
      <trkpt lat="46.04276" lon="4.74276">
        <ele>197.4</ele>
        <time>2024-09-19T13:03:47Z</time>
      </trkpt>
      <trkpt lat="46.0427" lon="4.74281">
        <ele>197.2</ele>
        <time>2024-09-19T13:03:48Z</time>
      </trkpt>
      <trkpt lat="46.04268" lon="4.74282">
        <ele>197.4</ele>
        <time>2024-09-19T13:03:49Z</time>
      </trkpt>
      <trkpt lat="46.04264" lon="4.74286">
        <ele>197.4</ele>
        <time>2024-09-19T13:03:50Z</time>
      </trkpt>
      <trkpt lat="46.04259" lon="4.7429">
        <ele>197.4</ele>
        <time>2024-09-19T13:03:51Z</time>
      </trkpt>
      <trkpt lat="46.04255" lon="4.74293">
        <ele>197.4</ele>
        <time>2024-09-19T13:03:52Z</time>
      </trkpt>
      <trkpt lat="46.04251" lon="4.74297">
        <ele>197.4</ele>
        <time>2024-09-19T13:03:53Z</time>
      </trkpt>
      <trkpt lat="46.04247" lon="4.74301">
        <ele>197.4</ele>
        <time>2024-09-19T13:03:54Z</time>
      </trkpt>
      <trkpt lat="46.04243" lon="4.74305">
        <ele>197.4</ele>
        <time>2024-09-19T13:03:55Z</time>
      </trkpt>
      <trkpt lat="46.04239" lon="4.74309">
        <ele>197.4</ele>
        <time>2024-09-19T13:03:56Z</time>
      </trkpt>
      <trkpt lat="46.04233" lon="4.74315">
        <ele>197.4</ele>
        <time>2024-09-19T13:03:57Z</time>
      </trkpt>
      <trkpt lat="46.04231" lon="4.74317">
        <ele>197.4</ele>
        <time>2024-09-19T13:03:58Z</time>
      </trkpt>
      <trkpt lat="46.04227" lon="4.74321">
        <ele>197.4</ele>
        <time>2024-09-19T13:03:59Z</time>
      </trkpt>
      <trkpt lat="46.04223" lon="4.74325">
        <ele>197.4</ele>
        <time>2024-09-19T13:04:00Z</time>
      </trkpt>
      <trkpt lat="46.04217" lon="4.74331">
        <ele>197.4</ele>
        <time>2024-09-19T13:04:01Z</time>
      </trkpt>
      <trkpt lat="46.04215" lon="4.74333">
        <ele>197.4</ele>
        <time>2024-09-19T13:04:02Z</time>
      </trkpt>
      <trkpt lat="46.04209" lon="4.74339">
        <ele>197.4</ele>
        <time>2024-09-19T13:04:03Z</time>
      </trkpt>
      <trkpt lat="46.04207" lon="4.74342">
        <ele>197.4</ele>
        <time>2024-09-19T13:04:04Z</time>
      </trkpt>
      <trkpt lat="46.04202" lon="4.74348">
        <ele>197.4</ele>
        <time>2024-09-19T13:04:05Z</time>
      </trkpt>
      <trkpt lat="46.042" lon="4.7435">
        <ele>197.4</ele>
        <time>2024-09-19T13:04:06Z</time>
      </trkpt>
      <trkpt lat="46.04194" lon="4.74357">
        <ele>197.4</ele>
        <time>2024-09-19T13:04:07Z</time>
      </trkpt>
      <trkpt lat="46.04192" lon="4.74359">
        <ele>197.4</ele>
        <time>2024-09-19T13:04:08Z</time>
      </trkpt>
      <trkpt lat="46.04188" lon="4.74366">
        <ele>197.4</ele>
        <time>2024-09-19T13:04:09Z</time>
      </trkpt>
      <trkpt lat="46.04187" lon="4.74369">
        <ele>197.4</ele>
        <time>2024-09-19T13:04:10Z</time>
      </trkpt>
      <trkpt lat="46.04184" lon="4.74378">
        <ele>197.4</ele>
        <time>2024-09-19T13:04:11Z</time>
      </trkpt>
      <trkpt lat="46.04183" lon="4.74381">
        <ele>197.4</ele>
        <time>2024-09-19T13:04:12Z</time>
      </trkpt>
      <trkpt lat="46.04182" lon="4.74386">
        <ele>197.4</ele>
        <time>2024-09-19T13:04:13Z</time>
      </trkpt>
      <trkpt lat="46.04179" lon="4.74391">
        <ele>197.4</ele>
        <time>2024-09-19T13:04:14Z</time>
      </trkpt>
      <trkpt lat="46.04176" lon="4.74395">
        <ele>197.4</ele>
        <time>2024-09-19T13:04:15Z</time>
      </trkpt>
      <trkpt lat="46.0417" lon="4.74398">
        <ele>197.4</ele>
        <time>2024-09-19T13:04:16Z</time>
      </trkpt>
      <trkpt lat="46.04168" lon="4.74399">
        <ele>197.4</ele>
        <time>2024-09-19T13:04:17Z</time>
      </trkpt>
      <trkpt lat="46.04162" lon="4.74401">
        <ele>197.4</ele>
        <time>2024-09-19T13:04:18Z</time>
      </trkpt>
      <trkpt lat="46.0416" lon="4.74402">
        <ele>197.4</ele>
        <time>2024-09-19T13:04:19Z</time>
      </trkpt>
      <trkpt lat="46.04156" lon="4.74405">
        <ele>197.4</ele>
        <time>2024-09-19T13:04:20Z</time>
      </trkpt>
      <trkpt lat="46.04152" lon="4.74407">
        <ele>197.4</ele>
        <time>2024-09-19T13:04:21Z</time>
      </trkpt>
      <trkpt lat="46.04147" lon="4.74409">
        <ele>197.4</ele>
        <time>2024-09-19T13:04:22Z</time>
      </trkpt>
      <trkpt lat="46.04141" lon="4.74413">
        <ele>197.4</ele>
        <time>2024-09-19T13:04:23Z</time>
      </trkpt>
      <trkpt lat="46.04139" lon="4.74415">
        <ele>196.8</ele>
        <time>2024-09-19T13:04:24Z</time>
      </trkpt>
      <trkpt lat="46.04134" lon="4.74418">
        <ele>197</ele>
        <time>2024-09-19T13:04:25Z</time>
      </trkpt>
      <trkpt lat="46.0413" lon="4.74421">
        <ele>197</ele>
        <time>2024-09-19T13:04:26Z</time>
      </trkpt>
      <trkpt lat="46.04126" lon="4.74425">
        <ele>197</ele>
        <time>2024-09-19T13:04:27Z</time>
      </trkpt>
      <trkpt lat="46.04122" lon="4.74428">
        <ele>197</ele>
        <time>2024-09-19T13:04:28Z</time>
      </trkpt>
      <trkpt lat="46.04116" lon="4.74434">
        <ele>197.2</ele>
        <time>2024-09-19T13:04:29Z</time>
      </trkpt>
      <trkpt lat="46.04114" lon="4.74436">
        <ele>197.2</ele>
        <time>2024-09-19T13:04:30Z</time>
      </trkpt>
      <trkpt lat="46.04108" lon="4.74441">
        <ele>197.2</ele>
        <time>2024-09-19T13:04:31Z</time>
      </trkpt>
      <trkpt lat="46.04106" lon="4.74443">
        <ele>197.2</ele>
        <time>2024-09-19T13:04:32Z</time>
      </trkpt>
      <trkpt lat="46.04099" lon="4.74448">
        <ele>197</ele>
        <time>2024-09-19T13:04:33Z</time>
      </trkpt>
      <trkpt lat="46.04097" lon="4.7445">
        <ele>196.8</ele>
        <time>2024-09-19T13:04:34Z</time>
      </trkpt>
      <trkpt lat="46.04091" lon="4.74455">
        <ele>196.8</ele>
        <time>2024-09-19T13:04:35Z</time>
      </trkpt>
      <trkpt lat="46.04089" lon="4.74456">
        <ele>196.8</ele>
        <time>2024-09-19T13:04:36Z</time>
      </trkpt>
      <trkpt lat="46.04082" lon="4.74461">
        <ele>197</ele>
        <time>2024-09-19T13:04:37Z</time>
      </trkpt>
      <trkpt lat="46.0408" lon="4.74463">
        <ele>197</ele>
        <time>2024-09-19T13:04:38Z</time>
      </trkpt>
      <trkpt lat="46.04074" lon="4.74468">
        <ele>196.8</ele>
        <time>2024-09-19T13:04:39Z</time>
      </trkpt>
      <trkpt lat="46.04072" lon="4.7447">
        <ele>196.8</ele>
        <time>2024-09-19T13:04:40Z</time>
      </trkpt>
      <trkpt lat="46.04068" lon="4.74473">
        <ele>196.8</ele>
        <time>2024-09-19T13:04:41Z</time>
      </trkpt>
      <trkpt lat="46.04064" lon="4.74476">
        <ele>196.8</ele>
        <time>2024-09-19T13:04:42Z</time>
      </trkpt>
      <trkpt lat="46.0406" lon="4.7448">
        <ele>196.8</ele>
        <time>2024-09-19T13:04:43Z</time>
      </trkpt>
      <trkpt lat="46.04053" lon="4.74484">
        <ele>196.8</ele>
        <time>2024-09-19T13:04:44Z</time>
      </trkpt>
      <trkpt lat="46.04051" lon="4.74486">
        <ele>196.8</ele>
        <time>2024-09-19T13:04:45Z</time>
      </trkpt>
      <trkpt lat="46.04045" lon="4.7449">
        <ele>196.8</ele>
        <time>2024-09-19T13:04:46Z</time>
      </trkpt>
      <trkpt lat="46.04043" lon="4.74492">
        <ele>196.8</ele>
        <time>2024-09-19T13:04:47Z</time>
      </trkpt>
      <trkpt lat="46.04038" lon="4.74495">
        <ele>197.2</ele>
        <time>2024-09-19T13:04:48Z</time>
      </trkpt>
      <trkpt lat="46.04034" lon="4.74497">
        <ele>197.2</ele>
        <time>2024-09-19T13:04:49Z</time>
      </trkpt>
      <trkpt lat="46.0403" lon="4.745">
        <ele>197.2</ele>
        <time>2024-09-19T13:04:50Z</time>
      </trkpt>
      <trkpt lat="46.04025" lon="4.74504">
        <ele>197.2</ele>
        <time>2024-09-19T13:04:51Z</time>
      </trkpt>
      <trkpt lat="46.04023" lon="4.74505">
        <ele>197.2</ele>
        <time>2024-09-19T13:04:52Z</time>
      </trkpt>
      <trkpt lat="46.04016" lon="4.7451">
        <ele>197.2</ele>
        <time>2024-09-19T13:04:53Z</time>
      </trkpt>
      <trkpt lat="46.04014" lon="4.74511">
        <ele>197.2</ele>
        <time>2024-09-19T13:04:54Z</time>
      </trkpt>
      <trkpt lat="46.04008" lon="4.74516">
        <ele>197.2</ele>
        <time>2024-09-19T13:04:55Z</time>
      </trkpt>
      <trkpt lat="46.04006" lon="4.74517">
        <ele>197.2</ele>
        <time>2024-09-19T13:04:56Z</time>
      </trkpt>
      <trkpt lat="46.04" lon="4.74522">
        <ele>197.4</ele>
        <time>2024-09-19T13:04:57Z</time>
      </trkpt>
      <trkpt lat="46.03999" lon="4.74523">
        <ele>197.4</ele>
        <time>2024-09-19T13:04:58Z</time>
      </trkpt>
      <trkpt lat="46.03992" lon="4.74526">
        <ele>197.4</ele>
        <time>2024-09-19T13:04:59Z</time>
      </trkpt>
      <trkpt lat="46.03989" lon="4.74527">
        <ele>197.4</ele>
        <time>2024-09-19T13:05:00Z</time>
      </trkpt>
      <trkpt lat="46.03983" lon="4.74529">
        <ele>197.4</ele>
        <time>2024-09-19T13:05:01Z</time>
      </trkpt>
      <trkpt lat="46.0398" lon="4.7453">
        <ele>197.4</ele>
        <time>2024-09-19T13:05:02Z</time>
      </trkpt>
      <trkpt lat="46.03973" lon="4.74533">
        <ele>197.4</ele>
        <time>2024-09-19T13:05:03Z</time>
      </trkpt>
      <trkpt lat="46.03971" lon="4.74533">
        <ele>197.4</ele>
        <time>2024-09-19T13:05:04Z</time>
      </trkpt>
      <trkpt lat="46.03966" lon="4.74534">
        <ele>197.4</ele>
        <time>2024-09-19T13:05:05Z</time>
      </trkpt>
      <trkpt lat="46.03963" lon="4.74535">
        <ele>197.2</ele>
        <time>2024-09-19T13:05:06Z</time>
      </trkpt>
      <trkpt lat="46.03956" lon="4.74538">
        <ele>197.2</ele>
        <time>2024-09-19T13:05:07Z</time>
      </trkpt>
      <trkpt lat="46.03954" lon="4.74539">
        <ele>197.2</ele>
        <time>2024-09-19T13:05:08Z</time>
      </trkpt>
      <trkpt lat="46.0395" lon="4.74542">
        <ele>197.6</ele>
        <time>2024-09-19T13:05:09Z</time>
      </trkpt>
      <trkpt lat="46.03946" lon="4.74545">
        <ele>197.6</ele>
        <time>2024-09-19T13:05:10Z</time>
      </trkpt>
      <trkpt lat="46.03942" lon="4.74548">
        <ele>197.6</ele>
        <time>2024-09-19T13:05:11Z</time>
      </trkpt>
      <trkpt lat="46.03937" lon="4.7455">
        <ele>197.6</ele>
        <time>2024-09-19T13:05:12Z</time>
      </trkpt>
      <trkpt lat="46.03933" lon="4.74553">
        <ele>197.6</ele>
        <time>2024-09-19T13:05:13Z</time>
      </trkpt>
      <trkpt lat="46.03926" lon="4.74557">
        <ele>197.8</ele>
        <time>2024-09-19T13:05:14Z</time>
      </trkpt>
      <trkpt lat="46.03924" lon="4.74558">
        <ele>197.8</ele>
        <time>2024-09-19T13:05:15Z</time>
      </trkpt>
      <trkpt lat="46.03918" lon="4.74562">
        <ele>197.8</ele>
        <time>2024-09-19T13:05:16Z</time>
      </trkpt>
      <trkpt lat="46.03915" lon="4.74563">
        <ele>197.8</ele>
        <time>2024-09-19T13:05:17Z</time>
      </trkpt>
      <trkpt lat="46.03911" lon="4.74565">
        <ele>197.8</ele>
        <time>2024-09-19T13:05:18Z</time>
      </trkpt>
      <trkpt lat="46.03907" lon="4.74566">
        <ele>197.8</ele>
        <time>2024-09-19T13:05:19Z</time>
      </trkpt>
      <trkpt lat="46.03902" lon="4.74567">
        <ele>197.8</ele>
        <time>2024-09-19T13:05:20Z</time>
      </trkpt>
      <trkpt lat="46.03898" lon="4.74569">
        <ele>197.8</ele>
        <time>2024-09-19T13:05:21Z</time>
      </trkpt>
      <trkpt lat="46.03893" lon="4.74571">
        <ele>197.8</ele>
        <time>2024-09-19T13:05:22Z</time>
      </trkpt>
      <trkpt lat="46.03888" lon="4.74573">
        <ele>197.8</ele>
        <time>2024-09-19T13:05:23Z</time>
      </trkpt>
      <trkpt lat="46.03883" lon="4.74575">
        <ele>197.6</ele>
        <time>2024-09-19T13:05:24Z</time>
      </trkpt>
      <trkpt lat="46.03878" lon="4.74577">
        <ele>197.6</ele>
        <time>2024-09-19T13:05:25Z</time>
      </trkpt>
      <trkpt lat="46.03873" lon="4.74579">
        <ele>197.6</ele>
        <time>2024-09-19T13:05:26Z</time>
      </trkpt>
      <trkpt lat="46.03868" lon="4.74582">
        <ele>197.6</ele>
        <time>2024-09-19T13:05:27Z</time>
      </trkpt>
      <trkpt lat="46.03864" lon="4.74585">
        <ele>197.8</ele>
        <time>2024-09-19T13:05:28Z</time>
      </trkpt>
      <trkpt lat="46.03857" lon="4.74589">
        <ele>197.8</ele>
        <time>2024-09-19T13:05:29Z</time>
      </trkpt>
      <trkpt lat="46.03854" lon="4.7459">
        <ele>197.8</ele>
        <time>2024-09-19T13:05:30Z</time>
      </trkpt>
      <trkpt lat="46.0385" lon="4.74593">
        <ele>197.8</ele>
        <time>2024-09-19T13:05:31Z</time>
      </trkpt>
      <trkpt lat="46.03845" lon="4.74596">
        <ele>197.8</ele>
        <time>2024-09-19T13:05:32Z</time>
      </trkpt>
      <trkpt lat="46.03838" lon="4.74599">
        <ele>197.6</ele>
        <time>2024-09-19T13:05:33Z</time>
      </trkpt>
      <trkpt lat="46.03836" lon="4.746">
        <ele>197.6</ele>
        <time>2024-09-19T13:05:34Z</time>
      </trkpt>
      <trkpt lat="46.03829" lon="4.74604">
        <ele>197.6</ele>
        <time>2024-09-19T13:05:35Z</time>
      </trkpt>
      <trkpt lat="46.03827" lon="4.74605">
        <ele>197.6</ele>
        <time>2024-09-19T13:05:36Z</time>
      </trkpt>
      <trkpt lat="46.0382" lon="4.74607">
        <ele>197.4</ele>
        <time>2024-09-19T13:05:37Z</time>
      </trkpt>
      <trkpt lat="46.03818" lon="4.74608">
        <ele>197.4</ele>
        <time>2024-09-19T13:05:38Z</time>
      </trkpt>
      <trkpt lat="46.03813" lon="4.74611">
        <ele>197.4</ele>
        <time>2024-09-19T13:05:39Z</time>
      </trkpt>
      <trkpt lat="46.03811" lon="4.74611">
        <ele>197.4</ele>
        <time>2024-09-19T13:05:40Z</time>
      </trkpt>
      <trkpt lat="46.03806" lon="4.74614">
        <ele>197.6</ele>
        <time>2024-09-19T13:05:41Z</time>
      </trkpt>
      <trkpt lat="46.03804" lon="4.74615">
        <ele>197.6</ele>
        <time>2024-09-19T13:05:42Z</time>
      </trkpt>
      <trkpt lat="46.038" lon="4.74617">
        <ele>197.6</ele>
        <time>2024-09-19T13:05:43Z</time>
      </trkpt>
      <trkpt lat="46.03796" lon="4.74618">
        <ele>197.6</ele>
        <time>2024-09-19T13:05:44Z</time>
      </trkpt>
      <trkpt lat="46.03791" lon="4.74619">
        <ele>197.6</ele>
        <time>2024-09-19T13:05:45Z</time>
      </trkpt>
      <trkpt lat="46.03788" lon="4.74621">
        <ele>197.6</ele>
        <time>2024-09-19T13:05:46Z</time>
      </trkpt>
      <trkpt lat="46.03783" lon="4.74623">
        <ele>197.6</ele>
        <time>2024-09-19T13:05:47Z</time>
      </trkpt>
      <trkpt lat="46.03779" lon="4.74625">
        <ele>197.6</ele>
        <time>2024-09-19T13:05:48Z</time>
      </trkpt>
      <trkpt lat="46.03773" lon="4.74628">
        <ele>197.6</ele>
        <time>2024-09-19T13:05:49Z</time>
      </trkpt>
      <trkpt lat="46.03771" lon="4.74629">
        <ele>197.6</ele>
        <time>2024-09-19T13:05:50Z</time>
      </trkpt>
      <trkpt lat="46.03767" lon="4.74631">
        <ele>197.6</ele>
        <time>2024-09-19T13:05:51Z</time>
      </trkpt>
      <trkpt lat="46.03763" lon="4.74633">
        <ele>197.6</ele>
        <time>2024-09-19T13:05:52Z</time>
      </trkpt>
      <trkpt lat="46.03757" lon="4.74638">
        <ele>197.6</ele>
        <time>2024-09-19T13:05:53Z</time>
      </trkpt>
      <trkpt lat="46.03755" lon="4.74639">
        <ele>198</ele>
        <time>2024-09-19T13:05:54Z</time>
      </trkpt>
      <trkpt lat="46.03751" lon="4.74642">
        <ele>198.2</ele>
        <time>2024-09-19T13:05:55Z</time>
      </trkpt>
      <trkpt lat="46.03746" lon="4.74646">
        <ele>198.2</ele>
        <time>2024-09-19T13:05:56Z</time>
      </trkpt>
      <trkpt lat="46.03739" lon="4.74651">
        <ele>198.2</ele>
        <time>2024-09-19T13:05:57Z</time>
      </trkpt>
      <trkpt lat="46.03737" lon="4.74653">
        <ele>198.2</ele>
        <time>2024-09-19T13:05:58Z</time>
      </trkpt>
      <trkpt lat="46.03732" lon="4.74656">
        <ele>198.2</ele>
        <time>2024-09-19T13:05:59Z</time>
      </trkpt>
      <trkpt lat="46.03728" lon="4.7466">
        <ele>198.2</ele>
        <time>2024-09-19T13:06:00Z</time>
      </trkpt>
      <trkpt lat="46.03723" lon="4.74663">
        <ele>198.2</ele>
        <time>2024-09-19T13:06:01Z</time>
      </trkpt>
      <trkpt lat="46.03719" lon="4.74666">
        <ele>198.2</ele>
        <time>2024-09-19T13:06:02Z</time>
      </trkpt>
      <trkpt lat="46.03714" lon="4.74669">
        <ele>198.2</ele>
        <time>2024-09-19T13:06:03Z</time>
      </trkpt>
      <trkpt lat="46.0371" lon="4.74672">
        <ele>197.8</ele>
        <time>2024-09-19T13:06:04Z</time>
      </trkpt>
      <trkpt lat="46.03703" lon="4.74676">
        <ele>197.8</ele>
        <time>2024-09-19T13:06:05Z</time>
      </trkpt>
      <trkpt lat="46.03701" lon="4.74677">
        <ele>197.8</ele>
        <time>2024-09-19T13:06:06Z</time>
      </trkpt>
      <trkpt lat="46.03697" lon="4.74679">
        <ele>197.8</ele>
        <time>2024-09-19T13:06:07Z</time>
      </trkpt>
      <trkpt lat="46.03691" lon="4.74683">
        <ele>198.4</ele>
        <time>2024-09-19T13:06:08Z</time>
      </trkpt>
      <trkpt lat="46.03689" lon="4.74684">
        <ele>198.6</ele>
        <time>2024-09-19T13:06:09Z</time>
      </trkpt>
      <trkpt lat="46.03682" lon="4.74687">
        <ele>198.6</ele>
        <time>2024-09-19T13:06:10Z</time>
      </trkpt>
      <trkpt lat="46.0368" lon="4.74688">
        <ele>198.6</ele>
        <time>2024-09-19T13:06:11Z</time>
      </trkpt>
      <trkpt lat="46.03673" lon="4.7469">
        <ele>198</ele>
        <time>2024-09-19T13:06:12Z</time>
      </trkpt>
      <trkpt lat="46.03671" lon="4.74691">
        <ele>198</ele>
        <time>2024-09-19T13:06:13Z</time>
      </trkpt>
      <trkpt lat="46.03667" lon="4.74692">
        <ele>198</ele>
        <time>2024-09-19T13:06:14Z</time>
      </trkpt>
      <trkpt lat="46.03662" lon="4.74693">
        <ele>198</ele>
        <time>2024-09-19T13:06:15Z</time>
      </trkpt>
      <trkpt lat="46.03657" lon="4.74695">
        <ele>198</ele>
        <time>2024-09-19T13:06:16Z</time>
      </trkpt>
      <trkpt lat="46.03653" lon="4.74696">
        <ele>198.2</ele>
        <time>2024-09-19T13:06:17Z</time>
      </trkpt>
      <trkpt lat="46.03648" lon="4.74697">
        <ele>198.2</ele>
        <time>2024-09-19T13:06:18Z</time>
      </trkpt>
      <trkpt lat="46.0364" lon="4.74699">
        <ele>198.2</ele>
        <time>2024-09-19T13:06:19Z</time>
      </trkpt>
      <trkpt lat="46.03638" lon="4.747">
        <ele>198.2</ele>
        <time>2024-09-19T13:06:20Z</time>
      </trkpt>
      <trkpt lat="46.03631" lon="4.74704">
        <ele>197.6</ele>
        <time>2024-09-19T13:06:21Z</time>
      </trkpt>
      <trkpt lat="46.03629" lon="4.74705">
        <ele>197.8</ele>
        <time>2024-09-19T13:06:22Z</time>
      </trkpt>
      <trkpt lat="46.03624" lon="4.74708">
        <ele>197.8</ele>
        <time>2024-09-19T13:06:23Z</time>
      </trkpt>
      <trkpt lat="46.03617" lon="4.74713">
        <ele>197.8</ele>
        <time>2024-09-19T13:06:24Z</time>
      </trkpt>
      <trkpt lat="46.03615" lon="4.74715">
        <ele>197.8</ele>
        <time>2024-09-19T13:06:25Z</time>
      </trkpt>
      <trkpt lat="46.03612" lon="4.74717">
        <ele>197.8</ele>
        <time>2024-09-19T13:06:26Z</time>
      </trkpt>
      <trkpt lat="46.03608" lon="4.7472">
        <ele>198</ele>
        <time>2024-09-19T13:06:27Z</time>
      </trkpt>
      <trkpt lat="46.03605" lon="4.74723">
        <ele>198</ele>
        <time>2024-09-19T13:06:28Z</time>
      </trkpt>
      <trkpt lat="46.03601" lon="4.74725">
        <ele>198</ele>
        <time>2024-09-19T13:06:29Z</time>
      </trkpt>
      <trkpt lat="46.03594" lon="4.7473">
        <ele>197.8</ele>
        <time>2024-09-19T13:06:30Z</time>
      </trkpt>
      <trkpt lat="46.03592" lon="4.74732">
        <ele>198</ele>
        <time>2024-09-19T13:06:31Z</time>
      </trkpt>
      <trkpt lat="46.03588" lon="4.74734">
        <ele>198</ele>
        <time>2024-09-19T13:06:32Z</time>
      </trkpt>
      <trkpt lat="46.03583" lon="4.74737">
        <ele>198</ele>
        <time>2024-09-19T13:06:33Z</time>
      </trkpt>
      <trkpt lat="46.03576" lon="4.7474">
        <ele>197.8</ele>
        <time>2024-09-19T13:06:34Z</time>
      </trkpt>
      <trkpt lat="46.03574" lon="4.74742">
        <ele>197.4</ele>
        <time>2024-09-19T13:06:35Z</time>
      </trkpt>
      <trkpt lat="46.03567" lon="4.74745">
        <ele>197.4</ele>
        <time>2024-09-19T13:06:36Z</time>
      </trkpt>
      <trkpt lat="46.03564" lon="4.74746">
        <ele>197.4</ele>
        <time>2024-09-19T13:06:37Z</time>
      </trkpt>
      <trkpt lat="46.03559" lon="4.74748">
        <ele>198</ele>
        <time>2024-09-19T13:06:38Z</time>
      </trkpt>
      <trkpt lat="46.03554" lon="4.7475">
        <ele>197.6</ele>
        <time>2024-09-19T13:06:39Z</time>
      </trkpt>
      <trkpt lat="46.0355" lon="4.74753">
        <ele>197.6</ele>
        <time>2024-09-19T13:06:40Z</time>
      </trkpt>
      <trkpt lat="46.03543" lon="4.74757">
        <ele>197.6</ele>
        <time>2024-09-19T13:06:41Z</time>
      </trkpt>
      <trkpt lat="46.03541" lon="4.74758">
        <ele>197.6</ele>
        <time>2024-09-19T13:06:42Z</time>
      </trkpt>
      <trkpt lat="46.03537" lon="4.74761">
        <ele>197.8</ele>
        <time>2024-09-19T13:06:43Z</time>
      </trkpt>
      <trkpt lat="46.03533" lon="4.74762">
        <ele>197.6</ele>
        <time>2024-09-19T13:06:44Z</time>
      </trkpt>
      <trkpt lat="46.03529" lon="4.74764">
        <ele>197.6</ele>
        <time>2024-09-19T13:06:45Z</time>
      </trkpt>
      <trkpt lat="46.03525" lon="4.74766">
        <ele>197.6</ele>
        <time>2024-09-19T13:06:46Z</time>
      </trkpt>
      <trkpt lat="46.03521" lon="4.74769">
        <ele>197.6</ele>
        <time>2024-09-19T13:06:47Z</time>
      </trkpt>
      <trkpt lat="46.03516" lon="4.74771">
        <ele>197.6</ele>
        <time>2024-09-19T13:06:48Z</time>
      </trkpt>
      <trkpt lat="46.03512" lon="4.74773">
        <ele>197.8</ele>
        <time>2024-09-19T13:06:49Z</time>
      </trkpt>
      <trkpt lat="46.03507" lon="4.74774">
        <ele>197.8</ele>
        <time>2024-09-19T13:06:50Z</time>
      </trkpt>
      <trkpt lat="46.03501" lon="4.74777">
        <ele>197.8</ele>
        <time>2024-09-19T13:06:51Z</time>
      </trkpt>
      <trkpt lat="46.03499" lon="4.74778">
        <ele>197.8</ele>
        <time>2024-09-19T13:06:52Z</time>
      </trkpt>
      <trkpt lat="46.03495" lon="4.74779">
        <ele>197.8</ele>
        <time>2024-09-19T13:06:53Z</time>
      </trkpt>
      <trkpt lat="46.03488" lon="4.74782">
        <ele>197.8</ele>
        <time>2024-09-19T13:06:54Z</time>
      </trkpt>
      <trkpt lat="46.03486" lon="4.74783">
        <ele>197.8</ele>
        <time>2024-09-19T13:06:55Z</time>
      </trkpt>
      <trkpt lat="46.03482" lon="4.74784">
        <ele>197.8</ele>
        <time>2024-09-19T13:06:56Z</time>
      </trkpt>
      <trkpt lat="46.03477" lon="4.74786">
        <ele>197.8</ele>
        <time>2024-09-19T13:06:57Z</time>
      </trkpt>
      <trkpt lat="46.03472" lon="4.74789">
        <ele>197.8</ele>
        <time>2024-09-19T13:06:58Z</time>
      </trkpt>
      <trkpt lat="46.03468" lon="4.7479">
        <ele>197.8</ele>
        <time>2024-09-19T13:06:59Z</time>
      </trkpt>
      <trkpt lat="46.03464" lon="4.74792">
        <ele>197.8</ele>
        <time>2024-09-19T13:07:00Z</time>
      </trkpt>
      <trkpt lat="46.03459" lon="4.74794">
        <ele>197.8</ele>
        <time>2024-09-19T13:07:01Z</time>
      </trkpt>
      <trkpt lat="46.03454" lon="4.74796">
        <ele>197.8</ele>
        <time>2024-09-19T13:07:02Z</time>
      </trkpt>
      <trkpt lat="46.0345" lon="4.74798">
        <ele>197.8</ele>
        <time>2024-09-19T13:07:03Z</time>
      </trkpt>
      <trkpt lat="46.03446" lon="4.74799">
        <ele>197.8</ele>
        <time>2024-09-19T13:07:04Z</time>
      </trkpt>
      <trkpt lat="46.03441" lon="4.74801">
        <ele>197.8</ele>
        <time>2024-09-19T13:07:05Z</time>
      </trkpt>
      <trkpt lat="46.03437" lon="4.74802">
        <ele>197.8</ele>
        <time>2024-09-19T13:07:06Z</time>
      </trkpt>
      <trkpt lat="46.03432" lon="4.74804">
        <ele>197.8</ele>
        <time>2024-09-19T13:07:07Z</time>
      </trkpt>
      <trkpt lat="46.03428" lon="4.74806">
        <ele>197.8</ele>
        <time>2024-09-19T13:07:08Z</time>
      </trkpt>
      <trkpt lat="46.03423" lon="4.74808">
        <ele>197.8</ele>
        <time>2024-09-19T13:07:09Z</time>
      </trkpt>
      <trkpt lat="46.03419" lon="4.7481">
        <ele>197.8</ele>
        <time>2024-09-19T13:07:10Z</time>
      </trkpt>
      <trkpt lat="46.03414" lon="4.74812">
        <ele>197.6</ele>
        <time>2024-09-19T13:07:11Z</time>
      </trkpt>
      <trkpt lat="46.0341" lon="4.74814">
        <ele>197.6</ele>
        <time>2024-09-19T13:07:12Z</time>
      </trkpt>
      <trkpt lat="46.03405" lon="4.74816">
        <ele>197.6</ele>
        <time>2024-09-19T13:07:13Z</time>
      </trkpt>
      <trkpt lat="46.034" lon="4.74817">
        <ele>197.6</ele>
        <time>2024-09-19T13:07:14Z</time>
      </trkpt>
      <trkpt lat="46.03393" lon="4.74819">
        <ele>197.8</ele>
        <time>2024-09-19T13:07:15Z</time>
      </trkpt>
      <trkpt lat="46.03391" lon="4.7482">
        <ele>197.8</ele>
        <time>2024-09-19T13:07:16Z</time>
      </trkpt>
      <trkpt lat="46.03384" lon="4.74822">
        <ele>197.8</ele>
        <time>2024-09-19T13:07:17Z</time>
      </trkpt>
      <trkpt lat="46.03382" lon="4.74822">
        <ele>197.8</ele>
        <time>2024-09-19T13:07:18Z</time>
      </trkpt>
      <trkpt lat="46.03377" lon="4.74822">
        <ele>197.8</ele>
        <time>2024-09-19T13:07:19Z</time>
      </trkpt>
      <trkpt lat="46.03373" lon="4.74823">
        <ele>197.8</ele>
        <time>2024-09-19T13:07:20Z</time>
      </trkpt>
      <trkpt lat="46.03369" lon="4.74823">
        <ele>197.8</ele>
        <time>2024-09-19T13:07:21Z</time>
      </trkpt>
      <trkpt lat="46.03364" lon="4.74824">
        <ele>197.8</ele>
        <time>2024-09-19T13:07:22Z</time>
      </trkpt>
      <trkpt lat="46.03359" lon="4.74824">
        <ele>197.6</ele>
        <time>2024-09-19T13:07:23Z</time>
      </trkpt>
      <trkpt lat="46.03355" lon="4.74825">
        <ele>197.6</ele>
        <time>2024-09-19T13:07:24Z</time>
      </trkpt>
      <trkpt lat="46.03351" lon="4.74826">
        <ele>197.6</ele>
        <time>2024-09-19T13:07:25Z</time>
      </trkpt>
      <trkpt lat="46.03346" lon="4.74827">
        <ele>197.6</ele>
        <time>2024-09-19T13:07:26Z</time>
      </trkpt>
      <trkpt lat="46.03341" lon="4.74828">
        <ele>197.6</ele>
        <time>2024-09-19T13:07:27Z</time>
      </trkpt>
      <trkpt lat="46.03337" lon="4.74828">
        <ele>197.6</ele>
        <time>2024-09-19T13:07:28Z</time>
      </trkpt>
      <trkpt lat="46.03333" lon="4.74828">
        <ele>197.6</ele>
        <time>2024-09-19T13:07:29Z</time>
      </trkpt>
      <trkpt lat="46.03329" lon="4.74827">
        <ele>197.6</ele>
        <time>2024-09-19T13:07:30Z</time>
      </trkpt>
      <trkpt lat="46.03322" lon="4.74826">
        <ele>197.6</ele>
        <time>2024-09-19T13:07:31Z</time>
      </trkpt>
      <trkpt lat="46.0332" lon="4.74825">
        <ele>197.6</ele>
        <time>2024-09-19T13:07:32Z</time>
      </trkpt>
      <trkpt lat="46.03316" lon="4.74825">
        <ele>197.8</ele>
        <time>2024-09-19T13:07:33Z</time>
      </trkpt>
      <trkpt lat="46.03309" lon="4.74823">
        <ele>197.6</ele>
        <time>2024-09-19T13:07:34Z</time>
      </trkpt>
      <trkpt lat="46.03307" lon="4.74823">
        <ele>197.6</ele>
        <time>2024-09-19T13:07:35Z</time>
      </trkpt>
      <trkpt lat="46.033" lon="4.74821">
        <ele>197.6</ele>
        <time>2024-09-19T13:07:36Z</time>
      </trkpt>
      <trkpt lat="46.03298" lon="4.7482">
        <ele>197.6</ele>
        <time>2024-09-19T13:07:37Z</time>
      </trkpt>
      <trkpt lat="46.03291" lon="4.74817">
        <ele>197.6</ele>
        <time>2024-09-19T13:07:38Z</time>
      </trkpt>
      <trkpt lat="46.03289" lon="4.74816">
        <ele>197.6</ele>
        <time>2024-09-19T13:07:39Z</time>
      </trkpt>
      <trkpt lat="46.03282" lon="4.74814">
        <ele>197.6</ele>
        <time>2024-09-19T13:07:40Z</time>
      </trkpt>
      <trkpt lat="46.0328" lon="4.74814">
        <ele>197.6</ele>
        <time>2024-09-19T13:07:41Z</time>
      </trkpt>
      <trkpt lat="46.03274" lon="4.74811">
        <ele>197.8</ele>
        <time>2024-09-19T13:07:42Z</time>
      </trkpt>
      <trkpt lat="46.03271" lon="4.74811">
        <ele>197.6</ele>
        <time>2024-09-19T13:07:43Z</time>
      </trkpt>
      <trkpt lat="46.03265" lon="4.74809">
        <ele>197.6</ele>
        <time>2024-09-19T13:07:44Z</time>
      </trkpt>
      <trkpt lat="46.03263" lon="4.74808">
        <ele>197.6</ele>
        <time>2024-09-19T13:07:45Z</time>
      </trkpt>
      <trkpt lat="46.03257" lon="4.74808">
        <ele>197.6</ele>
        <time>2024-09-19T13:07:46Z</time>
      </trkpt>
      <trkpt lat="46.03256" lon="4.74809">
        <ele>198.6</ele>
        <time>2024-09-19T13:07:47Z</time>
      </trkpt>
      <trkpt lat="46.03252" lon="4.74809">
        <ele>198.6</ele>
        <time>2024-09-19T13:07:48Z</time>
      </trkpt>
      <trkpt lat="46.03246" lon="4.7481">
        <ele>198.6</ele>
        <time>2024-09-19T13:07:49Z</time>
      </trkpt>
      <trkpt lat="46.03244" lon="4.74811">
        <ele>198.2</ele>
        <time>2024-09-19T13:07:50Z</time>
      </trkpt>
      <trkpt lat="46.03239" lon="4.74815">
        <ele>197.8</ele>
        <time>2024-09-19T13:07:51Z</time>
      </trkpt>
      <trkpt lat="46.03238" lon="4.74816">
        <ele>197.8</ele>
        <time>2024-09-19T13:07:52Z</time>
      </trkpt>
      <trkpt lat="46.03235" lon="4.74819">
        <ele>197.8</ele>
        <time>2024-09-19T13:07:53Z</time>
      </trkpt>
      <trkpt lat="46.03232" lon="4.74822">
        <ele>197.8</ele>
        <time>2024-09-19T13:07:54Z</time>
      </trkpt>
      <trkpt lat="46.03228" lon="4.74825">
        <ele>197</ele>
        <time>2024-09-19T13:07:55Z</time>
      </trkpt>
      <trkpt lat="46.03224" lon="4.74828">
        <ele>197</ele>
        <time>2024-09-19T13:07:56Z</time>
      </trkpt>
      <trkpt lat="46.03221" lon="4.7483">
        <ele>197</ele>
        <time>2024-09-19T13:07:57Z</time>
      </trkpt>
      <trkpt lat="46.03215" lon="4.74834">
        <ele>197</ele>
        <time>2024-09-19T13:07:58Z</time>
      </trkpt>
      <trkpt lat="46.03213" lon="4.74835">
        <ele>196.6</ele>
        <time>2024-09-19T13:07:59Z</time>
      </trkpt>
      <trkpt lat="46.03208" lon="4.74838">
        <ele>196.8</ele>
        <time>2024-09-19T13:08:00Z</time>
      </trkpt>
      <trkpt lat="46.03206" lon="4.74839">
        <ele>196.8</ele>
        <time>2024-09-19T13:08:01Z</time>
      </trkpt>
      <trkpt lat="46.032" lon="4.74842">
        <ele>196.8</ele>
        <time>2024-09-19T13:08:02Z</time>
      </trkpt>
      <trkpt lat="46.03198" lon="4.74843">
        <ele>196.8</ele>
        <time>2024-09-19T13:08:03Z</time>
      </trkpt>
      <trkpt lat="46.03194" lon="4.74845">
        <ele>196.8</ele>
        <time>2024-09-19T13:08:04Z</time>
      </trkpt>
      <trkpt lat="46.0319" lon="4.74847">
        <ele>196.8</ele>
        <time>2024-09-19T13:08:05Z</time>
      </trkpt>
      <trkpt lat="46.03186" lon="4.74849">
        <ele>196.8</ele>
        <time>2024-09-19T13:08:06Z</time>
      </trkpt>
      <trkpt lat="46.03182" lon="4.74851">
        <ele>197.2</ele>
        <time>2024-09-19T13:08:07Z</time>
      </trkpt>
      <trkpt lat="46.03179" lon="4.74853">
        <ele>197.4</ele>
        <time>2024-09-19T13:08:08Z</time>
      </trkpt>
      <trkpt lat="46.03174" lon="4.74855">
        <ele>197.4</ele>
        <time>2024-09-19T13:08:09Z</time>
      </trkpt>
      <trkpt lat="46.0317" lon="4.74857">
        <ele>197.4</ele>
        <time>2024-09-19T13:08:10Z</time>
      </trkpt>
      <trkpt lat="46.03166" lon="4.74859">
        <ele>197.4</ele>
        <time>2024-09-19T13:08:11Z</time>
      </trkpt>
      <trkpt lat="46.03159" lon="4.74862">
        <ele>197.4</ele>
        <time>2024-09-19T13:08:12Z</time>
      </trkpt>
      <trkpt lat="46.03157" lon="4.74863">
        <ele>197.4</ele>
        <time>2024-09-19T13:08:13Z</time>
      </trkpt>
      <trkpt lat="46.0315" lon="4.74865">
        <ele>197.4</ele>
        <time>2024-09-19T13:08:14Z</time>
      </trkpt>
      <trkpt lat="46.03147" lon="4.74866">
        <ele>197.4</ele>
        <time>2024-09-19T13:08:15Z</time>
      </trkpt>
      <trkpt lat="46.0314" lon="4.74868">
        <ele>197.4</ele>
        <time>2024-09-19T13:08:16Z</time>
      </trkpt>
      <trkpt lat="46.03138" lon="4.74868">
        <ele>197.4</ele>
        <time>2024-09-19T13:08:17Z</time>
      </trkpt>
      <trkpt lat="46.03133" lon="4.74869">
        <ele>197.4</ele>
        <time>2024-09-19T13:08:18Z</time>
      </trkpt>
      <trkpt lat="46.03129" lon="4.7487">
        <ele>197.4</ele>
        <time>2024-09-19T13:08:19Z</time>
      </trkpt>
      <trkpt lat="46.03124" lon="4.74871">
        <ele>197.4</ele>
        <time>2024-09-19T13:08:20Z</time>
      </trkpt>
      <trkpt lat="46.0312" lon="4.74872">
        <ele>197.4</ele>
        <time>2024-09-19T13:08:21Z</time>
      </trkpt>
      <trkpt lat="46.03115" lon="4.74872">
        <ele>197.8</ele>
        <time>2024-09-19T13:08:22Z</time>
      </trkpt>
      <trkpt lat="46.03109" lon="4.74873">
        <ele>197.8</ele>
        <time>2024-09-19T13:08:23Z</time>
      </trkpt>
      <trkpt lat="46.03107" lon="4.74873">
        <ele>197.8</ele>
        <time>2024-09-19T13:08:24Z</time>
      </trkpt>
      <trkpt lat="46.03103" lon="4.74875">
        <ele>197.8</ele>
        <time>2024-09-19T13:08:25Z</time>
      </trkpt>
      <trkpt lat="46.03099" lon="4.74876">
        <ele>197.6</ele>
        <time>2024-09-19T13:08:26Z</time>
      </trkpt>
      <trkpt lat="46.03095" lon="4.74877">
        <ele>197.6</ele>
        <time>2024-09-19T13:08:27Z</time>
      </trkpt>
      <trkpt lat="46.0309" lon="4.74878">
        <ele>197.6</ele>
        <time>2024-09-19T13:08:28Z</time>
      </trkpt>
      <trkpt lat="46.03086" lon="4.74879">
        <ele>197.6</ele>
        <time>2024-09-19T13:08:29Z</time>
      </trkpt>
      <trkpt lat="46.03081" lon="4.7488">
        <ele>197.6</ele>
        <time>2024-09-19T13:08:30Z</time>
      </trkpt>
      <trkpt lat="46.03074" lon="4.74881">
        <ele>197.4</ele>
        <time>2024-09-19T13:08:31Z</time>
      </trkpt>
      <trkpt lat="46.03072" lon="4.74882">
        <ele>197.4</ele>
        <time>2024-09-19T13:08:32Z</time>
      </trkpt>
      <trkpt lat="46.03067" lon="4.74882">
        <ele>197.4</ele>
        <time>2024-09-19T13:08:33Z</time>
      </trkpt>
      <trkpt lat="46.03063" lon="4.74883">
        <ele>197.4</ele>
        <time>2024-09-19T13:08:34Z</time>
      </trkpt>
      <trkpt lat="46.03058" lon="4.74884">
        <ele>197.4</ele>
        <time>2024-09-19T13:08:35Z</time>
      </trkpt>
      <trkpt lat="46.03054" lon="4.74885">
        <ele>197.4</ele>
        <time>2024-09-19T13:08:36Z</time>
      </trkpt>
      <trkpt lat="46.03049" lon="4.74885">
        <ele>197.6</ele>
        <time>2024-09-19T13:08:37Z</time>
      </trkpt>
      <trkpt lat="46.03044" lon="4.74886">
        <ele>197.6</ele>
        <time>2024-09-19T13:08:38Z</time>
      </trkpt>
      <trkpt lat="46.03039" lon="4.74887">
        <ele>197.6</ele>
        <time>2024-09-19T13:08:39Z</time>
      </trkpt>
      <trkpt lat="46.03034" lon="4.74887">
        <ele>197.4</ele>
        <time>2024-09-19T13:08:40Z</time>
      </trkpt>
      <trkpt lat="46.03027" lon="4.74888">
        <ele>197.6</ele>
        <time>2024-09-19T13:08:41Z</time>
      </trkpt>
      <trkpt lat="46.03024" lon="4.74889">
        <ele>197.6</ele>
        <time>2024-09-19T13:08:42Z</time>
      </trkpt>
      <trkpt lat="46.0302" lon="4.7489">
        <ele>197.6</ele>
        <time>2024-09-19T13:08:43Z</time>
      </trkpt>
      <trkpt lat="46.03015" lon="4.74891">
        <ele>197.6</ele>
        <time>2024-09-19T13:08:44Z</time>
      </trkpt>
      <trkpt lat="46.03011" lon="4.74892">
        <ele>197.6</ele>
        <time>2024-09-19T13:08:45Z</time>
      </trkpt>
      <trkpt lat="46.03004" lon="4.74893">
        <ele>197.2</ele>
        <time>2024-09-19T13:08:46Z</time>
      </trkpt>
      <trkpt lat="46.03002" lon="4.74894">
        <ele>197.2</ele>
        <time>2024-09-19T13:08:47Z</time>
      </trkpt>
      <trkpt lat="46.02995" lon="4.74895">
        <ele>197.6</ele>
        <time>2024-09-19T13:08:48Z</time>
      </trkpt>
      <trkpt lat="46.02993" lon="4.74895">
        <ele>197.6</ele>
        <time>2024-09-19T13:08:49Z</time>
      </trkpt>
      <trkpt lat="46.02988" lon="4.74896">
        <ele>197.6</ele>
        <time>2024-09-19T13:08:50Z</time>
      </trkpt>
      <trkpt lat="46.02983" lon="4.74897">
        <ele>197.6</ele>
        <time>2024-09-19T13:08:51Z</time>
      </trkpt>
      <trkpt lat="46.02978" lon="4.74897">
        <ele>197.6</ele>
        <time>2024-09-19T13:08:52Z</time>
      </trkpt>
      <trkpt lat="46.02973" lon="4.74898">
        <ele>197.6</ele>
        <time>2024-09-19T13:08:53Z</time>
      </trkpt>
      <trkpt lat="46.02966" lon="4.74899">
        <ele>197.4</ele>
        <time>2024-09-19T13:08:54Z</time>
      </trkpt>
      <trkpt lat="46.02963" lon="4.74899">
        <ele>197.4</ele>
        <time>2024-09-19T13:08:55Z</time>
      </trkpt>
      <trkpt lat="46.02958" lon="4.749">
        <ele>197.6</ele>
        <time>2024-09-19T13:08:56Z</time>
      </trkpt>
      <trkpt lat="46.02953" lon="4.74901">
        <ele>197.6</ele>
        <time>2024-09-19T13:08:57Z</time>
      </trkpt>
      <trkpt lat="46.02948" lon="4.74902">
        <ele>197.4</ele>
        <time>2024-09-19T13:08:58Z</time>
      </trkpt>
      <trkpt lat="46.02944" lon="4.74904">
        <ele>197.4</ele>
        <time>2024-09-19T13:08:59Z</time>
      </trkpt>
      <trkpt lat="46.02939" lon="4.74905">
        <ele>197.4</ele>
        <time>2024-09-19T13:09:00Z</time>
      </trkpt>
      <trkpt lat="46.02935" lon="4.74906">
        <ele>197.4</ele>
        <time>2024-09-19T13:09:01Z</time>
      </trkpt>
      <trkpt lat="46.0293" lon="4.74907">
        <ele>197.4</ele>
        <time>2024-09-19T13:09:02Z</time>
      </trkpt>
      <trkpt lat="46.02926" lon="4.74908">
        <ele>197.4</ele>
        <time>2024-09-19T13:09:03Z</time>
      </trkpt>
      <trkpt lat="46.02921" lon="4.74909">
        <ele>197.4</ele>
        <time>2024-09-19T13:09:04Z</time>
      </trkpt>
      <trkpt lat="46.02914" lon="4.7491">
        <ele>197.4</ele>
        <time>2024-09-19T13:09:05Z</time>
      </trkpt>
      <trkpt lat="46.02911" lon="4.74911">
        <ele>197.4</ele>
        <time>2024-09-19T13:09:06Z</time>
      </trkpt>
      <trkpt lat="46.02907" lon="4.74911">
        <ele>197.4</ele>
        <time>2024-09-19T13:09:07Z</time>
      </trkpt>
      <trkpt lat="46.02902" lon="4.74912">
        <ele>197.6</ele>
        <time>2024-09-19T13:09:08Z</time>
      </trkpt>
      <trkpt lat="46.02897" lon="4.74912">
        <ele>197.6</ele>
        <time>2024-09-19T13:09:09Z</time>
      </trkpt>
      <trkpt lat="46.02892" lon="4.74912">
        <ele>197.6</ele>
        <time>2024-09-19T13:09:10Z</time>
      </trkpt>
      <trkpt lat="46.02888" lon="4.74911">
        <ele>198</ele>
        <time>2024-09-19T13:09:11Z</time>
      </trkpt>
      <trkpt lat="46.0288" lon="4.7491">
        <ele>198</ele>
        <time>2024-09-19T13:09:12Z</time>
      </trkpt>
      <trkpt lat="46.02878" lon="4.7491">
        <ele>198</ele>
        <time>2024-09-19T13:09:13Z</time>
      </trkpt>
      <trkpt lat="46.02871" lon="4.7491">
        <ele>198</ele>
        <time>2024-09-19T13:09:14Z</time>
      </trkpt>
      <trkpt lat="46.02869" lon="4.74909">
        <ele>198</ele>
        <time>2024-09-19T13:09:15Z</time>
      </trkpt>
      <trkpt lat="46.02864" lon="4.74909">
        <ele>197.8</ele>
        <time>2024-09-19T13:09:16Z</time>
      </trkpt>
      <trkpt lat="46.02857" lon="4.74908">
        <ele>197.8</ele>
        <time>2024-09-19T13:09:17Z</time>
      </trkpt>
      <trkpt lat="46.02855" lon="4.74908">
        <ele>198</ele>
        <time>2024-09-19T13:09:18Z</time>
      </trkpt>
      <trkpt lat="46.0285" lon="4.74908">
        <ele>198</ele>
        <time>2024-09-19T13:09:19Z</time>
      </trkpt>
      <trkpt lat="46.02845" lon="4.74908">
        <ele>198</ele>
        <time>2024-09-19T13:09:20Z</time>
      </trkpt>
      <trkpt lat="46.02838" lon="4.74907">
        <ele>198</ele>
        <time>2024-09-19T13:09:21Z</time>
      </trkpt>
      <trkpt lat="46.02835" lon="4.74907">
        <ele>198</ele>
        <time>2024-09-19T13:09:22Z</time>
      </trkpt>
      <trkpt lat="46.0283" lon="4.74907">
        <ele>198</ele>
        <time>2024-09-19T13:09:23Z</time>
      </trkpt>
      <trkpt lat="46.02825" lon="4.74907">
        <ele>198</ele>
        <time>2024-09-19T13:09:24Z</time>
      </trkpt>
      <trkpt lat="46.02818" lon="4.74906">
        <ele>198</ele>
        <time>2024-09-19T13:09:25Z</time>
      </trkpt>
      <trkpt lat="46.02816" lon="4.74906">
        <ele>197.8</ele>
        <time>2024-09-19T13:09:26Z</time>
      </trkpt>
      <trkpt lat="46.02811" lon="4.74905">
        <ele>197.8</ele>
        <time>2024-09-19T13:09:27Z</time>
      </trkpt>
      <trkpt lat="46.02807" lon="4.74905">
        <ele>197.8</ele>
        <time>2024-09-19T13:09:28Z</time>
      </trkpt>
      <trkpt lat="46.02802" lon="4.74904">
        <ele>198</ele>
        <time>2024-09-19T13:09:29Z</time>
      </trkpt>
      <trkpt lat="46.02797" lon="4.74903">
        <ele>199.4</ele>
        <time>2024-09-19T13:09:30Z</time>
      </trkpt>
      <trkpt lat="46.02792" lon="4.74903">
        <ele>199.4</ele>
        <time>2024-09-19T13:09:31Z</time>
      </trkpt>
      <trkpt lat="46.0279" lon="4.74902">
        <ele>199.4</ele>
        <time>2024-09-19T13:09:32Z</time>
      </trkpt>
      <trkpt lat="46.02787" lon="4.74901">
        <ele>198.4</ele>
        <time>2024-09-19T13:09:33Z</time>
      </trkpt>
      <trkpt lat="46.02784" lon="4.749">
        <ele>198.4</ele>
        <time>2024-09-19T13:09:34Z</time>
      </trkpt>
      <trkpt lat="46.0278" lon="4.749">
        <ele>198.2</ele>
        <time>2024-09-19T13:09:35Z</time>
      </trkpt>
      <trkpt lat="46.02777" lon="4.74899">
        <ele>198.2</ele>
        <time>2024-09-19T13:09:36Z</time>
      </trkpt>
      <trkpt lat="46.02773" lon="4.74898">
        <ele>198.2</ele>
        <time>2024-09-19T13:09:37Z</time>
      </trkpt>
      <trkpt lat="46.0277" lon="4.74896">
        <ele>198.2</ele>
        <time>2024-09-19T13:09:38Z</time>
      </trkpt>
      <trkpt lat="46.02767" lon="4.74895">
        <ele>198.2</ele>
        <time>2024-09-19T13:09:39Z</time>
      </trkpt>
      <trkpt lat="46.02763" lon="4.74892">
        <ele>198.2</ele>
        <time>2024-09-19T13:09:40Z</time>
      </trkpt>
      <trkpt lat="46.0276" lon="4.7489">
        <ele>197.8</ele>
        <time>2024-09-19T13:09:41Z</time>
      </trkpt>
      <trkpt lat="46.02756" lon="4.74888">
        <ele>197.8</ele>
        <time>2024-09-19T13:09:42Z</time>
      </trkpt>
      <trkpt lat="46.02752" lon="4.74886">
        <ele>198.2</ele>
        <time>2024-09-19T13:09:43Z</time>
      </trkpt>
      <trkpt lat="46.02749" lon="4.74882">
        <ele>197.8</ele>
        <time>2024-09-19T13:09:44Z</time>
      </trkpt>
      <trkpt lat="46.02745" lon="4.74879">
        <ele>197.8</ele>
        <time>2024-09-19T13:09:45Z</time>
      </trkpt>
      <trkpt lat="46.02742" lon="4.74876">
        <ele>197.8</ele>
        <time>2024-09-19T13:09:46Z</time>
      </trkpt>
      <trkpt lat="46.02738" lon="4.74873">
        <ele>197.8</ele>
        <time>2024-09-19T13:09:47Z</time>
      </trkpt>
      <trkpt lat="46.02735" lon="4.7487">
        <ele>197.8</ele>
        <time>2024-09-19T13:09:48Z</time>
      </trkpt>
      <trkpt lat="46.02731" lon="4.74867">
        <ele>198</ele>
        <time>2024-09-19T13:09:49Z</time>
      </trkpt>
      <trkpt lat="46.02727" lon="4.74865">
        <ele>198</ele>
        <time>2024-09-19T13:09:50Z</time>
      </trkpt>
      <trkpt lat="46.02721" lon="4.74861">
        <ele>198</ele>
        <time>2024-09-19T13:09:51Z</time>
      </trkpt>
      <trkpt lat="46.0272" lon="4.74859">
        <ele>197.8</ele>
        <time>2024-09-19T13:09:52Z</time>
      </trkpt>
      <trkpt lat="46.02716" lon="4.74857">
        <ele>197.8</ele>
        <time>2024-09-19T13:09:53Z</time>
      </trkpt>
      <trkpt lat="46.02713" lon="4.74855">
        <ele>197.8</ele>
        <time>2024-09-19T13:09:54Z</time>
      </trkpt>
      <trkpt lat="46.0271" lon="4.74853">
        <ele>197.8</ele>
        <time>2024-09-19T13:09:55Z</time>
      </trkpt>
      <trkpt lat="46.02706" lon="4.74852">
        <ele>197.8</ele>
        <time>2024-09-19T13:09:56Z</time>
      </trkpt>
      <trkpt lat="46.02702" lon="4.74849">
        <ele>197.6</ele>
        <time>2024-09-19T13:09:57Z</time>
      </trkpt>
      <trkpt lat="46.02699" lon="4.74847">
        <ele>197.6</ele>
        <time>2024-09-19T13:09:58Z</time>
      </trkpt>
      <trkpt lat="46.02694" lon="4.74846">
        <ele>197.6</ele>
        <time>2024-09-19T13:09:59Z</time>
      </trkpt>
      <trkpt lat="46.0269" lon="4.74844">
        <ele>197.6</ele>
        <time>2024-09-19T13:10:00Z</time>
      </trkpt>
      <trkpt lat="46.02686" lon="4.74842">
        <ele>197.6</ele>
        <time>2024-09-19T13:10:01Z</time>
      </trkpt>
      <trkpt lat="46.02681" lon="4.74841">
        <ele>197.6</ele>
        <time>2024-09-19T13:10:02Z</time>
      </trkpt>
      <trkpt lat="46.02677" lon="4.74841">
        <ele>197.6</ele>
        <time>2024-09-19T13:10:03Z</time>
      </trkpt>
      <trkpt lat="46.02669" lon="4.74838">
        <ele>197.6</ele>
        <time>2024-09-19T13:10:04Z</time>
      </trkpt>
      <trkpt lat="46.02667" lon="4.74837">
        <ele>197.6</ele>
        <time>2024-09-19T13:10:05Z</time>
      </trkpt>
      <trkpt lat="46.02663" lon="4.74836">
        <ele>197.6</ele>
        <time>2024-09-19T13:10:06Z</time>
      </trkpt>
      <trkpt lat="46.02658" lon="4.74834">
        <ele>197.6</ele>
        <time>2024-09-19T13:10:07Z</time>
      </trkpt>
      <trkpt lat="46.02651" lon="4.74831">
        <ele>197.6</ele>
        <time>2024-09-19T13:10:08Z</time>
      </trkpt>
      <trkpt lat="46.02649" lon="4.7483">
        <ele>197.6</ele>
        <time>2024-09-19T13:10:09Z</time>
      </trkpt>
      <trkpt lat="46.02644" lon="4.74829">
        <ele>197.8</ele>
        <time>2024-09-19T13:10:10Z</time>
      </trkpt>
      <trkpt lat="46.0264" lon="4.74827">
        <ele>197.8</ele>
        <time>2024-09-19T13:10:11Z</time>
      </trkpt>
      <trkpt lat="46.02635" lon="4.74825">
        <ele>197.8</ele>
        <time>2024-09-19T13:10:12Z</time>
      </trkpt>
      <trkpt lat="46.02631" lon="4.74823">
        <ele>197.8</ele>
        <time>2024-09-19T13:10:13Z</time>
      </trkpt>
      <trkpt lat="46.02627" lon="4.74821">
        <ele>197.8</ele>
        <time>2024-09-19T13:10:14Z</time>
      </trkpt>
      <trkpt lat="46.02623" lon="4.7482">
        <ele>197.8</ele>
        <time>2024-09-19T13:10:15Z</time>
      </trkpt>
      <trkpt lat="46.02619" lon="4.74818">
        <ele>197.8</ele>
        <time>2024-09-19T13:10:16Z</time>
      </trkpt>
      <trkpt lat="46.02615" lon="4.74816">
        <ele>197.8</ele>
        <time>2024-09-19T13:10:17Z</time>
      </trkpt>
      <trkpt lat="46.02611" lon="4.74815">
        <ele>197.6</ele>
        <time>2024-09-19T13:10:18Z</time>
      </trkpt>
      <trkpt lat="46.02606" lon="4.74813">
        <ele>197.6</ele>
        <time>2024-09-19T13:10:19Z</time>
      </trkpt>
      <trkpt lat="46.02602" lon="4.74812">
        <ele>197.8</ele>
        <time>2024-09-19T13:10:20Z</time>
      </trkpt>
      <trkpt lat="46.02597" lon="4.7481">
        <ele>197.8</ele>
        <time>2024-09-19T13:10:21Z</time>
      </trkpt>
      <trkpt lat="46.02592" lon="4.7481">
        <ele>197.8</ele>
        <time>2024-09-19T13:10:22Z</time>
      </trkpt>
      <trkpt lat="46.02588" lon="4.74809">
        <ele>197.8</ele>
        <time>2024-09-19T13:10:23Z</time>
      </trkpt>
      <trkpt lat="46.02583" lon="4.74807">
        <ele>197.8</ele>
        <time>2024-09-19T13:10:24Z</time>
      </trkpt>
      <trkpt lat="46.02578" lon="4.74806">
        <ele>197.8</ele>
        <time>2024-09-19T13:10:25Z</time>
      </trkpt>
      <trkpt lat="46.02573" lon="4.74804">
        <ele>197.8</ele>
        <time>2024-09-19T13:10:26Z</time>
      </trkpt>
      <trkpt lat="46.02569" lon="4.74803">
        <ele>197.8</ele>
        <time>2024-09-19T13:10:27Z</time>
      </trkpt>
      <trkpt lat="46.02564" lon="4.74802">
        <ele>197.8</ele>
        <time>2024-09-19T13:10:28Z</time>
      </trkpt>
      <trkpt lat="46.0256" lon="4.74801">
        <ele>198</ele>
        <time>2024-09-19T13:10:29Z</time>
      </trkpt>
      <trkpt lat="46.02555" lon="4.748">
        <ele>198</ele>
        <time>2024-09-19T13:10:30Z</time>
      </trkpt>
      <trkpt lat="46.0255" lon="4.74798">
        <ele>198</ele>
        <time>2024-09-19T13:10:31Z</time>
      </trkpt>
      <trkpt lat="46.02545" lon="4.74797">
        <ele>198</ele>
        <time>2024-09-19T13:10:32Z</time>
      </trkpt>
      <trkpt lat="46.0254" lon="4.74796">
        <ele>198</ele>
        <time>2024-09-19T13:10:33Z</time>
      </trkpt>
      <trkpt lat="46.02536" lon="4.74794">
        <ele>198</ele>
        <time>2024-09-19T13:10:34Z</time>
      </trkpt>
      <trkpt lat="46.02529" lon="4.74792">
        <ele>198</ele>
        <time>2024-09-19T13:10:35Z</time>
      </trkpt>
      <trkpt lat="46.02527" lon="4.74791">
        <ele>198</ele>
        <time>2024-09-19T13:10:36Z</time>
      </trkpt>
      <trkpt lat="46.02522" lon="4.7479">
        <ele>198</ele>
        <time>2024-09-19T13:10:37Z</time>
      </trkpt>
      <trkpt lat="46.02518" lon="4.74788">
        <ele>198</ele>
        <time>2024-09-19T13:10:38Z</time>
      </trkpt>
      <trkpt lat="46.02513" lon="4.74787">
        <ele>198</ele>
        <time>2024-09-19T13:10:39Z</time>
      </trkpt>
      <trkpt lat="46.02509" lon="4.74785">
        <ele>198</ele>
        <time>2024-09-19T13:10:40Z</time>
      </trkpt>
      <trkpt lat="46.02504" lon="4.74784">
        <ele>197.8</ele>
        <time>2024-09-19T13:10:41Z</time>
      </trkpt>
      <trkpt lat="46.02499" lon="4.74782">
        <ele>197.8</ele>
        <time>2024-09-19T13:10:42Z</time>
      </trkpt>
      <trkpt lat="46.02495" lon="4.74781">
        <ele>197.8</ele>
        <time>2024-09-19T13:10:43Z</time>
      </trkpt>
      <trkpt lat="46.0249" lon="4.74779">
        <ele>197.8</ele>
        <time>2024-09-19T13:10:44Z</time>
      </trkpt>
      <trkpt lat="46.02486" lon="4.74777">
        <ele>197.8</ele>
        <time>2024-09-19T13:10:45Z</time>
      </trkpt>
      <trkpt lat="46.02481" lon="4.74775">
        <ele>197.8</ele>
        <time>2024-09-19T13:10:46Z</time>
      </trkpt>
      <trkpt lat="46.02477" lon="4.74773">
        <ele>197.8</ele>
        <time>2024-09-19T13:10:47Z</time>
      </trkpt>
      <trkpt lat="46.02472" lon="4.7477">
        <ele>197.8</ele>
        <time>2024-09-19T13:10:48Z</time>
      </trkpt>
      <trkpt lat="46.02466" lon="4.74766">
        <ele>197.8</ele>
        <time>2024-09-19T13:10:49Z</time>
      </trkpt>
      <trkpt lat="46.02464" lon="4.74765">
        <ele>198</ele>
        <time>2024-09-19T13:10:50Z</time>
      </trkpt>
      <trkpt lat="46.02458" lon="4.74761">
        <ele>197.8</ele>
        <time>2024-09-19T13:10:51Z</time>
      </trkpt>
      <trkpt lat="46.02455" lon="4.74759">
        <ele>197.8</ele>
        <time>2024-09-19T13:10:52Z</time>
      </trkpt>
      <trkpt lat="46.02451" lon="4.74757">
        <ele>197.8</ele>
        <time>2024-09-19T13:10:53Z</time>
      </trkpt>
      <trkpt lat="46.02446" lon="4.74756">
        <ele>197.8</ele>
        <time>2024-09-19T13:10:54Z</time>
      </trkpt>
      <trkpt lat="46.02442" lon="4.74754">
        <ele>198</ele>
        <time>2024-09-19T13:10:55Z</time>
      </trkpt>
      <trkpt lat="46.02437" lon="4.74753">
        <ele>198</ele>
        <time>2024-09-19T13:10:56Z</time>
      </trkpt>
      <trkpt lat="46.02432" lon="4.74751">
        <ele>198</ele>
        <time>2024-09-19T13:10:57Z</time>
      </trkpt>
      <trkpt lat="46.02428" lon="4.7475">
        <ele>198</ele>
        <time>2024-09-19T13:10:58Z</time>
      </trkpt>
      <trkpt lat="46.02423" lon="4.74749">
        <ele>198</ele>
        <time>2024-09-19T13:10:59Z</time>
      </trkpt>
      <trkpt lat="46.02419" lon="4.74748">
        <ele>198</ele>
        <time>2024-09-19T13:11:00Z</time>
      </trkpt>
      <trkpt lat="46.02414" lon="4.74747">
        <ele>198</ele>
        <time>2024-09-19T13:11:01Z</time>
      </trkpt>
      <trkpt lat="46.0241" lon="4.74746">
        <ele>198</ele>
        <time>2024-09-19T13:11:02Z</time>
      </trkpt>
      <trkpt lat="46.02405" lon="4.74744">
        <ele>198</ele>
        <time>2024-09-19T13:11:03Z</time>
      </trkpt>
      <trkpt lat="46.02401" lon="4.74742">
        <ele>198</ele>
        <time>2024-09-19T13:11:04Z</time>
      </trkpt>
      <trkpt lat="46.02397" lon="4.74741">
        <ele>198</ele>
        <time>2024-09-19T13:11:05Z</time>
      </trkpt>
      <trkpt lat="46.02392" lon="4.7474">
        <ele>198.4</ele>
        <time>2024-09-19T13:11:06Z</time>
      </trkpt>
      <trkpt lat="46.02388" lon="4.74738">
        <ele>198.4</ele>
        <time>2024-09-19T13:11:07Z</time>
      </trkpt>
      <trkpt lat="46.02384" lon="4.74736">
        <ele>198.4</ele>
        <time>2024-09-19T13:11:08Z</time>
      </trkpt>
      <trkpt lat="46.0238" lon="4.74734">
        <ele>198.6</ele>
        <time>2024-09-19T13:11:09Z</time>
      </trkpt>
      <trkpt lat="46.02376" lon="4.74732">
        <ele>198.6</ele>
        <time>2024-09-19T13:11:10Z</time>
      </trkpt>
      <trkpt lat="46.02372" lon="4.74731">
        <ele>198.6</ele>
        <time>2024-09-19T13:11:11Z</time>
      </trkpt>
      <trkpt lat="46.02367" lon="4.74729">
        <ele>198.6</ele>
        <time>2024-09-19T13:11:12Z</time>
      </trkpt>
      <trkpt lat="46.02363" lon="4.74727">
        <ele>198.6</ele>
        <time>2024-09-19T13:11:13Z</time>
      </trkpt>
      <trkpt lat="46.02359" lon="4.74725">
        <ele>198.6</ele>
        <time>2024-09-19T13:11:14Z</time>
      </trkpt>
      <trkpt lat="46.02355" lon="4.74723">
        <ele>198.6</ele>
        <time>2024-09-19T13:11:15Z</time>
      </trkpt>
      <trkpt lat="46.0235" lon="4.74721">
        <ele>198.6</ele>
        <time>2024-09-19T13:11:16Z</time>
      </trkpt>
      <trkpt lat="46.02346" lon="4.74719">
        <ele>199</ele>
        <time>2024-09-19T13:11:17Z</time>
      </trkpt>
      <trkpt lat="46.02342" lon="4.74717">
        <ele>198.8</ele>
        <time>2024-09-19T13:11:18Z</time>
      </trkpt>
      <trkpt lat="46.02337" lon="4.74715">
        <ele>198.8</ele>
        <time>2024-09-19T13:11:19Z</time>
      </trkpt>
      <trkpt lat="46.02333" lon="4.74713">
        <ele>198.8</ele>
        <time>2024-09-19T13:11:20Z</time>
      </trkpt>
      <trkpt lat="46.02329" lon="4.7471">
        <ele>198.8</ele>
        <time>2024-09-19T13:11:21Z</time>
      </trkpt>
      <trkpt lat="46.02325" lon="4.74709">
        <ele>198.8</ele>
        <time>2024-09-19T13:11:22Z</time>
      </trkpt>
      <trkpt lat="46.0232" lon="4.74707">
        <ele>198.8</ele>
        <time>2024-09-19T13:11:23Z</time>
      </trkpt>
      <trkpt lat="46.02316" lon="4.74705">
        <ele>198.8</ele>
        <time>2024-09-19T13:11:24Z</time>
      </trkpt>
      <trkpt lat="46.02312" lon="4.74703">
        <ele>198.8</ele>
        <time>2024-09-19T13:11:25Z</time>
      </trkpt>
      <trkpt lat="46.02306" lon="4.74699">
        <ele>199</ele>
        <time>2024-09-19T13:11:26Z</time>
      </trkpt>
      <trkpt lat="46.02304" lon="4.74698">
        <ele>199</ele>
        <time>2024-09-19T13:11:27Z</time>
      </trkpt>
      <trkpt lat="46.02298" lon="4.74695">
        <ele>199</ele>
        <time>2024-09-19T13:11:28Z</time>
      </trkpt>
      <trkpt lat="46.02295" lon="4.74694">
        <ele>199</ele>
        <time>2024-09-19T13:11:29Z</time>
      </trkpt>
      <trkpt lat="46.02291" lon="4.74693">
        <ele>199</ele>
        <time>2024-09-19T13:11:30Z</time>
      </trkpt>
      <trkpt lat="46.02287" lon="4.74691">
        <ele>199</ele>
        <time>2024-09-19T13:11:31Z</time>
      </trkpt>
      <trkpt lat="46.02283" lon="4.74688">
        <ele>199</ele>
        <time>2024-09-19T13:11:32Z</time>
      </trkpt>
      <trkpt lat="46.02279" lon="4.74686">
        <ele>199</ele>
        <time>2024-09-19T13:11:33Z</time>
      </trkpt>
      <trkpt lat="46.02274" lon="4.74684">
        <ele>198.6</ele>
        <time>2024-09-19T13:11:34Z</time>
      </trkpt>
      <trkpt lat="46.02269" lon="4.74682">
        <ele>198.6</ele>
        <time>2024-09-19T13:11:35Z</time>
      </trkpt>
      <trkpt lat="46.02265" lon="4.7468">
        <ele>198.8</ele>
        <time>2024-09-19T13:11:36Z</time>
      </trkpt>
      <trkpt lat="46.0226" lon="4.74678">
        <ele>198.8</ele>
        <time>2024-09-19T13:11:37Z</time>
      </trkpt>
      <trkpt lat="46.02254" lon="4.74675">
        <ele>198.8</ele>
        <time>2024-09-19T13:11:38Z</time>
      </trkpt>
      <trkpt lat="46.02252" lon="4.74674">
        <ele>198.8</ele>
        <time>2024-09-19T13:11:39Z</time>
      </trkpt>
      <trkpt lat="46.02246" lon="4.7467">
        <ele>198.6</ele>
        <time>2024-09-19T13:11:40Z</time>
      </trkpt>
      <trkpt lat="46.02244" lon="4.74669">
        <ele>198.6</ele>
        <time>2024-09-19T13:11:41Z</time>
      </trkpt>
      <trkpt lat="46.0224" lon="4.74666">
        <ele>198.6</ele>
        <time>2024-09-19T13:11:42Z</time>
      </trkpt>
      <trkpt lat="46.02236" lon="4.74664">
        <ele>198.6</ele>
        <time>2024-09-19T13:11:43Z</time>
      </trkpt>
      <trkpt lat="46.02232" lon="4.74662">
        <ele>198.6</ele>
        <time>2024-09-19T13:11:44Z</time>
      </trkpt>
      <trkpt lat="46.02228" lon="4.74659">
        <ele>198.6</ele>
        <time>2024-09-19T13:11:45Z</time>
      </trkpt>
      <trkpt lat="46.02225" lon="4.74657">
        <ele>198.4</ele>
        <time>2024-09-19T13:11:46Z</time>
      </trkpt>
      <trkpt lat="46.02221" lon="4.74655">
        <ele>198.4</ele>
        <time>2024-09-19T13:11:47Z</time>
      </trkpt>
      <trkpt lat="46.02217" lon="4.74652">
        <ele>198.4</ele>
        <time>2024-09-19T13:11:48Z</time>
      </trkpt>
      <trkpt lat="46.02213" lon="4.7465">
        <ele>198.6</ele>
        <time>2024-09-19T13:11:49Z</time>
      </trkpt>
      <trkpt lat="46.02209" lon="4.74648">
        <ele>198.6</ele>
        <time>2024-09-19T13:11:50Z</time>
      </trkpt>
      <trkpt lat="46.02205" lon="4.74646">
        <ele>198.6</ele>
        <time>2024-09-19T13:11:51Z</time>
      </trkpt>
      <trkpt lat="46.02198" lon="4.74643">
        <ele>198.6</ele>
        <time>2024-09-19T13:11:52Z</time>
      </trkpt>
      <trkpt lat="46.02196" lon="4.74642">
        <ele>198.6</ele>
        <time>2024-09-19T13:11:53Z</time>
      </trkpt>
      <trkpt lat="46.02191" lon="4.7464">
        <ele>198.6</ele>
        <time>2024-09-19T13:11:54Z</time>
      </trkpt>
      <trkpt lat="46.02187" lon="4.74638">
        <ele>198.6</ele>
        <time>2024-09-19T13:11:55Z</time>
      </trkpt>
      <trkpt lat="46.02182" lon="4.74637">
        <ele>198.6</ele>
        <time>2024-09-19T13:11:56Z</time>
      </trkpt>
      <trkpt lat="46.02178" lon="4.74635">
        <ele>198.6</ele>
        <time>2024-09-19T13:11:57Z</time>
      </trkpt>
      <trkpt lat="46.02173" lon="4.74633">
        <ele>198.8</ele>
        <time>2024-09-19T13:11:58Z</time>
      </trkpt>
      <trkpt lat="46.02166" lon="4.7463">
        <ele>198.8</ele>
        <time>2024-09-19T13:11:59Z</time>
      </trkpt>
      <trkpt lat="46.02163" lon="4.74629">
        <ele>198.8</ele>
        <time>2024-09-19T13:12:00Z</time>
      </trkpt>
      <trkpt lat="46.02158" lon="4.74627">
        <ele>198.8</ele>
        <time>2024-09-19T13:12:01Z</time>
      </trkpt>
      <trkpt lat="46.02154" lon="4.74625">
        <ele>198.4</ele>
        <time>2024-09-19T13:12:02Z</time>
      </trkpt>
      <trkpt lat="46.02149" lon="4.74623">
        <ele>198.4</ele>
        <time>2024-09-19T13:12:03Z</time>
      </trkpt>
      <trkpt lat="46.02141" lon="4.7462">
        <ele>198.4</ele>
        <time>2024-09-19T13:12:04Z</time>
      </trkpt>
      <trkpt lat="46.02139" lon="4.74619">
        <ele>198.4</ele>
        <time>2024-09-19T13:12:05Z</time>
      </trkpt>
      <trkpt lat="46.02134" lon="4.74617">
        <ele>198.4</ele>
        <time>2024-09-19T13:12:06Z</time>
      </trkpt>
      <trkpt lat="46.0213" lon="4.74615">
        <ele>198.2</ele>
        <time>2024-09-19T13:12:07Z</time>
      </trkpt>
      <trkpt lat="46.02125" lon="4.74613">
        <ele>198.2</ele>
        <time>2024-09-19T13:12:08Z</time>
      </trkpt>
      <trkpt lat="46.0212" lon="4.74611">
        <ele>198.2</ele>
        <time>2024-09-19T13:12:09Z</time>
      </trkpt>
      <trkpt lat="46.02115" lon="4.74609">
        <ele>198.2</ele>
        <time>2024-09-19T13:12:10Z</time>
      </trkpt>
      <trkpt lat="46.02111" lon="4.74607">
        <ele>198.2</ele>
        <time>2024-09-19T13:12:11Z</time>
      </trkpt>
      <trkpt lat="46.02106" lon="4.74605">
        <ele>198.4</ele>
        <time>2024-09-19T13:12:12Z</time>
      </trkpt>
      <trkpt lat="46.02101" lon="4.74604">
        <ele>198.4</ele>
        <time>2024-09-19T13:12:13Z</time>
      </trkpt>
      <trkpt lat="46.02094" lon="4.74601">
        <ele>198.4</ele>
        <time>2024-09-19T13:12:14Z</time>
      </trkpt>
      <trkpt lat="46.02091" lon="4.74601">
        <ele>198.4</ele>
        <time>2024-09-19T13:12:15Z</time>
      </trkpt>
      <trkpt lat="46.02087" lon="4.74599">
        <ele>198.4</ele>
        <time>2024-09-19T13:12:16Z</time>
      </trkpt>
      <trkpt lat="46.02082" lon="4.74598">
        <ele>198.4</ele>
        <time>2024-09-19T13:12:17Z</time>
      </trkpt>
      <trkpt lat="46.02078" lon="4.74597">
        <ele>198.4</ele>
        <time>2024-09-19T13:12:18Z</time>
      </trkpt>
      <trkpt lat="46.02071" lon="4.74596">
        <ele>198.2</ele>
        <time>2024-09-19T13:12:19Z</time>
      </trkpt>
      <trkpt lat="46.02069" lon="4.74595">
        <ele>198.4</ele>
        <time>2024-09-19T13:12:20Z</time>
      </trkpt>
      <trkpt lat="46.02064" lon="4.74594">
        <ele>198.4</ele>
        <time>2024-09-19T13:12:21Z</time>
      </trkpt>
      <trkpt lat="46.0206" lon="4.74593">
        <ele>198.4</ele>
        <time>2024-09-19T13:12:22Z</time>
      </trkpt>
      <trkpt lat="46.02055" lon="4.74592">
        <ele>198.4</ele>
        <time>2024-09-19T13:12:23Z</time>
      </trkpt>
      <trkpt lat="46.02051" lon="4.7459">
        <ele>198.4</ele>
        <time>2024-09-19T13:12:24Z</time>
      </trkpt>
      <trkpt lat="46.02046" lon="4.74589">
        <ele>198.2</ele>
        <time>2024-09-19T13:12:25Z</time>
      </trkpt>
      <trkpt lat="46.02042" lon="4.74587">
        <ele>198.2</ele>
        <time>2024-09-19T13:12:26Z</time>
      </trkpt>
      <trkpt lat="46.02037" lon="4.74586">
        <ele>198.2</ele>
        <time>2024-09-19T13:12:27Z</time>
      </trkpt>
      <trkpt lat="46.02032" lon="4.74585">
        <ele>198.2</ele>
        <time>2024-09-19T13:12:28Z</time>
      </trkpt>
      <trkpt lat="46.02028" lon="4.74584">
        <ele>198.2</ele>
        <time>2024-09-19T13:12:29Z</time>
      </trkpt>
      <trkpt lat="46.02023" lon="4.74583">
        <ele>198.6</ele>
        <time>2024-09-19T13:12:30Z</time>
      </trkpt>
      <trkpt lat="46.02017" lon="4.74582">
        <ele>198.6</ele>
        <time>2024-09-19T13:12:31Z</time>
      </trkpt>
      <trkpt lat="46.02012" lon="4.74582">
        <ele>198.6</ele>
        <time>2024-09-19T13:12:32Z</time>
      </trkpt>
      <trkpt lat="46.02005" lon="4.74581">
        <ele>198.6</ele>
        <time>2024-09-19T13:12:33Z</time>
      </trkpt>
      <trkpt lat="46.02003" lon="4.7458">
        <ele>198.2</ele>
        <time>2024-09-19T13:12:34Z</time>
      </trkpt>
      <trkpt lat="46.01995" lon="4.7458">
        <ele>198</ele>
        <time>2024-09-19T13:12:35Z</time>
      </trkpt>
      <trkpt lat="46.01993" lon="4.7458">
        <ele>198</ele>
        <time>2024-09-19T13:12:36Z</time>
      </trkpt>
      <trkpt lat="46.01988" lon="4.7458">
        <ele>198</ele>
        <time>2024-09-19T13:12:37Z</time>
      </trkpt>
      <trkpt lat="46.01983" lon="4.74579">
        <ele>198</ele>
        <time>2024-09-19T13:12:38Z</time>
      </trkpt>
      <trkpt lat="46.01978" lon="4.74578">
        <ele>198.2</ele>
        <time>2024-09-19T13:12:39Z</time>
      </trkpt>
      <trkpt lat="46.01973" lon="4.74578">
        <ele>198.2</ele>
        <time>2024-09-19T13:12:40Z</time>
      </trkpt>
      <trkpt lat="46.01968" lon="4.74577">
        <ele>198.2</ele>
        <time>2024-09-19T13:12:41Z</time>
      </trkpt>
      <trkpt lat="46.01963" lon="4.74577">
        <ele>198</ele>
        <time>2024-09-19T13:12:42Z</time>
      </trkpt>
      <trkpt lat="46.01959" lon="4.74576">
        <ele>198</ele>
        <time>2024-09-19T13:12:43Z</time>
      </trkpt>
      <trkpt lat="46.01954" lon="4.74576">
        <ele>197.8</ele>
        <time>2024-09-19T13:12:44Z</time>
      </trkpt>
      <trkpt lat="46.01949" lon="4.74576">
        <ele>197.8</ele>
        <time>2024-09-19T13:12:45Z</time>
      </trkpt>
      <trkpt lat="46.01944" lon="4.74576">
        <ele>197.8</ele>
        <time>2024-09-19T13:12:46Z</time>
      </trkpt>
      <trkpt lat="46.0194" lon="4.74576">
        <ele>198</ele>
        <time>2024-09-19T13:12:47Z</time>
      </trkpt>
      <trkpt lat="46.01936" lon="4.74577">
        <ele>198</ele>
        <time>2024-09-19T13:12:48Z</time>
      </trkpt>
      <trkpt lat="46.01931" lon="4.74577">
        <ele>198</ele>
        <time>2024-09-19T13:12:49Z</time>
      </trkpt>
      <trkpt lat="46.01927" lon="4.74578">
        <ele>198</ele>
        <time>2024-09-19T13:12:50Z</time>
      </trkpt>
      <trkpt lat="46.01923" lon="4.74578">
        <ele>198</ele>
        <time>2024-09-19T13:12:51Z</time>
      </trkpt>
      <trkpt lat="46.01919" lon="4.74578">
        <ele>198</ele>
        <time>2024-09-19T13:12:52Z</time>
      </trkpt>
      <trkpt lat="46.01914" lon="4.74578">
        <ele>198</ele>
        <time>2024-09-19T13:12:53Z</time>
      </trkpt>
      <trkpt lat="46.01909" lon="4.74577">
        <ele>198</ele>
        <time>2024-09-19T13:12:54Z</time>
      </trkpt>
      <trkpt lat="46.01905" lon="4.74577">
        <ele>198</ele>
        <time>2024-09-19T13:12:55Z</time>
      </trkpt>
      <trkpt lat="46.01898" lon="4.74577">
        <ele>198.2</ele>
        <time>2024-09-19T13:12:56Z</time>
      </trkpt>
      <trkpt lat="46.01895" lon="4.74577">
        <ele>198.2</ele>
        <time>2024-09-19T13:12:57Z</time>
      </trkpt>
      <trkpt lat="46.01888" lon="4.74577">
        <ele>198.2</ele>
        <time>2024-09-19T13:12:58Z</time>
      </trkpt>
      <trkpt lat="46.01886" lon="4.74577">
        <ele>198.2</ele>
        <time>2024-09-19T13:12:59Z</time>
      </trkpt>
      <trkpt lat="46.01878" lon="4.74577">
        <ele>198.2</ele>
        <time>2024-09-19T13:13:00Z</time>
      </trkpt>
      <trkpt lat="46.01876" lon="4.74577">
        <ele>198.2</ele>
        <time>2024-09-19T13:13:01Z</time>
      </trkpt>
      <trkpt lat="46.01871" lon="4.74577">
        <ele>198.2</ele>
        <time>2024-09-19T13:13:02Z</time>
      </trkpt>
      <trkpt lat="46.01867" lon="4.74576">
        <ele>198.2</ele>
        <time>2024-09-19T13:13:03Z</time>
      </trkpt>
      <trkpt lat="46.01862" lon="4.74576">
        <ele>198.2</ele>
        <time>2024-09-19T13:13:04Z</time>
      </trkpt>
      <trkpt lat="46.01857" lon="4.74577">
        <ele>198.2</ele>
        <time>2024-09-19T13:13:05Z</time>
      </trkpt>
      <trkpt lat="46.01852" lon="4.74577">
        <ele>198.4</ele>
        <time>2024-09-19T13:13:06Z</time>
      </trkpt>
      <trkpt lat="46.01848" lon="4.74577">
        <ele>198.4</ele>
        <time>2024-09-19T13:13:07Z</time>
      </trkpt>
      <trkpt lat="46.01843" lon="4.74577">
        <ele>198.4</ele>
        <time>2024-09-19T13:13:08Z</time>
      </trkpt>
      <trkpt lat="46.01838" lon="4.74578">
        <ele>198.2</ele>
        <time>2024-09-19T13:13:09Z</time>
      </trkpt>
      <trkpt lat="46.01834" lon="4.74579">
        <ele>198.2</ele>
        <time>2024-09-19T13:13:10Z</time>
      </trkpt>
      <trkpt lat="46.0183" lon="4.74581">
        <ele>198.6</ele>
        <time>2024-09-19T13:13:11Z</time>
      </trkpt>
      <trkpt lat="46.01824" lon="4.74582">
        <ele>198.6</ele>
        <time>2024-09-19T13:13:12Z</time>
      </trkpt>
      <trkpt lat="46.01822" lon="4.74582">
        <ele>198.6</ele>
        <time>2024-09-19T13:13:13Z</time>
      </trkpt>
      <trkpt lat="46.01819" lon="4.74583">
        <ele>198.6</ele>
        <time>2024-09-19T13:13:14Z</time>
      </trkpt>
      <trkpt lat="46.01815" lon="4.74584">
        <ele>199</ele>
        <time>2024-09-19T13:13:15Z</time>
      </trkpt>
      <trkpt lat="46.01811" lon="4.74585">
        <ele>199</ele>
        <time>2024-09-19T13:13:16Z</time>
      </trkpt>
      <trkpt lat="46.01807" lon="4.74586">
        <ele>199</ele>
        <time>2024-09-19T13:13:17Z</time>
      </trkpt>
      <trkpt lat="46.01803" lon="4.74587">
        <ele>199</ele>
        <time>2024-09-19T13:13:18Z</time>
      </trkpt>
      <trkpt lat="46.01799" lon="4.74588">
        <ele>199</ele>
        <time>2024-09-19T13:13:19Z</time>
      </trkpt>
      <trkpt lat="46.01792" lon="4.7459">
        <ele>199</ele>
        <time>2024-09-19T13:13:20Z</time>
      </trkpt>
      <trkpt lat="46.0179" lon="4.7459">
        <ele>199</ele>
        <time>2024-09-19T13:13:21Z</time>
      </trkpt>
      <trkpt lat="46.01786" lon="4.74592">
        <ele>199</ele>
        <time>2024-09-19T13:13:22Z</time>
      </trkpt>
      <trkpt lat="46.01782" lon="4.74592">
        <ele>199.2</ele>
        <time>2024-09-19T13:13:23Z</time>
      </trkpt>
      <trkpt lat="46.01778" lon="4.74593">
        <ele>199.4</ele>
        <time>2024-09-19T13:13:24Z</time>
      </trkpt>
      <trkpt lat="46.01773" lon="4.74594">
        <ele>199.4</ele>
        <time>2024-09-19T13:13:25Z</time>
      </trkpt>
      <trkpt lat="46.01769" lon="4.74596">
        <ele>199.4</ele>
        <time>2024-09-19T13:13:26Z</time>
      </trkpt>
      <trkpt lat="46.01765" lon="4.74598">
        <ele>199.4</ele>
        <time>2024-09-19T13:13:27Z</time>
      </trkpt>
      <trkpt lat="46.0176" lon="4.746">
        <ele>199.2</ele>
        <time>2024-09-19T13:13:28Z</time>
      </trkpt>
      <trkpt lat="46.01754" lon="4.74601">
        <ele>199.2</ele>
        <time>2024-09-19T13:13:29Z</time>
      </trkpt>
      <trkpt lat="46.01751" lon="4.74602">
        <ele>199.2</ele>
        <time>2024-09-19T13:13:30Z</time>
      </trkpt>
      <trkpt lat="46.01744" lon="4.74604">
        <ele>199.2</ele>
        <time>2024-09-19T13:13:31Z</time>
      </trkpt>
      <trkpt lat="46.01742" lon="4.74604">
        <ele>199.2</ele>
        <time>2024-09-19T13:13:32Z</time>
      </trkpt>
      <trkpt lat="46.01737" lon="4.74605">
        <ele>199.2</ele>
        <time>2024-09-19T13:13:33Z</time>
      </trkpt>
      <trkpt lat="46.01733" lon="4.74607">
        <ele>199.2</ele>
        <time>2024-09-19T13:13:34Z</time>
      </trkpt>
      <trkpt lat="46.01728" lon="4.74608">
        <ele>199.2</ele>
        <time>2024-09-19T13:13:35Z</time>
      </trkpt>
      <trkpt lat="46.01723" lon="4.7461">
        <ele>198.8</ele>
        <time>2024-09-19T13:13:36Z</time>
      </trkpt>
      <trkpt lat="46.01719" lon="4.74612">
        <ele>198.8</ele>
        <time>2024-09-19T13:13:37Z</time>
      </trkpt>
      <trkpt lat="46.01714" lon="4.74615">
        <ele>198.8</ele>
        <time>2024-09-19T13:13:38Z</time>
      </trkpt>
      <trkpt lat="46.0171" lon="4.74617">
        <ele>198.8</ele>
        <time>2024-09-19T13:13:39Z</time>
      </trkpt>
      <trkpt lat="46.01705" lon="4.7462">
        <ele>198.8</ele>
        <time>2024-09-19T13:13:40Z</time>
      </trkpt>
      <trkpt lat="46.017" lon="4.74623">
        <ele>198.6</ele>
        <time>2024-09-19T13:13:41Z</time>
      </trkpt>
      <trkpt lat="46.01696" lon="4.74625">
        <ele>198.4</ele>
        <time>2024-09-19T13:13:42Z</time>
      </trkpt>
      <trkpt lat="46.01689" lon="4.7463">
        <ele>198.4</ele>
        <time>2024-09-19T13:13:43Z</time>
      </trkpt>
      <trkpt lat="46.01686" lon="4.74631">
        <ele>198.4</ele>
        <time>2024-09-19T13:13:44Z</time>
      </trkpt>
      <trkpt lat="46.01681" lon="4.74634">
        <ele>198.2</ele>
        <time>2024-09-19T13:13:45Z</time>
      </trkpt>
      <trkpt lat="46.01676" lon="4.74636">
        <ele>198.2</ele>
        <time>2024-09-19T13:13:46Z</time>
      </trkpt>
      <trkpt lat="46.0167" lon="4.74638">
        <ele>198.2</ele>
        <time>2024-09-19T13:13:47Z</time>
      </trkpt>
      <trkpt lat="46.01668" lon="4.74639">
        <ele>198.2</ele>
        <time>2024-09-19T13:13:48Z</time>
      </trkpt>
      <trkpt lat="46.01665" lon="4.74641">
        <ele>198.2</ele>
        <time>2024-09-19T13:13:49Z</time>
      </trkpt>
      <trkpt lat="46.01662" lon="4.74643">
        <ele>198.2</ele>
        <time>2024-09-19T13:13:50Z</time>
      </trkpt>
      <trkpt lat="46.0166" lon="4.74643">
        <ele>198.2</ele>
        <time>2024-09-19T13:13:51Z</time>
      </trkpt>
      <trkpt lat="46.01657" lon="4.74644">
        <ele>198.2</ele>
        <time>2024-09-19T13:13:52Z</time>
      </trkpt>
      <trkpt lat="46.01655" lon="4.74644">
        <ele>198.2</ele>
        <time>2024-09-19T13:13:53Z</time>
      </trkpt>
      <trkpt lat="46.01653" lon="4.74645">
        <ele>198.2</ele>
        <time>2024-09-19T13:13:54Z</time>
      </trkpt>
      <trkpt lat="46.01652" lon="4.74646">
        <ele>198</ele>
        <time>2024-09-19T13:13:55Z</time>
      </trkpt>
      <trkpt lat="46.01651" lon="4.74646">
        <ele>198</ele>
        <time>2024-09-19T13:13:56Z</time>
      </trkpt>
      <trkpt lat="46.0165" lon="4.74646">
        <ele>198</ele>
        <time>2024-09-19T13:13:57Z</time>
      </trkpt>
      <trkpt lat="46.0165" lon="4.74646">
        <ele>198</ele>
        <time>2024-09-19T13:13:58Z</time>
      </trkpt>
      <trkpt lat="46.0165" lon="4.74646">
        <ele>198</ele>
        <time>2024-09-19T13:13:59Z</time>
      </trkpt>
      <trkpt lat="46.01644" lon="4.74649">
        <ele>198.2</ele>
        <time>2024-09-19T13:16:09Z</time>
      </trkpt>
      <trkpt lat="46.01642" lon="4.7465">
        <ele>198</ele>
        <time>2024-09-19T13:16:10Z</time>
      </trkpt>
      <trkpt lat="46.01641" lon="4.74651">
        <ele>198</ele>
        <time>2024-09-19T13:16:11Z</time>
      </trkpt>
      <trkpt lat="46.01639" lon="4.74652">
        <ele>198</ele>
        <time>2024-09-19T13:16:12Z</time>
      </trkpt>
      <trkpt lat="46.01637" lon="4.74653">
        <ele>198</ele>
        <time>2024-09-19T13:16:13Z</time>
      </trkpt>
      <trkpt lat="46.01635" lon="4.74654">
        <ele>198</ele>
        <time>2024-09-19T13:16:14Z</time>
      </trkpt>
      <trkpt lat="46.01632" lon="4.74656">
        <ele>197.8</ele>
        <time>2024-09-19T13:16:15Z</time>
      </trkpt>
      <trkpt lat="46.01629" lon="4.74657">
        <ele>197.8</ele>
        <time>2024-09-19T13:16:16Z</time>
      </trkpt>
      <trkpt lat="46.01626" lon="4.74659">
        <ele>197.8</ele>
        <time>2024-09-19T13:16:17Z</time>
      </trkpt>
      <trkpt lat="46.01623" lon="4.74661">
        <ele>197.8</ele>
        <time>2024-09-19T13:16:18Z</time>
      </trkpt>
      <trkpt lat="46.0162" lon="4.74663">
        <ele>197.6</ele>
        <time>2024-09-19T13:16:19Z</time>
      </trkpt>
      <trkpt lat="46.01616" lon="4.74664">
        <ele>197.6</ele>
        <time>2024-09-19T13:16:20Z</time>
      </trkpt>
      <trkpt lat="46.01613" lon="4.74667">
        <ele>197.6</ele>
        <time>2024-09-19T13:16:21Z</time>
      </trkpt>
      <trkpt lat="46.01609" lon="4.74669">
        <ele>197.6</ele>
        <time>2024-09-19T13:16:22Z</time>
      </trkpt>
      <trkpt lat="46.01606" lon="4.74671">
        <ele>197.6</ele>
        <time>2024-09-19T13:16:23Z</time>
      </trkpt>
      <trkpt lat="46.016" lon="4.74674">
        <ele>197.8</ele>
        <time>2024-09-19T13:16:24Z</time>
      </trkpt>
      <trkpt lat="46.01598" lon="4.74675">
        <ele>197.8</ele>
        <time>2024-09-19T13:16:25Z</time>
      </trkpt>
      <trkpt lat="46.01593" lon="4.74679">
        <ele>197.8</ele>
        <time>2024-09-19T13:16:26Z</time>
      </trkpt>
      <trkpt lat="46.01591" lon="4.7468">
        <ele>197.8</ele>
        <time>2024-09-19T13:16:27Z</time>
      </trkpt>
      <trkpt lat="46.01588" lon="4.74683">
        <ele>197.8</ele>
        <time>2024-09-19T13:16:28Z</time>
      </trkpt>
      <trkpt lat="46.01584" lon="4.74685">
        <ele>198</ele>
        <time>2024-09-19T13:16:29Z</time>
      </trkpt>
      <trkpt lat="46.01581" lon="4.74688">
        <ele>198</ele>
        <time>2024-09-19T13:16:30Z</time>
      </trkpt>
      <trkpt lat="46.01577" lon="4.7469">
        <ele>197.8</ele>
        <time>2024-09-19T13:16:31Z</time>
      </trkpt>
      <trkpt lat="46.01573" lon="4.74692">
        <ele>198</ele>
        <time>2024-09-19T13:16:32Z</time>
      </trkpt>
      <trkpt lat="46.01569" lon="4.74695">
        <ele>198</ele>
        <time>2024-09-19T13:16:33Z</time>
      </trkpt>
      <trkpt lat="46.01565" lon="4.74697">
        <ele>198</ele>
        <time>2024-09-19T13:16:34Z</time>
      </trkpt>
      <trkpt lat="46.01561" lon="4.747">
        <ele>198</ele>
        <time>2024-09-19T13:16:35Z</time>
      </trkpt>
      <trkpt lat="46.01557" lon="4.74703">
        <ele>198</ele>
        <time>2024-09-19T13:16:36Z</time>
      </trkpt>
      <trkpt lat="46.01553" lon="4.74705">
        <ele>197.8</ele>
        <time>2024-09-19T13:16:37Z</time>
      </trkpt>
      <trkpt lat="46.01548" lon="4.74708">
        <ele>197.8</ele>
        <time>2024-09-19T13:16:38Z</time>
      </trkpt>
      <trkpt lat="46.01544" lon="4.7471">
        <ele>197.8</ele>
        <time>2024-09-19T13:16:39Z</time>
      </trkpt>
      <trkpt lat="46.0154" lon="4.74713">
        <ele>197.8</ele>
        <time>2024-09-19T13:16:40Z</time>
      </trkpt>
      <trkpt lat="46.01536" lon="4.74716">
        <ele>197.6</ele>
        <time>2024-09-19T13:16:41Z</time>
      </trkpt>
      <trkpt lat="46.01531" lon="4.74719">
        <ele>197.8</ele>
        <time>2024-09-19T13:16:42Z</time>
      </trkpt>
      <trkpt lat="46.01527" lon="4.74721">
        <ele>197.8</ele>
        <time>2024-09-19T13:16:43Z</time>
      </trkpt>
      <trkpt lat="46.01523" lon="4.74724">
        <ele>197.8</ele>
        <time>2024-09-19T13:16:44Z</time>
      </trkpt>
      <trkpt lat="46.01518" lon="4.74727">
        <ele>197.8</ele>
        <time>2024-09-19T13:16:45Z</time>
      </trkpt>
      <trkpt lat="46.01514" lon="4.7473">
        <ele>197.8</ele>
        <time>2024-09-19T13:16:46Z</time>
      </trkpt>
      <trkpt lat="46.0151" lon="4.74733">
        <ele>197.6</ele>
        <time>2024-09-19T13:16:47Z</time>
      </trkpt>
      <trkpt lat="46.01506" lon="4.74736">
        <ele>197.6</ele>
        <time>2024-09-19T13:16:48Z</time>
      </trkpt>
      <trkpt lat="46.01501" lon="4.74739">
        <ele>197.6</ele>
        <time>2024-09-19T13:16:49Z</time>
      </trkpt>
      <trkpt lat="46.01495" lon="4.74743">
        <ele>197.6</ele>
        <time>2024-09-19T13:16:50Z</time>
      </trkpt>
      <trkpt lat="46.01492" lon="4.74745">
        <ele>197.2</ele>
        <time>2024-09-19T13:16:51Z</time>
      </trkpt>
      <trkpt lat="46.01488" lon="4.74747">
        <ele>197.2</ele>
        <time>2024-09-19T13:16:52Z</time>
      </trkpt>
      <trkpt lat="46.01484" lon="4.7475">
        <ele>197.2</ele>
        <time>2024-09-19T13:16:53Z</time>
      </trkpt>
      <trkpt lat="46.01479" lon="4.74753">
        <ele>197.2</ele>
        <time>2024-09-19T13:16:54Z</time>
      </trkpt>
      <trkpt lat="46.01475" lon="4.74757">
        <ele>197.2</ele>
        <time>2024-09-19T13:16:55Z</time>
      </trkpt>
      <trkpt lat="46.01469" lon="4.74762">
        <ele>197.2</ele>
        <time>2024-09-19T13:16:56Z</time>
      </trkpt>
      <trkpt lat="46.01466" lon="4.74763">
        <ele>197.2</ele>
        <time>2024-09-19T13:16:57Z</time>
      </trkpt>
      <trkpt lat="46.01462" lon="4.74766">
        <ele>197.2</ele>
        <time>2024-09-19T13:16:58Z</time>
      </trkpt>
      <trkpt lat="46.01456" lon="4.74771">
        <ele>197.2</ele>
        <time>2024-09-19T13:16:59Z</time>
      </trkpt>
      <trkpt lat="46.01454" lon="4.74773">
        <ele>197.4</ele>
        <time>2024-09-19T13:17:00Z</time>
      </trkpt>
      <trkpt lat="46.01449" lon="4.74777">
        <ele>197.4</ele>
        <time>2024-09-19T13:17:01Z</time>
      </trkpt>
      <trkpt lat="46.01445" lon="4.7478">
        <ele>197.4</ele>
        <time>2024-09-19T13:17:02Z</time>
      </trkpt>
      <trkpt lat="46.01441" lon="4.74784">
        <ele>197.4</ele>
        <time>2024-09-19T13:17:03Z</time>
      </trkpt>
      <trkpt lat="46.01437" lon="4.74787">
        <ele>197.2</ele>
        <time>2024-09-19T13:17:04Z</time>
      </trkpt>
      <trkpt lat="46.01433" lon="4.74791">
        <ele>197.2</ele>
        <time>2024-09-19T13:17:05Z</time>
      </trkpt>
      <trkpt lat="46.01429" lon="4.74794">
        <ele>197.2</ele>
        <time>2024-09-19T13:17:06Z</time>
      </trkpt>
      <trkpt lat="46.01423" lon="4.748">
        <ele>197.2</ele>
        <time>2024-09-19T13:17:07Z</time>
      </trkpt>
      <trkpt lat="46.01421" lon="4.74802">
        <ele>197.2</ele>
        <time>2024-09-19T13:17:08Z</time>
      </trkpt>
      <trkpt lat="46.01415" lon="4.74808">
        <ele>197</ele>
        <time>2024-09-19T13:17:09Z</time>
      </trkpt>
      <trkpt lat="46.01413" lon="4.7481">
        <ele>197</ele>
        <time>2024-09-19T13:17:10Z</time>
      </trkpt>
      <trkpt lat="46.01409" lon="4.74814">
        <ele>197</ele>
        <time>2024-09-19T13:17:11Z</time>
      </trkpt>
      <trkpt lat="46.01406" lon="4.74819">
        <ele>196.8</ele>
        <time>2024-09-19T13:17:12Z</time>
      </trkpt>
      <trkpt lat="46.01402" lon="4.74823">
        <ele>197</ele>
        <time>2024-09-19T13:17:13Z</time>
      </trkpt>
      <trkpt lat="46.01399" lon="4.74827">
        <ele>197</ele>
        <time>2024-09-19T13:17:14Z</time>
      </trkpt>
      <trkpt lat="46.01395" lon="4.74832">
        <ele>197</ele>
        <time>2024-09-19T13:17:15Z</time>
      </trkpt>
      <trkpt lat="46.01392" lon="4.74836">
        <ele>197.2</ele>
        <time>2024-09-19T13:17:16Z</time>
      </trkpt>
      <trkpt lat="46.01388" lon="4.7484">
        <ele>197.2</ele>
        <time>2024-09-19T13:17:17Z</time>
      </trkpt>
      <trkpt lat="46.01385" lon="4.74845">
        <ele>197.4</ele>
        <time>2024-09-19T13:17:18Z</time>
      </trkpt>
      <trkpt lat="46.01382" lon="4.74849">
        <ele>197.4</ele>
        <time>2024-09-19T13:17:19Z</time>
      </trkpt>
      <trkpt lat="46.01378" lon="4.74854">
        <ele>197.4</ele>
        <time>2024-09-19T13:17:20Z</time>
      </trkpt>
      <trkpt lat="46.01375" lon="4.74857">
        <ele>197.4</ele>
        <time>2024-09-19T13:17:21Z</time>
      </trkpt>
      <trkpt lat="46.01372" lon="4.74861">
        <ele>197.4</ele>
        <time>2024-09-19T13:17:22Z</time>
      </trkpt>
      <trkpt lat="46.01367" lon="4.74867">
        <ele>197.8</ele>
        <time>2024-09-19T13:17:23Z</time>
      </trkpt>
      <trkpt lat="46.01366" lon="4.74869">
        <ele>197.8</ele>
        <time>2024-09-19T13:17:24Z</time>
      </trkpt>
      <trkpt lat="46.01363" lon="4.74873">
        <ele>197.8</ele>
        <time>2024-09-19T13:17:25Z</time>
      </trkpt>
      <trkpt lat="46.0136" lon="4.74876">
        <ele>197.8</ele>
        <time>2024-09-19T13:17:26Z</time>
      </trkpt>
      <trkpt lat="46.01356" lon="4.7488">
        <ele>197.8</ele>
        <time>2024-09-19T13:17:27Z</time>
      </trkpt>
      <trkpt lat="46.01353" lon="4.74883">
        <ele>198.2</ele>
        <time>2024-09-19T13:17:28Z</time>
      </trkpt>
      <trkpt lat="46.0135" lon="4.74886">
        <ele>198.2</ele>
        <time>2024-09-19T13:17:29Z</time>
      </trkpt>
      <trkpt lat="46.01346" lon="4.74889">
        <ele>198.2</ele>
        <time>2024-09-19T13:17:30Z</time>
      </trkpt>
      <trkpt lat="46.01343" lon="4.74891">
        <ele>198.2</ele>
        <time>2024-09-19T13:17:31Z</time>
      </trkpt>
      <trkpt lat="46.01339" lon="4.74893">
        <ele>198.2</ele>
        <time>2024-09-19T13:17:32Z</time>
      </trkpt>
      <trkpt lat="46.01335" lon="4.74895">
        <ele>198.2</ele>
        <time>2024-09-19T13:17:33Z</time>
      </trkpt>
      <trkpt lat="46.01331" lon="4.74896">
        <ele>198.2</ele>
        <time>2024-09-19T13:17:34Z</time>
      </trkpt>
      <trkpt lat="46.01327" lon="4.74898">
        <ele>198.2</ele>
        <time>2024-09-19T13:17:35Z</time>
      </trkpt>
      <trkpt lat="46.01323" lon="4.749">
        <ele>198.2</ele>
        <time>2024-09-19T13:17:36Z</time>
      </trkpt>
      <trkpt lat="46.01319" lon="4.74903">
        <ele>198.2</ele>
        <time>2024-09-19T13:17:37Z</time>
      </trkpt>
      <trkpt lat="46.01315" lon="4.74905">
        <ele>198.2</ele>
        <time>2024-09-19T13:17:38Z</time>
      </trkpt>
      <trkpt lat="46.0131" lon="4.74908">
        <ele>198.2</ele>
        <time>2024-09-19T13:17:39Z</time>
      </trkpt>
      <trkpt lat="46.01306" lon="4.7491">
        <ele>198.2</ele>
        <time>2024-09-19T13:17:40Z</time>
      </trkpt>
      <trkpt lat="46.01302" lon="4.74912">
        <ele>198.2</ele>
        <time>2024-09-19T13:17:41Z</time>
      </trkpt>
      <trkpt lat="46.01298" lon="4.74915">
        <ele>198.2</ele>
        <time>2024-09-19T13:17:42Z</time>
      </trkpt>
      <trkpt lat="46.01294" lon="4.74918">
        <ele>198.2</ele>
        <time>2024-09-19T13:17:43Z</time>
      </trkpt>
      <trkpt lat="46.01287" lon="4.74922">
        <ele>198.2</ele>
        <time>2024-09-19T13:17:44Z</time>
      </trkpt>
      <trkpt lat="46.01285" lon="4.74924">
        <ele>198.2</ele>
        <time>2024-09-19T13:17:45Z</time>
      </trkpt>
      <trkpt lat="46.01281" lon="4.74927">
        <ele>198.2</ele>
        <time>2024-09-19T13:17:46Z</time>
      </trkpt>
      <trkpt lat="46.01277" lon="4.74929">
        <ele>198.2</ele>
        <time>2024-09-19T13:17:47Z</time>
      </trkpt>
      <trkpt lat="46.01272" lon="4.74932">
        <ele>198.2</ele>
        <time>2024-09-19T13:17:48Z</time>
      </trkpt>
      <trkpt lat="46.01268" lon="4.74935">
        <ele>198</ele>
        <time>2024-09-19T13:17:49Z</time>
      </trkpt>
      <trkpt lat="46.01261" lon="4.7494">
        <ele>198</ele>
        <time>2024-09-19T13:17:50Z</time>
      </trkpt>
      <trkpt lat="46.01259" lon="4.74941">
        <ele>198</ele>
        <time>2024-09-19T13:17:51Z</time>
      </trkpt>
      <trkpt lat="46.01253" lon="4.74945">
        <ele>198</ele>
        <time>2024-09-19T13:17:52Z</time>
      </trkpt>
      <trkpt lat="46.01251" lon="4.74947">
        <ele>197.8</ele>
        <time>2024-09-19T13:17:53Z</time>
      </trkpt>
      <trkpt lat="46.01247" lon="4.74949">
        <ele>197.8</ele>
        <time>2024-09-19T13:17:54Z</time>
      </trkpt>
      <trkpt lat="46.01243" lon="4.74952">
        <ele>197.8</ele>
        <time>2024-09-19T13:17:55Z</time>
      </trkpt>
      <trkpt lat="46.01238" lon="4.74955">
        <ele>197.8</ele>
        <time>2024-09-19T13:17:56Z</time>
      </trkpt>
      <trkpt lat="46.01234" lon="4.74957">
        <ele>198</ele>
        <time>2024-09-19T13:17:57Z</time>
      </trkpt>
      <trkpt lat="46.0123" lon="4.7496">
        <ele>197.8</ele>
        <time>2024-09-19T13:17:58Z</time>
      </trkpt>
      <trkpt lat="46.01226" lon="4.74962">
        <ele>197.8</ele>
        <time>2024-09-19T13:17:59Z</time>
      </trkpt>
      <trkpt lat="46.01222" lon="4.74965">
        <ele>197.8</ele>
        <time>2024-09-19T13:18:00Z</time>
      </trkpt>
      <trkpt lat="46.01219" lon="4.74968">
        <ele>197.8</ele>
        <time>2024-09-19T13:18:01Z</time>
      </trkpt>
      <trkpt lat="46.01215" lon="4.74971">
        <ele>197.8</ele>
        <time>2024-09-19T13:18:02Z</time>
      </trkpt>
      <trkpt lat="46.01211" lon="4.74973">
        <ele>197.8</ele>
        <time>2024-09-19T13:18:03Z</time>
      </trkpt>
      <trkpt lat="46.01206" lon="4.74976">
        <ele>197.8</ele>
        <time>2024-09-19T13:18:04Z</time>
      </trkpt>
      <trkpt lat="46.01202" lon="4.74979">
        <ele>197.8</ele>
        <time>2024-09-19T13:18:05Z</time>
      </trkpt>
      <trkpt lat="46.01196" lon="4.74982">
        <ele>197.8</ele>
        <time>2024-09-19T13:18:06Z</time>
      </trkpt>
      <trkpt lat="46.01194" lon="4.74983">
        <ele>197.8</ele>
        <time>2024-09-19T13:18:07Z</time>
      </trkpt>
      <trkpt lat="46.01188" lon="4.74986">
        <ele>197.8</ele>
        <time>2024-09-19T13:18:08Z</time>
      </trkpt>
      <trkpt lat="46.01186" lon="4.74987">
        <ele>197.8</ele>
        <time>2024-09-19T13:18:09Z</time>
      </trkpt>
      <trkpt lat="46.01182" lon="4.74989">
        <ele>197.8</ele>
        <time>2024-09-19T13:18:10Z</time>
      </trkpt>
      <trkpt lat="46.01179" lon="4.7499">
        <ele>197.8</ele>
        <time>2024-09-19T13:18:11Z</time>
      </trkpt>
      <trkpt lat="46.01175" lon="4.74992">
        <ele>197.8</ele>
        <time>2024-09-19T13:18:12Z</time>
      </trkpt>
      <trkpt lat="46.01171" lon="4.74995">
        <ele>198.2</ele>
        <time>2024-09-19T13:18:13Z</time>
      </trkpt>
      <trkpt lat="46.01167" lon="4.74997">
        <ele>198.2</ele>
        <time>2024-09-19T13:18:14Z</time>
      </trkpt>
      <trkpt lat="46.01164" lon="4.74998">
        <ele>198.2</ele>
        <time>2024-09-19T13:18:15Z</time>
      </trkpt>
      <trkpt lat="46.01161" lon="4.74999">
        <ele>198.4</ele>
        <time>2024-09-19T13:18:16Z</time>
      </trkpt>
      <trkpt lat="46.01158" lon="4.75">
        <ele>198.4</ele>
        <time>2024-09-19T13:18:17Z</time>
      </trkpt>
      <trkpt lat="46.01155" lon="4.75002">
        <ele>198.4</ele>
        <time>2024-09-19T13:18:18Z</time>
      </trkpt>
      <trkpt lat="46.01153" lon="4.75004">
        <ele>198.4</ele>
        <time>2024-09-19T13:18:19Z</time>
      </trkpt>
      <trkpt lat="46.0115" lon="4.75005">
        <ele>198.4</ele>
        <time>2024-09-19T13:18:20Z</time>
      </trkpt>
      <trkpt lat="46.01147" lon="4.75006">
        <ele>198.2</ele>
        <time>2024-09-19T13:18:21Z</time>
      </trkpt>
      <trkpt lat="46.01142" lon="4.75007">
        <ele>198.2</ele>
        <time>2024-09-19T13:18:22Z</time>
      </trkpt>
      <trkpt lat="46.01141" lon="4.75008">
        <ele>198.2</ele>
        <time>2024-09-19T13:18:23Z</time>
      </trkpt>
      <trkpt lat="46.01135" lon="4.7501">
        <ele>198.2</ele>
        <time>2024-09-19T13:18:24Z</time>
      </trkpt>
      <trkpt lat="46.01134" lon="4.7501">
        <ele>198.4</ele>
        <time>2024-09-19T13:18:25Z</time>
      </trkpt>
      <trkpt lat="46.01129" lon="4.75011">
        <ele>198.4</ele>
        <time>2024-09-19T13:18:26Z</time>
      </trkpt>
      <trkpt lat="46.01125" lon="4.75013">
        <ele>198.4</ele>
        <time>2024-09-19T13:18:27Z</time>
      </trkpt>
      <trkpt lat="46.01121" lon="4.75014">
        <ele>198</ele>
        <time>2024-09-19T13:18:28Z</time>
      </trkpt>
      <trkpt lat="46.01117" lon="4.75016">
        <ele>198</ele>
        <time>2024-09-19T13:18:29Z</time>
      </trkpt>
      <trkpt lat="46.01113" lon="4.75018">
        <ele>198.2</ele>
        <time>2024-09-19T13:18:30Z</time>
      </trkpt>
      <trkpt lat="46.01107" lon="4.7502">
        <ele>198.2</ele>
        <time>2024-09-19T13:18:31Z</time>
      </trkpt>
      <trkpt lat="46.01105" lon="4.75021">
        <ele>198.2</ele>
        <time>2024-09-19T13:18:32Z</time>
      </trkpt>
      <trkpt lat="46.01101" lon="4.75022">
        <ele>198.2</ele>
        <time>2024-09-19T13:18:33Z</time>
      </trkpt>
      <trkpt lat="46.01096" lon="4.75024">
        <ele>198.2</ele>
        <time>2024-09-19T13:18:34Z</time>
      </trkpt>
      <trkpt lat="46.01092" lon="4.75026">
        <ele>198.2</ele>
        <time>2024-09-19T13:18:35Z</time>
      </trkpt>
      <trkpt lat="46.01088" lon="4.75028">
        <ele>198.2</ele>
        <time>2024-09-19T13:18:36Z</time>
      </trkpt>
      <trkpt lat="46.01081" lon="4.7503">
        <ele>198.2</ele>
        <time>2024-09-19T13:18:37Z</time>
      </trkpt>
      <trkpt lat="46.01079" lon="4.75031">
        <ele>198.4</ele>
        <time>2024-09-19T13:18:38Z</time>
      </trkpt>
      <trkpt lat="46.01075" lon="4.75032">
        <ele>198.4</ele>
        <time>2024-09-19T13:18:39Z</time>
      </trkpt>
      <trkpt lat="46.01071" lon="4.75034">
        <ele>198.4</ele>
        <time>2024-09-19T13:18:40Z</time>
      </trkpt>
      <trkpt lat="46.01066" lon="4.75035">
        <ele>198.4</ele>
        <time>2024-09-19T13:18:41Z</time>
      </trkpt>
      <trkpt lat="46.01062" lon="4.75037">
        <ele>198.2</ele>
        <time>2024-09-19T13:18:42Z</time>
      </trkpt>
      <trkpt lat="46.01057" lon="4.75038">
        <ele>198</ele>
        <time>2024-09-19T13:18:43Z</time>
      </trkpt>
      <trkpt lat="46.01052" lon="4.75039">
        <ele>198</ele>
        <time>2024-09-19T13:18:44Z</time>
      </trkpt>
      <trkpt lat="46.01045" lon="4.75042">
        <ele>198</ele>
        <time>2024-09-19T13:18:45Z</time>
      </trkpt>
      <trkpt lat="46.01043" lon="4.75042">
        <ele>198</ele>
        <time>2024-09-19T13:18:46Z</time>
      </trkpt>
      <trkpt lat="46.01039" lon="4.75043">
        <ele>198</ele>
        <time>2024-09-19T13:18:47Z</time>
      </trkpt>
      <trkpt lat="46.01034" lon="4.75045">
        <ele>197.8</ele>
        <time>2024-09-19T13:18:48Z</time>
      </trkpt>
      <trkpt lat="46.0103" lon="4.75045">
        <ele>197.8</ele>
        <time>2024-09-19T13:18:49Z</time>
      </trkpt>
      <trkpt lat="46.01023" lon="4.75048">
        <ele>197.8</ele>
        <time>2024-09-19T13:18:50Z</time>
      </trkpt>
      <trkpt lat="46.01021" lon="4.75049">
        <ele>197.6</ele>
        <time>2024-09-19T13:18:51Z</time>
      </trkpt>
      <trkpt lat="46.01018" lon="4.75051">
        <ele>197.2</ele>
        <time>2024-09-19T13:18:52Z</time>
      </trkpt>
      <trkpt lat="46.01014" lon="4.75053">
        <ele>197.2</ele>
        <time>2024-09-19T13:18:53Z</time>
      </trkpt>
      <trkpt lat="46.0101" lon="4.75054">
        <ele>197.2</ele>
        <time>2024-09-19T13:18:54Z</time>
      </trkpt>
      <trkpt lat="46.01006" lon="4.75055">
        <ele>197.2</ele>
        <time>2024-09-19T13:18:55Z</time>
      </trkpt>
      <trkpt lat="46.01003" lon="4.75056">
        <ele>197.2</ele>
        <time>2024-09-19T13:18:56Z</time>
      </trkpt>
      <trkpt lat="46.00999" lon="4.75057">
        <ele>197.8</ele>
        <time>2024-09-19T13:18:57Z</time>
      </trkpt>
      <trkpt lat="46.00996" lon="4.75059">
        <ele>197.8</ele>
        <time>2024-09-19T13:18:58Z</time>
      </trkpt>
      <trkpt lat="46.00991" lon="4.7506">
        <ele>197.8</ele>
        <time>2024-09-19T13:18:59Z</time>
      </trkpt>
      <trkpt lat="46.00989" lon="4.75061">
        <ele>197.4</ele>
        <time>2024-09-19T13:19:00Z</time>
      </trkpt>
      <trkpt lat="46.00986" lon="4.75063">
        <ele>197.4</ele>
        <time>2024-09-19T13:19:01Z</time>
      </trkpt>
      <trkpt lat="46.00985" lon="4.75067">
        <ele>197.4</ele>
        <time>2024-09-19T13:19:02Z</time>
      </trkpt>
      <trkpt lat="46.00984" lon="4.75072">
        <ele>197.4</ele>
        <time>2024-09-19T13:19:03Z</time>
      </trkpt>
      <trkpt lat="46.00983" lon="4.75077">
        <ele>197.4</ele>
        <time>2024-09-19T13:19:04Z</time>
      </trkpt>
      <trkpt lat="46.00983" lon="4.75081">
        <ele>197.4</ele>
        <time>2024-09-19T13:19:05Z</time>
      </trkpt>
      <trkpt lat="46.00983" lon="4.75086">
        <ele>197.8</ele>
        <time>2024-09-19T13:19:06Z</time>
      </trkpt>
      <trkpt lat="46.00983" lon="4.7509">
        <ele>197.8</ele>
        <time>2024-09-19T13:19:07Z</time>
      </trkpt>
      <trkpt lat="46.00983" lon="4.75094">
        <ele>197.8</ele>
        <time>2024-09-19T13:19:08Z</time>
      </trkpt>
      <trkpt lat="46.00983" lon="4.75098">
        <ele>198.6</ele>
        <time>2024-09-19T13:19:09Z</time>
      </trkpt>
      <trkpt lat="46.00983" lon="4.75101">
        <ele>198.8</ele>
        <time>2024-09-19T13:19:10Z</time>
      </trkpt>
      <trkpt lat="46.00984" lon="4.75105">
        <ele>198.8</ele>
        <time>2024-09-19T13:19:11Z</time>
      </trkpt>
      <trkpt lat="46.00984" lon="4.75108">
        <ele>198.8</ele>
        <time>2024-09-19T13:19:12Z</time>
      </trkpt>
      <trkpt lat="46.00984" lon="4.75112">
        <ele>198.8</ele>
        <time>2024-09-19T13:19:13Z</time>
      </trkpt>
      <trkpt lat="46.00984" lon="4.75117">
        <ele>198.8</ele>
        <time>2024-09-19T13:19:14Z</time>
      </trkpt>
      <trkpt lat="46.00983" lon="4.7512">
        <ele>199.6</ele>
        <time>2024-09-19T13:19:15Z</time>
      </trkpt>
      <trkpt lat="46.00982" lon="4.75126">
        <ele>199.6</ele>
        <time>2024-09-19T13:19:16Z</time>
      </trkpt>
      <trkpt lat="46.00982" lon="4.75128">
        <ele>199.6</ele>
        <time>2024-09-19T13:19:17Z</time>
      </trkpt>
      <trkpt lat="46.00981" lon="4.75132">
        <ele>200.6</ele>
        <time>2024-09-19T13:19:18Z</time>
      </trkpt>
      <trkpt lat="46.00981" lon="4.75136">
        <ele>200.8</ele>
        <time>2024-09-19T13:19:19Z</time>
      </trkpt>
      <trkpt lat="46.0098" lon="4.75141">
        <ele>200.8</ele>
        <time>2024-09-19T13:19:20Z</time>
      </trkpt>
      <trkpt lat="46.0098" lon="4.75145">
        <ele>200.8</ele>
        <time>2024-09-19T13:19:21Z</time>
      </trkpt>
      <trkpt lat="46.0098" lon="4.75148">
        <ele>200.8</ele>
        <time>2024-09-19T13:19:22Z</time>
      </trkpt>
      <trkpt lat="46.00979" lon="4.75151">
        <ele>201.6</ele>
        <time>2024-09-19T13:19:23Z</time>
      </trkpt>
      <trkpt lat="46.00978" lon="4.75152">
        <ele>201.6</ele>
        <time>2024-09-19T13:19:24Z</time>
      </trkpt>
      <trkpt lat="46.00976" lon="4.75154">
        <ele>201.6</ele>
        <time>2024-09-19T13:19:25Z</time>
      </trkpt>
      <trkpt lat="46.00974" lon="4.75154">
        <ele>201.8</ele>
        <time>2024-09-19T13:19:26Z</time>
      </trkpt>
      <trkpt lat="46.00971" lon="4.75153">
        <ele>202</ele>
        <time>2024-09-19T13:19:27Z</time>
      </trkpt>
      <trkpt lat="46.00968" lon="4.75153">
        <ele>202</ele>
        <time>2024-09-19T13:19:28Z</time>
      </trkpt>
      <trkpt lat="46.00966" lon="4.75152">
        <ele>202</ele>
        <time>2024-09-19T13:19:29Z</time>
      </trkpt>
      <trkpt lat="46.00963" lon="4.7515">
        <ele>202</ele>
        <time>2024-09-19T13:19:30Z</time>
      </trkpt>
      <trkpt lat="46.0096" lon="4.75149">
        <ele>202</ele>
        <time>2024-09-19T13:19:31Z</time>
      </trkpt>
      <trkpt lat="46.00959" lon="4.75149">
        <ele>201.8</ele>
        <time>2024-09-19T13:19:32Z</time>
      </trkpt>
      <trkpt lat="46.00957" lon="4.75149">
        <ele>202</ele>
        <time>2024-09-19T13:19:33Z</time>
      </trkpt>
      <trkpt lat="46.00955" lon="4.75148">
        <ele>202</ele>
        <time>2024-09-19T13:19:34Z</time>
      </trkpt>
      <trkpt lat="46.00953" lon="4.75148">
        <ele>202</ele>
        <time>2024-09-19T13:19:35Z</time>
      </trkpt>
      <trkpt lat="46.00952" lon="4.75147">
        <ele>202</ele>
        <time>2024-09-19T13:19:36Z</time>
      </trkpt>
      <trkpt lat="46.0095" lon="4.75147">
        <ele>201.6</ele>
        <time>2024-09-19T13:19:37Z</time>
      </trkpt>
      <trkpt lat="46.00949" lon="4.75147">
        <ele>201.6</ele>
        <time>2024-09-19T13:19:38Z</time>
      </trkpt>
      <trkpt lat="46.00947" lon="4.75146">
        <ele>201.6</ele>
        <time>2024-09-19T13:19:39Z</time>
      </trkpt>
      <trkpt lat="46.00946" lon="4.75146">
        <ele>201.6</ele>
        <time>2024-09-19T13:19:40Z</time>
      </trkpt>
      <trkpt lat="46.00944" lon="4.75146">
        <ele>201.6</ele>
        <time>2024-09-19T13:19:41Z</time>
      </trkpt>
      <trkpt lat="46.00943" lon="4.75146">
        <ele>201.6</ele>
        <time>2024-09-19T13:19:42Z</time>
      </trkpt>
      <trkpt lat="46.00942" lon="4.75146">
        <ele>201.6</ele>
        <time>2024-09-19T13:19:43Z</time>
      </trkpt>
      <trkpt lat="46.00941" lon="4.75146">
        <ele>201.6</ele>
        <time>2024-09-19T13:19:44Z</time>
      </trkpt>
      <trkpt lat="46.0094" lon="4.75145">
        <ele>201.6</ele>
        <time>2024-09-19T13:19:45Z</time>
      </trkpt>
      <trkpt lat="46.0094" lon="4.75145">
        <ele>201.2</ele>
        <time>2024-09-19T13:19:46Z</time>
      </trkpt>
      <trkpt lat="46.00932" lon="4.75145">
        <ele>200.8</ele>
        <time>2024-09-19T13:20:28Z</time>
      </trkpt>
      <trkpt lat="46.00931" lon="4.75146">
        <ele>200.8</ele>
        <time>2024-09-19T13:20:29Z</time>
      </trkpt>
      <trkpt lat="46.00929" lon="4.75145">
        <ele>200.8</ele>
        <time>2024-09-19T13:20:30Z</time>
      </trkpt>
      <trkpt lat="46.00928" lon="4.75145">
        <ele>200.8</ele>
        <time>2024-09-19T13:20:31Z</time>
      </trkpt>
      <trkpt lat="46.00926" lon="4.75144">
        <ele>200.8</ele>
        <time>2024-09-19T13:20:32Z</time>
      </trkpt>
      <trkpt lat="46.00922" lon="4.75144">
        <ele>200.8</ele>
        <time>2024-09-19T13:20:33Z</time>
      </trkpt>
      <trkpt lat="46.00921" lon="4.75143">
        <ele>201</ele>
        <time>2024-09-19T13:20:34Z</time>
      </trkpt>
      <trkpt lat="46.00918" lon="4.75142">
        <ele>201</ele>
        <time>2024-09-19T13:20:35Z</time>
      </trkpt>
      <trkpt lat="46.00915" lon="4.7514">
        <ele>201</ele>
        <time>2024-09-19T13:20:36Z</time>
      </trkpt>
      <trkpt lat="46.00912" lon="4.75138">
        <ele>201</ele>
        <time>2024-09-19T13:20:37Z</time>
      </trkpt>
      <trkpt lat="46.00909" lon="4.75137">
        <ele>201</ele>
        <time>2024-09-19T13:20:38Z</time>
      </trkpt>
      <trkpt lat="46.00905" lon="4.75136">
        <ele>201</ele>
        <time>2024-09-19T13:20:39Z</time>
      </trkpt>
      <trkpt lat="46.00902" lon="4.75135">
        <ele>201</ele>
        <time>2024-09-19T13:20:40Z</time>
      </trkpt>
      <trkpt lat="46.00899" lon="4.75133">
        <ele>201</ele>
        <time>2024-09-19T13:20:41Z</time>
      </trkpt>
      <trkpt lat="46.00895" lon="4.75132">
        <ele>200.8</ele>
        <time>2024-09-19T13:20:42Z</time>
      </trkpt>
      <trkpt lat="46.00892" lon="4.75131">
        <ele>200.8</ele>
        <time>2024-09-19T13:20:43Z</time>
      </trkpt>
      <trkpt lat="46.00888" lon="4.75129">
        <ele>200.8</ele>
        <time>2024-09-19T13:20:44Z</time>
      </trkpt>
      <trkpt lat="46.00884" lon="4.75128">
        <ele>200.8</ele>
        <time>2024-09-19T13:20:45Z</time>
      </trkpt>
      <trkpt lat="46.0088" lon="4.75126">
        <ele>200.6</ele>
        <time>2024-09-19T13:20:46Z</time>
      </trkpt>
      <trkpt lat="46.00876" lon="4.75125">
        <ele>200.6</ele>
        <time>2024-09-19T13:20:47Z</time>
      </trkpt>
      <trkpt lat="46.00872" lon="4.75123">
        <ele>200.6</ele>
        <time>2024-09-19T13:20:48Z</time>
      </trkpt>
      <trkpt lat="46.00867" lon="4.75122">
        <ele>200.6</ele>
        <time>2024-09-19T13:20:49Z</time>
      </trkpt>
      <trkpt lat="46.00862" lon="4.75121">
        <ele>200.6</ele>
        <time>2024-09-19T13:20:50Z</time>
      </trkpt>
      <trkpt lat="46.00856" lon="4.75119">
        <ele>200.6</ele>
        <time>2024-09-19T13:20:51Z</time>
      </trkpt>
      <trkpt lat="46.00853" lon="4.75118">
        <ele>200.6</ele>
        <time>2024-09-19T13:20:52Z</time>
      </trkpt>
      <trkpt lat="46.00847" lon="4.75116">
        <ele>200.6</ele>
        <time>2024-09-19T13:20:53Z</time>
      </trkpt>
      <trkpt lat="46.00845" lon="4.75116">
        <ele>200.6</ele>
        <time>2024-09-19T13:20:54Z</time>
      </trkpt>
      <trkpt lat="46.00839" lon="4.75114">
        <ele>200.6</ele>
        <time>2024-09-19T13:20:55Z</time>
      </trkpt>
      <trkpt lat="46.00837" lon="4.75113">
        <ele>200.6</ele>
        <time>2024-09-19T13:20:56Z</time>
      </trkpt>
      <trkpt lat="46.00832" lon="4.75112">
        <ele>200.6</ele>
        <time>2024-09-19T13:20:57Z</time>
      </trkpt>
      <trkpt lat="46.00828" lon="4.75111">
        <ele>200.6</ele>
        <time>2024-09-19T13:20:58Z</time>
      </trkpt>
      <trkpt lat="46.00824" lon="4.75109">
        <ele>200.6</ele>
        <time>2024-09-19T13:20:59Z</time>
      </trkpt>
      <trkpt lat="46.0082" lon="4.75107">
        <ele>200.6</ele>
        <time>2024-09-19T13:21:00Z</time>
      </trkpt>
      <trkpt lat="46.00815" lon="4.75106">
        <ele>200.4</ele>
        <time>2024-09-19T13:21:01Z</time>
      </trkpt>
      <trkpt lat="46.00809" lon="4.75104">
        <ele>200.4</ele>
        <time>2024-09-19T13:21:02Z</time>
      </trkpt>
      <trkpt lat="46.00807" lon="4.75103">
        <ele>200.4</ele>
        <time>2024-09-19T13:21:03Z</time>
      </trkpt>
      <trkpt lat="46.008" lon="4.75102">
        <ele>200.4</ele>
        <time>2024-09-19T13:21:04Z</time>
      </trkpt>
      <trkpt lat="46.00798" lon="4.75101">
        <ele>200.2</ele>
        <time>2024-09-19T13:21:05Z</time>
      </trkpt>
      <trkpt lat="46.00793" lon="4.75099">
        <ele>200.2</ele>
        <time>2024-09-19T13:21:06Z</time>
      </trkpt>
      <trkpt lat="46.00791" lon="4.75098">
        <ele>200.2</ele>
        <time>2024-09-19T13:21:07Z</time>
      </trkpt>
      <trkpt lat="46.00784" lon="4.75096">
        <ele>200.2</ele>
        <time>2024-09-19T13:21:08Z</time>
      </trkpt>
      <trkpt lat="46.00782" lon="4.75095">
        <ele>200.2</ele>
        <time>2024-09-19T13:21:09Z</time>
      </trkpt>
      <trkpt lat="46.00776" lon="4.75092">
        <ele>200.2</ele>
        <time>2024-09-19T13:21:10Z</time>
      </trkpt>
      <trkpt lat="46.00773" lon="4.75092">
        <ele>200.2</ele>
        <time>2024-09-19T13:21:11Z</time>
      </trkpt>
      <trkpt lat="46.00769" lon="4.7509">
        <ele>200.2</ele>
        <time>2024-09-19T13:21:12Z</time>
      </trkpt>
      <trkpt lat="46.00764" lon="4.75089">
        <ele>200.2</ele>
        <time>2024-09-19T13:21:13Z</time>
      </trkpt>
      <trkpt lat="46.00759" lon="4.75088">
        <ele>200</ele>
        <time>2024-09-19T13:21:14Z</time>
      </trkpt>
      <trkpt lat="46.00755" lon="4.75087">
        <ele>200</ele>
        <time>2024-09-19T13:21:15Z</time>
      </trkpt>
      <trkpt lat="46.0075" lon="4.75085">
        <ele>200</ele>
        <time>2024-09-19T13:21:16Z</time>
      </trkpt>
      <trkpt lat="46.00743" lon="4.75083">
        <ele>200.2</ele>
        <time>2024-09-19T13:21:17Z</time>
      </trkpt>
      <trkpt lat="46.00741" lon="4.75082">
        <ele>200.2</ele>
        <time>2024-09-19T13:21:18Z</time>
      </trkpt>
      <trkpt lat="46.00736" lon="4.75081">
        <ele>200.2</ele>
        <time>2024-09-19T13:21:19Z</time>
      </trkpt>
      <trkpt lat="46.00731" lon="4.7508">
        <ele>200.2</ele>
        <time>2024-09-19T13:21:20Z</time>
      </trkpt>
      <trkpt lat="46.00726" lon="4.7508">
        <ele>200.2</ele>
        <time>2024-09-19T13:21:21Z</time>
      </trkpt>
      <trkpt lat="46.00719" lon="4.75078">
        <ele>200.2</ele>
        <time>2024-09-19T13:21:22Z</time>
      </trkpt>
      <trkpt lat="46.00717" lon="4.75078">
        <ele>200.2</ele>
        <time>2024-09-19T13:21:23Z</time>
      </trkpt>
      <trkpt lat="46.00712" lon="4.75077">
        <ele>200.2</ele>
        <time>2024-09-19T13:21:24Z</time>
      </trkpt>
      <trkpt lat="46.00707" lon="4.75077">
        <ele>200.2</ele>
        <time>2024-09-19T13:21:25Z</time>
      </trkpt>
      <trkpt lat="46.00701" lon="4.75077">
        <ele>200.6</ele>
        <time>2024-09-19T13:21:26Z</time>
      </trkpt>
      <trkpt lat="46.00695" lon="4.75077">
        <ele>200.6</ele>
        <time>2024-09-19T13:21:27Z</time>
      </trkpt>
      <trkpt lat="46.00687" lon="4.75077">
        <ele>200.4</ele>
        <time>2024-09-19T13:21:28Z</time>
      </trkpt>
      <trkpt lat="46.00684" lon="4.75077">
        <ele>200.4</ele>
        <time>2024-09-19T13:21:29Z</time>
      </trkpt>
      <trkpt lat="46.00678" lon="4.75077">
        <ele>200.4</ele>
        <time>2024-09-19T13:21:30Z</time>
      </trkpt>
      <trkpt lat="46.00672" lon="4.75077">
        <ele>200.2</ele>
        <time>2024-09-19T13:21:31Z</time>
      </trkpt>
      <trkpt lat="46.00667" lon="4.75077">
        <ele>200.4</ele>
        <time>2024-09-19T13:21:32Z</time>
      </trkpt>
      <trkpt lat="46.00661" lon="4.75078">
        <ele>200.4</ele>
        <time>2024-09-19T13:21:33Z</time>
      </trkpt>
      <trkpt lat="46.00655" lon="4.75078">
        <ele>200.4</ele>
        <time>2024-09-19T13:21:34Z</time>
      </trkpt>
      <trkpt lat="46.00647" lon="4.75079">
        <ele>200.4</ele>
        <time>2024-09-19T13:21:35Z</time>
      </trkpt>
      <trkpt lat="46.00644" lon="4.75079">
        <ele>200.4</ele>
        <time>2024-09-19T13:21:36Z</time>
      </trkpt>
      <trkpt lat="46.00636" lon="4.75079">
        <ele>200.4</ele>
        <time>2024-09-19T13:21:37Z</time>
      </trkpt>
      <trkpt lat="46.00633" lon="4.75079">
        <ele>200.4</ele>
        <time>2024-09-19T13:21:38Z</time>
      </trkpt>
      <trkpt lat="46.00627" lon="4.75079">
        <ele>200.4</ele>
        <time>2024-09-19T13:21:39Z</time>
      </trkpt>
      <trkpt lat="46.00622" lon="4.7508">
        <ele>200.2</ele>
        <time>2024-09-19T13:21:40Z</time>
      </trkpt>
      <trkpt lat="46.00616" lon="4.7508">
        <ele>200.2</ele>
        <time>2024-09-19T13:21:41Z</time>
      </trkpt>
      <trkpt lat="46.00611" lon="4.75081">
        <ele>200.4</ele>
        <time>2024-09-19T13:21:42Z</time>
      </trkpt>
      <trkpt lat="46.00605" lon="4.75081">
        <ele>200.4</ele>
        <time>2024-09-19T13:21:43Z</time>
      </trkpt>
      <trkpt lat="46.00597" lon="4.75082">
        <ele>200.4</ele>
        <time>2024-09-19T13:21:44Z</time>
      </trkpt>
      <trkpt lat="46.00594" lon="4.75082">
        <ele>200.2</ele>
        <time>2024-09-19T13:21:45Z</time>
      </trkpt>
      <trkpt lat="46.00586" lon="4.75082">
        <ele>200</ele>
        <time>2024-09-19T13:21:46Z</time>
      </trkpt>
      <trkpt lat="46.00583" lon="4.75082">
        <ele>200</ele>
        <time>2024-09-19T13:21:47Z</time>
      </trkpt>
      <trkpt lat="46.00578" lon="4.75082">
        <ele>200</ele>
        <time>2024-09-19T13:21:48Z</time>
      </trkpt>
      <trkpt lat="46.00572" lon="4.75082">
        <ele>200.2</ele>
        <time>2024-09-19T13:21:49Z</time>
      </trkpt>
      <trkpt lat="46.00567" lon="4.75082">
        <ele>200.2</ele>
        <time>2024-09-19T13:21:50Z</time>
      </trkpt>
      <trkpt lat="46.00561" lon="4.75082">
        <ele>200.2</ele>
        <time>2024-09-19T13:21:51Z</time>
      </trkpt>
      <trkpt lat="46.00556" lon="4.75081">
        <ele>200.2</ele>
        <time>2024-09-19T13:21:52Z</time>
      </trkpt>
      <trkpt lat="46.0055" lon="4.7508">
        <ele>200.2</ele>
        <time>2024-09-19T13:21:53Z</time>
      </trkpt>
      <trkpt lat="46.00544" lon="4.75079">
        <ele>200.2</ele>
        <time>2024-09-19T13:21:54Z</time>
      </trkpt>
      <trkpt lat="46.00539" lon="4.75079">
        <ele>200</ele>
        <time>2024-09-19T13:21:55Z</time>
      </trkpt>
      <trkpt lat="46.00533" lon="4.75079">
        <ele>200</ele>
        <time>2024-09-19T13:21:56Z</time>
      </trkpt>
      <trkpt lat="46.00527" lon="4.75079">
        <ele>200</ele>
        <time>2024-09-19T13:21:57Z</time>
      </trkpt>
      <trkpt lat="46.00521" lon="4.7508">
        <ele>200</ele>
        <time>2024-09-19T13:21:58Z</time>
      </trkpt>
      <trkpt lat="46.00515" lon="4.7508">
        <ele>200.2</ele>
        <time>2024-09-19T13:21:59Z</time>
      </trkpt>
      <trkpt lat="46.00506" lon="4.7508">
        <ele>200.2</ele>
        <time>2024-09-19T13:22:00Z</time>
      </trkpt>
      <trkpt lat="46.00504" lon="4.7508">
        <ele>200.2</ele>
        <time>2024-09-19T13:22:01Z</time>
      </trkpt>
      <trkpt lat="46.00498" lon="4.75081">
        <ele>200.2</ele>
        <time>2024-09-19T13:22:02Z</time>
      </trkpt>
      <trkpt lat="46.00492" lon="4.75081">
        <ele>200.2</ele>
        <time>2024-09-19T13:22:03Z</time>
      </trkpt>
      <trkpt lat="46.00487" lon="4.75082">
        <ele>200</ele>
        <time>2024-09-19T13:22:04Z</time>
      </trkpt>
      <trkpt lat="46.00481" lon="4.75082">
        <ele>200</ele>
        <time>2024-09-19T13:22:05Z</time>
      </trkpt>
      <trkpt lat="46.00475" lon="4.75083">
        <ele>200</ele>
        <time>2024-09-19T13:22:06Z</time>
      </trkpt>
      <trkpt lat="46.0047" lon="4.75083">
        <ele>200</ele>
        <time>2024-09-19T13:22:07Z</time>
      </trkpt>
      <trkpt lat="46.00464" lon="4.75083">
        <ele>200.6</ele>
        <time>2024-09-19T13:22:08Z</time>
      </trkpt>
      <trkpt lat="46.00458" lon="4.75084">
        <ele>200.6</ele>
        <time>2024-09-19T13:22:09Z</time>
      </trkpt>
      <trkpt lat="46.00453" lon="4.75084">
        <ele>200.6</ele>
        <time>2024-09-19T13:22:10Z</time>
      </trkpt>
      <trkpt lat="46.00447" lon="4.75084">
        <ele>200</ele>
        <time>2024-09-19T13:22:11Z</time>
      </trkpt>
      <trkpt lat="46.00441" lon="4.75084">
        <ele>200</ele>
        <time>2024-09-19T13:22:12Z</time>
      </trkpt>
      <trkpt lat="46.00436" lon="4.75084">
        <ele>200</ele>
        <time>2024-09-19T13:22:13Z</time>
      </trkpt>
      <trkpt lat="46.00431" lon="4.75084">
        <ele>200</ele>
        <time>2024-09-19T13:22:14Z</time>
      </trkpt>
      <trkpt lat="46.00425" lon="4.75085">
        <ele>200</ele>
        <time>2024-09-19T13:22:15Z</time>
      </trkpt>
      <trkpt lat="46.0042" lon="4.75084">
        <ele>200.2</ele>
        <time>2024-09-19T13:22:16Z</time>
      </trkpt>
      <trkpt lat="46.00415" lon="4.75084">
        <ele>200.2</ele>
        <time>2024-09-19T13:22:17Z</time>
      </trkpt>
      <trkpt lat="46.0041" lon="4.75085">
        <ele>200.4</ele>
        <time>2024-09-19T13:22:18Z</time>
      </trkpt>
      <trkpt lat="46.00405" lon="4.75086">
        <ele>200.4</ele>
        <time>2024-09-19T13:22:19Z</time>
      </trkpt>
      <trkpt lat="46.00399" lon="4.75087">
        <ele>200.4</ele>
        <time>2024-09-19T13:22:20Z</time>
      </trkpt>
      <trkpt lat="46.00392" lon="4.75087">
        <ele>200.4</ele>
        <time>2024-09-19T13:22:21Z</time>
      </trkpt>
      <trkpt lat="46.0039" lon="4.75088">
        <ele>200.6</ele>
        <time>2024-09-19T13:22:22Z</time>
      </trkpt>
      <trkpt lat="46.00385" lon="4.75088">
        <ele>200.6</ele>
        <time>2024-09-19T13:22:23Z</time>
      </trkpt>
      <trkpt lat="46.0038" lon="4.75089">
        <ele>200.6</ele>
        <time>2024-09-19T13:22:24Z</time>
      </trkpt>
      <trkpt lat="46.00375" lon="4.75089">
        <ele>200.6</ele>
        <time>2024-09-19T13:22:25Z</time>
      </trkpt>
      <trkpt lat="46.00372" lon="4.75088">
        <ele>200.6</ele>
        <time>2024-09-19T13:22:26Z</time>
      </trkpt>
      <trkpt lat="46.00369" lon="4.75087">
        <ele>200.4</ele>
        <time>2024-09-19T13:22:27Z</time>
      </trkpt>
      <trkpt lat="46.00369" lon="4.75085">
        <ele>200.4</ele>
        <time>2024-09-19T13:22:28Z</time>
      </trkpt>
      <trkpt lat="46.00369" lon="4.75085">
        <ele>200.4</ele>
        <time>2024-09-19T13:22:29Z</time>
      </trkpt>
      <trkpt lat="46.00369" lon="4.75085">
        <ele>200.4</ele>
        <time>2024-09-19T13:22:30Z</time>
      </trkpt>
      <trkpt lat="46.00369" lon="4.75085">
        <ele>200.2</ele>
        <time>2024-09-19T13:22:31Z</time>
      </trkpt>
      <trkpt lat="46.00367" lon="4.75078">
        <ele>199.8</ele>
        <time>2024-09-19T13:24:14Z</time>
      </trkpt>
      <trkpt lat="46.00367" lon="4.75074">
        <ele>199.8</ele>
        <time>2024-09-19T13:24:15Z</time>
      </trkpt>
      <trkpt lat="46.00365" lon="4.75069">
        <ele>199.8</ele>
        <time>2024-09-19T13:24:16Z</time>
      </trkpt>
      <trkpt lat="46.00363" lon="4.75066">
        <ele>199</ele>
        <time>2024-09-19T13:24:17Z</time>
      </trkpt>
      <trkpt lat="46.0036" lon="4.75064">
        <ele>199</ele>
        <time>2024-09-19T13:24:18Z</time>
      </trkpt>
      <trkpt lat="46.00359" lon="4.75061">
        <ele>199</ele>
        <time>2024-09-19T13:24:19Z</time>
      </trkpt>
      <trkpt lat="46.00357" lon="4.75059">
        <ele>199</ele>
        <time>2024-09-19T13:24:20Z</time>
      </trkpt>
      <trkpt lat="46.00355" lon="4.75058">
        <ele>198.6</ele>
        <time>2024-09-19T13:24:21Z</time>
      </trkpt>
      <trkpt lat="46.00353" lon="4.75056">
        <ele>198.6</ele>
        <time>2024-09-19T13:24:22Z</time>
      </trkpt>
      <trkpt lat="46.0035" lon="4.75055">
        <ele>198.6</ele>
        <time>2024-09-19T13:24:23Z</time>
      </trkpt>
      <trkpt lat="46.00345" lon="4.75052">
        <ele>198.6</ele>
        <time>2024-09-19T13:24:24Z</time>
      </trkpt>
      <trkpt lat="46.00343" lon="4.75051">
        <ele>198.6</ele>
        <time>2024-09-19T13:24:25Z</time>
      </trkpt>
      <trkpt lat="46.00339" lon="4.75049">
        <ele>198.6</ele>
        <time>2024-09-19T13:24:26Z</time>
      </trkpt>
      <trkpt lat="46.00336" lon="4.75048">
        <ele>198.6</ele>
        <time>2024-09-19T13:24:27Z</time>
      </trkpt>
      <trkpt lat="46.00332" lon="4.75046">
        <ele>198.6</ele>
        <time>2024-09-19T13:24:28Z</time>
      </trkpt>
      <trkpt lat="46.00329" lon="4.75044">
        <ele>198.6</ele>
        <time>2024-09-19T13:24:29Z</time>
      </trkpt>
      <trkpt lat="46.00327" lon="4.75044">
        <ele>198.6</ele>
        <time>2024-09-19T13:24:30Z</time>
      </trkpt>
      <trkpt lat="46.00324" lon="4.75043">
        <ele>198.6</ele>
        <time>2024-09-19T13:24:31Z</time>
      </trkpt>
      <trkpt lat="46.00321" lon="4.75042">
        <ele>198.6</ele>
        <time>2024-09-19T13:24:32Z</time>
      </trkpt>
      <trkpt lat="46.0032" lon="4.75041">
        <ele>198.6</ele>
        <time>2024-09-19T13:24:33Z</time>
      </trkpt>
      <trkpt lat="46.00317" lon="4.7504">
        <ele>198.6</ele>
        <time>2024-09-19T13:24:34Z</time>
      </trkpt>
      <trkpt lat="46.00315" lon="4.75039">
        <ele>198.6</ele>
        <time>2024-09-19T13:24:35Z</time>
      </trkpt>
      <trkpt lat="46.00312" lon="4.75038">
        <ele>198.6</ele>
        <time>2024-09-19T13:24:36Z</time>
      </trkpt>
      <trkpt lat="46.00309" lon="4.75036">
        <ele>198.6</ele>
        <time>2024-09-19T13:24:37Z</time>
      </trkpt>
      <trkpt lat="46.00306" lon="4.75034">
        <ele>198.6</ele>
        <time>2024-09-19T13:24:38Z</time>
      </trkpt>
      <trkpt lat="46.00302" lon="4.7503">
        <ele>198.8</ele>
        <time>2024-09-19T13:24:39Z</time>
      </trkpt>
      <trkpt lat="46.003" lon="4.75028">
        <ele>198.8</ele>
        <time>2024-09-19T13:24:40Z</time>
      </trkpt>
      <trkpt lat="46.00296" lon="4.75026">
        <ele>198.8</ele>
        <time>2024-09-19T13:24:41Z</time>
      </trkpt>
      <trkpt lat="46.00293" lon="4.75023">
        <ele>198.8</ele>
        <time>2024-09-19T13:24:42Z</time>
      </trkpt>
      <trkpt lat="46.00289" lon="4.75021">
        <ele>198.8</ele>
        <time>2024-09-19T13:24:43Z</time>
      </trkpt>
      <trkpt lat="46.00285" lon="4.75018">
        <ele>198.8</ele>
        <time>2024-09-19T13:24:44Z</time>
      </trkpt>
      <trkpt lat="46.00281" lon="4.75016">
        <ele>198.8</ele>
        <time>2024-09-19T13:24:45Z</time>
      </trkpt>
      <trkpt lat="46.00277" lon="4.75013">
        <ele>198.8</ele>
        <time>2024-09-19T13:24:46Z</time>
      </trkpt>
      <trkpt lat="46.00273" lon="4.7501">
        <ele>198.8</ele>
        <time>2024-09-19T13:24:47Z</time>
      </trkpt>
      <trkpt lat="46.00266" lon="4.75005">
        <ele>198.6</ele>
        <time>2024-09-19T13:24:48Z</time>
      </trkpt>
      <trkpt lat="46.00264" lon="4.75004">
        <ele>198.6</ele>
        <time>2024-09-19T13:24:49Z</time>
      </trkpt>
      <trkpt lat="46.00257" lon="4.75">
        <ele>198.6</ele>
        <time>2024-09-19T13:24:50Z</time>
      </trkpt>
      <trkpt lat="46.00255" lon="4.74998">
        <ele>198.6</ele>
        <time>2024-09-19T13:24:51Z</time>
      </trkpt>
      <trkpt lat="46.00248" lon="4.74996">
        <ele>198.6</ele>
        <time>2024-09-19T13:24:52Z</time>
      </trkpt>
      <trkpt lat="46.00246" lon="4.74995">
        <ele>198.6</ele>
        <time>2024-09-19T13:24:53Z</time>
      </trkpt>
      <trkpt lat="46.00242" lon="4.74994">
        <ele>198.6</ele>
        <time>2024-09-19T13:24:54Z</time>
      </trkpt>
      <trkpt lat="46.0024" lon="4.74991">
        <ele>198.6</ele>
        <time>2024-09-19T13:24:55Z</time>
      </trkpt>
      <trkpt lat="46.00239" lon="4.74987">
        <ele>198.6</ele>
        <time>2024-09-19T13:24:56Z</time>
      </trkpt>
      <trkpt lat="46.00237" lon="4.74984">
        <ele>198.6</ele>
        <time>2024-09-19T13:24:57Z</time>
      </trkpt>
      <trkpt lat="46.00233" lon="4.74983">
        <ele>198.8</ele>
        <time>2024-09-19T13:24:58Z</time>
      </trkpt>
      <trkpt lat="46.0023" lon="4.74982">
        <ele>198.8</ele>
        <time>2024-09-19T13:24:59Z</time>
      </trkpt>
      <trkpt lat="46.00227" lon="4.74982">
        <ele>198.8</ele>
        <time>2024-09-19T13:25:00Z</time>
      </trkpt>
      <trkpt lat="46.00223" lon="4.74981">
        <ele>198.8</ele>
        <time>2024-09-19T13:25:01Z</time>
      </trkpt>
      <trkpt lat="46.0022" lon="4.74979">
        <ele>198.8</ele>
        <time>2024-09-19T13:25:02Z</time>
      </trkpt>
      <trkpt lat="46.00217" lon="4.74978">
        <ele>198.8</ele>
        <time>2024-09-19T13:25:03Z</time>
      </trkpt>
      <trkpt lat="46.00214" lon="4.74977">
        <ele>198.8</ele>
        <time>2024-09-19T13:25:04Z</time>
      </trkpt>
      <trkpt lat="46.00211" lon="4.74976">
        <ele>198.8</ele>
        <time>2024-09-19T13:25:05Z</time>
      </trkpt>
      <trkpt lat="46.00208" lon="4.74975">
        <ele>198.8</ele>
        <time>2024-09-19T13:25:06Z</time>
      </trkpt>
      <trkpt lat="46.00206" lon="4.74974">
        <ele>198.8</ele>
        <time>2024-09-19T13:25:07Z</time>
      </trkpt>
      <trkpt lat="46.00204" lon="4.74975">
        <ele>198.8</ele>
        <time>2024-09-19T13:25:08Z</time>
      </trkpt>
      <trkpt lat="46.00202" lon="4.74975">
        <ele>198.8</ele>
        <time>2024-09-19T13:25:09Z</time>
      </trkpt>
      <trkpt lat="46.00199" lon="4.74975">
        <ele>198.8</ele>
        <time>2024-09-19T13:25:10Z</time>
      </trkpt>
      <trkpt lat="46.00197" lon="4.74976">
        <ele>198.8</ele>
        <time>2024-09-19T13:25:11Z</time>
      </trkpt>
      <trkpt lat="46.00194" lon="4.74978">
        <ele>199</ele>
        <time>2024-09-19T13:25:12Z</time>
      </trkpt>
      <trkpt lat="46.00191" lon="4.74981">
        <ele>199</ele>
        <time>2024-09-19T13:25:13Z</time>
      </trkpt>
      <trkpt lat="46.00189" lon="4.74984">
        <ele>198.8</ele>
        <time>2024-09-19T13:25:14Z</time>
      </trkpt>
      <trkpt lat="46.00187" lon="4.74988">
        <ele>198.8</ele>
        <time>2024-09-19T13:25:15Z</time>
      </trkpt>
      <trkpt lat="46.00184" lon="4.74991">
        <ele>198.8</ele>
        <time>2024-09-19T13:25:16Z</time>
      </trkpt>
      <trkpt lat="46.00182" lon="4.74993">
        <ele>198.8</ele>
        <time>2024-09-19T13:25:17Z</time>
      </trkpt>
      <trkpt lat="46.0018" lon="4.74996">
        <ele>198.8</ele>
        <time>2024-09-19T13:25:18Z</time>
      </trkpt>
      <trkpt lat="46.00177" lon="4.74998">
        <ele>198.8</ele>
        <time>2024-09-19T13:25:19Z</time>
      </trkpt>
      <trkpt lat="46.00175" lon="4.75">
        <ele>198.8</ele>
        <time>2024-09-19T13:25:20Z</time>
      </trkpt>
      <trkpt lat="46.00171" lon="4.75001">
        <ele>198.8</ele>
        <time>2024-09-19T13:25:21Z</time>
      </trkpt>
      <trkpt lat="46.00167" lon="4.75002">
        <ele>198.8</ele>
        <time>2024-09-19T13:25:22Z</time>
      </trkpt>
      <trkpt lat="46.00163" lon="4.75002">
        <ele>198.8</ele>
        <time>2024-09-19T13:25:23Z</time>
      </trkpt>
      <trkpt lat="46.0016" lon="4.75003">
        <ele>198.8</ele>
        <time>2024-09-19T13:25:24Z</time>
      </trkpt>
      <trkpt lat="46.00156" lon="4.75005">
        <ele>198.8</ele>
        <time>2024-09-19T13:25:25Z</time>
      </trkpt>
      <trkpt lat="46.00153" lon="4.75006">
        <ele>199</ele>
        <time>2024-09-19T13:25:26Z</time>
      </trkpt>
      <trkpt lat="46.00149" lon="4.75007">
        <ele>199</ele>
        <time>2024-09-19T13:25:27Z</time>
      </trkpt>
      <trkpt lat="46.00145" lon="4.75007">
        <ele>199</ele>
        <time>2024-09-19T13:25:28Z</time>
      </trkpt>
      <trkpt lat="46.00142" lon="4.75008">
        <ele>198.8</ele>
        <time>2024-09-19T13:25:29Z</time>
      </trkpt>
      <trkpt lat="46.00138" lon="4.75008">
        <ele>199</ele>
        <time>2024-09-19T13:25:30Z</time>
      </trkpt>
      <trkpt lat="46.00134" lon="4.75009">
        <ele>199</ele>
        <time>2024-09-19T13:25:31Z</time>
      </trkpt>
      <trkpt lat="46.0013" lon="4.7501">
        <ele>199</ele>
        <time>2024-09-19T13:25:32Z</time>
      </trkpt>
      <trkpt lat="46.00126" lon="4.75011">
        <ele>199</ele>
        <time>2024-09-19T13:25:33Z</time>
      </trkpt>
      <trkpt lat="46.00122" lon="4.75012">
        <ele>199</ele>
        <time>2024-09-19T13:25:34Z</time>
      </trkpt>
      <trkpt lat="46.00118" lon="4.75012">
        <ele>199</ele>
        <time>2024-09-19T13:25:35Z</time>
      </trkpt>
      <trkpt lat="46.00114" lon="4.75013">
        <ele>199</ele>
        <time>2024-09-19T13:25:36Z</time>
      </trkpt>
      <trkpt lat="46.0011" lon="4.75013">
        <ele>199</ele>
        <time>2024-09-19T13:25:37Z</time>
      </trkpt>
      <trkpt lat="46.00106" lon="4.75014">
        <ele>199.4</ele>
        <time>2024-09-19T13:25:38Z</time>
      </trkpt>
      <trkpt lat="46.00102" lon="4.75014">
        <ele>199.2</ele>
        <time>2024-09-19T13:25:39Z</time>
      </trkpt>
      <trkpt lat="46.00097" lon="4.75014">
        <ele>199.2</ele>
        <time>2024-09-19T13:25:40Z</time>
      </trkpt>
      <trkpt lat="46.00093" lon="4.75015">
        <ele>199.2</ele>
        <time>2024-09-19T13:25:41Z</time>
      </trkpt>
      <trkpt lat="46.00089" lon="4.75016">
        <ele>199.2</ele>
        <time>2024-09-19T13:25:42Z</time>
      </trkpt>
      <trkpt lat="46.00085" lon="4.75016">
        <ele>199.2</ele>
        <time>2024-09-19T13:25:43Z</time>
      </trkpt>
      <trkpt lat="46.0008" lon="4.75017">
        <ele>199.2</ele>
        <time>2024-09-19T13:25:44Z</time>
      </trkpt>
      <trkpt lat="46.00075" lon="4.75017">
        <ele>199.2</ele>
        <time>2024-09-19T13:25:45Z</time>
      </trkpt>
      <trkpt lat="46.00071" lon="4.75018">
        <ele>199.2</ele>
        <time>2024-09-19T13:25:46Z</time>
      </trkpt>
      <trkpt lat="46.00066" lon="4.75019">
        <ele>199.2</ele>
        <time>2024-09-19T13:25:47Z</time>
      </trkpt>
      <trkpt lat="46.00061" lon="4.7502">
        <ele>198.6</ele>
        <time>2024-09-19T13:25:48Z</time>
      </trkpt>
      <trkpt lat="46.00056" lon="4.7502">
        <ele>198.6</ele>
        <time>2024-09-19T13:25:49Z</time>
      </trkpt>
      <trkpt lat="46.00051" lon="4.7502">
        <ele>198.6</ele>
        <time>2024-09-19T13:25:50Z</time>
      </trkpt>
      <trkpt lat="46.00046" lon="4.75021">
        <ele>198.4</ele>
        <time>2024-09-19T13:25:51Z</time>
      </trkpt>
      <trkpt lat="46.00039" lon="4.75022">
        <ele>198.4</ele>
        <time>2024-09-19T13:25:52Z</time>
      </trkpt>
      <trkpt lat="46.00037" lon="4.75022">
        <ele>198.4</ele>
        <time>2024-09-19T13:25:53Z</time>
      </trkpt>
      <trkpt lat="46.00032" lon="4.75024">
        <ele>198.4</ele>
        <time>2024-09-19T13:25:54Z</time>
      </trkpt>
      <trkpt lat="46.00027" lon="4.75025">
        <ele>197.8</ele>
        <time>2024-09-19T13:25:55Z</time>
      </trkpt>
      <trkpt lat="46.00022" lon="4.75027">
        <ele>198.4</ele>
        <time>2024-09-19T13:25:56Z</time>
      </trkpt>
      <trkpt lat="46.00018" lon="4.75028">
        <ele>198.4</ele>
        <time>2024-09-19T13:25:57Z</time>
      </trkpt>
      <trkpt lat="46.00013" lon="4.75031">
        <ele>198.4</ele>
        <time>2024-09-19T13:25:58Z</time>
      </trkpt>
      <trkpt lat="46.00008" lon="4.75033">
        <ele>198.4</ele>
        <time>2024-09-19T13:25:59Z</time>
      </trkpt>
      <trkpt lat="46.00003" lon="4.75035">
        <ele>198</ele>
        <time>2024-09-19T13:26:00Z</time>
      </trkpt>
      <trkpt lat="45.99998" lon="4.75036">
        <ele>198</ele>
        <time>2024-09-19T13:26:01Z</time>
      </trkpt>
      <trkpt lat="45.99993" lon="4.75038">
        <ele>198</ele>
        <time>2024-09-19T13:26:02Z</time>
      </trkpt>
      <trkpt lat="45.99988" lon="4.7504">
        <ele>198</ele>
        <time>2024-09-19T13:26:03Z</time>
      </trkpt>
      <trkpt lat="45.99983" lon="4.75042">
        <ele>198</ele>
        <time>2024-09-19T13:26:04Z</time>
      </trkpt>
      <trkpt lat="45.99978" lon="4.75044">
        <ele>198</ele>
        <time>2024-09-19T13:26:05Z</time>
      </trkpt>
      <trkpt lat="45.99973" lon="4.75046">
        <ele>198.4</ele>
        <time>2024-09-19T13:26:06Z</time>
      </trkpt>
      <trkpt lat="45.99968" lon="4.75048">
        <ele>198.4</ele>
        <time>2024-09-19T13:26:07Z</time>
      </trkpt>
      <trkpt lat="45.99964" lon="4.7505">
        <ele>198.4</ele>
        <time>2024-09-19T13:26:08Z</time>
      </trkpt>
      <trkpt lat="45.99959" lon="4.75052">
        <ele>198.4</ele>
        <time>2024-09-19T13:26:09Z</time>
      </trkpt>
      <trkpt lat="45.99954" lon="4.75053">
        <ele>198.2</ele>
        <time>2024-09-19T13:26:10Z</time>
      </trkpt>
      <trkpt lat="45.9995" lon="4.75056">
        <ele>198.4</ele>
        <time>2024-09-19T13:26:11Z</time>
      </trkpt>
      <trkpt lat="45.99945" lon="4.75058">
        <ele>198.4</ele>
        <time>2024-09-19T13:26:12Z</time>
      </trkpt>
      <trkpt lat="45.99941" lon="4.75059">
        <ele>198.4</ele>
        <time>2024-09-19T13:26:13Z</time>
      </trkpt>
      <trkpt lat="45.99936" lon="4.75061">
        <ele>198.4</ele>
        <time>2024-09-19T13:26:14Z</time>
      </trkpt>
      <trkpt lat="45.99932" lon="4.75062">
        <ele>198</ele>
        <time>2024-09-19T13:26:15Z</time>
      </trkpt>
      <trkpt lat="45.99927" lon="4.75064">
        <ele>198</ele>
        <time>2024-09-19T13:26:16Z</time>
      </trkpt>
      <trkpt lat="45.99923" lon="4.75066">
        <ele>198</ele>
        <time>2024-09-19T13:26:17Z</time>
      </trkpt>
      <trkpt lat="45.99919" lon="4.75068">
        <ele>198.6</ele>
        <time>2024-09-19T13:26:18Z</time>
      </trkpt>
      <trkpt lat="45.99915" lon="4.75069">
        <ele>198.6</ele>
        <time>2024-09-19T13:26:19Z</time>
      </trkpt>
      <trkpt lat="45.9991" lon="4.75071">
        <ele>198.4</ele>
        <time>2024-09-19T13:26:20Z</time>
      </trkpt>
      <trkpt lat="45.99906" lon="4.75073">
        <ele>198.4</ele>
        <time>2024-09-19T13:26:21Z</time>
      </trkpt>
      <trkpt lat="45.99901" lon="4.75075">
        <ele>198.4</ele>
        <time>2024-09-19T13:26:22Z</time>
      </trkpt>
      <trkpt lat="45.99897" lon="4.75077">
        <ele>198.4</ele>
        <time>2024-09-19T13:26:23Z</time>
      </trkpt>
      <trkpt lat="45.99892" lon="4.75079">
        <ele>198</ele>
        <time>2024-09-19T13:26:24Z</time>
      </trkpt>
      <trkpt lat="45.99888" lon="4.75082">
        <ele>198</ele>
        <time>2024-09-19T13:26:25Z</time>
      </trkpt>
      <trkpt lat="45.99884" lon="4.75085">
        <ele>198</ele>
        <time>2024-09-19T13:26:26Z</time>
      </trkpt>
      <trkpt lat="45.9988" lon="4.7509">
        <ele>198</ele>
        <time>2024-09-19T13:26:27Z</time>
      </trkpt>
      <trkpt lat="45.99877" lon="4.75094">
        <ele>198</ele>
        <time>2024-09-19T13:26:28Z</time>
      </trkpt>
      <trkpt lat="45.99875" lon="4.75098">
        <ele>198.2</ele>
        <time>2024-09-19T13:26:29Z</time>
      </trkpt>
      <trkpt lat="45.99872" lon="4.75102">
        <ele>198.2</ele>
        <time>2024-09-19T13:26:30Z</time>
      </trkpt>
      <trkpt lat="45.99869" lon="4.75104">
        <ele>198.2</ele>
        <time>2024-09-19T13:26:31Z</time>
      </trkpt>
      <trkpt lat="45.99866" lon="4.75107">
        <ele>198.2</ele>
        <time>2024-09-19T13:26:32Z</time>
      </trkpt>
      <trkpt lat="45.99862" lon="4.75109">
        <ele>198.2</ele>
        <time>2024-09-19T13:26:33Z</time>
      </trkpt>
      <trkpt lat="45.99859" lon="4.75111">
        <ele>198.2</ele>
        <time>2024-09-19T13:26:34Z</time>
      </trkpt>
      <trkpt lat="45.99855" lon="4.75113">
        <ele>198.2</ele>
        <time>2024-09-19T13:26:35Z</time>
      </trkpt>
      <trkpt lat="45.9985" lon="4.75115">
        <ele>198.2</ele>
        <time>2024-09-19T13:26:36Z</time>
      </trkpt>
      <trkpt lat="45.99848" lon="4.75116">
        <ele>198.2</ele>
        <time>2024-09-19T13:26:37Z</time>
      </trkpt>
      <trkpt lat="45.99844" lon="4.75117">
        <ele>198.2</ele>
        <time>2024-09-19T13:26:38Z</time>
      </trkpt>
      <trkpt lat="45.9984" lon="4.75118">
        <ele>198.2</ele>
        <time>2024-09-19T13:26:39Z</time>
      </trkpt>
      <trkpt lat="45.99836" lon="4.75119">
        <ele>198.2</ele>
        <time>2024-09-19T13:26:40Z</time>
      </trkpt>
      <trkpt lat="45.99832" lon="4.7512">
        <ele>198.4</ele>
        <time>2024-09-19T13:26:41Z</time>
      </trkpt>
      <trkpt lat="45.99828" lon="4.75121">
        <ele>198.4</ele>
        <time>2024-09-19T13:26:42Z</time>
      </trkpt>
      <trkpt lat="45.99823" lon="4.75122">
        <ele>198.4</ele>
        <time>2024-09-19T13:26:43Z</time>
      </trkpt>
      <trkpt lat="45.99819" lon="4.75124">
        <ele>198.4</ele>
        <time>2024-09-19T13:26:44Z</time>
      </trkpt>
      <trkpt lat="45.99815" lon="4.75125">
        <ele>198.4</ele>
        <time>2024-09-19T13:26:45Z</time>
      </trkpt>
      <trkpt lat="45.9981" lon="4.75125">
        <ele>198.4</ele>
        <time>2024-09-19T13:26:46Z</time>
      </trkpt>
      <trkpt lat="45.99806" lon="4.75127">
        <ele>198.2</ele>
        <time>2024-09-19T13:26:47Z</time>
      </trkpt>
      <trkpt lat="45.99801" lon="4.75127">
        <ele>198.2</ele>
        <time>2024-09-19T13:26:48Z</time>
      </trkpt>
      <trkpt lat="45.99797" lon="4.75128">
        <ele>198.2</ele>
        <time>2024-09-19T13:26:49Z</time>
      </trkpt>
      <trkpt lat="45.99792" lon="4.75129">
        <ele>198.6</ele>
        <time>2024-09-19T13:26:50Z</time>
      </trkpt>
      <trkpt lat="45.99788" lon="4.7513">
        <ele>198.4</ele>
        <time>2024-09-19T13:26:51Z</time>
      </trkpt>
      <trkpt lat="45.99783" lon="4.75131">
        <ele>198.4</ele>
        <time>2024-09-19T13:26:52Z</time>
      </trkpt>
      <trkpt lat="45.99779" lon="4.75133">
        <ele>198.4</ele>
        <time>2024-09-19T13:26:53Z</time>
      </trkpt>
      <trkpt lat="45.99774" lon="4.75134">
        <ele>198.4</ele>
        <time>2024-09-19T13:26:54Z</time>
      </trkpt>
      <trkpt lat="45.9977" lon="4.75135">
        <ele>198.6</ele>
        <time>2024-09-19T13:26:55Z</time>
      </trkpt>
      <trkpt lat="45.99766" lon="4.75136">
        <ele>198.6</ele>
        <time>2024-09-19T13:26:56Z</time>
      </trkpt>
      <trkpt lat="45.99759" lon="4.75137">
        <ele>198.6</ele>
        <time>2024-09-19T13:26:57Z</time>
      </trkpt>
      <trkpt lat="45.99757" lon="4.75138">
        <ele>198.6</ele>
        <time>2024-09-19T13:26:58Z</time>
      </trkpt>
      <trkpt lat="45.99749" lon="4.75138">
        <ele>198.8</ele>
        <time>2024-09-19T13:26:59Z</time>
      </trkpt>
      <trkpt lat="45.99747" lon="4.75139">
        <ele>198.6</ele>
        <time>2024-09-19T13:27:00Z</time>
      </trkpt>
      <trkpt lat="45.99742" lon="4.7514">
        <ele>198.6</ele>
        <time>2024-09-19T13:27:01Z</time>
      </trkpt>
      <trkpt lat="45.99738" lon="4.75141">
        <ele>198.6</ele>
        <time>2024-09-19T13:27:02Z</time>
      </trkpt>
      <trkpt lat="45.99735" lon="4.75142">
        <ele>198.8</ele>
        <time>2024-09-19T13:27:03Z</time>
      </trkpt>
      <trkpt lat="45.99731" lon="4.75144">
        <ele>198.8</ele>
        <time>2024-09-19T13:27:04Z</time>
      </trkpt>
      <trkpt lat="45.99727" lon="4.75145">
        <ele>198.8</ele>
        <time>2024-09-19T13:27:05Z</time>
      </trkpt>
      <trkpt lat="45.99722" lon="4.75147">
        <ele>198.8</ele>
        <time>2024-09-19T13:27:06Z</time>
      </trkpt>
      <trkpt lat="45.99717" lon="4.75148">
        <ele>198.8</ele>
        <time>2024-09-19T13:27:07Z</time>
      </trkpt>
      <trkpt lat="45.99713" lon="4.75149">
        <ele>198.8</ele>
        <time>2024-09-19T13:27:08Z</time>
      </trkpt>
      <trkpt lat="45.99708" lon="4.7515">
        <ele>198.6</ele>
        <time>2024-09-19T13:27:09Z</time>
      </trkpt>
      <trkpt lat="45.99703" lon="4.75151">
        <ele>198.6</ele>
        <time>2024-09-19T13:27:10Z</time>
      </trkpt>
      <trkpt lat="45.99698" lon="4.75152">
        <ele>198.6</ele>
        <time>2024-09-19T13:27:11Z</time>
      </trkpt>
      <trkpt lat="45.99694" lon="4.75152">
        <ele>198.8</ele>
        <time>2024-09-19T13:27:12Z</time>
      </trkpt>
      <trkpt lat="45.9969" lon="4.75152">
        <ele>198.8</ele>
        <time>2024-09-19T13:27:13Z</time>
      </trkpt>
      <trkpt lat="45.99687" lon="4.75152">
        <ele>198.8</ele>
        <time>2024-09-19T13:27:14Z</time>
      </trkpt>
      <trkpt lat="45.99683" lon="4.75152">
        <ele>198.8</ele>
        <time>2024-09-19T13:27:15Z</time>
      </trkpt>
      <trkpt lat="45.9968" lon="4.75152">
        <ele>198.6</ele>
        <time>2024-09-19T13:27:16Z</time>
      </trkpt>
      <trkpt lat="45.99678" lon="4.75152">
        <ele>198.6</ele>
        <time>2024-09-19T13:27:17Z</time>
      </trkpt>
      <trkpt lat="45.99675" lon="4.75153">
        <ele>198.8</ele>
        <time>2024-09-19T13:27:18Z</time>
      </trkpt>
      <trkpt lat="45.99672" lon="4.75154">
        <ele>198.8</ele>
        <time>2024-09-19T13:27:19Z</time>
      </trkpt>
      <trkpt lat="45.9967" lon="4.75155">
        <ele>198.8</ele>
        <time>2024-09-19T13:27:20Z</time>
      </trkpt>
      <trkpt lat="45.99668" lon="4.75157">
        <ele>198.8</ele>
        <time>2024-09-19T13:27:21Z</time>
      </trkpt>
      <trkpt lat="45.99665" lon="4.75158">
        <ele>198.4</ele>
        <time>2024-09-19T13:27:22Z</time>
      </trkpt>
      <trkpt lat="45.99662" lon="4.7516">
        <ele>198.4</ele>
        <time>2024-09-19T13:27:23Z</time>
      </trkpt>
      <trkpt lat="45.99659" lon="4.7516">
        <ele>198.4</ele>
        <time>2024-09-19T13:27:24Z</time>
      </trkpt>
      <trkpt lat="45.99656" lon="4.75161">
        <ele>198.4</ele>
        <time>2024-09-19T13:27:25Z</time>
      </trkpt>
      <trkpt lat="45.99653" lon="4.75161">
        <ele>198.6</ele>
        <time>2024-09-19T13:27:26Z</time>
      </trkpt>
      <trkpt lat="45.9965" lon="4.75161">
        <ele>198.6</ele>
        <time>2024-09-19T13:27:27Z</time>
      </trkpt>
      <trkpt lat="45.99647" lon="4.75161">
        <ele>198.6</ele>
        <time>2024-09-19T13:27:28Z</time>
      </trkpt>
      <trkpt lat="45.99645" lon="4.7516">
        <ele>198.6</ele>
        <time>2024-09-19T13:27:29Z</time>
      </trkpt>
      <trkpt lat="45.99642" lon="4.75159">
        <ele>198.6</ele>
        <time>2024-09-19T13:27:30Z</time>
      </trkpt>
      <trkpt lat="45.99639" lon="4.75158">
        <ele>199</ele>
        <time>2024-09-19T13:27:31Z</time>
      </trkpt>
      <trkpt lat="45.99636" lon="4.75156">
        <ele>199</ele>
        <time>2024-09-19T13:27:32Z</time>
      </trkpt>
      <trkpt lat="45.99633" lon="4.75154">
        <ele>199</ele>
        <time>2024-09-19T13:27:33Z</time>
      </trkpt>
      <trkpt lat="45.9963" lon="4.75152">
        <ele>199</ele>
        <time>2024-09-19T13:27:34Z</time>
      </trkpt>
      <trkpt lat="45.99627" lon="4.75149">
        <ele>198.6</ele>
        <time>2024-09-19T13:27:35Z</time>
      </trkpt>
      <trkpt lat="45.99623" lon="4.75146">
        <ele>198.4</ele>
        <time>2024-09-19T13:27:36Z</time>
      </trkpt>
      <trkpt lat="45.99619" lon="4.75143">
        <ele>198.4</ele>
        <time>2024-09-19T13:27:37Z</time>
      </trkpt>
      <trkpt lat="45.99615" lon="4.75142">
        <ele>198.4</ele>
        <time>2024-09-19T13:27:38Z</time>
      </trkpt>
      <trkpt lat="45.99611" lon="4.7514">
        <ele>198.4</ele>
        <time>2024-09-19T13:27:39Z</time>
      </trkpt>
      <trkpt lat="45.99607" lon="4.75138">
        <ele>198.4</ele>
        <time>2024-09-19T13:27:40Z</time>
      </trkpt>
      <trkpt lat="45.99602" lon="4.75138">
        <ele>198.4</ele>
        <time>2024-09-19T13:27:41Z</time>
      </trkpt>
      <trkpt lat="45.99598" lon="4.75137">
        <ele>198</ele>
        <time>2024-09-19T13:27:42Z</time>
      </trkpt>
      <trkpt lat="45.99593" lon="4.75138">
        <ele>198</ele>
        <time>2024-09-19T13:27:43Z</time>
      </trkpt>
      <trkpt lat="45.99589" lon="4.7514">
        <ele>198.2</ele>
        <time>2024-09-19T13:27:44Z</time>
      </trkpt>
      <trkpt lat="45.99584" lon="4.75141">
        <ele>198.2</ele>
        <time>2024-09-19T13:27:45Z</time>
      </trkpt>
      <trkpt lat="45.9958" lon="4.75143">
        <ele>198.2</ele>
        <time>2024-09-19T13:27:46Z</time>
      </trkpt>
      <trkpt lat="45.99576" lon="4.75146">
        <ele>198.2</ele>
        <time>2024-09-19T13:27:47Z</time>
      </trkpt>
      <trkpt lat="45.99572" lon="4.75151">
        <ele>198.2</ele>
        <time>2024-09-19T13:27:48Z</time>
      </trkpt>
      <trkpt lat="45.9957" lon="4.75155">
        <ele>198.2</ele>
        <time>2024-09-19T13:27:49Z</time>
      </trkpt>
      <trkpt lat="45.99568" lon="4.75161">
        <ele>198.6</ele>
        <time>2024-09-19T13:27:50Z</time>
      </trkpt>
      <trkpt lat="45.99566" lon="4.75167">
        <ele>198.6</ele>
        <time>2024-09-19T13:27:51Z</time>
      </trkpt>
      <trkpt lat="45.99564" lon="4.75173">
        <ele>198.6</ele>
        <time>2024-09-19T13:27:52Z</time>
      </trkpt>
      <trkpt lat="45.99561" lon="4.75178">
        <ele>198.6</ele>
        <time>2024-09-19T13:27:53Z</time>
      </trkpt>
      <trkpt lat="45.99558" lon="4.75183">
        <ele>198.4</ele>
        <time>2024-09-19T13:27:54Z</time>
      </trkpt>
      <trkpt lat="45.99555" lon="4.75185">
        <ele>198.4</ele>
        <time>2024-09-19T13:27:55Z</time>
      </trkpt>
      <trkpt lat="45.9955" lon="4.75187">
        <ele>198.4</ele>
        <time>2024-09-19T13:27:56Z</time>
      </trkpt>
      <trkpt lat="45.99543" lon="4.75188">
        <ele>198.2</ele>
        <time>2024-09-19T13:27:57Z</time>
      </trkpt>
      <trkpt lat="45.9954" lon="4.75189">
        <ele>198</ele>
        <time>2024-09-19T13:27:58Z</time>
      </trkpt>
      <trkpt lat="45.99533" lon="4.7519">
        <ele>198</ele>
        <time>2024-09-19T13:27:59Z</time>
      </trkpt>
      <trkpt lat="45.99531" lon="4.75191">
        <ele>198</ele>
        <time>2024-09-19T13:28:00Z</time>
      </trkpt>
      <trkpt lat="45.99526" lon="4.75193">
        <ele>198</ele>
        <time>2024-09-19T13:28:01Z</time>
      </trkpt>
      <trkpt lat="45.99522" lon="4.75194">
        <ele>198</ele>
        <time>2024-09-19T13:28:02Z</time>
      </trkpt>
      <trkpt lat="45.99517" lon="4.75196">
        <ele>198</ele>
        <time>2024-09-19T13:28:03Z</time>
      </trkpt>
      <trkpt lat="45.99513" lon="4.75197">
        <ele>198</ele>
        <time>2024-09-19T13:28:04Z</time>
      </trkpt>
      <trkpt lat="45.99508" lon="4.75197">
        <ele>198</ele>
        <time>2024-09-19T13:28:05Z</time>
      </trkpt>
      <trkpt lat="45.99504" lon="4.75199">
        <ele>198</ele>
        <time>2024-09-19T13:28:06Z</time>
      </trkpt>
      <trkpt lat="45.99501" lon="4.752">
        <ele>198</ele>
        <time>2024-09-19T13:28:07Z</time>
      </trkpt>
      <trkpt lat="45.99496" lon="4.75202">
        <ele>198</ele>
        <time>2024-09-19T13:28:08Z</time>
      </trkpt>
      <trkpt lat="45.99492" lon="4.75205">
        <ele>198</ele>
        <time>2024-09-19T13:28:09Z</time>
      </trkpt>
      <trkpt lat="45.99487" lon="4.75206">
        <ele>198</ele>
        <time>2024-09-19T13:28:10Z</time>
      </trkpt>
      <trkpt lat="45.99483" lon="4.75208">
        <ele>198</ele>
        <time>2024-09-19T13:28:11Z</time>
      </trkpt>
      <trkpt lat="45.99478" lon="4.75209">
        <ele>198</ele>
        <time>2024-09-19T13:28:12Z</time>
      </trkpt>
      <trkpt lat="45.9947" lon="4.75211">
        <ele>198</ele>
        <time>2024-09-19T13:28:13Z</time>
      </trkpt>
      <trkpt lat="45.99468" lon="4.75211">
        <ele>198</ele>
        <time>2024-09-19T13:28:14Z</time>
      </trkpt>
      <trkpt lat="45.99462" lon="4.75211">
        <ele>198</ele>
        <time>2024-09-19T13:28:15Z</time>
      </trkpt>
      <trkpt lat="45.99457" lon="4.75211">
        <ele>198</ele>
        <time>2024-09-19T13:28:16Z</time>
      </trkpt>
      <trkpt lat="45.99452" lon="4.75212">
        <ele>198.4</ele>
        <time>2024-09-19T13:28:17Z</time>
      </trkpt>
      <trkpt lat="45.99448" lon="4.75213">
        <ele>198.4</ele>
        <time>2024-09-19T13:28:18Z</time>
      </trkpt>
      <trkpt lat="45.99443" lon="4.75213">
        <ele>198.4</ele>
        <time>2024-09-19T13:28:19Z</time>
      </trkpt>
      <trkpt lat="45.99439" lon="4.75214">
        <ele>198.4</ele>
        <time>2024-09-19T13:28:20Z</time>
      </trkpt>
      <trkpt lat="45.99434" lon="4.75216">
        <ele>198.4</ele>
        <time>2024-09-19T13:28:21Z</time>
      </trkpt>
      <trkpt lat="45.99429" lon="4.75217">
        <ele>198.4</ele>
        <time>2024-09-19T13:28:22Z</time>
      </trkpt>
      <trkpt lat="45.99424" lon="4.75218">
        <ele>198.4</ele>
        <time>2024-09-19T13:28:23Z</time>
      </trkpt>
      <trkpt lat="45.9942" lon="4.75219">
        <ele>198.4</ele>
        <time>2024-09-19T13:28:24Z</time>
      </trkpt>
      <trkpt lat="45.99416" lon="4.7522">
        <ele>198.2</ele>
        <time>2024-09-19T13:28:25Z</time>
      </trkpt>
      <trkpt lat="45.99411" lon="4.75221">
        <ele>198.4</ele>
        <time>2024-09-19T13:28:26Z</time>
      </trkpt>
      <trkpt lat="45.99407" lon="4.75222">
        <ele>198.4</ele>
        <time>2024-09-19T13:28:27Z</time>
      </trkpt>
      <trkpt lat="45.99402" lon="4.75222">
        <ele>198.4</ele>
        <time>2024-09-19T13:28:28Z</time>
      </trkpt>
      <trkpt lat="45.99397" lon="4.75223">
        <ele>198.6</ele>
        <time>2024-09-19T13:28:29Z</time>
      </trkpt>
      <trkpt lat="45.99393" lon="4.75224">
        <ele>198.6</ele>
        <time>2024-09-19T13:28:30Z</time>
      </trkpt>
      <trkpt lat="45.99388" lon="4.75224">
        <ele>198.6</ele>
        <time>2024-09-19T13:28:31Z</time>
      </trkpt>
      <trkpt lat="45.99383" lon="4.75225">
        <ele>198.6</ele>
        <time>2024-09-19T13:28:32Z</time>
      </trkpt>
      <trkpt lat="45.99376" lon="4.75227">
        <ele>198.6</ele>
        <time>2024-09-19T13:28:33Z</time>
      </trkpt>
      <trkpt lat="45.99374" lon="4.75227">
        <ele>198.6</ele>
        <time>2024-09-19T13:28:34Z</time>
      </trkpt>
      <trkpt lat="45.99369" lon="4.75228">
        <ele>198.8</ele>
        <time>2024-09-19T13:28:35Z</time>
      </trkpt>
      <trkpt lat="45.99364" lon="4.75228">
        <ele>198.8</ele>
        <time>2024-09-19T13:28:36Z</time>
      </trkpt>
      <trkpt lat="45.9936" lon="4.75228">
        <ele>198.8</ele>
        <time>2024-09-19T13:28:37Z</time>
      </trkpt>
      <trkpt lat="45.99355" lon="4.75228">
        <ele>198.6</ele>
        <time>2024-09-19T13:28:38Z</time>
      </trkpt>
      <trkpt lat="45.9935" lon="4.75227">
        <ele>198.8</ele>
        <time>2024-09-19T13:28:39Z</time>
      </trkpt>
      <trkpt lat="45.99345" lon="4.75226">
        <ele>198.8</ele>
        <time>2024-09-19T13:28:40Z</time>
      </trkpt>
      <trkpt lat="45.99341" lon="4.75224">
        <ele>198.8</ele>
        <time>2024-09-19T13:28:41Z</time>
      </trkpt>
      <trkpt lat="45.99333" lon="4.75222">
        <ele>198.8</ele>
        <time>2024-09-19T13:28:42Z</time>
      </trkpt>
      <trkpt lat="45.99331" lon="4.75221">
        <ele>198.6</ele>
        <time>2024-09-19T13:28:43Z</time>
      </trkpt>
      <trkpt lat="45.99325" lon="4.7522">
        <ele>198.6</ele>
        <time>2024-09-19T13:28:44Z</time>
      </trkpt>
      <trkpt lat="45.9932" lon="4.75219">
        <ele>197.8</ele>
        <time>2024-09-19T13:28:45Z</time>
      </trkpt>
      <trkpt lat="45.99315" lon="4.75219">
        <ele>197.8</ele>
        <time>2024-09-19T13:28:46Z</time>
      </trkpt>
      <trkpt lat="45.9931" lon="4.75217">
        <ele>197.8</ele>
        <time>2024-09-19T13:28:47Z</time>
      </trkpt>
      <trkpt lat="45.99305" lon="4.75217">
        <ele>198</ele>
        <time>2024-09-19T13:28:48Z</time>
      </trkpt>
      <trkpt lat="45.993" lon="4.75217">
        <ele>198</ele>
        <time>2024-09-19T13:28:49Z</time>
      </trkpt>
      <trkpt lat="45.99294" lon="4.75217">
        <ele>198</ele>
        <time>2024-09-19T13:28:50Z</time>
      </trkpt>
      <trkpt lat="45.99289" lon="4.75217">
        <ele>198</ele>
        <time>2024-09-19T13:28:51Z</time>
      </trkpt>
      <trkpt lat="45.99284" lon="4.75216">
        <ele>198</ele>
        <time>2024-09-19T13:28:52Z</time>
      </trkpt>
      <trkpt lat="45.9928" lon="4.75215">
        <ele>197.8</ele>
        <time>2024-09-19T13:28:53Z</time>
      </trkpt>
      <trkpt lat="45.99275" lon="4.75215">
        <ele>197.8</ele>
        <time>2024-09-19T13:28:54Z</time>
      </trkpt>
      <trkpt lat="45.9927" lon="4.75214">
        <ele>197.8</ele>
        <time>2024-09-19T13:28:55Z</time>
      </trkpt>
      <trkpt lat="45.99265" lon="4.75213">
        <ele>197.8</ele>
        <time>2024-09-19T13:28:56Z</time>
      </trkpt>
      <trkpt lat="45.99261" lon="4.75213">
        <ele>197.8</ele>
        <time>2024-09-19T13:28:57Z</time>
      </trkpt>
      <trkpt lat="45.99255" lon="4.75212">
        <ele>197.4</ele>
        <time>2024-09-19T13:28:58Z</time>
      </trkpt>
      <trkpt lat="45.9925" lon="4.75211">
        <ele>197.4</ele>
        <time>2024-09-19T13:28:59Z</time>
      </trkpt>
      <trkpt lat="45.99245" lon="4.7521">
        <ele>197.4</ele>
        <time>2024-09-19T13:29:00Z</time>
      </trkpt>
      <trkpt lat="45.9924" lon="4.7521">
        <ele>198</ele>
        <time>2024-09-19T13:29:01Z</time>
      </trkpt>
      <trkpt lat="45.99235" lon="4.75209">
        <ele>197.2</ele>
        <time>2024-09-19T13:29:02Z</time>
      </trkpt>
      <trkpt lat="45.9923" lon="4.75209">
        <ele>197.2</ele>
        <time>2024-09-19T13:29:03Z</time>
      </trkpt>
      <trkpt lat="45.99225" lon="4.75208">
        <ele>197.2</ele>
        <time>2024-09-19T13:29:04Z</time>
      </trkpt>
      <trkpt lat="45.9922" lon="4.75206">
        <ele>197.2</ele>
        <time>2024-09-19T13:29:05Z</time>
      </trkpt>
      <trkpt lat="45.99216" lon="4.75206">
        <ele>197.2</ele>
        <time>2024-09-19T13:29:06Z</time>
      </trkpt>
      <trkpt lat="45.99211" lon="4.75205">
        <ele>196</ele>
        <time>2024-09-19T13:29:07Z</time>
      </trkpt>
      <trkpt lat="45.99206" lon="4.75203">
        <ele>196</ele>
        <time>2024-09-19T13:29:08Z</time>
      </trkpt>
      <trkpt lat="45.99202" lon="4.75202">
        <ele>196</ele>
        <time>2024-09-19T13:29:09Z</time>
      </trkpt>
      <trkpt lat="45.99198" lon="4.75201">
        <ele>197</ele>
        <time>2024-09-19T13:29:10Z</time>
      </trkpt>
      <trkpt lat="45.99193" lon="4.752">
        <ele>198.2</ele>
        <time>2024-09-19T13:29:11Z</time>
      </trkpt>
      <trkpt lat="45.99189" lon="4.752">
        <ele>198.2</ele>
        <time>2024-09-19T13:29:12Z</time>
      </trkpt>
      <trkpt lat="45.99185" lon="4.75199">
        <ele>198.2</ele>
        <time>2024-09-19T13:29:13Z</time>
      </trkpt>
      <trkpt lat="45.99181" lon="4.75197">
        <ele>198.2</ele>
        <time>2024-09-19T13:29:14Z</time>
      </trkpt>
      <trkpt lat="45.99176" lon="4.75196">
        <ele>198.2</ele>
        <time>2024-09-19T13:29:15Z</time>
      </trkpt>
      <trkpt lat="45.99172" lon="4.75196">
        <ele>197.6</ele>
        <time>2024-09-19T13:29:16Z</time>
      </trkpt>
      <trkpt lat="45.99167" lon="4.75196">
        <ele>197.6</ele>
        <time>2024-09-19T13:29:17Z</time>
      </trkpt>
      <trkpt lat="45.99162" lon="4.75196">
        <ele>197.6</ele>
        <time>2024-09-19T13:29:18Z</time>
      </trkpt>
      <trkpt lat="45.99157" lon="4.75196">
        <ele>197.6</ele>
        <time>2024-09-19T13:29:19Z</time>
      </trkpt>
      <trkpt lat="45.99152" lon="4.75195">
        <ele>198</ele>
        <time>2024-09-19T13:29:20Z</time>
      </trkpt>
      <trkpt lat="45.99145" lon="4.75193">
        <ele>198</ele>
        <time>2024-09-19T13:29:21Z</time>
      </trkpt>
      <trkpt lat="45.99143" lon="4.75192">
        <ele>198</ele>
        <time>2024-09-19T13:29:22Z</time>
      </trkpt>
      <trkpt lat="45.99139" lon="4.75191">
        <ele>197.2</ele>
        <time>2024-09-19T13:29:23Z</time>
      </trkpt>
      <trkpt lat="45.99134" lon="4.7519">
        <ele>198.2</ele>
        <time>2024-09-19T13:29:24Z</time>
      </trkpt>
      <trkpt lat="45.9913" lon="4.75189">
        <ele>198.2</ele>
        <time>2024-09-19T13:29:25Z</time>
      </trkpt>
      <trkpt lat="45.99123" lon="4.75189">
        <ele>198.2</ele>
        <time>2024-09-19T13:29:26Z</time>
      </trkpt>
      <trkpt lat="45.9912" lon="4.75189">
        <ele>198.2</ele>
        <time>2024-09-19T13:29:27Z</time>
      </trkpt>
      <trkpt lat="45.99116" lon="4.7519">
        <ele>198.2</ele>
        <time>2024-09-19T13:29:28Z</time>
      </trkpt>
      <trkpt lat="45.9911" lon="4.75189">
        <ele>197.8</ele>
        <time>2024-09-19T13:29:29Z</time>
      </trkpt>
      <trkpt lat="45.99105" lon="4.75189">
        <ele>197.8</ele>
        <time>2024-09-19T13:29:30Z</time>
      </trkpt>
      <trkpt lat="45.991" lon="4.75189">
        <ele>197.8</ele>
        <time>2024-09-19T13:29:31Z</time>
      </trkpt>
      <trkpt lat="45.99096" lon="4.75189">
        <ele>197.8</ele>
        <time>2024-09-19T13:29:32Z</time>
      </trkpt>
      <trkpt lat="45.99091" lon="4.75189">
        <ele>197.8</ele>
        <time>2024-09-19T13:29:33Z</time>
      </trkpt>
      <trkpt lat="45.99086" lon="4.7519">
        <ele>198.2</ele>
        <time>2024-09-19T13:29:34Z</time>
      </trkpt>
      <trkpt lat="45.99082" lon="4.75191">
        <ele>198.2</ele>
        <time>2024-09-19T13:29:35Z</time>
      </trkpt>
      <trkpt lat="45.99077" lon="4.75192">
        <ele>198.2</ele>
        <time>2024-09-19T13:29:36Z</time>
      </trkpt>
      <trkpt lat="45.99072" lon="4.75192">
        <ele>198.2</ele>
        <time>2024-09-19T13:29:37Z</time>
      </trkpt>
      <trkpt lat="45.99067" lon="4.75192">
        <ele>198.2</ele>
        <time>2024-09-19T13:29:38Z</time>
      </trkpt>
      <trkpt lat="45.99063" lon="4.75191">
        <ele>198</ele>
        <time>2024-09-19T13:29:39Z</time>
      </trkpt>
      <trkpt lat="45.99059" lon="4.75191">
        <ele>198</ele>
        <time>2024-09-19T13:29:40Z</time>
      </trkpt>
      <trkpt lat="45.99052" lon="4.7519">
        <ele>198</ele>
        <time>2024-09-19T13:29:41Z</time>
      </trkpt>
      <trkpt lat="45.9905" lon="4.7519">
        <ele>198.2</ele>
        <time>2024-09-19T13:29:42Z</time>
      </trkpt>
      <trkpt lat="45.99046" lon="4.75189">
        <ele>198.2</ele>
        <time>2024-09-19T13:29:43Z</time>
      </trkpt>
      <trkpt lat="45.99041" lon="4.75189">
        <ele>198.2</ele>
        <time>2024-09-19T13:29:44Z</time>
      </trkpt>
      <trkpt lat="45.99037" lon="4.75189">
        <ele>198.2</ele>
        <time>2024-09-19T13:29:45Z</time>
      </trkpt>
      <trkpt lat="45.99033" lon="4.75189">
        <ele>198.2</ele>
        <time>2024-09-19T13:29:46Z</time>
      </trkpt>
      <trkpt lat="45.99029" lon="4.75189">
        <ele>198</ele>
        <time>2024-09-19T13:29:47Z</time>
      </trkpt>
      <trkpt lat="45.99025" lon="4.75189">
        <ele>198.4</ele>
        <time>2024-09-19T13:29:48Z</time>
      </trkpt>
      <trkpt lat="45.9902" lon="4.75189">
        <ele>198.4</ele>
        <time>2024-09-19T13:29:49Z</time>
      </trkpt>
      <trkpt lat="45.99016" lon="4.7519">
        <ele>198.4</ele>
        <time>2024-09-19T13:29:50Z</time>
      </trkpt>
      <trkpt lat="45.99012" lon="4.7519">
        <ele>198.4</ele>
        <time>2024-09-19T13:29:51Z</time>
      </trkpt>
      <trkpt lat="45.99007" lon="4.75189">
        <ele>197.8</ele>
        <time>2024-09-19T13:29:52Z</time>
      </trkpt>
      <trkpt lat="45.99002" lon="4.7519">
        <ele>197.8</ele>
        <time>2024-09-19T13:29:53Z</time>
      </trkpt>
      <trkpt lat="45.98998" lon="4.7519">
        <ele>197.8</ele>
        <time>2024-09-19T13:29:54Z</time>
      </trkpt>
      <trkpt lat="45.98993" lon="4.7519">
        <ele>197.8</ele>
        <time>2024-09-19T13:29:55Z</time>
      </trkpt>
      <trkpt lat="45.98988" lon="4.7519">
        <ele>198</ele>
        <time>2024-09-19T13:29:56Z</time>
      </trkpt>
      <trkpt lat="45.98983" lon="4.75189">
        <ele>198</ele>
        <time>2024-09-19T13:29:57Z</time>
      </trkpt>
      <trkpt lat="45.98978" lon="4.75189">
        <ele>198</ele>
        <time>2024-09-19T13:29:58Z</time>
      </trkpt>
      <trkpt lat="45.98973" lon="4.7519">
        <ele>198</ele>
        <time>2024-09-19T13:29:59Z</time>
      </trkpt>
      <trkpt lat="45.98968" lon="4.7519">
        <ele>197.6</ele>
        <time>2024-09-19T13:30:00Z</time>
      </trkpt>
      <trkpt lat="45.98963" lon="4.7519">
        <ele>197.8</ele>
        <time>2024-09-19T13:30:01Z</time>
      </trkpt>
      <trkpt lat="45.98958" lon="4.7519">
        <ele>197.8</ele>
        <time>2024-09-19T13:30:02Z</time>
      </trkpt>
      <trkpt lat="45.98953" lon="4.75191">
        <ele>197.8</ele>
        <time>2024-09-19T13:30:03Z</time>
      </trkpt>
      <trkpt lat="45.98946" lon="4.75191">
        <ele>197.4</ele>
        <time>2024-09-19T13:30:04Z</time>
      </trkpt>
      <trkpt lat="45.98943" lon="4.75191">
        <ele>197.6</ele>
        <time>2024-09-19T13:30:05Z</time>
      </trkpt>
      <trkpt lat="45.98939" lon="4.75192">
        <ele>197.6</ele>
        <time>2024-09-19T13:30:06Z</time>
      </trkpt>
      <trkpt lat="45.98934" lon="4.75192">
        <ele>197.6</ele>
        <time>2024-09-19T13:30:07Z</time>
      </trkpt>
      <trkpt lat="45.98929" lon="4.75193">
        <ele>197.6</ele>
        <time>2024-09-19T13:30:08Z</time>
      </trkpt>
      <trkpt lat="45.98924" lon="4.75193">
        <ele>197.6</ele>
        <time>2024-09-19T13:30:09Z</time>
      </trkpt>
      <trkpt lat="45.98919" lon="4.75194">
        <ele>197.2</ele>
        <time>2024-09-19T13:30:10Z</time>
      </trkpt>
      <trkpt lat="45.98914" lon="4.75196">
        <ele>197.2</ele>
        <time>2024-09-19T13:30:11Z</time>
      </trkpt>
      <trkpt lat="45.9891" lon="4.75197">
        <ele>197.2</ele>
        <time>2024-09-19T13:30:12Z</time>
      </trkpt>
      <trkpt lat="45.98905" lon="4.75199">
        <ele>197.4</ele>
        <time>2024-09-19T13:30:13Z</time>
      </trkpt>
      <trkpt lat="45.98901" lon="4.752">
        <ele>197.4</ele>
        <time>2024-09-19T13:30:14Z</time>
      </trkpt>
      <trkpt lat="45.98896" lon="4.75201">
        <ele>197.4</ele>
        <time>2024-09-19T13:30:15Z</time>
      </trkpt>
      <trkpt lat="45.98892" lon="4.75202">
        <ele>197.4</ele>
        <time>2024-09-19T13:30:16Z</time>
      </trkpt>
      <trkpt lat="45.98888" lon="4.75203">
        <ele>197.4</ele>
        <time>2024-09-19T13:30:17Z</time>
      </trkpt>
      <trkpt lat="45.98884" lon="4.75204">
        <ele>197.6</ele>
        <time>2024-09-19T13:30:18Z</time>
      </trkpt>
      <trkpt lat="45.9888" lon="4.75204">
        <ele>197.6</ele>
        <time>2024-09-19T13:30:19Z</time>
      </trkpt>
      <trkpt lat="45.98876" lon="4.75205">
        <ele>197.6</ele>
        <time>2024-09-19T13:30:20Z</time>
      </trkpt>
      <trkpt lat="45.98872" lon="4.75206">
        <ele>197.6</ele>
        <time>2024-09-19T13:30:21Z</time>
      </trkpt>
      <trkpt lat="45.98868" lon="4.75206">
        <ele>197.6</ele>
        <time>2024-09-19T13:30:22Z</time>
      </trkpt>
      <trkpt lat="45.98864" lon="4.75207">
        <ele>197.4</ele>
        <time>2024-09-19T13:30:23Z</time>
      </trkpt>
      <trkpt lat="45.9886" lon="4.75208">
        <ele>197</ele>
        <time>2024-09-19T13:30:24Z</time>
      </trkpt>
      <trkpt lat="45.98855" lon="4.75209">
        <ele>197</ele>
        <time>2024-09-19T13:30:25Z</time>
      </trkpt>
      <trkpt lat="45.98851" lon="4.75209">
        <ele>197</ele>
        <time>2024-09-19T13:30:26Z</time>
      </trkpt>
      <trkpt lat="45.98846" lon="4.75209">
        <ele>197.2</ele>
        <time>2024-09-19T13:30:27Z</time>
      </trkpt>
      <trkpt lat="45.98841" lon="4.75209">
        <ele>197.2</ele>
        <time>2024-09-19T13:30:28Z</time>
      </trkpt>
      <trkpt lat="45.98837" lon="4.7521">
        <ele>197.2</ele>
        <time>2024-09-19T13:30:29Z</time>
      </trkpt>
      <trkpt lat="45.98832" lon="4.75211">
        <ele>197.2</ele>
        <time>2024-09-19T13:30:30Z</time>
      </trkpt>
      <trkpt lat="45.98827" lon="4.75212">
        <ele>197.2</ele>
        <time>2024-09-19T13:30:31Z</time>
      </trkpt>
      <trkpt lat="45.98823" lon="4.75213">
        <ele>197.2</ele>
        <time>2024-09-19T13:30:32Z</time>
      </trkpt>
      <trkpt lat="45.98818" lon="4.75214">
        <ele>197.6</ele>
        <time>2024-09-19T13:30:33Z</time>
      </trkpt>
      <trkpt lat="45.98813" lon="4.75214">
        <ele>197.6</ele>
        <time>2024-09-19T13:30:34Z</time>
      </trkpt>
      <trkpt lat="45.98808" lon="4.75214">
        <ele>197.6</ele>
        <time>2024-09-19T13:30:35Z</time>
      </trkpt>
      <trkpt lat="45.98804" lon="4.75215">
        <ele>197.6</ele>
        <time>2024-09-19T13:30:36Z</time>
      </trkpt>
      <trkpt lat="45.988" lon="4.75216">
        <ele>197.6</ele>
        <time>2024-09-19T13:30:37Z</time>
      </trkpt>
      <trkpt lat="45.98795" lon="4.75216">
        <ele>197.6</ele>
        <time>2024-09-19T13:30:38Z</time>
      </trkpt>
      <trkpt lat="45.98791" lon="4.75216">
        <ele>197.6</ele>
        <time>2024-09-19T13:30:39Z</time>
      </trkpt>
      <trkpt lat="45.98786" lon="4.75216">
        <ele>197.6</ele>
        <time>2024-09-19T13:30:40Z</time>
      </trkpt>
      <trkpt lat="45.98781" lon="4.75216">
        <ele>197.6</ele>
        <time>2024-09-19T13:30:41Z</time>
      </trkpt>
      <trkpt lat="45.98777" lon="4.75214">
        <ele>197.6</ele>
        <time>2024-09-19T13:30:42Z</time>
      </trkpt>
      <trkpt lat="45.98772" lon="4.75213">
        <ele>197.6</ele>
        <time>2024-09-19T13:30:43Z</time>
      </trkpt>
      <trkpt lat="45.98767" lon="4.75211">
        <ele>197.6</ele>
        <time>2024-09-19T13:30:44Z</time>
      </trkpt>
      <trkpt lat="45.98762" lon="4.75209">
        <ele>197.8</ele>
        <time>2024-09-19T13:30:45Z</time>
      </trkpt>
      <trkpt lat="45.98755" lon="4.75206">
        <ele>197.8</ele>
        <time>2024-09-19T13:30:46Z</time>
      </trkpt>
      <trkpt lat="45.98753" lon="4.75205">
        <ele>197.8</ele>
        <time>2024-09-19T13:30:47Z</time>
      </trkpt>
      <trkpt lat="45.98748" lon="4.75203">
        <ele>197.8</ele>
        <time>2024-09-19T13:30:48Z</time>
      </trkpt>
      <trkpt lat="45.98744" lon="4.75202">
        <ele>197.8</ele>
        <time>2024-09-19T13:30:49Z</time>
      </trkpt>
      <trkpt lat="45.98739" lon="4.752">
        <ele>197.8</ele>
        <time>2024-09-19T13:30:50Z</time>
      </trkpt>
      <trkpt lat="45.98734" lon="4.75198">
        <ele>197.8</ele>
        <time>2024-09-19T13:30:51Z</time>
      </trkpt>
      <trkpt lat="45.9873" lon="4.75196">
        <ele>197.8</ele>
        <time>2024-09-19T13:30:52Z</time>
      </trkpt>
      <trkpt lat="45.98725" lon="4.75193">
        <ele>197.8</ele>
        <time>2024-09-19T13:30:53Z</time>
      </trkpt>
      <trkpt lat="45.9872" lon="4.75191">
        <ele>197.6</ele>
        <time>2024-09-19T13:30:54Z</time>
      </trkpt>
      <trkpt lat="45.98715" lon="4.75189">
        <ele>197.6</ele>
        <time>2024-09-19T13:30:55Z</time>
      </trkpt>
      <trkpt lat="45.9871" lon="4.75188">
        <ele>197.6</ele>
        <time>2024-09-19T13:30:56Z</time>
      </trkpt>
      <trkpt lat="45.98704" lon="4.75188">
        <ele>197.6</ele>
        <time>2024-09-19T13:30:57Z</time>
      </trkpt>
      <trkpt lat="45.98699" lon="4.75188">
        <ele>197.6</ele>
        <time>2024-09-19T13:30:58Z</time>
      </trkpt>
      <trkpt lat="45.98693" lon="4.75188">
        <ele>197.6</ele>
        <time>2024-09-19T13:30:59Z</time>
      </trkpt>
      <trkpt lat="45.98688" lon="4.75188">
        <ele>197.6</ele>
        <time>2024-09-19T13:31:00Z</time>
      </trkpt>
      <trkpt lat="45.98682" lon="4.75187">
        <ele>197.6</ele>
        <time>2024-09-19T13:31:01Z</time>
      </trkpt>
      <trkpt lat="45.98677" lon="4.75187">
        <ele>197.8</ele>
        <time>2024-09-19T13:31:02Z</time>
      </trkpt>
      <trkpt lat="45.98672" lon="4.75187">
        <ele>197.8</ele>
        <time>2024-09-19T13:31:03Z</time>
      </trkpt>
      <trkpt lat="45.98667" lon="4.75187">
        <ele>197.8</ele>
        <time>2024-09-19T13:31:04Z</time>
      </trkpt>
      <trkpt lat="45.98661" lon="4.75188">
        <ele>197.8</ele>
        <time>2024-09-19T13:31:05Z</time>
      </trkpt>
      <trkpt lat="45.98656" lon="4.75189">
        <ele>197.8</ele>
        <time>2024-09-19T13:31:06Z</time>
      </trkpt>
      <trkpt lat="45.98651" lon="4.7519">
        <ele>197.8</ele>
        <time>2024-09-19T13:31:07Z</time>
      </trkpt>
      <trkpt lat="45.98646" lon="4.75191">
        <ele>197.8</ele>
        <time>2024-09-19T13:31:08Z</time>
      </trkpt>
      <trkpt lat="45.9864" lon="4.75191">
        <ele>197.8</ele>
        <time>2024-09-19T13:31:09Z</time>
      </trkpt>
      <trkpt lat="45.98635" lon="4.75191">
        <ele>197.8</ele>
        <time>2024-09-19T13:31:10Z</time>
      </trkpt>
      <trkpt lat="45.9863" lon="4.75191">
        <ele>197.8</ele>
        <time>2024-09-19T13:31:11Z</time>
      </trkpt>
      <trkpt lat="45.98625" lon="4.75191">
        <ele>197.8</ele>
        <time>2024-09-19T13:31:12Z</time>
      </trkpt>
      <trkpt lat="45.98619" lon="4.7519">
        <ele>198</ele>
        <time>2024-09-19T13:31:13Z</time>
      </trkpt>
      <trkpt lat="45.98615" lon="4.75189">
        <ele>198</ele>
        <time>2024-09-19T13:31:14Z</time>
      </trkpt>
      <trkpt lat="45.9861" lon="4.75188">
        <ele>198</ele>
        <time>2024-09-19T13:31:15Z</time>
      </trkpt>
      <trkpt lat="45.98606" lon="4.75187">
        <ele>198</ele>
        <time>2024-09-19T13:31:16Z</time>
      </trkpt>
      <trkpt lat="45.98603" lon="4.75185">
        <ele>198</ele>
        <time>2024-09-19T13:31:17Z</time>
      </trkpt>
      <trkpt lat="45.986" lon="4.75183">
        <ele>198</ele>
        <time>2024-09-19T13:31:18Z</time>
      </trkpt>
      <trkpt lat="45.98598" lon="4.75183">
        <ele>198</ele>
        <time>2024-09-19T13:31:19Z</time>
      </trkpt>
      <trkpt lat="45.98597" lon="4.75183">
        <ele>198</ele>
        <time>2024-09-19T13:31:20Z</time>
      </trkpt>
      <trkpt lat="45.98597" lon="4.75183">
        <ele>198</ele>
        <time>2024-09-19T13:31:21Z</time>
      </trkpt>
      <trkpt lat="45.98596" lon="4.75183">
        <ele>197.8</ele>
        <time>2024-09-19T13:31:22Z</time>
      </trkpt>
      <trkpt lat="45.98596" lon="4.75187">
        <ele>197.8</ele>
        <time>2024-09-19T13:31:25Z</time>
      </trkpt>
      <trkpt lat="45.98596" lon="4.75188">
        <ele>198</ele>
        <time>2024-09-19T13:31:26Z</time>
      </trkpt>
      <trkpt lat="45.98597" lon="4.7519">
        <ele>198</ele>
        <time>2024-09-19T13:31:27Z</time>
      </trkpt>
      <trkpt lat="45.98598" lon="4.75192">
        <ele>198</ele>
        <time>2024-09-19T13:31:28Z</time>
      </trkpt>
      <trkpt lat="45.98601" lon="4.75194">
        <ele>198</ele>
        <time>2024-09-19T13:31:29Z</time>
      </trkpt>
      <trkpt lat="45.98602" lon="4.75195">
        <ele>198.4</ele>
        <time>2024-09-19T13:31:30Z</time>
      </trkpt>
      <trkpt lat="45.98604" lon="4.75199">
        <ele>198.4</ele>
        <time>2024-09-19T13:31:31Z</time>
      </trkpt>
      <trkpt lat="45.98605" lon="4.752">
        <ele>198.4</ele>
        <time>2024-09-19T13:31:32Z</time>
      </trkpt>
      <trkpt lat="45.98607" lon="4.75203">
        <ele>198.4</ele>
        <time>2024-09-19T13:31:33Z</time>
      </trkpt>
      <trkpt lat="45.98608" lon="4.75205">
        <ele>199</ele>
        <time>2024-09-19T13:31:34Z</time>
      </trkpt>
      <trkpt lat="45.98611" lon="4.75207">
        <ele>198.8</ele>
        <time>2024-09-19T13:31:35Z</time>
      </trkpt>
      <trkpt lat="45.98613" lon="4.75209">
        <ele>198.8</ele>
        <time>2024-09-19T13:31:36Z</time>
      </trkpt>
      <trkpt lat="45.98615" lon="4.75212">
        <ele>198.8</ele>
        <time>2024-09-19T13:31:37Z</time>
      </trkpt>
      <trkpt lat="45.98617" lon="4.75214">
        <ele>199.4</ele>
        <time>2024-09-19T13:31:38Z</time>
      </trkpt>
      <trkpt lat="45.98618" lon="4.75216">
        <ele>199.8</ele>
        <time>2024-09-19T13:31:39Z</time>
      </trkpt>
      <trkpt lat="45.9862" lon="4.75218">
        <ele>199.8</ele>
        <time>2024-09-19T13:31:40Z</time>
      </trkpt>
      <trkpt lat="45.98622" lon="4.75219">
        <ele>199.8</ele>
        <time>2024-09-19T13:31:41Z</time>
      </trkpt>
      <trkpt lat="45.98623" lon="4.75221">
        <ele>199.8</ele>
        <time>2024-09-19T13:31:42Z</time>
      </trkpt>
      <trkpt lat="45.98623" lon="4.75223">
        <ele>200</ele>
        <time>2024-09-19T13:31:43Z</time>
      </trkpt>
      <trkpt lat="45.98622" lon="4.75224">
        <ele>200</ele>
        <time>2024-09-19T13:31:44Z</time>
      </trkpt>
      <trkpt lat="45.98621" lon="4.75224">
        <ele>200</ele>
        <time>2024-09-19T13:31:45Z</time>
      </trkpt>
      <trkpt lat="45.98619" lon="4.75224">
        <ele>199.8</ele>
        <time>2024-09-19T13:31:46Z</time>
      </trkpt>
      <trkpt lat="45.98617" lon="4.75224">
        <ele>199.8</ele>
        <time>2024-09-19T13:31:47Z</time>
      </trkpt>
      <trkpt lat="45.98615" lon="4.75224">
        <ele>200.4</ele>
        <time>2024-09-19T13:31:48Z</time>
      </trkpt>
      <trkpt lat="45.98613" lon="4.75224">
        <ele>200.2</ele>
        <time>2024-09-19T13:31:49Z</time>
      </trkpt>
      <trkpt lat="45.9861" lon="4.75224">
        <ele>200.2</ele>
        <time>2024-09-19T13:31:50Z</time>
      </trkpt>
      <trkpt lat="45.98608" lon="4.75224">
        <ele>200.2</ele>
        <time>2024-09-19T13:31:51Z</time>
      </trkpt>
      <trkpt lat="45.98606" lon="4.75224">
        <ele>200.2</ele>
        <time>2024-09-19T13:31:52Z</time>
      </trkpt>
      <trkpt lat="45.98604" lon="4.75224">
        <ele>200.6</ele>
        <time>2024-09-19T13:31:53Z</time>
      </trkpt>
      <trkpt lat="45.98601" lon="4.75224">
        <ele>200.8</ele>
        <time>2024-09-19T13:31:54Z</time>
      </trkpt>
      <trkpt lat="45.98599" lon="4.75224">
        <ele>200.8</ele>
        <time>2024-09-19T13:31:55Z</time>
      </trkpt>
      <trkpt lat="45.98597" lon="4.75224">
        <ele>200.8</ele>
        <time>2024-09-19T13:31:56Z</time>
      </trkpt>
      <trkpt lat="45.98594" lon="4.75225">
        <ele>200.8</ele>
        <time>2024-09-19T13:31:57Z</time>
      </trkpt>
      <trkpt lat="45.98591" lon="4.75225">
        <ele>200.8</ele>
        <time>2024-09-19T13:31:58Z</time>
      </trkpt>
      <trkpt lat="45.98589" lon="4.75225">
        <ele>200.8</ele>
        <time>2024-09-19T13:31:59Z</time>
      </trkpt>
      <trkpt lat="45.98586" lon="4.75225">
        <ele>200.8</ele>
        <time>2024-09-19T13:32:00Z</time>
      </trkpt>
      <trkpt lat="45.98583" lon="4.75225">
        <ele>201.2</ele>
        <time>2024-09-19T13:32:01Z</time>
      </trkpt>
      <trkpt lat="45.9858" lon="4.75225">
        <ele>201.2</ele>
        <time>2024-09-19T13:32:02Z</time>
      </trkpt>
      <trkpt lat="45.98577" lon="4.75225">
        <ele>200.8</ele>
        <time>2024-09-19T13:32:03Z</time>
      </trkpt>
      <trkpt lat="45.98574" lon="4.75225">
        <ele>200.8</ele>
        <time>2024-09-19T13:32:04Z</time>
      </trkpt>
      <trkpt lat="45.98571" lon="4.75224">
        <ele>200.8</ele>
        <time>2024-09-19T13:32:05Z</time>
      </trkpt>
      <trkpt lat="45.98568" lon="4.75225">
        <ele>200.8</ele>
        <time>2024-09-19T13:32:06Z</time>
      </trkpt>
      <trkpt lat="45.98565" lon="4.75225">
        <ele>200.8</ele>
        <time>2024-09-19T13:32:07Z</time>
      </trkpt>
      <trkpt lat="45.98562" lon="4.75225">
        <ele>200.8</ele>
        <time>2024-09-19T13:32:08Z</time>
      </trkpt>
      <trkpt lat="45.98558" lon="4.75225">
        <ele>200.8</ele>
        <time>2024-09-19T13:32:09Z</time>
      </trkpt>
      <trkpt lat="45.98555" lon="4.75226">
        <ele>201</ele>
        <time>2024-09-19T13:32:10Z</time>
      </trkpt>
      <trkpt lat="45.98552" lon="4.75226">
        <ele>201</ele>
        <time>2024-09-19T13:32:11Z</time>
      </trkpt>
      <trkpt lat="45.98549" lon="4.75227">
        <ele>201</ele>
        <time>2024-09-19T13:32:12Z</time>
      </trkpt>
      <trkpt lat="45.98546" lon="4.75227">
        <ele>201</ele>
        <time>2024-09-19T13:32:13Z</time>
      </trkpt>
      <trkpt lat="45.98544" lon="4.75227">
        <ele>201</ele>
        <time>2024-09-19T13:32:14Z</time>
      </trkpt>
      <trkpt lat="45.9854" lon="4.75227">
        <ele>201</ele>
        <time>2024-09-19T13:32:15Z</time>
      </trkpt>
      <trkpt lat="45.98539" lon="4.75227">
        <ele>201</ele>
        <time>2024-09-19T13:32:16Z</time>
      </trkpt>
      <trkpt lat="45.98535" lon="4.75227">
        <ele>201</ele>
        <time>2024-09-19T13:32:17Z</time>
      </trkpt>
      <trkpt lat="45.98534" lon="4.75227">
        <ele>201</ele>
        <time>2024-09-19T13:32:18Z</time>
      </trkpt>
      <trkpt lat="45.98532" lon="4.75228">
        <ele>201</ele>
        <time>2024-09-19T13:32:19Z</time>
      </trkpt>
      <trkpt lat="45.9853" lon="4.75229">
        <ele>200.6</ele>
        <time>2024-09-19T13:32:20Z</time>
      </trkpt>
      <trkpt lat="45.98528" lon="4.7523">
        <ele>200.6</ele>
        <time>2024-09-19T13:32:21Z</time>
      </trkpt>
      <trkpt lat="45.98526" lon="4.75231">
        <ele>200.6</ele>
        <time>2024-09-19T13:32:22Z</time>
      </trkpt>
      <trkpt lat="45.98526" lon="4.75232">
        <ele>200.8</ele>
        <time>2024-09-19T13:32:23Z</time>
      </trkpt>
      <trkpt lat="45.98525" lon="4.75232">
        <ele>200.8</ele>
        <time>2024-09-19T13:32:24Z</time>
      </trkpt>
      <trkpt lat="45.98525" lon="4.75232">
        <ele>200.6</ele>
        <time>2024-09-19T13:32:25Z</time>
      </trkpt>
      <trkpt lat="45.98522" lon="4.75241">
        <ele>200.8</ele>
        <time>2024-09-19T13:32:32Z</time>
      </trkpt>
      <trkpt lat="45.98523" lon="4.75245">
        <ele>200.8</ele>
        <time>2024-09-19T13:32:33Z</time>
      </trkpt>
      <trkpt lat="45.98523" lon="4.75249">
        <ele>200.6</ele>
        <time>2024-09-19T13:32:34Z</time>
      </trkpt>
      <trkpt lat="45.98524" lon="4.75253">
        <ele>200.6</ele>
        <time>2024-09-19T13:32:35Z</time>
      </trkpt>
      <trkpt lat="45.98525" lon="4.75257">
        <ele>200.6</ele>
        <time>2024-09-19T13:32:36Z</time>
      </trkpt>
      <trkpt lat="45.98526" lon="4.75261">
        <ele>200.6</ele>
        <time>2024-09-19T13:32:37Z</time>
      </trkpt>
      <trkpt lat="45.98527" lon="4.75264">
        <ele>200.2</ele>
        <time>2024-09-19T13:32:38Z</time>
      </trkpt>
      <trkpt lat="45.98528" lon="4.75268">
        <ele>200.4</ele>
        <time>2024-09-19T13:32:39Z</time>
      </trkpt>
      <trkpt lat="45.98529" lon="4.75272">
        <ele>200.4</ele>
        <time>2024-09-19T13:32:40Z</time>
      </trkpt>
      <trkpt lat="45.98529" lon="4.75276">
        <ele>200.4</ele>
        <time>2024-09-19T13:32:41Z</time>
      </trkpt>
      <trkpt lat="45.98529" lon="4.7528">
        <ele>200.4</ele>
        <time>2024-09-19T13:32:42Z</time>
      </trkpt>
      <trkpt lat="45.98529" lon="4.75284">
        <ele>200.8</ele>
        <time>2024-09-19T13:32:43Z</time>
      </trkpt>
      <trkpt lat="45.98528" lon="4.75287">
        <ele>200.8</ele>
        <time>2024-09-19T13:32:44Z</time>
      </trkpt>
      <trkpt lat="45.98527" lon="4.75291">
        <ele>200.8</ele>
        <time>2024-09-19T13:32:45Z</time>
      </trkpt>
      <trkpt lat="45.98525" lon="4.75293">
        <ele>200.8</ele>
        <time>2024-09-19T13:32:46Z</time>
      </trkpt>
      <trkpt lat="45.98522" lon="4.75296">
        <ele>200.8</ele>
        <time>2024-09-19T13:32:47Z</time>
      </trkpt>
      <trkpt lat="45.98519" lon="4.75299">
        <ele>200.8</ele>
        <time>2024-09-19T13:32:48Z</time>
      </trkpt>
      <trkpt lat="45.98516" lon="4.75302">
        <ele>200.8</ele>
        <time>2024-09-19T13:32:49Z</time>
      </trkpt>
      <trkpt lat="45.98513" lon="4.75305">
        <ele>200.8</ele>
        <time>2024-09-19T13:32:50Z</time>
      </trkpt>
      <trkpt lat="45.9851" lon="4.75307">
        <ele>200.8</ele>
        <time>2024-09-19T13:32:51Z</time>
      </trkpt>
      <trkpt lat="45.98507" lon="4.75308">
        <ele>200.8</ele>
        <time>2024-09-19T13:32:52Z</time>
      </trkpt>
      <trkpt lat="45.98504" lon="4.75308">
        <ele>201.2</ele>
        <time>2024-09-19T13:32:53Z</time>
      </trkpt>
      <trkpt lat="45.98501" lon="4.75308">
        <ele>201.2</ele>
        <time>2024-09-19T13:32:54Z</time>
      </trkpt>
      <trkpt lat="45.98498" lon="4.75308">
        <ele>201.2</ele>
        <time>2024-09-19T13:32:55Z</time>
      </trkpt>
      <trkpt lat="45.98495" lon="4.75307">
        <ele>200.8</ele>
        <time>2024-09-19T13:32:56Z</time>
      </trkpt>
      <trkpt lat="45.98491" lon="4.75306">
        <ele>200.8</ele>
        <time>2024-09-19T13:32:57Z</time>
      </trkpt>
      <trkpt lat="45.98488" lon="4.75306">
        <ele>200.8</ele>
        <time>2024-09-19T13:32:58Z</time>
      </trkpt>
      <trkpt lat="45.98485" lon="4.75305">
        <ele>200.8</ele>
        <time>2024-09-19T13:32:59Z</time>
      </trkpt>
      <trkpt lat="45.98482" lon="4.75305">
        <ele>201.2</ele>
        <time>2024-09-19T13:33:00Z</time>
      </trkpt>
      <trkpt lat="45.98478" lon="4.75304">
        <ele>201.2</ele>
        <time>2024-09-19T13:33:01Z</time>
      </trkpt>
      <trkpt lat="45.98475" lon="4.75304">
        <ele>201</ele>
        <time>2024-09-19T13:33:02Z</time>
      </trkpt>
      <trkpt lat="45.98471" lon="4.75304">
        <ele>201</ele>
        <time>2024-09-19T13:33:03Z</time>
      </trkpt>
      <trkpt lat="45.98468" lon="4.75303">
        <ele>201.4</ele>
        <time>2024-09-19T13:33:04Z</time>
      </trkpt>
      <trkpt lat="45.98465" lon="4.75302">
        <ele>201</ele>
        <time>2024-09-19T13:33:05Z</time>
      </trkpt>
      <trkpt lat="45.98462" lon="4.75301">
        <ele>201</ele>
        <time>2024-09-19T13:33:06Z</time>
      </trkpt>
      <trkpt lat="45.98459" lon="4.753">
        <ele>201</ele>
        <time>2024-09-19T13:33:07Z</time>
      </trkpt>
      <trkpt lat="45.98457" lon="4.753">
        <ele>201</ele>
        <time>2024-09-19T13:33:08Z</time>
      </trkpt>
      <trkpt lat="45.98455" lon="4.75298">
        <ele>201.4</ele>
        <time>2024-09-19T13:33:09Z</time>
      </trkpt>
      <trkpt lat="45.98454" lon="4.75296">
        <ele>201.2</ele>
        <time>2024-09-19T13:33:10Z</time>
      </trkpt>
      <trkpt lat="45.98453" lon="4.75294">
        <ele>201.2</ele>
        <time>2024-09-19T13:33:11Z</time>
      </trkpt>
      <trkpt lat="45.98451" lon="4.75292">
        <ele>201.2</ele>
        <time>2024-09-19T13:33:12Z</time>
      </trkpt>
      <trkpt lat="45.9845" lon="4.75292">
        <ele>201.2</ele>
        <time>2024-09-19T13:33:13Z</time>
      </trkpt>
      <trkpt lat="45.98448" lon="4.75292">
        <ele>201</ele>
        <time>2024-09-19T13:33:14Z</time>
      </trkpt>
      <trkpt lat="45.98446" lon="4.75292">
        <ele>201</ele>
        <time>2024-09-19T13:33:15Z</time>
      </trkpt>
      <trkpt lat="45.98443" lon="4.75292">
        <ele>201</ele>
        <time>2024-09-19T13:33:16Z</time>
      </trkpt>
      <trkpt lat="45.98441" lon="4.75292">
        <ele>201</ele>
        <time>2024-09-19T13:33:17Z</time>
      </trkpt>
      <trkpt lat="45.98439" lon="4.75292">
        <ele>201</ele>
        <time>2024-09-19T13:33:18Z</time>
      </trkpt>
      <trkpt lat="45.98438" lon="4.75294">
        <ele>201</ele>
        <time>2024-09-19T13:33:19Z</time>
      </trkpt>
      <trkpt lat="45.98437" lon="4.75296">
        <ele>201.4</ele>
        <time>2024-09-19T13:33:20Z</time>
      </trkpt>
      <trkpt lat="45.98435" lon="4.75298">
        <ele>201.4</ele>
        <time>2024-09-19T13:33:21Z</time>
      </trkpt>
      <trkpt lat="45.98433" lon="4.75299">
        <ele>201.4</ele>
        <time>2024-09-19T13:33:22Z</time>
      </trkpt>
      <trkpt lat="45.9843" lon="4.75299">
        <ele>201.2</ele>
        <time>2024-09-19T13:33:23Z</time>
      </trkpt>
      <trkpt lat="45.98427" lon="4.75299">
        <ele>201.6</ele>
        <time>2024-09-19T13:33:24Z</time>
      </trkpt>
      <trkpt lat="45.98424" lon="4.75299">
        <ele>201.6</ele>
        <time>2024-09-19T13:33:25Z</time>
      </trkpt>
      <trkpt lat="45.98421" lon="4.75299">
        <ele>201.6</ele>
        <time>2024-09-19T13:33:26Z</time>
      </trkpt>
      <trkpt lat="45.98417" lon="4.75298">
        <ele>201.2</ele>
        <time>2024-09-19T13:33:27Z</time>
      </trkpt>
      <trkpt lat="45.98414" lon="4.75298">
        <ele>201.2</ele>
        <time>2024-09-19T13:33:28Z</time>
      </trkpt>
      <trkpt lat="45.9841" lon="4.75298">
        <ele>201.2</ele>
        <time>2024-09-19T13:33:29Z</time>
      </trkpt>
      <trkpt lat="45.98406" lon="4.75298">
        <ele>201.2</ele>
        <time>2024-09-19T13:33:30Z</time>
      </trkpt>
      <trkpt lat="45.98402" lon="4.75298">
        <ele>201.2</ele>
        <time>2024-09-19T13:33:31Z</time>
      </trkpt>
      <trkpt lat="45.98398" lon="4.75298">
        <ele>201.2</ele>
        <time>2024-09-19T13:33:32Z</time>
      </trkpt>
      <trkpt lat="45.98394" lon="4.75299">
        <ele>201.4</ele>
        <time>2024-09-19T13:33:33Z</time>
      </trkpt>
      <trkpt lat="45.98389" lon="4.753">
        <ele>201.4</ele>
        <time>2024-09-19T13:33:34Z</time>
      </trkpt>
      <trkpt lat="45.98385" lon="4.75301">
        <ele>201.4</ele>
        <time>2024-09-19T13:33:35Z</time>
      </trkpt>
      <trkpt lat="45.9838" lon="4.75302">
        <ele>201.4</ele>
        <time>2024-09-19T13:33:36Z</time>
      </trkpt>
      <trkpt lat="45.98375" lon="4.75303">
        <ele>201.2</ele>
        <time>2024-09-19T13:33:37Z</time>
      </trkpt>
      <trkpt lat="45.98371" lon="4.75304">
        <ele>201.2</ele>
        <time>2024-09-19T13:33:38Z</time>
      </trkpt>
      <trkpt lat="45.98363" lon="4.75306">
        <ele>201.2</ele>
        <time>2024-09-19T13:33:39Z</time>
      </trkpt>
      <trkpt lat="45.98361" lon="4.75307">
        <ele>201.2</ele>
        <time>2024-09-19T13:33:40Z</time>
      </trkpt>
      <trkpt lat="45.98356" lon="4.75308">
        <ele>201.2</ele>
        <time>2024-09-19T13:33:41Z</time>
      </trkpt>
      <trkpt lat="45.98351" lon="4.75309">
        <ele>201.2</ele>
        <time>2024-09-19T13:33:42Z</time>
      </trkpt>
      <trkpt lat="45.98346" lon="4.7531">
        <ele>201.2</ele>
        <time>2024-09-19T13:33:43Z</time>
      </trkpt>
      <trkpt lat="45.98342" lon="4.75312">
        <ele>201.2</ele>
        <time>2024-09-19T13:33:44Z</time>
      </trkpt>
      <trkpt lat="45.98335" lon="4.75314">
        <ele>200.6</ele>
        <time>2024-09-19T13:33:45Z</time>
      </trkpt>
      <trkpt lat="45.98332" lon="4.75315">
        <ele>200.8</ele>
        <time>2024-09-19T13:33:46Z</time>
      </trkpt>
      <trkpt lat="45.98327" lon="4.75317">
        <ele>200.8</ele>
        <time>2024-09-19T13:33:47Z</time>
      </trkpt>
      <trkpt lat="45.98322" lon="4.75319">
        <ele>200.8</ele>
        <time>2024-09-19T13:33:48Z</time>
      </trkpt>
      <trkpt lat="45.98317" lon="4.7532">
        <ele>200.8</ele>
        <time>2024-09-19T13:33:49Z</time>
      </trkpt>
      <trkpt lat="45.98312" lon="4.75322">
        <ele>200.8</ele>
        <time>2024-09-19T13:33:50Z</time>
      </trkpt>
      <trkpt lat="45.98307" lon="4.75323">
        <ele>200.8</ele>
        <time>2024-09-19T13:33:51Z</time>
      </trkpt>
      <trkpt lat="45.98302" lon="4.75325">
        <ele>200.8</ele>
        <time>2024-09-19T13:33:52Z</time>
      </trkpt>
      <trkpt lat="45.98294" lon="4.75328">
        <ele>200.4</ele>
        <time>2024-09-19T13:33:53Z</time>
      </trkpt>
      <trkpt lat="45.98291" lon="4.75329">
        <ele>200.4</ele>
        <time>2024-09-19T13:33:54Z</time>
      </trkpt>
      <trkpt lat="45.98285" lon="4.7533">
        <ele>200.4</ele>
        <time>2024-09-19T13:33:55Z</time>
      </trkpt>
      <trkpt lat="45.9828" lon="4.75331">
        <ele>200.6</ele>
        <time>2024-09-19T13:33:56Z</time>
      </trkpt>
      <trkpt lat="45.98275" lon="4.75331">
        <ele>200.6</ele>
        <time>2024-09-19T13:33:57Z</time>
      </trkpt>
      <trkpt lat="45.98269" lon="4.75331">
        <ele>200.6</ele>
        <time>2024-09-19T13:33:58Z</time>
      </trkpt>
      <trkpt lat="45.98264" lon="4.7533">
        <ele>200</ele>
        <time>2024-09-19T13:33:59Z</time>
      </trkpt>
      <trkpt lat="45.98258" lon="4.75329">
        <ele>200</ele>
        <time>2024-09-19T13:34:00Z</time>
      </trkpt>
      <trkpt lat="45.98253" lon="4.75328">
        <ele>200.4</ele>
        <time>2024-09-19T13:34:01Z</time>
      </trkpt>
      <trkpt lat="45.98248" lon="4.75326">
        <ele>200.4</ele>
        <time>2024-09-19T13:34:02Z</time>
      </trkpt>
      <trkpt lat="45.98243" lon="4.75324">
        <ele>200.4</ele>
        <time>2024-09-19T13:34:03Z</time>
      </trkpt>
      <trkpt lat="45.98237" lon="4.75322">
        <ele>200</ele>
        <time>2024-09-19T13:34:04Z</time>
      </trkpt>
      <trkpt lat="45.98232" lon="4.7532">
        <ele>200</ele>
        <time>2024-09-19T13:34:05Z</time>
      </trkpt>
      <trkpt lat="45.98227" lon="4.75318">
        <ele>200</ele>
        <time>2024-09-19T13:34:06Z</time>
      </trkpt>
      <trkpt lat="45.98222" lon="4.75315">
        <ele>200</ele>
        <time>2024-09-19T13:34:07Z</time>
      </trkpt>
      <trkpt lat="45.98216" lon="4.75313">
        <ele>200</ele>
        <time>2024-09-19T13:34:08Z</time>
      </trkpt>
      <trkpt lat="45.98211" lon="4.75312">
        <ele>200.2</ele>
        <time>2024-09-19T13:34:09Z</time>
      </trkpt>
      <trkpt lat="45.98206" lon="4.75311">
        <ele>200.2</ele>
        <time>2024-09-19T13:34:10Z</time>
      </trkpt>
      <trkpt lat="45.982" lon="4.7531">
        <ele>200.2</ele>
        <time>2024-09-19T13:34:11Z</time>
      </trkpt>
      <trkpt lat="45.98194" lon="4.7531">
        <ele>200.2</ele>
        <time>2024-09-19T13:34:12Z</time>
      </trkpt>
      <trkpt lat="45.98189" lon="4.75312">
        <ele>199.8</ele>
        <time>2024-09-19T13:34:13Z</time>
      </trkpt>
      <trkpt lat="45.98184" lon="4.75315">
        <ele>199.8</ele>
        <time>2024-09-19T13:34:14Z</time>
      </trkpt>
      <trkpt lat="45.98178" lon="4.75317">
        <ele>199.8</ele>
        <time>2024-09-19T13:34:15Z</time>
      </trkpt>
      <trkpt lat="45.98173" lon="4.7532">
        <ele>199.8</ele>
        <time>2024-09-19T13:34:16Z</time>
      </trkpt>
      <trkpt lat="45.98168" lon="4.75323">
        <ele>199.8</ele>
        <time>2024-09-19T13:34:17Z</time>
      </trkpt>
      <trkpt lat="45.98163" lon="4.75326">
        <ele>199.4</ele>
        <time>2024-09-19T13:34:18Z</time>
      </trkpt>
      <trkpt lat="45.98158" lon="4.75328">
        <ele>199.4</ele>
        <time>2024-09-19T13:34:19Z</time>
      </trkpt>
      <trkpt lat="45.98153" lon="4.75331">
        <ele>199.4</ele>
        <time>2024-09-19T13:34:20Z</time>
      </trkpt>
      <trkpt lat="45.98148" lon="4.75334">
        <ele>199.4</ele>
        <time>2024-09-19T13:34:21Z</time>
      </trkpt>
      <trkpt lat="45.98142" lon="4.75336">
        <ele>199.4</ele>
        <time>2024-09-19T13:34:22Z</time>
      </trkpt>
      <trkpt lat="45.98135" lon="4.75334">
        <ele>199.4</ele>
        <time>2024-09-19T13:34:23Z</time>
      </trkpt>
      <trkpt lat="45.98132" lon="4.75333">
        <ele>199.4</ele>
        <time>2024-09-19T13:34:24Z</time>
      </trkpt>
      <trkpt lat="45.98125" lon="4.75333">
        <ele>199</ele>
        <time>2024-09-19T13:34:25Z</time>
      </trkpt>
      <trkpt lat="45.98123" lon="4.75334">
        <ele>198.8</ele>
        <time>2024-09-19T13:34:26Z</time>
      </trkpt>
      <trkpt lat="45.98115" lon="4.75337">
        <ele>198.8</ele>
        <time>2024-09-19T13:34:27Z</time>
      </trkpt>
      <trkpt lat="45.98113" lon="4.75338">
        <ele>198.8</ele>
        <time>2024-09-19T13:34:28Z</time>
      </trkpt>
      <trkpt lat="45.98108" lon="4.75341">
        <ele>198.8</ele>
        <time>2024-09-19T13:34:29Z</time>
      </trkpt>
      <trkpt lat="45.98103" lon="4.75344">
        <ele>198.8</ele>
        <time>2024-09-19T13:34:30Z</time>
      </trkpt>
      <trkpt lat="45.98099" lon="4.75346">
        <ele>199</ele>
        <time>2024-09-19T13:34:31Z</time>
      </trkpt>
      <trkpt lat="45.98094" lon="4.75349">
        <ele>199</ele>
        <time>2024-09-19T13:34:32Z</time>
      </trkpt>
      <trkpt lat="45.98089" lon="4.75351">
        <ele>199</ele>
        <time>2024-09-19T13:34:33Z</time>
      </trkpt>
      <trkpt lat="45.98083" lon="4.75355">
        <ele>199</ele>
        <time>2024-09-19T13:34:34Z</time>
      </trkpt>
      <trkpt lat="45.98081" lon="4.75357">
        <ele>198.8</ele>
        <time>2024-09-19T13:34:35Z</time>
      </trkpt>
      <trkpt lat="45.98076" lon="4.75359">
        <ele>198.8</ele>
        <time>2024-09-19T13:34:36Z</time>
      </trkpt>
      <trkpt lat="45.98072" lon="4.75362">
        <ele>198.8</ele>
        <time>2024-09-19T13:34:37Z</time>
      </trkpt>
      <trkpt lat="45.98067" lon="4.75365">
        <ele>198.8</ele>
        <time>2024-09-19T13:34:38Z</time>
      </trkpt>
      <trkpt lat="45.98063" lon="4.75367">
        <ele>198.8</ele>
        <time>2024-09-19T13:34:39Z</time>
      </trkpt>
      <trkpt lat="45.98059" lon="4.7537">
        <ele>198.8</ele>
        <time>2024-09-19T13:34:40Z</time>
      </trkpt>
      <trkpt lat="45.98054" lon="4.75372">
        <ele>198.8</ele>
        <time>2024-09-19T13:34:41Z</time>
      </trkpt>
      <trkpt lat="45.9805" lon="4.75375">
        <ele>198.8</ele>
        <time>2024-09-19T13:34:42Z</time>
      </trkpt>
      <trkpt lat="45.98045" lon="4.75378">
        <ele>198.8</ele>
        <time>2024-09-19T13:34:43Z</time>
      </trkpt>
      <trkpt lat="45.98041" lon="4.7538">
        <ele>198.8</ele>
        <time>2024-09-19T13:34:44Z</time>
      </trkpt>
      <trkpt lat="45.98036" lon="4.75384">
        <ele>198.8</ele>
        <time>2024-09-19T13:34:45Z</time>
      </trkpt>
      <trkpt lat="45.98031" lon="4.75387">
        <ele>198.8</ele>
        <time>2024-09-19T13:34:46Z</time>
      </trkpt>
      <trkpt lat="45.98026" lon="4.75389">
        <ele>198.8</ele>
        <time>2024-09-19T13:34:47Z</time>
      </trkpt>
      <trkpt lat="45.98021" lon="4.75392">
        <ele>198.6</ele>
        <time>2024-09-19T13:34:48Z</time>
      </trkpt>
      <trkpt lat="45.98016" lon="4.75395">
        <ele>198.4</ele>
        <time>2024-09-19T13:34:49Z</time>
      </trkpt>
      <trkpt lat="45.98011" lon="4.75398">
        <ele>198.4</ele>
        <time>2024-09-19T13:34:50Z</time>
      </trkpt>
      <trkpt lat="45.98006" lon="4.754">
        <ele>198.4</ele>
        <time>2024-09-19T13:34:51Z</time>
      </trkpt>
      <trkpt lat="45.98001" lon="4.75403">
        <ele>198.4</ele>
        <time>2024-09-19T13:34:52Z</time>
      </trkpt>
      <trkpt lat="45.97996" lon="4.75406">
        <ele>198.6</ele>
        <time>2024-09-19T13:34:53Z</time>
      </trkpt>
      <trkpt lat="45.97991" lon="4.75409">
        <ele>198.6</ele>
        <time>2024-09-19T13:34:54Z</time>
      </trkpt>
      <trkpt lat="45.97986" lon="4.75412">
        <ele>198.6</ele>
        <time>2024-09-19T13:34:55Z</time>
      </trkpt>
      <trkpt lat="45.97981" lon="4.75415">
        <ele>198.6</ele>
        <time>2024-09-19T13:34:56Z</time>
      </trkpt>
      <trkpt lat="45.97976" lon="4.75418">
        <ele>198.6</ele>
        <time>2024-09-19T13:34:57Z</time>
      </trkpt>
      <trkpt lat="45.97971" lon="4.75421">
        <ele>198.6</ele>
        <time>2024-09-19T13:34:58Z</time>
      </trkpt>
      <trkpt lat="45.97966" lon="4.75423">
        <ele>198.6</ele>
        <time>2024-09-19T13:34:59Z</time>
      </trkpt>
      <trkpt lat="45.9796" lon="4.75426">
        <ele>198.6</ele>
        <time>2024-09-19T13:35:00Z</time>
      </trkpt>
      <trkpt lat="45.97955" lon="4.75429">
        <ele>198.4</ele>
        <time>2024-09-19T13:35:01Z</time>
      </trkpt>
      <trkpt lat="45.9795" lon="4.75432">
        <ele>198.4</ele>
        <time>2024-09-19T13:35:02Z</time>
      </trkpt>
      <trkpt lat="45.97945" lon="4.75435">
        <ele>198.4</ele>
        <time>2024-09-19T13:35:03Z</time>
      </trkpt>
      <trkpt lat="45.97938" lon="4.7544">
        <ele>198.4</ele>
        <time>2024-09-19T13:35:04Z</time>
      </trkpt>
      <trkpt lat="45.97935" lon="4.75442">
        <ele>198.4</ele>
        <time>2024-09-19T13:35:05Z</time>
      </trkpt>
      <trkpt lat="45.9793" lon="4.75445">
        <ele>198.4</ele>
        <time>2024-09-19T13:35:06Z</time>
      </trkpt>
      <trkpt lat="45.97925" lon="4.75448">
        <ele>198.4</ele>
        <time>2024-09-19T13:35:07Z</time>
      </trkpt>
      <trkpt lat="45.97918" lon="4.75453">
        <ele>198.4</ele>
        <time>2024-09-19T13:35:08Z</time>
      </trkpt>
      <trkpt lat="45.97915" lon="4.75454">
        <ele>198.4</ele>
        <time>2024-09-19T13:35:09Z</time>
      </trkpt>
      <trkpt lat="45.9791" lon="4.75457">
        <ele>198.4</ele>
        <time>2024-09-19T13:35:10Z</time>
      </trkpt>
      <trkpt lat="45.97906" lon="4.7546">
        <ele>198.2</ele>
        <time>2024-09-19T13:35:11Z</time>
      </trkpt>
      <trkpt lat="45.97901" lon="4.75463">
        <ele>198.2</ele>
        <time>2024-09-19T13:35:12Z</time>
      </trkpt>
      <trkpt lat="45.97896" lon="4.75466">
        <ele>198.2</ele>
        <time>2024-09-19T13:35:13Z</time>
      </trkpt>
      <trkpt lat="45.97891" lon="4.75468">
        <ele>198.4</ele>
        <time>2024-09-19T13:35:14Z</time>
      </trkpt>
      <trkpt lat="45.97886" lon="4.75471">
        <ele>198.4</ele>
        <time>2024-09-19T13:35:15Z</time>
      </trkpt>
      <trkpt lat="45.97881" lon="4.75474">
        <ele>198.4</ele>
        <time>2024-09-19T13:35:16Z</time>
      </trkpt>
      <trkpt lat="45.97876" lon="4.75477">
        <ele>198.4</ele>
        <time>2024-09-19T13:35:17Z</time>
      </trkpt>
      <trkpt lat="45.97872" lon="4.7548">
        <ele>198.4</ele>
        <time>2024-09-19T13:35:18Z</time>
      </trkpt>
      <trkpt lat="45.97867" lon="4.75483">
        <ele>198.4</ele>
        <time>2024-09-19T13:35:19Z</time>
      </trkpt>
      <trkpt lat="45.97862" lon="4.75486">
        <ele>198.4</ele>
        <time>2024-09-19T13:35:20Z</time>
      </trkpt>
      <trkpt lat="45.97857" lon="4.75489">
        <ele>198.2</ele>
        <time>2024-09-19T13:35:21Z</time>
      </trkpt>
      <trkpt lat="45.97852" lon="4.75492">
        <ele>198.2</ele>
        <time>2024-09-19T13:35:22Z</time>
      </trkpt>
      <trkpt lat="45.97847" lon="4.75495">
        <ele>198.2</ele>
        <time>2024-09-19T13:35:23Z</time>
      </trkpt>
      <trkpt lat="45.97842" lon="4.75499">
        <ele>198.2</ele>
        <time>2024-09-19T13:35:24Z</time>
      </trkpt>
      <trkpt lat="45.97837" lon="4.75502">
        <ele>198</ele>
        <time>2024-09-19T13:35:25Z</time>
      </trkpt>
      <trkpt lat="45.97832" lon="4.75505">
        <ele>198</ele>
        <time>2024-09-19T13:35:26Z</time>
      </trkpt>
      <trkpt lat="45.97827" lon="4.75508">
        <ele>198</ele>
        <time>2024-09-19T13:35:27Z</time>
      </trkpt>
      <trkpt lat="45.97822" lon="4.75512">
        <ele>198</ele>
        <time>2024-09-19T13:35:28Z</time>
      </trkpt>
      <trkpt lat="45.97817" lon="4.75514">
        <ele>198</ele>
        <time>2024-09-19T13:35:29Z</time>
      </trkpt>
      <trkpt lat="45.97812" lon="4.75517">
        <ele>198</ele>
        <time>2024-09-19T13:35:30Z</time>
      </trkpt>
      <trkpt lat="45.97807" lon="4.7552">
        <ele>198</ele>
        <time>2024-09-19T13:35:31Z</time>
      </trkpt>
      <trkpt lat="45.97802" lon="4.75524">
        <ele>198</ele>
        <time>2024-09-19T13:35:32Z</time>
      </trkpt>
      <trkpt lat="45.97797" lon="4.75527">
        <ele>198</ele>
        <time>2024-09-19T13:35:33Z</time>
      </trkpt>
      <trkpt lat="45.97792" lon="4.7553">
        <ele>198</ele>
        <time>2024-09-19T13:35:34Z</time>
      </trkpt>
      <trkpt lat="45.97787" lon="4.75533">
        <ele>198</ele>
        <time>2024-09-19T13:35:35Z</time>
      </trkpt>
      <trkpt lat="45.97782" lon="4.75536">
        <ele>198</ele>
        <time>2024-09-19T13:35:36Z</time>
      </trkpt>
      <trkpt lat="45.97777" lon="4.75539">
        <ele>198</ele>
        <time>2024-09-19T13:35:37Z</time>
      </trkpt>
      <trkpt lat="45.97772" lon="4.75542">
        <ele>198</ele>
        <time>2024-09-19T13:35:38Z</time>
      </trkpt>
      <trkpt lat="45.97767" lon="4.75545">
        <ele>198.2</ele>
        <time>2024-09-19T13:35:39Z</time>
      </trkpt>
      <trkpt lat="45.97761" lon="4.75548">
        <ele>198.2</ele>
        <time>2024-09-19T13:35:40Z</time>
      </trkpt>
      <trkpt lat="45.97756" lon="4.75551">
        <ele>198.2</ele>
        <time>2024-09-19T13:35:41Z</time>
      </trkpt>
      <trkpt lat="45.97751" lon="4.75554">
        <ele>198.2</ele>
        <time>2024-09-19T13:35:42Z</time>
      </trkpt>
      <trkpt lat="45.97746" lon="4.75558">
        <ele>198</ele>
        <time>2024-09-19T13:35:43Z</time>
      </trkpt>
      <trkpt lat="45.9774" lon="4.75561">
        <ele>198</ele>
        <time>2024-09-19T13:35:44Z</time>
      </trkpt>
      <trkpt lat="45.97735" lon="4.75564">
        <ele>198</ele>
        <time>2024-09-19T13:35:45Z</time>
      </trkpt>
      <trkpt lat="45.97727" lon="4.75568">
        <ele>198</ele>
        <time>2024-09-19T13:35:46Z</time>
      </trkpt>
      <trkpt lat="45.97724" lon="4.7557">
        <ele>198</ele>
        <time>2024-09-19T13:35:47Z</time>
      </trkpt>
      <trkpt lat="45.97719" lon="4.75573">
        <ele>198</ele>
        <time>2024-09-19T13:35:48Z</time>
      </trkpt>
      <trkpt lat="45.97714" lon="4.75575">
        <ele>198</ele>
        <time>2024-09-19T13:35:49Z</time>
      </trkpt>
      <trkpt lat="45.97708" lon="4.75578">
        <ele>198.2</ele>
        <time>2024-09-19T13:35:50Z</time>
      </trkpt>
      <trkpt lat="45.97703" lon="4.75581">
        <ele>198.2</ele>
        <time>2024-09-19T13:35:51Z</time>
      </trkpt>
      <trkpt lat="45.97697" lon="4.75583">
        <ele>198.2</ele>
        <time>2024-09-19T13:35:52Z</time>
      </trkpt>
      <trkpt lat="45.97692" lon="4.75585">
        <ele>198.2</ele>
        <time>2024-09-19T13:35:53Z</time>
      </trkpt>
      <trkpt lat="45.97686" lon="4.75587">
        <ele>198.2</ele>
        <time>2024-09-19T13:35:54Z</time>
      </trkpt>
      <trkpt lat="45.97681" lon="4.7559">
        <ele>198.2</ele>
        <time>2024-09-19T13:35:55Z</time>
      </trkpt>
      <trkpt lat="45.97675" lon="4.75592">
        <ele>197.4</ele>
        <time>2024-09-19T13:35:56Z</time>
      </trkpt>
      <trkpt lat="45.9767" lon="4.75595">
        <ele>197.4</ele>
        <time>2024-09-19T13:35:57Z</time>
      </trkpt>
      <trkpt lat="45.97664" lon="4.75596">
        <ele>197.4</ele>
        <time>2024-09-19T13:35:58Z</time>
      </trkpt>
      <trkpt lat="45.97659" lon="4.75598">
        <ele>197.8</ele>
        <time>2024-09-19T13:35:59Z</time>
      </trkpt>
      <trkpt lat="45.97654" lon="4.756">
        <ele>198</ele>
        <time>2024-09-19T13:36:00Z</time>
      </trkpt>
      <trkpt lat="45.97649" lon="4.75602">
        <ele>198</ele>
        <time>2024-09-19T13:36:01Z</time>
      </trkpt>
      <trkpt lat="45.97644" lon="4.75604">
        <ele>198</ele>
        <time>2024-09-19T13:36:02Z</time>
      </trkpt>
      <trkpt lat="45.97639" lon="4.75607">
        <ele>198</ele>
        <time>2024-09-19T13:36:03Z</time>
      </trkpt>
      <trkpt lat="45.97633" lon="4.75608">
        <ele>197.8</ele>
        <time>2024-09-19T13:36:04Z</time>
      </trkpt>
      <trkpt lat="45.97627" lon="4.7561">
        <ele>198</ele>
        <time>2024-09-19T13:36:05Z</time>
      </trkpt>
      <trkpt lat="45.97622" lon="4.75612">
        <ele>198</ele>
        <time>2024-09-19T13:36:06Z</time>
      </trkpt>
      <trkpt lat="45.97616" lon="4.75615">
        <ele>198</ele>
        <time>2024-09-19T13:36:07Z</time>
      </trkpt>
      <trkpt lat="45.97611" lon="4.75618">
        <ele>198</ele>
        <time>2024-09-19T13:36:08Z</time>
      </trkpt>
      <trkpt lat="45.97606" lon="4.7562">
        <ele>198</ele>
        <time>2024-09-19T13:36:09Z</time>
      </trkpt>
      <trkpt lat="45.97601" lon="4.75622">
        <ele>198</ele>
        <time>2024-09-19T13:36:10Z</time>
      </trkpt>
      <trkpt lat="45.97596" lon="4.75624">
        <ele>198</ele>
        <time>2024-09-19T13:36:11Z</time>
      </trkpt>
      <trkpt lat="45.97591" lon="4.75626">
        <ele>198</ele>
        <time>2024-09-19T13:36:12Z</time>
      </trkpt>
      <trkpt lat="45.97586" lon="4.75628">
        <ele>197.8</ele>
        <time>2024-09-19T13:36:13Z</time>
      </trkpt>
      <trkpt lat="45.97582" lon="4.7563">
        <ele>197.4</ele>
        <time>2024-09-19T13:36:14Z</time>
      </trkpt>
      <trkpt lat="45.97578" lon="4.75632">
        <ele>197.4</ele>
        <time>2024-09-19T13:36:15Z</time>
      </trkpt>
      <trkpt lat="45.97573" lon="4.75634">
        <ele>197.4</ele>
        <time>2024-09-19T13:36:16Z</time>
      </trkpt>
      <trkpt lat="45.9757" lon="4.75635">
        <ele>197.8</ele>
        <time>2024-09-19T13:36:17Z</time>
      </trkpt>
      <trkpt lat="45.97566" lon="4.75637">
        <ele>197.8</ele>
        <time>2024-09-19T13:36:18Z</time>
      </trkpt>
      <trkpt lat="45.97563" lon="4.75639">
        <ele>198.4</ele>
        <time>2024-09-19T13:36:19Z</time>
      </trkpt>
      <trkpt lat="45.9756" lon="4.7564">
        <ele>198.4</ele>
        <time>2024-09-19T13:36:20Z</time>
      </trkpt>
      <trkpt lat="45.97556" lon="4.75641">
        <ele>198.4</ele>
        <time>2024-09-19T13:36:21Z</time>
      </trkpt>
      <trkpt lat="45.97552" lon="4.75642">
        <ele>198.4</ele>
        <time>2024-09-19T13:36:22Z</time>
      </trkpt>
      <trkpt lat="45.97548" lon="4.75643">
        <ele>198.6</ele>
        <time>2024-09-19T13:36:23Z</time>
      </trkpt>
      <trkpt lat="45.97544" lon="4.75644">
        <ele>198.6</ele>
        <time>2024-09-19T13:36:24Z</time>
      </trkpt>
      <trkpt lat="45.9754" lon="4.75645">
        <ele>198.6</ele>
        <time>2024-09-19T13:36:25Z</time>
      </trkpt>
      <trkpt lat="45.97535" lon="4.75645">
        <ele>198.6</ele>
        <time>2024-09-19T13:36:26Z</time>
      </trkpt>
      <trkpt lat="45.97531" lon="4.75646">
        <ele>199</ele>
        <time>2024-09-19T13:36:27Z</time>
      </trkpt>
      <trkpt lat="45.97526" lon="4.75648">
        <ele>199</ele>
        <time>2024-09-19T13:36:28Z</time>
      </trkpt>
      <trkpt lat="45.97522" lon="4.7565">
        <ele>199</ele>
        <time>2024-09-19T13:36:29Z</time>
      </trkpt>
      <trkpt lat="45.97518" lon="4.75652">
        <ele>199</ele>
        <time>2024-09-19T13:36:30Z</time>
      </trkpt>
      <trkpt lat="45.97513" lon="4.75654">
        <ele>198.6</ele>
        <time>2024-09-19T13:36:31Z</time>
      </trkpt>
      <trkpt lat="45.97509" lon="4.75655">
        <ele>198.8</ele>
        <time>2024-09-19T13:36:32Z</time>
      </trkpt>
      <trkpt lat="45.97505" lon="4.75657">
        <ele>198.8</ele>
        <time>2024-09-19T13:36:33Z</time>
      </trkpt>
      <trkpt lat="45.975" lon="4.75658">
        <ele>198.8</ele>
        <time>2024-09-19T13:36:34Z</time>
      </trkpt>
      <trkpt lat="45.97497" lon="4.75659">
        <ele>198.8</ele>
        <time>2024-09-19T13:36:35Z</time>
      </trkpt>
      <trkpt lat="45.97493" lon="4.7566">
        <ele>198.8</ele>
        <time>2024-09-19T13:36:36Z</time>
      </trkpt>
      <trkpt lat="45.97489" lon="4.75661">
        <ele>198.8</ele>
        <time>2024-09-19T13:36:37Z</time>
      </trkpt>
      <trkpt lat="45.97486" lon="4.75662">
        <ele>198.8</ele>
        <time>2024-09-19T13:36:38Z</time>
      </trkpt>
      <trkpt lat="45.97482" lon="4.75662">
        <ele>198.8</ele>
        <time>2024-09-19T13:36:39Z</time>
      </trkpt>
      <trkpt lat="45.97478" lon="4.75663">
        <ele>199</ele>
        <time>2024-09-19T13:36:40Z</time>
      </trkpt>
      <trkpt lat="45.97474" lon="4.75664">
        <ele>199</ele>
        <time>2024-09-19T13:36:41Z</time>
      </trkpt>
      <trkpt lat="45.9747" lon="4.75664">
        <ele>199</ele>
        <time>2024-09-19T13:36:42Z</time>
      </trkpt>
      <trkpt lat="45.97466" lon="4.75664">
        <ele>199</ele>
        <time>2024-09-19T13:36:43Z</time>
      </trkpt>
      <trkpt lat="45.97462" lon="4.75665">
        <ele>199</ele>
        <time>2024-09-19T13:36:44Z</time>
      </trkpt>
      <trkpt lat="45.97458" lon="4.75665">
        <ele>199</ele>
        <time>2024-09-19T13:36:45Z</time>
      </trkpt>
      <trkpt lat="45.97453" lon="4.75665">
        <ele>199.2</ele>
        <time>2024-09-19T13:36:46Z</time>
      </trkpt>
      <trkpt lat="45.97449" lon="4.75665">
        <ele>199.2</ele>
        <time>2024-09-19T13:36:47Z</time>
      </trkpt>
      <trkpt lat="45.97445" lon="4.75666">
        <ele>199.2</ele>
        <time>2024-09-19T13:36:48Z</time>
      </trkpt>
      <trkpt lat="45.9744" lon="4.75666">
        <ele>199.2</ele>
        <time>2024-09-19T13:36:49Z</time>
      </trkpt>
      <trkpt lat="45.97436" lon="4.75666">
        <ele>199</ele>
        <time>2024-09-19T13:36:50Z</time>
      </trkpt>
      <trkpt lat="45.97431" lon="4.75666">
        <ele>199</ele>
        <time>2024-09-19T13:36:51Z</time>
      </trkpt>
      <trkpt lat="45.97427" lon="4.75666">
        <ele>199</ele>
        <time>2024-09-19T13:36:52Z</time>
      </trkpt>
      <trkpt lat="45.97422" lon="4.75667">
        <ele>199</ele>
        <time>2024-09-19T13:36:53Z</time>
      </trkpt>
      <trkpt lat="45.97417" lon="4.75667">
        <ele>199</ele>
        <time>2024-09-19T13:36:54Z</time>
      </trkpt>
      <trkpt lat="45.97413" lon="4.75667">
        <ele>199.6</ele>
        <time>2024-09-19T13:36:55Z</time>
      </trkpt>
      <trkpt lat="45.97409" lon="4.75667">
        <ele>199.6</ele>
        <time>2024-09-19T13:36:56Z</time>
      </trkpt>
      <trkpt lat="45.97404" lon="4.75667">
        <ele>199.6</ele>
        <time>2024-09-19T13:36:57Z</time>
      </trkpt>
      <trkpt lat="45.974" lon="4.75668">
        <ele>199</ele>
        <time>2024-09-19T13:36:58Z</time>
      </trkpt>
      <trkpt lat="45.97396" lon="4.75668">
        <ele>199.2</ele>
        <time>2024-09-19T13:36:59Z</time>
      </trkpt>
      <trkpt lat="45.97392" lon="4.75668">
        <ele>199.2</ele>
        <time>2024-09-19T13:37:00Z</time>
      </trkpt>
      <trkpt lat="45.97388" lon="4.75669">
        <ele>199.2</ele>
        <time>2024-09-19T13:37:01Z</time>
      </trkpt>
      <trkpt lat="45.97384" lon="4.75669">
        <ele>199.2</ele>
        <time>2024-09-19T13:37:02Z</time>
      </trkpt>
      <trkpt lat="45.97381" lon="4.75669">
        <ele>199.2</ele>
        <time>2024-09-19T13:37:03Z</time>
      </trkpt>
      <trkpt lat="45.97377" lon="4.75669">
        <ele>199.2</ele>
        <time>2024-09-19T13:37:04Z</time>
      </trkpt>
      <trkpt lat="45.97373" lon="4.75669">
        <ele>199.2</ele>
        <time>2024-09-19T13:37:05Z</time>
      </trkpt>
      <trkpt lat="45.9737" lon="4.7567">
        <ele>199.2</ele>
        <time>2024-09-19T13:37:06Z</time>
      </trkpt>
      <trkpt lat="45.97366" lon="4.7567">
        <ele>199</ele>
        <time>2024-09-19T13:37:07Z</time>
      </trkpt>
      <trkpt lat="45.97362" lon="4.7567">
        <ele>199</ele>
        <time>2024-09-19T13:37:08Z</time>
      </trkpt>
      <trkpt lat="45.97359" lon="4.7567">
        <ele>199</ele>
        <time>2024-09-19T13:37:09Z</time>
      </trkpt>
      <trkpt lat="45.97355" lon="4.7567">
        <ele>199</ele>
        <time>2024-09-19T13:37:10Z</time>
      </trkpt>
      <trkpt lat="45.97351" lon="4.7567">
        <ele>199</ele>
        <time>2024-09-19T13:37:11Z</time>
      </trkpt>
      <trkpt lat="45.97346" lon="4.7567">
        <ele>199.2</ele>
        <time>2024-09-19T13:37:12Z</time>
      </trkpt>
      <trkpt lat="45.9734" lon="4.7567">
        <ele>199.2</ele>
        <time>2024-09-19T13:37:13Z</time>
      </trkpt>
      <trkpt lat="45.97337" lon="4.7567">
        <ele>199.2</ele>
        <time>2024-09-19T13:37:14Z</time>
      </trkpt>
      <trkpt lat="45.97333" lon="4.75669">
        <ele>199.2</ele>
        <time>2024-09-19T13:37:15Z</time>
      </trkpt>
      <trkpt lat="45.97328" lon="4.75668">
        <ele>199</ele>
        <time>2024-09-19T13:37:16Z</time>
      </trkpt>
      <trkpt lat="45.97323" lon="4.75667">
        <ele>199</ele>
        <time>2024-09-19T13:37:17Z</time>
      </trkpt>
      <trkpt lat="45.97318" lon="4.75666">
        <ele>199</ele>
        <time>2024-09-19T13:37:18Z</time>
      </trkpt>
      <trkpt lat="45.97312" lon="4.75665">
        <ele>199</ele>
        <time>2024-09-19T13:37:19Z</time>
      </trkpt>
      <trkpt lat="45.97307" lon="4.75664">
        <ele>199</ele>
        <time>2024-09-19T13:37:20Z</time>
      </trkpt>
      <trkpt lat="45.97302" lon="4.75663">
        <ele>199.4</ele>
        <time>2024-09-19T13:37:21Z</time>
      </trkpt>
      <trkpt lat="45.97297" lon="4.75662">
        <ele>199.4</ele>
        <time>2024-09-19T13:37:22Z</time>
      </trkpt>
      <trkpt lat="45.97291" lon="4.75661">
        <ele>199.4</ele>
        <time>2024-09-19T13:37:23Z</time>
      </trkpt>
      <trkpt lat="45.97286" lon="4.75659">
        <ele>199.4</ele>
        <time>2024-09-19T13:37:24Z</time>
      </trkpt>
      <trkpt lat="45.97281" lon="4.75658">
        <ele>199.4</ele>
        <time>2024-09-19T13:37:25Z</time>
      </trkpt>
      <trkpt lat="45.97276" lon="4.75657">
        <ele>199.4</ele>
        <time>2024-09-19T13:37:26Z</time>
      </trkpt>
      <trkpt lat="45.97271" lon="4.75655">
        <ele>199.4</ele>
        <time>2024-09-19T13:37:27Z</time>
      </trkpt>
      <trkpt lat="45.97266" lon="4.75654">
        <ele>199.4</ele>
        <time>2024-09-19T13:37:28Z</time>
      </trkpt>
      <trkpt lat="45.97261" lon="4.75653">
        <ele>199.4</ele>
        <time>2024-09-19T13:37:29Z</time>
      </trkpt>
      <trkpt lat="45.97257" lon="4.75652">
        <ele>199.4</ele>
        <time>2024-09-19T13:37:30Z</time>
      </trkpt>
      <trkpt lat="45.97252" lon="4.75651">
        <ele>199.6</ele>
        <time>2024-09-19T13:37:31Z</time>
      </trkpt>
      <trkpt lat="45.97246" lon="4.75649">
        <ele>199.6</ele>
        <time>2024-09-19T13:37:32Z</time>
      </trkpt>
      <trkpt lat="45.97241" lon="4.75648">
        <ele>199.6</ele>
        <time>2024-09-19T13:37:33Z</time>
      </trkpt>
      <trkpt lat="45.97236" lon="4.75646">
        <ele>199.4</ele>
        <time>2024-09-19T13:37:34Z</time>
      </trkpt>
      <trkpt lat="45.97231" lon="4.75645">
        <ele>199.6</ele>
        <time>2024-09-19T13:37:35Z</time>
      </trkpt>
      <trkpt lat="45.97226" lon="4.75643">
        <ele>199.6</ele>
        <time>2024-09-19T13:37:36Z</time>
      </trkpt>
      <trkpt lat="45.97221" lon="4.75641">
        <ele>199.6</ele>
        <time>2024-09-19T13:37:37Z</time>
      </trkpt>
      <trkpt lat="45.97216" lon="4.75639">
        <ele>199.6</ele>
        <time>2024-09-19T13:37:38Z</time>
      </trkpt>
      <trkpt lat="45.9721" lon="4.75637">
        <ele>199.6</ele>
        <time>2024-09-19T13:37:39Z</time>
      </trkpt>
      <trkpt lat="45.97205" lon="4.75635">
        <ele>199.6</ele>
        <time>2024-09-19T13:37:40Z</time>
      </trkpt>
      <trkpt lat="45.972" lon="4.75633">
        <ele>199.6</ele>
        <time>2024-09-19T13:37:41Z</time>
      </trkpt>
      <trkpt lat="45.97195" lon="4.75632">
        <ele>199.6</ele>
        <time>2024-09-19T13:37:42Z</time>
      </trkpt>
      <trkpt lat="45.9719" lon="4.7563">
        <ele>199.6</ele>
        <time>2024-09-19T13:37:43Z</time>
      </trkpt>
      <trkpt lat="45.97185" lon="4.75628">
        <ele>199.8</ele>
        <time>2024-09-19T13:37:44Z</time>
      </trkpt>
      <trkpt lat="45.9718" lon="4.75626">
        <ele>199.8</ele>
        <time>2024-09-19T13:37:45Z</time>
      </trkpt>
      <trkpt lat="45.97175" lon="4.75623">
        <ele>199.8</ele>
        <time>2024-09-19T13:37:46Z</time>
      </trkpt>
      <trkpt lat="45.9717" lon="4.75621">
        <ele>199.8</ele>
        <time>2024-09-19T13:37:47Z</time>
      </trkpt>
      <trkpt lat="45.97165" lon="4.75619">
        <ele>199.8</ele>
        <time>2024-09-19T13:37:48Z</time>
      </trkpt>
      <trkpt lat="45.9716" lon="4.75617">
        <ele>200</ele>
        <time>2024-09-19T13:37:49Z</time>
      </trkpt>
      <trkpt lat="45.97155" lon="4.75615">
        <ele>200</ele>
        <time>2024-09-19T13:37:50Z</time>
      </trkpt>
      <trkpt lat="45.9715" lon="4.75612">
        <ele>200</ele>
        <time>2024-09-19T13:37:51Z</time>
      </trkpt>
      <trkpt lat="45.97145" lon="4.7561">
        <ele>200</ele>
        <time>2024-09-19T13:37:52Z</time>
      </trkpt>
      <trkpt lat="45.9714" lon="4.75607">
        <ele>200</ele>
        <time>2024-09-19T13:37:53Z</time>
      </trkpt>
      <trkpt lat="45.97135" lon="4.75604">
        <ele>200</ele>
        <time>2024-09-19T13:37:54Z</time>
      </trkpt>
      <trkpt lat="45.9713" lon="4.75601">
        <ele>200</ele>
        <time>2024-09-19T13:37:55Z</time>
      </trkpt>
      <trkpt lat="45.97125" lon="4.75597">
        <ele>200</ele>
        <time>2024-09-19T13:37:56Z</time>
      </trkpt>
      <trkpt lat="45.97118" lon="4.75592">
        <ele>200</ele>
        <time>2024-09-19T13:37:57Z</time>
      </trkpt>
      <trkpt lat="45.97116" lon="4.7559">
        <ele>200</ele>
        <time>2024-09-19T13:37:58Z</time>
      </trkpt>
      <trkpt lat="45.97108" lon="4.75584">
        <ele>200</ele>
        <time>2024-09-19T13:37:59Z</time>
      </trkpt>
      <trkpt lat="45.97106" lon="4.75582">
        <ele>200</ele>
        <time>2024-09-19T13:38:00Z</time>
      </trkpt>
      <trkpt lat="45.97098" lon="4.75576">
        <ele>200</ele>
        <time>2024-09-19T13:38:01Z</time>
      </trkpt>
      <trkpt lat="45.97095" lon="4.75574">
        <ele>200</ele>
        <time>2024-09-19T13:38:02Z</time>
      </trkpt>
      <trkpt lat="45.9709" lon="4.75571">
        <ele>199.6</ele>
        <time>2024-09-19T13:38:03Z</time>
      </trkpt>
      <trkpt lat="45.97085" lon="4.75567">
        <ele>199.6</ele>
        <time>2024-09-19T13:38:04Z</time>
      </trkpt>
      <trkpt lat="45.9708" lon="4.75565">
        <ele>199.4</ele>
        <time>2024-09-19T13:38:05Z</time>
      </trkpt>
      <trkpt lat="45.97074" lon="4.75563">
        <ele>199.6</ele>
        <time>2024-09-19T13:38:06Z</time>
      </trkpt>
      <trkpt lat="45.97069" lon="4.75561">
        <ele>199.6</ele>
        <time>2024-09-19T13:38:07Z</time>
      </trkpt>
      <trkpt lat="45.97063" lon="4.7556">
        <ele>199.6</ele>
        <time>2024-09-19T13:38:08Z</time>
      </trkpt>
      <trkpt lat="45.97057" lon="4.75559">
        <ele>199.6</ele>
        <time>2024-09-19T13:38:09Z</time>
      </trkpt>
      <trkpt lat="45.97052" lon="4.75559">
        <ele>199.6</ele>
        <time>2024-09-19T13:38:10Z</time>
      </trkpt>
      <trkpt lat="45.97046" lon="4.75558">
        <ele>199.6</ele>
        <time>2024-09-19T13:38:11Z</time>
      </trkpt>
      <trkpt lat="45.97041" lon="4.75557">
        <ele>199.6</ele>
        <time>2024-09-19T13:38:12Z</time>
      </trkpt>
      <trkpt lat="45.97036" lon="4.75555">
        <ele>199.6</ele>
        <time>2024-09-19T13:38:13Z</time>
      </trkpt>
      <trkpt lat="45.97031" lon="4.75552">
        <ele>199.6</ele>
        <time>2024-09-19T13:38:14Z</time>
      </trkpt>
      <trkpt lat="45.97025" lon="4.75547">
        <ele>198.8</ele>
        <time>2024-09-19T13:38:15Z</time>
      </trkpt>
      <trkpt lat="45.97018" lon="4.75543">
        <ele>198</ele>
        <time>2024-09-19T13:38:16Z</time>
      </trkpt>
      <trkpt lat="45.97011" lon="4.7554">
        <ele>198</ele>
        <time>2024-09-19T13:38:17Z</time>
      </trkpt>
      <trkpt lat="45.97004" lon="4.75537">
        <ele>198</ele>
        <time>2024-09-19T13:38:18Z</time>
      </trkpt>
      <trkpt lat="45.96998" lon="4.75535">
        <ele>197.8</ele>
        <time>2024-09-19T13:38:19Z</time>
      </trkpt>
      <trkpt lat="45.96991" lon="4.75533">
        <ele>197.8</ele>
        <time>2024-09-19T13:38:20Z</time>
      </trkpt>
      <trkpt lat="45.96985" lon="4.75531">
        <ele>197.6</ele>
        <time>2024-09-19T13:38:21Z</time>
      </trkpt>
      <trkpt lat="45.96979" lon="4.75529">
        <ele>197.6</ele>
        <time>2024-09-19T13:38:22Z</time>
      </trkpt>
      <trkpt lat="45.96973" lon="4.75527">
        <ele>197.6</ele>
        <time>2024-09-19T13:38:23Z</time>
      </trkpt>
      <trkpt lat="45.96967" lon="4.75525">
        <ele>197.6</ele>
        <time>2024-09-19T13:38:24Z</time>
      </trkpt>
      <trkpt lat="45.96961" lon="4.75523">
        <ele>197.8</ele>
        <time>2024-09-19T13:38:25Z</time>
      </trkpt>
      <trkpt lat="45.96955" lon="4.75521">
        <ele>197.8</ele>
        <time>2024-09-19T13:38:26Z</time>
      </trkpt>
      <trkpt lat="45.96949" lon="4.75519">
        <ele>197.8</ele>
        <time>2024-09-19T13:38:27Z</time>
      </trkpt>
      <trkpt lat="45.96944" lon="4.75517">
        <ele>197.8</ele>
        <time>2024-09-19T13:38:28Z</time>
      </trkpt>
      <trkpt lat="45.96938" lon="4.75515">
        <ele>197.6</ele>
        <time>2024-09-19T13:38:29Z</time>
      </trkpt>
      <trkpt lat="45.96933" lon="4.75513">
        <ele>197.6</ele>
        <time>2024-09-19T13:38:30Z</time>
      </trkpt>
      <trkpt lat="45.96927" lon="4.75511">
        <ele>197.6</ele>
        <time>2024-09-19T13:38:31Z</time>
      </trkpt>
      <trkpt lat="45.96921" lon="4.75509">
        <ele>197.6</ele>
        <time>2024-09-19T13:38:32Z</time>
      </trkpt>
      <trkpt lat="45.96915" lon="4.75507">
        <ele>197.6</ele>
        <time>2024-09-19T13:38:33Z</time>
      </trkpt>
      <trkpt lat="45.96909" lon="4.75505">
        <ele>198</ele>
        <time>2024-09-19T13:38:34Z</time>
      </trkpt>
      <trkpt lat="45.96904" lon="4.75503">
        <ele>198</ele>
        <time>2024-09-19T13:38:35Z</time>
      </trkpt>
      <trkpt lat="45.96898" lon="4.75501">
        <ele>198</ele>
        <time>2024-09-19T13:38:36Z</time>
      </trkpt>
      <trkpt lat="45.96893" lon="4.75498">
        <ele>197.6</ele>
        <time>2024-09-19T13:38:37Z</time>
      </trkpt>
      <trkpt lat="45.96887" lon="4.75496">
        <ele>197.2</ele>
        <time>2024-09-19T13:38:38Z</time>
      </trkpt>
      <trkpt lat="45.96882" lon="4.75494">
        <ele>197.2</ele>
        <time>2024-09-19T13:38:39Z</time>
      </trkpt>
      <trkpt lat="45.96877" lon="4.75492">
        <ele>197.2</ele>
        <time>2024-09-19T13:38:40Z</time>
      </trkpt>
      <trkpt lat="45.96869" lon="4.75489">
        <ele>197.6</ele>
        <time>2024-09-19T13:38:41Z</time>
      </trkpt>
      <trkpt lat="45.96867" lon="4.75488">
        <ele>197.6</ele>
        <time>2024-09-19T13:38:42Z</time>
      </trkpt>
      <trkpt lat="45.96862" lon="4.75485">
        <ele>197.6</ele>
        <time>2024-09-19T13:38:43Z</time>
      </trkpt>
      <trkpt lat="45.96856" lon="4.75483">
        <ele>197.6</ele>
        <time>2024-09-19T13:38:44Z</time>
      </trkpt>
      <trkpt lat="45.96849" lon="4.7548">
        <ele>197.6</ele>
        <time>2024-09-19T13:38:45Z</time>
      </trkpt>
      <trkpt lat="45.96846" lon="4.75479">
        <ele>197.6</ele>
        <time>2024-09-19T13:38:46Z</time>
      </trkpt>
      <trkpt lat="45.96841" lon="4.75477">
        <ele>197.4</ele>
        <time>2024-09-19T13:38:47Z</time>
      </trkpt>
      <trkpt lat="45.96836" lon="4.75475">
        <ele>197.4</ele>
        <time>2024-09-19T13:38:48Z</time>
      </trkpt>
      <trkpt lat="45.96831" lon="4.75473">
        <ele>197.4</ele>
        <time>2024-09-19T13:38:49Z</time>
      </trkpt>
      <trkpt lat="45.96825" lon="4.75472">
        <ele>197.4</ele>
        <time>2024-09-19T13:38:50Z</time>
      </trkpt>
      <trkpt lat="45.96818" lon="4.75469">
        <ele>197.8</ele>
        <time>2024-09-19T13:38:51Z</time>
      </trkpt>
      <trkpt lat="45.96815" lon="4.75468">
        <ele>197.8</ele>
        <time>2024-09-19T13:38:52Z</time>
      </trkpt>
      <trkpt lat="45.9681" lon="4.75465">
        <ele>197.8</ele>
        <time>2024-09-19T13:38:53Z</time>
      </trkpt>
      <trkpt lat="45.96805" lon="4.75463">
        <ele>197.8</ele>
        <time>2024-09-19T13:38:54Z</time>
      </trkpt>
      <trkpt lat="45.968" lon="4.75461">
        <ele>197.6</ele>
        <time>2024-09-19T13:38:55Z</time>
      </trkpt>
      <trkpt lat="45.96793" lon="4.75457">
        <ele>197.8</ele>
        <time>2024-09-19T13:38:56Z</time>
      </trkpt>
      <trkpt lat="45.9679" lon="4.75456">
        <ele>197.8</ele>
        <time>2024-09-19T13:38:57Z</time>
      </trkpt>
      <trkpt lat="45.96785" lon="4.75453">
        <ele>197.8</ele>
        <time>2024-09-19T13:38:58Z</time>
      </trkpt>
      <trkpt lat="45.9678" lon="4.75451">
        <ele>197.8</ele>
        <time>2024-09-19T13:38:59Z</time>
      </trkpt>
      <trkpt lat="45.96775" lon="4.75449">
        <ele>197.6</ele>
        <time>2024-09-19T13:39:00Z</time>
      </trkpt>
      <trkpt lat="45.9677" lon="4.75447">
        <ele>197.6</ele>
        <time>2024-09-19T13:39:01Z</time>
      </trkpt>
      <trkpt lat="45.96765" lon="4.75445">
        <ele>197.6</ele>
        <time>2024-09-19T13:39:02Z</time>
      </trkpt>
      <trkpt lat="45.96761" lon="4.75443">
        <ele>197.6</ele>
        <time>2024-09-19T13:39:03Z</time>
      </trkpt>
      <trkpt lat="45.96757" lon="4.75441">
        <ele>198</ele>
        <time>2024-09-19T13:39:04Z</time>
      </trkpt>
      <trkpt lat="45.96753" lon="4.75439">
        <ele>198.2</ele>
        <time>2024-09-19T13:39:05Z</time>
      </trkpt>
      <trkpt lat="45.96749" lon="4.75438">
        <ele>198.2</ele>
        <time>2024-09-19T13:39:06Z</time>
      </trkpt>
      <trkpt lat="45.96746" lon="4.75437">
        <ele>198.2</ele>
        <time>2024-09-19T13:39:07Z</time>
      </trkpt>
      <trkpt lat="45.96743" lon="4.75436">
        <ele>198.2</ele>
        <time>2024-09-19T13:39:08Z</time>
      </trkpt>
      <trkpt lat="45.9674" lon="4.75434">
        <ele>198.2</ele>
        <time>2024-09-19T13:39:09Z</time>
      </trkpt>
      <trkpt lat="45.96737" lon="4.75432">
        <ele>198.2</ele>
        <time>2024-09-19T13:39:10Z</time>
      </trkpt>
      <trkpt lat="45.96734" lon="4.7543">
        <ele>198.2</ele>
        <time>2024-09-19T13:39:11Z</time>
      </trkpt>
      <trkpt lat="45.96731" lon="4.75427">
        <ele>198.2</ele>
        <time>2024-09-19T13:39:12Z</time>
      </trkpt>
      <trkpt lat="45.96728" lon="4.75426">
        <ele>198.2</ele>
        <time>2024-09-19T13:39:13Z</time>
      </trkpt>
      <trkpt lat="45.96725" lon="4.75424">
        <ele>198.2</ele>
        <time>2024-09-19T13:39:14Z</time>
      </trkpt>
      <trkpt lat="45.96722" lon="4.75422">
        <ele>198.2</ele>
        <time>2024-09-19T13:39:15Z</time>
      </trkpt>
      <trkpt lat="45.9672" lon="4.7542">
        <ele>198.2</ele>
        <time>2024-09-19T13:39:16Z</time>
      </trkpt>
      <trkpt lat="45.96717" lon="4.75419">
        <ele>198.2</ele>
        <time>2024-09-19T13:39:17Z</time>
      </trkpt>
      <trkpt lat="45.96714" lon="4.75417">
        <ele>198</ele>
        <time>2024-09-19T13:39:18Z</time>
      </trkpt>
      <trkpt lat="45.96711" lon="4.75415">
        <ele>198</ele>
        <time>2024-09-19T13:39:19Z</time>
      </trkpt>
      <trkpt lat="45.96708" lon="4.75413">
        <ele>198</ele>
        <time>2024-09-19T13:39:20Z</time>
      </trkpt>
      <trkpt lat="45.96705" lon="4.75411">
        <ele>198</ele>
        <time>2024-09-19T13:39:21Z</time>
      </trkpt>
      <trkpt lat="45.96702" lon="4.75408">
        <ele>198</ele>
        <time>2024-09-19T13:39:22Z</time>
      </trkpt>
      <trkpt lat="45.96699" lon="4.75406">
        <ele>198</ele>
        <time>2024-09-19T13:39:23Z</time>
      </trkpt>
      <trkpt lat="45.96695" lon="4.75403">
        <ele>198</ele>
        <time>2024-09-19T13:39:24Z</time>
      </trkpt>
      <trkpt lat="45.96693" lon="4.75402">
        <ele>198</ele>
        <time>2024-09-19T13:39:25Z</time>
      </trkpt>
      <trkpt lat="45.9669" lon="4.75399">
        <ele>198.2</ele>
        <time>2024-09-19T13:39:26Z</time>
      </trkpt>
      <trkpt lat="45.96687" lon="4.75397">
        <ele>198.4</ele>
        <time>2024-09-19T13:39:27Z</time>
      </trkpt>
      <trkpt lat="45.96685" lon="4.75395">
        <ele>198.4</ele>
        <time>2024-09-19T13:39:28Z</time>
      </trkpt>
      <trkpt lat="45.96682" lon="4.75393">
        <ele>198.4</ele>
        <time>2024-09-19T13:39:29Z</time>
      </trkpt>
      <trkpt lat="45.9668" lon="4.75391">
        <ele>198.4</ele>
        <time>2024-09-19T13:39:30Z</time>
      </trkpt>
      <trkpt lat="45.96677" lon="4.75389">
        <ele>198.4</ele>
        <time>2024-09-19T13:39:31Z</time>
      </trkpt>
      <trkpt lat="45.96675" lon="4.75387">
        <ele>198.4</ele>
        <time>2024-09-19T13:39:32Z</time>
      </trkpt>
      <trkpt lat="45.96672" lon="4.75385">
        <ele>198.4</ele>
        <time>2024-09-19T13:39:33Z</time>
      </trkpt>
      <trkpt lat="45.96669" lon="4.75382">
        <ele>198.4</ele>
        <time>2024-09-19T13:39:34Z</time>
      </trkpt>
      <trkpt lat="45.96666" lon="4.75379">
        <ele>198.4</ele>
        <time>2024-09-19T13:39:35Z</time>
      </trkpt>
      <trkpt lat="45.96662" lon="4.75377">
        <ele>198.4</ele>
        <time>2024-09-19T13:39:36Z</time>
      </trkpt>
      <trkpt lat="45.96659" lon="4.75374">
        <ele>198.8</ele>
        <time>2024-09-19T13:39:37Z</time>
      </trkpt>
      <trkpt lat="45.96656" lon="4.75372">
        <ele>198.8</ele>
        <time>2024-09-19T13:39:38Z</time>
      </trkpt>
      <trkpt lat="45.96652" lon="4.7537">
        <ele>198.8</ele>
        <time>2024-09-19T13:39:39Z</time>
      </trkpt>
      <trkpt lat="45.96649" lon="4.75368">
        <ele>198.4</ele>
        <time>2024-09-19T13:39:40Z</time>
      </trkpt>
      <trkpt lat="45.96645" lon="4.75366">
        <ele>198.4</ele>
        <time>2024-09-19T13:39:41Z</time>
      </trkpt>
      <trkpt lat="45.96642" lon="4.75364">
        <ele>198.4</ele>
        <time>2024-09-19T13:39:42Z</time>
      </trkpt>
      <trkpt lat="45.96638" lon="4.75361">
        <ele>198.4</ele>
        <time>2024-09-19T13:39:43Z</time>
      </trkpt>
      <trkpt lat="45.96635" lon="4.75359">
        <ele>198.4</ele>
        <time>2024-09-19T13:39:44Z</time>
      </trkpt>
      <trkpt lat="45.96629" lon="4.75354">
        <ele>198.4</ele>
        <time>2024-09-19T13:39:45Z</time>
      </trkpt>
      <trkpt lat="45.96628" lon="4.75352">
        <ele>198.2</ele>
        <time>2024-09-19T13:39:46Z</time>
      </trkpt>
      <trkpt lat="45.96624" lon="4.75349">
        <ele>198.2</ele>
        <time>2024-09-19T13:39:47Z</time>
      </trkpt>
      <trkpt lat="45.9662" lon="4.75346">
        <ele>198.2</ele>
        <time>2024-09-19T13:39:48Z</time>
      </trkpt>
      <trkpt lat="45.96615" lon="4.75343">
        <ele>198.2</ele>
        <time>2024-09-19T13:39:49Z</time>
      </trkpt>
      <trkpt lat="45.96609" lon="4.75338">
        <ele>198</ele>
        <time>2024-09-19T13:39:50Z</time>
      </trkpt>
      <trkpt lat="45.96607" lon="4.75336">
        <ele>198</ele>
        <time>2024-09-19T13:39:51Z</time>
      </trkpt>
      <trkpt lat="45.96603" lon="4.75333">
        <ele>198</ele>
        <time>2024-09-19T13:39:52Z</time>
      </trkpt>
      <trkpt lat="45.96599" lon="4.75329">
        <ele>198</ele>
        <time>2024-09-19T13:39:53Z</time>
      </trkpt>
      <trkpt lat="45.96594" lon="4.75326">
        <ele>198.4</ele>
        <time>2024-09-19T13:39:54Z</time>
      </trkpt>
      <trkpt lat="45.9659" lon="4.75323">
        <ele>198.2</ele>
        <time>2024-09-19T13:39:55Z</time>
      </trkpt>
      <trkpt lat="45.96585" lon="4.75319">
        <ele>198.2</ele>
        <time>2024-09-19T13:39:56Z</time>
      </trkpt>
      <trkpt lat="45.96581" lon="4.75316">
        <ele>198.2</ele>
        <time>2024-09-19T13:39:57Z</time>
      </trkpt>
      <trkpt lat="45.96577" lon="4.75312">
        <ele>198.2</ele>
        <time>2024-09-19T13:39:58Z</time>
      </trkpt>
      <trkpt lat="45.96573" lon="4.75309">
        <ele>198.2</ele>
        <time>2024-09-19T13:39:59Z</time>
      </trkpt>
      <trkpt lat="45.96569" lon="4.75306">
        <ele>198.2</ele>
        <time>2024-09-19T13:40:00Z</time>
      </trkpt>
      <trkpt lat="45.96564" lon="4.75303">
        <ele>198.2</ele>
        <time>2024-09-19T13:40:01Z</time>
      </trkpt>
      <trkpt lat="45.9656" lon="4.75299">
        <ele>198.2</ele>
        <time>2024-09-19T13:40:02Z</time>
      </trkpt>
      <trkpt lat="45.96556" lon="4.75296">
        <ele>198.2</ele>
        <time>2024-09-19T13:40:03Z</time>
      </trkpt>
      <trkpt lat="45.96552" lon="4.75292">
        <ele>198.6</ele>
        <time>2024-09-19T13:40:04Z</time>
      </trkpt>
      <trkpt lat="45.96546" lon="4.75287">
        <ele>198.6</ele>
        <time>2024-09-19T13:40:05Z</time>
      </trkpt>
      <trkpt lat="45.96544" lon="4.75285">
        <ele>198.6</ele>
        <time>2024-09-19T13:40:06Z</time>
      </trkpt>
      <trkpt lat="45.96539" lon="4.75281">
        <ele>198.4</ele>
        <time>2024-09-19T13:40:07Z</time>
      </trkpt>
      <trkpt lat="45.96535" lon="4.75278">
        <ele>198.4</ele>
        <time>2024-09-19T13:40:08Z</time>
      </trkpt>
      <trkpt lat="45.96531" lon="4.75275">
        <ele>198</ele>
        <time>2024-09-19T13:40:09Z</time>
      </trkpt>
      <trkpt lat="45.96527" lon="4.75271">
        <ele>198</ele>
        <time>2024-09-19T13:40:10Z</time>
      </trkpt>
      <trkpt lat="45.96523" lon="4.75268">
        <ele>198</ele>
        <time>2024-09-19T13:40:11Z</time>
      </trkpt>
      <trkpt lat="45.96519" lon="4.75264">
        <ele>198.2</ele>
        <time>2024-09-19T13:40:12Z</time>
      </trkpt>
      <trkpt lat="45.96515" lon="4.75261">
        <ele>198.2</ele>
        <time>2024-09-19T13:40:13Z</time>
      </trkpt>
      <trkpt lat="45.9651" lon="4.75257">
        <ele>198.2</ele>
        <time>2024-09-19T13:40:14Z</time>
      </trkpt>
      <trkpt lat="45.96506" lon="4.75254">
        <ele>198.2</ele>
        <time>2024-09-19T13:40:15Z</time>
      </trkpt>
      <trkpt lat="45.96502" lon="4.7525">
        <ele>198.2</ele>
        <time>2024-09-19T13:40:16Z</time>
      </trkpt>
      <trkpt lat="45.96497" lon="4.75246">
        <ele>198.2</ele>
        <time>2024-09-19T13:40:17Z</time>
      </trkpt>
      <trkpt lat="45.96493" lon="4.75243">
        <ele>198.2</ele>
        <time>2024-09-19T13:40:18Z</time>
      </trkpt>
      <trkpt lat="45.96489" lon="4.75239">
        <ele>198.2</ele>
        <time>2024-09-19T13:40:19Z</time>
      </trkpt>
      <trkpt lat="45.96485" lon="4.75236">
        <ele>198.2</ele>
        <time>2024-09-19T13:40:20Z</time>
      </trkpt>
      <trkpt lat="45.9648" lon="4.75232">
        <ele>198.2</ele>
        <time>2024-09-19T13:40:21Z</time>
      </trkpt>
      <trkpt lat="45.96476" lon="4.75229">
        <ele>198</ele>
        <time>2024-09-19T13:40:22Z</time>
      </trkpt>
      <trkpt lat="45.9647" lon="4.75224">
        <ele>198</ele>
        <time>2024-09-19T13:40:23Z</time>
      </trkpt>
      <trkpt lat="45.96468" lon="4.75222">
        <ele>198</ele>
        <time>2024-09-19T13:40:24Z</time>
      </trkpt>
      <trkpt lat="45.96462" lon="4.75216">
        <ele>198</ele>
        <time>2024-09-19T13:40:25Z</time>
      </trkpt>
      <trkpt lat="45.9646" lon="4.75214">
        <ele>198.2</ele>
        <time>2024-09-19T13:40:26Z</time>
      </trkpt>
      <trkpt lat="45.96456" lon="4.7521">
        <ele>198.2</ele>
        <time>2024-09-19T13:40:27Z</time>
      </trkpt>
      <trkpt lat="45.96452" lon="4.75206">
        <ele>198.2</ele>
        <time>2024-09-19T13:40:28Z</time>
      </trkpt>
      <trkpt lat="45.96448" lon="4.75203">
        <ele>198.2</ele>
        <time>2024-09-19T13:40:29Z</time>
      </trkpt>
      <trkpt lat="45.96444" lon="4.75199">
        <ele>198.2</ele>
        <time>2024-09-19T13:40:30Z</time>
      </trkpt>
      <trkpt lat="45.9644" lon="4.75195">
        <ele>198.4</ele>
        <time>2024-09-19T13:40:31Z</time>
      </trkpt>
      <trkpt lat="45.96436" lon="4.75192">
        <ele>198.4</ele>
        <time>2024-09-19T13:40:32Z</time>
      </trkpt>
      <trkpt lat="45.96432" lon="4.75189">
        <ele>198.4</ele>
        <time>2024-09-19T13:40:33Z</time>
      </trkpt>
      <trkpt lat="45.96426" lon="4.75185">
        <ele>198.4</ele>
        <time>2024-09-19T13:40:34Z</time>
      </trkpt>
      <trkpt lat="45.96424" lon="4.75184">
        <ele>198.4</ele>
        <time>2024-09-19T13:40:35Z</time>
      </trkpt>
      <trkpt lat="45.9642" lon="4.75181">
        <ele>198.4</ele>
        <time>2024-09-19T13:40:36Z</time>
      </trkpt>
      <trkpt lat="45.96416" lon="4.75178">
        <ele>198.4</ele>
        <time>2024-09-19T13:40:37Z</time>
      </trkpt>
      <trkpt lat="45.96411" lon="4.75174">
        <ele>198.4</ele>
        <time>2024-09-19T13:40:38Z</time>
      </trkpt>
      <trkpt lat="45.96407" lon="4.75171">
        <ele>198.6</ele>
        <time>2024-09-19T13:40:39Z</time>
      </trkpt>
      <trkpt lat="45.96403" lon="4.75167">
        <ele>197.8</ele>
        <time>2024-09-19T13:40:40Z</time>
      </trkpt>
      <trkpt lat="45.96399" lon="4.75163">
        <ele>197.8</ele>
        <time>2024-09-19T13:40:41Z</time>
      </trkpt>
      <trkpt lat="45.96395" lon="4.75159">
        <ele>197.8</ele>
        <time>2024-09-19T13:40:42Z</time>
      </trkpt>
      <trkpt lat="45.96391" lon="4.75156">
        <ele>198.2</ele>
        <time>2024-09-19T13:40:43Z</time>
      </trkpt>
      <trkpt lat="45.96386" lon="4.75152">
        <ele>198.2</ele>
        <time>2024-09-19T13:40:44Z</time>
      </trkpt>
      <trkpt lat="45.96383" lon="4.75148">
        <ele>198.2</ele>
        <time>2024-09-19T13:40:45Z</time>
      </trkpt>
      <trkpt lat="45.96379" lon="4.75144">
        <ele>198.2</ele>
        <time>2024-09-19T13:40:46Z</time>
      </trkpt>
      <trkpt lat="45.96374" lon="4.75141">
        <ele>198.2</ele>
        <time>2024-09-19T13:40:47Z</time>
      </trkpt>
      <trkpt lat="45.9637" lon="4.75137">
        <ele>198.2</ele>
        <time>2024-09-19T13:40:48Z</time>
      </trkpt>
      <trkpt lat="45.96366" lon="4.75133">
        <ele>198.4</ele>
        <time>2024-09-19T13:40:49Z</time>
      </trkpt>
      <trkpt lat="45.96362" lon="4.75129">
        <ele>198.4</ele>
        <time>2024-09-19T13:40:50Z</time>
      </trkpt>
      <trkpt lat="45.96358" lon="4.75124">
        <ele>198.4</ele>
        <time>2024-09-19T13:40:51Z</time>
      </trkpt>
      <trkpt lat="45.96354" lon="4.7512">
        <ele>198.4</ele>
        <time>2024-09-19T13:40:52Z</time>
      </trkpt>
      <trkpt lat="45.9635" lon="4.75116">
        <ele>198.2</ele>
        <time>2024-09-19T13:40:53Z</time>
      </trkpt>
      <trkpt lat="45.96345" lon="4.75111">
        <ele>198.2</ele>
        <time>2024-09-19T13:40:54Z</time>
      </trkpt>
      <trkpt lat="45.96341" lon="4.75107">
        <ele>198.2</ele>
        <time>2024-09-19T13:40:55Z</time>
      </trkpt>
      <trkpt lat="45.96337" lon="4.75102">
        <ele>198.2</ele>
        <time>2024-09-19T13:40:56Z</time>
      </trkpt>
      <trkpt lat="45.96332" lon="4.75098">
        <ele>198</ele>
        <time>2024-09-19T13:40:57Z</time>
      </trkpt>
      <trkpt lat="45.96328" lon="4.75094">
        <ele>198</ele>
        <time>2024-09-19T13:40:58Z</time>
      </trkpt>
      <trkpt lat="45.96324" lon="4.7509">
        <ele>198</ele>
        <time>2024-09-19T13:40:59Z</time>
      </trkpt>
      <trkpt lat="45.96319" lon="4.75086">
        <ele>198</ele>
        <time>2024-09-19T13:41:00Z</time>
      </trkpt>
      <trkpt lat="45.96315" lon="4.75082">
        <ele>198</ele>
        <time>2024-09-19T13:41:01Z</time>
      </trkpt>
      <trkpt lat="45.9631" lon="4.75079">
        <ele>198</ele>
        <time>2024-09-19T13:41:02Z</time>
      </trkpt>
      <trkpt lat="45.96305" lon="4.75077">
        <ele>198</ele>
        <time>2024-09-19T13:41:03Z</time>
      </trkpt>
      <trkpt lat="45.963" lon="4.75074">
        <ele>198</ele>
        <time>2024-09-19T13:41:04Z</time>
      </trkpt>
      <trkpt lat="45.96296" lon="4.75071">
        <ele>198</ele>
        <time>2024-09-19T13:41:05Z</time>
      </trkpt>
      <trkpt lat="45.96292" lon="4.75069">
        <ele>198</ele>
        <time>2024-09-19T13:41:06Z</time>
      </trkpt>
      <trkpt lat="45.96287" lon="4.75066">
        <ele>198.2</ele>
        <time>2024-09-19T13:41:07Z</time>
      </trkpt>
      <trkpt lat="45.96283" lon="4.75063">
        <ele>198.2</ele>
        <time>2024-09-19T13:41:08Z</time>
      </trkpt>
      <trkpt lat="45.96279" lon="4.7506">
        <ele>198.2</ele>
        <time>2024-09-19T13:41:09Z</time>
      </trkpt>
      <trkpt lat="45.96274" lon="4.75057">
        <ele>198.2</ele>
        <time>2024-09-19T13:41:10Z</time>
      </trkpt>
      <trkpt lat="45.9627" lon="4.75053">
        <ele>198.2</ele>
        <time>2024-09-19T13:41:11Z</time>
      </trkpt>
      <trkpt lat="45.96266" lon="4.75049">
        <ele>198.4</ele>
        <time>2024-09-19T13:41:12Z</time>
      </trkpt>
      <trkpt lat="45.96262" lon="4.75045">
        <ele>198.4</ele>
        <time>2024-09-19T13:41:13Z</time>
      </trkpt>
      <trkpt lat="45.96255" lon="4.75039">
        <ele>198.4</ele>
        <time>2024-09-19T13:41:14Z</time>
      </trkpt>
      <trkpt lat="45.96253" lon="4.75037">
        <ele>198.2</ele>
        <time>2024-09-19T13:41:15Z</time>
      </trkpt>
      <trkpt lat="45.96249" lon="4.75033">
        <ele>198.4</ele>
        <time>2024-09-19T13:41:16Z</time>
      </trkpt>
      <trkpt lat="45.96245" lon="4.7503">
        <ele>198.4</ele>
        <time>2024-09-19T13:41:17Z</time>
      </trkpt>
      <trkpt lat="45.96241" lon="4.75025">
        <ele>198.4</ele>
        <time>2024-09-19T13:41:18Z</time>
      </trkpt>
      <trkpt lat="45.96236" lon="4.75021">
        <ele>198.2</ele>
        <time>2024-09-19T13:41:19Z</time>
      </trkpt>
      <trkpt lat="45.96232" lon="4.75017">
        <ele>198.2</ele>
        <time>2024-09-19T13:41:20Z</time>
      </trkpt>
      <trkpt lat="45.96228" lon="4.75013">
        <ele>198.8</ele>
        <time>2024-09-19T13:41:21Z</time>
      </trkpt>
      <trkpt lat="45.96224" lon="4.75009">
        <ele>198.8</ele>
        <time>2024-09-19T13:41:22Z</time>
      </trkpt>
      <trkpt lat="45.96219" lon="4.75005">
        <ele>198.8</ele>
        <time>2024-09-19T13:41:23Z</time>
      </trkpt>
      <trkpt lat="45.96215" lon="4.75001">
        <ele>198</ele>
        <time>2024-09-19T13:41:24Z</time>
      </trkpt>
      <trkpt lat="45.96211" lon="4.74997">
        <ele>198.2</ele>
        <time>2024-09-19T13:41:25Z</time>
      </trkpt>
      <trkpt lat="45.96206" lon="4.74993">
        <ele>198.2</ele>
        <time>2024-09-19T13:41:26Z</time>
      </trkpt>
      <trkpt lat="45.96202" lon="4.7499">
        <ele>198.2</ele>
        <time>2024-09-19T13:41:27Z</time>
      </trkpt>
      <trkpt lat="45.96198" lon="4.74987">
        <ele>198.2</ele>
        <time>2024-09-19T13:41:28Z</time>
      </trkpt>
      <trkpt lat="45.96193" lon="4.74984">
        <ele>198.6</ele>
        <time>2024-09-19T13:41:29Z</time>
      </trkpt>
      <trkpt lat="45.96189" lon="4.74981">
        <ele>198.6</ele>
        <time>2024-09-19T13:41:30Z</time>
      </trkpt>
      <trkpt lat="45.96185" lon="4.74978">
        <ele>198.6</ele>
        <time>2024-09-19T13:41:31Z</time>
      </trkpt>
      <trkpt lat="45.96181" lon="4.74974">
        <ele>198.8</ele>
        <time>2024-09-19T13:41:32Z</time>
      </trkpt>
      <trkpt lat="45.96174" lon="4.74968">
        <ele>198.2</ele>
        <time>2024-09-19T13:41:33Z</time>
      </trkpt>
      <trkpt lat="45.96172" lon="4.74966">
        <ele>198.2</ele>
        <time>2024-09-19T13:41:34Z</time>
      </trkpt>
      <trkpt lat="45.96166" lon="4.7496">
        <ele>198.2</ele>
        <time>2024-09-19T13:41:35Z</time>
      </trkpt>
      <trkpt lat="45.96164" lon="4.74958">
        <ele>198.2</ele>
        <time>2024-09-19T13:41:36Z</time>
      </trkpt>
      <trkpt lat="45.9616" lon="4.74953">
        <ele>198.4</ele>
        <time>2024-09-19T13:41:37Z</time>
      </trkpt>
      <trkpt lat="45.96156" lon="4.74949">
        <ele>198.6</ele>
        <time>2024-09-19T13:41:38Z</time>
      </trkpt>
      <trkpt lat="45.96152" lon="4.74946">
        <ele>198.6</ele>
        <time>2024-09-19T13:41:39Z</time>
      </trkpt>
      <trkpt lat="45.96148" lon="4.74942">
        <ele>198.6</ele>
        <time>2024-09-19T13:41:40Z</time>
      </trkpt>
      <trkpt lat="45.96144" lon="4.74938">
        <ele>198.6</ele>
        <time>2024-09-19T13:41:41Z</time>
      </trkpt>
      <trkpt lat="45.96139" lon="4.74935">
        <ele>198.6</ele>
        <time>2024-09-19T13:41:42Z</time>
      </trkpt>
      <trkpt lat="45.96135" lon="4.74932">
        <ele>198</ele>
        <time>2024-09-19T13:41:43Z</time>
      </trkpt>
      <trkpt lat="45.96132" lon="4.74929">
        <ele>198</ele>
        <time>2024-09-19T13:41:44Z</time>
      </trkpt>
      <trkpt lat="45.9613" lon="4.74925">
        <ele>198</ele>
        <time>2024-09-19T13:41:45Z</time>
      </trkpt>
      <trkpt lat="45.96128" lon="4.74921">
        <ele>198.2</ele>
        <time>2024-09-19T13:41:46Z</time>
      </trkpt>
      <trkpt lat="45.96127" lon="4.74917">
        <ele>198.2</ele>
        <time>2024-09-19T13:41:47Z</time>
      </trkpt>
      <trkpt lat="45.96124" lon="4.74913">
        <ele>198.6</ele>
        <time>2024-09-19T13:41:48Z</time>
      </trkpt>
      <trkpt lat="45.96122" lon="4.74909">
        <ele>198.6</ele>
        <time>2024-09-19T13:41:49Z</time>
      </trkpt>
      <trkpt lat="45.96119" lon="4.74904">
        <ele>198.6</ele>
        <time>2024-09-19T13:41:50Z</time>
      </trkpt>
      <trkpt lat="45.96115" lon="4.749">
        <ele>198.4</ele>
        <time>2024-09-19T13:41:51Z</time>
      </trkpt>
      <trkpt lat="45.96112" lon="4.74896">
        <ele>198.6</ele>
        <time>2024-09-19T13:41:52Z</time>
      </trkpt>
      <trkpt lat="45.96109" lon="4.74892">
        <ele>198.6</ele>
        <time>2024-09-19T13:41:53Z</time>
      </trkpt>
      <trkpt lat="45.96106" lon="4.74887">
        <ele>198.6</ele>
        <time>2024-09-19T13:41:54Z</time>
      </trkpt>
      <trkpt lat="45.96103" lon="4.74883">
        <ele>198.6</ele>
        <time>2024-09-19T13:41:55Z</time>
      </trkpt>
      <trkpt lat="45.96099" lon="4.74878">
        <ele>198.8</ele>
        <time>2024-09-19T13:41:56Z</time>
      </trkpt>
      <trkpt lat="45.96096" lon="4.74874">
        <ele>198.8</ele>
        <time>2024-09-19T13:41:57Z</time>
      </trkpt>
      <trkpt lat="45.96093" lon="4.7487">
        <ele>198.8</ele>
        <time>2024-09-19T13:41:58Z</time>
      </trkpt>
      <trkpt lat="45.96089" lon="4.74865">
        <ele>198.8</ele>
        <time>2024-09-19T13:41:59Z</time>
      </trkpt>
      <trkpt lat="45.96086" lon="4.74862">
        <ele>198.8</ele>
        <time>2024-09-19T13:42:00Z</time>
      </trkpt>
      <trkpt lat="45.96082" lon="4.74858">
        <ele>198.8</ele>
        <time>2024-09-19T13:42:01Z</time>
      </trkpt>
      <trkpt lat="45.96078" lon="4.74855">
        <ele>198.8</ele>
        <time>2024-09-19T13:42:02Z</time>
      </trkpt>
      <trkpt lat="45.96074" lon="4.74852">
        <ele>198.8</ele>
        <time>2024-09-19T13:42:03Z</time>
      </trkpt>
      <trkpt lat="45.96071" lon="4.7485">
        <ele>198.8</ele>
        <time>2024-09-19T13:42:04Z</time>
      </trkpt>
      <trkpt lat="45.96067" lon="4.74847">
        <ele>198.8</ele>
        <time>2024-09-19T13:42:05Z</time>
      </trkpt>
      <trkpt lat="45.96064" lon="4.74843">
        <ele>199</ele>
        <time>2024-09-19T13:42:06Z</time>
      </trkpt>
      <trkpt lat="45.96061" lon="4.7484">
        <ele>199</ele>
        <time>2024-09-19T13:42:07Z</time>
      </trkpt>
      <trkpt lat="45.96058" lon="4.74836">
        <ele>199</ele>
        <time>2024-09-19T13:42:08Z</time>
      </trkpt>
      <trkpt lat="45.96054" lon="4.74832">
        <ele>198.8</ele>
        <time>2024-09-19T13:42:09Z</time>
      </trkpt>
      <trkpt lat="45.96051" lon="4.74829">
        <ele>198.8</ele>
        <time>2024-09-19T13:42:10Z</time>
      </trkpt>
      <trkpt lat="45.96048" lon="4.74825">
        <ele>198.8</ele>
        <time>2024-09-19T13:42:11Z</time>
      </trkpt>
      <trkpt lat="45.96045" lon="4.74821">
        <ele>198.8</ele>
        <time>2024-09-19T13:42:12Z</time>
      </trkpt>
      <trkpt lat="45.9604" lon="4.74815">
        <ele>199</ele>
        <time>2024-09-19T13:42:13Z</time>
      </trkpt>
      <trkpt lat="45.96038" lon="4.74813">
        <ele>198.8</ele>
        <time>2024-09-19T13:42:14Z</time>
      </trkpt>
      <trkpt lat="45.96033" lon="4.74807">
        <ele>198.8</ele>
        <time>2024-09-19T13:42:15Z</time>
      </trkpt>
      <trkpt lat="45.96032" lon="4.74805">
        <ele>198.8</ele>
        <time>2024-09-19T13:42:16Z</time>
      </trkpt>
      <trkpt lat="45.96029" lon="4.74801">
        <ele>199</ele>
        <time>2024-09-19T13:42:17Z</time>
      </trkpt>
      <trkpt lat="45.96026" lon="4.74797">
        <ele>198.8</ele>
        <time>2024-09-19T13:42:18Z</time>
      </trkpt>
      <trkpt lat="45.96023" lon="4.74793">
        <ele>198.8</ele>
        <time>2024-09-19T13:42:19Z</time>
      </trkpt>
      <trkpt lat="45.9602" lon="4.74788">
        <ele>198.8</ele>
        <time>2024-09-19T13:42:20Z</time>
      </trkpt>
      <trkpt lat="45.96017" lon="4.74784">
        <ele>199</ele>
        <time>2024-09-19T13:42:21Z</time>
      </trkpt>
      <trkpt lat="45.96014" lon="4.7478">
        <ele>198.4</ele>
        <time>2024-09-19T13:42:22Z</time>
      </trkpt>
      <trkpt lat="45.96012" lon="4.74775">
        <ele>198.4</ele>
        <time>2024-09-19T13:42:23Z</time>
      </trkpt>
      <trkpt lat="45.96009" lon="4.74771">
        <ele>198.4</ele>
        <time>2024-09-19T13:42:24Z</time>
      </trkpt>
      <trkpt lat="45.96005" lon="4.74768">
        <ele>198.4</ele>
        <time>2024-09-19T13:42:25Z</time>
      </trkpt>
      <trkpt lat="45.96002" lon="4.74764">
        <ele>198.4</ele>
        <time>2024-09-19T13:42:26Z</time>
      </trkpt>
      <trkpt lat="45.95998" lon="4.74759">
        <ele>199</ele>
        <time>2024-09-19T13:42:27Z</time>
      </trkpt>
      <trkpt lat="45.95996" lon="4.74757">
        <ele>199.4</ele>
        <time>2024-09-19T13:42:28Z</time>
      </trkpt>
      <trkpt lat="45.95993" lon="4.74752">
        <ele>199.4</ele>
        <time>2024-09-19T13:42:29Z</time>
      </trkpt>
      <trkpt lat="45.95991" lon="4.74748">
        <ele>199.4</ele>
        <time>2024-09-19T13:42:30Z</time>
      </trkpt>
      <trkpt lat="45.95988" lon="4.74744">
        <ele>199.6</ele>
        <time>2024-09-19T13:42:31Z</time>
      </trkpt>
      <trkpt lat="45.95985" lon="4.74739">
        <ele>199.6</ele>
        <time>2024-09-19T13:42:32Z</time>
      </trkpt>
      <trkpt lat="45.95982" lon="4.74735">
        <ele>199.6</ele>
        <time>2024-09-19T13:42:33Z</time>
      </trkpt>
      <trkpt lat="45.95979" lon="4.74731">
        <ele>199.6</ele>
        <time>2024-09-19T13:42:34Z</time>
      </trkpt>
      <trkpt lat="45.95975" lon="4.74727">
        <ele>199.6</ele>
        <time>2024-09-19T13:42:35Z</time>
      </trkpt>
      <trkpt lat="45.95972" lon="4.74723">
        <ele>199.6</ele>
        <time>2024-09-19T13:42:36Z</time>
      </trkpt>
      <trkpt lat="45.9597" lon="4.74717">
        <ele>199.6</ele>
        <time>2024-09-19T13:42:37Z</time>
      </trkpt>
      <trkpt lat="45.95967" lon="4.74712">
        <ele>199.6</ele>
        <time>2024-09-19T13:42:38Z</time>
      </trkpt>
      <trkpt lat="45.95965" lon="4.74707">
        <ele>199.6</ele>
        <time>2024-09-19T13:42:39Z</time>
      </trkpt>
      <trkpt lat="45.95962" lon="4.74702">
        <ele>199.6</ele>
        <time>2024-09-19T13:42:40Z</time>
      </trkpt>
      <trkpt lat="45.95959" lon="4.74698">
        <ele>199.2</ele>
        <time>2024-09-19T13:42:41Z</time>
      </trkpt>
      <trkpt lat="45.95956" lon="4.74693">
        <ele>199.2</ele>
        <time>2024-09-19T13:42:42Z</time>
      </trkpt>
      <trkpt lat="45.95953" lon="4.74689">
        <ele>199.2</ele>
        <time>2024-09-19T13:42:43Z</time>
      </trkpt>
      <trkpt lat="45.95949" lon="4.74685">
        <ele>199.2</ele>
        <time>2024-09-19T13:42:44Z</time>
      </trkpt>
      <trkpt lat="45.95946" lon="4.7468">
        <ele>199.2</ele>
        <time>2024-09-19T13:42:45Z</time>
      </trkpt>
      <trkpt lat="45.95943" lon="4.74676">
        <ele>199.2</ele>
        <time>2024-09-19T13:42:46Z</time>
      </trkpt>
      <trkpt lat="45.9594" lon="4.74672">
        <ele>199.2</ele>
        <time>2024-09-19T13:42:47Z</time>
      </trkpt>
      <trkpt lat="45.95937" lon="4.74667">
        <ele>199.2</ele>
        <time>2024-09-19T13:42:48Z</time>
      </trkpt>
      <trkpt lat="45.95935" lon="4.74663">
        <ele>199.4</ele>
        <time>2024-09-19T13:42:49Z</time>
      </trkpt>
      <trkpt lat="45.95932" lon="4.7466">
        <ele>199.2</ele>
        <time>2024-09-19T13:42:50Z</time>
      </trkpt>
      <trkpt lat="45.9593" lon="4.74656">
        <ele>199.2</ele>
        <time>2024-09-19T13:42:51Z</time>
      </trkpt>
      <trkpt lat="45.95926" lon="4.7465">
        <ele>199.2</ele>
        <time>2024-09-19T13:42:52Z</time>
      </trkpt>
      <trkpt lat="45.95925" lon="4.74648">
        <ele>199.2</ele>
        <time>2024-09-19T13:42:53Z</time>
      </trkpt>
      <trkpt lat="45.95922" lon="4.74644">
        <ele>199</ele>
        <time>2024-09-19T13:42:54Z</time>
      </trkpt>
      <trkpt lat="45.9592" lon="4.74639">
        <ele>199</ele>
        <time>2024-09-19T13:42:55Z</time>
      </trkpt>
      <trkpt lat="45.95917" lon="4.74634">
        <ele>199</ele>
        <time>2024-09-19T13:42:56Z</time>
      </trkpt>
      <trkpt lat="45.95913" lon="4.74627">
        <ele>199</ele>
        <time>2024-09-19T13:42:57Z</time>
      </trkpt>
      <trkpt lat="45.95911" lon="4.74624">
        <ele>199</ele>
        <time>2024-09-19T13:42:58Z</time>
      </trkpt>
      <trkpt lat="45.95907" lon="4.74617">
        <ele>199.2</ele>
        <time>2024-09-19T13:42:59Z</time>
      </trkpt>
      <trkpt lat="45.95905" lon="4.74615">
        <ele>199.2</ele>
        <time>2024-09-19T13:43:00Z</time>
      </trkpt>
      <trkpt lat="45.95903" lon="4.74609">
        <ele>199.2</ele>
        <time>2024-09-19T13:43:01Z</time>
      </trkpt>
      <trkpt lat="45.95901" lon="4.74604">
        <ele>199.2</ele>
        <time>2024-09-19T13:43:02Z</time>
      </trkpt>
      <trkpt lat="45.95898" lon="4.74599">
        <ele>199.2</ele>
        <time>2024-09-19T13:43:03Z</time>
      </trkpt>
      <trkpt lat="45.95895" lon="4.74593">
        <ele>199.2</ele>
        <time>2024-09-19T13:43:04Z</time>
      </trkpt>
      <trkpt lat="45.95892" lon="4.74588">
        <ele>199.2</ele>
        <time>2024-09-19T13:43:05Z</time>
      </trkpt>
      <trkpt lat="45.95889" lon="4.74583">
        <ele>199.2</ele>
        <time>2024-09-19T13:43:06Z</time>
      </trkpt>
      <trkpt lat="45.95887" lon="4.74578">
        <ele>199.2</ele>
        <time>2024-09-19T13:43:07Z</time>
      </trkpt>
      <trkpt lat="45.95884" lon="4.74572">
        <ele>199.2</ele>
        <time>2024-09-19T13:43:08Z</time>
      </trkpt>
      <trkpt lat="45.95881" lon="4.74567">
        <ele>199.2</ele>
        <time>2024-09-19T13:43:09Z</time>
      </trkpt>
      <trkpt lat="45.95879" lon="4.74562">
        <ele>199.2</ele>
        <time>2024-09-19T13:43:10Z</time>
      </trkpt>
      <trkpt lat="45.95876" lon="4.74556">
        <ele>199.2</ele>
        <time>2024-09-19T13:43:11Z</time>
      </trkpt>
      <trkpt lat="45.95873" lon="4.74551">
        <ele>199.2</ele>
        <time>2024-09-19T13:43:12Z</time>
      </trkpt>
      <trkpt lat="45.9587" lon="4.74547">
        <ele>199.2</ele>
        <time>2024-09-19T13:43:13Z</time>
      </trkpt>
      <trkpt lat="45.95868" lon="4.74542">
        <ele>199.2</ele>
        <time>2024-09-19T13:43:14Z</time>
      </trkpt>
      <trkpt lat="45.95865" lon="4.74538">
        <ele>199.2</ele>
        <time>2024-09-19T13:43:15Z</time>
      </trkpt>
      <trkpt lat="45.95862" lon="4.74533">
        <ele>199</ele>
        <time>2024-09-19T13:43:16Z</time>
      </trkpt>
      <trkpt lat="45.9586" lon="4.74528">
        <ele>198.8</ele>
        <time>2024-09-19T13:43:17Z</time>
      </trkpt>
      <trkpt lat="45.95857" lon="4.74523">
        <ele>198.8</ele>
        <time>2024-09-19T13:43:18Z</time>
      </trkpt>
      <trkpt lat="45.95854" lon="4.74517">
        <ele>198.8</ele>
        <time>2024-09-19T13:43:19Z</time>
      </trkpt>
      <trkpt lat="45.95852" lon="4.74512">
        <ele>198.8</ele>
        <time>2024-09-19T13:43:20Z</time>
      </trkpt>
      <trkpt lat="45.95849" lon="4.74506">
        <ele>198.6</ele>
        <time>2024-09-19T13:43:21Z</time>
      </trkpt>
      <trkpt lat="45.95846" lon="4.745">
        <ele>198.6</ele>
        <time>2024-09-19T13:43:22Z</time>
      </trkpt>
      <trkpt lat="45.95843" lon="4.74495">
        <ele>198.6</ele>
        <time>2024-09-19T13:43:23Z</time>
      </trkpt>
      <trkpt lat="45.9584" lon="4.74489">
        <ele>198.6</ele>
        <time>2024-09-19T13:43:24Z</time>
      </trkpt>
      <trkpt lat="45.95837" lon="4.74483">
        <ele>199</ele>
        <time>2024-09-19T13:43:25Z</time>
      </trkpt>
      <trkpt lat="45.95834" lon="4.74478">
        <ele>199</ele>
        <time>2024-09-19T13:43:26Z</time>
      </trkpt>
      <trkpt lat="45.9583" lon="4.74472">
        <ele>199</ele>
        <time>2024-09-19T13:43:27Z</time>
      </trkpt>
      <trkpt lat="45.95827" lon="4.74467">
        <ele>199</ele>
        <time>2024-09-19T13:43:28Z</time>
      </trkpt>
      <trkpt lat="45.95824" lon="4.74461">
        <ele>198.8</ele>
        <time>2024-09-19T13:43:29Z</time>
      </trkpt>
      <trkpt lat="45.95821" lon="4.74455">
        <ele>199.2</ele>
        <time>2024-09-19T13:43:30Z</time>
      </trkpt>
      <trkpt lat="45.95818" lon="4.7445">
        <ele>199.2</ele>
        <time>2024-09-19T13:43:31Z</time>
      </trkpt>
      <trkpt lat="45.95815" lon="4.74444">
        <ele>199.2</ele>
        <time>2024-09-19T13:43:32Z</time>
      </trkpt>
      <trkpt lat="45.95812" lon="4.74439">
        <ele>199.2</ele>
        <time>2024-09-19T13:43:33Z</time>
      </trkpt>
      <trkpt lat="45.95809" lon="4.74433">
        <ele>198.8</ele>
        <time>2024-09-19T13:43:34Z</time>
      </trkpt>
      <trkpt lat="45.95806" lon="4.74428">
        <ele>198.8</ele>
        <time>2024-09-19T13:43:35Z</time>
      </trkpt>
      <trkpt lat="45.95802" lon="4.74423">
        <ele>198.8</ele>
        <time>2024-09-19T13:43:36Z</time>
      </trkpt>
      <trkpt lat="45.95799" lon="4.74418">
        <ele>198.8</ele>
        <time>2024-09-19T13:43:37Z</time>
      </trkpt>
      <trkpt lat="45.95796" lon="4.74412">
        <ele>198.8</ele>
        <time>2024-09-19T13:43:38Z</time>
      </trkpt>
      <trkpt lat="45.95793" lon="4.74407">
        <ele>198.8</ele>
        <time>2024-09-19T13:43:39Z</time>
      </trkpt>
      <trkpt lat="45.9579" lon="4.74402">
        <ele>198.8</ele>
        <time>2024-09-19T13:43:40Z</time>
      </trkpt>
      <trkpt lat="45.95788" lon="4.74396">
        <ele>198.8</ele>
        <time>2024-09-19T13:43:41Z</time>
      </trkpt>
      <trkpt lat="45.95783" lon="4.74388">
        <ele>198.8</ele>
        <time>2024-09-19T13:43:42Z</time>
      </trkpt>
      <trkpt lat="45.95782" lon="4.74385">
        <ele>198.8</ele>
        <time>2024-09-19T13:43:43Z</time>
      </trkpt>
      <trkpt lat="45.95779" lon="4.7438">
        <ele>198.6</ele>
        <time>2024-09-19T13:43:44Z</time>
      </trkpt>
      <trkpt lat="45.95776" lon="4.74375">
        <ele>198.6</ele>
        <time>2024-09-19T13:43:45Z</time>
      </trkpt>
      <trkpt lat="45.95773" lon="4.74369">
        <ele>198.6</ele>
        <time>2024-09-19T13:43:46Z</time>
      </trkpt>
      <trkpt lat="45.95769" lon="4.74364">
        <ele>198.6</ele>
        <time>2024-09-19T13:43:47Z</time>
      </trkpt>
      <trkpt lat="45.95766" lon="4.74358">
        <ele>198.8</ele>
        <time>2024-09-19T13:43:48Z</time>
      </trkpt>
      <trkpt lat="45.95763" lon="4.74353">
        <ele>198.8</ele>
        <time>2024-09-19T13:43:49Z</time>
      </trkpt>
      <trkpt lat="45.9576" lon="4.74347">
        <ele>198.8</ele>
        <time>2024-09-19T13:43:50Z</time>
      </trkpt>
      <trkpt lat="45.95757" lon="4.74342">
        <ele>198.8</ele>
        <time>2024-09-19T13:43:51Z</time>
      </trkpt>
      <trkpt lat="45.95755" lon="4.74337">
        <ele>198.8</ele>
        <time>2024-09-19T13:43:52Z</time>
      </trkpt>
      <trkpt lat="45.95752" lon="4.74331">
        <ele>198.8</ele>
        <time>2024-09-19T13:43:53Z</time>
      </trkpt>
      <trkpt lat="45.95749" lon="4.74326">
        <ele>198.8</ele>
        <time>2024-09-19T13:43:54Z</time>
      </trkpt>
      <trkpt lat="45.95746" lon="4.74321">
        <ele>198.8</ele>
        <time>2024-09-19T13:43:55Z</time>
      </trkpt>
      <trkpt lat="45.95743" lon="4.74315">
        <ele>198.8</ele>
        <time>2024-09-19T13:43:56Z</time>
      </trkpt>
      <trkpt lat="45.9574" lon="4.74309">
        <ele>198.8</ele>
        <time>2024-09-19T13:43:57Z</time>
      </trkpt>
      <trkpt lat="45.95737" lon="4.74304">
        <ele>198.8</ele>
        <time>2024-09-19T13:43:58Z</time>
      </trkpt>
      <trkpt lat="45.95733" lon="4.74299">
        <ele>198.8</ele>
        <time>2024-09-19T13:43:59Z</time>
      </trkpt>
      <trkpt lat="45.9573" lon="4.74294">
        <ele>198.8</ele>
        <time>2024-09-19T13:44:00Z</time>
      </trkpt>
      <trkpt lat="45.95727" lon="4.74288">
        <ele>198.8</ele>
        <time>2024-09-19T13:44:01Z</time>
      </trkpt>
      <trkpt lat="45.95725" lon="4.74283">
        <ele>198.8</ele>
        <time>2024-09-19T13:44:02Z</time>
      </trkpt>
      <trkpt lat="45.95721" lon="4.74278">
        <ele>198.8</ele>
        <time>2024-09-19T13:44:03Z</time>
      </trkpt>
      <trkpt lat="45.95719" lon="4.74272">
        <ele>198.8</ele>
        <time>2024-09-19T13:44:04Z</time>
      </trkpt>
      <trkpt lat="45.95714" lon="4.74265">
        <ele>199</ele>
        <time>2024-09-19T13:44:05Z</time>
      </trkpt>
      <trkpt lat="45.95713" lon="4.74262">
        <ele>199</ele>
        <time>2024-09-19T13:44:06Z</time>
      </trkpt>
      <trkpt lat="45.95709" lon="4.74254">
        <ele>198.8</ele>
        <time>2024-09-19T13:44:07Z</time>
      </trkpt>
      <trkpt lat="45.95707" lon="4.74252">
        <ele>198.8</ele>
        <time>2024-09-19T13:44:08Z</time>
      </trkpt>
      <trkpt lat="45.95704" lon="4.74247">
        <ele>198.8</ele>
        <time>2024-09-19T13:44:09Z</time>
      </trkpt>
      <trkpt lat="45.95701" lon="4.74241">
        <ele>198.8</ele>
        <time>2024-09-19T13:44:10Z</time>
      </trkpt>
      <trkpt lat="45.95699" lon="4.74236">
        <ele>199</ele>
        <time>2024-09-19T13:44:11Z</time>
      </trkpt>
      <trkpt lat="45.95696" lon="4.74231">
        <ele>199</ele>
        <time>2024-09-19T13:44:12Z</time>
      </trkpt>
      <trkpt lat="45.95692" lon="4.74226">
        <ele>199</ele>
        <time>2024-09-19T13:44:13Z</time>
      </trkpt>
      <trkpt lat="45.95689" lon="4.74221">
        <ele>199</ele>
        <time>2024-09-19T13:44:14Z</time>
      </trkpt>
      <trkpt lat="45.95686" lon="4.74216">
        <ele>198.8</ele>
        <time>2024-09-19T13:44:15Z</time>
      </trkpt>
      <trkpt lat="45.95683" lon="4.74211">
        <ele>198.8</ele>
        <time>2024-09-19T13:44:16Z</time>
      </trkpt>
      <trkpt lat="45.9568" lon="4.74206">
        <ele>198.8</ele>
        <time>2024-09-19T13:44:17Z</time>
      </trkpt>
      <trkpt lat="45.95677" lon="4.74202">
        <ele>198.8</ele>
        <time>2024-09-19T13:44:18Z</time>
      </trkpt>
      <trkpt lat="45.95673" lon="4.74196">
        <ele>199</ele>
        <time>2024-09-19T13:44:19Z</time>
      </trkpt>
      <trkpt lat="45.9567" lon="4.74191">
        <ele>199</ele>
        <time>2024-09-19T13:44:20Z</time>
      </trkpt>
      <trkpt lat="45.95667" lon="4.74186">
        <ele>199</ele>
        <time>2024-09-19T13:44:21Z</time>
      </trkpt>
      <trkpt lat="45.95664" lon="4.74181">
        <ele>199</ele>
        <time>2024-09-19T13:44:22Z</time>
      </trkpt>
      <trkpt lat="45.95661" lon="4.74176">
        <ele>199.2</ele>
        <time>2024-09-19T13:44:23Z</time>
      </trkpt>
      <trkpt lat="45.95658" lon="4.74171">
        <ele>199.2</ele>
        <time>2024-09-19T13:44:24Z</time>
      </trkpt>
      <trkpt lat="45.95655" lon="4.74165">
        <ele>199.2</ele>
        <time>2024-09-19T13:44:25Z</time>
      </trkpt>
      <trkpt lat="45.95652" lon="4.7416">
        <ele>199.2</ele>
        <time>2024-09-19T13:44:26Z</time>
      </trkpt>
      <trkpt lat="45.95649" lon="4.74155">
        <ele>199.2</ele>
        <time>2024-09-19T13:44:27Z</time>
      </trkpt>
      <trkpt lat="45.95646" lon="4.7415">
        <ele>199.2</ele>
        <time>2024-09-19T13:44:28Z</time>
      </trkpt>
      <trkpt lat="45.95642" lon="4.74145">
        <ele>199.2</ele>
        <time>2024-09-19T13:44:29Z</time>
      </trkpt>
      <trkpt lat="45.95639" lon="4.7414">
        <ele>199.2</ele>
        <time>2024-09-19T13:44:30Z</time>
      </trkpt>
      <trkpt lat="45.95636" lon="4.74135">
        <ele>199.2</ele>
        <time>2024-09-19T13:44:31Z</time>
      </trkpt>
      <trkpt lat="45.95633" lon="4.7413">
        <ele>198.8</ele>
        <time>2024-09-19T13:44:32Z</time>
      </trkpt>
      <trkpt lat="45.9563" lon="4.74125">
        <ele>199</ele>
        <time>2024-09-19T13:44:33Z</time>
      </trkpt>
      <trkpt lat="45.95627" lon="4.74119">
        <ele>199</ele>
        <time>2024-09-19T13:44:34Z</time>
      </trkpt>
      <trkpt lat="45.95624" lon="4.74114">
        <ele>199</ele>
        <time>2024-09-19T13:44:35Z</time>
      </trkpt>
      <trkpt lat="45.95621" lon="4.74109">
        <ele>199</ele>
        <time>2024-09-19T13:44:36Z</time>
      </trkpt>
      <trkpt lat="45.95618" lon="4.74104">
        <ele>198.8</ele>
        <time>2024-09-19T13:44:37Z</time>
      </trkpt>
      <trkpt lat="45.95615" lon="4.74099">
        <ele>199.2</ele>
        <time>2024-09-19T13:44:38Z</time>
      </trkpt>
      <trkpt lat="45.95612" lon="4.74094">
        <ele>199.2</ele>
        <time>2024-09-19T13:44:39Z</time>
      </trkpt>
      <trkpt lat="45.95609" lon="4.74089">
        <ele>199.2</ele>
        <time>2024-09-19T13:44:40Z</time>
      </trkpt>
      <trkpt lat="45.95606" lon="4.74083">
        <ele>199.2</ele>
        <time>2024-09-19T13:44:41Z</time>
      </trkpt>
      <trkpt lat="45.95603" lon="4.74078">
        <ele>198.8</ele>
        <time>2024-09-19T13:44:42Z</time>
      </trkpt>
      <trkpt lat="45.956" lon="4.74073">
        <ele>198.8</ele>
        <time>2024-09-19T13:44:43Z</time>
      </trkpt>
      <trkpt lat="45.95597" lon="4.74068">
        <ele>198.8</ele>
        <time>2024-09-19T13:44:44Z</time>
      </trkpt>
      <trkpt lat="45.95594" lon="4.74063">
        <ele>198.8</ele>
        <time>2024-09-19T13:44:45Z</time>
      </trkpt>
      <trkpt lat="45.95591" lon="4.74058">
        <ele>198.8</ele>
        <time>2024-09-19T13:44:46Z</time>
      </trkpt>
      <trkpt lat="45.95588" lon="4.74053">
        <ele>199</ele>
        <time>2024-09-19T13:44:47Z</time>
      </trkpt>
      <trkpt lat="45.95584" lon="4.74048">
        <ele>199</ele>
        <time>2024-09-19T13:44:48Z</time>
      </trkpt>
      <trkpt lat="45.95581" lon="4.74043">
        <ele>199</ele>
        <time>2024-09-19T13:44:49Z</time>
      </trkpt>
      <trkpt lat="45.95578" lon="4.74038">
        <ele>199</ele>
        <time>2024-09-19T13:44:50Z</time>
      </trkpt>
      <trkpt lat="45.95575" lon="4.74033">
        <ele>199</ele>
        <time>2024-09-19T13:44:51Z</time>
      </trkpt>
      <trkpt lat="45.95572" lon="4.74028">
        <ele>199</ele>
        <time>2024-09-19T13:44:52Z</time>
      </trkpt>
      <trkpt lat="45.95568" lon="4.74022">
        <ele>199</ele>
        <time>2024-09-19T13:44:53Z</time>
      </trkpt>
      <trkpt lat="45.95565" lon="4.74017">
        <ele>199</ele>
        <time>2024-09-19T13:44:54Z</time>
      </trkpt>
      <trkpt lat="45.95563" lon="4.74012">
        <ele>198.8</ele>
        <time>2024-09-19T13:44:55Z</time>
      </trkpt>
      <trkpt lat="45.95559" lon="4.74007">
        <ele>198.8</ele>
        <time>2024-09-19T13:44:56Z</time>
      </trkpt>
      <trkpt lat="45.95556" lon="4.74002">
        <ele>198.8</ele>
        <time>2024-09-19T13:44:57Z</time>
      </trkpt>
      <trkpt lat="45.95553" lon="4.73997">
        <ele>198.8</ele>
        <time>2024-09-19T13:44:58Z</time>
      </trkpt>
      <trkpt lat="45.9555" lon="4.73992">
        <ele>198.8</ele>
        <time>2024-09-19T13:44:59Z</time>
      </trkpt>
      <trkpt lat="45.95546" lon="4.73987">
        <ele>198.6</ele>
        <time>2024-09-19T13:45:00Z</time>
      </trkpt>
      <trkpt lat="45.95543" lon="4.73982">
        <ele>198.6</ele>
        <time>2024-09-19T13:45:01Z</time>
      </trkpt>
      <trkpt lat="45.9554" lon="4.73977">
        <ele>198.6</ele>
        <time>2024-09-19T13:45:02Z</time>
      </trkpt>
      <trkpt lat="45.95536" lon="4.73971">
        <ele>198.6</ele>
        <time>2024-09-19T13:45:03Z</time>
      </trkpt>
      <trkpt lat="45.95533" lon="4.73965">
        <ele>198.4</ele>
        <time>2024-09-19T13:45:04Z</time>
      </trkpt>
      <trkpt lat="45.9553" lon="4.7396">
        <ele>198.4</ele>
        <time>2024-09-19T13:45:05Z</time>
      </trkpt>
      <trkpt lat="45.95527" lon="4.73955">
        <ele>198.4</ele>
        <time>2024-09-19T13:45:06Z</time>
      </trkpt>
      <trkpt lat="45.95523" lon="4.7395">
        <ele>198.4</ele>
        <time>2024-09-19T13:45:07Z</time>
      </trkpt>
      <trkpt lat="45.9552" lon="4.73945">
        <ele>198.4</ele>
        <time>2024-09-19T13:45:08Z</time>
      </trkpt>
      <trkpt lat="45.95516" lon="4.7394">
        <ele>198.6</ele>
        <time>2024-09-19T13:45:09Z</time>
      </trkpt>
      <trkpt lat="45.95513" lon="4.73936">
        <ele>198.6</ele>
        <time>2024-09-19T13:45:10Z</time>
      </trkpt>
      <trkpt lat="45.9551" lon="4.73932">
        <ele>198.6</ele>
        <time>2024-09-19T13:45:11Z</time>
      </trkpt>
      <trkpt lat="45.95506" lon="4.73927">
        <ele>198.8</ele>
        <time>2024-09-19T13:45:12Z</time>
      </trkpt>
      <trkpt lat="45.95503" lon="4.73923">
        <ele>198.2</ele>
        <time>2024-09-19T13:45:13Z</time>
      </trkpt>
      <trkpt lat="45.955" lon="4.73919">
        <ele>198.2</ele>
        <time>2024-09-19T13:45:14Z</time>
      </trkpt>
      <trkpt lat="45.95496" lon="4.73914">
        <ele>198.2</ele>
        <time>2024-09-19T13:45:15Z</time>
      </trkpt>
      <trkpt lat="45.95493" lon="4.7391">
        <ele>198.6</ele>
        <time>2024-09-19T13:45:16Z</time>
      </trkpt>
      <trkpt lat="45.9549" lon="4.73906">
        <ele>198.6</ele>
        <time>2024-09-19T13:45:17Z</time>
      </trkpt>
      <trkpt lat="45.95487" lon="4.73901">
        <ele>198.6</ele>
        <time>2024-09-19T13:45:18Z</time>
      </trkpt>
      <trkpt lat="45.95484" lon="4.73896">
        <ele>198.6</ele>
        <time>2024-09-19T13:45:19Z</time>
      </trkpt>
      <trkpt lat="45.95481" lon="4.73892">
        <ele>198.6</ele>
        <time>2024-09-19T13:45:20Z</time>
      </trkpt>
      <trkpt lat="45.95478" lon="4.73887">
        <ele>198.6</ele>
        <time>2024-09-19T13:45:21Z</time>
      </trkpt>
      <trkpt lat="45.95474" lon="4.73883">
        <ele>198.6</ele>
        <time>2024-09-19T13:45:22Z</time>
      </trkpt>
      <trkpt lat="45.95471" lon="4.73878">
        <ele>198.8</ele>
        <time>2024-09-19T13:45:23Z</time>
      </trkpt>
      <trkpt lat="45.95468" lon="4.73873">
        <ele>198.8</ele>
        <time>2024-09-19T13:45:24Z</time>
      </trkpt>
      <trkpt lat="45.95465" lon="4.73868">
        <ele>198.8</ele>
        <time>2024-09-19T13:45:25Z</time>
      </trkpt>
      <trkpt lat="45.95461" lon="4.73863">
        <ele>198.8</ele>
        <time>2024-09-19T13:45:26Z</time>
      </trkpt>
      <trkpt lat="45.95458" lon="4.73858">
        <ele>199</ele>
        <time>2024-09-19T13:45:27Z</time>
      </trkpt>
      <trkpt lat="45.95455" lon="4.73854">
        <ele>199</ele>
        <time>2024-09-19T13:45:28Z</time>
      </trkpt>
      <trkpt lat="45.95452" lon="4.73849">
        <ele>199</ele>
        <time>2024-09-19T13:45:29Z</time>
      </trkpt>
      <trkpt lat="45.9545" lon="4.73844">
        <ele>199</ele>
        <time>2024-09-19T13:45:30Z</time>
      </trkpt>
      <trkpt lat="45.95447" lon="4.73839">
        <ele>198.8</ele>
        <time>2024-09-19T13:45:31Z</time>
      </trkpt>
      <trkpt lat="45.95444" lon="4.73835">
        <ele>198.6</ele>
        <time>2024-09-19T13:45:32Z</time>
      </trkpt>
      <trkpt lat="45.95441" lon="4.7383">
        <ele>198.6</ele>
        <time>2024-09-19T13:45:33Z</time>
      </trkpt>
      <trkpt lat="45.95438" lon="4.73825">
        <ele>198.6</ele>
        <time>2024-09-19T13:45:34Z</time>
      </trkpt>
      <trkpt lat="45.95435" lon="4.73821">
        <ele>198.6</ele>
        <time>2024-09-19T13:45:35Z</time>
      </trkpt>
      <trkpt lat="45.95432" lon="4.73816">
        <ele>198.6</ele>
        <time>2024-09-19T13:45:36Z</time>
      </trkpt>
      <trkpt lat="45.95429" lon="4.73811">
        <ele>198.6</ele>
        <time>2024-09-19T13:45:37Z</time>
      </trkpt>
      <trkpt lat="45.95426" lon="4.73806">
        <ele>198.6</ele>
        <time>2024-09-19T13:45:38Z</time>
      </trkpt>
      <trkpt lat="45.95423" lon="4.73801">
        <ele>198.6</ele>
        <time>2024-09-19T13:45:39Z</time>
      </trkpt>
      <trkpt lat="45.9542" lon="4.73796">
        <ele>198.6</ele>
        <time>2024-09-19T13:45:40Z</time>
      </trkpt>
      <trkpt lat="45.95416" lon="4.73791">
        <ele>198.4</ele>
        <time>2024-09-19T13:45:41Z</time>
      </trkpt>
      <trkpt lat="45.95413" lon="4.73786">
        <ele>198.4</ele>
        <time>2024-09-19T13:45:42Z</time>
      </trkpt>
      <trkpt lat="45.95409" lon="4.73782">
        <ele>198.4</ele>
        <time>2024-09-19T13:45:43Z</time>
      </trkpt>
      <trkpt lat="45.95404" lon="4.73775">
        <ele>198.4</ele>
        <time>2024-09-19T13:45:44Z</time>
      </trkpt>
      <trkpt lat="45.95402" lon="4.73772">
        <ele>198.4</ele>
        <time>2024-09-19T13:45:45Z</time>
      </trkpt>
      <trkpt lat="45.95399" lon="4.73767">
        <ele>198.4</ele>
        <time>2024-09-19T13:45:46Z</time>
      </trkpt>
      <trkpt lat="45.95394" lon="4.7376">
        <ele>198.4</ele>
        <time>2024-09-19T13:45:47Z</time>
      </trkpt>
      <trkpt lat="45.95392" lon="4.73758">
        <ele>198.6</ele>
        <time>2024-09-19T13:45:48Z</time>
      </trkpt>
      <trkpt lat="45.95389" lon="4.73753">
        <ele>198.4</ele>
        <time>2024-09-19T13:45:49Z</time>
      </trkpt>
      <trkpt lat="45.95386" lon="4.73748">
        <ele>198.4</ele>
        <time>2024-09-19T13:45:50Z</time>
      </trkpt>
      <trkpt lat="45.95383" lon="4.73743">
        <ele>198.4</ele>
        <time>2024-09-19T13:45:51Z</time>
      </trkpt>
      <trkpt lat="45.95379" lon="4.73739">
        <ele>198.4</ele>
        <time>2024-09-19T13:45:52Z</time>
      </trkpt>
      <trkpt lat="45.95376" lon="4.73734">
        <ele>198.6</ele>
        <time>2024-09-19T13:45:53Z</time>
      </trkpt>
      <trkpt lat="45.95373" lon="4.73729">
        <ele>198.6</ele>
        <time>2024-09-19T13:45:54Z</time>
      </trkpt>
      <trkpt lat="45.9537" lon="4.73724">
        <ele>198.6</ele>
        <time>2024-09-19T13:45:55Z</time>
      </trkpt>
      <trkpt lat="45.95367" lon="4.73719">
        <ele>198.6</ele>
        <time>2024-09-19T13:45:56Z</time>
      </trkpt>
      <trkpt lat="45.95363" lon="4.73714">
        <ele>198.4</ele>
        <time>2024-09-19T13:45:57Z</time>
      </trkpt>
      <trkpt lat="45.9536" lon="4.7371">
        <ele>198.4</ele>
        <time>2024-09-19T13:45:58Z</time>
      </trkpt>
      <trkpt lat="45.95357" lon="4.73706">
        <ele>198.6</ele>
        <time>2024-09-19T13:45:59Z</time>
      </trkpt>
      <trkpt lat="45.95354" lon="4.73702">
        <ele>198.6</ele>
        <time>2024-09-19T13:46:00Z</time>
      </trkpt>
      <trkpt lat="45.95352" lon="4.73698">
        <ele>198.6</ele>
        <time>2024-09-19T13:46:01Z</time>
      </trkpt>
      <trkpt lat="45.95349" lon="4.73694">
        <ele>199</ele>
        <time>2024-09-19T13:46:02Z</time>
      </trkpt>
      <trkpt lat="45.95345" lon="4.73691">
        <ele>199</ele>
        <time>2024-09-19T13:46:03Z</time>
      </trkpt>
      <trkpt lat="45.95343" lon="4.73686">
        <ele>199</ele>
        <time>2024-09-19T13:46:04Z</time>
      </trkpt>
      <trkpt lat="45.9534" lon="4.73682">
        <ele>199</ele>
        <time>2024-09-19T13:46:05Z</time>
      </trkpt>
      <trkpt lat="45.95337" lon="4.73678">
        <ele>199</ele>
        <time>2024-09-19T13:46:06Z</time>
      </trkpt>
      <trkpt lat="45.95334" lon="4.73673">
        <ele>199</ele>
        <time>2024-09-19T13:46:07Z</time>
      </trkpt>
      <trkpt lat="45.95332" lon="4.73669">
        <ele>199.2</ele>
        <time>2024-09-19T13:46:08Z</time>
      </trkpt>
      <trkpt lat="45.95329" lon="4.73664">
        <ele>199.2</ele>
        <time>2024-09-19T13:46:09Z</time>
      </trkpt>
      <trkpt lat="45.95326" lon="4.73659">
        <ele>199.2</ele>
        <time>2024-09-19T13:46:10Z</time>
      </trkpt>
      <trkpt lat="45.95322" lon="4.73653">
        <ele>199.2</ele>
        <time>2024-09-19T13:46:11Z</time>
      </trkpt>
      <trkpt lat="45.9532" lon="4.7365">
        <ele>199.2</ele>
        <time>2024-09-19T13:46:12Z</time>
      </trkpt>
      <trkpt lat="45.95317" lon="4.73645">
        <ele>199.2</ele>
        <time>2024-09-19T13:46:13Z</time>
      </trkpt>
      <trkpt lat="45.95314" lon="4.73641">
        <ele>199.2</ele>
        <time>2024-09-19T13:46:14Z</time>
      </trkpt>
      <trkpt lat="45.95311" lon="4.73636">
        <ele>199.2</ele>
        <time>2024-09-19T13:46:15Z</time>
      </trkpt>
      <trkpt lat="45.95306" lon="4.7363">
        <ele>199.2</ele>
        <time>2024-09-19T13:46:16Z</time>
      </trkpt>
      <trkpt lat="45.95305" lon="4.73628">
        <ele>199.4</ele>
        <time>2024-09-19T13:46:17Z</time>
      </trkpt>
      <trkpt lat="45.95301" lon="4.73623">
        <ele>199.4</ele>
        <time>2024-09-19T13:46:18Z</time>
      </trkpt>
      <trkpt lat="45.95298" lon="4.73619">
        <ele>199.4</ele>
        <time>2024-09-19T13:46:19Z</time>
      </trkpt>
      <trkpt lat="45.95294" lon="4.73615">
        <ele>199.2</ele>
        <time>2024-09-19T13:46:20Z</time>
      </trkpt>
      <trkpt lat="45.95291" lon="4.73611">
        <ele>199</ele>
        <time>2024-09-19T13:46:21Z</time>
      </trkpt>
      <trkpt lat="45.95288" lon="4.73607">
        <ele>199</ele>
        <time>2024-09-19T13:46:22Z</time>
      </trkpt>
      <trkpt lat="45.95284" lon="4.73603">
        <ele>199</ele>
        <time>2024-09-19T13:46:23Z</time>
      </trkpt>
      <trkpt lat="45.95281" lon="4.73599">
        <ele>199.2</ele>
        <time>2024-09-19T13:46:24Z</time>
      </trkpt>
      <trkpt lat="45.95275" lon="4.73594">
        <ele>199.4</ele>
        <time>2024-09-19T13:46:25Z</time>
      </trkpt>
      <trkpt lat="45.95273" lon="4.73592">
        <ele>199.4</ele>
        <time>2024-09-19T13:46:26Z</time>
      </trkpt>
      <trkpt lat="45.9527" lon="4.73589">
        <ele>199.4</ele>
        <time>2024-09-19T13:46:27Z</time>
      </trkpt>
      <trkpt lat="45.95266" lon="4.73585">
        <ele>199.4</ele>
        <time>2024-09-19T13:46:28Z</time>
      </trkpt>
      <trkpt lat="45.95263" lon="4.73581">
        <ele>199.4</ele>
        <time>2024-09-19T13:46:29Z</time>
      </trkpt>
      <trkpt lat="45.95259" lon="4.73578">
        <ele>199.4</ele>
        <time>2024-09-19T13:46:30Z</time>
      </trkpt>
      <trkpt lat="45.95256" lon="4.73574">
        <ele>199.4</ele>
        <time>2024-09-19T13:46:31Z</time>
      </trkpt>
      <trkpt lat="45.95253" lon="4.7357">
        <ele>199.4</ele>
        <time>2024-09-19T13:46:32Z</time>
      </trkpt>
      <trkpt lat="45.95249" lon="4.73566">
        <ele>199.4</ele>
        <time>2024-09-19T13:46:33Z</time>
      </trkpt>
      <trkpt lat="45.95246" lon="4.73563">
        <ele>199.4</ele>
        <time>2024-09-19T13:46:34Z</time>
      </trkpt>
      <trkpt lat="45.95243" lon="4.73559">
        <ele>199.6</ele>
        <time>2024-09-19T13:46:35Z</time>
      </trkpt>
      <trkpt lat="45.9524" lon="4.73555">
        <ele>199.6</ele>
        <time>2024-09-19T13:46:36Z</time>
      </trkpt>
      <trkpt lat="45.95238" lon="4.73551">
        <ele>199.6</ele>
        <time>2024-09-19T13:46:37Z</time>
      </trkpt>
      <trkpt lat="45.95235" lon="4.73547">
        <ele>199.6</ele>
        <time>2024-09-19T13:46:38Z</time>
      </trkpt>
      <trkpt lat="45.95232" lon="4.73543">
        <ele>199.4</ele>
        <time>2024-09-19T13:46:39Z</time>
      </trkpt>
      <trkpt lat="45.95229" lon="4.73539">
        <ele>199.4</ele>
        <time>2024-09-19T13:46:40Z</time>
      </trkpt>
      <trkpt lat="45.95226" lon="4.73534">
        <ele>199.4</ele>
        <time>2024-09-19T13:46:41Z</time>
      </trkpt>
      <trkpt lat="45.95224" lon="4.7353">
        <ele>199.8</ele>
        <time>2024-09-19T13:46:42Z</time>
      </trkpt>
      <trkpt lat="45.95221" lon="4.73525">
        <ele>199.8</ele>
        <time>2024-09-19T13:46:43Z</time>
      </trkpt>
      <trkpt lat="45.95218" lon="4.7352">
        <ele>199.2</ele>
        <time>2024-09-19T13:46:44Z</time>
      </trkpt>
      <trkpt lat="45.95214" lon="4.73515">
        <ele>199.2</ele>
        <time>2024-09-19T13:46:45Z</time>
      </trkpt>
      <trkpt lat="45.95211" lon="4.7351">
        <ele>199.2</ele>
        <time>2024-09-19T13:46:46Z</time>
      </trkpt>
      <trkpt lat="45.95208" lon="4.73506">
        <ele>199.4</ele>
        <time>2024-09-19T13:46:47Z</time>
      </trkpt>
      <trkpt lat="45.95204" lon="4.73498">
        <ele>199.4</ele>
        <time>2024-09-19T13:46:48Z</time>
      </trkpt>
      <trkpt lat="45.95203" lon="4.73496">
        <ele>199.4</ele>
        <time>2024-09-19T13:46:49Z</time>
      </trkpt>
      <trkpt lat="45.952" lon="4.7349">
        <ele>199.4</ele>
        <time>2024-09-19T13:46:50Z</time>
      </trkpt>
      <trkpt lat="45.95197" lon="4.73485">
        <ele>199.4</ele>
        <time>2024-09-19T13:46:51Z</time>
      </trkpt>
      <trkpt lat="45.95194" lon="4.7348">
        <ele>199.2</ele>
        <time>2024-09-19T13:46:52Z</time>
      </trkpt>
      <trkpt lat="45.95191" lon="4.73475">
        <ele>199.4</ele>
        <time>2024-09-19T13:46:53Z</time>
      </trkpt>
      <trkpt lat="45.95188" lon="4.7347">
        <ele>199.4</ele>
        <time>2024-09-19T13:46:54Z</time>
      </trkpt>
      <trkpt lat="45.95185" lon="4.73465">
        <ele>199.4</ele>
        <time>2024-09-19T13:46:55Z</time>
      </trkpt>
      <trkpt lat="45.95181" lon="4.73461">
        <ele>199.4</ele>
        <time>2024-09-19T13:46:56Z</time>
      </trkpt>
      <trkpt lat="45.95178" lon="4.73456">
        <ele>199</ele>
        <time>2024-09-19T13:46:57Z</time>
      </trkpt>
      <trkpt lat="45.95175" lon="4.73451">
        <ele>199</ele>
        <time>2024-09-19T13:46:58Z</time>
      </trkpt>
      <trkpt lat="45.9517" lon="4.73444">
        <ele>199</ele>
        <time>2024-09-19T13:46:59Z</time>
      </trkpt>
      <trkpt lat="45.95169" lon="4.73442">
        <ele>199.2</ele>
        <time>2024-09-19T13:47:00Z</time>
      </trkpt>
      <trkpt lat="45.95166" lon="4.73437">
        <ele>199.2</ele>
        <time>2024-09-19T13:47:01Z</time>
      </trkpt>
      <trkpt lat="45.95163" lon="4.73432">
        <ele>198.8</ele>
        <time>2024-09-19T13:47:02Z</time>
      </trkpt>
      <trkpt lat="45.95159" lon="4.73427">
        <ele>198.8</ele>
        <time>2024-09-19T13:47:03Z</time>
      </trkpt>
      <trkpt lat="45.95155" lon="4.73419">
        <ele>198.8</ele>
        <time>2024-09-19T13:47:04Z</time>
      </trkpt>
      <trkpt lat="45.95153" lon="4.73417">
        <ele>199.6</ele>
        <time>2024-09-19T13:47:05Z</time>
      </trkpt>
      <trkpt lat="45.9515" lon="4.73411">
        <ele>199.6</ele>
        <time>2024-09-19T13:47:06Z</time>
      </trkpt>
      <trkpt lat="45.95147" lon="4.73406">
        <ele>199.4</ele>
        <time>2024-09-19T13:47:07Z</time>
      </trkpt>
      <trkpt lat="45.95143" lon="4.73401">
        <ele>199.4</ele>
        <time>2024-09-19T13:47:08Z</time>
      </trkpt>
      <trkpt lat="45.9514" lon="4.73397">
        <ele>199.4</ele>
        <time>2024-09-19T13:47:09Z</time>
      </trkpt>
      <trkpt lat="45.95136" lon="4.73392">
        <ele>199.4</ele>
        <time>2024-09-19T13:47:10Z</time>
      </trkpt>
      <trkpt lat="45.95132" lon="4.73387">
        <ele>199.2</ele>
        <time>2024-09-19T13:47:11Z</time>
      </trkpt>
      <trkpt lat="45.95127" lon="4.7338">
        <ele>199.2</ele>
        <time>2024-09-19T13:47:12Z</time>
      </trkpt>
      <trkpt lat="45.95125" lon="4.73378">
        <ele>199.2</ele>
        <time>2024-09-19T13:47:13Z</time>
      </trkpt>
      <trkpt lat="45.95121" lon="4.73374">
        <ele>199.2</ele>
        <time>2024-09-19T13:47:14Z</time>
      </trkpt>
      <trkpt lat="45.95116" lon="4.73367">
        <ele>199</ele>
        <time>2024-09-19T13:47:15Z</time>
      </trkpt>
      <trkpt lat="45.95114" lon="4.73365">
        <ele>199</ele>
        <time>2024-09-19T13:47:16Z</time>
      </trkpt>
      <trkpt lat="45.95108" lon="4.73359">
        <ele>199</ele>
        <time>2024-09-19T13:47:17Z</time>
      </trkpt>
      <trkpt lat="45.95107" lon="4.73357">
        <ele>199</ele>
        <time>2024-09-19T13:47:18Z</time>
      </trkpt>
      <trkpt lat="45.95103" lon="4.73353">
        <ele>198.8</ele>
        <time>2024-09-19T13:47:19Z</time>
      </trkpt>
      <trkpt lat="45.95099" lon="4.73349">
        <ele>198.8</ele>
        <time>2024-09-19T13:47:20Z</time>
      </trkpt>
      <trkpt lat="45.95095" lon="4.73344">
        <ele>198.8</ele>
        <time>2024-09-19T13:47:21Z</time>
      </trkpt>
      <trkpt lat="45.95091" lon="4.73341">
        <ele>199.2</ele>
        <time>2024-09-19T13:47:22Z</time>
      </trkpt>
      <trkpt lat="45.95087" lon="4.73337">
        <ele>199.2</ele>
        <time>2024-09-19T13:47:23Z</time>
      </trkpt>
      <trkpt lat="45.95084" lon="4.73333">
        <ele>199.2</ele>
        <time>2024-09-19T13:47:24Z</time>
      </trkpt>
      <trkpt lat="45.9508" lon="4.73329">
        <ele>199.2</ele>
        <time>2024-09-19T13:47:25Z</time>
      </trkpt>
      <trkpt lat="45.95077" lon="4.73325">
        <ele>199.2</ele>
        <time>2024-09-19T13:47:26Z</time>
      </trkpt>
      <trkpt lat="45.95074" lon="4.73321">
        <ele>199.2</ele>
        <time>2024-09-19T13:47:27Z</time>
      </trkpt>
      <trkpt lat="45.95071" lon="4.73317">
        <ele>199.2</ele>
        <time>2024-09-19T13:47:28Z</time>
      </trkpt>
      <trkpt lat="45.95067" lon="4.73313">
        <ele>199.4</ele>
        <time>2024-09-19T13:47:29Z</time>
      </trkpt>
      <trkpt lat="45.95064" lon="4.7331">
        <ele>199.4</ele>
        <time>2024-09-19T13:47:30Z</time>
      </trkpt>
      <trkpt lat="45.9506" lon="4.73306">
        <ele>199.4</ele>
        <time>2024-09-19T13:47:31Z</time>
      </trkpt>
      <trkpt lat="45.95056" lon="4.73302">
        <ele>199.4</ele>
        <time>2024-09-19T13:47:32Z</time>
      </trkpt>
      <trkpt lat="45.95053" lon="4.73298">
        <ele>199.4</ele>
        <time>2024-09-19T13:47:33Z</time>
      </trkpt>
      <trkpt lat="45.9505" lon="4.73294">
        <ele>199.4</ele>
        <time>2024-09-19T13:47:34Z</time>
      </trkpt>
      <trkpt lat="45.95047" lon="4.73291">
        <ele>199.4</ele>
        <time>2024-09-19T13:47:35Z</time>
      </trkpt>
      <trkpt lat="45.95044" lon="4.73288">
        <ele>199.4</ele>
        <time>2024-09-19T13:47:36Z</time>
      </trkpt>
      <trkpt lat="45.9504" lon="4.73284">
        <ele>199.4</ele>
        <time>2024-09-19T13:47:37Z</time>
      </trkpt>
      <trkpt lat="45.95037" lon="4.73281">
        <ele>199.4</ele>
        <time>2024-09-19T13:47:38Z</time>
      </trkpt>
      <trkpt lat="45.95033" lon="4.73277">
        <ele>199.4</ele>
        <time>2024-09-19T13:47:39Z</time>
      </trkpt>
      <trkpt lat="45.9503" lon="4.73274">
        <ele>199.4</ele>
        <time>2024-09-19T13:47:40Z</time>
      </trkpt>
      <trkpt lat="45.95026" lon="4.7327">
        <ele>199.4</ele>
        <time>2024-09-19T13:47:41Z</time>
      </trkpt>
      <trkpt lat="45.95023" lon="4.73266">
        <ele>199.8</ele>
        <time>2024-09-19T13:47:42Z</time>
      </trkpt>
      <trkpt lat="45.95019" lon="4.73262">
        <ele>199.8</ele>
        <time>2024-09-19T13:47:43Z</time>
      </trkpt>
      <trkpt lat="45.95016" lon="4.73258">
        <ele>199.8</ele>
        <time>2024-09-19T13:47:44Z</time>
      </trkpt>
      <trkpt lat="45.95012" lon="4.73255">
        <ele>199.8</ele>
        <time>2024-09-19T13:47:45Z</time>
      </trkpt>
      <trkpt lat="45.95008" lon="4.73251">
        <ele>199.8</ele>
        <time>2024-09-19T13:47:46Z</time>
      </trkpt>
      <trkpt lat="45.95005" lon="4.73248">
        <ele>199.8</ele>
        <time>2024-09-19T13:47:47Z</time>
      </trkpt>
      <trkpt lat="45.95001" lon="4.73245">
        <ele>199.6</ele>
        <time>2024-09-19T13:47:48Z</time>
      </trkpt>
      <trkpt lat="45.94998" lon="4.73241">
        <ele>199.6</ele>
        <time>2024-09-19T13:47:49Z</time>
      </trkpt>
      <trkpt lat="45.94994" lon="4.73237">
        <ele>199.6</ele>
        <time>2024-09-19T13:47:50Z</time>
      </trkpt>
      <trkpt lat="45.9499" lon="4.73234">
        <ele>199.8</ele>
        <time>2024-09-19T13:47:51Z</time>
      </trkpt>
      <trkpt lat="45.94986" lon="4.73231">
        <ele>199.8</ele>
        <time>2024-09-19T13:47:52Z</time>
      </trkpt>
      <trkpt lat="45.94983" lon="4.73227">
        <ele>199.8</ele>
        <time>2024-09-19T13:47:53Z</time>
      </trkpt>
      <trkpt lat="45.94979" lon="4.73224">
        <ele>199.8</ele>
        <time>2024-09-19T13:47:54Z</time>
      </trkpt>
      <trkpt lat="45.94975" lon="4.73222">
        <ele>199.8</ele>
        <time>2024-09-19T13:47:55Z</time>
      </trkpt>
      <trkpt lat="45.94971" lon="4.73219">
        <ele>200</ele>
        <time>2024-09-19T13:47:56Z</time>
      </trkpt>
      <trkpt lat="45.94968" lon="4.73217">
        <ele>200</ele>
        <time>2024-09-19T13:47:57Z</time>
      </trkpt>
      <trkpt lat="45.94965" lon="4.73214">
        <ele>200</ele>
        <time>2024-09-19T13:47:58Z</time>
      </trkpt>
      <trkpt lat="45.94962" lon="4.7321">
        <ele>200</ele>
        <time>2024-09-19T13:47:59Z</time>
      </trkpt>
      <trkpt lat="45.94959" lon="4.73206">
        <ele>199.6</ele>
        <time>2024-09-19T13:48:00Z</time>
      </trkpt>
      <trkpt lat="45.94956" lon="4.73204">
        <ele>199.6</ele>
        <time>2024-09-19T13:48:01Z</time>
      </trkpt>
      <trkpt lat="45.94953" lon="4.73201">
        <ele>199.6</ele>
        <time>2024-09-19T13:48:02Z</time>
      </trkpt>
      <trkpt lat="45.94951" lon="4.73198">
        <ele>199.6</ele>
        <time>2024-09-19T13:48:03Z</time>
      </trkpt>
      <trkpt lat="45.94948" lon="4.73196">
        <ele>199.6</ele>
        <time>2024-09-19T13:48:04Z</time>
      </trkpt>
      <trkpt lat="45.94945" lon="4.73193">
        <ele>199.8</ele>
        <time>2024-09-19T13:48:05Z</time>
      </trkpt>
      <trkpt lat="45.94942" lon="4.7319">
        <ele>199.8</ele>
        <time>2024-09-19T13:48:06Z</time>
      </trkpt>
      <trkpt lat="45.94938" lon="4.73187">
        <ele>199.8</ele>
        <time>2024-09-19T13:48:07Z</time>
      </trkpt>
      <trkpt lat="45.94935" lon="4.73183">
        <ele>199.6</ele>
        <time>2024-09-19T13:48:08Z</time>
      </trkpt>
      <trkpt lat="45.94931" lon="4.7318">
        <ele>199.6</ele>
        <time>2024-09-19T13:48:09Z</time>
      </trkpt>
      <trkpt lat="45.94928" lon="4.73178">
        <ele>199.4</ele>
        <time>2024-09-19T13:48:10Z</time>
      </trkpt>
      <trkpt lat="45.94922" lon="4.73173">
        <ele>199.4</ele>
        <time>2024-09-19T13:48:11Z</time>
      </trkpt>
      <trkpt lat="45.9492" lon="4.73171">
        <ele>199.4</ele>
        <time>2024-09-19T13:48:12Z</time>
      </trkpt>
      <trkpt lat="45.94916" lon="4.73168">
        <ele>199.4</ele>
        <time>2024-09-19T13:48:13Z</time>
      </trkpt>
      <trkpt lat="45.94912" lon="4.73165">
        <ele>199.6</ele>
        <time>2024-09-19T13:48:14Z</time>
      </trkpt>
      <trkpt lat="45.94908" lon="4.73162">
        <ele>199.6</ele>
        <time>2024-09-19T13:48:15Z</time>
      </trkpt>
      <trkpt lat="45.94904" lon="4.73159">
        <ele>199.6</ele>
        <time>2024-09-19T13:48:16Z</time>
      </trkpt>
      <trkpt lat="45.949" lon="4.73156">
        <ele>199.6</ele>
        <time>2024-09-19T13:48:17Z</time>
      </trkpt>
      <trkpt lat="45.94897" lon="4.73153">
        <ele>199.6</ele>
        <time>2024-09-19T13:48:18Z</time>
      </trkpt>
      <trkpt lat="45.94893" lon="4.7315">
        <ele>199.6</ele>
        <time>2024-09-19T13:48:19Z</time>
      </trkpt>
      <trkpt lat="45.94889" lon="4.73147">
        <ele>199.6</ele>
        <time>2024-09-19T13:48:20Z</time>
      </trkpt>
      <trkpt lat="45.94885" lon="4.73144">
        <ele>199.6</ele>
        <time>2024-09-19T13:48:21Z</time>
      </trkpt>
      <trkpt lat="45.94881" lon="4.7314">
        <ele>200.2</ele>
        <time>2024-09-19T13:48:22Z</time>
      </trkpt>
      <trkpt lat="45.94876" lon="4.73137">
        <ele>199.8</ele>
        <time>2024-09-19T13:48:23Z</time>
      </trkpt>
      <trkpt lat="45.94872" lon="4.73135">
        <ele>199.8</ele>
        <time>2024-09-19T13:48:24Z</time>
      </trkpt>
      <trkpt lat="45.94868" lon="4.73132">
        <ele>199.8</ele>
        <time>2024-09-19T13:48:25Z</time>
      </trkpt>
      <trkpt lat="45.94864" lon="4.7313">
        <ele>199.8</ele>
        <time>2024-09-19T13:48:26Z</time>
      </trkpt>
      <trkpt lat="45.94861" lon="4.73128">
        <ele>199.8</ele>
        <time>2024-09-19T13:48:27Z</time>
      </trkpt>
      <trkpt lat="45.94857" lon="4.73125">
        <ele>199.8</ele>
        <time>2024-09-19T13:48:28Z</time>
      </trkpt>
      <trkpt lat="45.94854" lon="4.73123">
        <ele>199.8</ele>
        <time>2024-09-19T13:48:29Z</time>
      </trkpt>
      <trkpt lat="45.9485" lon="4.73121">
        <ele>199.8</ele>
        <time>2024-09-19T13:48:30Z</time>
      </trkpt>
      <trkpt lat="45.94847" lon="4.73119">
        <ele>199.8</ele>
        <time>2024-09-19T13:48:31Z</time>
      </trkpt>
      <trkpt lat="45.94844" lon="4.73117">
        <ele>199.8</ele>
        <time>2024-09-19T13:48:32Z</time>
      </trkpt>
      <trkpt lat="45.9484" lon="4.73115">
        <ele>199.8</ele>
        <time>2024-09-19T13:48:33Z</time>
      </trkpt>
      <trkpt lat="45.94837" lon="4.73113">
        <ele>199.8</ele>
        <time>2024-09-19T13:48:34Z</time>
      </trkpt>
      <trkpt lat="45.94831" lon="4.73109">
        <ele>199.6</ele>
        <time>2024-09-19T13:48:35Z</time>
      </trkpt>
      <trkpt lat="45.94829" lon="4.73108">
        <ele>199.8</ele>
        <time>2024-09-19T13:48:36Z</time>
      </trkpt>
      <trkpt lat="45.94825" lon="4.73106">
        <ele>199.8</ele>
        <time>2024-09-19T13:48:37Z</time>
      </trkpt>
      <trkpt lat="45.94821" lon="4.73104">
        <ele>199.8</ele>
        <time>2024-09-19T13:48:38Z</time>
      </trkpt>
      <trkpt lat="45.94818" lon="4.73102">
        <ele>199.8</ele>
        <time>2024-09-19T13:48:39Z</time>
      </trkpt>
      <trkpt lat="45.94812" lon="4.73098">
        <ele>199.8</ele>
        <time>2024-09-19T13:48:40Z</time>
      </trkpt>
      <trkpt lat="45.94811" lon="4.73097">
        <ele>199.6</ele>
        <time>2024-09-19T13:48:41Z</time>
      </trkpt>
      <trkpt lat="45.94805" lon="4.73093">
        <ele>199.6</ele>
        <time>2024-09-19T13:48:42Z</time>
      </trkpt>
      <trkpt lat="45.94803" lon="4.73092">
        <ele>199.6</ele>
        <time>2024-09-19T13:48:43Z</time>
      </trkpt>
      <trkpt lat="45.94798" lon="4.73088">
        <ele>199.6</ele>
        <time>2024-09-19T13:48:44Z</time>
      </trkpt>
      <trkpt lat="45.94796" lon="4.73087">
        <ele>199.8</ele>
        <time>2024-09-19T13:48:45Z</time>
      </trkpt>
      <trkpt lat="45.94792" lon="4.73085">
        <ele>199.8</ele>
        <time>2024-09-19T13:48:46Z</time>
      </trkpt>
      <trkpt lat="45.94788" lon="4.73082">
        <ele>199.8</ele>
        <time>2024-09-19T13:48:47Z</time>
      </trkpt>
      <trkpt lat="45.94783" lon="4.7308">
        <ele>199.8</ele>
        <time>2024-09-19T13:48:48Z</time>
      </trkpt>
      <trkpt lat="45.94779" lon="4.73078">
        <ele>199.6</ele>
        <time>2024-09-19T13:48:49Z</time>
      </trkpt>
      <trkpt lat="45.94775" lon="4.73076">
        <ele>199.6</ele>
        <time>2024-09-19T13:48:50Z</time>
      </trkpt>
      <trkpt lat="45.94771" lon="4.73073">
        <ele>199.6</ele>
        <time>2024-09-19T13:48:51Z</time>
      </trkpt>
      <trkpt lat="45.94767" lon="4.73071">
        <ele>199.6</ele>
        <time>2024-09-19T13:48:52Z</time>
      </trkpt>
      <trkpt lat="45.94762" lon="4.73069">
        <ele>199.6</ele>
        <time>2024-09-19T13:48:53Z</time>
      </trkpt>
      <trkpt lat="45.94758" lon="4.73067">
        <ele>200</ele>
        <time>2024-09-19T13:48:54Z</time>
      </trkpt>
      <trkpt lat="45.94754" lon="4.73065">
        <ele>199.8</ele>
        <time>2024-09-19T13:48:55Z</time>
      </trkpt>
      <trkpt lat="45.9475" lon="4.73062">
        <ele>199.8</ele>
        <time>2024-09-19T13:48:56Z</time>
      </trkpt>
      <trkpt lat="45.94745" lon="4.73061">
        <ele>199.8</ele>
        <time>2024-09-19T13:48:57Z</time>
      </trkpt>
      <trkpt lat="45.94739" lon="4.73059">
        <ele>199.8</ele>
        <time>2024-09-19T13:48:58Z</time>
      </trkpt>
      <trkpt lat="45.94737" lon="4.73058">
        <ele>200</ele>
        <time>2024-09-19T13:48:59Z</time>
      </trkpt>
      <trkpt lat="45.94733" lon="4.73056">
        <ele>200</ele>
        <time>2024-09-19T13:49:00Z</time>
      </trkpt>
      <trkpt lat="45.94729" lon="4.73053">
        <ele>200</ele>
        <time>2024-09-19T13:49:01Z</time>
      </trkpt>
      <trkpt lat="45.94724" lon="4.7305">
        <ele>200</ele>
        <time>2024-09-19T13:49:02Z</time>
      </trkpt>
      <trkpt lat="45.9472" lon="4.73048">
        <ele>199.8</ele>
        <time>2024-09-19T13:49:03Z</time>
      </trkpt>
      <trkpt lat="45.94715" lon="4.73046">
        <ele>199.8</ele>
        <time>2024-09-19T13:49:04Z</time>
      </trkpt>
      <trkpt lat="45.94708" lon="4.73043">
        <ele>199.8</ele>
        <time>2024-09-19T13:49:05Z</time>
      </trkpt>
      <trkpt lat="45.94706" lon="4.73043">
        <ele>199.8</ele>
        <time>2024-09-19T13:49:06Z</time>
      </trkpt>
      <trkpt lat="45.94701" lon="4.73041">
        <ele>199.8</ele>
        <time>2024-09-19T13:49:07Z</time>
      </trkpt>
      <trkpt lat="45.94697" lon="4.73039">
        <ele>199.8</ele>
        <time>2024-09-19T13:49:08Z</time>
      </trkpt>
      <trkpt lat="45.94692" lon="4.73037">
        <ele>199.8</ele>
        <time>2024-09-19T13:49:09Z</time>
      </trkpt>
      <trkpt lat="45.94688" lon="4.73035">
        <ele>199.8</ele>
        <time>2024-09-19T13:49:10Z</time>
      </trkpt>
      <trkpt lat="45.94683" lon="4.73033">
        <ele>199.8</ele>
        <time>2024-09-19T13:49:11Z</time>
      </trkpt>
      <trkpt lat="45.94679" lon="4.73032">
        <ele>199.8</ele>
        <time>2024-09-19T13:49:12Z</time>
      </trkpt>
      <trkpt lat="45.94675" lon="4.73031">
        <ele>199.8</ele>
        <time>2024-09-19T13:49:13Z</time>
      </trkpt>
      <trkpt lat="45.94671" lon="4.7303">
        <ele>199.8</ele>
        <time>2024-09-19T13:49:14Z</time>
      </trkpt>
      <trkpt lat="45.94667" lon="4.73028">
        <ele>199.8</ele>
        <time>2024-09-19T13:49:15Z</time>
      </trkpt>
      <trkpt lat="45.94663" lon="4.73027">
        <ele>199.8</ele>
        <time>2024-09-19T13:49:16Z</time>
      </trkpt>
      <trkpt lat="45.94658" lon="4.73026">
        <ele>200</ele>
        <time>2024-09-19T13:49:17Z</time>
      </trkpt>
      <trkpt lat="45.94654" lon="4.73025">
        <ele>200</ele>
        <time>2024-09-19T13:49:18Z</time>
      </trkpt>
      <trkpt lat="45.9465" lon="4.73023">
        <ele>200</ele>
        <time>2024-09-19T13:49:19Z</time>
      </trkpt>
      <trkpt lat="45.94646" lon="4.73023">
        <ele>200</ele>
        <time>2024-09-19T13:49:20Z</time>
      </trkpt>
      <trkpt lat="45.94641" lon="4.73022">
        <ele>200</ele>
        <time>2024-09-19T13:49:21Z</time>
      </trkpt>
      <trkpt lat="45.94635" lon="4.73021">
        <ele>200</ele>
        <time>2024-09-19T13:49:22Z</time>
      </trkpt>
      <trkpt lat="45.94632" lon="4.73021">
        <ele>200</ele>
        <time>2024-09-19T13:49:23Z</time>
      </trkpt>
      <trkpt lat="45.94628" lon="4.7302">
        <ele>200</ele>
        <time>2024-09-19T13:49:24Z</time>
      </trkpt>
      <trkpt lat="45.94621" lon="4.73019">
        <ele>200</ele>
        <time>2024-09-19T13:49:25Z</time>
      </trkpt>
      <trkpt lat="45.94619" lon="4.73019">
        <ele>199.8</ele>
        <time>2024-09-19T13:49:26Z</time>
      </trkpt>
      <trkpt lat="45.94613" lon="4.73018">
        <ele>199.8</ele>
        <time>2024-09-19T13:49:27Z</time>
      </trkpt>
      <trkpt lat="45.94611" lon="4.73018">
        <ele>199.8</ele>
        <time>2024-09-19T13:49:28Z</time>
      </trkpt>
      <trkpt lat="45.94604" lon="4.73016">
        <ele>200</ele>
        <time>2024-09-19T13:49:29Z</time>
      </trkpt>
      <trkpt lat="45.94602" lon="4.73016">
        <ele>200</ele>
        <time>2024-09-19T13:49:30Z</time>
      </trkpt>
      <trkpt lat="45.94597" lon="4.73015">
        <ele>200</ele>
        <time>2024-09-19T13:49:31Z</time>
      </trkpt>
      <trkpt lat="45.94593" lon="4.73014">
        <ele>200</ele>
        <time>2024-09-19T13:49:32Z</time>
      </trkpt>
      <trkpt lat="45.94588" lon="4.73014">
        <ele>200</ele>
        <time>2024-09-19T13:49:33Z</time>
      </trkpt>
      <trkpt lat="45.94583" lon="4.73013">
        <ele>200</ele>
        <time>2024-09-19T13:49:34Z</time>
      </trkpt>
      <trkpt lat="45.94579" lon="4.73012">
        <ele>200</ele>
        <time>2024-09-19T13:49:35Z</time>
      </trkpt>
      <trkpt lat="45.94574" lon="4.73011">
        <ele>200</ele>
        <time>2024-09-19T13:49:36Z</time>
      </trkpt>
      <trkpt lat="45.9457" lon="4.73011">
        <ele>200</ele>
        <time>2024-09-19T13:49:37Z</time>
      </trkpt>
      <trkpt lat="45.94565" lon="4.7301">
        <ele>200</ele>
        <time>2024-09-19T13:49:38Z</time>
      </trkpt>
      <trkpt lat="45.94561" lon="4.7301">
        <ele>200</ele>
        <time>2024-09-19T13:49:39Z</time>
      </trkpt>
      <trkpt lat="45.94556" lon="4.73009">
        <ele>200</ele>
        <time>2024-09-19T13:49:40Z</time>
      </trkpt>
      <trkpt lat="45.94552" lon="4.73009">
        <ele>200</ele>
        <time>2024-09-19T13:49:41Z</time>
      </trkpt>
      <trkpt lat="45.94547" lon="4.73009">
        <ele>200</ele>
        <time>2024-09-19T13:49:42Z</time>
      </trkpt>
      <trkpt lat="45.94543" lon="4.73009">
        <ele>199.6</ele>
        <time>2024-09-19T13:49:43Z</time>
      </trkpt>
      <trkpt lat="45.94539" lon="4.73009">
        <ele>199.6</ele>
        <time>2024-09-19T13:49:44Z</time>
      </trkpt>
      <trkpt lat="45.94535" lon="4.73009">
        <ele>199.6</ele>
        <time>2024-09-19T13:49:45Z</time>
      </trkpt>
      <trkpt lat="45.94531" lon="4.73009">
        <ele>199.6</ele>
        <time>2024-09-19T13:49:46Z</time>
      </trkpt>
      <trkpt lat="45.94527" lon="4.73009">
        <ele>199.6</ele>
        <time>2024-09-19T13:49:47Z</time>
      </trkpt>
      <trkpt lat="45.94523" lon="4.73009">
        <ele>199.6</ele>
        <time>2024-09-19T13:49:48Z</time>
      </trkpt>
      <trkpt lat="45.94519" lon="4.73009">
        <ele>199.4</ele>
        <time>2024-09-19T13:49:49Z</time>
      </trkpt>
      <trkpt lat="45.94515" lon="4.7301">
        <ele>199.4</ele>
        <time>2024-09-19T13:49:50Z</time>
      </trkpt>
      <trkpt lat="45.94512" lon="4.73011">
        <ele>199.4</ele>
        <time>2024-09-19T13:49:51Z</time>
      </trkpt>
      <trkpt lat="45.94508" lon="4.73011">
        <ele>199.4</ele>
        <time>2024-09-19T13:49:52Z</time>
      </trkpt>
      <trkpt lat="45.94503" lon="4.73011">
        <ele>199.4</ele>
        <time>2024-09-19T13:49:53Z</time>
      </trkpt>
      <trkpt lat="45.94499" lon="4.73011">
        <ele>199.4</ele>
        <time>2024-09-19T13:49:54Z</time>
      </trkpt>
      <trkpt lat="45.94495" lon="4.73011">
        <ele>199.4</ele>
        <time>2024-09-19T13:49:55Z</time>
      </trkpt>
      <trkpt lat="45.9449" lon="4.73012">
        <ele>199.4</ele>
        <time>2024-09-19T13:49:56Z</time>
      </trkpt>
      <trkpt lat="45.94486" lon="4.73013">
        <ele>199.4</ele>
        <time>2024-09-19T13:49:57Z</time>
      </trkpt>
      <trkpt lat="45.94482" lon="4.73013">
        <ele>199.4</ele>
        <time>2024-09-19T13:49:58Z</time>
      </trkpt>
      <trkpt lat="45.94477" lon="4.73013">
        <ele>199.4</ele>
        <time>2024-09-19T13:49:59Z</time>
      </trkpt>
      <trkpt lat="45.94473" lon="4.73014">
        <ele>199.4</ele>
        <time>2024-09-19T13:50:00Z</time>
      </trkpt>
      <trkpt lat="45.94469" lon="4.73014">
        <ele>199.4</ele>
        <time>2024-09-19T13:50:01Z</time>
      </trkpt>
      <trkpt lat="45.94464" lon="4.73014">
        <ele>199.4</ele>
        <time>2024-09-19T13:50:02Z</time>
      </trkpt>
      <trkpt lat="45.9446" lon="4.73013">
        <ele>199.6</ele>
        <time>2024-09-19T13:50:03Z</time>
      </trkpt>
      <trkpt lat="45.94455" lon="4.73014">
        <ele>199.6</ele>
        <time>2024-09-19T13:50:04Z</time>
      </trkpt>
      <trkpt lat="45.94453" lon="4.73014">
        <ele>199.2</ele>
        <time>2024-09-19T13:50:05Z</time>
      </trkpt>
      <trkpt lat="45.94449" lon="4.73016">
        <ele>199</ele>
        <time>2024-09-19T13:50:06Z</time>
      </trkpt>
      <trkpt lat="45.94446" lon="4.73019">
        <ele>199</ele>
        <time>2024-09-19T13:50:07Z</time>
      </trkpt>
      <trkpt lat="45.94444" lon="4.73022">
        <ele>199</ele>
        <time>2024-09-19T13:50:08Z</time>
      </trkpt>
      <trkpt lat="45.94441" lon="4.73025">
        <ele>199</ele>
        <time>2024-09-19T13:50:09Z</time>
      </trkpt>
      <trkpt lat="45.94438" lon="4.73029">
        <ele>199.4</ele>
        <time>2024-09-19T13:50:10Z</time>
      </trkpt>
      <trkpt lat="45.94435" lon="4.73032">
        <ele>199.4</ele>
        <time>2024-09-19T13:50:11Z</time>
      </trkpt>
      <trkpt lat="45.94432" lon="4.73036">
        <ele>199.4</ele>
        <time>2024-09-19T13:50:12Z</time>
      </trkpt>
      <trkpt lat="45.94429" lon="4.7304">
        <ele>199.4</ele>
        <time>2024-09-19T13:50:13Z</time>
      </trkpt>
      <trkpt lat="45.94426" lon="4.73043">
        <ele>199.6</ele>
        <time>2024-09-19T13:50:14Z</time>
      </trkpt>
      <trkpt lat="45.94423" lon="4.73047">
        <ele>199.8</ele>
        <time>2024-09-19T13:50:15Z</time>
      </trkpt>
      <trkpt lat="45.94419" lon="4.73051">
        <ele>199.8</ele>
        <time>2024-09-19T13:50:16Z</time>
      </trkpt>
      <trkpt lat="45.94415" lon="4.73055">
        <ele>199.8</ele>
        <time>2024-09-19T13:50:17Z</time>
      </trkpt>
      <trkpt lat="45.94412" lon="4.73059">
        <ele>199.8</ele>
        <time>2024-09-19T13:50:18Z</time>
      </trkpt>
      <trkpt lat="45.94408" lon="4.73063">
        <ele>199.8</ele>
        <time>2024-09-19T13:50:19Z</time>
      </trkpt>
      <trkpt lat="45.94405" lon="4.73067">
        <ele>199.6</ele>
        <time>2024-09-19T13:50:20Z</time>
      </trkpt>
      <trkpt lat="45.94402" lon="4.73072">
        <ele>199.6</ele>
        <time>2024-09-19T13:50:21Z</time>
      </trkpt>
      <trkpt lat="45.94398" lon="4.73076">
        <ele>199.6</ele>
        <time>2024-09-19T13:50:22Z</time>
      </trkpt>
      <trkpt lat="45.94395" lon="4.7308">
        <ele>199.6</ele>
        <time>2024-09-19T13:50:23Z</time>
      </trkpt>
      <trkpt lat="45.94391" lon="4.73083">
        <ele>200</ele>
        <time>2024-09-19T13:50:24Z</time>
      </trkpt>
      <trkpt lat="45.94387" lon="4.73086">
        <ele>199.8</ele>
        <time>2024-09-19T13:50:25Z</time>
      </trkpt>
      <trkpt lat="45.94383" lon="4.73089">
        <ele>199.8</ele>
        <time>2024-09-19T13:50:26Z</time>
      </trkpt>
      <trkpt lat="45.94379" lon="4.73092">
        <ele>199.8</ele>
        <time>2024-09-19T13:50:27Z</time>
      </trkpt>
      <trkpt lat="45.94376" lon="4.73095">
        <ele>199.8</ele>
        <time>2024-09-19T13:50:28Z</time>
      </trkpt>
      <trkpt lat="45.94372" lon="4.73097">
        <ele>199.8</ele>
        <time>2024-09-19T13:50:29Z</time>
      </trkpt>
      <trkpt lat="45.94368" lon="4.73101">
        <ele>199.8</ele>
        <time>2024-09-19T13:50:30Z</time>
      </trkpt>
      <trkpt lat="45.94365" lon="4.73104">
        <ele>199.8</ele>
        <time>2024-09-19T13:50:31Z</time>
      </trkpt>
      <trkpt lat="45.94363" lon="4.73109">
        <ele>199.8</ele>
        <time>2024-09-19T13:50:32Z</time>
      </trkpt>
      <trkpt lat="45.94359" lon="4.73112">
        <ele>199.8</ele>
        <time>2024-09-19T13:50:33Z</time>
      </trkpt>
      <trkpt lat="45.94356" lon="4.73114">
        <ele>199.6</ele>
        <time>2024-09-19T13:50:34Z</time>
      </trkpt>
      <trkpt lat="45.94352" lon="4.73117">
        <ele>199.6</ele>
        <time>2024-09-19T13:50:35Z</time>
      </trkpt>
      <trkpt lat="45.94349" lon="4.73119">
        <ele>199.6</ele>
        <time>2024-09-19T13:50:36Z</time>
      </trkpt>
      <trkpt lat="45.94343" lon="4.73123">
        <ele>199.6</ele>
        <time>2024-09-19T13:50:37Z</time>
      </trkpt>
      <trkpt lat="45.94341" lon="4.73125">
        <ele>199.8</ele>
        <time>2024-09-19T13:50:38Z</time>
      </trkpt>
      <trkpt lat="45.94337" lon="4.73128">
        <ele>199.8</ele>
        <time>2024-09-19T13:50:39Z</time>
      </trkpt>
      <trkpt lat="45.94333" lon="4.73131">
        <ele>199.8</ele>
        <time>2024-09-19T13:50:40Z</time>
      </trkpt>
      <trkpt lat="45.94329" lon="4.73134">
        <ele>199.8</ele>
        <time>2024-09-19T13:50:41Z</time>
      </trkpt>
      <trkpt lat="45.94325" lon="4.73137">
        <ele>200</ele>
        <time>2024-09-19T13:50:42Z</time>
      </trkpt>
      <trkpt lat="45.94321" lon="4.7314">
        <ele>200</ele>
        <time>2024-09-19T13:50:43Z</time>
      </trkpt>
      <trkpt lat="45.94317" lon="4.73144">
        <ele>200</ele>
        <time>2024-09-19T13:50:44Z</time>
      </trkpt>
      <trkpt lat="45.94314" lon="4.73147">
        <ele>200</ele>
        <time>2024-09-19T13:50:45Z</time>
      </trkpt>
      <trkpt lat="45.9431" lon="4.7315">
        <ele>200</ele>
        <time>2024-09-19T13:50:46Z</time>
      </trkpt>
      <trkpt lat="45.94306" lon="4.73153">
        <ele>200</ele>
        <time>2024-09-19T13:50:47Z</time>
      </trkpt>
      <trkpt lat="45.94301" lon="4.73157">
        <ele>200</ele>
        <time>2024-09-19T13:50:48Z</time>
      </trkpt>
      <trkpt lat="45.94299" lon="4.73159">
        <ele>200</ele>
        <time>2024-09-19T13:50:49Z</time>
      </trkpt>
      <trkpt lat="45.94293" lon="4.73163">
        <ele>199.8</ele>
        <time>2024-09-19T13:50:50Z</time>
      </trkpt>
      <trkpt lat="45.94292" lon="4.73164">
        <ele>199.8</ele>
        <time>2024-09-19T13:50:51Z</time>
      </trkpt>
      <trkpt lat="45.94288" lon="4.73167">
        <ele>199.6</ele>
        <time>2024-09-19T13:50:52Z</time>
      </trkpt>
      <trkpt lat="45.94285" lon="4.7317">
        <ele>199.6</ele>
        <time>2024-09-19T13:50:53Z</time>
      </trkpt>
      <trkpt lat="45.94281" lon="4.73173">
        <ele>199.6</ele>
        <time>2024-09-19T13:50:54Z</time>
      </trkpt>
      <trkpt lat="45.94278" lon="4.73176">
        <ele>199.4</ele>
        <time>2024-09-19T13:50:55Z</time>
      </trkpt>
      <trkpt lat="45.94274" lon="4.73179">
        <ele>199.4</ele>
        <time>2024-09-19T13:50:56Z</time>
      </trkpt>
      <trkpt lat="45.9427" lon="4.73182">
        <ele>199.4</ele>
        <time>2024-09-19T13:50:57Z</time>
      </trkpt>
      <trkpt lat="45.94267" lon="4.73185">
        <ele>199.4</ele>
        <time>2024-09-19T13:50:58Z</time>
      </trkpt>
      <trkpt lat="45.94263" lon="4.73188">
        <ele>199.2</ele>
        <time>2024-09-19T13:50:59Z</time>
      </trkpt>
      <trkpt lat="45.94259" lon="4.7319">
        <ele>199.2</ele>
        <time>2024-09-19T13:51:00Z</time>
      </trkpt>
      <trkpt lat="45.94255" lon="4.73193">
        <ele>199.2</ele>
        <time>2024-09-19T13:51:01Z</time>
      </trkpt>
      <trkpt lat="45.94251" lon="4.73196">
        <ele>199.2</ele>
        <time>2024-09-19T13:51:02Z</time>
      </trkpt>
      <trkpt lat="45.94245" lon="4.73201">
        <ele>199.2</ele>
        <time>2024-09-19T13:51:03Z</time>
      </trkpt>
      <trkpt lat="45.94243" lon="4.73202">
        <ele>199.2</ele>
        <time>2024-09-19T13:51:04Z</time>
      </trkpt>
      <trkpt lat="45.94239" lon="4.73206">
        <ele>199.2</ele>
        <time>2024-09-19T13:51:05Z</time>
      </trkpt>
      <trkpt lat="45.94235" lon="4.73209">
        <ele>199.2</ele>
        <time>2024-09-19T13:51:06Z</time>
      </trkpt>
      <trkpt lat="45.9423" lon="4.73212">
        <ele>199.2</ele>
        <time>2024-09-19T13:51:07Z</time>
      </trkpt>
      <trkpt lat="45.94226" lon="4.73215">
        <ele>199.2</ele>
        <time>2024-09-19T13:51:08Z</time>
      </trkpt>
      <trkpt lat="45.94222" lon="4.73219">
        <ele>199.2</ele>
        <time>2024-09-19T13:51:09Z</time>
      </trkpt>
      <trkpt lat="45.94218" lon="4.73222">
        <ele>199</ele>
        <time>2024-09-19T13:51:10Z</time>
      </trkpt>
      <trkpt lat="45.94214" lon="4.73225">
        <ele>199</ele>
        <time>2024-09-19T13:51:11Z</time>
      </trkpt>
      <trkpt lat="45.9421" lon="4.73228">
        <ele>199</ele>
        <time>2024-09-19T13:51:12Z</time>
      </trkpt>
      <trkpt lat="45.94206" lon="4.73232">
        <ele>199.4</ele>
        <time>2024-09-19T13:51:13Z</time>
      </trkpt>
      <trkpt lat="45.94202" lon="4.73235">
        <ele>199</ele>
        <time>2024-09-19T13:51:14Z</time>
      </trkpt>
      <trkpt lat="45.94198" lon="4.73238">
        <ele>199</ele>
        <time>2024-09-19T13:51:15Z</time>
      </trkpt>
      <trkpt lat="45.94194" lon="4.73241">
        <ele>199</ele>
        <time>2024-09-19T13:51:16Z</time>
      </trkpt>
      <trkpt lat="45.9419" lon="4.73245">
        <ele>199</ele>
        <time>2024-09-19T13:51:17Z</time>
      </trkpt>
      <trkpt lat="45.94186" lon="4.73248">
        <ele>199.4</ele>
        <time>2024-09-19T13:51:18Z</time>
      </trkpt>
      <trkpt lat="45.94182" lon="4.73253">
        <ele>199.4</ele>
        <time>2024-09-19T13:51:19Z</time>
      </trkpt>
      <trkpt lat="45.94178" lon="4.73257">
        <ele>199.4</ele>
        <time>2024-09-19T13:51:20Z</time>
      </trkpt>
      <trkpt lat="45.94175" lon="4.73261">
        <ele>199.4</ele>
        <time>2024-09-19T13:51:21Z</time>
      </trkpt>
      <trkpt lat="45.94171" lon="4.73265">
        <ele>199.4</ele>
        <time>2024-09-19T13:51:22Z</time>
      </trkpt>
      <trkpt lat="45.94167" lon="4.7327">
        <ele>199.2</ele>
        <time>2024-09-19T13:51:23Z</time>
      </trkpt>
      <trkpt lat="45.94163" lon="4.73273">
        <ele>199.2</ele>
        <time>2024-09-19T13:51:24Z</time>
      </trkpt>
      <trkpt lat="45.9416" lon="4.73277">
        <ele>199.2</ele>
        <time>2024-09-19T13:51:25Z</time>
      </trkpt>
      <trkpt lat="45.94156" lon="4.73281">
        <ele>199.4</ele>
        <time>2024-09-19T13:51:26Z</time>
      </trkpt>
      <trkpt lat="45.94153" lon="4.73285">
        <ele>199.4</ele>
        <time>2024-09-19T13:51:27Z</time>
      </trkpt>
      <trkpt lat="45.94149" lon="4.7329">
        <ele>199.4</ele>
        <time>2024-09-19T13:51:28Z</time>
      </trkpt>
      <trkpt lat="45.94146" lon="4.73294">
        <ele>199.4</ele>
        <time>2024-09-19T13:51:29Z</time>
      </trkpt>
      <trkpt lat="45.94143" lon="4.73298">
        <ele>199.4</ele>
        <time>2024-09-19T13:51:30Z</time>
      </trkpt>
      <trkpt lat="45.94139" lon="4.73302">
        <ele>199.4</ele>
        <time>2024-09-19T13:51:31Z</time>
      </trkpt>
      <trkpt lat="45.94136" lon="4.73306">
        <ele>199.2</ele>
        <time>2024-09-19T13:51:32Z</time>
      </trkpt>
      <trkpt lat="45.94133" lon="4.7331">
        <ele>199.2</ele>
        <time>2024-09-19T13:51:33Z</time>
      </trkpt>
      <trkpt lat="45.9413" lon="4.73315">
        <ele>199.2</ele>
        <time>2024-09-19T13:51:34Z</time>
      </trkpt>
      <trkpt lat="45.94127" lon="4.73319">
        <ele>199.2</ele>
        <time>2024-09-19T13:51:35Z</time>
      </trkpt>
      <trkpt lat="45.94125" lon="4.73324">
        <ele>199.6</ele>
        <time>2024-09-19T13:51:36Z</time>
      </trkpt>
      <trkpt lat="45.94122" lon="4.73328">
        <ele>199.6</ele>
        <time>2024-09-19T13:51:37Z</time>
      </trkpt>
      <trkpt lat="45.94119" lon="4.73333">
        <ele>199.6</ele>
        <time>2024-09-19T13:51:38Z</time>
      </trkpt>
      <trkpt lat="45.94116" lon="4.73338">
        <ele>199.6</ele>
        <time>2024-09-19T13:51:39Z</time>
      </trkpt>
      <trkpt lat="45.94112" lon="4.73342">
        <ele>199.6</ele>
        <time>2024-09-19T13:51:40Z</time>
      </trkpt>
      <trkpt lat="45.94109" lon="4.73346">
        <ele>199.6</ele>
        <time>2024-09-19T13:51:41Z</time>
      </trkpt>
      <trkpt lat="45.94106" lon="4.73351">
        <ele>199.6</ele>
        <time>2024-09-19T13:51:42Z</time>
      </trkpt>
      <trkpt lat="45.94103" lon="4.73356">
        <ele>199.6</ele>
        <time>2024-09-19T13:51:43Z</time>
      </trkpt>
      <trkpt lat="45.94101" lon="4.73361">
        <ele>199.6</ele>
        <time>2024-09-19T13:51:44Z</time>
      </trkpt>
      <trkpt lat="45.94097" lon="4.73366">
        <ele>199.6</ele>
        <time>2024-09-19T13:51:45Z</time>
      </trkpt>
      <trkpt lat="45.94094" lon="4.73371">
        <ele>199.6</ele>
        <time>2024-09-19T13:51:46Z</time>
      </trkpt>
      <trkpt lat="45.94091" lon="4.73375">
        <ele>199.6</ele>
        <time>2024-09-19T13:51:47Z</time>
      </trkpt>
      <trkpt lat="45.94088" lon="4.7338">
        <ele>199.6</ele>
        <time>2024-09-19T13:51:48Z</time>
      </trkpt>
      <trkpt lat="45.94085" lon="4.73385">
        <ele>199.6</ele>
        <time>2024-09-19T13:51:49Z</time>
      </trkpt>
      <trkpt lat="45.94082" lon="4.7339">
        <ele>199.6</ele>
        <time>2024-09-19T13:51:50Z</time>
      </trkpt>
      <trkpt lat="45.94079" lon="4.73394">
        <ele>199.6</ele>
        <time>2024-09-19T13:51:51Z</time>
      </trkpt>
      <trkpt lat="45.94076" lon="4.73399">
        <ele>199.6</ele>
        <time>2024-09-19T13:51:52Z</time>
      </trkpt>
      <trkpt lat="45.94073" lon="4.73404">
        <ele>199.6</ele>
        <time>2024-09-19T13:51:53Z</time>
      </trkpt>
      <trkpt lat="45.9407" lon="4.73409">
        <ele>199.6</ele>
        <time>2024-09-19T13:51:54Z</time>
      </trkpt>
      <trkpt lat="45.94067" lon="4.73415">
        <ele>199.6</ele>
        <time>2024-09-19T13:51:55Z</time>
      </trkpt>
      <trkpt lat="45.94064" lon="4.7342">
        <ele>199.6</ele>
        <time>2024-09-19T13:51:56Z</time>
      </trkpt>
      <trkpt lat="45.94061" lon="4.73425">
        <ele>199.6</ele>
        <time>2024-09-19T13:51:57Z</time>
      </trkpt>
      <trkpt lat="45.94058" lon="4.7343">
        <ele>199.6</ele>
        <time>2024-09-19T13:51:58Z</time>
      </trkpt>
      <trkpt lat="45.94055" lon="4.73435">
        <ele>199.4</ele>
        <time>2024-09-19T13:51:59Z</time>
      </trkpt>
      <trkpt lat="45.94053" lon="4.7344">
        <ele>199.2</ele>
        <time>2024-09-19T13:52:00Z</time>
      </trkpt>
      <trkpt lat="45.9405" lon="4.73445">
        <ele>199.2</ele>
        <time>2024-09-19T13:52:01Z</time>
      </trkpt>
      <trkpt lat="45.94047" lon="4.73451">
        <ele>199.2</ele>
        <time>2024-09-19T13:52:02Z</time>
      </trkpt>
      <trkpt lat="45.94044" lon="4.73456">
        <ele>199.4</ele>
        <time>2024-09-19T13:52:03Z</time>
      </trkpt>
      <trkpt lat="45.94042" lon="4.73461">
        <ele>199.6</ele>
        <time>2024-09-19T13:52:04Z</time>
      </trkpt>
      <trkpt lat="45.94039" lon="4.73466">
        <ele>199.6</ele>
        <time>2024-09-19T13:52:05Z</time>
      </trkpt>
      <trkpt lat="45.94036" lon="4.73471">
        <ele>199.6</ele>
        <time>2024-09-19T13:52:06Z</time>
      </trkpt>
      <trkpt lat="45.94033" lon="4.73477">
        <ele>199.2</ele>
        <time>2024-09-19T13:52:07Z</time>
      </trkpt>
      <trkpt lat="45.94031" lon="4.73482">
        <ele>199.2</ele>
        <time>2024-09-19T13:52:08Z</time>
      </trkpt>
      <trkpt lat="45.94028" lon="4.73487">
        <ele>199.4</ele>
        <time>2024-09-19T13:52:09Z</time>
      </trkpt>
      <trkpt lat="45.94024" lon="4.73494">
        <ele>199.4</ele>
        <time>2024-09-19T13:52:10Z</time>
      </trkpt>
      <trkpt lat="45.94022" lon="4.73497">
        <ele>199.4</ele>
        <time>2024-09-19T13:52:11Z</time>
      </trkpt>
      <trkpt lat="45.9402" lon="4.73501">
        <ele>199.4</ele>
        <time>2024-09-19T13:52:12Z</time>
      </trkpt>
      <trkpt lat="45.94017" lon="4.73506">
        <ele>199.4</ele>
        <time>2024-09-19T13:52:13Z</time>
      </trkpt>
      <trkpt lat="45.94015" lon="4.7351">
        <ele>199</ele>
        <time>2024-09-19T13:52:14Z</time>
      </trkpt>
      <trkpt lat="45.94012" lon="4.73514">
        <ele>199</ele>
        <time>2024-09-19T13:52:15Z</time>
      </trkpt>
      <trkpt lat="45.9401" lon="4.73519">
        <ele>199</ele>
        <time>2024-09-19T13:52:16Z</time>
      </trkpt>
      <trkpt lat="45.94008" lon="4.73524">
        <ele>199</ele>
        <time>2024-09-19T13:52:17Z</time>
      </trkpt>
      <trkpt lat="45.94006" lon="4.73528">
        <ele>199</ele>
        <time>2024-09-19T13:52:18Z</time>
      </trkpt>
      <trkpt lat="45.94003" lon="4.73533">
        <ele>199</ele>
        <time>2024-09-19T13:52:19Z</time>
      </trkpt>
      <trkpt lat="45.94001" lon="4.73538">
        <ele>199</ele>
        <time>2024-09-19T13:52:20Z</time>
      </trkpt>
      <trkpt lat="45.93999" lon="4.73543">
        <ele>199</ele>
        <time>2024-09-19T13:52:21Z</time>
      </trkpt>
      <trkpt lat="45.93997" lon="4.73549">
        <ele>199</ele>
        <time>2024-09-19T13:52:22Z</time>
      </trkpt>
      <trkpt lat="45.93995" lon="4.73554">
        <ele>199</ele>
        <time>2024-09-19T13:52:23Z</time>
      </trkpt>
      <trkpt lat="45.93993" lon="4.7356">
        <ele>199</ele>
        <time>2024-09-19T13:52:24Z</time>
      </trkpt>
      <trkpt lat="45.93991" lon="4.73566">
        <ele>199</ele>
        <time>2024-09-19T13:52:25Z</time>
      </trkpt>
      <trkpt lat="45.93989" lon="4.73572">
        <ele>199</ele>
        <time>2024-09-19T13:52:26Z</time>
      </trkpt>
      <trkpt lat="45.93987" lon="4.73578">
        <ele>199.2</ele>
        <time>2024-09-19T13:52:27Z</time>
      </trkpt>
      <trkpt lat="45.93985" lon="4.73584">
        <ele>199.2</ele>
        <time>2024-09-19T13:52:28Z</time>
      </trkpt>
      <trkpt lat="45.93983" lon="4.73589">
        <ele>199.2</ele>
        <time>2024-09-19T13:52:29Z</time>
      </trkpt>
      <trkpt lat="45.93981" lon="4.73595">
        <ele>199.2</ele>
        <time>2024-09-19T13:52:30Z</time>
      </trkpt>
      <trkpt lat="45.93979" lon="4.736">
        <ele>199.2</ele>
        <time>2024-09-19T13:52:31Z</time>
      </trkpt>
      <trkpt lat="45.93978" lon="4.73606">
        <ele>199.2</ele>
        <time>2024-09-19T13:52:32Z</time>
      </trkpt>
      <trkpt lat="45.93977" lon="4.73612">
        <ele>199.2</ele>
        <time>2024-09-19T13:52:33Z</time>
      </trkpt>
      <trkpt lat="45.93975" lon="4.73618">
        <ele>199.2</ele>
        <time>2024-09-19T13:52:34Z</time>
      </trkpt>
      <trkpt lat="45.93974" lon="4.73624">
        <ele>199.2</ele>
        <time>2024-09-19T13:52:35Z</time>
      </trkpt>
      <trkpt lat="45.93972" lon="4.7363">
        <ele>199.2</ele>
        <time>2024-09-19T13:52:36Z</time>
      </trkpt>
      <trkpt lat="45.93971" lon="4.73636">
        <ele>199.2</ele>
        <time>2024-09-19T13:52:37Z</time>
      </trkpt>
      <trkpt lat="45.9397" lon="4.73642">
        <ele>199.2</ele>
        <time>2024-09-19T13:52:38Z</time>
      </trkpt>
      <trkpt lat="45.93968" lon="4.73648">
        <ele>199.2</ele>
        <time>2024-09-19T13:52:39Z</time>
      </trkpt>
      <trkpt lat="45.93967" lon="4.73654">
        <ele>199.2</ele>
        <time>2024-09-19T13:52:40Z</time>
      </trkpt>
      <trkpt lat="45.93966" lon="4.7366">
        <ele>199.4</ele>
        <time>2024-09-19T13:52:41Z</time>
      </trkpt>
      <trkpt lat="45.93965" lon="4.73666">
        <ele>199.4</ele>
        <time>2024-09-19T13:52:42Z</time>
      </trkpt>
      <trkpt lat="45.93963" lon="4.73672">
        <ele>199.4</ele>
        <time>2024-09-19T13:52:43Z</time>
      </trkpt>
      <trkpt lat="45.93962" lon="4.73678">
        <ele>199.4</ele>
        <time>2024-09-19T13:52:44Z</time>
      </trkpt>
      <trkpt lat="45.93961" lon="4.73685">
        <ele>199.4</ele>
        <time>2024-09-19T13:52:45Z</time>
      </trkpt>
      <trkpt lat="45.9396" lon="4.73691">
        <ele>199.4</ele>
        <time>2024-09-19T13:52:46Z</time>
      </trkpt>
      <trkpt lat="45.9396" lon="4.73697">
        <ele>199.4</ele>
        <time>2024-09-19T13:52:47Z</time>
      </trkpt>
      <trkpt lat="45.93959" lon="4.73703">
        <ele>199.4</ele>
        <time>2024-09-19T13:52:48Z</time>
      </trkpt>
      <trkpt lat="45.93959" lon="4.73709">
        <ele>199.2</ele>
        <time>2024-09-19T13:52:49Z</time>
      </trkpt>
      <trkpt lat="45.93958" lon="4.73716">
        <ele>199.2</ele>
        <time>2024-09-19T13:52:50Z</time>
      </trkpt>
      <trkpt lat="45.93957" lon="4.73722">
        <ele>199.2</ele>
        <time>2024-09-19T13:52:51Z</time>
      </trkpt>
      <trkpt lat="45.93956" lon="4.73729">
        <ele>199.2</ele>
        <time>2024-09-19T13:52:52Z</time>
      </trkpt>
      <trkpt lat="45.93955" lon="4.73739">
        <ele>199.2</ele>
        <time>2024-09-19T13:52:53Z</time>
      </trkpt>
      <trkpt lat="45.93955" lon="4.73742">
        <ele>199</ele>
        <time>2024-09-19T13:52:54Z</time>
      </trkpt>
      <trkpt lat="45.93954" lon="4.73748">
        <ele>199</ele>
        <time>2024-09-19T13:52:55Z</time>
      </trkpt>
      <trkpt lat="45.93953" lon="4.73755">
        <ele>199</ele>
        <time>2024-09-19T13:52:56Z</time>
      </trkpt>
      <trkpt lat="45.93953" lon="4.73761">
        <ele>199</ele>
        <time>2024-09-19T13:52:57Z</time>
      </trkpt>
      <trkpt lat="45.93952" lon="4.73768">
        <ele>198.8</ele>
        <time>2024-09-19T13:52:58Z</time>
      </trkpt>
      <trkpt lat="45.93951" lon="4.73775">
        <ele>198.8</ele>
        <time>2024-09-19T13:52:59Z</time>
      </trkpt>
      <trkpt lat="45.93951" lon="4.73781">
        <ele>198.8</ele>
        <time>2024-09-19T13:53:00Z</time>
      </trkpt>
      <trkpt lat="45.9395" lon="4.73788">
        <ele>198.8</ele>
        <time>2024-09-19T13:53:01Z</time>
      </trkpt>
      <trkpt lat="45.9395" lon="4.73795">
        <ele>199.2</ele>
        <time>2024-09-19T13:53:02Z</time>
      </trkpt>
      <trkpt lat="45.93949" lon="4.73801">
        <ele>199.2</ele>
        <time>2024-09-19T13:53:03Z</time>
      </trkpt>
      <trkpt lat="45.93948" lon="4.73808">
        <ele>199.2</ele>
        <time>2024-09-19T13:53:04Z</time>
      </trkpt>
      <trkpt lat="45.93948" lon="4.73815">
        <ele>199.2</ele>
        <time>2024-09-19T13:53:05Z</time>
      </trkpt>
      <trkpt lat="45.93947" lon="4.73822">
        <ele>198.8</ele>
        <time>2024-09-19T13:53:06Z</time>
      </trkpt>
      <trkpt lat="45.93946" lon="4.73828">
        <ele>198.8</ele>
        <time>2024-09-19T13:53:07Z</time>
      </trkpt>
      <trkpt lat="45.93945" lon="4.73835">
        <ele>199</ele>
        <time>2024-09-19T13:53:08Z</time>
      </trkpt>
      <trkpt lat="45.93945" lon="4.73841">
        <ele>199</ele>
        <time>2024-09-19T13:53:09Z</time>
      </trkpt>
      <trkpt lat="45.93944" lon="4.73847">
        <ele>199</ele>
        <time>2024-09-19T13:53:10Z</time>
      </trkpt>
      <trkpt lat="45.93943" lon="4.73854">
        <ele>199</ele>
        <time>2024-09-19T13:53:11Z</time>
      </trkpt>
      <trkpt lat="45.93942" lon="4.7386">
        <ele>198.8</ele>
        <time>2024-09-19T13:53:12Z</time>
      </trkpt>
      <trkpt lat="45.93941" lon="4.73866">
        <ele>198.8</ele>
        <time>2024-09-19T13:53:13Z</time>
      </trkpt>
      <trkpt lat="45.9394" lon="4.73873">
        <ele>198.8</ele>
        <time>2024-09-19T13:53:14Z</time>
      </trkpt>
      <trkpt lat="45.9394" lon="4.73879">
        <ele>198.8</ele>
        <time>2024-09-19T13:53:15Z</time>
      </trkpt>
      <trkpt lat="45.93939" lon="4.73886">
        <ele>198.8</ele>
        <time>2024-09-19T13:53:16Z</time>
      </trkpt>
      <trkpt lat="45.93939" lon="4.73892">
        <ele>198.8</ele>
        <time>2024-09-19T13:53:17Z</time>
      </trkpt>
      <trkpt lat="45.93938" lon="4.73898">
        <ele>198.8</ele>
        <time>2024-09-19T13:53:18Z</time>
      </trkpt>
      <trkpt lat="45.93937" lon="4.73905">
        <ele>198.8</ele>
        <time>2024-09-19T13:53:19Z</time>
      </trkpt>
      <trkpt lat="45.93936" lon="4.73911">
        <ele>198.8</ele>
        <time>2024-09-19T13:53:20Z</time>
      </trkpt>
      <trkpt lat="45.93935" lon="4.73917">
        <ele>199.2</ele>
        <time>2024-09-19T13:53:21Z</time>
      </trkpt>
      <trkpt lat="45.93934" lon="4.73924">
        <ele>199.2</ele>
        <time>2024-09-19T13:53:22Z</time>
      </trkpt>
      <trkpt lat="45.93934" lon="4.7393">
        <ele>199.2</ele>
        <time>2024-09-19T13:53:23Z</time>
      </trkpt>
      <trkpt lat="45.93933" lon="4.73936">
        <ele>199.2</ele>
        <time>2024-09-19T13:53:24Z</time>
      </trkpt>
      <trkpt lat="45.93932" lon="4.73943">
        <ele>199.4</ele>
        <time>2024-09-19T13:53:25Z</time>
      </trkpt>
      <trkpt lat="45.93931" lon="4.73949">
        <ele>199.4</ele>
        <time>2024-09-19T13:53:26Z</time>
      </trkpt>
      <trkpt lat="45.9393" lon="4.73956">
        <ele>199.4</ele>
        <time>2024-09-19T13:53:27Z</time>
      </trkpt>
      <trkpt lat="45.93929" lon="4.73962">
        <ele>199.4</ele>
        <time>2024-09-19T13:53:28Z</time>
      </trkpt>
      <trkpt lat="45.93929" lon="4.73969">
        <ele>199.4</ele>
        <time>2024-09-19T13:53:29Z</time>
      </trkpt>
      <trkpt lat="45.93928" lon="4.73976">
        <ele>199.2</ele>
        <time>2024-09-19T13:53:30Z</time>
      </trkpt>
      <trkpt lat="45.93927" lon="4.73982">
        <ele>199.2</ele>
        <time>2024-09-19T13:53:31Z</time>
      </trkpt>
      <trkpt lat="45.93927" lon="4.73989">
        <ele>199.2</ele>
        <time>2024-09-19T13:53:32Z</time>
      </trkpt>
      <trkpt lat="45.93926" lon="4.73999">
        <ele>199.2</ele>
        <time>2024-09-19T13:53:33Z</time>
      </trkpt>
      <trkpt lat="45.93926" lon="4.74002">
        <ele>199</ele>
        <time>2024-09-19T13:53:34Z</time>
      </trkpt>
      <trkpt lat="45.93925" lon="4.74009">
        <ele>199</ele>
        <time>2024-09-19T13:53:35Z</time>
      </trkpt>
      <trkpt lat="45.93925" lon="4.74016">
        <ele>199</ele>
        <time>2024-09-19T13:53:36Z</time>
      </trkpt>
      <trkpt lat="45.93924" lon="4.74022">
        <ele>199</ele>
        <time>2024-09-19T13:53:37Z</time>
      </trkpt>
      <trkpt lat="45.93923" lon="4.74028">
        <ele>199</ele>
        <time>2024-09-19T13:53:38Z</time>
      </trkpt>
      <trkpt lat="45.93923" lon="4.74035">
        <ele>199.2</ele>
        <time>2024-09-19T13:53:39Z</time>
      </trkpt>
      <trkpt lat="45.93922" lon="4.74041">
        <ele>199.2</ele>
        <time>2024-09-19T13:53:40Z</time>
      </trkpt>
      <trkpt lat="45.93921" lon="4.74047">
        <ele>199.2</ele>
        <time>2024-09-19T13:53:41Z</time>
      </trkpt>
      <trkpt lat="45.93921" lon="4.74054">
        <ele>199.2</ele>
        <time>2024-09-19T13:53:42Z</time>
      </trkpt>
      <trkpt lat="45.93921" lon="4.7406">
        <ele>199.6</ele>
        <time>2024-09-19T13:53:43Z</time>
      </trkpt>
      <trkpt lat="45.93921" lon="4.74065">
        <ele>199.6</ele>
        <time>2024-09-19T13:53:44Z</time>
      </trkpt>
      <trkpt lat="45.9392" lon="4.74071">
        <ele>199.6</ele>
        <time>2024-09-19T13:53:45Z</time>
      </trkpt>
      <trkpt lat="45.93919" lon="4.74077">
        <ele>199.6</ele>
        <time>2024-09-19T13:53:46Z</time>
      </trkpt>
      <trkpt lat="45.93919" lon="4.74082">
        <ele>199.6</ele>
        <time>2024-09-19T13:53:47Z</time>
      </trkpt>
      <trkpt lat="45.93918" lon="4.74088">
        <ele>199.6</ele>
        <time>2024-09-19T13:53:48Z</time>
      </trkpt>
      <trkpt lat="45.93917" lon="4.74094">
        <ele>199.6</ele>
        <time>2024-09-19T13:53:49Z</time>
      </trkpt>
      <trkpt lat="45.93916" lon="4.741">
        <ele>199.6</ele>
        <time>2024-09-19T13:53:50Z</time>
      </trkpt>
      <trkpt lat="45.93916" lon="4.74106">
        <ele>199.6</ele>
        <time>2024-09-19T13:53:51Z</time>
      </trkpt>
      <trkpt lat="45.93916" lon="4.74113">
        <ele>199.6</ele>
        <time>2024-09-19T13:53:52Z</time>
      </trkpt>
      <trkpt lat="45.93915" lon="4.74119">
        <ele>199.6</ele>
        <time>2024-09-19T13:53:53Z</time>
      </trkpt>
      <trkpt lat="45.93915" lon="4.74126">
        <ele>199.6</ele>
        <time>2024-09-19T13:53:54Z</time>
      </trkpt>
      <trkpt lat="45.93914" lon="4.74133">
        <ele>199.6</ele>
        <time>2024-09-19T13:53:55Z</time>
      </trkpt>
      <trkpt lat="45.93914" lon="4.74139">
        <ele>199.6</ele>
        <time>2024-09-19T13:53:56Z</time>
      </trkpt>
      <trkpt lat="45.93913" lon="4.74145">
        <ele>199.2</ele>
        <time>2024-09-19T13:53:57Z</time>
      </trkpt>
      <trkpt lat="45.93913" lon="4.74151">
        <ele>199.2</ele>
        <time>2024-09-19T13:53:58Z</time>
      </trkpt>
      <trkpt lat="45.93912" lon="4.74158">
        <ele>199.2</ele>
        <time>2024-09-19T13:53:59Z</time>
      </trkpt>
      <trkpt lat="45.93911" lon="4.74164">
        <ele>199.2</ele>
        <time>2024-09-19T13:54:00Z</time>
      </trkpt>
      <trkpt lat="45.93911" lon="4.74171">
        <ele>199.6</ele>
        <time>2024-09-19T13:54:01Z</time>
      </trkpt>
      <trkpt lat="45.93911" lon="4.74177">
        <ele>199.4</ele>
        <time>2024-09-19T13:54:02Z</time>
      </trkpt>
      <trkpt lat="45.9391" lon="4.74183">
        <ele>199.4</ele>
        <time>2024-09-19T13:54:03Z</time>
      </trkpt>
      <trkpt lat="45.9391" lon="4.74189">
        <ele>199.4</ele>
        <time>2024-09-19T13:54:04Z</time>
      </trkpt>
      <trkpt lat="45.9391" lon="4.74196">
        <ele>199.8</ele>
        <time>2024-09-19T13:54:05Z</time>
      </trkpt>
      <trkpt lat="45.93909" lon="4.74202">
        <ele>199.2</ele>
        <time>2024-09-19T13:54:06Z</time>
      </trkpt>
      <trkpt lat="45.93909" lon="4.74209">
        <ele>199.2</ele>
        <time>2024-09-19T13:54:07Z</time>
      </trkpt>
      <trkpt lat="45.93909" lon="4.74215">
        <ele>199.2</ele>
        <time>2024-09-19T13:54:08Z</time>
      </trkpt>
      <trkpt lat="45.93908" lon="4.74221">
        <ele>199.2</ele>
        <time>2024-09-19T13:54:09Z</time>
      </trkpt>
      <trkpt lat="45.93908" lon="4.74228">
        <ele>199.2</ele>
        <time>2024-09-19T13:54:10Z</time>
      </trkpt>
      <trkpt lat="45.93908" lon="4.74234">
        <ele>199.4</ele>
        <time>2024-09-19T13:54:11Z</time>
      </trkpt>
      <trkpt lat="45.93907" lon="4.7424">
        <ele>199.4</ele>
        <time>2024-09-19T13:54:12Z</time>
      </trkpt>
      <trkpt lat="45.93907" lon="4.74247">
        <ele>199.4</ele>
        <time>2024-09-19T13:54:13Z</time>
      </trkpt>
      <trkpt lat="45.93906" lon="4.74253">
        <ele>199.4</ele>
        <time>2024-09-19T13:54:14Z</time>
      </trkpt>
      <trkpt lat="45.93906" lon="4.74259">
        <ele>199.4</ele>
        <time>2024-09-19T13:54:15Z</time>
      </trkpt>
      <trkpt lat="45.93906" lon="4.74266">
        <ele>199.4</ele>
        <time>2024-09-19T13:54:16Z</time>
      </trkpt>
      <trkpt lat="45.93906" lon="4.74276">
        <ele>199.4</ele>
        <time>2024-09-19T13:54:17Z</time>
      </trkpt>
      <trkpt lat="45.93905" lon="4.74279">
        <ele>199.4</ele>
        <time>2024-09-19T13:54:18Z</time>
      </trkpt>
      <trkpt lat="45.93905" lon="4.74286">
        <ele>199.6</ele>
        <time>2024-09-19T13:54:19Z</time>
      </trkpt>
      <trkpt lat="45.93905" lon="4.74292">
        <ele>199.6</ele>
        <time>2024-09-19T13:54:20Z</time>
      </trkpt>
      <trkpt lat="45.93905" lon="4.74299">
        <ele>199.6</ele>
        <time>2024-09-19T13:54:21Z</time>
      </trkpt>
      <trkpt lat="45.93905" lon="4.74309">
        <ele>199.6</ele>
        <time>2024-09-19T13:54:22Z</time>
      </trkpt>
      <trkpt lat="45.93905" lon="4.74312">
        <ele>199.2</ele>
        <time>2024-09-19T13:54:23Z</time>
      </trkpt>
      <trkpt lat="45.93905" lon="4.74322">
        <ele>199.2</ele>
        <time>2024-09-19T13:54:24Z</time>
      </trkpt>
      <trkpt lat="45.93904" lon="4.74326">
        <ele>199.2</ele>
        <time>2024-09-19T13:54:25Z</time>
      </trkpt>
      <trkpt lat="45.93905" lon="4.74332">
        <ele>199.2</ele>
        <time>2024-09-19T13:54:26Z</time>
      </trkpt>
      <trkpt lat="45.93905" lon="4.74339">
        <ele>199.2</ele>
        <time>2024-09-19T13:54:27Z</time>
      </trkpt>
      <trkpt lat="45.93905" lon="4.74346">
        <ele>199.2</ele>
        <time>2024-09-19T13:54:28Z</time>
      </trkpt>
      <trkpt lat="45.93906" lon="4.74352">
        <ele>199.2</ele>
        <time>2024-09-19T13:54:29Z</time>
      </trkpt>
      <trkpt lat="45.93906" lon="4.74359">
        <ele>199.2</ele>
        <time>2024-09-19T13:54:30Z</time>
      </trkpt>
      <trkpt lat="45.93906" lon="4.74365">
        <ele>199.2</ele>
        <time>2024-09-19T13:54:31Z</time>
      </trkpt>
      <trkpt lat="45.93906" lon="4.74372">
        <ele>199</ele>
        <time>2024-09-19T13:54:32Z</time>
      </trkpt>
      <trkpt lat="45.93906" lon="4.74378">
        <ele>199</ele>
        <time>2024-09-19T13:54:33Z</time>
      </trkpt>
      <trkpt lat="45.93907" lon="4.74385">
        <ele>199</ele>
        <time>2024-09-19T13:54:34Z</time>
      </trkpt>
      <trkpt lat="45.93907" lon="4.74391">
        <ele>199</ele>
        <time>2024-09-19T13:54:35Z</time>
      </trkpt>
      <trkpt lat="45.93908" lon="4.74396">
        <ele>199</ele>
        <time>2024-09-19T13:54:36Z</time>
      </trkpt>
      <trkpt lat="45.93909" lon="4.74403">
        <ele>199</ele>
        <time>2024-09-19T13:54:37Z</time>
      </trkpt>
      <trkpt lat="45.93909" lon="4.74409">
        <ele>199</ele>
        <time>2024-09-19T13:54:38Z</time>
      </trkpt>
      <trkpt lat="45.9391" lon="4.74415">
        <ele>199</ele>
        <time>2024-09-19T13:54:39Z</time>
      </trkpt>
      <trkpt lat="45.9391" lon="4.74421">
        <ele>199</ele>
        <time>2024-09-19T13:54:40Z</time>
      </trkpt>
      <trkpt lat="45.9391" lon="4.74427">
        <ele>199.4</ele>
        <time>2024-09-19T13:54:41Z</time>
      </trkpt>
      <trkpt lat="45.9391" lon="4.74434">
        <ele>199.2</ele>
        <time>2024-09-19T13:54:42Z</time>
      </trkpt>
      <trkpt lat="45.93911" lon="4.7444">
        <ele>199.2</ele>
        <time>2024-09-19T13:54:43Z</time>
      </trkpt>
      <trkpt lat="45.93911" lon="4.74447">
        <ele>199.2</ele>
        <time>2024-09-19T13:54:44Z</time>
      </trkpt>
      <trkpt lat="45.93912" lon="4.74453">
        <ele>199.6</ele>
        <time>2024-09-19T13:54:45Z</time>
      </trkpt>
      <trkpt lat="45.93912" lon="4.74459">
        <ele>199.6</ele>
        <time>2024-09-19T13:54:46Z</time>
      </trkpt>
      <trkpt lat="45.93912" lon="4.74465">
        <ele>199</ele>
        <time>2024-09-19T13:54:47Z</time>
      </trkpt>
      <trkpt lat="45.93912" lon="4.74472">
        <ele>199</ele>
        <time>2024-09-19T13:54:48Z</time>
      </trkpt>
      <trkpt lat="45.93911" lon="4.74479">
        <ele>199</ele>
        <time>2024-09-19T13:54:49Z</time>
      </trkpt>
      <trkpt lat="45.93911" lon="4.74485">
        <ele>199.8</ele>
        <time>2024-09-19T13:54:50Z</time>
      </trkpt>
      <trkpt lat="45.9391" lon="4.74491">
        <ele>200</ele>
        <time>2024-09-19T13:54:51Z</time>
      </trkpt>
      <trkpt lat="45.9391" lon="4.74498">
        <ele>200</ele>
        <time>2024-09-19T13:54:52Z</time>
      </trkpt>
      <trkpt lat="45.9391" lon="4.74504">
        <ele>200</ele>
        <time>2024-09-19T13:54:53Z</time>
      </trkpt>
      <trkpt lat="45.9391" lon="4.7451">
        <ele>199.8</ele>
        <time>2024-09-19T13:54:54Z</time>
      </trkpt>
      <trkpt lat="45.9391" lon="4.74517">
        <ele>199.8</ele>
        <time>2024-09-19T13:54:55Z</time>
      </trkpt>
      <trkpt lat="45.9391" lon="4.74523">
        <ele>199.8</ele>
        <time>2024-09-19T13:54:56Z</time>
      </trkpt>
      <trkpt lat="45.93909" lon="4.74529">
        <ele>199.8</ele>
        <time>2024-09-19T13:54:57Z</time>
      </trkpt>
      <trkpt lat="45.93909" lon="4.74536">
        <ele>199.8</ele>
        <time>2024-09-19T13:54:58Z</time>
      </trkpt>
      <trkpt lat="45.93908" lon="4.74542">
        <ele>199.8</ele>
        <time>2024-09-19T13:54:59Z</time>
      </trkpt>
      <trkpt lat="45.93907" lon="4.74548">
        <ele>199.6</ele>
        <time>2024-09-19T13:55:00Z</time>
      </trkpt>
      <trkpt lat="45.93906" lon="4.74554">
        <ele>199.6</ele>
        <time>2024-09-19T13:55:01Z</time>
      </trkpt>
      <trkpt lat="45.93905" lon="4.7456">
        <ele>199.6</ele>
        <time>2024-09-19T13:55:02Z</time>
      </trkpt>
      <trkpt lat="45.93903" lon="4.74568">
        <ele>199.6</ele>
        <time>2024-09-19T13:55:03Z</time>
      </trkpt>
      <trkpt lat="45.93903" lon="4.74571">
        <ele>199.8</ele>
        <time>2024-09-19T13:55:04Z</time>
      </trkpt>
      <trkpt lat="45.93901" lon="4.7458">
        <ele>199.8</ele>
        <time>2024-09-19T13:55:05Z</time>
      </trkpt>
      <trkpt lat="45.939" lon="4.74583">
        <ele>199.8</ele>
        <time>2024-09-19T13:55:06Z</time>
      </trkpt>
      <trkpt lat="45.93899" lon="4.74588">
        <ele>199.8</ele>
        <time>2024-09-19T13:55:07Z</time>
      </trkpt>
      <trkpt lat="45.93897" lon="4.74594">
        <ele>199.8</ele>
        <time>2024-09-19T13:55:08Z</time>
      </trkpt>
      <trkpt lat="45.93896" lon="4.746">
        <ele>199.8</ele>
        <time>2024-09-19T13:55:09Z</time>
      </trkpt>
      <trkpt lat="45.93894" lon="4.74606">
        <ele>199.8</ele>
        <time>2024-09-19T13:55:10Z</time>
      </trkpt>
      <trkpt lat="45.93893" lon="4.74612">
        <ele>199.8</ele>
        <time>2024-09-19T13:55:11Z</time>
      </trkpt>
      <trkpt lat="45.93891" lon="4.74618">
        <ele>199.6</ele>
        <time>2024-09-19T13:55:12Z</time>
      </trkpt>
      <trkpt lat="45.93889" lon="4.74624">
        <ele>199.6</ele>
        <time>2024-09-19T13:55:13Z</time>
      </trkpt>
      <trkpt lat="45.93888" lon="4.7463">
        <ele>199.6</ele>
        <time>2024-09-19T13:55:14Z</time>
      </trkpt>
      <trkpt lat="45.93886" lon="4.74635">
        <ele>199.6</ele>
        <time>2024-09-19T13:55:15Z</time>
      </trkpt>
      <trkpt lat="45.93884" lon="4.74641">
        <ele>199.4</ele>
        <time>2024-09-19T13:55:16Z</time>
      </trkpt>
      <trkpt lat="45.93882" lon="4.74647">
        <ele>199.4</ele>
        <time>2024-09-19T13:55:17Z</time>
      </trkpt>
      <trkpt lat="45.93881" lon="4.74653">
        <ele>199.4</ele>
        <time>2024-09-19T13:55:18Z</time>
      </trkpt>
      <trkpt lat="45.93878" lon="4.74659">
        <ele>199.4</ele>
        <time>2024-09-19T13:55:19Z</time>
      </trkpt>
      <trkpt lat="45.93877" lon="4.74665">
        <ele>199.4</ele>
        <time>2024-09-19T13:55:20Z</time>
      </trkpt>
      <trkpt lat="45.93874" lon="4.74671">
        <ele>199.4</ele>
        <time>2024-09-19T13:55:21Z</time>
      </trkpt>
      <trkpt lat="45.93872" lon="4.74677">
        <ele>199.4</ele>
        <time>2024-09-19T13:55:22Z</time>
      </trkpt>
      <trkpt lat="45.9387" lon="4.74683">
        <ele>199</ele>
        <time>2024-09-19T13:55:23Z</time>
      </trkpt>
      <trkpt lat="45.93868" lon="4.74689">
        <ele>199</ele>
        <time>2024-09-19T13:55:24Z</time>
      </trkpt>
      <trkpt lat="45.93866" lon="4.74695">
        <ele>199</ele>
        <time>2024-09-19T13:55:25Z</time>
      </trkpt>
      <trkpt lat="45.93864" lon="4.74701">
        <ele>199.2</ele>
        <time>2024-09-19T13:55:26Z</time>
      </trkpt>
      <trkpt lat="45.93861" lon="4.74707">
        <ele>199.4</ele>
        <time>2024-09-19T13:55:27Z</time>
      </trkpt>
      <trkpt lat="45.93859" lon="4.74713">
        <ele>199.4</ele>
        <time>2024-09-19T13:55:28Z</time>
      </trkpt>
      <trkpt lat="45.93857" lon="4.74719">
        <ele>199.4</ele>
        <time>2024-09-19T13:55:29Z</time>
      </trkpt>
      <trkpt lat="45.93854" lon="4.74724">
        <ele>199.4</ele>
        <time>2024-09-19T13:55:30Z</time>
      </trkpt>
      <trkpt lat="45.93852" lon="4.7473">
        <ele>199.4</ele>
        <time>2024-09-19T13:55:31Z</time>
      </trkpt>
      <trkpt lat="45.93849" lon="4.74736">
        <ele>199.4</ele>
        <time>2024-09-19T13:55:32Z</time>
      </trkpt>
      <trkpt lat="45.93847" lon="4.74741">
        <ele>199.4</ele>
        <time>2024-09-19T13:55:33Z</time>
      </trkpt>
      <trkpt lat="45.93845" lon="4.74746">
        <ele>199.4</ele>
        <time>2024-09-19T13:55:34Z</time>
      </trkpt>
      <trkpt lat="45.93842" lon="4.74751">
        <ele>199</ele>
        <time>2024-09-19T13:55:35Z</time>
      </trkpt>
      <trkpt lat="45.93839" lon="4.74756">
        <ele>199.4</ele>
        <time>2024-09-19T13:55:36Z</time>
      </trkpt>
      <trkpt lat="45.93837" lon="4.74761">
        <ele>199.4</ele>
        <time>2024-09-19T13:55:37Z</time>
      </trkpt>
      <trkpt lat="45.93834" lon="4.74767">
        <ele>199.4</ele>
        <time>2024-09-19T13:55:38Z</time>
      </trkpt>
      <trkpt lat="45.93832" lon="4.74771">
        <ele>199.4</ele>
        <time>2024-09-19T13:55:39Z</time>
      </trkpt>
      <trkpt lat="45.9383" lon="4.74776">
        <ele>199.6</ele>
        <time>2024-09-19T13:55:40Z</time>
      </trkpt>
      <trkpt lat="45.93827" lon="4.7478">
        <ele>199.6</ele>
        <time>2024-09-19T13:55:41Z</time>
      </trkpt>
      <trkpt lat="45.93825" lon="4.74786">
        <ele>199.6</ele>
        <time>2024-09-19T13:55:42Z</time>
      </trkpt>
      <trkpt lat="45.93822" lon="4.74792">
        <ele>199.6</ele>
        <time>2024-09-19T13:55:43Z</time>
      </trkpt>
      <trkpt lat="45.93819" lon="4.74797">
        <ele>199.4</ele>
        <time>2024-09-19T13:55:44Z</time>
      </trkpt>
      <trkpt lat="45.93816" lon="4.74803">
        <ele>199.4</ele>
        <time>2024-09-19T13:55:45Z</time>
      </trkpt>
      <trkpt lat="45.93814" lon="4.74809">
        <ele>199.4</ele>
        <time>2024-09-19T13:55:46Z</time>
      </trkpt>
      <trkpt lat="45.93811" lon="4.74815">
        <ele>199.4</ele>
        <time>2024-09-19T13:55:47Z</time>
      </trkpt>
      <trkpt lat="45.93808" lon="4.74821">
        <ele>199.4</ele>
        <time>2024-09-19T13:55:48Z</time>
      </trkpt>
      <trkpt lat="45.93804" lon="4.74826">
        <ele>199.4</ele>
        <time>2024-09-19T13:55:49Z</time>
      </trkpt>
      <trkpt lat="45.93801" lon="4.74832">
        <ele>199.6</ele>
        <time>2024-09-19T13:55:50Z</time>
      </trkpt>
      <trkpt lat="45.93798" lon="4.74838">
        <ele>199.6</ele>
        <time>2024-09-19T13:55:51Z</time>
      </trkpt>
      <trkpt lat="45.93794" lon="4.74843">
        <ele>199.6</ele>
        <time>2024-09-19T13:55:52Z</time>
      </trkpt>
      <trkpt lat="45.93791" lon="4.74849">
        <ele>199.6</ele>
        <time>2024-09-19T13:55:53Z</time>
      </trkpt>
      <trkpt lat="45.93788" lon="4.74854">
        <ele>199.6</ele>
        <time>2024-09-19T13:55:54Z</time>
      </trkpt>
      <trkpt lat="45.93785" lon="4.7486">
        <ele>199.6</ele>
        <time>2024-09-19T13:55:55Z</time>
      </trkpt>
      <trkpt lat="45.93782" lon="4.74865">
        <ele>199.6</ele>
        <time>2024-09-19T13:55:56Z</time>
      </trkpt>
      <trkpt lat="45.93778" lon="4.7487">
        <ele>199.6</ele>
        <time>2024-09-19T13:55:57Z</time>
      </trkpt>
      <trkpt lat="45.93775" lon="4.74876">
        <ele>199.2</ele>
        <time>2024-09-19T13:55:58Z</time>
      </trkpt>
      <trkpt lat="45.93772" lon="4.74882">
        <ele>199.2</ele>
        <time>2024-09-19T13:55:59Z</time>
      </trkpt>
      <trkpt lat="45.93768" lon="4.74887">
        <ele>199.2</ele>
        <time>2024-09-19T13:56:00Z</time>
      </trkpt>
      <trkpt lat="45.93765" lon="4.74893">
        <ele>199.2</ele>
        <time>2024-09-19T13:56:01Z</time>
      </trkpt>
      <trkpt lat="45.93762" lon="4.74899">
        <ele>199.2</ele>
        <time>2024-09-19T13:56:02Z</time>
      </trkpt>
      <trkpt lat="45.93759" lon="4.74904">
        <ele>199.2</ele>
        <time>2024-09-19T13:56:03Z</time>
      </trkpt>
      <trkpt lat="45.93756" lon="4.7491">
        <ele>199.2</ele>
        <time>2024-09-19T13:56:04Z</time>
      </trkpt>
      <trkpt lat="45.93754" lon="4.74915">
        <ele>199.2</ele>
        <time>2024-09-19T13:56:05Z</time>
      </trkpt>
      <trkpt lat="45.93751" lon="4.74921">
        <ele>199.2</ele>
        <time>2024-09-19T13:56:06Z</time>
      </trkpt>
      <trkpt lat="45.93749" lon="4.74926">
        <ele>199.2</ele>
        <time>2024-09-19T13:56:07Z</time>
      </trkpt>
      <trkpt lat="45.93746" lon="4.74932">
        <ele>199.4</ele>
        <time>2024-09-19T13:56:08Z</time>
      </trkpt>
      <trkpt lat="45.93743" lon="4.74937">
        <ele>199.4</ele>
        <time>2024-09-19T13:56:09Z</time>
      </trkpt>
      <trkpt lat="45.93741" lon="4.74943">
        <ele>199.4</ele>
        <time>2024-09-19T13:56:10Z</time>
      </trkpt>
      <trkpt lat="45.93738" lon="4.74949">
        <ele>199.2</ele>
        <time>2024-09-19T13:56:11Z</time>
      </trkpt>
      <trkpt lat="45.93736" lon="4.74954">
        <ele>199</ele>
        <time>2024-09-19T13:56:12Z</time>
      </trkpt>
      <trkpt lat="45.93733" lon="4.74959">
        <ele>199</ele>
        <time>2024-09-19T13:56:13Z</time>
      </trkpt>
      <trkpt lat="45.93731" lon="4.74964">
        <ele>199</ele>
        <time>2024-09-19T13:56:14Z</time>
      </trkpt>
      <trkpt lat="45.93729" lon="4.74969">
        <ele>199</ele>
        <time>2024-09-19T13:56:15Z</time>
      </trkpt>
      <trkpt lat="45.93726" lon="4.74974">
        <ele>198.8</ele>
        <time>2024-09-19T13:56:16Z</time>
      </trkpt>
      <trkpt lat="45.93724" lon="4.74979">
        <ele>199</ele>
        <time>2024-09-19T13:56:17Z</time>
      </trkpt>
      <trkpt lat="45.93722" lon="4.74985">
        <ele>199</ele>
        <time>2024-09-19T13:56:18Z</time>
      </trkpt>
      <trkpt lat="45.93719" lon="4.74991">
        <ele>199</ele>
        <time>2024-09-19T13:56:19Z</time>
      </trkpt>
      <trkpt lat="45.93716" lon="4.74997">
        <ele>199</ele>
        <time>2024-09-19T13:56:20Z</time>
      </trkpt>
      <trkpt lat="45.93714" lon="4.75002">
        <ele>198.8</ele>
        <time>2024-09-19T13:56:21Z</time>
      </trkpt>
      <trkpt lat="45.93712" lon="4.75008">
        <ele>198.8</ele>
        <time>2024-09-19T13:56:22Z</time>
      </trkpt>
      <trkpt lat="45.93709" lon="4.75014">
        <ele>198.8</ele>
        <time>2024-09-19T13:56:23Z</time>
      </trkpt>
      <trkpt lat="45.93705" lon="4.7502">
        <ele>198.8</ele>
        <time>2024-09-19T13:56:24Z</time>
      </trkpt>
      <trkpt lat="45.93702" lon="4.75026">
        <ele>198.8</ele>
        <time>2024-09-19T13:56:25Z</time>
      </trkpt>
      <trkpt lat="45.937" lon="4.75032">
        <ele>199</ele>
        <time>2024-09-19T13:56:26Z</time>
      </trkpt>
      <trkpt lat="45.93697" lon="4.75039">
        <ele>199</ele>
        <time>2024-09-19T13:56:27Z</time>
      </trkpt>
      <trkpt lat="45.93693" lon="4.75047">
        <ele>199</ele>
        <time>2024-09-19T13:56:28Z</time>
      </trkpt>
      <trkpt lat="45.93692" lon="4.7505">
        <ele>199</ele>
        <time>2024-09-19T13:56:29Z</time>
      </trkpt>
      <trkpt lat="45.93689" lon="4.75056">
        <ele>198.4</ele>
        <time>2024-09-19T13:56:30Z</time>
      </trkpt>
      <trkpt lat="45.93686" lon="4.75062">
        <ele>198.4</ele>
        <time>2024-09-19T13:56:31Z</time>
      </trkpt>
      <trkpt lat="45.93683" lon="4.75068">
        <ele>198.4</ele>
        <time>2024-09-19T13:56:32Z</time>
      </trkpt>
      <trkpt lat="45.9368" lon="4.75074">
        <ele>198.8</ele>
        <time>2024-09-19T13:56:33Z</time>
      </trkpt>
      <trkpt lat="45.93678" lon="4.7508">
        <ele>198.6</ele>
        <time>2024-09-19T13:56:34Z</time>
      </trkpt>
      <trkpt lat="45.93675" lon="4.75086">
        <ele>198.6</ele>
        <time>2024-09-19T13:56:35Z</time>
      </trkpt>
      <trkpt lat="45.93672" lon="4.75092">
        <ele>198.6</ele>
        <time>2024-09-19T13:56:36Z</time>
      </trkpt>
      <trkpt lat="45.93669" lon="4.75099">
        <ele>198.6</ele>
        <time>2024-09-19T13:56:37Z</time>
      </trkpt>
      <trkpt lat="45.93666" lon="4.75105">
        <ele>198.6</ele>
        <time>2024-09-19T13:56:38Z</time>
      </trkpt>
      <trkpt lat="45.93664" lon="4.75111">
        <ele>198.6</ele>
        <time>2024-09-19T13:56:39Z</time>
      </trkpt>
      <trkpt lat="45.93661" lon="4.75117">
        <ele>198.6</ele>
        <time>2024-09-19T13:56:40Z</time>
      </trkpt>
      <trkpt lat="45.93659" lon="4.75123">
        <ele>198.6</ele>
        <time>2024-09-19T13:56:41Z</time>
      </trkpt>
      <trkpt lat="45.93656" lon="4.7513">
        <ele>198.6</ele>
        <time>2024-09-19T13:56:42Z</time>
      </trkpt>
      <trkpt lat="45.93654" lon="4.75136">
        <ele>198.6</ele>
        <time>2024-09-19T13:56:43Z</time>
      </trkpt>
      <trkpt lat="45.93651" lon="4.75142">
        <ele>198.8</ele>
        <time>2024-09-19T13:56:44Z</time>
      </trkpt>
      <trkpt lat="45.93648" lon="4.75148">
        <ele>198.8</ele>
        <time>2024-09-19T13:56:45Z</time>
      </trkpt>
      <trkpt lat="45.93645" lon="4.75154">
        <ele>198.8</ele>
        <time>2024-09-19T13:56:46Z</time>
      </trkpt>
      <trkpt lat="45.93643" lon="4.7516">
        <ele>198.6</ele>
        <time>2024-09-19T13:56:47Z</time>
      </trkpt>
      <trkpt lat="45.9364" lon="4.75166">
        <ele>198.8</ele>
        <time>2024-09-19T13:56:48Z</time>
      </trkpt>
      <trkpt lat="45.93638" lon="4.75173">
        <ele>198.8</ele>
        <time>2024-09-19T13:56:49Z</time>
      </trkpt>
      <trkpt lat="45.93636" lon="4.75179">
        <ele>198.8</ele>
        <time>2024-09-19T13:56:50Z</time>
      </trkpt>
      <trkpt lat="45.93634" lon="4.75186">
        <ele>198.8</ele>
        <time>2024-09-19T13:56:51Z</time>
      </trkpt>
      <trkpt lat="45.93633" lon="4.75192">
        <ele>198.8</ele>
        <time>2024-09-19T13:56:52Z</time>
      </trkpt>
      <trkpt lat="45.93631" lon="4.75199">
        <ele>199</ele>
        <time>2024-09-19T13:56:53Z</time>
      </trkpt>
      <trkpt lat="45.93628" lon="4.75205">
        <ele>199</ele>
        <time>2024-09-19T13:56:54Z</time>
      </trkpt>
      <trkpt lat="45.93626" lon="4.75212">
        <ele>199</ele>
        <time>2024-09-19T13:56:55Z</time>
      </trkpt>
      <trkpt lat="45.93624" lon="4.75218">
        <ele>198.8</ele>
        <time>2024-09-19T13:56:56Z</time>
      </trkpt>
      <trkpt lat="45.93622" lon="4.75224">
        <ele>199.2</ele>
        <time>2024-09-19T13:56:57Z</time>
      </trkpt>
      <trkpt lat="45.93621" lon="4.75231">
        <ele>199.2</ele>
        <time>2024-09-19T13:56:58Z</time>
      </trkpt>
      <trkpt lat="45.93619" lon="4.75237">
        <ele>199.2</ele>
        <time>2024-09-19T13:56:59Z</time>
      </trkpt>
      <trkpt lat="45.93617" lon="4.75244">
        <ele>199.2</ele>
        <time>2024-09-19T13:57:00Z</time>
      </trkpt>
      <trkpt lat="45.93615" lon="4.75254">
        <ele>199.2</ele>
        <time>2024-09-19T13:57:01Z</time>
      </trkpt>
      <trkpt lat="45.93614" lon="4.75257">
        <ele>199.2</ele>
        <time>2024-09-19T13:57:02Z</time>
      </trkpt>
      <trkpt lat="45.93613" lon="4.75264">
        <ele>199.2</ele>
        <time>2024-09-19T13:57:03Z</time>
      </trkpt>
      <trkpt lat="45.93611" lon="4.75271">
        <ele>199.2</ele>
        <time>2024-09-19T13:57:04Z</time>
      </trkpt>
      <trkpt lat="45.9361" lon="4.75278">
        <ele>199.4</ele>
        <time>2024-09-19T13:57:05Z</time>
      </trkpt>
      <trkpt lat="45.93609" lon="4.75284">
        <ele>199.6</ele>
        <time>2024-09-19T13:57:06Z</time>
      </trkpt>
      <trkpt lat="45.93608" lon="4.75291">
        <ele>199.6</ele>
        <time>2024-09-19T13:57:07Z</time>
      </trkpt>
      <trkpt lat="45.93607" lon="4.75298">
        <ele>199.6</ele>
        <time>2024-09-19T13:57:08Z</time>
      </trkpt>
      <trkpt lat="45.93606" lon="4.75304">
        <ele>199.6</ele>
        <time>2024-09-19T13:57:09Z</time>
      </trkpt>
      <trkpt lat="45.93604" lon="4.75311">
        <ele>199.6</ele>
        <time>2024-09-19T13:57:10Z</time>
      </trkpt>
      <trkpt lat="45.93603" lon="4.75318">
        <ele>199.6</ele>
        <time>2024-09-19T13:57:11Z</time>
      </trkpt>
      <trkpt lat="45.93601" lon="4.75328">
        <ele>199.6</ele>
        <time>2024-09-19T13:57:12Z</time>
      </trkpt>
      <trkpt lat="45.936" lon="4.75331">
        <ele>199.6</ele>
        <time>2024-09-19T13:57:13Z</time>
      </trkpt>
      <trkpt lat="45.93599" lon="4.75341">
        <ele>199.8</ele>
        <time>2024-09-19T13:57:14Z</time>
      </trkpt>
      <trkpt lat="45.93598" lon="4.75344">
        <ele>199.8</ele>
        <time>2024-09-19T13:57:15Z</time>
      </trkpt>
      <trkpt lat="45.93597" lon="4.75351">
        <ele>199.8</ele>
        <time>2024-09-19T13:57:16Z</time>
      </trkpt>
      <trkpt lat="45.93596" lon="4.75357">
        <ele>199.8</ele>
        <time>2024-09-19T13:57:17Z</time>
      </trkpt>
      <trkpt lat="45.93594" lon="4.75363">
        <ele>199.8</ele>
        <time>2024-09-19T13:57:18Z</time>
      </trkpt>
      <trkpt lat="45.93593" lon="4.75373">
        <ele>199.6</ele>
        <time>2024-09-19T13:57:19Z</time>
      </trkpt>
      <trkpt lat="45.93592" lon="4.75376">
        <ele>199.6</ele>
        <time>2024-09-19T13:57:20Z</time>
      </trkpt>
      <trkpt lat="45.93591" lon="4.75383">
        <ele>199.6</ele>
        <time>2024-09-19T13:57:21Z</time>
      </trkpt>
      <trkpt lat="45.9359" lon="4.75389">
        <ele>200</ele>
        <time>2024-09-19T13:57:22Z</time>
      </trkpt>
      <trkpt lat="45.93588" lon="4.75395">
        <ele>200</ele>
        <time>2024-09-19T13:57:23Z</time>
      </trkpt>
      <trkpt lat="45.93586" lon="4.75405">
        <ele>200</ele>
        <time>2024-09-19T13:57:24Z</time>
      </trkpt>
      <trkpt lat="45.93585" lon="4.75408">
        <ele>200</ele>
        <time>2024-09-19T13:57:25Z</time>
      </trkpt>
      <trkpt lat="45.93584" lon="4.75415">
        <ele>200</ele>
        <time>2024-09-19T13:57:26Z</time>
      </trkpt>
      <trkpt lat="45.93583" lon="4.75422">
        <ele>200</ele>
        <time>2024-09-19T13:57:27Z</time>
      </trkpt>
      <trkpt lat="45.93582" lon="4.75428">
        <ele>199.8</ele>
        <time>2024-09-19T13:57:28Z</time>
      </trkpt>
      <trkpt lat="45.93581" lon="4.75434">
        <ele>200</ele>
        <time>2024-09-19T13:57:29Z</time>
      </trkpt>
      <trkpt lat="45.9358" lon="4.75441">
        <ele>200</ele>
        <time>2024-09-19T13:57:30Z</time>
      </trkpt>
      <trkpt lat="45.93579" lon="4.75448">
        <ele>200</ele>
        <time>2024-09-19T13:57:31Z</time>
      </trkpt>
      <trkpt lat="45.93578" lon="4.75454">
        <ele>199.8</ele>
        <time>2024-09-19T13:57:32Z</time>
      </trkpt>
      <trkpt lat="45.93577" lon="4.75461">
        <ele>200</ele>
        <time>2024-09-19T13:57:33Z</time>
      </trkpt>
      <trkpt lat="45.93576" lon="4.75467">
        <ele>200</ele>
        <time>2024-09-19T13:57:34Z</time>
      </trkpt>
      <trkpt lat="45.93575" lon="4.75473">
        <ele>200</ele>
        <time>2024-09-19T13:57:35Z</time>
      </trkpt>
      <trkpt lat="45.93575" lon="4.75479">
        <ele>200</ele>
        <time>2024-09-19T13:57:36Z</time>
      </trkpt>
      <trkpt lat="45.93574" lon="4.75485">
        <ele>200</ele>
        <time>2024-09-19T13:57:37Z</time>
      </trkpt>
      <trkpt lat="45.93574" lon="4.75491">
        <ele>200</ele>
        <time>2024-09-19T13:57:38Z</time>
      </trkpt>
      <trkpt lat="45.93573" lon="4.75498">
        <ele>200</ele>
        <time>2024-09-19T13:57:39Z</time>
      </trkpt>
      <trkpt lat="45.93572" lon="4.75504">
        <ele>200</ele>
        <time>2024-09-19T13:57:40Z</time>
      </trkpt>
      <trkpt lat="45.93572" lon="4.7551">
        <ele>200</ele>
        <time>2024-09-19T13:57:41Z</time>
      </trkpt>
      <trkpt lat="45.93571" lon="4.75516">
        <ele>200</ele>
        <time>2024-09-19T13:57:42Z</time>
      </trkpt>
      <trkpt lat="45.9357" lon="4.75522">
        <ele>200</ele>
        <time>2024-09-19T13:57:43Z</time>
      </trkpt>
      <trkpt lat="45.93569" lon="4.75528">
        <ele>200</ele>
        <time>2024-09-19T13:57:44Z</time>
      </trkpt>
      <trkpt lat="45.93567" lon="4.75534">
        <ele>199.6</ele>
        <time>2024-09-19T13:57:45Z</time>
      </trkpt>
      <trkpt lat="45.93565" lon="4.7554">
        <ele>199.8</ele>
        <time>2024-09-19T13:57:46Z</time>
      </trkpt>
      <trkpt lat="45.93564" lon="4.75547">
        <ele>199.8</ele>
        <time>2024-09-19T13:57:47Z</time>
      </trkpt>
      <trkpt lat="45.93562" lon="4.75553">
        <ele>199.8</ele>
        <time>2024-09-19T13:57:48Z</time>
      </trkpt>
      <trkpt lat="45.93561" lon="4.7556">
        <ele>199.8</ele>
        <time>2024-09-19T13:57:49Z</time>
      </trkpt>
      <trkpt lat="45.9356" lon="4.75566">
        <ele>199.6</ele>
        <time>2024-09-19T13:57:50Z</time>
      </trkpt>
      <trkpt lat="45.93559" lon="4.75573">
        <ele>199.8</ele>
        <time>2024-09-19T13:57:51Z</time>
      </trkpt>
      <trkpt lat="45.93558" lon="4.75579">
        <ele>199.8</ele>
        <time>2024-09-19T13:57:52Z</time>
      </trkpt>
      <trkpt lat="45.93556" lon="4.75589">
        <ele>199.8</ele>
        <time>2024-09-19T13:57:53Z</time>
      </trkpt>
      <trkpt lat="45.93555" lon="4.75592">
        <ele>199.8</ele>
        <time>2024-09-19T13:57:54Z</time>
      </trkpt>
      <trkpt lat="45.93554" lon="4.75599">
        <ele>199.6</ele>
        <time>2024-09-19T13:57:55Z</time>
      </trkpt>
      <trkpt lat="45.93553" lon="4.75605">
        <ele>199.6</ele>
        <time>2024-09-19T13:57:56Z</time>
      </trkpt>
      <trkpt lat="45.93552" lon="4.75611">
        <ele>199.6</ele>
        <time>2024-09-19T13:57:57Z</time>
      </trkpt>
      <trkpt lat="45.93551" lon="4.75618">
        <ele>199.6</ele>
        <time>2024-09-19T13:57:58Z</time>
      </trkpt>
      <trkpt lat="45.9355" lon="4.75624">
        <ele>200</ele>
        <time>2024-09-19T13:57:59Z</time>
      </trkpt>
      <trkpt lat="45.93549" lon="4.75634">
        <ele>199.8</ele>
        <time>2024-09-19T13:58:00Z</time>
      </trkpt>
      <trkpt lat="45.93549" lon="4.75637">
        <ele>199.8</ele>
        <time>2024-09-19T13:58:01Z</time>
      </trkpt>
      <trkpt lat="45.93548" lon="4.75644">
        <ele>199.8</ele>
        <time>2024-09-19T13:58:02Z</time>
      </trkpt>
      <trkpt lat="45.93548" lon="4.75651">
        <ele>199.8</ele>
        <time>2024-09-19T13:58:03Z</time>
      </trkpt>
      <trkpt lat="45.93547" lon="4.75657">
        <ele>199.8</ele>
        <time>2024-09-19T13:58:04Z</time>
      </trkpt>
      <trkpt lat="45.93546" lon="4.75662">
        <ele>199.4</ele>
        <time>2024-09-19T13:58:05Z</time>
      </trkpt>
      <trkpt lat="45.93545" lon="4.75668">
        <ele>199.4</ele>
        <time>2024-09-19T13:58:06Z</time>
      </trkpt>
      <trkpt lat="45.93544" lon="4.75674">
        <ele>199.4</ele>
        <time>2024-09-19T13:58:07Z</time>
      </trkpt>
      <trkpt lat="45.93543" lon="4.75679">
        <ele>199.6</ele>
        <time>2024-09-19T13:58:08Z</time>
      </trkpt>
      <trkpt lat="45.93542" lon="4.75685">
        <ele>199.8</ele>
        <time>2024-09-19T13:58:09Z</time>
      </trkpt>
      <trkpt lat="45.93541" lon="4.7569">
        <ele>199.8</ele>
        <time>2024-09-19T13:58:10Z</time>
      </trkpt>
      <trkpt lat="45.93541" lon="4.75696">
        <ele>199.8</ele>
        <time>2024-09-19T13:58:11Z</time>
      </trkpt>
      <trkpt lat="45.9354" lon="4.75701">
        <ele>199.8</ele>
        <time>2024-09-19T13:58:12Z</time>
      </trkpt>
      <trkpt lat="45.93539" lon="4.75707">
        <ele>199.8</ele>
        <time>2024-09-19T13:58:13Z</time>
      </trkpt>
      <trkpt lat="45.93539" lon="4.75712">
        <ele>199.6</ele>
        <time>2024-09-19T13:58:14Z</time>
      </trkpt>
      <trkpt lat="45.93538" lon="4.75718">
        <ele>199.6</ele>
        <time>2024-09-19T13:58:15Z</time>
      </trkpt>
      <trkpt lat="45.93537" lon="4.75724">
        <ele>199.6</ele>
        <time>2024-09-19T13:58:16Z</time>
      </trkpt>
      <trkpt lat="45.93536" lon="4.7573">
        <ele>199.6</ele>
        <time>2024-09-19T13:58:17Z</time>
      </trkpt>
      <trkpt lat="45.93535" lon="4.75736">
        <ele>199.8</ele>
        <time>2024-09-19T13:58:18Z</time>
      </trkpt>
      <trkpt lat="45.93535" lon="4.75742">
        <ele>199.8</ele>
        <time>2024-09-19T13:58:19Z</time>
      </trkpt>
      <trkpt lat="45.93534" lon="4.7575">
        <ele>199.8</ele>
        <time>2024-09-19T13:58:20Z</time>
      </trkpt>
      <trkpt lat="45.93533" lon="4.75753">
        <ele>199.8</ele>
        <time>2024-09-19T13:58:21Z</time>
      </trkpt>
      <trkpt lat="45.93533" lon="4.75759">
        <ele>199.8</ele>
        <time>2024-09-19T13:58:22Z</time>
      </trkpt>
      <trkpt lat="45.93532" lon="4.75765">
        <ele>199.4</ele>
        <time>2024-09-19T13:58:23Z</time>
      </trkpt>
      <trkpt lat="45.93531" lon="4.75774">
        <ele>199.4</ele>
        <time>2024-09-19T13:58:24Z</time>
      </trkpt>
      <trkpt lat="45.93531" lon="4.75777">
        <ele>199.4</ele>
        <time>2024-09-19T13:58:25Z</time>
      </trkpt>
      <trkpt lat="45.93531" lon="4.75784">
        <ele>199.4</ele>
        <time>2024-09-19T13:58:26Z</time>
      </trkpt>
      <trkpt lat="45.93531" lon="4.75791">
        <ele>199.4</ele>
        <time>2024-09-19T13:58:27Z</time>
      </trkpt>
      <trkpt lat="45.93531" lon="4.75797">
        <ele>199.4</ele>
        <time>2024-09-19T13:58:28Z</time>
      </trkpt>
      <trkpt lat="45.93532" lon="4.75806">
        <ele>199.4</ele>
        <time>2024-09-19T13:58:29Z</time>
      </trkpt>
      <trkpt lat="45.93532" lon="4.75809">
        <ele>199.6</ele>
        <time>2024-09-19T13:58:30Z</time>
      </trkpt>
      <trkpt lat="45.93532" lon="4.75816">
        <ele>199.4</ele>
        <time>2024-09-19T13:58:31Z</time>
      </trkpt>
      <trkpt lat="45.93533" lon="4.75822">
        <ele>199.4</ele>
        <time>2024-09-19T13:58:32Z</time>
      </trkpt>
      <trkpt lat="45.93533" lon="4.75828">
        <ele>199.4</ele>
        <time>2024-09-19T13:58:33Z</time>
      </trkpt>
      <trkpt lat="45.93533" lon="4.75834">
        <ele>199.4</ele>
        <time>2024-09-19T13:58:34Z</time>
      </trkpt>
      <trkpt lat="45.93534" lon="4.75841">
        <ele>199.4</ele>
        <time>2024-09-19T13:58:35Z</time>
      </trkpt>
      <trkpt lat="45.93535" lon="4.75847">
        <ele>199.4</ele>
        <time>2024-09-19T13:58:36Z</time>
      </trkpt>
      <trkpt lat="45.93536" lon="4.75852">
        <ele>199.4</ele>
        <time>2024-09-19T13:58:37Z</time>
      </trkpt>
      <trkpt lat="45.93538" lon="4.75859">
        <ele>199.4</ele>
        <time>2024-09-19T13:58:38Z</time>
      </trkpt>
      <trkpt lat="45.9354" lon="4.75865">
        <ele>199.4</ele>
        <time>2024-09-19T13:58:39Z</time>
      </trkpt>
      <trkpt lat="45.93543" lon="4.75873">
        <ele>199.4</ele>
        <time>2024-09-19T13:58:40Z</time>
      </trkpt>
      <trkpt lat="45.93543" lon="4.75875">
        <ele>199.4</ele>
        <time>2024-09-19T13:58:41Z</time>
      </trkpt>
      <trkpt lat="45.93545" lon="4.75881">
        <ele>199.4</ele>
        <time>2024-09-19T13:58:42Z</time>
      </trkpt>
      <trkpt lat="45.93547" lon="4.75886">
        <ele>199.4</ele>
        <time>2024-09-19T13:58:43Z</time>
      </trkpt>
      <trkpt lat="45.93548" lon="4.75893">
        <ele>199.4</ele>
        <time>2024-09-19T13:58:44Z</time>
      </trkpt>
      <trkpt lat="45.9355" lon="4.75899">
        <ele>199.6</ele>
        <time>2024-09-19T13:58:45Z</time>
      </trkpt>
      <trkpt lat="45.93551" lon="4.75906">
        <ele>199.6</ele>
        <time>2024-09-19T13:58:46Z</time>
      </trkpt>
      <trkpt lat="45.93553" lon="4.75912">
        <ele>199.6</ele>
        <time>2024-09-19T13:58:47Z</time>
      </trkpt>
      <trkpt lat="45.93556" lon="4.75922">
        <ele>199.6</ele>
        <time>2024-09-19T13:58:48Z</time>
      </trkpt>
      <trkpt lat="45.93557" lon="4.75925">
        <ele>199.6</ele>
        <time>2024-09-19T13:58:49Z</time>
      </trkpt>
      <trkpt lat="45.93558" lon="4.75932">
        <ele>199.8</ele>
        <time>2024-09-19T13:58:50Z</time>
      </trkpt>
      <trkpt lat="45.9356" lon="4.75938">
        <ele>199.8</ele>
        <time>2024-09-19T13:58:51Z</time>
      </trkpt>
      <trkpt lat="45.93562" lon="4.75944">
        <ele>199.8</ele>
        <time>2024-09-19T13:58:52Z</time>
      </trkpt>
      <trkpt lat="45.93564" lon="4.75951">
        <ele>199</ele>
        <time>2024-09-19T13:58:53Z</time>
      </trkpt>
      <trkpt lat="45.93566" lon="4.75957">
        <ele>199</ele>
        <time>2024-09-19T13:58:54Z</time>
      </trkpt>
      <trkpt lat="45.93569" lon="4.75966">
        <ele>199.6</ele>
        <time>2024-09-19T13:58:55Z</time>
      </trkpt>
      <trkpt lat="45.9357" lon="4.75969">
        <ele>199.6</ele>
        <time>2024-09-19T13:58:56Z</time>
      </trkpt>
      <trkpt lat="45.93572" lon="4.75976">
        <ele>199.6</ele>
        <time>2024-09-19T13:58:57Z</time>
      </trkpt>
      <trkpt lat="45.93573" lon="4.75982">
        <ele>199.6</ele>
        <time>2024-09-19T13:58:58Z</time>
      </trkpt>
      <trkpt lat="45.93575" lon="4.75989">
        <ele>199.6</ele>
        <time>2024-09-19T13:58:59Z</time>
      </trkpt>
      <trkpt lat="45.93577" lon="4.75996">
        <ele>199.6</ele>
        <time>2024-09-19T13:59:00Z</time>
      </trkpt>
      <trkpt lat="45.93579" lon="4.76002">
        <ele>199.6</ele>
        <time>2024-09-19T13:59:01Z</time>
      </trkpt>
      <trkpt lat="45.93581" lon="4.76008">
        <ele>199.6</ele>
        <time>2024-09-19T13:59:02Z</time>
      </trkpt>
      <trkpt lat="45.93583" lon="4.76015">
        <ele>199.2</ele>
        <time>2024-09-19T13:59:03Z</time>
      </trkpt>
      <trkpt lat="45.93585" lon="4.76021">
        <ele>199.2</ele>
        <time>2024-09-19T13:59:04Z</time>
      </trkpt>
      <trkpt lat="45.93587" lon="4.76026">
        <ele>199.2</ele>
        <time>2024-09-19T13:59:05Z</time>
      </trkpt>
      <trkpt lat="45.93588" lon="4.76032">
        <ele>199.2</ele>
        <time>2024-09-19T13:59:06Z</time>
      </trkpt>
      <trkpt lat="45.9359" lon="4.76038">
        <ele>199.2</ele>
        <time>2024-09-19T13:59:07Z</time>
      </trkpt>
      <trkpt lat="45.93591" lon="4.76044">
        <ele>199.4</ele>
        <time>2024-09-19T13:59:08Z</time>
      </trkpt>
      <trkpt lat="45.93593" lon="4.76049">
        <ele>199.4</ele>
        <time>2024-09-19T13:59:09Z</time>
      </trkpt>
      <trkpt lat="45.93595" lon="4.76055">
        <ele>199.4</ele>
        <time>2024-09-19T13:59:10Z</time>
      </trkpt>
      <trkpt lat="45.93598" lon="4.76063">
        <ele>199.4</ele>
        <time>2024-09-19T13:59:11Z</time>
      </trkpt>
      <trkpt lat="45.93599" lon="4.76066">
        <ele>199.2</ele>
        <time>2024-09-19T13:59:12Z</time>
      </trkpt>
      <trkpt lat="45.93601" lon="4.76072">
        <ele>199.2</ele>
        <time>2024-09-19T13:59:13Z</time>
      </trkpt>
      <trkpt lat="45.93603" lon="4.76078">
        <ele>199.2</ele>
        <time>2024-09-19T13:59:14Z</time>
      </trkpt>
      <trkpt lat="45.93605" lon="4.76083">
        <ele>199.2</ele>
        <time>2024-09-19T13:59:15Z</time>
      </trkpt>
      <trkpt lat="45.93608" lon="4.76089">
        <ele>199.4</ele>
        <time>2024-09-19T13:59:16Z</time>
      </trkpt>
      <trkpt lat="45.9361" lon="4.76095">
        <ele>199.4</ele>
        <time>2024-09-19T13:59:17Z</time>
      </trkpt>
      <trkpt lat="45.93612" lon="4.76101">
        <ele>199.4</ele>
        <time>2024-09-19T13:59:18Z</time>
      </trkpt>
      <trkpt lat="45.93614" lon="4.76106">
        <ele>199.4</ele>
        <time>2024-09-19T13:59:19Z</time>
      </trkpt>
      <trkpt lat="45.93616" lon="4.76112">
        <ele>199.4</ele>
        <time>2024-09-19T13:59:20Z</time>
      </trkpt>
      <trkpt lat="45.93618" lon="4.76119">
        <ele>199.4</ele>
        <time>2024-09-19T13:59:21Z</time>
      </trkpt>
      <trkpt lat="45.9362" lon="4.76124">
        <ele>199.6</ele>
        <time>2024-09-19T13:59:22Z</time>
      </trkpt>
      <trkpt lat="45.93623" lon="4.76133">
        <ele>199.6</ele>
        <time>2024-09-19T13:59:23Z</time>
      </trkpt>
      <trkpt lat="45.93624" lon="4.76137">
        <ele>199.4</ele>
        <time>2024-09-19T13:59:24Z</time>
      </trkpt>
      <trkpt lat="45.93626" lon="4.76143">
        <ele>199.4</ele>
        <time>2024-09-19T13:59:25Z</time>
      </trkpt>
      <trkpt lat="45.93628" lon="4.76149">
        <ele>199.4</ele>
        <time>2024-09-19T13:59:26Z</time>
      </trkpt>
      <trkpt lat="45.93631" lon="4.76159">
        <ele>199.4</ele>
        <time>2024-09-19T13:59:27Z</time>
      </trkpt>
      <trkpt lat="45.93632" lon="4.76162">
        <ele>199.4</ele>
        <time>2024-09-19T13:59:28Z</time>
      </trkpt>
      <trkpt lat="45.93634" lon="4.76168">
        <ele>199.4</ele>
        <time>2024-09-19T13:59:29Z</time>
      </trkpt>
      <trkpt lat="45.93636" lon="4.76174">
        <ele>199.4</ele>
        <time>2024-09-19T13:59:30Z</time>
      </trkpt>
      <trkpt lat="45.93638" lon="4.7618">
        <ele>199.4</ele>
        <time>2024-09-19T13:59:31Z</time>
      </trkpt>
      <trkpt lat="45.9364" lon="4.76186">
        <ele>199.4</ele>
        <time>2024-09-19T13:59:32Z</time>
      </trkpt>
      <trkpt lat="45.93643" lon="4.76192">
        <ele>199.4</ele>
        <time>2024-09-19T13:59:33Z</time>
      </trkpt>
      <trkpt lat="45.93644" lon="4.76198">
        <ele>199.4</ele>
        <time>2024-09-19T13:59:34Z</time>
      </trkpt>
      <trkpt lat="45.93647" lon="4.76204">
        <ele>199.8</ele>
        <time>2024-09-19T13:59:35Z</time>
      </trkpt>
      <trkpt lat="45.93649" lon="4.7621">
        <ele>199.8</ele>
        <time>2024-09-19T13:59:36Z</time>
      </trkpt>
      <trkpt lat="45.93651" lon="4.76216">
        <ele>199.8</ele>
        <time>2024-09-19T13:59:37Z</time>
      </trkpt>
      <trkpt lat="45.93653" lon="4.76222">
        <ele>199.6</ele>
        <time>2024-09-19T13:59:38Z</time>
      </trkpt>
      <trkpt lat="45.93655" lon="4.76228">
        <ele>199.6</ele>
        <time>2024-09-19T13:59:39Z</time>
      </trkpt>
      <trkpt lat="45.93657" lon="4.76233">
        <ele>199.6</ele>
        <time>2024-09-19T13:59:40Z</time>
      </trkpt>
      <trkpt lat="45.9366" lon="4.76238">
        <ele>199.6</ele>
        <time>2024-09-19T13:59:41Z</time>
      </trkpt>
      <trkpt lat="45.93662" lon="4.76244">
        <ele>199.6</ele>
        <time>2024-09-19T13:59:42Z</time>
      </trkpt>
      <trkpt lat="45.93664" lon="4.76251">
        <ele>199.6</ele>
        <time>2024-09-19T13:59:43Z</time>
      </trkpt>
      <trkpt lat="45.93666" lon="4.76257">
        <ele>199.6</ele>
        <time>2024-09-19T13:59:44Z</time>
      </trkpt>
      <trkpt lat="45.93668" lon="4.76263">
        <ele>199.6</ele>
        <time>2024-09-19T13:59:45Z</time>
      </trkpt>
      <trkpt lat="45.93669" lon="4.76269">
        <ele>199.6</ele>
        <time>2024-09-19T13:59:46Z</time>
      </trkpt>
      <trkpt lat="45.93671" lon="4.76275">
        <ele>199.4</ele>
        <time>2024-09-19T13:59:47Z</time>
      </trkpt>
      <trkpt lat="45.93674" lon="4.76282">
        <ele>199.4</ele>
        <time>2024-09-19T13:59:48Z</time>
      </trkpt>
      <trkpt lat="45.93676" lon="4.76287">
        <ele>199.4</ele>
        <time>2024-09-19T13:59:49Z</time>
      </trkpt>
      <trkpt lat="45.93678" lon="4.76293">
        <ele>199.4</ele>
        <time>2024-09-19T13:59:50Z</time>
      </trkpt>
      <trkpt lat="45.9368" lon="4.76299">
        <ele>199.4</ele>
        <time>2024-09-19T13:59:51Z</time>
      </trkpt>
      <trkpt lat="45.93682" lon="4.76305">
        <ele>199.4</ele>
        <time>2024-09-19T13:59:52Z</time>
      </trkpt>
      <trkpt lat="45.93684" lon="4.7631">
        <ele>199.4</ele>
        <time>2024-09-19T13:59:53Z</time>
      </trkpt>
      <trkpt lat="45.93686" lon="4.76318">
        <ele>199.4</ele>
        <time>2024-09-19T13:59:54Z</time>
      </trkpt>
      <trkpt lat="45.93687" lon="4.76321">
        <ele>199.4</ele>
        <time>2024-09-19T13:59:55Z</time>
      </trkpt>
      <trkpt lat="45.93689" lon="4.76327">
        <ele>199.8</ele>
        <time>2024-09-19T13:59:56Z</time>
      </trkpt>
      <trkpt lat="45.93692" lon="4.76333">
        <ele>199.8</ele>
        <time>2024-09-19T13:59:57Z</time>
      </trkpt>
      <trkpt lat="45.93694" lon="4.76339">
        <ele>199.8</ele>
        <time>2024-09-19T13:59:58Z</time>
      </trkpt>
      <trkpt lat="45.93696" lon="4.76345">
        <ele>199.8</ele>
        <time>2024-09-19T13:59:59Z</time>
      </trkpt>
      <trkpt lat="45.93698" lon="4.7635">
        <ele>199.8</ele>
        <time>2024-09-19T14:00:00Z</time>
      </trkpt>
      <trkpt lat="45.93701" lon="4.76359">
        <ele>199.8</ele>
        <time>2024-09-19T14:00:01Z</time>
      </trkpt>
      <trkpt lat="45.93702" lon="4.76361">
        <ele>199.6</ele>
        <time>2024-09-19T14:00:02Z</time>
      </trkpt>
      <trkpt lat="45.93704" lon="4.76367">
        <ele>199.6</ele>
        <time>2024-09-19T14:00:03Z</time>
      </trkpt>
      <trkpt lat="45.93706" lon="4.76373">
        <ele>199.6</ele>
        <time>2024-09-19T14:00:04Z</time>
      </trkpt>
      <trkpt lat="45.93708" lon="4.76378">
        <ele>199.6</ele>
        <time>2024-09-19T14:00:05Z</time>
      </trkpt>
      <trkpt lat="45.9371" lon="4.76384">
        <ele>199.6</ele>
        <time>2024-09-19T14:00:06Z</time>
      </trkpt>
      <trkpt lat="45.93712" lon="4.76389">
        <ele>199.6</ele>
        <time>2024-09-19T14:00:07Z</time>
      </trkpt>
      <trkpt lat="45.93714" lon="4.76395">
        <ele>199.6</ele>
        <time>2024-09-19T14:00:08Z</time>
      </trkpt>
      <trkpt lat="45.93716" lon="4.76401">
        <ele>199.6</ele>
        <time>2024-09-19T14:00:09Z</time>
      </trkpt>
      <trkpt lat="45.93718" lon="4.76407">
        <ele>199.6</ele>
        <time>2024-09-19T14:00:10Z</time>
      </trkpt>
      <trkpt lat="45.9372" lon="4.76413">
        <ele>199.6</ele>
        <time>2024-09-19T14:00:11Z</time>
      </trkpt>
      <trkpt lat="45.93722" lon="4.76419">
        <ele>199.6</ele>
        <time>2024-09-19T14:00:12Z</time>
      </trkpt>
      <trkpt lat="45.93724" lon="4.76425">
        <ele>199.6</ele>
        <time>2024-09-19T14:00:13Z</time>
      </trkpt>
      <trkpt lat="45.93726" lon="4.76431">
        <ele>199.6</ele>
        <time>2024-09-19T14:00:14Z</time>
      </trkpt>
      <trkpt lat="45.93728" lon="4.76438">
        <ele>199.6</ele>
        <time>2024-09-19T14:00:15Z</time>
      </trkpt>
      <trkpt lat="45.93729" lon="4.76444">
        <ele>199.6</ele>
        <time>2024-09-19T14:00:16Z</time>
      </trkpt>
      <trkpt lat="45.93731" lon="4.7645">
        <ele>199.6</ele>
        <time>2024-09-19T14:00:17Z</time>
      </trkpt>
      <trkpt lat="45.93733" lon="4.76456">
        <ele>199.6</ele>
        <time>2024-09-19T14:00:18Z</time>
      </trkpt>
      <trkpt lat="45.93735" lon="4.76462">
        <ele>199.6</ele>
        <time>2024-09-19T14:00:19Z</time>
      </trkpt>
      <trkpt lat="45.93738" lon="4.76468">
        <ele>199.8</ele>
        <time>2024-09-19T14:00:20Z</time>
      </trkpt>
      <trkpt lat="45.9374" lon="4.76473">
        <ele>199.8</ele>
        <time>2024-09-19T14:00:21Z</time>
      </trkpt>
      <trkpt lat="45.93742" lon="4.76479">
        <ele>199.8</ele>
        <time>2024-09-19T14:00:22Z</time>
      </trkpt>
      <trkpt lat="45.93743" lon="4.76485">
        <ele>199.8</ele>
        <time>2024-09-19T14:00:23Z</time>
      </trkpt>
      <trkpt lat="45.93745" lon="4.76491">
        <ele>199.8</ele>
        <time>2024-09-19T14:00:24Z</time>
      </trkpt>
      <trkpt lat="45.93747" lon="4.76496">
        <ele>199.8</ele>
        <time>2024-09-19T14:00:25Z</time>
      </trkpt>
      <trkpt lat="45.93749" lon="4.76502">
        <ele>199.8</ele>
        <time>2024-09-19T14:00:26Z</time>
      </trkpt>
      <trkpt lat="45.93751" lon="4.76508">
        <ele>199.8</ele>
        <time>2024-09-19T14:00:27Z</time>
      </trkpt>
      <trkpt lat="45.93752" lon="4.76513">
        <ele>199.6</ele>
        <time>2024-09-19T14:00:28Z</time>
      </trkpt>
      <trkpt lat="45.93754" lon="4.76518">
        <ele>199.6</ele>
        <time>2024-09-19T14:00:29Z</time>
      </trkpt>
      <trkpt lat="45.93756" lon="4.76524">
        <ele>199.6</ele>
        <time>2024-09-19T14:00:30Z</time>
      </trkpt>
      <trkpt lat="45.93758" lon="4.76529">
        <ele>199.6</ele>
        <time>2024-09-19T14:00:31Z</time>
      </trkpt>
      <trkpt lat="45.9376" lon="4.76534">
        <ele>199.6</ele>
        <time>2024-09-19T14:00:32Z</time>
      </trkpt>
      <trkpt lat="45.93762" lon="4.76539">
        <ele>199.6</ele>
        <time>2024-09-19T14:00:33Z</time>
      </trkpt>
      <trkpt lat="45.93764" lon="4.76544">
        <ele>199.6</ele>
        <time>2024-09-19T14:00:34Z</time>
      </trkpt>
      <trkpt lat="45.93766" lon="4.76549">
        <ele>199.6</ele>
        <time>2024-09-19T14:00:35Z</time>
      </trkpt>
      <trkpt lat="45.93768" lon="4.76554">
        <ele>199.6</ele>
        <time>2024-09-19T14:00:36Z</time>
      </trkpt>
      <trkpt lat="45.93769" lon="4.76559">
        <ele>199.6</ele>
        <time>2024-09-19T14:00:37Z</time>
      </trkpt>
      <trkpt lat="45.93771" lon="4.76563">
        <ele>199.6</ele>
        <time>2024-09-19T14:00:38Z</time>
      </trkpt>
      <trkpt lat="45.93772" lon="4.76568">
        <ele>199.6</ele>
        <time>2024-09-19T14:00:39Z</time>
      </trkpt>
      <trkpt lat="45.93774" lon="4.76573">
        <ele>199.6</ele>
        <time>2024-09-19T14:00:40Z</time>
      </trkpt>
      <trkpt lat="45.93775" lon="4.76577">
        <ele>199.6</ele>
        <time>2024-09-19T14:00:41Z</time>
      </trkpt>
      <trkpt lat="45.93777" lon="4.76582">
        <ele>199.6</ele>
        <time>2024-09-19T14:00:42Z</time>
      </trkpt>
      <trkpt lat="45.93778" lon="4.76587">
        <ele>199.6</ele>
        <time>2024-09-19T14:00:43Z</time>
      </trkpt>
      <trkpt lat="45.9378" lon="4.76593">
        <ele>199.6</ele>
        <time>2024-09-19T14:00:44Z</time>
      </trkpt>
      <trkpt lat="45.93781" lon="4.76597">
        <ele>199.6</ele>
        <time>2024-09-19T14:00:45Z</time>
      </trkpt>
      <trkpt lat="45.93782" lon="4.76602">
        <ele>199.6</ele>
        <time>2024-09-19T14:00:46Z</time>
      </trkpt>
      <trkpt lat="45.93784" lon="4.76607">
        <ele>199.4</ele>
        <time>2024-09-19T14:00:47Z</time>
      </trkpt>
      <trkpt lat="45.93785" lon="4.76612">
        <ele>199.4</ele>
        <time>2024-09-19T14:00:48Z</time>
      </trkpt>
      <trkpt lat="45.93787" lon="4.76618">
        <ele>199.4</ele>
        <time>2024-09-19T14:00:49Z</time>
      </trkpt>
      <trkpt lat="45.93788" lon="4.76621">
        <ele>199.4</ele>
        <time>2024-09-19T14:00:50Z</time>
      </trkpt>
      <trkpt lat="45.93789" lon="4.76625">
        <ele>199</ele>
        <time>2024-09-19T14:00:51Z</time>
      </trkpt>
      <trkpt lat="45.9379" lon="4.76628">
        <ele>199</ele>
        <time>2024-09-19T14:00:52Z</time>
      </trkpt>
      <trkpt lat="45.9379" lon="4.76631">
        <ele>199</ele>
        <time>2024-09-19T14:00:53Z</time>
      </trkpt>
      <trkpt lat="45.93791" lon="4.76632">
        <ele>199</ele>
        <time>2024-09-19T14:00:54Z</time>
      </trkpt>
      <trkpt lat="45.93791" lon="4.76632">
        <ele>199.2</ele>
        <time>2024-09-19T14:00:55Z</time>
      </trkpt>
      <trkpt lat="45.93791" lon="4.76632">
        <ele>199.4</ele>
        <time>2024-09-19T14:00:56Z</time>
      </trkpt>
      <trkpt lat="45.93792" lon="4.76636">
        <ele>199.4</ele>
        <time>2024-09-19T14:01:42Z</time>
      </trkpt>
      <trkpt lat="45.93794" lon="4.76637">
        <ele>199.6</ele>
        <time>2024-09-19T14:01:43Z</time>
      </trkpt>
      <trkpt lat="45.93795" lon="4.76639">
        <ele>199.6</ele>
        <time>2024-09-19T14:01:44Z</time>
      </trkpt>
      <trkpt lat="45.93795" lon="4.76641">
        <ele>199.6</ele>
        <time>2024-09-19T14:01:45Z</time>
      </trkpt>
      <trkpt lat="45.93796" lon="4.76644">
        <ele>199.6</ele>
        <time>2024-09-19T14:01:46Z</time>
      </trkpt>
      <trkpt lat="45.93797" lon="4.76646">
        <ele>199.4</ele>
        <time>2024-09-19T14:01:47Z</time>
      </trkpt>
      <trkpt lat="45.93798" lon="4.76648">
        <ele>199.4</ele>
        <time>2024-09-19T14:01:48Z</time>
      </trkpt>
      <trkpt lat="45.93799" lon="4.7665">
        <ele>199.4</ele>
        <time>2024-09-19T14:01:49Z</time>
      </trkpt>
      <trkpt lat="45.938" lon="4.76652">
        <ele>199.4</ele>
        <time>2024-09-19T14:01:50Z</time>
      </trkpt>
      <trkpt lat="45.93801" lon="4.76653">
        <ele>199.4</ele>
        <time>2024-09-19T14:01:51Z</time>
      </trkpt>
      <trkpt lat="45.93802" lon="4.76656">
        <ele>199.4</ele>
        <time>2024-09-19T14:01:52Z</time>
      </trkpt>
      <trkpt lat="45.93802" lon="4.76658">
        <ele>199.4</ele>
        <time>2024-09-19T14:01:53Z</time>
      </trkpt>
      <trkpt lat="45.93804" lon="4.7666">
        <ele>199.4</ele>
        <time>2024-09-19T14:01:54Z</time>
      </trkpt>
      <trkpt lat="45.93805" lon="4.76662">
        <ele>199.4</ele>
        <time>2024-09-19T14:01:55Z</time>
      </trkpt>
      <trkpt lat="45.93806" lon="4.76664">
        <ele>199.4</ele>
        <time>2024-09-19T14:01:56Z</time>
      </trkpt>
      <trkpt lat="45.93807" lon="4.76667">
        <ele>199.2</ele>
        <time>2024-09-19T14:01:57Z</time>
      </trkpt>
      <trkpt lat="45.93807" lon="4.76669">
        <ele>199.2</ele>
        <time>2024-09-19T14:01:58Z</time>
      </trkpt>
      <trkpt lat="45.93808" lon="4.76672">
        <ele>199.2</ele>
        <time>2024-09-19T14:01:59Z</time>
      </trkpt>
      <trkpt lat="45.93809" lon="4.76675">
        <ele>199.2</ele>
        <time>2024-09-19T14:02:00Z</time>
      </trkpt>
      <trkpt lat="45.93811" lon="4.76677">
        <ele>199.2</ele>
        <time>2024-09-19T14:02:01Z</time>
      </trkpt>
      <trkpt lat="45.93812" lon="4.76679">
        <ele>199.2</ele>
        <time>2024-09-19T14:02:02Z</time>
      </trkpt>
      <trkpt lat="45.93814" lon="4.76681">
        <ele>199.2</ele>
        <time>2024-09-19T14:02:03Z</time>
      </trkpt>
      <trkpt lat="45.93815" lon="4.76682">
        <ele>199.2</ele>
        <time>2024-09-19T14:02:04Z</time>
      </trkpt>
      <trkpt lat="45.93816" lon="4.76684">
        <ele>199.4</ele>
        <time>2024-09-19T14:02:05Z</time>
      </trkpt>
      <trkpt lat="45.93818" lon="4.76686">
        <ele>199.6</ele>
        <time>2024-09-19T14:02:06Z</time>
      </trkpt>
      <trkpt lat="45.93819" lon="4.76688">
        <ele>199.6</ele>
        <time>2024-09-19T14:02:07Z</time>
      </trkpt>
      <trkpt lat="45.9382" lon="4.7669">
        <ele>199.6</ele>
        <time>2024-09-19T14:02:08Z</time>
      </trkpt>
      <trkpt lat="45.93821" lon="4.76692">
        <ele>199.6</ele>
        <time>2024-09-19T14:02:09Z</time>
      </trkpt>
      <trkpt lat="45.93822" lon="4.76695">
        <ele>199.6</ele>
        <time>2024-09-19T14:02:10Z</time>
      </trkpt>
      <trkpt lat="45.93824" lon="4.76698">
        <ele>199.6</ele>
        <time>2024-09-19T14:02:11Z</time>
      </trkpt>
      <trkpt lat="45.93826" lon="4.76701">
        <ele>199.6</ele>
        <time>2024-09-19T14:02:12Z</time>
      </trkpt>
      <trkpt lat="45.93827" lon="4.76704">
        <ele>199.6</ele>
        <time>2024-09-19T14:02:13Z</time>
      </trkpt>
      <trkpt lat="45.93829" lon="4.76707">
        <ele>199.6</ele>
        <time>2024-09-19T14:02:14Z</time>
      </trkpt>
      <trkpt lat="45.93831" lon="4.7671">
        <ele>199.6</ele>
        <time>2024-09-19T14:02:15Z</time>
      </trkpt>
      <trkpt lat="45.93833" lon="4.76714">
        <ele>199.4</ele>
        <time>2024-09-19T14:02:16Z</time>
      </trkpt>
      <trkpt lat="45.93835" lon="4.76717">
        <ele>199.4</ele>
        <time>2024-09-19T14:02:17Z</time>
      </trkpt>
      <trkpt lat="45.93837" lon="4.76721">
        <ele>199.4</ele>
        <time>2024-09-19T14:02:18Z</time>
      </trkpt>
      <trkpt lat="45.93839" lon="4.76725">
        <ele>199.8</ele>
        <time>2024-09-19T14:02:19Z</time>
      </trkpt>
      <trkpt lat="45.93842" lon="4.76729">
        <ele>199.8</ele>
        <time>2024-09-19T14:02:20Z</time>
      </trkpt>
      <trkpt lat="45.93845" lon="4.76734">
        <ele>199.8</ele>
        <time>2024-09-19T14:02:21Z</time>
      </trkpt>
      <trkpt lat="45.93846" lon="4.76736">
        <ele>199.8</ele>
        <time>2024-09-19T14:02:22Z</time>
      </trkpt>
      <trkpt lat="45.93848" lon="4.7674">
        <ele>199.8</ele>
        <time>2024-09-19T14:02:23Z</time>
      </trkpt>
      <trkpt lat="45.93851" lon="4.76744">
        <ele>199.8</ele>
        <time>2024-09-19T14:02:24Z</time>
      </trkpt>
      <trkpt lat="45.93854" lon="4.76748">
        <ele>200</ele>
        <time>2024-09-19T14:02:25Z</time>
      </trkpt>
      <trkpt lat="45.93856" lon="4.76751">
        <ele>200</ele>
        <time>2024-09-19T14:02:26Z</time>
      </trkpt>
      <trkpt lat="45.93859" lon="4.76755">
        <ele>200</ele>
        <time>2024-09-19T14:02:27Z</time>
      </trkpt>
      <trkpt lat="45.93861" lon="4.76759">
        <ele>200</ele>
        <time>2024-09-19T14:02:28Z</time>
      </trkpt>
      <trkpt lat="45.93864" lon="4.76763">
        <ele>200</ele>
        <time>2024-09-19T14:02:29Z</time>
      </trkpt>
      <trkpt lat="45.93866" lon="4.76768">
        <ele>200</ele>
        <time>2024-09-19T14:02:30Z</time>
      </trkpt>
      <trkpt lat="45.93869" lon="4.76772">
        <ele>200</ele>
        <time>2024-09-19T14:02:31Z</time>
      </trkpt>
      <trkpt lat="45.93871" lon="4.76776">
        <ele>200</ele>
        <time>2024-09-19T14:02:32Z</time>
      </trkpt>
      <trkpt lat="45.93874" lon="4.7678">
        <ele>200</ele>
        <time>2024-09-19T14:02:33Z</time>
      </trkpt>
      <trkpt lat="45.93877" lon="4.76785">
        <ele>200</ele>
        <time>2024-09-19T14:02:34Z</time>
      </trkpt>
      <trkpt lat="45.93879" lon="4.76789">
        <ele>200</ele>
        <time>2024-09-19T14:02:35Z</time>
      </trkpt>
      <trkpt lat="45.93882" lon="4.76793">
        <ele>200</ele>
        <time>2024-09-19T14:02:36Z</time>
      </trkpt>
      <trkpt lat="45.93885" lon="4.76797">
        <ele>200</ele>
        <time>2024-09-19T14:02:37Z</time>
      </trkpt>
      <trkpt lat="45.93888" lon="4.76801">
        <ele>200</ele>
        <time>2024-09-19T14:02:38Z</time>
      </trkpt>
      <trkpt lat="45.93891" lon="4.76805">
        <ele>200</ele>
        <time>2024-09-19T14:02:39Z</time>
      </trkpt>
      <trkpt lat="45.93895" lon="4.76812">
        <ele>200</ele>
        <time>2024-09-19T14:02:40Z</time>
      </trkpt>
      <trkpt lat="45.93896" lon="4.76814">
        <ele>200</ele>
        <time>2024-09-19T14:02:41Z</time>
      </trkpt>
      <trkpt lat="45.93899" lon="4.76818">
        <ele>199.8</ele>
        <time>2024-09-19T14:02:42Z</time>
      </trkpt>
      <trkpt lat="45.93902" lon="4.76822">
        <ele>199.8</ele>
        <time>2024-09-19T14:02:43Z</time>
      </trkpt>
      <trkpt lat="45.93905" lon="4.76826">
        <ele>199.8</ele>
        <time>2024-09-19T14:02:44Z</time>
      </trkpt>
      <trkpt lat="45.93907" lon="4.7683">
        <ele>199.8</ele>
        <time>2024-09-19T14:02:45Z</time>
      </trkpt>
      <trkpt lat="45.93911" lon="4.76835">
        <ele>199.8</ele>
        <time>2024-09-19T14:02:46Z</time>
      </trkpt>
      <trkpt lat="45.93913" lon="4.76839">
        <ele>200</ele>
        <time>2024-09-19T14:02:47Z</time>
      </trkpt>
      <trkpt lat="45.93916" lon="4.76843">
        <ele>200</ele>
        <time>2024-09-19T14:02:48Z</time>
      </trkpt>
      <trkpt lat="45.93918" lon="4.76847">
        <ele>200</ele>
        <time>2024-09-19T14:02:49Z</time>
      </trkpt>
      <trkpt lat="45.93921" lon="4.76851">
        <ele>200</ele>
        <time>2024-09-19T14:02:50Z</time>
      </trkpt>
      <trkpt lat="45.93923" lon="4.76855">
        <ele>200</ele>
        <time>2024-09-19T14:02:51Z</time>
      </trkpt>
      <trkpt lat="45.93926" lon="4.76858">
        <ele>200.2</ele>
        <time>2024-09-19T14:02:52Z</time>
      </trkpt>
      <trkpt lat="45.93929" lon="4.76863">
        <ele>200.2</ele>
        <time>2024-09-19T14:02:53Z</time>
      </trkpt>
      <trkpt lat="45.93931" lon="4.76867">
        <ele>200.2</ele>
        <time>2024-09-19T14:02:54Z</time>
      </trkpt>
      <trkpt lat="45.93934" lon="4.76871">
        <ele>200.2</ele>
        <time>2024-09-19T14:02:55Z</time>
      </trkpt>
      <trkpt lat="45.93937" lon="4.76875">
        <ele>199.6</ele>
        <time>2024-09-19T14:02:56Z</time>
      </trkpt>
      <trkpt lat="45.93939" lon="4.76879">
        <ele>199.6</ele>
        <time>2024-09-19T14:02:57Z</time>
      </trkpt>
      <trkpt lat="45.93944" lon="4.76884">
        <ele>199.6</ele>
        <time>2024-09-19T14:02:58Z</time>
      </trkpt>
      <trkpt lat="45.93945" lon="4.76886">
        <ele>200.2</ele>
        <time>2024-09-19T14:02:59Z</time>
      </trkpt>
      <trkpt lat="45.93947" lon="4.7689">
        <ele>200.2</ele>
        <time>2024-09-19T14:03:00Z</time>
      </trkpt>
      <trkpt lat="45.9395" lon="4.76894">
        <ele>200.4</ele>
        <time>2024-09-19T14:03:01Z</time>
      </trkpt>
      <trkpt lat="45.93953" lon="4.76897">
        <ele>200.4</ele>
        <time>2024-09-19T14:03:02Z</time>
      </trkpt>
      <trkpt lat="45.93955" lon="4.76901">
        <ele>200.4</ele>
        <time>2024-09-19T14:03:03Z</time>
      </trkpt>
      <trkpt lat="45.93958" lon="4.76904">
        <ele>200.4</ele>
        <time>2024-09-19T14:03:04Z</time>
      </trkpt>
      <trkpt lat="45.9396" lon="4.76907">
        <ele>200.4</ele>
        <time>2024-09-19T14:03:05Z</time>
      </trkpt>
      <trkpt lat="45.93963" lon="4.76911">
        <ele>200.4</ele>
        <time>2024-09-19T14:03:06Z</time>
      </trkpt>
      <trkpt lat="45.93965" lon="4.76914">
        <ele>200.4</ele>
        <time>2024-09-19T14:03:07Z</time>
      </trkpt>
      <trkpt lat="45.93968" lon="4.76918">
        <ele>200.6</ele>
        <time>2024-09-19T14:03:08Z</time>
      </trkpt>
      <trkpt lat="45.9397" lon="4.7692">
        <ele>200.4</ele>
        <time>2024-09-19T14:03:09Z</time>
      </trkpt>
      <trkpt lat="45.93971" lon="4.76921">
        <ele>200.4</ele>
        <time>2024-09-19T14:03:10Z</time>
      </trkpt>
      <trkpt lat="45.93972" lon="4.76922">
        <ele>200.4</ele>
        <time>2024-09-19T14:03:11Z</time>
      </trkpt>
      <trkpt lat="45.93972" lon="4.76922">
        <ele>200.4</ele>
        <time>2024-09-19T14:03:12Z</time>
      </trkpt>
      <trkpt lat="45.93976" lon="4.76931">
        <ele>200.4</ele>
        <time>2024-09-19T14:03:21Z</time>
      </trkpt>
      <trkpt lat="45.93979" lon="4.76933">
        <ele>200.4</ele>
        <time>2024-09-19T14:03:22Z</time>
      </trkpt>
      <trkpt lat="45.93982" lon="4.76936">
        <ele>200.4</ele>
        <time>2024-09-19T14:03:23Z</time>
      </trkpt>
      <trkpt lat="45.93984" lon="4.76939">
        <ele>200.4</ele>
        <time>2024-09-19T14:03:24Z</time>
      </trkpt>
      <trkpt lat="45.93986" lon="4.76942">
        <ele>200.4</ele>
        <time>2024-09-19T14:03:25Z</time>
      </trkpt>
      <trkpt lat="45.93988" lon="4.76945">
        <ele>201</ele>
        <time>2024-09-19T14:03:26Z</time>
      </trkpt>
      <trkpt lat="45.93991" lon="4.76949">
        <ele>200.8</ele>
        <time>2024-09-19T14:03:27Z</time>
      </trkpt>
      <trkpt lat="45.93993" lon="4.76953">
        <ele>200.8</ele>
        <time>2024-09-19T14:03:28Z</time>
      </trkpt>
      <trkpt lat="45.93995" lon="4.76955">
        <ele>200.8</ele>
        <time>2024-09-19T14:03:29Z</time>
      </trkpt>
      <trkpt lat="45.93997" lon="4.76957">
        <ele>200.8</ele>
        <time>2024-09-19T14:03:30Z</time>
      </trkpt>
      <trkpt lat="45.93999" lon="4.76958">
        <ele>200.8</ele>
        <time>2024-09-19T14:03:31Z</time>
      </trkpt>
      <trkpt lat="45.94" lon="4.76958">
        <ele>200.8</ele>
        <time>2024-09-19T14:03:32Z</time>
      </trkpt>
      <trkpt lat="45.94" lon="4.76959">
        <ele>200.8</ele>
        <time>2024-09-19T14:03:33Z</time>
      </trkpt>
      <trkpt lat="45.94001" lon="4.7696">
        <ele>200.8</ele>
        <time>2024-09-19T14:03:34Z</time>
      </trkpt>
      <trkpt lat="45.94001" lon="4.76961">
        <ele>200.8</ele>
        <time>2024-09-19T14:03:35Z</time>
      </trkpt>
      <trkpt lat="45.94002" lon="4.76962">
        <ele>201</ele>
        <time>2024-09-19T14:03:36Z</time>
      </trkpt>
      <trkpt lat="45.94002" lon="4.76963">
        <ele>201</ele>
        <time>2024-09-19T14:03:37Z</time>
      </trkpt>
      <trkpt lat="45.94003" lon="4.76964">
        <ele>201</ele>
        <time>2024-09-19T14:03:38Z</time>
      </trkpt>
      <trkpt lat="45.94003" lon="4.76964">
        <ele>201</ele>
        <time>2024-09-19T14:03:39Z</time>
      </trkpt>
      <trkpt lat="45.94003" lon="4.76964">
        <ele>200.6</ele>
        <time>2024-09-19T14:03:40Z</time>
      </trkpt>
      <trkpt lat="45.94002" lon="4.76963">
        <ele>200.8</ele>
        <time>2024-09-19T14:03:41Z</time>
      </trkpt>
      <trkpt lat="45.94002" lon="4.76962">
        <ele>200.8</ele>
        <time>2024-09-19T14:03:42Z</time>
      </trkpt>
      <trkpt lat="45.94002" lon="4.76961">
        <ele>200.8</ele>
        <time>2024-09-19T14:03:43Z</time>
      </trkpt>
      <trkpt lat="45.94001" lon="4.76959">
        <ele>200.6</ele>
        <time>2024-09-19T14:03:44Z</time>
      </trkpt>
      <trkpt lat="45.94" lon="4.76958">
        <ele>200.6</ele>
        <time>2024-09-19T14:03:45Z</time>
      </trkpt>
      <trkpt lat="45.93999" lon="4.76958">
        <ele>200.6</ele>
        <time>2024-09-19T14:03:46Z</time>
      </trkpt>
      <trkpt lat="45.93997" lon="4.76957">
        <ele>200.6</ele>
        <time>2024-09-19T14:03:47Z</time>
      </trkpt>
      <trkpt lat="45.93996" lon="4.76955">
        <ele>200.6</ele>
        <time>2024-09-19T14:03:48Z</time>
      </trkpt>
      <trkpt lat="45.93994" lon="4.76953">
        <ele>200.6</ele>
        <time>2024-09-19T14:03:49Z</time>
      </trkpt>
      <trkpt lat="45.93992" lon="4.7695">
        <ele>200.6</ele>
        <time>2024-09-19T14:03:50Z</time>
      </trkpt>
      <trkpt lat="45.9399" lon="4.76948">
        <ele>200.6</ele>
        <time>2024-09-19T14:03:51Z</time>
      </trkpt>
      <trkpt lat="45.93988" lon="4.76946">
        <ele>200.6</ele>
        <time>2024-09-19T14:03:52Z</time>
      </trkpt>
      <trkpt lat="45.93986" lon="4.76944">
        <ele>200.4</ele>
        <time>2024-09-19T14:03:53Z</time>
      </trkpt>
      <trkpt lat="45.93985" lon="4.76942">
        <ele>200.4</ele>
        <time>2024-09-19T14:03:54Z</time>
      </trkpt>
      <trkpt lat="45.93984" lon="4.76939">
        <ele>200.4</ele>
        <time>2024-09-19T14:03:55Z</time>
      </trkpt>
      <trkpt lat="45.93982" lon="4.76937">
        <ele>200.4</ele>
        <time>2024-09-19T14:03:56Z</time>
      </trkpt>
      <trkpt lat="45.9398" lon="4.76934">
        <ele>200.2</ele>
        <time>2024-09-19T14:03:57Z</time>
      </trkpt>
      <trkpt lat="45.93978" lon="4.76931">
        <ele>200.2</ele>
        <time>2024-09-19T14:03:58Z</time>
      </trkpt>
      <trkpt lat="45.93976" lon="4.76928">
        <ele>200.2</ele>
        <time>2024-09-19T14:03:59Z</time>
      </trkpt>
      <trkpt lat="45.93975" lon="4.76925">
        <ele>200.2</ele>
        <time>2024-09-19T14:04:00Z</time>
      </trkpt>
      <trkpt lat="45.93975" lon="4.76921">
        <ele>200.2</ele>
        <time>2024-09-19T14:04:01Z</time>
      </trkpt>
      <trkpt lat="45.93975" lon="4.76918">
        <ele>200.6</ele>
        <time>2024-09-19T14:04:02Z</time>
      </trkpt>
      <trkpt lat="45.93975" lon="4.76914">
        <ele>200.6</ele>
        <time>2024-09-19T14:04:03Z</time>
      </trkpt>
      <trkpt lat="45.93975" lon="4.76911">
        <ele>200.6</ele>
        <time>2024-09-19T14:04:04Z</time>
      </trkpt>
      <trkpt lat="45.93974" lon="4.76907">
        <ele>200.6</ele>
        <time>2024-09-19T14:04:05Z</time>
      </trkpt>
      <trkpt lat="45.93973" lon="4.76904">
        <ele>200.6</ele>
        <time>2024-09-19T14:04:06Z</time>
      </trkpt>
      <trkpt lat="45.93974" lon="4.769">
        <ele>200.6</ele>
        <time>2024-09-19T14:04:07Z</time>
      </trkpt>
      <trkpt lat="45.93975" lon="4.76897">
        <ele>200.6</ele>
        <time>2024-09-19T14:04:08Z</time>
      </trkpt>
      <trkpt lat="45.93976" lon="4.76896">
        <ele>200.6</ele>
        <time>2024-09-19T14:04:09Z</time>
      </trkpt>
      <trkpt lat="45.93977" lon="4.76894">
        <ele>200.6</ele>
        <time>2024-09-19T14:04:10Z</time>
      </trkpt>
      <trkpt lat="45.93978" lon="4.76894">
        <ele>200.6</ele>
        <time>2024-09-19T14:04:11Z</time>
      </trkpt>
      <trkpt lat="45.93978" lon="4.76893">
        <ele>200.6</ele>
        <time>2024-09-19T14:04:12Z</time>
      </trkpt>
      <trkpt lat="45.93978" lon="4.76893">
        <ele>200.6</ele>
        <time>2024-09-19T14:04:13Z</time>
      </trkpt>
      <trkpt lat="45.93975" lon="4.76873">
        <ele>200.4</ele>
        <time>2024-09-19T14:11:41Z</time>
      </trkpt>
      <trkpt lat="45.93975" lon="4.76872">
        <ele>200.4</ele>
        <time>2024-09-19T14:11:42Z</time>
      </trkpt>
      <trkpt lat="45.93976" lon="4.76869">
        <ele>200.4</ele>
        <time>2024-09-19T14:11:43Z</time>
      </trkpt>
      <trkpt lat="45.93978" lon="4.7687">
        <ele>200.4</ele>
        <time>2024-09-19T14:11:44Z</time>
      </trkpt>
      <trkpt lat="45.93981" lon="4.76871">
        <ele>200.4</ele>
        <time>2024-09-19T14:11:45Z</time>
      </trkpt>
      <trkpt lat="45.93983" lon="4.76873">
        <ele>200.4</ele>
        <time>2024-09-19T14:11:46Z</time>
      </trkpt>
      <trkpt lat="45.93985" lon="4.76874">
        <ele>200.4</ele>
        <time>2024-09-19T14:11:47Z</time>
      </trkpt>
      <trkpt lat="45.93988" lon="4.76876">
        <ele>200.4</ele>
        <time>2024-09-19T14:11:48Z</time>
      </trkpt>
      <trkpt lat="45.9399" lon="4.76879">
        <ele>201</ele>
        <time>2024-09-19T14:11:49Z</time>
      </trkpt>
      <trkpt lat="45.93991" lon="4.76882">
        <ele>201</ele>
        <time>2024-09-19T14:11:50Z</time>
      </trkpt>
      <trkpt lat="45.93991" lon="4.76885">
        <ele>201</ele>
        <time>2024-09-19T14:11:51Z</time>
      </trkpt>
      <trkpt lat="45.93989" lon="4.76887">
        <ele>201</ele>
        <time>2024-09-19T14:11:52Z</time>
      </trkpt>
      <trkpt lat="45.93989" lon="4.76889">
        <ele>201</ele>
        <time>2024-09-19T14:11:53Z</time>
      </trkpt>
      <trkpt lat="45.93989" lon="4.76891">
        <ele>201.4</ele>
        <time>2024-09-19T14:11:54Z</time>
      </trkpt>
      <trkpt lat="45.9399" lon="4.76892">
        <ele>201.4</ele>
        <time>2024-09-19T14:11:55Z</time>
      </trkpt>
      <trkpt lat="45.93991" lon="4.76891">
        <ele>201.4</ele>
        <time>2024-09-19T14:11:56Z</time>
      </trkpt>
      <trkpt lat="45.93992" lon="4.7689">
        <ele>201.4</ele>
        <time>2024-09-19T14:11:57Z</time>
      </trkpt>
      <trkpt lat="45.93992" lon="4.76887">
        <ele>201.4</ele>
        <time>2024-09-19T14:11:58Z</time>
      </trkpt>
      <trkpt lat="45.93991" lon="4.76885">
        <ele>201.6</ele>
        <time>2024-09-19T14:11:59Z</time>
      </trkpt>
      <trkpt lat="45.9399" lon="4.76882">
        <ele>201.6</ele>
        <time>2024-09-19T14:12:00Z</time>
      </trkpt>
      <trkpt lat="45.93988" lon="4.7688">
        <ele>201.6</ele>
        <time>2024-09-19T14:12:01Z</time>
      </trkpt>
      <trkpt lat="45.93985" lon="4.76878">
        <ele>201.6</ele>
        <time>2024-09-19T14:12:02Z</time>
      </trkpt>
      <trkpt lat="45.93983" lon="4.76878">
        <ele>201.6</ele>
        <time>2024-09-19T14:12:03Z</time>
      </trkpt>
      <trkpt lat="45.9398" lon="4.76878">
        <ele>201.6</ele>
        <time>2024-09-19T14:12:04Z</time>
      </trkpt>
      <trkpt lat="45.93977" lon="4.76875">
        <ele>201.6</ele>
        <time>2024-09-19T14:12:05Z</time>
      </trkpt>
      <trkpt lat="45.93977" lon="4.7687">
        <ele>201.6</ele>
        <time>2024-09-19T14:12:06Z</time>
      </trkpt>
      <trkpt lat="45.93978" lon="4.76866">
        <ele>201.6</ele>
        <time>2024-09-19T14:12:07Z</time>
      </trkpt>
      <trkpt lat="45.9398" lon="4.76862">
        <ele>201.8</ele>
        <time>2024-09-19T14:12:08Z</time>
      </trkpt>
      <trkpt lat="45.93981" lon="4.76857">
        <ele>201.8</ele>
        <time>2024-09-19T14:12:09Z</time>
      </trkpt>
      <trkpt lat="45.93981" lon="4.76853">
        <ele>201.8</ele>
        <time>2024-09-19T14:12:10Z</time>
      </trkpt>
      <trkpt lat="45.93982" lon="4.76848">
        <ele>201.8</ele>
        <time>2024-09-19T14:12:11Z</time>
      </trkpt>
      <trkpt lat="45.93982" lon="4.76843">
        <ele>202.2</ele>
        <time>2024-09-19T14:12:12Z</time>
      </trkpt>
      <trkpt lat="45.93981" lon="4.76838">
        <ele>202.2</ele>
        <time>2024-09-19T14:12:13Z</time>
      </trkpt>
      <trkpt lat="45.93979" lon="4.76833">
        <ele>202.2</ele>
        <time>2024-09-19T14:12:14Z</time>
      </trkpt>
      <trkpt lat="45.93977" lon="4.76828">
        <ele>202.2</ele>
        <time>2024-09-19T14:12:15Z</time>
      </trkpt>
      <trkpt lat="45.93975" lon="4.76824">
        <ele>201.4</ele>
        <time>2024-09-19T14:12:16Z</time>
      </trkpt>
      <trkpt lat="45.93973" lon="4.76821">
        <ele>201.8</ele>
        <time>2024-09-19T14:12:17Z</time>
      </trkpt>
      <trkpt lat="45.93971" lon="4.76817">
        <ele>201.8</ele>
        <time>2024-09-19T14:12:18Z</time>
      </trkpt>
      <trkpt lat="45.93969" lon="4.76814">
        <ele>201.8</ele>
        <time>2024-09-19T14:12:19Z</time>
      </trkpt>
      <trkpt lat="45.93968" lon="4.7681">
        <ele>201.8</ele>
        <time>2024-09-19T14:12:20Z</time>
      </trkpt>
      <trkpt lat="45.93968" lon="4.76806">
        <ele>202.2</ele>
        <time>2024-09-19T14:12:21Z</time>
      </trkpt>
      <trkpt lat="45.93968" lon="4.76802">
        <ele>202.2</ele>
        <time>2024-09-19T14:12:22Z</time>
      </trkpt>
      <trkpt lat="45.93968" lon="4.76799">
        <ele>202.2</ele>
        <time>2024-09-19T14:12:23Z</time>
      </trkpt>
      <trkpt lat="45.93969" lon="4.76796">
        <ele>201.8</ele>
        <time>2024-09-19T14:12:24Z</time>
      </trkpt>
      <trkpt lat="45.9397" lon="4.76793">
        <ele>201.8</ele>
        <time>2024-09-19T14:12:25Z</time>
      </trkpt>
      <trkpt lat="45.9397" lon="4.7679">
        <ele>201.8</ele>
        <time>2024-09-19T14:12:26Z</time>
      </trkpt>
      <trkpt lat="45.93971" lon="4.76789">
        <ele>201.8</ele>
        <time>2024-09-19T14:12:27Z</time>
      </trkpt>
      <trkpt lat="45.93971" lon="4.76789">
        <ele>201.8</ele>
        <time>2024-09-19T14:12:28Z</time>
      </trkpt>
      <trkpt lat="45.93973" lon="4.76785">
        <ele>201.4</ele>
        <time>2024-09-19T14:13:10Z</time>
      </trkpt>
      <trkpt lat="45.93972" lon="4.76785">
        <ele>201.4</ele>
        <time>2024-09-19T14:13:11Z</time>
      </trkpt>
      <trkpt lat="45.93971" lon="4.76785">
        <ele>201.4</ele>
        <time>2024-09-19T14:13:12Z</time>
      </trkpt>
      <trkpt lat="45.93969" lon="4.76785">
        <ele>201.4</ele>
        <time>2024-09-19T14:13:13Z</time>
      </trkpt>
      <trkpt lat="45.93968" lon="4.76785">
        <ele>201.4</ele>
        <time>2024-09-19T14:13:14Z</time>
      </trkpt>
      <trkpt lat="45.93967" lon="4.76785">
        <ele>201.4</ele>
        <time>2024-09-19T14:13:15Z</time>
      </trkpt>
      <trkpt lat="45.93967" lon="4.76785">
        <ele>201.4</ele>
        <time>2024-09-19T14:13:16Z</time>
      </trkpt>
      <trkpt lat="45.93966" lon="4.76785">
        <ele>201.4</ele>
        <time>2024-09-19T14:13:17Z</time>
      </trkpt>
      <trkpt lat="45.93965" lon="4.76784">
        <ele>201.6</ele>
        <time>2024-09-19T14:13:18Z</time>
      </trkpt>
      <trkpt lat="45.93965" lon="4.76784">
        <ele>201.6</ele>
        <time>2024-09-19T14:13:19Z</time>
      </trkpt>
      <trkpt lat="45.93964" lon="4.76784">
        <ele>201.6</ele>
        <time>2024-09-19T14:13:20Z</time>
      </trkpt>
      <trkpt lat="45.93963" lon="4.76784">
        <ele>201.6</ele>
        <time>2024-09-19T14:13:21Z</time>
      </trkpt>
      <trkpt lat="45.93962" lon="4.76784">
        <ele>201.6</ele>
        <time>2024-09-19T14:13:22Z</time>
      </trkpt>
      <trkpt lat="45.93962" lon="4.76784">
        <ele>201.6</ele>
        <time>2024-09-19T14:13:23Z</time>
      </trkpt>
      <trkpt lat="45.93962" lon="4.76784">
        <ele>201.6</ele>
        <time>2024-09-19T14:13:24Z</time>
      </trkpt>
      <trkpt lat="45.93961" lon="4.76783">
        <ele>201.6</ele>
        <time>2024-09-19T14:14:06Z</time>
      </trkpt>
      <trkpt lat="45.93961" lon="4.76783">
        <ele>201.6</ele>
        <time>2024-09-19T14:14:07Z</time>
      </trkpt>
    </trkseg>
  </trk>
  <trk>
    <name><![CDATA[Première étape Châlons/ Pont de Vaux avec Laurence]]></name>
    <extensions>
      <line xmlns="http://www.topografix.com/GPX/gpx_style/0/2">
        <color>FF0000</color>
        <width>4</width>
      </line>
    </extensions>
    <trkseg>
      <trkpt lat="46.78085" lon="4.84464">
        <ele>182.6</ele>
        <time>2024-09-18T08:47:01Z</time>
      </trkpt>
      <trkpt lat="46.78085" lon="4.84464">
        <ele>182.6</ele>
        <time>2024-09-18T08:47:02Z</time>
      </trkpt>
      <trkpt lat="46.78085" lon="4.84464">
        <ele>182.6</ele>
        <time>2024-09-18T08:47:03Z</time>
      </trkpt>
      <trkpt lat="46.78082" lon="4.84466">
        <ele>182.2</ele>
        <time>2024-09-18T08:47:04Z</time>
      </trkpt>
      <trkpt lat="46.78078" lon="4.84468">
        <ele>182.2</ele>
        <time>2024-09-18T08:47:05Z</time>
      </trkpt>
      <trkpt lat="46.78075" lon="4.84471">
        <ele>182.2</ele>
        <time>2024-09-18T08:47:06Z</time>
      </trkpt>
      <trkpt lat="46.78073" lon="4.84473">
        <ele>182.6</ele>
        <time>2024-09-18T08:47:07Z</time>
      </trkpt>
      <trkpt lat="46.78069" lon="4.84477">
        <ele>182.4</ele>
        <time>2024-09-18T08:47:08Z</time>
      </trkpt>
      <trkpt lat="46.78066" lon="4.8448">
        <ele>182.4</ele>
        <time>2024-09-18T08:47:09Z</time>
      </trkpt>
      <trkpt lat="46.78063" lon="4.84482">
        <ele>182.4</ele>
        <time>2024-09-18T08:47:10Z</time>
      </trkpt>
      <trkpt lat="46.7806" lon="4.84485">
        <ele>182.4</ele>
        <time>2024-09-18T08:47:11Z</time>
      </trkpt>
      <trkpt lat="46.78057" lon="4.84488">
        <ele>182.4</ele>
        <time>2024-09-18T08:47:12Z</time>
      </trkpt>
      <trkpt lat="46.78054" lon="4.84491">
        <ele>182.2</ele>
        <time>2024-09-18T08:47:13Z</time>
      </trkpt>
      <trkpt lat="46.7805" lon="4.84494">
        <ele>182.2</ele>
        <time>2024-09-18T08:47:14Z</time>
      </trkpt>
      <trkpt lat="46.78047" lon="4.84496">
        <ele>182.2</ele>
        <time>2024-09-18T08:47:15Z</time>
      </trkpt>
      <trkpt lat="46.78044" lon="4.84498">
        <ele>182.2</ele>
        <time>2024-09-18T08:47:16Z</time>
      </trkpt>
      <trkpt lat="46.78041" lon="4.84501">
        <ele>182.2</ele>
        <time>2024-09-18T08:47:17Z</time>
      </trkpt>
      <trkpt lat="46.78037" lon="4.84505">
        <ele>182.2</ele>
        <time>2024-09-18T08:47:18Z</time>
      </trkpt>
      <trkpt lat="46.78034" lon="4.84508">
        <ele>182.2</ele>
        <time>2024-09-18T08:47:19Z</time>
      </trkpt>
      <trkpt lat="46.78031" lon="4.84511">
        <ele>182.2</ele>
        <time>2024-09-18T08:47:20Z</time>
      </trkpt>
      <trkpt lat="46.78028" lon="4.84513">
        <ele>182.2</ele>
        <time>2024-09-18T08:47:21Z</time>
      </trkpt>
      <trkpt lat="46.78026" lon="4.84516">
        <ele>182.2</ele>
        <time>2024-09-18T08:47:22Z</time>
      </trkpt>
      <trkpt lat="46.78023" lon="4.84519">
        <ele>182.2</ele>
        <time>2024-09-18T08:47:23Z</time>
      </trkpt>
      <trkpt lat="46.7802" lon="4.84522">
        <ele>182.2</ele>
        <time>2024-09-18T08:47:24Z</time>
      </trkpt>
      <trkpt lat="46.78017" lon="4.84524">
        <ele>182</ele>
        <time>2024-09-18T08:47:25Z</time>
      </trkpt>
      <trkpt lat="46.78014" lon="4.84526">
        <ele>181.8</ele>
        <time>2024-09-18T08:47:26Z</time>
      </trkpt>
      <trkpt lat="46.78012" lon="4.84527">
        <ele>181.8</ele>
        <time>2024-09-18T08:47:27Z</time>
      </trkpt>
      <trkpt lat="46.7801" lon="4.84528">
        <ele>181.8</ele>
        <time>2024-09-18T08:47:28Z</time>
      </trkpt>
      <trkpt lat="46.78008" lon="4.8453">
        <ele>181.8</ele>
        <time>2024-09-18T08:47:29Z</time>
      </trkpt>
      <trkpt lat="46.78006" lon="4.84532">
        <ele>181.8</ele>
        <time>2024-09-18T08:47:30Z</time>
      </trkpt>
      <trkpt lat="46.78004" lon="4.84534">
        <ele>181.8</ele>
        <time>2024-09-18T08:47:31Z</time>
      </trkpt>
      <trkpt lat="46.78002" lon="4.84536">
        <ele>181.8</ele>
        <time>2024-09-18T08:47:32Z</time>
      </trkpt>
      <trkpt lat="46.77999" lon="4.84538">
        <ele>181.8</ele>
        <time>2024-09-18T08:47:33Z</time>
      </trkpt>
      <trkpt lat="46.77997" lon="4.8454">
        <ele>181.8</ele>
        <time>2024-09-18T08:47:34Z</time>
      </trkpt>
      <trkpt lat="46.77994" lon="4.84542">
        <ele>181.6</ele>
        <time>2024-09-18T08:47:35Z</time>
      </trkpt>
      <trkpt lat="46.7799" lon="4.84544">
        <ele>181.6</ele>
        <time>2024-09-18T08:47:36Z</time>
      </trkpt>
      <trkpt lat="46.77985" lon="4.84547">
        <ele>181.6</ele>
        <time>2024-09-18T08:47:37Z</time>
      </trkpt>
      <trkpt lat="46.77984" lon="4.84548">
        <ele>181.6</ele>
        <time>2024-09-18T08:47:38Z</time>
      </trkpt>
      <trkpt lat="46.7798" lon="4.84551">
        <ele>181.6</ele>
        <time>2024-09-18T08:47:39Z</time>
      </trkpt>
      <trkpt lat="46.77977" lon="4.84554">
        <ele>181.8</ele>
        <time>2024-09-18T08:47:40Z</time>
      </trkpt>
      <trkpt lat="46.77973" lon="4.84557">
        <ele>181.8</ele>
        <time>2024-09-18T08:47:41Z</time>
      </trkpt>
      <trkpt lat="46.77969" lon="4.84561">
        <ele>181.8</ele>
        <time>2024-09-18T08:47:42Z</time>
      </trkpt>
      <trkpt lat="46.77966" lon="4.84564">
        <ele>181.6</ele>
        <time>2024-09-18T08:47:43Z</time>
      </trkpt>
      <trkpt lat="46.77962" lon="4.84566">
        <ele>181.4</ele>
        <time>2024-09-18T08:47:44Z</time>
      </trkpt>
      <trkpt lat="46.77958" lon="4.84568">
        <ele>181.4</ele>
        <time>2024-09-18T08:47:45Z</time>
      </trkpt>
      <trkpt lat="46.77954" lon="4.84571">
        <ele>181.4</ele>
        <time>2024-09-18T08:47:46Z</time>
      </trkpt>
      <trkpt lat="46.7795" lon="4.84573">
        <ele>181.4</ele>
        <time>2024-09-18T08:47:47Z</time>
      </trkpt>
      <trkpt lat="46.77946" lon="4.84576">
        <ele>181.6</ele>
        <time>2024-09-18T08:47:48Z</time>
      </trkpt>
      <trkpt lat="46.77943" lon="4.84579">
        <ele>181.6</ele>
        <time>2024-09-18T08:47:49Z</time>
      </trkpt>
      <trkpt lat="46.77941" lon="4.84582">
        <ele>181.6</ele>
        <time>2024-09-18T08:47:50Z</time>
      </trkpt>
      <trkpt lat="46.77938" lon="4.84584">
        <ele>181.6</ele>
        <time>2024-09-18T08:47:51Z</time>
      </trkpt>
      <trkpt lat="46.77936" lon="4.84587">
        <ele>181.2</ele>
        <time>2024-09-18T08:47:52Z</time>
      </trkpt>
      <trkpt lat="46.77934" lon="4.84589">
        <ele>180.8</ele>
        <time>2024-09-18T08:47:53Z</time>
      </trkpt>
      <trkpt lat="46.77932" lon="4.84591">
        <ele>180.8</ele>
        <time>2024-09-18T08:47:54Z</time>
      </trkpt>
      <trkpt lat="46.7793" lon="4.84593">
        <ele>180.8</ele>
        <time>2024-09-18T08:47:55Z</time>
      </trkpt>
      <trkpt lat="46.77929" lon="4.84596">
        <ele>180.6</ele>
        <time>2024-09-18T08:47:56Z</time>
      </trkpt>
      <trkpt lat="46.77927" lon="4.84599">
        <ele>180.6</ele>
        <time>2024-09-18T08:47:57Z</time>
      </trkpt>
      <trkpt lat="46.77925" lon="4.84601">
        <ele>180.6</ele>
        <time>2024-09-18T08:47:58Z</time>
      </trkpt>
      <trkpt lat="46.77922" lon="4.84603">
        <ele>180.6</ele>
        <time>2024-09-18T08:47:59Z</time>
      </trkpt>
      <trkpt lat="46.7792" lon="4.84605">
        <ele>180.6</ele>
        <time>2024-09-18T08:48:00Z</time>
      </trkpt>
      <trkpt lat="46.77919" lon="4.84606">
        <ele>180.6</ele>
        <time>2024-09-18T08:48:01Z</time>
      </trkpt>
      <trkpt lat="46.77917" lon="4.84608">
        <ele>180.6</ele>
        <time>2024-09-18T08:48:02Z</time>
      </trkpt>
      <trkpt lat="46.77916" lon="4.84609">
        <ele>180.6</ele>
        <time>2024-09-18T08:48:03Z</time>
      </trkpt>
      <trkpt lat="46.77915" lon="4.8461">
        <ele>180.6</ele>
        <time>2024-09-18T08:48:04Z</time>
      </trkpt>
      <trkpt lat="46.77914" lon="4.84611">
        <ele>180.8</ele>
        <time>2024-09-18T08:48:05Z</time>
      </trkpt>
      <trkpt lat="46.77913" lon="4.84612">
        <ele>180.8</ele>
        <time>2024-09-18T08:48:06Z</time>
      </trkpt>
      <trkpt lat="46.77912" lon="4.84613">
        <ele>180.8</ele>
        <time>2024-09-18T08:48:07Z</time>
      </trkpt>
      <trkpt lat="46.77911" lon="4.84614">
        <ele>180.8</ele>
        <time>2024-09-18T08:48:08Z</time>
      </trkpt>
      <trkpt lat="46.77909" lon="4.84616">
        <ele>180.8</ele>
        <time>2024-09-18T08:48:09Z</time>
      </trkpt>
      <trkpt lat="46.77908" lon="4.84617">
        <ele>180.8</ele>
        <time>2024-09-18T08:48:10Z</time>
      </trkpt>
      <trkpt lat="46.77907" lon="4.84618">
        <ele>180.8</ele>
        <time>2024-09-18T08:48:11Z</time>
      </trkpt>
      <trkpt lat="46.77905" lon="4.8462">
        <ele>180.8</ele>
        <time>2024-09-18T08:48:12Z</time>
      </trkpt>
      <trkpt lat="46.77904" lon="4.84621">
        <ele>180.8</ele>
        <time>2024-09-18T08:48:13Z</time>
      </trkpt>
      <trkpt lat="46.77902" lon="4.84622">
        <ele>180.8</ele>
        <time>2024-09-18T08:48:14Z</time>
      </trkpt>
      <trkpt lat="46.779" lon="4.84624">
        <ele>180.8</ele>
        <time>2024-09-18T08:48:15Z</time>
      </trkpt>
      <trkpt lat="46.77898" lon="4.84625">
        <ele>180.4</ele>
        <time>2024-09-18T08:48:16Z</time>
      </trkpt>
      <trkpt lat="46.77896" lon="4.84627">
        <ele>180.4</ele>
        <time>2024-09-18T08:48:17Z</time>
      </trkpt>
      <trkpt lat="46.77894" lon="4.8463">
        <ele>180.4</ele>
        <time>2024-09-18T08:48:18Z</time>
      </trkpt>
      <trkpt lat="46.77891" lon="4.84632">
        <ele>181</ele>
        <time>2024-09-18T08:48:19Z</time>
      </trkpt>
      <trkpt lat="46.77888" lon="4.84635">
        <ele>180.6</ele>
        <time>2024-09-18T08:48:20Z</time>
      </trkpt>
      <trkpt lat="46.77885" lon="4.84638">
        <ele>180.6</ele>
        <time>2024-09-18T08:48:21Z</time>
      </trkpt>
      <trkpt lat="46.77882" lon="4.84641">
        <ele>180.6</ele>
        <time>2024-09-18T08:48:22Z</time>
      </trkpt>
      <trkpt lat="46.77879" lon="4.84644">
        <ele>180.6</ele>
        <time>2024-09-18T08:48:23Z</time>
      </trkpt>
      <trkpt lat="46.77875" lon="4.84646">
        <ele>181.2</ele>
        <time>2024-09-18T08:48:24Z</time>
      </trkpt>
      <trkpt lat="46.77872" lon="4.84649">
        <ele>181.4</ele>
        <time>2024-09-18T08:48:25Z</time>
      </trkpt>
      <trkpt lat="46.77869" lon="4.84652">
        <ele>181.4</ele>
        <time>2024-09-18T08:48:26Z</time>
      </trkpt>
      <trkpt lat="46.77866" lon="4.84655">
        <ele>181.4</ele>
        <time>2024-09-18T08:48:27Z</time>
      </trkpt>
      <trkpt lat="46.77863" lon="4.84658">
        <ele>180.8</ele>
        <time>2024-09-18T08:48:28Z</time>
      </trkpt>
      <trkpt lat="46.77859" lon="4.84661">
        <ele>181</ele>
        <time>2024-09-18T08:48:29Z</time>
      </trkpt>
      <trkpt lat="46.77856" lon="4.84664">
        <ele>181</ele>
        <time>2024-09-18T08:48:30Z</time>
      </trkpt>
      <trkpt lat="46.77853" lon="4.84667">
        <ele>181</ele>
        <time>2024-09-18T08:48:31Z</time>
      </trkpt>
      <trkpt lat="46.77851" lon="4.8467">
        <ele>180.4</ele>
        <time>2024-09-18T08:48:32Z</time>
      </trkpt>
      <trkpt lat="46.77848" lon="4.84673">
        <ele>180.4</ele>
        <time>2024-09-18T08:48:33Z</time>
      </trkpt>
      <trkpt lat="46.77846" lon="4.84676">
        <ele>180.4</ele>
        <time>2024-09-18T08:48:34Z</time>
      </trkpt>
      <trkpt lat="46.77843" lon="4.84678">
        <ele>180.4</ele>
        <time>2024-09-18T08:48:35Z</time>
      </trkpt>
      <trkpt lat="46.7784" lon="4.8468">
        <ele>180.4</ele>
        <time>2024-09-18T08:48:36Z</time>
      </trkpt>
      <trkpt lat="46.77837" lon="4.84682">
        <ele>180.4</ele>
        <time>2024-09-18T08:48:37Z</time>
      </trkpt>
      <trkpt lat="46.77834" lon="4.84685">
        <ele>180.2</ele>
        <time>2024-09-18T08:48:38Z</time>
      </trkpt>
      <trkpt lat="46.77832" lon="4.84687">
        <ele>180.2</ele>
        <time>2024-09-18T08:48:39Z</time>
      </trkpt>
      <trkpt lat="46.7783" lon="4.84689">
        <ele>180.2</ele>
        <time>2024-09-18T08:48:40Z</time>
      </trkpt>
      <trkpt lat="46.77827" lon="4.84691">
        <ele>180.4</ele>
        <time>2024-09-18T08:48:41Z</time>
      </trkpt>
      <trkpt lat="46.77825" lon="4.84693">
        <ele>180.4</ele>
        <time>2024-09-18T08:48:42Z</time>
      </trkpt>
      <trkpt lat="46.77825" lon="4.84694">
        <ele>180.4</ele>
        <time>2024-09-18T08:48:43Z</time>
      </trkpt>
      <trkpt lat="46.77824" lon="4.84695">
        <ele>180.4</ele>
        <time>2024-09-18T08:48:44Z</time>
      </trkpt>
      <trkpt lat="46.77824" lon="4.84696">
        <ele>180.4</ele>
        <time>2024-09-18T08:48:45Z</time>
      </trkpt>
      <trkpt lat="46.77824" lon="4.84698">
        <ele>180.2</ele>
        <time>2024-09-18T08:48:46Z</time>
      </trkpt>
      <trkpt lat="46.77824" lon="4.84699">
        <ele>180.4</ele>
        <time>2024-09-18T08:48:47Z</time>
      </trkpt>
      <trkpt lat="46.77823" lon="4.847">
        <ele>180.4</ele>
        <time>2024-09-18T08:48:48Z</time>
      </trkpt>
      <trkpt lat="46.77823" lon="4.84701">
        <ele>180.4</ele>
        <time>2024-09-18T08:48:56Z</time>
      </trkpt>
      <trkpt lat="46.77823" lon="4.84702">
        <ele>180.4</ele>
        <time>2024-09-18T08:48:57Z</time>
      </trkpt>
      <trkpt lat="46.77824" lon="4.84704">
        <ele>180.4</ele>
        <time>2024-09-18T08:48:58Z</time>
      </trkpt>
      <trkpt lat="46.77825" lon="4.84707">
        <ele>180.2</ele>
        <time>2024-09-18T08:48:59Z</time>
      </trkpt>
      <trkpt lat="46.77827" lon="4.8471">
        <ele>180.2</ele>
        <time>2024-09-18T08:49:00Z</time>
      </trkpt>
      <trkpt lat="46.77828" lon="4.84712">
        <ele>180.2</ele>
        <time>2024-09-18T08:49:01Z</time>
      </trkpt>
      <trkpt lat="46.77829" lon="4.84716">
        <ele>180.2</ele>
        <time>2024-09-18T08:49:02Z</time>
      </trkpt>
      <trkpt lat="46.7783" lon="4.84719">
        <ele>180.2</ele>
        <time>2024-09-18T08:49:03Z</time>
      </trkpt>
      <trkpt lat="46.77831" lon="4.84723">
        <ele>180.2</ele>
        <time>2024-09-18T08:49:04Z</time>
      </trkpt>
      <trkpt lat="46.77832" lon="4.84727">
        <ele>180.4</ele>
        <time>2024-09-18T08:49:05Z</time>
      </trkpt>
      <trkpt lat="46.77833" lon="4.84732">
        <ele>180.4</ele>
        <time>2024-09-18T08:49:06Z</time>
      </trkpt>
      <trkpt lat="46.77835" lon="4.84736">
        <ele>180.4</ele>
        <time>2024-09-18T08:49:07Z</time>
      </trkpt>
      <trkpt lat="46.77836" lon="4.8474">
        <ele>180.4</ele>
        <time>2024-09-18T08:49:08Z</time>
      </trkpt>
      <trkpt lat="46.77837" lon="4.84745">
        <ele>180.4</ele>
        <time>2024-09-18T08:49:09Z</time>
      </trkpt>
      <trkpt lat="46.77838" lon="4.84749">
        <ele>180.4</ele>
        <time>2024-09-18T08:49:10Z</time>
      </trkpt>
      <trkpt lat="46.7784" lon="4.84752">
        <ele>180.4</ele>
        <time>2024-09-18T08:49:11Z</time>
      </trkpt>
      <trkpt lat="46.77841" lon="4.84755">
        <ele>180.4</ele>
        <time>2024-09-18T08:49:12Z</time>
      </trkpt>
      <trkpt lat="46.77842" lon="4.84759">
        <ele>180.4</ele>
        <time>2024-09-18T08:49:13Z</time>
      </trkpt>
      <trkpt lat="46.77842" lon="4.84762">
        <ele>180.6</ele>
        <time>2024-09-18T08:49:14Z</time>
      </trkpt>
      <trkpt lat="46.77843" lon="4.84765">
        <ele>180.6</ele>
        <time>2024-09-18T08:49:15Z</time>
      </trkpt>
      <trkpt lat="46.77844" lon="4.84768">
        <ele>180.6</ele>
        <time>2024-09-18T08:49:16Z</time>
      </trkpt>
      <trkpt lat="46.77845" lon="4.8477">
        <ele>180.6</ele>
        <time>2024-09-18T08:49:17Z</time>
      </trkpt>
      <trkpt lat="46.77845" lon="4.84772">
        <ele>180.6</ele>
        <time>2024-09-18T08:49:18Z</time>
      </trkpt>
      <trkpt lat="46.77846" lon="4.84774">
        <ele>180.6</ele>
        <time>2024-09-18T08:49:19Z</time>
      </trkpt>
      <trkpt lat="46.77847" lon="4.84777">
        <ele>180.6</ele>
        <time>2024-09-18T08:49:20Z</time>
      </trkpt>
      <trkpt lat="46.77849" lon="4.8478">
        <ele>180.6</ele>
        <time>2024-09-18T08:49:21Z</time>
      </trkpt>
      <trkpt lat="46.7785" lon="4.84784">
        <ele>180.6</ele>
        <time>2024-09-18T08:49:22Z</time>
      </trkpt>
      <trkpt lat="46.77851" lon="4.84787">
        <ele>180.8</ele>
        <time>2024-09-18T08:49:23Z</time>
      </trkpt>
      <trkpt lat="46.77852" lon="4.8479">
        <ele>180.8</ele>
        <time>2024-09-18T08:49:24Z</time>
      </trkpt>
      <trkpt lat="46.77853" lon="4.84793">
        <ele>180.8</ele>
        <time>2024-09-18T08:49:25Z</time>
      </trkpt>
      <trkpt lat="46.77854" lon="4.84795">
        <ele>180.6</ele>
        <time>2024-09-18T08:49:26Z</time>
      </trkpt>
      <trkpt lat="46.77855" lon="4.84798">
        <ele>180.4</ele>
        <time>2024-09-18T08:49:27Z</time>
      </trkpt>
      <trkpt lat="46.77856" lon="4.84802">
        <ele>180.4</ele>
        <time>2024-09-18T08:49:28Z</time>
      </trkpt>
      <trkpt lat="46.77857" lon="4.84806">
        <ele>180.4</ele>
        <time>2024-09-18T08:49:29Z</time>
      </trkpt>
      <trkpt lat="46.77858" lon="4.84809">
        <ele>180.4</ele>
        <time>2024-09-18T08:49:30Z</time>
      </trkpt>
      <trkpt lat="46.77859" lon="4.84812">
        <ele>180.6</ele>
        <time>2024-09-18T08:49:31Z</time>
      </trkpt>
      <trkpt lat="46.77861" lon="4.84816">
        <ele>180.6</ele>
        <time>2024-09-18T08:49:32Z</time>
      </trkpt>
      <trkpt lat="46.77862" lon="4.8482">
        <ele>180.6</ele>
        <time>2024-09-18T08:49:33Z</time>
      </trkpt>
      <trkpt lat="46.77863" lon="4.84824">
        <ele>180.6</ele>
        <time>2024-09-18T08:49:34Z</time>
      </trkpt>
      <trkpt lat="46.77865" lon="4.84827">
        <ele>180.6</ele>
        <time>2024-09-18T08:49:35Z</time>
      </trkpt>
      <trkpt lat="46.77865" lon="4.84831">
        <ele>180.4</ele>
        <time>2024-09-18T08:49:36Z</time>
      </trkpt>
      <trkpt lat="46.77866" lon="4.84835">
        <ele>180.4</ele>
        <time>2024-09-18T08:49:37Z</time>
      </trkpt>
      <trkpt lat="46.77866" lon="4.84839">
        <ele>180.4</ele>
        <time>2024-09-18T08:49:38Z</time>
      </trkpt>
      <trkpt lat="46.77867" lon="4.84842">
        <ele>180.6</ele>
        <time>2024-09-18T08:49:39Z</time>
      </trkpt>
      <trkpt lat="46.77868" lon="4.84847">
        <ele>180.4</ele>
        <time>2024-09-18T08:49:40Z</time>
      </trkpt>
      <trkpt lat="46.77869" lon="4.8485">
        <ele>180.4</ele>
        <time>2024-09-18T08:49:41Z</time>
      </trkpt>
      <trkpt lat="46.7787" lon="4.84853">
        <ele>180.4</ele>
        <time>2024-09-18T08:49:42Z</time>
      </trkpt>
      <trkpt lat="46.77872" lon="4.84856">
        <ele>180.4</ele>
        <time>2024-09-18T08:49:43Z</time>
      </trkpt>
      <trkpt lat="46.77872" lon="4.84858">
        <ele>180.4</ele>
        <time>2024-09-18T08:49:44Z</time>
      </trkpt>
      <trkpt lat="46.77873" lon="4.84861">
        <ele>180.4</ele>
        <time>2024-09-18T08:49:45Z</time>
      </trkpt>
      <trkpt lat="46.77874" lon="4.84864">
        <ele>180.6</ele>
        <time>2024-09-18T08:49:46Z</time>
      </trkpt>
      <trkpt lat="46.77875" lon="4.84867">
        <ele>180.6</ele>
        <time>2024-09-18T08:49:47Z</time>
      </trkpt>
      <trkpt lat="46.77875" lon="4.84869">
        <ele>180.6</ele>
        <time>2024-09-18T08:49:48Z</time>
      </trkpt>
      <trkpt lat="46.77875" lon="4.84873">
        <ele>180.6</ele>
        <time>2024-09-18T08:49:49Z</time>
      </trkpt>
      <trkpt lat="46.77876" lon="4.84875">
        <ele>180.6</ele>
        <time>2024-09-18T08:49:50Z</time>
      </trkpt>
      <trkpt lat="46.77877" lon="4.84883">
        <ele>180.6</ele>
        <time>2024-09-18T08:49:51Z</time>
      </trkpt>
      <trkpt lat="46.77878" lon="4.84885">
        <ele>180.6</ele>
        <time>2024-09-18T08:49:52Z</time>
      </trkpt>
      <trkpt lat="46.77879" lon="4.84891">
        <ele>180.6</ele>
        <time>2024-09-18T08:49:53Z</time>
      </trkpt>
      <trkpt lat="46.77881" lon="4.84896">
        <ele>180.8</ele>
        <time>2024-09-18T08:49:54Z</time>
      </trkpt>
      <trkpt lat="46.77882" lon="4.849">
        <ele>180.6</ele>
        <time>2024-09-18T08:49:55Z</time>
      </trkpt>
      <trkpt lat="46.77884" lon="4.84906">
        <ele>180.6</ele>
        <time>2024-09-18T08:49:56Z</time>
      </trkpt>
      <trkpt lat="46.77887" lon="4.84911">
        <ele>180.6</ele>
        <time>2024-09-18T08:49:57Z</time>
      </trkpt>
      <trkpt lat="46.7789" lon="4.84916">
        <ele>180.6</ele>
        <time>2024-09-18T08:49:58Z</time>
      </trkpt>
      <trkpt lat="46.77892" lon="4.84922">
        <ele>180.8</ele>
        <time>2024-09-18T08:49:59Z</time>
      </trkpt>
      <trkpt lat="46.77895" lon="4.84929">
        <ele>180.8</ele>
        <time>2024-09-18T08:50:00Z</time>
      </trkpt>
      <trkpt lat="46.77897" lon="4.84934">
        <ele>180.8</ele>
        <time>2024-09-18T08:50:01Z</time>
      </trkpt>
      <trkpt lat="46.77899" lon="4.84939">
        <ele>180.8</ele>
        <time>2024-09-18T08:50:02Z</time>
      </trkpt>
      <trkpt lat="46.77901" lon="4.84944">
        <ele>180.8</ele>
        <time>2024-09-18T08:50:03Z</time>
      </trkpt>
      <trkpt lat="46.77903" lon="4.84949">
        <ele>180.8</ele>
        <time>2024-09-18T08:50:04Z</time>
      </trkpt>
      <trkpt lat="46.77905" lon="4.84953">
        <ele>180.8</ele>
        <time>2024-09-18T08:50:05Z</time>
      </trkpt>
      <trkpt lat="46.77906" lon="4.84957">
        <ele>180.8</ele>
        <time>2024-09-18T08:50:06Z</time>
      </trkpt>
      <trkpt lat="46.77908" lon="4.84961">
        <ele>181.2</ele>
        <time>2024-09-18T08:50:07Z</time>
      </trkpt>
      <trkpt lat="46.77909" lon="4.84965">
        <ele>181</ele>
        <time>2024-09-18T08:50:08Z</time>
      </trkpt>
      <trkpt lat="46.77909" lon="4.84968">
        <ele>181</ele>
        <time>2024-09-18T08:50:09Z</time>
      </trkpt>
      <trkpt lat="46.77909" lon="4.8497">
        <ele>181</ele>
        <time>2024-09-18T08:50:10Z</time>
      </trkpt>
      <trkpt lat="46.77909" lon="4.84972">
        <ele>181.2</ele>
        <time>2024-09-18T08:50:11Z</time>
      </trkpt>
      <trkpt lat="46.77909" lon="4.84973">
        <ele>181.2</ele>
        <time>2024-09-18T08:50:12Z</time>
      </trkpt>
      <trkpt lat="46.77909" lon="4.84974">
        <ele>181.2</ele>
        <time>2024-09-18T08:50:13Z</time>
      </trkpt>
      <trkpt lat="46.77909" lon="4.84974">
        <ele>181.2</ele>
        <time>2024-09-18T08:50:14Z</time>
      </trkpt>
      <trkpt lat="46.77909" lon="4.84975">
        <ele>181</ele>
        <time>2024-09-18T08:50:15Z</time>
      </trkpt>
      <trkpt lat="46.7791" lon="4.84978">
        <ele>181</ele>
        <time>2024-09-18T08:50:16Z</time>
      </trkpt>
      <trkpt lat="46.77911" lon="4.8498">
        <ele>181</ele>
        <time>2024-09-18T08:50:17Z</time>
      </trkpt>
      <trkpt lat="46.77912" lon="4.84981">
        <ele>181</ele>
        <time>2024-09-18T08:50:18Z</time>
      </trkpt>
      <trkpt lat="46.77914" lon="4.84982">
        <ele>181</ele>
        <time>2024-09-18T08:50:19Z</time>
      </trkpt>
      <trkpt lat="46.77915" lon="4.84983">
        <ele>180.8</ele>
        <time>2024-09-18T08:50:20Z</time>
      </trkpt>
      <trkpt lat="46.77917" lon="4.84985">
        <ele>180.8</ele>
        <time>2024-09-18T08:50:21Z</time>
      </trkpt>
      <trkpt lat="46.77918" lon="4.84987">
        <ele>180.8</ele>
        <time>2024-09-18T08:50:22Z</time>
      </trkpt>
      <trkpt lat="46.7792" lon="4.8499">
        <ele>180.8</ele>
        <time>2024-09-18T08:50:23Z</time>
      </trkpt>
      <trkpt lat="46.77921" lon="4.84992">
        <ele>181</ele>
        <time>2024-09-18T08:50:24Z</time>
      </trkpt>
      <trkpt lat="46.77922" lon="4.84995">
        <ele>181</ele>
        <time>2024-09-18T08:50:25Z</time>
      </trkpt>
      <trkpt lat="46.77923" lon="4.84998">
        <ele>181</ele>
        <time>2024-09-18T08:50:26Z</time>
      </trkpt>
      <trkpt lat="46.77924" lon="4.85">
        <ele>181</ele>
        <time>2024-09-18T08:50:27Z</time>
      </trkpt>
      <trkpt lat="46.77925" lon="4.85003">
        <ele>181</ele>
        <time>2024-09-18T08:50:28Z</time>
      </trkpt>
      <trkpt lat="46.77926" lon="4.85006">
        <ele>181</ele>
        <time>2024-09-18T08:50:29Z</time>
      </trkpt>
      <trkpt lat="46.77927" lon="4.85009">
        <ele>181</ele>
        <time>2024-09-18T08:50:30Z</time>
      </trkpt>
      <trkpt lat="46.77927" lon="4.85011">
        <ele>180.8</ele>
        <time>2024-09-18T08:50:31Z</time>
      </trkpt>
      <trkpt lat="46.77928" lon="4.85012">
        <ele>180.8</ele>
        <time>2024-09-18T08:50:32Z</time>
      </trkpt>
      <trkpt lat="46.77928" lon="4.85014">
        <ele>180.8</ele>
        <time>2024-09-18T08:50:33Z</time>
      </trkpt>
      <trkpt lat="46.77928" lon="4.85015">
        <ele>180.8</ele>
        <time>2024-09-18T08:50:34Z</time>
      </trkpt>
      <trkpt lat="46.77928" lon="4.85016">
        <ele>180.6</ele>
        <time>2024-09-18T08:50:35Z</time>
      </trkpt>
      <trkpt lat="46.77928" lon="4.85016">
        <ele>180.6</ele>
        <time>2024-09-18T08:50:36Z</time>
      </trkpt>
      <trkpt lat="46.77928" lon="4.85018">
        <ele>180.6</ele>
        <time>2024-09-18T08:50:37Z</time>
      </trkpt>
      <trkpt lat="46.77929" lon="4.85019">
        <ele>180.6</ele>
        <time>2024-09-18T08:50:38Z</time>
      </trkpt>
      <trkpt lat="46.77929" lon="4.85019">
        <ele>180.2</ele>
        <time>2024-09-18T08:50:39Z</time>
      </trkpt>
      <trkpt lat="46.77929" lon="4.85021">
        <ele>180.6</ele>
        <time>2024-09-18T08:50:40Z</time>
      </trkpt>
      <trkpt lat="46.77929" lon="4.85022">
        <ele>180.6</ele>
        <time>2024-09-18T08:50:41Z</time>
      </trkpt>
      <trkpt lat="46.77928" lon="4.85024">
        <ele>180.6</ele>
        <time>2024-09-18T08:50:42Z</time>
      </trkpt>
      <trkpt lat="46.77927" lon="4.85026">
        <ele>180.6</ele>
        <time>2024-09-18T08:50:43Z</time>
      </trkpt>
      <trkpt lat="46.77927" lon="4.85028">
        <ele>180.8</ele>
        <time>2024-09-18T08:50:44Z</time>
      </trkpt>
      <trkpt lat="46.77927" lon="4.85031">
        <ele>180.8</ele>
        <time>2024-09-18T08:50:45Z</time>
      </trkpt>
      <trkpt lat="46.77927" lon="4.85033">
        <ele>180.8</ele>
        <time>2024-09-18T08:50:46Z</time>
      </trkpt>
      <trkpt lat="46.77926" lon="4.85035">
        <ele>180.8</ele>
        <time>2024-09-18T08:50:47Z</time>
      </trkpt>
      <trkpt lat="46.77926" lon="4.85036">
        <ele>180.8</ele>
        <time>2024-09-18T08:50:48Z</time>
      </trkpt>
      <trkpt lat="46.77925" lon="4.85037">
        <ele>180.8</ele>
        <time>2024-09-18T08:50:49Z</time>
      </trkpt>
      <trkpt lat="46.77925" lon="4.85039">
        <ele>180.8</ele>
        <time>2024-09-18T08:50:50Z</time>
      </trkpt>
      <trkpt lat="46.77924" lon="4.8504">
        <ele>180.8</ele>
        <time>2024-09-18T08:50:51Z</time>
      </trkpt>
      <trkpt lat="46.77923" lon="4.85043">
        <ele>180.4</ele>
        <time>2024-09-18T08:50:52Z</time>
      </trkpt>
      <trkpt lat="46.77922" lon="4.85047">
        <ele>180.6</ele>
        <time>2024-09-18T08:50:53Z</time>
      </trkpt>
      <trkpt lat="46.77922" lon="4.85051">
        <ele>180.6</ele>
        <time>2024-09-18T08:50:54Z</time>
      </trkpt>
      <trkpt lat="46.77923" lon="4.85055">
        <ele>180.6</ele>
        <time>2024-09-18T08:50:55Z</time>
      </trkpt>
      <trkpt lat="46.77924" lon="4.85059">
        <ele>180.6</ele>
        <time>2024-09-18T08:50:56Z</time>
      </trkpt>
      <trkpt lat="46.77926" lon="4.85064">
        <ele>180.8</ele>
        <time>2024-09-18T08:50:57Z</time>
      </trkpt>
      <trkpt lat="46.77927" lon="4.85068">
        <ele>180.8</ele>
        <time>2024-09-18T08:50:58Z</time>
      </trkpt>
      <trkpt lat="46.77929" lon="4.85073">
        <ele>180.8</ele>
        <time>2024-09-18T08:50:59Z</time>
      </trkpt>
      <trkpt lat="46.77931" lon="4.85079">
        <ele>180.8</ele>
        <time>2024-09-18T08:51:00Z</time>
      </trkpt>
      <trkpt lat="46.77932" lon="4.85082">
        <ele>180.8</ele>
        <time>2024-09-18T08:51:01Z</time>
      </trkpt>
      <trkpt lat="46.77934" lon="4.85087">
        <ele>181.2</ele>
        <time>2024-09-18T08:51:02Z</time>
      </trkpt>
      <trkpt lat="46.77935" lon="4.85092">
        <ele>181.2</ele>
        <time>2024-09-18T08:51:03Z</time>
      </trkpt>
      <trkpt lat="46.77937" lon="4.85097">
        <ele>181.2</ele>
        <time>2024-09-18T08:51:04Z</time>
      </trkpt>
      <trkpt lat="46.77939" lon="4.85101">
        <ele>181.2</ele>
        <time>2024-09-18T08:51:05Z</time>
      </trkpt>
      <trkpt lat="46.7794" lon="4.85105">
        <ele>180.8</ele>
        <time>2024-09-18T08:51:06Z</time>
      </trkpt>
      <trkpt lat="46.77941" lon="4.8511">
        <ele>180.8</ele>
        <time>2024-09-18T08:51:07Z</time>
      </trkpt>
      <trkpt lat="46.77942" lon="4.85113">
        <ele>180.8</ele>
        <time>2024-09-18T08:51:08Z</time>
      </trkpt>
      <trkpt lat="46.77942" lon="4.85116">
        <ele>180.8</ele>
        <time>2024-09-18T08:51:09Z</time>
      </trkpt>
      <trkpt lat="46.77942" lon="4.8512">
        <ele>180.8</ele>
        <time>2024-09-18T08:51:10Z</time>
      </trkpt>
      <trkpt lat="46.77943" lon="4.85125">
        <ele>181.6</ele>
        <time>2024-09-18T08:51:11Z</time>
      </trkpt>
      <trkpt lat="46.77944" lon="4.85127">
        <ele>181.6</ele>
        <time>2024-09-18T08:51:12Z</time>
      </trkpt>
      <trkpt lat="46.77945" lon="4.85131">
        <ele>181.6</ele>
        <time>2024-09-18T08:51:13Z</time>
      </trkpt>
      <trkpt lat="46.77946" lon="4.85135">
        <ele>181.6</ele>
        <time>2024-09-18T08:51:14Z</time>
      </trkpt>
      <trkpt lat="46.77946" lon="4.85139">
        <ele>181</ele>
        <time>2024-09-18T08:51:15Z</time>
      </trkpt>
      <trkpt lat="46.77947" lon="4.85144">
        <ele>181</ele>
        <time>2024-09-18T08:51:16Z</time>
      </trkpt>
      <trkpt lat="46.77949" lon="4.85148">
        <ele>181</ele>
        <time>2024-09-18T08:51:17Z</time>
      </trkpt>
      <trkpt lat="46.7795" lon="4.85153">
        <ele>181</ele>
        <time>2024-09-18T08:51:18Z</time>
      </trkpt>
      <trkpt lat="46.77952" lon="4.85158">
        <ele>181</ele>
        <time>2024-09-18T08:51:19Z</time>
      </trkpt>
      <trkpt lat="46.77953" lon="4.85163">
        <ele>181</ele>
        <time>2024-09-18T08:51:20Z</time>
      </trkpt>
      <trkpt lat="46.77954" lon="4.85168">
        <ele>181</ele>
        <time>2024-09-18T08:51:21Z</time>
      </trkpt>
      <trkpt lat="46.77956" lon="4.85173">
        <ele>181</ele>
        <time>2024-09-18T08:51:22Z</time>
      </trkpt>
      <trkpt lat="46.77958" lon="4.85178">
        <ele>181</ele>
        <time>2024-09-18T08:51:23Z</time>
      </trkpt>
      <trkpt lat="46.77961" lon="4.85183">
        <ele>180.8</ele>
        <time>2024-09-18T08:51:24Z</time>
      </trkpt>
      <trkpt lat="46.77963" lon="4.85189">
        <ele>180.8</ele>
        <time>2024-09-18T08:51:25Z</time>
      </trkpt>
      <trkpt lat="46.77965" lon="4.85195">
        <ele>180.8</ele>
        <time>2024-09-18T08:51:26Z</time>
      </trkpt>
      <trkpt lat="46.77967" lon="4.85199">
        <ele>180.8</ele>
        <time>2024-09-18T08:51:27Z</time>
      </trkpt>
      <trkpt lat="46.7797" lon="4.85204">
        <ele>180.8</ele>
        <time>2024-09-18T08:51:28Z</time>
      </trkpt>
      <trkpt lat="46.77972" lon="4.8521">
        <ele>181</ele>
        <time>2024-09-18T08:51:29Z</time>
      </trkpt>
      <trkpt lat="46.77975" lon="4.85215">
        <ele>181</ele>
        <time>2024-09-18T08:51:30Z</time>
      </trkpt>
      <trkpt lat="46.77977" lon="4.8522">
        <ele>181</ele>
        <time>2024-09-18T08:51:31Z</time>
      </trkpt>
      <trkpt lat="46.7798" lon="4.85226">
        <ele>181.4</ele>
        <time>2024-09-18T08:51:32Z</time>
      </trkpt>
      <trkpt lat="46.77982" lon="4.85231">
        <ele>181.4</ele>
        <time>2024-09-18T08:51:33Z</time>
      </trkpt>
      <trkpt lat="46.77985" lon="4.85236">
        <ele>181.4</ele>
        <time>2024-09-18T08:51:34Z</time>
      </trkpt>
      <trkpt lat="46.77987" lon="4.8524">
        <ele>181.4</ele>
        <time>2024-09-18T08:51:35Z</time>
      </trkpt>
      <trkpt lat="46.77989" lon="4.85245">
        <ele>181.4</ele>
        <time>2024-09-18T08:51:36Z</time>
      </trkpt>
      <trkpt lat="46.77991" lon="4.8525">
        <ele>181.4</ele>
        <time>2024-09-18T08:51:37Z</time>
      </trkpt>
      <trkpt lat="46.77993" lon="4.85254">
        <ele>181.6</ele>
        <time>2024-09-18T08:51:38Z</time>
      </trkpt>
      <trkpt lat="46.77995" lon="4.85258">
        <ele>181.6</ele>
        <time>2024-09-18T08:51:39Z</time>
      </trkpt>
      <trkpt lat="46.77997" lon="4.85262">
        <ele>181.6</ele>
        <time>2024-09-18T08:51:40Z</time>
      </trkpt>
      <trkpt lat="46.77998" lon="4.85266">
        <ele>181.6</ele>
        <time>2024-09-18T08:51:41Z</time>
      </trkpt>
      <trkpt lat="46.78" lon="4.8527">
        <ele>181.4</ele>
        <time>2024-09-18T08:51:42Z</time>
      </trkpt>
      <trkpt lat="46.78002" lon="4.85274">
        <ele>181.4</ele>
        <time>2024-09-18T08:51:43Z</time>
      </trkpt>
      <trkpt lat="46.78004" lon="4.8528">
        <ele>181.4</ele>
        <time>2024-09-18T08:51:44Z</time>
      </trkpt>
      <trkpt lat="46.78007" lon="4.85287">
        <ele>181.6</ele>
        <time>2024-09-18T08:51:45Z</time>
      </trkpt>
      <trkpt lat="46.78008" lon="4.8529">
        <ele>181.6</ele>
        <time>2024-09-18T08:51:46Z</time>
      </trkpt>
      <trkpt lat="46.7801" lon="4.85297">
        <ele>181.8</ele>
        <time>2024-09-18T08:51:47Z</time>
      </trkpt>
      <trkpt lat="46.78011" lon="4.853">
        <ele>181.8</ele>
        <time>2024-09-18T08:51:48Z</time>
      </trkpt>
      <trkpt lat="46.78012" lon="4.85306">
        <ele>181.8</ele>
        <time>2024-09-18T08:51:49Z</time>
      </trkpt>
      <trkpt lat="46.78014" lon="4.85311">
        <ele>181.8</ele>
        <time>2024-09-18T08:51:50Z</time>
      </trkpt>
      <trkpt lat="46.78016" lon="4.85316">
        <ele>182</ele>
        <time>2024-09-18T08:51:51Z</time>
      </trkpt>
      <trkpt lat="46.78017" lon="4.85321">
        <ele>182</ele>
        <time>2024-09-18T08:51:52Z</time>
      </trkpt>
      <trkpt lat="46.78019" lon="4.85326">
        <ele>182</ele>
        <time>2024-09-18T08:51:53Z</time>
      </trkpt>
      <trkpt lat="46.7802" lon="4.8533">
        <ele>182</ele>
        <time>2024-09-18T08:51:54Z</time>
      </trkpt>
      <trkpt lat="46.78021" lon="4.85333">
        <ele>182.4</ele>
        <time>2024-09-18T08:51:55Z</time>
      </trkpt>
      <trkpt lat="46.78023" lon="4.85336">
        <ele>182.6</ele>
        <time>2024-09-18T08:51:56Z</time>
      </trkpt>
      <trkpt lat="46.78024" lon="4.85338">
        <ele>182.6</ele>
        <time>2024-09-18T08:51:57Z</time>
      </trkpt>
      <trkpt lat="46.78024" lon="4.85341">
        <ele>182.6</ele>
        <time>2024-09-18T08:51:58Z</time>
      </trkpt>
      <trkpt lat="46.78025" lon="4.85344">
        <ele>182.6</ele>
        <time>2024-09-18T08:51:59Z</time>
      </trkpt>
      <trkpt lat="46.78026" lon="4.85347">
        <ele>182.6</ele>
        <time>2024-09-18T08:52:00Z</time>
      </trkpt>
      <trkpt lat="46.78027" lon="4.8535">
        <ele>182.6</ele>
        <time>2024-09-18T08:52:01Z</time>
      </trkpt>
      <trkpt lat="46.78028" lon="4.85353">
        <ele>182.6</ele>
        <time>2024-09-18T08:52:02Z</time>
      </trkpt>
      <trkpt lat="46.78029" lon="4.85357">
        <ele>182.6</ele>
        <time>2024-09-18T08:52:03Z</time>
      </trkpt>
      <trkpt lat="46.7803" lon="4.8536">
        <ele>182.6</ele>
        <time>2024-09-18T08:52:04Z</time>
      </trkpt>
      <trkpt lat="46.78032" lon="4.85364">
        <ele>182.4</ele>
        <time>2024-09-18T08:52:05Z</time>
      </trkpt>
      <trkpt lat="46.78033" lon="4.85368">
        <ele>182.4</ele>
        <time>2024-09-18T08:52:06Z</time>
      </trkpt>
      <trkpt lat="46.78034" lon="4.85373">
        <ele>182.4</ele>
        <time>2024-09-18T08:52:07Z</time>
      </trkpt>
      <trkpt lat="46.78035" lon="4.85377">
        <ele>182.4</ele>
        <time>2024-09-18T08:52:08Z</time>
      </trkpt>
      <trkpt lat="46.78037" lon="4.85382">
        <ele>182.2</ele>
        <time>2024-09-18T08:52:09Z</time>
      </trkpt>
      <trkpt lat="46.78039" lon="4.85387">
        <ele>182.2</ele>
        <time>2024-09-18T08:52:10Z</time>
      </trkpt>
      <trkpt lat="46.7804" lon="4.85392">
        <ele>182.2</ele>
        <time>2024-09-18T08:52:11Z</time>
      </trkpt>
      <trkpt lat="46.78042" lon="4.85397">
        <ele>182.2</ele>
        <time>2024-09-18T08:52:12Z</time>
      </trkpt>
      <trkpt lat="46.78043" lon="4.85402">
        <ele>182.2</ele>
        <time>2024-09-18T08:52:13Z</time>
      </trkpt>
      <trkpt lat="46.78044" lon="4.85406">
        <ele>182</ele>
        <time>2024-09-18T08:52:14Z</time>
      </trkpt>
      <trkpt lat="46.78045" lon="4.85411">
        <ele>182</ele>
        <time>2024-09-18T08:52:15Z</time>
      </trkpt>
      <trkpt lat="46.78046" lon="4.85417">
        <ele>182</ele>
        <time>2024-09-18T08:52:16Z</time>
      </trkpt>
      <trkpt lat="46.78047" lon="4.85421">
        <ele>181.6</ele>
        <time>2024-09-18T08:52:17Z</time>
      </trkpt>
      <trkpt lat="46.7805" lon="4.85427">
        <ele>181.4</ele>
        <time>2024-09-18T08:52:18Z</time>
      </trkpt>
      <trkpt lat="46.78051" lon="4.85428">
        <ele>181.4</ele>
        <time>2024-09-18T08:52:19Z</time>
      </trkpt>
      <trkpt lat="46.78052" lon="4.8543">
        <ele>181.4</ele>
        <time>2024-09-18T08:52:20Z</time>
      </trkpt>
      <trkpt lat="46.78053" lon="4.85431">
        <ele>181.4</ele>
        <time>2024-09-18T08:52:21Z</time>
      </trkpt>
      <trkpt lat="46.78054" lon="4.85432">
        <ele>181.2</ele>
        <time>2024-09-18T08:52:22Z</time>
      </trkpt>
      <trkpt lat="46.78055" lon="4.85434">
        <ele>181</ele>
        <time>2024-09-18T08:52:32Z</time>
      </trkpt>
      <trkpt lat="46.78056" lon="4.85435">
        <ele>181</ele>
        <time>2024-09-18T08:52:33Z</time>
      </trkpt>
      <trkpt lat="46.78057" lon="4.85436">
        <ele>181</ele>
        <time>2024-09-18T08:52:34Z</time>
      </trkpt>
      <trkpt lat="46.78062" lon="4.85434">
        <ele>180.8</ele>
        <time>2024-09-18T08:52:35Z</time>
      </trkpt>
      <trkpt lat="46.78064" lon="4.85433">
        <ele>180.8</ele>
        <time>2024-09-18T08:52:36Z</time>
      </trkpt>
      <trkpt lat="46.78068" lon="4.85431">
        <ele>180.8</ele>
        <time>2024-09-18T08:52:37Z</time>
      </trkpt>
      <trkpt lat="46.78071" lon="4.8543">
        <ele>180.8</ele>
        <time>2024-09-18T08:52:38Z</time>
      </trkpt>
      <trkpt lat="46.78075" lon="4.85428">
        <ele>180.8</ele>
        <time>2024-09-18T08:52:39Z</time>
      </trkpt>
      <trkpt lat="46.78078" lon="4.85426">
        <ele>180.8</ele>
        <time>2024-09-18T08:52:40Z</time>
      </trkpt>
      <trkpt lat="46.78082" lon="4.85424">
        <ele>180.6</ele>
        <time>2024-09-18T08:52:41Z</time>
      </trkpt>
      <trkpt lat="46.78085" lon="4.85422">
        <ele>180.6</ele>
        <time>2024-09-18T08:52:42Z</time>
      </trkpt>
      <trkpt lat="46.78088" lon="4.8542">
        <ele>180.6</ele>
        <time>2024-09-18T08:52:43Z</time>
      </trkpt>
      <trkpt lat="46.78091" lon="4.85419">
        <ele>180.6</ele>
        <time>2024-09-18T08:52:44Z</time>
      </trkpt>
      <trkpt lat="46.78093" lon="4.85416">
        <ele>180.6</ele>
        <time>2024-09-18T08:52:45Z</time>
      </trkpt>
      <trkpt lat="46.78095" lon="4.85414">
        <ele>180.6</ele>
        <time>2024-09-18T08:52:46Z</time>
      </trkpt>
      <trkpt lat="46.78096" lon="4.85412">
        <ele>180.6</ele>
        <time>2024-09-18T08:52:47Z</time>
      </trkpt>
      <trkpt lat="46.78098" lon="4.85412">
        <ele>180.4</ele>
        <time>2024-09-18T08:52:48Z</time>
      </trkpt>
      <trkpt lat="46.781" lon="4.85413">
        <ele>180.6</ele>
        <time>2024-09-18T08:52:49Z</time>
      </trkpt>
      <trkpt lat="46.78101" lon="4.85414">
        <ele>180.6</ele>
        <time>2024-09-18T08:52:50Z</time>
      </trkpt>
      <trkpt lat="46.78103" lon="4.85415">
        <ele>180.6</ele>
        <time>2024-09-18T08:52:51Z</time>
      </trkpt>
      <trkpt lat="46.78104" lon="4.85417">
        <ele>180.6</ele>
        <time>2024-09-18T08:52:52Z</time>
      </trkpt>
      <trkpt lat="46.78104" lon="4.85418">
        <ele>180.6</ele>
        <time>2024-09-18T08:52:53Z</time>
      </trkpt>
      <trkpt lat="46.78106" lon="4.8542">
        <ele>180.4</ele>
        <time>2024-09-18T08:52:54Z</time>
      </trkpt>
      <trkpt lat="46.78107" lon="4.85422">
        <ele>180.4</ele>
        <time>2024-09-18T08:52:55Z</time>
      </trkpt>
      <trkpt lat="46.78108" lon="4.85424">
        <ele>180.4</ele>
        <time>2024-09-18T08:52:56Z</time>
      </trkpt>
      <trkpt lat="46.78108" lon="4.85426">
        <ele>180.4</ele>
        <time>2024-09-18T08:52:57Z</time>
      </trkpt>
      <trkpt lat="46.78109" lon="4.85428">
        <ele>180.2</ele>
        <time>2024-09-18T08:52:58Z</time>
      </trkpt>
      <trkpt lat="46.7811" lon="4.85431">
        <ele>180.2</ele>
        <time>2024-09-18T08:52:59Z</time>
      </trkpt>
      <trkpt lat="46.78111" lon="4.85435">
        <ele>180.2</ele>
        <time>2024-09-18T08:53:00Z</time>
      </trkpt>
      <trkpt lat="46.78113" lon="4.85439">
        <ele>180.2</ele>
        <time>2024-09-18T08:53:01Z</time>
      </trkpt>
      <trkpt lat="46.78114" lon="4.85441">
        <ele>180.4</ele>
        <time>2024-09-18T08:53:02Z</time>
      </trkpt>
      <trkpt lat="46.78115" lon="4.85445">
        <ele>180.6</ele>
        <time>2024-09-18T08:53:03Z</time>
      </trkpt>
      <trkpt lat="46.78115" lon="4.85448">
        <ele>180.6</ele>
        <time>2024-09-18T08:53:04Z</time>
      </trkpt>
      <trkpt lat="46.78115" lon="4.85452">
        <ele>180.6</ele>
        <time>2024-09-18T08:53:05Z</time>
      </trkpt>
      <trkpt lat="46.78116" lon="4.85456">
        <ele>180.6</ele>
        <time>2024-09-18T08:53:06Z</time>
      </trkpt>
      <trkpt lat="46.78116" lon="4.85459">
        <ele>181</ele>
        <time>2024-09-18T08:53:07Z</time>
      </trkpt>
      <trkpt lat="46.78116" lon="4.85463">
        <ele>181</ele>
        <time>2024-09-18T08:53:08Z</time>
      </trkpt>
      <trkpt lat="46.78117" lon="4.85465">
        <ele>181</ele>
        <time>2024-09-18T08:53:09Z</time>
      </trkpt>
      <trkpt lat="46.78117" lon="4.85467">
        <ele>181.2</ele>
        <time>2024-09-18T08:53:10Z</time>
      </trkpt>
      <trkpt lat="46.78117" lon="4.8547">
        <ele>181.2</ele>
        <time>2024-09-18T08:53:11Z</time>
      </trkpt>
      <trkpt lat="46.78118" lon="4.85472">
        <ele>181.2</ele>
        <time>2024-09-18T08:53:12Z</time>
      </trkpt>
      <trkpt lat="46.78118" lon="4.85474">
        <ele>181.2</ele>
        <time>2024-09-18T08:53:13Z</time>
      </trkpt>
      <trkpt lat="46.78118" lon="4.85476">
        <ele>181.2</ele>
        <time>2024-09-18T08:53:14Z</time>
      </trkpt>
      <trkpt lat="46.78118" lon="4.85477">
        <ele>181.4</ele>
        <time>2024-09-18T08:53:15Z</time>
      </trkpt>
      <trkpt lat="46.78118" lon="4.85478">
        <ele>181.4</ele>
        <time>2024-09-18T08:53:16Z</time>
      </trkpt>
      <trkpt lat="46.78118" lon="4.85478">
        <ele>181.4</ele>
        <time>2024-09-18T08:53:17Z</time>
      </trkpt>
      <trkpt lat="46.78119" lon="4.85492">
        <ele>182.2</ele>
        <time>2024-09-18T08:53:36Z</time>
      </trkpt>
      <trkpt lat="46.78119" lon="4.85494">
        <ele>182</ele>
        <time>2024-09-18T08:53:37Z</time>
      </trkpt>
      <trkpt lat="46.78119" lon="4.85496">
        <ele>182</ele>
        <time>2024-09-18T08:53:38Z</time>
      </trkpt>
      <trkpt lat="46.78119" lon="4.85498">
        <ele>182</ele>
        <time>2024-09-18T08:53:39Z</time>
      </trkpt>
      <trkpt lat="46.78119" lon="4.855">
        <ele>182</ele>
        <time>2024-09-18T08:53:40Z</time>
      </trkpt>
      <trkpt lat="46.78119" lon="4.85502">
        <ele>182.4</ele>
        <time>2024-09-18T08:53:41Z</time>
      </trkpt>
      <trkpt lat="46.78119" lon="4.85504">
        <ele>182.4</ele>
        <time>2024-09-18T08:53:42Z</time>
      </trkpt>
      <trkpt lat="46.78119" lon="4.85507">
        <ele>182</ele>
        <time>2024-09-18T08:53:43Z</time>
      </trkpt>
      <trkpt lat="46.78119" lon="4.85509">
        <ele>182</ele>
        <time>2024-09-18T08:53:44Z</time>
      </trkpt>
      <trkpt lat="46.7812" lon="4.85511">
        <ele>182</ele>
        <time>2024-09-18T08:53:45Z</time>
      </trkpt>
      <trkpt lat="46.7812" lon="4.85513">
        <ele>182.2</ele>
        <time>2024-09-18T08:53:46Z</time>
      </trkpt>
      <trkpt lat="46.7812" lon="4.85515">
        <ele>182.4</ele>
        <time>2024-09-18T08:53:47Z</time>
      </trkpt>
      <trkpt lat="46.78119" lon="4.85517">
        <ele>182.4</ele>
        <time>2024-09-18T08:53:48Z</time>
      </trkpt>
      <trkpt lat="46.78119" lon="4.85519">
        <ele>182.4</ele>
        <time>2024-09-18T08:53:49Z</time>
      </trkpt>
      <trkpt lat="46.78119" lon="4.85521">
        <ele>182.4</ele>
        <time>2024-09-18T08:53:50Z</time>
      </trkpt>
      <trkpt lat="46.78119" lon="4.85523">
        <ele>182.2</ele>
        <time>2024-09-18T08:53:51Z</time>
      </trkpt>
      <trkpt lat="46.78118" lon="4.85525">
        <ele>182.2</ele>
        <time>2024-09-18T08:53:52Z</time>
      </trkpt>
      <trkpt lat="46.78118" lon="4.85526">
        <ele>182.2</ele>
        <time>2024-09-18T08:53:53Z</time>
      </trkpt>
      <trkpt lat="46.78118" lon="4.85528">
        <ele>182.2</ele>
        <time>2024-09-18T08:53:54Z</time>
      </trkpt>
      <trkpt lat="46.78118" lon="4.85529">
        <ele>182.8</ele>
        <time>2024-09-18T08:53:55Z</time>
      </trkpt>
      <trkpt lat="46.78118" lon="4.85531">
        <ele>182.8</ele>
        <time>2024-09-18T08:53:56Z</time>
      </trkpt>
      <trkpt lat="46.78117" lon="4.85532">
        <ele>182.8</ele>
        <time>2024-09-18T08:53:57Z</time>
      </trkpt>
      <trkpt lat="46.78117" lon="4.85533">
        <ele>182.8</ele>
        <time>2024-09-18T08:53:58Z</time>
      </trkpt>
      <trkpt lat="46.78117" lon="4.85534">
        <ele>182.8</ele>
        <time>2024-09-18T08:53:59Z</time>
      </trkpt>
      <trkpt lat="46.78117" lon="4.85536">
        <ele>182.8</ele>
        <time>2024-09-18T08:54:00Z</time>
      </trkpt>
      <trkpt lat="46.78116" lon="4.85537">
        <ele>182.8</ele>
        <time>2024-09-18T08:54:01Z</time>
      </trkpt>
      <trkpt lat="46.78116" lon="4.85538">
        <ele>182.8</ele>
        <time>2024-09-18T08:54:02Z</time>
      </trkpt>
      <trkpt lat="46.78116" lon="4.85538">
        <ele>182.8</ele>
        <time>2024-09-18T08:54:03Z</time>
      </trkpt>
      <trkpt lat="46.78115" lon="4.8554">
        <ele>182.8</ele>
        <time>2024-09-18T08:54:04Z</time>
      </trkpt>
      <trkpt lat="46.78115" lon="4.85542">
        <ele>182.8</ele>
        <time>2024-09-18T08:54:05Z</time>
      </trkpt>
      <trkpt lat="46.78115" lon="4.85544">
        <ele>182.8</ele>
        <time>2024-09-18T08:54:06Z</time>
      </trkpt>
      <trkpt lat="46.78115" lon="4.85546">
        <ele>182.8</ele>
        <time>2024-09-18T08:54:07Z</time>
      </trkpt>
      <trkpt lat="46.78115" lon="4.85548">
        <ele>183.2</ele>
        <time>2024-09-18T08:54:08Z</time>
      </trkpt>
      <trkpt lat="46.78115" lon="4.85551">
        <ele>183.2</ele>
        <time>2024-09-18T08:54:09Z</time>
      </trkpt>
      <trkpt lat="46.78115" lon="4.85553">
        <ele>183.2</ele>
        <time>2024-09-18T08:54:10Z</time>
      </trkpt>
      <trkpt lat="46.78114" lon="4.85555">
        <ele>183.2</ele>
        <time>2024-09-18T08:54:11Z</time>
      </trkpt>
      <trkpt lat="46.78114" lon="4.85558">
        <ele>183.2</ele>
        <time>2024-09-18T08:54:12Z</time>
      </trkpt>
      <trkpt lat="46.78113" lon="4.8556">
        <ele>183.4</ele>
        <time>2024-09-18T08:54:13Z</time>
      </trkpt>
      <trkpt lat="46.78112" lon="4.85562">
        <ele>183.4</ele>
        <time>2024-09-18T08:54:14Z</time>
      </trkpt>
      <trkpt lat="46.78111" lon="4.85564">
        <ele>183.4</ele>
        <time>2024-09-18T08:54:15Z</time>
      </trkpt>
      <trkpt lat="46.78111" lon="4.85566">
        <ele>183.6</ele>
        <time>2024-09-18T08:54:16Z</time>
      </trkpt>
      <trkpt lat="46.78109" lon="4.85568">
        <ele>183.6</ele>
        <time>2024-09-18T08:54:17Z</time>
      </trkpt>
      <trkpt lat="46.78108" lon="4.8557">
        <ele>183.6</ele>
        <time>2024-09-18T08:54:18Z</time>
      </trkpt>
      <trkpt lat="46.78107" lon="4.85572">
        <ele>183.6</ele>
        <time>2024-09-18T08:54:19Z</time>
      </trkpt>
      <trkpt lat="46.78105" lon="4.85574">
        <ele>183.6</ele>
        <time>2024-09-18T08:54:20Z</time>
      </trkpt>
      <trkpt lat="46.78104" lon="4.85576">
        <ele>183.6</ele>
        <time>2024-09-18T08:54:21Z</time>
      </trkpt>
      <trkpt lat="46.78102" lon="4.85578">
        <ele>183.6</ele>
        <time>2024-09-18T08:54:22Z</time>
      </trkpt>
      <trkpt lat="46.78101" lon="4.85579">
        <ele>183.6</ele>
        <time>2024-09-18T08:54:23Z</time>
      </trkpt>
      <trkpt lat="46.781" lon="4.8558">
        <ele>183.6</ele>
        <time>2024-09-18T08:54:24Z</time>
      </trkpt>
      <trkpt lat="46.78099" lon="4.85582">
        <ele>183.6</ele>
        <time>2024-09-18T08:54:25Z</time>
      </trkpt>
      <trkpt lat="46.78098" lon="4.85583">
        <ele>183.4</ele>
        <time>2024-09-18T08:54:26Z</time>
      </trkpt>
      <trkpt lat="46.78097" lon="4.85584">
        <ele>183.4</ele>
        <time>2024-09-18T08:54:27Z</time>
      </trkpt>
      <trkpt lat="46.78096" lon="4.85584">
        <ele>183.4</ele>
        <time>2024-09-18T08:54:28Z</time>
      </trkpt>
      <trkpt lat="46.78096" lon="4.85586">
        <ele>183.4</ele>
        <time>2024-09-18T08:54:29Z</time>
      </trkpt>
      <trkpt lat="46.78096" lon="4.85588">
        <ele>183.4</ele>
        <time>2024-09-18T08:54:30Z</time>
      </trkpt>
      <trkpt lat="46.78095" lon="4.85589">
        <ele>183.4</ele>
        <time>2024-09-18T08:54:31Z</time>
      </trkpt>
      <trkpt lat="46.78095" lon="4.85591">
        <ele>183.4</ele>
        <time>2024-09-18T08:54:32Z</time>
      </trkpt>
      <trkpt lat="46.78095" lon="4.85592">
        <ele>183.4</ele>
        <time>2024-09-18T08:54:33Z</time>
      </trkpt>
      <trkpt lat="46.78096" lon="4.85594">
        <ele>183.4</ele>
        <time>2024-09-18T08:54:34Z</time>
      </trkpt>
      <trkpt lat="46.78096" lon="4.85595">
        <ele>183.4</ele>
        <time>2024-09-18T08:54:35Z</time>
      </trkpt>
      <trkpt lat="46.78097" lon="4.85598">
        <ele>183.6</ele>
        <time>2024-09-18T08:54:36Z</time>
      </trkpt>
      <trkpt lat="46.78098" lon="4.856">
        <ele>183.6</ele>
        <time>2024-09-18T08:54:37Z</time>
      </trkpt>
      <trkpt lat="46.78099" lon="4.85603">
        <ele>183.6</ele>
        <time>2024-09-18T08:54:38Z</time>
      </trkpt>
      <trkpt lat="46.781" lon="4.85607">
        <ele>183.6</ele>
        <time>2024-09-18T08:54:39Z</time>
      </trkpt>
      <trkpt lat="46.781" lon="4.8561">
        <ele>183.6</ele>
        <time>2024-09-18T08:54:40Z</time>
      </trkpt>
      <trkpt lat="46.78101" lon="4.85613">
        <ele>183.6</ele>
        <time>2024-09-18T08:54:41Z</time>
      </trkpt>
      <trkpt lat="46.78102" lon="4.85615">
        <ele>183.6</ele>
        <time>2024-09-18T08:54:42Z</time>
      </trkpt>
      <trkpt lat="46.78102" lon="4.85617">
        <ele>183.6</ele>
        <time>2024-09-18T08:54:43Z</time>
      </trkpt>
      <trkpt lat="46.78103" lon="4.85619">
        <ele>183.6</ele>
        <time>2024-09-18T08:54:44Z</time>
      </trkpt>
      <trkpt lat="46.78104" lon="4.85621">
        <ele>183.6</ele>
        <time>2024-09-18T08:54:45Z</time>
      </trkpt>
      <trkpt lat="46.78105" lon="4.85622">
        <ele>183.6</ele>
        <time>2024-09-18T08:54:46Z</time>
      </trkpt>
      <trkpt lat="46.78106" lon="4.85623">
        <ele>183.6</ele>
        <time>2024-09-18T08:54:47Z</time>
      </trkpt>
      <trkpt lat="46.78106" lon="4.85625">
        <ele>183.8</ele>
        <time>2024-09-18T08:54:48Z</time>
      </trkpt>
      <trkpt lat="46.78107" lon="4.85626">
        <ele>183.8</ele>
        <time>2024-09-18T08:54:49Z</time>
      </trkpt>
      <trkpt lat="46.78108" lon="4.85628">
        <ele>183.8</ele>
        <time>2024-09-18T08:54:50Z</time>
      </trkpt>
      <trkpt lat="46.78108" lon="4.85629">
        <ele>183.8</ele>
        <time>2024-09-18T08:54:51Z</time>
      </trkpt>
      <trkpt lat="46.78109" lon="4.8563">
        <ele>183.8</ele>
        <time>2024-09-18T08:54:52Z</time>
      </trkpt>
      <trkpt lat="46.7811" lon="4.85631">
        <ele>183.6</ele>
        <time>2024-09-18T08:54:53Z</time>
      </trkpt>
      <trkpt lat="46.7811" lon="4.85632">
        <ele>183.6</ele>
        <time>2024-09-18T08:54:54Z</time>
      </trkpt>
      <trkpt lat="46.78111" lon="4.85634">
        <ele>183.6</ele>
        <time>2024-09-18T08:54:55Z</time>
      </trkpt>
      <trkpt lat="46.78112" lon="4.85636">
        <ele>183.6</ele>
        <time>2024-09-18T08:54:56Z</time>
      </trkpt>
      <trkpt lat="46.78113" lon="4.85637">
        <ele>183.6</ele>
        <time>2024-09-18T08:54:57Z</time>
      </trkpt>
      <trkpt lat="46.78113" lon="4.8564">
        <ele>183.8</ele>
        <time>2024-09-18T08:54:58Z</time>
      </trkpt>
      <trkpt lat="46.78114" lon="4.85643">
        <ele>183.8</ele>
        <time>2024-09-18T08:54:59Z</time>
      </trkpt>
      <trkpt lat="46.78115" lon="4.85645">
        <ele>183.8</ele>
        <time>2024-09-18T08:55:00Z</time>
      </trkpt>
      <trkpt lat="46.78116" lon="4.85648">
        <ele>183.8</ele>
        <time>2024-09-18T08:55:01Z</time>
      </trkpt>
      <trkpt lat="46.78117" lon="4.85651">
        <ele>183.8</ele>
        <time>2024-09-18T08:55:02Z</time>
      </trkpt>
      <trkpt lat="46.78119" lon="4.85653">
        <ele>184</ele>
        <time>2024-09-18T08:55:03Z</time>
      </trkpt>
      <trkpt lat="46.7812" lon="4.85655">
        <ele>184</ele>
        <time>2024-09-18T08:55:04Z</time>
      </trkpt>
      <trkpt lat="46.78122" lon="4.85657">
        <ele>184</ele>
        <time>2024-09-18T08:55:05Z</time>
      </trkpt>
      <trkpt lat="46.78123" lon="4.8566">
        <ele>184</ele>
        <time>2024-09-18T08:55:06Z</time>
      </trkpt>
      <trkpt lat="46.78124" lon="4.85662">
        <ele>184</ele>
        <time>2024-09-18T08:55:07Z</time>
      </trkpt>
      <trkpt lat="46.78125" lon="4.85665">
        <ele>184</ele>
        <time>2024-09-18T08:55:08Z</time>
      </trkpt>
      <trkpt lat="46.78125" lon="4.85667">
        <ele>184</ele>
        <time>2024-09-18T08:55:09Z</time>
      </trkpt>
      <trkpt lat="46.78126" lon="4.8567">
        <ele>184</ele>
        <time>2024-09-18T08:55:10Z</time>
      </trkpt>
      <trkpt lat="46.78126" lon="4.85673">
        <ele>184.2</ele>
        <time>2024-09-18T08:55:11Z</time>
      </trkpt>
      <trkpt lat="46.78126" lon="4.85675">
        <ele>184.2</ele>
        <time>2024-09-18T08:55:12Z</time>
      </trkpt>
      <trkpt lat="46.78127" lon="4.85678">
        <ele>184.2</ele>
        <time>2024-09-18T08:55:13Z</time>
      </trkpt>
      <trkpt lat="46.78128" lon="4.85679">
        <ele>184.2</ele>
        <time>2024-09-18T08:55:14Z</time>
      </trkpt>
      <trkpt lat="46.78129" lon="4.85681">
        <ele>184.2</ele>
        <time>2024-09-18T08:55:15Z</time>
      </trkpt>
      <trkpt lat="46.7813" lon="4.85683">
        <ele>184.2</ele>
        <time>2024-09-18T08:55:16Z</time>
      </trkpt>
      <trkpt lat="46.78131" lon="4.85685">
        <ele>184.4</ele>
        <time>2024-09-18T08:55:17Z</time>
      </trkpt>
      <trkpt lat="46.78132" lon="4.85687">
        <ele>184.4</ele>
        <time>2024-09-18T08:55:18Z</time>
      </trkpt>
      <trkpt lat="46.78133" lon="4.85689">
        <ele>184.4</ele>
        <time>2024-09-18T08:55:19Z</time>
      </trkpt>
      <trkpt lat="46.78134" lon="4.85692">
        <ele>184.4</ele>
        <time>2024-09-18T08:55:20Z</time>
      </trkpt>
      <trkpt lat="46.78134" lon="4.85694">
        <ele>184.6</ele>
        <time>2024-09-18T08:55:21Z</time>
      </trkpt>
      <trkpt lat="46.78135" lon="4.85696">
        <ele>184.6</ele>
        <time>2024-09-18T08:55:22Z</time>
      </trkpt>
      <trkpt lat="46.78136" lon="4.85699">
        <ele>184.6</ele>
        <time>2024-09-18T08:55:23Z</time>
      </trkpt>
      <trkpt lat="46.78136" lon="4.85701">
        <ele>184.6</ele>
        <time>2024-09-18T08:55:24Z</time>
      </trkpt>
      <trkpt lat="46.78136" lon="4.85703">
        <ele>184.8</ele>
        <time>2024-09-18T08:55:25Z</time>
      </trkpt>
      <trkpt lat="46.78137" lon="4.85705">
        <ele>184.8</ele>
        <time>2024-09-18T08:55:26Z</time>
      </trkpt>
      <trkpt lat="46.78137" lon="4.85708">
        <ele>184.8</ele>
        <time>2024-09-18T08:55:27Z</time>
      </trkpt>
      <trkpt lat="46.78138" lon="4.8571">
        <ele>184.8</ele>
        <time>2024-09-18T08:55:28Z</time>
      </trkpt>
      <trkpt lat="46.78139" lon="4.85712">
        <ele>184.8</ele>
        <time>2024-09-18T08:55:29Z</time>
      </trkpt>
      <trkpt lat="46.7814" lon="4.85715">
        <ele>184.8</ele>
        <time>2024-09-18T08:55:30Z</time>
      </trkpt>
      <trkpt lat="46.78141" lon="4.85717">
        <ele>184.8</ele>
        <time>2024-09-18T08:55:31Z</time>
      </trkpt>
      <trkpt lat="46.78143" lon="4.85719">
        <ele>184.8</ele>
        <time>2024-09-18T08:55:32Z</time>
      </trkpt>
      <trkpt lat="46.78144" lon="4.85721">
        <ele>184.8</ele>
        <time>2024-09-18T08:55:33Z</time>
      </trkpt>
      <trkpt lat="46.78145" lon="4.85723">
        <ele>184.8</ele>
        <time>2024-09-18T08:55:34Z</time>
      </trkpt>
      <trkpt lat="46.78146" lon="4.85725">
        <ele>184.8</ele>
        <time>2024-09-18T08:55:35Z</time>
      </trkpt>
      <trkpt lat="46.78148" lon="4.85726">
        <ele>184.8</ele>
        <time>2024-09-18T08:55:36Z</time>
      </trkpt>
      <trkpt lat="46.78149" lon="4.85729">
        <ele>184.8</ele>
        <time>2024-09-18T08:55:37Z</time>
      </trkpt>
      <trkpt lat="46.7815" lon="4.85731">
        <ele>184.8</ele>
        <time>2024-09-18T08:55:38Z</time>
      </trkpt>
      <trkpt lat="46.78151" lon="4.85734">
        <ele>184.8</ele>
        <time>2024-09-18T08:55:39Z</time>
      </trkpt>
      <trkpt lat="46.78152" lon="4.85737">
        <ele>184.8</ele>
        <time>2024-09-18T08:55:40Z</time>
      </trkpt>
      <trkpt lat="46.78153" lon="4.85739">
        <ele>184.8</ele>
        <time>2024-09-18T08:55:41Z</time>
      </trkpt>
      <trkpt lat="46.78154" lon="4.8574">
        <ele>184.6</ele>
        <time>2024-09-18T08:55:42Z</time>
      </trkpt>
      <trkpt lat="46.78154" lon="4.85742">
        <ele>184.6</ele>
        <time>2024-09-18T08:55:43Z</time>
      </trkpt>
      <trkpt lat="46.78154" lon="4.85744">
        <ele>184.6</ele>
        <time>2024-09-18T08:55:44Z</time>
      </trkpt>
      <trkpt lat="46.78155" lon="4.85746">
        <ele>184.6</ele>
        <time>2024-09-18T08:55:45Z</time>
      </trkpt>
      <trkpt lat="46.78155" lon="4.85748">
        <ele>184.6</ele>
        <time>2024-09-18T08:55:46Z</time>
      </trkpt>
      <trkpt lat="46.78156" lon="4.8575">
        <ele>184.4</ele>
        <time>2024-09-18T08:55:47Z</time>
      </trkpt>
      <trkpt lat="46.78157" lon="4.85752">
        <ele>184.4</ele>
        <time>2024-09-18T08:55:48Z</time>
      </trkpt>
      <trkpt lat="46.78158" lon="4.85754">
        <ele>184.4</ele>
        <time>2024-09-18T08:55:49Z</time>
      </trkpt>
      <trkpt lat="46.7816" lon="4.85756">
        <ele>184.4</ele>
        <time>2024-09-18T08:55:50Z</time>
      </trkpt>
      <trkpt lat="46.78161" lon="4.85757">
        <ele>184.4</ele>
        <time>2024-09-18T08:55:51Z</time>
      </trkpt>
      <trkpt lat="46.78161" lon="4.85758">
        <ele>184.6</ele>
        <time>2024-09-18T08:55:52Z</time>
      </trkpt>
      <trkpt lat="46.7816" lon="4.85769">
        <ele>184.6</ele>
        <time>2024-09-18T08:55:59Z</time>
      </trkpt>
      <trkpt lat="46.78161" lon="4.85771">
        <ele>184.6</ele>
        <time>2024-09-18T08:56:00Z</time>
      </trkpt>
      <trkpt lat="46.78163" lon="4.85773">
        <ele>184.6</ele>
        <time>2024-09-18T08:56:01Z</time>
      </trkpt>
      <trkpt lat="46.78164" lon="4.85775">
        <ele>184.6</ele>
        <time>2024-09-18T08:56:02Z</time>
      </trkpt>
      <trkpt lat="46.78166" lon="4.85778">
        <ele>184.6</ele>
        <time>2024-09-18T08:56:03Z</time>
      </trkpt>
      <trkpt lat="46.78168" lon="4.85782">
        <ele>184.6</ele>
        <time>2024-09-18T08:56:04Z</time>
      </trkpt>
      <trkpt lat="46.78168" lon="4.85783">
        <ele>184.8</ele>
        <time>2024-09-18T08:56:05Z</time>
      </trkpt>
      <trkpt lat="46.78169" lon="4.85785">
        <ele>184.8</ele>
        <time>2024-09-18T08:56:06Z</time>
      </trkpt>
      <trkpt lat="46.7817" lon="4.85788">
        <ele>184.8</ele>
        <time>2024-09-18T08:56:07Z</time>
      </trkpt>
      <trkpt lat="46.78171" lon="4.8579">
        <ele>184.8</ele>
        <time>2024-09-18T08:56:08Z</time>
      </trkpt>
      <trkpt lat="46.78172" lon="4.85791">
        <ele>185</ele>
        <time>2024-09-18T08:56:09Z</time>
      </trkpt>
      <trkpt lat="46.78173" lon="4.85793">
        <ele>185.2</ele>
        <time>2024-09-18T08:56:10Z</time>
      </trkpt>
      <trkpt lat="46.78174" lon="4.85795">
        <ele>185.2</ele>
        <time>2024-09-18T08:56:11Z</time>
      </trkpt>
      <trkpt lat="46.78175" lon="4.85797">
        <ele>185.2</ele>
        <time>2024-09-18T08:56:12Z</time>
      </trkpt>
      <trkpt lat="46.78176" lon="4.85799">
        <ele>185.2</ele>
        <time>2024-09-18T08:56:13Z</time>
      </trkpt>
      <trkpt lat="46.78177" lon="4.85801">
        <ele>185.2</ele>
        <time>2024-09-18T08:56:14Z</time>
      </trkpt>
      <trkpt lat="46.78178" lon="4.85802">
        <ele>185.2</ele>
        <time>2024-09-18T08:56:15Z</time>
      </trkpt>
      <trkpt lat="46.78179" lon="4.85804">
        <ele>185.2</ele>
        <time>2024-09-18T08:56:16Z</time>
      </trkpt>
      <trkpt lat="46.7818" lon="4.85805">
        <ele>185.2</ele>
        <time>2024-09-18T08:56:17Z</time>
      </trkpt>
      <trkpt lat="46.78181" lon="4.85807">
        <ele>185.4</ele>
        <time>2024-09-18T08:56:18Z</time>
      </trkpt>
      <trkpt lat="46.78181" lon="4.85809">
        <ele>185.4</ele>
        <time>2024-09-18T08:56:19Z</time>
      </trkpt>
      <trkpt lat="46.78182" lon="4.8581">
        <ele>185.4</ele>
        <time>2024-09-18T08:56:20Z</time>
      </trkpt>
      <trkpt lat="46.78183" lon="4.85811">
        <ele>185.4</ele>
        <time>2024-09-18T08:56:21Z</time>
      </trkpt>
      <trkpt lat="46.78183" lon="4.85812">
        <ele>185.2</ele>
        <time>2024-09-18T08:56:22Z</time>
      </trkpt>
      <trkpt lat="46.78184" lon="4.85814">
        <ele>185.2</ele>
        <time>2024-09-18T08:56:23Z</time>
      </trkpt>
      <trkpt lat="46.78184" lon="4.85815">
        <ele>185.2</ele>
        <time>2024-09-18T08:56:24Z</time>
      </trkpt>
      <trkpt lat="46.78185" lon="4.85816">
        <ele>185.2</ele>
        <time>2024-09-18T08:56:25Z</time>
      </trkpt>
      <trkpt lat="46.78192" lon="4.85816">
        <ele>185.2</ele>
        <time>2024-09-18T08:56:47Z</time>
      </trkpt>
      <trkpt lat="46.78193" lon="4.85818">
        <ele>185.2</ele>
        <time>2024-09-18T08:56:48Z</time>
      </trkpt>
      <trkpt lat="46.78193" lon="4.8582">
        <ele>185.2</ele>
        <time>2024-09-18T08:56:49Z</time>
      </trkpt>
      <trkpt lat="46.7819" lon="4.85825">
        <ele>185.2</ele>
        <time>2024-09-18T08:56:50Z</time>
      </trkpt>
      <trkpt lat="46.78188" lon="4.85828">
        <ele>185</ele>
        <time>2024-09-18T08:56:51Z</time>
      </trkpt>
      <trkpt lat="46.78186" lon="4.85831">
        <ele>185</ele>
        <time>2024-09-18T08:56:52Z</time>
      </trkpt>
      <trkpt lat="46.78185" lon="4.85833">
        <ele>185</ele>
        <time>2024-09-18T08:56:53Z</time>
      </trkpt>
      <trkpt lat="46.78184" lon="4.85835">
        <ele>184.8</ele>
        <time>2024-09-18T08:56:54Z</time>
      </trkpt>
      <trkpt lat="46.78183" lon="4.85837">
        <ele>184.8</ele>
        <time>2024-09-18T08:56:55Z</time>
      </trkpt>
      <trkpt lat="46.78183" lon="4.85839">
        <ele>184.8</ele>
        <time>2024-09-18T08:56:56Z</time>
      </trkpt>
      <trkpt lat="46.78184" lon="4.8584">
        <ele>184.8</ele>
        <time>2024-09-18T08:56:57Z</time>
      </trkpt>
      <trkpt lat="46.78184" lon="4.8584">
        <ele>184.8</ele>
        <time>2024-09-18T08:56:58Z</time>
      </trkpt>
      <trkpt lat="46.78183" lon="4.85842">
        <ele>184.8</ele>
        <time>2024-09-18T08:56:59Z</time>
      </trkpt>
      <trkpt lat="46.78182" lon="4.85843">
        <ele>184.6</ele>
        <time>2024-09-18T08:57:00Z</time>
      </trkpt>
      <trkpt lat="46.78181" lon="4.85844">
        <ele>184.6</ele>
        <time>2024-09-18T08:57:01Z</time>
      </trkpt>
      <trkpt lat="46.78181" lon="4.85844">
        <ele>184.6</ele>
        <time>2024-09-18T08:57:02Z</time>
      </trkpt>
      <trkpt lat="46.78184" lon="4.85845">
        <ele>185</ele>
        <time>2024-09-18T09:00:33Z</time>
      </trkpt>
      <trkpt lat="46.78185" lon="4.85844">
        <ele>185</ele>
        <time>2024-09-18T09:00:34Z</time>
      </trkpt>
      <trkpt lat="46.78185" lon="4.85844">
        <ele>184.8</ele>
        <time>2024-09-18T09:00:35Z</time>
      </trkpt>
      <trkpt lat="46.78185" lon="4.85834">
        <ele>185.2</ele>
        <time>2024-09-18T09:00:53Z</time>
      </trkpt>
      <trkpt lat="46.78185" lon="4.85832">
        <ele>185.2</ele>
        <time>2024-09-18T09:00:54Z</time>
      </trkpt>
      <trkpt lat="46.78185" lon="4.85831">
        <ele>185.2</ele>
        <time>2024-09-18T09:00:55Z</time>
      </trkpt>
      <trkpt lat="46.78185" lon="4.8583">
        <ele>185.2</ele>
        <time>2024-09-18T09:00:56Z</time>
      </trkpt>
      <trkpt lat="46.78185" lon="4.85829">
        <ele>185.2</ele>
        <time>2024-09-18T09:00:57Z</time>
      </trkpt>
      <trkpt lat="46.78186" lon="4.85829">
        <ele>185.4</ele>
        <time>2024-09-18T09:00:58Z</time>
      </trkpt>
      <trkpt lat="46.78186" lon="4.85829">
        <ele>185.4</ele>
        <time>2024-09-18T09:00:59Z</time>
      </trkpt>
      <trkpt lat="46.78186" lon="4.85829">
        <ele>185.4</ele>
        <time>2024-09-18T09:01:00Z</time>
      </trkpt>
      <trkpt lat="46.78186" lon="4.85827">
        <ele>185.6</ele>
        <time>2024-09-18T09:01:01Z</time>
      </trkpt>
      <trkpt lat="46.78186" lon="4.85827">
        <ele>185.4</ele>
        <time>2024-09-18T09:01:02Z</time>
      </trkpt>
      <trkpt lat="46.78186" lon="4.85827">
        <ele>185.4</ele>
        <time>2024-09-18T09:01:03Z</time>
      </trkpt>
      <trkpt lat="46.78195" lon="4.85824">
        <ele>185.4</ele>
        <time>2024-09-18T09:02:54Z</time>
      </trkpt>
      <trkpt lat="46.78195" lon="4.85824">
        <ele>185.4</ele>
        <time>2024-09-18T09:02:55Z</time>
      </trkpt>
      <trkpt lat="46.78195" lon="4.85824">
        <ele>185.4</ele>
        <time>2024-09-18T09:02:56Z</time>
      </trkpt>
      <trkpt lat="46.78189" lon="4.85832">
        <ele>185.2</ele>
        <time>2024-09-18T09:03:02Z</time>
      </trkpt>
      <trkpt lat="46.78189" lon="4.85833">
        <ele>185.2</ele>
        <time>2024-09-18T09:03:03Z</time>
      </trkpt>
      <trkpt lat="46.78189" lon="4.85834">
        <ele>185.2</ele>
        <time>2024-09-18T09:03:04Z</time>
      </trkpt>
      <trkpt lat="46.7819" lon="4.85833">
        <ele>185.2</ele>
        <time>2024-09-18T09:03:05Z</time>
      </trkpt>
      <trkpt lat="46.7819" lon="4.85834">
        <ele>185.4</ele>
        <time>2024-09-18T09:03:06Z</time>
      </trkpt>
      <trkpt lat="46.7819" lon="4.85834">
        <ele>185.2</ele>
        <time>2024-09-18T09:03:07Z</time>
      </trkpt>
      <trkpt lat="46.7819" lon="4.85838">
        <ele>185.2</ele>
        <time>2024-09-18T09:03:08Z</time>
      </trkpt>
      <trkpt lat="46.78191" lon="4.85839">
        <ele>185.2</ele>
        <time>2024-09-18T09:03:09Z</time>
      </trkpt>
      <trkpt lat="46.78191" lon="4.85839">
        <ele>185.2</ele>
        <time>2024-09-18T09:03:10Z</time>
      </trkpt>
      <trkpt lat="46.78192" lon="4.85839">
        <ele>185.4</ele>
        <time>2024-09-18T09:03:11Z</time>
      </trkpt>
      <trkpt lat="46.78193" lon="4.85838">
        <ele>185.4</ele>
        <time>2024-09-18T09:03:12Z</time>
      </trkpt>
      <trkpt lat="46.78193" lon="4.85838">
        <ele>185.4</ele>
        <time>2024-09-18T09:03:13Z</time>
      </trkpt>
      <trkpt lat="46.78193" lon="4.85838">
        <ele>185.4</ele>
        <time>2024-09-18T09:03:14Z</time>
      </trkpt>
      <trkpt lat="46.78193" lon="4.85836">
        <ele>185.4</ele>
        <time>2024-09-18T09:03:15Z</time>
      </trkpt>
      <trkpt lat="46.78193" lon="4.85836">
        <ele>185.2</ele>
        <time>2024-09-18T09:03:16Z</time>
      </trkpt>
      <trkpt lat="46.78192" lon="4.85836">
        <ele>185.2</ele>
        <time>2024-09-18T09:03:17Z</time>
      </trkpt>
      <trkpt lat="46.78191" lon="4.85835">
        <ele>185.2</ele>
        <time>2024-09-18T09:03:18Z</time>
      </trkpt>
      <trkpt lat="46.7819" lon="4.85835">
        <ele>185.2</ele>
        <time>2024-09-18T09:03:19Z</time>
      </trkpt>
      <trkpt lat="46.78189" lon="4.85835">
        <ele>185.2</ele>
        <time>2024-09-18T09:03:20Z</time>
      </trkpt>
      <trkpt lat="46.78189" lon="4.85834">
        <ele>185.2</ele>
        <time>2024-09-18T09:03:21Z</time>
      </trkpt>
      <trkpt lat="46.78189" lon="4.85834">
        <ele>185.2</ele>
        <time>2024-09-18T09:03:22Z</time>
      </trkpt>
      <trkpt lat="46.78188" lon="4.85835">
        <ele>185.4</ele>
        <time>2024-09-18T09:03:47Z</time>
      </trkpt>
      <trkpt lat="46.78188" lon="4.85835">
        <ele>185.4</ele>
        <time>2024-09-18T09:03:48Z</time>
      </trkpt>
      <trkpt lat="46.78188" lon="4.85835">
        <ele>185.4</ele>
        <time>2024-09-18T09:03:49Z</time>
      </trkpt>
      <trkpt lat="46.78188" lon="4.85835">
        <ele>184.8</ele>
        <time>2024-09-18T09:03:50Z</time>
      </trkpt>
      <trkpt lat="46.78182" lon="4.85835">
        <ele>185.8</ele>
        <time>2024-09-18T09:20:39Z</time>
      </trkpt>
      <trkpt lat="46.78182" lon="4.85834">
        <ele>185.8</ele>
        <time>2024-09-18T09:20:40Z</time>
      </trkpt>
      <trkpt lat="46.78181" lon="4.85834">
        <ele>185.4</ele>
        <time>2024-09-18T09:20:41Z</time>
      </trkpt>
      <trkpt lat="46.7818" lon="4.85835">
        <ele>185.4</ele>
        <time>2024-09-18T09:20:42Z</time>
      </trkpt>
      <trkpt lat="46.78179" lon="4.85835">
        <ele>185.4</ele>
        <time>2024-09-18T09:20:43Z</time>
      </trkpt>
      <trkpt lat="46.78179" lon="4.85836">
        <ele>185.4</ele>
        <time>2024-09-18T09:20:44Z</time>
      </trkpt>
      <trkpt lat="46.78177" lon="4.85837">
        <ele>185.4</ele>
        <time>2024-09-18T09:20:45Z</time>
      </trkpt>
      <trkpt lat="46.78176" lon="4.85838">
        <ele>185.2</ele>
        <time>2024-09-18T09:20:46Z</time>
      </trkpt>
      <trkpt lat="46.78177" lon="4.85838">
        <ele>185.4</ele>
        <time>2024-09-18T09:20:47Z</time>
      </trkpt>
      <trkpt lat="46.78176" lon="4.85839">
        <ele>185.4</ele>
        <time>2024-09-18T09:20:48Z</time>
      </trkpt>
      <trkpt lat="46.78177" lon="4.85839">
        <ele>185.4</ele>
        <time>2024-09-18T09:20:49Z</time>
      </trkpt>
      <trkpt lat="46.78177" lon="4.8584">
        <ele>185.2</ele>
        <time>2024-09-18T09:20:50Z</time>
      </trkpt>
      <trkpt lat="46.78178" lon="4.8584">
        <ele>185.2</ele>
        <time>2024-09-18T09:20:51Z</time>
      </trkpt>
      <trkpt lat="46.78178" lon="4.8584">
        <ele>185.2</ele>
        <time>2024-09-18T09:20:52Z</time>
      </trkpt>
      <trkpt lat="46.78178" lon="4.85839">
        <ele>185.2</ele>
        <time>2024-09-18T09:20:53Z</time>
      </trkpt>
      <trkpt lat="46.78178" lon="4.85839">
        <ele>185.2</ele>
        <time>2024-09-18T09:20:54Z</time>
      </trkpt>
      <trkpt lat="46.78178" lon="4.85839">
        <ele>185.2</ele>
        <time>2024-09-18T09:20:55Z</time>
      </trkpt>
      <trkpt lat="46.78183" lon="4.85845">
        <ele>183.6</ele>
        <time>2024-09-18T09:21:18Z</time>
      </trkpt>
      <trkpt lat="46.78183" lon="4.85845">
        <ele>183.6</ele>
        <time>2024-09-18T09:21:19Z</time>
      </trkpt>
      <trkpt lat="46.78183" lon="4.85843">
        <ele>183.6</ele>
        <time>2024-09-18T09:21:20Z</time>
      </trkpt>
      <trkpt lat="46.78183" lon="4.85843">
        <ele>185.2</ele>
        <time>2024-09-18T09:21:21Z</time>
      </trkpt>
      <trkpt lat="46.78183" lon="4.85843">
        <ele>185.2</ele>
        <time>2024-09-18T09:21:22Z</time>
      </trkpt>
      <trkpt lat="46.78185" lon="4.85845">
        <ele>188</ele>
        <time>2024-09-18T09:21:26Z</time>
      </trkpt>
      <trkpt lat="46.78185" lon="4.85846">
        <ele>188</ele>
        <time>2024-09-18T09:21:27Z</time>
      </trkpt>
      <trkpt lat="46.78185" lon="4.85846">
        <ele>188</ele>
        <time>2024-09-18T09:21:28Z</time>
      </trkpt>
      <trkpt lat="46.78185" lon="4.85846">
        <ele>188</ele>
        <time>2024-09-18T09:21:29Z</time>
      </trkpt>
      <trkpt lat="46.78191" lon="4.85847">
        <ele>185.8</ele>
        <time>2024-09-18T09:23:35Z</time>
      </trkpt>
      <trkpt lat="46.78191" lon="4.85847">
        <ele>185.8</ele>
        <time>2024-09-18T09:23:36Z</time>
      </trkpt>
      <trkpt lat="46.78192" lon="4.85847">
        <ele>185.8</ele>
        <time>2024-09-18T09:23:37Z</time>
      </trkpt>
      <trkpt lat="46.78192" lon="4.85847">
        <ele>185.6</ele>
        <time>2024-09-18T09:23:38Z</time>
      </trkpt>
      <trkpt lat="46.78193" lon="4.85846">
        <ele>185.6</ele>
        <time>2024-09-18T09:23:39Z</time>
      </trkpt>
      <trkpt lat="46.78193" lon="4.85846">
        <ele>185.8</ele>
        <time>2024-09-18T09:23:40Z</time>
      </trkpt>
      <trkpt lat="46.78193" lon="4.85846">
        <ele>185.8</ele>
        <time>2024-09-18T09:23:41Z</time>
      </trkpt>
      <trkpt lat="46.78194" lon="4.85846">
        <ele>185.8</ele>
        <time>2024-09-18T09:23:42Z</time>
      </trkpt>
      <trkpt lat="46.78194" lon="4.85846">
        <ele>185.8</ele>
        <time>2024-09-18T09:23:43Z</time>
      </trkpt>
      <trkpt lat="46.78193" lon="4.85842">
        <ele>185.4</ele>
        <time>2024-09-18T09:24:13Z</time>
      </trkpt>
      <trkpt lat="46.78194" lon="4.8584">
        <ele>185.6</ele>
        <time>2024-09-18T09:24:14Z</time>
      </trkpt>
      <trkpt lat="46.78196" lon="4.8584">
        <ele>185.8</ele>
        <time>2024-09-18T09:24:15Z</time>
      </trkpt>
      <trkpt lat="46.78197" lon="4.85838">
        <ele>185.8</ele>
        <time>2024-09-18T09:24:16Z</time>
      </trkpt>
      <trkpt lat="46.78199" lon="4.85836">
        <ele>185.8</ele>
        <time>2024-09-18T09:24:17Z</time>
      </trkpt>
      <trkpt lat="46.782" lon="4.85835">
        <ele>185.8</ele>
        <time>2024-09-18T09:24:18Z</time>
      </trkpt>
      <trkpt lat="46.78201" lon="4.85834">
        <ele>185.8</ele>
        <time>2024-09-18T09:24:19Z</time>
      </trkpt>
      <trkpt lat="46.78201" lon="4.85834">
        <ele>186</ele>
        <time>2024-09-18T09:24:20Z</time>
      </trkpt>
      <trkpt lat="46.78201" lon="4.85834">
        <ele>186</ele>
        <time>2024-09-18T09:24:21Z</time>
      </trkpt>
      <trkpt lat="46.782" lon="4.85835">
        <ele>186</ele>
        <time>2024-09-18T09:24:22Z</time>
      </trkpt>
      <trkpt lat="46.78199" lon="4.85836">
        <ele>185.8</ele>
        <time>2024-09-18T09:24:23Z</time>
      </trkpt>
      <trkpt lat="46.78198" lon="4.85837">
        <ele>186</ele>
        <time>2024-09-18T09:24:24Z</time>
      </trkpt>
      <trkpt lat="46.78198" lon="4.85839">
        <ele>186</ele>
        <time>2024-09-18T09:24:25Z</time>
      </trkpt>
      <trkpt lat="46.782" lon="4.85841">
        <ele>186</ele>
        <time>2024-09-18T09:24:26Z</time>
      </trkpt>
      <trkpt lat="46.78201" lon="4.85842">
        <ele>186</ele>
        <time>2024-09-18T09:24:27Z</time>
      </trkpt>
      <trkpt lat="46.78203" lon="4.85844">
        <ele>186</ele>
        <time>2024-09-18T09:24:28Z</time>
      </trkpt>
      <trkpt lat="46.78204" lon="4.85847">
        <ele>185.8</ele>
        <time>2024-09-18T09:24:29Z</time>
      </trkpt>
      <trkpt lat="46.78206" lon="4.8585">
        <ele>185.8</ele>
        <time>2024-09-18T09:24:30Z</time>
      </trkpt>
      <trkpt lat="46.78207" lon="4.85853">
        <ele>185.8</ele>
        <time>2024-09-18T09:24:31Z</time>
      </trkpt>
      <trkpt lat="46.78209" lon="4.85857">
        <ele>185.8</ele>
        <time>2024-09-18T09:24:32Z</time>
      </trkpt>
      <trkpt lat="46.78211" lon="4.85861">
        <ele>185.4</ele>
        <time>2024-09-18T09:24:33Z</time>
      </trkpt>
      <trkpt lat="46.78213" lon="4.85865">
        <ele>185.4</ele>
        <time>2024-09-18T09:24:34Z</time>
      </trkpt>
      <trkpt lat="46.78215" lon="4.85869">
        <ele>185.4</ele>
        <time>2024-09-18T09:24:35Z</time>
      </trkpt>
      <trkpt lat="46.78217" lon="4.85871">
        <ele>185.8</ele>
        <time>2024-09-18T09:24:36Z</time>
      </trkpt>
      <trkpt lat="46.78219" lon="4.85872">
        <ele>185.6</ele>
        <time>2024-09-18T09:24:37Z</time>
      </trkpt>
      <trkpt lat="46.78221" lon="4.85871">
        <ele>185.6</ele>
        <time>2024-09-18T09:24:38Z</time>
      </trkpt>
      <trkpt lat="46.78224" lon="4.85869">
        <ele>185.6</ele>
        <time>2024-09-18T09:24:39Z</time>
      </trkpt>
      <trkpt lat="46.78226" lon="4.85867">
        <ele>185.6</ele>
        <time>2024-09-18T09:24:40Z</time>
      </trkpt>
      <trkpt lat="46.78228" lon="4.85865">
        <ele>185.6</ele>
        <time>2024-09-18T09:24:41Z</time>
      </trkpt>
      <trkpt lat="46.7823" lon="4.85863">
        <ele>185.8</ele>
        <time>2024-09-18T09:24:42Z</time>
      </trkpt>
      <trkpt lat="46.78232" lon="4.85861">
        <ele>186</ele>
        <time>2024-09-18T09:24:43Z</time>
      </trkpt>
      <trkpt lat="46.78234" lon="4.85859">
        <ele>186</ele>
        <time>2024-09-18T09:24:44Z</time>
      </trkpt>
      <trkpt lat="46.78236" lon="4.85856">
        <ele>186</ele>
        <time>2024-09-18T09:24:45Z</time>
      </trkpt>
      <trkpt lat="46.78238" lon="4.85853">
        <ele>186</ele>
        <time>2024-09-18T09:24:46Z</time>
      </trkpt>
      <trkpt lat="46.78239" lon="4.85851">
        <ele>186</ele>
        <time>2024-09-18T09:24:47Z</time>
      </trkpt>
      <trkpt lat="46.7824" lon="4.8585">
        <ele>186</ele>
        <time>2024-09-18T09:24:48Z</time>
      </trkpt>
      <trkpt lat="46.78241" lon="4.85848">
        <ele>186</ele>
        <time>2024-09-18T09:24:49Z</time>
      </trkpt>
      <trkpt lat="46.78242" lon="4.85847">
        <ele>186</ele>
        <time>2024-09-18T09:24:50Z</time>
      </trkpt>
      <trkpt lat="46.78243" lon="4.85845">
        <ele>186</ele>
        <time>2024-09-18T09:24:51Z</time>
      </trkpt>
      <trkpt lat="46.78244" lon="4.85844">
        <ele>186</ele>
        <time>2024-09-18T09:24:52Z</time>
      </trkpt>
      <trkpt lat="46.78246" lon="4.85843">
        <ele>186</ele>
        <time>2024-09-18T09:24:53Z</time>
      </trkpt>
      <trkpt lat="46.78247" lon="4.85841">
        <ele>186</ele>
        <time>2024-09-18T09:24:54Z</time>
      </trkpt>
      <trkpt lat="46.78248" lon="4.8584">
        <ele>186</ele>
        <time>2024-09-18T09:24:55Z</time>
      </trkpt>
      <trkpt lat="46.78249" lon="4.85838">
        <ele>186</ele>
        <time>2024-09-18T09:24:56Z</time>
      </trkpt>
      <trkpt lat="46.7825" lon="4.85837">
        <ele>186</ele>
        <time>2024-09-18T09:24:57Z</time>
      </trkpt>
      <trkpt lat="46.78251" lon="4.85835">
        <ele>186</ele>
        <time>2024-09-18T09:24:58Z</time>
      </trkpt>
      <trkpt lat="46.78252" lon="4.85833">
        <ele>185.8</ele>
        <time>2024-09-18T09:24:59Z</time>
      </trkpt>
      <trkpt lat="46.78254" lon="4.8583">
        <ele>185.8</ele>
        <time>2024-09-18T09:25:00Z</time>
      </trkpt>
      <trkpt lat="46.78255" lon="4.85829">
        <ele>185.8</ele>
        <time>2024-09-18T09:25:01Z</time>
      </trkpt>
      <trkpt lat="46.78256" lon="4.85827">
        <ele>185.8</ele>
        <time>2024-09-18T09:25:02Z</time>
      </trkpt>
      <trkpt lat="46.78257" lon="4.85826">
        <ele>185.8</ele>
        <time>2024-09-18T09:25:03Z</time>
      </trkpt>
      <trkpt lat="46.78258" lon="4.85825">
        <ele>185.8</ele>
        <time>2024-09-18T09:25:04Z</time>
      </trkpt>
      <trkpt lat="46.78258" lon="4.85824">
        <ele>185.8</ele>
        <time>2024-09-18T09:25:05Z</time>
      </trkpt>
      <trkpt lat="46.78259" lon="4.85824">
        <ele>185.8</ele>
        <time>2024-09-18T09:25:06Z</time>
      </trkpt>
      <trkpt lat="46.78259" lon="4.85823">
        <ele>185.8</ele>
        <time>2024-09-18T09:25:07Z</time>
      </trkpt>
      <trkpt lat="46.78264" lon="4.85824">
        <ele>185</ele>
        <time>2024-09-18T09:29:13Z</time>
      </trkpt>
      <trkpt lat="46.78265" lon="4.85822">
        <ele>185</ele>
        <time>2024-09-18T09:29:14Z</time>
      </trkpt>
      <trkpt lat="46.78266" lon="4.85821">
        <ele>185.2</ele>
        <time>2024-09-18T09:29:15Z</time>
      </trkpt>
      <trkpt lat="46.78267" lon="4.8582">
        <ele>185.2</ele>
        <time>2024-09-18T09:29:16Z</time>
      </trkpt>
      <trkpt lat="46.78267" lon="4.85818">
        <ele>185.2</ele>
        <time>2024-09-18T09:29:17Z</time>
      </trkpt>
      <trkpt lat="46.78268" lon="4.85816">
        <ele>185.2</ele>
        <time>2024-09-18T09:29:18Z</time>
      </trkpt>
      <trkpt lat="46.78269" lon="4.85814">
        <ele>185.2</ele>
        <time>2024-09-18T09:29:19Z</time>
      </trkpt>
      <trkpt lat="46.7827" lon="4.85813">
        <ele>185.2</ele>
        <time>2024-09-18T09:29:20Z</time>
      </trkpt>
      <trkpt lat="46.78271" lon="4.85812">
        <ele>185</ele>
        <time>2024-09-18T09:29:21Z</time>
      </trkpt>
      <trkpt lat="46.78272" lon="4.85811">
        <ele>185</ele>
        <time>2024-09-18T09:29:22Z</time>
      </trkpt>
      <trkpt lat="46.78273" lon="4.8581">
        <ele>185</ele>
        <time>2024-09-18T09:29:23Z</time>
      </trkpt>
      <trkpt lat="46.78273" lon="4.85809">
        <ele>185</ele>
        <time>2024-09-18T09:29:24Z</time>
      </trkpt>
      <trkpt lat="46.78273" lon="4.85808">
        <ele>185</ele>
        <time>2024-09-18T09:29:25Z</time>
      </trkpt>
      <trkpt lat="46.78274" lon="4.85807">
        <ele>185</ele>
        <time>2024-09-18T09:29:26Z</time>
      </trkpt>
      <trkpt lat="46.78275" lon="4.85806">
        <ele>185</ele>
        <time>2024-09-18T09:29:27Z</time>
      </trkpt>
      <trkpt lat="46.78275" lon="4.85804">
        <ele>185</ele>
        <time>2024-09-18T09:29:28Z</time>
      </trkpt>
      <trkpt lat="46.78276" lon="4.85802">
        <ele>184.8</ele>
        <time>2024-09-18T09:29:29Z</time>
      </trkpt>
      <trkpt lat="46.78277" lon="4.858">
        <ele>185</ele>
        <time>2024-09-18T09:29:30Z</time>
      </trkpt>
      <trkpt lat="46.78278" lon="4.85798">
        <ele>185</ele>
        <time>2024-09-18T09:29:31Z</time>
      </trkpt>
      <trkpt lat="46.7828" lon="4.85796">
        <ele>185</ele>
        <time>2024-09-18T09:29:32Z</time>
      </trkpt>
      <trkpt lat="46.78281" lon="4.85795">
        <ele>185</ele>
        <time>2024-09-18T09:29:33Z</time>
      </trkpt>
      <trkpt lat="46.78282" lon="4.85793">
        <ele>185</ele>
        <time>2024-09-18T09:29:34Z</time>
      </trkpt>
      <trkpt lat="46.78283" lon="4.85791">
        <ele>185</ele>
        <time>2024-09-18T09:29:35Z</time>
      </trkpt>
      <trkpt lat="46.78285" lon="4.8579">
        <ele>185</ele>
        <time>2024-09-18T09:29:36Z</time>
      </trkpt>
      <trkpt lat="46.78285" lon="4.85789">
        <ele>185</ele>
        <time>2024-09-18T09:29:37Z</time>
      </trkpt>
      <trkpt lat="46.78286" lon="4.85787">
        <ele>185</ele>
        <time>2024-09-18T09:29:38Z</time>
      </trkpt>
      <trkpt lat="46.78288" lon="4.85785">
        <ele>185</ele>
        <time>2024-09-18T09:29:39Z</time>
      </trkpt>
      <trkpt lat="46.7829" lon="4.85784">
        <ele>185</ele>
        <time>2024-09-18T09:29:40Z</time>
      </trkpt>
      <trkpt lat="46.78292" lon="4.85781">
        <ele>185</ele>
        <time>2024-09-18T09:29:41Z</time>
      </trkpt>
      <trkpt lat="46.78294" lon="4.85779">
        <ele>185</ele>
        <time>2024-09-18T09:29:42Z</time>
      </trkpt>
      <trkpt lat="46.78296" lon="4.85777">
        <ele>185</ele>
        <time>2024-09-18T09:29:43Z</time>
      </trkpt>
      <trkpt lat="46.78298" lon="4.85776">
        <ele>185</ele>
        <time>2024-09-18T09:29:44Z</time>
      </trkpt>
      <trkpt lat="46.78299" lon="4.85775">
        <ele>185</ele>
        <time>2024-09-18T09:29:45Z</time>
      </trkpt>
      <trkpt lat="46.78301" lon="4.85774">
        <ele>185</ele>
        <time>2024-09-18T09:29:46Z</time>
      </trkpt>
      <trkpt lat="46.78302" lon="4.85772">
        <ele>185</ele>
        <time>2024-09-18T09:29:47Z</time>
      </trkpt>
      <trkpt lat="46.78304" lon="4.8577">
        <ele>185</ele>
        <time>2024-09-18T09:29:48Z</time>
      </trkpt>
      <trkpt lat="46.78305" lon="4.85768">
        <ele>185</ele>
        <time>2024-09-18T09:29:49Z</time>
      </trkpt>
      <trkpt lat="46.78307" lon="4.85766">
        <ele>185</ele>
        <time>2024-09-18T09:29:50Z</time>
      </trkpt>
      <trkpt lat="46.78308" lon="4.85765">
        <ele>185</ele>
        <time>2024-09-18T09:29:51Z</time>
      </trkpt>
      <trkpt lat="46.7831" lon="4.85764">
        <ele>185</ele>
        <time>2024-09-18T09:29:52Z</time>
      </trkpt>
      <trkpt lat="46.78311" lon="4.85762">
        <ele>185</ele>
        <time>2024-09-18T09:29:53Z</time>
      </trkpt>
      <trkpt lat="46.78312" lon="4.8576">
        <ele>185</ele>
        <time>2024-09-18T09:29:54Z</time>
      </trkpt>
      <trkpt lat="46.78314" lon="4.85758">
        <ele>185</ele>
        <time>2024-09-18T09:29:55Z</time>
      </trkpt>
      <trkpt lat="46.78316" lon="4.85756">
        <ele>184.8</ele>
        <time>2024-09-18T09:29:56Z</time>
      </trkpt>
      <trkpt lat="46.78318" lon="4.85754">
        <ele>184.8</ele>
        <time>2024-09-18T09:29:57Z</time>
      </trkpt>
      <trkpt lat="46.78319" lon="4.85751">
        <ele>184.8</ele>
        <time>2024-09-18T09:29:58Z</time>
      </trkpt>
      <trkpt lat="46.78321" lon="4.85748">
        <ele>184.8</ele>
        <time>2024-09-18T09:29:59Z</time>
      </trkpt>
      <trkpt lat="46.78323" lon="4.85745">
        <ele>184.8</ele>
        <time>2024-09-18T09:30:00Z</time>
      </trkpt>
      <trkpt lat="46.78324" lon="4.85741">
        <ele>185</ele>
        <time>2024-09-18T09:30:01Z</time>
      </trkpt>
      <trkpt lat="46.78325" lon="4.85738">
        <ele>185</ele>
        <time>2024-09-18T09:30:02Z</time>
      </trkpt>
      <trkpt lat="46.78326" lon="4.85734">
        <ele>185</ele>
        <time>2024-09-18T09:30:03Z</time>
      </trkpt>
      <trkpt lat="46.78328" lon="4.8573">
        <ele>185</ele>
        <time>2024-09-18T09:30:04Z</time>
      </trkpt>
      <trkpt lat="46.78329" lon="4.85727">
        <ele>184.8</ele>
        <time>2024-09-18T09:30:05Z</time>
      </trkpt>
      <trkpt lat="46.7833" lon="4.85724">
        <ele>184.6</ele>
        <time>2024-09-18T09:30:06Z</time>
      </trkpt>
      <trkpt lat="46.78332" lon="4.85721">
        <ele>184.6</ele>
        <time>2024-09-18T09:30:07Z</time>
      </trkpt>
      <trkpt lat="46.78333" lon="4.85718">
        <ele>184.6</ele>
        <time>2024-09-18T09:30:08Z</time>
      </trkpt>
      <trkpt lat="46.78335" lon="4.85714">
        <ele>184.4</ele>
        <time>2024-09-18T09:30:09Z</time>
      </trkpt>
      <trkpt lat="46.78336" lon="4.85711">
        <ele>184.4</ele>
        <time>2024-09-18T09:30:10Z</time>
      </trkpt>
      <trkpt lat="46.78337" lon="4.85707">
        <ele>184.4</ele>
        <time>2024-09-18T09:30:11Z</time>
      </trkpt>
      <trkpt lat="46.78338" lon="4.85704">
        <ele>184.4</ele>
        <time>2024-09-18T09:30:12Z</time>
      </trkpt>
      <trkpt lat="46.78339" lon="4.85701">
        <ele>184.4</ele>
        <time>2024-09-18T09:30:13Z</time>
      </trkpt>
      <trkpt lat="46.7834" lon="4.85698">
        <ele>184.4</ele>
        <time>2024-09-18T09:30:14Z</time>
      </trkpt>
      <trkpt lat="46.78341" lon="4.85695">
        <ele>184.4</ele>
        <time>2024-09-18T09:30:15Z</time>
      </trkpt>
      <trkpt lat="46.78342" lon="4.85693">
        <ele>184.4</ele>
        <time>2024-09-18T09:30:16Z</time>
      </trkpt>
      <trkpt lat="46.78342" lon="4.8569">
        <ele>184.4</ele>
        <time>2024-09-18T09:30:17Z</time>
      </trkpt>
      <trkpt lat="46.78342" lon="4.85688">
        <ele>184.4</ele>
        <time>2024-09-18T09:30:18Z</time>
      </trkpt>
      <trkpt lat="46.78343" lon="4.85686">
        <ele>184.4</ele>
        <time>2024-09-18T09:30:19Z</time>
      </trkpt>
      <trkpt lat="46.78343" lon="4.85683">
        <ele>184.4</ele>
        <time>2024-09-18T09:30:20Z</time>
      </trkpt>
      <trkpt lat="46.78343" lon="4.85681">
        <ele>184.4</ele>
        <time>2024-09-18T09:30:21Z</time>
      </trkpt>
      <trkpt lat="46.78344" lon="4.85678">
        <ele>184.4</ele>
        <time>2024-09-18T09:30:22Z</time>
      </trkpt>
      <trkpt lat="46.78345" lon="4.85675">
        <ele>184.6</ele>
        <time>2024-09-18T09:30:23Z</time>
      </trkpt>
      <trkpt lat="46.78346" lon="4.85672">
        <ele>184.6</ele>
        <time>2024-09-18T09:30:24Z</time>
      </trkpt>
      <trkpt lat="46.78347" lon="4.85668">
        <ele>184.6</ele>
        <time>2024-09-18T09:30:25Z</time>
      </trkpt>
      <trkpt lat="46.78348" lon="4.85666">
        <ele>184.6</ele>
        <time>2024-09-18T09:30:26Z</time>
      </trkpt>
      <trkpt lat="46.78349" lon="4.85664">
        <ele>184.4</ele>
        <time>2024-09-18T09:30:27Z</time>
      </trkpt>
      <trkpt lat="46.7835" lon="4.85662">
        <ele>184.4</ele>
        <time>2024-09-18T09:30:28Z</time>
      </trkpt>
      <trkpt lat="46.78352" lon="4.8566">
        <ele>184.4</ele>
        <time>2024-09-18T09:30:29Z</time>
      </trkpt>
      <trkpt lat="46.78353" lon="4.85658">
        <ele>184.4</ele>
        <time>2024-09-18T09:30:30Z</time>
      </trkpt>
      <trkpt lat="46.78354" lon="4.85655">
        <ele>184.2</ele>
        <time>2024-09-18T09:30:31Z</time>
      </trkpt>
      <trkpt lat="46.78354" lon="4.85653">
        <ele>184.4</ele>
        <time>2024-09-18T09:30:32Z</time>
      </trkpt>
      <trkpt lat="46.78355" lon="4.8565">
        <ele>184.4</ele>
        <time>2024-09-18T09:30:33Z</time>
      </trkpt>
      <trkpt lat="46.78355" lon="4.85648">
        <ele>184.4</ele>
        <time>2024-09-18T09:30:34Z</time>
      </trkpt>
      <trkpt lat="46.78356" lon="4.85645">
        <ele>184.4</ele>
        <time>2024-09-18T09:30:35Z</time>
      </trkpt>
      <trkpt lat="46.78357" lon="4.85643">
        <ele>184</ele>
        <time>2024-09-18T09:30:36Z</time>
      </trkpt>
      <trkpt lat="46.78358" lon="4.85641">
        <ele>184</ele>
        <time>2024-09-18T09:30:37Z</time>
      </trkpt>
      <trkpt lat="46.78359" lon="4.85639">
        <ele>184</ele>
        <time>2024-09-18T09:30:38Z</time>
      </trkpt>
      <trkpt lat="46.78361" lon="4.85637">
        <ele>184</ele>
        <time>2024-09-18T09:30:39Z</time>
      </trkpt>
      <trkpt lat="46.78362" lon="4.85635">
        <ele>184</ele>
        <time>2024-09-18T09:30:40Z</time>
      </trkpt>
      <trkpt lat="46.78363" lon="4.85633">
        <ele>184</ele>
        <time>2024-09-18T09:30:41Z</time>
      </trkpt>
      <trkpt lat="46.78364" lon="4.8563">
        <ele>183.8</ele>
        <time>2024-09-18T09:30:42Z</time>
      </trkpt>
      <trkpt lat="46.78365" lon="4.85627">
        <ele>183.8</ele>
        <time>2024-09-18T09:30:43Z</time>
      </trkpt>
      <trkpt lat="46.78367" lon="4.85625">
        <ele>183.8</ele>
        <time>2024-09-18T09:30:44Z</time>
      </trkpt>
      <trkpt lat="46.78368" lon="4.85622">
        <ele>183.8</ele>
        <time>2024-09-18T09:30:45Z</time>
      </trkpt>
      <trkpt lat="46.78369" lon="4.8562">
        <ele>183.6</ele>
        <time>2024-09-18T09:30:46Z</time>
      </trkpt>
      <trkpt lat="46.7837" lon="4.85616">
        <ele>183.6</ele>
        <time>2024-09-18T09:30:47Z</time>
      </trkpt>
      <trkpt lat="46.78371" lon="4.85613">
        <ele>183.6</ele>
        <time>2024-09-18T09:30:48Z</time>
      </trkpt>
      <trkpt lat="46.78371" lon="4.85609">
        <ele>183.6</ele>
        <time>2024-09-18T09:30:49Z</time>
      </trkpt>
      <trkpt lat="46.78371" lon="4.85605">
        <ele>183.6</ele>
        <time>2024-09-18T09:30:50Z</time>
      </trkpt>
      <trkpt lat="46.78371" lon="4.85602">
        <ele>183.8</ele>
        <time>2024-09-18T09:30:51Z</time>
      </trkpt>
      <trkpt lat="46.78371" lon="4.85598">
        <ele>183.8</ele>
        <time>2024-09-18T09:30:52Z</time>
      </trkpt>
      <trkpt lat="46.78371" lon="4.85594">
        <ele>183.8</ele>
        <time>2024-09-18T09:30:53Z</time>
      </trkpt>
      <trkpt lat="46.7837" lon="4.85591">
        <ele>183.6</ele>
        <time>2024-09-18T09:30:54Z</time>
      </trkpt>
      <trkpt lat="46.78369" lon="4.85587">
        <ele>183.4</ele>
        <time>2024-09-18T09:30:55Z</time>
      </trkpt>
      <trkpt lat="46.78369" lon="4.85584">
        <ele>183.4</ele>
        <time>2024-09-18T09:30:56Z</time>
      </trkpt>
      <trkpt lat="46.78369" lon="4.8558">
        <ele>183.4</ele>
        <time>2024-09-18T09:30:57Z</time>
      </trkpt>
      <trkpt lat="46.78369" lon="4.85576">
        <ele>183.4</ele>
        <time>2024-09-18T09:30:58Z</time>
      </trkpt>
      <trkpt lat="46.78369" lon="4.85572">
        <ele>183.2</ele>
        <time>2024-09-18T09:30:59Z</time>
      </trkpt>
      <trkpt lat="46.78368" lon="4.85568">
        <ele>183.2</ele>
        <time>2024-09-18T09:31:00Z</time>
      </trkpt>
      <trkpt lat="46.78367" lon="4.85562">
        <ele>183.2</ele>
        <time>2024-09-18T09:31:01Z</time>
      </trkpt>
      <trkpt lat="46.78367" lon="4.8556">
        <ele>183.2</ele>
        <time>2024-09-18T09:31:02Z</time>
      </trkpt>
      <trkpt lat="46.78366" lon="4.85557">
        <ele>183.2</ele>
        <time>2024-09-18T09:31:03Z</time>
      </trkpt>
      <trkpt lat="46.78365" lon="4.85554">
        <ele>183.2</ele>
        <time>2024-09-18T09:31:04Z</time>
      </trkpt>
      <trkpt lat="46.78365" lon="4.85552">
        <ele>183.2</ele>
        <time>2024-09-18T09:31:05Z</time>
      </trkpt>
      <trkpt lat="46.78365" lon="4.8555">
        <ele>183.2</ele>
        <time>2024-09-18T09:31:06Z</time>
      </trkpt>
      <trkpt lat="46.78365" lon="4.85549">
        <ele>183.2</ele>
        <time>2024-09-18T09:31:07Z</time>
      </trkpt>
      <trkpt lat="46.78368" lon="4.85542">
        <ele>183</ele>
        <time>2024-09-18T09:31:17Z</time>
      </trkpt>
      <trkpt lat="46.78368" lon="4.85541">
        <ele>183</ele>
        <time>2024-09-18T09:31:18Z</time>
      </trkpt>
      <trkpt lat="46.78369" lon="4.8554">
        <ele>183</ele>
        <time>2024-09-18T09:31:19Z</time>
      </trkpt>
      <trkpt lat="46.78371" lon="4.8554">
        <ele>183.2</ele>
        <time>2024-09-18T09:31:20Z</time>
      </trkpt>
      <trkpt lat="46.78373" lon="4.8554">
        <ele>183.2</ele>
        <time>2024-09-18T09:31:21Z</time>
      </trkpt>
      <trkpt lat="46.78375" lon="4.85539">
        <ele>183.2</ele>
        <time>2024-09-18T09:31:22Z</time>
      </trkpt>
      <trkpt lat="46.78376" lon="4.85538">
        <ele>183.2</ele>
        <time>2024-09-18T09:31:23Z</time>
      </trkpt>
      <trkpt lat="46.78378" lon="4.85538">
        <ele>183.2</ele>
        <time>2024-09-18T09:31:24Z</time>
      </trkpt>
      <trkpt lat="46.7838" lon="4.85536">
        <ele>183.2</ele>
        <time>2024-09-18T09:31:25Z</time>
      </trkpt>
      <trkpt lat="46.78382" lon="4.85535">
        <ele>183</ele>
        <time>2024-09-18T09:31:26Z</time>
      </trkpt>
      <trkpt lat="46.78384" lon="4.85534">
        <ele>183</ele>
        <time>2024-09-18T09:31:27Z</time>
      </trkpt>
      <trkpt lat="46.78386" lon="4.85533">
        <ele>183</ele>
        <time>2024-09-18T09:31:28Z</time>
      </trkpt>
      <trkpt lat="46.78388" lon="4.85532">
        <ele>183</ele>
        <time>2024-09-18T09:31:29Z</time>
      </trkpt>
      <trkpt lat="46.78389" lon="4.85532">
        <ele>183</ele>
        <time>2024-09-18T09:31:30Z</time>
      </trkpt>
      <trkpt lat="46.78391" lon="4.8553">
        <ele>183</ele>
        <time>2024-09-18T09:31:31Z</time>
      </trkpt>
      <trkpt lat="46.78393" lon="4.85529">
        <ele>183</ele>
        <time>2024-09-18T09:31:32Z</time>
      </trkpt>
      <trkpt lat="46.78394" lon="4.85528">
        <ele>183</ele>
        <time>2024-09-18T09:31:33Z</time>
      </trkpt>
      <trkpt lat="46.78396" lon="4.85527">
        <ele>183</ele>
        <time>2024-09-18T09:31:34Z</time>
      </trkpt>
      <trkpt lat="46.78398" lon="4.85527">
        <ele>183</ele>
        <time>2024-09-18T09:31:35Z</time>
      </trkpt>
      <trkpt lat="46.78399" lon="4.85526">
        <ele>183</ele>
        <time>2024-09-18T09:31:36Z</time>
      </trkpt>
      <trkpt lat="46.78401" lon="4.85526">
        <ele>183</ele>
        <time>2024-09-18T09:31:37Z</time>
      </trkpt>
      <trkpt lat="46.78403" lon="4.85524">
        <ele>183</ele>
        <time>2024-09-18T09:31:38Z</time>
      </trkpt>
      <trkpt lat="46.78405" lon="4.85523">
        <ele>183</ele>
        <time>2024-09-18T09:31:39Z</time>
      </trkpt>
      <trkpt lat="46.78407" lon="4.85522">
        <ele>182.8</ele>
        <time>2024-09-18T09:31:40Z</time>
      </trkpt>
      <trkpt lat="46.7841" lon="4.8552">
        <ele>182.8</ele>
        <time>2024-09-18T09:31:41Z</time>
      </trkpt>
      <trkpt lat="46.78412" lon="4.8552">
        <ele>182.8</ele>
        <time>2024-09-18T09:31:42Z</time>
      </trkpt>
      <trkpt lat="46.78414" lon="4.85519">
        <ele>182.8</ele>
        <time>2024-09-18T09:31:43Z</time>
      </trkpt>
      <trkpt lat="46.78416" lon="4.85519">
        <ele>182.8</ele>
        <time>2024-09-18T09:31:44Z</time>
      </trkpt>
      <trkpt lat="46.78417" lon="4.85517">
        <ele>182.8</ele>
        <time>2024-09-18T09:31:45Z</time>
      </trkpt>
      <trkpt lat="46.78419" lon="4.85516">
        <ele>182.8</ele>
        <time>2024-09-18T09:31:46Z</time>
      </trkpt>
      <trkpt lat="46.78421" lon="4.85515">
        <ele>183</ele>
        <time>2024-09-18T09:31:47Z</time>
      </trkpt>
      <trkpt lat="46.78423" lon="4.85513">
        <ele>183</ele>
        <time>2024-09-18T09:31:48Z</time>
      </trkpt>
      <trkpt lat="46.78424" lon="4.85511">
        <ele>183</ele>
        <time>2024-09-18T09:31:49Z</time>
      </trkpt>
      <trkpt lat="46.78426" lon="4.85509">
        <ele>183</ele>
        <time>2024-09-18T09:31:50Z</time>
      </trkpt>
      <trkpt lat="46.78427" lon="4.85508">
        <ele>182.8</ele>
        <time>2024-09-18T09:31:51Z</time>
      </trkpt>
      <trkpt lat="46.78428" lon="4.85507">
        <ele>183</ele>
        <time>2024-09-18T09:31:52Z</time>
      </trkpt>
      <trkpt lat="46.78428" lon="4.85508">
        <ele>183</ele>
        <time>2024-09-18T09:31:53Z</time>
      </trkpt>
      <trkpt lat="46.78428" lon="4.85508">
        <ele>183</ele>
        <time>2024-09-18T09:31:54Z</time>
      </trkpt>
      <trkpt lat="46.7843" lon="4.85504">
        <ele>182.8</ele>
        <time>2024-09-18T09:32:01Z</time>
      </trkpt>
      <trkpt lat="46.78431" lon="4.85503">
        <ele>182.8</ele>
        <time>2024-09-18T09:32:02Z</time>
      </trkpt>
      <trkpt lat="46.78434" lon="4.85503">
        <ele>182.8</ele>
        <time>2024-09-18T09:32:03Z</time>
      </trkpt>
      <trkpt lat="46.78436" lon="4.85503">
        <ele>183</ele>
        <time>2024-09-18T09:32:04Z</time>
      </trkpt>
      <trkpt lat="46.78438" lon="4.85502">
        <ele>183</ele>
        <time>2024-09-18T09:32:05Z</time>
      </trkpt>
      <trkpt lat="46.7844" lon="4.85501">
        <ele>183</ele>
        <time>2024-09-18T09:32:06Z</time>
      </trkpt>
      <trkpt lat="46.78442" lon="4.85501">
        <ele>183</ele>
        <time>2024-09-18T09:32:07Z</time>
      </trkpt>
      <trkpt lat="46.78444" lon="4.85501">
        <ele>183</ele>
        <time>2024-09-18T09:32:08Z</time>
      </trkpt>
      <trkpt lat="46.78446" lon="4.85501">
        <ele>183</ele>
        <time>2024-09-18T09:32:09Z</time>
      </trkpt>
      <trkpt lat="46.78448" lon="4.85502">
        <ele>183.2</ele>
        <time>2024-09-18T09:32:10Z</time>
      </trkpt>
      <trkpt lat="46.7845" lon="4.85502">
        <ele>183.2</ele>
        <time>2024-09-18T09:32:11Z</time>
      </trkpt>
      <trkpt lat="46.78453" lon="4.85503">
        <ele>183.2</ele>
        <time>2024-09-18T09:32:12Z</time>
      </trkpt>
      <trkpt lat="46.78455" lon="4.85502">
        <ele>183.2</ele>
        <time>2024-09-18T09:32:13Z</time>
      </trkpt>
      <trkpt lat="46.78457" lon="4.85502">
        <ele>183.2</ele>
        <time>2024-09-18T09:32:14Z</time>
      </trkpt>
      <trkpt lat="46.78459" lon="4.85502">
        <ele>183.2</ele>
        <time>2024-09-18T09:32:15Z</time>
      </trkpt>
      <trkpt lat="46.78462" lon="4.85502">
        <ele>183.2</ele>
        <time>2024-09-18T09:32:16Z</time>
      </trkpt>
      <trkpt lat="46.78465" lon="4.85501">
        <ele>183.2</ele>
        <time>2024-09-18T09:32:17Z</time>
      </trkpt>
      <trkpt lat="46.78467" lon="4.85502">
        <ele>183.2</ele>
        <time>2024-09-18T09:32:18Z</time>
      </trkpt>
      <trkpt lat="46.78469" lon="4.85502">
        <ele>183.2</ele>
        <time>2024-09-18T09:32:19Z</time>
      </trkpt>
      <trkpt lat="46.7847" lon="4.85501">
        <ele>183.2</ele>
        <time>2024-09-18T09:32:20Z</time>
      </trkpt>
      <trkpt lat="46.78472" lon="4.855">
        <ele>183.2</ele>
        <time>2024-09-18T09:32:21Z</time>
      </trkpt>
      <trkpt lat="46.78474" lon="4.85502">
        <ele>183.2</ele>
        <time>2024-09-18T09:32:22Z</time>
      </trkpt>
      <trkpt lat="46.78476" lon="4.85506">
        <ele>183.2</ele>
        <time>2024-09-18T09:32:23Z</time>
      </trkpt>
      <trkpt lat="46.78476" lon="4.85507">
        <ele>183.2</ele>
        <time>2024-09-18T09:32:24Z</time>
      </trkpt>
      <trkpt lat="46.78475" lon="4.85508">
        <ele>183.2</ele>
        <time>2024-09-18T09:32:25Z</time>
      </trkpt>
      <trkpt lat="46.78473" lon="4.85508">
        <ele>183.2</ele>
        <time>2024-09-18T09:32:26Z</time>
      </trkpt>
      <trkpt lat="46.78471" lon="4.85509">
        <ele>183</ele>
        <time>2024-09-18T09:32:27Z</time>
      </trkpt>
      <trkpt lat="46.78469" lon="4.85509">
        <ele>183</ele>
        <time>2024-09-18T09:32:28Z</time>
      </trkpt>
      <trkpt lat="46.78468" lon="4.8551">
        <ele>183</ele>
        <time>2024-09-18T09:32:29Z</time>
      </trkpt>
      <trkpt lat="46.78466" lon="4.8551">
        <ele>183</ele>
        <time>2024-09-18T09:32:30Z</time>
      </trkpt>
      <trkpt lat="46.78465" lon="4.85511">
        <ele>183</ele>
        <time>2024-09-18T09:32:31Z</time>
      </trkpt>
      <trkpt lat="46.78454" lon="4.85482">
        <ele>183.2</ele>
        <time>2024-09-18T09:37:49Z</time>
      </trkpt>
      <trkpt lat="46.78452" lon="4.85482">
        <ele>183.2</ele>
        <time>2024-09-18T09:37:50Z</time>
      </trkpt>
      <trkpt lat="46.78451" lon="4.85482">
        <ele>183.2</ele>
        <time>2024-09-18T09:37:51Z</time>
      </trkpt>
      <trkpt lat="46.7845" lon="4.85482">
        <ele>183.2</ele>
        <time>2024-09-18T09:37:52Z</time>
      </trkpt>
      <trkpt lat="46.78449" lon="4.85483">
        <ele>183</ele>
        <time>2024-09-18T09:37:53Z</time>
      </trkpt>
      <trkpt lat="46.78447" lon="4.85483">
        <ele>183</ele>
        <time>2024-09-18T09:37:54Z</time>
      </trkpt>
      <trkpt lat="46.78446" lon="4.85482">
        <ele>183</ele>
        <time>2024-09-18T09:37:55Z</time>
      </trkpt>
      <trkpt lat="46.78445" lon="4.85481">
        <ele>183</ele>
        <time>2024-09-18T09:37:56Z</time>
      </trkpt>
      <trkpt lat="46.78443" lon="4.8548">
        <ele>183</ele>
        <time>2024-09-18T09:37:57Z</time>
      </trkpt>
      <trkpt lat="46.78443" lon="4.85479">
        <ele>183.2</ele>
        <time>2024-09-18T09:37:58Z</time>
      </trkpt>
      <trkpt lat="46.78442" lon="4.85479">
        <ele>183.2</ele>
        <time>2024-09-18T09:37:59Z</time>
      </trkpt>
      <trkpt lat="46.78441" lon="4.8548">
        <ele>183.2</ele>
        <time>2024-09-18T09:38:00Z</time>
      </trkpt>
      <trkpt lat="46.78439" lon="4.8548">
        <ele>183.2</ele>
        <time>2024-09-18T09:38:01Z</time>
      </trkpt>
      <trkpt lat="46.78438" lon="4.85481">
        <ele>183</ele>
        <time>2024-09-18T09:38:02Z</time>
      </trkpt>
      <trkpt lat="46.78437" lon="4.85482">
        <ele>183</ele>
        <time>2024-09-18T09:38:03Z</time>
      </trkpt>
      <trkpt lat="46.78435" lon="4.85483">
        <ele>183</ele>
        <time>2024-09-18T09:38:04Z</time>
      </trkpt>
      <trkpt lat="46.78433" lon="4.85483">
        <ele>183</ele>
        <time>2024-09-18T09:38:05Z</time>
      </trkpt>
      <trkpt lat="46.78431" lon="4.85484">
        <ele>183.2</ele>
        <time>2024-09-18T09:38:06Z</time>
      </trkpt>
      <trkpt lat="46.78429" lon="4.85485">
        <ele>183</ele>
        <time>2024-09-18T09:38:07Z</time>
      </trkpt>
      <trkpt lat="46.78426" lon="4.85487">
        <ele>183</ele>
        <time>2024-09-18T09:38:08Z</time>
      </trkpt>
      <trkpt lat="46.78424" lon="4.85487">
        <ele>183</ele>
        <time>2024-09-18T09:38:09Z</time>
      </trkpt>
      <trkpt lat="46.78422" lon="4.85488">
        <ele>183</ele>
        <time>2024-09-18T09:38:10Z</time>
      </trkpt>
      <trkpt lat="46.7842" lon="4.85489">
        <ele>183.2</ele>
        <time>2024-09-18T09:38:11Z</time>
      </trkpt>
      <trkpt lat="46.78417" lon="4.85491">
        <ele>183.2</ele>
        <time>2024-09-18T09:38:12Z</time>
      </trkpt>
      <trkpt lat="46.78414" lon="4.85493">
        <ele>183</ele>
        <time>2024-09-18T09:38:13Z</time>
      </trkpt>
      <trkpt lat="46.78412" lon="4.85495">
        <ele>183</ele>
        <time>2024-09-18T09:38:14Z</time>
      </trkpt>
      <trkpt lat="46.78409" lon="4.85496">
        <ele>183.2</ele>
        <time>2024-09-18T09:38:15Z</time>
      </trkpt>
      <trkpt lat="46.78407" lon="4.85496">
        <ele>183.2</ele>
        <time>2024-09-18T09:38:16Z</time>
      </trkpt>
      <trkpt lat="46.78404" lon="4.85497">
        <ele>183</ele>
        <time>2024-09-18T09:38:17Z</time>
      </trkpt>
      <trkpt lat="46.78402" lon="4.85498">
        <ele>183</ele>
        <time>2024-09-18T09:38:18Z</time>
      </trkpt>
      <trkpt lat="46.784" lon="4.855">
        <ele>183</ele>
        <time>2024-09-18T09:38:19Z</time>
      </trkpt>
      <trkpt lat="46.78398" lon="4.85501">
        <ele>183</ele>
        <time>2024-09-18T09:38:20Z</time>
      </trkpt>
      <trkpt lat="46.78397" lon="4.85502">
        <ele>183</ele>
        <time>2024-09-18T09:38:21Z</time>
      </trkpt>
      <trkpt lat="46.78395" lon="4.85503">
        <ele>183.2</ele>
        <time>2024-09-18T09:38:22Z</time>
      </trkpt>
      <trkpt lat="46.78394" lon="4.85504">
        <ele>183.2</ele>
        <time>2024-09-18T09:38:23Z</time>
      </trkpt>
      <trkpt lat="46.78393" lon="4.85504">
        <ele>183.2</ele>
        <time>2024-09-18T09:38:24Z</time>
      </trkpt>
      <trkpt lat="46.78393" lon="4.85506">
        <ele>183.2</ele>
        <time>2024-09-18T09:38:25Z</time>
      </trkpt>
      <trkpt lat="46.78392" lon="4.85507">
        <ele>183.2</ele>
        <time>2024-09-18T09:38:26Z</time>
      </trkpt>
      <trkpt lat="46.7839" lon="4.85509">
        <ele>183.2</ele>
        <time>2024-09-18T09:38:27Z</time>
      </trkpt>
      <trkpt lat="46.78389" lon="4.85511">
        <ele>183.2</ele>
        <time>2024-09-18T09:38:28Z</time>
      </trkpt>
      <trkpt lat="46.78387" lon="4.85512">
        <ele>183.2</ele>
        <time>2024-09-18T09:38:29Z</time>
      </trkpt>
      <trkpt lat="46.78386" lon="4.85514">
        <ele>183</ele>
        <time>2024-09-18T09:38:30Z</time>
      </trkpt>
      <trkpt lat="46.78385" lon="4.85515">
        <ele>183</ele>
        <time>2024-09-18T09:38:31Z</time>
      </trkpt>
      <trkpt lat="46.78383" lon="4.85517">
        <ele>183</ele>
        <time>2024-09-18T09:38:32Z</time>
      </trkpt>
      <trkpt lat="46.78382" lon="4.85518">
        <ele>183</ele>
        <time>2024-09-18T09:38:33Z</time>
      </trkpt>
      <trkpt lat="46.78381" lon="4.8552">
        <ele>183</ele>
        <time>2024-09-18T09:38:34Z</time>
      </trkpt>
      <trkpt lat="46.78379" lon="4.85522">
        <ele>183.2</ele>
        <time>2024-09-18T09:38:35Z</time>
      </trkpt>
      <trkpt lat="46.78378" lon="4.85523">
        <ele>183.2</ele>
        <time>2024-09-18T09:38:36Z</time>
      </trkpt>
      <trkpt lat="46.78376" lon="4.85524">
        <ele>183.2</ele>
        <time>2024-09-18T09:38:37Z</time>
      </trkpt>
      <trkpt lat="46.78374" lon="4.85526">
        <ele>183.2</ele>
        <time>2024-09-18T09:38:38Z</time>
      </trkpt>
      <trkpt lat="46.78372" lon="4.85527">
        <ele>183.2</ele>
        <time>2024-09-18T09:38:39Z</time>
      </trkpt>
      <trkpt lat="46.78371" lon="4.85528">
        <ele>183.2</ele>
        <time>2024-09-18T09:38:40Z</time>
      </trkpt>
      <trkpt lat="46.78368" lon="4.85529">
        <ele>183.2</ele>
        <time>2024-09-18T09:38:41Z</time>
      </trkpt>
      <trkpt lat="46.78366" lon="4.8553">
        <ele>183.2</ele>
        <time>2024-09-18T09:38:42Z</time>
      </trkpt>
      <trkpt lat="46.78364" lon="4.85532">
        <ele>183.2</ele>
        <time>2024-09-18T09:38:43Z</time>
      </trkpt>
      <trkpt lat="46.78361" lon="4.85533">
        <ele>183.2</ele>
        <time>2024-09-18T09:38:44Z</time>
      </trkpt>
      <trkpt lat="46.78358" lon="4.85536">
        <ele>183.2</ele>
        <time>2024-09-18T09:38:45Z</time>
      </trkpt>
      <trkpt lat="46.78356" lon="4.85538">
        <ele>183.2</ele>
        <time>2024-09-18T09:38:46Z</time>
      </trkpt>
      <trkpt lat="46.78354" lon="4.8554">
        <ele>183.6</ele>
        <time>2024-09-18T09:38:47Z</time>
      </trkpt>
      <trkpt lat="46.78352" lon="4.85542">
        <ele>183.6</ele>
        <time>2024-09-18T09:38:48Z</time>
      </trkpt>
      <trkpt lat="46.7835" lon="4.85545">
        <ele>183.6</ele>
        <time>2024-09-18T09:38:49Z</time>
      </trkpt>
      <trkpt lat="46.78348" lon="4.85547">
        <ele>183.6</ele>
        <time>2024-09-18T09:38:50Z</time>
      </trkpt>
      <trkpt lat="46.78347" lon="4.85549">
        <ele>183.6</ele>
        <time>2024-09-18T09:38:51Z</time>
      </trkpt>
      <trkpt lat="46.78345" lon="4.8555">
        <ele>184</ele>
        <time>2024-09-18T09:38:52Z</time>
      </trkpt>
      <trkpt lat="46.78343" lon="4.85552">
        <ele>184</ele>
        <time>2024-09-18T09:38:53Z</time>
      </trkpt>
      <trkpt lat="46.78342" lon="4.85553">
        <ele>184</ele>
        <time>2024-09-18T09:38:54Z</time>
      </trkpt>
      <trkpt lat="46.7834" lon="4.85555">
        <ele>184</ele>
        <time>2024-09-18T09:38:55Z</time>
      </trkpt>
      <trkpt lat="46.78338" lon="4.85556">
        <ele>184</ele>
        <time>2024-09-18T09:38:56Z</time>
      </trkpt>
      <trkpt lat="46.78336" lon="4.85558">
        <ele>184.2</ele>
        <time>2024-09-18T09:38:57Z</time>
      </trkpt>
      <trkpt lat="46.78335" lon="4.85559">
        <ele>184.2</ele>
        <time>2024-09-18T09:38:58Z</time>
      </trkpt>
      <trkpt lat="46.78333" lon="4.8556">
        <ele>184.2</ele>
        <time>2024-09-18T09:38:59Z</time>
      </trkpt>
      <trkpt lat="46.78332" lon="4.85561">
        <ele>184.2</ele>
        <time>2024-09-18T09:39:00Z</time>
      </trkpt>
      <trkpt lat="46.78331" lon="4.85563">
        <ele>184.4</ele>
        <time>2024-09-18T09:39:01Z</time>
      </trkpt>
      <trkpt lat="46.78329" lon="4.85564">
        <ele>184.4</ele>
        <time>2024-09-18T09:39:02Z</time>
      </trkpt>
      <trkpt lat="46.78328" lon="4.85566">
        <ele>184.4</ele>
        <time>2024-09-18T09:39:03Z</time>
      </trkpt>
      <trkpt lat="46.78326" lon="4.85567">
        <ele>184.4</ele>
        <time>2024-09-18T09:39:04Z</time>
      </trkpt>
      <trkpt lat="46.78325" lon="4.85569">
        <ele>184.4</ele>
        <time>2024-09-18T09:39:05Z</time>
      </trkpt>
      <trkpt lat="46.78323" lon="4.85571">
        <ele>184.6</ele>
        <time>2024-09-18T09:39:06Z</time>
      </trkpt>
      <trkpt lat="46.78321" lon="4.85573">
        <ele>184.6</ele>
        <time>2024-09-18T09:39:07Z</time>
      </trkpt>
      <trkpt lat="46.78319" lon="4.85575">
        <ele>184.6</ele>
        <time>2024-09-18T09:39:08Z</time>
      </trkpt>
      <trkpt lat="46.78316" lon="4.85578">
        <ele>185</ele>
        <time>2024-09-18T09:39:09Z</time>
      </trkpt>
      <trkpt lat="46.78314" lon="4.85581">
        <ele>185</ele>
        <time>2024-09-18T09:39:10Z</time>
      </trkpt>
      <trkpt lat="46.78311" lon="4.85583">
        <ele>185</ele>
        <time>2024-09-18T09:39:11Z</time>
      </trkpt>
      <trkpt lat="46.78309" lon="4.85586">
        <ele>185</ele>
        <time>2024-09-18T09:39:12Z</time>
      </trkpt>
      <trkpt lat="46.78307" lon="4.85588">
        <ele>185</ele>
        <time>2024-09-18T09:39:13Z</time>
      </trkpt>
      <trkpt lat="46.78305" lon="4.85591">
        <ele>185.2</ele>
        <time>2024-09-18T09:39:14Z</time>
      </trkpt>
      <trkpt lat="46.78302" lon="4.85593">
        <ele>185.2</ele>
        <time>2024-09-18T09:39:15Z</time>
      </trkpt>
      <trkpt lat="46.783" lon="4.85596">
        <ele>185.2</ele>
        <time>2024-09-18T09:39:16Z</time>
      </trkpt>
      <trkpt lat="46.78298" lon="4.85598">
        <ele>185.2</ele>
        <time>2024-09-18T09:39:17Z</time>
      </trkpt>
      <trkpt lat="46.78296" lon="4.85601">
        <ele>185.2</ele>
        <time>2024-09-18T09:39:18Z</time>
      </trkpt>
      <trkpt lat="46.78294" lon="4.85603">
        <ele>185.2</ele>
        <time>2024-09-18T09:39:19Z</time>
      </trkpt>
      <trkpt lat="46.78291" lon="4.85606">
        <ele>185.4</ele>
        <time>2024-09-18T09:39:20Z</time>
      </trkpt>
      <trkpt lat="46.7829" lon="4.8561">
        <ele>185.4</ele>
        <time>2024-09-18T09:39:21Z</time>
      </trkpt>
      <trkpt lat="46.78287" lon="4.85613">
        <ele>185.4</ele>
        <time>2024-09-18T09:39:22Z</time>
      </trkpt>
      <trkpt lat="46.78285" lon="4.85616">
        <ele>185.4</ele>
        <time>2024-09-18T09:39:23Z</time>
      </trkpt>
      <trkpt lat="46.78283" lon="4.85618">
        <ele>185.6</ele>
        <time>2024-09-18T09:39:24Z</time>
      </trkpt>
      <trkpt lat="46.78282" lon="4.85621">
        <ele>185.6</ele>
        <time>2024-09-18T09:39:25Z</time>
      </trkpt>
      <trkpt lat="46.7828" lon="4.85623">
        <ele>185.6</ele>
        <time>2024-09-18T09:39:26Z</time>
      </trkpt>
      <trkpt lat="46.78279" lon="4.85626">
        <ele>185.6</ele>
        <time>2024-09-18T09:39:27Z</time>
      </trkpt>
      <trkpt lat="46.78278" lon="4.85627">
        <ele>185.6</ele>
        <time>2024-09-18T09:39:28Z</time>
      </trkpt>
      <trkpt lat="46.78276" lon="4.85629">
        <ele>185.6</ele>
        <time>2024-09-18T09:39:29Z</time>
      </trkpt>
      <trkpt lat="46.78275" lon="4.85631">
        <ele>185.6</ele>
        <time>2024-09-18T09:39:30Z</time>
      </trkpt>
      <trkpt lat="46.78273" lon="4.85633">
        <ele>185.6</ele>
        <time>2024-09-18T09:39:31Z</time>
      </trkpt>
      <trkpt lat="46.7827" lon="4.85637">
        <ele>185.8</ele>
        <time>2024-09-18T09:39:32Z</time>
      </trkpt>
      <trkpt lat="46.7827" lon="4.85638">
        <ele>185.8</ele>
        <time>2024-09-18T09:39:33Z</time>
      </trkpt>
      <trkpt lat="46.78268" lon="4.8564">
        <ele>185.8</ele>
        <time>2024-09-18T09:39:34Z</time>
      </trkpt>
      <trkpt lat="46.78266" lon="4.85642">
        <ele>185.8</ele>
        <time>2024-09-18T09:39:35Z</time>
      </trkpt>
      <trkpt lat="46.78264" lon="4.85644">
        <ele>185.8</ele>
        <time>2024-09-18T09:39:36Z</time>
      </trkpt>
      <trkpt lat="46.78262" lon="4.85645">
        <ele>185.8</ele>
        <time>2024-09-18T09:39:37Z</time>
      </trkpt>
      <trkpt lat="46.7826" lon="4.85647">
        <ele>185.8</ele>
        <time>2024-09-18T09:39:38Z</time>
      </trkpt>
      <trkpt lat="46.78258" lon="4.85649">
        <ele>185.8</ele>
        <time>2024-09-18T09:39:39Z</time>
      </trkpt>
      <trkpt lat="46.78256" lon="4.85651">
        <ele>185.8</ele>
        <time>2024-09-18T09:39:40Z</time>
      </trkpt>
      <trkpt lat="46.78254" lon="4.85653">
        <ele>186</ele>
        <time>2024-09-18T09:39:41Z</time>
      </trkpt>
      <trkpt lat="46.78253" lon="4.85655">
        <ele>186</ele>
        <time>2024-09-18T09:39:42Z</time>
      </trkpt>
      <trkpt lat="46.78251" lon="4.85657">
        <ele>186.2</ele>
        <time>2024-09-18T09:39:43Z</time>
      </trkpt>
      <trkpt lat="46.78249" lon="4.85659">
        <ele>186.2</ele>
        <time>2024-09-18T09:39:44Z</time>
      </trkpt>
      <trkpt lat="46.78247" lon="4.85662">
        <ele>186.2</ele>
        <time>2024-09-18T09:39:45Z</time>
      </trkpt>
      <trkpt lat="46.78245" lon="4.85664">
        <ele>186.2</ele>
        <time>2024-09-18T09:39:46Z</time>
      </trkpt>
      <trkpt lat="46.78244" lon="4.85666">
        <ele>186.2</ele>
        <time>2024-09-18T09:39:47Z</time>
      </trkpt>
      <trkpt lat="46.78242" lon="4.85668">
        <ele>186.2</ele>
        <time>2024-09-18T09:39:48Z</time>
      </trkpt>
      <trkpt lat="46.78239" lon="4.8567">
        <ele>186.2</ele>
        <time>2024-09-18T09:39:49Z</time>
      </trkpt>
      <trkpt lat="46.78237" lon="4.85672">
        <ele>186.4</ele>
        <time>2024-09-18T09:39:50Z</time>
      </trkpt>
      <trkpt lat="46.78236" lon="4.85673">
        <ele>186.4</ele>
        <time>2024-09-18T09:39:51Z</time>
      </trkpt>
      <trkpt lat="46.78234" lon="4.85675">
        <ele>186.2</ele>
        <time>2024-09-18T09:39:52Z</time>
      </trkpt>
      <trkpt lat="46.78233" lon="4.85677">
        <ele>186.2</ele>
        <time>2024-09-18T09:39:53Z</time>
      </trkpt>
      <trkpt lat="46.78231" lon="4.85679">
        <ele>186.4</ele>
        <time>2024-09-18T09:39:54Z</time>
      </trkpt>
      <trkpt lat="46.7823" lon="4.8568">
        <ele>186.4</ele>
        <time>2024-09-18T09:39:55Z</time>
      </trkpt>
      <trkpt lat="46.78228" lon="4.85682">
        <ele>186.4</ele>
        <time>2024-09-18T09:39:56Z</time>
      </trkpt>
      <trkpt lat="46.78227" lon="4.85684">
        <ele>186.4</ele>
        <time>2024-09-18T09:39:57Z</time>
      </trkpt>
      <trkpt lat="46.78225" lon="4.85685">
        <ele>186.4</ele>
        <time>2024-09-18T09:39:58Z</time>
      </trkpt>
      <trkpt lat="46.78223" lon="4.85688">
        <ele>186.4</ele>
        <time>2024-09-18T09:39:59Z</time>
      </trkpt>
      <trkpt lat="46.78222" lon="4.8569">
        <ele>186.4</ele>
        <time>2024-09-18T09:40:00Z</time>
      </trkpt>
      <trkpt lat="46.7822" lon="4.85692">
        <ele>186.4</ele>
        <time>2024-09-18T09:40:01Z</time>
      </trkpt>
      <trkpt lat="46.78218" lon="4.85695">
        <ele>186.4</ele>
        <time>2024-09-18T09:40:02Z</time>
      </trkpt>
      <trkpt lat="46.78217" lon="4.85698">
        <ele>186.4</ele>
        <time>2024-09-18T09:40:03Z</time>
      </trkpt>
      <trkpt lat="46.78215" lon="4.857">
        <ele>186.6</ele>
        <time>2024-09-18T09:40:04Z</time>
      </trkpt>
      <trkpt lat="46.78213" lon="4.85703">
        <ele>186.6</ele>
        <time>2024-09-18T09:40:05Z</time>
      </trkpt>
      <trkpt lat="46.78211" lon="4.85706">
        <ele>186.6</ele>
        <time>2024-09-18T09:40:06Z</time>
      </trkpt>
      <trkpt lat="46.78209" lon="4.85708">
        <ele>186.6</ele>
        <time>2024-09-18T09:40:07Z</time>
      </trkpt>
      <trkpt lat="46.78208" lon="4.85711">
        <ele>186.6</ele>
        <time>2024-09-18T09:40:08Z</time>
      </trkpt>
      <trkpt lat="46.78206" lon="4.85713">
        <ele>186.6</ele>
        <time>2024-09-18T09:40:09Z</time>
      </trkpt>
      <trkpt lat="46.78205" lon="4.85715">
        <ele>186.6</ele>
        <time>2024-09-18T09:40:10Z</time>
      </trkpt>
      <trkpt lat="46.78204" lon="4.85717">
        <ele>186.6</ele>
        <time>2024-09-18T09:40:11Z</time>
      </trkpt>
      <trkpt lat="46.78202" lon="4.85719">
        <ele>186.6</ele>
        <time>2024-09-18T09:40:12Z</time>
      </trkpt>
      <trkpt lat="46.78201" lon="4.8572">
        <ele>186.8</ele>
        <time>2024-09-18T09:40:13Z</time>
      </trkpt>
      <trkpt lat="46.78199" lon="4.85721">
        <ele>186.8</ele>
        <time>2024-09-18T09:40:14Z</time>
      </trkpt>
      <trkpt lat="46.78197" lon="4.85723">
        <ele>186.8</ele>
        <time>2024-09-18T09:40:15Z</time>
      </trkpt>
      <trkpt lat="46.78195" lon="4.85725">
        <ele>186.8</ele>
        <time>2024-09-18T09:40:16Z</time>
      </trkpt>
      <trkpt lat="46.78194" lon="4.85728">
        <ele>186.8</ele>
        <time>2024-09-18T09:40:17Z</time>
      </trkpt>
      <trkpt lat="46.78192" lon="4.8573">
        <ele>186.8</ele>
        <time>2024-09-18T09:40:18Z</time>
      </trkpt>
      <trkpt lat="46.78191" lon="4.85732">
        <ele>186.8</ele>
        <time>2024-09-18T09:40:19Z</time>
      </trkpt>
      <trkpt lat="46.7819" lon="4.85733">
        <ele>186.8</ele>
        <time>2024-09-18T09:40:20Z</time>
      </trkpt>
      <trkpt lat="46.78188" lon="4.85734">
        <ele>186.8</ele>
        <time>2024-09-18T09:40:21Z</time>
      </trkpt>
      <trkpt lat="46.78187" lon="4.85736">
        <ele>186.8</ele>
        <time>2024-09-18T09:40:22Z</time>
      </trkpt>
      <trkpt lat="46.78185" lon="4.85738">
        <ele>186.8</ele>
        <time>2024-09-18T09:40:23Z</time>
      </trkpt>
      <trkpt lat="46.78183" lon="4.85741">
        <ele>186.8</ele>
        <time>2024-09-18T09:40:24Z</time>
      </trkpt>
      <trkpt lat="46.78181" lon="4.85743">
        <ele>186.8</ele>
        <time>2024-09-18T09:40:25Z</time>
      </trkpt>
      <trkpt lat="46.78179" lon="4.85744">
        <ele>186.6</ele>
        <time>2024-09-18T09:40:26Z</time>
      </trkpt>
      <trkpt lat="46.78178" lon="4.85745">
        <ele>186.6</ele>
        <time>2024-09-18T09:40:27Z</time>
      </trkpt>
      <trkpt lat="46.78176" lon="4.85746">
        <ele>186.6</ele>
        <time>2024-09-18T09:40:28Z</time>
      </trkpt>
      <trkpt lat="46.78174" lon="4.85747">
        <ele>186.6</ele>
        <time>2024-09-18T09:40:29Z</time>
      </trkpt>
      <trkpt lat="46.78172" lon="4.85748">
        <ele>186.6</ele>
        <time>2024-09-18T09:40:30Z</time>
      </trkpt>
      <trkpt lat="46.7817" lon="4.8575">
        <ele>186.4</ele>
        <time>2024-09-18T09:40:31Z</time>
      </trkpt>
      <trkpt lat="46.78168" lon="4.8575">
        <ele>186.4</ele>
        <time>2024-09-18T09:40:32Z</time>
      </trkpt>
      <trkpt lat="46.78166" lon="4.85752">
        <ele>186.4</ele>
        <time>2024-09-18T09:40:33Z</time>
      </trkpt>
      <trkpt lat="46.78164" lon="4.85754">
        <ele>186.4</ele>
        <time>2024-09-18T09:40:34Z</time>
      </trkpt>
      <trkpt lat="46.78162" lon="4.85756">
        <ele>186.4</ele>
        <time>2024-09-18T09:40:35Z</time>
      </trkpt>
      <trkpt lat="46.78161" lon="4.85758">
        <ele>186.2</ele>
        <time>2024-09-18T09:40:36Z</time>
      </trkpt>
      <trkpt lat="46.78159" lon="4.85761">
        <ele>186.2</ele>
        <time>2024-09-18T09:40:37Z</time>
      </trkpt>
      <trkpt lat="46.78157" lon="4.85763">
        <ele>186.2</ele>
        <time>2024-09-18T09:40:38Z</time>
      </trkpt>
      <trkpt lat="46.78155" lon="4.85765">
        <ele>186.2</ele>
        <time>2024-09-18T09:40:39Z</time>
      </trkpt>
      <trkpt lat="46.78153" lon="4.85767">
        <ele>186</ele>
        <time>2024-09-18T09:40:40Z</time>
      </trkpt>
      <trkpt lat="46.78151" lon="4.85769">
        <ele>186</ele>
        <time>2024-09-18T09:40:41Z</time>
      </trkpt>
      <trkpt lat="46.78149" lon="4.85771">
        <ele>186</ele>
        <time>2024-09-18T09:40:42Z</time>
      </trkpt>
      <trkpt lat="46.78147" lon="4.85774">
        <ele>185.8</ele>
        <time>2024-09-18T09:40:43Z</time>
      </trkpt>
      <trkpt lat="46.78145" lon="4.85777">
        <ele>185.6</ele>
        <time>2024-09-18T09:40:44Z</time>
      </trkpt>
      <trkpt lat="46.78142" lon="4.8578">
        <ele>185.6</ele>
        <time>2024-09-18T09:40:45Z</time>
      </trkpt>
      <trkpt lat="46.7814" lon="4.85782">
        <ele>185.6</ele>
        <time>2024-09-18T09:40:46Z</time>
      </trkpt>
      <trkpt lat="46.78137" lon="4.85785">
        <ele>185.6</ele>
        <time>2024-09-18T09:40:47Z</time>
      </trkpt>
      <trkpt lat="46.78134" lon="4.85788">
        <ele>185.4</ele>
        <time>2024-09-18T09:40:48Z</time>
      </trkpt>
      <trkpt lat="46.78131" lon="4.8579">
        <ele>185.4</ele>
        <time>2024-09-18T09:40:49Z</time>
      </trkpt>
      <trkpt lat="46.78128" lon="4.85792">
        <ele>185.4</ele>
        <time>2024-09-18T09:40:50Z</time>
      </trkpt>
      <trkpt lat="46.78126" lon="4.85794">
        <ele>185.4</ele>
        <time>2024-09-18T09:40:51Z</time>
      </trkpt>
      <trkpt lat="46.78124" lon="4.85797">
        <ele>185.4</ele>
        <time>2024-09-18T09:40:52Z</time>
      </trkpt>
      <trkpt lat="46.78121" lon="4.85799">
        <ele>185.4</ele>
        <time>2024-09-18T09:40:53Z</time>
      </trkpt>
      <trkpt lat="46.7812" lon="4.85802">
        <ele>185.4</ele>
        <time>2024-09-18T09:40:54Z</time>
      </trkpt>
      <trkpt lat="46.78118" lon="4.85803">
        <ele>185.4</ele>
        <time>2024-09-18T09:40:55Z</time>
      </trkpt>
      <trkpt lat="46.78116" lon="4.85805">
        <ele>185.6</ele>
        <time>2024-09-18T09:40:56Z</time>
      </trkpt>
      <trkpt lat="46.78114" lon="4.85806">
        <ele>185.6</ele>
        <time>2024-09-18T09:40:57Z</time>
      </trkpt>
      <trkpt lat="46.78112" lon="4.85809">
        <ele>185.6</ele>
        <time>2024-09-18T09:40:58Z</time>
      </trkpt>
      <trkpt lat="46.7811" lon="4.8581">
        <ele>185.6</ele>
        <time>2024-09-18T09:40:59Z</time>
      </trkpt>
      <trkpt lat="46.78108" lon="4.85812">
        <ele>185.6</ele>
        <time>2024-09-18T09:41:00Z</time>
      </trkpt>
      <trkpt lat="46.78106" lon="4.85814">
        <ele>185.8</ele>
        <time>2024-09-18T09:41:01Z</time>
      </trkpt>
      <trkpt lat="46.78106" lon="4.85814">
        <ele>185.8</ele>
        <time>2024-09-18T09:41:02Z</time>
      </trkpt>
      <trkpt lat="46.78104" lon="4.85815">
        <ele>185.8</ele>
        <time>2024-09-18T09:41:03Z</time>
      </trkpt>
      <trkpt lat="46.78103" lon="4.85815">
        <ele>185.8</ele>
        <time>2024-09-18T09:41:04Z</time>
      </trkpt>
      <trkpt lat="46.78101" lon="4.85814">
        <ele>185.8</ele>
        <time>2024-09-18T09:41:05Z</time>
      </trkpt>
      <trkpt lat="46.78101" lon="4.85813">
        <ele>185.8</ele>
        <time>2024-09-18T09:41:06Z</time>
      </trkpt>
      <trkpt lat="46.781" lon="4.85812">
        <ele>186</ele>
        <time>2024-09-18T09:41:07Z</time>
      </trkpt>
      <trkpt lat="46.781" lon="4.85812">
        <ele>186</ele>
        <time>2024-09-18T09:41:08Z</time>
      </trkpt>
      <trkpt lat="46.78098" lon="4.85815">
        <ele>185.6</ele>
        <time>2024-09-18T09:41:28Z</time>
      </trkpt>
      <trkpt lat="46.78097" lon="4.85816">
        <ele>185.6</ele>
        <time>2024-09-18T09:41:29Z</time>
      </trkpt>
      <trkpt lat="46.78095" lon="4.85817">
        <ele>185.6</ele>
        <time>2024-09-18T09:41:30Z</time>
      </trkpt>
      <trkpt lat="46.78094" lon="4.85818">
        <ele>185.6</ele>
        <time>2024-09-18T09:41:31Z</time>
      </trkpt>
      <trkpt lat="46.78093" lon="4.85819">
        <ele>185.6</ele>
        <time>2024-09-18T09:41:32Z</time>
      </trkpt>
      <trkpt lat="46.78091" lon="4.85821">
        <ele>186.2</ele>
        <time>2024-09-18T09:41:33Z</time>
      </trkpt>
      <trkpt lat="46.7809" lon="4.85822">
        <ele>186.2</ele>
        <time>2024-09-18T09:41:34Z</time>
      </trkpt>
      <trkpt lat="46.78089" lon="4.85825">
        <ele>186.2</ele>
        <time>2024-09-18T09:41:35Z</time>
      </trkpt>
      <trkpt lat="46.78088" lon="4.85827">
        <ele>186.2</ele>
        <time>2024-09-18T09:41:36Z</time>
      </trkpt>
      <trkpt lat="46.78088" lon="4.85829">
        <ele>186.6</ele>
        <time>2024-09-18T09:41:37Z</time>
      </trkpt>
      <trkpt lat="46.78087" lon="4.85832">
        <ele>186.6</ele>
        <time>2024-09-18T09:41:38Z</time>
      </trkpt>
      <trkpt lat="46.78086" lon="4.85833">
        <ele>186.6</ele>
        <time>2024-09-18T09:41:39Z</time>
      </trkpt>
      <trkpt lat="46.78084" lon="4.85834">
        <ele>186.6</ele>
        <time>2024-09-18T09:41:40Z</time>
      </trkpt>
      <trkpt lat="46.78082" lon="4.85835">
        <ele>186.8</ele>
        <time>2024-09-18T09:41:41Z</time>
      </trkpt>
      <trkpt lat="46.78082" lon="4.85836">
        <ele>186.8</ele>
        <time>2024-09-18T09:41:42Z</time>
      </trkpt>
      <trkpt lat="46.78079" lon="4.85843">
        <ele>187</ele>
        <time>2024-09-18T09:46:58Z</time>
      </trkpt>
      <trkpt lat="46.78078" lon="4.85844">
        <ele>187</ele>
        <time>2024-09-18T09:46:59Z</time>
      </trkpt>
      <trkpt lat="46.78076" lon="4.85846">
        <ele>187.2</ele>
        <time>2024-09-18T09:47:00Z</time>
      </trkpt>
      <trkpt lat="46.78075" lon="4.85847">
        <ele>187.2</ele>
        <time>2024-09-18T09:47:01Z</time>
      </trkpt>
      <trkpt lat="46.78073" lon="4.85849">
        <ele>187.4</ele>
        <time>2024-09-18T09:47:02Z</time>
      </trkpt>
      <trkpt lat="46.78072" lon="4.8585">
        <ele>187.4</ele>
        <time>2024-09-18T09:47:03Z</time>
      </trkpt>
      <trkpt lat="46.7807" lon="4.85852">
        <ele>187.6</ele>
        <time>2024-09-18T09:47:04Z</time>
      </trkpt>
      <trkpt lat="46.78068" lon="4.85854">
        <ele>187.6</ele>
        <time>2024-09-18T09:47:05Z</time>
      </trkpt>
      <trkpt lat="46.78067" lon="4.85856">
        <ele>187.6</ele>
        <time>2024-09-18T09:47:06Z</time>
      </trkpt>
      <trkpt lat="46.78065" lon="4.85857">
        <ele>187.6</ele>
        <time>2024-09-18T09:47:07Z</time>
      </trkpt>
      <trkpt lat="46.78063" lon="4.85859">
        <ele>187.8</ele>
        <time>2024-09-18T09:47:08Z</time>
      </trkpt>
      <trkpt lat="46.78061" lon="4.85861">
        <ele>187.8</ele>
        <time>2024-09-18T09:47:09Z</time>
      </trkpt>
      <trkpt lat="46.7806" lon="4.85863">
        <ele>187.8</ele>
        <time>2024-09-18T09:47:10Z</time>
      </trkpt>
      <trkpt lat="46.78058" lon="4.85865">
        <ele>187.8</ele>
        <time>2024-09-18T09:47:11Z</time>
      </trkpt>
      <trkpt lat="46.78056" lon="4.85867">
        <ele>188.2</ele>
        <time>2024-09-18T09:47:12Z</time>
      </trkpt>
      <trkpt lat="46.78054" lon="4.85869">
        <ele>188.4</ele>
        <time>2024-09-18T09:47:13Z</time>
      </trkpt>
      <trkpt lat="46.78051" lon="4.85871">
        <ele>188.4</ele>
        <time>2024-09-18T09:47:14Z</time>
      </trkpt>
      <trkpt lat="46.78049" lon="4.85874">
        <ele>188.4</ele>
        <time>2024-09-18T09:47:15Z</time>
      </trkpt>
      <trkpt lat="46.78046" lon="4.85877">
        <ele>188.4</ele>
        <time>2024-09-18T09:47:16Z</time>
      </trkpt>
      <trkpt lat="46.78044" lon="4.8588">
        <ele>188.4</ele>
        <time>2024-09-18T09:47:17Z</time>
      </trkpt>
      <trkpt lat="46.78041" lon="4.85883">
        <ele>188.2</ele>
        <time>2024-09-18T09:47:18Z</time>
      </trkpt>
      <trkpt lat="46.78038" lon="4.85886">
        <ele>188.2</ele>
        <time>2024-09-18T09:47:19Z</time>
      </trkpt>
      <trkpt lat="46.78035" lon="4.85889">
        <ele>188.2</ele>
        <time>2024-09-18T09:47:20Z</time>
      </trkpt>
      <trkpt lat="46.78032" lon="4.85893">
        <ele>188.2</ele>
        <time>2024-09-18T09:47:21Z</time>
      </trkpt>
      <trkpt lat="46.78029" lon="4.85896">
        <ele>187.4</ele>
        <time>2024-09-18T09:47:22Z</time>
      </trkpt>
      <trkpt lat="46.78025" lon="4.859">
        <ele>187.4</ele>
        <time>2024-09-18T09:47:23Z</time>
      </trkpt>
      <trkpt lat="46.78021" lon="4.85904">
        <ele>187.4</ele>
        <time>2024-09-18T09:47:24Z</time>
      </trkpt>
      <trkpt lat="46.78018" lon="4.85907">
        <ele>187.4</ele>
        <time>2024-09-18T09:47:25Z</time>
      </trkpt>
      <trkpt lat="46.78015" lon="4.8591">
        <ele>186.8</ele>
        <time>2024-09-18T09:47:26Z</time>
      </trkpt>
      <trkpt lat="46.78013" lon="4.85913">
        <ele>186.8</ele>
        <time>2024-09-18T09:47:27Z</time>
      </trkpt>
      <trkpt lat="46.78011" lon="4.85914">
        <ele>186.8</ele>
        <time>2024-09-18T09:47:28Z</time>
      </trkpt>
      <trkpt lat="46.7801" lon="4.85915">
        <ele>186.8</ele>
        <time>2024-09-18T09:47:29Z</time>
      </trkpt>
      <trkpt lat="46.78009" lon="4.85915">
        <ele>186.6</ele>
        <time>2024-09-18T09:47:30Z</time>
      </trkpt>
      <trkpt lat="46.78008" lon="4.85915">
        <ele>186</ele>
        <time>2024-09-18T09:47:31Z</time>
      </trkpt>
      <trkpt lat="46.78007" lon="4.85915">
        <ele>186</ele>
        <time>2024-09-18T09:47:32Z</time>
      </trkpt>
      <trkpt lat="46.78006" lon="4.85913">
        <ele>186</ele>
        <time>2024-09-18T09:47:33Z</time>
      </trkpt>
      <trkpt lat="46.78004" lon="4.85911">
        <ele>185.4</ele>
        <time>2024-09-18T09:47:34Z</time>
      </trkpt>
      <trkpt lat="46.78002" lon="4.85907">
        <ele>185.4</ele>
        <time>2024-09-18T09:47:35Z</time>
      </trkpt>
      <trkpt lat="46.78" lon="4.85904">
        <ele>185.2</ele>
        <time>2024-09-18T09:47:36Z</time>
      </trkpt>
      <trkpt lat="46.77998" lon="4.859">
        <ele>185.2</ele>
        <time>2024-09-18T09:47:37Z</time>
      </trkpt>
      <trkpt lat="46.77997" lon="4.85895">
        <ele>185.2</ele>
        <time>2024-09-18T09:47:38Z</time>
      </trkpt>
      <trkpt lat="46.77996" lon="4.8589">
        <ele>185.2</ele>
        <time>2024-09-18T09:47:39Z</time>
      </trkpt>
      <trkpt lat="46.77994" lon="4.85886">
        <ele>184.4</ele>
        <time>2024-09-18T09:47:40Z</time>
      </trkpt>
      <trkpt lat="46.77991" lon="4.85881">
        <ele>184.4</ele>
        <time>2024-09-18T09:47:41Z</time>
      </trkpt>
      <trkpt lat="46.77989" lon="4.85876">
        <ele>184.4</ele>
        <time>2024-09-18T09:47:42Z</time>
      </trkpt>
      <trkpt lat="46.77987" lon="4.85871">
        <ele>184.4</ele>
        <time>2024-09-18T09:47:43Z</time>
      </trkpt>
      <trkpt lat="46.77985" lon="4.85866">
        <ele>183</ele>
        <time>2024-09-18T09:47:44Z</time>
      </trkpt>
      <trkpt lat="46.77982" lon="4.8586">
        <ele>183</ele>
        <time>2024-09-18T09:47:45Z</time>
      </trkpt>
      <trkpt lat="46.7798" lon="4.85854">
        <ele>183</ele>
        <time>2024-09-18T09:47:46Z</time>
      </trkpt>
      <trkpt lat="46.77977" lon="4.85848">
        <ele>182.6</ele>
        <time>2024-09-18T09:47:47Z</time>
      </trkpt>
      <trkpt lat="46.77974" lon="4.85842">
        <ele>182.2</ele>
        <time>2024-09-18T09:47:48Z</time>
      </trkpt>
      <trkpt lat="46.77971" lon="4.85832">
        <ele>182.2</ele>
        <time>2024-09-18T09:47:49Z</time>
      </trkpt>
      <trkpt lat="46.77969" lon="4.85829">
        <ele>182.2</ele>
        <time>2024-09-18T09:47:50Z</time>
      </trkpt>
      <trkpt lat="46.77967" lon="4.85822">
        <ele>182.2</ele>
        <time>2024-09-18T09:47:51Z</time>
      </trkpt>
      <trkpt lat="46.77965" lon="4.85816">
        <ele>182.2</ele>
        <time>2024-09-18T09:47:52Z</time>
      </trkpt>
      <trkpt lat="46.77962" lon="4.85809">
        <ele>182</ele>
        <time>2024-09-18T09:47:53Z</time>
      </trkpt>
      <trkpt lat="46.7796" lon="4.85802">
        <ele>182</ele>
        <time>2024-09-18T09:47:54Z</time>
      </trkpt>
      <trkpt lat="46.77957" lon="4.85795">
        <ele>182</ele>
        <time>2024-09-18T09:47:55Z</time>
      </trkpt>
      <trkpt lat="46.77955" lon="4.85788">
        <ele>182</ele>
        <time>2024-09-18T09:47:56Z</time>
      </trkpt>
      <trkpt lat="46.77953" lon="4.85782">
        <ele>182</ele>
        <time>2024-09-18T09:47:57Z</time>
      </trkpt>
      <trkpt lat="46.77951" lon="4.85775">
        <ele>181.8</ele>
        <time>2024-09-18T09:47:58Z</time>
      </trkpt>
      <trkpt lat="46.77949" lon="4.8577">
        <ele>181.8</ele>
        <time>2024-09-18T09:47:59Z</time>
      </trkpt>
      <trkpt lat="46.77946" lon="4.85764">
        <ele>181.8</ele>
        <time>2024-09-18T09:48:00Z</time>
      </trkpt>
      <trkpt lat="46.77945" lon="4.85758">
        <ele>181.8</ele>
        <time>2024-09-18T09:48:01Z</time>
      </trkpt>
      <trkpt lat="46.77943" lon="4.85752">
        <ele>181.8</ele>
        <time>2024-09-18T09:48:02Z</time>
      </trkpt>
      <trkpt lat="46.77941" lon="4.85747">
        <ele>182.2</ele>
        <time>2024-09-18T09:48:03Z</time>
      </trkpt>
      <trkpt lat="46.77938" lon="4.85742">
        <ele>182.2</ele>
        <time>2024-09-18T09:48:04Z</time>
      </trkpt>
      <trkpt lat="46.77935" lon="4.85739">
        <ele>182.2</ele>
        <time>2024-09-18T09:48:05Z</time>
      </trkpt>
      <trkpt lat="46.77932" lon="4.85737">
        <ele>181.8</ele>
        <time>2024-09-18T09:48:06Z</time>
      </trkpt>
      <trkpt lat="46.77929" lon="4.85738">
        <ele>181.8</ele>
        <time>2024-09-18T09:48:07Z</time>
      </trkpt>
      <trkpt lat="46.77927" lon="4.85739">
        <ele>181.8</ele>
        <time>2024-09-18T09:48:08Z</time>
      </trkpt>
      <trkpt lat="46.77924" lon="4.85741">
        <ele>181.8</ele>
        <time>2024-09-18T09:48:09Z</time>
      </trkpt>
      <trkpt lat="46.77921" lon="4.85741">
        <ele>182</ele>
        <time>2024-09-18T09:48:10Z</time>
      </trkpt>
      <trkpt lat="46.77918" lon="4.85742">
        <ele>182</ele>
        <time>2024-09-18T09:48:11Z</time>
      </trkpt>
      <trkpt lat="46.77916" lon="4.85741">
        <ele>182</ele>
        <time>2024-09-18T09:48:12Z</time>
      </trkpt>
      <trkpt lat="46.77913" lon="4.85741">
        <ele>182</ele>
        <time>2024-09-18T09:48:13Z</time>
      </trkpt>
      <trkpt lat="46.7791" lon="4.8574">
        <ele>182</ele>
        <time>2024-09-18T09:48:14Z</time>
      </trkpt>
      <trkpt lat="46.77908" lon="4.85739">
        <ele>181.6</ele>
        <time>2024-09-18T09:48:15Z</time>
      </trkpt>
      <trkpt lat="46.77905" lon="4.85738">
        <ele>181.6</ele>
        <time>2024-09-18T09:48:16Z</time>
      </trkpt>
      <trkpt lat="46.77902" lon="4.85737">
        <ele>181.8</ele>
        <time>2024-09-18T09:48:17Z</time>
      </trkpt>
      <trkpt lat="46.77898" lon="4.85736">
        <ele>181.8</ele>
        <time>2024-09-18T09:48:18Z</time>
      </trkpt>
      <trkpt lat="46.77896" lon="4.85736">
        <ele>181.6</ele>
        <time>2024-09-18T09:48:19Z</time>
      </trkpt>
      <trkpt lat="46.77891" lon="4.85737">
        <ele>181.6</ele>
        <time>2024-09-18T09:48:20Z</time>
      </trkpt>
      <trkpt lat="46.7789" lon="4.85738">
        <ele>181.6</ele>
        <time>2024-09-18T09:48:21Z</time>
      </trkpt>
      <trkpt lat="46.77886" lon="4.8574">
        <ele>181.6</ele>
        <time>2024-09-18T09:48:22Z</time>
      </trkpt>
      <trkpt lat="46.77883" lon="4.85742">
        <ele>181.6</ele>
        <time>2024-09-18T09:48:23Z</time>
      </trkpt>
      <trkpt lat="46.77879" lon="4.85744">
        <ele>181.6</ele>
        <time>2024-09-18T09:48:24Z</time>
      </trkpt>
      <trkpt lat="46.77876" lon="4.85747">
        <ele>181.6</ele>
        <time>2024-09-18T09:48:25Z</time>
      </trkpt>
      <trkpt lat="46.77873" lon="4.85751">
        <ele>181.6</ele>
        <time>2024-09-18T09:48:26Z</time>
      </trkpt>
      <trkpt lat="46.77871" lon="4.85756">
        <ele>181.6</ele>
        <time>2024-09-18T09:48:27Z</time>
      </trkpt>
      <trkpt lat="46.77868" lon="4.85761">
        <ele>181.6</ele>
        <time>2024-09-18T09:48:28Z</time>
      </trkpt>
      <trkpt lat="46.77866" lon="4.85767">
        <ele>181.6</ele>
        <time>2024-09-18T09:48:29Z</time>
      </trkpt>
      <trkpt lat="46.77863" lon="4.85772">
        <ele>181.6</ele>
        <time>2024-09-18T09:48:30Z</time>
      </trkpt>
      <trkpt lat="46.77862" lon="4.85778">
        <ele>181.6</ele>
        <time>2024-09-18T09:48:31Z</time>
      </trkpt>
      <trkpt lat="46.7786" lon="4.85783">
        <ele>181.6</ele>
        <time>2024-09-18T09:48:32Z</time>
      </trkpt>
      <trkpt lat="46.77857" lon="4.85789">
        <ele>181.6</ele>
        <time>2024-09-18T09:48:33Z</time>
      </trkpt>
      <trkpt lat="46.77855" lon="4.85794">
        <ele>181.2</ele>
        <time>2024-09-18T09:48:34Z</time>
      </trkpt>
      <trkpt lat="46.77853" lon="4.85799">
        <ele>181.2</ele>
        <time>2024-09-18T09:48:35Z</time>
      </trkpt>
      <trkpt lat="46.77851" lon="4.85804">
        <ele>181.2</ele>
        <time>2024-09-18T09:48:36Z</time>
      </trkpt>
      <trkpt lat="46.77849" lon="4.8581">
        <ele>181.2</ele>
        <time>2024-09-18T09:48:37Z</time>
      </trkpt>
      <trkpt lat="46.77847" lon="4.85815">
        <ele>181.2</ele>
        <time>2024-09-18T09:48:38Z</time>
      </trkpt>
      <trkpt lat="46.77845" lon="4.85821">
        <ele>181.6</ele>
        <time>2024-09-18T09:48:39Z</time>
      </trkpt>
      <trkpt lat="46.77842" lon="4.85827">
        <ele>181.6</ele>
        <time>2024-09-18T09:48:40Z</time>
      </trkpt>
      <trkpt lat="46.7784" lon="4.85832">
        <ele>181.6</ele>
        <time>2024-09-18T09:48:41Z</time>
      </trkpt>
      <trkpt lat="46.77839" lon="4.85838">
        <ele>181.6</ele>
        <time>2024-09-18T09:48:42Z</time>
      </trkpt>
      <trkpt lat="46.77837" lon="4.85844">
        <ele>181.8</ele>
        <time>2024-09-18T09:48:43Z</time>
      </trkpt>
      <trkpt lat="46.77835" lon="4.85849">
        <ele>181.8</ele>
        <time>2024-09-18T09:48:44Z</time>
      </trkpt>
      <trkpt lat="46.77833" lon="4.85855">
        <ele>181.8</ele>
        <time>2024-09-18T09:48:45Z</time>
      </trkpt>
      <trkpt lat="46.77832" lon="4.8586">
        <ele>181.8</ele>
        <time>2024-09-18T09:48:46Z</time>
      </trkpt>
      <trkpt lat="46.7783" lon="4.85866">
        <ele>181.8</ele>
        <time>2024-09-18T09:48:47Z</time>
      </trkpt>
      <trkpt lat="46.77828" lon="4.85871">
        <ele>181.8</ele>
        <time>2024-09-18T09:48:48Z</time>
      </trkpt>
      <trkpt lat="46.77826" lon="4.85876">
        <ele>181.8</ele>
        <time>2024-09-18T09:48:49Z</time>
      </trkpt>
      <trkpt lat="46.77824" lon="4.8588">
        <ele>181.8</ele>
        <time>2024-09-18T09:48:50Z</time>
      </trkpt>
      <trkpt lat="46.77822" lon="4.85884">
        <ele>181.8</ele>
        <time>2024-09-18T09:48:51Z</time>
      </trkpt>
      <trkpt lat="46.7782" lon="4.85888">
        <ele>181.8</ele>
        <time>2024-09-18T09:48:52Z</time>
      </trkpt>
      <trkpt lat="46.77817" lon="4.85893">
        <ele>181.8</ele>
        <time>2024-09-18T09:48:53Z</time>
      </trkpt>
      <trkpt lat="46.77815" lon="4.85898">
        <ele>181.8</ele>
        <time>2024-09-18T09:48:54Z</time>
      </trkpt>
      <trkpt lat="46.77812" lon="4.85903">
        <ele>181.8</ele>
        <time>2024-09-18T09:48:55Z</time>
      </trkpt>
      <trkpt lat="46.77811" lon="4.85908">
        <ele>181.8</ele>
        <time>2024-09-18T09:48:56Z</time>
      </trkpt>
      <trkpt lat="46.77809" lon="4.85912">
        <ele>181.8</ele>
        <time>2024-09-18T09:48:57Z</time>
      </trkpt>
      <trkpt lat="46.77807" lon="4.85916">
        <ele>181.8</ele>
        <time>2024-09-18T09:48:58Z</time>
      </trkpt>
      <trkpt lat="46.77804" lon="4.8592">
        <ele>181.8</ele>
        <time>2024-09-18T09:48:59Z</time>
      </trkpt>
      <trkpt lat="46.77802" lon="4.85926">
        <ele>181.8</ele>
        <time>2024-09-18T09:49:00Z</time>
      </trkpt>
      <trkpt lat="46.778" lon="4.85931">
        <ele>181.8</ele>
        <time>2024-09-18T09:49:01Z</time>
      </trkpt>
      <trkpt lat="46.77797" lon="4.85936">
        <ele>181.8</ele>
        <time>2024-09-18T09:49:02Z</time>
      </trkpt>
      <trkpt lat="46.77794" lon="4.85944">
        <ele>181.8</ele>
        <time>2024-09-18T09:49:03Z</time>
      </trkpt>
      <trkpt lat="46.77793" lon="4.85947">
        <ele>181.8</ele>
        <time>2024-09-18T09:49:04Z</time>
      </trkpt>
      <trkpt lat="46.77791" lon="4.85952">
        <ele>181.8</ele>
        <time>2024-09-18T09:49:05Z</time>
      </trkpt>
      <trkpt lat="46.77789" lon="4.85958">
        <ele>181.8</ele>
        <time>2024-09-18T09:49:06Z</time>
      </trkpt>
      <trkpt lat="46.77787" lon="4.85964">
        <ele>181.8</ele>
        <time>2024-09-18T09:49:07Z</time>
      </trkpt>
      <trkpt lat="46.77786" lon="4.8597">
        <ele>181.8</ele>
        <time>2024-09-18T09:49:08Z</time>
      </trkpt>
      <trkpt lat="46.77785" lon="4.85976">
        <ele>181.6</ele>
        <time>2024-09-18T09:49:09Z</time>
      </trkpt>
      <trkpt lat="46.77783" lon="4.85981">
        <ele>181.6</ele>
        <time>2024-09-18T09:49:10Z</time>
      </trkpt>
      <trkpt lat="46.77782" lon="4.85987">
        <ele>181.6</ele>
        <time>2024-09-18T09:49:11Z</time>
      </trkpt>
      <trkpt lat="46.77781" lon="4.85993">
        <ele>181.8</ele>
        <time>2024-09-18T09:49:12Z</time>
      </trkpt>
      <trkpt lat="46.7778" lon="4.85999">
        <ele>181.8</ele>
        <time>2024-09-18T09:49:13Z</time>
      </trkpt>
      <trkpt lat="46.7778" lon="4.86005">
        <ele>181.8</ele>
        <time>2024-09-18T09:49:14Z</time>
      </trkpt>
      <trkpt lat="46.77779" lon="4.8601">
        <ele>181.8</ele>
        <time>2024-09-18T09:49:15Z</time>
      </trkpt>
      <trkpt lat="46.77778" lon="4.86015">
        <ele>181.8</ele>
        <time>2024-09-18T09:49:16Z</time>
      </trkpt>
      <trkpt lat="46.77777" lon="4.8602">
        <ele>181.8</ele>
        <time>2024-09-18T09:49:17Z</time>
      </trkpt>
      <trkpt lat="46.77777" lon="4.86025">
        <ele>181.8</ele>
        <time>2024-09-18T09:49:18Z</time>
      </trkpt>
      <trkpt lat="46.77777" lon="4.86032">
        <ele>182</ele>
        <time>2024-09-18T09:49:19Z</time>
      </trkpt>
      <trkpt lat="46.77777" lon="4.86035">
        <ele>182</ele>
        <time>2024-09-18T09:49:20Z</time>
      </trkpt>
      <trkpt lat="46.77777" lon="4.8604">
        <ele>182</ele>
        <time>2024-09-18T09:49:21Z</time>
      </trkpt>
      <trkpt lat="46.77777" lon="4.86046">
        <ele>182</ele>
        <time>2024-09-18T09:49:22Z</time>
      </trkpt>
      <trkpt lat="46.77776" lon="4.8605">
        <ele>182.2</ele>
        <time>2024-09-18T09:49:23Z</time>
      </trkpt>
      <trkpt lat="46.77776" lon="4.86054">
        <ele>182.2</ele>
        <time>2024-09-18T09:49:24Z</time>
      </trkpt>
      <trkpt lat="46.77776" lon="4.86062">
        <ele>182.2</ele>
        <time>2024-09-18T09:49:25Z</time>
      </trkpt>
      <trkpt lat="46.77776" lon="4.86065">
        <ele>182.2</ele>
        <time>2024-09-18T09:49:26Z</time>
      </trkpt>
      <trkpt lat="46.77777" lon="4.86071">
        <ele>182.2</ele>
        <time>2024-09-18T09:49:27Z</time>
      </trkpt>
      <trkpt lat="46.77778" lon="4.86076">
        <ele>182.2</ele>
        <time>2024-09-18T09:49:28Z</time>
      </trkpt>
      <trkpt lat="46.77778" lon="4.86081">
        <ele>182.2</ele>
        <time>2024-09-18T09:49:29Z</time>
      </trkpt>
      <trkpt lat="46.77779" lon="4.86087">
        <ele>182.2</ele>
        <time>2024-09-18T09:49:30Z</time>
      </trkpt>
      <trkpt lat="46.77781" lon="4.86093">
        <ele>182.2</ele>
        <time>2024-09-18T09:49:31Z</time>
      </trkpt>
      <trkpt lat="46.77783" lon="4.86101">
        <ele>182.6</ele>
        <time>2024-09-18T09:49:32Z</time>
      </trkpt>
      <trkpt lat="46.77784" lon="4.86103">
        <ele>182.6</ele>
        <time>2024-09-18T09:49:33Z</time>
      </trkpt>
      <trkpt lat="46.77785" lon="4.86109">
        <ele>182.6</ele>
        <time>2024-09-18T09:49:34Z</time>
      </trkpt>
      <trkpt lat="46.77787" lon="4.86114">
        <ele>182.6</ele>
        <time>2024-09-18T09:49:35Z</time>
      </trkpt>
      <trkpt lat="46.77788" lon="4.8612">
        <ele>182.8</ele>
        <time>2024-09-18T09:49:36Z</time>
      </trkpt>
      <trkpt lat="46.7779" lon="4.86125">
        <ele>182.8</ele>
        <time>2024-09-18T09:49:37Z</time>
      </trkpt>
      <trkpt lat="46.77791" lon="4.8613">
        <ele>182.8</ele>
        <time>2024-09-18T09:49:38Z</time>
      </trkpt>
      <trkpt lat="46.77792" lon="4.86135">
        <ele>182.8</ele>
        <time>2024-09-18T09:49:39Z</time>
      </trkpt>
      <trkpt lat="46.77793" lon="4.8614">
        <ele>182.8</ele>
        <time>2024-09-18T09:49:40Z</time>
      </trkpt>
      <trkpt lat="46.77795" lon="4.86147">
        <ele>182.8</ele>
        <time>2024-09-18T09:49:41Z</time>
      </trkpt>
      <trkpt lat="46.77796" lon="4.8615">
        <ele>182.8</ele>
        <time>2024-09-18T09:49:42Z</time>
      </trkpt>
      <trkpt lat="46.77798" lon="4.86154">
        <ele>182.8</ele>
        <time>2024-09-18T09:49:43Z</time>
      </trkpt>
      <trkpt lat="46.778" lon="4.86159">
        <ele>182.8</ele>
        <time>2024-09-18T09:49:44Z</time>
      </trkpt>
      <trkpt lat="46.77802" lon="4.86163">
        <ele>182.6</ele>
        <time>2024-09-18T09:49:45Z</time>
      </trkpt>
      <trkpt lat="46.77805" lon="4.86167">
        <ele>182.6</ele>
        <time>2024-09-18T09:49:46Z</time>
      </trkpt>
      <trkpt lat="46.77808" lon="4.8617">
        <ele>182.6</ele>
        <time>2024-09-18T09:49:47Z</time>
      </trkpt>
      <trkpt lat="46.77811" lon="4.86174">
        <ele>182.6</ele>
        <time>2024-09-18T09:49:48Z</time>
      </trkpt>
      <trkpt lat="46.77815" lon="4.86177">
        <ele>182.4</ele>
        <time>2024-09-18T09:49:49Z</time>
      </trkpt>
      <trkpt lat="46.77819" lon="4.8618">
        <ele>182.4</ele>
        <time>2024-09-18T09:49:50Z</time>
      </trkpt>
      <trkpt lat="46.77822" lon="4.86183">
        <ele>182.4</ele>
        <time>2024-09-18T09:49:51Z</time>
      </trkpt>
      <trkpt lat="46.77826" lon="4.86186">
        <ele>182.4</ele>
        <time>2024-09-18T09:49:52Z</time>
      </trkpt>
      <trkpt lat="46.7783" lon="4.86189">
        <ele>182.2</ele>
        <time>2024-09-18T09:49:53Z</time>
      </trkpt>
      <trkpt lat="46.77834" lon="4.86192">
        <ele>182.4</ele>
        <time>2024-09-18T09:49:54Z</time>
      </trkpt>
      <trkpt lat="46.77838" lon="4.86195">
        <ele>182.4</ele>
        <time>2024-09-18T09:49:55Z</time>
      </trkpt>
      <trkpt lat="46.77842" lon="4.86197">
        <ele>182.4</ele>
        <time>2024-09-18T09:49:56Z</time>
      </trkpt>
      <trkpt lat="46.77846" lon="4.862">
        <ele>182.4</ele>
        <time>2024-09-18T09:49:57Z</time>
      </trkpt>
      <trkpt lat="46.7785" lon="4.86202">
        <ele>182.4</ele>
        <time>2024-09-18T09:49:58Z</time>
      </trkpt>
      <trkpt lat="46.77854" lon="4.86205">
        <ele>182.6</ele>
        <time>2024-09-18T09:49:59Z</time>
      </trkpt>
      <trkpt lat="46.77858" lon="4.86208">
        <ele>182.6</ele>
        <time>2024-09-18T09:50:00Z</time>
      </trkpt>
      <trkpt lat="46.77862" lon="4.8621">
        <ele>182.6</ele>
        <time>2024-09-18T09:50:01Z</time>
      </trkpt>
      <trkpt lat="46.77867" lon="4.86212">
        <ele>182.6</ele>
        <time>2024-09-18T09:50:02Z</time>
      </trkpt>
      <trkpt lat="46.77871" lon="4.86215">
        <ele>182.8</ele>
        <time>2024-09-18T09:50:03Z</time>
      </trkpt>
      <trkpt lat="46.77875" lon="4.86216">
        <ele>182.8</ele>
        <time>2024-09-18T09:50:04Z</time>
      </trkpt>
      <trkpt lat="46.7788" lon="4.86218">
        <ele>182.8</ele>
        <time>2024-09-18T09:50:05Z</time>
      </trkpt>
      <trkpt lat="46.77884" lon="4.86219">
        <ele>182.8</ele>
        <time>2024-09-18T09:50:06Z</time>
      </trkpt>
      <trkpt lat="46.77889" lon="4.86219">
        <ele>182.8</ele>
        <time>2024-09-18T09:50:07Z</time>
      </trkpt>
      <trkpt lat="46.77893" lon="4.8622">
        <ele>182.8</ele>
        <time>2024-09-18T09:50:08Z</time>
      </trkpt>
      <trkpt lat="46.77897" lon="4.86221">
        <ele>182.8</ele>
        <time>2024-09-18T09:50:09Z</time>
      </trkpt>
      <trkpt lat="46.77901" lon="4.86224">
        <ele>182.8</ele>
        <time>2024-09-18T09:50:10Z</time>
      </trkpt>
      <trkpt lat="46.77905" lon="4.86227">
        <ele>182.8</ele>
        <time>2024-09-18T09:50:11Z</time>
      </trkpt>
      <trkpt lat="46.77908" lon="4.86229">
        <ele>182.8</ele>
        <time>2024-09-18T09:50:12Z</time>
      </trkpt>
      <trkpt lat="46.77912" lon="4.86232">
        <ele>182.8</ele>
        <time>2024-09-18T09:50:13Z</time>
      </trkpt>
      <trkpt lat="46.77916" lon="4.86234">
        <ele>182.8</ele>
        <time>2024-09-18T09:50:14Z</time>
      </trkpt>
      <trkpt lat="46.7792" lon="4.86236">
        <ele>182.8</ele>
        <time>2024-09-18T09:50:15Z</time>
      </trkpt>
      <trkpt lat="46.77923" lon="4.86239">
        <ele>183.2</ele>
        <time>2024-09-18T09:50:16Z</time>
      </trkpt>
      <trkpt lat="46.77925" lon="4.86244">
        <ele>183.2</ele>
        <time>2024-09-18T09:50:17Z</time>
      </trkpt>
      <trkpt lat="46.77926" lon="4.8625">
        <ele>183.2</ele>
        <time>2024-09-18T09:50:18Z</time>
      </trkpt>
      <trkpt lat="46.77927" lon="4.86254">
        <ele>183.2</ele>
        <time>2024-09-18T09:50:19Z</time>
      </trkpt>
      <trkpt lat="46.77928" lon="4.86259">
        <ele>183.6</ele>
        <time>2024-09-18T09:50:20Z</time>
      </trkpt>
      <trkpt lat="46.77927" lon="4.86264">
        <ele>183.6</ele>
        <time>2024-09-18T09:50:21Z</time>
      </trkpt>
      <trkpt lat="46.77926" lon="4.86268">
        <ele>183.6</ele>
        <time>2024-09-18T09:50:22Z</time>
      </trkpt>
      <trkpt lat="46.77925" lon="4.86272">
        <ele>183.6</ele>
        <time>2024-09-18T09:50:23Z</time>
      </trkpt>
      <trkpt lat="46.77924" lon="4.86277">
        <ele>183.8</ele>
        <time>2024-09-18T09:50:24Z</time>
      </trkpt>
      <trkpt lat="46.77923" lon="4.86281">
        <ele>183.8</ele>
        <time>2024-09-18T09:50:25Z</time>
      </trkpt>
      <trkpt lat="46.77922" lon="4.86286">
        <ele>183.8</ele>
        <time>2024-09-18T09:50:26Z</time>
      </trkpt>
      <trkpt lat="46.77921" lon="4.8629">
        <ele>183.8</ele>
        <time>2024-09-18T09:50:27Z</time>
      </trkpt>
      <trkpt lat="46.77921" lon="4.86295">
        <ele>183.8</ele>
        <time>2024-09-18T09:50:28Z</time>
      </trkpt>
      <trkpt lat="46.77919" lon="4.86299">
        <ele>184</ele>
        <time>2024-09-18T09:50:29Z</time>
      </trkpt>
      <trkpt lat="46.77918" lon="4.86303">
        <ele>184</ele>
        <time>2024-09-18T09:50:30Z</time>
      </trkpt>
      <trkpt lat="46.77917" lon="4.86308">
        <ele>184</ele>
        <time>2024-09-18T09:50:31Z</time>
      </trkpt>
      <trkpt lat="46.77916" lon="4.86312">
        <ele>184.2</ele>
        <time>2024-09-18T09:50:32Z</time>
      </trkpt>
      <trkpt lat="46.77915" lon="4.86317">
        <ele>184</ele>
        <time>2024-09-18T09:50:33Z</time>
      </trkpt>
      <trkpt lat="46.77914" lon="4.86323">
        <ele>184</ele>
        <time>2024-09-18T09:50:34Z</time>
      </trkpt>
      <trkpt lat="46.77912" lon="4.86329">
        <ele>184</ele>
        <time>2024-09-18T09:50:35Z</time>
      </trkpt>
      <trkpt lat="46.77911" lon="4.86336">
        <ele>184</ele>
        <time>2024-09-18T09:50:36Z</time>
      </trkpt>
      <trkpt lat="46.7791" lon="4.86342">
        <ele>183.6</ele>
        <time>2024-09-18T09:50:37Z</time>
      </trkpt>
      <trkpt lat="46.77909" lon="4.86349">
        <ele>183.6</ele>
        <time>2024-09-18T09:50:38Z</time>
      </trkpt>
      <trkpt lat="46.77908" lon="4.86356">
        <ele>183.4</ele>
        <time>2024-09-18T09:50:39Z</time>
      </trkpt>
      <trkpt lat="46.77907" lon="4.86362">
        <ele>183.4</ele>
        <time>2024-09-18T09:50:40Z</time>
      </trkpt>
      <trkpt lat="46.77906" lon="4.86369">
        <ele>183.4</ele>
        <time>2024-09-18T09:50:41Z</time>
      </trkpt>
      <trkpt lat="46.77906" lon="4.86376">
        <ele>183.4</ele>
        <time>2024-09-18T09:50:42Z</time>
      </trkpt>
      <trkpt lat="46.77905" lon="4.86382">
        <ele>182.8</ele>
        <time>2024-09-18T09:50:43Z</time>
      </trkpt>
      <trkpt lat="46.77904" lon="4.86389">
        <ele>182.8</ele>
        <time>2024-09-18T09:50:44Z</time>
      </trkpt>
      <trkpt lat="46.77903" lon="4.86395">
        <ele>182.8</ele>
        <time>2024-09-18T09:50:45Z</time>
      </trkpt>
      <trkpt lat="46.77902" lon="4.86402">
        <ele>182.8</ele>
        <time>2024-09-18T09:50:46Z</time>
      </trkpt>
      <trkpt lat="46.77901" lon="4.86409">
        <ele>182.8</ele>
        <time>2024-09-18T09:50:47Z</time>
      </trkpt>
      <trkpt lat="46.77899" lon="4.86419">
        <ele>182.4</ele>
        <time>2024-09-18T09:50:48Z</time>
      </trkpt>
      <trkpt lat="46.77898" lon="4.86423">
        <ele>182.4</ele>
        <time>2024-09-18T09:50:49Z</time>
      </trkpt>
      <trkpt lat="46.77897" lon="4.8643">
        <ele>182.4</ele>
        <time>2024-09-18T09:50:50Z</time>
      </trkpt>
      <trkpt lat="46.77897" lon="4.86437">
        <ele>182.4</ele>
        <time>2024-09-18T09:50:51Z</time>
      </trkpt>
      <trkpt lat="46.77896" lon="4.86445">
        <ele>182.4</ele>
        <time>2024-09-18T09:50:52Z</time>
      </trkpt>
      <trkpt lat="46.77895" lon="4.86452">
        <ele>182.4</ele>
        <time>2024-09-18T09:50:53Z</time>
      </trkpt>
      <trkpt lat="46.77894" lon="4.86459">
        <ele>182.4</ele>
        <time>2024-09-18T09:50:54Z</time>
      </trkpt>
      <trkpt lat="46.77894" lon="4.86465">
        <ele>182.4</ele>
        <time>2024-09-18T09:50:55Z</time>
      </trkpt>
      <trkpt lat="46.77893" lon="4.86472">
        <ele>182.4</ele>
        <time>2024-09-18T09:50:56Z</time>
      </trkpt>
      <trkpt lat="46.77892" lon="4.86477">
        <ele>182.4</ele>
        <time>2024-09-18T09:50:57Z</time>
      </trkpt>
      <trkpt lat="46.77891" lon="4.86484">
        <ele>182.4</ele>
        <time>2024-09-18T09:50:58Z</time>
      </trkpt>
      <trkpt lat="46.7789" lon="4.8649">
        <ele>182.4</ele>
        <time>2024-09-18T09:50:59Z</time>
      </trkpt>
      <trkpt lat="46.7789" lon="4.86496">
        <ele>182.6</ele>
        <time>2024-09-18T09:51:00Z</time>
      </trkpt>
      <trkpt lat="46.77889" lon="4.86502">
        <ele>182.4</ele>
        <time>2024-09-18T09:51:01Z</time>
      </trkpt>
      <trkpt lat="46.77889" lon="4.86509">
        <ele>182.4</ele>
        <time>2024-09-18T09:51:02Z</time>
      </trkpt>
      <trkpt lat="46.77888" lon="4.86515">
        <ele>182.4</ele>
        <time>2024-09-18T09:51:03Z</time>
      </trkpt>
      <trkpt lat="46.77887" lon="4.86522">
        <ele>182.4</ele>
        <time>2024-09-18T09:51:04Z</time>
      </trkpt>
      <trkpt lat="46.77887" lon="4.86528">
        <ele>182.4</ele>
        <time>2024-09-18T09:51:05Z</time>
      </trkpt>
      <trkpt lat="46.77886" lon="4.86534">
        <ele>182.6</ele>
        <time>2024-09-18T09:51:06Z</time>
      </trkpt>
      <trkpt lat="46.77885" lon="4.86541">
        <ele>182.6</ele>
        <time>2024-09-18T09:51:07Z</time>
      </trkpt>
      <trkpt lat="46.77884" lon="4.86547">
        <ele>182.4</ele>
        <time>2024-09-18T09:51:08Z</time>
      </trkpt>
      <trkpt lat="46.77884" lon="4.86553">
        <ele>182.4</ele>
        <time>2024-09-18T09:51:09Z</time>
      </trkpt>
      <trkpt lat="46.77883" lon="4.86559">
        <ele>182.4</ele>
        <time>2024-09-18T09:51:10Z</time>
      </trkpt>
      <trkpt lat="46.77882" lon="4.86565">
        <ele>182.4</ele>
        <time>2024-09-18T09:51:11Z</time>
      </trkpt>
      <trkpt lat="46.77881" lon="4.86572">
        <ele>182.4</ele>
        <time>2024-09-18T09:51:12Z</time>
      </trkpt>
      <trkpt lat="46.7788" lon="4.86578">
        <ele>182.6</ele>
        <time>2024-09-18T09:51:13Z</time>
      </trkpt>
      <trkpt lat="46.7788" lon="4.86584">
        <ele>182.6</ele>
        <time>2024-09-18T09:51:14Z</time>
      </trkpt>
      <trkpt lat="46.77879" lon="4.86591">
        <ele>182.6</ele>
        <time>2024-09-18T09:51:15Z</time>
      </trkpt>
      <trkpt lat="46.77878" lon="4.86597">
        <ele>182.6</ele>
        <time>2024-09-18T09:51:16Z</time>
      </trkpt>
      <trkpt lat="46.77877" lon="4.86604">
        <ele>182.4</ele>
        <time>2024-09-18T09:51:17Z</time>
      </trkpt>
      <trkpt lat="46.77876" lon="4.8661">
        <ele>182.6</ele>
        <time>2024-09-18T09:51:18Z</time>
      </trkpt>
      <trkpt lat="46.77875" lon="4.86617">
        <ele>182.6</ele>
        <time>2024-09-18T09:51:19Z</time>
      </trkpt>
      <trkpt lat="46.77874" lon="4.86623">
        <ele>182.6</ele>
        <time>2024-09-18T09:51:20Z</time>
      </trkpt>
      <trkpt lat="46.77874" lon="4.8663">
        <ele>182.6</ele>
        <time>2024-09-18T09:51:21Z</time>
      </trkpt>
      <trkpt lat="46.77873" lon="4.86636">
        <ele>182.6</ele>
        <time>2024-09-18T09:51:22Z</time>
      </trkpt>
      <trkpt lat="46.77872" lon="4.86643">
        <ele>182.6</ele>
        <time>2024-09-18T09:51:23Z</time>
      </trkpt>
      <trkpt lat="46.77871" lon="4.86649">
        <ele>182.2</ele>
        <time>2024-09-18T09:51:24Z</time>
      </trkpt>
      <trkpt lat="46.7787" lon="4.86655">
        <ele>182.2</ele>
        <time>2024-09-18T09:51:25Z</time>
      </trkpt>
      <trkpt lat="46.7787" lon="4.8666">
        <ele>182.2</ele>
        <time>2024-09-18T09:51:26Z</time>
      </trkpt>
      <trkpt lat="46.77869" lon="4.86666">
        <ele>182.2</ele>
        <time>2024-09-18T09:51:27Z</time>
      </trkpt>
      <trkpt lat="46.77869" lon="4.8667">
        <ele>182.2</ele>
        <time>2024-09-18T09:51:28Z</time>
      </trkpt>
      <trkpt lat="46.77868" lon="4.86673">
        <ele>182.4</ele>
        <time>2024-09-18T09:51:29Z</time>
      </trkpt>
      <trkpt lat="46.77868" lon="4.86674">
        <ele>182.4</ele>
        <time>2024-09-18T09:51:30Z</time>
      </trkpt>
      <trkpt lat="46.77868" lon="4.86675">
        <ele>182.4</ele>
        <time>2024-09-18T09:51:31Z</time>
      </trkpt>
      <trkpt lat="46.77868" lon="4.86676">
        <ele>182.4</ele>
        <time>2024-09-18T09:51:32Z</time>
      </trkpt>
      <trkpt lat="46.77868" lon="4.86678">
        <ele>182.4</ele>
        <time>2024-09-18T09:51:33Z</time>
      </trkpt>
      <trkpt lat="46.77867" lon="4.8668">
        <ele>182.4</ele>
        <time>2024-09-18T09:51:34Z</time>
      </trkpt>
      <trkpt lat="46.77867" lon="4.86684">
        <ele>182.4</ele>
        <time>2024-09-18T09:51:35Z</time>
      </trkpt>
      <trkpt lat="46.77867" lon="4.86687">
        <ele>182.6</ele>
        <time>2024-09-18T09:51:36Z</time>
      </trkpt>
      <trkpt lat="46.77866" lon="4.8669">
        <ele>182.6</ele>
        <time>2024-09-18T09:51:37Z</time>
      </trkpt>
      <trkpt lat="46.77866" lon="4.86695">
        <ele>182.4</ele>
        <time>2024-09-18T09:51:38Z</time>
      </trkpt>
      <trkpt lat="46.77865" lon="4.86699">
        <ele>182.4</ele>
        <time>2024-09-18T09:51:39Z</time>
      </trkpt>
      <trkpt lat="46.77864" lon="4.86704">
        <ele>182.4</ele>
        <time>2024-09-18T09:51:40Z</time>
      </trkpt>
      <trkpt lat="46.77863" lon="4.86709">
        <ele>182.8</ele>
        <time>2024-09-18T09:51:41Z</time>
      </trkpt>
      <trkpt lat="46.77862" lon="4.86717">
        <ele>182.8</ele>
        <time>2024-09-18T09:51:42Z</time>
      </trkpt>
      <trkpt lat="46.77862" lon="4.8672">
        <ele>182.8</ele>
        <time>2024-09-18T09:51:43Z</time>
      </trkpt>
      <trkpt lat="46.77862" lon="4.86726">
        <ele>182.8</ele>
        <time>2024-09-18T09:51:44Z</time>
      </trkpt>
      <trkpt lat="46.77861" lon="4.86731">
        <ele>182.4</ele>
        <time>2024-09-18T09:51:45Z</time>
      </trkpt>
      <trkpt lat="46.77861" lon="4.86738">
        <ele>182.2</ele>
        <time>2024-09-18T09:51:46Z</time>
      </trkpt>
      <trkpt lat="46.7786" lon="4.86744">
        <ele>182.2</ele>
        <time>2024-09-18T09:51:47Z</time>
      </trkpt>
      <trkpt lat="46.77859" lon="4.86751">
        <ele>182.2</ele>
        <time>2024-09-18T09:51:48Z</time>
      </trkpt>
      <trkpt lat="46.77858" lon="4.86757">
        <ele>182.2</ele>
        <time>2024-09-18T09:51:49Z</time>
      </trkpt>
      <trkpt lat="46.77857" lon="4.86764">
        <ele>181.8</ele>
        <time>2024-09-18T09:51:50Z</time>
      </trkpt>
      <trkpt lat="46.77856" lon="4.86771">
        <ele>181.8</ele>
        <time>2024-09-18T09:51:51Z</time>
      </trkpt>
      <trkpt lat="46.77855" lon="4.86778">
        <ele>181.8</ele>
        <time>2024-09-18T09:51:52Z</time>
      </trkpt>
      <trkpt lat="46.77854" lon="4.86785">
        <ele>181.8</ele>
        <time>2024-09-18T09:51:53Z</time>
      </trkpt>
      <trkpt lat="46.77853" lon="4.86792">
        <ele>181.8</ele>
        <time>2024-09-18T09:51:54Z</time>
      </trkpt>
      <trkpt lat="46.77853" lon="4.86798">
        <ele>181.8</ele>
        <time>2024-09-18T09:51:55Z</time>
      </trkpt>
      <trkpt lat="46.77852" lon="4.86805">
        <ele>181.8</ele>
        <time>2024-09-18T09:51:56Z</time>
      </trkpt>
      <trkpt lat="46.7785" lon="4.86811">
        <ele>181.8</ele>
        <time>2024-09-18T09:51:57Z</time>
      </trkpt>
      <trkpt lat="46.77849" lon="4.86818">
        <ele>181.8</ele>
        <time>2024-09-18T09:51:58Z</time>
      </trkpt>
      <trkpt lat="46.77849" lon="4.86824">
        <ele>181.6</ele>
        <time>2024-09-18T09:51:59Z</time>
      </trkpt>
      <trkpt lat="46.77848" lon="4.86831">
        <ele>181.6</ele>
        <time>2024-09-18T09:52:00Z</time>
      </trkpt>
      <trkpt lat="46.77847" lon="4.86837">
        <ele>181.6</ele>
        <time>2024-09-18T09:52:01Z</time>
      </trkpt>
      <trkpt lat="46.77846" lon="4.86844">
        <ele>181.6</ele>
        <time>2024-09-18T09:52:02Z</time>
      </trkpt>
      <trkpt lat="46.77846" lon="4.8685">
        <ele>182</ele>
        <time>2024-09-18T09:52:03Z</time>
      </trkpt>
      <trkpt lat="46.77845" lon="4.86857">
        <ele>182</ele>
        <time>2024-09-18T09:52:04Z</time>
      </trkpt>
      <trkpt lat="46.77844" lon="4.86863">
        <ele>182</ele>
        <time>2024-09-18T09:52:05Z</time>
      </trkpt>
      <trkpt lat="46.77844" lon="4.86869">
        <ele>182</ele>
        <time>2024-09-18T09:52:06Z</time>
      </trkpt>
      <trkpt lat="46.77843" lon="4.86876">
        <ele>182</ele>
        <time>2024-09-18T09:52:07Z</time>
      </trkpt>
      <trkpt lat="46.77842" lon="4.86882">
        <ele>181.2</ele>
        <time>2024-09-18T09:52:08Z</time>
      </trkpt>
      <trkpt lat="46.77842" lon="4.86889">
        <ele>181.2</ele>
        <time>2024-09-18T09:52:09Z</time>
      </trkpt>
      <trkpt lat="46.77841" lon="4.86895">
        <ele>181.2</ele>
        <time>2024-09-18T09:52:10Z</time>
      </trkpt>
      <trkpt lat="46.7784" lon="4.86902">
        <ele>181.2</ele>
        <time>2024-09-18T09:52:11Z</time>
      </trkpt>
      <trkpt lat="46.7784" lon="4.86909">
        <ele>181.4</ele>
        <time>2024-09-18T09:52:12Z</time>
      </trkpt>
      <trkpt lat="46.77839" lon="4.86915">
        <ele>181.4</ele>
        <time>2024-09-18T09:52:13Z</time>
      </trkpt>
      <trkpt lat="46.77838" lon="4.86925">
        <ele>181</ele>
        <time>2024-09-18T09:52:14Z</time>
      </trkpt>
      <trkpt lat="46.77838" lon="4.86928">
        <ele>181</ele>
        <time>2024-09-18T09:52:15Z</time>
      </trkpt>
      <trkpt lat="46.77836" lon="4.86937">
        <ele>181.2</ele>
        <time>2024-09-18T09:52:16Z</time>
      </trkpt>
      <trkpt lat="46.77836" lon="4.8694">
        <ele>181.2</ele>
        <time>2024-09-18T09:52:17Z</time>
      </trkpt>
      <trkpt lat="46.77835" lon="4.86947">
        <ele>181.2</ele>
        <time>2024-09-18T09:52:18Z</time>
      </trkpt>
      <trkpt lat="46.77834" lon="4.86953">
        <ele>181.2</ele>
        <time>2024-09-18T09:52:19Z</time>
      </trkpt>
      <trkpt lat="46.77833" lon="4.86959">
        <ele>181.2</ele>
        <time>2024-09-18T09:52:20Z</time>
      </trkpt>
      <trkpt lat="46.77832" lon="4.86965">
        <ele>181.2</ele>
        <time>2024-09-18T09:52:21Z</time>
      </trkpt>
      <trkpt lat="46.77831" lon="4.86971">
        <ele>181.2</ele>
        <time>2024-09-18T09:52:22Z</time>
      </trkpt>
      <trkpt lat="46.7783" lon="4.86977">
        <ele>181.2</ele>
        <time>2024-09-18T09:52:23Z</time>
      </trkpt>
      <trkpt lat="46.7783" lon="4.86982">
        <ele>181.2</ele>
        <time>2024-09-18T09:52:24Z</time>
      </trkpt>
      <trkpt lat="46.7783" lon="4.86988">
        <ele>181.2</ele>
        <time>2024-09-18T09:52:25Z</time>
      </trkpt>
      <trkpt lat="46.77829" lon="4.86994">
        <ele>181.2</ele>
        <time>2024-09-18T09:52:26Z</time>
      </trkpt>
      <trkpt lat="46.77829" lon="4.86999">
        <ele>181.2</ele>
        <time>2024-09-18T09:52:27Z</time>
      </trkpt>
      <trkpt lat="46.77828" lon="4.87005">
        <ele>181.2</ele>
        <time>2024-09-18T09:52:28Z</time>
      </trkpt>
      <trkpt lat="46.77828" lon="4.8701">
        <ele>181.2</ele>
        <time>2024-09-18T09:52:29Z</time>
      </trkpt>
      <trkpt lat="46.77827" lon="4.87016">
        <ele>181.6</ele>
        <time>2024-09-18T09:52:30Z</time>
      </trkpt>
      <trkpt lat="46.77826" lon="4.87022">
        <ele>181.6</ele>
        <time>2024-09-18T09:52:31Z</time>
      </trkpt>
      <trkpt lat="46.77825" lon="4.87028">
        <ele>181.6</ele>
        <time>2024-09-18T09:52:32Z</time>
      </trkpt>
      <trkpt lat="46.77824" lon="4.87034">
        <ele>181.6</ele>
        <time>2024-09-18T09:52:33Z</time>
      </trkpt>
      <trkpt lat="46.77823" lon="4.8704">
        <ele>181.6</ele>
        <time>2024-09-18T09:52:34Z</time>
      </trkpt>
      <trkpt lat="46.77823" lon="4.87046">
        <ele>181.2</ele>
        <time>2024-09-18T09:52:35Z</time>
      </trkpt>
      <trkpt lat="46.77822" lon="4.87052">
        <ele>181.2</ele>
        <time>2024-09-18T09:52:36Z</time>
      </trkpt>
      <trkpt lat="46.77822" lon="4.87058">
        <ele>181.2</ele>
        <time>2024-09-18T09:52:37Z</time>
      </trkpt>
      <trkpt lat="46.7782" lon="4.87067">
        <ele>181.2</ele>
        <time>2024-09-18T09:52:38Z</time>
      </trkpt>
      <trkpt lat="46.7782" lon="4.8707">
        <ele>181.2</ele>
        <time>2024-09-18T09:52:39Z</time>
      </trkpt>
      <trkpt lat="46.77819" lon="4.87076">
        <ele>181.2</ele>
        <time>2024-09-18T09:52:40Z</time>
      </trkpt>
      <trkpt lat="46.77818" lon="4.87082">
        <ele>181.2</ele>
        <time>2024-09-18T09:52:41Z</time>
      </trkpt>
      <trkpt lat="46.77817" lon="4.87088">
        <ele>181.2</ele>
        <time>2024-09-18T09:52:42Z</time>
      </trkpt>
      <trkpt lat="46.77816" lon="4.87094">
        <ele>181.2</ele>
        <time>2024-09-18T09:52:43Z</time>
      </trkpt>
      <trkpt lat="46.77816" lon="4.871">
        <ele>181</ele>
        <time>2024-09-18T09:52:44Z</time>
      </trkpt>
      <trkpt lat="46.77815" lon="4.87106">
        <ele>181</ele>
        <time>2024-09-18T09:52:45Z</time>
      </trkpt>
      <trkpt lat="46.77813" lon="4.87112">
        <ele>181</ele>
        <time>2024-09-18T09:52:46Z</time>
      </trkpt>
      <trkpt lat="46.77812" lon="4.87118">
        <ele>181</ele>
        <time>2024-09-18T09:52:47Z</time>
      </trkpt>
      <trkpt lat="46.77812" lon="4.87124">
        <ele>181.2</ele>
        <time>2024-09-18T09:52:48Z</time>
      </trkpt>
      <trkpt lat="46.77811" lon="4.8713">
        <ele>181.2</ele>
        <time>2024-09-18T09:52:49Z</time>
      </trkpt>
      <trkpt lat="46.7781" lon="4.87136">
        <ele>181.2</ele>
        <time>2024-09-18T09:52:50Z</time>
      </trkpt>
      <trkpt lat="46.77809" lon="4.87142">
        <ele>181.2</ele>
        <time>2024-09-18T09:52:51Z</time>
      </trkpt>
      <trkpt lat="46.77809" lon="4.87147">
        <ele>180.8</ele>
        <time>2024-09-18T09:52:52Z</time>
      </trkpt>
      <trkpt lat="46.77808" lon="4.87152">
        <ele>181.2</ele>
        <time>2024-09-18T09:52:53Z</time>
      </trkpt>
      <trkpt lat="46.77807" lon="4.87157">
        <ele>181.2</ele>
        <time>2024-09-18T09:52:54Z</time>
      </trkpt>
      <trkpt lat="46.77806" lon="4.87162">
        <ele>181.2</ele>
        <time>2024-09-18T09:52:55Z</time>
      </trkpt>
      <trkpt lat="46.77805" lon="4.87166">
        <ele>181.2</ele>
        <time>2024-09-18T09:52:56Z</time>
      </trkpt>
      <trkpt lat="46.77803" lon="4.8717">
        <ele>181</ele>
        <time>2024-09-18T09:52:57Z</time>
      </trkpt>
      <trkpt lat="46.77801" lon="4.87173">
        <ele>181</ele>
        <time>2024-09-18T09:52:58Z</time>
      </trkpt>
      <trkpt lat="46.77798" lon="4.87175">
        <ele>181</ele>
        <time>2024-09-18T09:52:59Z</time>
      </trkpt>
      <trkpt lat="46.77794" lon="4.87177">
        <ele>181</ele>
        <time>2024-09-18T09:53:00Z</time>
      </trkpt>
      <trkpt lat="46.7779" lon="4.87178">
        <ele>181</ele>
        <time>2024-09-18T09:53:01Z</time>
      </trkpt>
      <trkpt lat="46.77786" lon="4.87177">
        <ele>181</ele>
        <time>2024-09-18T09:53:02Z</time>
      </trkpt>
      <trkpt lat="46.77783" lon="4.87175">
        <ele>181</ele>
        <time>2024-09-18T09:53:03Z</time>
      </trkpt>
      <trkpt lat="46.77779" lon="4.87172">
        <ele>181</ele>
        <time>2024-09-18T09:53:04Z</time>
      </trkpt>
      <trkpt lat="46.77775" lon="4.87168">
        <ele>181</ele>
        <time>2024-09-18T09:53:05Z</time>
      </trkpt>
      <trkpt lat="46.77772" lon="4.87165">
        <ele>181</ele>
        <time>2024-09-18T09:53:06Z</time>
      </trkpt>
      <trkpt lat="46.77769" lon="4.87161">
        <ele>181</ele>
        <time>2024-09-18T09:53:07Z</time>
      </trkpt>
      <trkpt lat="46.77767" lon="4.87157">
        <ele>181</ele>
        <time>2024-09-18T09:53:08Z</time>
      </trkpt>
      <trkpt lat="46.77766" lon="4.87154">
        <ele>181</ele>
        <time>2024-09-18T09:53:09Z</time>
      </trkpt>
      <trkpt lat="46.77765" lon="4.87152">
        <ele>181</ele>
        <time>2024-09-18T09:53:10Z</time>
      </trkpt>
      <trkpt lat="46.77764" lon="4.8715">
        <ele>181</ele>
        <time>2024-09-18T09:53:11Z</time>
      </trkpt>
      <trkpt lat="46.77764" lon="4.87149">
        <ele>181</ele>
        <time>2024-09-18T09:53:12Z</time>
      </trkpt>
      <trkpt lat="46.77766" lon="4.87154">
        <ele>180.8</ele>
        <time>2024-09-18T09:53:47Z</time>
      </trkpt>
      <trkpt lat="46.77766" lon="4.87156">
        <ele>180.8</ele>
        <time>2024-09-18T09:53:48Z</time>
      </trkpt>
      <trkpt lat="46.77768" lon="4.87159">
        <ele>180.8</ele>
        <time>2024-09-18T09:53:49Z</time>
      </trkpt>
      <trkpt lat="46.7777" lon="4.87161">
        <ele>180.8</ele>
        <time>2024-09-18T09:53:50Z</time>
      </trkpt>
      <trkpt lat="46.77773" lon="4.87164">
        <ele>180.8</ele>
        <time>2024-09-18T09:53:51Z</time>
      </trkpt>
      <trkpt lat="46.77776" lon="4.87167">
        <ele>180.8</ele>
        <time>2024-09-18T09:53:52Z</time>
      </trkpt>
      <trkpt lat="46.77779" lon="4.87169">
        <ele>180.8</ele>
        <time>2024-09-18T09:53:53Z</time>
      </trkpt>
      <trkpt lat="46.77783" lon="4.87171">
        <ele>181</ele>
        <time>2024-09-18T09:53:54Z</time>
      </trkpt>
      <trkpt lat="46.77786" lon="4.87173">
        <ele>181</ele>
        <time>2024-09-18T09:53:55Z</time>
      </trkpt>
      <trkpt lat="46.7779" lon="4.87176">
        <ele>181</ele>
        <time>2024-09-18T09:53:56Z</time>
      </trkpt>
      <trkpt lat="46.77794" lon="4.87179">
        <ele>181</ele>
        <time>2024-09-18T09:53:57Z</time>
      </trkpt>
      <trkpt lat="46.77796" lon="4.87183">
        <ele>181</ele>
        <time>2024-09-18T09:53:58Z</time>
      </trkpt>
      <trkpt lat="46.77798" lon="4.87188">
        <ele>181.2</ele>
        <time>2024-09-18T09:53:59Z</time>
      </trkpt>
      <trkpt lat="46.77798" lon="4.87193">
        <ele>181.2</ele>
        <time>2024-09-18T09:54:00Z</time>
      </trkpt>
      <trkpt lat="46.77796" lon="4.87197">
        <ele>181.2</ele>
        <time>2024-09-18T09:54:01Z</time>
      </trkpt>
      <trkpt lat="46.77795" lon="4.87202">
        <ele>181.6</ele>
        <time>2024-09-18T09:54:02Z</time>
      </trkpt>
      <trkpt lat="46.77793" lon="4.87206">
        <ele>181.8</ele>
        <time>2024-09-18T09:54:03Z</time>
      </trkpt>
      <trkpt lat="46.77791" lon="4.87211">
        <ele>181.8</ele>
        <time>2024-09-18T09:54:04Z</time>
      </trkpt>
      <trkpt lat="46.77788" lon="4.87215">
        <ele>181.8</ele>
        <time>2024-09-18T09:54:05Z</time>
      </trkpt>
      <trkpt lat="46.77785" lon="4.8722">
        <ele>181.8</ele>
        <time>2024-09-18T09:54:06Z</time>
      </trkpt>
      <trkpt lat="46.77783" lon="4.87224">
        <ele>181.8</ele>
        <time>2024-09-18T09:54:07Z</time>
      </trkpt>
      <trkpt lat="46.7778" lon="4.87227">
        <ele>182</ele>
        <time>2024-09-18T09:54:08Z</time>
      </trkpt>
      <trkpt lat="46.77779" lon="4.87229">
        <ele>182</ele>
        <time>2024-09-18T09:54:09Z</time>
      </trkpt>
      <trkpt lat="46.77777" lon="4.87231">
        <ele>182</ele>
        <time>2024-09-18T09:54:10Z</time>
      </trkpt>
      <trkpt lat="46.77776" lon="4.87233">
        <ele>182</ele>
        <time>2024-09-18T09:54:11Z</time>
      </trkpt>
      <trkpt lat="46.77774" lon="4.87235">
        <ele>182</ele>
        <time>2024-09-18T09:54:12Z</time>
      </trkpt>
      <trkpt lat="46.77772" lon="4.87237">
        <ele>182</ele>
        <time>2024-09-18T09:54:13Z</time>
      </trkpt>
      <trkpt lat="46.7777" lon="4.87241">
        <ele>182</ele>
        <time>2024-09-18T09:54:14Z</time>
      </trkpt>
      <trkpt lat="46.77769" lon="4.87245">
        <ele>182</ele>
        <time>2024-09-18T09:54:15Z</time>
      </trkpt>
      <trkpt lat="46.77769" lon="4.87251">
        <ele>182</ele>
        <time>2024-09-18T09:54:16Z</time>
      </trkpt>
      <trkpt lat="46.77769" lon="4.8726">
        <ele>182.2</ele>
        <time>2024-09-18T09:54:17Z</time>
      </trkpt>
      <trkpt lat="46.77769" lon="4.87263">
        <ele>182.2</ele>
        <time>2024-09-18T09:54:18Z</time>
      </trkpt>
      <trkpt lat="46.7777" lon="4.8727">
        <ele>182.2</ele>
        <time>2024-09-18T09:54:19Z</time>
      </trkpt>
      <trkpt lat="46.7777" lon="4.87276">
        <ele>182.2</ele>
        <time>2024-09-18T09:54:20Z</time>
      </trkpt>
      <trkpt lat="46.77771" lon="4.87283">
        <ele>182</ele>
        <time>2024-09-18T09:54:21Z</time>
      </trkpt>
      <trkpt lat="46.77771" lon="4.87291">
        <ele>182</ele>
        <time>2024-09-18T09:54:22Z</time>
      </trkpt>
      <trkpt lat="46.77772" lon="4.87298">
        <ele>182</ele>
        <time>2024-09-18T09:54:23Z</time>
      </trkpt>
      <trkpt lat="46.77772" lon="4.87305">
        <ele>182</ele>
        <time>2024-09-18T09:54:24Z</time>
      </trkpt>
      <trkpt lat="46.77771" lon="4.87312">
        <ele>182</ele>
        <time>2024-09-18T09:54:25Z</time>
      </trkpt>
      <trkpt lat="46.77772" lon="4.87319">
        <ele>182</ele>
        <time>2024-09-18T09:54:26Z</time>
      </trkpt>
      <trkpt lat="46.77772" lon="4.87326">
        <ele>182</ele>
        <time>2024-09-18T09:54:27Z</time>
      </trkpt>
      <trkpt lat="46.77772" lon="4.87333">
        <ele>182</ele>
        <time>2024-09-18T09:54:28Z</time>
      </trkpt>
      <trkpt lat="46.77772" lon="4.87341">
        <ele>182</ele>
        <time>2024-09-18T09:54:29Z</time>
      </trkpt>
      <trkpt lat="46.77772" lon="4.87351">
        <ele>182.4</ele>
        <time>2024-09-18T09:54:30Z</time>
      </trkpt>
      <trkpt lat="46.77772" lon="4.87354">
        <ele>182.4</ele>
        <time>2024-09-18T09:54:31Z</time>
      </trkpt>
      <trkpt lat="46.77772" lon="4.87361">
        <ele>182.4</ele>
        <time>2024-09-18T09:54:32Z</time>
      </trkpt>
      <trkpt lat="46.77772" lon="4.87368">
        <ele>182.4</ele>
        <time>2024-09-18T09:54:33Z</time>
      </trkpt>
      <trkpt lat="46.77772" lon="4.87375">
        <ele>182.2</ele>
        <time>2024-09-18T09:54:34Z</time>
      </trkpt>
      <trkpt lat="46.77771" lon="4.87381">
        <ele>182.2</ele>
        <time>2024-09-18T09:54:35Z</time>
      </trkpt>
      <trkpt lat="46.77771" lon="4.87388">
        <ele>182.2</ele>
        <time>2024-09-18T09:54:36Z</time>
      </trkpt>
      <trkpt lat="46.77771" lon="4.87396">
        <ele>182.2</ele>
        <time>2024-09-18T09:54:37Z</time>
      </trkpt>
      <trkpt lat="46.7777" lon="4.87403">
        <ele>182.4</ele>
        <time>2024-09-18T09:54:38Z</time>
      </trkpt>
      <trkpt lat="46.7777" lon="4.87411">
        <ele>182.4</ele>
        <time>2024-09-18T09:54:39Z</time>
      </trkpt>
      <trkpt lat="46.77769" lon="4.87418">
        <ele>182.4</ele>
        <time>2024-09-18T09:54:40Z</time>
      </trkpt>
      <trkpt lat="46.77769" lon="4.87425">
        <ele>182.4</ele>
        <time>2024-09-18T09:54:41Z</time>
      </trkpt>
      <trkpt lat="46.77769" lon="4.87433">
        <ele>182.4</ele>
        <time>2024-09-18T09:54:42Z</time>
      </trkpt>
      <trkpt lat="46.77768" lon="4.8744">
        <ele>182.4</ele>
        <time>2024-09-18T09:54:43Z</time>
      </trkpt>
      <trkpt lat="46.77767" lon="4.87447">
        <ele>181.8</ele>
        <time>2024-09-18T09:54:44Z</time>
      </trkpt>
      <trkpt lat="46.77766" lon="4.87454">
        <ele>181.8</ele>
        <time>2024-09-18T09:54:45Z</time>
      </trkpt>
      <trkpt lat="46.77765" lon="4.87461">
        <ele>181.8</ele>
        <time>2024-09-18T09:54:46Z</time>
      </trkpt>
      <trkpt lat="46.77764" lon="4.87468">
        <ele>181.8</ele>
        <time>2024-09-18T09:54:47Z</time>
      </trkpt>
      <trkpt lat="46.77764" lon="4.87475">
        <ele>182.2</ele>
        <time>2024-09-18T09:54:48Z</time>
      </trkpt>
      <trkpt lat="46.77763" lon="4.87482">
        <ele>182.2</ele>
        <time>2024-09-18T09:54:49Z</time>
      </trkpt>
      <trkpt lat="46.77762" lon="4.87489">
        <ele>182.2</ele>
        <time>2024-09-18T09:54:50Z</time>
      </trkpt>
      <trkpt lat="46.77761" lon="4.87497">
        <ele>181.8</ele>
        <time>2024-09-18T09:54:51Z</time>
      </trkpt>
      <trkpt lat="46.7776" lon="4.87504">
        <ele>181.8</ele>
        <time>2024-09-18T09:54:52Z</time>
      </trkpt>
      <trkpt lat="46.7776" lon="4.87511">
        <ele>182.2</ele>
        <time>2024-09-18T09:54:53Z</time>
      </trkpt>
      <trkpt lat="46.77759" lon="4.87518">
        <ele>182.2</ele>
        <time>2024-09-18T09:54:54Z</time>
      </trkpt>
      <trkpt lat="46.77758" lon="4.87525">
        <ele>182.2</ele>
        <time>2024-09-18T09:54:55Z</time>
      </trkpt>
      <trkpt lat="46.77757" lon="4.87531">
        <ele>182</ele>
        <time>2024-09-18T09:54:56Z</time>
      </trkpt>
      <trkpt lat="46.77757" lon="4.87538">
        <ele>182</ele>
        <time>2024-09-18T09:54:57Z</time>
      </trkpt>
      <trkpt lat="46.77756" lon="4.87545">
        <ele>182</ele>
        <time>2024-09-18T09:54:58Z</time>
      </trkpt>
      <trkpt lat="46.77755" lon="4.87552">
        <ele>182</ele>
        <time>2024-09-18T09:54:59Z</time>
      </trkpt>
      <trkpt lat="46.77755" lon="4.87558">
        <ele>182</ele>
        <time>2024-09-18T09:55:00Z</time>
      </trkpt>
      <trkpt lat="46.77754" lon="4.87565">
        <ele>182</ele>
        <time>2024-09-18T09:55:01Z</time>
      </trkpt>
      <trkpt lat="46.77753" lon="4.87572">
        <ele>182.2</ele>
        <time>2024-09-18T09:55:02Z</time>
      </trkpt>
      <trkpt lat="46.77752" lon="4.87578">
        <ele>182.2</ele>
        <time>2024-09-18T09:55:03Z</time>
      </trkpt>
      <trkpt lat="46.77751" lon="4.87585">
        <ele>182</ele>
        <time>2024-09-18T09:55:04Z</time>
      </trkpt>
      <trkpt lat="46.7775" lon="4.87591">
        <ele>182</ele>
        <time>2024-09-18T09:55:05Z</time>
      </trkpt>
      <trkpt lat="46.7775" lon="4.87598">
        <ele>182</ele>
        <time>2024-09-18T09:55:06Z</time>
      </trkpt>
      <trkpt lat="46.77749" lon="4.87604">
        <ele>182</ele>
        <time>2024-09-18T09:55:07Z</time>
      </trkpt>
      <trkpt lat="46.77749" lon="4.8761">
        <ele>182</ele>
        <time>2024-09-18T09:55:08Z</time>
      </trkpt>
      <trkpt lat="46.77748" lon="4.87617">
        <ele>182</ele>
        <time>2024-09-18T09:55:09Z</time>
      </trkpt>
      <trkpt lat="46.77747" lon="4.87623">
        <ele>182</ele>
        <time>2024-09-18T09:55:10Z</time>
      </trkpt>
      <trkpt lat="46.77746" lon="4.87629">
        <ele>182</ele>
        <time>2024-09-18T09:55:11Z</time>
      </trkpt>
      <trkpt lat="46.77745" lon="4.87635">
        <ele>182</ele>
        <time>2024-09-18T09:55:12Z</time>
      </trkpt>
      <trkpt lat="46.77744" lon="4.87641">
        <ele>182</ele>
        <time>2024-09-18T09:55:13Z</time>
      </trkpt>
      <trkpt lat="46.77743" lon="4.87648">
        <ele>182</ele>
        <time>2024-09-18T09:55:14Z</time>
      </trkpt>
      <trkpt lat="46.77743" lon="4.87654">
        <ele>182.2</ele>
        <time>2024-09-18T09:55:15Z</time>
      </trkpt>
      <trkpt lat="46.77742" lon="4.8766">
        <ele>182.2</ele>
        <time>2024-09-18T09:55:16Z</time>
      </trkpt>
      <trkpt lat="46.77741" lon="4.87666">
        <ele>182.2</ele>
        <time>2024-09-18T09:55:17Z</time>
      </trkpt>
      <trkpt lat="46.77739" lon="4.87672">
        <ele>182.4</ele>
        <time>2024-09-18T09:55:18Z</time>
      </trkpt>
      <trkpt lat="46.77738" lon="4.87677">
        <ele>182.4</ele>
        <time>2024-09-18T09:55:19Z</time>
      </trkpt>
      <trkpt lat="46.77737" lon="4.87681">
        <ele>182.4</ele>
        <time>2024-09-18T09:55:20Z</time>
      </trkpt>
      <trkpt lat="46.77736" lon="4.87683">
        <ele>182.4</ele>
        <time>2024-09-18T09:55:21Z</time>
      </trkpt>
      <trkpt lat="46.77736" lon="4.87685">
        <ele>182.4</ele>
        <time>2024-09-18T09:55:22Z</time>
      </trkpt>
      <trkpt lat="46.77736" lon="4.87687">
        <ele>182.4</ele>
        <time>2024-09-18T09:55:23Z</time>
      </trkpt>
      <trkpt lat="46.77735" lon="4.87688">
        <ele>182.4</ele>
        <time>2024-09-18T09:55:24Z</time>
      </trkpt>
      <trkpt lat="46.77735" lon="4.87689">
        <ele>182.4</ele>
        <time>2024-09-18T09:55:25Z</time>
      </trkpt>
      <trkpt lat="46.77735" lon="4.87689">
        <ele>182.4</ele>
        <time>2024-09-18T09:55:26Z</time>
      </trkpt>
      <trkpt lat="46.77734" lon="4.87694">
        <ele>182</ele>
        <time>2024-09-18T09:56:04Z</time>
      </trkpt>
      <trkpt lat="46.77734" lon="4.87695">
        <ele>182</ele>
        <time>2024-09-18T09:56:05Z</time>
      </trkpt>
      <trkpt lat="46.77734" lon="4.87696">
        <ele>182.4</ele>
        <time>2024-09-18T09:56:06Z</time>
      </trkpt>
      <trkpt lat="46.77733" lon="4.87697">
        <ele>182.4</ele>
        <time>2024-09-18T09:56:07Z</time>
      </trkpt>
      <trkpt lat="46.77732" lon="4.87697">
        <ele>182.4</ele>
        <time>2024-09-18T09:56:08Z</time>
      </trkpt>
      <trkpt lat="46.77731" lon="4.87699">
        <ele>182.4</ele>
        <time>2024-09-18T09:56:09Z</time>
      </trkpt>
      <trkpt lat="46.77729" lon="4.87701">
        <ele>182.4</ele>
        <time>2024-09-18T09:56:10Z</time>
      </trkpt>
      <trkpt lat="46.77727" lon="4.87703">
        <ele>182.4</ele>
        <time>2024-09-18T09:56:11Z</time>
      </trkpt>
      <trkpt lat="46.77724" lon="4.87706">
        <ele>182.6</ele>
        <time>2024-09-18T09:56:12Z</time>
      </trkpt>
      <trkpt lat="46.77722" lon="4.87709">
        <ele>182.6</ele>
        <time>2024-09-18T09:56:13Z</time>
      </trkpt>
      <trkpt lat="46.77719" lon="4.87713">
        <ele>182.6</ele>
        <time>2024-09-18T09:56:14Z</time>
      </trkpt>
      <trkpt lat="46.77717" lon="4.87717">
        <ele>182.6</ele>
        <time>2024-09-18T09:56:15Z</time>
      </trkpt>
      <trkpt lat="46.77714" lon="4.87721">
        <ele>182.6</ele>
        <time>2024-09-18T09:56:16Z</time>
      </trkpt>
      <trkpt lat="46.77713" lon="4.87726">
        <ele>182.6</ele>
        <time>2024-09-18T09:56:17Z</time>
      </trkpt>
      <trkpt lat="46.77712" lon="4.87731">
        <ele>182.6</ele>
        <time>2024-09-18T09:56:18Z</time>
      </trkpt>
      <trkpt lat="46.77711" lon="4.87736">
        <ele>182.6</ele>
        <time>2024-09-18T09:56:19Z</time>
      </trkpt>
      <trkpt lat="46.77711" lon="4.87741">
        <ele>182.4</ele>
        <time>2024-09-18T09:56:20Z</time>
      </trkpt>
      <trkpt lat="46.77711" lon="4.87746">
        <ele>182.4</ele>
        <time>2024-09-18T09:56:21Z</time>
      </trkpt>
      <trkpt lat="46.77711" lon="4.87751">
        <ele>182.4</ele>
        <time>2024-09-18T09:56:22Z</time>
      </trkpt>
      <trkpt lat="46.77712" lon="4.87757">
        <ele>182.4</ele>
        <time>2024-09-18T09:56:23Z</time>
      </trkpt>
      <trkpt lat="46.77713" lon="4.87763">
        <ele>182.4</ele>
        <time>2024-09-18T09:56:24Z</time>
      </trkpt>
      <trkpt lat="46.77715" lon="4.87768">
        <ele>182.4</ele>
        <time>2024-09-18T09:56:25Z</time>
      </trkpt>
      <trkpt lat="46.77717" lon="4.87774">
        <ele>182.4</ele>
        <time>2024-09-18T09:56:26Z</time>
      </trkpt>
      <trkpt lat="46.7772" lon="4.87783">
        <ele>182.4</ele>
        <time>2024-09-18T09:56:27Z</time>
      </trkpt>
      <trkpt lat="46.77721" lon="4.87786">
        <ele>182.2</ele>
        <time>2024-09-18T09:56:28Z</time>
      </trkpt>
      <trkpt lat="46.77722" lon="4.87791">
        <ele>182.2</ele>
        <time>2024-09-18T09:56:29Z</time>
      </trkpt>
      <trkpt lat="46.77722" lon="4.87798">
        <ele>182.2</ele>
        <time>2024-09-18T09:56:30Z</time>
      </trkpt>
      <trkpt lat="46.77722" lon="4.87804">
        <ele>182.2</ele>
        <time>2024-09-18T09:56:31Z</time>
      </trkpt>
      <trkpt lat="46.77723" lon="4.87811">
        <ele>182.2</ele>
        <time>2024-09-18T09:56:32Z</time>
      </trkpt>
      <trkpt lat="46.77724" lon="4.87817">
        <ele>182.2</ele>
        <time>2024-09-18T09:56:33Z</time>
      </trkpt>
      <trkpt lat="46.77724" lon="4.87824">
        <ele>182.2</ele>
        <time>2024-09-18T09:56:34Z</time>
      </trkpt>
      <trkpt lat="46.77725" lon="4.87831">
        <ele>182.2</ele>
        <time>2024-09-18T09:56:35Z</time>
      </trkpt>
      <trkpt lat="46.77725" lon="4.87839">
        <ele>182.2</ele>
        <time>2024-09-18T09:56:36Z</time>
      </trkpt>
      <trkpt lat="46.77725" lon="4.87846">
        <ele>182.2</ele>
        <time>2024-09-18T09:56:37Z</time>
      </trkpt>
      <trkpt lat="46.77725" lon="4.87854">
        <ele>182.2</ele>
        <time>2024-09-18T09:56:38Z</time>
      </trkpt>
      <trkpt lat="46.77724" lon="4.87861">
        <ele>182.2</ele>
        <time>2024-09-18T09:56:39Z</time>
      </trkpt>
      <trkpt lat="46.77724" lon="4.87868">
        <ele>182.2</ele>
        <time>2024-09-18T09:56:40Z</time>
      </trkpt>
      <trkpt lat="46.77724" lon="4.87875">
        <ele>182.4</ele>
        <time>2024-09-18T09:56:41Z</time>
      </trkpt>
      <trkpt lat="46.77723" lon="4.87882">
        <ele>182.6</ele>
        <time>2024-09-18T09:56:42Z</time>
      </trkpt>
      <trkpt lat="46.77722" lon="4.87888">
        <ele>182.6</ele>
        <time>2024-09-18T09:56:43Z</time>
      </trkpt>
      <trkpt lat="46.77721" lon="4.87894">
        <ele>182.6</ele>
        <time>2024-09-18T09:56:44Z</time>
      </trkpt>
      <trkpt lat="46.77721" lon="4.879">
        <ele>182.6</ele>
        <time>2024-09-18T09:56:45Z</time>
      </trkpt>
      <trkpt lat="46.7772" lon="4.87906">
        <ele>182.6</ele>
        <time>2024-09-18T09:56:46Z</time>
      </trkpt>
      <trkpt lat="46.77719" lon="4.87912">
        <ele>183</ele>
        <time>2024-09-18T09:56:47Z</time>
      </trkpt>
      <trkpt lat="46.77718" lon="4.87918">
        <ele>183</ele>
        <time>2024-09-18T09:56:48Z</time>
      </trkpt>
      <trkpt lat="46.77718" lon="4.87924">
        <ele>183</ele>
        <time>2024-09-18T09:56:49Z</time>
      </trkpt>
      <trkpt lat="46.77717" lon="4.8793">
        <ele>183</ele>
        <time>2024-09-18T09:56:50Z</time>
      </trkpt>
      <trkpt lat="46.77716" lon="4.87936">
        <ele>183</ele>
        <time>2024-09-18T09:56:51Z</time>
      </trkpt>
      <trkpt lat="46.77715" lon="4.87943">
        <ele>183.2</ele>
        <time>2024-09-18T09:56:52Z</time>
      </trkpt>
      <trkpt lat="46.77714" lon="4.87949">
        <ele>183.2</ele>
        <time>2024-09-18T09:56:53Z</time>
      </trkpt>
      <trkpt lat="46.77713" lon="4.87956">
        <ele>183.2</ele>
        <time>2024-09-18T09:56:54Z</time>
      </trkpt>
      <trkpt lat="46.77712" lon="4.87963">
        <ele>183.4</ele>
        <time>2024-09-18T09:56:55Z</time>
      </trkpt>
      <trkpt lat="46.77711" lon="4.87969">
        <ele>183.4</ele>
        <time>2024-09-18T09:56:56Z</time>
      </trkpt>
      <trkpt lat="46.77711" lon="4.87976">
        <ele>183.4</ele>
        <time>2024-09-18T09:56:57Z</time>
      </trkpt>
      <trkpt lat="46.7771" lon="4.87983">
        <ele>183.4</ele>
        <time>2024-09-18T09:56:58Z</time>
      </trkpt>
      <trkpt lat="46.77709" lon="4.8799">
        <ele>183.2</ele>
        <time>2024-09-18T09:56:59Z</time>
      </trkpt>
      <trkpt lat="46.77708" lon="4.87997">
        <ele>183.6</ele>
        <time>2024-09-18T09:57:00Z</time>
      </trkpt>
      <trkpt lat="46.77707" lon="4.88004">
        <ele>183.6</ele>
        <time>2024-09-18T09:57:01Z</time>
      </trkpt>
      <trkpt lat="46.77706" lon="4.88011">
        <ele>183.6</ele>
        <time>2024-09-18T09:57:02Z</time>
      </trkpt>
      <trkpt lat="46.77705" lon="4.88018">
        <ele>183.6</ele>
        <time>2024-09-18T09:57:03Z</time>
      </trkpt>
      <trkpt lat="46.77705" lon="4.88026">
        <ele>183.2</ele>
        <time>2024-09-18T09:57:04Z</time>
      </trkpt>
      <trkpt lat="46.77704" lon="4.88033">
        <ele>183.2</ele>
        <time>2024-09-18T09:57:05Z</time>
      </trkpt>
      <trkpt lat="46.77703" lon="4.8804">
        <ele>183.2</ele>
        <time>2024-09-18T09:57:06Z</time>
      </trkpt>
      <trkpt lat="46.77702" lon="4.88048">
        <ele>183.2</ele>
        <time>2024-09-18T09:57:07Z</time>
      </trkpt>
      <trkpt lat="46.77701" lon="4.88055">
        <ele>183.2</ele>
        <time>2024-09-18T09:57:08Z</time>
      </trkpt>
      <trkpt lat="46.777" lon="4.88062">
        <ele>182.8</ele>
        <time>2024-09-18T09:57:09Z</time>
      </trkpt>
      <trkpt lat="46.77699" lon="4.8807">
        <ele>182.8</ele>
        <time>2024-09-18T09:57:10Z</time>
      </trkpt>
      <trkpt lat="46.77697" lon="4.88078">
        <ele>182.8</ele>
        <time>2024-09-18T09:57:11Z</time>
      </trkpt>
      <trkpt lat="46.77696" lon="4.88086">
        <ele>182.2</ele>
        <time>2024-09-18T09:57:12Z</time>
      </trkpt>
      <trkpt lat="46.77695" lon="4.88094">
        <ele>182.4</ele>
        <time>2024-09-18T09:57:13Z</time>
      </trkpt>
      <trkpt lat="46.77694" lon="4.88102">
        <ele>182.4</ele>
        <time>2024-09-18T09:57:14Z</time>
      </trkpt>
      <trkpt lat="46.77693" lon="4.88109">
        <ele>182.4</ele>
        <time>2024-09-18T09:57:15Z</time>
      </trkpt>
      <trkpt lat="46.77692" lon="4.88117">
        <ele>182</ele>
        <time>2024-09-18T09:57:16Z</time>
      </trkpt>
      <trkpt lat="46.7769" lon="4.88125">
        <ele>181.8</ele>
        <time>2024-09-18T09:57:17Z</time>
      </trkpt>
      <trkpt lat="46.77689" lon="4.88132">
        <ele>181.8</ele>
        <time>2024-09-18T09:57:18Z</time>
      </trkpt>
      <trkpt lat="46.77688" lon="4.88139">
        <ele>181.8</ele>
        <time>2024-09-18T09:57:19Z</time>
      </trkpt>
      <trkpt lat="46.77686" lon="4.88146">
        <ele>181.8</ele>
        <time>2024-09-18T09:57:20Z</time>
      </trkpt>
      <trkpt lat="46.77685" lon="4.88153">
        <ele>181.8</ele>
        <time>2024-09-18T09:57:21Z</time>
      </trkpt>
      <trkpt lat="46.77684" lon="4.8816">
        <ele>181.2</ele>
        <time>2024-09-18T09:57:22Z</time>
      </trkpt>
      <trkpt lat="46.77682" lon="4.88166">
        <ele>181.2</ele>
        <time>2024-09-18T09:57:23Z</time>
      </trkpt>
      <trkpt lat="46.77681" lon="4.88172">
        <ele>181.2</ele>
        <time>2024-09-18T09:57:24Z</time>
      </trkpt>
      <trkpt lat="46.7768" lon="4.88179">
        <ele>181.2</ele>
        <time>2024-09-18T09:57:25Z</time>
      </trkpt>
      <trkpt lat="46.7768" lon="4.88184">
        <ele>181.2</ele>
        <time>2024-09-18T09:57:26Z</time>
      </trkpt>
      <trkpt lat="46.77679" lon="4.8819">
        <ele>181.2</ele>
        <time>2024-09-18T09:57:27Z</time>
      </trkpt>
      <trkpt lat="46.77677" lon="4.88195">
        <ele>181.2</ele>
        <time>2024-09-18T09:57:28Z</time>
      </trkpt>
      <trkpt lat="46.77676" lon="4.88201">
        <ele>181.2</ele>
        <time>2024-09-18T09:57:29Z</time>
      </trkpt>
      <trkpt lat="46.77675" lon="4.88206">
        <ele>181</ele>
        <time>2024-09-18T09:57:30Z</time>
      </trkpt>
      <trkpt lat="46.77675" lon="4.88211">
        <ele>181</ele>
        <time>2024-09-18T09:57:31Z</time>
      </trkpt>
      <trkpt lat="46.77674" lon="4.88216">
        <ele>181</ele>
        <time>2024-09-18T09:57:32Z</time>
      </trkpt>
      <trkpt lat="46.77673" lon="4.88221">
        <ele>181</ele>
        <time>2024-09-18T09:57:33Z</time>
      </trkpt>
      <trkpt lat="46.77672" lon="4.88225">
        <ele>181</ele>
        <time>2024-09-18T09:57:34Z</time>
      </trkpt>
      <trkpt lat="46.77671" lon="4.8823">
        <ele>181</ele>
        <time>2024-09-18T09:57:35Z</time>
      </trkpt>
      <trkpt lat="46.7767" lon="4.88234">
        <ele>181</ele>
        <time>2024-09-18T09:57:36Z</time>
      </trkpt>
      <trkpt lat="46.7767" lon="4.88239">
        <ele>181</ele>
        <time>2024-09-18T09:57:37Z</time>
      </trkpt>
      <trkpt lat="46.77669" lon="4.88243">
        <ele>181</ele>
        <time>2024-09-18T09:57:38Z</time>
      </trkpt>
      <trkpt lat="46.77668" lon="4.88247">
        <ele>181</ele>
        <time>2024-09-18T09:57:39Z</time>
      </trkpt>
      <trkpt lat="46.77668" lon="4.88251">
        <ele>181</ele>
        <time>2024-09-18T09:57:40Z</time>
      </trkpt>
      <trkpt lat="46.77667" lon="4.88255">
        <ele>181</ele>
        <time>2024-09-18T09:57:41Z</time>
      </trkpt>
      <trkpt lat="46.77667" lon="4.88258">
        <ele>181</ele>
        <time>2024-09-18T09:57:42Z</time>
      </trkpt>
      <trkpt lat="46.77666" lon="4.88261">
        <ele>180.8</ele>
        <time>2024-09-18T09:57:43Z</time>
      </trkpt>
      <trkpt lat="46.77665" lon="4.88264">
        <ele>180.8</ele>
        <time>2024-09-18T09:57:44Z</time>
      </trkpt>
      <trkpt lat="46.77665" lon="4.88265">
        <ele>180.8</ele>
        <time>2024-09-18T09:57:45Z</time>
      </trkpt>
      <trkpt lat="46.77665" lon="4.88266">
        <ele>180.8</ele>
        <time>2024-09-18T09:57:46Z</time>
      </trkpt>
      <trkpt lat="46.77665" lon="4.88266">
        <ele>180.8</ele>
        <time>2024-09-18T09:57:47Z</time>
      </trkpt>
      <trkpt lat="46.77662" lon="4.88273">
        <ele>181</ele>
        <time>2024-09-18T09:58:26Z</time>
      </trkpt>
      <trkpt lat="46.77662" lon="4.88277">
        <ele>181.2</ele>
        <time>2024-09-18T09:58:27Z</time>
      </trkpt>
      <trkpt lat="46.77662" lon="4.88281">
        <ele>181.2</ele>
        <time>2024-09-18T09:58:28Z</time>
      </trkpt>
      <trkpt lat="46.77662" lon="4.88285">
        <ele>181.2</ele>
        <time>2024-09-18T09:58:29Z</time>
      </trkpt>
      <trkpt lat="46.77662" lon="4.88289">
        <ele>181.2</ele>
        <time>2024-09-18T09:58:30Z</time>
      </trkpt>
      <trkpt lat="46.77661" lon="4.88294">
        <ele>181.2</ele>
        <time>2024-09-18T09:58:31Z</time>
      </trkpt>
      <trkpt lat="46.7766" lon="4.88299">
        <ele>181.2</ele>
        <time>2024-09-18T09:58:32Z</time>
      </trkpt>
      <trkpt lat="46.7766" lon="4.88303">
        <ele>181.2</ele>
        <time>2024-09-18T09:58:33Z</time>
      </trkpt>
      <trkpt lat="46.77659" lon="4.88307">
        <ele>181.2</ele>
        <time>2024-09-18T09:58:34Z</time>
      </trkpt>
      <trkpt lat="46.77658" lon="4.88312">
        <ele>181.2</ele>
        <time>2024-09-18T09:58:35Z</time>
      </trkpt>
      <trkpt lat="46.77658" lon="4.88316">
        <ele>181.2</ele>
        <time>2024-09-18T09:58:36Z</time>
      </trkpt>
      <trkpt lat="46.77657" lon="4.88322">
        <ele>181.2</ele>
        <time>2024-09-18T09:58:37Z</time>
      </trkpt>
      <trkpt lat="46.77657" lon="4.88327">
        <ele>181.2</ele>
        <time>2024-09-18T09:58:38Z</time>
      </trkpt>
      <trkpt lat="46.77656" lon="4.88332">
        <ele>181.2</ele>
        <time>2024-09-18T09:58:39Z</time>
      </trkpt>
      <trkpt lat="46.77655" lon="4.88338">
        <ele>181.2</ele>
        <time>2024-09-18T09:58:40Z</time>
      </trkpt>
      <trkpt lat="46.77655" lon="4.88343">
        <ele>181.4</ele>
        <time>2024-09-18T09:58:41Z</time>
      </trkpt>
      <trkpt lat="46.77654" lon="4.88349">
        <ele>181.4</ele>
        <time>2024-09-18T09:58:42Z</time>
      </trkpt>
      <trkpt lat="46.77653" lon="4.88354">
        <ele>181.4</ele>
        <time>2024-09-18T09:58:43Z</time>
      </trkpt>
      <trkpt lat="46.77652" lon="4.88359">
        <ele>181.6</ele>
        <time>2024-09-18T09:58:44Z</time>
      </trkpt>
      <trkpt lat="46.77652" lon="4.88365">
        <ele>181.4</ele>
        <time>2024-09-18T09:58:45Z</time>
      </trkpt>
      <trkpt lat="46.77651" lon="4.8837">
        <ele>181.4</ele>
        <time>2024-09-18T09:58:46Z</time>
      </trkpt>
      <trkpt lat="46.77651" lon="4.88376">
        <ele>181.4</ele>
        <time>2024-09-18T09:58:47Z</time>
      </trkpt>
      <trkpt lat="46.7765" lon="4.88382">
        <ele>181.4</ele>
        <time>2024-09-18T09:58:48Z</time>
      </trkpt>
      <trkpt lat="46.77649" lon="4.88388">
        <ele>181.4</ele>
        <time>2024-09-18T09:58:49Z</time>
      </trkpt>
      <trkpt lat="46.77649" lon="4.88394">
        <ele>181.6</ele>
        <time>2024-09-18T09:58:50Z</time>
      </trkpt>
      <trkpt lat="46.77648" lon="4.88401">
        <ele>181.6</ele>
        <time>2024-09-18T09:58:51Z</time>
      </trkpt>
      <trkpt lat="46.77647" lon="4.88407">
        <ele>181.6</ele>
        <time>2024-09-18T09:58:52Z</time>
      </trkpt>
      <trkpt lat="46.77647" lon="4.88414">
        <ele>181.6</ele>
        <time>2024-09-18T09:58:53Z</time>
      </trkpt>
      <trkpt lat="46.77646" lon="4.88421">
        <ele>181.6</ele>
        <time>2024-09-18T09:58:54Z</time>
      </trkpt>
      <trkpt lat="46.77645" lon="4.88427">
        <ele>181.8</ele>
        <time>2024-09-18T09:58:55Z</time>
      </trkpt>
      <trkpt lat="46.77644" lon="4.88434">
        <ele>181.8</ele>
        <time>2024-09-18T09:58:56Z</time>
      </trkpt>
      <trkpt lat="46.77643" lon="4.88441">
        <ele>181.4</ele>
        <time>2024-09-18T09:58:57Z</time>
      </trkpt>
      <trkpt lat="46.77642" lon="4.88448">
        <ele>181.4</ele>
        <time>2024-09-18T09:58:58Z</time>
      </trkpt>
      <trkpt lat="46.77641" lon="4.88455">
        <ele>181.4</ele>
        <time>2024-09-18T09:58:59Z</time>
      </trkpt>
      <trkpt lat="46.7764" lon="4.88462">
        <ele>181.4</ele>
        <time>2024-09-18T09:59:00Z</time>
      </trkpt>
      <trkpt lat="46.77639" lon="4.88469">
        <ele>181.4</ele>
        <time>2024-09-18T09:59:01Z</time>
      </trkpt>
      <trkpt lat="46.77638" lon="4.88476">
        <ele>181.4</ele>
        <time>2024-09-18T09:59:02Z</time>
      </trkpt>
      <trkpt lat="46.77637" lon="4.88482">
        <ele>181.4</ele>
        <time>2024-09-18T09:59:03Z</time>
      </trkpt>
      <trkpt lat="46.77637" lon="4.88489">
        <ele>181.4</ele>
        <time>2024-09-18T09:59:04Z</time>
      </trkpt>
      <trkpt lat="46.77636" lon="4.88495">
        <ele>181.4</ele>
        <time>2024-09-18T09:59:05Z</time>
      </trkpt>
      <trkpt lat="46.77636" lon="4.88501">
        <ele>181.4</ele>
        <time>2024-09-18T09:59:06Z</time>
      </trkpt>
      <trkpt lat="46.77634" lon="4.88511">
        <ele>181.8</ele>
        <time>2024-09-18T09:59:07Z</time>
      </trkpt>
      <trkpt lat="46.77634" lon="4.88514">
        <ele>181.8</ele>
        <time>2024-09-18T09:59:08Z</time>
      </trkpt>
      <trkpt lat="46.77633" lon="4.88521">
        <ele>181.8</ele>
        <time>2024-09-18T09:59:09Z</time>
      </trkpt>
      <trkpt lat="46.77632" lon="4.88528">
        <ele>181.8</ele>
        <time>2024-09-18T09:59:10Z</time>
      </trkpt>
      <trkpt lat="46.77631" lon="4.88534">
        <ele>181.6</ele>
        <time>2024-09-18T09:59:11Z</time>
      </trkpt>
      <trkpt lat="46.77631" lon="4.88541">
        <ele>182</ele>
        <time>2024-09-18T09:59:12Z</time>
      </trkpt>
      <trkpt lat="46.7763" lon="4.88548">
        <ele>182</ele>
        <time>2024-09-18T09:59:13Z</time>
      </trkpt>
      <trkpt lat="46.77629" lon="4.88555">
        <ele>182</ele>
        <time>2024-09-18T09:59:14Z</time>
      </trkpt>
      <trkpt lat="46.77628" lon="4.88561">
        <ele>181.8</ele>
        <time>2024-09-18T09:59:15Z</time>
      </trkpt>
      <trkpt lat="46.77627" lon="4.88568">
        <ele>181.8</ele>
        <time>2024-09-18T09:59:16Z</time>
      </trkpt>
      <trkpt lat="46.77627" lon="4.88574">
        <ele>181.8</ele>
        <time>2024-09-18T09:59:17Z</time>
      </trkpt>
      <trkpt lat="46.77626" lon="4.8858">
        <ele>181.8</ele>
        <time>2024-09-18T09:59:18Z</time>
      </trkpt>
      <trkpt lat="46.77626" lon="4.88586">
        <ele>181.8</ele>
        <time>2024-09-18T09:59:19Z</time>
      </trkpt>
      <trkpt lat="46.77625" lon="4.88593">
        <ele>181.8</ele>
        <time>2024-09-18T09:59:20Z</time>
      </trkpt>
      <trkpt lat="46.77624" lon="4.88599">
        <ele>181.8</ele>
        <time>2024-09-18T09:59:21Z</time>
      </trkpt>
      <trkpt lat="46.77623" lon="4.88605">
        <ele>181.6</ele>
        <time>2024-09-18T09:59:22Z</time>
      </trkpt>
      <trkpt lat="46.77622" lon="4.88612">
        <ele>181.6</ele>
        <time>2024-09-18T09:59:23Z</time>
      </trkpt>
      <trkpt lat="46.77621" lon="4.88618">
        <ele>181.6</ele>
        <time>2024-09-18T09:59:24Z</time>
      </trkpt>
      <trkpt lat="46.7762" lon="4.88624">
        <ele>181.6</ele>
        <time>2024-09-18T09:59:25Z</time>
      </trkpt>
      <trkpt lat="46.7762" lon="4.8863">
        <ele>181.8</ele>
        <time>2024-09-18T09:59:26Z</time>
      </trkpt>
      <trkpt lat="46.77619" lon="4.88636">
        <ele>181.8</ele>
        <time>2024-09-18T09:59:27Z</time>
      </trkpt>
      <trkpt lat="46.77618" lon="4.88642">
        <ele>181.8</ele>
        <time>2024-09-18T09:59:28Z</time>
      </trkpt>
      <trkpt lat="46.77617" lon="4.88648">
        <ele>182.4</ele>
        <time>2024-09-18T09:59:29Z</time>
      </trkpt>
      <trkpt lat="46.77616" lon="4.88654">
        <ele>182.4</ele>
        <time>2024-09-18T09:59:30Z</time>
      </trkpt>
      <trkpt lat="46.77616" lon="4.8866">
        <ele>181.8</ele>
        <time>2024-09-18T09:59:31Z</time>
      </trkpt>
      <trkpt lat="46.77615" lon="4.88666">
        <ele>181.8</ele>
        <time>2024-09-18T09:59:32Z</time>
      </trkpt>
      <trkpt lat="46.77615" lon="4.88672">
        <ele>181.8</ele>
        <time>2024-09-18T09:59:33Z</time>
      </trkpt>
      <trkpt lat="46.77614" lon="4.88678">
        <ele>181.8</ele>
        <time>2024-09-18T09:59:34Z</time>
      </trkpt>
      <trkpt lat="46.77613" lon="4.88683">
        <ele>182</ele>
        <time>2024-09-18T09:59:35Z</time>
      </trkpt>
      <trkpt lat="46.77612" lon="4.88687">
        <ele>182</ele>
        <time>2024-09-18T09:59:36Z</time>
      </trkpt>
      <trkpt lat="46.77609" lon="4.88692">
        <ele>182</ele>
        <time>2024-09-18T09:59:37Z</time>
      </trkpt>
      <trkpt lat="46.77606" lon="4.88696">
        <ele>182</ele>
        <time>2024-09-18T09:59:38Z</time>
      </trkpt>
      <trkpt lat="46.77603" lon="4.88699">
        <ele>182.2</ele>
        <time>2024-09-18T09:59:39Z</time>
      </trkpt>
      <trkpt lat="46.776" lon="4.88703">
        <ele>182.2</ele>
        <time>2024-09-18T09:59:40Z</time>
      </trkpt>
      <trkpt lat="46.77597" lon="4.88707">
        <ele>182.2</ele>
        <time>2024-09-18T09:59:41Z</time>
      </trkpt>
      <trkpt lat="46.77593" lon="4.88711">
        <ele>182.2</ele>
        <time>2024-09-18T09:59:42Z</time>
      </trkpt>
      <trkpt lat="46.7759" lon="4.88715">
        <ele>182.2</ele>
        <time>2024-09-18T09:59:43Z</time>
      </trkpt>
      <trkpt lat="46.77587" lon="4.88719">
        <ele>182.6</ele>
        <time>2024-09-18T09:59:44Z</time>
      </trkpt>
      <trkpt lat="46.77584" lon="4.88723">
        <ele>182.6</ele>
        <time>2024-09-18T09:59:45Z</time>
      </trkpt>
      <trkpt lat="46.77581" lon="4.88727">
        <ele>182.6</ele>
        <time>2024-09-18T09:59:46Z</time>
      </trkpt>
      <trkpt lat="46.77578" lon="4.88731">
        <ele>182.6</ele>
        <time>2024-09-18T09:59:47Z</time>
      </trkpt>
      <trkpt lat="46.77575" lon="4.88735">
        <ele>183</ele>
        <time>2024-09-18T09:59:48Z</time>
      </trkpt>
      <trkpt lat="46.77571" lon="4.8874">
        <ele>183</ele>
        <time>2024-09-18T09:59:49Z</time>
      </trkpt>
      <trkpt lat="46.7757" lon="4.88742">
        <ele>183</ele>
        <time>2024-09-18T09:59:50Z</time>
      </trkpt>
      <trkpt lat="46.77568" lon="4.88746">
        <ele>183</ele>
        <time>2024-09-18T09:59:51Z</time>
      </trkpt>
      <trkpt lat="46.77565" lon="4.8875">
        <ele>183.2</ele>
        <time>2024-09-18T09:59:52Z</time>
      </trkpt>
      <trkpt lat="46.77562" lon="4.88754">
        <ele>183.2</ele>
        <time>2024-09-18T09:59:53Z</time>
      </trkpt>
      <trkpt lat="46.7756" lon="4.88757">
        <ele>183.2</ele>
        <time>2024-09-18T09:59:54Z</time>
      </trkpt>
      <trkpt lat="46.77557" lon="4.8876">
        <ele>183.4</ele>
        <time>2024-09-18T09:59:55Z</time>
      </trkpt>
      <trkpt lat="46.77554" lon="4.88763">
        <ele>183.8</ele>
        <time>2024-09-18T09:59:56Z</time>
      </trkpt>
      <trkpt lat="46.77551" lon="4.88764">
        <ele>183.8</ele>
        <time>2024-09-18T09:59:57Z</time>
      </trkpt>
      <trkpt lat="46.77547" lon="4.88762">
        <ele>183.8</ele>
        <time>2024-09-18T09:59:58Z</time>
      </trkpt>
      <trkpt lat="46.77544" lon="4.88758">
        <ele>183.8</ele>
        <time>2024-09-18T09:59:59Z</time>
      </trkpt>
      <trkpt lat="46.77542" lon="4.88753">
        <ele>183.8</ele>
        <time>2024-09-18T10:00:00Z</time>
      </trkpt>
      <trkpt lat="46.77539" lon="4.88748">
        <ele>183.4</ele>
        <time>2024-09-18T10:00:01Z</time>
      </trkpt>
      <trkpt lat="46.77536" lon="4.88743">
        <ele>183</ele>
        <time>2024-09-18T10:00:02Z</time>
      </trkpt>
      <trkpt lat="46.77533" lon="4.88738">
        <ele>183</ele>
        <time>2024-09-18T10:00:03Z</time>
      </trkpt>
      <trkpt lat="46.7753" lon="4.88733">
        <ele>183</ele>
        <time>2024-09-18T10:00:04Z</time>
      </trkpt>
      <trkpt lat="46.77525" lon="4.8873">
        <ele>183</ele>
        <time>2024-09-18T10:00:05Z</time>
      </trkpt>
      <trkpt lat="46.7752" lon="4.88728">
        <ele>182.8</ele>
        <time>2024-09-18T10:00:06Z</time>
      </trkpt>
      <trkpt lat="46.77515" lon="4.88726">
        <ele>182.8</ele>
        <time>2024-09-18T10:00:07Z</time>
      </trkpt>
      <trkpt lat="46.7751" lon="4.88725">
        <ele>182.8</ele>
        <time>2024-09-18T10:00:08Z</time>
      </trkpt>
      <trkpt lat="46.77505" lon="4.88723">
        <ele>182.8</ele>
        <time>2024-09-18T10:00:09Z</time>
      </trkpt>
      <trkpt lat="46.775" lon="4.88722">
        <ele>182.6</ele>
        <time>2024-09-18T10:00:10Z</time>
      </trkpt>
      <trkpt lat="46.77495" lon="4.88721">
        <ele>182.6</ele>
        <time>2024-09-18T10:00:11Z</time>
      </trkpt>
      <trkpt lat="46.77489" lon="4.88721">
        <ele>182.6</ele>
        <time>2024-09-18T10:00:12Z</time>
      </trkpt>
      <trkpt lat="46.77483" lon="4.8872">
        <ele>182.6</ele>
        <time>2024-09-18T10:00:13Z</time>
      </trkpt>
      <trkpt lat="46.77478" lon="4.88718">
        <ele>182.6</ele>
        <time>2024-09-18T10:00:14Z</time>
      </trkpt>
      <trkpt lat="46.77472" lon="4.88717">
        <ele>182.2</ele>
        <time>2024-09-18T10:00:15Z</time>
      </trkpt>
      <trkpt lat="46.77466" lon="4.88717">
        <ele>182.2</ele>
        <time>2024-09-18T10:00:16Z</time>
      </trkpt>
      <trkpt lat="46.77461" lon="4.88717">
        <ele>182.2</ele>
        <time>2024-09-18T10:00:17Z</time>
      </trkpt>
      <trkpt lat="46.77455" lon="4.88716">
        <ele>182</ele>
        <time>2024-09-18T10:00:18Z</time>
      </trkpt>
      <trkpt lat="46.7745" lon="4.88715">
        <ele>182</ele>
        <time>2024-09-18T10:00:19Z</time>
      </trkpt>
      <trkpt lat="46.77445" lon="4.88714">
        <ele>182</ele>
        <time>2024-09-18T10:00:20Z</time>
      </trkpt>
      <trkpt lat="46.77439" lon="4.88713">
        <ele>182</ele>
        <time>2024-09-18T10:00:21Z</time>
      </trkpt>
      <trkpt lat="46.77434" lon="4.88711">
        <ele>181.8</ele>
        <time>2024-09-18T10:00:22Z</time>
      </trkpt>
      <trkpt lat="46.7743" lon="4.88709">
        <ele>181.8</ele>
        <time>2024-09-18T10:00:23Z</time>
      </trkpt>
      <trkpt lat="46.77425" lon="4.88706">
        <ele>181.8</ele>
        <time>2024-09-18T10:00:24Z</time>
      </trkpt>
      <trkpt lat="46.7742" lon="4.88703">
        <ele>181.8</ele>
        <time>2024-09-18T10:00:25Z</time>
      </trkpt>
      <trkpt lat="46.77416" lon="4.887">
        <ele>181.8</ele>
        <time>2024-09-18T10:00:26Z</time>
      </trkpt>
      <trkpt lat="46.77411" lon="4.88698">
        <ele>182</ele>
        <time>2024-09-18T10:00:27Z</time>
      </trkpt>
      <trkpt lat="46.77406" lon="4.88695">
        <ele>182</ele>
        <time>2024-09-18T10:00:28Z</time>
      </trkpt>
      <trkpt lat="46.77401" lon="4.88692">
        <ele>182</ele>
        <time>2024-09-18T10:00:29Z</time>
      </trkpt>
      <trkpt lat="46.77397" lon="4.88689">
        <ele>182</ele>
        <time>2024-09-18T10:00:30Z</time>
      </trkpt>
      <trkpt lat="46.77392" lon="4.88686">
        <ele>182</ele>
        <time>2024-09-18T10:00:31Z</time>
      </trkpt>
      <trkpt lat="46.77386" lon="4.88681">
        <ele>181.8</ele>
        <time>2024-09-18T10:00:32Z</time>
      </trkpt>
      <trkpt lat="46.77384" lon="4.8868">
        <ele>181.8</ele>
        <time>2024-09-18T10:00:33Z</time>
      </trkpt>
      <trkpt lat="46.7738" lon="4.88678">
        <ele>181.8</ele>
        <time>2024-09-18T10:00:34Z</time>
      </trkpt>
      <trkpt lat="46.77376" lon="4.88676">
        <ele>181.8</ele>
        <time>2024-09-18T10:00:35Z</time>
      </trkpt>
      <trkpt lat="46.77372" lon="4.88675">
        <ele>181.8</ele>
        <time>2024-09-18T10:00:36Z</time>
      </trkpt>
      <trkpt lat="46.77368" lon="4.88676">
        <ele>181.8</ele>
        <time>2024-09-18T10:00:37Z</time>
      </trkpt>
      <trkpt lat="46.77364" lon="4.88678">
        <ele>181.8</ele>
        <time>2024-09-18T10:00:38Z</time>
      </trkpt>
      <trkpt lat="46.7736" lon="4.8868">
        <ele>181.8</ele>
        <time>2024-09-18T10:00:39Z</time>
      </trkpt>
      <trkpt lat="46.77357" lon="4.88682">
        <ele>181.8</ele>
        <time>2024-09-18T10:00:40Z</time>
      </trkpt>
      <trkpt lat="46.77354" lon="4.88685">
        <ele>181.8</ele>
        <time>2024-09-18T10:00:41Z</time>
      </trkpt>
      <trkpt lat="46.77351" lon="4.88689">
        <ele>181.8</ele>
        <time>2024-09-18T10:00:42Z</time>
      </trkpt>
      <trkpt lat="46.7735" lon="4.88694">
        <ele>181.8</ele>
        <time>2024-09-18T10:00:43Z</time>
      </trkpt>
      <trkpt lat="46.77348" lon="4.88699">
        <ele>181.8</ele>
        <time>2024-09-18T10:00:44Z</time>
      </trkpt>
      <trkpt lat="46.77347" lon="4.88704">
        <ele>181.8</ele>
        <time>2024-09-18T10:00:45Z</time>
      </trkpt>
      <trkpt lat="46.77347" lon="4.8871">
        <ele>181.8</ele>
        <time>2024-09-18T10:00:46Z</time>
      </trkpt>
      <trkpt lat="46.77347" lon="4.88717">
        <ele>181.8</ele>
        <time>2024-09-18T10:00:47Z</time>
      </trkpt>
      <trkpt lat="46.77347" lon="4.88723">
        <ele>181.8</ele>
        <time>2024-09-18T10:00:48Z</time>
      </trkpt>
      <trkpt lat="46.77347" lon="4.88733">
        <ele>181.8</ele>
        <time>2024-09-18T10:00:49Z</time>
      </trkpt>
      <trkpt lat="46.77347" lon="4.88736">
        <ele>181.8</ele>
        <time>2024-09-18T10:00:50Z</time>
      </trkpt>
      <trkpt lat="46.77347" lon="4.88742">
        <ele>181.8</ele>
        <time>2024-09-18T10:00:51Z</time>
      </trkpt>
      <trkpt lat="46.77347" lon="4.88749">
        <ele>181.8</ele>
        <time>2024-09-18T10:00:52Z</time>
      </trkpt>
      <trkpt lat="46.77347" lon="4.88755">
        <ele>181.8</ele>
        <time>2024-09-18T10:00:53Z</time>
      </trkpt>
      <trkpt lat="46.77347" lon="4.88761">
        <ele>181.6</ele>
        <time>2024-09-18T10:00:54Z</time>
      </trkpt>
      <trkpt lat="46.77347" lon="4.88767">
        <ele>181.6</ele>
        <time>2024-09-18T10:00:55Z</time>
      </trkpt>
      <trkpt lat="46.77347" lon="4.88772">
        <ele>181.8</ele>
        <time>2024-09-18T10:00:56Z</time>
      </trkpt>
      <trkpt lat="46.77347" lon="4.88778">
        <ele>181.8</ele>
        <time>2024-09-18T10:00:57Z</time>
      </trkpt>
      <trkpt lat="46.77347" lon="4.88784">
        <ele>181.6</ele>
        <time>2024-09-18T10:00:58Z</time>
      </trkpt>
      <trkpt lat="46.77347" lon="4.88791">
        <ele>181.6</ele>
        <time>2024-09-18T10:00:59Z</time>
      </trkpt>
      <trkpt lat="46.77346" lon="4.88797">
        <ele>181.8</ele>
        <time>2024-09-18T10:01:00Z</time>
      </trkpt>
      <trkpt lat="46.77346" lon="4.88803">
        <ele>181.8</ele>
        <time>2024-09-18T10:01:01Z</time>
      </trkpt>
      <trkpt lat="46.77346" lon="4.8881">
        <ele>181.8</ele>
        <time>2024-09-18T10:01:02Z</time>
      </trkpt>
      <trkpt lat="46.77346" lon="4.88817">
        <ele>181.8</ele>
        <time>2024-09-18T10:01:03Z</time>
      </trkpt>
      <trkpt lat="46.77346" lon="4.88823">
        <ele>182</ele>
        <time>2024-09-18T10:01:04Z</time>
      </trkpt>
      <trkpt lat="46.77346" lon="4.88829">
        <ele>182</ele>
        <time>2024-09-18T10:01:05Z</time>
      </trkpt>
      <trkpt lat="46.77346" lon="4.88836">
        <ele>182</ele>
        <time>2024-09-18T10:01:06Z</time>
      </trkpt>
      <trkpt lat="46.77346" lon="4.88843">
        <ele>182.2</ele>
        <time>2024-09-18T10:01:07Z</time>
      </trkpt>
      <trkpt lat="46.77346" lon="4.88849">
        <ele>182.2</ele>
        <time>2024-09-18T10:01:08Z</time>
      </trkpt>
      <trkpt lat="46.77346" lon="4.88855">
        <ele>182.2</ele>
        <time>2024-09-18T10:01:09Z</time>
      </trkpt>
      <trkpt lat="46.77347" lon="4.88861">
        <ele>182.2</ele>
        <time>2024-09-18T10:01:10Z</time>
      </trkpt>
      <trkpt lat="46.77347" lon="4.88866">
        <ele>182.2</ele>
        <time>2024-09-18T10:01:11Z</time>
      </trkpt>
      <trkpt lat="46.77347" lon="4.88873">
        <ele>182.6</ele>
        <time>2024-09-18T10:01:12Z</time>
      </trkpt>
      <trkpt lat="46.77347" lon="4.88879">
        <ele>183</ele>
        <time>2024-09-18T10:01:13Z</time>
      </trkpt>
      <trkpt lat="46.77347" lon="4.88888">
        <ele>183</ele>
        <time>2024-09-18T10:01:14Z</time>
      </trkpt>
      <trkpt lat="46.77347" lon="4.88891">
        <ele>183</ele>
        <time>2024-09-18T10:01:15Z</time>
      </trkpt>
      <trkpt lat="46.77346" lon="4.88896">
        <ele>182.8</ele>
        <time>2024-09-18T10:01:16Z</time>
      </trkpt>
      <trkpt lat="46.77347" lon="4.88902">
        <ele>182.8</ele>
        <time>2024-09-18T10:01:17Z</time>
      </trkpt>
      <trkpt lat="46.77347" lon="4.88908">
        <ele>183.2</ele>
        <time>2024-09-18T10:01:18Z</time>
      </trkpt>
      <trkpt lat="46.77347" lon="4.88914">
        <ele>183.2</ele>
        <time>2024-09-18T10:01:19Z</time>
      </trkpt>
      <trkpt lat="46.77346" lon="4.8892">
        <ele>183.2</ele>
        <time>2024-09-18T10:01:20Z</time>
      </trkpt>
      <trkpt lat="46.77347" lon="4.88926">
        <ele>184</ele>
        <time>2024-09-18T10:01:21Z</time>
      </trkpt>
      <trkpt lat="46.77347" lon="4.88932">
        <ele>184</ele>
        <time>2024-09-18T10:01:22Z</time>
      </trkpt>
      <trkpt lat="46.77347" lon="4.88937">
        <ele>184</ele>
        <time>2024-09-18T10:01:23Z</time>
      </trkpt>
      <trkpt lat="46.77347" lon="4.88942">
        <ele>184</ele>
        <time>2024-09-18T10:01:24Z</time>
      </trkpt>
      <trkpt lat="46.77347" lon="4.88948">
        <ele>184</ele>
        <time>2024-09-18T10:01:25Z</time>
      </trkpt>
      <trkpt lat="46.77347" lon="4.88953">
        <ele>184</ele>
        <time>2024-09-18T10:01:26Z</time>
      </trkpt>
      <trkpt lat="46.77347" lon="4.88958">
        <ele>184.2</ele>
        <time>2024-09-18T10:01:27Z</time>
      </trkpt>
      <trkpt lat="46.77348" lon="4.88964">
        <ele>184.2</ele>
        <time>2024-09-18T10:01:28Z</time>
      </trkpt>
      <trkpt lat="46.77348" lon="4.8897">
        <ele>184.2</ele>
        <time>2024-09-18T10:01:29Z</time>
      </trkpt>
      <trkpt lat="46.77348" lon="4.88976">
        <ele>184</ele>
        <time>2024-09-18T10:01:30Z</time>
      </trkpt>
      <trkpt lat="46.77348" lon="4.88982">
        <ele>184</ele>
        <time>2024-09-18T10:01:31Z</time>
      </trkpt>
      <trkpt lat="46.77347" lon="4.88988">
        <ele>184</ele>
        <time>2024-09-18T10:01:32Z</time>
      </trkpt>
      <trkpt lat="46.77347" lon="4.88993">
        <ele>184</ele>
        <time>2024-09-18T10:01:33Z</time>
      </trkpt>
      <trkpt lat="46.77347" lon="4.88999">
        <ele>184</ele>
        <time>2024-09-18T10:01:34Z</time>
      </trkpt>
      <trkpt lat="46.77346" lon="4.89004">
        <ele>184.2</ele>
        <time>2024-09-18T10:01:35Z</time>
      </trkpt>
      <trkpt lat="46.77346" lon="4.8901">
        <ele>184.2</ele>
        <time>2024-09-18T10:01:36Z</time>
      </trkpt>
      <trkpt lat="46.77345" lon="4.89016">
        <ele>184.2</ele>
        <time>2024-09-18T10:01:37Z</time>
      </trkpt>
      <trkpt lat="46.77345" lon="4.89022">
        <ele>184.2</ele>
        <time>2024-09-18T10:01:38Z</time>
      </trkpt>
      <trkpt lat="46.77344" lon="4.89028">
        <ele>184.2</ele>
        <time>2024-09-18T10:01:39Z</time>
      </trkpt>
      <trkpt lat="46.77344" lon="4.89034">
        <ele>184.6</ele>
        <time>2024-09-18T10:01:40Z</time>
      </trkpt>
      <trkpt lat="46.77343" lon="4.8904">
        <ele>184.6</ele>
        <time>2024-09-18T10:01:41Z</time>
      </trkpt>
      <trkpt lat="46.77343" lon="4.89046">
        <ele>184.6</ele>
        <time>2024-09-18T10:01:42Z</time>
      </trkpt>
      <trkpt lat="46.77342" lon="4.89052">
        <ele>184.6</ele>
        <time>2024-09-18T10:01:43Z</time>
      </trkpt>
      <trkpt lat="46.77341" lon="4.89059">
        <ele>184.8</ele>
        <time>2024-09-18T10:01:44Z</time>
      </trkpt>
      <trkpt lat="46.7734" lon="4.89065">
        <ele>184.8</ele>
        <time>2024-09-18T10:01:45Z</time>
      </trkpt>
      <trkpt lat="46.7734" lon="4.89071">
        <ele>184.8</ele>
        <time>2024-09-18T10:01:46Z</time>
      </trkpt>
      <trkpt lat="46.77339" lon="4.89078">
        <ele>184.8</ele>
        <time>2024-09-18T10:01:47Z</time>
      </trkpt>
      <trkpt lat="46.77338" lon="4.89084">
        <ele>184.8</ele>
        <time>2024-09-18T10:01:48Z</time>
      </trkpt>
      <trkpt lat="46.77337" lon="4.89091">
        <ele>184.8</ele>
        <time>2024-09-18T10:01:49Z</time>
      </trkpt>
      <trkpt lat="46.77336" lon="4.89097">
        <ele>184.8</ele>
        <time>2024-09-18T10:01:50Z</time>
      </trkpt>
      <trkpt lat="46.77335" lon="4.89103">
        <ele>184.8</ele>
        <time>2024-09-18T10:01:51Z</time>
      </trkpt>
      <trkpt lat="46.77333" lon="4.8911">
        <ele>184.8</ele>
        <time>2024-09-18T10:01:52Z</time>
      </trkpt>
      <trkpt lat="46.77332" lon="4.89116">
        <ele>184.8</ele>
        <time>2024-09-18T10:01:53Z</time>
      </trkpt>
      <trkpt lat="46.77331" lon="4.89123">
        <ele>185</ele>
        <time>2024-09-18T10:01:54Z</time>
      </trkpt>
      <trkpt lat="46.7733" lon="4.8913">
        <ele>185</ele>
        <time>2024-09-18T10:01:55Z</time>
      </trkpt>
      <trkpt lat="46.77329" lon="4.89136">
        <ele>184.8</ele>
        <time>2024-09-18T10:01:56Z</time>
      </trkpt>
      <trkpt lat="46.77328" lon="4.89143">
        <ele>184.8</ele>
        <time>2024-09-18T10:01:57Z</time>
      </trkpt>
      <trkpt lat="46.77327" lon="4.89149">
        <ele>184.8</ele>
        <time>2024-09-18T10:01:58Z</time>
      </trkpt>
      <trkpt lat="46.77324" lon="4.89159">
        <ele>184.8</ele>
        <time>2024-09-18T10:01:59Z</time>
      </trkpt>
      <trkpt lat="46.77324" lon="4.89162">
        <ele>184.8</ele>
        <time>2024-09-18T10:02:00Z</time>
      </trkpt>
      <trkpt lat="46.77322" lon="4.89169">
        <ele>185</ele>
        <time>2024-09-18T10:02:01Z</time>
      </trkpt>
      <trkpt lat="46.7732" lon="4.89176">
        <ele>185</ele>
        <time>2024-09-18T10:02:02Z</time>
      </trkpt>
      <trkpt lat="46.77319" lon="4.89182">
        <ele>185</ele>
        <time>2024-09-18T10:02:03Z</time>
      </trkpt>
      <trkpt lat="46.77317" lon="4.89189">
        <ele>185</ele>
        <time>2024-09-18T10:02:04Z</time>
      </trkpt>
      <trkpt lat="46.77316" lon="4.89197">
        <ele>184.8</ele>
        <time>2024-09-18T10:02:05Z</time>
      </trkpt>
      <trkpt lat="46.77314" lon="4.89204">
        <ele>184.8</ele>
        <time>2024-09-18T10:02:06Z</time>
      </trkpt>
      <trkpt lat="46.77312" lon="4.89211">
        <ele>184.8</ele>
        <time>2024-09-18T10:02:07Z</time>
      </trkpt>
      <trkpt lat="46.7731" lon="4.89218">
        <ele>184.6</ele>
        <time>2024-09-18T10:02:08Z</time>
      </trkpt>
      <trkpt lat="46.77309" lon="4.89225">
        <ele>184.6</ele>
        <time>2024-09-18T10:02:09Z</time>
      </trkpt>
      <trkpt lat="46.77307" lon="4.89233">
        <ele>184.6</ele>
        <time>2024-09-18T10:02:10Z</time>
      </trkpt>
      <trkpt lat="46.77305" lon="4.8924">
        <ele>184.8</ele>
        <time>2024-09-18T10:02:11Z</time>
      </trkpt>
      <trkpt lat="46.77304" lon="4.89247">
        <ele>184.8</ele>
        <time>2024-09-18T10:02:12Z</time>
      </trkpt>
      <trkpt lat="46.77302" lon="4.89254">
        <ele>184.8</ele>
        <time>2024-09-18T10:02:13Z</time>
      </trkpt>
      <trkpt lat="46.77301" lon="4.8926">
        <ele>184.8</ele>
        <time>2024-09-18T10:02:14Z</time>
      </trkpt>
      <trkpt lat="46.77299" lon="4.89267">
        <ele>184.8</ele>
        <time>2024-09-18T10:02:15Z</time>
      </trkpt>
      <trkpt lat="46.77298" lon="4.89273">
        <ele>184.8</ele>
        <time>2024-09-18T10:02:16Z</time>
      </trkpt>
      <trkpt lat="46.77297" lon="4.89277">
        <ele>184.8</ele>
        <time>2024-09-18T10:02:17Z</time>
      </trkpt>
      <trkpt lat="46.77297" lon="4.8928">
        <ele>184.8</ele>
        <time>2024-09-18T10:02:18Z</time>
      </trkpt>
      <trkpt lat="46.77297" lon="4.89282">
        <ele>184.8</ele>
        <time>2024-09-18T10:02:19Z</time>
      </trkpt>
      <trkpt lat="46.77296" lon="4.89283">
        <ele>185</ele>
        <time>2024-09-18T10:02:20Z</time>
      </trkpt>
      <trkpt lat="46.77293" lon="4.8929">
        <ele>185.2</ele>
        <time>2024-09-18T10:03:19Z</time>
      </trkpt>
      <trkpt lat="46.77291" lon="4.89292">
        <ele>185.2</ele>
        <time>2024-09-18T10:03:20Z</time>
      </trkpt>
      <trkpt lat="46.77289" lon="4.89293">
        <ele>185.2</ele>
        <time>2024-09-18T10:03:21Z</time>
      </trkpt>
      <trkpt lat="46.77287" lon="4.89293">
        <ele>185.4</ele>
        <time>2024-09-18T10:03:22Z</time>
      </trkpt>
      <trkpt lat="46.77284" lon="4.89294">
        <ele>185.4</ele>
        <time>2024-09-18T10:03:23Z</time>
      </trkpt>
      <trkpt lat="46.77281" lon="4.89294">
        <ele>185.4</ele>
        <time>2024-09-18T10:03:24Z</time>
      </trkpt>
      <trkpt lat="46.77278" lon="4.89295">
        <ele>185.4</ele>
        <time>2024-09-18T10:03:25Z</time>
      </trkpt>
      <trkpt lat="46.77275" lon="4.89296">
        <ele>185.4</ele>
        <time>2024-09-18T10:03:26Z</time>
      </trkpt>
      <trkpt lat="46.77272" lon="4.89296">
        <ele>185.4</ele>
        <time>2024-09-18T10:03:27Z</time>
      </trkpt>
      <trkpt lat="46.77269" lon="4.89297">
        <ele>185.4</ele>
        <time>2024-09-18T10:03:28Z</time>
      </trkpt>
      <trkpt lat="46.77265" lon="4.89298">
        <ele>185.4</ele>
        <time>2024-09-18T10:03:29Z</time>
      </trkpt>
      <trkpt lat="46.77261" lon="4.89299">
        <ele>185.4</ele>
        <time>2024-09-18T10:03:30Z</time>
      </trkpt>
      <trkpt lat="46.77255" lon="4.89301">
        <ele>185.4</ele>
        <time>2024-09-18T10:03:31Z</time>
      </trkpt>
      <trkpt lat="46.77252" lon="4.89301">
        <ele>185.4</ele>
        <time>2024-09-18T10:03:32Z</time>
      </trkpt>
      <trkpt lat="46.77248" lon="4.89303">
        <ele>185.4</ele>
        <time>2024-09-18T10:03:33Z</time>
      </trkpt>
      <trkpt lat="46.77243" lon="4.89304">
        <ele>185.4</ele>
        <time>2024-09-18T10:03:34Z</time>
      </trkpt>
      <trkpt lat="46.77237" lon="4.89306">
        <ele>185.4</ele>
        <time>2024-09-18T10:03:35Z</time>
      </trkpt>
      <trkpt lat="46.77232" lon="4.89307">
        <ele>185.8</ele>
        <time>2024-09-18T10:03:36Z</time>
      </trkpt>
      <trkpt lat="46.77227" lon="4.89309">
        <ele>185.8</ele>
        <time>2024-09-18T10:03:37Z</time>
      </trkpt>
      <trkpt lat="46.77223" lon="4.8931">
        <ele>185.8</ele>
        <time>2024-09-18T10:03:38Z</time>
      </trkpt>
      <trkpt lat="46.77218" lon="4.89311">
        <ele>185.8</ele>
        <time>2024-09-18T10:03:39Z</time>
      </trkpt>
      <trkpt lat="46.77213" lon="4.89312">
        <ele>185.8</ele>
        <time>2024-09-18T10:03:40Z</time>
      </trkpt>
      <trkpt lat="46.77207" lon="4.89313">
        <ele>185.8</ele>
        <time>2024-09-18T10:03:41Z</time>
      </trkpt>
      <trkpt lat="46.77202" lon="4.89314">
        <ele>185.8</ele>
        <time>2024-09-18T10:03:42Z</time>
      </trkpt>
      <trkpt lat="46.77197" lon="4.89315">
        <ele>185.8</ele>
        <time>2024-09-18T10:03:43Z</time>
      </trkpt>
      <trkpt lat="46.77192" lon="4.89316">
        <ele>185.8</ele>
        <time>2024-09-18T10:03:44Z</time>
      </trkpt>
      <trkpt lat="46.77187" lon="4.89317">
        <ele>185.8</ele>
        <time>2024-09-18T10:03:45Z</time>
      </trkpt>
      <trkpt lat="46.77182" lon="4.89318">
        <ele>185.8</ele>
        <time>2024-09-18T10:03:46Z</time>
      </trkpt>
      <trkpt lat="46.77177" lon="4.89319">
        <ele>185.8</ele>
        <time>2024-09-18T10:03:47Z</time>
      </trkpt>
      <trkpt lat="46.77171" lon="4.8932">
        <ele>185.8</ele>
        <time>2024-09-18T10:03:48Z</time>
      </trkpt>
      <trkpt lat="46.77166" lon="4.89321">
        <ele>185.8</ele>
        <time>2024-09-18T10:03:49Z</time>
      </trkpt>
      <trkpt lat="46.77161" lon="4.89322">
        <ele>185.8</ele>
        <time>2024-09-18T10:03:50Z</time>
      </trkpt>
      <trkpt lat="46.77156" lon="4.89323">
        <ele>185.8</ele>
        <time>2024-09-18T10:03:51Z</time>
      </trkpt>
      <trkpt lat="46.7715" lon="4.89324">
        <ele>185.8</ele>
        <time>2024-09-18T10:03:52Z</time>
      </trkpt>
      <trkpt lat="46.77145" lon="4.89326">
        <ele>185.8</ele>
        <time>2024-09-18T10:03:53Z</time>
      </trkpt>
      <trkpt lat="46.77139" lon="4.89328">
        <ele>185.8</ele>
        <time>2024-09-18T10:03:54Z</time>
      </trkpt>
      <trkpt lat="46.77134" lon="4.89329">
        <ele>186.2</ele>
        <time>2024-09-18T10:03:55Z</time>
      </trkpt>
      <trkpt lat="46.77129" lon="4.8933">
        <ele>186.2</ele>
        <time>2024-09-18T10:03:56Z</time>
      </trkpt>
      <trkpt lat="46.77124" lon="4.89331">
        <ele>186.2</ele>
        <time>2024-09-18T10:03:57Z</time>
      </trkpt>
      <trkpt lat="46.77118" lon="4.89332">
        <ele>186.2</ele>
        <time>2024-09-18T10:03:58Z</time>
      </trkpt>
      <trkpt lat="46.77113" lon="4.89334">
        <ele>186</ele>
        <time>2024-09-18T10:03:59Z</time>
      </trkpt>
      <trkpt lat="46.77107" lon="4.89335">
        <ele>186</ele>
        <time>2024-09-18T10:04:00Z</time>
      </trkpt>
      <trkpt lat="46.77102" lon="4.89337">
        <ele>186</ele>
        <time>2024-09-18T10:04:01Z</time>
      </trkpt>
      <trkpt lat="46.77097" lon="4.89338">
        <ele>186</ele>
        <time>2024-09-18T10:04:02Z</time>
      </trkpt>
      <trkpt lat="46.77091" lon="4.89339">
        <ele>186</ele>
        <time>2024-09-18T10:04:03Z</time>
      </trkpt>
      <trkpt lat="46.77086" lon="4.89341">
        <ele>186</ele>
        <time>2024-09-18T10:04:04Z</time>
      </trkpt>
      <trkpt lat="46.7708" lon="4.89342">
        <ele>186</ele>
        <time>2024-09-18T10:04:05Z</time>
      </trkpt>
      <trkpt lat="46.77074" lon="4.89344">
        <ele>186</ele>
        <time>2024-09-18T10:04:06Z</time>
      </trkpt>
      <trkpt lat="46.77069" lon="4.89345">
        <ele>186</ele>
        <time>2024-09-18T10:04:07Z</time>
      </trkpt>
      <trkpt lat="46.77061" lon="4.89348">
        <ele>186</ele>
        <time>2024-09-18T10:04:08Z</time>
      </trkpt>
      <trkpt lat="46.77058" lon="4.89348">
        <ele>186</ele>
        <time>2024-09-18T10:04:09Z</time>
      </trkpt>
      <trkpt lat="46.77053" lon="4.8935">
        <ele>186</ele>
        <time>2024-09-18T10:04:10Z</time>
      </trkpt>
      <trkpt lat="46.77047" lon="4.89351">
        <ele>186</ele>
        <time>2024-09-18T10:04:11Z</time>
      </trkpt>
      <trkpt lat="46.77043" lon="4.89352">
        <ele>186</ele>
        <time>2024-09-18T10:04:12Z</time>
      </trkpt>
      <trkpt lat="46.77038" lon="4.89353">
        <ele>186</ele>
        <time>2024-09-18T10:04:13Z</time>
      </trkpt>
      <trkpt lat="46.77034" lon="4.89354">
        <ele>186</ele>
        <time>2024-09-18T10:04:14Z</time>
      </trkpt>
      <trkpt lat="46.77032" lon="4.89354">
        <ele>186</ele>
        <time>2024-09-18T10:04:15Z</time>
      </trkpt>
      <trkpt lat="46.77029" lon="4.89354">
        <ele>186.2</ele>
        <time>2024-09-18T10:04:16Z</time>
      </trkpt>
      <trkpt lat="46.77027" lon="4.89354">
        <ele>186.2</ele>
        <time>2024-09-18T10:04:17Z</time>
      </trkpt>
      <trkpt lat="46.77026" lon="4.89354">
        <ele>186.2</ele>
        <time>2024-09-18T10:04:18Z</time>
      </trkpt>
      <trkpt lat="46.77024" lon="4.89354">
        <ele>186.2</ele>
        <time>2024-09-18T10:04:19Z</time>
      </trkpt>
      <trkpt lat="46.77023" lon="4.89356">
        <ele>186</ele>
        <time>2024-09-18T10:04:20Z</time>
      </trkpt>
      <trkpt lat="46.77022" lon="4.8936">
        <ele>186</ele>
        <time>2024-09-18T10:04:21Z</time>
      </trkpt>
      <trkpt lat="46.77023" lon="4.89363">
        <ele>186</ele>
        <time>2024-09-18T10:04:22Z</time>
      </trkpt>
      <trkpt lat="46.77024" lon="4.89367">
        <ele>186</ele>
        <time>2024-09-18T10:04:23Z</time>
      </trkpt>
      <trkpt lat="46.77024" lon="4.89371">
        <ele>186</ele>
        <time>2024-09-18T10:04:24Z</time>
      </trkpt>
      <trkpt lat="46.77024" lon="4.89376">
        <ele>186</ele>
        <time>2024-09-18T10:04:25Z</time>
      </trkpt>
      <trkpt lat="46.77023" lon="4.8938">
        <ele>186</ele>
        <time>2024-09-18T10:04:26Z</time>
      </trkpt>
      <trkpt lat="46.77022" lon="4.89385">
        <ele>186.2</ele>
        <time>2024-09-18T10:04:27Z</time>
      </trkpt>
      <trkpt lat="46.77021" lon="4.8939">
        <ele>186.2</ele>
        <time>2024-09-18T10:04:28Z</time>
      </trkpt>
      <trkpt lat="46.77019" lon="4.89394">
        <ele>186.2</ele>
        <time>2024-09-18T10:04:29Z</time>
      </trkpt>
      <trkpt lat="46.77017" lon="4.89399">
        <ele>186.2</ele>
        <time>2024-09-18T10:04:30Z</time>
      </trkpt>
      <trkpt lat="46.77015" lon="4.89404">
        <ele>186.2</ele>
        <time>2024-09-18T10:04:31Z</time>
      </trkpt>
      <trkpt lat="46.77013" lon="4.89409">
        <ele>186.4</ele>
        <time>2024-09-18T10:04:32Z</time>
      </trkpt>
      <trkpt lat="46.77011" lon="4.89414">
        <ele>186.4</ele>
        <time>2024-09-18T10:04:33Z</time>
      </trkpt>
      <trkpt lat="46.77009" lon="4.89419">
        <ele>186.8</ele>
        <time>2024-09-18T10:04:34Z</time>
      </trkpt>
      <trkpt lat="46.77006" lon="4.89423">
        <ele>186.8</ele>
        <time>2024-09-18T10:04:35Z</time>
      </trkpt>
      <trkpt lat="46.77005" lon="4.89428">
        <ele>186.4</ele>
        <time>2024-09-18T10:04:36Z</time>
      </trkpt>
      <trkpt lat="46.77003" lon="4.89433">
        <ele>186.4</ele>
        <time>2024-09-18T10:04:37Z</time>
      </trkpt>
      <trkpt lat="46.77001" lon="4.89439">
        <ele>186.4</ele>
        <time>2024-09-18T10:04:38Z</time>
      </trkpt>
      <trkpt lat="46.76999" lon="4.89444">
        <ele>186.6</ele>
        <time>2024-09-18T10:04:39Z</time>
      </trkpt>
      <trkpt lat="46.76997" lon="4.89449">
        <ele>186.6</ele>
        <time>2024-09-18T10:04:40Z</time>
      </trkpt>
      <trkpt lat="46.76995" lon="4.89454">
        <ele>186.6</ele>
        <time>2024-09-18T10:04:41Z</time>
      </trkpt>
      <trkpt lat="46.76993" lon="4.89459">
        <ele>186.6</ele>
        <time>2024-09-18T10:04:42Z</time>
      </trkpt>
      <trkpt lat="46.7699" lon="4.89464">
        <ele>186.6</ele>
        <time>2024-09-18T10:04:43Z</time>
      </trkpt>
      <trkpt lat="46.76988" lon="4.89469">
        <ele>186.8</ele>
        <time>2024-09-18T10:04:44Z</time>
      </trkpt>
      <trkpt lat="46.76986" lon="4.89474">
        <ele>186.8</ele>
        <time>2024-09-18T10:04:45Z</time>
      </trkpt>
      <trkpt lat="46.76984" lon="4.89479">
        <ele>186.8</ele>
        <time>2024-09-18T10:04:46Z</time>
      </trkpt>
      <trkpt lat="46.76981" lon="4.89485">
        <ele>186.8</ele>
        <time>2024-09-18T10:04:47Z</time>
      </trkpt>
      <trkpt lat="46.76979" lon="4.8949">
        <ele>186.8</ele>
        <time>2024-09-18T10:04:48Z</time>
      </trkpt>
      <trkpt lat="46.76977" lon="4.89496">
        <ele>186.6</ele>
        <time>2024-09-18T10:04:49Z</time>
      </trkpt>
      <trkpt lat="46.76976" lon="4.89502">
        <ele>186.6</ele>
        <time>2024-09-18T10:04:50Z</time>
      </trkpt>
      <trkpt lat="46.76974" lon="4.89508">
        <ele>186.6</ele>
        <time>2024-09-18T10:04:51Z</time>
      </trkpt>
      <trkpt lat="46.76972" lon="4.89514">
        <ele>186.6</ele>
        <time>2024-09-18T10:04:52Z</time>
      </trkpt>
      <trkpt lat="46.76969" lon="4.8952">
        <ele>186.4</ele>
        <time>2024-09-18T10:04:53Z</time>
      </trkpt>
      <trkpt lat="46.76966" lon="4.89525">
        <ele>186.4</ele>
        <time>2024-09-18T10:04:54Z</time>
      </trkpt>
      <trkpt lat="46.76963" lon="4.8953">
        <ele>186.4</ele>
        <time>2024-09-18T10:04:55Z</time>
      </trkpt>
      <trkpt lat="46.7696" lon="4.89535">
        <ele>186.4</ele>
        <time>2024-09-18T10:04:56Z</time>
      </trkpt>
      <trkpt lat="46.76957" lon="4.8954">
        <ele>186.4</ele>
        <time>2024-09-18T10:04:57Z</time>
      </trkpt>
      <trkpt lat="46.76954" lon="4.89546">
        <ele>186.4</ele>
        <time>2024-09-18T10:04:58Z</time>
      </trkpt>
      <trkpt lat="46.76951" lon="4.89551">
        <ele>186.4</ele>
        <time>2024-09-18T10:04:59Z</time>
      </trkpt>
      <trkpt lat="46.76948" lon="4.89556">
        <ele>186.4</ele>
        <time>2024-09-18T10:05:00Z</time>
      </trkpt>
      <trkpt lat="46.76945" lon="4.89561">
        <ele>186.4</ele>
        <time>2024-09-18T10:05:01Z</time>
      </trkpt>
      <trkpt lat="46.76943" lon="4.89566">
        <ele>186.4</ele>
        <time>2024-09-18T10:05:02Z</time>
      </trkpt>
      <trkpt lat="46.7694" lon="4.89571">
        <ele>186.4</ele>
        <time>2024-09-18T10:05:03Z</time>
      </trkpt>
      <trkpt lat="46.76937" lon="4.89576">
        <ele>186.4</ele>
        <time>2024-09-18T10:05:04Z</time>
      </trkpt>
      <trkpt lat="46.76935" lon="4.89581">
        <ele>186.4</ele>
        <time>2024-09-18T10:05:05Z</time>
      </trkpt>
      <trkpt lat="46.76932" lon="4.89585">
        <ele>186.4</ele>
        <time>2024-09-18T10:05:06Z</time>
      </trkpt>
      <trkpt lat="46.76929" lon="4.89586">
        <ele>186.4</ele>
        <time>2024-09-18T10:05:07Z</time>
      </trkpt>
      <trkpt lat="46.76925" lon="4.89585">
        <ele>186.4</ele>
        <time>2024-09-18T10:05:08Z</time>
      </trkpt>
      <trkpt lat="46.76922" lon="4.89583">
        <ele>186.4</ele>
        <time>2024-09-18T10:05:09Z</time>
      </trkpt>
      <trkpt lat="46.76919" lon="4.89581">
        <ele>186</ele>
        <time>2024-09-18T10:05:10Z</time>
      </trkpt>
      <trkpt lat="46.76916" lon="4.89579">
        <ele>186.2</ele>
        <time>2024-09-18T10:05:11Z</time>
      </trkpt>
      <trkpt lat="46.76913" lon="4.89578">
        <ele>186.2</ele>
        <time>2024-09-18T10:05:12Z</time>
      </trkpt>
      <trkpt lat="46.76909" lon="4.89579">
        <ele>186.2</ele>
        <time>2024-09-18T10:05:13Z</time>
      </trkpt>
      <trkpt lat="46.76905" lon="4.89581">
        <ele>186.2</ele>
        <time>2024-09-18T10:05:14Z</time>
      </trkpt>
      <trkpt lat="46.76902" lon="4.89585">
        <ele>185.8</ele>
        <time>2024-09-18T10:05:15Z</time>
      </trkpt>
      <trkpt lat="46.76898" lon="4.89589">
        <ele>185.6</ele>
        <time>2024-09-18T10:05:16Z</time>
      </trkpt>
      <trkpt lat="46.76896" lon="4.89593">
        <ele>185.6</ele>
        <time>2024-09-18T10:05:17Z</time>
      </trkpt>
      <trkpt lat="46.76893" lon="4.89599">
        <ele>185.6</ele>
        <time>2024-09-18T10:05:18Z</time>
      </trkpt>
      <trkpt lat="46.7689" lon="4.89604">
        <ele>185.6</ele>
        <time>2024-09-18T10:05:19Z</time>
      </trkpt>
      <trkpt lat="46.76887" lon="4.89609">
        <ele>185.6</ele>
        <time>2024-09-18T10:05:20Z</time>
      </trkpt>
      <trkpt lat="46.76885" lon="4.89615">
        <ele>185.6</ele>
        <time>2024-09-18T10:05:21Z</time>
      </trkpt>
      <trkpt lat="46.76882" lon="4.8962">
        <ele>185.6</ele>
        <time>2024-09-18T10:05:22Z</time>
      </trkpt>
      <trkpt lat="46.7688" lon="4.89626">
        <ele>185.6</ele>
        <time>2024-09-18T10:05:23Z</time>
      </trkpt>
      <trkpt lat="46.76877" lon="4.89632">
        <ele>185.4</ele>
        <time>2024-09-18T10:05:24Z</time>
      </trkpt>
      <trkpt lat="46.76874" lon="4.89638">
        <ele>185.4</ele>
        <time>2024-09-18T10:05:25Z</time>
      </trkpt>
      <trkpt lat="46.76871" lon="4.89643">
        <ele>185.4</ele>
        <time>2024-09-18T10:05:26Z</time>
      </trkpt>
      <trkpt lat="46.76867" lon="4.89648">
        <ele>185.4</ele>
        <time>2024-09-18T10:05:27Z</time>
      </trkpt>
      <trkpt lat="46.76864" lon="4.89653">
        <ele>185</ele>
        <time>2024-09-18T10:05:28Z</time>
      </trkpt>
      <trkpt lat="46.76862" lon="4.89657">
        <ele>185</ele>
        <time>2024-09-18T10:05:29Z</time>
      </trkpt>
      <trkpt lat="46.76859" lon="4.8966">
        <ele>185</ele>
        <time>2024-09-18T10:05:30Z</time>
      </trkpt>
      <trkpt lat="46.76857" lon="4.89661">
        <ele>185</ele>
        <time>2024-09-18T10:05:31Z</time>
      </trkpt>
      <trkpt lat="46.76854" lon="4.89663">
        <ele>184.6</ele>
        <time>2024-09-18T10:05:32Z</time>
      </trkpt>
      <trkpt lat="46.76852" lon="4.89666">
        <ele>184.6</ele>
        <time>2024-09-18T10:05:33Z</time>
      </trkpt>
      <trkpt lat="46.7685" lon="4.8967">
        <ele>184.4</ele>
        <time>2024-09-18T10:05:34Z</time>
      </trkpt>
      <trkpt lat="46.76848" lon="4.89673">
        <ele>184.4</ele>
        <time>2024-09-18T10:05:35Z</time>
      </trkpt>
      <trkpt lat="46.76846" lon="4.89676">
        <ele>184.4</ele>
        <time>2024-09-18T10:05:36Z</time>
      </trkpt>
      <trkpt lat="46.76844" lon="4.89679">
        <ele>184.4</ele>
        <time>2024-09-18T10:05:37Z</time>
      </trkpt>
      <trkpt lat="46.76842" lon="4.89683">
        <ele>184.4</ele>
        <time>2024-09-18T10:05:38Z</time>
      </trkpt>
      <trkpt lat="46.76838" lon="4.89689">
        <ele>184.4</ele>
        <time>2024-09-18T10:05:39Z</time>
      </trkpt>
      <trkpt lat="46.76837" lon="4.89691">
        <ele>184.4</ele>
        <time>2024-09-18T10:05:40Z</time>
      </trkpt>
      <trkpt lat="46.76834" lon="4.89695">
        <ele>184.2</ele>
        <time>2024-09-18T10:05:41Z</time>
      </trkpt>
      <trkpt lat="46.76832" lon="4.897">
        <ele>184.2</ele>
        <time>2024-09-18T10:05:42Z</time>
      </trkpt>
      <trkpt lat="46.76829" lon="4.89704">
        <ele>184.2</ele>
        <time>2024-09-18T10:05:43Z</time>
      </trkpt>
      <trkpt lat="46.76827" lon="4.89709">
        <ele>184.2</ele>
        <time>2024-09-18T10:05:44Z</time>
      </trkpt>
      <trkpt lat="46.76824" lon="4.89713">
        <ele>184</ele>
        <time>2024-09-18T10:05:45Z</time>
      </trkpt>
      <trkpt lat="46.76821" lon="4.89717">
        <ele>183.8</ele>
        <time>2024-09-18T10:05:46Z</time>
      </trkpt>
      <trkpt lat="46.76819" lon="4.89722">
        <ele>183.8</ele>
        <time>2024-09-18T10:05:47Z</time>
      </trkpt>
      <trkpt lat="46.76816" lon="4.89728">
        <ele>183.8</ele>
        <time>2024-09-18T10:05:48Z</time>
      </trkpt>
      <trkpt lat="46.76813" lon="4.89733">
        <ele>183.8</ele>
        <time>2024-09-18T10:05:49Z</time>
      </trkpt>
      <trkpt lat="46.7681" lon="4.89738">
        <ele>183.8</ele>
        <time>2024-09-18T10:05:50Z</time>
      </trkpt>
      <trkpt lat="46.76807" lon="4.89744">
        <ele>183.8</ele>
        <time>2024-09-18T10:05:51Z</time>
      </trkpt>
      <trkpt lat="46.76803" lon="4.89749">
        <ele>183.8</ele>
        <time>2024-09-18T10:05:52Z</time>
      </trkpt>
      <trkpt lat="46.768" lon="4.89755">
        <ele>183.8</ele>
        <time>2024-09-18T10:05:53Z</time>
      </trkpt>
      <trkpt lat="46.76796" lon="4.89761">
        <ele>183.8</ele>
        <time>2024-09-18T10:05:54Z</time>
      </trkpt>
      <trkpt lat="46.76793" lon="4.89767">
        <ele>183.8</ele>
        <time>2024-09-18T10:05:55Z</time>
      </trkpt>
      <trkpt lat="46.76789" lon="4.89773">
        <ele>183.8</ele>
        <time>2024-09-18T10:05:56Z</time>
      </trkpt>
      <trkpt lat="46.76786" lon="4.89778">
        <ele>183.8</ele>
        <time>2024-09-18T10:05:57Z</time>
      </trkpt>
      <trkpt lat="46.76783" lon="4.89784">
        <ele>183.8</ele>
        <time>2024-09-18T10:05:58Z</time>
      </trkpt>
      <trkpt lat="46.7678" lon="4.8979">
        <ele>183.8</ele>
        <time>2024-09-18T10:05:59Z</time>
      </trkpt>
      <trkpt lat="46.76775" lon="4.89799">
        <ele>183.8</ele>
        <time>2024-09-18T10:06:00Z</time>
      </trkpt>
      <trkpt lat="46.76773" lon="4.89801">
        <ele>183.8</ele>
        <time>2024-09-18T10:06:01Z</time>
      </trkpt>
      <trkpt lat="46.7677" lon="4.89807">
        <ele>183.8</ele>
        <time>2024-09-18T10:06:02Z</time>
      </trkpt>
      <trkpt lat="46.76766" lon="4.89812">
        <ele>183.8</ele>
        <time>2024-09-18T10:06:03Z</time>
      </trkpt>
      <trkpt lat="46.76763" lon="4.89818">
        <ele>183.6</ele>
        <time>2024-09-18T10:06:04Z</time>
      </trkpt>
      <trkpt lat="46.7676" lon="4.89823">
        <ele>183.6</ele>
        <time>2024-09-18T10:06:05Z</time>
      </trkpt>
      <trkpt lat="46.76757" lon="4.89829">
        <ele>183.6</ele>
        <time>2024-09-18T10:06:06Z</time>
      </trkpt>
      <trkpt lat="46.76753" lon="4.89835">
        <ele>183.6</ele>
        <time>2024-09-18T10:06:07Z</time>
      </trkpt>
      <trkpt lat="46.7675" lon="4.8984">
        <ele>183.6</ele>
        <time>2024-09-18T10:06:08Z</time>
      </trkpt>
      <trkpt lat="46.76747" lon="4.89846">
        <ele>183.4</ele>
        <time>2024-09-18T10:06:09Z</time>
      </trkpt>
      <trkpt lat="46.76744" lon="4.89851">
        <ele>183.4</ele>
        <time>2024-09-18T10:06:10Z</time>
      </trkpt>
      <trkpt lat="46.76741" lon="4.89857">
        <ele>183.4</ele>
        <time>2024-09-18T10:06:11Z</time>
      </trkpt>
      <trkpt lat="46.76738" lon="4.89862">
        <ele>183.4</ele>
        <time>2024-09-18T10:06:12Z</time>
      </trkpt>
      <trkpt lat="46.76735" lon="4.89868">
        <ele>183.4</ele>
        <time>2024-09-18T10:06:13Z</time>
      </trkpt>
      <trkpt lat="46.76731" lon="4.89873">
        <ele>183.2</ele>
        <time>2024-09-18T10:06:14Z</time>
      </trkpt>
      <trkpt lat="46.76728" lon="4.89879">
        <ele>183.2</ele>
        <time>2024-09-18T10:06:15Z</time>
      </trkpt>
      <trkpt lat="46.76725" lon="4.89883">
        <ele>183.2</ele>
        <time>2024-09-18T10:06:16Z</time>
      </trkpt>
      <trkpt lat="46.76722" lon="4.89886">
        <ele>183.2</ele>
        <time>2024-09-18T10:06:17Z</time>
      </trkpt>
      <trkpt lat="46.7672" lon="4.89888">
        <ele>183.2</ele>
        <time>2024-09-18T10:06:18Z</time>
      </trkpt>
      <trkpt lat="46.76718" lon="4.89891">
        <ele>183.2</ele>
        <time>2024-09-18T10:06:19Z</time>
      </trkpt>
      <trkpt lat="46.76716" lon="4.89894">
        <ele>183.2</ele>
        <time>2024-09-18T10:06:20Z</time>
      </trkpt>
      <trkpt lat="46.76715" lon="4.89897">
        <ele>183</ele>
        <time>2024-09-18T10:06:21Z</time>
      </trkpt>
      <trkpt lat="46.76713" lon="4.899">
        <ele>183</ele>
        <time>2024-09-18T10:06:22Z</time>
      </trkpt>
      <trkpt lat="46.76711" lon="4.89902">
        <ele>183</ele>
        <time>2024-09-18T10:06:23Z</time>
      </trkpt>
      <trkpt lat="46.76708" lon="4.89904">
        <ele>183</ele>
        <time>2024-09-18T10:06:24Z</time>
      </trkpt>
      <trkpt lat="46.76706" lon="4.89907">
        <ele>183</ele>
        <time>2024-09-18T10:06:25Z</time>
      </trkpt>
      <trkpt lat="46.76704" lon="4.8991">
        <ele>183</ele>
        <time>2024-09-18T10:06:26Z</time>
      </trkpt>
      <trkpt lat="46.76702" lon="4.89913">
        <ele>183.2</ele>
        <time>2024-09-18T10:06:27Z</time>
      </trkpt>
      <trkpt lat="46.76699" lon="4.89916">
        <ele>183.2</ele>
        <time>2024-09-18T10:06:28Z</time>
      </trkpt>
      <trkpt lat="46.76696" lon="4.89919">
        <ele>183.2</ele>
        <time>2024-09-18T10:06:29Z</time>
      </trkpt>
      <trkpt lat="46.76694" lon="4.89922">
        <ele>183.2</ele>
        <time>2024-09-18T10:06:30Z</time>
      </trkpt>
      <trkpt lat="46.76691" lon="4.89925">
        <ele>183.2</ele>
        <time>2024-09-18T10:06:31Z</time>
      </trkpt>
      <trkpt lat="46.76688" lon="4.89928">
        <ele>183.2</ele>
        <time>2024-09-18T10:06:32Z</time>
      </trkpt>
      <trkpt lat="46.76685" lon="4.89931">
        <ele>183.2</ele>
        <time>2024-09-18T10:06:33Z</time>
      </trkpt>
      <trkpt lat="46.76681" lon="4.89935">
        <ele>183.2</ele>
        <time>2024-09-18T10:06:34Z</time>
      </trkpt>
      <trkpt lat="46.76678" lon="4.89939">
        <ele>183.2</ele>
        <time>2024-09-18T10:06:35Z</time>
      </trkpt>
      <trkpt lat="46.76674" lon="4.89943">
        <ele>183.2</ele>
        <time>2024-09-18T10:06:36Z</time>
      </trkpt>
      <trkpt lat="46.76671" lon="4.89946">
        <ele>183</ele>
        <time>2024-09-18T10:06:37Z</time>
      </trkpt>
      <trkpt lat="46.76667" lon="4.8995">
        <ele>183</ele>
        <time>2024-09-18T10:06:38Z</time>
      </trkpt>
      <trkpt lat="46.76663" lon="4.89954">
        <ele>183</ele>
        <time>2024-09-18T10:06:39Z</time>
      </trkpt>
      <trkpt lat="46.7666" lon="4.89958">
        <ele>183</ele>
        <time>2024-09-18T10:06:40Z</time>
      </trkpt>
      <trkpt lat="46.76656" lon="4.89962">
        <ele>183</ele>
        <time>2024-09-18T10:06:41Z</time>
      </trkpt>
      <trkpt lat="46.76652" lon="4.89966">
        <ele>183</ele>
        <time>2024-09-18T10:06:42Z</time>
      </trkpt>
      <trkpt lat="46.76648" lon="4.8997">
        <ele>183</ele>
        <time>2024-09-18T10:06:43Z</time>
      </trkpt>
      <trkpt lat="46.76644" lon="4.89974">
        <ele>183.2</ele>
        <time>2024-09-18T10:06:44Z</time>
      </trkpt>
      <trkpt lat="46.76641" lon="4.89977">
        <ele>183.2</ele>
        <time>2024-09-18T10:06:45Z</time>
      </trkpt>
      <trkpt lat="46.76637" lon="4.89981">
        <ele>183.2</ele>
        <time>2024-09-18T10:06:46Z</time>
      </trkpt>
      <trkpt lat="46.76633" lon="4.89984">
        <ele>183.2</ele>
        <time>2024-09-18T10:06:47Z</time>
      </trkpt>
      <trkpt lat="46.7663" lon="4.89988">
        <ele>183.2</ele>
        <time>2024-09-18T10:06:48Z</time>
      </trkpt>
      <trkpt lat="46.76626" lon="4.89992">
        <ele>183.2</ele>
        <time>2024-09-18T10:06:49Z</time>
      </trkpt>
      <trkpt lat="46.76622" lon="4.89996">
        <ele>183.2</ele>
        <time>2024-09-18T10:06:50Z</time>
      </trkpt>
      <trkpt lat="46.76618" lon="4.9">
        <ele>183.2</ele>
        <time>2024-09-18T10:06:51Z</time>
      </trkpt>
      <trkpt lat="46.76614" lon="4.90004">
        <ele>183.2</ele>
        <time>2024-09-18T10:06:52Z</time>
      </trkpt>
      <trkpt lat="46.7661" lon="4.90008">
        <ele>183.4</ele>
        <time>2024-09-18T10:06:53Z</time>
      </trkpt>
      <trkpt lat="46.76606" lon="4.90012">
        <ele>183.2</ele>
        <time>2024-09-18T10:06:54Z</time>
      </trkpt>
      <trkpt lat="46.76601" lon="4.90016">
        <ele>183.2</ele>
        <time>2024-09-18T10:06:55Z</time>
      </trkpt>
      <trkpt lat="46.76597" lon="4.90019">
        <ele>183.2</ele>
        <time>2024-09-18T10:06:56Z</time>
      </trkpt>
      <trkpt lat="46.76593" lon="4.90023">
        <ele>183.4</ele>
        <time>2024-09-18T10:06:57Z</time>
      </trkpt>
      <trkpt lat="46.76589" lon="4.90026">
        <ele>183.2</ele>
        <time>2024-09-18T10:06:58Z</time>
      </trkpt>
      <trkpt lat="46.76584" lon="4.90029">
        <ele>183.2</ele>
        <time>2024-09-18T10:06:59Z</time>
      </trkpt>
      <trkpt lat="46.7658" lon="4.90033">
        <ele>183.2</ele>
        <time>2024-09-18T10:07:00Z</time>
      </trkpt>
      <trkpt lat="46.76576" lon="4.90036">
        <ele>183.2</ele>
        <time>2024-09-18T10:07:01Z</time>
      </trkpt>
      <trkpt lat="46.76571" lon="4.90038">
        <ele>183.2</ele>
        <time>2024-09-18T10:07:02Z</time>
      </trkpt>
      <trkpt lat="46.76566" lon="4.90041">
        <ele>183.4</ele>
        <time>2024-09-18T10:07:03Z</time>
      </trkpt>
      <trkpt lat="46.76562" lon="4.90044">
        <ele>183.4</ele>
        <time>2024-09-18T10:07:04Z</time>
      </trkpt>
      <trkpt lat="46.76555" lon="4.90048">
        <ele>183.4</ele>
        <time>2024-09-18T10:07:05Z</time>
      </trkpt>
      <trkpt lat="46.76553" lon="4.9005">
        <ele>183.4</ele>
        <time>2024-09-18T10:07:06Z</time>
      </trkpt>
      <trkpt lat="46.76549" lon="4.90053">
        <ele>183.6</ele>
        <time>2024-09-18T10:07:07Z</time>
      </trkpt>
      <trkpt lat="46.76544" lon="4.90056">
        <ele>183.6</ele>
        <time>2024-09-18T10:07:08Z</time>
      </trkpt>
      <trkpt lat="46.7654" lon="4.90058">
        <ele>183.6</ele>
        <time>2024-09-18T10:07:09Z</time>
      </trkpt>
      <trkpt lat="46.76535" lon="4.90061">
        <ele>183.6</ele>
        <time>2024-09-18T10:07:10Z</time>
      </trkpt>
      <trkpt lat="46.76531" lon="4.90063">
        <ele>183.6</ele>
        <time>2024-09-18T10:07:11Z</time>
      </trkpt>
      <trkpt lat="46.76526" lon="4.90065">
        <ele>183.6</ele>
        <time>2024-09-18T10:07:12Z</time>
      </trkpt>
      <trkpt lat="46.76522" lon="4.90068">
        <ele>183.6</ele>
        <time>2024-09-18T10:07:13Z</time>
      </trkpt>
      <trkpt lat="46.76517" lon="4.90071">
        <ele>183.6</ele>
        <time>2024-09-18T10:07:14Z</time>
      </trkpt>
      <trkpt lat="46.76513" lon="4.90073">
        <ele>183.6</ele>
        <time>2024-09-18T10:07:15Z</time>
      </trkpt>
      <trkpt lat="46.76508" lon="4.90075">
        <ele>183.6</ele>
        <time>2024-09-18T10:07:16Z</time>
      </trkpt>
      <trkpt lat="46.76504" lon="4.90077">
        <ele>183.6</ele>
        <time>2024-09-18T10:07:17Z</time>
      </trkpt>
      <trkpt lat="46.76499" lon="4.9008">
        <ele>183.6</ele>
        <time>2024-09-18T10:07:18Z</time>
      </trkpt>
      <trkpt lat="46.76495" lon="4.90082">
        <ele>183.6</ele>
        <time>2024-09-18T10:07:19Z</time>
      </trkpt>
      <trkpt lat="46.7649" lon="4.90084">
        <ele>183.6</ele>
        <time>2024-09-18T10:07:20Z</time>
      </trkpt>
      <trkpt lat="46.76486" lon="4.90086">
        <ele>183.8</ele>
        <time>2024-09-18T10:07:21Z</time>
      </trkpt>
      <trkpt lat="46.76482" lon="4.90088">
        <ele>183.8</ele>
        <time>2024-09-18T10:07:22Z</time>
      </trkpt>
      <trkpt lat="46.76477" lon="4.90091">
        <ele>183.8</ele>
        <time>2024-09-18T10:07:23Z</time>
      </trkpt>
      <trkpt lat="46.76472" lon="4.90093">
        <ele>183.8</ele>
        <time>2024-09-18T10:07:24Z</time>
      </trkpt>
      <trkpt lat="46.76468" lon="4.90096">
        <ele>183.8</ele>
        <time>2024-09-18T10:07:25Z</time>
      </trkpt>
      <trkpt lat="46.76463" lon="4.90098">
        <ele>183.8</ele>
        <time>2024-09-18T10:07:26Z</time>
      </trkpt>
      <trkpt lat="46.76458" lon="4.901">
        <ele>183.8</ele>
        <time>2024-09-18T10:07:27Z</time>
      </trkpt>
      <trkpt lat="46.76453" lon="4.90102">
        <ele>183.8</ele>
        <time>2024-09-18T10:07:28Z</time>
      </trkpt>
      <trkpt lat="46.76448" lon="4.90104">
        <ele>183.8</ele>
        <time>2024-09-18T10:07:29Z</time>
      </trkpt>
      <trkpt lat="46.76443" lon="4.90107">
        <ele>183.8</ele>
        <time>2024-09-18T10:07:30Z</time>
      </trkpt>
      <trkpt lat="46.76438" lon="4.90108">
        <ele>183.8</ele>
        <time>2024-09-18T10:07:31Z</time>
      </trkpt>
      <trkpt lat="46.76434" lon="4.90109">
        <ele>183.8</ele>
        <time>2024-09-18T10:07:32Z</time>
      </trkpt>
      <trkpt lat="46.76429" lon="4.9011">
        <ele>183.6</ele>
        <time>2024-09-18T10:07:33Z</time>
      </trkpt>
      <trkpt lat="46.76422" lon="4.90112">
        <ele>183.6</ele>
        <time>2024-09-18T10:07:34Z</time>
      </trkpt>
      <trkpt lat="46.7642" lon="4.90113">
        <ele>183.8</ele>
        <time>2024-09-18T10:07:35Z</time>
      </trkpt>
      <trkpt lat="46.76415" lon="4.90115">
        <ele>183.8</ele>
        <time>2024-09-18T10:07:36Z</time>
      </trkpt>
      <trkpt lat="46.76411" lon="4.90118">
        <ele>183.8</ele>
        <time>2024-09-18T10:07:37Z</time>
      </trkpt>
      <trkpt lat="46.76407" lon="4.9012">
        <ele>183.8</ele>
        <time>2024-09-18T10:07:38Z</time>
      </trkpt>
      <trkpt lat="46.76402" lon="4.90121">
        <ele>183.6</ele>
        <time>2024-09-18T10:07:39Z</time>
      </trkpt>
      <trkpt lat="46.76398" lon="4.90122">
        <ele>183.6</ele>
        <time>2024-09-18T10:07:40Z</time>
      </trkpt>
      <trkpt lat="46.76393" lon="4.90123">
        <ele>183.6</ele>
        <time>2024-09-18T10:07:41Z</time>
      </trkpt>
      <trkpt lat="46.76389" lon="4.90124">
        <ele>183.6</ele>
        <time>2024-09-18T10:07:42Z</time>
      </trkpt>
      <trkpt lat="46.76384" lon="4.90125">
        <ele>183.6</ele>
        <time>2024-09-18T10:07:43Z</time>
      </trkpt>
      <trkpt lat="46.7638" lon="4.90126">
        <ele>183.8</ele>
        <time>2024-09-18T10:07:44Z</time>
      </trkpt>
      <trkpt lat="46.76375" lon="4.90127">
        <ele>183.8</ele>
        <time>2024-09-18T10:07:45Z</time>
      </trkpt>
      <trkpt lat="46.7637" lon="4.90127">
        <ele>183.6</ele>
        <time>2024-09-18T10:07:46Z</time>
      </trkpt>
      <trkpt lat="46.76363" lon="4.90129">
        <ele>183.6</ele>
        <time>2024-09-18T10:07:47Z</time>
      </trkpt>
      <trkpt lat="46.76361" lon="4.90129">
        <ele>183.6</ele>
        <time>2024-09-18T10:07:48Z</time>
      </trkpt>
      <trkpt lat="46.76356" lon="4.9013">
        <ele>183.6</ele>
        <time>2024-09-18T10:07:49Z</time>
      </trkpt>
      <trkpt lat="46.76351" lon="4.90131">
        <ele>183.6</ele>
        <time>2024-09-18T10:07:50Z</time>
      </trkpt>
      <trkpt lat="46.76346" lon="4.90132">
        <ele>183.6</ele>
        <time>2024-09-18T10:07:51Z</time>
      </trkpt>
      <trkpt lat="46.76341" lon="4.90133">
        <ele>183.6</ele>
        <time>2024-09-18T10:07:52Z</time>
      </trkpt>
      <trkpt lat="46.76336" lon="4.90133">
        <ele>183.6</ele>
        <time>2024-09-18T10:07:53Z</time>
      </trkpt>
      <trkpt lat="46.76331" lon="4.90134">
        <ele>183.6</ele>
        <time>2024-09-18T10:07:54Z</time>
      </trkpt>
      <trkpt lat="46.76326" lon="4.90134">
        <ele>183.8</ele>
        <time>2024-09-18T10:07:55Z</time>
      </trkpt>
      <trkpt lat="46.76322" lon="4.90134">
        <ele>183.6</ele>
        <time>2024-09-18T10:07:56Z</time>
      </trkpt>
      <trkpt lat="46.76317" lon="4.90134">
        <ele>183.6</ele>
        <time>2024-09-18T10:07:57Z</time>
      </trkpt>
      <trkpt lat="46.76312" lon="4.90135">
        <ele>183.6</ele>
        <time>2024-09-18T10:07:58Z</time>
      </trkpt>
      <trkpt lat="46.76307" lon="4.90135">
        <ele>183.6</ele>
        <time>2024-09-18T10:07:59Z</time>
      </trkpt>
      <trkpt lat="46.76302" lon="4.90136">
        <ele>183.6</ele>
        <time>2024-09-18T10:08:00Z</time>
      </trkpt>
      <trkpt lat="46.76297" lon="4.90136">
        <ele>183.6</ele>
        <time>2024-09-18T10:08:01Z</time>
      </trkpt>
      <trkpt lat="46.76293" lon="4.90136">
        <ele>183.8</ele>
        <time>2024-09-18T10:08:02Z</time>
      </trkpt>
      <trkpt lat="46.76288" lon="4.90136">
        <ele>183.8</ele>
        <time>2024-09-18T10:08:03Z</time>
      </trkpt>
      <trkpt lat="46.76283" lon="4.90136">
        <ele>183.8</ele>
        <time>2024-09-18T10:08:04Z</time>
      </trkpt>
      <trkpt lat="46.76279" lon="4.90136">
        <ele>183.8</ele>
        <time>2024-09-18T10:08:05Z</time>
      </trkpt>
      <trkpt lat="46.76274" lon="4.90136">
        <ele>183.8</ele>
        <time>2024-09-18T10:08:06Z</time>
      </trkpt>
      <trkpt lat="46.7627" lon="4.90135">
        <ele>183.8</ele>
        <time>2024-09-18T10:08:07Z</time>
      </trkpt>
      <trkpt lat="46.76266" lon="4.90134">
        <ele>183.8</ele>
        <time>2024-09-18T10:08:08Z</time>
      </trkpt>
      <trkpt lat="46.76262" lon="4.90133">
        <ele>183.8</ele>
        <time>2024-09-18T10:08:09Z</time>
      </trkpt>
      <trkpt lat="46.76257" lon="4.90133">
        <ele>183.8</ele>
        <time>2024-09-18T10:08:10Z</time>
      </trkpt>
      <trkpt lat="46.76251" lon="4.90133">
        <ele>184</ele>
        <time>2024-09-18T10:08:11Z</time>
      </trkpt>
      <trkpt lat="46.76249" lon="4.90133">
        <ele>184</ele>
        <time>2024-09-18T10:08:12Z</time>
      </trkpt>
      <trkpt lat="46.76245" lon="4.90133">
        <ele>184</ele>
        <time>2024-09-18T10:08:13Z</time>
      </trkpt>
      <trkpt lat="46.76241" lon="4.90132">
        <ele>184</ele>
        <time>2024-09-18T10:08:14Z</time>
      </trkpt>
      <trkpt lat="46.76238" lon="4.90132">
        <ele>184</ele>
        <time>2024-09-18T10:08:15Z</time>
      </trkpt>
      <trkpt lat="46.76234" lon="4.90131">
        <ele>184</ele>
        <time>2024-09-18T10:08:16Z</time>
      </trkpt>
      <trkpt lat="46.7623" lon="4.90131">
        <ele>184</ele>
        <time>2024-09-18T10:08:17Z</time>
      </trkpt>
      <trkpt lat="46.76226" lon="4.9013">
        <ele>184</ele>
        <time>2024-09-18T10:08:18Z</time>
      </trkpt>
      <trkpt lat="46.76223" lon="4.90129">
        <ele>184</ele>
        <time>2024-09-18T10:08:19Z</time>
      </trkpt>
      <trkpt lat="46.76218" lon="4.90129">
        <ele>184</ele>
        <time>2024-09-18T10:08:20Z</time>
      </trkpt>
      <trkpt lat="46.76214" lon="4.90128">
        <ele>184</ele>
        <time>2024-09-18T10:08:21Z</time>
      </trkpt>
      <trkpt lat="46.7621" lon="4.90127">
        <ele>184</ele>
        <time>2024-09-18T10:08:22Z</time>
      </trkpt>
      <trkpt lat="46.76205" lon="4.90126">
        <ele>184</ele>
        <time>2024-09-18T10:08:23Z</time>
      </trkpt>
      <trkpt lat="46.76201" lon="4.90126">
        <ele>183.8</ele>
        <time>2024-09-18T10:08:24Z</time>
      </trkpt>
      <trkpt lat="46.76196" lon="4.90125">
        <ele>183.8</ele>
        <time>2024-09-18T10:08:25Z</time>
      </trkpt>
      <trkpt lat="46.76191" lon="4.90124">
        <ele>183.8</ele>
        <time>2024-09-18T10:08:26Z</time>
      </trkpt>
      <trkpt lat="46.76186" lon="4.90124">
        <ele>184</ele>
        <time>2024-09-18T10:08:27Z</time>
      </trkpt>
      <trkpt lat="46.76179" lon="4.90124">
        <ele>184</ele>
        <time>2024-09-18T10:08:28Z</time>
      </trkpt>
      <trkpt lat="46.76176" lon="4.90124">
        <ele>184</ele>
        <time>2024-09-18T10:08:29Z</time>
      </trkpt>
      <trkpt lat="46.76171" lon="4.90124">
        <ele>184</ele>
        <time>2024-09-18T10:08:30Z</time>
      </trkpt>
      <trkpt lat="46.76166" lon="4.90123">
        <ele>184</ele>
        <time>2024-09-18T10:08:31Z</time>
      </trkpt>
      <trkpt lat="46.76161" lon="4.90123">
        <ele>184</ele>
        <time>2024-09-18T10:08:32Z</time>
      </trkpt>
      <trkpt lat="46.76156" lon="4.90122">
        <ele>184</ele>
        <time>2024-09-18T10:08:33Z</time>
      </trkpt>
      <trkpt lat="46.76151" lon="4.90122">
        <ele>184</ele>
        <time>2024-09-18T10:08:34Z</time>
      </trkpt>
      <trkpt lat="46.76147" lon="4.90121">
        <ele>184</ele>
        <time>2024-09-18T10:08:35Z</time>
      </trkpt>
      <trkpt lat="46.76142" lon="4.9012">
        <ele>184</ele>
        <time>2024-09-18T10:08:36Z</time>
      </trkpt>
      <trkpt lat="46.76137" lon="4.9012">
        <ele>184.2</ele>
        <time>2024-09-18T10:08:37Z</time>
      </trkpt>
      <trkpt lat="46.76132" lon="4.90119">
        <ele>184.2</ele>
        <time>2024-09-18T10:08:38Z</time>
      </trkpt>
      <trkpt lat="46.76127" lon="4.90119">
        <ele>184.2</ele>
        <time>2024-09-18T10:08:39Z</time>
      </trkpt>
      <trkpt lat="46.76122" lon="4.90119">
        <ele>184.2</ele>
        <time>2024-09-18T10:08:40Z</time>
      </trkpt>
      <trkpt lat="46.76117" lon="4.90118">
        <ele>184.2</ele>
        <time>2024-09-18T10:08:41Z</time>
      </trkpt>
      <trkpt lat="46.76112" lon="4.90118">
        <ele>184.2</ele>
        <time>2024-09-18T10:08:42Z</time>
      </trkpt>
      <trkpt lat="46.76107" lon="4.90118">
        <ele>184.2</ele>
        <time>2024-09-18T10:08:43Z</time>
      </trkpt>
      <trkpt lat="46.76102" lon="4.90117">
        <ele>184.2</ele>
        <time>2024-09-18T10:08:44Z</time>
      </trkpt>
      <trkpt lat="46.76097" lon="4.90117">
        <ele>184.2</ele>
        <time>2024-09-18T10:08:45Z</time>
      </trkpt>
      <trkpt lat="46.76092" lon="4.90117">
        <ele>184.2</ele>
        <time>2024-09-18T10:08:46Z</time>
      </trkpt>
      <trkpt lat="46.76087" lon="4.90116">
        <ele>184</ele>
        <time>2024-09-18T10:08:47Z</time>
      </trkpt>
      <trkpt lat="46.76082" lon="4.90115">
        <ele>184</ele>
        <time>2024-09-18T10:08:48Z</time>
      </trkpt>
      <trkpt lat="46.76077" lon="4.90115">
        <ele>184</ele>
        <time>2024-09-18T10:08:49Z</time>
      </trkpt>
      <trkpt lat="46.76072" lon="4.90114">
        <ele>184</ele>
        <time>2024-09-18T10:08:50Z</time>
      </trkpt>
      <trkpt lat="46.76067" lon="4.90113">
        <ele>184.2</ele>
        <time>2024-09-18T10:08:51Z</time>
      </trkpt>
      <trkpt lat="46.76062" lon="4.90113">
        <ele>184.2</ele>
        <time>2024-09-18T10:08:52Z</time>
      </trkpt>
      <trkpt lat="46.76057" lon="4.90112">
        <ele>184.2</ele>
        <time>2024-09-18T10:08:53Z</time>
      </trkpt>
      <trkpt lat="46.76052" lon="4.90112">
        <ele>184.2</ele>
        <time>2024-09-18T10:08:54Z</time>
      </trkpt>
      <trkpt lat="46.76047" lon="4.90111">
        <ele>184.4</ele>
        <time>2024-09-18T10:08:55Z</time>
      </trkpt>
      <trkpt lat="46.76042" lon="4.90111">
        <ele>184.4</ele>
        <time>2024-09-18T10:08:56Z</time>
      </trkpt>
      <trkpt lat="46.76037" lon="4.9011">
        <ele>184.4</ele>
        <time>2024-09-18T10:08:57Z</time>
      </trkpt>
      <trkpt lat="46.76032" lon="4.90109">
        <ele>184.4</ele>
        <time>2024-09-18T10:08:58Z</time>
      </trkpt>
      <trkpt lat="46.76027" lon="4.90109">
        <ele>184.4</ele>
        <time>2024-09-18T10:08:59Z</time>
      </trkpt>
      <trkpt lat="46.76022" lon="4.90109">
        <ele>184.4</ele>
        <time>2024-09-18T10:09:00Z</time>
      </trkpt>
      <trkpt lat="46.76017" lon="4.90108">
        <ele>184.4</ele>
        <time>2024-09-18T10:09:01Z</time>
      </trkpt>
      <trkpt lat="46.76012" lon="4.90107">
        <ele>184.4</ele>
        <time>2024-09-18T10:09:02Z</time>
      </trkpt>
      <trkpt lat="46.76007" lon="4.90107">
        <ele>184.4</ele>
        <time>2024-09-18T10:09:03Z</time>
      </trkpt>
      <trkpt lat="46.76002" lon="4.90106">
        <ele>184.4</ele>
        <time>2024-09-18T10:09:04Z</time>
      </trkpt>
      <trkpt lat="46.75997" lon="4.90106">
        <ele>184.4</ele>
        <time>2024-09-18T10:09:05Z</time>
      </trkpt>
      <trkpt lat="46.75993" lon="4.90105">
        <ele>184.4</ele>
        <time>2024-09-18T10:09:06Z</time>
      </trkpt>
      <trkpt lat="46.75988" lon="4.90105">
        <ele>184.4</ele>
        <time>2024-09-18T10:09:07Z</time>
      </trkpt>
      <trkpt lat="46.75983" lon="4.90104">
        <ele>184.4</ele>
        <time>2024-09-18T10:09:08Z</time>
      </trkpt>
      <trkpt lat="46.75978" lon="4.90104">
        <ele>184.4</ele>
        <time>2024-09-18T10:09:09Z</time>
      </trkpt>
      <trkpt lat="46.75973" lon="4.90103">
        <ele>184.4</ele>
        <time>2024-09-18T10:09:10Z</time>
      </trkpt>
      <trkpt lat="46.75968" lon="4.90103">
        <ele>184.4</ele>
        <time>2024-09-18T10:09:11Z</time>
      </trkpt>
      <trkpt lat="46.7596" lon="4.90102">
        <ele>184.4</ele>
        <time>2024-09-18T10:09:12Z</time>
      </trkpt>
      <trkpt lat="46.75958" lon="4.90102">
        <ele>184.4</ele>
        <time>2024-09-18T10:09:13Z</time>
      </trkpt>
      <trkpt lat="46.75953" lon="4.90101">
        <ele>184.4</ele>
        <time>2024-09-18T10:09:14Z</time>
      </trkpt>
      <trkpt lat="46.75948" lon="4.90101">
        <ele>184.4</ele>
        <time>2024-09-18T10:09:15Z</time>
      </trkpt>
      <trkpt lat="46.75943" lon="4.90101">
        <ele>184.2</ele>
        <time>2024-09-18T10:09:16Z</time>
      </trkpt>
      <trkpt lat="46.75938" lon="4.901">
        <ele>184.4</ele>
        <time>2024-09-18T10:09:17Z</time>
      </trkpt>
      <trkpt lat="46.75934" lon="4.90098">
        <ele>184.4</ele>
        <time>2024-09-18T10:09:18Z</time>
      </trkpt>
      <trkpt lat="46.75929" lon="4.90097">
        <ele>184.4</ele>
        <time>2024-09-18T10:09:19Z</time>
      </trkpt>
      <trkpt lat="46.75925" lon="4.90097">
        <ele>184</ele>
        <time>2024-09-18T10:09:20Z</time>
      </trkpt>
      <trkpt lat="46.7592" lon="4.90097">
        <ele>184</ele>
        <time>2024-09-18T10:09:21Z</time>
      </trkpt>
      <trkpt lat="46.75916" lon="4.90097">
        <ele>184</ele>
        <time>2024-09-18T10:09:22Z</time>
      </trkpt>
      <trkpt lat="46.75911" lon="4.90097">
        <ele>184</ele>
        <time>2024-09-18T10:09:23Z</time>
      </trkpt>
      <trkpt lat="46.75907" lon="4.90096">
        <ele>184</ele>
        <time>2024-09-18T10:09:24Z</time>
      </trkpt>
      <trkpt lat="46.75901" lon="4.90095">
        <ele>184</ele>
        <time>2024-09-18T10:09:25Z</time>
      </trkpt>
      <trkpt lat="46.75899" lon="4.90095">
        <ele>184</ele>
        <time>2024-09-18T10:09:26Z</time>
      </trkpt>
      <trkpt lat="46.75895" lon="4.90095">
        <ele>184</ele>
        <time>2024-09-18T10:09:27Z</time>
      </trkpt>
      <trkpt lat="46.7589" lon="4.90094">
        <ele>184</ele>
        <time>2024-09-18T10:09:28Z</time>
      </trkpt>
      <trkpt lat="46.75886" lon="4.90093">
        <ele>184</ele>
        <time>2024-09-18T10:09:29Z</time>
      </trkpt>
      <trkpt lat="46.75881" lon="4.90092">
        <ele>184</ele>
        <time>2024-09-18T10:09:30Z</time>
      </trkpt>
      <trkpt lat="46.75877" lon="4.90091">
        <ele>184</ele>
        <time>2024-09-18T10:09:31Z</time>
      </trkpt>
      <trkpt lat="46.75872" lon="4.9009">
        <ele>184</ele>
        <time>2024-09-18T10:09:32Z</time>
      </trkpt>
      <trkpt lat="46.75867" lon="4.90089">
        <ele>184</ele>
        <time>2024-09-18T10:09:33Z</time>
      </trkpt>
      <trkpt lat="46.75862" lon="4.90089">
        <ele>184.4</ele>
        <time>2024-09-18T10:09:34Z</time>
      </trkpt>
      <trkpt lat="46.75857" lon="4.90088">
        <ele>184.4</ele>
        <time>2024-09-18T10:09:35Z</time>
      </trkpt>
      <trkpt lat="46.75853" lon="4.90087">
        <ele>184.4</ele>
        <time>2024-09-18T10:09:36Z</time>
      </trkpt>
      <trkpt lat="46.75848" lon="4.90087">
        <ele>184.4</ele>
        <time>2024-09-18T10:09:37Z</time>
      </trkpt>
      <trkpt lat="46.75844" lon="4.90086">
        <ele>184.4</ele>
        <time>2024-09-18T10:09:38Z</time>
      </trkpt>
      <trkpt lat="46.75839" lon="4.90086">
        <ele>184.6</ele>
        <time>2024-09-18T10:09:39Z</time>
      </trkpt>
      <trkpt lat="46.75834" lon="4.90085">
        <ele>184.4</ele>
        <time>2024-09-18T10:09:40Z</time>
      </trkpt>
      <trkpt lat="46.7583" lon="4.90084">
        <ele>184.4</ele>
        <time>2024-09-18T10:09:41Z</time>
      </trkpt>
      <trkpt lat="46.75825" lon="4.90084">
        <ele>184.4</ele>
        <time>2024-09-18T10:09:42Z</time>
      </trkpt>
      <trkpt lat="46.7582" lon="4.90084">
        <ele>184.4</ele>
        <time>2024-09-18T10:09:43Z</time>
      </trkpt>
      <trkpt lat="46.75815" lon="4.90084">
        <ele>184.4</ele>
        <time>2024-09-18T10:09:44Z</time>
      </trkpt>
      <trkpt lat="46.75811" lon="4.90084">
        <ele>184.8</ele>
        <time>2024-09-18T10:09:45Z</time>
      </trkpt>
      <trkpt lat="46.75806" lon="4.90083">
        <ele>184.8</ele>
        <time>2024-09-18T10:09:46Z</time>
      </trkpt>
      <trkpt lat="46.75802" lon="4.90083">
        <ele>184.8</ele>
        <time>2024-09-18T10:09:47Z</time>
      </trkpt>
      <trkpt lat="46.75797" lon="4.90083">
        <ele>184.4</ele>
        <time>2024-09-18T10:09:48Z</time>
      </trkpt>
      <trkpt lat="46.75792" lon="4.90083">
        <ele>184.6</ele>
        <time>2024-09-18T10:09:49Z</time>
      </trkpt>
      <trkpt lat="46.75788" lon="4.90082">
        <ele>184.6</ele>
        <time>2024-09-18T10:09:50Z</time>
      </trkpt>
      <trkpt lat="46.75783" lon="4.90082">
        <ele>184.6</ele>
        <time>2024-09-18T10:09:51Z</time>
      </trkpt>
      <trkpt lat="46.75778" lon="4.90081">
        <ele>184.6</ele>
        <time>2024-09-18T10:09:52Z</time>
      </trkpt>
      <trkpt lat="46.75774" lon="4.90081">
        <ele>184.6</ele>
        <time>2024-09-18T10:09:53Z</time>
      </trkpt>
      <trkpt lat="46.7577" lon="4.90081">
        <ele>184.6</ele>
        <time>2024-09-18T10:09:54Z</time>
      </trkpt>
      <trkpt lat="46.75765" lon="4.90081">
        <ele>184.6</ele>
        <time>2024-09-18T10:09:55Z</time>
      </trkpt>
      <trkpt lat="46.75761" lon="4.90081">
        <ele>184.6</ele>
        <time>2024-09-18T10:09:56Z</time>
      </trkpt>
      <trkpt lat="46.75756" lon="4.90081">
        <ele>185</ele>
        <time>2024-09-18T10:09:57Z</time>
      </trkpt>
      <trkpt lat="46.75752" lon="4.90081">
        <ele>185</ele>
        <time>2024-09-18T10:09:58Z</time>
      </trkpt>
      <trkpt lat="46.75747" lon="4.90081">
        <ele>185</ele>
        <time>2024-09-18T10:09:59Z</time>
      </trkpt>
      <trkpt lat="46.75743" lon="4.90082">
        <ele>185</ele>
        <time>2024-09-18T10:10:00Z</time>
      </trkpt>
      <trkpt lat="46.75738" lon="4.90082">
        <ele>185</ele>
        <time>2024-09-18T10:10:01Z</time>
      </trkpt>
      <trkpt lat="46.75734" lon="4.90082">
        <ele>185.2</ele>
        <time>2024-09-18T10:10:02Z</time>
      </trkpt>
      <trkpt lat="46.7573" lon="4.90082">
        <ele>185.2</ele>
        <time>2024-09-18T10:10:03Z</time>
      </trkpt>
      <trkpt lat="46.75725" lon="4.90082">
        <ele>185.2</ele>
        <time>2024-09-18T10:10:04Z</time>
      </trkpt>
      <trkpt lat="46.75721" lon="4.90082">
        <ele>185.2</ele>
        <time>2024-09-18T10:10:05Z</time>
      </trkpt>
      <trkpt lat="46.75716" lon="4.90082">
        <ele>185.2</ele>
        <time>2024-09-18T10:10:06Z</time>
      </trkpt>
      <trkpt lat="46.75712" lon="4.90083">
        <ele>185.2</ele>
        <time>2024-09-18T10:10:07Z</time>
      </trkpt>
      <trkpt lat="46.75707" lon="4.90083">
        <ele>185.2</ele>
        <time>2024-09-18T10:10:08Z</time>
      </trkpt>
      <trkpt lat="46.75703" lon="4.90083">
        <ele>185.2</ele>
        <time>2024-09-18T10:10:09Z</time>
      </trkpt>
      <trkpt lat="46.75698" lon="4.90083">
        <ele>185.2</ele>
        <time>2024-09-18T10:10:10Z</time>
      </trkpt>
      <trkpt lat="46.75694" lon="4.90083">
        <ele>185.2</ele>
        <time>2024-09-18T10:10:11Z</time>
      </trkpt>
      <trkpt lat="46.75689" lon="4.90083">
        <ele>185.2</ele>
        <time>2024-09-18T10:10:12Z</time>
      </trkpt>
      <trkpt lat="46.75685" lon="4.90083">
        <ele>185.2</ele>
        <time>2024-09-18T10:10:13Z</time>
      </trkpt>
      <trkpt lat="46.7568" lon="4.90083">
        <ele>185.2</ele>
        <time>2024-09-18T10:10:14Z</time>
      </trkpt>
      <trkpt lat="46.75676" lon="4.90084">
        <ele>185.4</ele>
        <time>2024-09-18T10:10:15Z</time>
      </trkpt>
      <trkpt lat="46.75672" lon="4.90084">
        <ele>185.8</ele>
        <time>2024-09-18T10:10:16Z</time>
      </trkpt>
      <trkpt lat="46.75667" lon="4.90084">
        <ele>185.8</ele>
        <time>2024-09-18T10:10:17Z</time>
      </trkpt>
      <trkpt lat="46.75663" lon="4.90085">
        <ele>185.8</ele>
        <time>2024-09-18T10:10:18Z</time>
      </trkpt>
      <trkpt lat="46.75659" lon="4.90085">
        <ele>185.8</ele>
        <time>2024-09-18T10:10:19Z</time>
      </trkpt>
      <trkpt lat="46.75654" lon="4.90086">
        <ele>185.8</ele>
        <time>2024-09-18T10:10:20Z</time>
      </trkpt>
      <trkpt lat="46.7565" lon="4.90086">
        <ele>185.8</ele>
        <time>2024-09-18T10:10:21Z</time>
      </trkpt>
      <trkpt lat="46.75646" lon="4.90087">
        <ele>185.8</ele>
        <time>2024-09-18T10:10:22Z</time>
      </trkpt>
      <trkpt lat="46.75641" lon="4.90088">
        <ele>186</ele>
        <time>2024-09-18T10:10:23Z</time>
      </trkpt>
      <trkpt lat="46.75637" lon="4.90088">
        <ele>186</ele>
        <time>2024-09-18T10:10:24Z</time>
      </trkpt>
      <trkpt lat="46.75633" lon="4.90089">
        <ele>186</ele>
        <time>2024-09-18T10:10:25Z</time>
      </trkpt>
      <trkpt lat="46.75628" lon="4.9009">
        <ele>186</ele>
        <time>2024-09-18T10:10:26Z</time>
      </trkpt>
      <trkpt lat="46.75624" lon="4.90091">
        <ele>186</ele>
        <time>2024-09-18T10:10:27Z</time>
      </trkpt>
      <trkpt lat="46.7562" lon="4.90092">
        <ele>186.4</ele>
        <time>2024-09-18T10:10:28Z</time>
      </trkpt>
      <trkpt lat="46.75615" lon="4.90092">
        <ele>186.4</ele>
        <time>2024-09-18T10:10:29Z</time>
      </trkpt>
      <trkpt lat="46.75611" lon="4.90093">
        <ele>186</ele>
        <time>2024-09-18T10:10:30Z</time>
      </trkpt>
      <trkpt lat="46.75606" lon="4.90094">
        <ele>186</ele>
        <time>2024-09-18T10:10:31Z</time>
      </trkpt>
      <trkpt lat="46.75602" lon="4.90096">
        <ele>186.2</ele>
        <time>2024-09-18T10:10:32Z</time>
      </trkpt>
      <trkpt lat="46.75598" lon="4.90097">
        <ele>186.2</ele>
        <time>2024-09-18T10:10:33Z</time>
      </trkpt>
      <trkpt lat="46.75593" lon="4.90098">
        <ele>186.4</ele>
        <time>2024-09-18T10:10:34Z</time>
      </trkpt>
      <trkpt lat="46.75589" lon="4.90099">
        <ele>186.4</ele>
        <time>2024-09-18T10:10:35Z</time>
      </trkpt>
      <trkpt lat="46.75586" lon="4.90101">
        <ele>186.4</ele>
        <time>2024-09-18T10:10:36Z</time>
      </trkpt>
      <trkpt lat="46.75579" lon="4.90103">
        <ele>186.4</ele>
        <time>2024-09-18T10:10:37Z</time>
      </trkpt>
      <trkpt lat="46.75577" lon="4.90103">
        <ele>186.4</ele>
        <time>2024-09-18T10:10:38Z</time>
      </trkpt>
      <trkpt lat="46.75574" lon="4.90105">
        <ele>186.8</ele>
        <time>2024-09-18T10:10:39Z</time>
      </trkpt>
      <trkpt lat="46.7557" lon="4.90106">
        <ele>186.8</ele>
        <time>2024-09-18T10:10:40Z</time>
      </trkpt>
      <trkpt lat="46.75566" lon="4.90108">
        <ele>186.8</ele>
        <time>2024-09-18T10:10:41Z</time>
      </trkpt>
      <trkpt lat="46.75562" lon="4.90109">
        <ele>186.8</ele>
        <time>2024-09-18T10:10:42Z</time>
      </trkpt>
      <trkpt lat="46.75558" lon="4.90111">
        <ele>186.8</ele>
        <time>2024-09-18T10:10:43Z</time>
      </trkpt>
      <trkpt lat="46.75554" lon="4.90112">
        <ele>186.8</ele>
        <time>2024-09-18T10:10:44Z</time>
      </trkpt>
      <trkpt lat="46.7555" lon="4.90114">
        <ele>186.8</ele>
        <time>2024-09-18T10:10:45Z</time>
      </trkpt>
      <trkpt lat="46.75546" lon="4.90116">
        <ele>187</ele>
        <time>2024-09-18T10:10:46Z</time>
      </trkpt>
      <trkpt lat="46.75542" lon="4.90117">
        <ele>187</ele>
        <time>2024-09-18T10:10:47Z</time>
      </trkpt>
      <trkpt lat="46.75538" lon="4.90118">
        <ele>187.4</ele>
        <time>2024-09-18T10:10:48Z</time>
      </trkpt>
      <trkpt lat="46.75534" lon="4.90119">
        <ele>187.4</ele>
        <time>2024-09-18T10:10:49Z</time>
      </trkpt>
      <trkpt lat="46.7553" lon="4.9012">
        <ele>187.4</ele>
        <time>2024-09-18T10:10:50Z</time>
      </trkpt>
      <trkpt lat="46.75526" lon="4.90121">
        <ele>187.4</ele>
        <time>2024-09-18T10:10:51Z</time>
      </trkpt>
      <trkpt lat="46.75522" lon="4.90123">
        <ele>187.4</ele>
        <time>2024-09-18T10:10:52Z</time>
      </trkpt>
      <trkpt lat="46.75518" lon="4.90124">
        <ele>187.4</ele>
        <time>2024-09-18T10:10:53Z</time>
      </trkpt>
      <trkpt lat="46.75514" lon="4.90125">
        <ele>187.4</ele>
        <time>2024-09-18T10:10:54Z</time>
      </trkpt>
      <trkpt lat="46.7551" lon="4.90125">
        <ele>187.6</ele>
        <time>2024-09-18T10:10:55Z</time>
      </trkpt>
      <trkpt lat="46.75506" lon="4.90124">
        <ele>187.4</ele>
        <time>2024-09-18T10:10:56Z</time>
      </trkpt>
      <trkpt lat="46.75502" lon="4.90122">
        <ele>187.4</ele>
        <time>2024-09-18T10:10:57Z</time>
      </trkpt>
      <trkpt lat="46.75498" lon="4.90119">
        <ele>187.4</ele>
        <time>2024-09-18T10:10:58Z</time>
      </trkpt>
      <trkpt lat="46.75494" lon="4.90116">
        <ele>187.4</ele>
        <time>2024-09-18T10:10:59Z</time>
      </trkpt>
      <trkpt lat="46.75491" lon="4.90112">
        <ele>187.4</ele>
        <time>2024-09-18T10:11:00Z</time>
      </trkpt>
      <trkpt lat="46.75487" lon="4.90107">
        <ele>187.2</ele>
        <time>2024-09-18T10:11:01Z</time>
      </trkpt>
      <trkpt lat="46.75484" lon="4.90103">
        <ele>187.2</ele>
        <time>2024-09-18T10:11:02Z</time>
      </trkpt>
      <trkpt lat="46.75482" lon="4.90097">
        <ele>187.2</ele>
        <time>2024-09-18T10:11:03Z</time>
      </trkpt>
      <trkpt lat="46.7548" lon="4.90092">
        <ele>187</ele>
        <time>2024-09-18T10:11:04Z</time>
      </trkpt>
      <trkpt lat="46.75479" lon="4.90086">
        <ele>187</ele>
        <time>2024-09-18T10:11:05Z</time>
      </trkpt>
      <trkpt lat="46.75477" lon="4.90081">
        <ele>187</ele>
        <time>2024-09-18T10:11:06Z</time>
      </trkpt>
      <trkpt lat="46.75475" lon="4.90076">
        <ele>187</ele>
        <time>2024-09-18T10:11:07Z</time>
      </trkpt>
      <trkpt lat="46.75474" lon="4.90071">
        <ele>187</ele>
        <time>2024-09-18T10:11:08Z</time>
      </trkpt>
      <trkpt lat="46.75473" lon="4.90066">
        <ele>186.8</ele>
        <time>2024-09-18T10:11:09Z</time>
      </trkpt>
      <trkpt lat="46.75473" lon="4.90061">
        <ele>186.8</ele>
        <time>2024-09-18T10:11:10Z</time>
      </trkpt>
      <trkpt lat="46.75472" lon="4.90056">
        <ele>186.8</ele>
        <time>2024-09-18T10:11:11Z</time>
      </trkpt>
      <trkpt lat="46.75471" lon="4.90053">
        <ele>186.8</ele>
        <time>2024-09-18T10:11:12Z</time>
      </trkpt>
      <trkpt lat="46.7547" lon="4.9005">
        <ele>186.8</ele>
        <time>2024-09-18T10:11:13Z</time>
      </trkpt>
      <trkpt lat="46.75469" lon="4.90049">
        <ele>186.8</ele>
        <time>2024-09-18T10:11:14Z</time>
      </trkpt>
      <trkpt lat="46.75468" lon="4.90051">
        <ele>186.6</ele>
        <time>2024-09-18T10:11:15Z</time>
      </trkpt>
      <trkpt lat="46.75468" lon="4.90053">
        <ele>186.6</ele>
        <time>2024-09-18T10:11:16Z</time>
      </trkpt>
      <trkpt lat="46.75469" lon="4.90055">
        <ele>186.6</ele>
        <time>2024-09-18T10:11:17Z</time>
      </trkpt>
      <trkpt lat="46.7547" lon="4.90058">
        <ele>186.6</ele>
        <time>2024-09-18T10:11:18Z</time>
      </trkpt>
      <trkpt lat="46.75471" lon="4.90062">
        <ele>186.6</ele>
        <time>2024-09-18T10:11:19Z</time>
      </trkpt>
      <trkpt lat="46.75472" lon="4.90066">
        <ele>186.6</ele>
        <time>2024-09-18T10:11:20Z</time>
      </trkpt>
      <trkpt lat="46.75472" lon="4.9007">
        <ele>186.6</ele>
        <time>2024-09-18T10:11:21Z</time>
      </trkpt>
      <trkpt lat="46.75473" lon="4.90074">
        <ele>186.8</ele>
        <time>2024-09-18T10:11:22Z</time>
      </trkpt>
      <trkpt lat="46.75474" lon="4.90078">
        <ele>186.6</ele>
        <time>2024-09-18T10:11:23Z</time>
      </trkpt>
      <trkpt lat="46.75475" lon="4.90082">
        <ele>186.6</ele>
        <time>2024-09-18T10:11:24Z</time>
      </trkpt>
      <trkpt lat="46.75477" lon="4.90086">
        <ele>186.6</ele>
        <time>2024-09-18T10:11:25Z</time>
      </trkpt>
      <trkpt lat="46.75478" lon="4.9009">
        <ele>186.6</ele>
        <time>2024-09-18T10:11:26Z</time>
      </trkpt>
      <trkpt lat="46.7548" lon="4.90094">
        <ele>186.8</ele>
        <time>2024-09-18T10:11:27Z</time>
      </trkpt>
      <trkpt lat="46.75481" lon="4.90099">
        <ele>186.8</ele>
        <time>2024-09-18T10:11:28Z</time>
      </trkpt>
      <trkpt lat="46.75482" lon="4.90103">
        <ele>186.8</ele>
        <time>2024-09-18T10:11:29Z</time>
      </trkpt>
      <trkpt lat="46.75483" lon="4.90107">
        <ele>186.8</ele>
        <time>2024-09-18T10:11:30Z</time>
      </trkpt>
      <trkpt lat="46.75483" lon="4.90111">
        <ele>186.8</ele>
        <time>2024-09-18T10:11:31Z</time>
      </trkpt>
      <trkpt lat="46.75483" lon="4.90115">
        <ele>187</ele>
        <time>2024-09-18T10:11:32Z</time>
      </trkpt>
      <trkpt lat="46.75483" lon="4.90118">
        <ele>187</ele>
        <time>2024-09-18T10:11:33Z</time>
      </trkpt>
      <trkpt lat="46.75484" lon="4.90122">
        <ele>187</ele>
        <time>2024-09-18T10:11:34Z</time>
      </trkpt>
      <trkpt lat="46.75485" lon="4.90125">
        <ele>187</ele>
        <time>2024-09-18T10:11:35Z</time>
      </trkpt>
      <trkpt lat="46.75486" lon="4.90128">
        <ele>187</ele>
        <time>2024-09-18T10:11:36Z</time>
      </trkpt>
      <trkpt lat="46.75487" lon="4.9013">
        <ele>187.2</ele>
        <time>2024-09-18T10:11:37Z</time>
      </trkpt>
      <trkpt lat="46.75487" lon="4.90133">
        <ele>187.2</ele>
        <time>2024-09-18T10:11:38Z</time>
      </trkpt>
      <trkpt lat="46.75487" lon="4.90135">
        <ele>187.2</ele>
        <time>2024-09-18T10:11:39Z</time>
      </trkpt>
      <trkpt lat="46.75486" lon="4.90138">
        <ele>187.4</ele>
        <time>2024-09-18T10:11:40Z</time>
      </trkpt>
      <trkpt lat="46.75486" lon="4.90141">
        <ele>187.4</ele>
        <time>2024-09-18T10:11:41Z</time>
      </trkpt>
      <trkpt lat="46.75486" lon="4.90144">
        <ele>187.4</ele>
        <time>2024-09-18T10:11:42Z</time>
      </trkpt>
      <trkpt lat="46.75486" lon="4.90146">
        <ele>187.4</ele>
        <time>2024-09-18T10:11:43Z</time>
      </trkpt>
      <trkpt lat="46.75484" lon="4.90148">
        <ele>187.4</ele>
        <time>2024-09-18T10:11:44Z</time>
      </trkpt>
      <trkpt lat="46.75482" lon="4.90149">
        <ele>187.6</ele>
        <time>2024-09-18T10:11:45Z</time>
      </trkpt>
      <trkpt lat="46.7548" lon="4.9015">
        <ele>187.6</ele>
        <time>2024-09-18T10:11:46Z</time>
      </trkpt>
      <trkpt lat="46.75478" lon="4.90151">
        <ele>187.6</ele>
        <time>2024-09-18T10:11:47Z</time>
      </trkpt>
      <trkpt lat="46.75475" lon="4.90152">
        <ele>187.6</ele>
        <time>2024-09-18T10:11:48Z</time>
      </trkpt>
      <trkpt lat="46.75472" lon="4.90153">
        <ele>187.4</ele>
        <time>2024-09-18T10:11:49Z</time>
      </trkpt>
      <trkpt lat="46.7547" lon="4.90154">
        <ele>187.4</ele>
        <time>2024-09-18T10:11:50Z</time>
      </trkpt>
      <trkpt lat="46.75467" lon="4.90155">
        <ele>187.4</ele>
        <time>2024-09-18T10:11:51Z</time>
      </trkpt>
      <trkpt lat="46.75464" lon="4.90157">
        <ele>187.4</ele>
        <time>2024-09-18T10:11:52Z</time>
      </trkpt>
      <trkpt lat="46.75462" lon="4.90158">
        <ele>187.4</ele>
        <time>2024-09-18T10:11:53Z</time>
      </trkpt>
      <trkpt lat="46.7546" lon="4.9016">
        <ele>187.4</ele>
        <time>2024-09-18T10:11:54Z</time>
      </trkpt>
      <trkpt lat="46.75457" lon="4.90161">
        <ele>187.4</ele>
        <time>2024-09-18T10:11:55Z</time>
      </trkpt>
      <trkpt lat="46.75455" lon="4.90163">
        <ele>187.4</ele>
        <time>2024-09-18T10:11:56Z</time>
      </trkpt>
      <trkpt lat="46.75453" lon="4.90165">
        <ele>187.4</ele>
        <time>2024-09-18T10:11:57Z</time>
      </trkpt>
      <trkpt lat="46.7545" lon="4.90166">
        <ele>187.6</ele>
        <time>2024-09-18T10:11:58Z</time>
      </trkpt>
      <trkpt lat="46.75448" lon="4.90168">
        <ele>187.6</ele>
        <time>2024-09-18T10:11:59Z</time>
      </trkpt>
      <trkpt lat="46.75445" lon="4.90169">
        <ele>187.6</ele>
        <time>2024-09-18T10:12:00Z</time>
      </trkpt>
      <trkpt lat="46.75442" lon="4.9017">
        <ele>187.6</ele>
        <time>2024-09-18T10:12:01Z</time>
      </trkpt>
      <trkpt lat="46.7544" lon="4.90172">
        <ele>187.6</ele>
        <time>2024-09-18T10:12:02Z</time>
      </trkpt>
      <trkpt lat="46.75437" lon="4.90174">
        <ele>187.8</ele>
        <time>2024-09-18T10:12:03Z</time>
      </trkpt>
      <trkpt lat="46.75433" lon="4.90176">
        <ele>187.8</ele>
        <time>2024-09-18T10:12:04Z</time>
      </trkpt>
      <trkpt lat="46.7543" lon="4.90177">
        <ele>187.8</ele>
        <time>2024-09-18T10:12:05Z</time>
      </trkpt>
      <trkpt lat="46.75427" lon="4.90179">
        <ele>188</ele>
        <time>2024-09-18T10:12:06Z</time>
      </trkpt>
      <trkpt lat="46.75423" lon="4.9018">
        <ele>188</ele>
        <time>2024-09-18T10:12:07Z</time>
      </trkpt>
      <trkpt lat="46.7542" lon="4.90182">
        <ele>188</ele>
        <time>2024-09-18T10:12:08Z</time>
      </trkpt>
      <trkpt lat="46.75416" lon="4.90184">
        <ele>188</ele>
        <time>2024-09-18T10:12:09Z</time>
      </trkpt>
      <trkpt lat="46.75413" lon="4.90186">
        <ele>188</ele>
        <time>2024-09-18T10:12:10Z</time>
      </trkpt>
      <trkpt lat="46.75409" lon="4.90188">
        <ele>188.2</ele>
        <time>2024-09-18T10:12:11Z</time>
      </trkpt>
      <trkpt lat="46.75406" lon="4.90189">
        <ele>188.2</ele>
        <time>2024-09-18T10:12:12Z</time>
      </trkpt>
      <trkpt lat="46.75402" lon="4.9019">
        <ele>188.2</ele>
        <time>2024-09-18T10:12:13Z</time>
      </trkpt>
      <trkpt lat="46.75399" lon="4.90192">
        <ele>188.2</ele>
        <time>2024-09-18T10:12:14Z</time>
      </trkpt>
      <trkpt lat="46.75395" lon="4.90193">
        <ele>188.2</ele>
        <time>2024-09-18T10:12:15Z</time>
      </trkpt>
      <trkpt lat="46.75391" lon="4.90195">
        <ele>188.4</ele>
        <time>2024-09-18T10:12:16Z</time>
      </trkpt>
      <trkpt lat="46.75387" lon="4.90196">
        <ele>188.4</ele>
        <time>2024-09-18T10:12:17Z</time>
      </trkpt>
      <trkpt lat="46.75383" lon="4.90198">
        <ele>188.4</ele>
        <time>2024-09-18T10:12:18Z</time>
      </trkpt>
      <trkpt lat="46.7538" lon="4.902">
        <ele>188.4</ele>
        <time>2024-09-18T10:12:19Z</time>
      </trkpt>
      <trkpt lat="46.75376" lon="4.90202">
        <ele>188.4</ele>
        <time>2024-09-18T10:12:20Z</time>
      </trkpt>
      <trkpt lat="46.75372" lon="4.90204">
        <ele>188.6</ele>
        <time>2024-09-18T10:12:21Z</time>
      </trkpt>
      <trkpt lat="46.75368" lon="4.90207">
        <ele>188.8</ele>
        <time>2024-09-18T10:12:22Z</time>
      </trkpt>
      <trkpt lat="46.75364" lon="4.90209">
        <ele>188.8</ele>
        <time>2024-09-18T10:12:23Z</time>
      </trkpt>
      <trkpt lat="46.75361" lon="4.90211">
        <ele>188.8</ele>
        <time>2024-09-18T10:12:24Z</time>
      </trkpt>
      <trkpt lat="46.75357" lon="4.90212">
        <ele>188.8</ele>
        <time>2024-09-18T10:12:25Z</time>
      </trkpt>
      <trkpt lat="46.75353" lon="4.90214">
        <ele>188.6</ele>
        <time>2024-09-18T10:12:26Z</time>
      </trkpt>
      <trkpt lat="46.75349" lon="4.90215">
        <ele>188.6</ele>
        <time>2024-09-18T10:12:27Z</time>
      </trkpt>
      <trkpt lat="46.75345" lon="4.90217">
        <ele>188.6</ele>
        <time>2024-09-18T10:12:28Z</time>
      </trkpt>
      <trkpt lat="46.75341" lon="4.90219">
        <ele>188.6</ele>
        <time>2024-09-18T10:12:29Z</time>
      </trkpt>
      <trkpt lat="46.75337" lon="4.90221">
        <ele>188.6</ele>
        <time>2024-09-18T10:12:30Z</time>
      </trkpt>
      <trkpt lat="46.75333" lon="4.90223">
        <ele>188.6</ele>
        <time>2024-09-18T10:12:31Z</time>
      </trkpt>
      <trkpt lat="46.75327" lon="4.90225">
        <ele>188.6</ele>
        <time>2024-09-18T10:12:32Z</time>
      </trkpt>
      <trkpt lat="46.75325" lon="4.90226">
        <ele>188.6</ele>
        <time>2024-09-18T10:12:33Z</time>
      </trkpt>
      <trkpt lat="46.75321" lon="4.90228">
        <ele>188.6</ele>
        <time>2024-09-18T10:12:34Z</time>
      </trkpt>
      <trkpt lat="46.75317" lon="4.9023">
        <ele>188.6</ele>
        <time>2024-09-18T10:12:35Z</time>
      </trkpt>
      <trkpt lat="46.75313" lon="4.90232">
        <ele>188.6</ele>
        <time>2024-09-18T10:12:36Z</time>
      </trkpt>
      <trkpt lat="46.75308" lon="4.90233">
        <ele>188.6</ele>
        <time>2024-09-18T10:12:37Z</time>
      </trkpt>
      <trkpt lat="46.75304" lon="4.90235">
        <ele>188.6</ele>
        <time>2024-09-18T10:12:38Z</time>
      </trkpt>
      <trkpt lat="46.753" lon="4.90238">
        <ele>188.6</ele>
        <time>2024-09-18T10:12:39Z</time>
      </trkpt>
      <trkpt lat="46.75297" lon="4.90241">
        <ele>188.6</ele>
        <time>2024-09-18T10:12:40Z</time>
      </trkpt>
      <trkpt lat="46.75293" lon="4.90245">
        <ele>188.6</ele>
        <time>2024-09-18T10:12:41Z</time>
      </trkpt>
      <trkpt lat="46.75289" lon="4.90248">
        <ele>188.6</ele>
        <time>2024-09-18T10:12:42Z</time>
      </trkpt>
      <trkpt lat="46.75285" lon="4.90252">
        <ele>188.6</ele>
        <time>2024-09-18T10:12:43Z</time>
      </trkpt>
      <trkpt lat="46.75282" lon="4.90255">
        <ele>188.6</ele>
        <time>2024-09-18T10:12:44Z</time>
      </trkpt>
      <trkpt lat="46.75276" lon="4.90261">
        <ele>188.6</ele>
        <time>2024-09-18T10:12:45Z</time>
      </trkpt>
      <trkpt lat="46.75275" lon="4.90262">
        <ele>188.6</ele>
        <time>2024-09-18T10:12:46Z</time>
      </trkpt>
      <trkpt lat="46.75271" lon="4.90265">
        <ele>189</ele>
        <time>2024-09-18T10:12:47Z</time>
      </trkpt>
      <trkpt lat="46.75267" lon="4.90268">
        <ele>189</ele>
        <time>2024-09-18T10:12:48Z</time>
      </trkpt>
      <trkpt lat="46.75263" lon="4.90269">
        <ele>189.2</ele>
        <time>2024-09-18T10:12:49Z</time>
      </trkpt>
      <trkpt lat="46.7526" lon="4.90271">
        <ele>189.2</ele>
        <time>2024-09-18T10:12:50Z</time>
      </trkpt>
      <trkpt lat="46.75256" lon="4.90273">
        <ele>189.2</ele>
        <time>2024-09-18T10:12:51Z</time>
      </trkpt>
      <trkpt lat="46.75252" lon="4.90275">
        <ele>189.2</ele>
        <time>2024-09-18T10:12:52Z</time>
      </trkpt>
      <trkpt lat="46.75248" lon="4.90277">
        <ele>189.2</ele>
        <time>2024-09-18T10:12:53Z</time>
      </trkpt>
      <trkpt lat="46.75243" lon="4.90279">
        <ele>189.2</ele>
        <time>2024-09-18T10:12:54Z</time>
      </trkpt>
      <trkpt lat="46.75239" lon="4.90281">
        <ele>189.4</ele>
        <time>2024-09-18T10:12:55Z</time>
      </trkpt>
      <trkpt lat="46.75235" lon="4.90283">
        <ele>189.4</ele>
        <time>2024-09-18T10:12:56Z</time>
      </trkpt>
      <trkpt lat="46.75231" lon="4.90285">
        <ele>189.4</ele>
        <time>2024-09-18T10:12:57Z</time>
      </trkpt>
      <trkpt lat="46.75227" lon="4.90287">
        <ele>189.4</ele>
        <time>2024-09-18T10:12:58Z</time>
      </trkpt>
      <trkpt lat="46.75223" lon="4.90289">
        <ele>189.4</ele>
        <time>2024-09-18T10:12:59Z</time>
      </trkpt>
      <trkpt lat="46.75219" lon="4.90291">
        <ele>189.4</ele>
        <time>2024-09-18T10:13:00Z</time>
      </trkpt>
      <trkpt lat="46.75214" lon="4.90293">
        <ele>189.4</ele>
        <time>2024-09-18T10:13:01Z</time>
      </trkpt>
      <trkpt lat="46.7521" lon="4.90296">
        <ele>189.4</ele>
        <time>2024-09-18T10:13:02Z</time>
      </trkpt>
      <trkpt lat="46.75206" lon="4.90298">
        <ele>189.4</ele>
        <time>2024-09-18T10:13:03Z</time>
      </trkpt>
      <trkpt lat="46.75202" lon="4.903">
        <ele>189.4</ele>
        <time>2024-09-18T10:13:04Z</time>
      </trkpt>
      <trkpt lat="46.75198" lon="4.90302">
        <ele>189.4</ele>
        <time>2024-09-18T10:13:05Z</time>
      </trkpt>
      <trkpt lat="46.75194" lon="4.90304">
        <ele>189.4</ele>
        <time>2024-09-18T10:13:06Z</time>
      </trkpt>
      <trkpt lat="46.7519" lon="4.90306">
        <ele>189.4</ele>
        <time>2024-09-18T10:13:07Z</time>
      </trkpt>
      <trkpt lat="46.75185" lon="4.90308">
        <ele>189.4</ele>
        <time>2024-09-18T10:13:08Z</time>
      </trkpt>
      <trkpt lat="46.75181" lon="4.90308">
        <ele>189.4</ele>
        <time>2024-09-18T10:13:09Z</time>
      </trkpt>
      <trkpt lat="46.75177" lon="4.90308">
        <ele>189.4</ele>
        <time>2024-09-18T10:13:10Z</time>
      </trkpt>
      <trkpt lat="46.75173" lon="4.90308">
        <ele>189.4</ele>
        <time>2024-09-18T10:13:11Z</time>
      </trkpt>
      <trkpt lat="46.75169" lon="4.90309">
        <ele>189.4</ele>
        <time>2024-09-18T10:13:12Z</time>
      </trkpt>
      <trkpt lat="46.75166" lon="4.90311">
        <ele>189.4</ele>
        <time>2024-09-18T10:13:13Z</time>
      </trkpt>
      <trkpt lat="46.75162" lon="4.90314">
        <ele>189.4</ele>
        <time>2024-09-18T10:13:14Z</time>
      </trkpt>
      <trkpt lat="46.75159" lon="4.90317">
        <ele>189.6</ele>
        <time>2024-09-18T10:13:15Z</time>
      </trkpt>
      <trkpt lat="46.75156" lon="4.9032">
        <ele>189.6</ele>
        <time>2024-09-18T10:13:16Z</time>
      </trkpt>
      <trkpt lat="46.75153" lon="4.90322">
        <ele>189.6</ele>
        <time>2024-09-18T10:13:17Z</time>
      </trkpt>
      <trkpt lat="46.75149" lon="4.90325">
        <ele>189.6</ele>
        <time>2024-09-18T10:13:18Z</time>
      </trkpt>
      <trkpt lat="46.75146" lon="4.90328">
        <ele>189.8</ele>
        <time>2024-09-18T10:13:19Z</time>
      </trkpt>
      <trkpt lat="46.75142" lon="4.90331">
        <ele>189.8</ele>
        <time>2024-09-18T10:13:20Z</time>
      </trkpt>
      <trkpt lat="46.75139" lon="4.90333">
        <ele>189.8</ele>
        <time>2024-09-18T10:13:21Z</time>
      </trkpt>
      <trkpt lat="46.75135" lon="4.90336">
        <ele>189.8</ele>
        <time>2024-09-18T10:13:22Z</time>
      </trkpt>
      <trkpt lat="46.75132" lon="4.9034">
        <ele>189.8</ele>
        <time>2024-09-18T10:13:23Z</time>
      </trkpt>
      <trkpt lat="46.75128" lon="4.90343">
        <ele>189.8</ele>
        <time>2024-09-18T10:13:24Z</time>
      </trkpt>
      <trkpt lat="46.75125" lon="4.90347">
        <ele>189.8</ele>
        <time>2024-09-18T10:13:25Z</time>
      </trkpt>
      <trkpt lat="46.75121" lon="4.90349">
        <ele>189.8</ele>
        <time>2024-09-18T10:13:26Z</time>
      </trkpt>
      <trkpt lat="46.75116" lon="4.90354">
        <ele>189.8</ele>
        <time>2024-09-18T10:13:27Z</time>
      </trkpt>
      <trkpt lat="46.75114" lon="4.90356">
        <ele>190</ele>
        <time>2024-09-18T10:13:28Z</time>
      </trkpt>
      <trkpt lat="46.75111" lon="4.90358">
        <ele>190</ele>
        <time>2024-09-18T10:13:29Z</time>
      </trkpt>
      <trkpt lat="46.75107" lon="4.90361">
        <ele>190</ele>
        <time>2024-09-18T10:13:30Z</time>
      </trkpt>
      <trkpt lat="46.75104" lon="4.90364">
        <ele>190</ele>
        <time>2024-09-18T10:13:31Z</time>
      </trkpt>
      <trkpt lat="46.75102" lon="4.90367">
        <ele>190</ele>
        <time>2024-09-18T10:13:32Z</time>
      </trkpt>
      <trkpt lat="46.751" lon="4.90368">
        <ele>190.2</ele>
        <time>2024-09-18T10:13:33Z</time>
      </trkpt>
      <trkpt lat="46.75099" lon="4.90369">
        <ele>190.2</ele>
        <time>2024-09-18T10:13:34Z</time>
      </trkpt>
      <trkpt lat="46.75096" lon="4.90372">
        <ele>190.4</ele>
        <time>2024-09-18T10:13:41Z</time>
      </trkpt>
      <trkpt lat="46.75094" lon="4.90374">
        <ele>190.4</ele>
        <time>2024-09-18T10:13:42Z</time>
      </trkpt>
      <trkpt lat="46.75092" lon="4.90376">
        <ele>190.4</ele>
        <time>2024-09-18T10:13:43Z</time>
      </trkpt>
      <trkpt lat="46.7509" lon="4.90378">
        <ele>190.4</ele>
        <time>2024-09-18T10:13:44Z</time>
      </trkpt>
      <trkpt lat="46.75087" lon="4.90379">
        <ele>190.4</ele>
        <time>2024-09-18T10:13:45Z</time>
      </trkpt>
      <trkpt lat="46.75085" lon="4.90379">
        <ele>190.4</ele>
        <time>2024-09-18T10:13:46Z</time>
      </trkpt>
      <trkpt lat="46.75082" lon="4.9038">
        <ele>190.4</ele>
        <time>2024-09-18T10:13:47Z</time>
      </trkpt>
      <trkpt lat="46.7508" lon="4.90381">
        <ele>190.4</ele>
        <time>2024-09-18T10:13:48Z</time>
      </trkpt>
      <trkpt lat="46.75078" lon="4.90381">
        <ele>190.6</ele>
        <time>2024-09-18T10:13:49Z</time>
      </trkpt>
      <trkpt lat="46.75075" lon="4.90382">
        <ele>190.6</ele>
        <time>2024-09-18T10:13:50Z</time>
      </trkpt>
      <trkpt lat="46.75073" lon="4.90383">
        <ele>190.6</ele>
        <time>2024-09-18T10:13:51Z</time>
      </trkpt>
      <trkpt lat="46.75071" lon="4.90385">
        <ele>190.6</ele>
        <time>2024-09-18T10:13:52Z</time>
      </trkpt>
      <trkpt lat="46.75068" lon="4.90387">
        <ele>190.6</ele>
        <time>2024-09-18T10:13:53Z</time>
      </trkpt>
      <trkpt lat="46.75065" lon="4.9039">
        <ele>191</ele>
        <time>2024-09-18T10:13:54Z</time>
      </trkpt>
      <trkpt lat="46.75063" lon="4.90393">
        <ele>191</ele>
        <time>2024-09-18T10:13:55Z</time>
      </trkpt>
      <trkpt lat="46.7506" lon="4.90396">
        <ele>190.8</ele>
        <time>2024-09-18T10:13:56Z</time>
      </trkpt>
      <trkpt lat="46.75057" lon="4.90399">
        <ele>190.8</ele>
        <time>2024-09-18T10:13:57Z</time>
      </trkpt>
      <trkpt lat="46.75054" lon="4.90402">
        <ele>191.2</ele>
        <time>2024-09-18T10:13:58Z</time>
      </trkpt>
      <trkpt lat="46.75051" lon="4.90405">
        <ele>191.2</ele>
        <time>2024-09-18T10:13:59Z</time>
      </trkpt>
      <trkpt lat="46.75048" lon="4.90408">
        <ele>191</ele>
        <time>2024-09-18T10:14:00Z</time>
      </trkpt>
      <trkpt lat="46.75045" lon="4.90412">
        <ele>191</ele>
        <time>2024-09-18T10:14:01Z</time>
      </trkpt>
      <trkpt lat="46.75042" lon="4.90415">
        <ele>191.4</ele>
        <time>2024-09-18T10:14:02Z</time>
      </trkpt>
      <trkpt lat="46.75039" lon="4.90419">
        <ele>191.4</ele>
        <time>2024-09-18T10:14:03Z</time>
      </trkpt>
      <trkpt lat="46.75036" lon="4.90423">
        <ele>191.6</ele>
        <time>2024-09-18T10:14:04Z</time>
      </trkpt>
      <trkpt lat="46.75033" lon="4.90426">
        <ele>191.6</ele>
        <time>2024-09-18T10:14:05Z</time>
      </trkpt>
      <trkpt lat="46.7503" lon="4.90429">
        <ele>191.6</ele>
        <time>2024-09-18T10:14:06Z</time>
      </trkpt>
      <trkpt lat="46.75028" lon="4.90432">
        <ele>191.6</ele>
        <time>2024-09-18T10:14:07Z</time>
      </trkpt>
      <trkpt lat="46.75025" lon="4.90435">
        <ele>191.6</ele>
        <time>2024-09-18T10:14:08Z</time>
      </trkpt>
      <trkpt lat="46.75023" lon="4.90438">
        <ele>191.6</ele>
        <time>2024-09-18T10:14:09Z</time>
      </trkpt>
      <trkpt lat="46.75021" lon="4.90442">
        <ele>191.6</ele>
        <time>2024-09-18T10:14:10Z</time>
      </trkpt>
      <trkpt lat="46.75018" lon="4.90446">
        <ele>192</ele>
        <time>2024-09-18T10:14:11Z</time>
      </trkpt>
      <trkpt lat="46.75016" lon="4.90449">
        <ele>192</ele>
        <time>2024-09-18T10:14:12Z</time>
      </trkpt>
      <trkpt lat="46.75013" lon="4.90453">
        <ele>192</ele>
        <time>2024-09-18T10:14:13Z</time>
      </trkpt>
      <trkpt lat="46.75011" lon="4.90456">
        <ele>192</ele>
        <time>2024-09-18T10:14:14Z</time>
      </trkpt>
      <trkpt lat="46.75009" lon="4.90458">
        <ele>192</ele>
        <time>2024-09-18T10:14:15Z</time>
      </trkpt>
      <trkpt lat="46.75007" lon="4.90462">
        <ele>192.4</ele>
        <time>2024-09-18T10:14:16Z</time>
      </trkpt>
      <trkpt lat="46.75004" lon="4.90465">
        <ele>192.2</ele>
        <time>2024-09-18T10:14:17Z</time>
      </trkpt>
      <trkpt lat="46.75002" lon="4.90468">
        <ele>192.2</ele>
        <time>2024-09-18T10:14:18Z</time>
      </trkpt>
      <trkpt lat="46.74999" lon="4.90472">
        <ele>192.2</ele>
        <time>2024-09-18T10:14:19Z</time>
      </trkpt>
      <trkpt lat="46.74996" lon="4.90476">
        <ele>192.4</ele>
        <time>2024-09-18T10:14:20Z</time>
      </trkpt>
      <trkpt lat="46.74993" lon="4.9048">
        <ele>192.4</ele>
        <time>2024-09-18T10:14:21Z</time>
      </trkpt>
      <trkpt lat="46.7499" lon="4.90483">
        <ele>192.4</ele>
        <time>2024-09-18T10:14:22Z</time>
      </trkpt>
      <trkpt lat="46.74987" lon="4.90487">
        <ele>192.4</ele>
        <time>2024-09-18T10:14:23Z</time>
      </trkpt>
      <trkpt lat="46.74983" lon="4.90493">
        <ele>192.4</ele>
        <time>2024-09-18T10:14:24Z</time>
      </trkpt>
      <trkpt lat="46.74981" lon="4.90494">
        <ele>192.4</ele>
        <time>2024-09-18T10:14:25Z</time>
      </trkpt>
      <trkpt lat="46.74978" lon="4.90498">
        <ele>192.4</ele>
        <time>2024-09-18T10:14:26Z</time>
      </trkpt>
      <trkpt lat="46.74975" lon="4.90502">
        <ele>192.4</ele>
        <time>2024-09-18T10:14:27Z</time>
      </trkpt>
      <trkpt lat="46.74973" lon="4.90505">
        <ele>192.4</ele>
        <time>2024-09-18T10:14:28Z</time>
      </trkpt>
      <trkpt lat="46.7497" lon="4.90509">
        <ele>192.4</ele>
        <time>2024-09-18T10:14:29Z</time>
      </trkpt>
      <trkpt lat="46.74968" lon="4.90513">
        <ele>192.4</ele>
        <time>2024-09-18T10:14:30Z</time>
      </trkpt>
      <trkpt lat="46.74965" lon="4.90516">
        <ele>192.4</ele>
        <time>2024-09-18T10:14:31Z</time>
      </trkpt>
      <trkpt lat="46.74963" lon="4.90519">
        <ele>192.4</ele>
        <time>2024-09-18T10:14:32Z</time>
      </trkpt>
      <trkpt lat="46.74961" lon="4.90522">
        <ele>192.4</ele>
        <time>2024-09-18T10:14:33Z</time>
      </trkpt>
      <trkpt lat="46.74958" lon="4.90525">
        <ele>192.4</ele>
        <time>2024-09-18T10:14:34Z</time>
      </trkpt>
      <trkpt lat="46.74956" lon="4.90528">
        <ele>192.6</ele>
        <time>2024-09-18T10:14:35Z</time>
      </trkpt>
      <trkpt lat="46.74953" lon="4.90532">
        <ele>192.6</ele>
        <time>2024-09-18T10:14:36Z</time>
      </trkpt>
      <trkpt lat="46.7495" lon="4.90536">
        <ele>192.6</ele>
        <time>2024-09-18T10:14:37Z</time>
      </trkpt>
      <trkpt lat="46.74948" lon="4.9054">
        <ele>192.6</ele>
        <time>2024-09-18T10:14:38Z</time>
      </trkpt>
      <trkpt lat="46.74945" lon="4.90545">
        <ele>192.8</ele>
        <time>2024-09-18T10:14:39Z</time>
      </trkpt>
      <trkpt lat="46.74943" lon="4.90549">
        <ele>193</ele>
        <time>2024-09-18T10:14:40Z</time>
      </trkpt>
      <trkpt lat="46.7494" lon="4.90553">
        <ele>193</ele>
        <time>2024-09-18T10:14:41Z</time>
      </trkpt>
      <trkpt lat="46.74938" lon="4.90558">
        <ele>193</ele>
        <time>2024-09-18T10:14:42Z</time>
      </trkpt>
      <trkpt lat="46.74936" lon="4.90562">
        <ele>193</ele>
        <time>2024-09-18T10:14:43Z</time>
      </trkpt>
      <trkpt lat="46.74933" lon="4.90566">
        <ele>193</ele>
        <time>2024-09-18T10:14:44Z</time>
      </trkpt>
      <trkpt lat="46.74931" lon="4.90571">
        <ele>193</ele>
        <time>2024-09-18T10:14:45Z</time>
      </trkpt>
      <trkpt lat="46.74928" lon="4.90575">
        <ele>193</ele>
        <time>2024-09-18T10:14:46Z</time>
      </trkpt>
      <trkpt lat="46.74926" lon="4.90579">
        <ele>193.2</ele>
        <time>2024-09-18T10:14:47Z</time>
      </trkpt>
      <trkpt lat="46.74923" lon="4.90584">
        <ele>193.2</ele>
        <time>2024-09-18T10:14:48Z</time>
      </trkpt>
      <trkpt lat="46.74921" lon="4.90589">
        <ele>193.2</ele>
        <time>2024-09-18T10:14:49Z</time>
      </trkpt>
      <trkpt lat="46.74919" lon="4.90594">
        <ele>193.2</ele>
        <time>2024-09-18T10:14:50Z</time>
      </trkpt>
      <trkpt lat="46.74918" lon="4.90599">
        <ele>193.2</ele>
        <time>2024-09-18T10:14:51Z</time>
      </trkpt>
      <trkpt lat="46.74916" lon="4.90603">
        <ele>193.2</ele>
        <time>2024-09-18T10:14:52Z</time>
      </trkpt>
      <trkpt lat="46.74914" lon="4.90607">
        <ele>193.4</ele>
        <time>2024-09-18T10:14:53Z</time>
      </trkpt>
      <trkpt lat="46.74912" lon="4.90611">
        <ele>193.4</ele>
        <time>2024-09-18T10:14:54Z</time>
      </trkpt>
      <trkpt lat="46.7491" lon="4.90614">
        <ele>193.4</ele>
        <time>2024-09-18T10:14:55Z</time>
      </trkpt>
      <trkpt lat="46.74909" lon="4.90618">
        <ele>193.8</ele>
        <time>2024-09-18T10:14:56Z</time>
      </trkpt>
      <trkpt lat="46.74908" lon="4.90621">
        <ele>193.6</ele>
        <time>2024-09-18T10:14:57Z</time>
      </trkpt>
      <trkpt lat="46.74906" lon="4.90625">
        <ele>193.6</ele>
        <time>2024-09-18T10:14:58Z</time>
      </trkpt>
      <trkpt lat="46.74905" lon="4.90628">
        <ele>193.6</ele>
        <time>2024-09-18T10:14:59Z</time>
      </trkpt>
      <trkpt lat="46.74903" lon="4.90632">
        <ele>193.6</ele>
        <time>2024-09-18T10:15:00Z</time>
      </trkpt>
      <trkpt lat="46.74901" lon="4.90636">
        <ele>193.6</ele>
        <time>2024-09-18T10:15:01Z</time>
      </trkpt>
      <trkpt lat="46.74899" lon="4.9064">
        <ele>193.6</ele>
        <time>2024-09-18T10:15:02Z</time>
      </trkpt>
      <trkpt lat="46.74897" lon="4.90645">
        <ele>193.6</ele>
        <time>2024-09-18T10:15:03Z</time>
      </trkpt>
      <trkpt lat="46.74895" lon="4.90649">
        <ele>193.6</ele>
        <time>2024-09-18T10:15:04Z</time>
      </trkpt>
      <trkpt lat="46.74893" lon="4.90654">
        <ele>193.8</ele>
        <time>2024-09-18T10:15:05Z</time>
      </trkpt>
      <trkpt lat="46.74891" lon="4.90659">
        <ele>193.8</ele>
        <time>2024-09-18T10:15:06Z</time>
      </trkpt>
      <trkpt lat="46.74889" lon="4.90663">
        <ele>193.8</ele>
        <time>2024-09-18T10:15:07Z</time>
      </trkpt>
      <trkpt lat="46.74887" lon="4.90668">
        <ele>193.8</ele>
        <time>2024-09-18T10:15:08Z</time>
      </trkpt>
      <trkpt lat="46.74885" lon="4.90673">
        <ele>193.8</ele>
        <time>2024-09-18T10:15:09Z</time>
      </trkpt>
      <trkpt lat="46.74883" lon="4.90678">
        <ele>193.8</ele>
        <time>2024-09-18T10:15:10Z</time>
      </trkpt>
      <trkpt lat="46.74881" lon="4.90683">
        <ele>194.2</ele>
        <time>2024-09-18T10:15:11Z</time>
      </trkpt>
      <trkpt lat="46.74879" lon="4.90688">
        <ele>194.2</ele>
        <time>2024-09-18T10:15:12Z</time>
      </trkpt>
      <trkpt lat="46.74876" lon="4.90693">
        <ele>194.2</ele>
        <time>2024-09-18T10:15:13Z</time>
      </trkpt>
      <trkpt lat="46.74874" lon="4.90698">
        <ele>194.2</ele>
        <time>2024-09-18T10:15:14Z</time>
      </trkpt>
      <trkpt lat="46.74872" lon="4.90703">
        <ele>194.2</ele>
        <time>2024-09-18T10:15:15Z</time>
      </trkpt>
      <trkpt lat="46.7487" lon="4.90708">
        <ele>194.4</ele>
        <time>2024-09-18T10:15:16Z</time>
      </trkpt>
      <trkpt lat="46.74868" lon="4.90713">
        <ele>194.4</ele>
        <time>2024-09-18T10:15:17Z</time>
      </trkpt>
      <trkpt lat="46.74866" lon="4.90717">
        <ele>194.4</ele>
        <time>2024-09-18T10:15:18Z</time>
      </trkpt>
      <trkpt lat="46.74865" lon="4.90722">
        <ele>194.4</ele>
        <time>2024-09-18T10:15:19Z</time>
      </trkpt>
      <trkpt lat="46.74862" lon="4.90727">
        <ele>194.6</ele>
        <time>2024-09-18T10:15:20Z</time>
      </trkpt>
      <trkpt lat="46.7486" lon="4.90732">
        <ele>194.6</ele>
        <time>2024-09-18T10:15:21Z</time>
      </trkpt>
      <trkpt lat="46.74858" lon="4.90737">
        <ele>194.6</ele>
        <time>2024-09-18T10:15:22Z</time>
      </trkpt>
      <trkpt lat="46.74856" lon="4.90742">
        <ele>194.6</ele>
        <time>2024-09-18T10:15:23Z</time>
      </trkpt>
      <trkpt lat="46.74854" lon="4.90748">
        <ele>194.6</ele>
        <time>2024-09-18T10:15:24Z</time>
      </trkpt>
      <trkpt lat="46.74852" lon="4.90753">
        <ele>194.6</ele>
        <time>2024-09-18T10:15:25Z</time>
      </trkpt>
      <trkpt lat="46.7485" lon="4.90757">
        <ele>194.6</ele>
        <time>2024-09-18T10:15:26Z</time>
      </trkpt>
      <trkpt lat="46.74848" lon="4.90762">
        <ele>194.6</ele>
        <time>2024-09-18T10:15:27Z</time>
      </trkpt>
      <trkpt lat="46.74845" lon="4.90767">
        <ele>194.6</ele>
        <time>2024-09-18T10:15:28Z</time>
      </trkpt>
      <trkpt lat="46.74843" lon="4.90772">
        <ele>194.8</ele>
        <time>2024-09-18T10:15:29Z</time>
      </trkpt>
      <trkpt lat="46.74841" lon="4.90777">
        <ele>194.8</ele>
        <time>2024-09-18T10:15:30Z</time>
      </trkpt>
      <trkpt lat="46.74839" lon="4.90782">
        <ele>194.8</ele>
        <time>2024-09-18T10:15:31Z</time>
      </trkpt>
      <trkpt lat="46.74837" lon="4.90787">
        <ele>194.8</ele>
        <time>2024-09-18T10:15:32Z</time>
      </trkpt>
      <trkpt lat="46.74835" lon="4.90792">
        <ele>195</ele>
        <time>2024-09-18T10:15:33Z</time>
      </trkpt>
      <trkpt lat="46.74832" lon="4.90797">
        <ele>195</ele>
        <time>2024-09-18T10:15:34Z</time>
      </trkpt>
      <trkpt lat="46.7483" lon="4.90802">
        <ele>195</ele>
        <time>2024-09-18T10:15:35Z</time>
      </trkpt>
      <trkpt lat="46.74828" lon="4.90807">
        <ele>195</ele>
        <time>2024-09-18T10:15:36Z</time>
      </trkpt>
      <trkpt lat="46.74826" lon="4.90812">
        <ele>195.2</ele>
        <time>2024-09-18T10:15:37Z</time>
      </trkpt>
      <trkpt lat="46.74824" lon="4.90817">
        <ele>195.2</ele>
        <time>2024-09-18T10:15:38Z</time>
      </trkpt>
      <trkpt lat="46.74822" lon="4.90822">
        <ele>195.2</ele>
        <time>2024-09-18T10:15:39Z</time>
      </trkpt>
      <trkpt lat="46.74819" lon="4.90829">
        <ele>195.2</ele>
        <time>2024-09-18T10:15:40Z</time>
      </trkpt>
      <trkpt lat="46.74818" lon="4.90832">
        <ele>195.6</ele>
        <time>2024-09-18T10:15:41Z</time>
      </trkpt>
      <trkpt lat="46.74816" lon="4.90837">
        <ele>195.6</ele>
        <time>2024-09-18T10:15:42Z</time>
      </trkpt>
      <trkpt lat="46.74814" lon="4.90841">
        <ele>195.6</ele>
        <time>2024-09-18T10:15:43Z</time>
      </trkpt>
      <trkpt lat="46.74812" lon="4.90847">
        <ele>195.6</ele>
        <time>2024-09-18T10:15:44Z</time>
      </trkpt>
      <trkpt lat="46.7481" lon="4.90851">
        <ele>195.8</ele>
        <time>2024-09-18T10:15:45Z</time>
      </trkpt>
      <trkpt lat="46.74808" lon="4.90856">
        <ele>195.8</ele>
        <time>2024-09-18T10:15:46Z</time>
      </trkpt>
      <trkpt lat="46.74806" lon="4.90861">
        <ele>195.8</ele>
        <time>2024-09-18T10:15:47Z</time>
      </trkpt>
      <trkpt lat="46.74804" lon="4.90866">
        <ele>195.8</ele>
        <time>2024-09-18T10:15:48Z</time>
      </trkpt>
      <trkpt lat="46.74802" lon="4.90871">
        <ele>195.8</ele>
        <time>2024-09-18T10:15:49Z</time>
      </trkpt>
      <trkpt lat="46.748" lon="4.90876">
        <ele>195.8</ele>
        <time>2024-09-18T10:15:50Z</time>
      </trkpt>
      <trkpt lat="46.74798" lon="4.90881">
        <ele>195.8</ele>
        <time>2024-09-18T10:15:51Z</time>
      </trkpt>
      <trkpt lat="46.74796" lon="4.90886">
        <ele>196</ele>
        <time>2024-09-18T10:15:52Z</time>
      </trkpt>
      <trkpt lat="46.74794" lon="4.90891">
        <ele>196</ele>
        <time>2024-09-18T10:15:53Z</time>
      </trkpt>
      <trkpt lat="46.74792" lon="4.90896">
        <ele>196</ele>
        <time>2024-09-18T10:15:54Z</time>
      </trkpt>
      <trkpt lat="46.74789" lon="4.90902">
        <ele>196</ele>
        <time>2024-09-18T10:15:55Z</time>
      </trkpt>
      <trkpt lat="46.74787" lon="4.90907">
        <ele>196.4</ele>
        <time>2024-09-18T10:15:56Z</time>
      </trkpt>
      <trkpt lat="46.74785" lon="4.90912">
        <ele>196.4</ele>
        <time>2024-09-18T10:15:57Z</time>
      </trkpt>
      <trkpt lat="46.74783" lon="4.90917">
        <ele>196.4</ele>
        <time>2024-09-18T10:15:58Z</time>
      </trkpt>
      <trkpt lat="46.74781" lon="4.90922">
        <ele>196.4</ele>
        <time>2024-09-18T10:15:59Z</time>
      </trkpt>
      <trkpt lat="46.74779" lon="4.90927">
        <ele>196.4</ele>
        <time>2024-09-18T10:16:00Z</time>
      </trkpt>
      <trkpt lat="46.74776" lon="4.90933">
        <ele>196.4</ele>
        <time>2024-09-18T10:16:01Z</time>
      </trkpt>
      <trkpt lat="46.74774" lon="4.90938">
        <ele>196.4</ele>
        <time>2024-09-18T10:16:02Z</time>
      </trkpt>
      <trkpt lat="46.74772" lon="4.90943">
        <ele>196.4</ele>
        <time>2024-09-18T10:16:03Z</time>
      </trkpt>
      <trkpt lat="46.7477" lon="4.90948">
        <ele>196.6</ele>
        <time>2024-09-18T10:16:04Z</time>
      </trkpt>
      <trkpt lat="46.74768" lon="4.90954">
        <ele>196.6</ele>
        <time>2024-09-18T10:16:05Z</time>
      </trkpt>
      <trkpt lat="46.74766" lon="4.90959">
        <ele>196.8</ele>
        <time>2024-09-18T10:16:06Z</time>
      </trkpt>
      <trkpt lat="46.74764" lon="4.90964">
        <ele>196.8</ele>
        <time>2024-09-18T10:16:07Z</time>
      </trkpt>
      <trkpt lat="46.74762" lon="4.90969">
        <ele>196.8</ele>
        <time>2024-09-18T10:16:08Z</time>
      </trkpt>
      <trkpt lat="46.7476" lon="4.90974">
        <ele>197</ele>
        <time>2024-09-18T10:16:09Z</time>
      </trkpt>
      <trkpt lat="46.74758" lon="4.90979">
        <ele>197</ele>
        <time>2024-09-18T10:16:10Z</time>
      </trkpt>
      <trkpt lat="46.74756" lon="4.90984">
        <ele>197</ele>
        <time>2024-09-18T10:16:11Z</time>
      </trkpt>
      <trkpt lat="46.74754" lon="4.90988">
        <ele>197.2</ele>
        <time>2024-09-18T10:16:12Z</time>
      </trkpt>
      <trkpt lat="46.74752" lon="4.90993">
        <ele>197.4</ele>
        <time>2024-09-18T10:16:13Z</time>
      </trkpt>
      <trkpt lat="46.7475" lon="4.90998">
        <ele>197.4</ele>
        <time>2024-09-18T10:16:14Z</time>
      </trkpt>
      <trkpt lat="46.74748" lon="4.91003">
        <ele>197.4</ele>
        <time>2024-09-18T10:16:15Z</time>
      </trkpt>
      <trkpt lat="46.74746" lon="4.91008">
        <ele>197.4</ele>
        <time>2024-09-18T10:16:16Z</time>
      </trkpt>
      <trkpt lat="46.74744" lon="4.91013">
        <ele>197.4</ele>
        <time>2024-09-18T10:16:17Z</time>
      </trkpt>
      <trkpt lat="46.74742" lon="4.91018">
        <ele>197.4</ele>
        <time>2024-09-18T10:16:18Z</time>
      </trkpt>
      <trkpt lat="46.7474" lon="4.91023">
        <ele>197.4</ele>
        <time>2024-09-18T10:16:19Z</time>
      </trkpt>
      <trkpt lat="46.74738" lon="4.91028">
        <ele>197.4</ele>
        <time>2024-09-18T10:16:20Z</time>
      </trkpt>
      <trkpt lat="46.74736" lon="4.91033">
        <ele>197.6</ele>
        <time>2024-09-18T10:16:21Z</time>
      </trkpt>
      <trkpt lat="46.74734" lon="4.91038">
        <ele>197.6</ele>
        <time>2024-09-18T10:16:22Z</time>
      </trkpt>
      <trkpt lat="46.74732" lon="4.91043">
        <ele>197.6</ele>
        <time>2024-09-18T10:16:23Z</time>
      </trkpt>
      <trkpt lat="46.7473" lon="4.91048">
        <ele>197.6</ele>
        <time>2024-09-18T10:16:24Z</time>
      </trkpt>
      <trkpt lat="46.74728" lon="4.91053">
        <ele>197.6</ele>
        <time>2024-09-18T10:16:25Z</time>
      </trkpt>
      <trkpt lat="46.74726" lon="4.91058">
        <ele>197.8</ele>
        <time>2024-09-18T10:16:26Z</time>
      </trkpt>
      <trkpt lat="46.74723" lon="4.91063">
        <ele>197.8</ele>
        <time>2024-09-18T10:16:27Z</time>
      </trkpt>
      <trkpt lat="46.74721" lon="4.91068">
        <ele>197.8</ele>
        <time>2024-09-18T10:16:28Z</time>
      </trkpt>
      <trkpt lat="46.74719" lon="4.91073">
        <ele>197.8</ele>
        <time>2024-09-18T10:16:29Z</time>
      </trkpt>
      <trkpt lat="46.74717" lon="4.91078">
        <ele>197.8</ele>
        <time>2024-09-18T10:16:30Z</time>
      </trkpt>
      <trkpt lat="46.74715" lon="4.91084">
        <ele>198.2</ele>
        <time>2024-09-18T10:16:31Z</time>
      </trkpt>
      <trkpt lat="46.74713" lon="4.91089">
        <ele>198.2</ele>
        <time>2024-09-18T10:16:32Z</time>
      </trkpt>
      <trkpt lat="46.74711" lon="4.91094">
        <ele>198.2</ele>
        <time>2024-09-18T10:16:33Z</time>
      </trkpt>
      <trkpt lat="46.74709" lon="4.91099">
        <ele>198.2</ele>
        <time>2024-09-18T10:16:34Z</time>
      </trkpt>
      <trkpt lat="46.74706" lon="4.91104">
        <ele>198.2</ele>
        <time>2024-09-18T10:16:35Z</time>
      </trkpt>
      <trkpt lat="46.74704" lon="4.91109">
        <ele>198.2</ele>
        <time>2024-09-18T10:16:36Z</time>
      </trkpt>
      <trkpt lat="46.74703" lon="4.91114">
        <ele>198.2</ele>
        <time>2024-09-18T10:16:37Z</time>
      </trkpt>
      <trkpt lat="46.747" lon="4.91118">
        <ele>198.2</ele>
        <time>2024-09-18T10:16:38Z</time>
      </trkpt>
      <trkpt lat="46.74698" lon="4.91123">
        <ele>198.2</ele>
        <time>2024-09-18T10:16:39Z</time>
      </trkpt>
      <trkpt lat="46.74697" lon="4.91128">
        <ele>198.4</ele>
        <time>2024-09-18T10:16:40Z</time>
      </trkpt>
      <trkpt lat="46.74695" lon="4.91133">
        <ele>198.4</ele>
        <time>2024-09-18T10:16:41Z</time>
      </trkpt>
      <trkpt lat="46.74693" lon="4.91138">
        <ele>198.4</ele>
        <time>2024-09-18T10:16:42Z</time>
      </trkpt>
      <trkpt lat="46.74691" lon="4.91143">
        <ele>198.4</ele>
        <time>2024-09-18T10:16:43Z</time>
      </trkpt>
      <trkpt lat="46.74689" lon="4.91148">
        <ele>198.6</ele>
        <time>2024-09-18T10:16:44Z</time>
      </trkpt>
      <trkpt lat="46.74687" lon="4.91153">
        <ele>198.6</ele>
        <time>2024-09-18T10:16:45Z</time>
      </trkpt>
      <trkpt lat="46.74684" lon="4.91158">
        <ele>198.6</ele>
        <time>2024-09-18T10:16:46Z</time>
      </trkpt>
      <trkpt lat="46.74682" lon="4.91163">
        <ele>198.6</ele>
        <time>2024-09-18T10:16:47Z</time>
      </trkpt>
      <trkpt lat="46.7468" lon="4.91168">
        <ele>198.6</ele>
        <time>2024-09-18T10:16:48Z</time>
      </trkpt>
      <trkpt lat="46.74678" lon="4.91173">
        <ele>198.6</ele>
        <time>2024-09-18T10:16:49Z</time>
      </trkpt>
      <trkpt lat="46.74675" lon="4.91178">
        <ele>198.6</ele>
        <time>2024-09-18T10:16:50Z</time>
      </trkpt>
      <trkpt lat="46.74674" lon="4.91182">
        <ele>198.6</ele>
        <time>2024-09-18T10:16:51Z</time>
      </trkpt>
      <trkpt lat="46.74672" lon="4.91186">
        <ele>198.6</ele>
        <time>2024-09-18T10:16:52Z</time>
      </trkpt>
      <trkpt lat="46.74671" lon="4.91191">
        <ele>198.6</ele>
        <time>2024-09-18T10:16:53Z</time>
      </trkpt>
      <trkpt lat="46.74669" lon="4.91194">
        <ele>198.8</ele>
        <time>2024-09-18T10:16:54Z</time>
      </trkpt>
      <trkpt lat="46.74667" lon="4.91198">
        <ele>198.8</ele>
        <time>2024-09-18T10:16:55Z</time>
      </trkpt>
      <trkpt lat="46.74665" lon="4.91202">
        <ele>198.8</ele>
        <time>2024-09-18T10:16:56Z</time>
      </trkpt>
      <trkpt lat="46.74664" lon="4.91206">
        <ele>199</ele>
        <time>2024-09-18T10:16:57Z</time>
      </trkpt>
      <trkpt lat="46.74662" lon="4.9121">
        <ele>198.8</ele>
        <time>2024-09-18T10:16:58Z</time>
      </trkpt>
      <trkpt lat="46.7466" lon="4.91215">
        <ele>198.8</ele>
        <time>2024-09-18T10:16:59Z</time>
      </trkpt>
      <trkpt lat="46.74658" lon="4.9122">
        <ele>198.8</ele>
        <time>2024-09-18T10:17:00Z</time>
      </trkpt>
      <trkpt lat="46.74656" lon="4.91225">
        <ele>198.8</ele>
        <time>2024-09-18T10:17:01Z</time>
      </trkpt>
      <trkpt lat="46.74653" lon="4.91231">
        <ele>199</ele>
        <time>2024-09-18T10:17:02Z</time>
      </trkpt>
      <trkpt lat="46.74651" lon="4.91236">
        <ele>199</ele>
        <time>2024-09-18T10:17:03Z</time>
      </trkpt>
      <trkpt lat="46.74649" lon="4.91242">
        <ele>199</ele>
        <time>2024-09-18T10:17:04Z</time>
      </trkpt>
      <trkpt lat="46.74647" lon="4.91247">
        <ele>199</ele>
        <time>2024-09-18T10:17:05Z</time>
      </trkpt>
      <trkpt lat="46.74644" lon="4.91253">
        <ele>199</ele>
        <time>2024-09-18T10:17:06Z</time>
      </trkpt>
      <trkpt lat="46.74642" lon="4.91258">
        <ele>199</ele>
        <time>2024-09-18T10:17:07Z</time>
      </trkpt>
      <trkpt lat="46.74639" lon="4.91264">
        <ele>199</ele>
        <time>2024-09-18T10:17:08Z</time>
      </trkpt>
      <trkpt lat="46.74637" lon="4.9127">
        <ele>199</ele>
        <time>2024-09-18T10:17:09Z</time>
      </trkpt>
      <trkpt lat="46.74634" lon="4.91278">
        <ele>199</ele>
        <time>2024-09-18T10:17:10Z</time>
      </trkpt>
      <trkpt lat="46.74633" lon="4.91281">
        <ele>199</ele>
        <time>2024-09-18T10:17:11Z</time>
      </trkpt>
      <trkpt lat="46.7463" lon="4.91287">
        <ele>199</ele>
        <time>2024-09-18T10:17:12Z</time>
      </trkpt>
      <trkpt lat="46.74628" lon="4.91292">
        <ele>199</ele>
        <time>2024-09-18T10:17:13Z</time>
      </trkpt>
      <trkpt lat="46.74625" lon="4.91297">
        <ele>199</ele>
        <time>2024-09-18T10:17:14Z</time>
      </trkpt>
      <trkpt lat="46.74623" lon="4.91302">
        <ele>199.2</ele>
        <time>2024-09-18T10:17:15Z</time>
      </trkpt>
      <trkpt lat="46.74621" lon="4.91308">
        <ele>199.2</ele>
        <time>2024-09-18T10:17:16Z</time>
      </trkpt>
      <trkpt lat="46.74619" lon="4.91313">
        <ele>199.2</ele>
        <time>2024-09-18T10:17:17Z</time>
      </trkpt>
      <trkpt lat="46.74616" lon="4.91318">
        <ele>199.2</ele>
        <time>2024-09-18T10:17:18Z</time>
      </trkpt>
      <trkpt lat="46.74614" lon="4.91324">
        <ele>199.2</ele>
        <time>2024-09-18T10:17:19Z</time>
      </trkpt>
      <trkpt lat="46.74612" lon="4.91329">
        <ele>199.2</ele>
        <time>2024-09-18T10:17:20Z</time>
      </trkpt>
      <trkpt lat="46.7461" lon="4.91334">
        <ele>199.4</ele>
        <time>2024-09-18T10:17:21Z</time>
      </trkpt>
      <trkpt lat="46.74608" lon="4.91339">
        <ele>199.4</ele>
        <time>2024-09-18T10:17:22Z</time>
      </trkpt>
      <trkpt lat="46.74606" lon="4.91344">
        <ele>199.4</ele>
        <time>2024-09-18T10:17:23Z</time>
      </trkpt>
      <trkpt lat="46.74604" lon="4.91349">
        <ele>199.4</ele>
        <time>2024-09-18T10:17:24Z</time>
      </trkpt>
      <trkpt lat="46.74601" lon="4.91354">
        <ele>199.6</ele>
        <time>2024-09-18T10:17:25Z</time>
      </trkpt>
      <trkpt lat="46.746" lon="4.91359">
        <ele>199.6</ele>
        <time>2024-09-18T10:17:26Z</time>
      </trkpt>
      <trkpt lat="46.74597" lon="4.91364">
        <ele>199.6</ele>
        <time>2024-09-18T10:17:27Z</time>
      </trkpt>
      <trkpt lat="46.74595" lon="4.91367">
        <ele>199.6</ele>
        <time>2024-09-18T10:17:28Z</time>
      </trkpt>
      <trkpt lat="46.74592" lon="4.91371">
        <ele>199.4</ele>
        <time>2024-09-18T10:17:29Z</time>
      </trkpt>
      <trkpt lat="46.7459" lon="4.91375">
        <ele>199.4</ele>
        <time>2024-09-18T10:17:30Z</time>
      </trkpt>
      <trkpt lat="46.74588" lon="4.91379">
        <ele>199.4</ele>
        <time>2024-09-18T10:17:31Z</time>
      </trkpt>
      <trkpt lat="46.74588" lon="4.91384">
        <ele>199.4</ele>
        <time>2024-09-18T10:17:32Z</time>
      </trkpt>
      <trkpt lat="46.74587" lon="4.91388">
        <ele>199.4</ele>
        <time>2024-09-18T10:17:33Z</time>
      </trkpt>
      <trkpt lat="46.74585" lon="4.91393">
        <ele>199.6</ele>
        <time>2024-09-18T10:17:34Z</time>
      </trkpt>
      <trkpt lat="46.74584" lon="4.91397">
        <ele>199.6</ele>
        <time>2024-09-18T10:17:35Z</time>
      </trkpt>
      <trkpt lat="46.74582" lon="4.91401">
        <ele>199.6</ele>
        <time>2024-09-18T10:17:36Z</time>
      </trkpt>
      <trkpt lat="46.74581" lon="4.91406">
        <ele>199.6</ele>
        <time>2024-09-18T10:17:37Z</time>
      </trkpt>
      <trkpt lat="46.74579" lon="4.9141">
        <ele>199.8</ele>
        <time>2024-09-18T10:17:38Z</time>
      </trkpt>
      <trkpt lat="46.74576" lon="4.91415">
        <ele>199.8</ele>
        <time>2024-09-18T10:17:39Z</time>
      </trkpt>
      <trkpt lat="46.74574" lon="4.91419">
        <ele>199.8</ele>
        <time>2024-09-18T10:17:40Z</time>
      </trkpt>
      <trkpt lat="46.74572" lon="4.91424">
        <ele>199.8</ele>
        <time>2024-09-18T10:17:41Z</time>
      </trkpt>
      <trkpt lat="46.7457" lon="4.91429">
        <ele>199.8</ele>
        <time>2024-09-18T10:17:42Z</time>
      </trkpt>
      <trkpt lat="46.74568" lon="4.91434">
        <ele>199.8</ele>
        <time>2024-09-18T10:17:43Z</time>
      </trkpt>
      <trkpt lat="46.74566" lon="4.9144">
        <ele>199.8</ele>
        <time>2024-09-18T10:17:44Z</time>
      </trkpt>
      <trkpt lat="46.74564" lon="4.91445">
        <ele>199.8</ele>
        <time>2024-09-18T10:17:45Z</time>
      </trkpt>
      <trkpt lat="46.74561" lon="4.91451">
        <ele>199.8</ele>
        <time>2024-09-18T10:17:46Z</time>
      </trkpt>
      <trkpt lat="46.74559" lon="4.91456">
        <ele>200.2</ele>
        <time>2024-09-18T10:17:47Z</time>
      </trkpt>
      <trkpt lat="46.74556" lon="4.91462">
        <ele>200.2</ele>
        <time>2024-09-18T10:17:48Z</time>
      </trkpt>
      <trkpt lat="46.74554" lon="4.91467">
        <ele>200.2</ele>
        <time>2024-09-18T10:17:49Z</time>
      </trkpt>
      <trkpt lat="46.74552" lon="4.91473">
        <ele>200.2</ele>
        <time>2024-09-18T10:17:50Z</time>
      </trkpt>
      <trkpt lat="46.74549" lon="4.91479">
        <ele>200.2</ele>
        <time>2024-09-18T10:17:51Z</time>
      </trkpt>
      <trkpt lat="46.74547" lon="4.91484">
        <ele>200.2</ele>
        <time>2024-09-18T10:17:52Z</time>
      </trkpt>
      <trkpt lat="46.74545" lon="4.9149">
        <ele>200.2</ele>
        <time>2024-09-18T10:17:53Z</time>
      </trkpt>
      <trkpt lat="46.74543" lon="4.91495">
        <ele>200.2</ele>
        <time>2024-09-18T10:17:54Z</time>
      </trkpt>
      <trkpt lat="46.7454" lon="4.91501">
        <ele>199.8</ele>
        <time>2024-09-18T10:17:55Z</time>
      </trkpt>
      <trkpt lat="46.74538" lon="4.91507">
        <ele>199.8</ele>
        <time>2024-09-18T10:17:56Z</time>
      </trkpt>
      <trkpt lat="46.74536" lon="4.91513">
        <ele>199.8</ele>
        <time>2024-09-18T10:17:57Z</time>
      </trkpt>
      <trkpt lat="46.74533" lon="4.91518">
        <ele>199.8</ele>
        <time>2024-09-18T10:17:58Z</time>
      </trkpt>
      <trkpt lat="46.74531" lon="4.91524">
        <ele>199.8</ele>
        <time>2024-09-18T10:17:59Z</time>
      </trkpt>
      <trkpt lat="46.74528" lon="4.91529">
        <ele>199.8</ele>
        <time>2024-09-18T10:18:00Z</time>
      </trkpt>
      <trkpt lat="46.74526" lon="4.91534">
        <ele>200.2</ele>
        <time>2024-09-18T10:18:01Z</time>
      </trkpt>
      <trkpt lat="46.74524" lon="4.9154">
        <ele>200.2</ele>
        <time>2024-09-18T10:18:02Z</time>
      </trkpt>
      <trkpt lat="46.74522" lon="4.91545">
        <ele>200.2</ele>
        <time>2024-09-18T10:18:03Z</time>
      </trkpt>
      <trkpt lat="46.7452" lon="4.9155">
        <ele>200.2</ele>
        <time>2024-09-18T10:18:04Z</time>
      </trkpt>
      <trkpt lat="46.74518" lon="4.91555">
        <ele>200.2</ele>
        <time>2024-09-18T10:18:05Z</time>
      </trkpt>
      <trkpt lat="46.74516" lon="4.91561">
        <ele>200.2</ele>
        <time>2024-09-18T10:18:06Z</time>
      </trkpt>
      <trkpt lat="46.74515" lon="4.91566">
        <ele>200.2</ele>
        <time>2024-09-18T10:18:07Z</time>
      </trkpt>
      <trkpt lat="46.74512" lon="4.91571">
        <ele>200.2</ele>
        <time>2024-09-18T10:18:08Z</time>
      </trkpt>
      <trkpt lat="46.7451" lon="4.91576">
        <ele>200.2</ele>
        <time>2024-09-18T10:18:09Z</time>
      </trkpt>
      <trkpt lat="46.74508" lon="4.91581">
        <ele>200.2</ele>
        <time>2024-09-18T10:18:10Z</time>
      </trkpt>
      <trkpt lat="46.74506" lon="4.91585">
        <ele>200.2</ele>
        <time>2024-09-18T10:18:11Z</time>
      </trkpt>
      <trkpt lat="46.74504" lon="4.9159">
        <ele>200.2</ele>
        <time>2024-09-18T10:18:12Z</time>
      </trkpt>
      <trkpt lat="46.74502" lon="4.91595">
        <ele>200.2</ele>
        <time>2024-09-18T10:18:13Z</time>
      </trkpt>
      <trkpt lat="46.745" lon="4.916">
        <ele>200.2</ele>
        <time>2024-09-18T10:18:14Z</time>
      </trkpt>
      <trkpt lat="46.74498" lon="4.91605">
        <ele>200.2</ele>
        <time>2024-09-18T10:18:15Z</time>
      </trkpt>
      <trkpt lat="46.74495" lon="4.9161">
        <ele>200.2</ele>
        <time>2024-09-18T10:18:16Z</time>
      </trkpt>
      <trkpt lat="46.74493" lon="4.91615">
        <ele>200.2</ele>
        <time>2024-09-18T10:18:17Z</time>
      </trkpt>
      <trkpt lat="46.74491" lon="4.91621">
        <ele>200.2</ele>
        <time>2024-09-18T10:18:18Z</time>
      </trkpt>
      <trkpt lat="46.74489" lon="4.91627">
        <ele>200.2</ele>
        <time>2024-09-18T10:18:19Z</time>
      </trkpt>
      <trkpt lat="46.74486" lon="4.91632">
        <ele>200.2</ele>
        <time>2024-09-18T10:18:20Z</time>
      </trkpt>
      <trkpt lat="46.74484" lon="4.91638">
        <ele>200.2</ele>
        <time>2024-09-18T10:18:21Z</time>
      </trkpt>
      <trkpt lat="46.74481" lon="4.91643">
        <ele>200.2</ele>
        <time>2024-09-18T10:18:22Z</time>
      </trkpt>
      <trkpt lat="46.74479" lon="4.91648">
        <ele>200.4</ele>
        <time>2024-09-18T10:18:23Z</time>
      </trkpt>
      <trkpt lat="46.74476" lon="4.91654">
        <ele>200.4</ele>
        <time>2024-09-18T10:18:24Z</time>
      </trkpt>
      <trkpt lat="46.74474" lon="4.9166">
        <ele>200.4</ele>
        <time>2024-09-18T10:18:25Z</time>
      </trkpt>
      <trkpt lat="46.74471" lon="4.91666">
        <ele>200.4</ele>
        <time>2024-09-18T10:18:26Z</time>
      </trkpt>
      <trkpt lat="46.74469" lon="4.91671">
        <ele>200.4</ele>
        <time>2024-09-18T10:18:27Z</time>
      </trkpt>
      <trkpt lat="46.74467" lon="4.91677">
        <ele>200.6</ele>
        <time>2024-09-18T10:18:28Z</time>
      </trkpt>
      <trkpt lat="46.74465" lon="4.91683">
        <ele>200.6</ele>
        <time>2024-09-18T10:18:29Z</time>
      </trkpt>
      <trkpt lat="46.74463" lon="4.91688">
        <ele>200.6</ele>
        <time>2024-09-18T10:18:30Z</time>
      </trkpt>
      <trkpt lat="46.7446" lon="4.91694">
        <ele>200.6</ele>
        <time>2024-09-18T10:18:31Z</time>
      </trkpt>
      <trkpt lat="46.74457" lon="4.91702">
        <ele>200.6</ele>
        <time>2024-09-18T10:18:32Z</time>
      </trkpt>
      <trkpt lat="46.74455" lon="4.91705">
        <ele>200.6</ele>
        <time>2024-09-18T10:18:33Z</time>
      </trkpt>
      <trkpt lat="46.74453" lon="4.91711">
        <ele>200.6</ele>
        <time>2024-09-18T10:18:34Z</time>
      </trkpt>
      <trkpt lat="46.74451" lon="4.91717">
        <ele>200.6</ele>
        <time>2024-09-18T10:18:35Z</time>
      </trkpt>
      <trkpt lat="46.74448" lon="4.91723">
        <ele>200.4</ele>
        <time>2024-09-18T10:18:36Z</time>
      </trkpt>
      <trkpt lat="46.74445" lon="4.91729">
        <ele>200.4</ele>
        <time>2024-09-18T10:18:37Z</time>
      </trkpt>
      <trkpt lat="46.74443" lon="4.91735">
        <ele>200.4</ele>
        <time>2024-09-18T10:18:38Z</time>
      </trkpt>
      <trkpt lat="46.7444" lon="4.91741">
        <ele>200.4</ele>
        <time>2024-09-18T10:18:39Z</time>
      </trkpt>
      <trkpt lat="46.74438" lon="4.91747">
        <ele>200.4</ele>
        <time>2024-09-18T10:18:40Z</time>
      </trkpt>
      <trkpt lat="46.74435" lon="4.91753">
        <ele>200.6</ele>
        <time>2024-09-18T10:18:41Z</time>
      </trkpt>
      <trkpt lat="46.74433" lon="4.91759">
        <ele>200.6</ele>
        <time>2024-09-18T10:18:42Z</time>
      </trkpt>
      <trkpt lat="46.74431" lon="4.91765">
        <ele>200.6</ele>
        <time>2024-09-18T10:18:43Z</time>
      </trkpt>
      <trkpt lat="46.74428" lon="4.91771">
        <ele>200.6</ele>
        <time>2024-09-18T10:18:44Z</time>
      </trkpt>
      <trkpt lat="46.74426" lon="4.91777">
        <ele>200.6</ele>
        <time>2024-09-18T10:18:45Z</time>
      </trkpt>
      <trkpt lat="46.74423" lon="4.91783">
        <ele>200.4</ele>
        <time>2024-09-18T10:18:46Z</time>
      </trkpt>
      <trkpt lat="46.74421" lon="4.91789">
        <ele>200.4</ele>
        <time>2024-09-18T10:18:47Z</time>
      </trkpt>
      <trkpt lat="46.74418" lon="4.91795">
        <ele>200.4</ele>
        <time>2024-09-18T10:18:48Z</time>
      </trkpt>
      <trkpt lat="46.74416" lon="4.91801">
        <ele>200.4</ele>
        <time>2024-09-18T10:18:49Z</time>
      </trkpt>
      <trkpt lat="46.74414" lon="4.91807">
        <ele>200.2</ele>
        <time>2024-09-18T10:18:50Z</time>
      </trkpt>
      <trkpt lat="46.74411" lon="4.91813">
        <ele>200.2</ele>
        <time>2024-09-18T10:18:51Z</time>
      </trkpt>
      <trkpt lat="46.74408" lon="4.91819">
        <ele>200.2</ele>
        <time>2024-09-18T10:18:52Z</time>
      </trkpt>
      <trkpt lat="46.74405" lon="4.91824">
        <ele>200.2</ele>
        <time>2024-09-18T10:18:53Z</time>
      </trkpt>
      <trkpt lat="46.74403" lon="4.9183">
        <ele>200.2</ele>
        <time>2024-09-18T10:18:54Z</time>
      </trkpt>
      <trkpt lat="46.74401" lon="4.91836">
        <ele>200.2</ele>
        <time>2024-09-18T10:18:55Z</time>
      </trkpt>
      <trkpt lat="46.74399" lon="4.91842">
        <ele>200.2</ele>
        <time>2024-09-18T10:18:56Z</time>
      </trkpt>
      <trkpt lat="46.74397" lon="4.91847">
        <ele>200.2</ele>
        <time>2024-09-18T10:18:57Z</time>
      </trkpt>
      <trkpt lat="46.74394" lon="4.91852">
        <ele>200.2</ele>
        <time>2024-09-18T10:18:58Z</time>
      </trkpt>
      <trkpt lat="46.74392" lon="4.91857">
        <ele>200.2</ele>
        <time>2024-09-18T10:18:59Z</time>
      </trkpt>
      <trkpt lat="46.7439" lon="4.91861">
        <ele>200.2</ele>
        <time>2024-09-18T10:19:00Z</time>
      </trkpt>
      <trkpt lat="46.74388" lon="4.91865">
        <ele>200.2</ele>
        <time>2024-09-18T10:19:01Z</time>
      </trkpt>
      <trkpt lat="46.74385" lon="4.91869">
        <ele>200.4</ele>
        <time>2024-09-18T10:19:02Z</time>
      </trkpt>
      <trkpt lat="46.74383" lon="4.91874">
        <ele>200.4</ele>
        <time>2024-09-18T10:19:03Z</time>
      </trkpt>
      <trkpt lat="46.74382" lon="4.91879">
        <ele>200.4</ele>
        <time>2024-09-18T10:19:04Z</time>
      </trkpt>
      <trkpt lat="46.7438" lon="4.91884">
        <ele>200.4</ele>
        <time>2024-09-18T10:19:05Z</time>
      </trkpt>
      <trkpt lat="46.74379" lon="4.91889">
        <ele>200.4</ele>
        <time>2024-09-18T10:19:06Z</time>
      </trkpt>
      <trkpt lat="46.74377" lon="4.91893">
        <ele>200.4</ele>
        <time>2024-09-18T10:19:07Z</time>
      </trkpt>
      <trkpt lat="46.74375" lon="4.91898">
        <ele>200.4</ele>
        <time>2024-09-18T10:19:08Z</time>
      </trkpt>
      <trkpt lat="46.74373" lon="4.91902">
        <ele>200.4</ele>
        <time>2024-09-18T10:19:09Z</time>
      </trkpt>
      <trkpt lat="46.74372" lon="4.91906">
        <ele>200.4</ele>
        <time>2024-09-18T10:19:10Z</time>
      </trkpt>
      <trkpt lat="46.7437" lon="4.9191">
        <ele>200.2</ele>
        <time>2024-09-18T10:19:11Z</time>
      </trkpt>
      <trkpt lat="46.74368" lon="4.91915">
        <ele>200.2</ele>
        <time>2024-09-18T10:19:12Z</time>
      </trkpt>
      <trkpt lat="46.74366" lon="4.9192">
        <ele>200.2</ele>
        <time>2024-09-18T10:19:13Z</time>
      </trkpt>
      <trkpt lat="46.74363" lon="4.91928">
        <ele>200.2</ele>
        <time>2024-09-18T10:19:14Z</time>
      </trkpt>
      <trkpt lat="46.74361" lon="4.91931">
        <ele>200.2</ele>
        <time>2024-09-18T10:19:15Z</time>
      </trkpt>
      <trkpt lat="46.74359" lon="4.91936">
        <ele>200.2</ele>
        <time>2024-09-18T10:19:16Z</time>
      </trkpt>
      <trkpt lat="46.74357" lon="4.91942">
        <ele>200.2</ele>
        <time>2024-09-18T10:19:17Z</time>
      </trkpt>
      <trkpt lat="46.74355" lon="4.91947">
        <ele>200.2</ele>
        <time>2024-09-18T10:19:18Z</time>
      </trkpt>
      <trkpt lat="46.74352" lon="4.91953">
        <ele>200.2</ele>
        <time>2024-09-18T10:19:19Z</time>
      </trkpt>
      <trkpt lat="46.7435" lon="4.91959">
        <ele>200.2</ele>
        <time>2024-09-18T10:19:20Z</time>
      </trkpt>
      <trkpt lat="46.74348" lon="4.91965">
        <ele>200.2</ele>
        <time>2024-09-18T10:19:21Z</time>
      </trkpt>
      <trkpt lat="46.74346" lon="4.91971">
        <ele>200.2</ele>
        <time>2024-09-18T10:19:22Z</time>
      </trkpt>
      <trkpt lat="46.74343" lon="4.91977">
        <ele>200.2</ele>
        <time>2024-09-18T10:19:23Z</time>
      </trkpt>
      <trkpt lat="46.74341" lon="4.91982">
        <ele>200.2</ele>
        <time>2024-09-18T10:19:24Z</time>
      </trkpt>
      <trkpt lat="46.74339" lon="4.91988">
        <ele>200.2</ele>
        <time>2024-09-18T10:19:25Z</time>
      </trkpt>
      <trkpt lat="46.74336" lon="4.91993">
        <ele>200</ele>
        <time>2024-09-18T10:19:26Z</time>
      </trkpt>
      <trkpt lat="46.74334" lon="4.91999">
        <ele>200</ele>
        <time>2024-09-18T10:19:27Z</time>
      </trkpt>
      <trkpt lat="46.74332" lon="4.92005">
        <ele>200</ele>
        <time>2024-09-18T10:19:28Z</time>
      </trkpt>
      <trkpt lat="46.74329" lon="4.92011">
        <ele>200</ele>
        <time>2024-09-18T10:19:29Z</time>
      </trkpt>
      <trkpt lat="46.74326" lon="4.92016">
        <ele>200</ele>
        <time>2024-09-18T10:19:30Z</time>
      </trkpt>
      <trkpt lat="46.74324" lon="4.92022">
        <ele>199.8</ele>
        <time>2024-09-18T10:19:31Z</time>
      </trkpt>
      <trkpt lat="46.74321" lon="4.92027">
        <ele>199.8</ele>
        <time>2024-09-18T10:19:32Z</time>
      </trkpt>
      <trkpt lat="46.74319" lon="4.92033">
        <ele>199.8</ele>
        <time>2024-09-18T10:19:33Z</time>
      </trkpt>
      <trkpt lat="46.74316" lon="4.92038">
        <ele>200</ele>
        <time>2024-09-18T10:19:34Z</time>
      </trkpt>
      <trkpt lat="46.74314" lon="4.92044">
        <ele>200</ele>
        <time>2024-09-18T10:19:35Z</time>
      </trkpt>
      <trkpt lat="46.74312" lon="4.92049">
        <ele>200</ele>
        <time>2024-09-18T10:19:36Z</time>
      </trkpt>
      <trkpt lat="46.74309" lon="4.92054">
        <ele>200</ele>
        <time>2024-09-18T10:19:37Z</time>
      </trkpt>
      <trkpt lat="46.74307" lon="4.9206">
        <ele>200</ele>
        <time>2024-09-18T10:19:38Z</time>
      </trkpt>
      <trkpt lat="46.74304" lon="4.92065">
        <ele>200</ele>
        <time>2024-09-18T10:19:39Z</time>
      </trkpt>
      <trkpt lat="46.74302" lon="4.92071">
        <ele>200</ele>
        <time>2024-09-18T10:19:40Z</time>
      </trkpt>
      <trkpt lat="46.743" lon="4.92076">
        <ele>200</ele>
        <time>2024-09-18T10:19:41Z</time>
      </trkpt>
      <trkpt lat="46.74297" lon="4.92081">
        <ele>200</ele>
        <time>2024-09-18T10:19:42Z</time>
      </trkpt>
      <trkpt lat="46.74295" lon="4.92086">
        <ele>200.2</ele>
        <time>2024-09-18T10:19:43Z</time>
      </trkpt>
      <trkpt lat="46.74292" lon="4.92091">
        <ele>200.2</ele>
        <time>2024-09-18T10:19:44Z</time>
      </trkpt>
      <trkpt lat="46.74291" lon="4.92096">
        <ele>200.2</ele>
        <time>2024-09-18T10:19:45Z</time>
      </trkpt>
      <trkpt lat="46.74288" lon="4.92101">
        <ele>200.2</ele>
        <time>2024-09-18T10:19:46Z</time>
      </trkpt>
      <trkpt lat="46.74286" lon="4.92106">
        <ele>200.2</ele>
        <time>2024-09-18T10:19:47Z</time>
      </trkpt>
      <trkpt lat="46.74284" lon="4.92111">
        <ele>200.4</ele>
        <time>2024-09-18T10:19:48Z</time>
      </trkpt>
      <trkpt lat="46.74282" lon="4.92117">
        <ele>200.4</ele>
        <time>2024-09-18T10:19:49Z</time>
      </trkpt>
      <trkpt lat="46.74279" lon="4.92123">
        <ele>200.4</ele>
        <time>2024-09-18T10:19:50Z</time>
      </trkpt>
      <trkpt lat="46.74277" lon="4.92128">
        <ele>200.4</ele>
        <time>2024-09-18T10:19:51Z</time>
      </trkpt>
      <trkpt lat="46.74275" lon="4.92134">
        <ele>200.4</ele>
        <time>2024-09-18T10:19:52Z</time>
      </trkpt>
      <trkpt lat="46.74273" lon="4.92139">
        <ele>200.4</ele>
        <time>2024-09-18T10:19:53Z</time>
      </trkpt>
      <trkpt lat="46.7427" lon="4.92144">
        <ele>200.4</ele>
        <time>2024-09-18T10:19:54Z</time>
      </trkpt>
      <trkpt lat="46.74268" lon="4.9215">
        <ele>200.4</ele>
        <time>2024-09-18T10:19:55Z</time>
      </trkpt>
      <trkpt lat="46.74266" lon="4.92156">
        <ele>200.6</ele>
        <time>2024-09-18T10:19:56Z</time>
      </trkpt>
      <trkpt lat="46.74263" lon="4.92164">
        <ele>200.4</ele>
        <time>2024-09-18T10:19:57Z</time>
      </trkpt>
      <trkpt lat="46.74262" lon="4.92166">
        <ele>200.4</ele>
        <time>2024-09-18T10:19:58Z</time>
      </trkpt>
      <trkpt lat="46.7426" lon="4.92172">
        <ele>200.4</ele>
        <time>2024-09-18T10:19:59Z</time>
      </trkpt>
      <trkpt lat="46.74258" lon="4.92177">
        <ele>200.4</ele>
        <time>2024-09-18T10:20:00Z</time>
      </trkpt>
      <trkpt lat="46.74255" lon="4.92183">
        <ele>200.8</ele>
        <time>2024-09-18T10:20:01Z</time>
      </trkpt>
      <trkpt lat="46.74253" lon="4.92189">
        <ele>200.8</ele>
        <time>2024-09-18T10:20:02Z</time>
      </trkpt>
      <trkpt lat="46.74251" lon="4.92194">
        <ele>200.8</ele>
        <time>2024-09-18T10:20:03Z</time>
      </trkpt>
      <trkpt lat="46.74248" lon="4.92199">
        <ele>200.8</ele>
        <time>2024-09-18T10:20:04Z</time>
      </trkpt>
      <trkpt lat="46.74246" lon="4.92204">
        <ele>200.8</ele>
        <time>2024-09-18T10:20:05Z</time>
      </trkpt>
      <trkpt lat="46.74243" lon="4.92209">
        <ele>200.8</ele>
        <time>2024-09-18T10:20:06Z</time>
      </trkpt>
      <trkpt lat="46.74241" lon="4.92213">
        <ele>200.8</ele>
        <time>2024-09-18T10:20:07Z</time>
      </trkpt>
      <trkpt lat="46.74239" lon="4.92218">
        <ele>200.8</ele>
        <time>2024-09-18T10:20:08Z</time>
      </trkpt>
      <trkpt lat="46.74237" lon="4.92223">
        <ele>200.8</ele>
        <time>2024-09-18T10:20:09Z</time>
      </trkpt>
      <trkpt lat="46.74234" lon="4.92228">
        <ele>200.8</ele>
        <time>2024-09-18T10:20:10Z</time>
      </trkpt>
      <trkpt lat="46.74232" lon="4.92233">
        <ele>200.8</ele>
        <time>2024-09-18T10:20:11Z</time>
      </trkpt>
      <trkpt lat="46.7423" lon="4.92239">
        <ele>200.8</ele>
        <time>2024-09-18T10:20:12Z</time>
      </trkpt>
      <trkpt lat="46.74227" lon="4.92245">
        <ele>200.8</ele>
        <time>2024-09-18T10:20:13Z</time>
      </trkpt>
      <trkpt lat="46.74224" lon="4.92251">
        <ele>200.8</ele>
        <time>2024-09-18T10:20:14Z</time>
      </trkpt>
      <trkpt lat="46.7422" lon="4.92257">
        <ele>201</ele>
        <time>2024-09-18T10:20:15Z</time>
      </trkpt>
      <trkpt lat="46.74218" lon="4.92262">
        <ele>201</ele>
        <time>2024-09-18T10:20:16Z</time>
      </trkpt>
      <trkpt lat="46.74216" lon="4.92268">
        <ele>201</ele>
        <time>2024-09-18T10:20:17Z</time>
      </trkpt>
      <trkpt lat="46.74214" lon="4.92274">
        <ele>201</ele>
        <time>2024-09-18T10:20:18Z</time>
      </trkpt>
      <trkpt lat="46.74212" lon="4.9228">
        <ele>201</ele>
        <time>2024-09-18T10:20:19Z</time>
      </trkpt>
      <trkpt lat="46.7421" lon="4.92285">
        <ele>201</ele>
        <time>2024-09-18T10:20:20Z</time>
      </trkpt>
      <trkpt lat="46.74208" lon="4.92291">
        <ele>201</ele>
        <time>2024-09-18T10:20:21Z</time>
      </trkpt>
      <trkpt lat="46.74206" lon="4.92297">
        <ele>201</ele>
        <time>2024-09-18T10:20:22Z</time>
      </trkpt>
      <trkpt lat="46.74204" lon="4.92303">
        <ele>201</ele>
        <time>2024-09-18T10:20:23Z</time>
      </trkpt>
      <trkpt lat="46.74202" lon="4.92309">
        <ele>201</ele>
        <time>2024-09-18T10:20:24Z</time>
      </trkpt>
      <trkpt lat="46.74199" lon="4.92315">
        <ele>201</ele>
        <time>2024-09-18T10:20:25Z</time>
      </trkpt>
      <trkpt lat="46.74198" lon="4.9232">
        <ele>201</ele>
        <time>2024-09-18T10:20:26Z</time>
      </trkpt>
      <trkpt lat="46.74196" lon="4.92325">
        <ele>201</ele>
        <time>2024-09-18T10:20:27Z</time>
      </trkpt>
      <trkpt lat="46.74194" lon="4.9233">
        <ele>201</ele>
        <time>2024-09-18T10:20:28Z</time>
      </trkpt>
      <trkpt lat="46.74191" lon="4.92335">
        <ele>201</ele>
        <time>2024-09-18T10:20:29Z</time>
      </trkpt>
      <trkpt lat="46.74189" lon="4.92341">
        <ele>201</ele>
        <time>2024-09-18T10:20:30Z</time>
      </trkpt>
      <trkpt lat="46.74186" lon="4.92347">
        <ele>201</ele>
        <time>2024-09-18T10:20:31Z</time>
      </trkpt>
      <trkpt lat="46.74183" lon="4.92354">
        <ele>200.8</ele>
        <time>2024-09-18T10:20:32Z</time>
      </trkpt>
      <trkpt lat="46.74181" lon="4.92359">
        <ele>200.8</ele>
        <time>2024-09-18T10:20:33Z</time>
      </trkpt>
      <trkpt lat="46.74178" lon="4.92366">
        <ele>201</ele>
        <time>2024-09-18T10:20:34Z</time>
      </trkpt>
      <trkpt lat="46.74176" lon="4.92372">
        <ele>201</ele>
        <time>2024-09-18T10:20:35Z</time>
      </trkpt>
      <trkpt lat="46.74173" lon="4.92378">
        <ele>200.8</ele>
        <time>2024-09-18T10:20:36Z</time>
      </trkpt>
      <trkpt lat="46.74171" lon="4.92383">
        <ele>200.8</ele>
        <time>2024-09-18T10:20:37Z</time>
      </trkpt>
      <trkpt lat="46.74168" lon="4.92389">
        <ele>200.8</ele>
        <time>2024-09-18T10:20:38Z</time>
      </trkpt>
      <trkpt lat="46.74166" lon="4.92395">
        <ele>200.8</ele>
        <time>2024-09-18T10:20:39Z</time>
      </trkpt>
      <trkpt lat="46.74164" lon="4.924">
        <ele>200.8</ele>
        <time>2024-09-18T10:20:40Z</time>
      </trkpt>
      <trkpt lat="46.74161" lon="4.92405">
        <ele>200.8</ele>
        <time>2024-09-18T10:20:41Z</time>
      </trkpt>
      <trkpt lat="46.74159" lon="4.92411">
        <ele>200.8</ele>
        <time>2024-09-18T10:20:42Z</time>
      </trkpt>
      <trkpt lat="46.74157" lon="4.92418">
        <ele>200.8</ele>
        <time>2024-09-18T10:20:43Z</time>
      </trkpt>
      <trkpt lat="46.74155" lon="4.92424">
        <ele>200.8</ele>
        <time>2024-09-18T10:20:44Z</time>
      </trkpt>
      <trkpt lat="46.74153" lon="4.9243">
        <ele>200.8</ele>
        <time>2024-09-18T10:20:45Z</time>
      </trkpt>
      <trkpt lat="46.7415" lon="4.92436">
        <ele>200.8</ele>
        <time>2024-09-18T10:20:46Z</time>
      </trkpt>
      <trkpt lat="46.74147" lon="4.92443">
        <ele>200.8</ele>
        <time>2024-09-18T10:20:47Z</time>
      </trkpt>
      <trkpt lat="46.74145" lon="4.92449">
        <ele>200.8</ele>
        <time>2024-09-18T10:20:48Z</time>
      </trkpt>
      <trkpt lat="46.74142" lon="4.92456">
        <ele>200.8</ele>
        <time>2024-09-18T10:20:49Z</time>
      </trkpt>
      <trkpt lat="46.74139" lon="4.92463">
        <ele>200.6</ele>
        <time>2024-09-18T10:20:50Z</time>
      </trkpt>
      <trkpt lat="46.74136" lon="4.92469">
        <ele>200.6</ele>
        <time>2024-09-18T10:20:51Z</time>
      </trkpt>
      <trkpt lat="46.74133" lon="4.92476">
        <ele>200.6</ele>
        <time>2024-09-18T10:20:52Z</time>
      </trkpt>
      <trkpt lat="46.74131" lon="4.92482">
        <ele>200.6</ele>
        <time>2024-09-18T10:20:53Z</time>
      </trkpt>
      <trkpt lat="46.74126" lon="4.92492">
        <ele>200.6</ele>
        <time>2024-09-18T10:20:54Z</time>
      </trkpt>
      <trkpt lat="46.74125" lon="4.92495">
        <ele>200.6</ele>
        <time>2024-09-18T10:20:55Z</time>
      </trkpt>
      <trkpt lat="46.74123" lon="4.92502">
        <ele>200.4</ele>
        <time>2024-09-18T10:20:56Z</time>
      </trkpt>
      <trkpt lat="46.7412" lon="4.92508">
        <ele>200.4</ele>
        <time>2024-09-18T10:20:57Z</time>
      </trkpt>
      <trkpt lat="46.74118" lon="4.92515">
        <ele>200.4</ele>
        <time>2024-09-18T10:20:58Z</time>
      </trkpt>
      <trkpt lat="46.74115" lon="4.9252">
        <ele>200.4</ele>
        <time>2024-09-18T10:20:59Z</time>
      </trkpt>
      <trkpt lat="46.74112" lon="4.92527">
        <ele>200.4</ele>
        <time>2024-09-18T10:21:00Z</time>
      </trkpt>
      <trkpt lat="46.7411" lon="4.92533">
        <ele>200.4</ele>
        <time>2024-09-18T10:21:01Z</time>
      </trkpt>
      <trkpt lat="46.74107" lon="4.9254">
        <ele>200.4</ele>
        <time>2024-09-18T10:21:02Z</time>
      </trkpt>
      <trkpt lat="46.74104" lon="4.92546">
        <ele>200.4</ele>
        <time>2024-09-18T10:21:03Z</time>
      </trkpt>
      <trkpt lat="46.74102" lon="4.92551">
        <ele>200.4</ele>
        <time>2024-09-18T10:21:04Z</time>
      </trkpt>
      <trkpt lat="46.74099" lon="4.92558">
        <ele>200.2</ele>
        <time>2024-09-18T10:21:05Z</time>
      </trkpt>
      <trkpt lat="46.74096" lon="4.92563">
        <ele>200.2</ele>
        <time>2024-09-18T10:21:06Z</time>
      </trkpt>
      <trkpt lat="46.74094" lon="4.92569">
        <ele>200.2</ele>
        <time>2024-09-18T10:21:07Z</time>
      </trkpt>
      <trkpt lat="46.74091" lon="4.92576">
        <ele>200.2</ele>
        <time>2024-09-18T10:21:08Z</time>
      </trkpt>
      <trkpt lat="46.74088" lon="4.92582">
        <ele>199.8</ele>
        <time>2024-09-18T10:21:09Z</time>
      </trkpt>
      <trkpt lat="46.74086" lon="4.92588">
        <ele>199.8</ele>
        <time>2024-09-18T10:21:10Z</time>
      </trkpt>
      <trkpt lat="46.74083" lon="4.92594">
        <ele>199.8</ele>
        <time>2024-09-18T10:21:11Z</time>
      </trkpt>
      <trkpt lat="46.74081" lon="4.926">
        <ele>200</ele>
        <time>2024-09-18T10:21:12Z</time>
      </trkpt>
      <trkpt lat="46.74078" lon="4.92606">
        <ele>199.6</ele>
        <time>2024-09-18T10:21:13Z</time>
      </trkpt>
      <trkpt lat="46.74076" lon="4.92612">
        <ele>199.6</ele>
        <time>2024-09-18T10:21:14Z</time>
      </trkpt>
      <trkpt lat="46.74073" lon="4.92617">
        <ele>199.6</ele>
        <time>2024-09-18T10:21:15Z</time>
      </trkpt>
      <trkpt lat="46.74071" lon="4.92624">
        <ele>199.6</ele>
        <time>2024-09-18T10:21:16Z</time>
      </trkpt>
      <trkpt lat="46.74068" lon="4.9263">
        <ele>200</ele>
        <time>2024-09-18T10:21:17Z</time>
      </trkpt>
      <trkpt lat="46.74066" lon="4.92636">
        <ele>200</ele>
        <time>2024-09-18T10:21:18Z</time>
      </trkpt>
      <trkpt lat="46.74063" lon="4.92642">
        <ele>200.2</ele>
        <time>2024-09-18T10:21:19Z</time>
      </trkpt>
      <trkpt lat="46.74061" lon="4.92648">
        <ele>200.2</ele>
        <time>2024-09-18T10:21:20Z</time>
      </trkpt>
      <trkpt lat="46.74059" lon="4.92653">
        <ele>200.2</ele>
        <time>2024-09-18T10:21:21Z</time>
      </trkpt>
      <trkpt lat="46.74055" lon="4.92662">
        <ele>199</ele>
        <time>2024-09-18T10:21:22Z</time>
      </trkpt>
      <trkpt lat="46.74054" lon="4.92665">
        <ele>199</ele>
        <time>2024-09-18T10:21:23Z</time>
      </trkpt>
      <trkpt lat="46.74052" lon="4.9267">
        <ele>199</ele>
        <time>2024-09-18T10:21:24Z</time>
      </trkpt>
      <trkpt lat="46.74049" lon="4.92677">
        <ele>199</ele>
        <time>2024-09-18T10:21:25Z</time>
      </trkpt>
      <trkpt lat="46.74047" lon="4.92683">
        <ele>199.6</ele>
        <time>2024-09-18T10:21:26Z</time>
      </trkpt>
      <trkpt lat="46.74044" lon="4.9269">
        <ele>199.2</ele>
        <time>2024-09-18T10:21:27Z</time>
      </trkpt>
      <trkpt lat="46.74042" lon="4.92696">
        <ele>199.2</ele>
        <time>2024-09-18T10:21:28Z</time>
      </trkpt>
      <trkpt lat="46.74039" lon="4.92702">
        <ele>199.2</ele>
        <time>2024-09-18T10:21:29Z</time>
      </trkpt>
      <trkpt lat="46.74037" lon="4.92709">
        <ele>199.2</ele>
        <time>2024-09-18T10:21:30Z</time>
      </trkpt>
      <trkpt lat="46.74034" lon="4.92715">
        <ele>199.2</ele>
        <time>2024-09-18T10:21:31Z</time>
      </trkpt>
      <trkpt lat="46.74032" lon="4.92721">
        <ele>199.2</ele>
        <time>2024-09-18T10:21:32Z</time>
      </trkpt>
      <trkpt lat="46.74029" lon="4.92726">
        <ele>199.2</ele>
        <time>2024-09-18T10:21:33Z</time>
      </trkpt>
      <trkpt lat="46.74027" lon="4.92733">
        <ele>199.2</ele>
        <time>2024-09-18T10:21:34Z</time>
      </trkpt>
      <trkpt lat="46.74024" lon="4.92739">
        <ele>199.2</ele>
        <time>2024-09-18T10:21:35Z</time>
      </trkpt>
      <trkpt lat="46.74022" lon="4.92745">
        <ele>199.4</ele>
        <time>2024-09-18T10:21:36Z</time>
      </trkpt>
      <trkpt lat="46.74019" lon="4.92751">
        <ele>199.4</ele>
        <time>2024-09-18T10:21:37Z</time>
      </trkpt>
      <trkpt lat="46.74017" lon="4.92757">
        <ele>199.4</ele>
        <time>2024-09-18T10:21:38Z</time>
      </trkpt>
      <trkpt lat="46.74014" lon="4.92763">
        <ele>199.4</ele>
        <time>2024-09-18T10:21:39Z</time>
      </trkpt>
      <trkpt lat="46.74012" lon="4.92769">
        <ele>199.4</ele>
        <time>2024-09-18T10:21:40Z</time>
      </trkpt>
      <trkpt lat="46.7401" lon="4.92775">
        <ele>199</ele>
        <time>2024-09-18T10:21:41Z</time>
      </trkpt>
      <trkpt lat="46.74007" lon="4.92781">
        <ele>199</ele>
        <time>2024-09-18T10:21:42Z</time>
      </trkpt>
      <trkpt lat="46.74005" lon="4.92786">
        <ele>199</ele>
        <time>2024-09-18T10:21:43Z</time>
      </trkpt>
      <trkpt lat="46.74003" lon="4.92792">
        <ele>199</ele>
        <time>2024-09-18T10:21:44Z</time>
      </trkpt>
      <trkpt lat="46.74001" lon="4.92797">
        <ele>198.8</ele>
        <time>2024-09-18T10:21:45Z</time>
      </trkpt>
      <trkpt lat="46.73999" lon="4.92802">
        <ele>198.8</ele>
        <time>2024-09-18T10:21:46Z</time>
      </trkpt>
      <trkpt lat="46.73997" lon="4.92807">
        <ele>198.8</ele>
        <time>2024-09-18T10:21:47Z</time>
      </trkpt>
      <trkpt lat="46.73994" lon="4.92812">
        <ele>198.8</ele>
        <time>2024-09-18T10:21:48Z</time>
      </trkpt>
      <trkpt lat="46.73992" lon="4.92816">
        <ele>198.8</ele>
        <time>2024-09-18T10:21:49Z</time>
      </trkpt>
      <trkpt lat="46.73989" lon="4.92824">
        <ele>199</ele>
        <time>2024-09-18T10:21:50Z</time>
      </trkpt>
      <trkpt lat="46.73988" lon="4.92826">
        <ele>199</ele>
        <time>2024-09-18T10:21:51Z</time>
      </trkpt>
      <trkpt lat="46.73987" lon="4.92831">
        <ele>199</ele>
        <time>2024-09-18T10:21:52Z</time>
      </trkpt>
      <trkpt lat="46.73985" lon="4.92836">
        <ele>199</ele>
        <time>2024-09-18T10:21:53Z</time>
      </trkpt>
      <trkpt lat="46.73982" lon="4.9284">
        <ele>199</ele>
        <time>2024-09-18T10:21:54Z</time>
      </trkpt>
      <trkpt lat="46.7398" lon="4.92846">
        <ele>198.8</ele>
        <time>2024-09-18T10:21:55Z</time>
      </trkpt>
      <trkpt lat="46.73978" lon="4.92851">
        <ele>198.8</ele>
        <time>2024-09-18T10:21:56Z</time>
      </trkpt>
      <trkpt lat="46.73976" lon="4.92856">
        <ele>198.8</ele>
        <time>2024-09-18T10:21:57Z</time>
      </trkpt>
      <trkpt lat="46.73974" lon="4.92861">
        <ele>198.8</ele>
        <time>2024-09-18T10:21:58Z</time>
      </trkpt>
      <trkpt lat="46.73971" lon="4.92866">
        <ele>198.8</ele>
        <time>2024-09-18T10:21:59Z</time>
      </trkpt>
      <trkpt lat="46.7397" lon="4.92871">
        <ele>198.8</ele>
        <time>2024-09-18T10:22:00Z</time>
      </trkpt>
      <trkpt lat="46.73968" lon="4.92874">
        <ele>198.8</ele>
        <time>2024-09-18T10:22:01Z</time>
      </trkpt>
      <trkpt lat="46.73967" lon="4.92876">
        <ele>198.6</ele>
        <time>2024-09-18T10:22:02Z</time>
      </trkpt>
      <trkpt lat="46.73966" lon="4.92878">
        <ele>198.4</ele>
        <time>2024-09-18T10:22:03Z</time>
      </trkpt>
      <trkpt lat="46.73965" lon="4.9288">
        <ele>198.4</ele>
        <time>2024-09-18T10:22:04Z</time>
      </trkpt>
      <trkpt lat="46.73964" lon="4.92883">
        <ele>198.4</ele>
        <time>2024-09-18T10:22:05Z</time>
      </trkpt>
      <trkpt lat="46.73963" lon="4.92886">
        <ele>198.4</ele>
        <time>2024-09-18T10:22:06Z</time>
      </trkpt>
      <trkpt lat="46.73961" lon="4.92889">
        <ele>198.4</ele>
        <time>2024-09-18T10:22:07Z</time>
      </trkpt>
      <trkpt lat="46.7396" lon="4.92893">
        <ele>198.4</ele>
        <time>2024-09-18T10:22:08Z</time>
      </trkpt>
      <trkpt lat="46.73959" lon="4.92897">
        <ele>198.4</ele>
        <time>2024-09-18T10:22:09Z</time>
      </trkpt>
      <trkpt lat="46.73958" lon="4.92901">
        <ele>198.4</ele>
        <time>2024-09-18T10:22:10Z</time>
      </trkpt>
      <trkpt lat="46.73956" lon="4.92906">
        <ele>198.4</ele>
        <time>2024-09-18T10:22:11Z</time>
      </trkpt>
      <trkpt lat="46.73954" lon="4.9291">
        <ele>198.6</ele>
        <time>2024-09-18T10:22:12Z</time>
      </trkpt>
      <trkpt lat="46.73952" lon="4.92914">
        <ele>198.6</ele>
        <time>2024-09-18T10:22:13Z</time>
      </trkpt>
      <trkpt lat="46.7395" lon="4.92919">
        <ele>198.6</ele>
        <time>2024-09-18T10:22:14Z</time>
      </trkpt>
      <trkpt lat="46.73948" lon="4.92923">
        <ele>198.4</ele>
        <time>2024-09-18T10:22:15Z</time>
      </trkpt>
      <trkpt lat="46.73946" lon="4.92928">
        <ele>198.6</ele>
        <time>2024-09-18T10:22:16Z</time>
      </trkpt>
      <trkpt lat="46.73945" lon="4.92933">
        <ele>198.6</ele>
        <time>2024-09-18T10:22:17Z</time>
      </trkpt>
      <trkpt lat="46.73943" lon="4.92938">
        <ele>198.6</ele>
        <time>2024-09-18T10:22:18Z</time>
      </trkpt>
      <trkpt lat="46.73941" lon="4.92943">
        <ele>198.6</ele>
        <time>2024-09-18T10:22:19Z</time>
      </trkpt>
      <trkpt lat="46.73939" lon="4.92948">
        <ele>198.6</ele>
        <time>2024-09-18T10:22:20Z</time>
      </trkpt>
      <trkpt lat="46.73937" lon="4.92953">
        <ele>198.4</ele>
        <time>2024-09-18T10:22:21Z</time>
      </trkpt>
      <trkpt lat="46.73935" lon="4.92957">
        <ele>198.4</ele>
        <time>2024-09-18T10:22:22Z</time>
      </trkpt>
      <trkpt lat="46.73933" lon="4.92962">
        <ele>198.4</ele>
        <time>2024-09-18T10:22:23Z</time>
      </trkpt>
      <trkpt lat="46.73931" lon="4.92967">
        <ele>198.4</ele>
        <time>2024-09-18T10:22:24Z</time>
      </trkpt>
      <trkpt lat="46.73929" lon="4.92972">
        <ele>198.6</ele>
        <time>2024-09-18T10:22:25Z</time>
      </trkpt>
      <trkpt lat="46.73927" lon="4.92977">
        <ele>198.6</ele>
        <time>2024-09-18T10:22:26Z</time>
      </trkpt>
      <trkpt lat="46.73925" lon="4.92982">
        <ele>198.6</ele>
        <time>2024-09-18T10:22:27Z</time>
      </trkpt>
      <trkpt lat="46.73923" lon="4.92986">
        <ele>198.6</ele>
        <time>2024-09-18T10:22:28Z</time>
      </trkpt>
      <trkpt lat="46.73921" lon="4.92991">
        <ele>198.6</ele>
        <time>2024-09-18T10:22:29Z</time>
      </trkpt>
      <trkpt lat="46.73919" lon="4.92995">
        <ele>198.4</ele>
        <time>2024-09-18T10:22:30Z</time>
      </trkpt>
      <trkpt lat="46.73916" lon="4.92999">
        <ele>198.4</ele>
        <time>2024-09-18T10:22:31Z</time>
      </trkpt>
      <trkpt lat="46.73914" lon="4.93003">
        <ele>198.4</ele>
        <time>2024-09-18T10:22:32Z</time>
      </trkpt>
      <trkpt lat="46.73912" lon="4.93008">
        <ele>198.6</ele>
        <time>2024-09-18T10:22:33Z</time>
      </trkpt>
      <trkpt lat="46.73911" lon="4.93012">
        <ele>198.6</ele>
        <time>2024-09-18T10:22:34Z</time>
      </trkpt>
      <trkpt lat="46.7391" lon="4.93017">
        <ele>198.6</ele>
        <time>2024-09-18T10:22:35Z</time>
      </trkpt>
      <trkpt lat="46.73908" lon="4.93021">
        <ele>198.6</ele>
        <time>2024-09-18T10:22:36Z</time>
      </trkpt>
      <trkpt lat="46.73906" lon="4.93026">
        <ele>198.6</ele>
        <time>2024-09-18T10:22:37Z</time>
      </trkpt>
      <trkpt lat="46.73905" lon="4.9303">
        <ele>198.6</ele>
        <time>2024-09-18T10:22:38Z</time>
      </trkpt>
      <trkpt lat="46.73903" lon="4.93035">
        <ele>198.4</ele>
        <time>2024-09-18T10:22:39Z</time>
      </trkpt>
      <trkpt lat="46.73901" lon="4.9304">
        <ele>198.4</ele>
        <time>2024-09-18T10:22:40Z</time>
      </trkpt>
      <trkpt lat="46.73898" lon="4.93045">
        <ele>198.4</ele>
        <time>2024-09-18T10:22:41Z</time>
      </trkpt>
      <trkpt lat="46.73896" lon="4.93051">
        <ele>198.4</ele>
        <time>2024-09-18T10:22:42Z</time>
      </trkpt>
      <trkpt lat="46.73894" lon="4.93056">
        <ele>198.4</ele>
        <time>2024-09-18T10:22:43Z</time>
      </trkpt>
      <trkpt lat="46.73892" lon="4.93061">
        <ele>198.6</ele>
        <time>2024-09-18T10:22:44Z</time>
      </trkpt>
      <trkpt lat="46.7389" lon="4.93067">
        <ele>198.6</ele>
        <time>2024-09-18T10:22:45Z</time>
      </trkpt>
      <trkpt lat="46.73888" lon="4.93072">
        <ele>198.6</ele>
        <time>2024-09-18T10:22:46Z</time>
      </trkpt>
      <trkpt lat="46.73885" lon="4.93078">
        <ele>198.6</ele>
        <time>2024-09-18T10:22:47Z</time>
      </trkpt>
      <trkpt lat="46.73883" lon="4.93083">
        <ele>198.4</ele>
        <time>2024-09-18T10:22:48Z</time>
      </trkpt>
      <trkpt lat="46.73881" lon="4.93089">
        <ele>198.4</ele>
        <time>2024-09-18T10:22:49Z</time>
      </trkpt>
      <trkpt lat="46.73879" lon="4.93095">
        <ele>198.4</ele>
        <time>2024-09-18T10:22:50Z</time>
      </trkpt>
      <trkpt lat="46.73876" lon="4.931">
        <ele>198.4</ele>
        <time>2024-09-18T10:22:51Z</time>
      </trkpt>
      <trkpt lat="46.73874" lon="4.93106">
        <ele>198.4</ele>
        <time>2024-09-18T10:22:52Z</time>
      </trkpt>
      <trkpt lat="46.73871" lon="4.93112">
        <ele>198.6</ele>
        <time>2024-09-18T10:22:53Z</time>
      </trkpt>
      <trkpt lat="46.73869" lon="4.93117">
        <ele>198.6</ele>
        <time>2024-09-18T10:22:54Z</time>
      </trkpt>
      <trkpt lat="46.73867" lon="4.93123">
        <ele>198.6</ele>
        <time>2024-09-18T10:22:55Z</time>
      </trkpt>
      <trkpt lat="46.73865" lon="4.93129">
        <ele>198.4</ele>
        <time>2024-09-18T10:22:56Z</time>
      </trkpt>
      <trkpt lat="46.73862" lon="4.93134">
        <ele>198.4</ele>
        <time>2024-09-18T10:22:57Z</time>
      </trkpt>
      <trkpt lat="46.7386" lon="4.9314">
        <ele>198.4</ele>
        <time>2024-09-18T10:22:58Z</time>
      </trkpt>
      <trkpt lat="46.73857" lon="4.93146">
        <ele>198.4</ele>
        <time>2024-09-18T10:22:59Z</time>
      </trkpt>
      <trkpt lat="46.73855" lon="4.93151">
        <ele>198.4</ele>
        <time>2024-09-18T10:23:00Z</time>
      </trkpt>
      <trkpt lat="46.73853" lon="4.93157">
        <ele>198.4</ele>
        <time>2024-09-18T10:23:01Z</time>
      </trkpt>
      <trkpt lat="46.73851" lon="4.93162">
        <ele>199</ele>
        <time>2024-09-18T10:23:02Z</time>
      </trkpt>
      <trkpt lat="46.73848" lon="4.93168">
        <ele>199</ele>
        <time>2024-09-18T10:23:03Z</time>
      </trkpt>
      <trkpt lat="46.73846" lon="4.93173">
        <ele>199</ele>
        <time>2024-09-18T10:23:04Z</time>
      </trkpt>
      <trkpt lat="46.73844" lon="4.93179">
        <ele>198.6</ele>
        <time>2024-09-18T10:23:05Z</time>
      </trkpt>
      <trkpt lat="46.73841" lon="4.93185">
        <ele>199.4</ele>
        <time>2024-09-18T10:23:06Z</time>
      </trkpt>
      <trkpt lat="46.73838" lon="4.9319">
        <ele>199.4</ele>
        <time>2024-09-18T10:23:07Z</time>
      </trkpt>
      <trkpt lat="46.73836" lon="4.93196">
        <ele>199.4</ele>
        <time>2024-09-18T10:23:08Z</time>
      </trkpt>
      <trkpt lat="46.73834" lon="4.93201">
        <ele>199</ele>
        <time>2024-09-18T10:23:09Z</time>
      </trkpt>
      <trkpt lat="46.73831" lon="4.93207">
        <ele>199</ele>
        <time>2024-09-18T10:23:10Z</time>
      </trkpt>
      <trkpt lat="46.73829" lon="4.93212">
        <ele>199</ele>
        <time>2024-09-18T10:23:11Z</time>
      </trkpt>
      <trkpt lat="46.73827" lon="4.93218">
        <ele>199</ele>
        <time>2024-09-18T10:23:12Z</time>
      </trkpt>
      <trkpt lat="46.73825" lon="4.93223">
        <ele>199</ele>
        <time>2024-09-18T10:23:13Z</time>
      </trkpt>
      <trkpt lat="46.73822" lon="4.93229">
        <ele>199</ele>
        <time>2024-09-18T10:23:14Z</time>
      </trkpt>
      <trkpt lat="46.7382" lon="4.93234">
        <ele>199</ele>
        <time>2024-09-18T10:23:15Z</time>
      </trkpt>
      <trkpt lat="46.73818" lon="4.9324">
        <ele>199</ele>
        <time>2024-09-18T10:23:16Z</time>
      </trkpt>
      <trkpt lat="46.73816" lon="4.93245">
        <ele>199</ele>
        <time>2024-09-18T10:23:17Z</time>
      </trkpt>
      <trkpt lat="46.73813" lon="4.93251">
        <ele>199</ele>
        <time>2024-09-18T10:23:18Z</time>
      </trkpt>
      <trkpt lat="46.7381" lon="4.93257">
        <ele>199</ele>
        <time>2024-09-18T10:23:19Z</time>
      </trkpt>
      <trkpt lat="46.73808" lon="4.93263">
        <ele>199.2</ele>
        <time>2024-09-18T10:23:20Z</time>
      </trkpt>
      <trkpt lat="46.73805" lon="4.93268">
        <ele>199.2</ele>
        <time>2024-09-18T10:23:21Z</time>
      </trkpt>
      <trkpt lat="46.73803" lon="4.93274">
        <ele>199.2</ele>
        <time>2024-09-18T10:23:22Z</time>
      </trkpt>
      <trkpt lat="46.73801" lon="4.9328">
        <ele>199.2</ele>
        <time>2024-09-18T10:23:23Z</time>
      </trkpt>
      <trkpt lat="46.73798" lon="4.93285">
        <ele>199.4</ele>
        <time>2024-09-18T10:23:24Z</time>
      </trkpt>
      <trkpt lat="46.73796" lon="4.93291">
        <ele>199.4</ele>
        <time>2024-09-18T10:23:25Z</time>
      </trkpt>
      <trkpt lat="46.73794" lon="4.93297">
        <ele>199.4</ele>
        <time>2024-09-18T10:23:26Z</time>
      </trkpt>
      <trkpt lat="46.73791" lon="4.93303">
        <ele>199</ele>
        <time>2024-09-18T10:23:27Z</time>
      </trkpt>
      <trkpt lat="46.73788" lon="4.93309">
        <ele>199.6</ele>
        <time>2024-09-18T10:23:28Z</time>
      </trkpt>
      <trkpt lat="46.73785" lon="4.93315">
        <ele>199.6</ele>
        <time>2024-09-18T10:23:29Z</time>
      </trkpt>
      <trkpt lat="46.73782" lon="4.93324">
        <ele>199.6</ele>
        <time>2024-09-18T10:23:30Z</time>
      </trkpt>
      <trkpt lat="46.73781" lon="4.93327">
        <ele>199.6</ele>
        <time>2024-09-18T10:23:31Z</time>
      </trkpt>
      <trkpt lat="46.73779" lon="4.93333">
        <ele>199.2</ele>
        <time>2024-09-18T10:23:32Z</time>
      </trkpt>
      <trkpt lat="46.73776" lon="4.93338">
        <ele>199.2</ele>
        <time>2024-09-18T10:23:33Z</time>
      </trkpt>
      <trkpt lat="46.73774" lon="4.93344">
        <ele>199.2</ele>
        <time>2024-09-18T10:23:34Z</time>
      </trkpt>
      <trkpt lat="46.73772" lon="4.9335">
        <ele>199.2</ele>
        <time>2024-09-18T10:23:35Z</time>
      </trkpt>
      <trkpt lat="46.73769" lon="4.93355">
        <ele>199.6</ele>
        <time>2024-09-18T10:23:36Z</time>
      </trkpt>
      <trkpt lat="46.73767" lon="4.93361">
        <ele>198.8</ele>
        <time>2024-09-18T10:23:37Z</time>
      </trkpt>
      <trkpt lat="46.73764" lon="4.93367">
        <ele>198.8</ele>
        <time>2024-09-18T10:23:38Z</time>
      </trkpt>
      <trkpt lat="46.73762" lon="4.93372">
        <ele>198.8</ele>
        <time>2024-09-18T10:23:39Z</time>
      </trkpt>
      <trkpt lat="46.7376" lon="4.93378">
        <ele>199.2</ele>
        <time>2024-09-18T10:23:40Z</time>
      </trkpt>
      <trkpt lat="46.73757" lon="4.93384">
        <ele>199.8</ele>
        <time>2024-09-18T10:23:41Z</time>
      </trkpt>
      <trkpt lat="46.73755" lon="4.9339">
        <ele>199.8</ele>
        <time>2024-09-18T10:23:42Z</time>
      </trkpt>
      <trkpt lat="46.73752" lon="4.93395">
        <ele>199.8</ele>
        <time>2024-09-18T10:23:43Z</time>
      </trkpt>
      <trkpt lat="46.7375" lon="4.934">
        <ele>199.8</ele>
        <time>2024-09-18T10:23:44Z</time>
      </trkpt>
      <trkpt lat="46.73748" lon="4.93406">
        <ele>199.8</ele>
        <time>2024-09-18T10:23:45Z</time>
      </trkpt>
      <trkpt lat="46.73745" lon="4.93411">
        <ele>199.8</ele>
        <time>2024-09-18T10:23:46Z</time>
      </trkpt>
      <trkpt lat="46.73743" lon="4.93416">
        <ele>199.8</ele>
        <time>2024-09-18T10:23:47Z</time>
      </trkpt>
      <trkpt lat="46.7374" lon="4.93421">
        <ele>199.8</ele>
        <time>2024-09-18T10:23:48Z</time>
      </trkpt>
      <trkpt lat="46.73737" lon="4.93426">
        <ele>199.8</ele>
        <time>2024-09-18T10:23:49Z</time>
      </trkpt>
      <trkpt lat="46.73735" lon="4.93432">
        <ele>199.6</ele>
        <time>2024-09-18T10:23:50Z</time>
      </trkpt>
      <trkpt lat="46.73734" lon="4.93437">
        <ele>199.6</ele>
        <time>2024-09-18T10:23:51Z</time>
      </trkpt>
      <trkpt lat="46.73732" lon="4.93443">
        <ele>199.6</ele>
        <time>2024-09-18T10:23:52Z</time>
      </trkpt>
      <trkpt lat="46.7373" lon="4.93448">
        <ele>199.6</ele>
        <time>2024-09-18T10:23:53Z</time>
      </trkpt>
      <trkpt lat="46.73727" lon="4.93454">
        <ele>199.6</ele>
        <time>2024-09-18T10:23:54Z</time>
      </trkpt>
      <trkpt lat="46.73725" lon="4.93459">
        <ele>199.8</ele>
        <time>2024-09-18T10:23:55Z</time>
      </trkpt>
      <trkpt lat="46.73723" lon="4.93464">
        <ele>199.8</ele>
        <time>2024-09-18T10:23:56Z</time>
      </trkpt>
      <trkpt lat="46.73721" lon="4.93469">
        <ele>199.8</ele>
        <time>2024-09-18T10:23:57Z</time>
      </trkpt>
      <trkpt lat="46.73719" lon="4.93475">
        <ele>199.8</ele>
        <time>2024-09-18T10:23:58Z</time>
      </trkpt>
      <trkpt lat="46.73717" lon="4.9348">
        <ele>200</ele>
        <time>2024-09-18T10:23:59Z</time>
      </trkpt>
      <trkpt lat="46.73715" lon="4.93485">
        <ele>200</ele>
        <time>2024-09-18T10:24:00Z</time>
      </trkpt>
      <trkpt lat="46.73713" lon="4.9349">
        <ele>200</ele>
        <time>2024-09-18T10:24:01Z</time>
      </trkpt>
      <trkpt lat="46.73711" lon="4.93495">
        <ele>200</ele>
        <time>2024-09-18T10:24:02Z</time>
      </trkpt>
      <trkpt lat="46.7371" lon="4.935">
        <ele>200</ele>
        <time>2024-09-18T10:24:03Z</time>
      </trkpt>
      <trkpt lat="46.73708" lon="4.93504">
        <ele>200.2</ele>
        <time>2024-09-18T10:24:04Z</time>
      </trkpt>
      <trkpt lat="46.73705" lon="4.93509">
        <ele>200.2</ele>
        <time>2024-09-18T10:24:05Z</time>
      </trkpt>
      <trkpt lat="46.73703" lon="4.93513">
        <ele>200.2</ele>
        <time>2024-09-18T10:24:06Z</time>
      </trkpt>
      <trkpt lat="46.73702" lon="4.93518">
        <ele>200.2</ele>
        <time>2024-09-18T10:24:07Z</time>
      </trkpt>
      <trkpt lat="46.737" lon="4.93524">
        <ele>200.2</ele>
        <time>2024-09-18T10:24:08Z</time>
      </trkpt>
      <trkpt lat="46.73698" lon="4.93529">
        <ele>200.2</ele>
        <time>2024-09-18T10:24:09Z</time>
      </trkpt>
      <trkpt lat="46.73696" lon="4.93534">
        <ele>200.2</ele>
        <time>2024-09-18T10:24:10Z</time>
      </trkpt>
      <trkpt lat="46.73693" lon="4.93539">
        <ele>200.2</ele>
        <time>2024-09-18T10:24:11Z</time>
      </trkpt>
      <trkpt lat="46.73691" lon="4.93545">
        <ele>200.2</ele>
        <time>2024-09-18T10:24:12Z</time>
      </trkpt>
      <trkpt lat="46.73688" lon="4.93553">
        <ele>200.2</ele>
        <time>2024-09-18T10:24:13Z</time>
      </trkpt>
      <trkpt lat="46.73687" lon="4.93555">
        <ele>200.2</ele>
        <time>2024-09-18T10:24:14Z</time>
      </trkpt>
      <trkpt lat="46.73685" lon="4.9356">
        <ele>200.2</ele>
        <time>2024-09-18T10:24:15Z</time>
      </trkpt>
      <trkpt lat="46.73682" lon="4.93566">
        <ele>200.2</ele>
        <time>2024-09-18T10:24:16Z</time>
      </trkpt>
      <trkpt lat="46.7368" lon="4.93571">
        <ele>199.6</ele>
        <time>2024-09-18T10:24:17Z</time>
      </trkpt>
      <trkpt lat="46.73678" lon="4.93577">
        <ele>199.6</ele>
        <time>2024-09-18T10:24:18Z</time>
      </trkpt>
      <trkpt lat="46.73675" lon="4.93583">
        <ele>199.6</ele>
        <time>2024-09-18T10:24:19Z</time>
      </trkpt>
      <trkpt lat="46.73673" lon="4.93588">
        <ele>199.6</ele>
        <time>2024-09-18T10:24:20Z</time>
      </trkpt>
      <trkpt lat="46.7367" lon="4.93594">
        <ele>200.4</ele>
        <time>2024-09-18T10:24:21Z</time>
      </trkpt>
      <trkpt lat="46.73668" lon="4.93599">
        <ele>200.4</ele>
        <time>2024-09-18T10:24:22Z</time>
      </trkpt>
      <trkpt lat="46.73665" lon="4.93605">
        <ele>200.4</ele>
        <time>2024-09-18T10:24:23Z</time>
      </trkpt>
      <trkpt lat="46.73663" lon="4.93611">
        <ele>200.4</ele>
        <time>2024-09-18T10:24:24Z</time>
      </trkpt>
      <trkpt lat="46.7366" lon="4.93617">
        <ele>200.4</ele>
        <time>2024-09-18T10:24:25Z</time>
      </trkpt>
      <trkpt lat="46.73658" lon="4.93622">
        <ele>200.4</ele>
        <time>2024-09-18T10:24:26Z</time>
      </trkpt>
      <trkpt lat="46.73656" lon="4.93628">
        <ele>200</ele>
        <time>2024-09-18T10:24:27Z</time>
      </trkpt>
      <trkpt lat="46.73654" lon="4.93634">
        <ele>200</ele>
        <time>2024-09-18T10:24:28Z</time>
      </trkpt>
      <trkpt lat="46.73652" lon="4.9364">
        <ele>200</ele>
        <time>2024-09-18T10:24:29Z</time>
      </trkpt>
      <trkpt lat="46.73651" lon="4.93645">
        <ele>200</ele>
        <time>2024-09-18T10:24:30Z</time>
      </trkpt>
      <trkpt lat="46.73649" lon="4.9365">
        <ele>200</ele>
        <time>2024-09-18T10:24:31Z</time>
      </trkpt>
      <trkpt lat="46.73647" lon="4.93656">
        <ele>200</ele>
        <time>2024-09-18T10:24:32Z</time>
      </trkpt>
      <trkpt lat="46.73644" lon="4.93661">
        <ele>200</ele>
        <time>2024-09-18T10:24:33Z</time>
      </trkpt>
      <trkpt lat="46.73642" lon="4.93666">
        <ele>200</ele>
        <time>2024-09-18T10:24:34Z</time>
      </trkpt>
      <trkpt lat="46.7364" lon="4.93671">
        <ele>200</ele>
        <time>2024-09-18T10:24:35Z</time>
      </trkpt>
      <trkpt lat="46.73638" lon="4.93675">
        <ele>200</ele>
        <time>2024-09-18T10:24:36Z</time>
      </trkpt>
      <trkpt lat="46.73636" lon="4.9368">
        <ele>200</ele>
        <time>2024-09-18T10:24:37Z</time>
      </trkpt>
      <trkpt lat="46.73634" lon="4.93685">
        <ele>200</ele>
        <time>2024-09-18T10:24:38Z</time>
      </trkpt>
      <trkpt lat="46.73631" lon="4.9369">
        <ele>200</ele>
        <time>2024-09-18T10:24:39Z</time>
      </trkpt>
      <trkpt lat="46.73629" lon="4.93696">
        <ele>200</ele>
        <time>2024-09-18T10:24:40Z</time>
      </trkpt>
      <trkpt lat="46.73626" lon="4.93701">
        <ele>200</ele>
        <time>2024-09-18T10:24:41Z</time>
      </trkpt>
      <trkpt lat="46.73624" lon="4.93707">
        <ele>200</ele>
        <time>2024-09-18T10:24:42Z</time>
      </trkpt>
      <trkpt lat="46.73621" lon="4.93713">
        <ele>200.8</ele>
        <time>2024-09-18T10:24:43Z</time>
      </trkpt>
      <trkpt lat="46.73619" lon="4.93718">
        <ele>200.8</ele>
        <time>2024-09-18T10:24:44Z</time>
      </trkpt>
      <trkpt lat="46.73617" lon="4.93723">
        <ele>200.8</ele>
        <time>2024-09-18T10:24:45Z</time>
      </trkpt>
      <trkpt lat="46.73615" lon="4.93728">
        <ele>200.8</ele>
        <time>2024-09-18T10:24:46Z</time>
      </trkpt>
      <trkpt lat="46.73613" lon="4.93733">
        <ele>200.8</ele>
        <time>2024-09-18T10:24:47Z</time>
      </trkpt>
      <trkpt lat="46.73611" lon="4.93738">
        <ele>200.2</ele>
        <time>2024-09-18T10:24:48Z</time>
      </trkpt>
      <trkpt lat="46.73609" lon="4.93743">
        <ele>200.2</ele>
        <time>2024-09-18T10:24:49Z</time>
      </trkpt>
      <trkpt lat="46.73607" lon="4.93748">
        <ele>200</ele>
        <time>2024-09-18T10:24:50Z</time>
      </trkpt>
      <trkpt lat="46.73606" lon="4.93753">
        <ele>200</ele>
        <time>2024-09-18T10:24:51Z</time>
      </trkpt>
      <trkpt lat="46.73604" lon="4.93758">
        <ele>200.2</ele>
        <time>2024-09-18T10:24:52Z</time>
      </trkpt>
      <trkpt lat="46.73602" lon="4.93763">
        <ele>200.2</ele>
        <time>2024-09-18T10:24:53Z</time>
      </trkpt>
      <trkpt lat="46.736" lon="4.93768">
        <ele>200.2</ele>
        <time>2024-09-18T10:24:54Z</time>
      </trkpt>
      <trkpt lat="46.73598" lon="4.93773">
        <ele>200.2</ele>
        <time>2024-09-18T10:24:55Z</time>
      </trkpt>
      <trkpt lat="46.73596" lon="4.93778">
        <ele>200.2</ele>
        <time>2024-09-18T10:24:56Z</time>
      </trkpt>
      <trkpt lat="46.73593" lon="4.93786">
        <ele>200.2</ele>
        <time>2024-09-18T10:24:57Z</time>
      </trkpt>
      <trkpt lat="46.73593" lon="4.93788">
        <ele>200.4</ele>
        <time>2024-09-18T10:24:58Z</time>
      </trkpt>
      <trkpt lat="46.7359" lon="4.93793">
        <ele>200.4</ele>
        <time>2024-09-18T10:24:59Z</time>
      </trkpt>
      <trkpt lat="46.73588" lon="4.93797">
        <ele>200.4</ele>
        <time>2024-09-18T10:25:00Z</time>
      </trkpt>
      <trkpt lat="46.73586" lon="4.93803">
        <ele>200.4</ele>
        <time>2024-09-18T10:25:01Z</time>
      </trkpt>
      <trkpt lat="46.73584" lon="4.93808">
        <ele>200.4</ele>
        <time>2024-09-18T10:25:02Z</time>
      </trkpt>
      <trkpt lat="46.73581" lon="4.93813">
        <ele>200.4</ele>
        <time>2024-09-18T10:25:03Z</time>
      </trkpt>
      <trkpt lat="46.73579" lon="4.93818">
        <ele>200.4</ele>
        <time>2024-09-18T10:25:04Z</time>
      </trkpt>
      <trkpt lat="46.73577" lon="4.93824">
        <ele>200.4</ele>
        <time>2024-09-18T10:25:05Z</time>
      </trkpt>
      <trkpt lat="46.73574" lon="4.93829">
        <ele>200.8</ele>
        <time>2024-09-18T10:25:06Z</time>
      </trkpt>
      <trkpt lat="46.73572" lon="4.93834">
        <ele>200.8</ele>
        <time>2024-09-18T10:25:07Z</time>
      </trkpt>
      <trkpt lat="46.73569" lon="4.9384">
        <ele>200.8</ele>
        <time>2024-09-18T10:25:08Z</time>
      </trkpt>
      <trkpt lat="46.73567" lon="4.93846">
        <ele>200.8</ele>
        <time>2024-09-18T10:25:09Z</time>
      </trkpt>
      <trkpt lat="46.73565" lon="4.93851">
        <ele>200.8</ele>
        <time>2024-09-18T10:25:10Z</time>
      </trkpt>
      <trkpt lat="46.73562" lon="4.93856">
        <ele>200.6</ele>
        <time>2024-09-18T10:25:11Z</time>
      </trkpt>
      <trkpt lat="46.7356" lon="4.93862">
        <ele>200.8</ele>
        <time>2024-09-18T10:25:12Z</time>
      </trkpt>
      <trkpt lat="46.73557" lon="4.93867">
        <ele>200.8</ele>
        <time>2024-09-18T10:25:13Z</time>
      </trkpt>
      <trkpt lat="46.73554" lon="4.93873">
        <ele>200.8</ele>
        <time>2024-09-18T10:25:14Z</time>
      </trkpt>
      <trkpt lat="46.73552" lon="4.93879">
        <ele>200.8</ele>
        <time>2024-09-18T10:25:15Z</time>
      </trkpt>
      <trkpt lat="46.73549" lon="4.93885">
        <ele>200.6</ele>
        <time>2024-09-18T10:25:16Z</time>
      </trkpt>
      <trkpt lat="46.73547" lon="4.93891">
        <ele>200.6</ele>
        <time>2024-09-18T10:25:17Z</time>
      </trkpt>
      <trkpt lat="46.73545" lon="4.93897">
        <ele>200.6</ele>
        <time>2024-09-18T10:25:18Z</time>
      </trkpt>
      <trkpt lat="46.73543" lon="4.93903">
        <ele>200.8</ele>
        <time>2024-09-18T10:25:19Z</time>
      </trkpt>
      <trkpt lat="46.7354" lon="4.93908">
        <ele>200.8</ele>
        <time>2024-09-18T10:25:20Z</time>
      </trkpt>
      <trkpt lat="46.73538" lon="4.93914">
        <ele>200.4</ele>
        <time>2024-09-18T10:25:21Z</time>
      </trkpt>
      <trkpt lat="46.73536" lon="4.93919">
        <ele>200.4</ele>
        <time>2024-09-18T10:25:22Z</time>
      </trkpt>
      <trkpt lat="46.73534" lon="4.93925">
        <ele>200.6</ele>
        <time>2024-09-18T10:25:23Z</time>
      </trkpt>
      <trkpt lat="46.73531" lon="4.93931">
        <ele>200.6</ele>
        <time>2024-09-18T10:25:24Z</time>
      </trkpt>
      <trkpt lat="46.73529" lon="4.93936">
        <ele>200</ele>
        <time>2024-09-18T10:25:25Z</time>
      </trkpt>
      <trkpt lat="46.73527" lon="4.93942">
        <ele>200</ele>
        <time>2024-09-18T10:25:26Z</time>
      </trkpt>
      <trkpt lat="46.73524" lon="4.93947">
        <ele>200</ele>
        <time>2024-09-18T10:25:27Z</time>
      </trkpt>
      <trkpt lat="46.73522" lon="4.93952">
        <ele>200.4</ele>
        <time>2024-09-18T10:25:28Z</time>
      </trkpt>
      <trkpt lat="46.7352" lon="4.93957">
        <ele>200.4</ele>
        <time>2024-09-18T10:25:29Z</time>
      </trkpt>
      <trkpt lat="46.73518" lon="4.93963">
        <ele>200.4</ele>
        <time>2024-09-18T10:25:30Z</time>
      </trkpt>
      <trkpt lat="46.73516" lon="4.93968">
        <ele>200.4</ele>
        <time>2024-09-18T10:25:31Z</time>
      </trkpt>
      <trkpt lat="46.73514" lon="4.93973">
        <ele>200.4</ele>
        <time>2024-09-18T10:25:32Z</time>
      </trkpt>
      <trkpt lat="46.73511" lon="4.93978">
        <ele>200.4</ele>
        <time>2024-09-18T10:25:33Z</time>
      </trkpt>
      <trkpt lat="46.73509" lon="4.93983">
        <ele>200.8</ele>
        <time>2024-09-18T10:25:34Z</time>
      </trkpt>
      <trkpt lat="46.73507" lon="4.93989">
        <ele>200.8</ele>
        <time>2024-09-18T10:25:35Z</time>
      </trkpt>
      <trkpt lat="46.73505" lon="4.93994">
        <ele>200.8</ele>
        <time>2024-09-18T10:25:36Z</time>
      </trkpt>
      <trkpt lat="46.73502" lon="4.94">
        <ele>200.8</ele>
        <time>2024-09-18T10:25:37Z</time>
      </trkpt>
      <trkpt lat="46.735" lon="4.94005">
        <ele>201</ele>
        <time>2024-09-18T10:25:38Z</time>
      </trkpt>
      <trkpt lat="46.73498" lon="4.9401">
        <ele>201</ele>
        <time>2024-09-18T10:25:39Z</time>
      </trkpt>
      <trkpt lat="46.73495" lon="4.94015">
        <ele>201</ele>
        <time>2024-09-18T10:25:40Z</time>
      </trkpt>
      <trkpt lat="46.73493" lon="4.9402">
        <ele>201.2</ele>
        <time>2024-09-18T10:25:41Z</time>
      </trkpt>
      <trkpt lat="46.7349" lon="4.94025">
        <ele>201.2</ele>
        <time>2024-09-18T10:25:42Z</time>
      </trkpt>
      <trkpt lat="46.73488" lon="4.94031">
        <ele>201.2</ele>
        <time>2024-09-18T10:25:43Z</time>
      </trkpt>
      <trkpt lat="46.73486" lon="4.94036">
        <ele>201.2</ele>
        <time>2024-09-18T10:25:44Z</time>
      </trkpt>
      <trkpt lat="46.73483" lon="4.94042">
        <ele>201.2</ele>
        <time>2024-09-18T10:25:45Z</time>
      </trkpt>
      <trkpt lat="46.73481" lon="4.94047">
        <ele>201.2</ele>
        <time>2024-09-18T10:25:46Z</time>
      </trkpt>
      <trkpt lat="46.73478" lon="4.94053">
        <ele>200.8</ele>
        <time>2024-09-18T10:25:47Z</time>
      </trkpt>
      <trkpt lat="46.73476" lon="4.94059">
        <ele>200.8</ele>
        <time>2024-09-18T10:25:48Z</time>
      </trkpt>
      <trkpt lat="46.73474" lon="4.94065">
        <ele>200.8</ele>
        <time>2024-09-18T10:25:49Z</time>
      </trkpt>
      <trkpt lat="46.73472" lon="4.9407">
        <ele>200.8</ele>
        <time>2024-09-18T10:25:50Z</time>
      </trkpt>
      <trkpt lat="46.7347" lon="4.94076">
        <ele>200.8</ele>
        <time>2024-09-18T10:25:51Z</time>
      </trkpt>
      <trkpt lat="46.73468" lon="4.94081">
        <ele>200.8</ele>
        <time>2024-09-18T10:25:52Z</time>
      </trkpt>
      <trkpt lat="46.73466" lon="4.94086">
        <ele>201.2</ele>
        <time>2024-09-18T10:25:53Z</time>
      </trkpt>
      <trkpt lat="46.73464" lon="4.94091">
        <ele>201.2</ele>
        <time>2024-09-18T10:25:54Z</time>
      </trkpt>
      <trkpt lat="46.73462" lon="4.94096">
        <ele>201.2</ele>
        <time>2024-09-18T10:25:55Z</time>
      </trkpt>
      <trkpt lat="46.73459" lon="4.94101">
        <ele>201.2</ele>
        <time>2024-09-18T10:25:56Z</time>
      </trkpt>
      <trkpt lat="46.73457" lon="4.94107">
        <ele>201.2</ele>
        <time>2024-09-18T10:25:57Z</time>
      </trkpt>
      <trkpt lat="46.73455" lon="4.94112">
        <ele>201.2</ele>
        <time>2024-09-18T10:25:58Z</time>
      </trkpt>
      <trkpt lat="46.73452" lon="4.94117">
        <ele>201.2</ele>
        <time>2024-09-18T10:25:59Z</time>
      </trkpt>
      <trkpt lat="46.7345" lon="4.94122">
        <ele>201.2</ele>
        <time>2024-09-18T10:26:00Z</time>
      </trkpt>
      <trkpt lat="46.73448" lon="4.94127">
        <ele>201.6</ele>
        <time>2024-09-18T10:26:01Z</time>
      </trkpt>
      <trkpt lat="46.73446" lon="4.94132">
        <ele>201.6</ele>
        <time>2024-09-18T10:26:02Z</time>
      </trkpt>
      <trkpt lat="46.73444" lon="4.94138">
        <ele>201.6</ele>
        <time>2024-09-18T10:26:03Z</time>
      </trkpt>
      <trkpt lat="46.73441" lon="4.94143">
        <ele>201.6</ele>
        <time>2024-09-18T10:26:04Z</time>
      </trkpt>
      <trkpt lat="46.73439" lon="4.94148">
        <ele>201.6</ele>
        <time>2024-09-18T10:26:05Z</time>
      </trkpt>
      <trkpt lat="46.73436" lon="4.94153">
        <ele>201.6</ele>
        <time>2024-09-18T10:26:06Z</time>
      </trkpt>
      <trkpt lat="46.73434" lon="4.94158">
        <ele>201.6</ele>
        <time>2024-09-18T10:26:07Z</time>
      </trkpt>
      <trkpt lat="46.73432" lon="4.94164">
        <ele>201.6</ele>
        <time>2024-09-18T10:26:08Z</time>
      </trkpt>
      <trkpt lat="46.73429" lon="4.94169">
        <ele>201.6</ele>
        <time>2024-09-18T10:26:09Z</time>
      </trkpt>
      <trkpt lat="46.73427" lon="4.94175">
        <ele>201.6</ele>
        <time>2024-09-18T10:26:10Z</time>
      </trkpt>
      <trkpt lat="46.73425" lon="4.9418">
        <ele>201.6</ele>
        <time>2024-09-18T10:26:11Z</time>
      </trkpt>
      <trkpt lat="46.73423" lon="4.94186">
        <ele>201.6</ele>
        <time>2024-09-18T10:26:12Z</time>
      </trkpt>
      <trkpt lat="46.73421" lon="4.94192">
        <ele>201.6</ele>
        <time>2024-09-18T10:26:13Z</time>
      </trkpt>
      <trkpt lat="46.73419" lon="4.94198">
        <ele>201.6</ele>
        <time>2024-09-18T10:26:14Z</time>
      </trkpt>
      <trkpt lat="46.73416" lon="4.94204">
        <ele>202</ele>
        <time>2024-09-18T10:26:15Z</time>
      </trkpt>
      <trkpt lat="46.73414" lon="4.9421">
        <ele>202</ele>
        <time>2024-09-18T10:26:16Z</time>
      </trkpt>
      <trkpt lat="46.73412" lon="4.94216">
        <ele>201.6</ele>
        <time>2024-09-18T10:26:17Z</time>
      </trkpt>
      <trkpt lat="46.73409" lon="4.94221">
        <ele>201.8</ele>
        <time>2024-09-18T10:26:18Z</time>
      </trkpt>
      <trkpt lat="46.73406" lon="4.94227">
        <ele>201.8</ele>
        <time>2024-09-18T10:26:19Z</time>
      </trkpt>
      <trkpt lat="46.73404" lon="4.94232">
        <ele>201.8</ele>
        <time>2024-09-18T10:26:20Z</time>
      </trkpt>
      <trkpt lat="46.73401" lon="4.94238">
        <ele>201.8</ele>
        <time>2024-09-18T10:26:21Z</time>
      </trkpt>
      <trkpt lat="46.73399" lon="4.94243">
        <ele>201.8</ele>
        <time>2024-09-18T10:26:22Z</time>
      </trkpt>
      <trkpt lat="46.73397" lon="4.94248">
        <ele>201.8</ele>
        <time>2024-09-18T10:26:23Z</time>
      </trkpt>
      <trkpt lat="46.73395" lon="4.94253">
        <ele>202</ele>
        <time>2024-09-18T10:26:24Z</time>
      </trkpt>
      <trkpt lat="46.73394" lon="4.94258">
        <ele>202</ele>
        <time>2024-09-18T10:26:25Z</time>
      </trkpt>
      <trkpt lat="46.73392" lon="4.94263">
        <ele>201.8</ele>
        <time>2024-09-18T10:26:26Z</time>
      </trkpt>
      <trkpt lat="46.73389" lon="4.94268">
        <ele>202</ele>
        <time>2024-09-18T10:26:27Z</time>
      </trkpt>
      <trkpt lat="46.73387" lon="4.94273">
        <ele>202</ele>
        <time>2024-09-18T10:26:28Z</time>
      </trkpt>
      <trkpt lat="46.73385" lon="4.94278">
        <ele>202</ele>
        <time>2024-09-18T10:26:29Z</time>
      </trkpt>
      <trkpt lat="46.73383" lon="4.94284">
        <ele>202</ele>
        <time>2024-09-18T10:26:30Z</time>
      </trkpt>
      <trkpt lat="46.7338" lon="4.94289">
        <ele>201.8</ele>
        <time>2024-09-18T10:26:31Z</time>
      </trkpt>
      <trkpt lat="46.73378" lon="4.94295">
        <ele>201.8</ele>
        <time>2024-09-18T10:26:32Z</time>
      </trkpt>
      <trkpt lat="46.73375" lon="4.943">
        <ele>201.8</ele>
        <time>2024-09-18T10:26:33Z</time>
      </trkpt>
      <trkpt lat="46.73373" lon="4.94306">
        <ele>201.8</ele>
        <time>2024-09-18T10:26:34Z</time>
      </trkpt>
      <trkpt lat="46.7337" lon="4.94311">
        <ele>201.8</ele>
        <time>2024-09-18T10:26:35Z</time>
      </trkpt>
      <trkpt lat="46.73368" lon="4.94317">
        <ele>201.8</ele>
        <time>2024-09-18T10:26:36Z</time>
      </trkpt>
      <trkpt lat="46.73365" lon="4.94323">
        <ele>202</ele>
        <time>2024-09-18T10:26:37Z</time>
      </trkpt>
      <trkpt lat="46.73363" lon="4.94328">
        <ele>202</ele>
        <time>2024-09-18T10:26:38Z</time>
      </trkpt>
      <trkpt lat="46.7336" lon="4.94334">
        <ele>202</ele>
        <time>2024-09-18T10:26:39Z</time>
      </trkpt>
      <trkpt lat="46.73358" lon="4.9434">
        <ele>202</ele>
        <time>2024-09-18T10:26:40Z</time>
      </trkpt>
      <trkpt lat="46.73355" lon="4.94346">
        <ele>202</ele>
        <time>2024-09-18T10:26:41Z</time>
      </trkpt>
      <trkpt lat="46.73353" lon="4.94351">
        <ele>202</ele>
        <time>2024-09-18T10:26:42Z</time>
      </trkpt>
      <trkpt lat="46.7335" lon="4.94357">
        <ele>202</ele>
        <time>2024-09-18T10:26:43Z</time>
      </trkpt>
      <trkpt lat="46.73348" lon="4.94363">
        <ele>202</ele>
        <time>2024-09-18T10:26:44Z</time>
      </trkpt>
      <trkpt lat="46.73345" lon="4.94369">
        <ele>202</ele>
        <time>2024-09-18T10:26:45Z</time>
      </trkpt>
      <trkpt lat="46.73343" lon="4.94375">
        <ele>201.8</ele>
        <time>2024-09-18T10:26:46Z</time>
      </trkpt>
      <trkpt lat="46.7334" lon="4.9438">
        <ele>201.8</ele>
        <time>2024-09-18T10:26:47Z</time>
      </trkpt>
      <trkpt lat="46.73337" lon="4.94389">
        <ele>201.8</ele>
        <time>2024-09-18T10:26:48Z</time>
      </trkpt>
      <trkpt lat="46.73336" lon="4.94392">
        <ele>202.4</ele>
        <time>2024-09-18T10:26:49Z</time>
      </trkpt>
      <trkpt lat="46.73333" lon="4.94398">
        <ele>202.4</ele>
        <time>2024-09-18T10:26:50Z</time>
      </trkpt>
      <trkpt lat="46.73331" lon="4.94404">
        <ele>201.6</ele>
        <time>2024-09-18T10:26:51Z</time>
      </trkpt>
      <trkpt lat="46.73328" lon="4.9441">
        <ele>201.6</ele>
        <time>2024-09-18T10:26:52Z</time>
      </trkpt>
      <trkpt lat="46.73326" lon="4.94415">
        <ele>201.8</ele>
        <time>2024-09-18T10:26:53Z</time>
      </trkpt>
      <trkpt lat="46.73324" lon="4.94421">
        <ele>202</ele>
        <time>2024-09-18T10:26:54Z</time>
      </trkpt>
      <trkpt lat="46.73321" lon="4.94427">
        <ele>202</ele>
        <time>2024-09-18T10:26:55Z</time>
      </trkpt>
      <trkpt lat="46.73319" lon="4.94434">
        <ele>202</ele>
        <time>2024-09-18T10:26:56Z</time>
      </trkpt>
      <trkpt lat="46.73316" lon="4.9444">
        <ele>202</ele>
        <time>2024-09-18T10:26:57Z</time>
      </trkpt>
      <trkpt lat="46.73314" lon="4.94446">
        <ele>201.4</ele>
        <time>2024-09-18T10:26:58Z</time>
      </trkpt>
      <trkpt lat="46.73311" lon="4.94452">
        <ele>201.8</ele>
        <time>2024-09-18T10:26:59Z</time>
      </trkpt>
      <trkpt lat="46.73309" lon="4.94458">
        <ele>201.8</ele>
        <time>2024-09-18T10:27:00Z</time>
      </trkpt>
      <trkpt lat="46.73306" lon="4.94464">
        <ele>201.8</ele>
        <time>2024-09-18T10:27:01Z</time>
      </trkpt>
      <trkpt lat="46.73304" lon="4.9447">
        <ele>201.8</ele>
        <time>2024-09-18T10:27:02Z</time>
      </trkpt>
      <trkpt lat="46.73301" lon="4.94476">
        <ele>201.8</ele>
        <time>2024-09-18T10:27:03Z</time>
      </trkpt>
      <trkpt lat="46.73299" lon="4.94481">
        <ele>201.8</ele>
        <time>2024-09-18T10:27:04Z</time>
      </trkpt>
      <trkpt lat="46.73297" lon="4.94486">
        <ele>201.8</ele>
        <time>2024-09-18T10:27:05Z</time>
      </trkpt>
      <trkpt lat="46.73294" lon="4.94491">
        <ele>201.8</ele>
        <time>2024-09-18T10:27:06Z</time>
      </trkpt>
      <trkpt lat="46.73292" lon="4.94496">
        <ele>201.8</ele>
        <time>2024-09-18T10:27:07Z</time>
      </trkpt>
      <trkpt lat="46.7329" lon="4.94501">
        <ele>201.8</ele>
        <time>2024-09-18T10:27:08Z</time>
      </trkpt>
      <trkpt lat="46.73288" lon="4.94506">
        <ele>201.8</ele>
        <time>2024-09-18T10:27:09Z</time>
      </trkpt>
      <trkpt lat="46.73286" lon="4.9451">
        <ele>201.8</ele>
        <time>2024-09-18T10:27:10Z</time>
      </trkpt>
      <trkpt lat="46.73284" lon="4.94515">
        <ele>201.8</ele>
        <time>2024-09-18T10:27:11Z</time>
      </trkpt>
      <trkpt lat="46.73282" lon="4.9452">
        <ele>202.2</ele>
        <time>2024-09-18T10:27:12Z</time>
      </trkpt>
      <trkpt lat="46.7328" lon="4.94524">
        <ele>202.2</ele>
        <time>2024-09-18T10:27:13Z</time>
      </trkpt>
      <trkpt lat="46.73278" lon="4.94528">
        <ele>202.2</ele>
        <time>2024-09-18T10:27:14Z</time>
      </trkpt>
      <trkpt lat="46.73276" lon="4.94532">
        <ele>202.2</ele>
        <time>2024-09-18T10:27:15Z</time>
      </trkpt>
      <trkpt lat="46.73274" lon="4.94537">
        <ele>201.8</ele>
        <time>2024-09-18T10:27:16Z</time>
      </trkpt>
      <trkpt lat="46.73272" lon="4.94541">
        <ele>201.8</ele>
        <time>2024-09-18T10:27:17Z</time>
      </trkpt>
      <trkpt lat="46.7327" lon="4.94547">
        <ele>201.6</ele>
        <time>2024-09-18T10:27:18Z</time>
      </trkpt>
      <trkpt lat="46.73269" lon="4.94552">
        <ele>201.6</ele>
        <time>2024-09-18T10:27:19Z</time>
      </trkpt>
      <trkpt lat="46.73267" lon="4.94557">
        <ele>201.4</ele>
        <time>2024-09-18T10:27:20Z</time>
      </trkpt>
      <trkpt lat="46.73265" lon="4.94562">
        <ele>201.4</ele>
        <time>2024-09-18T10:27:21Z</time>
      </trkpt>
      <trkpt lat="46.73262" lon="4.94567">
        <ele>201.4</ele>
        <time>2024-09-18T10:27:22Z</time>
      </trkpt>
      <trkpt lat="46.7326" lon="4.94571">
        <ele>201.4</ele>
        <time>2024-09-18T10:27:23Z</time>
      </trkpt>
      <trkpt lat="46.73258" lon="4.94576">
        <ele>201.4</ele>
        <time>2024-09-18T10:27:24Z</time>
      </trkpt>
      <trkpt lat="46.73256" lon="4.94581">
        <ele>201.2</ele>
        <time>2024-09-18T10:27:25Z</time>
      </trkpt>
      <trkpt lat="46.73255" lon="4.94585">
        <ele>201.2</ele>
        <time>2024-09-18T10:27:26Z</time>
      </trkpt>
      <trkpt lat="46.73253" lon="4.9459">
        <ele>201.2</ele>
        <time>2024-09-18T10:27:27Z</time>
      </trkpt>
      <trkpt lat="46.73251" lon="4.94595">
        <ele>201.2</ele>
        <time>2024-09-18T10:27:28Z</time>
      </trkpt>
      <trkpt lat="46.73249" lon="4.94601">
        <ele>201.2</ele>
        <time>2024-09-18T10:27:29Z</time>
      </trkpt>
      <trkpt lat="46.73247" lon="4.94606">
        <ele>201.2</ele>
        <time>2024-09-18T10:27:30Z</time>
      </trkpt>
      <trkpt lat="46.73245" lon="4.94611">
        <ele>201.2</ele>
        <time>2024-09-18T10:27:31Z</time>
      </trkpt>
      <trkpt lat="46.73242" lon="4.94617">
        <ele>201.2</ele>
        <time>2024-09-18T10:27:32Z</time>
      </trkpt>
      <trkpt lat="46.7324" lon="4.94622">
        <ele>201</ele>
        <time>2024-09-18T10:27:33Z</time>
      </trkpt>
      <trkpt lat="46.73238" lon="4.94628">
        <ele>201</ele>
        <time>2024-09-18T10:27:34Z</time>
      </trkpt>
      <trkpt lat="46.73235" lon="4.94633">
        <ele>201.2</ele>
        <time>2024-09-18T10:27:35Z</time>
      </trkpt>
      <trkpt lat="46.73233" lon="4.94639">
        <ele>201.2</ele>
        <time>2024-09-18T10:27:36Z</time>
      </trkpt>
      <trkpt lat="46.7323" lon="4.94645">
        <ele>201.2</ele>
        <time>2024-09-18T10:27:37Z</time>
      </trkpt>
      <trkpt lat="46.73228" lon="4.94651">
        <ele>201.2</ele>
        <time>2024-09-18T10:27:38Z</time>
      </trkpt>
      <trkpt lat="46.73225" lon="4.94657">
        <ele>201.6</ele>
        <time>2024-09-18T10:27:39Z</time>
      </trkpt>
      <trkpt lat="46.73223" lon="4.94663">
        <ele>201.6</ele>
        <time>2024-09-18T10:27:40Z</time>
      </trkpt>
      <trkpt lat="46.73221" lon="4.94669">
        <ele>201.6</ele>
        <time>2024-09-18T10:27:41Z</time>
      </trkpt>
      <trkpt lat="46.73218" lon="4.94675">
        <ele>201.4</ele>
        <time>2024-09-18T10:27:42Z</time>
      </trkpt>
      <trkpt lat="46.73216" lon="4.94681">
        <ele>200.8</ele>
        <time>2024-09-18T10:27:43Z</time>
      </trkpt>
      <trkpt lat="46.73213" lon="4.94687">
        <ele>200.8</ele>
        <time>2024-09-18T10:27:44Z</time>
      </trkpt>
      <trkpt lat="46.73211" lon="4.94693">
        <ele>200.8</ele>
        <time>2024-09-18T10:27:45Z</time>
      </trkpt>
      <trkpt lat="46.73208" lon="4.94698">
        <ele>200.8</ele>
        <time>2024-09-18T10:27:46Z</time>
      </trkpt>
      <trkpt lat="46.73206" lon="4.94704">
        <ele>201.4</ele>
        <time>2024-09-18T10:27:47Z</time>
      </trkpt>
      <trkpt lat="46.73203" lon="4.9471">
        <ele>201.4</ele>
        <time>2024-09-18T10:27:48Z</time>
      </trkpt>
      <trkpt lat="46.73201" lon="4.94716">
        <ele>201.4</ele>
        <time>2024-09-18T10:27:49Z</time>
      </trkpt>
      <trkpt lat="46.73198" lon="4.94722">
        <ele>201.4</ele>
        <time>2024-09-18T10:27:50Z</time>
      </trkpt>
      <trkpt lat="46.73196" lon="4.94728">
        <ele>201.2</ele>
        <time>2024-09-18T10:27:51Z</time>
      </trkpt>
      <trkpt lat="46.73193" lon="4.94734">
        <ele>201.2</ele>
        <time>2024-09-18T10:27:52Z</time>
      </trkpt>
      <trkpt lat="46.7319" lon="4.9474">
        <ele>201.2</ele>
        <time>2024-09-18T10:27:53Z</time>
      </trkpt>
      <trkpt lat="46.73188" lon="4.94746">
        <ele>201.2</ele>
        <time>2024-09-18T10:27:54Z</time>
      </trkpt>
      <trkpt lat="46.73186" lon="4.94752">
        <ele>201</ele>
        <time>2024-09-18T10:27:55Z</time>
      </trkpt>
      <trkpt lat="46.73183" lon="4.94758">
        <ele>201</ele>
        <time>2024-09-18T10:27:56Z</time>
      </trkpt>
      <trkpt lat="46.7318" lon="4.94764">
        <ele>201</ele>
        <time>2024-09-18T10:27:57Z</time>
      </trkpt>
      <trkpt lat="46.73178" lon="4.9477">
        <ele>200.8</ele>
        <time>2024-09-18T10:27:58Z</time>
      </trkpt>
      <trkpt lat="46.73176" lon="4.94776">
        <ele>200.8</ele>
        <time>2024-09-18T10:27:59Z</time>
      </trkpt>
      <trkpt lat="46.73174" lon="4.94782">
        <ele>200.8</ele>
        <time>2024-09-18T10:28:00Z</time>
      </trkpt>
      <trkpt lat="46.73172" lon="4.94787">
        <ele>200.8</ele>
        <time>2024-09-18T10:28:01Z</time>
      </trkpt>
      <trkpt lat="46.7317" lon="4.94792">
        <ele>200.6</ele>
        <time>2024-09-18T10:28:02Z</time>
      </trkpt>
      <trkpt lat="46.73167" lon="4.94797">
        <ele>200.6</ele>
        <time>2024-09-18T10:28:03Z</time>
      </trkpt>
      <trkpt lat="46.73165" lon="4.94801">
        <ele>200.6</ele>
        <time>2024-09-18T10:28:04Z</time>
      </trkpt>
      <trkpt lat="46.73164" lon="4.94806">
        <ele>200.8</ele>
        <time>2024-09-18T10:28:05Z</time>
      </trkpt>
      <trkpt lat="46.73162" lon="4.9481">
        <ele>200.8</ele>
        <time>2024-09-18T10:28:06Z</time>
      </trkpt>
      <trkpt lat="46.7316" lon="4.94814">
        <ele>200.8</ele>
        <time>2024-09-18T10:28:07Z</time>
      </trkpt>
      <trkpt lat="46.73158" lon="4.94818">
        <ele>200.8</ele>
        <time>2024-09-18T10:28:08Z</time>
      </trkpt>
      <trkpt lat="46.73156" lon="4.94823">
        <ele>200.8</ele>
        <time>2024-09-18T10:28:09Z</time>
      </trkpt>
      <trkpt lat="46.73154" lon="4.94828">
        <ele>200.8</ele>
        <time>2024-09-18T10:28:10Z</time>
      </trkpt>
      <trkpt lat="46.73152" lon="4.94832">
        <ele>201.2</ele>
        <time>2024-09-18T10:28:11Z</time>
      </trkpt>
      <trkpt lat="46.7315" lon="4.94836">
        <ele>201.2</ele>
        <time>2024-09-18T10:28:12Z</time>
      </trkpt>
      <trkpt lat="46.73148" lon="4.94841">
        <ele>201.2</ele>
        <time>2024-09-18T10:28:13Z</time>
      </trkpt>
      <trkpt lat="46.73146" lon="4.94846">
        <ele>200.6</ele>
        <time>2024-09-18T10:28:14Z</time>
      </trkpt>
      <trkpt lat="46.73144" lon="4.94851">
        <ele>200.8</ele>
        <time>2024-09-18T10:28:15Z</time>
      </trkpt>
      <trkpt lat="46.73142" lon="4.94856">
        <ele>200.8</ele>
        <time>2024-09-18T10:28:16Z</time>
      </trkpt>
      <trkpt lat="46.7314" lon="4.94862">
        <ele>200.8</ele>
        <time>2024-09-18T10:28:17Z</time>
      </trkpt>
      <trkpt lat="46.73138" lon="4.94867">
        <ele>201.4</ele>
        <time>2024-09-18T10:28:18Z</time>
      </trkpt>
      <trkpt lat="46.73136" lon="4.94872">
        <ele>200.8</ele>
        <time>2024-09-18T10:28:19Z</time>
      </trkpt>
      <trkpt lat="46.73134" lon="4.94878">
        <ele>200.8</ele>
        <time>2024-09-18T10:28:20Z</time>
      </trkpt>
      <trkpt lat="46.73131" lon="4.94883">
        <ele>200.8</ele>
        <time>2024-09-18T10:28:21Z</time>
      </trkpt>
      <trkpt lat="46.73129" lon="4.94889">
        <ele>200.8</ele>
        <time>2024-09-18T10:28:22Z</time>
      </trkpt>
      <trkpt lat="46.73126" lon="4.94895">
        <ele>200.8</ele>
        <time>2024-09-18T10:28:23Z</time>
      </trkpt>
      <trkpt lat="46.73123" lon="4.949">
        <ele>200.6</ele>
        <time>2024-09-18T10:28:24Z</time>
      </trkpt>
      <trkpt lat="46.73121" lon="4.94906">
        <ele>200.6</ele>
        <time>2024-09-18T10:28:25Z</time>
      </trkpt>
      <trkpt lat="46.73118" lon="4.94912">
        <ele>200.6</ele>
        <time>2024-09-18T10:28:26Z</time>
      </trkpt>
      <trkpt lat="46.73116" lon="4.94918">
        <ele>200.6</ele>
        <time>2024-09-18T10:28:27Z</time>
      </trkpt>
      <trkpt lat="46.73114" lon="4.94923">
        <ele>200.6</ele>
        <time>2024-09-18T10:28:28Z</time>
      </trkpt>
      <trkpt lat="46.73112" lon="4.94929">
        <ele>200.6</ele>
        <time>2024-09-18T10:28:29Z</time>
      </trkpt>
      <trkpt lat="46.73109" lon="4.94934">
        <ele>200.6</ele>
        <time>2024-09-18T10:28:30Z</time>
      </trkpt>
      <trkpt lat="46.73107" lon="4.9494">
        <ele>200.6</ele>
        <time>2024-09-18T10:28:31Z</time>
      </trkpt>
      <trkpt lat="46.73105" lon="4.94946">
        <ele>200.8</ele>
        <time>2024-09-18T10:28:32Z</time>
      </trkpt>
      <trkpt lat="46.73102" lon="4.94952">
        <ele>200.8</ele>
        <time>2024-09-18T10:28:33Z</time>
      </trkpt>
      <trkpt lat="46.731" lon="4.94957">
        <ele>200.8</ele>
        <time>2024-09-18T10:28:34Z</time>
      </trkpt>
      <trkpt lat="46.73098" lon="4.94963">
        <ele>200.8</ele>
        <time>2024-09-18T10:28:35Z</time>
      </trkpt>
      <trkpt lat="46.73095" lon="4.94969">
        <ele>200.8</ele>
        <time>2024-09-18T10:28:36Z</time>
      </trkpt>
      <trkpt lat="46.73093" lon="4.94975">
        <ele>200.4</ele>
        <time>2024-09-18T10:28:37Z</time>
      </trkpt>
      <trkpt lat="46.7309" lon="4.94981">
        <ele>200.4</ele>
        <time>2024-09-18T10:28:38Z</time>
      </trkpt>
      <trkpt lat="46.73087" lon="4.94987">
        <ele>200.4</ele>
        <time>2024-09-18T10:28:39Z</time>
      </trkpt>
      <trkpt lat="46.73084" lon="4.94995">
        <ele>200.4</ele>
        <time>2024-09-18T10:28:40Z</time>
      </trkpt>
      <trkpt lat="46.73083" lon="4.94998">
        <ele>200.6</ele>
        <time>2024-09-18T10:28:41Z</time>
      </trkpt>
      <trkpt lat="46.7308" lon="4.95004">
        <ele>200.6</ele>
        <time>2024-09-18T10:28:42Z</time>
      </trkpt>
      <trkpt lat="46.73078" lon="4.9501">
        <ele>200.6</ele>
        <time>2024-09-18T10:28:43Z</time>
      </trkpt>
      <trkpt lat="46.73075" lon="4.95015">
        <ele>200.6</ele>
        <time>2024-09-18T10:28:44Z</time>
      </trkpt>
      <trkpt lat="46.73073" lon="4.95021">
        <ele>200.6</ele>
        <time>2024-09-18T10:28:45Z</time>
      </trkpt>
      <trkpt lat="46.73071" lon="4.95027">
        <ele>200.6</ele>
        <time>2024-09-18T10:28:46Z</time>
      </trkpt>
      <trkpt lat="46.73069" lon="4.95033">
        <ele>200.4</ele>
        <time>2024-09-18T10:28:47Z</time>
      </trkpt>
      <trkpt lat="46.73066" lon="4.95038">
        <ele>200.4</ele>
        <time>2024-09-18T10:28:48Z</time>
      </trkpt>
      <trkpt lat="46.73064" lon="4.95043">
        <ele>200.4</ele>
        <time>2024-09-18T10:28:49Z</time>
      </trkpt>
      <trkpt lat="46.73062" lon="4.95048">
        <ele>200.4</ele>
        <time>2024-09-18T10:28:50Z</time>
      </trkpt>
      <trkpt lat="46.7306" lon="4.95053">
        <ele>200.4</ele>
        <time>2024-09-18T10:28:51Z</time>
      </trkpt>
      <trkpt lat="46.73058" lon="4.95057">
        <ele>200.4</ele>
        <time>2024-09-18T10:28:52Z</time>
      </trkpt>
      <trkpt lat="46.73056" lon="4.95061">
        <ele>200.4</ele>
        <time>2024-09-18T10:28:53Z</time>
      </trkpt>
      <trkpt lat="46.73055" lon="4.95064">
        <ele>200.4</ele>
        <time>2024-09-18T10:28:54Z</time>
      </trkpt>
      <trkpt lat="46.73053" lon="4.95067">
        <ele>200.4</ele>
        <time>2024-09-18T10:28:55Z</time>
      </trkpt>
      <trkpt lat="46.73052" lon="4.95069">
        <ele>200.4</ele>
        <time>2024-09-18T10:28:56Z</time>
      </trkpt>
      <trkpt lat="46.73051" lon="4.95071">
        <ele>200.4</ele>
        <time>2024-09-18T10:28:57Z</time>
      </trkpt>
      <trkpt lat="46.73051" lon="4.95072">
        <ele>200.4</ele>
        <time>2024-09-18T10:28:58Z</time>
      </trkpt>
      <trkpt lat="46.7305" lon="4.95074">
        <ele>200.4</ele>
        <time>2024-09-18T10:28:59Z</time>
      </trkpt>
      <trkpt lat="46.7305" lon="4.95074">
        <ele>200.4</ele>
        <time>2024-09-18T10:29:00Z</time>
      </trkpt>
      <trkpt lat="46.73048" lon="4.95079">
        <ele>200.8</ele>
        <time>2024-09-18T10:29:05Z</time>
      </trkpt>
      <trkpt lat="46.73047" lon="4.95081">
        <ele>200.8</ele>
        <time>2024-09-18T10:29:06Z</time>
      </trkpt>
      <trkpt lat="46.73046" lon="4.95084">
        <ele>200.8</ele>
        <time>2024-09-18T10:29:07Z</time>
      </trkpt>
      <trkpt lat="46.73045" lon="4.95087">
        <ele>200.4</ele>
        <time>2024-09-18T10:29:08Z</time>
      </trkpt>
      <trkpt lat="46.73043" lon="4.95091">
        <ele>200.4</ele>
        <time>2024-09-18T10:29:09Z</time>
      </trkpt>
      <trkpt lat="46.73041" lon="4.95095">
        <ele>200.4</ele>
        <time>2024-09-18T10:29:10Z</time>
      </trkpt>
      <trkpt lat="46.7304" lon="4.95099">
        <ele>200.4</ele>
        <time>2024-09-18T10:29:11Z</time>
      </trkpt>
      <trkpt lat="46.73038" lon="4.95104">
        <ele>200.4</ele>
        <time>2024-09-18T10:29:12Z</time>
      </trkpt>
      <trkpt lat="46.73036" lon="4.95109">
        <ele>200</ele>
        <time>2024-09-18T10:29:13Z</time>
      </trkpt>
      <trkpt lat="46.73034" lon="4.95113">
        <ele>200</ele>
        <time>2024-09-18T10:29:14Z</time>
      </trkpt>
      <trkpt lat="46.73032" lon="4.95118">
        <ele>200</ele>
        <time>2024-09-18T10:29:15Z</time>
      </trkpt>
      <trkpt lat="46.7303" lon="4.95123">
        <ele>200.4</ele>
        <time>2024-09-18T10:29:16Z</time>
      </trkpt>
      <trkpt lat="46.73028" lon="4.95129">
        <ele>200.2</ele>
        <time>2024-09-18T10:29:17Z</time>
      </trkpt>
      <trkpt lat="46.73025" lon="4.95134">
        <ele>200.2</ele>
        <time>2024-09-18T10:29:18Z</time>
      </trkpt>
      <trkpt lat="46.73023" lon="4.9514">
        <ele>200.2</ele>
        <time>2024-09-18T10:29:19Z</time>
      </trkpt>
      <trkpt lat="46.73021" lon="4.95145">
        <ele>200.2</ele>
        <time>2024-09-18T10:29:20Z</time>
      </trkpt>
      <trkpt lat="46.73018" lon="4.95151">
        <ele>200.2</ele>
        <time>2024-09-18T10:29:21Z</time>
      </trkpt>
      <trkpt lat="46.73016" lon="4.95156">
        <ele>200.4</ele>
        <time>2024-09-18T10:29:22Z</time>
      </trkpt>
      <trkpt lat="46.73014" lon="4.95159">
        <ele>200.4</ele>
        <time>2024-09-18T10:29:23Z</time>
      </trkpt>
      <trkpt lat="46.73013" lon="4.9516">
        <ele>200.4</ele>
        <time>2024-09-18T10:29:24Z</time>
      </trkpt>
      <trkpt lat="46.73013" lon="4.9516">
        <ele>200.4</ele>
        <time>2024-09-18T10:29:25Z</time>
      </trkpt>
      <trkpt lat="46.73013" lon="4.9516">
        <ele>200.4</ele>
        <time>2024-09-18T10:29:26Z</time>
      </trkpt>
      <trkpt lat="46.73012" lon="4.95162">
        <ele>201.8</ele>
        <time>2024-09-18T10:39:14Z</time>
      </trkpt>
      <trkpt lat="46.73011" lon="4.95164">
        <ele>201.8</ele>
        <time>2024-09-18T10:39:15Z</time>
      </trkpt>
      <trkpt lat="46.7301" lon="4.95167">
        <ele>201.8</ele>
        <time>2024-09-18T10:39:16Z</time>
      </trkpt>
      <trkpt lat="46.73009" lon="4.9517">
        <ele>201.8</ele>
        <time>2024-09-18T10:39:17Z</time>
      </trkpt>
      <trkpt lat="46.73008" lon="4.95174">
        <ele>202</ele>
        <time>2024-09-18T10:39:18Z</time>
      </trkpt>
      <trkpt lat="46.73007" lon="4.95177">
        <ele>202</ele>
        <time>2024-09-18T10:39:19Z</time>
      </trkpt>
      <trkpt lat="46.73006" lon="4.95181">
        <ele>202</ele>
        <time>2024-09-18T10:39:20Z</time>
      </trkpt>
      <trkpt lat="46.73004" lon="4.95185">
        <ele>202</ele>
        <time>2024-09-18T10:39:21Z</time>
      </trkpt>
      <trkpt lat="46.73002" lon="4.95189">
        <ele>202</ele>
        <time>2024-09-18T10:39:22Z</time>
      </trkpt>
      <trkpt lat="46.73" lon="4.95193">
        <ele>202.2</ele>
        <time>2024-09-18T10:39:23Z</time>
      </trkpt>
      <trkpt lat="46.72999" lon="4.95198">
        <ele>201.8</ele>
        <time>2024-09-18T10:39:24Z</time>
      </trkpt>
      <trkpt lat="46.72997" lon="4.95202">
        <ele>201.8</ele>
        <time>2024-09-18T10:39:25Z</time>
      </trkpt>
      <trkpt lat="46.72995" lon="4.95207">
        <ele>201.8</ele>
        <time>2024-09-18T10:39:26Z</time>
      </trkpt>
      <trkpt lat="46.72993" lon="4.95212">
        <ele>202.2</ele>
        <time>2024-09-18T10:39:27Z</time>
      </trkpt>
      <trkpt lat="46.72991" lon="4.95217">
        <ele>202.2</ele>
        <time>2024-09-18T10:39:28Z</time>
      </trkpt>
      <trkpt lat="46.72989" lon="4.95221">
        <ele>202.2</ele>
        <time>2024-09-18T10:39:29Z</time>
      </trkpt>
      <trkpt lat="46.72987" lon="4.95227">
        <ele>202.2</ele>
        <time>2024-09-18T10:39:30Z</time>
      </trkpt>
      <trkpt lat="46.72985" lon="4.95232">
        <ele>202.2</ele>
        <time>2024-09-18T10:39:31Z</time>
      </trkpt>
      <trkpt lat="46.72982" lon="4.95237">
        <ele>201.6</ele>
        <time>2024-09-18T10:39:32Z</time>
      </trkpt>
      <trkpt lat="46.7298" lon="4.95242">
        <ele>201.6</ele>
        <time>2024-09-18T10:39:33Z</time>
      </trkpt>
      <trkpt lat="46.72978" lon="4.95248">
        <ele>201.6</ele>
        <time>2024-09-18T10:39:34Z</time>
      </trkpt>
      <trkpt lat="46.72975" lon="4.95253">
        <ele>201.8</ele>
        <time>2024-09-18T10:39:35Z</time>
      </trkpt>
      <trkpt lat="46.72973" lon="4.95259">
        <ele>201.8</ele>
        <time>2024-09-18T10:39:36Z</time>
      </trkpt>
      <trkpt lat="46.72971" lon="4.95264">
        <ele>202</ele>
        <time>2024-09-18T10:39:37Z</time>
      </trkpt>
      <trkpt lat="46.72969" lon="4.95269">
        <ele>202</ele>
        <time>2024-09-18T10:39:38Z</time>
      </trkpt>
      <trkpt lat="46.72966" lon="4.95274">
        <ele>202</ele>
        <time>2024-09-18T10:39:39Z</time>
      </trkpt>
      <trkpt lat="46.72964" lon="4.9528">
        <ele>202</ele>
        <time>2024-09-18T10:39:40Z</time>
      </trkpt>
      <trkpt lat="46.72962" lon="4.95286">
        <ele>202</ele>
        <time>2024-09-18T10:39:41Z</time>
      </trkpt>
      <trkpt lat="46.7296" lon="4.95291">
        <ele>202</ele>
        <time>2024-09-18T10:39:42Z</time>
      </trkpt>
      <trkpt lat="46.72957" lon="4.95297">
        <ele>202.2</ele>
        <time>2024-09-18T10:39:43Z</time>
      </trkpt>
      <trkpt lat="46.72955" lon="4.95302">
        <ele>202.2</ele>
        <time>2024-09-18T10:39:44Z</time>
      </trkpt>
      <trkpt lat="46.72953" lon="4.95308">
        <ele>202</ele>
        <time>2024-09-18T10:39:45Z</time>
      </trkpt>
      <trkpt lat="46.7295" lon="4.95313">
        <ele>201.8</ele>
        <time>2024-09-18T10:39:46Z</time>
      </trkpt>
      <trkpt lat="46.72948" lon="4.95319">
        <ele>201.8</ele>
        <time>2024-09-18T10:39:47Z</time>
      </trkpt>
      <trkpt lat="46.72945" lon="4.95325">
        <ele>201.8</ele>
        <time>2024-09-18T10:39:48Z</time>
      </trkpt>
      <trkpt lat="46.72943" lon="4.95331">
        <ele>201.8</ele>
        <time>2024-09-18T10:39:49Z</time>
      </trkpt>
      <trkpt lat="46.7294" lon="4.95337">
        <ele>201.8</ele>
        <time>2024-09-18T10:39:50Z</time>
      </trkpt>
      <trkpt lat="46.72938" lon="4.95343">
        <ele>201.8</ele>
        <time>2024-09-18T10:39:51Z</time>
      </trkpt>
      <trkpt lat="46.72936" lon="4.95348">
        <ele>201.8</ele>
        <time>2024-09-18T10:39:52Z</time>
      </trkpt>
      <trkpt lat="46.72932" lon="4.95356">
        <ele>201.8</ele>
        <time>2024-09-18T10:39:53Z</time>
      </trkpt>
      <trkpt lat="46.72931" lon="4.95358">
        <ele>201.8</ele>
        <time>2024-09-18T10:39:54Z</time>
      </trkpt>
      <trkpt lat="46.72928" lon="4.95364">
        <ele>202</ele>
        <time>2024-09-18T10:39:55Z</time>
      </trkpt>
      <trkpt lat="46.72926" lon="4.9537">
        <ele>202</ele>
        <time>2024-09-18T10:39:56Z</time>
      </trkpt>
      <trkpt lat="46.72924" lon="4.95376">
        <ele>202</ele>
        <time>2024-09-18T10:39:57Z</time>
      </trkpt>
      <trkpt lat="46.72922" lon="4.95381">
        <ele>201.8</ele>
        <time>2024-09-18T10:39:58Z</time>
      </trkpt>
      <trkpt lat="46.72919" lon="4.95387">
        <ele>201.6</ele>
        <time>2024-09-18T10:39:59Z</time>
      </trkpt>
      <trkpt lat="46.72917" lon="4.95393">
        <ele>201.6</ele>
        <time>2024-09-18T10:40:00Z</time>
      </trkpt>
      <trkpt lat="46.72914" lon="4.95399">
        <ele>201.6</ele>
        <time>2024-09-18T10:40:01Z</time>
      </trkpt>
      <trkpt lat="46.72912" lon="4.95405">
        <ele>201.6</ele>
        <time>2024-09-18T10:40:02Z</time>
      </trkpt>
      <trkpt lat="46.7291" lon="4.95411">
        <ele>201.6</ele>
        <time>2024-09-18T10:40:03Z</time>
      </trkpt>
      <trkpt lat="46.72907" lon="4.95417">
        <ele>201.6</ele>
        <time>2024-09-18T10:40:04Z</time>
      </trkpt>
      <trkpt lat="46.72904" lon="4.95423">
        <ele>201.6</ele>
        <time>2024-09-18T10:40:05Z</time>
      </trkpt>
      <trkpt lat="46.72902" lon="4.95429">
        <ele>201.6</ele>
        <time>2024-09-18T10:40:06Z</time>
      </trkpt>
      <trkpt lat="46.72899" lon="4.95435">
        <ele>201.2</ele>
        <time>2024-09-18T10:40:07Z</time>
      </trkpt>
      <trkpt lat="46.72896" lon="4.95441">
        <ele>201.2</ele>
        <time>2024-09-18T10:40:08Z</time>
      </trkpt>
      <trkpt lat="46.72894" lon="4.95447">
        <ele>201.2</ele>
        <time>2024-09-18T10:40:09Z</time>
      </trkpt>
      <trkpt lat="46.72891" lon="4.95453">
        <ele>201.2</ele>
        <time>2024-09-18T10:40:10Z</time>
      </trkpt>
      <trkpt lat="46.72889" lon="4.95459">
        <ele>201.2</ele>
        <time>2024-09-18T10:40:11Z</time>
      </trkpt>
      <trkpt lat="46.72886" lon="4.95466">
        <ele>201.2</ele>
        <time>2024-09-18T10:40:12Z</time>
      </trkpt>
      <trkpt lat="46.72882" lon="4.95475">
        <ele>201.6</ele>
        <time>2024-09-18T10:40:13Z</time>
      </trkpt>
      <trkpt lat="46.72881" lon="4.95478">
        <ele>201.6</ele>
        <time>2024-09-18T10:40:14Z</time>
      </trkpt>
      <trkpt lat="46.72878" lon="4.95485">
        <ele>201.6</ele>
        <time>2024-09-18T10:40:15Z</time>
      </trkpt>
      <trkpt lat="46.72875" lon="4.95491">
        <ele>201.6</ele>
        <time>2024-09-18T10:40:16Z</time>
      </trkpt>
      <trkpt lat="46.72873" lon="4.95498">
        <ele>200.8</ele>
        <time>2024-09-18T10:40:17Z</time>
      </trkpt>
      <trkpt lat="46.7287" lon="4.95504">
        <ele>200.8</ele>
        <time>2024-09-18T10:40:18Z</time>
      </trkpt>
      <trkpt lat="46.72867" lon="4.9551">
        <ele>200.8</ele>
        <time>2024-09-18T10:40:19Z</time>
      </trkpt>
      <trkpt lat="46.72865" lon="4.95517">
        <ele>200.8</ele>
        <time>2024-09-18T10:40:20Z</time>
      </trkpt>
      <trkpt lat="46.72862" lon="4.95523">
        <ele>200.8</ele>
        <time>2024-09-18T10:40:21Z</time>
      </trkpt>
      <trkpt lat="46.7286" lon="4.9553">
        <ele>200.8</ele>
        <time>2024-09-18T10:40:22Z</time>
      </trkpt>
      <trkpt lat="46.72858" lon="4.95536">
        <ele>200.8</ele>
        <time>2024-09-18T10:40:23Z</time>
      </trkpt>
      <trkpt lat="46.72855" lon="4.95543">
        <ele>200.8</ele>
        <time>2024-09-18T10:40:24Z</time>
      </trkpt>
      <trkpt lat="46.72853" lon="4.95549">
        <ele>200.8</ele>
        <time>2024-09-18T10:40:25Z</time>
      </trkpt>
      <trkpt lat="46.72851" lon="4.95554">
        <ele>200.6</ele>
        <time>2024-09-18T10:40:26Z</time>
      </trkpt>
      <trkpt lat="46.72848" lon="4.9556">
        <ele>200.2</ele>
        <time>2024-09-18T10:40:27Z</time>
      </trkpt>
      <trkpt lat="46.72845" lon="4.95566">
        <ele>200.2</ele>
        <time>2024-09-18T10:40:28Z</time>
      </trkpt>
      <trkpt lat="46.72843" lon="4.95573">
        <ele>200.2</ele>
        <time>2024-09-18T10:40:29Z</time>
      </trkpt>
      <trkpt lat="46.7284" lon="4.95579">
        <ele>200.2</ele>
        <time>2024-09-18T10:40:30Z</time>
      </trkpt>
      <trkpt lat="46.72838" lon="4.95585">
        <ele>200.2</ele>
        <time>2024-09-18T10:40:31Z</time>
      </trkpt>
      <trkpt lat="46.72835" lon="4.95591">
        <ele>199.8</ele>
        <time>2024-09-18T10:40:32Z</time>
      </trkpt>
      <trkpt lat="46.72832" lon="4.95598">
        <ele>199.8</ele>
        <time>2024-09-18T10:40:33Z</time>
      </trkpt>
      <trkpt lat="46.72829" lon="4.95603">
        <ele>199.8</ele>
        <time>2024-09-18T10:40:34Z</time>
      </trkpt>
      <trkpt lat="46.72826" lon="4.95609">
        <ele>199.6</ele>
        <time>2024-09-18T10:40:35Z</time>
      </trkpt>
      <trkpt lat="46.72824" lon="4.95615">
        <ele>199.6</ele>
        <time>2024-09-18T10:40:36Z</time>
      </trkpt>
      <trkpt lat="46.72822" lon="4.95621">
        <ele>199.6</ele>
        <time>2024-09-18T10:40:37Z</time>
      </trkpt>
      <trkpt lat="46.72819" lon="4.95627">
        <ele>199.6</ele>
        <time>2024-09-18T10:40:38Z</time>
      </trkpt>
      <trkpt lat="46.72816" lon="4.95634">
        <ele>199.6</ele>
        <time>2024-09-18T10:40:39Z</time>
      </trkpt>
      <trkpt lat="46.72813" lon="4.9564">
        <ele>199.6</ele>
        <time>2024-09-18T10:40:40Z</time>
      </trkpt>
      <trkpt lat="46.72811" lon="4.95646">
        <ele>199.6</ele>
        <time>2024-09-18T10:40:41Z</time>
      </trkpt>
      <trkpt lat="46.72808" lon="4.95652">
        <ele>199.6</ele>
        <time>2024-09-18T10:40:42Z</time>
      </trkpt>
      <trkpt lat="46.72805" lon="4.95658">
        <ele>199.6</ele>
        <time>2024-09-18T10:40:43Z</time>
      </trkpt>
      <trkpt lat="46.72803" lon="4.95665">
        <ele>199.6</ele>
        <time>2024-09-18T10:40:44Z</time>
      </trkpt>
      <trkpt lat="46.728" lon="4.95671">
        <ele>199.6</ele>
        <time>2024-09-18T10:40:45Z</time>
      </trkpt>
      <trkpt lat="46.72798" lon="4.95677">
        <ele>199.6</ele>
        <time>2024-09-18T10:40:46Z</time>
      </trkpt>
      <trkpt lat="46.72795" lon="4.95684">
        <ele>199</ele>
        <time>2024-09-18T10:40:47Z</time>
      </trkpt>
      <trkpt lat="46.72792" lon="4.9569">
        <ele>199</ele>
        <time>2024-09-18T10:40:48Z</time>
      </trkpt>
      <trkpt lat="46.7279" lon="4.95696">
        <ele>199</ele>
        <time>2024-09-18T10:40:49Z</time>
      </trkpt>
      <trkpt lat="46.72787" lon="4.95702">
        <ele>199</ele>
        <time>2024-09-18T10:40:50Z</time>
      </trkpt>
      <trkpt lat="46.72785" lon="4.95708">
        <ele>199</ele>
        <time>2024-09-18T10:40:51Z</time>
      </trkpt>
      <trkpt lat="46.72782" lon="4.95714">
        <ele>199</ele>
        <time>2024-09-18T10:40:52Z</time>
      </trkpt>
      <trkpt lat="46.72779" lon="4.9572">
        <ele>199</ele>
        <time>2024-09-18T10:40:53Z</time>
      </trkpt>
      <trkpt lat="46.72776" lon="4.95727">
        <ele>199</ele>
        <time>2024-09-18T10:40:54Z</time>
      </trkpt>
      <trkpt lat="46.72774" lon="4.95733">
        <ele>199</ele>
        <time>2024-09-18T10:40:55Z</time>
      </trkpt>
      <trkpt lat="46.72771" lon="4.9574">
        <ele>198.6</ele>
        <time>2024-09-18T10:40:56Z</time>
      </trkpt>
      <trkpt lat="46.72769" lon="4.95747">
        <ele>198.8</ele>
        <time>2024-09-18T10:40:57Z</time>
      </trkpt>
      <trkpt lat="46.72766" lon="4.95753">
        <ele>198.8</ele>
        <time>2024-09-18T10:40:58Z</time>
      </trkpt>
      <trkpt lat="46.72764" lon="4.9576">
        <ele>198.8</ele>
        <time>2024-09-18T10:40:59Z</time>
      </trkpt>
      <trkpt lat="46.72761" lon="4.95766">
        <ele>198.8</ele>
        <time>2024-09-18T10:41:00Z</time>
      </trkpt>
      <trkpt lat="46.72758" lon="4.95772">
        <ele>198.8</ele>
        <time>2024-09-18T10:41:01Z</time>
      </trkpt>
      <trkpt lat="46.72755" lon="4.95778">
        <ele>198.4</ele>
        <time>2024-09-18T10:41:02Z</time>
      </trkpt>
      <trkpt lat="46.72753" lon="4.95784">
        <ele>198.4</ele>
        <time>2024-09-18T10:41:03Z</time>
      </trkpt>
      <trkpt lat="46.7275" lon="4.95789">
        <ele>198.4</ele>
        <time>2024-09-18T10:41:04Z</time>
      </trkpt>
      <trkpt lat="46.72747" lon="4.95795">
        <ele>198.4</ele>
        <time>2024-09-18T10:41:05Z</time>
      </trkpt>
      <trkpt lat="46.72745" lon="4.958">
        <ele>198.4</ele>
        <time>2024-09-18T10:41:06Z</time>
      </trkpt>
      <trkpt lat="46.72742" lon="4.95805">
        <ele>198.6</ele>
        <time>2024-09-18T10:41:07Z</time>
      </trkpt>
      <trkpt lat="46.72739" lon="4.9581">
        <ele>198.6</ele>
        <time>2024-09-18T10:41:08Z</time>
      </trkpt>
      <trkpt lat="46.72737" lon="4.95814">
        <ele>198.6</ele>
        <time>2024-09-18T10:41:09Z</time>
      </trkpt>
      <trkpt lat="46.72734" lon="4.95817">
        <ele>198.6</ele>
        <time>2024-09-18T10:41:10Z</time>
      </trkpt>
      <trkpt lat="46.72732" lon="4.95818">
        <ele>198.6</ele>
        <time>2024-09-18T10:41:11Z</time>
      </trkpt>
      <trkpt lat="46.72729" lon="4.95819">
        <ele>198.6</ele>
        <time>2024-09-18T10:41:12Z</time>
      </trkpt>
      <trkpt lat="46.72728" lon="4.95818">
        <ele>198.6</ele>
        <time>2024-09-18T10:41:13Z</time>
      </trkpt>
      <trkpt lat="46.72726" lon="4.95817">
        <ele>198.6</ele>
        <time>2024-09-18T10:41:14Z</time>
      </trkpt>
      <trkpt lat="46.72724" lon="4.95814">
        <ele>198.6</ele>
        <time>2024-09-18T10:41:15Z</time>
      </trkpt>
      <trkpt lat="46.72724" lon="4.95812">
        <ele>198.2</ele>
        <time>2024-09-18T10:41:16Z</time>
      </trkpt>
      <trkpt lat="46.72723" lon="4.9581">
        <ele>198.2</ele>
        <time>2024-09-18T10:41:17Z</time>
      </trkpt>
      <trkpt lat="46.72723" lon="4.95809">
        <ele>198.2</ele>
        <time>2024-09-18T10:41:18Z</time>
      </trkpt>
      <trkpt lat="46.72723" lon="4.95808">
        <ele>198</ele>
        <time>2024-09-18T10:41:19Z</time>
      </trkpt>
      <trkpt lat="46.7272" lon="4.95804">
        <ele>197.2</ele>
        <time>2024-09-18T10:42:19Z</time>
      </trkpt>
      <trkpt lat="46.72719" lon="4.95803">
        <ele>197.2</ele>
        <time>2024-09-18T10:42:20Z</time>
      </trkpt>
      <trkpt lat="46.72719" lon="4.95803">
        <ele>197</ele>
        <time>2024-09-18T10:42:21Z</time>
      </trkpt>
      <trkpt lat="46.72719" lon="4.95801">
        <ele>197</ele>
        <time>2024-09-18T10:42:22Z</time>
      </trkpt>
      <trkpt lat="46.72718" lon="4.95799">
        <ele>197</ele>
        <time>2024-09-18T10:42:23Z</time>
      </trkpt>
      <trkpt lat="46.72717" lon="4.95797">
        <ele>197</ele>
        <time>2024-09-18T10:42:24Z</time>
      </trkpt>
      <trkpt lat="46.72716" lon="4.95795">
        <ele>197</ele>
        <time>2024-09-18T10:42:25Z</time>
      </trkpt>
      <trkpt lat="46.72715" lon="4.95793">
        <ele>197</ele>
        <time>2024-09-18T10:42:26Z</time>
      </trkpt>
      <trkpt lat="46.72713" lon="4.9579">
        <ele>197</ele>
        <time>2024-09-18T10:42:27Z</time>
      </trkpt>
      <trkpt lat="46.72712" lon="4.95787">
        <ele>197</ele>
        <time>2024-09-18T10:42:28Z</time>
      </trkpt>
      <trkpt lat="46.7271" lon="4.95783">
        <ele>197</ele>
        <time>2024-09-18T10:42:29Z</time>
      </trkpt>
      <trkpt lat="46.72709" lon="4.9578">
        <ele>197</ele>
        <time>2024-09-18T10:42:30Z</time>
      </trkpt>
      <trkpt lat="46.72707" lon="4.95776">
        <ele>197</ele>
        <time>2024-09-18T10:42:31Z</time>
      </trkpt>
      <trkpt lat="46.72705" lon="4.95772">
        <ele>197.2</ele>
        <time>2024-09-18T10:42:32Z</time>
      </trkpt>
      <trkpt lat="46.72703" lon="4.95768">
        <ele>197.2</ele>
        <time>2024-09-18T10:42:33Z</time>
      </trkpt>
      <trkpt lat="46.72701" lon="4.95764">
        <ele>197.2</ele>
        <time>2024-09-18T10:42:34Z</time>
      </trkpt>
      <trkpt lat="46.72699" lon="4.95759">
        <ele>197.2</ele>
        <time>2024-09-18T10:42:35Z</time>
      </trkpt>
      <trkpt lat="46.72697" lon="4.95755">
        <ele>197.4</ele>
        <time>2024-09-18T10:42:36Z</time>
      </trkpt>
      <trkpt lat="46.72695" lon="4.95751">
        <ele>197.4</ele>
        <time>2024-09-18T10:42:37Z</time>
      </trkpt>
      <trkpt lat="46.72692" lon="4.95746">
        <ele>197.4</ele>
        <time>2024-09-18T10:42:38Z</time>
      </trkpt>
      <trkpt lat="46.7269" lon="4.95741">
        <ele>197.4</ele>
        <time>2024-09-18T10:42:39Z</time>
      </trkpt>
      <trkpt lat="46.72688" lon="4.95736">
        <ele>197.4</ele>
        <time>2024-09-18T10:42:40Z</time>
      </trkpt>
      <trkpt lat="46.72685" lon="4.95732">
        <ele>197.4</ele>
        <time>2024-09-18T10:42:41Z</time>
      </trkpt>
      <trkpt lat="46.72683" lon="4.95727">
        <ele>197.4</ele>
        <time>2024-09-18T10:42:42Z</time>
      </trkpt>
      <trkpt lat="46.72681" lon="4.95722">
        <ele>197.6</ele>
        <time>2024-09-18T10:42:43Z</time>
      </trkpt>
      <trkpt lat="46.72679" lon="4.95717">
        <ele>197.6</ele>
        <time>2024-09-18T10:42:44Z</time>
      </trkpt>
      <trkpt lat="46.72676" lon="4.95713">
        <ele>197.8</ele>
        <time>2024-09-18T10:42:45Z</time>
      </trkpt>
      <trkpt lat="46.72674" lon="4.95708">
        <ele>197.8</ele>
        <time>2024-09-18T10:42:46Z</time>
      </trkpt>
      <trkpt lat="46.72671" lon="4.95704">
        <ele>197.8</ele>
        <time>2024-09-18T10:42:47Z</time>
      </trkpt>
      <trkpt lat="46.72669" lon="4.95699">
        <ele>197.8</ele>
        <time>2024-09-18T10:42:48Z</time>
      </trkpt>
      <trkpt lat="46.72667" lon="4.95694">
        <ele>198.2</ele>
        <time>2024-09-18T10:42:49Z</time>
      </trkpt>
      <trkpt lat="46.72665" lon="4.9569">
        <ele>198.2</ele>
        <time>2024-09-18T10:42:50Z</time>
      </trkpt>
      <trkpt lat="46.72662" lon="4.95686">
        <ele>198.2</ele>
        <time>2024-09-18T10:42:51Z</time>
      </trkpt>
      <trkpt lat="46.7266" lon="4.95682">
        <ele>198.2</ele>
        <time>2024-09-18T10:42:52Z</time>
      </trkpt>
      <trkpt lat="46.72658" lon="4.95678">
        <ele>198.2</ele>
        <time>2024-09-18T10:42:53Z</time>
      </trkpt>
      <trkpt lat="46.72656" lon="4.95674">
        <ele>198.2</ele>
        <time>2024-09-18T10:42:54Z</time>
      </trkpt>
      <trkpt lat="46.72653" lon="4.95668">
        <ele>198.2</ele>
        <time>2024-09-18T10:42:55Z</time>
      </trkpt>
      <trkpt lat="46.72652" lon="4.95665">
        <ele>198.2</ele>
        <time>2024-09-18T10:42:56Z</time>
      </trkpt>
      <trkpt lat="46.72649" lon="4.95661">
        <ele>197.8</ele>
        <time>2024-09-18T10:42:57Z</time>
      </trkpt>
      <trkpt lat="46.72647" lon="4.95656">
        <ele>197.8</ele>
        <time>2024-09-18T10:42:58Z</time>
      </trkpt>
      <trkpt lat="46.72644" lon="4.95651">
        <ele>198</ele>
        <time>2024-09-18T10:42:59Z</time>
      </trkpt>
      <trkpt lat="46.72642" lon="4.95647">
        <ele>198</ele>
        <time>2024-09-18T10:43:00Z</time>
      </trkpt>
      <trkpt lat="46.72639" lon="4.95642">
        <ele>198.2</ele>
        <time>2024-09-18T10:43:01Z</time>
      </trkpt>
      <trkpt lat="46.72637" lon="4.95637">
        <ele>198.2</ele>
        <time>2024-09-18T10:43:02Z</time>
      </trkpt>
      <trkpt lat="46.72635" lon="4.95632">
        <ele>198.6</ele>
        <time>2024-09-18T10:43:03Z</time>
      </trkpt>
      <trkpt lat="46.72632" lon="4.95627">
        <ele>198.6</ele>
        <time>2024-09-18T10:43:04Z</time>
      </trkpt>
      <trkpt lat="46.7263" lon="4.95622">
        <ele>198.6</ele>
        <time>2024-09-18T10:43:05Z</time>
      </trkpt>
      <trkpt lat="46.72627" lon="4.95617">
        <ele>198.6</ele>
        <time>2024-09-18T10:43:06Z</time>
      </trkpt>
      <trkpt lat="46.72625" lon="4.95612">
        <ele>198.6</ele>
        <time>2024-09-18T10:43:07Z</time>
      </trkpt>
      <trkpt lat="46.72622" lon="4.95607">
        <ele>198.6</ele>
        <time>2024-09-18T10:43:08Z</time>
      </trkpt>
      <trkpt lat="46.7262" lon="4.95601">
        <ele>198.6</ele>
        <time>2024-09-18T10:43:09Z</time>
      </trkpt>
      <trkpt lat="46.72617" lon="4.95596">
        <ele>198.6</ele>
        <time>2024-09-18T10:43:10Z</time>
      </trkpt>
      <trkpt lat="46.72615" lon="4.95591">
        <ele>199</ele>
        <time>2024-09-18T10:43:11Z</time>
      </trkpt>
      <trkpt lat="46.72613" lon="4.95586">
        <ele>199</ele>
        <time>2024-09-18T10:43:12Z</time>
      </trkpt>
      <trkpt lat="46.7261" lon="4.95582">
        <ele>199</ele>
        <time>2024-09-18T10:43:13Z</time>
      </trkpt>
      <trkpt lat="46.72608" lon="4.95577">
        <ele>199</ele>
        <time>2024-09-18T10:43:14Z</time>
      </trkpt>
      <trkpt lat="46.72605" lon="4.95572">
        <ele>199.2</ele>
        <time>2024-09-18T10:43:15Z</time>
      </trkpt>
      <trkpt lat="46.72603" lon="4.95567">
        <ele>199.4</ele>
        <time>2024-09-18T10:43:16Z</time>
      </trkpt>
      <trkpt lat="46.726" lon="4.95562">
        <ele>199.4</ele>
        <time>2024-09-18T10:43:17Z</time>
      </trkpt>
      <trkpt lat="46.72598" lon="4.95557">
        <ele>199.4</ele>
        <time>2024-09-18T10:43:18Z</time>
      </trkpt>
      <trkpt lat="46.72595" lon="4.95553">
        <ele>199.6</ele>
        <time>2024-09-18T10:43:19Z</time>
      </trkpt>
      <trkpt lat="46.72593" lon="4.95548">
        <ele>199.6</ele>
        <time>2024-09-18T10:43:20Z</time>
      </trkpt>
      <trkpt lat="46.7259" lon="4.95543">
        <ele>199.6</ele>
        <time>2024-09-18T10:43:21Z</time>
      </trkpt>
      <trkpt lat="46.72588" lon="4.95538">
        <ele>199.6</ele>
        <time>2024-09-18T10:43:22Z</time>
      </trkpt>
      <trkpt lat="46.72585" lon="4.95534">
        <ele>199.6</ele>
        <time>2024-09-18T10:43:23Z</time>
      </trkpt>
      <trkpt lat="46.72583" lon="4.95529">
        <ele>199.6</ele>
        <time>2024-09-18T10:43:24Z</time>
      </trkpt>
      <trkpt lat="46.72581" lon="4.95524">
        <ele>199.8</ele>
        <time>2024-09-18T10:43:25Z</time>
      </trkpt>
      <trkpt lat="46.72578" lon="4.95519">
        <ele>199.8</ele>
        <time>2024-09-18T10:43:26Z</time>
      </trkpt>
      <trkpt lat="46.72575" lon="4.95514">
        <ele>199.8</ele>
        <time>2024-09-18T10:43:27Z</time>
      </trkpt>
      <trkpt lat="46.72573" lon="4.9551">
        <ele>199.8</ele>
        <time>2024-09-18T10:43:28Z</time>
      </trkpt>
      <trkpt lat="46.7257" lon="4.95505">
        <ele>199.8</ele>
        <time>2024-09-18T10:43:29Z</time>
      </trkpt>
      <trkpt lat="46.72568" lon="4.955">
        <ele>200.4</ele>
        <time>2024-09-18T10:43:30Z</time>
      </trkpt>
      <trkpt lat="46.72565" lon="4.95495">
        <ele>200.4</ele>
        <time>2024-09-18T10:43:31Z</time>
      </trkpt>
      <trkpt lat="46.72563" lon="4.95491">
        <ele>200.4</ele>
        <time>2024-09-18T10:43:32Z</time>
      </trkpt>
      <trkpt lat="46.7256" lon="4.95485">
        <ele>200.4</ele>
        <time>2024-09-18T10:43:33Z</time>
      </trkpt>
      <trkpt lat="46.72558" lon="4.9548">
        <ele>200.4</ele>
        <time>2024-09-18T10:43:34Z</time>
      </trkpt>
      <trkpt lat="46.72555" lon="4.95475">
        <ele>200.4</ele>
        <time>2024-09-18T10:43:35Z</time>
      </trkpt>
      <trkpt lat="46.72552" lon="4.95471">
        <ele>200.4</ele>
        <time>2024-09-18T10:43:36Z</time>
      </trkpt>
      <trkpt lat="46.72549" lon="4.95467">
        <ele>200.4</ele>
        <time>2024-09-18T10:43:37Z</time>
      </trkpt>
      <trkpt lat="46.72546" lon="4.95462">
        <ele>200.4</ele>
        <time>2024-09-18T10:43:38Z</time>
      </trkpt>
      <trkpt lat="46.72543" lon="4.95457">
        <ele>200.6</ele>
        <time>2024-09-18T10:43:39Z</time>
      </trkpt>
      <trkpt lat="46.7254" lon="4.95452">
        <ele>200.6</ele>
        <time>2024-09-18T10:43:40Z</time>
      </trkpt>
      <trkpt lat="46.72537" lon="4.95447">
        <ele>200.6</ele>
        <time>2024-09-18T10:43:41Z</time>
      </trkpt>
      <trkpt lat="46.72534" lon="4.95442">
        <ele>200.6</ele>
        <time>2024-09-18T10:43:42Z</time>
      </trkpt>
      <trkpt lat="46.7253" lon="4.95438">
        <ele>200.4</ele>
        <time>2024-09-18T10:43:43Z</time>
      </trkpt>
      <trkpt lat="46.72527" lon="4.95433">
        <ele>200.4</ele>
        <time>2024-09-18T10:43:44Z</time>
      </trkpt>
      <trkpt lat="46.72524" lon="4.95428">
        <ele>200.4</ele>
        <time>2024-09-18T10:43:45Z</time>
      </trkpt>
      <trkpt lat="46.7252" lon="4.95423">
        <ele>200.4</ele>
        <time>2024-09-18T10:43:46Z</time>
      </trkpt>
      <trkpt lat="46.72517" lon="4.95418">
        <ele>200.6</ele>
        <time>2024-09-18T10:43:47Z</time>
      </trkpt>
      <trkpt lat="46.72514" lon="4.95414">
        <ele>200.6</ele>
        <time>2024-09-18T10:43:48Z</time>
      </trkpt>
      <trkpt lat="46.72511" lon="4.95409">
        <ele>200.6</ele>
        <time>2024-09-18T10:43:49Z</time>
      </trkpt>
      <trkpt lat="46.72507" lon="4.95404">
        <ele>200.6</ele>
        <time>2024-09-18T10:43:50Z</time>
      </trkpt>
      <trkpt lat="46.72504" lon="4.95399">
        <ele>200.6</ele>
        <time>2024-09-18T10:43:51Z</time>
      </trkpt>
      <trkpt lat="46.72501" lon="4.95394">
        <ele>200.6</ele>
        <time>2024-09-18T10:43:52Z</time>
      </trkpt>
      <trkpt lat="46.72498" lon="4.95389">
        <ele>200.4</ele>
        <time>2024-09-18T10:43:53Z</time>
      </trkpt>
      <trkpt lat="46.72495" lon="4.95385">
        <ele>200.4</ele>
        <time>2024-09-18T10:43:54Z</time>
      </trkpt>
      <trkpt lat="46.72493" lon="4.95382">
        <ele>201</ele>
        <time>2024-09-18T10:43:55Z</time>
      </trkpt>
      <trkpt lat="46.72492" lon="4.9538">
        <ele>201</ele>
        <time>2024-09-18T10:43:56Z</time>
      </trkpt>
      <trkpt lat="46.72492" lon="4.9538">
        <ele>201</ele>
        <time>2024-09-18T10:43:57Z</time>
      </trkpt>
      <trkpt lat="46.72492" lon="4.9538">
        <ele>201</ele>
        <time>2024-09-18T10:43:58Z</time>
      </trkpt>
      <trkpt lat="46.72489" lon="4.95375">
        <ele>200.6</ele>
        <time>2024-09-18T10:44:15Z</time>
      </trkpt>
      <trkpt lat="46.72487" lon="4.95373">
        <ele>200.6</ele>
        <time>2024-09-18T10:44:16Z</time>
      </trkpt>
      <trkpt lat="46.72485" lon="4.95371">
        <ele>200.6</ele>
        <time>2024-09-18T10:44:17Z</time>
      </trkpt>
      <trkpt lat="46.72483" lon="4.95369">
        <ele>200.8</ele>
        <time>2024-09-18T10:44:18Z</time>
      </trkpt>
      <trkpt lat="46.72481" lon="4.95367">
        <ele>200.8</ele>
        <time>2024-09-18T10:44:19Z</time>
      </trkpt>
      <trkpt lat="46.72479" lon="4.95364">
        <ele>200.8</ele>
        <time>2024-09-18T10:44:20Z</time>
      </trkpt>
      <trkpt lat="46.72478" lon="4.95362">
        <ele>200.8</ele>
        <time>2024-09-18T10:44:21Z</time>
      </trkpt>
      <trkpt lat="46.72476" lon="4.95359">
        <ele>200.8</ele>
        <time>2024-09-18T10:44:22Z</time>
      </trkpt>
      <trkpt lat="46.72474" lon="4.95356">
        <ele>200.8</ele>
        <time>2024-09-18T10:44:23Z</time>
      </trkpt>
      <trkpt lat="46.72472" lon="4.95353">
        <ele>200.8</ele>
        <time>2024-09-18T10:44:24Z</time>
      </trkpt>
      <trkpt lat="46.72471" lon="4.9535">
        <ele>200.8</ele>
        <time>2024-09-18T10:44:25Z</time>
      </trkpt>
      <trkpt lat="46.72469" lon="4.95347">
        <ele>200.8</ele>
        <time>2024-09-18T10:44:26Z</time>
      </trkpt>
      <trkpt lat="46.72466" lon="4.95343">
        <ele>201</ele>
        <time>2024-09-18T10:44:27Z</time>
      </trkpt>
      <trkpt lat="46.72463" lon="4.9534">
        <ele>201</ele>
        <time>2024-09-18T10:44:28Z</time>
      </trkpt>
      <trkpt lat="46.72461" lon="4.95336">
        <ele>201</ele>
        <time>2024-09-18T10:44:29Z</time>
      </trkpt>
      <trkpt lat="46.72458" lon="4.95332">
        <ele>201</ele>
        <time>2024-09-18T10:44:30Z</time>
      </trkpt>
      <trkpt lat="46.72455" lon="4.95328">
        <ele>201.4</ele>
        <time>2024-09-18T10:44:31Z</time>
      </trkpt>
      <trkpt lat="46.72453" lon="4.95323">
        <ele>201.4</ele>
        <time>2024-09-18T10:44:32Z</time>
      </trkpt>
      <trkpt lat="46.7245" lon="4.95319">
        <ele>201.2</ele>
        <time>2024-09-18T10:44:33Z</time>
      </trkpt>
      <trkpt lat="46.72447" lon="4.95315">
        <ele>201.2</ele>
        <time>2024-09-18T10:44:34Z</time>
      </trkpt>
      <trkpt lat="46.72445" lon="4.95311">
        <ele>201.2</ele>
        <time>2024-09-18T10:44:35Z</time>
      </trkpt>
      <trkpt lat="46.72442" lon="4.95307">
        <ele>201.2</ele>
        <time>2024-09-18T10:44:36Z</time>
      </trkpt>
      <trkpt lat="46.72439" lon="4.95302">
        <ele>201.2</ele>
        <time>2024-09-18T10:44:37Z</time>
      </trkpt>
      <trkpt lat="46.72437" lon="4.95298">
        <ele>201.2</ele>
        <time>2024-09-18T10:44:38Z</time>
      </trkpt>
      <trkpt lat="46.72434" lon="4.95293">
        <ele>201.2</ele>
        <time>2024-09-18T10:44:39Z</time>
      </trkpt>
      <trkpt lat="46.72432" lon="4.95288">
        <ele>201.2</ele>
        <time>2024-09-18T10:44:40Z</time>
      </trkpt>
      <trkpt lat="46.7243" lon="4.95283">
        <ele>201.6</ele>
        <time>2024-09-18T10:44:41Z</time>
      </trkpt>
      <trkpt lat="46.72428" lon="4.95278">
        <ele>201.6</ele>
        <time>2024-09-18T10:44:42Z</time>
      </trkpt>
      <trkpt lat="46.72426" lon="4.95274">
        <ele>201.6</ele>
        <time>2024-09-18T10:44:43Z</time>
      </trkpt>
      <trkpt lat="46.72424" lon="4.95269">
        <ele>201</ele>
        <time>2024-09-18T10:44:44Z</time>
      </trkpt>
      <trkpt lat="46.72422" lon="4.95265">
        <ele>201.2</ele>
        <time>2024-09-18T10:44:45Z</time>
      </trkpt>
      <trkpt lat="46.72421" lon="4.95262">
        <ele>201.2</ele>
        <time>2024-09-18T10:44:46Z</time>
      </trkpt>
      <trkpt lat="46.72419" lon="4.9526">
        <ele>201.2</ele>
        <time>2024-09-18T10:44:47Z</time>
      </trkpt>
      <trkpt lat="46.72418" lon="4.95259">
        <ele>201.2</ele>
        <time>2024-09-18T10:44:48Z</time>
      </trkpt>
      <trkpt lat="46.72416" lon="4.95258">
        <ele>201</ele>
        <time>2024-09-18T10:44:49Z</time>
      </trkpt>
      <trkpt lat="46.72414" lon="4.95257">
        <ele>201</ele>
        <time>2024-09-18T10:44:50Z</time>
      </trkpt>
      <trkpt lat="46.72411" lon="4.95257">
        <ele>201</ele>
        <time>2024-09-18T10:44:51Z</time>
      </trkpt>
      <trkpt lat="46.72408" lon="4.95258">
        <ele>201</ele>
        <time>2024-09-18T10:44:52Z</time>
      </trkpt>
      <trkpt lat="46.72405" lon="4.95259">
        <ele>201</ele>
        <time>2024-09-18T10:44:53Z</time>
      </trkpt>
      <trkpt lat="46.72402" lon="4.95261">
        <ele>200.8</ele>
        <time>2024-09-18T10:44:54Z</time>
      </trkpt>
      <trkpt lat="46.72398" lon="4.95263">
        <ele>200.8</ele>
        <time>2024-09-18T10:44:55Z</time>
      </trkpt>
      <trkpt lat="46.72394" lon="4.95265">
        <ele>200.8</ele>
        <time>2024-09-18T10:44:56Z</time>
      </trkpt>
      <trkpt lat="46.7239" lon="4.95267">
        <ele>200.8</ele>
        <time>2024-09-18T10:44:57Z</time>
      </trkpt>
      <trkpt lat="46.72386" lon="4.95269">
        <ele>201</ele>
        <time>2024-09-18T10:44:58Z</time>
      </trkpt>
      <trkpt lat="46.72382" lon="4.95272">
        <ele>201</ele>
        <time>2024-09-18T10:44:59Z</time>
      </trkpt>
      <trkpt lat="46.72378" lon="4.95274">
        <ele>201</ele>
        <time>2024-09-18T10:45:00Z</time>
      </trkpt>
      <trkpt lat="46.72374" lon="4.95277">
        <ele>201</ele>
        <time>2024-09-18T10:45:01Z</time>
      </trkpt>
      <trkpt lat="46.7237" lon="4.95279">
        <ele>201</ele>
        <time>2024-09-18T10:45:02Z</time>
      </trkpt>
      <trkpt lat="46.72365" lon="4.95282">
        <ele>201</ele>
        <time>2024-09-18T10:45:03Z</time>
      </trkpt>
      <trkpt lat="46.72361" lon="4.95285">
        <ele>201.2</ele>
        <time>2024-09-18T10:45:04Z</time>
      </trkpt>
      <trkpt lat="46.72357" lon="4.95288">
        <ele>201.2</ele>
        <time>2024-09-18T10:45:05Z</time>
      </trkpt>
      <trkpt lat="46.72352" lon="4.95291">
        <ele>201.2</ele>
        <time>2024-09-18T10:45:06Z</time>
      </trkpt>
      <trkpt lat="46.72348" lon="4.95294">
        <ele>201.2</ele>
        <time>2024-09-18T10:45:07Z</time>
      </trkpt>
      <trkpt lat="46.72344" lon="4.95296">
        <ele>201.2</ele>
        <time>2024-09-18T10:45:08Z</time>
      </trkpt>
      <trkpt lat="46.72339" lon="4.95299">
        <ele>201.2</ele>
        <time>2024-09-18T10:45:09Z</time>
      </trkpt>
      <trkpt lat="46.72335" lon="4.95302">
        <ele>201.2</ele>
        <time>2024-09-18T10:45:10Z</time>
      </trkpt>
      <trkpt lat="46.72331" lon="4.95305">
        <ele>201.2</ele>
        <time>2024-09-18T10:45:11Z</time>
      </trkpt>
      <trkpt lat="46.72326" lon="4.95308">
        <ele>201.2</ele>
        <time>2024-09-18T10:45:12Z</time>
      </trkpt>
      <trkpt lat="46.72322" lon="4.95311">
        <ele>201.2</ele>
        <time>2024-09-18T10:45:13Z</time>
      </trkpt>
      <trkpt lat="46.72317" lon="4.95314">
        <ele>201.2</ele>
        <time>2024-09-18T10:45:14Z</time>
      </trkpt>
      <trkpt lat="46.72313" lon="4.95316">
        <ele>201.2</ele>
        <time>2024-09-18T10:45:15Z</time>
      </trkpt>
      <trkpt lat="46.72309" lon="4.95319">
        <ele>201.2</ele>
        <time>2024-09-18T10:45:16Z</time>
      </trkpt>
      <trkpt lat="46.72304" lon="4.95321">
        <ele>201.2</ele>
        <time>2024-09-18T10:45:17Z</time>
      </trkpt>
      <trkpt lat="46.723" lon="4.95323">
        <ele>201.2</ele>
        <time>2024-09-18T10:45:18Z</time>
      </trkpt>
      <trkpt lat="46.72296" lon="4.95325">
        <ele>201.2</ele>
        <time>2024-09-18T10:45:19Z</time>
      </trkpt>
      <trkpt lat="46.72291" lon="4.95327">
        <ele>201.2</ele>
        <time>2024-09-18T10:45:20Z</time>
      </trkpt>
      <trkpt lat="46.72287" lon="4.95329">
        <ele>201.4</ele>
        <time>2024-09-18T10:45:21Z</time>
      </trkpt>
      <trkpt lat="46.72283" lon="4.95331">
        <ele>201.4</ele>
        <time>2024-09-18T10:45:22Z</time>
      </trkpt>
      <trkpt lat="46.72278" lon="4.95334">
        <ele>201.4</ele>
        <time>2024-09-18T10:45:23Z</time>
      </trkpt>
      <trkpt lat="46.72274" lon="4.95336">
        <ele>201.4</ele>
        <time>2024-09-18T10:45:24Z</time>
      </trkpt>
      <trkpt lat="46.72269" lon="4.95337">
        <ele>201.4</ele>
        <time>2024-09-18T10:45:25Z</time>
      </trkpt>
      <trkpt lat="46.72265" lon="4.95339">
        <ele>201.2</ele>
        <time>2024-09-18T10:45:26Z</time>
      </trkpt>
      <trkpt lat="46.7226" lon="4.95341">
        <ele>201.2</ele>
        <time>2024-09-18T10:45:27Z</time>
      </trkpt>
      <trkpt lat="46.72256" lon="4.95343">
        <ele>201.2</ele>
        <time>2024-09-18T10:45:28Z</time>
      </trkpt>
      <trkpt lat="46.72251" lon="4.95344">
        <ele>201.2</ele>
        <time>2024-09-18T10:45:29Z</time>
      </trkpt>
      <trkpt lat="46.72247" lon="4.95346">
        <ele>201.4</ele>
        <time>2024-09-18T10:45:30Z</time>
      </trkpt>
      <trkpt lat="46.72242" lon="4.95347">
        <ele>201.4</ele>
        <time>2024-09-18T10:45:31Z</time>
      </trkpt>
      <trkpt lat="46.72238" lon="4.95348">
        <ele>201.4</ele>
        <time>2024-09-18T10:45:32Z</time>
      </trkpt>
      <trkpt lat="46.72233" lon="4.95349">
        <ele>201.4</ele>
        <time>2024-09-18T10:45:33Z</time>
      </trkpt>
      <trkpt lat="46.72229" lon="4.9535">
        <ele>201.4</ele>
        <time>2024-09-18T10:45:34Z</time>
      </trkpt>
      <trkpt lat="46.72224" lon="4.9535">
        <ele>201.6</ele>
        <time>2024-09-18T10:45:35Z</time>
      </trkpt>
      <trkpt lat="46.7222" lon="4.95351">
        <ele>201.6</ele>
        <time>2024-09-18T10:45:36Z</time>
      </trkpt>
      <trkpt lat="46.72215" lon="4.95352">
        <ele>201.6</ele>
        <time>2024-09-18T10:45:37Z</time>
      </trkpt>
      <trkpt lat="46.7221" lon="4.95353">
        <ele>201.2</ele>
        <time>2024-09-18T10:45:38Z</time>
      </trkpt>
      <trkpt lat="46.72205" lon="4.95353">
        <ele>201</ele>
        <time>2024-09-18T10:45:39Z</time>
      </trkpt>
      <trkpt lat="46.722" lon="4.95354">
        <ele>201</ele>
        <time>2024-09-18T10:45:40Z</time>
      </trkpt>
      <trkpt lat="46.72195" lon="4.95354">
        <ele>201</ele>
        <time>2024-09-18T10:45:41Z</time>
      </trkpt>
      <trkpt lat="46.72191" lon="4.95354">
        <ele>201</ele>
        <time>2024-09-18T10:45:42Z</time>
      </trkpt>
      <trkpt lat="46.72186" lon="4.95355">
        <ele>201</ele>
        <time>2024-09-18T10:45:43Z</time>
      </trkpt>
      <trkpt lat="46.72181" lon="4.95355">
        <ele>201</ele>
        <time>2024-09-18T10:45:44Z</time>
      </trkpt>
      <trkpt lat="46.72177" lon="4.95356">
        <ele>201</ele>
        <time>2024-09-18T10:45:45Z</time>
      </trkpt>
      <trkpt lat="46.72173" lon="4.95356">
        <ele>201</ele>
        <time>2024-09-18T10:45:46Z</time>
      </trkpt>
      <trkpt lat="46.72168" lon="4.95357">
        <ele>201</ele>
        <time>2024-09-18T10:45:47Z</time>
      </trkpt>
      <trkpt lat="46.72164" lon="4.95357">
        <ele>201</ele>
        <time>2024-09-18T10:45:48Z</time>
      </trkpt>
      <trkpt lat="46.7216" lon="4.95357">
        <ele>200.8</ele>
        <time>2024-09-18T10:45:49Z</time>
      </trkpt>
      <trkpt lat="46.72156" lon="4.95358">
        <ele>200.8</ele>
        <time>2024-09-18T10:45:50Z</time>
      </trkpt>
      <trkpt lat="46.72151" lon="4.95358">
        <ele>200.8</ele>
        <time>2024-09-18T10:45:51Z</time>
      </trkpt>
      <trkpt lat="46.72147" lon="4.95358">
        <ele>200.8</ele>
        <time>2024-09-18T10:45:52Z</time>
      </trkpt>
      <trkpt lat="46.72143" lon="4.95357">
        <ele>200</ele>
        <time>2024-09-18T10:45:53Z</time>
      </trkpt>
      <trkpt lat="46.72139" lon="4.95357">
        <ele>200</ele>
        <time>2024-09-18T10:45:54Z</time>
      </trkpt>
      <trkpt lat="46.72135" lon="4.95356">
        <ele>200</ele>
        <time>2024-09-18T10:45:55Z</time>
      </trkpt>
      <trkpt lat="46.72131" lon="4.95353">
        <ele>199.6</ele>
        <time>2024-09-18T10:45:56Z</time>
      </trkpt>
      <trkpt lat="46.72127" lon="4.95351">
        <ele>199.6</ele>
        <time>2024-09-18T10:45:57Z</time>
      </trkpt>
      <trkpt lat="46.72123" lon="4.95349">
        <ele>199.4</ele>
        <time>2024-09-18T10:45:58Z</time>
      </trkpt>
      <trkpt lat="46.72119" lon="4.95347">
        <ele>199.4</ele>
        <time>2024-09-18T10:45:59Z</time>
      </trkpt>
      <trkpt lat="46.72116" lon="4.95343">
        <ele>199.4</ele>
        <time>2024-09-18T10:46:00Z</time>
      </trkpt>
      <trkpt lat="46.72114" lon="4.95337">
        <ele>199</ele>
        <time>2024-09-18T10:46:01Z</time>
      </trkpt>
      <trkpt lat="46.72113" lon="4.95331">
        <ele>198.8</ele>
        <time>2024-09-18T10:46:02Z</time>
      </trkpt>
      <trkpt lat="46.72112" lon="4.95325">
        <ele>198.8</ele>
        <time>2024-09-18T10:46:03Z</time>
      </trkpt>
      <trkpt lat="46.72111" lon="4.95318">
        <ele>198.8</ele>
        <time>2024-09-18T10:46:04Z</time>
      </trkpt>
      <trkpt lat="46.72111" lon="4.95312">
        <ele>198</ele>
        <time>2024-09-18T10:46:05Z</time>
      </trkpt>
      <trkpt lat="46.7211" lon="4.95305">
        <ele>198</ele>
        <time>2024-09-18T10:46:06Z</time>
      </trkpt>
      <trkpt lat="46.72109" lon="4.95298">
        <ele>198</ele>
        <time>2024-09-18T10:46:07Z</time>
      </trkpt>
      <trkpt lat="46.72108" lon="4.95291">
        <ele>198</ele>
        <time>2024-09-18T10:46:08Z</time>
      </trkpt>
      <trkpt lat="46.72107" lon="4.95283">
        <ele>198</ele>
        <time>2024-09-18T10:46:09Z</time>
      </trkpt>
      <trkpt lat="46.72106" lon="4.95276">
        <ele>196.6</ele>
        <time>2024-09-18T10:46:10Z</time>
      </trkpt>
      <trkpt lat="46.72105" lon="4.95268">
        <ele>196.6</ele>
        <time>2024-09-18T10:46:11Z</time>
      </trkpt>
      <trkpt lat="46.72104" lon="4.95261">
        <ele>196.6</ele>
        <time>2024-09-18T10:46:12Z</time>
      </trkpt>
      <trkpt lat="46.72103" lon="4.95254">
        <ele>196.6</ele>
        <time>2024-09-18T10:46:13Z</time>
      </trkpt>
      <trkpt lat="46.72102" lon="4.95246">
        <ele>196.6</ele>
        <time>2024-09-18T10:46:14Z</time>
      </trkpt>
      <trkpt lat="46.72101" lon="4.9524">
        <ele>196.6</ele>
        <time>2024-09-18T10:46:15Z</time>
      </trkpt>
      <trkpt lat="46.72099" lon="4.95234">
        <ele>196.6</ele>
        <time>2024-09-18T10:46:16Z</time>
      </trkpt>
      <trkpt lat="46.72096" lon="4.9523">
        <ele>196.6</ele>
        <time>2024-09-18T10:46:17Z</time>
      </trkpt>
      <trkpt lat="46.72092" lon="4.95226">
        <ele>196.4</ele>
        <time>2024-09-18T10:46:18Z</time>
      </trkpt>
      <trkpt lat="46.72088" lon="4.95223">
        <ele>196.4</ele>
        <time>2024-09-18T10:46:19Z</time>
      </trkpt>
      <trkpt lat="46.72084" lon="4.95222">
        <ele>196.4</ele>
        <time>2024-09-18T10:46:20Z</time>
      </trkpt>
      <trkpt lat="46.72079" lon="4.95221">
        <ele>196.4</ele>
        <time>2024-09-18T10:46:21Z</time>
      </trkpt>
      <trkpt lat="46.72074" lon="4.95221">
        <ele>195.6</ele>
        <time>2024-09-18T10:46:22Z</time>
      </trkpt>
      <trkpt lat="46.72068" lon="4.95221">
        <ele>195.6</ele>
        <time>2024-09-18T10:46:23Z</time>
      </trkpt>
      <trkpt lat="46.72063" lon="4.9522">
        <ele>195.6</ele>
        <time>2024-09-18T10:46:24Z</time>
      </trkpt>
      <trkpt lat="46.72057" lon="4.95219">
        <ele>195.6</ele>
        <time>2024-09-18T10:46:25Z</time>
      </trkpt>
      <trkpt lat="46.72051" lon="4.95219">
        <ele>195.6</ele>
        <time>2024-09-18T10:46:26Z</time>
      </trkpt>
      <trkpt lat="46.72045" lon="4.95219">
        <ele>195</ele>
        <time>2024-09-18T10:46:27Z</time>
      </trkpt>
      <trkpt lat="46.72039" lon="4.95218">
        <ele>194.6</ele>
        <time>2024-09-18T10:46:28Z</time>
      </trkpt>
      <trkpt lat="46.72033" lon="4.95218">
        <ele>194.6</ele>
        <time>2024-09-18T10:46:29Z</time>
      </trkpt>
      <trkpt lat="46.72026" lon="4.95219">
        <ele>194.6</ele>
        <time>2024-09-18T10:46:30Z</time>
      </trkpt>
      <trkpt lat="46.7202" lon="4.9522">
        <ele>194.6</ele>
        <time>2024-09-18T10:46:31Z</time>
      </trkpt>
      <trkpt lat="46.72014" lon="4.9522">
        <ele>193.8</ele>
        <time>2024-09-18T10:46:32Z</time>
      </trkpt>
      <trkpt lat="46.72007" lon="4.95221">
        <ele>193.4</ele>
        <time>2024-09-18T10:46:33Z</time>
      </trkpt>
      <trkpt lat="46.72001" lon="4.95221">
        <ele>193.4</ele>
        <time>2024-09-18T10:46:34Z</time>
      </trkpt>
      <trkpt lat="46.71995" lon="4.95221">
        <ele>193.4</ele>
        <time>2024-09-18T10:46:35Z</time>
      </trkpt>
      <trkpt lat="46.71989" lon="4.95222">
        <ele>192.6</ele>
        <time>2024-09-18T10:46:36Z</time>
      </trkpt>
      <trkpt lat="46.71982" lon="4.95222">
        <ele>192.6</ele>
        <time>2024-09-18T10:46:37Z</time>
      </trkpt>
      <trkpt lat="46.71976" lon="4.95221">
        <ele>192.6</ele>
        <time>2024-09-18T10:46:38Z</time>
      </trkpt>
      <trkpt lat="46.7197" lon="4.9522">
        <ele>192.6</ele>
        <time>2024-09-18T10:46:39Z</time>
      </trkpt>
      <trkpt lat="46.71964" lon="4.95219">
        <ele>192.6</ele>
        <time>2024-09-18T10:46:40Z</time>
      </trkpt>
      <trkpt lat="46.71958" lon="4.95217">
        <ele>192.6</ele>
        <time>2024-09-18T10:46:41Z</time>
      </trkpt>
      <trkpt lat="46.71952" lon="4.95214">
        <ele>190.8</ele>
        <time>2024-09-18T10:46:42Z</time>
      </trkpt>
      <trkpt lat="46.71946" lon="4.95211">
        <ele>190.8</ele>
        <time>2024-09-18T10:46:43Z</time>
      </trkpt>
      <trkpt lat="46.71941" lon="4.95206">
        <ele>190.8</ele>
        <time>2024-09-18T10:46:44Z</time>
      </trkpt>
      <trkpt lat="46.71935" lon="4.952">
        <ele>190.8</ele>
        <time>2024-09-18T10:46:45Z</time>
      </trkpt>
      <trkpt lat="46.71929" lon="4.95194">
        <ele>190.2</ele>
        <time>2024-09-18T10:46:46Z</time>
      </trkpt>
      <trkpt lat="46.71925" lon="4.95186">
        <ele>190.2</ele>
        <time>2024-09-18T10:46:47Z</time>
      </trkpt>
      <trkpt lat="46.7192" lon="4.95178">
        <ele>190.2</ele>
        <time>2024-09-18T10:46:48Z</time>
      </trkpt>
      <trkpt lat="46.71916" lon="4.9517">
        <ele>190.2</ele>
        <time>2024-09-18T10:46:49Z</time>
      </trkpt>
      <trkpt lat="46.71913" lon="4.95161">
        <ele>189.2</ele>
        <time>2024-09-18T10:46:50Z</time>
      </trkpt>
      <trkpt lat="46.7191" lon="4.95153">
        <ele>188.4</ele>
        <time>2024-09-18T10:46:51Z</time>
      </trkpt>
      <trkpt lat="46.71907" lon="4.95144">
        <ele>188.4</ele>
        <time>2024-09-18T10:46:52Z</time>
      </trkpt>
      <trkpt lat="46.71905" lon="4.95135">
        <ele>188.4</ele>
        <time>2024-09-18T10:46:53Z</time>
      </trkpt>
      <trkpt lat="46.71903" lon="4.95126">
        <ele>187.4</ele>
        <time>2024-09-18T10:46:54Z</time>
      </trkpt>
      <trkpt lat="46.71901" lon="4.95117">
        <ele>187.8</ele>
        <time>2024-09-18T10:46:55Z</time>
      </trkpt>
      <trkpt lat="46.71899" lon="4.95109">
        <ele>187.8</ele>
        <time>2024-09-18T10:46:56Z</time>
      </trkpt>
      <trkpt lat="46.71897" lon="4.951">
        <ele>187.8</ele>
        <time>2024-09-18T10:46:57Z</time>
      </trkpt>
      <trkpt lat="46.71895" lon="4.95092">
        <ele>187.8</ele>
        <time>2024-09-18T10:46:58Z</time>
      </trkpt>
      <trkpt lat="46.71894" lon="4.95086">
        <ele>187.2</ele>
        <time>2024-09-18T10:46:59Z</time>
      </trkpt>
      <trkpt lat="46.71893" lon="4.95082">
        <ele>187</ele>
        <time>2024-09-18T10:47:00Z</time>
      </trkpt>
      <trkpt lat="46.71893" lon="4.95078">
        <ele>187</ele>
        <time>2024-09-18T10:47:01Z</time>
      </trkpt>
      <trkpt lat="46.71892" lon="4.95077">
        <ele>187</ele>
        <time>2024-09-18T10:47:02Z</time>
      </trkpt>
      <trkpt lat="46.71893" lon="4.95076">
        <ele>186.8</ele>
        <time>2024-09-18T10:47:03Z</time>
      </trkpt>
      <trkpt lat="46.71893" lon="4.95076">
        <ele>186.8</ele>
        <time>2024-09-18T10:47:04Z</time>
      </trkpt>
      <trkpt lat="46.71891" lon="4.95069">
        <ele>186.2</ele>
        <time>2024-09-18T10:48:21Z</time>
      </trkpt>
      <trkpt lat="46.7189" lon="4.95067">
        <ele>186.2</ele>
        <time>2024-09-18T10:48:22Z</time>
      </trkpt>
      <trkpt lat="46.7189" lon="4.95065">
        <ele>186.2</ele>
        <time>2024-09-18T10:48:23Z</time>
      </trkpt>
      <trkpt lat="46.71889" lon="4.95062">
        <ele>186.2</ele>
        <time>2024-09-18T10:48:24Z</time>
      </trkpt>
      <trkpt lat="46.71889" lon="4.9506">
        <ele>186.2</ele>
        <time>2024-09-18T10:48:25Z</time>
      </trkpt>
      <trkpt lat="46.71888" lon="4.95057">
        <ele>186.2</ele>
        <time>2024-09-18T10:48:26Z</time>
      </trkpt>
      <trkpt lat="46.71887" lon="4.95054">
        <ele>186.2</ele>
        <time>2024-09-18T10:48:27Z</time>
      </trkpt>
      <trkpt lat="46.71886" lon="4.95051">
        <ele>186.2</ele>
        <time>2024-09-18T10:48:28Z</time>
      </trkpt>
      <trkpt lat="46.71885" lon="4.95047">
        <ele>186</ele>
        <time>2024-09-18T10:48:29Z</time>
      </trkpt>
      <trkpt lat="46.71885" lon="4.95044">
        <ele>186</ele>
        <time>2024-09-18T10:48:30Z</time>
      </trkpt>
      <trkpt lat="46.71884" lon="4.95041">
        <ele>185.8</ele>
        <time>2024-09-18T10:48:31Z</time>
      </trkpt>
      <trkpt lat="46.71883" lon="4.95039">
        <ele>185.8</ele>
        <time>2024-09-18T10:48:32Z</time>
      </trkpt>
      <trkpt lat="46.71882" lon="4.95037">
        <ele>185.8</ele>
        <time>2024-09-18T10:48:33Z</time>
      </trkpt>
      <trkpt lat="46.71881" lon="4.95035">
        <ele>185.8</ele>
        <time>2024-09-18T10:48:34Z</time>
      </trkpt>
      <trkpt lat="46.71878" lon="4.95034">
        <ele>185.8</ele>
        <time>2024-09-18T10:48:35Z</time>
      </trkpt>
      <trkpt lat="46.71876" lon="4.95034">
        <ele>185.8</ele>
        <time>2024-09-18T10:48:36Z</time>
      </trkpt>
      <trkpt lat="46.71873" lon="4.95035">
        <ele>185.8</ele>
        <time>2024-09-18T10:48:37Z</time>
      </trkpt>
      <trkpt lat="46.71869" lon="4.95036">
        <ele>185.8</ele>
        <time>2024-09-18T10:48:38Z</time>
      </trkpt>
      <trkpt lat="46.71866" lon="4.95035">
        <ele>185.8</ele>
        <time>2024-09-18T10:48:39Z</time>
      </trkpt>
      <trkpt lat="46.71863" lon="4.95032">
        <ele>185.8</ele>
        <time>2024-09-18T10:48:40Z</time>
      </trkpt>
      <trkpt lat="46.71861" lon="4.95028">
        <ele>185.8</ele>
        <time>2024-09-18T10:48:41Z</time>
      </trkpt>
      <trkpt lat="46.71859" lon="4.95024">
        <ele>185.6</ele>
        <time>2024-09-18T10:48:42Z</time>
      </trkpt>
      <trkpt lat="46.71856" lon="4.9502">
        <ele>185.6</ele>
        <time>2024-09-18T10:48:43Z</time>
      </trkpt>
      <trkpt lat="46.71854" lon="4.95016">
        <ele>185.6</ele>
        <time>2024-09-18T10:48:44Z</time>
      </trkpt>
      <trkpt lat="46.71851" lon="4.95012">
        <ele>185.6</ele>
        <time>2024-09-18T10:48:45Z</time>
      </trkpt>
      <trkpt lat="46.71848" lon="4.95009">
        <ele>185.6</ele>
        <time>2024-09-18T10:48:46Z</time>
      </trkpt>
      <trkpt lat="46.71845" lon="4.95004">
        <ele>185.2</ele>
        <time>2024-09-18T10:48:47Z</time>
      </trkpt>
      <trkpt lat="46.71842" lon="4.95">
        <ele>185.2</ele>
        <time>2024-09-18T10:48:48Z</time>
      </trkpt>
      <trkpt lat="46.71839" lon="4.94996">
        <ele>185.2</ele>
        <time>2024-09-18T10:48:49Z</time>
      </trkpt>
      <trkpt lat="46.71836" lon="4.94991">
        <ele>185.2</ele>
        <time>2024-09-18T10:48:50Z</time>
      </trkpt>
      <trkpt lat="46.71833" lon="4.94986">
        <ele>185.2</ele>
        <time>2024-09-18T10:48:51Z</time>
      </trkpt>
      <trkpt lat="46.71829" lon="4.94981">
        <ele>185</ele>
        <time>2024-09-18T10:48:52Z</time>
      </trkpt>
      <trkpt lat="46.71826" lon="4.94976">
        <ele>185</ele>
        <time>2024-09-18T10:48:53Z</time>
      </trkpt>
      <trkpt lat="46.71823" lon="4.94971">
        <ele>185</ele>
        <time>2024-09-18T10:48:54Z</time>
      </trkpt>
      <trkpt lat="46.71819" lon="4.94965">
        <ele>184.6</ele>
        <time>2024-09-18T10:48:55Z</time>
      </trkpt>
      <trkpt lat="46.71815" lon="4.9496">
        <ele>184.6</ele>
        <time>2024-09-18T10:48:56Z</time>
      </trkpt>
      <trkpt lat="46.71812" lon="4.94955">
        <ele>184.6</ele>
        <time>2024-09-18T10:48:57Z</time>
      </trkpt>
      <trkpt lat="46.71808" lon="4.94949">
        <ele>184.6</ele>
        <time>2024-09-18T10:48:58Z</time>
      </trkpt>
      <trkpt lat="46.71805" lon="4.94944">
        <ele>184.6</ele>
        <time>2024-09-18T10:48:59Z</time>
      </trkpt>
      <trkpt lat="46.71801" lon="4.94938">
        <ele>184.6</ele>
        <time>2024-09-18T10:49:00Z</time>
      </trkpt>
      <trkpt lat="46.71798" lon="4.94932">
        <ele>184.4</ele>
        <time>2024-09-18T10:49:01Z</time>
      </trkpt>
      <trkpt lat="46.71794" lon="4.94926">
        <ele>184.4</ele>
        <time>2024-09-18T10:49:02Z</time>
      </trkpt>
      <trkpt lat="46.71791" lon="4.94921">
        <ele>184.4</ele>
        <time>2024-09-18T10:49:03Z</time>
      </trkpt>
      <trkpt lat="46.71787" lon="4.94915">
        <ele>184.4</ele>
        <time>2024-09-18T10:49:04Z</time>
      </trkpt>
      <trkpt lat="46.71784" lon="4.94909">
        <ele>184.2</ele>
        <time>2024-09-18T10:49:05Z</time>
      </trkpt>
      <trkpt lat="46.7178" lon="4.94903">
        <ele>184.2</ele>
        <time>2024-09-18T10:49:06Z</time>
      </trkpt>
      <trkpt lat="46.71777" lon="4.94897">
        <ele>184.2</ele>
        <time>2024-09-18T10:49:07Z</time>
      </trkpt>
      <trkpt lat="46.71773" lon="4.94892">
        <ele>184.2</ele>
        <time>2024-09-18T10:49:08Z</time>
      </trkpt>
      <trkpt lat="46.7177" lon="4.94886">
        <ele>184.2</ele>
        <time>2024-09-18T10:49:09Z</time>
      </trkpt>
      <trkpt lat="46.71766" lon="4.9488">
        <ele>184</ele>
        <time>2024-09-18T10:49:10Z</time>
      </trkpt>
      <trkpt lat="46.71763" lon="4.94875">
        <ele>184</ele>
        <time>2024-09-18T10:49:11Z</time>
      </trkpt>
      <trkpt lat="46.7176" lon="4.94869">
        <ele>184</ele>
        <time>2024-09-18T10:49:12Z</time>
      </trkpt>
      <trkpt lat="46.71756" lon="4.94863">
        <ele>184</ele>
        <time>2024-09-18T10:49:13Z</time>
      </trkpt>
      <trkpt lat="46.71753" lon="4.94857">
        <ele>184</ele>
        <time>2024-09-18T10:49:14Z</time>
      </trkpt>
      <trkpt lat="46.71749" lon="4.94851">
        <ele>184</ele>
        <time>2024-09-18T10:49:15Z</time>
      </trkpt>
      <trkpt lat="46.71746" lon="4.94846">
        <ele>184</ele>
        <time>2024-09-18T10:49:16Z</time>
      </trkpt>
      <trkpt lat="46.71742" lon="4.9484">
        <ele>184</ele>
        <time>2024-09-18T10:49:17Z</time>
      </trkpt>
      <trkpt lat="46.71739" lon="4.94834">
        <ele>184</ele>
        <time>2024-09-18T10:49:18Z</time>
      </trkpt>
      <trkpt lat="46.71735" lon="4.94828">
        <ele>184</ele>
        <time>2024-09-18T10:49:19Z</time>
      </trkpt>
      <trkpt lat="46.71732" lon="4.94822">
        <ele>184</ele>
        <time>2024-09-18T10:49:20Z</time>
      </trkpt>
      <trkpt lat="46.71728" lon="4.94816">
        <ele>184</ele>
        <time>2024-09-18T10:49:21Z</time>
      </trkpt>
      <trkpt lat="46.71725" lon="4.9481">
        <ele>183.8</ele>
        <time>2024-09-18T10:49:22Z</time>
      </trkpt>
      <trkpt lat="46.71721" lon="4.94804">
        <ele>183.8</ele>
        <time>2024-09-18T10:49:23Z</time>
      </trkpt>
      <trkpt lat="46.71717" lon="4.94798">
        <ele>183.4</ele>
        <time>2024-09-18T10:49:24Z</time>
      </trkpt>
      <trkpt lat="46.71713" lon="4.94792">
        <ele>183.4</ele>
        <time>2024-09-18T10:49:25Z</time>
      </trkpt>
      <trkpt lat="46.7171" lon="4.94785">
        <ele>183.4</ele>
        <time>2024-09-18T10:49:26Z</time>
      </trkpt>
      <trkpt lat="46.71707" lon="4.94779">
        <ele>183.8</ele>
        <time>2024-09-18T10:49:27Z</time>
      </trkpt>
      <trkpt lat="46.71703" lon="4.94773">
        <ele>184</ele>
        <time>2024-09-18T10:49:28Z</time>
      </trkpt>
      <trkpt lat="46.717" lon="4.94766">
        <ele>184</ele>
        <time>2024-09-18T10:49:29Z</time>
      </trkpt>
      <trkpt lat="46.71697" lon="4.9476">
        <ele>184</ele>
        <time>2024-09-18T10:49:30Z</time>
      </trkpt>
      <trkpt lat="46.71693" lon="4.94754">
        <ele>184</ele>
        <time>2024-09-18T10:49:31Z</time>
      </trkpt>
      <trkpt lat="46.7169" lon="4.94747">
        <ele>184</ele>
        <time>2024-09-18T10:49:32Z</time>
      </trkpt>
      <trkpt lat="46.71687" lon="4.9474">
        <ele>184.2</ele>
        <time>2024-09-18T10:49:33Z</time>
      </trkpt>
      <trkpt lat="46.71684" lon="4.94733">
        <ele>184.2</ele>
        <time>2024-09-18T10:49:34Z</time>
      </trkpt>
      <trkpt lat="46.71681" lon="4.94725">
        <ele>184.2</ele>
        <time>2024-09-18T10:49:35Z</time>
      </trkpt>
      <trkpt lat="46.71678" lon="4.94718">
        <ele>184</ele>
        <time>2024-09-18T10:49:36Z</time>
      </trkpt>
      <trkpt lat="46.71675" lon="4.9471">
        <ele>184</ele>
        <time>2024-09-18T10:49:37Z</time>
      </trkpt>
      <trkpt lat="46.71673" lon="4.94703">
        <ele>184</ele>
        <time>2024-09-18T10:49:38Z</time>
      </trkpt>
      <trkpt lat="46.71671" lon="4.94695">
        <ele>184</ele>
        <time>2024-09-18T10:49:39Z</time>
      </trkpt>
      <trkpt lat="46.71668" lon="4.94688">
        <ele>183.8</ele>
        <time>2024-09-18T10:49:40Z</time>
      </trkpt>
      <trkpt lat="46.71666" lon="4.9468">
        <ele>184</ele>
        <time>2024-09-18T10:49:41Z</time>
      </trkpt>
      <trkpt lat="46.71663" lon="4.94672">
        <ele>184</ele>
        <time>2024-09-18T10:49:42Z</time>
      </trkpt>
      <trkpt lat="46.71661" lon="4.94665">
        <ele>184</ele>
        <time>2024-09-18T10:49:43Z</time>
      </trkpt>
      <trkpt lat="46.71658" lon="4.94657">
        <ele>183.6</ele>
        <time>2024-09-18T10:49:44Z</time>
      </trkpt>
      <trkpt lat="46.71656" lon="4.94649">
        <ele>183.8</ele>
        <time>2024-09-18T10:49:45Z</time>
      </trkpt>
      <trkpt lat="46.71654" lon="4.94641">
        <ele>183.8</ele>
        <time>2024-09-18T10:49:46Z</time>
      </trkpt>
      <trkpt lat="46.71651" lon="4.94633">
        <ele>183.8</ele>
        <time>2024-09-18T10:49:47Z</time>
      </trkpt>
      <trkpt lat="46.71649" lon="4.94626">
        <ele>183.8</ele>
        <time>2024-09-18T10:49:48Z</time>
      </trkpt>
      <trkpt lat="46.71647" lon="4.94618">
        <ele>183.8</ele>
        <time>2024-09-18T10:49:49Z</time>
      </trkpt>
      <trkpt lat="46.71644" lon="4.9461">
        <ele>183.4</ele>
        <time>2024-09-18T10:49:50Z</time>
      </trkpt>
      <trkpt lat="46.71642" lon="4.94603">
        <ele>183.4</ele>
        <time>2024-09-18T10:49:51Z</time>
      </trkpt>
      <trkpt lat="46.71639" lon="4.94595">
        <ele>183.4</ele>
        <time>2024-09-18T10:49:52Z</time>
      </trkpt>
      <trkpt lat="46.71637" lon="4.94587">
        <ele>183.4</ele>
        <time>2024-09-18T10:49:53Z</time>
      </trkpt>
      <trkpt lat="46.71635" lon="4.94579">
        <ele>183.4</ele>
        <time>2024-09-18T10:49:54Z</time>
      </trkpt>
      <trkpt lat="46.71632" lon="4.94571">
        <ele>183.6</ele>
        <time>2024-09-18T10:49:55Z</time>
      </trkpt>
      <trkpt lat="46.7163" lon="4.94564">
        <ele>183.6</ele>
        <time>2024-09-18T10:49:56Z</time>
      </trkpt>
      <trkpt lat="46.71627" lon="4.94556">
        <ele>183.6</ele>
        <time>2024-09-18T10:49:57Z</time>
      </trkpt>
      <trkpt lat="46.71625" lon="4.94549">
        <ele>183.6</ele>
        <time>2024-09-18T10:49:58Z</time>
      </trkpt>
      <trkpt lat="46.71623" lon="4.94541">
        <ele>183.2</ele>
        <time>2024-09-18T10:49:59Z</time>
      </trkpt>
      <trkpt lat="46.7162" lon="4.94533">
        <ele>183.2</ele>
        <time>2024-09-18T10:50:00Z</time>
      </trkpt>
      <trkpt lat="46.71618" lon="4.94526">
        <ele>183.2</ele>
        <time>2024-09-18T10:50:01Z</time>
      </trkpt>
      <trkpt lat="46.71615" lon="4.94518">
        <ele>183.2</ele>
        <time>2024-09-18T10:50:02Z</time>
      </trkpt>
      <trkpt lat="46.71613" lon="4.9451">
        <ele>183.2</ele>
        <time>2024-09-18T10:50:03Z</time>
      </trkpt>
      <trkpt lat="46.7161" lon="4.94503">
        <ele>183</ele>
        <time>2024-09-18T10:50:04Z</time>
      </trkpt>
      <trkpt lat="46.71608" lon="4.94495">
        <ele>183</ele>
        <time>2024-09-18T10:50:05Z</time>
      </trkpt>
      <trkpt lat="46.71605" lon="4.94488">
        <ele>183</ele>
        <time>2024-09-18T10:50:06Z</time>
      </trkpt>
      <trkpt lat="46.71603" lon="4.9448">
        <ele>183.2</ele>
        <time>2024-09-18T10:50:07Z</time>
      </trkpt>
      <trkpt lat="46.716" lon="4.94472">
        <ele>183.2</ele>
        <time>2024-09-18T10:50:08Z</time>
      </trkpt>
      <trkpt lat="46.71598" lon="4.94465">
        <ele>183.4</ele>
        <time>2024-09-18T10:50:09Z</time>
      </trkpt>
      <trkpt lat="46.71595" lon="4.94457">
        <ele>183.4</ele>
        <time>2024-09-18T10:50:10Z</time>
      </trkpt>
      <trkpt lat="46.71593" lon="4.9445">
        <ele>183.4</ele>
        <time>2024-09-18T10:50:11Z</time>
      </trkpt>
      <trkpt lat="46.7159" lon="4.94442">
        <ele>183.4</ele>
        <time>2024-09-18T10:50:12Z</time>
      </trkpt>
      <trkpt lat="46.71588" lon="4.94434">
        <ele>183.2</ele>
        <time>2024-09-18T10:50:13Z</time>
      </trkpt>
      <trkpt lat="46.71586" lon="4.94426">
        <ele>183.2</ele>
        <time>2024-09-18T10:50:14Z</time>
      </trkpt>
      <trkpt lat="46.71583" lon="4.94419">
        <ele>183.2</ele>
        <time>2024-09-18T10:50:15Z</time>
      </trkpt>
      <trkpt lat="46.71581" lon="4.94411">
        <ele>183.2</ele>
        <time>2024-09-18T10:50:16Z</time>
      </trkpt>
      <trkpt lat="46.71578" lon="4.94403">
        <ele>183.2</ele>
        <time>2024-09-18T10:50:17Z</time>
      </trkpt>
      <trkpt lat="46.71576" lon="4.94395">
        <ele>183.2</ele>
        <time>2024-09-18T10:50:18Z</time>
      </trkpt>
      <trkpt lat="46.71573" lon="4.94388">
        <ele>183.2</ele>
        <time>2024-09-18T10:50:19Z</time>
      </trkpt>
      <trkpt lat="46.71571" lon="4.9438">
        <ele>183.2</ele>
        <time>2024-09-18T10:50:20Z</time>
      </trkpt>
      <trkpt lat="46.71568" lon="4.94372">
        <ele>183.4</ele>
        <time>2024-09-18T10:50:21Z</time>
      </trkpt>
      <trkpt lat="46.71566" lon="4.94364">
        <ele>183.4</ele>
        <time>2024-09-18T10:50:22Z</time>
      </trkpt>
      <trkpt lat="46.71563" lon="4.94357">
        <ele>183.4</ele>
        <time>2024-09-18T10:50:23Z</time>
      </trkpt>
      <trkpt lat="46.71561" lon="4.94349">
        <ele>183.4</ele>
        <time>2024-09-18T10:50:24Z</time>
      </trkpt>
      <trkpt lat="46.71558" lon="4.94342">
        <ele>183</ele>
        <time>2024-09-18T10:50:25Z</time>
      </trkpt>
      <trkpt lat="46.71556" lon="4.94334">
        <ele>183.2</ele>
        <time>2024-09-18T10:50:26Z</time>
      </trkpt>
      <trkpt lat="46.71553" lon="4.94326">
        <ele>183.2</ele>
        <time>2024-09-18T10:50:27Z</time>
      </trkpt>
      <trkpt lat="46.71551" lon="4.94319">
        <ele>183.2</ele>
        <time>2024-09-18T10:50:28Z</time>
      </trkpt>
      <trkpt lat="46.71548" lon="4.94311">
        <ele>183.2</ele>
        <time>2024-09-18T10:50:29Z</time>
      </trkpt>
      <trkpt lat="46.71546" lon="4.94304">
        <ele>183.2</ele>
        <time>2024-09-18T10:50:30Z</time>
      </trkpt>
      <trkpt lat="46.71544" lon="4.94296">
        <ele>183.2</ele>
        <time>2024-09-18T10:50:31Z</time>
      </trkpt>
      <trkpt lat="46.71541" lon="4.94289">
        <ele>183.2</ele>
        <time>2024-09-18T10:50:32Z</time>
      </trkpt>
      <trkpt lat="46.71539" lon="4.94281">
        <ele>183.2</ele>
        <time>2024-09-18T10:50:33Z</time>
      </trkpt>
      <trkpt lat="46.71536" lon="4.94274">
        <ele>183.2</ele>
        <time>2024-09-18T10:50:34Z</time>
      </trkpt>
      <trkpt lat="46.71534" lon="4.94267">
        <ele>183.2</ele>
        <time>2024-09-18T10:50:35Z</time>
      </trkpt>
      <trkpt lat="46.71531" lon="4.94259">
        <ele>183.2</ele>
        <time>2024-09-18T10:50:36Z</time>
      </trkpt>
      <trkpt lat="46.71529" lon="4.94252">
        <ele>183.2</ele>
        <time>2024-09-18T10:50:37Z</time>
      </trkpt>
      <trkpt lat="46.71527" lon="4.94245">
        <ele>183.2</ele>
        <time>2024-09-18T10:50:38Z</time>
      </trkpt>
      <trkpt lat="46.71524" lon="4.94238">
        <ele>183.2</ele>
        <time>2024-09-18T10:50:39Z</time>
      </trkpt>
      <trkpt lat="46.71522" lon="4.94231">
        <ele>183.2</ele>
        <time>2024-09-18T10:50:40Z</time>
      </trkpt>
      <trkpt lat="46.7152" lon="4.94223">
        <ele>183.2</ele>
        <time>2024-09-18T10:50:41Z</time>
      </trkpt>
      <trkpt lat="46.71517" lon="4.94216">
        <ele>183.2</ele>
        <time>2024-09-18T10:50:42Z</time>
      </trkpt>
      <trkpt lat="46.71515" lon="4.94209">
        <ele>183.2</ele>
        <time>2024-09-18T10:50:43Z</time>
      </trkpt>
      <trkpt lat="46.71513" lon="4.94202">
        <ele>183.4</ele>
        <time>2024-09-18T10:50:44Z</time>
      </trkpt>
      <trkpt lat="46.71511" lon="4.94195">
        <ele>183.4</ele>
        <time>2024-09-18T10:50:45Z</time>
      </trkpt>
      <trkpt lat="46.71508" lon="4.94188">
        <ele>183.4</ele>
        <time>2024-09-18T10:50:46Z</time>
      </trkpt>
      <trkpt lat="46.71506" lon="4.94181">
        <ele>183.4</ele>
        <time>2024-09-18T10:50:47Z</time>
      </trkpt>
      <trkpt lat="46.71504" lon="4.94174">
        <ele>183.2</ele>
        <time>2024-09-18T10:50:48Z</time>
      </trkpt>
      <trkpt lat="46.71502" lon="4.94166">
        <ele>183.2</ele>
        <time>2024-09-18T10:50:49Z</time>
      </trkpt>
      <trkpt lat="46.71499" lon="4.94159">
        <ele>183.2</ele>
        <time>2024-09-18T10:50:50Z</time>
      </trkpt>
      <trkpt lat="46.71497" lon="4.94152">
        <ele>183.2</ele>
        <time>2024-09-18T10:50:51Z</time>
      </trkpt>
      <trkpt lat="46.71495" lon="4.94145">
        <ele>183.4</ele>
        <time>2024-09-18T10:50:52Z</time>
      </trkpt>
      <trkpt lat="46.71492" lon="4.94138">
        <ele>183</ele>
        <time>2024-09-18T10:50:53Z</time>
      </trkpt>
      <trkpt lat="46.7149" lon="4.94131">
        <ele>183</ele>
        <time>2024-09-18T10:50:54Z</time>
      </trkpt>
      <trkpt lat="46.71487" lon="4.94124">
        <ele>183</ele>
        <time>2024-09-18T10:50:55Z</time>
      </trkpt>
      <trkpt lat="46.71485" lon="4.94117">
        <ele>183</ele>
        <time>2024-09-18T10:50:56Z</time>
      </trkpt>
      <trkpt lat="46.71483" lon="4.94109">
        <ele>183.4</ele>
        <time>2024-09-18T10:50:57Z</time>
      </trkpt>
      <trkpt lat="46.7148" lon="4.94102">
        <ele>183.4</ele>
        <time>2024-09-18T10:50:58Z</time>
      </trkpt>
      <trkpt lat="46.71478" lon="4.94095">
        <ele>183.4</ele>
        <time>2024-09-18T10:50:59Z</time>
      </trkpt>
      <trkpt lat="46.71476" lon="4.94088">
        <ele>183.4</ele>
        <time>2024-09-18T10:51:00Z</time>
      </trkpt>
      <trkpt lat="46.71473" lon="4.94081">
        <ele>183.4</ele>
        <time>2024-09-18T10:51:01Z</time>
      </trkpt>
      <trkpt lat="46.71471" lon="4.94074">
        <ele>183.4</ele>
        <time>2024-09-18T10:51:02Z</time>
      </trkpt>
      <trkpt lat="46.71469" lon="4.94067">
        <ele>183.4</ele>
        <time>2024-09-18T10:51:03Z</time>
      </trkpt>
      <trkpt lat="46.71467" lon="4.9406">
        <ele>183.4</ele>
        <time>2024-09-18T10:51:04Z</time>
      </trkpt>
      <trkpt lat="46.71465" lon="4.94053">
        <ele>183.6</ele>
        <time>2024-09-18T10:51:05Z</time>
      </trkpt>
      <trkpt lat="46.71462" lon="4.94046">
        <ele>183.6</ele>
        <time>2024-09-18T10:51:06Z</time>
      </trkpt>
      <trkpt lat="46.7146" lon="4.94039">
        <ele>183.6</ele>
        <time>2024-09-18T10:51:07Z</time>
      </trkpt>
      <trkpt lat="46.71458" lon="4.94033">
        <ele>183.6</ele>
        <time>2024-09-18T10:51:08Z</time>
      </trkpt>
      <trkpt lat="46.71456" lon="4.94026">
        <ele>183.4</ele>
        <time>2024-09-18T10:51:09Z</time>
      </trkpt>
      <trkpt lat="46.71453" lon="4.94019">
        <ele>183.4</ele>
        <time>2024-09-18T10:51:10Z</time>
      </trkpt>
      <trkpt lat="46.71451" lon="4.94013">
        <ele>183.4</ele>
        <time>2024-09-18T10:51:11Z</time>
      </trkpt>
      <trkpt lat="46.71448" lon="4.94003">
        <ele>183.4</ele>
        <time>2024-09-18T10:51:12Z</time>
      </trkpt>
      <trkpt lat="46.71447" lon="4.93999">
        <ele>183.4</ele>
        <time>2024-09-18T10:51:13Z</time>
      </trkpt>
      <trkpt lat="46.71445" lon="4.93992">
        <ele>183.4</ele>
        <time>2024-09-18T10:51:14Z</time>
      </trkpt>
      <trkpt lat="46.71443" lon="4.93986">
        <ele>183.4</ele>
        <time>2024-09-18T10:51:15Z</time>
      </trkpt>
      <trkpt lat="46.7144" lon="4.93979">
        <ele>183.6</ele>
        <time>2024-09-18T10:51:16Z</time>
      </trkpt>
      <trkpt lat="46.71438" lon="4.93972">
        <ele>183.6</ele>
        <time>2024-09-18T10:51:17Z</time>
      </trkpt>
      <trkpt lat="46.71436" lon="4.93965">
        <ele>183.6</ele>
        <time>2024-09-18T10:51:18Z</time>
      </trkpt>
      <trkpt lat="46.71434" lon="4.93958">
        <ele>183.6</ele>
        <time>2024-09-18T10:51:19Z</time>
      </trkpt>
      <trkpt lat="46.71432" lon="4.93952">
        <ele>183.6</ele>
        <time>2024-09-18T10:51:20Z</time>
      </trkpt>
      <trkpt lat="46.7143" lon="4.93945">
        <ele>183.6</ele>
        <time>2024-09-18T10:51:21Z</time>
      </trkpt>
      <trkpt lat="46.71427" lon="4.93938">
        <ele>183.6</ele>
        <time>2024-09-18T10:51:22Z</time>
      </trkpt>
      <trkpt lat="46.71425" lon="4.93931">
        <ele>183.6</ele>
        <time>2024-09-18T10:51:23Z</time>
      </trkpt>
      <trkpt lat="46.71423" lon="4.93925">
        <ele>183.6</ele>
        <time>2024-09-18T10:51:24Z</time>
      </trkpt>
      <trkpt lat="46.71421" lon="4.93918">
        <ele>183.6</ele>
        <time>2024-09-18T10:51:25Z</time>
      </trkpt>
      <trkpt lat="46.71419" lon="4.93911">
        <ele>183.6</ele>
        <time>2024-09-18T10:51:26Z</time>
      </trkpt>
      <trkpt lat="46.71416" lon="4.93904">
        <ele>183.6</ele>
        <time>2024-09-18T10:51:27Z</time>
      </trkpt>
      <trkpt lat="46.71414" lon="4.93897">
        <ele>183.6</ele>
        <time>2024-09-18T10:51:28Z</time>
      </trkpt>
      <trkpt lat="46.71412" lon="4.93891">
        <ele>183.4</ele>
        <time>2024-09-18T10:51:29Z</time>
      </trkpt>
      <trkpt lat="46.71409" lon="4.93884">
        <ele>183.4</ele>
        <time>2024-09-18T10:51:30Z</time>
      </trkpt>
      <trkpt lat="46.71407" lon="4.93877">
        <ele>183.4</ele>
        <time>2024-09-18T10:51:31Z</time>
      </trkpt>
      <trkpt lat="46.71405" lon="4.9387">
        <ele>183.4</ele>
        <time>2024-09-18T10:51:32Z</time>
      </trkpt>
      <trkpt lat="46.71403" lon="4.93863">
        <ele>183.4</ele>
        <time>2024-09-18T10:51:33Z</time>
      </trkpt>
      <trkpt lat="46.71401" lon="4.93856">
        <ele>183.4</ele>
        <time>2024-09-18T10:51:34Z</time>
      </trkpt>
      <trkpt lat="46.71399" lon="4.93849">
        <ele>183.4</ele>
        <time>2024-09-18T10:51:35Z</time>
      </trkpt>
      <trkpt lat="46.71397" lon="4.93842">
        <ele>183.4</ele>
        <time>2024-09-18T10:51:36Z</time>
      </trkpt>
      <trkpt lat="46.71395" lon="4.93836">
        <ele>183.8</ele>
        <time>2024-09-18T10:51:37Z</time>
      </trkpt>
      <trkpt lat="46.71392" lon="4.93829">
        <ele>183.8</ele>
        <time>2024-09-18T10:51:38Z</time>
      </trkpt>
      <trkpt lat="46.7139" lon="4.93822">
        <ele>183.8</ele>
        <time>2024-09-18T10:51:39Z</time>
      </trkpt>
      <trkpt lat="46.71387" lon="4.93816">
        <ele>183.8</ele>
        <time>2024-09-18T10:51:40Z</time>
      </trkpt>
      <trkpt lat="46.71385" lon="4.93809">
        <ele>183.6</ele>
        <time>2024-09-18T10:51:41Z</time>
      </trkpt>
      <trkpt lat="46.71383" lon="4.93803">
        <ele>183.6</ele>
        <time>2024-09-18T10:51:42Z</time>
      </trkpt>
      <trkpt lat="46.71381" lon="4.93796">
        <ele>183.6</ele>
        <time>2024-09-18T10:51:43Z</time>
      </trkpt>
      <trkpt lat="46.71379" lon="4.9379">
        <ele>183.6</ele>
        <time>2024-09-18T10:51:44Z</time>
      </trkpt>
      <trkpt lat="46.71377" lon="4.93783">
        <ele>183.6</ele>
        <time>2024-09-18T10:51:45Z</time>
      </trkpt>
      <trkpt lat="46.71375" lon="4.93776">
        <ele>183.4</ele>
        <time>2024-09-18T10:51:46Z</time>
      </trkpt>
      <trkpt lat="46.71373" lon="4.93769">
        <ele>183.4</ele>
        <time>2024-09-18T10:51:47Z</time>
      </trkpt>
      <trkpt lat="46.71371" lon="4.93762">
        <ele>183.4</ele>
        <time>2024-09-18T10:51:48Z</time>
      </trkpt>
      <trkpt lat="46.71368" lon="4.93755">
        <ele>183.4</ele>
        <time>2024-09-18T10:51:49Z</time>
      </trkpt>
      <trkpt lat="46.71366" lon="4.93748">
        <ele>183.6</ele>
        <time>2024-09-18T10:51:50Z</time>
      </trkpt>
      <trkpt lat="46.71364" lon="4.93741">
        <ele>183.6</ele>
        <time>2024-09-18T10:51:51Z</time>
      </trkpt>
      <trkpt lat="46.71362" lon="4.93734">
        <ele>183.6</ele>
        <time>2024-09-18T10:51:52Z</time>
      </trkpt>
      <trkpt lat="46.7136" lon="4.93727">
        <ele>183.6</ele>
        <time>2024-09-18T10:51:53Z</time>
      </trkpt>
      <trkpt lat="46.71358" lon="4.9372">
        <ele>183.6</ele>
        <time>2024-09-18T10:51:54Z</time>
      </trkpt>
      <trkpt lat="46.71355" lon="4.93713">
        <ele>183.6</ele>
        <time>2024-09-18T10:51:55Z</time>
      </trkpt>
      <trkpt lat="46.71353" lon="4.93706">
        <ele>183.4</ele>
        <time>2024-09-18T10:51:56Z</time>
      </trkpt>
      <trkpt lat="46.71351" lon="4.93699">
        <ele>183.4</ele>
        <time>2024-09-18T10:51:57Z</time>
      </trkpt>
      <trkpt lat="46.71349" lon="4.93692">
        <ele>183.4</ele>
        <time>2024-09-18T10:51:58Z</time>
      </trkpt>
      <trkpt lat="46.71347" lon="4.93685">
        <ele>183.4</ele>
        <time>2024-09-18T10:51:59Z</time>
      </trkpt>
      <trkpt lat="46.71344" lon="4.93678">
        <ele>183.4</ele>
        <time>2024-09-18T10:52:00Z</time>
      </trkpt>
      <trkpt lat="46.71342" lon="4.9367">
        <ele>183.4</ele>
        <time>2024-09-18T10:52:01Z</time>
      </trkpt>
      <trkpt lat="46.7134" lon="4.93663">
        <ele>183.4</ele>
        <time>2024-09-18T10:52:02Z</time>
      </trkpt>
      <trkpt lat="46.71338" lon="4.93656">
        <ele>183.4</ele>
        <time>2024-09-18T10:52:03Z</time>
      </trkpt>
      <trkpt lat="46.71335" lon="4.93649">
        <ele>183.4</ele>
        <time>2024-09-18T10:52:04Z</time>
      </trkpt>
      <trkpt lat="46.71333" lon="4.93642">
        <ele>183.4</ele>
        <time>2024-09-18T10:52:05Z</time>
      </trkpt>
      <trkpt lat="46.71331" lon="4.93635">
        <ele>183.4</ele>
        <time>2024-09-18T10:52:06Z</time>
      </trkpt>
      <trkpt lat="46.71328" lon="4.93628">
        <ele>183.4</ele>
        <time>2024-09-18T10:52:07Z</time>
      </trkpt>
      <trkpt lat="46.71325" lon="4.93617">
        <ele>183.6</ele>
        <time>2024-09-18T10:52:08Z</time>
      </trkpt>
      <trkpt lat="46.71324" lon="4.93614">
        <ele>183.6</ele>
        <time>2024-09-18T10:52:09Z</time>
      </trkpt>
      <trkpt lat="46.71322" lon="4.93607">
        <ele>183.6</ele>
        <time>2024-09-18T10:52:10Z</time>
      </trkpt>
      <trkpt lat="46.71319" lon="4.936">
        <ele>183.6</ele>
        <time>2024-09-18T10:52:11Z</time>
      </trkpt>
      <trkpt lat="46.71317" lon="4.93593">
        <ele>183.6</ele>
        <time>2024-09-18T10:52:12Z</time>
      </trkpt>
      <trkpt lat="46.71315" lon="4.93586">
        <ele>183.4</ele>
        <time>2024-09-18T10:52:13Z</time>
      </trkpt>
      <trkpt lat="46.71312" lon="4.93579">
        <ele>183.4</ele>
        <time>2024-09-18T10:52:14Z</time>
      </trkpt>
      <trkpt lat="46.7131" lon="4.93572">
        <ele>183.4</ele>
        <time>2024-09-18T10:52:15Z</time>
      </trkpt>
      <trkpt lat="46.71308" lon="4.93565">
        <ele>183.4</ele>
        <time>2024-09-18T10:52:16Z</time>
      </trkpt>
      <trkpt lat="46.71306" lon="4.93558">
        <ele>183.4</ele>
        <time>2024-09-18T10:52:17Z</time>
      </trkpt>
      <trkpt lat="46.71303" lon="4.93551">
        <ele>183.4</ele>
        <time>2024-09-18T10:52:18Z</time>
      </trkpt>
      <trkpt lat="46.71301" lon="4.93544">
        <ele>183.4</ele>
        <time>2024-09-18T10:52:19Z</time>
      </trkpt>
      <trkpt lat="46.71299" lon="4.93537">
        <ele>183.4</ele>
        <time>2024-09-18T10:52:20Z</time>
      </trkpt>
      <trkpt lat="46.71296" lon="4.9353">
        <ele>183.4</ele>
        <time>2024-09-18T10:52:21Z</time>
      </trkpt>
      <trkpt lat="46.71294" lon="4.93523">
        <ele>183.4</ele>
        <time>2024-09-18T10:52:22Z</time>
      </trkpt>
      <trkpt lat="46.71292" lon="4.93516">
        <ele>183.4</ele>
        <time>2024-09-18T10:52:23Z</time>
      </trkpt>
      <trkpt lat="46.7129" lon="4.93509">
        <ele>183.4</ele>
        <time>2024-09-18T10:52:24Z</time>
      </trkpt>
      <trkpt lat="46.71287" lon="4.93502">
        <ele>183.4</ele>
        <time>2024-09-18T10:52:25Z</time>
      </trkpt>
      <trkpt lat="46.71285" lon="4.93495">
        <ele>183.4</ele>
        <time>2024-09-18T10:52:26Z</time>
      </trkpt>
      <trkpt lat="46.71283" lon="4.93488">
        <ele>183.4</ele>
        <time>2024-09-18T10:52:27Z</time>
      </trkpt>
      <trkpt lat="46.71281" lon="4.93481">
        <ele>183.4</ele>
        <time>2024-09-18T10:52:28Z</time>
      </trkpt>
      <trkpt lat="46.71278" lon="4.93474">
        <ele>183.4</ele>
        <time>2024-09-18T10:52:29Z</time>
      </trkpt>
      <trkpt lat="46.71276" lon="4.93466">
        <ele>183.6</ele>
        <time>2024-09-18T10:52:30Z</time>
      </trkpt>
      <trkpt lat="46.71274" lon="4.93459">
        <ele>183.6</ele>
        <time>2024-09-18T10:52:31Z</time>
      </trkpt>
      <trkpt lat="46.71272" lon="4.93452">
        <ele>183.6</ele>
        <time>2024-09-18T10:52:32Z</time>
      </trkpt>
      <trkpt lat="46.7127" lon="4.93445">
        <ele>183.6</ele>
        <time>2024-09-18T10:52:33Z</time>
      </trkpt>
      <trkpt lat="46.71267" lon="4.93438">
        <ele>183.6</ele>
        <time>2024-09-18T10:52:34Z</time>
      </trkpt>
      <trkpt lat="46.71265" lon="4.93431">
        <ele>183.6</ele>
        <time>2024-09-18T10:52:35Z</time>
      </trkpt>
      <trkpt lat="46.71262" lon="4.93424">
        <ele>183.6</ele>
        <time>2024-09-18T10:52:36Z</time>
      </trkpt>
      <trkpt lat="46.7126" lon="4.93417">
        <ele>183.6</ele>
        <time>2024-09-18T10:52:37Z</time>
      </trkpt>
      <trkpt lat="46.71258" lon="4.9341">
        <ele>183.6</ele>
        <time>2024-09-18T10:52:38Z</time>
      </trkpt>
      <trkpt lat="46.71256" lon="4.93403">
        <ele>183.6</ele>
        <time>2024-09-18T10:52:39Z</time>
      </trkpt>
      <trkpt lat="46.71253" lon="4.93396">
        <ele>184</ele>
        <time>2024-09-18T10:52:40Z</time>
      </trkpt>
      <trkpt lat="46.71251" lon="4.9339">
        <ele>184</ele>
        <time>2024-09-18T10:52:41Z</time>
      </trkpt>
      <trkpt lat="46.71249" lon="4.93383">
        <ele>184</ele>
        <time>2024-09-18T10:52:42Z</time>
      </trkpt>
      <trkpt lat="46.71247" lon="4.93377">
        <ele>184</ele>
        <time>2024-09-18T10:52:43Z</time>
      </trkpt>
      <trkpt lat="46.71245" lon="4.93371">
        <ele>184.4</ele>
        <time>2024-09-18T10:52:44Z</time>
      </trkpt>
      <trkpt lat="46.71242" lon="4.93365">
        <ele>184.6</ele>
        <time>2024-09-18T10:52:45Z</time>
      </trkpt>
      <trkpt lat="46.7124" lon="4.9336">
        <ele>184.6</ele>
        <time>2024-09-18T10:52:46Z</time>
      </trkpt>
      <trkpt lat="46.71237" lon="4.93355">
        <ele>184.6</ele>
        <time>2024-09-18T10:52:47Z</time>
      </trkpt>
      <trkpt lat="46.71235" lon="4.9335">
        <ele>184.6</ele>
        <time>2024-09-18T10:52:48Z</time>
      </trkpt>
      <trkpt lat="46.71232" lon="4.93345">
        <ele>185.6</ele>
        <time>2024-09-18T10:52:49Z</time>
      </trkpt>
      <trkpt lat="46.7123" lon="4.93341">
        <ele>185.6</ele>
        <time>2024-09-18T10:52:50Z</time>
      </trkpt>
      <trkpt lat="46.71227" lon="4.93336">
        <ele>185.6</ele>
        <time>2024-09-18T10:52:51Z</time>
      </trkpt>
      <trkpt lat="46.71224" lon="4.93332">
        <ele>185.6</ele>
        <time>2024-09-18T10:52:52Z</time>
      </trkpt>
      <trkpt lat="46.7122" lon="4.93327">
        <ele>186</ele>
        <time>2024-09-18T10:52:53Z</time>
      </trkpt>
      <trkpt lat="46.71217" lon="4.93323">
        <ele>186</ele>
        <time>2024-09-18T10:52:54Z</time>
      </trkpt>
      <trkpt lat="46.71214" lon="4.93318">
        <ele>186</ele>
        <time>2024-09-18T10:52:55Z</time>
      </trkpt>
      <trkpt lat="46.71211" lon="4.93314">
        <ele>186</ele>
        <time>2024-09-18T10:52:56Z</time>
      </trkpt>
      <trkpt lat="46.71208" lon="4.9331">
        <ele>186.4</ele>
        <time>2024-09-18T10:52:57Z</time>
      </trkpt>
      <trkpt lat="46.71204" lon="4.93306">
        <ele>186.8</ele>
        <time>2024-09-18T10:52:58Z</time>
      </trkpt>
      <trkpt lat="46.71201" lon="4.93302">
        <ele>186.8</ele>
        <time>2024-09-18T10:52:59Z</time>
      </trkpt>
      <trkpt lat="46.71198" lon="4.93298">
        <ele>186.8</ele>
        <time>2024-09-18T10:53:00Z</time>
      </trkpt>
      <trkpt lat="46.71195" lon="4.93294">
        <ele>187.4</ele>
        <time>2024-09-18T10:53:01Z</time>
      </trkpt>
      <trkpt lat="46.71192" lon="4.9329">
        <ele>187.4</ele>
        <time>2024-09-18T10:53:02Z</time>
      </trkpt>
      <trkpt lat="46.7119" lon="4.93286">
        <ele>187.4</ele>
        <time>2024-09-18T10:53:03Z</time>
      </trkpt>
      <trkpt lat="46.71187" lon="4.93282">
        <ele>187.4</ele>
        <time>2024-09-18T10:53:04Z</time>
      </trkpt>
      <trkpt lat="46.71184" lon="4.93279">
        <ele>187.4</ele>
        <time>2024-09-18T10:53:05Z</time>
      </trkpt>
      <trkpt lat="46.71181" lon="4.93275">
        <ele>188</ele>
        <time>2024-09-18T10:53:06Z</time>
      </trkpt>
      <trkpt lat="46.71178" lon="4.93272">
        <ele>188</ele>
        <time>2024-09-18T10:53:07Z</time>
      </trkpt>
      <trkpt lat="46.71176" lon="4.93268">
        <ele>188</ele>
        <time>2024-09-18T10:53:08Z</time>
      </trkpt>
      <trkpt lat="46.71173" lon="4.93264">
        <ele>188</ele>
        <time>2024-09-18T10:53:09Z</time>
      </trkpt>
      <trkpt lat="46.7117" lon="4.93261">
        <ele>188.4</ele>
        <time>2024-09-18T10:53:10Z</time>
      </trkpt>
      <trkpt lat="46.71168" lon="4.93258">
        <ele>188.6</ele>
        <time>2024-09-18T10:53:11Z</time>
      </trkpt>
      <trkpt lat="46.71165" lon="4.93255">
        <ele>188.6</ele>
        <time>2024-09-18T10:53:12Z</time>
      </trkpt>
      <trkpt lat="46.71163" lon="4.93251">
        <ele>188.6</ele>
        <time>2024-09-18T10:53:13Z</time>
      </trkpt>
      <trkpt lat="46.7116" lon="4.93248">
        <ele>189</ele>
        <time>2024-09-18T10:53:14Z</time>
      </trkpt>
      <trkpt lat="46.71158" lon="4.93245">
        <ele>189</ele>
        <time>2024-09-18T10:53:15Z</time>
      </trkpt>
      <trkpt lat="46.71156" lon="4.93242">
        <ele>189</ele>
        <time>2024-09-18T10:53:16Z</time>
      </trkpt>
      <trkpt lat="46.71154" lon="4.93239">
        <ele>189</ele>
        <time>2024-09-18T10:53:17Z</time>
      </trkpt>
      <trkpt lat="46.71152" lon="4.93237">
        <ele>189.6</ele>
        <time>2024-09-18T10:53:18Z</time>
      </trkpt>
      <trkpt lat="46.7115" lon="4.93234">
        <ele>189.6</ele>
        <time>2024-09-18T10:53:19Z</time>
      </trkpt>
      <trkpt lat="46.71149" lon="4.93232">
        <ele>189.6</ele>
        <time>2024-09-18T10:53:20Z</time>
      </trkpt>
      <trkpt lat="46.71148" lon="4.93231">
        <ele>189.6</ele>
        <time>2024-09-18T10:53:21Z</time>
      </trkpt>
      <trkpt lat="46.71147" lon="4.9323">
        <ele>189.6</ele>
        <time>2024-09-18T10:53:22Z</time>
      </trkpt>
      <trkpt lat="46.71146" lon="4.93229">
        <ele>189.6</ele>
        <time>2024-09-18T10:53:23Z</time>
      </trkpt>
      <trkpt lat="46.71146" lon="4.93229">
        <ele>189.6</ele>
        <time>2024-09-18T10:53:24Z</time>
      </trkpt>
      <trkpt lat="46.71146" lon="4.93229">
        <ele>199.2</ele>
        <time>2024-09-18T10:53:25Z</time>
      </trkpt>
      <trkpt lat="46.71145" lon="4.93228">
        <ele>199.2</ele>
        <time>2024-09-18T10:53:26Z</time>
      </trkpt>
      <trkpt lat="46.71145" lon="4.93228">
        <ele>199.2</ele>
        <time>2024-09-18T10:53:27Z</time>
      </trkpt>
      <trkpt lat="46.71144" lon="4.93228">
        <ele>198.2</ele>
        <time>2024-09-18T10:53:28Z</time>
      </trkpt>
      <trkpt lat="46.71144" lon="4.93228">
        <ele>191.8</ele>
        <time>2024-09-18T10:53:29Z</time>
      </trkpt>
      <trkpt lat="46.71144" lon="4.93228">
        <ele>191.8</ele>
        <time>2024-09-18T10:53:30Z</time>
      </trkpt>
      <trkpt lat="46.7114" lon="4.93227">
        <ele>190.2</ele>
        <time>2024-09-18T10:54:25Z</time>
      </trkpt>
      <trkpt lat="46.71139" lon="4.93225">
        <ele>190.2</ele>
        <time>2024-09-18T10:54:26Z</time>
      </trkpt>
      <trkpt lat="46.71138" lon="4.93224">
        <ele>190.2</ele>
        <time>2024-09-18T10:54:27Z</time>
      </trkpt>
      <trkpt lat="46.71137" lon="4.93223">
        <ele>190.2</ele>
        <time>2024-09-18T10:54:28Z</time>
      </trkpt>
      <trkpt lat="46.71136" lon="4.93221">
        <ele>190.2</ele>
        <time>2024-09-18T10:54:29Z</time>
      </trkpt>
      <trkpt lat="46.71134" lon="4.93219">
        <ele>190.2</ele>
        <time>2024-09-18T10:54:30Z</time>
      </trkpt>
      <trkpt lat="46.71133" lon="4.93217">
        <ele>190.2</ele>
        <time>2024-09-18T10:54:31Z</time>
      </trkpt>
      <trkpt lat="46.71131" lon="4.93215">
        <ele>190.4</ele>
        <time>2024-09-18T10:54:32Z</time>
      </trkpt>
      <trkpt lat="46.7113" lon="4.93212">
        <ele>190.4</ele>
        <time>2024-09-18T10:54:33Z</time>
      </trkpt>
      <trkpt lat="46.71128" lon="4.9321">
        <ele>190.4</ele>
        <time>2024-09-18T10:54:34Z</time>
      </trkpt>
      <trkpt lat="46.71126" lon="4.93207">
        <ele>190.4</ele>
        <time>2024-09-18T10:54:35Z</time>
      </trkpt>
      <trkpt lat="46.71124" lon="4.93204">
        <ele>190.4</ele>
        <time>2024-09-18T10:54:36Z</time>
      </trkpt>
      <trkpt lat="46.71122" lon="4.93202">
        <ele>190.6</ele>
        <time>2024-09-18T10:54:37Z</time>
      </trkpt>
      <trkpt lat="46.7112" lon="4.93199">
        <ele>190.6</ele>
        <time>2024-09-18T10:54:38Z</time>
      </trkpt>
      <trkpt lat="46.71118" lon="4.93196">
        <ele>190.6</ele>
        <time>2024-09-18T10:54:39Z</time>
      </trkpt>
      <trkpt lat="46.71116" lon="4.93193">
        <ele>190.6</ele>
        <time>2024-09-18T10:54:40Z</time>
      </trkpt>
      <trkpt lat="46.71113" lon="4.9319">
        <ele>190.6</ele>
        <time>2024-09-18T10:54:41Z</time>
      </trkpt>
      <trkpt lat="46.71111" lon="4.93187">
        <ele>190.8</ele>
        <time>2024-09-18T10:54:42Z</time>
      </trkpt>
      <trkpt lat="46.71109" lon="4.93183">
        <ele>190.8</ele>
        <time>2024-09-18T10:54:43Z</time>
      </trkpt>
      <trkpt lat="46.71106" lon="4.9318">
        <ele>190.8</ele>
        <time>2024-09-18T10:54:44Z</time>
      </trkpt>
      <trkpt lat="46.71103" lon="4.93176">
        <ele>191</ele>
        <time>2024-09-18T10:54:45Z</time>
      </trkpt>
      <trkpt lat="46.71101" lon="4.93173">
        <ele>191</ele>
        <time>2024-09-18T10:54:46Z</time>
      </trkpt>
      <trkpt lat="46.71098" lon="4.93169">
        <ele>191</ele>
        <time>2024-09-18T10:54:47Z</time>
      </trkpt>
      <trkpt lat="46.71095" lon="4.93165">
        <ele>190.8</ele>
        <time>2024-09-18T10:54:48Z</time>
      </trkpt>
      <trkpt lat="46.71092" lon="4.93161">
        <ele>190.6</ele>
        <time>2024-09-18T10:54:49Z</time>
      </trkpt>
      <trkpt lat="46.71089" lon="4.93157">
        <ele>190.6</ele>
        <time>2024-09-18T10:54:50Z</time>
      </trkpt>
      <trkpt lat="46.71086" lon="4.93153">
        <ele>190.6</ele>
        <time>2024-09-18T10:54:51Z</time>
      </trkpt>
      <trkpt lat="46.71083" lon="4.93149">
        <ele>190.6</ele>
        <time>2024-09-18T10:54:52Z</time>
      </trkpt>
      <trkpt lat="46.71079" lon="4.93144">
        <ele>190.6</ele>
        <time>2024-09-18T10:54:53Z</time>
      </trkpt>
      <trkpt lat="46.71076" lon="4.93139">
        <ele>190.4</ele>
        <time>2024-09-18T10:54:54Z</time>
      </trkpt>
      <trkpt lat="46.71072" lon="4.93135">
        <ele>190.4</ele>
        <time>2024-09-18T10:54:55Z</time>
      </trkpt>
      <trkpt lat="46.71069" lon="4.9313">
        <ele>190.4</ele>
        <time>2024-09-18T10:54:56Z</time>
      </trkpt>
      <trkpt lat="46.71065" lon="4.93125">
        <ele>190.4</ele>
        <time>2024-09-18T10:54:57Z</time>
      </trkpt>
      <trkpt lat="46.71061" lon="4.93119">
        <ele>189.8</ele>
        <time>2024-09-18T10:54:58Z</time>
      </trkpt>
      <trkpt lat="46.71057" lon="4.93114">
        <ele>189.6</ele>
        <time>2024-09-18T10:54:59Z</time>
      </trkpt>
      <trkpt lat="46.71053" lon="4.93109">
        <ele>189.6</ele>
        <time>2024-09-18T10:55:00Z</time>
      </trkpt>
      <trkpt lat="46.71049" lon="4.93104">
        <ele>189.6</ele>
        <time>2024-09-18T10:55:01Z</time>
      </trkpt>
      <trkpt lat="46.71046" lon="4.93101">
        <ele>189</ele>
        <time>2024-09-18T10:55:02Z</time>
      </trkpt>
      <trkpt lat="46.71044" lon="4.93097">
        <ele>189</ele>
        <time>2024-09-18T10:55:03Z</time>
      </trkpt>
      <trkpt lat="46.71042" lon="4.93095">
        <ele>189</ele>
        <time>2024-09-18T10:55:04Z</time>
      </trkpt>
      <trkpt lat="46.71041" lon="4.93094">
        <ele>189</ele>
        <time>2024-09-18T10:55:05Z</time>
      </trkpt>
      <trkpt lat="46.7104" lon="4.93093">
        <ele>189</ele>
        <time>2024-09-18T10:55:06Z</time>
      </trkpt>
      <trkpt lat="46.71038" lon="4.93092">
        <ele>189</ele>
        <time>2024-09-18T10:55:07Z</time>
      </trkpt>
      <trkpt lat="46.71036" lon="4.93089">
        <ele>188.2</ele>
        <time>2024-09-18T10:55:08Z</time>
      </trkpt>
      <trkpt lat="46.71035" lon="4.93087">
        <ele>188.2</ele>
        <time>2024-09-18T10:55:09Z</time>
      </trkpt>
      <trkpt lat="46.71034" lon="4.93085">
        <ele>188.2</ele>
        <time>2024-09-18T10:55:10Z</time>
      </trkpt>
      <trkpt lat="46.71033" lon="4.93084">
        <ele>188.2</ele>
        <time>2024-09-18T10:55:11Z</time>
      </trkpt>
      <trkpt lat="46.7103" lon="4.93077">
        <ele>187</ele>
        <time>2024-09-18T10:55:51Z</time>
      </trkpt>
      <trkpt lat="46.71028" lon="4.93075">
        <ele>187</ele>
        <time>2024-09-18T10:55:52Z</time>
      </trkpt>
      <trkpt lat="46.71026" lon="4.93072">
        <ele>187</ele>
        <time>2024-09-18T10:55:53Z</time>
      </trkpt>
      <trkpt lat="46.71023" lon="4.93068">
        <ele>186</ele>
        <time>2024-09-18T10:55:54Z</time>
      </trkpt>
      <trkpt lat="46.7102" lon="4.93065">
        <ele>186</ele>
        <time>2024-09-18T10:55:55Z</time>
      </trkpt>
      <trkpt lat="46.71017" lon="4.9306">
        <ele>186</ele>
        <time>2024-09-18T10:55:56Z</time>
      </trkpt>
      <trkpt lat="46.71014" lon="4.93056">
        <ele>186</ele>
        <time>2024-09-18T10:55:57Z</time>
      </trkpt>
      <trkpt lat="46.7101" lon="4.93051">
        <ele>185.8</ele>
        <time>2024-09-18T10:55:58Z</time>
      </trkpt>
      <trkpt lat="46.71007" lon="4.93046">
        <ele>185.8</ele>
        <time>2024-09-18T10:55:59Z</time>
      </trkpt>
      <trkpt lat="46.71003" lon="4.93041">
        <ele>185.8</ele>
        <time>2024-09-18T10:56:00Z</time>
      </trkpt>
      <trkpt lat="46.70999" lon="4.93035">
        <ele>185.8</ele>
        <time>2024-09-18T10:56:01Z</time>
      </trkpt>
      <trkpt lat="46.70995" lon="4.93029">
        <ele>185.8</ele>
        <time>2024-09-18T10:56:02Z</time>
      </trkpt>
      <trkpt lat="46.7099" lon="4.93023">
        <ele>185.4</ele>
        <time>2024-09-18T10:56:03Z</time>
      </trkpt>
      <trkpt lat="46.70986" lon="4.93017">
        <ele>185.4</ele>
        <time>2024-09-18T10:56:04Z</time>
      </trkpt>
      <trkpt lat="46.70982" lon="4.9301">
        <ele>185.4</ele>
        <time>2024-09-18T10:56:05Z</time>
      </trkpt>
      <trkpt lat="46.70978" lon="4.93004">
        <ele>184.8</ele>
        <time>2024-09-18T10:56:06Z</time>
      </trkpt>
      <trkpt lat="46.70974" lon="4.92997">
        <ele>184.8</ele>
        <time>2024-09-18T10:56:07Z</time>
      </trkpt>
      <trkpt lat="46.70969" lon="4.9299">
        <ele>184.8</ele>
        <time>2024-09-18T10:56:08Z</time>
      </trkpt>
      <trkpt lat="46.70965" lon="4.92983">
        <ele>184.8</ele>
        <time>2024-09-18T10:56:09Z</time>
      </trkpt>
      <trkpt lat="46.70961" lon="4.92977">
        <ele>184.8</ele>
        <time>2024-09-18T10:56:10Z</time>
      </trkpt>
      <trkpt lat="46.70957" lon="4.92971">
        <ele>184.8</ele>
        <time>2024-09-18T10:56:11Z</time>
      </trkpt>
      <trkpt lat="46.70954" lon="4.92965">
        <ele>183.8</ele>
        <time>2024-09-18T10:56:12Z</time>
      </trkpt>
      <trkpt lat="46.70951" lon="4.9296">
        <ele>183.8</ele>
        <time>2024-09-18T10:56:13Z</time>
      </trkpt>
      <trkpt lat="46.7095" lon="4.92955">
        <ele>183.8</ele>
        <time>2024-09-18T10:56:14Z</time>
      </trkpt>
      <trkpt lat="46.70952" lon="4.92951">
        <ele>183.8</ele>
        <time>2024-09-18T10:56:15Z</time>
      </trkpt>
      <trkpt lat="46.70954" lon="4.92949">
        <ele>183.8</ele>
        <time>2024-09-18T10:56:16Z</time>
      </trkpt>
      <trkpt lat="46.70957" lon="4.92951">
        <ele>183.4</ele>
        <time>2024-09-18T10:56:17Z</time>
      </trkpt>
      <trkpt lat="46.70959" lon="4.92954">
        <ele>183.4</ele>
        <time>2024-09-18T10:56:18Z</time>
      </trkpt>
      <trkpt lat="46.70961" lon="4.92957">
        <ele>183.4</ele>
        <time>2024-09-18T10:56:19Z</time>
      </trkpt>
      <trkpt lat="46.70963" lon="4.92961">
        <ele>183.2</ele>
        <time>2024-09-18T10:56:20Z</time>
      </trkpt>
      <trkpt lat="46.70965" lon="4.92965">
        <ele>183</ele>
        <time>2024-09-18T10:56:21Z</time>
      </trkpt>
      <trkpt lat="46.70966" lon="4.92969">
        <ele>183</ele>
        <time>2024-09-18T10:56:22Z</time>
      </trkpt>
      <trkpt lat="46.70969" lon="4.92972">
        <ele>183</ele>
        <time>2024-09-18T10:56:23Z</time>
      </trkpt>
      <trkpt lat="46.70971" lon="4.92976">
        <ele>183</ele>
        <time>2024-09-18T10:56:24Z</time>
      </trkpt>
      <trkpt lat="46.70974" lon="4.92981">
        <ele>183</ele>
        <time>2024-09-18T10:56:25Z</time>
      </trkpt>
      <trkpt lat="46.70977" lon="4.92985">
        <ele>183.2</ele>
        <time>2024-09-18T10:56:26Z</time>
      </trkpt>
      <trkpt lat="46.7098" lon="4.9299">
        <ele>183.2</ele>
        <time>2024-09-18T10:56:27Z</time>
      </trkpt>
      <trkpt lat="46.70983" lon="4.92994">
        <ele>183.2</ele>
        <time>2024-09-18T10:56:28Z</time>
      </trkpt>
      <trkpt lat="46.70987" lon="4.92999">
        <ele>183.2</ele>
        <time>2024-09-18T10:56:29Z</time>
      </trkpt>
      <trkpt lat="46.7099" lon="4.93004">
        <ele>183.2</ele>
        <time>2024-09-18T10:56:30Z</time>
      </trkpt>
      <trkpt lat="46.70992" lon="4.93009">
        <ele>183.2</ele>
        <time>2024-09-18T10:56:31Z</time>
      </trkpt>
      <trkpt lat="46.70994" lon="4.93014">
        <ele>183.2</ele>
        <time>2024-09-18T10:56:32Z</time>
      </trkpt>
      <trkpt lat="46.70997" lon="4.93019">
        <ele>183.2</ele>
        <time>2024-09-18T10:56:33Z</time>
      </trkpt>
      <trkpt lat="46.71" lon="4.93023">
        <ele>184</ele>
        <time>2024-09-18T10:56:34Z</time>
      </trkpt>
      <trkpt lat="46.71003" lon="4.93027">
        <ele>184</ele>
        <time>2024-09-18T10:56:35Z</time>
      </trkpt>
      <trkpt lat="46.71006" lon="4.93031">
        <ele>184</ele>
        <time>2024-09-18T10:56:36Z</time>
      </trkpt>
      <trkpt lat="46.7101" lon="4.93034">
        <ele>184</ele>
        <time>2024-09-18T10:56:37Z</time>
      </trkpt>
      <trkpt lat="46.71013" lon="4.93038">
        <ele>183.6</ele>
        <time>2024-09-18T10:56:38Z</time>
      </trkpt>
      <trkpt lat="46.71016" lon="4.93042">
        <ele>183.6</ele>
        <time>2024-09-18T10:56:39Z</time>
      </trkpt>
      <trkpt lat="46.71019" lon="4.93046">
        <ele>183.6</ele>
        <time>2024-09-18T10:56:40Z</time>
      </trkpt>
      <trkpt lat="46.71023" lon="4.9305">
        <ele>183.6</ele>
        <time>2024-09-18T10:56:41Z</time>
      </trkpt>
      <trkpt lat="46.71026" lon="4.93053">
        <ele>183.8</ele>
        <time>2024-09-18T10:56:42Z</time>
      </trkpt>
      <trkpt lat="46.7103" lon="4.93057">
        <ele>183.4</ele>
        <time>2024-09-18T10:56:43Z</time>
      </trkpt>
      <trkpt lat="46.71033" lon="4.9306">
        <ele>183.4</ele>
        <time>2024-09-18T10:56:44Z</time>
      </trkpt>
      <trkpt lat="46.71036" lon="4.93063">
        <ele>183.4</ele>
        <time>2024-09-18T10:56:45Z</time>
      </trkpt>
      <trkpt lat="46.71039" lon="4.93066">
        <ele>183.4</ele>
        <time>2024-09-18T10:56:46Z</time>
      </trkpt>
      <trkpt lat="46.71042" lon="4.9307">
        <ele>183.4</ele>
        <time>2024-09-18T10:56:47Z</time>
      </trkpt>
      <trkpt lat="46.71045" lon="4.93073">
        <ele>183.2</ele>
        <time>2024-09-18T10:56:48Z</time>
      </trkpt>
      <trkpt lat="46.71049" lon="4.93077">
        <ele>183.2</ele>
        <time>2024-09-18T10:56:49Z</time>
      </trkpt>
      <trkpt lat="46.71051" lon="4.9308">
        <ele>183.2</ele>
        <time>2024-09-18T10:56:50Z</time>
      </trkpt>
      <trkpt lat="46.71054" lon="4.93084">
        <ele>183.2</ele>
        <time>2024-09-18T10:56:51Z</time>
      </trkpt>
      <trkpt lat="46.71055" lon="4.93088">
        <ele>183.2</ele>
        <time>2024-09-18T10:56:52Z</time>
      </trkpt>
      <trkpt lat="46.71056" lon="4.93093">
        <ele>183.2</ele>
        <time>2024-09-18T10:56:53Z</time>
      </trkpt>
      <trkpt lat="46.71055" lon="4.93097">
        <ele>183.2</ele>
        <time>2024-09-18T10:56:54Z</time>
      </trkpt>
      <trkpt lat="46.71054" lon="4.93101">
        <ele>183.2</ele>
        <time>2024-09-18T10:56:55Z</time>
      </trkpt>
      <trkpt lat="46.71052" lon="4.93104">
        <ele>183.2</ele>
        <time>2024-09-18T10:56:56Z</time>
      </trkpt>
      <trkpt lat="46.71049" lon="4.93107">
        <ele>183.4</ele>
        <time>2024-09-18T10:56:57Z</time>
      </trkpt>
      <trkpt lat="46.71046" lon="4.9311">
        <ele>183.4</ele>
        <time>2024-09-18T10:56:58Z</time>
      </trkpt>
      <trkpt lat="46.71042" lon="4.93112">
        <ele>183.4</ele>
        <time>2024-09-18T10:56:59Z</time>
      </trkpt>
      <trkpt lat="46.71039" lon="4.93114">
        <ele>183.4</ele>
        <time>2024-09-18T10:57:00Z</time>
      </trkpt>
      <trkpt lat="46.71035" lon="4.93116">
        <ele>183.2</ele>
        <time>2024-09-18T10:57:01Z</time>
      </trkpt>
      <trkpt lat="46.71031" lon="4.93119">
        <ele>183.2</ele>
        <time>2024-09-18T10:57:02Z</time>
      </trkpt>
      <trkpt lat="46.71027" lon="4.93121">
        <ele>183.2</ele>
        <time>2024-09-18T10:57:03Z</time>
      </trkpt>
      <trkpt lat="46.71023" lon="4.93123">
        <ele>183.2</ele>
        <time>2024-09-18T10:57:04Z</time>
      </trkpt>
      <trkpt lat="46.71019" lon="4.93126">
        <ele>183.6</ele>
        <time>2024-09-18T10:57:05Z</time>
      </trkpt>
      <trkpt lat="46.71014" lon="4.93129">
        <ele>183</ele>
        <time>2024-09-18T10:57:06Z</time>
      </trkpt>
      <trkpt lat="46.7101" lon="4.93132">
        <ele>183</ele>
        <time>2024-09-18T10:57:07Z</time>
      </trkpt>
      <trkpt lat="46.71006" lon="4.93135">
        <ele>183</ele>
        <time>2024-09-18T10:57:08Z</time>
      </trkpt>
      <trkpt lat="46.71002" lon="4.93138">
        <ele>183</ele>
        <time>2024-09-18T10:57:09Z</time>
      </trkpt>
      <trkpt lat="46.70998" lon="4.93141">
        <ele>183.2</ele>
        <time>2024-09-18T10:57:10Z</time>
      </trkpt>
      <trkpt lat="46.70994" lon="4.93144">
        <ele>183</ele>
        <time>2024-09-18T10:57:11Z</time>
      </trkpt>
      <trkpt lat="46.7099" lon="4.93148">
        <ele>183</ele>
        <time>2024-09-18T10:57:12Z</time>
      </trkpt>
      <trkpt lat="46.70987" lon="4.93152">
        <ele>183</ele>
        <time>2024-09-18T10:57:13Z</time>
      </trkpt>
      <trkpt lat="46.70983" lon="4.93157">
        <ele>183</ele>
        <time>2024-09-18T10:57:14Z</time>
      </trkpt>
      <trkpt lat="46.70979" lon="4.93161">
        <ele>183</ele>
        <time>2024-09-18T10:57:15Z</time>
      </trkpt>
      <trkpt lat="46.70975" lon="4.93165">
        <ele>182.4</ele>
        <time>2024-09-18T10:57:16Z</time>
      </trkpt>
      <trkpt lat="46.70971" lon="4.9317">
        <ele>182.4</ele>
        <time>2024-09-18T10:57:17Z</time>
      </trkpt>
      <trkpt lat="46.70968" lon="4.93174">
        <ele>183</ele>
        <time>2024-09-18T10:57:18Z</time>
      </trkpt>
      <trkpt lat="46.70964" lon="4.93179">
        <ele>183</ele>
        <time>2024-09-18T10:57:19Z</time>
      </trkpt>
      <trkpt lat="46.7096" lon="4.93183">
        <ele>183</ele>
        <time>2024-09-18T10:57:20Z</time>
      </trkpt>
      <trkpt lat="46.70956" lon="4.93188">
        <ele>183</ele>
        <time>2024-09-18T10:57:21Z</time>
      </trkpt>
      <trkpt lat="46.70953" lon="4.93192">
        <ele>183</ele>
        <time>2024-09-18T10:57:22Z</time>
      </trkpt>
      <trkpt lat="46.70949" lon="4.93196">
        <ele>183</ele>
        <time>2024-09-18T10:57:23Z</time>
      </trkpt>
      <trkpt lat="46.70945" lon="4.93201">
        <ele>183.2</ele>
        <time>2024-09-18T10:57:24Z</time>
      </trkpt>
      <trkpt lat="46.70941" lon="4.93205">
        <ele>183.2</ele>
        <time>2024-09-18T10:57:25Z</time>
      </trkpt>
      <trkpt lat="46.70937" lon="4.9321">
        <ele>183.2</ele>
        <time>2024-09-18T10:57:26Z</time>
      </trkpt>
      <trkpt lat="46.70933" lon="4.93214">
        <ele>183.2</ele>
        <time>2024-09-18T10:57:27Z</time>
      </trkpt>
      <trkpt lat="46.70929" lon="4.93218">
        <ele>182.8</ele>
        <time>2024-09-18T10:57:28Z</time>
      </trkpt>
      <trkpt lat="46.70925" lon="4.93222">
        <ele>182.8</ele>
        <time>2024-09-18T10:57:29Z</time>
      </trkpt>
      <trkpt lat="46.70921" lon="4.93225">
        <ele>182.8</ele>
        <time>2024-09-18T10:57:30Z</time>
      </trkpt>
      <trkpt lat="46.70917" lon="4.93229">
        <ele>183.2</ele>
        <time>2024-09-18T10:57:31Z</time>
      </trkpt>
      <trkpt lat="46.70913" lon="4.93232">
        <ele>183.2</ele>
        <time>2024-09-18T10:57:32Z</time>
      </trkpt>
      <trkpt lat="46.70909" lon="4.93235">
        <ele>183.2</ele>
        <time>2024-09-18T10:57:33Z</time>
      </trkpt>
      <trkpt lat="46.70905" lon="4.93238">
        <ele>183.2</ele>
        <time>2024-09-18T10:57:34Z</time>
      </trkpt>
      <trkpt lat="46.70901" lon="4.93241">
        <ele>183.2</ele>
        <time>2024-09-18T10:57:35Z</time>
      </trkpt>
      <trkpt lat="46.70897" lon="4.93245">
        <ele>183.2</ele>
        <time>2024-09-18T10:57:36Z</time>
      </trkpt>
      <trkpt lat="46.70892" lon="4.93248">
        <ele>183</ele>
        <time>2024-09-18T10:57:37Z</time>
      </trkpt>
      <trkpt lat="46.70888" lon="4.93252">
        <ele>183</ele>
        <time>2024-09-18T10:57:38Z</time>
      </trkpt>
      <trkpt lat="46.70884" lon="4.93255">
        <ele>183</ele>
        <time>2024-09-18T10:57:39Z</time>
      </trkpt>
      <trkpt lat="46.7088" lon="4.93259">
        <ele>183</ele>
        <time>2024-09-18T10:57:40Z</time>
      </trkpt>
      <trkpt lat="46.70876" lon="4.93262">
        <ele>183</ele>
        <time>2024-09-18T10:57:41Z</time>
      </trkpt>
      <trkpt lat="46.70872" lon="4.93265">
        <ele>183.4</ele>
        <time>2024-09-18T10:57:42Z</time>
      </trkpt>
      <trkpt lat="46.70868" lon="4.93269">
        <ele>183.4</ele>
        <time>2024-09-18T10:57:43Z</time>
      </trkpt>
      <trkpt lat="46.70864" lon="4.93271">
        <ele>183.4</ele>
        <time>2024-09-18T10:57:44Z</time>
      </trkpt>
      <trkpt lat="46.70859" lon="4.93274">
        <ele>183.4</ele>
        <time>2024-09-18T10:57:45Z</time>
      </trkpt>
      <trkpt lat="46.70855" lon="4.93277">
        <ele>183.4</ele>
        <time>2024-09-18T10:57:46Z</time>
      </trkpt>
      <trkpt lat="46.70851" lon="4.9328">
        <ele>183</ele>
        <time>2024-09-18T10:57:47Z</time>
      </trkpt>
      <trkpt lat="46.70847" lon="4.93282">
        <ele>183</ele>
        <time>2024-09-18T10:57:48Z</time>
      </trkpt>
      <trkpt lat="46.70842" lon="4.93285">
        <ele>183</ele>
        <time>2024-09-18T10:57:49Z</time>
      </trkpt>
      <trkpt lat="46.70838" lon="4.93288">
        <ele>183.4</ele>
        <time>2024-09-18T10:57:50Z</time>
      </trkpt>
      <trkpt lat="46.70834" lon="4.9329">
        <ele>183.4</ele>
        <time>2024-09-18T10:57:51Z</time>
      </trkpt>
      <trkpt lat="46.70829" lon="4.93293">
        <ele>183.8</ele>
        <time>2024-09-18T10:57:52Z</time>
      </trkpt>
      <trkpt lat="46.70825" lon="4.93296">
        <ele>183.8</ele>
        <time>2024-09-18T10:57:53Z</time>
      </trkpt>
      <trkpt lat="46.7082" lon="4.93299">
        <ele>183.2</ele>
        <time>2024-09-18T10:57:54Z</time>
      </trkpt>
      <trkpt lat="46.70816" lon="4.93301">
        <ele>183</ele>
        <time>2024-09-18T10:57:55Z</time>
      </trkpt>
      <trkpt lat="46.70812" lon="4.93304">
        <ele>183</ele>
        <time>2024-09-18T10:57:56Z</time>
      </trkpt>
      <trkpt lat="46.70807" lon="4.93307">
        <ele>183</ele>
        <time>2024-09-18T10:57:57Z</time>
      </trkpt>
      <trkpt lat="46.70803" lon="4.9331">
        <ele>183</ele>
        <time>2024-09-18T10:57:58Z</time>
      </trkpt>
      <trkpt lat="46.70798" lon="4.93313">
        <ele>183.2</ele>
        <time>2024-09-18T10:57:59Z</time>
      </trkpt>
      <trkpt lat="46.70794" lon="4.93316">
        <ele>182.8</ele>
        <time>2024-09-18T10:58:00Z</time>
      </trkpt>
      <trkpt lat="46.70789" lon="4.93319">
        <ele>182.8</ele>
        <time>2024-09-18T10:58:01Z</time>
      </trkpt>
      <trkpt lat="46.70785" lon="4.93321">
        <ele>182.8</ele>
        <time>2024-09-18T10:58:02Z</time>
      </trkpt>
      <trkpt lat="46.70781" lon="4.93324">
        <ele>183</ele>
        <time>2024-09-18T10:58:03Z</time>
      </trkpt>
      <trkpt lat="46.70777" lon="4.93327">
        <ele>183</ele>
        <time>2024-09-18T10:58:04Z</time>
      </trkpt>
      <trkpt lat="46.70772" lon="4.93329">
        <ele>182.8</ele>
        <time>2024-09-18T10:58:05Z</time>
      </trkpt>
      <trkpt lat="46.70768" lon="4.93332">
        <ele>182.8</ele>
        <time>2024-09-18T10:58:06Z</time>
      </trkpt>
      <trkpt lat="46.70764" lon="4.93335">
        <ele>182.8</ele>
        <time>2024-09-18T10:58:07Z</time>
      </trkpt>
      <trkpt lat="46.70759" lon="4.93338">
        <ele>183.2</ele>
        <time>2024-09-18T10:58:08Z</time>
      </trkpt>
      <trkpt lat="46.70755" lon="4.9334">
        <ele>183.2</ele>
        <time>2024-09-18T10:58:09Z</time>
      </trkpt>
      <trkpt lat="46.7075" lon="4.93343">
        <ele>183.2</ele>
        <time>2024-09-18T10:58:10Z</time>
      </trkpt>
      <trkpt lat="46.70745" lon="4.93345">
        <ele>183.2</ele>
        <time>2024-09-18T10:58:11Z</time>
      </trkpt>
      <trkpt lat="46.70741" lon="4.93347">
        <ele>183.4</ele>
        <time>2024-09-18T10:58:12Z</time>
      </trkpt>
      <trkpt lat="46.70737" lon="4.93349">
        <ele>183.4</ele>
        <time>2024-09-18T10:58:13Z</time>
      </trkpt>
      <trkpt lat="46.70732" lon="4.93351">
        <ele>183.4</ele>
        <time>2024-09-18T10:58:14Z</time>
      </trkpt>
      <trkpt lat="46.70728" lon="4.93353">
        <ele>183.4</ele>
        <time>2024-09-18T10:58:15Z</time>
      </trkpt>
      <trkpt lat="46.70723" lon="4.93354">
        <ele>183.4</ele>
        <time>2024-09-18T10:58:16Z</time>
      </trkpt>
      <trkpt lat="46.70719" lon="4.93356">
        <ele>183.4</ele>
        <time>2024-09-18T10:58:17Z</time>
      </trkpt>
      <trkpt lat="46.70714" lon="4.93358">
        <ele>182.4</ele>
        <time>2024-09-18T10:58:18Z</time>
      </trkpt>
      <trkpt lat="46.7071" lon="4.9336">
        <ele>182.4</ele>
        <time>2024-09-18T10:58:19Z</time>
      </trkpt>
      <trkpt lat="46.70705" lon="4.93362">
        <ele>182.4</ele>
        <time>2024-09-18T10:58:20Z</time>
      </trkpt>
      <trkpt lat="46.70701" lon="4.93364">
        <ele>183</ele>
        <time>2024-09-18T10:58:21Z</time>
      </trkpt>
      <trkpt lat="46.70696" lon="4.93365">
        <ele>183</ele>
        <time>2024-09-18T10:58:22Z</time>
      </trkpt>
      <trkpt lat="46.70691" lon="4.93367">
        <ele>183</ele>
        <time>2024-09-18T10:58:23Z</time>
      </trkpt>
      <trkpt lat="46.70687" lon="4.93369">
        <ele>184.2</ele>
        <time>2024-09-18T10:58:24Z</time>
      </trkpt>
      <trkpt lat="46.70683" lon="4.93371">
        <ele>184.2</ele>
        <time>2024-09-18T10:58:25Z</time>
      </trkpt>
      <trkpt lat="46.70678" lon="4.93373">
        <ele>183.4</ele>
        <time>2024-09-18T10:58:26Z</time>
      </trkpt>
      <trkpt lat="46.70674" lon="4.93374">
        <ele>183.2</ele>
        <time>2024-09-18T10:58:27Z</time>
      </trkpt>
      <trkpt lat="46.7067" lon="4.93376">
        <ele>183.2</ele>
        <time>2024-09-18T10:58:28Z</time>
      </trkpt>
      <trkpt lat="46.70665" lon="4.93378">
        <ele>183.2</ele>
        <time>2024-09-18T10:58:29Z</time>
      </trkpt>
      <trkpt lat="46.70661" lon="4.9338">
        <ele>183.2</ele>
        <time>2024-09-18T10:58:30Z</time>
      </trkpt>
      <trkpt lat="46.70656" lon="4.93382">
        <ele>183.2</ele>
        <time>2024-09-18T10:58:31Z</time>
      </trkpt>
      <trkpt lat="46.70652" lon="4.93383">
        <ele>183</ele>
        <time>2024-09-18T10:58:32Z</time>
      </trkpt>
      <trkpt lat="46.70647" lon="4.93385">
        <ele>183</ele>
        <time>2024-09-18T10:58:33Z</time>
      </trkpt>
      <trkpt lat="46.70642" lon="4.93386">
        <ele>183</ele>
        <time>2024-09-18T10:58:34Z</time>
      </trkpt>
      <trkpt lat="46.70637" lon="4.93387">
        <ele>183</ele>
        <time>2024-09-18T10:58:35Z</time>
      </trkpt>
      <trkpt lat="46.70633" lon="4.93389">
        <ele>183.2</ele>
        <time>2024-09-18T10:58:36Z</time>
      </trkpt>
      <trkpt lat="46.70628" lon="4.93389">
        <ele>183.2</ele>
        <time>2024-09-18T10:58:37Z</time>
      </trkpt>
      <trkpt lat="46.70623" lon="4.9339">
        <ele>183.2</ele>
        <time>2024-09-18T10:58:38Z</time>
      </trkpt>
      <trkpt lat="46.70618" lon="4.93391">
        <ele>183.2</ele>
        <time>2024-09-18T10:58:39Z</time>
      </trkpt>
      <trkpt lat="46.70613" lon="4.93392">
        <ele>183.6</ele>
        <time>2024-09-18T10:58:40Z</time>
      </trkpt>
      <trkpt lat="46.70609" lon="4.93393">
        <ele>183.6</ele>
        <time>2024-09-18T10:58:41Z</time>
      </trkpt>
      <trkpt lat="46.70604" lon="4.93394">
        <ele>183.6</ele>
        <time>2024-09-18T10:58:42Z</time>
      </trkpt>
      <trkpt lat="46.70599" lon="4.93395">
        <ele>183.6</ele>
        <time>2024-09-18T10:58:43Z</time>
      </trkpt>
      <trkpt lat="46.70595" lon="4.93397">
        <ele>183.6</ele>
        <time>2024-09-18T10:58:44Z</time>
      </trkpt>
      <trkpt lat="46.7059" lon="4.93399">
        <ele>183.4</ele>
        <time>2024-09-18T10:58:45Z</time>
      </trkpt>
      <trkpt lat="46.70586" lon="4.93401">
        <ele>183.4</ele>
        <time>2024-09-18T10:58:46Z</time>
      </trkpt>
      <trkpt lat="46.70582" lon="4.93403">
        <ele>183.4</ele>
        <time>2024-09-18T10:58:47Z</time>
      </trkpt>
      <trkpt lat="46.70577" lon="4.93405">
        <ele>183.2</ele>
        <time>2024-09-18T10:58:48Z</time>
      </trkpt>
      <trkpt lat="46.70573" lon="4.93407">
        <ele>183</ele>
        <time>2024-09-18T10:58:49Z</time>
      </trkpt>
      <trkpt lat="46.70568" lon="4.93409">
        <ele>183</ele>
        <time>2024-09-18T10:58:50Z</time>
      </trkpt>
      <trkpt lat="46.70563" lon="4.93411">
        <ele>183</ele>
        <time>2024-09-18T10:58:51Z</time>
      </trkpt>
      <trkpt lat="46.70559" lon="4.93413">
        <ele>183</ele>
        <time>2024-09-18T10:58:52Z</time>
      </trkpt>
      <trkpt lat="46.70554" lon="4.93414">
        <ele>183.4</ele>
        <time>2024-09-18T10:58:53Z</time>
      </trkpt>
      <trkpt lat="46.7055" lon="4.93416">
        <ele>183.2</ele>
        <time>2024-09-18T10:58:54Z</time>
      </trkpt>
      <trkpt lat="46.70545" lon="4.93418">
        <ele>183.2</ele>
        <time>2024-09-18T10:58:55Z</time>
      </trkpt>
      <trkpt lat="46.7054" lon="4.9342">
        <ele>183.2</ele>
        <time>2024-09-18T10:58:56Z</time>
      </trkpt>
      <trkpt lat="46.70536" lon="4.93421">
        <ele>183.2</ele>
        <time>2024-09-18T10:58:57Z</time>
      </trkpt>
      <trkpt lat="46.70531" lon="4.93422">
        <ele>183</ele>
        <time>2024-09-18T10:58:58Z</time>
      </trkpt>
      <trkpt lat="46.70526" lon="4.93424">
        <ele>183</ele>
        <time>2024-09-18T10:58:59Z</time>
      </trkpt>
      <trkpt lat="46.70522" lon="4.93426">
        <ele>183</ele>
        <time>2024-09-18T10:59:00Z</time>
      </trkpt>
      <trkpt lat="46.70517" lon="4.93427">
        <ele>183</ele>
        <time>2024-09-18T10:59:01Z</time>
      </trkpt>
      <trkpt lat="46.70513" lon="4.93429">
        <ele>183.4</ele>
        <time>2024-09-18T10:59:02Z</time>
      </trkpt>
      <trkpt lat="46.70508" lon="4.93431">
        <ele>183.4</ele>
        <time>2024-09-18T10:59:03Z</time>
      </trkpt>
      <trkpt lat="46.70503" lon="4.93433">
        <ele>183.4</ele>
        <time>2024-09-18T10:59:04Z</time>
      </trkpt>
      <trkpt lat="46.70499" lon="4.93434">
        <ele>183.4</ele>
        <time>2024-09-18T10:59:05Z</time>
      </trkpt>
      <trkpt lat="46.70494" lon="4.93436">
        <ele>183.4</ele>
        <time>2024-09-18T10:59:06Z</time>
      </trkpt>
      <trkpt lat="46.70489" lon="4.93437">
        <ele>183.2</ele>
        <time>2024-09-18T10:59:07Z</time>
      </trkpt>
      <trkpt lat="46.70485" lon="4.93439">
        <ele>183.4</ele>
        <time>2024-09-18T10:59:08Z</time>
      </trkpt>
      <trkpt lat="46.7048" lon="4.9344">
        <ele>183.4</ele>
        <time>2024-09-18T10:59:09Z</time>
      </trkpt>
      <trkpt lat="46.70475" lon="4.93441">
        <ele>183.4</ele>
        <time>2024-09-18T10:59:10Z</time>
      </trkpt>
      <trkpt lat="46.70471" lon="4.93442">
        <ele>183.2</ele>
        <time>2024-09-18T10:59:11Z</time>
      </trkpt>
      <trkpt lat="46.70466" lon="4.93443">
        <ele>183.4</ele>
        <time>2024-09-18T10:59:12Z</time>
      </trkpt>
      <trkpt lat="46.70461" lon="4.93444">
        <ele>183.4</ele>
        <time>2024-09-18T10:59:13Z</time>
      </trkpt>
      <trkpt lat="46.70457" lon="4.93445">
        <ele>183.4</ele>
        <time>2024-09-18T10:59:14Z</time>
      </trkpt>
      <trkpt lat="46.70452" lon="4.93446">
        <ele>183.4</ele>
        <time>2024-09-18T10:59:15Z</time>
      </trkpt>
      <trkpt lat="46.70447" lon="4.93447">
        <ele>183.4</ele>
        <time>2024-09-18T10:59:16Z</time>
      </trkpt>
      <trkpt lat="46.70442" lon="4.93448">
        <ele>183.2</ele>
        <time>2024-09-18T10:59:17Z</time>
      </trkpt>
      <trkpt lat="46.70438" lon="4.93448">
        <ele>183.2</ele>
        <time>2024-09-18T10:59:18Z</time>
      </trkpt>
      <trkpt lat="46.70433" lon="4.93449">
        <ele>183.2</ele>
        <time>2024-09-18T10:59:19Z</time>
      </trkpt>
      <trkpt lat="46.70428" lon="4.93451">
        <ele>183</ele>
        <time>2024-09-18T10:59:20Z</time>
      </trkpt>
      <trkpt lat="46.70424" lon="4.93452">
        <ele>183.2</ele>
        <time>2024-09-18T10:59:21Z</time>
      </trkpt>
      <trkpt lat="46.70419" lon="4.93453">
        <ele>183.2</ele>
        <time>2024-09-18T10:59:22Z</time>
      </trkpt>
      <trkpt lat="46.70414" lon="4.93454">
        <ele>183.2</ele>
        <time>2024-09-18T10:59:23Z</time>
      </trkpt>
      <trkpt lat="46.70409" lon="4.93455">
        <ele>183.2</ele>
        <time>2024-09-18T10:59:24Z</time>
      </trkpt>
      <trkpt lat="46.70404" lon="4.93456">
        <ele>183.2</ele>
        <time>2024-09-18T10:59:25Z</time>
      </trkpt>
      <trkpt lat="46.704" lon="4.93456">
        <ele>183.2</ele>
        <time>2024-09-18T10:59:26Z</time>
      </trkpt>
      <trkpt lat="46.70395" lon="4.93457">
        <ele>183.2</ele>
        <time>2024-09-18T10:59:27Z</time>
      </trkpt>
      <trkpt lat="46.7039" lon="4.93457">
        <ele>183</ele>
        <time>2024-09-18T10:59:28Z</time>
      </trkpt>
      <trkpt lat="46.70385" lon="4.93457">
        <ele>183</ele>
        <time>2024-09-18T10:59:29Z</time>
      </trkpt>
      <trkpt lat="46.70381" lon="4.93458">
        <ele>183</ele>
        <time>2024-09-18T10:59:30Z</time>
      </trkpt>
      <trkpt lat="46.70376" lon="4.93459">
        <ele>183</ele>
        <time>2024-09-18T10:59:31Z</time>
      </trkpt>
      <trkpt lat="46.70371" lon="4.9346">
        <ele>183</ele>
        <time>2024-09-18T10:59:32Z</time>
      </trkpt>
      <trkpt lat="46.70367" lon="4.93462">
        <ele>183</ele>
        <time>2024-09-18T10:59:33Z</time>
      </trkpt>
      <trkpt lat="46.70362" lon="4.93464">
        <ele>183</ele>
        <time>2024-09-18T10:59:34Z</time>
      </trkpt>
      <trkpt lat="46.70358" lon="4.93467">
        <ele>183.2</ele>
        <time>2024-09-18T10:59:35Z</time>
      </trkpt>
      <trkpt lat="46.70354" lon="4.9347">
        <ele>183.2</ele>
        <time>2024-09-18T10:59:36Z</time>
      </trkpt>
      <trkpt lat="46.7035" lon="4.93474">
        <ele>183.2</ele>
        <time>2024-09-18T10:59:37Z</time>
      </trkpt>
      <trkpt lat="46.70346" lon="4.93477">
        <ele>183</ele>
        <time>2024-09-18T10:59:38Z</time>
      </trkpt>
      <trkpt lat="46.70342" lon="4.93481">
        <ele>183</ele>
        <time>2024-09-18T10:59:39Z</time>
      </trkpt>
      <trkpt lat="46.70338" lon="4.93484">
        <ele>183</ele>
        <time>2024-09-18T10:59:40Z</time>
      </trkpt>
      <trkpt lat="46.70334" lon="4.93487">
        <ele>183</ele>
        <time>2024-09-18T10:59:41Z</time>
      </trkpt>
      <trkpt lat="46.7033" lon="4.9349">
        <ele>183</ele>
        <time>2024-09-18T10:59:42Z</time>
      </trkpt>
      <trkpt lat="46.70325" lon="4.93493">
        <ele>183</ele>
        <time>2024-09-18T10:59:43Z</time>
      </trkpt>
      <trkpt lat="46.70321" lon="4.93495">
        <ele>183</ele>
        <time>2024-09-18T10:59:44Z</time>
      </trkpt>
      <trkpt lat="46.70316" lon="4.93497">
        <ele>183</ele>
        <time>2024-09-18T10:59:45Z</time>
      </trkpt>
      <trkpt lat="46.70312" lon="4.93498">
        <ele>183.2</ele>
        <time>2024-09-18T10:59:46Z</time>
      </trkpt>
      <trkpt lat="46.70307" lon="4.935">
        <ele>182.8</ele>
        <time>2024-09-18T10:59:47Z</time>
      </trkpt>
      <trkpt lat="46.70303" lon="4.93502">
        <ele>182.8</ele>
        <time>2024-09-18T10:59:48Z</time>
      </trkpt>
      <trkpt lat="46.70298" lon="4.93504">
        <ele>182.8</ele>
        <time>2024-09-18T10:59:49Z</time>
      </trkpt>
      <trkpt lat="46.70293" lon="4.93506">
        <ele>182.8</ele>
        <time>2024-09-18T10:59:50Z</time>
      </trkpt>
      <trkpt lat="46.70289" lon="4.93508">
        <ele>183.4</ele>
        <time>2024-09-18T10:59:51Z</time>
      </trkpt>
      <trkpt lat="46.70284" lon="4.9351">
        <ele>183.4</ele>
        <time>2024-09-18T10:59:52Z</time>
      </trkpt>
      <trkpt lat="46.7028" lon="4.93512">
        <ele>183.4</ele>
        <time>2024-09-18T10:59:53Z</time>
      </trkpt>
      <trkpt lat="46.70275" lon="4.93514">
        <ele>183.4</ele>
        <time>2024-09-18T10:59:54Z</time>
      </trkpt>
      <trkpt lat="46.70271" lon="4.93516">
        <ele>183.4</ele>
        <time>2024-09-18T10:59:55Z</time>
      </trkpt>
      <trkpt lat="46.70267" lon="4.93518">
        <ele>182.6</ele>
        <time>2024-09-18T10:59:56Z</time>
      </trkpt>
      <trkpt lat="46.70262" lon="4.9352">
        <ele>182.6</ele>
        <time>2024-09-18T10:59:57Z</time>
      </trkpt>
      <trkpt lat="46.70257" lon="4.93522">
        <ele>182.6</ele>
        <time>2024-09-18T10:59:58Z</time>
      </trkpt>
      <trkpt lat="46.70253" lon="4.93524">
        <ele>182.6</ele>
        <time>2024-09-18T10:59:59Z</time>
      </trkpt>
      <trkpt lat="46.70248" lon="4.93526">
        <ele>182.6</ele>
        <time>2024-09-18T11:00:00Z</time>
      </trkpt>
      <trkpt lat="46.70243" lon="4.93528">
        <ele>182.6</ele>
        <time>2024-09-18T11:00:01Z</time>
      </trkpt>
      <trkpt lat="46.70239" lon="4.9353">
        <ele>183</ele>
        <time>2024-09-18T11:00:02Z</time>
      </trkpt>
      <trkpt lat="46.70234" lon="4.93532">
        <ele>183</ele>
        <time>2024-09-18T11:00:03Z</time>
      </trkpt>
      <trkpt lat="46.70229" lon="4.93534">
        <ele>183</ele>
        <time>2024-09-18T11:00:04Z</time>
      </trkpt>
      <trkpt lat="46.70225" lon="4.93536">
        <ele>182.6</ele>
        <time>2024-09-18T11:00:05Z</time>
      </trkpt>
      <trkpt lat="46.7022" lon="4.93538">
        <ele>182.6</ele>
        <time>2024-09-18T11:00:06Z</time>
      </trkpt>
      <trkpt lat="46.70215" lon="4.93541">
        <ele>182.6</ele>
        <time>2024-09-18T11:00:07Z</time>
      </trkpt>
      <trkpt lat="46.70211" lon="4.93543">
        <ele>182.6</ele>
        <time>2024-09-18T11:00:08Z</time>
      </trkpt>
      <trkpt lat="46.70206" lon="4.93546">
        <ele>183.2</ele>
        <time>2024-09-18T11:00:09Z</time>
      </trkpt>
      <trkpt lat="46.70201" lon="4.93549">
        <ele>183</ele>
        <time>2024-09-18T11:00:10Z</time>
      </trkpt>
      <trkpt lat="46.70197" lon="4.93552">
        <ele>183</ele>
        <time>2024-09-18T11:00:11Z</time>
      </trkpt>
      <trkpt lat="46.70192" lon="4.93555">
        <ele>183</ele>
        <time>2024-09-18T11:00:12Z</time>
      </trkpt>
      <trkpt lat="46.70187" lon="4.93557">
        <ele>183</ele>
        <time>2024-09-18T11:00:13Z</time>
      </trkpt>
      <trkpt lat="46.70183" lon="4.9356">
        <ele>182.2</ele>
        <time>2024-09-18T11:00:14Z</time>
      </trkpt>
      <trkpt lat="46.70178" lon="4.93562">
        <ele>182.2</ele>
        <time>2024-09-18T11:00:15Z</time>
      </trkpt>
      <trkpt lat="46.70173" lon="4.93564">
        <ele>182.2</ele>
        <time>2024-09-18T11:00:16Z</time>
      </trkpt>
      <trkpt lat="46.70168" lon="4.93566">
        <ele>182.6</ele>
        <time>2024-09-18T11:00:17Z</time>
      </trkpt>
      <trkpt lat="46.70164" lon="4.93568">
        <ele>182.6</ele>
        <time>2024-09-18T11:00:18Z</time>
      </trkpt>
      <trkpt lat="46.70159" lon="4.93571">
        <ele>183</ele>
        <time>2024-09-18T11:00:19Z</time>
      </trkpt>
      <trkpt lat="46.70155" lon="4.93574">
        <ele>183</ele>
        <time>2024-09-18T11:00:20Z</time>
      </trkpt>
      <trkpt lat="46.7015" lon="4.93576">
        <ele>183</ele>
        <time>2024-09-18T11:00:21Z</time>
      </trkpt>
      <trkpt lat="46.70145" lon="4.93579">
        <ele>183</ele>
        <time>2024-09-18T11:00:22Z</time>
      </trkpt>
      <trkpt lat="46.70141" lon="4.93582">
        <ele>182.8</ele>
        <time>2024-09-18T11:00:23Z</time>
      </trkpt>
      <trkpt lat="46.70137" lon="4.93585">
        <ele>182.8</ele>
        <time>2024-09-18T11:00:24Z</time>
      </trkpt>
      <trkpt lat="46.70132" lon="4.93588">
        <ele>182.8</ele>
        <time>2024-09-18T11:00:25Z</time>
      </trkpt>
      <trkpt lat="46.70128" lon="4.93592">
        <ele>182.8</ele>
        <time>2024-09-18T11:00:26Z</time>
      </trkpt>
      <trkpt lat="46.70124" lon="4.93596">
        <ele>183</ele>
        <time>2024-09-18T11:00:27Z</time>
      </trkpt>
      <trkpt lat="46.7012" lon="4.936">
        <ele>183</ele>
        <time>2024-09-18T11:00:28Z</time>
      </trkpt>
      <trkpt lat="46.70117" lon="4.93605">
        <ele>183</ele>
        <time>2024-09-18T11:00:29Z</time>
      </trkpt>
      <trkpt lat="46.70113" lon="4.9361">
        <ele>183</ele>
        <time>2024-09-18T11:00:30Z</time>
      </trkpt>
      <trkpt lat="46.7011" lon="4.93615">
        <ele>183</ele>
        <time>2024-09-18T11:00:31Z</time>
      </trkpt>
      <trkpt lat="46.70107" lon="4.9362">
        <ele>182.8</ele>
        <time>2024-09-18T11:00:32Z</time>
      </trkpt>
      <trkpt lat="46.70105" lon="4.93626">
        <ele>182.8</ele>
        <time>2024-09-18T11:00:33Z</time>
      </trkpt>
      <trkpt lat="46.70102" lon="4.93632">
        <ele>182.8</ele>
        <time>2024-09-18T11:00:34Z</time>
      </trkpt>
      <trkpt lat="46.701" lon="4.93638">
        <ele>182.8</ele>
        <time>2024-09-18T11:00:35Z</time>
      </trkpt>
      <trkpt lat="46.70098" lon="4.93643">
        <ele>182.8</ele>
        <time>2024-09-18T11:00:36Z</time>
      </trkpt>
      <trkpt lat="46.70096" lon="4.93648">
        <ele>183</ele>
        <time>2024-09-18T11:00:37Z</time>
      </trkpt>
      <trkpt lat="46.70093" lon="4.93652">
        <ele>183</ele>
        <time>2024-09-18T11:00:38Z</time>
      </trkpt>
      <trkpt lat="46.70089" lon="4.93655">
        <ele>183</ele>
        <time>2024-09-18T11:00:39Z</time>
      </trkpt>
      <trkpt lat="46.70086" lon="4.93657">
        <ele>183.2</ele>
        <time>2024-09-18T11:00:40Z</time>
      </trkpt>
      <trkpt lat="46.70082" lon="4.93658">
        <ele>183.2</ele>
        <time>2024-09-18T11:00:41Z</time>
      </trkpt>
      <trkpt lat="46.70077" lon="4.93659">
        <ele>183.2</ele>
        <time>2024-09-18T11:00:42Z</time>
      </trkpt>
      <trkpt lat="46.70072" lon="4.93658">
        <ele>183.2</ele>
        <time>2024-09-18T11:00:43Z</time>
      </trkpt>
      <trkpt lat="46.70068" lon="4.93657">
        <ele>183.2</ele>
        <time>2024-09-18T11:00:44Z</time>
      </trkpt>
      <trkpt lat="46.70063" lon="4.93656">
        <ele>183.2</ele>
        <time>2024-09-18T11:00:45Z</time>
      </trkpt>
      <trkpt lat="46.70058" lon="4.93655">
        <ele>182.6</ele>
        <time>2024-09-18T11:00:46Z</time>
      </trkpt>
      <trkpt lat="46.70054" lon="4.93654">
        <ele>182.6</ele>
        <time>2024-09-18T11:00:47Z</time>
      </trkpt>
      <trkpt lat="46.70049" lon="4.93654">
        <ele>182.6</ele>
        <time>2024-09-18T11:00:48Z</time>
      </trkpt>
      <trkpt lat="46.70044" lon="4.93654">
        <ele>182.4</ele>
        <time>2024-09-18T11:00:49Z</time>
      </trkpt>
      <trkpt lat="46.70039" lon="4.93655">
        <ele>182.2</ele>
        <time>2024-09-18T11:00:50Z</time>
      </trkpt>
      <trkpt lat="46.70035" lon="4.93655">
        <ele>182.2</ele>
        <time>2024-09-18T11:00:51Z</time>
      </trkpt>
      <trkpt lat="46.7003" lon="4.93656">
        <ele>182.2</ele>
        <time>2024-09-18T11:00:52Z</time>
      </trkpt>
      <trkpt lat="46.70025" lon="4.93657">
        <ele>182.2</ele>
        <time>2024-09-18T11:00:53Z</time>
      </trkpt>
      <trkpt lat="46.7002" lon="4.93658">
        <ele>182.2</ele>
        <time>2024-09-18T11:00:54Z</time>
      </trkpt>
      <trkpt lat="46.70015" lon="4.93659">
        <ele>182.6</ele>
        <time>2024-09-18T11:00:55Z</time>
      </trkpt>
      <trkpt lat="46.7001" lon="4.9366">
        <ele>182.6</ele>
        <time>2024-09-18T11:00:56Z</time>
      </trkpt>
      <trkpt lat="46.70006" lon="4.93661">
        <ele>182.6</ele>
        <time>2024-09-18T11:00:57Z</time>
      </trkpt>
      <trkpt lat="46.70001" lon="4.93662">
        <ele>182.6</ele>
        <time>2024-09-18T11:00:58Z</time>
      </trkpt>
      <trkpt lat="46.69997" lon="4.93664">
        <ele>182.6</ele>
        <time>2024-09-18T11:00:59Z</time>
      </trkpt>
      <trkpt lat="46.69992" lon="4.93665">
        <ele>182.6</ele>
        <time>2024-09-18T11:01:00Z</time>
      </trkpt>
      <trkpt lat="46.69987" lon="4.93667">
        <ele>182.6</ele>
        <time>2024-09-18T11:01:01Z</time>
      </trkpt>
      <trkpt lat="46.69982" lon="4.93668">
        <ele>182.4</ele>
        <time>2024-09-18T11:01:02Z</time>
      </trkpt>
      <trkpt lat="46.69978" lon="4.9367">
        <ele>182.6</ele>
        <time>2024-09-18T11:01:03Z</time>
      </trkpt>
      <trkpt lat="46.69973" lon="4.93672">
        <ele>182.6</ele>
        <time>2024-09-18T11:01:04Z</time>
      </trkpt>
      <trkpt lat="46.69969" lon="4.93674">
        <ele>182.6</ele>
        <time>2024-09-18T11:01:05Z</time>
      </trkpt>
      <trkpt lat="46.69965" lon="4.93677">
        <ele>182.6</ele>
        <time>2024-09-18T11:01:06Z</time>
      </trkpt>
      <trkpt lat="46.69961" lon="4.93678">
        <ele>182.8</ele>
        <time>2024-09-18T11:01:07Z</time>
      </trkpt>
      <trkpt lat="46.69956" lon="4.9368">
        <ele>182.4</ele>
        <time>2024-09-18T11:01:08Z</time>
      </trkpt>
      <trkpt lat="46.69952" lon="4.93683">
        <ele>182.4</ele>
        <time>2024-09-18T11:01:09Z</time>
      </trkpt>
      <trkpt lat="46.69948" lon="4.93685">
        <ele>182.4</ele>
        <time>2024-09-18T11:01:10Z</time>
      </trkpt>
      <trkpt lat="46.69944" lon="4.93687">
        <ele>182.4</ele>
        <time>2024-09-18T11:01:11Z</time>
      </trkpt>
      <trkpt lat="46.69941" lon="4.9369">
        <ele>182.4</ele>
        <time>2024-09-18T11:01:12Z</time>
      </trkpt>
      <trkpt lat="46.69937" lon="4.93692">
        <ele>182.6</ele>
        <time>2024-09-18T11:01:13Z</time>
      </trkpt>
      <trkpt lat="46.69934" lon="4.93694">
        <ele>182.6</ele>
        <time>2024-09-18T11:01:14Z</time>
      </trkpt>
      <trkpt lat="46.69931" lon="4.93696">
        <ele>182.6</ele>
        <time>2024-09-18T11:01:15Z</time>
      </trkpt>
      <trkpt lat="46.69928" lon="4.93698">
        <ele>182.8</ele>
        <time>2024-09-18T11:01:16Z</time>
      </trkpt>
      <trkpt lat="46.69925" lon="4.93699">
        <ele>182.4</ele>
        <time>2024-09-18T11:01:17Z</time>
      </trkpt>
      <trkpt lat="46.69922" lon="4.93701">
        <ele>182.4</ele>
        <time>2024-09-18T11:01:18Z</time>
      </trkpt>
      <trkpt lat="46.69919" lon="4.93702">
        <ele>182.4</ele>
        <time>2024-09-18T11:01:19Z</time>
      </trkpt>
      <trkpt lat="46.69916" lon="4.93704">
        <ele>182.4</ele>
        <time>2024-09-18T11:01:20Z</time>
      </trkpt>
      <trkpt lat="46.69913" lon="4.93705">
        <ele>182.4</ele>
        <time>2024-09-18T11:01:21Z</time>
      </trkpt>
      <trkpt lat="46.6991" lon="4.93707">
        <ele>182.6</ele>
        <time>2024-09-18T11:01:22Z</time>
      </trkpt>
      <trkpt lat="46.69907" lon="4.9371">
        <ele>182.6</ele>
        <time>2024-09-18T11:01:23Z</time>
      </trkpt>
      <trkpt lat="46.69904" lon="4.93712">
        <ele>182.6</ele>
        <time>2024-09-18T11:01:24Z</time>
      </trkpt>
      <trkpt lat="46.69901" lon="4.93714">
        <ele>182.6</ele>
        <time>2024-09-18T11:01:25Z</time>
      </trkpt>
      <trkpt lat="46.69898" lon="4.93716">
        <ele>182.6</ele>
        <time>2024-09-18T11:01:26Z</time>
      </trkpt>
      <trkpt lat="46.69895" lon="4.9372">
        <ele>182.2</ele>
        <time>2024-09-18T11:01:27Z</time>
      </trkpt>
      <trkpt lat="46.69891" lon="4.93723">
        <ele>182.2</ele>
        <time>2024-09-18T11:01:28Z</time>
      </trkpt>
      <trkpt lat="46.69888" lon="4.93726">
        <ele>182.6</ele>
        <time>2024-09-18T11:01:29Z</time>
      </trkpt>
      <trkpt lat="46.69885" lon="4.9373">
        <ele>182.6</ele>
        <time>2024-09-18T11:01:30Z</time>
      </trkpt>
      <trkpt lat="46.69881" lon="4.93733">
        <ele>183.2</ele>
        <time>2024-09-18T11:01:31Z</time>
      </trkpt>
      <trkpt lat="46.69877" lon="4.93736">
        <ele>183.2</ele>
        <time>2024-09-18T11:01:32Z</time>
      </trkpt>
      <trkpt lat="46.69874" lon="4.9374">
        <ele>183.2</ele>
        <time>2024-09-18T11:01:33Z</time>
      </trkpt>
      <trkpt lat="46.6987" lon="4.93743">
        <ele>183.2</ele>
        <time>2024-09-18T11:01:34Z</time>
      </trkpt>
      <trkpt lat="46.69867" lon="4.93746">
        <ele>183.4</ele>
        <time>2024-09-18T11:01:35Z</time>
      </trkpt>
      <trkpt lat="46.69863" lon="4.9375">
        <ele>183.4</ele>
        <time>2024-09-18T11:01:36Z</time>
      </trkpt>
      <trkpt lat="46.6986" lon="4.93754">
        <ele>183.4</ele>
        <time>2024-09-18T11:01:37Z</time>
      </trkpt>
      <trkpt lat="46.69856" lon="4.93757">
        <ele>183.2</ele>
        <time>2024-09-18T11:01:38Z</time>
      </trkpt>
      <trkpt lat="46.69853" lon="4.93761">
        <ele>183</ele>
        <time>2024-09-18T11:01:39Z</time>
      </trkpt>
      <trkpt lat="46.69849" lon="4.93765">
        <ele>183</ele>
        <time>2024-09-18T11:01:40Z</time>
      </trkpt>
      <trkpt lat="46.69846" lon="4.93768">
        <ele>183</ele>
        <time>2024-09-18T11:01:41Z</time>
      </trkpt>
      <trkpt lat="46.69842" lon="4.93773">
        <ele>183</ele>
        <time>2024-09-18T11:01:42Z</time>
      </trkpt>
      <trkpt lat="46.69839" lon="4.93776">
        <ele>183</ele>
        <time>2024-09-18T11:01:43Z</time>
      </trkpt>
      <trkpt lat="46.69835" lon="4.9378">
        <ele>183.4</ele>
        <time>2024-09-18T11:01:44Z</time>
      </trkpt>
      <trkpt lat="46.69831" lon="4.93784">
        <ele>183.4</ele>
        <time>2024-09-18T11:01:45Z</time>
      </trkpt>
      <trkpt lat="46.69827" lon="4.93788">
        <ele>183.4</ele>
        <time>2024-09-18T11:01:46Z</time>
      </trkpt>
      <trkpt lat="46.69824" lon="4.93792">
        <ele>183.4</ele>
        <time>2024-09-18T11:01:47Z</time>
      </trkpt>
      <trkpt lat="46.6982" lon="4.93795">
        <ele>182.8</ele>
        <time>2024-09-18T11:01:48Z</time>
      </trkpt>
      <trkpt lat="46.69816" lon="4.93799">
        <ele>182.8</ele>
        <time>2024-09-18T11:01:49Z</time>
      </trkpt>
      <trkpt lat="46.69812" lon="4.93803">
        <ele>182.8</ele>
        <time>2024-09-18T11:01:50Z</time>
      </trkpt>
      <trkpt lat="46.69808" lon="4.93807">
        <ele>183</ele>
        <time>2024-09-18T11:01:51Z</time>
      </trkpt>
      <trkpt lat="46.69804" lon="4.93811">
        <ele>183.4</ele>
        <time>2024-09-18T11:01:52Z</time>
      </trkpt>
      <trkpt lat="46.698" lon="4.93814">
        <ele>183.4</ele>
        <time>2024-09-18T11:01:53Z</time>
      </trkpt>
      <trkpt lat="46.69796" lon="4.93818">
        <ele>183.4</ele>
        <time>2024-09-18T11:01:54Z</time>
      </trkpt>
      <trkpt lat="46.69792" lon="4.93821">
        <ele>183.4</ele>
        <time>2024-09-18T11:01:55Z</time>
      </trkpt>
      <trkpt lat="46.69788" lon="4.93825">
        <ele>183.4</ele>
        <time>2024-09-18T11:01:56Z</time>
      </trkpt>
      <trkpt lat="46.69784" lon="4.93828">
        <ele>183</ele>
        <time>2024-09-18T11:01:57Z</time>
      </trkpt>
      <trkpt lat="46.6978" lon="4.93831">
        <ele>183</ele>
        <time>2024-09-18T11:01:58Z</time>
      </trkpt>
      <trkpt lat="46.69776" lon="4.93835">
        <ele>183</ele>
        <time>2024-09-18T11:01:59Z</time>
      </trkpt>
      <trkpt lat="46.69772" lon="4.93838">
        <ele>183</ele>
        <time>2024-09-18T11:02:00Z</time>
      </trkpt>
      <trkpt lat="46.69768" lon="4.93842">
        <ele>183</ele>
        <time>2024-09-18T11:02:01Z</time>
      </trkpt>
      <trkpt lat="46.69764" lon="4.93846">
        <ele>183.4</ele>
        <time>2024-09-18T11:02:02Z</time>
      </trkpt>
      <trkpt lat="46.6976" lon="4.9385">
        <ele>183.4</ele>
        <time>2024-09-18T11:02:03Z</time>
      </trkpt>
      <trkpt lat="46.69756" lon="4.93854">
        <ele>183.4</ele>
        <time>2024-09-18T11:02:04Z</time>
      </trkpt>
      <trkpt lat="46.69753" lon="4.93858">
        <ele>183.4</ele>
        <time>2024-09-18T11:02:05Z</time>
      </trkpt>
      <trkpt lat="46.69749" lon="4.93863">
        <ele>183.2</ele>
        <time>2024-09-18T11:02:06Z</time>
      </trkpt>
      <trkpt lat="46.69745" lon="4.93867">
        <ele>182.6</ele>
        <time>2024-09-18T11:02:07Z</time>
      </trkpt>
      <trkpt lat="46.69741" lon="4.9387">
        <ele>182.6</ele>
        <time>2024-09-18T11:02:08Z</time>
      </trkpt>
      <trkpt lat="46.69737" lon="4.93874">
        <ele>182.6</ele>
        <time>2024-09-18T11:02:09Z</time>
      </trkpt>
      <trkpt lat="46.69733" lon="4.93878">
        <ele>182.8</ele>
        <time>2024-09-18T11:02:10Z</time>
      </trkpt>
      <trkpt lat="46.69728" lon="4.93882">
        <ele>183</ele>
        <time>2024-09-18T11:02:11Z</time>
      </trkpt>
      <trkpt lat="46.69724" lon="4.93885">
        <ele>183</ele>
        <time>2024-09-18T11:02:12Z</time>
      </trkpt>
      <trkpt lat="46.6972" lon="4.93888">
        <ele>183</ele>
        <time>2024-09-18T11:02:13Z</time>
      </trkpt>
      <trkpt lat="46.69716" lon="4.93891">
        <ele>183</ele>
        <time>2024-09-18T11:02:14Z</time>
      </trkpt>
      <trkpt lat="46.69712" lon="4.93895">
        <ele>182.4</ele>
        <time>2024-09-18T11:02:15Z</time>
      </trkpt>
      <trkpt lat="46.69708" lon="4.939">
        <ele>182.4</ele>
        <time>2024-09-18T11:02:16Z</time>
      </trkpt>
      <trkpt lat="46.69704" lon="4.93904">
        <ele>182.4</ele>
        <time>2024-09-18T11:02:17Z</time>
      </trkpt>
      <trkpt lat="46.697" lon="4.93907">
        <ele>183</ele>
        <time>2024-09-18T11:02:18Z</time>
      </trkpt>
      <trkpt lat="46.69696" lon="4.93911">
        <ele>183</ele>
        <time>2024-09-18T11:02:19Z</time>
      </trkpt>
      <trkpt lat="46.69692" lon="4.93914">
        <ele>183</ele>
        <time>2024-09-18T11:02:20Z</time>
      </trkpt>
      <trkpt lat="46.69688" lon="4.93918">
        <ele>183</ele>
        <time>2024-09-18T11:02:21Z</time>
      </trkpt>
      <trkpt lat="46.69683" lon="4.93921">
        <ele>183</ele>
        <time>2024-09-18T11:02:22Z</time>
      </trkpt>
      <trkpt lat="46.69679" lon="4.93924">
        <ele>183</ele>
        <time>2024-09-18T11:02:23Z</time>
      </trkpt>
      <trkpt lat="46.69676" lon="4.93928">
        <ele>183</ele>
        <time>2024-09-18T11:02:24Z</time>
      </trkpt>
      <trkpt lat="46.69672" lon="4.93932">
        <ele>183</ele>
        <time>2024-09-18T11:02:25Z</time>
      </trkpt>
      <trkpt lat="46.69668" lon="4.93935">
        <ele>183</ele>
        <time>2024-09-18T11:02:26Z</time>
      </trkpt>
      <trkpt lat="46.69664" lon="4.93939">
        <ele>183</ele>
        <time>2024-09-18T11:02:27Z</time>
      </trkpt>
      <trkpt lat="46.6966" lon="4.93942">
        <ele>183</ele>
        <time>2024-09-18T11:02:28Z</time>
      </trkpt>
      <trkpt lat="46.69656" lon="4.93946">
        <ele>183</ele>
        <time>2024-09-18T11:02:29Z</time>
      </trkpt>
      <trkpt lat="46.69651" lon="4.9395">
        <ele>183</ele>
        <time>2024-09-18T11:02:30Z</time>
      </trkpt>
      <trkpt lat="46.69647" lon="4.93954">
        <ele>183</ele>
        <time>2024-09-18T11:02:31Z</time>
      </trkpt>
      <trkpt lat="46.69643" lon="4.93957">
        <ele>183.2</ele>
        <time>2024-09-18T11:02:32Z</time>
      </trkpt>
      <trkpt lat="46.69639" lon="4.93961">
        <ele>183.2</ele>
        <time>2024-09-18T11:02:33Z</time>
      </trkpt>
      <trkpt lat="46.69635" lon="4.93965">
        <ele>183.2</ele>
        <time>2024-09-18T11:02:34Z</time>
      </trkpt>
      <trkpt lat="46.69631" lon="4.93969">
        <ele>183.2</ele>
        <time>2024-09-18T11:02:35Z</time>
      </trkpt>
      <trkpt lat="46.69627" lon="4.93972">
        <ele>183.2</ele>
        <time>2024-09-18T11:02:36Z</time>
      </trkpt>
      <trkpt lat="46.69623" lon="4.93976">
        <ele>183.2</ele>
        <time>2024-09-18T11:02:37Z</time>
      </trkpt>
      <trkpt lat="46.69619" lon="4.9398">
        <ele>183</ele>
        <time>2024-09-18T11:02:38Z</time>
      </trkpt>
      <trkpt lat="46.69615" lon="4.93983">
        <ele>183</ele>
        <time>2024-09-18T11:02:39Z</time>
      </trkpt>
      <trkpt lat="46.69611" lon="4.93987">
        <ele>183</ele>
        <time>2024-09-18T11:02:40Z</time>
      </trkpt>
      <trkpt lat="46.69607" lon="4.93991">
        <ele>182.6</ele>
        <time>2024-09-18T11:02:41Z</time>
      </trkpt>
      <trkpt lat="46.69603" lon="4.93995">
        <ele>183</ele>
        <time>2024-09-18T11:02:42Z</time>
      </trkpt>
      <trkpt lat="46.69599" lon="4.93999">
        <ele>183</ele>
        <time>2024-09-18T11:02:43Z</time>
      </trkpt>
      <trkpt lat="46.69595" lon="4.94003">
        <ele>183</ele>
        <time>2024-09-18T11:02:44Z</time>
      </trkpt>
      <trkpt lat="46.69591" lon="4.94007">
        <ele>183</ele>
        <time>2024-09-18T11:02:45Z</time>
      </trkpt>
      <trkpt lat="46.69587" lon="4.94011">
        <ele>183</ele>
        <time>2024-09-18T11:02:46Z</time>
      </trkpt>
      <trkpt lat="46.69583" lon="4.94014">
        <ele>183</ele>
        <time>2024-09-18T11:02:47Z</time>
      </trkpt>
      <trkpt lat="46.69578" lon="4.94018">
        <ele>183</ele>
        <time>2024-09-18T11:02:48Z</time>
      </trkpt>
      <trkpt lat="46.69574" lon="4.94021">
        <ele>183</ele>
        <time>2024-09-18T11:02:49Z</time>
      </trkpt>
      <trkpt lat="46.6957" lon="4.94025">
        <ele>182.6</ele>
        <time>2024-09-18T11:02:50Z</time>
      </trkpt>
      <trkpt lat="46.69566" lon="4.94029">
        <ele>182.6</ele>
        <time>2024-09-18T11:02:51Z</time>
      </trkpt>
      <trkpt lat="46.69562" lon="4.94033">
        <ele>183</ele>
        <time>2024-09-18T11:02:52Z</time>
      </trkpt>
      <trkpt lat="46.69558" lon="4.94036">
        <ele>183</ele>
        <time>2024-09-18T11:02:53Z</time>
      </trkpt>
      <trkpt lat="46.69553" lon="4.9404">
        <ele>183</ele>
        <time>2024-09-18T11:02:54Z</time>
      </trkpt>
      <trkpt lat="46.69549" lon="4.94043">
        <ele>183</ele>
        <time>2024-09-18T11:02:55Z</time>
      </trkpt>
      <trkpt lat="46.69545" lon="4.94047">
        <ele>183</ele>
        <time>2024-09-18T11:02:56Z</time>
      </trkpt>
      <trkpt lat="46.69541" lon="4.94051">
        <ele>183</ele>
        <time>2024-09-18T11:02:57Z</time>
      </trkpt>
      <trkpt lat="46.69537" lon="4.94054">
        <ele>183</ele>
        <time>2024-09-18T11:02:58Z</time>
      </trkpt>
      <trkpt lat="46.69533" lon="4.94058">
        <ele>183</ele>
        <time>2024-09-18T11:02:59Z</time>
      </trkpt>
      <trkpt lat="46.69528" lon="4.94062">
        <ele>182.8</ele>
        <time>2024-09-18T11:03:00Z</time>
      </trkpt>
      <trkpt lat="46.69524" lon="4.94066">
        <ele>182.8</ele>
        <time>2024-09-18T11:03:01Z</time>
      </trkpt>
      <trkpt lat="46.6952" lon="4.9407">
        <ele>182.8</ele>
        <time>2024-09-18T11:03:02Z</time>
      </trkpt>
      <trkpt lat="46.69516" lon="4.94073">
        <ele>183.2</ele>
        <time>2024-09-18T11:03:03Z</time>
      </trkpt>
      <trkpt lat="46.69511" lon="4.94076">
        <ele>183</ele>
        <time>2024-09-18T11:03:04Z</time>
      </trkpt>
      <trkpt lat="46.69507" lon="4.94079">
        <ele>183</ele>
        <time>2024-09-18T11:03:05Z</time>
      </trkpt>
      <trkpt lat="46.69503" lon="4.94082">
        <ele>183</ele>
        <time>2024-09-18T11:03:06Z</time>
      </trkpt>
      <trkpt lat="46.69498" lon="4.94085">
        <ele>183</ele>
        <time>2024-09-18T11:03:07Z</time>
      </trkpt>
      <trkpt lat="46.69494" lon="4.94088">
        <ele>183</ele>
        <time>2024-09-18T11:03:08Z</time>
      </trkpt>
      <trkpt lat="46.69489" lon="4.94091">
        <ele>183</ele>
        <time>2024-09-18T11:03:09Z</time>
      </trkpt>
      <trkpt lat="46.69485" lon="4.94093">
        <ele>183</ele>
        <time>2024-09-18T11:03:10Z</time>
      </trkpt>
      <trkpt lat="46.6948" lon="4.94096">
        <ele>183</ele>
        <time>2024-09-18T11:03:11Z</time>
      </trkpt>
      <trkpt lat="46.69476" lon="4.94099">
        <ele>183</ele>
        <time>2024-09-18T11:03:12Z</time>
      </trkpt>
      <trkpt lat="46.69471" lon="4.94102">
        <ele>182.8</ele>
        <time>2024-09-18T11:03:13Z</time>
      </trkpt>
      <trkpt lat="46.69467" lon="4.94105">
        <ele>182.8</ele>
        <time>2024-09-18T11:03:14Z</time>
      </trkpt>
      <trkpt lat="46.69462" lon="4.94108">
        <ele>182.8</ele>
        <time>2024-09-18T11:03:15Z</time>
      </trkpt>
      <trkpt lat="46.69457" lon="4.94111">
        <ele>182.8</ele>
        <time>2024-09-18T11:03:16Z</time>
      </trkpt>
      <trkpt lat="46.69453" lon="4.94113">
        <ele>183</ele>
        <time>2024-09-18T11:03:17Z</time>
      </trkpt>
      <trkpt lat="46.69448" lon="4.94116">
        <ele>183</ele>
        <time>2024-09-18T11:03:18Z</time>
      </trkpt>
      <trkpt lat="46.69443" lon="4.94118">
        <ele>183</ele>
        <time>2024-09-18T11:03:19Z</time>
      </trkpt>
      <trkpt lat="46.69439" lon="4.94121">
        <ele>183</ele>
        <time>2024-09-18T11:03:20Z</time>
      </trkpt>
      <trkpt lat="46.69434" lon="4.94123">
        <ele>183</ele>
        <time>2024-09-18T11:03:21Z</time>
      </trkpt>
      <trkpt lat="46.6943" lon="4.94125">
        <ele>182.8</ele>
        <time>2024-09-18T11:03:22Z</time>
      </trkpt>
      <trkpt lat="46.69425" lon="4.94127">
        <ele>183</ele>
        <time>2024-09-18T11:03:23Z</time>
      </trkpt>
      <trkpt lat="46.69421" lon="4.94128">
        <ele>183</ele>
        <time>2024-09-18T11:03:24Z</time>
      </trkpt>
      <trkpt lat="46.69417" lon="4.94129">
        <ele>183</ele>
        <time>2024-09-18T11:03:25Z</time>
      </trkpt>
      <trkpt lat="46.69412" lon="4.94131">
        <ele>182.6</ele>
        <time>2024-09-18T11:03:26Z</time>
      </trkpt>
      <trkpt lat="46.69408" lon="4.94132">
        <ele>183.4</ele>
        <time>2024-09-18T11:03:27Z</time>
      </trkpt>
      <trkpt lat="46.69403" lon="4.94133">
        <ele>183.4</ele>
        <time>2024-09-18T11:03:28Z</time>
      </trkpt>
      <trkpt lat="46.69399" lon="4.94135">
        <ele>183.4</ele>
        <time>2024-09-18T11:03:29Z</time>
      </trkpt>
      <trkpt lat="46.69392" lon="4.94137">
        <ele>182.8</ele>
        <time>2024-09-18T11:03:30Z</time>
      </trkpt>
      <trkpt lat="46.69389" lon="4.94138">
        <ele>182.8</ele>
        <time>2024-09-18T11:03:31Z</time>
      </trkpt>
      <trkpt lat="46.69384" lon="4.94139">
        <ele>183.2</ele>
        <time>2024-09-18T11:03:32Z</time>
      </trkpt>
      <trkpt lat="46.69379" lon="4.94141">
        <ele>183.2</ele>
        <time>2024-09-18T11:03:33Z</time>
      </trkpt>
      <trkpt lat="46.69374" lon="4.94142">
        <ele>183.2</ele>
        <time>2024-09-18T11:03:34Z</time>
      </trkpt>
      <trkpt lat="46.6937" lon="4.94144">
        <ele>183.2</ele>
        <time>2024-09-18T11:03:35Z</time>
      </trkpt>
      <trkpt lat="46.69365" lon="4.94146">
        <ele>182.6</ele>
        <time>2024-09-18T11:03:36Z</time>
      </trkpt>
      <trkpt lat="46.6936" lon="4.94147">
        <ele>182.6</ele>
        <time>2024-09-18T11:03:37Z</time>
      </trkpt>
      <trkpt lat="46.69355" lon="4.94149">
        <ele>182.6</ele>
        <time>2024-09-18T11:03:38Z</time>
      </trkpt>
      <trkpt lat="46.6935" lon="4.94151">
        <ele>183</ele>
        <time>2024-09-18T11:03:39Z</time>
      </trkpt>
      <trkpt lat="46.69345" lon="4.94153">
        <ele>182.6</ele>
        <time>2024-09-18T11:03:40Z</time>
      </trkpt>
      <trkpt lat="46.6934" lon="4.94155">
        <ele>182.6</ele>
        <time>2024-09-18T11:03:41Z</time>
      </trkpt>
      <trkpt lat="46.69335" lon="4.94156">
        <ele>182.6</ele>
        <time>2024-09-18T11:03:42Z</time>
      </trkpt>
      <trkpt lat="46.6933" lon="4.94157">
        <ele>182.6</ele>
        <time>2024-09-18T11:03:43Z</time>
      </trkpt>
      <trkpt lat="46.69325" lon="4.94158">
        <ele>182.6</ele>
        <time>2024-09-18T11:03:44Z</time>
      </trkpt>
      <trkpt lat="46.6932" lon="4.94159">
        <ele>182.4</ele>
        <time>2024-09-18T11:03:45Z</time>
      </trkpt>
      <trkpt lat="46.69316" lon="4.94161">
        <ele>182.4</ele>
        <time>2024-09-18T11:03:46Z</time>
      </trkpt>
      <trkpt lat="46.69311" lon="4.94163">
        <ele>182.4</ele>
        <time>2024-09-18T11:03:47Z</time>
      </trkpt>
      <trkpt lat="46.69306" lon="4.94165">
        <ele>182.6</ele>
        <time>2024-09-18T11:03:48Z</time>
      </trkpt>
      <trkpt lat="46.69302" lon="4.94167">
        <ele>182.8</ele>
        <time>2024-09-18T11:03:49Z</time>
      </trkpt>
      <trkpt lat="46.69297" lon="4.94169">
        <ele>182.8</ele>
        <time>2024-09-18T11:03:50Z</time>
      </trkpt>
      <trkpt lat="46.69292" lon="4.94171">
        <ele>182.8</ele>
        <time>2024-09-18T11:03:51Z</time>
      </trkpt>
      <trkpt lat="46.69288" lon="4.94173">
        <ele>182.8</ele>
        <time>2024-09-18T11:03:52Z</time>
      </trkpt>
      <trkpt lat="46.69283" lon="4.94175">
        <ele>182.8</ele>
        <time>2024-09-18T11:03:53Z</time>
      </trkpt>
      <trkpt lat="46.69278" lon="4.94176">
        <ele>182.8</ele>
        <time>2024-09-18T11:03:54Z</time>
      </trkpt>
      <trkpt lat="46.69274" lon="4.94178">
        <ele>182.8</ele>
        <time>2024-09-18T11:03:55Z</time>
      </trkpt>
      <trkpt lat="46.69269" lon="4.9418">
        <ele>182.8</ele>
        <time>2024-09-18T11:03:56Z</time>
      </trkpt>
      <trkpt lat="46.69264" lon="4.94181">
        <ele>182.8</ele>
        <time>2024-09-18T11:03:57Z</time>
      </trkpt>
      <trkpt lat="46.6926" lon="4.94182">
        <ele>183</ele>
        <time>2024-09-18T11:03:58Z</time>
      </trkpt>
      <trkpt lat="46.69255" lon="4.94184">
        <ele>183</ele>
        <time>2024-09-18T11:03:59Z</time>
      </trkpt>
      <trkpt lat="46.6925" lon="4.94185">
        <ele>183</ele>
        <time>2024-09-18T11:04:00Z</time>
      </trkpt>
      <trkpt lat="46.69245" lon="4.94186">
        <ele>183</ele>
        <time>2024-09-18T11:04:01Z</time>
      </trkpt>
      <trkpt lat="46.6924" lon="4.94187">
        <ele>183</ele>
        <time>2024-09-18T11:04:02Z</time>
      </trkpt>
      <trkpt lat="46.69235" lon="4.94188">
        <ele>183</ele>
        <time>2024-09-18T11:04:03Z</time>
      </trkpt>
      <trkpt lat="46.6923" lon="4.9419">
        <ele>182.6</ele>
        <time>2024-09-18T11:04:04Z</time>
      </trkpt>
      <trkpt lat="46.69225" lon="4.94191">
        <ele>182.6</ele>
        <time>2024-09-18T11:04:05Z</time>
      </trkpt>
      <trkpt lat="46.6922" lon="4.94193">
        <ele>182.8</ele>
        <time>2024-09-18T11:04:06Z</time>
      </trkpt>
      <trkpt lat="46.69216" lon="4.94194">
        <ele>183</ele>
        <time>2024-09-18T11:04:07Z</time>
      </trkpt>
      <trkpt lat="46.69211" lon="4.94196">
        <ele>183</ele>
        <time>2024-09-18T11:04:08Z</time>
      </trkpt>
      <trkpt lat="46.69206" lon="4.94197">
        <ele>183</ele>
        <time>2024-09-18T11:04:09Z</time>
      </trkpt>
      <trkpt lat="46.69201" lon="4.94199">
        <ele>183</ele>
        <time>2024-09-18T11:04:10Z</time>
      </trkpt>
      <trkpt lat="46.69196" lon="4.942">
        <ele>182.6</ele>
        <time>2024-09-18T11:04:11Z</time>
      </trkpt>
      <trkpt lat="46.69191" lon="4.94201">
        <ele>182.8</ele>
        <time>2024-09-18T11:04:12Z</time>
      </trkpt>
      <trkpt lat="46.69186" lon="4.94202">
        <ele>182.8</ele>
        <time>2024-09-18T11:04:13Z</time>
      </trkpt>
      <trkpt lat="46.69181" lon="4.94204">
        <ele>182.8</ele>
        <time>2024-09-18T11:04:14Z</time>
      </trkpt>
      <trkpt lat="46.69176" lon="4.94205">
        <ele>182.8</ele>
        <time>2024-09-18T11:04:15Z</time>
      </trkpt>
      <trkpt lat="46.69171" lon="4.94206">
        <ele>182.8</ele>
        <time>2024-09-18T11:04:16Z</time>
      </trkpt>
      <trkpt lat="46.69166" lon="4.94207">
        <ele>182.8</ele>
        <time>2024-09-18T11:04:17Z</time>
      </trkpt>
      <trkpt lat="46.69161" lon="4.94207">
        <ele>182.8</ele>
        <time>2024-09-18T11:04:18Z</time>
      </trkpt>
      <trkpt lat="46.69156" lon="4.94208">
        <ele>182.8</ele>
        <time>2024-09-18T11:04:19Z</time>
      </trkpt>
      <trkpt lat="46.6915" lon="4.94208">
        <ele>183</ele>
        <time>2024-09-18T11:04:20Z</time>
      </trkpt>
      <trkpt lat="46.69145" lon="4.94209">
        <ele>183</ele>
        <time>2024-09-18T11:04:21Z</time>
      </trkpt>
      <trkpt lat="46.6914" lon="4.94209">
        <ele>183</ele>
        <time>2024-09-18T11:04:22Z</time>
      </trkpt>
      <trkpt lat="46.69135" lon="4.9421">
        <ele>183</ele>
        <time>2024-09-18T11:04:23Z</time>
      </trkpt>
      <trkpt lat="46.6913" lon="4.9421">
        <ele>182.6</ele>
        <time>2024-09-18T11:04:24Z</time>
      </trkpt>
      <trkpt lat="46.69125" lon="4.94211">
        <ele>182.6</ele>
        <time>2024-09-18T11:04:25Z</time>
      </trkpt>
      <trkpt lat="46.69119" lon="4.94212">
        <ele>182.6</ele>
        <time>2024-09-18T11:04:26Z</time>
      </trkpt>
      <trkpt lat="46.69114" lon="4.94212">
        <ele>182.6</ele>
        <time>2024-09-18T11:04:27Z</time>
      </trkpt>
      <trkpt lat="46.6911" lon="4.94213">
        <ele>182.6</ele>
        <time>2024-09-18T11:04:28Z</time>
      </trkpt>
      <trkpt lat="46.69105" lon="4.94213">
        <ele>182.4</ele>
        <time>2024-09-18T11:04:29Z</time>
      </trkpt>
      <trkpt lat="46.691" lon="4.94214">
        <ele>182.4</ele>
        <time>2024-09-18T11:04:30Z</time>
      </trkpt>
      <trkpt lat="46.69095" lon="4.94214">
        <ele>182.4</ele>
        <time>2024-09-18T11:04:31Z</time>
      </trkpt>
      <trkpt lat="46.6909" lon="4.94215">
        <ele>182.8</ele>
        <time>2024-09-18T11:04:32Z</time>
      </trkpt>
      <trkpt lat="46.69085" lon="4.94215">
        <ele>182.8</ele>
        <time>2024-09-18T11:04:33Z</time>
      </trkpt>
      <trkpt lat="46.6908" lon="4.94216">
        <ele>182.8</ele>
        <time>2024-09-18T11:04:34Z</time>
      </trkpt>
      <trkpt lat="46.69075" lon="4.94217">
        <ele>182.8</ele>
        <time>2024-09-18T11:04:35Z</time>
      </trkpt>
      <trkpt lat="46.6907" lon="4.94217">
        <ele>182.8</ele>
        <time>2024-09-18T11:04:36Z</time>
      </trkpt>
      <trkpt lat="46.69065" lon="4.94218">
        <ele>182.8</ele>
        <time>2024-09-18T11:04:37Z</time>
      </trkpt>
      <trkpt lat="46.6906" lon="4.94218">
        <ele>182.6</ele>
        <time>2024-09-18T11:04:38Z</time>
      </trkpt>
      <trkpt lat="46.69055" lon="4.94219">
        <ele>182.6</ele>
        <time>2024-09-18T11:04:39Z</time>
      </trkpt>
      <trkpt lat="46.6905" lon="4.9422">
        <ele>182.6</ele>
        <time>2024-09-18T11:04:40Z</time>
      </trkpt>
      <trkpt lat="46.69046" lon="4.9422">
        <ele>183.2</ele>
        <time>2024-09-18T11:04:41Z</time>
      </trkpt>
      <trkpt lat="46.69041" lon="4.94221">
        <ele>182</ele>
        <time>2024-09-18T11:04:42Z</time>
      </trkpt>
      <trkpt lat="46.69036" lon="4.94222">
        <ele>182</ele>
        <time>2024-09-18T11:04:43Z</time>
      </trkpt>
      <trkpt lat="46.69031" lon="4.94222">
        <ele>182</ele>
        <time>2024-09-18T11:04:44Z</time>
      </trkpt>
      <trkpt lat="46.69027" lon="4.94223">
        <ele>182</ele>
        <time>2024-09-18T11:04:45Z</time>
      </trkpt>
      <trkpt lat="46.69022" lon="4.94223">
        <ele>182.6</ele>
        <time>2024-09-18T11:04:46Z</time>
      </trkpt>
      <trkpt lat="46.69017" lon="4.94223">
        <ele>182.6</ele>
        <time>2024-09-18T11:04:47Z</time>
      </trkpt>
      <trkpt lat="46.69012" lon="4.94224">
        <ele>182.8</ele>
        <time>2024-09-18T11:04:48Z</time>
      </trkpt>
      <trkpt lat="46.69008" lon="4.94224">
        <ele>182.8</ele>
        <time>2024-09-18T11:04:49Z</time>
      </trkpt>
      <trkpt lat="46.69003" lon="4.94224">
        <ele>182.8</ele>
        <time>2024-09-18T11:04:50Z</time>
      </trkpt>
      <trkpt lat="46.68998" lon="4.94225">
        <ele>182.8</ele>
        <time>2024-09-18T11:04:51Z</time>
      </trkpt>
      <trkpt lat="46.68993" lon="4.94225">
        <ele>182.6</ele>
        <time>2024-09-18T11:04:52Z</time>
      </trkpt>
      <trkpt lat="46.68988" lon="4.94225">
        <ele>182.6</ele>
        <time>2024-09-18T11:04:53Z</time>
      </trkpt>
      <trkpt lat="46.68983" lon="4.94225">
        <ele>182.6</ele>
        <time>2024-09-18T11:04:54Z</time>
      </trkpt>
      <trkpt lat="46.68979" lon="4.94225">
        <ele>182.6</ele>
        <time>2024-09-18T11:04:55Z</time>
      </trkpt>
      <trkpt lat="46.68974" lon="4.94226">
        <ele>183</ele>
        <time>2024-09-18T11:04:56Z</time>
      </trkpt>
      <trkpt lat="46.68969" lon="4.94226">
        <ele>183</ele>
        <time>2024-09-18T11:04:57Z</time>
      </trkpt>
      <trkpt lat="46.68964" lon="4.94226">
        <ele>183</ele>
        <time>2024-09-18T11:04:58Z</time>
      </trkpt>
      <trkpt lat="46.68959" lon="4.94226">
        <ele>183</ele>
        <time>2024-09-18T11:04:59Z</time>
      </trkpt>
      <trkpt lat="46.68955" lon="4.94227">
        <ele>183</ele>
        <time>2024-09-18T11:05:00Z</time>
      </trkpt>
      <trkpt lat="46.6895" lon="4.94227">
        <ele>182.8</ele>
        <time>2024-09-18T11:05:01Z</time>
      </trkpt>
      <trkpt lat="46.68945" lon="4.94227">
        <ele>182.8</ele>
        <time>2024-09-18T11:05:02Z</time>
      </trkpt>
      <trkpt lat="46.6894" lon="4.94228">
        <ele>182.8</ele>
        <time>2024-09-18T11:05:03Z</time>
      </trkpt>
      <trkpt lat="46.68936" lon="4.94229">
        <ele>182.8</ele>
        <time>2024-09-18T11:05:04Z</time>
      </trkpt>
      <trkpt lat="46.68931" lon="4.94229">
        <ele>182.8</ele>
        <time>2024-09-18T11:05:05Z</time>
      </trkpt>
      <trkpt lat="46.68926" lon="4.9423">
        <ele>182.8</ele>
        <time>2024-09-18T11:05:06Z</time>
      </trkpt>
      <trkpt lat="46.68921" lon="4.94231">
        <ele>182.8</ele>
        <time>2024-09-18T11:05:07Z</time>
      </trkpt>
      <trkpt lat="46.68917" lon="4.94232">
        <ele>182.8</ele>
        <time>2024-09-18T11:05:08Z</time>
      </trkpt>
      <trkpt lat="46.68912" lon="4.94232">
        <ele>182.8</ele>
        <time>2024-09-18T11:05:09Z</time>
      </trkpt>
      <trkpt lat="46.68906" lon="4.94233">
        <ele>182.8</ele>
        <time>2024-09-18T11:05:10Z</time>
      </trkpt>
      <trkpt lat="46.68901" lon="4.94234">
        <ele>182.8</ele>
        <time>2024-09-18T11:05:11Z</time>
      </trkpt>
      <trkpt lat="46.68896" lon="4.94234">
        <ele>182.6</ele>
        <time>2024-09-18T11:05:12Z</time>
      </trkpt>
      <trkpt lat="46.68891" lon="4.94235">
        <ele>182.4</ele>
        <time>2024-09-18T11:05:13Z</time>
      </trkpt>
      <trkpt lat="46.68887" lon="4.94236">
        <ele>182.4</ele>
        <time>2024-09-18T11:05:14Z</time>
      </trkpt>
      <trkpt lat="46.68882" lon="4.94237">
        <ele>182.4</ele>
        <time>2024-09-18T11:05:15Z</time>
      </trkpt>
      <trkpt lat="46.68877" lon="4.94238">
        <ele>182.4</ele>
        <time>2024-09-18T11:05:16Z</time>
      </trkpt>
      <trkpt lat="46.68872" lon="4.94239">
        <ele>182.6</ele>
        <time>2024-09-18T11:05:17Z</time>
      </trkpt>
      <trkpt lat="46.68868" lon="4.94239">
        <ele>182.4</ele>
        <time>2024-09-18T11:05:18Z</time>
      </trkpt>
      <trkpt lat="46.68863" lon="4.9424">
        <ele>182.4</ele>
        <time>2024-09-18T11:05:19Z</time>
      </trkpt>
      <trkpt lat="46.68858" lon="4.94241">
        <ele>182.4</ele>
        <time>2024-09-18T11:05:20Z</time>
      </trkpt>
      <trkpt lat="46.68853" lon="4.94242">
        <ele>182</ele>
        <time>2024-09-18T11:05:21Z</time>
      </trkpt>
      <trkpt lat="46.68849" lon="4.94244">
        <ele>182</ele>
        <time>2024-09-18T11:05:22Z</time>
      </trkpt>
      <trkpt lat="46.68844" lon="4.94245">
        <ele>182.6</ele>
        <time>2024-09-18T11:05:23Z</time>
      </trkpt>
      <trkpt lat="46.68839" lon="4.94245">
        <ele>182.6</ele>
        <time>2024-09-18T11:05:24Z</time>
      </trkpt>
      <trkpt lat="46.68835" lon="4.94246">
        <ele>182.6</ele>
        <time>2024-09-18T11:05:25Z</time>
      </trkpt>
      <trkpt lat="46.6883" lon="4.94247">
        <ele>182.6</ele>
        <time>2024-09-18T11:05:26Z</time>
      </trkpt>
      <trkpt lat="46.68826" lon="4.94247">
        <ele>182.6</ele>
        <time>2024-09-18T11:05:27Z</time>
      </trkpt>
      <trkpt lat="46.68821" lon="4.94248">
        <ele>182.6</ele>
        <time>2024-09-18T11:05:28Z</time>
      </trkpt>
      <trkpt lat="46.68816" lon="4.94249">
        <ele>182.6</ele>
        <time>2024-09-18T11:05:29Z</time>
      </trkpt>
      <trkpt lat="46.68811" lon="4.9425">
        <ele>182.6</ele>
        <time>2024-09-18T11:05:30Z</time>
      </trkpt>
      <trkpt lat="46.68807" lon="4.94251">
        <ele>182.6</ele>
        <time>2024-09-18T11:05:31Z</time>
      </trkpt>
      <trkpt lat="46.68802" lon="4.94251">
        <ele>182.8</ele>
        <time>2024-09-18T11:05:32Z</time>
      </trkpt>
      <trkpt lat="46.68797" lon="4.94252">
        <ele>182.8</ele>
        <time>2024-09-18T11:05:33Z</time>
      </trkpt>
      <trkpt lat="46.68792" lon="4.94253">
        <ele>182.8</ele>
        <time>2024-09-18T11:05:34Z</time>
      </trkpt>
      <trkpt lat="46.68787" lon="4.94253">
        <ele>182.8</ele>
        <time>2024-09-18T11:05:35Z</time>
      </trkpt>
      <trkpt lat="46.68783" lon="4.94254">
        <ele>183</ele>
        <time>2024-09-18T11:05:36Z</time>
      </trkpt>
      <trkpt lat="46.68778" lon="4.94255">
        <ele>183</ele>
        <time>2024-09-18T11:05:37Z</time>
      </trkpt>
      <trkpt lat="46.68774" lon="4.94255">
        <ele>183</ele>
        <time>2024-09-18T11:05:38Z</time>
      </trkpt>
      <trkpt lat="46.68769" lon="4.94256">
        <ele>183</ele>
        <time>2024-09-18T11:05:39Z</time>
      </trkpt>
      <trkpt lat="46.68765" lon="4.94257">
        <ele>183</ele>
        <time>2024-09-18T11:05:40Z</time>
      </trkpt>
      <trkpt lat="46.6876" lon="4.94258">
        <ele>182.8</ele>
        <time>2024-09-18T11:05:41Z</time>
      </trkpt>
      <trkpt lat="46.68756" lon="4.94259">
        <ele>182.8</ele>
        <time>2024-09-18T11:05:42Z</time>
      </trkpt>
      <trkpt lat="46.68752" lon="4.94259">
        <ele>182.8</ele>
        <time>2024-09-18T11:05:43Z</time>
      </trkpt>
      <trkpt lat="46.68747" lon="4.94259">
        <ele>183.2</ele>
        <time>2024-09-18T11:05:44Z</time>
      </trkpt>
      <trkpt lat="46.68743" lon="4.94259">
        <ele>183.2</ele>
        <time>2024-09-18T11:05:45Z</time>
      </trkpt>
      <trkpt lat="46.68739" lon="4.94259">
        <ele>182.8</ele>
        <time>2024-09-18T11:05:46Z</time>
      </trkpt>
      <trkpt lat="46.68734" lon="4.94259">
        <ele>182.8</ele>
        <time>2024-09-18T11:05:47Z</time>
      </trkpt>
      <trkpt lat="46.68729" lon="4.94259">
        <ele>182.8</ele>
        <time>2024-09-18T11:05:48Z</time>
      </trkpt>
      <trkpt lat="46.68725" lon="4.94259">
        <ele>182.8</ele>
        <time>2024-09-18T11:05:49Z</time>
      </trkpt>
      <trkpt lat="46.6872" lon="4.94259">
        <ele>182.8</ele>
        <time>2024-09-18T11:05:50Z</time>
      </trkpt>
      <trkpt lat="46.68715" lon="4.94259">
        <ele>182.8</ele>
        <time>2024-09-18T11:05:51Z</time>
      </trkpt>
      <trkpt lat="46.68711" lon="4.9426">
        <ele>182.8</ele>
        <time>2024-09-18T11:05:52Z</time>
      </trkpt>
      <trkpt lat="46.68706" lon="4.94261">
        <ele>182.8</ele>
        <time>2024-09-18T11:05:53Z</time>
      </trkpt>
      <trkpt lat="46.68701" lon="4.94261">
        <ele>182.6</ele>
        <time>2024-09-18T11:05:54Z</time>
      </trkpt>
      <trkpt lat="46.68696" lon="4.94262">
        <ele>182.6</ele>
        <time>2024-09-18T11:05:55Z</time>
      </trkpt>
      <trkpt lat="46.68691" lon="4.94262">
        <ele>182.6</ele>
        <time>2024-09-18T11:05:56Z</time>
      </trkpt>
      <trkpt lat="46.68687" lon="4.94263">
        <ele>182.6</ele>
        <time>2024-09-18T11:05:57Z</time>
      </trkpt>
      <trkpt lat="46.68682" lon="4.94264">
        <ele>182.4</ele>
        <time>2024-09-18T11:05:58Z</time>
      </trkpt>
      <trkpt lat="46.68678" lon="4.94265">
        <ele>182.4</ele>
        <time>2024-09-18T11:05:59Z</time>
      </trkpt>
      <trkpt lat="46.68673" lon="4.94266">
        <ele>182.4</ele>
        <time>2024-09-18T11:06:00Z</time>
      </trkpt>
      <trkpt lat="46.68669" lon="4.94267">
        <ele>182.4</ele>
        <time>2024-09-18T11:06:01Z</time>
      </trkpt>
      <trkpt lat="46.68664" lon="4.94268">
        <ele>182.6</ele>
        <time>2024-09-18T11:06:02Z</time>
      </trkpt>
      <trkpt lat="46.6866" lon="4.94269">
        <ele>182.6</ele>
        <time>2024-09-18T11:06:03Z</time>
      </trkpt>
      <trkpt lat="46.68655" lon="4.9427">
        <ele>182.6</ele>
        <time>2024-09-18T11:06:04Z</time>
      </trkpt>
      <trkpt lat="46.68651" lon="4.94271">
        <ele>182.6</ele>
        <time>2024-09-18T11:06:05Z</time>
      </trkpt>
      <trkpt lat="46.68646" lon="4.94273">
        <ele>182.6</ele>
        <time>2024-09-18T11:06:06Z</time>
      </trkpt>
      <trkpt lat="46.68642" lon="4.94274">
        <ele>182.4</ele>
        <time>2024-09-18T11:06:07Z</time>
      </trkpt>
      <trkpt lat="46.68637" lon="4.94275">
        <ele>182.4</ele>
        <time>2024-09-18T11:06:08Z</time>
      </trkpt>
      <trkpt lat="46.68633" lon="4.94277">
        <ele>182.4</ele>
        <time>2024-09-18T11:06:09Z</time>
      </trkpt>
      <trkpt lat="46.68628" lon="4.94278">
        <ele>182.4</ele>
        <time>2024-09-18T11:06:10Z</time>
      </trkpt>
      <trkpt lat="46.68624" lon="4.9428">
        <ele>182.4</ele>
        <time>2024-09-18T11:06:11Z</time>
      </trkpt>
      <trkpt lat="46.68619" lon="4.94281">
        <ele>182.2</ele>
        <time>2024-09-18T11:06:12Z</time>
      </trkpt>
      <trkpt lat="46.68615" lon="4.94282">
        <ele>182.2</ele>
        <time>2024-09-18T11:06:13Z</time>
      </trkpt>
      <trkpt lat="46.6861" lon="4.94283">
        <ele>182.2</ele>
        <time>2024-09-18T11:06:14Z</time>
      </trkpt>
      <trkpt lat="46.68606" lon="4.94284">
        <ele>182.2</ele>
        <time>2024-09-18T11:06:15Z</time>
      </trkpt>
      <trkpt lat="46.68601" lon="4.94286">
        <ele>182.2</ele>
        <time>2024-09-18T11:06:16Z</time>
      </trkpt>
      <trkpt lat="46.68596" lon="4.94287">
        <ele>182.2</ele>
        <time>2024-09-18T11:06:17Z</time>
      </trkpt>
      <trkpt lat="46.68592" lon="4.94288">
        <ele>182.2</ele>
        <time>2024-09-18T11:06:18Z</time>
      </trkpt>
      <trkpt lat="46.68587" lon="4.9429">
        <ele>182.2</ele>
        <time>2024-09-18T11:06:19Z</time>
      </trkpt>
      <trkpt lat="46.68583" lon="4.94291">
        <ele>182.2</ele>
        <time>2024-09-18T11:06:20Z</time>
      </trkpt>
      <trkpt lat="46.68578" lon="4.94292">
        <ele>182.2</ele>
        <time>2024-09-18T11:06:21Z</time>
      </trkpt>
      <trkpt lat="46.68573" lon="4.94294">
        <ele>182</ele>
        <time>2024-09-18T11:06:22Z</time>
      </trkpt>
      <trkpt lat="46.68569" lon="4.94295">
        <ele>182</ele>
        <time>2024-09-18T11:06:23Z</time>
      </trkpt>
      <trkpt lat="46.68564" lon="4.94296">
        <ele>182.6</ele>
        <time>2024-09-18T11:06:24Z</time>
      </trkpt>
      <trkpt lat="46.68559" lon="4.94297">
        <ele>182.2</ele>
        <time>2024-09-18T11:06:25Z</time>
      </trkpt>
      <trkpt lat="46.68555" lon="4.94298">
        <ele>182.2</ele>
        <time>2024-09-18T11:06:26Z</time>
      </trkpt>
      <trkpt lat="46.68551" lon="4.943">
        <ele>182.2</ele>
        <time>2024-09-18T11:06:27Z</time>
      </trkpt>
      <trkpt lat="46.68546" lon="4.94301">
        <ele>182.2</ele>
        <time>2024-09-18T11:06:28Z</time>
      </trkpt>
      <trkpt lat="46.68542" lon="4.94302">
        <ele>182.2</ele>
        <time>2024-09-18T11:06:29Z</time>
      </trkpt>
      <trkpt lat="46.68537" lon="4.94303">
        <ele>182</ele>
        <time>2024-09-18T11:06:30Z</time>
      </trkpt>
      <trkpt lat="46.68532" lon="4.94305">
        <ele>182</ele>
        <time>2024-09-18T11:06:31Z</time>
      </trkpt>
      <trkpt lat="46.68528" lon="4.94306">
        <ele>182</ele>
        <time>2024-09-18T11:06:32Z</time>
      </trkpt>
      <trkpt lat="46.68523" lon="4.94308">
        <ele>182</ele>
        <time>2024-09-18T11:06:33Z</time>
      </trkpt>
      <trkpt lat="46.68519" lon="4.94309">
        <ele>182</ele>
        <time>2024-09-18T11:06:34Z</time>
      </trkpt>
      <trkpt lat="46.68514" lon="4.9431">
        <ele>182</ele>
        <time>2024-09-18T11:06:35Z</time>
      </trkpt>
      <trkpt lat="46.6851" lon="4.94311">
        <ele>182</ele>
        <time>2024-09-18T11:06:36Z</time>
      </trkpt>
      <trkpt lat="46.68506" lon="4.94312">
        <ele>182</ele>
        <time>2024-09-18T11:06:37Z</time>
      </trkpt>
      <trkpt lat="46.68501" lon="4.94313">
        <ele>182.4</ele>
        <time>2024-09-18T11:06:38Z</time>
      </trkpt>
      <trkpt lat="46.68497" lon="4.94314">
        <ele>182.4</ele>
        <time>2024-09-18T11:06:39Z</time>
      </trkpt>
      <trkpt lat="46.68492" lon="4.94315">
        <ele>182.4</ele>
        <time>2024-09-18T11:06:40Z</time>
      </trkpt>
      <trkpt lat="46.68488" lon="4.94316">
        <ele>182.4</ele>
        <time>2024-09-18T11:06:41Z</time>
      </trkpt>
      <trkpt lat="46.68483" lon="4.94317">
        <ele>182.4</ele>
        <time>2024-09-18T11:06:42Z</time>
      </trkpt>
      <trkpt lat="46.68478" lon="4.94319">
        <ele>182.2</ele>
        <time>2024-09-18T11:06:43Z</time>
      </trkpt>
      <trkpt lat="46.68473" lon="4.9432">
        <ele>182.2</ele>
        <time>2024-09-18T11:06:44Z</time>
      </trkpt>
      <trkpt lat="46.68469" lon="4.94321">
        <ele>182.2</ele>
        <time>2024-09-18T11:06:45Z</time>
      </trkpt>
      <trkpt lat="46.68464" lon="4.94322">
        <ele>182.2</ele>
        <time>2024-09-18T11:06:46Z</time>
      </trkpt>
      <trkpt lat="46.68459" lon="4.94323">
        <ele>182.2</ele>
        <time>2024-09-18T11:06:47Z</time>
      </trkpt>
      <trkpt lat="46.68455" lon="4.94324">
        <ele>182.2</ele>
        <time>2024-09-18T11:06:48Z</time>
      </trkpt>
      <trkpt lat="46.6845" lon="4.94325">
        <ele>182.2</ele>
        <time>2024-09-18T11:06:49Z</time>
      </trkpt>
      <trkpt lat="46.68445" lon="4.94326">
        <ele>182.2</ele>
        <time>2024-09-18T11:06:50Z</time>
      </trkpt>
      <trkpt lat="46.6844" lon="4.94327">
        <ele>182</ele>
        <time>2024-09-18T11:06:51Z</time>
      </trkpt>
      <trkpt lat="46.68435" lon="4.94328">
        <ele>182</ele>
        <time>2024-09-18T11:06:52Z</time>
      </trkpt>
      <trkpt lat="46.6843" lon="4.94329">
        <ele>182</ele>
        <time>2024-09-18T11:06:53Z</time>
      </trkpt>
      <trkpt lat="46.68425" lon="4.9433">
        <ele>182</ele>
        <time>2024-09-18T11:06:54Z</time>
      </trkpt>
      <trkpt lat="46.6842" lon="4.94331">
        <ele>182</ele>
        <time>2024-09-18T11:06:55Z</time>
      </trkpt>
      <trkpt lat="46.68415" lon="4.94331">
        <ele>182</ele>
        <time>2024-09-18T11:06:56Z</time>
      </trkpt>
      <trkpt lat="46.68411" lon="4.94332">
        <ele>182.2</ele>
        <time>2024-09-18T11:06:57Z</time>
      </trkpt>
      <trkpt lat="46.68406" lon="4.94334">
        <ele>182.2</ele>
        <time>2024-09-18T11:06:58Z</time>
      </trkpt>
      <trkpt lat="46.68401" lon="4.94335">
        <ele>182.2</ele>
        <time>2024-09-18T11:06:59Z</time>
      </trkpt>
      <trkpt lat="46.68396" lon="4.94335">
        <ele>182.2</ele>
        <time>2024-09-18T11:07:00Z</time>
      </trkpt>
      <trkpt lat="46.68392" lon="4.94336">
        <ele>182.2</ele>
        <time>2024-09-18T11:07:01Z</time>
      </trkpt>
      <trkpt lat="46.68387" lon="4.94336">
        <ele>182.2</ele>
        <time>2024-09-18T11:07:02Z</time>
      </trkpt>
      <trkpt lat="46.68383" lon="4.94337">
        <ele>182.2</ele>
        <time>2024-09-18T11:07:03Z</time>
      </trkpt>
      <trkpt lat="46.68378" lon="4.94338">
        <ele>182.2</ele>
        <time>2024-09-18T11:07:04Z</time>
      </trkpt>
      <trkpt lat="46.68373" lon="4.94339">
        <ele>182.2</ele>
        <time>2024-09-18T11:07:05Z</time>
      </trkpt>
      <trkpt lat="46.68368" lon="4.94339">
        <ele>182.2</ele>
        <time>2024-09-18T11:07:06Z</time>
      </trkpt>
      <trkpt lat="46.68363" lon="4.9434">
        <ele>182.2</ele>
        <time>2024-09-18T11:07:07Z</time>
      </trkpt>
      <trkpt lat="46.68358" lon="4.94341">
        <ele>182.2</ele>
        <time>2024-09-18T11:07:08Z</time>
      </trkpt>
      <trkpt lat="46.68353" lon="4.94342">
        <ele>182.2</ele>
        <time>2024-09-18T11:07:09Z</time>
      </trkpt>
      <trkpt lat="46.68348" lon="4.94343">
        <ele>182.2</ele>
        <time>2024-09-18T11:07:10Z</time>
      </trkpt>
      <trkpt lat="46.68343" lon="4.94344">
        <ele>182.2</ele>
        <time>2024-09-18T11:07:11Z</time>
      </trkpt>
      <trkpt lat="46.68338" lon="4.94345">
        <ele>182.2</ele>
        <time>2024-09-18T11:07:12Z</time>
      </trkpt>
      <trkpt lat="46.68334" lon="4.94347">
        <ele>182.2</ele>
        <time>2024-09-18T11:07:13Z</time>
      </trkpt>
      <trkpt lat="46.68329" lon="4.94348">
        <ele>182.2</ele>
        <time>2024-09-18T11:07:14Z</time>
      </trkpt>
      <trkpt lat="46.68324" lon="4.9435">
        <ele>182.2</ele>
        <time>2024-09-18T11:07:15Z</time>
      </trkpt>
      <trkpt lat="46.68319" lon="4.94352">
        <ele>182.2</ele>
        <time>2024-09-18T11:07:16Z</time>
      </trkpt>
      <trkpt lat="46.68314" lon="4.94353">
        <ele>182.2</ele>
        <time>2024-09-18T11:07:17Z</time>
      </trkpt>
      <trkpt lat="46.68309" lon="4.94355">
        <ele>182.2</ele>
        <time>2024-09-18T11:07:18Z</time>
      </trkpt>
      <trkpt lat="46.68304" lon="4.94357">
        <ele>182.4</ele>
        <time>2024-09-18T11:07:19Z</time>
      </trkpt>
      <trkpt lat="46.68299" lon="4.94359">
        <ele>182.4</ele>
        <time>2024-09-18T11:07:20Z</time>
      </trkpt>
      <trkpt lat="46.68295" lon="4.9436">
        <ele>182.4</ele>
        <time>2024-09-18T11:07:21Z</time>
      </trkpt>
      <trkpt lat="46.6829" lon="4.94362">
        <ele>182.2</ele>
        <time>2024-09-18T11:07:22Z</time>
      </trkpt>
      <trkpt lat="46.68285" lon="4.94363">
        <ele>182.2</ele>
        <time>2024-09-18T11:07:23Z</time>
      </trkpt>
      <trkpt lat="46.68281" lon="4.94365">
        <ele>182.4</ele>
        <time>2024-09-18T11:07:24Z</time>
      </trkpt>
      <trkpt lat="46.68276" lon="4.94367">
        <ele>182.4</ele>
        <time>2024-09-18T11:07:25Z</time>
      </trkpt>
      <trkpt lat="46.68272" lon="4.94368">
        <ele>182.4</ele>
        <time>2024-09-18T11:07:26Z</time>
      </trkpt>
      <trkpt lat="46.68265" lon="4.94371">
        <ele>182.6</ele>
        <time>2024-09-18T11:07:27Z</time>
      </trkpt>
      <trkpt lat="46.68263" lon="4.94372">
        <ele>182.6</ele>
        <time>2024-09-18T11:07:28Z</time>
      </trkpt>
      <trkpt lat="46.68258" lon="4.94374">
        <ele>182.6</ele>
        <time>2024-09-18T11:07:29Z</time>
      </trkpt>
      <trkpt lat="46.68254" lon="4.94375">
        <ele>182.6</ele>
        <time>2024-09-18T11:07:30Z</time>
      </trkpt>
      <trkpt lat="46.6825" lon="4.94376">
        <ele>182.6</ele>
        <time>2024-09-18T11:07:31Z</time>
      </trkpt>
      <trkpt lat="46.68243" lon="4.94378">
        <ele>182.2</ele>
        <time>2024-09-18T11:07:32Z</time>
      </trkpt>
      <trkpt lat="46.68241" lon="4.94378">
        <ele>182.2</ele>
        <time>2024-09-18T11:07:33Z</time>
      </trkpt>
      <trkpt lat="46.68236" lon="4.94379">
        <ele>182.2</ele>
        <time>2024-09-18T11:07:34Z</time>
      </trkpt>
      <trkpt lat="46.68232" lon="4.94381">
        <ele>182.2</ele>
        <time>2024-09-18T11:07:35Z</time>
      </trkpt>
      <trkpt lat="46.68227" lon="4.94382">
        <ele>182.2</ele>
        <time>2024-09-18T11:07:36Z</time>
      </trkpt>
      <trkpt lat="46.68222" lon="4.94384">
        <ele>182.6</ele>
        <time>2024-09-18T11:07:37Z</time>
      </trkpt>
      <trkpt lat="46.68217" lon="4.94386">
        <ele>182.6</ele>
        <time>2024-09-18T11:07:38Z</time>
      </trkpt>
      <trkpt lat="46.68212" lon="4.94388">
        <ele>182.6</ele>
        <time>2024-09-18T11:07:39Z</time>
      </trkpt>
      <trkpt lat="46.68208" lon="4.9439">
        <ele>182.6</ele>
        <time>2024-09-18T11:07:40Z</time>
      </trkpt>
      <trkpt lat="46.68203" lon="4.94392">
        <ele>182.4</ele>
        <time>2024-09-18T11:07:41Z</time>
      </trkpt>
      <trkpt lat="46.68198" lon="4.94393">
        <ele>182.4</ele>
        <time>2024-09-18T11:07:42Z</time>
      </trkpt>
      <trkpt lat="46.68194" lon="4.94395">
        <ele>182.4</ele>
        <time>2024-09-18T11:07:43Z</time>
      </trkpt>
      <trkpt lat="46.68189" lon="4.94397">
        <ele>182.4</ele>
        <time>2024-09-18T11:07:44Z</time>
      </trkpt>
      <trkpt lat="46.68184" lon="4.94399">
        <ele>182.6</ele>
        <time>2024-09-18T11:07:45Z</time>
      </trkpt>
      <trkpt lat="46.6818" lon="4.94401">
        <ele>182.6</ele>
        <time>2024-09-18T11:07:46Z</time>
      </trkpt>
      <trkpt lat="46.68176" lon="4.94402">
        <ele>182.6</ele>
        <time>2024-09-18T11:07:47Z</time>
      </trkpt>
      <trkpt lat="46.68171" lon="4.94404">
        <ele>182.6</ele>
        <time>2024-09-18T11:07:48Z</time>
      </trkpt>
      <trkpt lat="46.68167" lon="4.94405">
        <ele>182.6</ele>
        <time>2024-09-18T11:07:49Z</time>
      </trkpt>
      <trkpt lat="46.68163" lon="4.94407">
        <ele>182.8</ele>
        <time>2024-09-18T11:07:50Z</time>
      </trkpt>
      <trkpt lat="46.68158" lon="4.94408">
        <ele>182.8</ele>
        <time>2024-09-18T11:07:51Z</time>
      </trkpt>
      <trkpt lat="46.68154" lon="4.94409">
        <ele>182.8</ele>
        <time>2024-09-18T11:07:52Z</time>
      </trkpt>
      <trkpt lat="46.68149" lon="4.9441">
        <ele>182.8</ele>
        <time>2024-09-18T11:07:53Z</time>
      </trkpt>
      <trkpt lat="46.68145" lon="4.94411">
        <ele>182.8</ele>
        <time>2024-09-18T11:07:54Z</time>
      </trkpt>
      <trkpt lat="46.6814" lon="4.94413">
        <ele>182.4</ele>
        <time>2024-09-18T11:07:55Z</time>
      </trkpt>
      <trkpt lat="46.68136" lon="4.94414">
        <ele>182.4</ele>
        <time>2024-09-18T11:07:56Z</time>
      </trkpt>
      <trkpt lat="46.68131" lon="4.94416">
        <ele>182.4</ele>
        <time>2024-09-18T11:07:57Z</time>
      </trkpt>
      <trkpt lat="46.68127" lon="4.94417">
        <ele>182.4</ele>
        <time>2024-09-18T11:07:58Z</time>
      </trkpt>
      <trkpt lat="46.68122" lon="4.94418">
        <ele>182.6</ele>
        <time>2024-09-18T11:07:59Z</time>
      </trkpt>
      <trkpt lat="46.68117" lon="4.9442">
        <ele>182.6</ele>
        <time>2024-09-18T11:08:00Z</time>
      </trkpt>
      <trkpt lat="46.68113" lon="4.94421">
        <ele>182.6</ele>
        <time>2024-09-18T11:08:01Z</time>
      </trkpt>
      <trkpt lat="46.68109" lon="4.94422">
        <ele>182.6</ele>
        <time>2024-09-18T11:08:02Z</time>
      </trkpt>
      <trkpt lat="46.68105" lon="4.94423">
        <ele>182.6</ele>
        <time>2024-09-18T11:08:03Z</time>
      </trkpt>
      <trkpt lat="46.681" lon="4.94425">
        <ele>183</ele>
        <time>2024-09-18T11:08:04Z</time>
      </trkpt>
      <trkpt lat="46.68096" lon="4.94426">
        <ele>183</ele>
        <time>2024-09-18T11:08:05Z</time>
      </trkpt>
      <trkpt lat="46.68091" lon="4.94428">
        <ele>183</ele>
        <time>2024-09-18T11:08:06Z</time>
      </trkpt>
      <trkpt lat="46.68087" lon="4.94429">
        <ele>183</ele>
        <time>2024-09-18T11:08:07Z</time>
      </trkpt>
      <trkpt lat="46.68082" lon="4.9443">
        <ele>182.8</ele>
        <time>2024-09-18T11:08:08Z</time>
      </trkpt>
      <trkpt lat="46.68078" lon="4.94432">
        <ele>182.8</ele>
        <time>2024-09-18T11:08:09Z</time>
      </trkpt>
      <trkpt lat="46.68073" lon="4.94434">
        <ele>182.8</ele>
        <time>2024-09-18T11:08:10Z</time>
      </trkpt>
      <trkpt lat="46.68069" lon="4.94436">
        <ele>182.8</ele>
        <time>2024-09-18T11:08:11Z</time>
      </trkpt>
      <trkpt lat="46.68064" lon="4.94438">
        <ele>182.6</ele>
        <time>2024-09-18T11:08:12Z</time>
      </trkpt>
      <trkpt lat="46.68059" lon="4.9444">
        <ele>182.6</ele>
        <time>2024-09-18T11:08:13Z</time>
      </trkpt>
      <trkpt lat="46.68055" lon="4.94441">
        <ele>182.6</ele>
        <time>2024-09-18T11:08:14Z</time>
      </trkpt>
      <trkpt lat="46.6805" lon="4.94443">
        <ele>183</ele>
        <time>2024-09-18T11:08:15Z</time>
      </trkpt>
      <trkpt lat="46.68045" lon="4.94445">
        <ele>183</ele>
        <time>2024-09-18T11:08:16Z</time>
      </trkpt>
      <trkpt lat="46.68041" lon="4.94447">
        <ele>183</ele>
        <time>2024-09-18T11:08:17Z</time>
      </trkpt>
      <trkpt lat="46.68036" lon="4.94449">
        <ele>182.8</ele>
        <time>2024-09-18T11:08:18Z</time>
      </trkpt>
      <trkpt lat="46.68031" lon="4.94451">
        <ele>182.8</ele>
        <time>2024-09-18T11:08:19Z</time>
      </trkpt>
      <trkpt lat="46.68026" lon="4.94453">
        <ele>183</ele>
        <time>2024-09-18T11:08:20Z</time>
      </trkpt>
      <trkpt lat="46.68021" lon="4.94455">
        <ele>183</ele>
        <time>2024-09-18T11:08:21Z</time>
      </trkpt>
      <trkpt lat="46.68017" lon="4.94457">
        <ele>182.8</ele>
        <time>2024-09-18T11:08:22Z</time>
      </trkpt>
      <trkpt lat="46.68012" lon="4.94459">
        <ele>182.8</ele>
        <time>2024-09-18T11:08:23Z</time>
      </trkpt>
      <trkpt lat="46.68007" lon="4.94461">
        <ele>182.8</ele>
        <time>2024-09-18T11:08:24Z</time>
      </trkpt>
      <trkpt lat="46.68002" lon="4.94464">
        <ele>182.8</ele>
        <time>2024-09-18T11:08:25Z</time>
      </trkpt>
      <trkpt lat="46.67998" lon="4.94466">
        <ele>182.8</ele>
        <time>2024-09-18T11:08:26Z</time>
      </trkpt>
      <trkpt lat="46.67993" lon="4.94469">
        <ele>182.8</ele>
        <time>2024-09-18T11:08:27Z</time>
      </trkpt>
      <trkpt lat="46.67986" lon="4.94473">
        <ele>182.8</ele>
        <time>2024-09-18T11:08:28Z</time>
      </trkpt>
      <trkpt lat="46.67984" lon="4.94474">
        <ele>182.8</ele>
        <time>2024-09-18T11:08:29Z</time>
      </trkpt>
      <trkpt lat="46.67979" lon="4.94476">
        <ele>183</ele>
        <time>2024-09-18T11:08:30Z</time>
      </trkpt>
      <trkpt lat="46.67975" lon="4.94478">
        <ele>183</ele>
        <time>2024-09-18T11:08:31Z</time>
      </trkpt>
      <trkpt lat="46.6797" lon="4.9448">
        <ele>183</ele>
        <time>2024-09-18T11:08:32Z</time>
      </trkpt>
      <trkpt lat="46.67966" lon="4.94483">
        <ele>183</ele>
        <time>2024-09-18T11:08:33Z</time>
      </trkpt>
      <trkpt lat="46.67961" lon="4.94485">
        <ele>183</ele>
        <time>2024-09-18T11:08:34Z</time>
      </trkpt>
      <trkpt lat="46.67956" lon="4.94486">
        <ele>182.8</ele>
        <time>2024-09-18T11:08:35Z</time>
      </trkpt>
      <trkpt lat="46.67952" lon="4.94488">
        <ele>182.8</ele>
        <time>2024-09-18T11:08:36Z</time>
      </trkpt>
      <trkpt lat="46.67947" lon="4.9449">
        <ele>182.8</ele>
        <time>2024-09-18T11:08:37Z</time>
      </trkpt>
      <trkpt lat="46.67943" lon="4.94492">
        <ele>182.8</ele>
        <time>2024-09-18T11:08:38Z</time>
      </trkpt>
      <trkpt lat="46.67938" lon="4.94495">
        <ele>183</ele>
        <time>2024-09-18T11:08:39Z</time>
      </trkpt>
      <trkpt lat="46.67933" lon="4.94497">
        <ele>183</ele>
        <time>2024-09-18T11:08:40Z</time>
      </trkpt>
      <trkpt lat="46.67928" lon="4.945">
        <ele>183</ele>
        <time>2024-09-18T11:08:41Z</time>
      </trkpt>
      <trkpt lat="46.67923" lon="4.94502">
        <ele>183</ele>
        <time>2024-09-18T11:08:42Z</time>
      </trkpt>
      <trkpt lat="46.67918" lon="4.94505">
        <ele>183</ele>
        <time>2024-09-18T11:08:43Z</time>
      </trkpt>
      <trkpt lat="46.67913" lon="4.94507">
        <ele>183.2</ele>
        <time>2024-09-18T11:08:44Z</time>
      </trkpt>
      <trkpt lat="46.67908" lon="4.9451">
        <ele>183.2</ele>
        <time>2024-09-18T11:08:45Z</time>
      </trkpt>
      <trkpt lat="46.67903" lon="4.94513">
        <ele>183.2</ele>
        <time>2024-09-18T11:08:46Z</time>
      </trkpt>
      <trkpt lat="46.67899" lon="4.94516">
        <ele>182.8</ele>
        <time>2024-09-18T11:08:47Z</time>
      </trkpt>
      <trkpt lat="46.67894" lon="4.94518">
        <ele>182.8</ele>
        <time>2024-09-18T11:08:48Z</time>
      </trkpt>
      <trkpt lat="46.67889" lon="4.94521">
        <ele>182.8</ele>
        <time>2024-09-18T11:08:49Z</time>
      </trkpt>
      <trkpt lat="46.67884" lon="4.94524">
        <ele>182.8</ele>
        <time>2024-09-18T11:08:50Z</time>
      </trkpt>
      <trkpt lat="46.6788" lon="4.94526">
        <ele>182.8</ele>
        <time>2024-09-18T11:08:51Z</time>
      </trkpt>
      <trkpt lat="46.67875" lon="4.9453">
        <ele>182.6</ele>
        <time>2024-09-18T11:08:52Z</time>
      </trkpt>
      <trkpt lat="46.6787" lon="4.94533">
        <ele>182.6</ele>
        <time>2024-09-18T11:08:53Z</time>
      </trkpt>
      <trkpt lat="46.67865" lon="4.94536">
        <ele>182.6</ele>
        <time>2024-09-18T11:08:54Z</time>
      </trkpt>
      <trkpt lat="46.67861" lon="4.94538">
        <ele>182.6</ele>
        <time>2024-09-18T11:08:55Z</time>
      </trkpt>
      <trkpt lat="46.67856" lon="4.94541">
        <ele>182.4</ele>
        <time>2024-09-18T11:08:56Z</time>
      </trkpt>
      <trkpt lat="46.67851" lon="4.94543">
        <ele>182.4</ele>
        <time>2024-09-18T11:08:57Z</time>
      </trkpt>
      <trkpt lat="46.67846" lon="4.94545">
        <ele>182.4</ele>
        <time>2024-09-18T11:08:58Z</time>
      </trkpt>
      <trkpt lat="46.67841" lon="4.94547">
        <ele>182.4</ele>
        <time>2024-09-18T11:08:59Z</time>
      </trkpt>
      <trkpt lat="46.67836" lon="4.9455">
        <ele>182.4</ele>
        <time>2024-09-18T11:09:00Z</time>
      </trkpt>
      <trkpt lat="46.67831" lon="4.94551">
        <ele>182.4</ele>
        <time>2024-09-18T11:09:01Z</time>
      </trkpt>
      <trkpt lat="46.67827" lon="4.94553">
        <ele>182.6</ele>
        <time>2024-09-18T11:09:02Z</time>
      </trkpt>
      <trkpt lat="46.67822" lon="4.94555">
        <ele>182.6</ele>
        <time>2024-09-18T11:09:03Z</time>
      </trkpt>
      <trkpt lat="46.67817" lon="4.94557">
        <ele>182.6</ele>
        <time>2024-09-18T11:09:04Z</time>
      </trkpt>
      <trkpt lat="46.67812" lon="4.94559">
        <ele>182.6</ele>
        <time>2024-09-18T11:09:05Z</time>
      </trkpt>
      <trkpt lat="46.67808" lon="4.94561">
        <ele>182.6</ele>
        <time>2024-09-18T11:09:06Z</time>
      </trkpt>
      <trkpt lat="46.67803" lon="4.94563">
        <ele>183</ele>
        <time>2024-09-18T11:09:07Z</time>
      </trkpt>
      <trkpt lat="46.67798" lon="4.94564">
        <ele>183</ele>
        <time>2024-09-18T11:09:08Z</time>
      </trkpt>
      <trkpt lat="46.67794" lon="4.94566">
        <ele>183</ele>
        <time>2024-09-18T11:09:09Z</time>
      </trkpt>
      <trkpt lat="46.67789" lon="4.94568">
        <ele>182.6</ele>
        <time>2024-09-18T11:09:10Z</time>
      </trkpt>
      <trkpt lat="46.67785" lon="4.94569">
        <ele>182.4</ele>
        <time>2024-09-18T11:09:11Z</time>
      </trkpt>
      <trkpt lat="46.67781" lon="4.94571">
        <ele>182.4</ele>
        <time>2024-09-18T11:09:12Z</time>
      </trkpt>
      <trkpt lat="46.67777" lon="4.94573">
        <ele>182.4</ele>
        <time>2024-09-18T11:09:13Z</time>
      </trkpt>
      <trkpt lat="46.67774" lon="4.94574">
        <ele>182.4</ele>
        <time>2024-09-18T11:09:14Z</time>
      </trkpt>
      <trkpt lat="46.67771" lon="4.94575">
        <ele>182.4</ele>
        <time>2024-09-18T11:09:15Z</time>
      </trkpt>
      <trkpt lat="46.67768" lon="4.94576">
        <ele>182.4</ele>
        <time>2024-09-18T11:09:16Z</time>
      </trkpt>
      <trkpt lat="46.67766" lon="4.94576">
        <ele>182.4</ele>
        <time>2024-09-18T11:09:17Z</time>
      </trkpt>
      <trkpt lat="46.67765" lon="4.94576">
        <ele>182.4</ele>
        <time>2024-09-18T11:09:18Z</time>
      </trkpt>
      <trkpt lat="46.67764" lon="4.94577">
        <ele>182.4</ele>
        <time>2024-09-18T11:09:19Z</time>
      </trkpt>
      <trkpt lat="46.67763" lon="4.94577">
        <ele>182.4</ele>
        <time>2024-09-18T11:09:20Z</time>
      </trkpt>
      <trkpt lat="46.67759" lon="4.94578">
        <ele>182.4</ele>
        <time>2024-09-18T11:10:43Z</time>
      </trkpt>
      <trkpt lat="46.67757" lon="4.94579">
        <ele>182.4</ele>
        <time>2024-09-18T11:10:44Z</time>
      </trkpt>
      <trkpt lat="46.67755" lon="4.9458">
        <ele>182.4</ele>
        <time>2024-09-18T11:10:45Z</time>
      </trkpt>
      <trkpt lat="46.67752" lon="4.94581">
        <ele>182.4</ele>
        <time>2024-09-18T11:10:46Z</time>
      </trkpt>
      <trkpt lat="46.67749" lon="4.94583">
        <ele>182.2</ele>
        <time>2024-09-18T11:10:47Z</time>
      </trkpt>
      <trkpt lat="46.67746" lon="4.94584">
        <ele>182.2</ele>
        <time>2024-09-18T11:10:48Z</time>
      </trkpt>
      <trkpt lat="46.67743" lon="4.94585">
        <ele>182.2</ele>
        <time>2024-09-18T11:10:49Z</time>
      </trkpt>
      <trkpt lat="46.6774" lon="4.94586">
        <ele>182.2</ele>
        <time>2024-09-18T11:10:50Z</time>
      </trkpt>
      <trkpt lat="46.67736" lon="4.94588">
        <ele>182.6</ele>
        <time>2024-09-18T11:10:51Z</time>
      </trkpt>
      <trkpt lat="46.67733" lon="4.94589">
        <ele>182.4</ele>
        <time>2024-09-18T11:10:52Z</time>
      </trkpt>
      <trkpt lat="46.67729" lon="4.94591">
        <ele>182.4</ele>
        <time>2024-09-18T11:10:53Z</time>
      </trkpt>
      <trkpt lat="46.67726" lon="4.94592">
        <ele>182.4</ele>
        <time>2024-09-18T11:10:54Z</time>
      </trkpt>
      <trkpt lat="46.67722" lon="4.94593">
        <ele>182.4</ele>
        <time>2024-09-18T11:10:55Z</time>
      </trkpt>
      <trkpt lat="46.67719" lon="4.94595">
        <ele>182.4</ele>
        <time>2024-09-18T11:10:56Z</time>
      </trkpt>
      <trkpt lat="46.67715" lon="4.94596">
        <ele>182.4</ele>
        <time>2024-09-18T11:10:57Z</time>
      </trkpt>
      <trkpt lat="46.67711" lon="4.94597">
        <ele>182.4</ele>
        <time>2024-09-18T11:10:58Z</time>
      </trkpt>
      <trkpt lat="46.67707" lon="4.94598">
        <ele>182.4</ele>
        <time>2024-09-18T11:10:59Z</time>
      </trkpt>
      <trkpt lat="46.67704" lon="4.946">
        <ele>182.4</ele>
        <time>2024-09-18T11:11:00Z</time>
      </trkpt>
      <trkpt lat="46.677" lon="4.94601">
        <ele>182.4</ele>
        <time>2024-09-18T11:11:01Z</time>
      </trkpt>
      <trkpt lat="46.67696" lon="4.94602">
        <ele>182.8</ele>
        <time>2024-09-18T11:11:02Z</time>
      </trkpt>
      <trkpt lat="46.67692" lon="4.94603">
        <ele>182.8</ele>
        <time>2024-09-18T11:11:03Z</time>
      </trkpt>
      <trkpt lat="46.67687" lon="4.94605">
        <ele>182.8</ele>
        <time>2024-09-18T11:11:04Z</time>
      </trkpt>
      <trkpt lat="46.67683" lon="4.94606">
        <ele>182.8</ele>
        <time>2024-09-18T11:11:05Z</time>
      </trkpt>
      <trkpt lat="46.67679" lon="4.94607">
        <ele>182.6</ele>
        <time>2024-09-18T11:11:06Z</time>
      </trkpt>
      <trkpt lat="46.67675" lon="4.94607">
        <ele>182.6</ele>
        <time>2024-09-18T11:11:07Z</time>
      </trkpt>
      <trkpt lat="46.6767" lon="4.94608">
        <ele>182.6</ele>
        <time>2024-09-18T11:11:08Z</time>
      </trkpt>
      <trkpt lat="46.67666" lon="4.94609">
        <ele>182.6</ele>
        <time>2024-09-18T11:11:09Z</time>
      </trkpt>
      <trkpt lat="46.67662" lon="4.9461">
        <ele>182.6</ele>
        <time>2024-09-18T11:11:10Z</time>
      </trkpt>
      <trkpt lat="46.67657" lon="4.94611">
        <ele>183</ele>
        <time>2024-09-18T11:11:11Z</time>
      </trkpt>
      <trkpt lat="46.67653" lon="4.94612">
        <ele>183</ele>
        <time>2024-09-18T11:11:12Z</time>
      </trkpt>
      <trkpt lat="46.67649" lon="4.94613">
        <ele>183</ele>
        <time>2024-09-18T11:11:13Z</time>
      </trkpt>
      <trkpt lat="46.67645" lon="4.94615">
        <ele>183</ele>
        <time>2024-09-18T11:11:14Z</time>
      </trkpt>
      <trkpt lat="46.6764" lon="4.94616">
        <ele>182.8</ele>
        <time>2024-09-18T11:11:15Z</time>
      </trkpt>
      <trkpt lat="46.67636" lon="4.94617">
        <ele>182.8</ele>
        <time>2024-09-18T11:11:16Z</time>
      </trkpt>
      <trkpt lat="46.67631" lon="4.94618">
        <ele>182.8</ele>
        <time>2024-09-18T11:11:17Z</time>
      </trkpt>
      <trkpt lat="46.67627" lon="4.94619">
        <ele>182.8</ele>
        <time>2024-09-18T11:11:18Z</time>
      </trkpt>
      <trkpt lat="46.67622" lon="4.94621">
        <ele>183</ele>
        <time>2024-09-18T11:11:19Z</time>
      </trkpt>
      <trkpt lat="46.67618" lon="4.94622">
        <ele>183</ele>
        <time>2024-09-18T11:11:20Z</time>
      </trkpt>
      <trkpt lat="46.67613" lon="4.94623">
        <ele>183</ele>
        <time>2024-09-18T11:11:21Z</time>
      </trkpt>
      <trkpt lat="46.67609" lon="4.94624">
        <ele>183</ele>
        <time>2024-09-18T11:11:22Z</time>
      </trkpt>
      <trkpt lat="46.67604" lon="4.94626">
        <ele>183</ele>
        <time>2024-09-18T11:11:23Z</time>
      </trkpt>
      <trkpt lat="46.676" lon="4.94627">
        <ele>182.6</ele>
        <time>2024-09-18T11:11:24Z</time>
      </trkpt>
      <trkpt lat="46.67595" lon="4.94628">
        <ele>182.6</ele>
        <time>2024-09-18T11:11:25Z</time>
      </trkpt>
      <trkpt lat="46.67591" lon="4.94629">
        <ele>182.6</ele>
        <time>2024-09-18T11:11:26Z</time>
      </trkpt>
      <trkpt lat="46.67586" lon="4.94631">
        <ele>182.8</ele>
        <time>2024-09-18T11:11:27Z</time>
      </trkpt>
      <trkpt lat="46.67581" lon="4.94632">
        <ele>183.2</ele>
        <time>2024-09-18T11:11:28Z</time>
      </trkpt>
      <trkpt lat="46.67577" lon="4.94633">
        <ele>183.2</ele>
        <time>2024-09-18T11:11:29Z</time>
      </trkpt>
      <trkpt lat="46.67572" lon="4.94634">
        <ele>183.2</ele>
        <time>2024-09-18T11:11:30Z</time>
      </trkpt>
      <trkpt lat="46.67568" lon="4.94635">
        <ele>183.2</ele>
        <time>2024-09-18T11:11:31Z</time>
      </trkpt>
      <trkpt lat="46.67563" lon="4.94637">
        <ele>183</ele>
        <time>2024-09-18T11:11:32Z</time>
      </trkpt>
      <trkpt lat="46.67559" lon="4.94638">
        <ele>183</ele>
        <time>2024-09-18T11:11:33Z</time>
      </trkpt>
      <trkpt lat="46.67554" lon="4.94639">
        <ele>183</ele>
        <time>2024-09-18T11:11:34Z</time>
      </trkpt>
      <trkpt lat="46.6755" lon="4.9464">
        <ele>183</ele>
        <time>2024-09-18T11:11:35Z</time>
      </trkpt>
      <trkpt lat="46.67546" lon="4.94641">
        <ele>183</ele>
        <time>2024-09-18T11:11:36Z</time>
      </trkpt>
      <trkpt lat="46.67541" lon="4.94642">
        <ele>183</ele>
        <time>2024-09-18T11:11:37Z</time>
      </trkpt>
      <trkpt lat="46.67537" lon="4.94644">
        <ele>183</ele>
        <time>2024-09-18T11:11:38Z</time>
      </trkpt>
      <trkpt lat="46.67533" lon="4.94645">
        <ele>183</ele>
        <time>2024-09-18T11:11:39Z</time>
      </trkpt>
      <trkpt lat="46.67529" lon="4.94647">
        <ele>183</ele>
        <time>2024-09-18T11:11:40Z</time>
      </trkpt>
      <trkpt lat="46.67525" lon="4.94648">
        <ele>183</ele>
        <time>2024-09-18T11:11:41Z</time>
      </trkpt>
      <trkpt lat="46.67521" lon="4.94649">
        <ele>183</ele>
        <time>2024-09-18T11:11:42Z</time>
      </trkpt>
      <trkpt lat="46.67517" lon="4.94651">
        <ele>183</ele>
        <time>2024-09-18T11:11:43Z</time>
      </trkpt>
      <trkpt lat="46.67512" lon="4.94651">
        <ele>183</ele>
        <time>2024-09-18T11:11:44Z</time>
      </trkpt>
      <trkpt lat="46.67508" lon="4.94652">
        <ele>183.2</ele>
        <time>2024-09-18T11:11:45Z</time>
      </trkpt>
      <trkpt lat="46.67503" lon="4.94653">
        <ele>183.4</ele>
        <time>2024-09-18T11:11:46Z</time>
      </trkpt>
      <trkpt lat="46.67499" lon="4.94654">
        <ele>183.4</ele>
        <time>2024-09-18T11:11:47Z</time>
      </trkpt>
      <trkpt lat="46.67495" lon="4.94655">
        <ele>183.4</ele>
        <time>2024-09-18T11:11:48Z</time>
      </trkpt>
      <trkpt lat="46.67491" lon="4.94657">
        <ele>183.4</ele>
        <time>2024-09-18T11:11:49Z</time>
      </trkpt>
      <trkpt lat="46.67486" lon="4.94658">
        <ele>183.4</ele>
        <time>2024-09-18T11:11:50Z</time>
      </trkpt>
      <trkpt lat="46.67482" lon="4.94659">
        <ele>183.6</ele>
        <time>2024-09-18T11:11:51Z</time>
      </trkpt>
      <trkpt lat="46.67478" lon="4.9466">
        <ele>183.6</ele>
        <time>2024-09-18T11:11:52Z</time>
      </trkpt>
      <trkpt lat="46.67473" lon="4.94661">
        <ele>183.6</ele>
        <time>2024-09-18T11:11:53Z</time>
      </trkpt>
      <trkpt lat="46.67469" lon="4.94663">
        <ele>183.6</ele>
        <time>2024-09-18T11:11:54Z</time>
      </trkpt>
      <trkpt lat="46.67465" lon="4.94664">
        <ele>183</ele>
        <time>2024-09-18T11:11:55Z</time>
      </trkpt>
      <trkpt lat="46.6746" lon="4.94665">
        <ele>183</ele>
        <time>2024-09-18T11:11:56Z</time>
      </trkpt>
      <trkpt lat="46.67456" lon="4.94667">
        <ele>183</ele>
        <time>2024-09-18T11:11:57Z</time>
      </trkpt>
      <trkpt lat="46.67451" lon="4.94668">
        <ele>183</ele>
        <time>2024-09-18T11:11:58Z</time>
      </trkpt>
      <trkpt lat="46.67447" lon="4.94669">
        <ele>183.6</ele>
        <time>2024-09-18T11:11:59Z</time>
      </trkpt>
      <trkpt lat="46.67442" lon="4.94671">
        <ele>183.6</ele>
        <time>2024-09-18T11:12:00Z</time>
      </trkpt>
      <trkpt lat="46.67438" lon="4.94673">
        <ele>183.6</ele>
        <time>2024-09-18T11:12:01Z</time>
      </trkpt>
      <trkpt lat="46.67433" lon="4.94674">
        <ele>183.6</ele>
        <time>2024-09-18T11:12:02Z</time>
      </trkpt>
      <trkpt lat="46.67428" lon="4.94675">
        <ele>183.6</ele>
        <time>2024-09-18T11:12:03Z</time>
      </trkpt>
      <trkpt lat="46.67424" lon="4.94676">
        <ele>183.6</ele>
        <time>2024-09-18T11:12:04Z</time>
      </trkpt>
      <trkpt lat="46.67419" lon="4.94678">
        <ele>183.6</ele>
        <time>2024-09-18T11:12:05Z</time>
      </trkpt>
      <trkpt lat="46.67415" lon="4.9468">
        <ele>183.6</ele>
        <time>2024-09-18T11:12:06Z</time>
      </trkpt>
      <trkpt lat="46.67411" lon="4.94681">
        <ele>183.6</ele>
        <time>2024-09-18T11:12:07Z</time>
      </trkpt>
      <trkpt lat="46.67406" lon="4.94682">
        <ele>183.4</ele>
        <time>2024-09-18T11:12:08Z</time>
      </trkpt>
      <trkpt lat="46.67402" lon="4.94683">
        <ele>183.4</ele>
        <time>2024-09-18T11:12:09Z</time>
      </trkpt>
      <trkpt lat="46.67397" lon="4.94684">
        <ele>183.4</ele>
        <time>2024-09-18T11:12:10Z</time>
      </trkpt>
      <trkpt lat="46.67393" lon="4.94685">
        <ele>183.4</ele>
        <time>2024-09-18T11:12:11Z</time>
      </trkpt>
      <trkpt lat="46.67388" lon="4.94687">
        <ele>183.4</ele>
        <time>2024-09-18T11:12:12Z</time>
      </trkpt>
      <trkpt lat="46.67384" lon="4.94688">
        <ele>183.2</ele>
        <time>2024-09-18T11:12:13Z</time>
      </trkpt>
      <trkpt lat="46.67379" lon="4.94689">
        <ele>183.2</ele>
        <time>2024-09-18T11:12:14Z</time>
      </trkpt>
      <trkpt lat="46.67375" lon="4.94689">
        <ele>183.2</ele>
        <time>2024-09-18T11:12:15Z</time>
      </trkpt>
      <trkpt lat="46.6737" lon="4.9469">
        <ele>183.4</ele>
        <time>2024-09-18T11:12:16Z</time>
      </trkpt>
      <trkpt lat="46.67366" lon="4.9469">
        <ele>183</ele>
        <time>2024-09-18T11:12:17Z</time>
      </trkpt>
      <trkpt lat="46.67361" lon="4.94691">
        <ele>183</ele>
        <time>2024-09-18T11:12:18Z</time>
      </trkpt>
      <trkpt lat="46.67357" lon="4.94693">
        <ele>183</ele>
        <time>2024-09-18T11:12:19Z</time>
      </trkpt>
      <trkpt lat="46.67352" lon="4.94693">
        <ele>183.6</ele>
        <time>2024-09-18T11:12:20Z</time>
      </trkpt>
      <trkpt lat="46.67347" lon="4.94694">
        <ele>183.4</ele>
        <time>2024-09-18T11:12:21Z</time>
      </trkpt>
      <trkpt lat="46.67343" lon="4.94694">
        <ele>183.4</ele>
        <time>2024-09-18T11:12:22Z</time>
      </trkpt>
      <trkpt lat="46.67338" lon="4.94695">
        <ele>183.4</ele>
        <time>2024-09-18T11:12:23Z</time>
      </trkpt>
      <trkpt lat="46.67333" lon="4.94697">
        <ele>183.4</ele>
        <time>2024-09-18T11:12:24Z</time>
      </trkpt>
      <trkpt lat="46.67329" lon="4.94698">
        <ele>183.4</ele>
        <time>2024-09-18T11:12:25Z</time>
      </trkpt>
      <trkpt lat="46.67324" lon="4.94701">
        <ele>183</ele>
        <time>2024-09-18T11:12:26Z</time>
      </trkpt>
      <trkpt lat="46.6732" lon="4.94703">
        <ele>183.2</ele>
        <time>2024-09-18T11:12:27Z</time>
      </trkpt>
      <trkpt lat="46.67316" lon="4.94705">
        <ele>183.2</ele>
        <time>2024-09-18T11:12:28Z</time>
      </trkpt>
      <trkpt lat="46.67312" lon="4.94708">
        <ele>183.2</ele>
        <time>2024-09-18T11:12:29Z</time>
      </trkpt>
      <trkpt lat="46.67307" lon="4.94709">
        <ele>183.2</ele>
        <time>2024-09-18T11:12:30Z</time>
      </trkpt>
      <trkpt lat="46.67303" lon="4.94711">
        <ele>183.2</ele>
        <time>2024-09-18T11:12:31Z</time>
      </trkpt>
      <trkpt lat="46.67299" lon="4.94712">
        <ele>183.4</ele>
        <time>2024-09-18T11:12:32Z</time>
      </trkpt>
      <trkpt lat="46.67294" lon="4.94713">
        <ele>183.4</ele>
        <time>2024-09-18T11:12:33Z</time>
      </trkpt>
      <trkpt lat="46.67289" lon="4.94714">
        <ele>182.8</ele>
        <time>2024-09-18T11:12:34Z</time>
      </trkpt>
      <trkpt lat="46.67284" lon="4.94715">
        <ele>182.8</ele>
        <time>2024-09-18T11:12:35Z</time>
      </trkpt>
      <trkpt lat="46.67279" lon="4.94716">
        <ele>183</ele>
        <time>2024-09-18T11:12:36Z</time>
      </trkpt>
      <trkpt lat="46.67275" lon="4.94717">
        <ele>183</ele>
        <time>2024-09-18T11:12:37Z</time>
      </trkpt>
      <trkpt lat="46.6727" lon="4.94718">
        <ele>183</ele>
        <time>2024-09-18T11:12:38Z</time>
      </trkpt>
      <trkpt lat="46.67265" lon="4.94719">
        <ele>183.2</ele>
        <time>2024-09-18T11:12:39Z</time>
      </trkpt>
      <trkpt lat="46.6726" lon="4.9472">
        <ele>183</ele>
        <time>2024-09-18T11:12:40Z</time>
      </trkpt>
      <trkpt lat="46.67256" lon="4.94721">
        <ele>183</ele>
        <time>2024-09-18T11:12:41Z</time>
      </trkpt>
      <trkpt lat="46.67252" lon="4.94721">
        <ele>183</ele>
        <time>2024-09-18T11:12:42Z</time>
      </trkpt>
      <trkpt lat="46.67247" lon="4.94722">
        <ele>182.6</ele>
        <time>2024-09-18T11:12:43Z</time>
      </trkpt>
      <trkpt lat="46.67243" lon="4.94723">
        <ele>182.8</ele>
        <time>2024-09-18T11:12:44Z</time>
      </trkpt>
      <trkpt lat="46.67238" lon="4.94723">
        <ele>182.8</ele>
        <time>2024-09-18T11:12:45Z</time>
      </trkpt>
      <trkpt lat="46.67233" lon="4.94724">
        <ele>182.8</ele>
        <time>2024-09-18T11:12:46Z</time>
      </trkpt>
      <trkpt lat="46.67229" lon="4.94724">
        <ele>182.8</ele>
        <time>2024-09-18T11:12:47Z</time>
      </trkpt>
      <trkpt lat="46.67224" lon="4.94724">
        <ele>182.8</ele>
        <time>2024-09-18T11:12:48Z</time>
      </trkpt>
      <trkpt lat="46.67219" lon="4.94725">
        <ele>182.6</ele>
        <time>2024-09-18T11:12:49Z</time>
      </trkpt>
      <trkpt lat="46.67214" lon="4.94726">
        <ele>182.6</ele>
        <time>2024-09-18T11:12:50Z</time>
      </trkpt>
      <trkpt lat="46.6721" lon="4.94727">
        <ele>182.6</ele>
        <time>2024-09-18T11:12:51Z</time>
      </trkpt>
      <trkpt lat="46.67205" lon="4.94728">
        <ele>182.6</ele>
        <time>2024-09-18T11:12:52Z</time>
      </trkpt>
      <trkpt lat="46.672" lon="4.94729">
        <ele>182.6</ele>
        <time>2024-09-18T11:12:53Z</time>
      </trkpt>
      <trkpt lat="46.67195" lon="4.9473">
        <ele>182.6</ele>
        <time>2024-09-18T11:12:54Z</time>
      </trkpt>
      <trkpt lat="46.67191" lon="4.94731">
        <ele>182.6</ele>
        <time>2024-09-18T11:12:55Z</time>
      </trkpt>
      <trkpt lat="46.67186" lon="4.94732">
        <ele>182.6</ele>
        <time>2024-09-18T11:12:56Z</time>
      </trkpt>
      <trkpt lat="46.67181" lon="4.94733">
        <ele>182.8</ele>
        <time>2024-09-18T11:12:57Z</time>
      </trkpt>
      <trkpt lat="46.67177" lon="4.94734">
        <ele>182.8</ele>
        <time>2024-09-18T11:12:58Z</time>
      </trkpt>
      <trkpt lat="46.67172" lon="4.94735">
        <ele>182.8</ele>
        <time>2024-09-18T11:12:59Z</time>
      </trkpt>
      <trkpt lat="46.67167" lon="4.94735">
        <ele>182.8</ele>
        <time>2024-09-18T11:13:00Z</time>
      </trkpt>
      <trkpt lat="46.67162" lon="4.94736">
        <ele>182.8</ele>
        <time>2024-09-18T11:13:01Z</time>
      </trkpt>
      <trkpt lat="46.67157" lon="4.94736">
        <ele>182.8</ele>
        <time>2024-09-18T11:13:02Z</time>
      </trkpt>
      <trkpt lat="46.67153" lon="4.94736">
        <ele>182.8</ele>
        <time>2024-09-18T11:13:03Z</time>
      </trkpt>
      <trkpt lat="46.67148" lon="4.94736">
        <ele>182.8</ele>
        <time>2024-09-18T11:13:04Z</time>
      </trkpt>
      <trkpt lat="46.67143" lon="4.94736">
        <ele>182.8</ele>
        <time>2024-09-18T11:13:05Z</time>
      </trkpt>
      <trkpt lat="46.67139" lon="4.94737">
        <ele>183</ele>
        <time>2024-09-18T11:13:06Z</time>
      </trkpt>
      <trkpt lat="46.67134" lon="4.94738">
        <ele>183</ele>
        <time>2024-09-18T11:13:07Z</time>
      </trkpt>
      <trkpt lat="46.67129" lon="4.94739">
        <ele>183</ele>
        <time>2024-09-18T11:13:08Z</time>
      </trkpt>
      <trkpt lat="46.67125" lon="4.94739">
        <ele>183</ele>
        <time>2024-09-18T11:13:09Z</time>
      </trkpt>
      <trkpt lat="46.6712" lon="4.9474">
        <ele>183</ele>
        <time>2024-09-18T11:13:10Z</time>
      </trkpt>
      <trkpt lat="46.67116" lon="4.94741">
        <ele>182.8</ele>
        <time>2024-09-18T11:13:11Z</time>
      </trkpt>
      <trkpt lat="46.67111" lon="4.94742">
        <ele>182.8</ele>
        <time>2024-09-18T11:13:12Z</time>
      </trkpt>
      <trkpt lat="46.67107" lon="4.94743">
        <ele>182.8</ele>
        <time>2024-09-18T11:13:13Z</time>
      </trkpt>
      <trkpt lat="46.67102" lon="4.94744">
        <ele>182.8</ele>
        <time>2024-09-18T11:13:14Z</time>
      </trkpt>
      <trkpt lat="46.67097" lon="4.94745">
        <ele>183</ele>
        <time>2024-09-18T11:13:15Z</time>
      </trkpt>
      <trkpt lat="46.67092" lon="4.94747">
        <ele>182.8</ele>
        <time>2024-09-18T11:13:16Z</time>
      </trkpt>
      <trkpt lat="46.67088" lon="4.94748">
        <ele>182.8</ele>
        <time>2024-09-18T11:13:17Z</time>
      </trkpt>
      <trkpt lat="46.67083" lon="4.9475">
        <ele>182.8</ele>
        <time>2024-09-18T11:13:18Z</time>
      </trkpt>
      <trkpt lat="46.67078" lon="4.94751">
        <ele>182.8</ele>
        <time>2024-09-18T11:13:19Z</time>
      </trkpt>
      <trkpt lat="46.67073" lon="4.94751">
        <ele>183.2</ele>
        <time>2024-09-18T11:13:20Z</time>
      </trkpt>
      <trkpt lat="46.67068" lon="4.94752">
        <ele>183.2</ele>
        <time>2024-09-18T11:13:21Z</time>
      </trkpt>
      <trkpt lat="46.67063" lon="4.94753">
        <ele>183.2</ele>
        <time>2024-09-18T11:13:22Z</time>
      </trkpt>
      <trkpt lat="46.67058" lon="4.94753">
        <ele>182.6</ele>
        <time>2024-09-18T11:13:23Z</time>
      </trkpt>
      <trkpt lat="46.67053" lon="4.94754">
        <ele>182.8</ele>
        <time>2024-09-18T11:13:24Z</time>
      </trkpt>
      <trkpt lat="46.67048" lon="4.94755">
        <ele>182.8</ele>
        <time>2024-09-18T11:13:25Z</time>
      </trkpt>
      <trkpt lat="46.67043" lon="4.94755">
        <ele>182.8</ele>
        <time>2024-09-18T11:13:26Z</time>
      </trkpt>
      <trkpt lat="46.67039" lon="4.94756">
        <ele>182.8</ele>
        <time>2024-09-18T11:13:27Z</time>
      </trkpt>
      <trkpt lat="46.67034" lon="4.94756">
        <ele>182.4</ele>
        <time>2024-09-18T11:13:28Z</time>
      </trkpt>
      <trkpt lat="46.67029" lon="4.94756">
        <ele>183</ele>
        <time>2024-09-18T11:13:29Z</time>
      </trkpt>
      <trkpt lat="46.67024" lon="4.94757">
        <ele>183</ele>
        <time>2024-09-18T11:13:30Z</time>
      </trkpt>
      <trkpt lat="46.67019" lon="4.94757">
        <ele>183</ele>
        <time>2024-09-18T11:13:31Z</time>
      </trkpt>
      <trkpt lat="46.67014" lon="4.94758">
        <ele>182.8</ele>
        <time>2024-09-18T11:13:32Z</time>
      </trkpt>
      <trkpt lat="46.6701" lon="4.94758">
        <ele>182.8</ele>
        <time>2024-09-18T11:13:33Z</time>
      </trkpt>
      <trkpt lat="46.67005" lon="4.94759">
        <ele>182.8</ele>
        <time>2024-09-18T11:13:34Z</time>
      </trkpt>
      <trkpt lat="46.67" lon="4.9476">
        <ele>182.8</ele>
        <time>2024-09-18T11:13:35Z</time>
      </trkpt>
      <trkpt lat="46.66995" lon="4.9476">
        <ele>182.8</ele>
        <time>2024-09-18T11:13:36Z</time>
      </trkpt>
      <trkpt lat="46.66991" lon="4.94761">
        <ele>182.8</ele>
        <time>2024-09-18T11:13:37Z</time>
      </trkpt>
      <trkpt lat="46.66986" lon="4.94761">
        <ele>183</ele>
        <time>2024-09-18T11:13:38Z</time>
      </trkpt>
      <trkpt lat="46.66981" lon="4.94761">
        <ele>183</ele>
        <time>2024-09-18T11:13:39Z</time>
      </trkpt>
      <trkpt lat="46.66976" lon="4.94761">
        <ele>183</ele>
        <time>2024-09-18T11:13:40Z</time>
      </trkpt>
      <trkpt lat="46.66972" lon="4.94762">
        <ele>183</ele>
        <time>2024-09-18T11:13:41Z</time>
      </trkpt>
      <trkpt lat="46.66967" lon="4.94763">
        <ele>183</ele>
        <time>2024-09-18T11:13:42Z</time>
      </trkpt>
      <trkpt lat="46.66962" lon="4.94763">
        <ele>183.2</ele>
        <time>2024-09-18T11:13:43Z</time>
      </trkpt>
      <trkpt lat="46.66958" lon="4.94763">
        <ele>183.2</ele>
        <time>2024-09-18T11:13:44Z</time>
      </trkpt>
      <trkpt lat="46.66953" lon="4.94764">
        <ele>183.2</ele>
        <time>2024-09-18T11:13:45Z</time>
      </trkpt>
      <trkpt lat="46.66948" lon="4.94765">
        <ele>183.2</ele>
        <time>2024-09-18T11:13:46Z</time>
      </trkpt>
      <trkpt lat="46.66944" lon="4.94765">
        <ele>183.2</ele>
        <time>2024-09-18T11:13:47Z</time>
      </trkpt>
      <trkpt lat="46.66939" lon="4.94766">
        <ele>183.2</ele>
        <time>2024-09-18T11:13:48Z</time>
      </trkpt>
      <trkpt lat="46.66935" lon="4.94766">
        <ele>183.2</ele>
        <time>2024-09-18T11:13:49Z</time>
      </trkpt>
      <trkpt lat="46.6693" lon="4.94767">
        <ele>183.2</ele>
        <time>2024-09-18T11:13:50Z</time>
      </trkpt>
      <trkpt lat="46.66925" lon="4.94768">
        <ele>182.8</ele>
        <time>2024-09-18T11:13:51Z</time>
      </trkpt>
      <trkpt lat="46.66921" lon="4.94769">
        <ele>182.8</ele>
        <time>2024-09-18T11:13:52Z</time>
      </trkpt>
      <trkpt lat="46.66916" lon="4.94769">
        <ele>182.8</ele>
        <time>2024-09-18T11:13:53Z</time>
      </trkpt>
      <trkpt lat="46.66912" lon="4.94769">
        <ele>182.8</ele>
        <time>2024-09-18T11:13:54Z</time>
      </trkpt>
      <trkpt lat="46.66907" lon="4.9477">
        <ele>182.8</ele>
        <time>2024-09-18T11:13:55Z</time>
      </trkpt>
      <trkpt lat="46.66903" lon="4.9477">
        <ele>182.8</ele>
        <time>2024-09-18T11:13:56Z</time>
      </trkpt>
      <trkpt lat="46.66898" lon="4.94771">
        <ele>182.8</ele>
        <time>2024-09-18T11:13:57Z</time>
      </trkpt>
      <trkpt lat="46.66894" lon="4.94772">
        <ele>182.8</ele>
        <time>2024-09-18T11:13:58Z</time>
      </trkpt>
      <trkpt lat="46.66889" lon="4.94772">
        <ele>182.8</ele>
        <time>2024-09-18T11:13:59Z</time>
      </trkpt>
      <trkpt lat="46.66885" lon="4.94773">
        <ele>182.8</ele>
        <time>2024-09-18T11:14:00Z</time>
      </trkpt>
      <trkpt lat="46.66881" lon="4.94774">
        <ele>182.8</ele>
        <time>2024-09-18T11:14:01Z</time>
      </trkpt>
      <trkpt lat="46.66876" lon="4.94774">
        <ele>182.8</ele>
        <time>2024-09-18T11:14:02Z</time>
      </trkpt>
      <trkpt lat="46.66872" lon="4.94775">
        <ele>182.8</ele>
        <time>2024-09-18T11:14:03Z</time>
      </trkpt>
      <trkpt lat="46.66868" lon="4.94776">
        <ele>182.8</ele>
        <time>2024-09-18T11:14:04Z</time>
      </trkpt>
      <trkpt lat="46.66864" lon="4.94777">
        <ele>183</ele>
        <time>2024-09-18T11:14:05Z</time>
      </trkpt>
      <trkpt lat="46.6686" lon="4.94777">
        <ele>183</ele>
        <time>2024-09-18T11:14:06Z</time>
      </trkpt>
      <trkpt lat="46.66855" lon="4.94778">
        <ele>183</ele>
        <time>2024-09-18T11:14:07Z</time>
      </trkpt>
      <trkpt lat="46.66851" lon="4.94778">
        <ele>182.6</ele>
        <time>2024-09-18T11:14:08Z</time>
      </trkpt>
      <trkpt lat="46.66847" lon="4.94779">
        <ele>183.2</ele>
        <time>2024-09-18T11:14:09Z</time>
      </trkpt>
      <trkpt lat="46.66843" lon="4.94779">
        <ele>183.2</ele>
        <time>2024-09-18T11:14:10Z</time>
      </trkpt>
      <trkpt lat="46.66839" lon="4.94778">
        <ele>183.2</ele>
        <time>2024-09-18T11:14:11Z</time>
      </trkpt>
      <trkpt lat="46.66835" lon="4.94776">
        <ele>182.6</ele>
        <time>2024-09-18T11:14:12Z</time>
      </trkpt>
      <trkpt lat="46.66832" lon="4.94774">
        <ele>182.8</ele>
        <time>2024-09-18T11:14:13Z</time>
      </trkpt>
      <trkpt lat="46.66829" lon="4.94771">
        <ele>182.8</ele>
        <time>2024-09-18T11:14:14Z</time>
      </trkpt>
      <trkpt lat="46.66827" lon="4.94767">
        <ele>182.8</ele>
        <time>2024-09-18T11:14:15Z</time>
      </trkpt>
      <trkpt lat="46.66825" lon="4.94762">
        <ele>182.8</ele>
        <time>2024-09-18T11:14:16Z</time>
      </trkpt>
      <trkpt lat="46.66823" lon="4.94757">
        <ele>182.8</ele>
        <time>2024-09-18T11:14:17Z</time>
      </trkpt>
      <trkpt lat="46.66822" lon="4.94752">
        <ele>183</ele>
        <time>2024-09-18T11:14:18Z</time>
      </trkpt>
      <trkpt lat="46.66821" lon="4.94747">
        <ele>183</ele>
        <time>2024-09-18T11:14:19Z</time>
      </trkpt>
      <trkpt lat="46.66821" lon="4.94742">
        <ele>183</ele>
        <time>2024-09-18T11:14:20Z</time>
      </trkpt>
      <trkpt lat="46.6682" lon="4.94737">
        <ele>183.4</ele>
        <time>2024-09-18T11:14:21Z</time>
      </trkpt>
      <trkpt lat="46.66819" lon="4.94732">
        <ele>183.4</ele>
        <time>2024-09-18T11:14:22Z</time>
      </trkpt>
      <trkpt lat="46.66818" lon="4.94728">
        <ele>183.8</ele>
        <time>2024-09-18T11:14:23Z</time>
      </trkpt>
      <trkpt lat="46.66817" lon="4.94723">
        <ele>183.8</ele>
        <time>2024-09-18T11:14:24Z</time>
      </trkpt>
      <trkpt lat="46.66817" lon="4.94718">
        <ele>184</ele>
        <time>2024-09-18T11:14:25Z</time>
      </trkpt>
      <trkpt lat="46.66816" lon="4.94713">
        <ele>184.4</ele>
        <time>2024-09-18T11:14:26Z</time>
      </trkpt>
      <trkpt lat="46.66815" lon="4.94708">
        <ele>184.4</ele>
        <time>2024-09-18T11:14:27Z</time>
      </trkpt>
      <trkpt lat="46.66814" lon="4.94704">
        <ele>184.4</ele>
        <time>2024-09-18T11:14:28Z</time>
      </trkpt>
      <trkpt lat="46.66812" lon="4.94701">
        <ele>185</ele>
        <time>2024-09-18T11:14:29Z</time>
      </trkpt>
      <trkpt lat="46.66811" lon="4.94697">
        <ele>185</ele>
        <time>2024-09-18T11:14:30Z</time>
      </trkpt>
      <trkpt lat="46.6681" lon="4.94694">
        <ele>185</ele>
        <time>2024-09-18T11:14:31Z</time>
      </trkpt>
      <trkpt lat="46.66809" lon="4.9469">
        <ele>185</ele>
        <time>2024-09-18T11:14:32Z</time>
      </trkpt>
      <trkpt lat="46.66809" lon="4.94686">
        <ele>185</ele>
        <time>2024-09-18T11:14:33Z</time>
      </trkpt>
      <trkpt lat="46.66808" lon="4.94681">
        <ele>185</ele>
        <time>2024-09-18T11:14:34Z</time>
      </trkpt>
      <trkpt lat="46.66807" lon="4.94676">
        <ele>185</ele>
        <time>2024-09-18T11:14:35Z</time>
      </trkpt>
      <trkpt lat="46.66806" lon="4.94671">
        <ele>184.8</ele>
        <time>2024-09-18T11:14:36Z</time>
      </trkpt>
      <trkpt lat="46.66806" lon="4.94665">
        <ele>184.8</ele>
        <time>2024-09-18T11:14:37Z</time>
      </trkpt>
      <trkpt lat="46.66805" lon="4.94659">
        <ele>184.8</ele>
        <time>2024-09-18T11:14:38Z</time>
      </trkpt>
      <trkpt lat="46.66804" lon="4.94653">
        <ele>184.4</ele>
        <time>2024-09-18T11:14:39Z</time>
      </trkpt>
      <trkpt lat="46.66802" lon="4.94647">
        <ele>184.2</ele>
        <time>2024-09-18T11:14:40Z</time>
      </trkpt>
      <trkpt lat="46.66801" lon="4.94641">
        <ele>184.2</ele>
        <time>2024-09-18T11:14:41Z</time>
      </trkpt>
      <trkpt lat="46.66799" lon="4.94635">
        <ele>184.2</ele>
        <time>2024-09-18T11:14:42Z</time>
      </trkpt>
      <trkpt lat="46.66797" lon="4.94629">
        <ele>184.2</ele>
        <time>2024-09-18T11:14:43Z</time>
      </trkpt>
      <trkpt lat="46.66794" lon="4.94624">
        <ele>183.8</ele>
        <time>2024-09-18T11:14:44Z</time>
      </trkpt>
      <trkpt lat="46.66791" lon="4.94619">
        <ele>183.8</ele>
        <time>2024-09-18T11:14:45Z</time>
      </trkpt>
      <trkpt lat="46.66789" lon="4.94614">
        <ele>183.8</ele>
        <time>2024-09-18T11:14:46Z</time>
      </trkpt>
      <trkpt lat="46.66785" lon="4.9461">
        <ele>183.8</ele>
        <time>2024-09-18T11:14:47Z</time>
      </trkpt>
      <trkpt lat="46.66782" lon="4.94606">
        <ele>183.8</ele>
        <time>2024-09-18T11:14:48Z</time>
      </trkpt>
      <trkpt lat="46.66779" lon="4.94603">
        <ele>184.2</ele>
        <time>2024-09-18T11:14:49Z</time>
      </trkpt>
      <trkpt lat="46.66775" lon="4.946">
        <ele>184.2</ele>
        <time>2024-09-18T11:14:50Z</time>
      </trkpt>
      <trkpt lat="46.66771" lon="4.94598">
        <ele>184.2</ele>
        <time>2024-09-18T11:14:51Z</time>
      </trkpt>
      <trkpt lat="46.66767" lon="4.94596">
        <ele>184.2</ele>
        <time>2024-09-18T11:14:52Z</time>
      </trkpt>
      <trkpt lat="46.66762" lon="4.94594">
        <ele>184.2</ele>
        <time>2024-09-18T11:14:53Z</time>
      </trkpt>
      <trkpt lat="46.66758" lon="4.94593">
        <ele>184.6</ele>
        <time>2024-09-18T11:14:54Z</time>
      </trkpt>
      <trkpt lat="46.66753" lon="4.94592">
        <ele>184.6</ele>
        <time>2024-09-18T11:14:55Z</time>
      </trkpt>
      <trkpt lat="46.66749" lon="4.94592">
        <ele>184.6</ele>
        <time>2024-09-18T11:14:56Z</time>
      </trkpt>
      <trkpt lat="46.66744" lon="4.94592">
        <ele>184.6</ele>
        <time>2024-09-18T11:14:57Z</time>
      </trkpt>
      <trkpt lat="46.66739" lon="4.94591">
        <ele>184.6</ele>
        <time>2024-09-18T11:14:58Z</time>
      </trkpt>
      <trkpt lat="46.66734" lon="4.94591">
        <ele>184.4</ele>
        <time>2024-09-18T11:14:59Z</time>
      </trkpt>
      <trkpt lat="46.66729" lon="4.94591">
        <ele>184.4</ele>
        <time>2024-09-18T11:15:00Z</time>
      </trkpt>
      <trkpt lat="46.66724" lon="4.94591">
        <ele>184.8</ele>
        <time>2024-09-18T11:15:01Z</time>
      </trkpt>
      <trkpt lat="46.66719" lon="4.94591">
        <ele>184.8</ele>
        <time>2024-09-18T11:15:02Z</time>
      </trkpt>
      <trkpt lat="46.66714" lon="4.94591">
        <ele>184.8</ele>
        <time>2024-09-18T11:15:03Z</time>
      </trkpt>
      <trkpt lat="46.6671" lon="4.94591">
        <ele>184.8</ele>
        <time>2024-09-18T11:15:04Z</time>
      </trkpt>
      <trkpt lat="46.66705" lon="4.94591">
        <ele>184.8</ele>
        <time>2024-09-18T11:15:05Z</time>
      </trkpt>
      <trkpt lat="46.667" lon="4.94591">
        <ele>184.8</ele>
        <time>2024-09-18T11:15:06Z</time>
      </trkpt>
      <trkpt lat="46.66695" lon="4.94591">
        <ele>184.8</ele>
        <time>2024-09-18T11:15:07Z</time>
      </trkpt>
      <trkpt lat="46.6669" lon="4.94591">
        <ele>184.8</ele>
        <time>2024-09-18T11:15:08Z</time>
      </trkpt>
      <trkpt lat="46.66685" lon="4.94591">
        <ele>184.8</ele>
        <time>2024-09-18T11:15:09Z</time>
      </trkpt>
      <trkpt lat="46.6668" lon="4.94591">
        <ele>184.8</ele>
        <time>2024-09-18T11:15:10Z</time>
      </trkpt>
      <trkpt lat="46.66675" lon="4.94591">
        <ele>185</ele>
        <time>2024-09-18T11:15:11Z</time>
      </trkpt>
      <trkpt lat="46.6667" lon="4.94591">
        <ele>185</ele>
        <time>2024-09-18T11:15:12Z</time>
      </trkpt>
      <trkpt lat="46.66665" lon="4.94591">
        <ele>185</ele>
        <time>2024-09-18T11:15:13Z</time>
      </trkpt>
      <trkpt lat="46.6666" lon="4.94591">
        <ele>185</ele>
        <time>2024-09-18T11:15:14Z</time>
      </trkpt>
      <trkpt lat="46.66655" lon="4.94591">
        <ele>184.8</ele>
        <time>2024-09-18T11:15:15Z</time>
      </trkpt>
      <trkpt lat="46.6665" lon="4.94591">
        <ele>184.8</ele>
        <time>2024-09-18T11:15:16Z</time>
      </trkpt>
      <trkpt lat="46.66645" lon="4.94591">
        <ele>184.8</ele>
        <time>2024-09-18T11:15:17Z</time>
      </trkpt>
      <trkpt lat="46.6664" lon="4.94591">
        <ele>184.8</ele>
        <time>2024-09-18T11:15:18Z</time>
      </trkpt>
      <trkpt lat="46.66635" lon="4.94591">
        <ele>184.8</ele>
        <time>2024-09-18T11:15:19Z</time>
      </trkpt>
      <trkpt lat="46.6663" lon="4.9459">
        <ele>184.6</ele>
        <time>2024-09-18T11:15:20Z</time>
      </trkpt>
      <trkpt lat="46.66625" lon="4.9459">
        <ele>184.6</ele>
        <time>2024-09-18T11:15:21Z</time>
      </trkpt>
      <trkpt lat="46.6662" lon="4.94591">
        <ele>184.6</ele>
        <time>2024-09-18T11:15:22Z</time>
      </trkpt>
      <trkpt lat="46.66615" lon="4.94591">
        <ele>184.6</ele>
        <time>2024-09-18T11:15:23Z</time>
      </trkpt>
      <trkpt lat="46.6661" lon="4.94591">
        <ele>184.6</ele>
        <time>2024-09-18T11:15:24Z</time>
      </trkpt>
      <trkpt lat="46.66606" lon="4.94591">
        <ele>184.8</ele>
        <time>2024-09-18T11:15:25Z</time>
      </trkpt>
      <trkpt lat="46.66601" lon="4.94591">
        <ele>184.8</ele>
        <time>2024-09-18T11:15:26Z</time>
      </trkpt>
      <trkpt lat="46.66596" lon="4.94591">
        <ele>184.8</ele>
        <time>2024-09-18T11:15:27Z</time>
      </trkpt>
      <trkpt lat="46.66591" lon="4.94591">
        <ele>184.8</ele>
        <time>2024-09-18T11:15:28Z</time>
      </trkpt>
      <trkpt lat="46.66586" lon="4.94591">
        <ele>184.8</ele>
        <time>2024-09-18T11:15:29Z</time>
      </trkpt>
      <trkpt lat="46.66582" lon="4.94591">
        <ele>184.8</ele>
        <time>2024-09-18T11:15:30Z</time>
      </trkpt>
      <trkpt lat="46.66577" lon="4.94591">
        <ele>184.8</ele>
        <time>2024-09-18T11:15:31Z</time>
      </trkpt>
      <trkpt lat="46.66572" lon="4.94591">
        <ele>184.8</ele>
        <time>2024-09-18T11:15:32Z</time>
      </trkpt>
      <trkpt lat="46.66567" lon="4.94591">
        <ele>184.8</ele>
        <time>2024-09-18T11:15:33Z</time>
      </trkpt>
      <trkpt lat="46.66562" lon="4.94591">
        <ele>184.4</ele>
        <time>2024-09-18T11:15:34Z</time>
      </trkpt>
      <trkpt lat="46.66557" lon="4.94591">
        <ele>184.4</ele>
        <time>2024-09-18T11:15:35Z</time>
      </trkpt>
      <trkpt lat="46.66551" lon="4.94591">
        <ele>184.4</ele>
        <time>2024-09-18T11:15:36Z</time>
      </trkpt>
      <trkpt lat="46.66546" lon="4.94591">
        <ele>184.6</ele>
        <time>2024-09-18T11:15:37Z</time>
      </trkpt>
      <trkpt lat="46.66541" lon="4.94592">
        <ele>184.6</ele>
        <time>2024-09-18T11:15:38Z</time>
      </trkpt>
      <trkpt lat="46.66536" lon="4.94592">
        <ele>184.6</ele>
        <time>2024-09-18T11:15:39Z</time>
      </trkpt>
      <trkpt lat="46.6653" lon="4.94593">
        <ele>184.6</ele>
        <time>2024-09-18T11:15:40Z</time>
      </trkpt>
      <trkpt lat="46.66525" lon="4.94593">
        <ele>184.6</ele>
        <time>2024-09-18T11:15:41Z</time>
      </trkpt>
      <trkpt lat="46.6652" lon="4.94593">
        <ele>184.8</ele>
        <time>2024-09-18T11:15:42Z</time>
      </trkpt>
      <trkpt lat="46.66515" lon="4.94593">
        <ele>184.8</ele>
        <time>2024-09-18T11:15:43Z</time>
      </trkpt>
      <trkpt lat="46.6651" lon="4.94592">
        <ele>184.8</ele>
        <time>2024-09-18T11:15:44Z</time>
      </trkpt>
      <trkpt lat="46.66505" lon="4.94592">
        <ele>184.8</ele>
        <time>2024-09-18T11:15:45Z</time>
      </trkpt>
      <trkpt lat="46.66501" lon="4.94592">
        <ele>184.8</ele>
        <time>2024-09-18T11:15:46Z</time>
      </trkpt>
      <trkpt lat="46.66496" lon="4.94593">
        <ele>184.6</ele>
        <time>2024-09-18T11:15:47Z</time>
      </trkpt>
      <trkpt lat="46.66491" lon="4.94593">
        <ele>184.6</ele>
        <time>2024-09-18T11:15:48Z</time>
      </trkpt>
      <trkpt lat="46.66486" lon="4.94593">
        <ele>184.6</ele>
        <time>2024-09-18T11:15:49Z</time>
      </trkpt>
      <trkpt lat="46.66481" lon="4.94593">
        <ele>184.8</ele>
        <time>2024-09-18T11:15:50Z</time>
      </trkpt>
      <trkpt lat="46.66476" lon="4.94593">
        <ele>184.8</ele>
        <time>2024-09-18T11:15:51Z</time>
      </trkpt>
      <trkpt lat="46.66471" lon="4.94593">
        <ele>184.8</ele>
        <time>2024-09-18T11:15:52Z</time>
      </trkpt>
      <trkpt lat="46.66465" lon="4.94593">
        <ele>184.8</ele>
        <time>2024-09-18T11:15:53Z</time>
      </trkpt>
      <trkpt lat="46.6646" lon="4.94592">
        <ele>184.8</ele>
        <time>2024-09-18T11:15:54Z</time>
      </trkpt>
      <trkpt lat="46.66455" lon="4.94592">
        <ele>184.8</ele>
        <time>2024-09-18T11:15:55Z</time>
      </trkpt>
      <trkpt lat="46.6645" lon="4.9459">
        <ele>184.2</ele>
        <time>2024-09-18T11:15:56Z</time>
      </trkpt>
      <trkpt lat="46.66445" lon="4.94589">
        <ele>184.2</ele>
        <time>2024-09-18T11:15:57Z</time>
      </trkpt>
      <trkpt lat="46.6644" lon="4.94587">
        <ele>184.2</ele>
        <time>2024-09-18T11:15:58Z</time>
      </trkpt>
      <trkpt lat="46.66435" lon="4.94584">
        <ele>184.2</ele>
        <time>2024-09-18T11:15:59Z</time>
      </trkpt>
      <trkpt lat="46.6643" lon="4.94581">
        <ele>184.2</ele>
        <time>2024-09-18T11:16:00Z</time>
      </trkpt>
      <trkpt lat="46.66426" lon="4.94578">
        <ele>184.2</ele>
        <time>2024-09-18T11:16:01Z</time>
      </trkpt>
      <trkpt lat="46.66421" lon="4.94574">
        <ele>184.2</ele>
        <time>2024-09-18T11:16:02Z</time>
      </trkpt>
      <trkpt lat="46.66417" lon="4.9457">
        <ele>184.2</ele>
        <time>2024-09-18T11:16:03Z</time>
      </trkpt>
      <trkpt lat="46.66413" lon="4.94564">
        <ele>184.4</ele>
        <time>2024-09-18T11:16:04Z</time>
      </trkpt>
      <trkpt lat="46.6641" lon="4.94559">
        <ele>184.6</ele>
        <time>2024-09-18T11:16:05Z</time>
      </trkpt>
      <trkpt lat="46.66407" lon="4.94554">
        <ele>184.6</ele>
        <time>2024-09-18T11:16:06Z</time>
      </trkpt>
      <trkpt lat="46.66404" lon="4.94548">
        <ele>184.6</ele>
        <time>2024-09-18T11:16:07Z</time>
      </trkpt>
      <trkpt lat="46.66401" lon="4.94542">
        <ele>184.6</ele>
        <time>2024-09-18T11:16:08Z</time>
      </trkpt>
      <trkpt lat="46.66399" lon="4.94536">
        <ele>184.8</ele>
        <time>2024-09-18T11:16:09Z</time>
      </trkpt>
      <trkpt lat="46.66396" lon="4.9453">
        <ele>184.8</ele>
        <time>2024-09-18T11:16:10Z</time>
      </trkpt>
      <trkpt lat="46.66394" lon="4.94524">
        <ele>184.8</ele>
        <time>2024-09-18T11:16:11Z</time>
      </trkpt>
      <trkpt lat="46.66391" lon="4.94518">
        <ele>184.8</ele>
        <time>2024-09-18T11:16:12Z</time>
      </trkpt>
      <trkpt lat="46.66389" lon="4.94513">
        <ele>184.8</ele>
        <time>2024-09-18T11:16:13Z</time>
      </trkpt>
      <trkpt lat="46.66386" lon="4.94508">
        <ele>184.8</ele>
        <time>2024-09-18T11:16:14Z</time>
      </trkpt>
      <trkpt lat="46.66382" lon="4.94503">
        <ele>184.8</ele>
        <time>2024-09-18T11:16:15Z</time>
      </trkpt>
      <trkpt lat="46.66379" lon="4.94499">
        <ele>184.8</ele>
        <time>2024-09-18T11:16:16Z</time>
      </trkpt>
      <trkpt lat="46.66375" lon="4.94495">
        <ele>184.8</ele>
        <time>2024-09-18T11:16:17Z</time>
      </trkpt>
      <trkpt lat="46.6637" lon="4.94492">
        <ele>185.2</ele>
        <time>2024-09-18T11:16:18Z</time>
      </trkpt>
      <trkpt lat="46.66366" lon="4.9449">
        <ele>185.2</ele>
        <time>2024-09-18T11:16:19Z</time>
      </trkpt>
      <trkpt lat="46.66361" lon="4.94488">
        <ele>185.2</ele>
        <time>2024-09-18T11:16:20Z</time>
      </trkpt>
      <trkpt lat="46.66356" lon="4.94486">
        <ele>185.2</ele>
        <time>2024-09-18T11:16:21Z</time>
      </trkpt>
      <trkpt lat="46.66352" lon="4.94485">
        <ele>185.2</ele>
        <time>2024-09-18T11:16:22Z</time>
      </trkpt>
      <trkpt lat="46.66347" lon="4.94484">
        <ele>185.2</ele>
        <time>2024-09-18T11:16:23Z</time>
      </trkpt>
      <trkpt lat="46.66342" lon="4.94485">
        <ele>185.2</ele>
        <time>2024-09-18T11:16:24Z</time>
      </trkpt>
      <trkpt lat="46.66337" lon="4.94485">
        <ele>185.2</ele>
        <time>2024-09-18T11:16:25Z</time>
      </trkpt>
      <trkpt lat="46.66332" lon="4.94486">
        <ele>185.2</ele>
        <time>2024-09-18T11:16:26Z</time>
      </trkpt>
      <trkpt lat="46.66327" lon="4.94486">
        <ele>185.2</ele>
        <time>2024-09-18T11:16:27Z</time>
      </trkpt>
      <trkpt lat="46.66322" lon="4.94487">
        <ele>185.2</ele>
        <time>2024-09-18T11:16:28Z</time>
      </trkpt>
      <trkpt lat="46.66317" lon="4.94488">
        <ele>185.2</ele>
        <time>2024-09-18T11:16:29Z</time>
      </trkpt>
      <trkpt lat="46.66312" lon="4.94489">
        <ele>185.2</ele>
        <time>2024-09-18T11:16:30Z</time>
      </trkpt>
      <trkpt lat="46.66307" lon="4.9449">
        <ele>185.2</ele>
        <time>2024-09-18T11:16:31Z</time>
      </trkpt>
      <trkpt lat="46.66301" lon="4.94492">
        <ele>185</ele>
        <time>2024-09-18T11:16:32Z</time>
      </trkpt>
      <trkpt lat="46.66294" lon="4.94494">
        <ele>185</ele>
        <time>2024-09-18T11:16:33Z</time>
      </trkpt>
      <trkpt lat="46.66292" lon="4.94495">
        <ele>185</ele>
        <time>2024-09-18T11:16:34Z</time>
      </trkpt>
      <trkpt lat="46.66287" lon="4.94496">
        <ele>185</ele>
        <time>2024-09-18T11:16:35Z</time>
      </trkpt>
      <trkpt lat="46.66282" lon="4.94497">
        <ele>185</ele>
        <time>2024-09-18T11:16:36Z</time>
      </trkpt>
      <trkpt lat="46.66277" lon="4.94499">
        <ele>185.4</ele>
        <time>2024-09-18T11:16:37Z</time>
      </trkpt>
      <trkpt lat="46.66272" lon="4.945">
        <ele>185.4</ele>
        <time>2024-09-18T11:16:38Z</time>
      </trkpt>
      <trkpt lat="46.66267" lon="4.94501">
        <ele>185.4</ele>
        <time>2024-09-18T11:16:39Z</time>
      </trkpt>
      <trkpt lat="46.66262" lon="4.94502">
        <ele>185.4</ele>
        <time>2024-09-18T11:16:40Z</time>
      </trkpt>
      <trkpt lat="46.66257" lon="4.94504">
        <ele>185.4</ele>
        <time>2024-09-18T11:16:41Z</time>
      </trkpt>
      <trkpt lat="46.66253" lon="4.94505">
        <ele>185.2</ele>
        <time>2024-09-18T11:16:42Z</time>
      </trkpt>
      <trkpt lat="46.66249" lon="4.94506">
        <ele>185.2</ele>
        <time>2024-09-18T11:16:43Z</time>
      </trkpt>
      <trkpt lat="46.66244" lon="4.94506">
        <ele>185.2</ele>
        <time>2024-09-18T11:16:44Z</time>
      </trkpt>
      <trkpt lat="46.6624" lon="4.94506">
        <ele>185.2</ele>
        <time>2024-09-18T11:16:45Z</time>
      </trkpt>
      <trkpt lat="46.66236" lon="4.94507">
        <ele>186.2</ele>
        <time>2024-09-18T11:16:46Z</time>
      </trkpt>
      <trkpt lat="46.66231" lon="4.94507">
        <ele>186.2</ele>
        <time>2024-09-18T11:16:47Z</time>
      </trkpt>
      <trkpt lat="46.66225" lon="4.94508">
        <ele>186.2</ele>
        <time>2024-09-18T11:16:48Z</time>
      </trkpt>
      <trkpt lat="46.66223" lon="4.94508">
        <ele>186.2</ele>
        <time>2024-09-18T11:16:49Z</time>
      </trkpt>
      <trkpt lat="46.66219" lon="4.94508">
        <ele>186</ele>
        <time>2024-09-18T11:16:50Z</time>
      </trkpt>
      <trkpt lat="46.66215" lon="4.94508">
        <ele>186</ele>
        <time>2024-09-18T11:16:51Z</time>
      </trkpt>
      <trkpt lat="46.66212" lon="4.94509">
        <ele>186</ele>
        <time>2024-09-18T11:16:52Z</time>
      </trkpt>
      <trkpt lat="46.66208" lon="4.94509">
        <ele>186.4</ele>
        <time>2024-09-18T11:16:53Z</time>
      </trkpt>
      <trkpt lat="46.66205" lon="4.9451">
        <ele>186.4</ele>
        <time>2024-09-18T11:16:54Z</time>
      </trkpt>
      <trkpt lat="46.66202" lon="4.94511">
        <ele>186.6</ele>
        <time>2024-09-18T11:16:55Z</time>
      </trkpt>
      <trkpt lat="46.662" lon="4.94511">
        <ele>186.6</ele>
        <time>2024-09-18T11:16:56Z</time>
      </trkpt>
      <trkpt lat="46.66198" lon="4.94513">
        <ele>186.6</ele>
        <time>2024-09-18T11:16:57Z</time>
      </trkpt>
      <trkpt lat="46.66196" lon="4.94515">
        <ele>186.6</ele>
        <time>2024-09-18T11:16:58Z</time>
      </trkpt>
      <trkpt lat="46.66195" lon="4.94516">
        <ele>186.6</ele>
        <time>2024-09-18T11:16:59Z</time>
      </trkpt>
      <trkpt lat="46.66196" lon="4.94518">
        <ele>186.6</ele>
        <time>2024-09-18T11:17:00Z</time>
      </trkpt>
      <trkpt lat="46.66196" lon="4.9452">
        <ele>186.6</ele>
        <time>2024-09-18T11:17:01Z</time>
      </trkpt>
      <trkpt lat="46.66198" lon="4.94522">
        <ele>186.6</ele>
        <time>2024-09-18T11:17:02Z</time>
      </trkpt>
      <trkpt lat="46.662" lon="4.94525">
        <ele>186.6</ele>
        <time>2024-09-18T11:17:03Z</time>
      </trkpt>
      <trkpt lat="46.66202" lon="4.94526">
        <ele>186.4</ele>
        <time>2024-09-18T11:17:04Z</time>
      </trkpt>
      <trkpt lat="46.66204" lon="4.94528">
        <ele>186.4</ele>
        <time>2024-09-18T11:17:05Z</time>
      </trkpt>
      <trkpt lat="46.66204" lon="4.94531">
        <ele>186.4</ele>
        <time>2024-09-18T11:17:06Z</time>
      </trkpt>
      <trkpt lat="46.66204" lon="4.94534">
        <ele>186.6</ele>
        <time>2024-09-18T11:17:07Z</time>
      </trkpt>
      <trkpt lat="46.66203" lon="4.94536">
        <ele>186.8</ele>
        <time>2024-09-18T11:17:08Z</time>
      </trkpt>
      <trkpt lat="46.66201" lon="4.94537">
        <ele>186.8</ele>
        <time>2024-09-18T11:17:09Z</time>
      </trkpt>
      <trkpt lat="46.662" lon="4.94538">
        <ele>186.8</ele>
        <time>2024-09-18T11:17:10Z</time>
      </trkpt>
      <trkpt lat="46.662" lon="4.94538">
        <ele>186.8</ele>
        <time>2024-09-18T11:17:11Z</time>
      </trkpt>
      <trkpt lat="46.66197" lon="4.94538">
        <ele>186.8</ele>
        <time>2024-09-18T11:17:20Z</time>
      </trkpt>
      <trkpt lat="46.66197" lon="4.9454">
        <ele>186.8</ele>
        <time>2024-09-18T11:17:21Z</time>
      </trkpt>
      <trkpt lat="46.66197" lon="4.94541">
        <ele>186.8</ele>
        <time>2024-09-18T11:17:22Z</time>
      </trkpt>
      <trkpt lat="46.66197" lon="4.94543">
        <ele>186.8</ele>
        <time>2024-09-18T11:17:23Z</time>
      </trkpt>
      <trkpt lat="46.66197" lon="4.94544">
        <ele>186.8</ele>
        <time>2024-09-18T11:17:24Z</time>
      </trkpt>
      <trkpt lat="46.66197" lon="4.94545">
        <ele>187</ele>
        <time>2024-09-18T11:17:25Z</time>
      </trkpt>
      <trkpt lat="46.66198" lon="4.94544">
        <ele>187</ele>
        <time>2024-09-18T11:17:26Z</time>
      </trkpt>
      <trkpt lat="46.66198" lon="4.94544">
        <ele>187</ele>
        <time>2024-09-18T11:17:27Z</time>
      </trkpt>
      <trkpt lat="46.66198" lon="4.94544">
        <ele>187</ele>
        <time>2024-09-18T11:17:28Z</time>
      </trkpt>
      <trkpt lat="46.66198" lon="4.94544">
        <ele>183.4</ele>
        <time>2024-09-18T12:16:37Z</time>
      </trkpt>
      <trkpt lat="46.66198" lon="4.94544">
        <ele>183.4</ele>
        <time>2024-09-18T12:16:38Z</time>
      </trkpt>
      <trkpt lat="46.66198" lon="4.94544">
        <ele>183.4</ele>
        <time>2024-09-18T12:16:39Z</time>
      </trkpt>
      <trkpt lat="46.66198" lon="4.94544">
        <ele>183.4</ele>
        <time>2024-09-18T12:16:40Z</time>
      </trkpt>
      <trkpt lat="46.66198" lon="4.94544">
        <ele>183.4</ele>
        <time>2024-09-18T12:16:41Z</time>
      </trkpt>
      <trkpt lat="46.66198" lon="4.94544">
        <ele>183.4</ele>
        <time>2024-09-18T12:16:42Z</time>
      </trkpt>
      <trkpt lat="46.66198" lon="4.94544">
        <ele>183.4</ele>
        <time>2024-09-18T12:16:43Z</time>
      </trkpt>
      <trkpt lat="46.66198" lon="4.94544">
        <ele>183.4</ele>
        <time>2024-09-18T12:16:44Z</time>
      </trkpt>
      <trkpt lat="46.66198" lon="4.94544">
        <ele>183.4</ele>
        <time>2024-09-18T12:16:45Z</time>
      </trkpt>
      <trkpt lat="46.66198" lon="4.94544">
        <ele>183.4</ele>
        <time>2024-09-18T12:16:46Z</time>
      </trkpt>
      <trkpt lat="46.66198" lon="4.94544">
        <ele>183.4</ele>
        <time>2024-09-18T12:16:47Z</time>
      </trkpt>
      <trkpt lat="46.66198" lon="4.94544">
        <ele>183.4</ele>
        <time>2024-09-18T12:16:48Z</time>
      </trkpt>
      <trkpt lat="46.66198" lon="4.94544">
        <ele>183.4</ele>
        <time>2024-09-18T12:16:49Z</time>
      </trkpt>
      <trkpt lat="46.66198" lon="4.94544">
        <ele>183.4</ele>
        <time>2024-09-18T12:16:50Z</time>
      </trkpt>
      <trkpt lat="46.66198" lon="4.94544">
        <ele>183.4</ele>
        <time>2024-09-18T12:16:51Z</time>
      </trkpt>
      <trkpt lat="46.66198" lon="4.94544">
        <ele>183.4</ele>
        <time>2024-09-18T12:16:52Z</time>
      </trkpt>
      <trkpt lat="46.66198" lon="4.94544">
        <ele>183.4</ele>
        <time>2024-09-18T12:16:53Z</time>
      </trkpt>
      <trkpt lat="46.66198" lon="4.94544">
        <ele>183.4</ele>
        <time>2024-09-18T12:16:54Z</time>
      </trkpt>
      <trkpt lat="46.66198" lon="4.94544">
        <ele>183.4</ele>
        <time>2024-09-18T12:16:55Z</time>
      </trkpt>
      <trkpt lat="46.66198" lon="4.94544">
        <ele>187.4</ele>
        <time>2024-09-18T12:16:56Z</time>
      </trkpt>
      <trkpt lat="46.66198" lon="4.94544">
        <ele>187.4</ele>
        <time>2024-09-18T12:16:57Z</time>
      </trkpt>
      <trkpt lat="46.66195" lon="4.94535">
        <ele>187.6</ele>
        <time>2024-09-18T12:18:37Z</time>
      </trkpt>
      <trkpt lat="46.66194" lon="4.94533">
        <ele>187.4</ele>
        <time>2024-09-18T12:18:38Z</time>
      </trkpt>
      <trkpt lat="46.66192" lon="4.94532">
        <ele>187.4</ele>
        <time>2024-09-18T12:18:39Z</time>
      </trkpt>
      <trkpt lat="46.66191" lon="4.94531">
        <ele>187.4</ele>
        <time>2024-09-18T12:18:40Z</time>
      </trkpt>
      <trkpt lat="46.66189" lon="4.9453">
        <ele>187.4</ele>
        <time>2024-09-18T12:18:41Z</time>
      </trkpt>
      <trkpt lat="46.66187" lon="4.9453">
        <ele>187</ele>
        <time>2024-09-18T12:18:42Z</time>
      </trkpt>
      <trkpt lat="46.66185" lon="4.9453">
        <ele>186.8</ele>
        <time>2024-09-18T12:18:43Z</time>
      </trkpt>
      <trkpt lat="46.66182" lon="4.94529">
        <ele>186.8</ele>
        <time>2024-09-18T12:18:44Z</time>
      </trkpt>
      <trkpt lat="46.6618" lon="4.94529">
        <ele>186.8</ele>
        <time>2024-09-18T12:18:45Z</time>
      </trkpt>
      <trkpt lat="46.66178" lon="4.94528">
        <ele>186.8</ele>
        <time>2024-09-18T12:18:46Z</time>
      </trkpt>
      <trkpt lat="46.66176" lon="4.94528">
        <ele>186.8</ele>
        <time>2024-09-18T12:18:47Z</time>
      </trkpt>
      <trkpt lat="46.66174" lon="4.94528">
        <ele>186.6</ele>
        <time>2024-09-18T12:18:48Z</time>
      </trkpt>
      <trkpt lat="46.66173" lon="4.94529">
        <ele>186.6</ele>
        <time>2024-09-18T12:18:49Z</time>
      </trkpt>
      <trkpt lat="46.66172" lon="4.9453">
        <ele>186.6</ele>
        <time>2024-09-18T12:18:50Z</time>
      </trkpt>
      <trkpt lat="46.6617" lon="4.94531">
        <ele>186.4</ele>
        <time>2024-09-18T12:18:51Z</time>
      </trkpt>
      <trkpt lat="46.66169" lon="4.94531">
        <ele>186.4</ele>
        <time>2024-09-18T12:18:52Z</time>
      </trkpt>
      <trkpt lat="46.66168" lon="4.94532">
        <ele>186.4</ele>
        <time>2024-09-18T12:18:53Z</time>
      </trkpt>
      <trkpt lat="46.66168" lon="4.94534">
        <ele>186.4</ele>
        <time>2024-09-18T12:18:54Z</time>
      </trkpt>
      <trkpt lat="46.66167" lon="4.94536">
        <ele>186.4</ele>
        <time>2024-09-18T12:18:55Z</time>
      </trkpt>
      <trkpt lat="46.66167" lon="4.94539">
        <ele>186.2</ele>
        <time>2024-09-18T12:18:56Z</time>
      </trkpt>
      <trkpt lat="46.66166" lon="4.94542">
        <ele>185.8</ele>
        <time>2024-09-18T12:18:57Z</time>
      </trkpt>
      <trkpt lat="46.66166" lon="4.94545">
        <ele>185.8</ele>
        <time>2024-09-18T12:18:58Z</time>
      </trkpt>
      <trkpt lat="46.66166" lon="4.9455">
        <ele>185.8</ele>
        <time>2024-09-18T12:18:59Z</time>
      </trkpt>
      <trkpt lat="46.66166" lon="4.94555">
        <ele>185.8</ele>
        <time>2024-09-18T12:19:00Z</time>
      </trkpt>
      <trkpt lat="46.66166" lon="4.94561">
        <ele>185.4</ele>
        <time>2024-09-18T12:19:01Z</time>
      </trkpt>
      <trkpt lat="46.66166" lon="4.94566">
        <ele>185.4</ele>
        <time>2024-09-18T12:19:02Z</time>
      </trkpt>
      <trkpt lat="46.66166" lon="4.94572">
        <ele>185.4</ele>
        <time>2024-09-18T12:19:03Z</time>
      </trkpt>
      <trkpt lat="46.66165" lon="4.94578">
        <ele>185</ele>
        <time>2024-09-18T12:19:04Z</time>
      </trkpt>
      <trkpt lat="46.66165" lon="4.94584">
        <ele>185</ele>
        <time>2024-09-18T12:19:05Z</time>
      </trkpt>
      <trkpt lat="46.66164" lon="4.94591">
        <ele>185</ele>
        <time>2024-09-18T12:19:06Z</time>
      </trkpt>
      <trkpt lat="46.66164" lon="4.94597">
        <ele>185</ele>
        <time>2024-09-18T12:19:07Z</time>
      </trkpt>
      <trkpt lat="46.66163" lon="4.94603">
        <ele>185</ele>
        <time>2024-09-18T12:19:08Z</time>
      </trkpt>
      <trkpt lat="46.66162" lon="4.94609">
        <ele>184.2</ele>
        <time>2024-09-18T12:19:09Z</time>
      </trkpt>
      <trkpt lat="46.66162" lon="4.94615">
        <ele>184.6</ele>
        <time>2024-09-18T12:19:10Z</time>
      </trkpt>
      <trkpt lat="46.66161" lon="4.94621">
        <ele>184.6</ele>
        <time>2024-09-18T12:19:11Z</time>
      </trkpt>
      <trkpt lat="46.6616" lon="4.94627">
        <ele>184.6</ele>
        <time>2024-09-18T12:19:12Z</time>
      </trkpt>
      <trkpt lat="46.66157" lon="4.94631">
        <ele>184.6</ele>
        <time>2024-09-18T12:19:13Z</time>
      </trkpt>
      <trkpt lat="46.66153" lon="4.94633">
        <ele>184.4</ele>
        <time>2024-09-18T12:19:14Z</time>
      </trkpt>
      <trkpt lat="46.6615" lon="4.94634">
        <ele>184.4</ele>
        <time>2024-09-18T12:19:15Z</time>
      </trkpt>
      <trkpt lat="46.66146" lon="4.94635">
        <ele>184.4</ele>
        <time>2024-09-18T12:19:16Z</time>
      </trkpt>
      <trkpt lat="46.66143" lon="4.94635">
        <ele>184.4</ele>
        <time>2024-09-18T12:19:17Z</time>
      </trkpt>
      <trkpt lat="46.66139" lon="4.94635">
        <ele>184.4</ele>
        <time>2024-09-18T12:19:18Z</time>
      </trkpt>
      <trkpt lat="46.66136" lon="4.94635">
        <ele>184.4</ele>
        <time>2024-09-18T12:19:19Z</time>
      </trkpt>
      <trkpt lat="46.66133" lon="4.94635">
        <ele>184.6</ele>
        <time>2024-09-18T12:19:20Z</time>
      </trkpt>
      <trkpt lat="46.6613" lon="4.94635">
        <ele>184.6</ele>
        <time>2024-09-18T12:19:21Z</time>
      </trkpt>
      <trkpt lat="46.66127" lon="4.94635">
        <ele>184.6</ele>
        <time>2024-09-18T12:19:22Z</time>
      </trkpt>
      <trkpt lat="46.66124" lon="4.94635">
        <ele>184.4</ele>
        <time>2024-09-18T12:19:23Z</time>
      </trkpt>
      <trkpt lat="46.66121" lon="4.94635">
        <ele>184.6</ele>
        <time>2024-09-18T12:19:24Z</time>
      </trkpt>
      <trkpt lat="46.66118" lon="4.94635">
        <ele>184.6</ele>
        <time>2024-09-18T12:19:25Z</time>
      </trkpt>
      <trkpt lat="46.66116" lon="4.94634">
        <ele>184.6</ele>
        <time>2024-09-18T12:19:26Z</time>
      </trkpt>
      <trkpt lat="46.66113" lon="4.94634">
        <ele>184.6</ele>
        <time>2024-09-18T12:19:27Z</time>
      </trkpt>
      <trkpt lat="46.6611" lon="4.94633">
        <ele>184.6</ele>
        <time>2024-09-18T12:19:28Z</time>
      </trkpt>
      <trkpt lat="46.66107" lon="4.94632">
        <ele>184.6</ele>
        <time>2024-09-18T12:19:29Z</time>
      </trkpt>
      <trkpt lat="46.66103" lon="4.94632">
        <ele>184.6</ele>
        <time>2024-09-18T12:19:30Z</time>
      </trkpt>
      <trkpt lat="46.661" lon="4.94631">
        <ele>184.6</ele>
        <time>2024-09-18T12:19:31Z</time>
      </trkpt>
      <trkpt lat="46.66097" lon="4.9463">
        <ele>185.2</ele>
        <time>2024-09-18T12:19:32Z</time>
      </trkpt>
      <trkpt lat="46.66093" lon="4.94629">
        <ele>184.6</ele>
        <time>2024-09-18T12:19:33Z</time>
      </trkpt>
      <trkpt lat="46.6609" lon="4.94629">
        <ele>184.6</ele>
        <time>2024-09-18T12:19:34Z</time>
      </trkpt>
      <trkpt lat="46.66086" lon="4.94628">
        <ele>184.6</ele>
        <time>2024-09-18T12:19:35Z</time>
      </trkpt>
      <trkpt lat="46.66083" lon="4.94627">
        <ele>185.4</ele>
        <time>2024-09-18T12:19:36Z</time>
      </trkpt>
      <trkpt lat="46.66079" lon="4.94627">
        <ele>185.2</ele>
        <time>2024-09-18T12:19:37Z</time>
      </trkpt>
      <trkpt lat="46.66075" lon="4.94626">
        <ele>185.2</ele>
        <time>2024-09-18T12:19:38Z</time>
      </trkpt>
      <trkpt lat="46.66071" lon="4.94625">
        <ele>185.2</ele>
        <time>2024-09-18T12:19:39Z</time>
      </trkpt>
      <trkpt lat="46.66067" lon="4.94624">
        <ele>185.2</ele>
        <time>2024-09-18T12:19:40Z</time>
      </trkpt>
      <trkpt lat="46.66063" lon="4.94623">
        <ele>185.2</ele>
        <time>2024-09-18T12:19:41Z</time>
      </trkpt>
      <trkpt lat="46.66059" lon="4.94622">
        <ele>185</ele>
        <time>2024-09-18T12:19:42Z</time>
      </trkpt>
      <trkpt lat="46.66055" lon="4.94621">
        <ele>185</ele>
        <time>2024-09-18T12:19:43Z</time>
      </trkpt>
      <trkpt lat="46.66051" lon="4.9462">
        <ele>185</ele>
        <time>2024-09-18T12:19:44Z</time>
      </trkpt>
      <trkpt lat="46.66047" lon="4.94619">
        <ele>185.4</ele>
        <time>2024-09-18T12:19:45Z</time>
      </trkpt>
      <trkpt lat="46.66043" lon="4.94618">
        <ele>185.4</ele>
        <time>2024-09-18T12:19:46Z</time>
      </trkpt>
      <trkpt lat="46.66039" lon="4.94617">
        <ele>185.6</ele>
        <time>2024-09-18T12:19:47Z</time>
      </trkpt>
      <trkpt lat="46.66035" lon="4.94617">
        <ele>185.6</ele>
        <time>2024-09-18T12:19:48Z</time>
      </trkpt>
      <trkpt lat="46.66032" lon="4.94615">
        <ele>185.6</ele>
        <time>2024-09-18T12:19:49Z</time>
      </trkpt>
      <trkpt lat="46.66029" lon="4.94614">
        <ele>185.6</ele>
        <time>2024-09-18T12:19:50Z</time>
      </trkpt>
      <trkpt lat="46.66025" lon="4.94612">
        <ele>185.2</ele>
        <time>2024-09-18T12:19:51Z</time>
      </trkpt>
      <trkpt lat="46.66021" lon="4.94611">
        <ele>185.2</ele>
        <time>2024-09-18T12:19:52Z</time>
      </trkpt>
      <trkpt lat="46.66018" lon="4.9461">
        <ele>185.2</ele>
        <time>2024-09-18T12:19:53Z</time>
      </trkpt>
      <trkpt lat="46.66014" lon="4.94609">
        <ele>185.2</ele>
        <time>2024-09-18T12:19:54Z</time>
      </trkpt>
      <trkpt lat="46.6601" lon="4.94608">
        <ele>185.2</ele>
        <time>2024-09-18T12:19:55Z</time>
      </trkpt>
      <trkpt lat="46.66006" lon="4.94608">
        <ele>185</ele>
        <time>2024-09-18T12:19:56Z</time>
      </trkpt>
      <trkpt lat="46.66003" lon="4.94607">
        <ele>185</ele>
        <time>2024-09-18T12:19:57Z</time>
      </trkpt>
      <trkpt lat="46.65999" lon="4.94606">
        <ele>185</ele>
        <time>2024-09-18T12:19:58Z</time>
      </trkpt>
      <trkpt lat="46.65995" lon="4.94605">
        <ele>185.2</ele>
        <time>2024-09-18T12:19:59Z</time>
      </trkpt>
      <trkpt lat="46.65991" lon="4.94604">
        <ele>185.2</ele>
        <time>2024-09-18T12:20:00Z</time>
      </trkpt>
      <trkpt lat="46.65987" lon="4.94602">
        <ele>185.4</ele>
        <time>2024-09-18T12:20:01Z</time>
      </trkpt>
      <trkpt lat="46.65983" lon="4.94602">
        <ele>185.4</ele>
        <time>2024-09-18T12:20:02Z</time>
      </trkpt>
      <trkpt lat="46.65978" lon="4.946">
        <ele>185.4</ele>
        <time>2024-09-18T12:20:03Z</time>
      </trkpt>
      <trkpt lat="46.65974" lon="4.94599">
        <ele>185.4</ele>
        <time>2024-09-18T12:20:04Z</time>
      </trkpt>
      <trkpt lat="46.6597" lon="4.94598">
        <ele>185.4</ele>
        <time>2024-09-18T12:20:05Z</time>
      </trkpt>
      <trkpt lat="46.65966" lon="4.94597">
        <ele>185.6</ele>
        <time>2024-09-18T12:20:06Z</time>
      </trkpt>
      <trkpt lat="46.65962" lon="4.94596">
        <ele>185.6</ele>
        <time>2024-09-18T12:20:07Z</time>
      </trkpt>
      <trkpt lat="46.65958" lon="4.94595">
        <ele>185</ele>
        <time>2024-09-18T12:20:08Z</time>
      </trkpt>
      <trkpt lat="46.65954" lon="4.94594">
        <ele>185.4</ele>
        <time>2024-09-18T12:20:09Z</time>
      </trkpt>
      <trkpt lat="46.65949" lon="4.94593">
        <ele>185.4</ele>
        <time>2024-09-18T12:20:10Z</time>
      </trkpt>
      <trkpt lat="46.65945" lon="4.94592">
        <ele>185.4</ele>
        <time>2024-09-18T12:20:11Z</time>
      </trkpt>
      <trkpt lat="46.65941" lon="4.94591">
        <ele>185.4</ele>
        <time>2024-09-18T12:20:12Z</time>
      </trkpt>
      <trkpt lat="46.65937" lon="4.9459">
        <ele>185.4</ele>
        <time>2024-09-18T12:20:13Z</time>
      </trkpt>
      <trkpt lat="46.65933" lon="4.94589">
        <ele>185.8</ele>
        <time>2024-09-18T12:20:14Z</time>
      </trkpt>
      <trkpt lat="46.65929" lon="4.94588">
        <ele>185.8</ele>
        <time>2024-09-18T12:20:15Z</time>
      </trkpt>
      <trkpt lat="46.65924" lon="4.94587">
        <ele>185.8</ele>
        <time>2024-09-18T12:20:16Z</time>
      </trkpt>
      <trkpt lat="46.6592" lon="4.94586">
        <ele>185.6</ele>
        <time>2024-09-18T12:20:17Z</time>
      </trkpt>
      <trkpt lat="46.65916" lon="4.94585">
        <ele>186</ele>
        <time>2024-09-18T12:20:18Z</time>
      </trkpt>
      <trkpt lat="46.65912" lon="4.94584">
        <ele>186</ele>
        <time>2024-09-18T12:20:19Z</time>
      </trkpt>
      <trkpt lat="46.65908" lon="4.94583">
        <ele>186</ele>
        <time>2024-09-18T12:20:20Z</time>
      </trkpt>
      <trkpt lat="46.65903" lon="4.94582">
        <ele>186</ele>
        <time>2024-09-18T12:20:21Z</time>
      </trkpt>
      <trkpt lat="46.65899" lon="4.94581">
        <ele>185.6</ele>
        <time>2024-09-18T12:20:22Z</time>
      </trkpt>
      <trkpt lat="46.65895" lon="4.9458">
        <ele>185.8</ele>
        <time>2024-09-18T12:20:23Z</time>
      </trkpt>
      <trkpt lat="46.65891" lon="4.94579">
        <ele>185.8</ele>
        <time>2024-09-18T12:20:24Z</time>
      </trkpt>
      <trkpt lat="46.65886" lon="4.94578">
        <ele>185.8</ele>
        <time>2024-09-18T12:20:25Z</time>
      </trkpt>
      <trkpt lat="46.65882" lon="4.94578">
        <ele>185.8</ele>
        <time>2024-09-18T12:20:26Z</time>
      </trkpt>
      <trkpt lat="46.65878" lon="4.94577">
        <ele>185.6</ele>
        <time>2024-09-18T12:20:27Z</time>
      </trkpt>
      <trkpt lat="46.65873" lon="4.94576">
        <ele>185.6</ele>
        <time>2024-09-18T12:20:28Z</time>
      </trkpt>
      <trkpt lat="46.65869" lon="4.94575">
        <ele>185.6</ele>
        <time>2024-09-18T12:20:29Z</time>
      </trkpt>
      <trkpt lat="46.65865" lon="4.94573">
        <ele>185.6</ele>
        <time>2024-09-18T12:20:30Z</time>
      </trkpt>
      <trkpt lat="46.6586" lon="4.94572">
        <ele>185.2</ele>
        <time>2024-09-18T12:20:31Z</time>
      </trkpt>
      <trkpt lat="46.65856" lon="4.94571">
        <ele>185.2</ele>
        <time>2024-09-18T12:20:32Z</time>
      </trkpt>
      <trkpt lat="46.65852" lon="4.94571">
        <ele>185.2</ele>
        <time>2024-09-18T12:20:33Z</time>
      </trkpt>
      <trkpt lat="46.65849" lon="4.94572">
        <ele>185.2</ele>
        <time>2024-09-18T12:20:34Z</time>
      </trkpt>
      <trkpt lat="46.65846" lon="4.94575">
        <ele>185.2</ele>
        <time>2024-09-18T12:20:35Z</time>
      </trkpt>
      <trkpt lat="46.65844" lon="4.94579">
        <ele>185.2</ele>
        <time>2024-09-18T12:20:36Z</time>
      </trkpt>
      <trkpt lat="46.65843" lon="4.94584">
        <ele>185.2</ele>
        <time>2024-09-18T12:20:37Z</time>
      </trkpt>
      <trkpt lat="46.65843" lon="4.9459">
        <ele>185.2</ele>
        <time>2024-09-18T12:20:38Z</time>
      </trkpt>
      <trkpt lat="46.65842" lon="4.94595">
        <ele>185.2</ele>
        <time>2024-09-18T12:20:39Z</time>
      </trkpt>
      <trkpt lat="46.65841" lon="4.94601">
        <ele>185.2</ele>
        <time>2024-09-18T12:20:40Z</time>
      </trkpt>
      <trkpt lat="46.65841" lon="4.94607">
        <ele>184.6</ele>
        <time>2024-09-18T12:20:41Z</time>
      </trkpt>
      <trkpt lat="46.6584" lon="4.94613">
        <ele>184.6</ele>
        <time>2024-09-18T12:20:42Z</time>
      </trkpt>
      <trkpt lat="46.6584" lon="4.94619">
        <ele>184.6</ele>
        <time>2024-09-18T12:20:43Z</time>
      </trkpt>
      <trkpt lat="46.6584" lon="4.94625">
        <ele>184.6</ele>
        <time>2024-09-18T12:20:44Z</time>
      </trkpt>
      <trkpt lat="46.65839" lon="4.94631">
        <ele>184.2</ele>
        <time>2024-09-18T12:20:45Z</time>
      </trkpt>
      <trkpt lat="46.65839" lon="4.94637">
        <ele>184.2</ele>
        <time>2024-09-18T12:20:46Z</time>
      </trkpt>
      <trkpt lat="46.65838" lon="4.94644">
        <ele>184.2</ele>
        <time>2024-09-18T12:20:47Z</time>
      </trkpt>
      <trkpt lat="46.65838" lon="4.94651">
        <ele>184.2</ele>
        <time>2024-09-18T12:20:48Z</time>
      </trkpt>
      <trkpt lat="46.65837" lon="4.94658">
        <ele>184</ele>
        <time>2024-09-18T12:20:49Z</time>
      </trkpt>
      <trkpt lat="46.65837" lon="4.94665">
        <ele>183.6</ele>
        <time>2024-09-18T12:20:50Z</time>
      </trkpt>
      <trkpt lat="46.65836" lon="4.94672">
        <ele>183.6</ele>
        <time>2024-09-18T12:20:51Z</time>
      </trkpt>
      <trkpt lat="46.65836" lon="4.94679">
        <ele>183.6</ele>
        <time>2024-09-18T12:20:52Z</time>
      </trkpt>
      <trkpt lat="46.65836" lon="4.94686">
        <ele>183.6</ele>
        <time>2024-09-18T12:20:53Z</time>
      </trkpt>
      <trkpt lat="46.65835" lon="4.94693">
        <ele>183.8</ele>
        <time>2024-09-18T12:20:54Z</time>
      </trkpt>
      <trkpt lat="46.65835" lon="4.947">
        <ele>183.8</ele>
        <time>2024-09-18T12:20:55Z</time>
      </trkpt>
      <trkpt lat="46.65834" lon="4.94708">
        <ele>183.8</ele>
        <time>2024-09-18T12:20:56Z</time>
      </trkpt>
      <trkpt lat="46.65834" lon="4.94714">
        <ele>183.8</ele>
        <time>2024-09-18T12:20:57Z</time>
      </trkpt>
      <trkpt lat="46.65833" lon="4.94721">
        <ele>183.8</ele>
        <time>2024-09-18T12:20:58Z</time>
      </trkpt>
      <trkpt lat="46.65833" lon="4.94728">
        <ele>183.2</ele>
        <time>2024-09-18T12:20:59Z</time>
      </trkpt>
      <trkpt lat="46.65832" lon="4.94734">
        <ele>183.2</ele>
        <time>2024-09-18T12:21:00Z</time>
      </trkpt>
      <trkpt lat="46.65832" lon="4.94741">
        <ele>183.2</ele>
        <time>2024-09-18T12:21:01Z</time>
      </trkpt>
      <trkpt lat="46.65832" lon="4.94747">
        <ele>183.2</ele>
        <time>2024-09-18T12:21:02Z</time>
      </trkpt>
      <trkpt lat="46.65832" lon="4.94754">
        <ele>183.4</ele>
        <time>2024-09-18T12:21:03Z</time>
      </trkpt>
      <trkpt lat="46.65831" lon="4.9476">
        <ele>183.4</ele>
        <time>2024-09-18T12:21:04Z</time>
      </trkpt>
      <trkpt lat="46.65831" lon="4.94766">
        <ele>183.4</ele>
        <time>2024-09-18T12:21:05Z</time>
      </trkpt>
      <trkpt lat="46.6583" lon="4.94772">
        <ele>183.4</ele>
        <time>2024-09-18T12:21:06Z</time>
      </trkpt>
      <trkpt lat="46.6583" lon="4.94778">
        <ele>183.4</ele>
        <time>2024-09-18T12:21:07Z</time>
      </trkpt>
      <trkpt lat="46.65829" lon="4.94784">
        <ele>183.4</ele>
        <time>2024-09-18T12:21:08Z</time>
      </trkpt>
      <trkpt lat="46.65829" lon="4.9479">
        <ele>183.4</ele>
        <time>2024-09-18T12:21:09Z</time>
      </trkpt>
      <trkpt lat="46.6583" lon="4.94797">
        <ele>183.4</ele>
        <time>2024-09-18T12:21:10Z</time>
      </trkpt>
      <trkpt lat="46.65829" lon="4.94803">
        <ele>183.4</ele>
        <time>2024-09-18T12:21:11Z</time>
      </trkpt>
      <trkpt lat="46.65829" lon="4.94809">
        <ele>183</ele>
        <time>2024-09-18T12:21:12Z</time>
      </trkpt>
      <trkpt lat="46.65829" lon="4.94815">
        <ele>183</ele>
        <time>2024-09-18T12:21:13Z</time>
      </trkpt>
      <trkpt lat="46.65828" lon="4.94821">
        <ele>183</ele>
        <time>2024-09-18T12:21:14Z</time>
      </trkpt>
      <trkpt lat="46.65828" lon="4.94828">
        <ele>183</ele>
        <time>2024-09-18T12:21:15Z</time>
      </trkpt>
      <trkpt lat="46.65827" lon="4.94835">
        <ele>183.2</ele>
        <time>2024-09-18T12:21:16Z</time>
      </trkpt>
      <trkpt lat="46.65827" lon="4.94841">
        <ele>183.2</ele>
        <time>2024-09-18T12:21:17Z</time>
      </trkpt>
      <trkpt lat="46.65826" lon="4.94848">
        <ele>183.2</ele>
        <time>2024-09-18T12:21:18Z</time>
      </trkpt>
      <trkpt lat="46.65826" lon="4.94854">
        <ele>183.2</ele>
        <time>2024-09-18T12:21:19Z</time>
      </trkpt>
      <trkpt lat="46.65826" lon="4.94861">
        <ele>183.2</ele>
        <time>2024-09-18T12:21:20Z</time>
      </trkpt>
      <trkpt lat="46.65825" lon="4.94868">
        <ele>183.2</ele>
        <time>2024-09-18T12:21:21Z</time>
      </trkpt>
      <trkpt lat="46.65824" lon="4.94874">
        <ele>183.4</ele>
        <time>2024-09-18T12:21:22Z</time>
      </trkpt>
      <trkpt lat="46.65824" lon="4.94881">
        <ele>183.4</ele>
        <time>2024-09-18T12:21:23Z</time>
      </trkpt>
      <trkpt lat="46.65824" lon="4.94887">
        <ele>183.4</ele>
        <time>2024-09-18T12:21:24Z</time>
      </trkpt>
      <trkpt lat="46.65823" lon="4.94894">
        <ele>183.6</ele>
        <time>2024-09-18T12:21:25Z</time>
      </trkpt>
      <trkpt lat="46.65823" lon="4.949">
        <ele>183.6</ele>
        <time>2024-09-18T12:21:26Z</time>
      </trkpt>
      <trkpt lat="46.65823" lon="4.94906">
        <ele>183.6</ele>
        <time>2024-09-18T12:21:27Z</time>
      </trkpt>
      <trkpt lat="46.65822" lon="4.94913">
        <ele>183.6</ele>
        <time>2024-09-18T12:21:28Z</time>
      </trkpt>
      <trkpt lat="46.65822" lon="4.94919">
        <ele>183.6</ele>
        <time>2024-09-18T12:21:29Z</time>
      </trkpt>
      <trkpt lat="46.65822" lon="4.94925">
        <ele>183.6</ele>
        <time>2024-09-18T12:21:30Z</time>
      </trkpt>
      <trkpt lat="46.65821" lon="4.94931">
        <ele>183.8</ele>
        <time>2024-09-18T12:21:31Z</time>
      </trkpt>
      <trkpt lat="46.65821" lon="4.94938">
        <ele>183.8</ele>
        <time>2024-09-18T12:21:32Z</time>
      </trkpt>
      <trkpt lat="46.65821" lon="4.94944">
        <ele>183.8</ele>
        <time>2024-09-18T12:21:33Z</time>
      </trkpt>
      <trkpt lat="46.6582" lon="4.9495">
        <ele>183.8</ele>
        <time>2024-09-18T12:21:34Z</time>
      </trkpt>
      <trkpt lat="46.6582" lon="4.94956">
        <ele>183.4</ele>
        <time>2024-09-18T12:21:35Z</time>
      </trkpt>
      <trkpt lat="46.6582" lon="4.94962">
        <ele>183.4</ele>
        <time>2024-09-18T12:21:36Z</time>
      </trkpt>
      <trkpt lat="46.6582" lon="4.94968">
        <ele>183.4</ele>
        <time>2024-09-18T12:21:37Z</time>
      </trkpt>
      <trkpt lat="46.6582" lon="4.94974">
        <ele>183.6</ele>
        <time>2024-09-18T12:21:38Z</time>
      </trkpt>
      <trkpt lat="46.6582" lon="4.9498">
        <ele>183.8</ele>
        <time>2024-09-18T12:21:39Z</time>
      </trkpt>
      <trkpt lat="46.65819" lon="4.94986">
        <ele>183.8</ele>
        <time>2024-09-18T12:21:40Z</time>
      </trkpt>
      <trkpt lat="46.6582" lon="4.94992">
        <ele>183.8</ele>
        <time>2024-09-18T12:21:41Z</time>
      </trkpt>
      <trkpt lat="46.6582" lon="4.94999">
        <ele>183.8</ele>
        <time>2024-09-18T12:21:42Z</time>
      </trkpt>
      <trkpt lat="46.6582" lon="4.95005">
        <ele>183.8</ele>
        <time>2024-09-18T12:21:43Z</time>
      </trkpt>
      <trkpt lat="46.6582" lon="4.95011">
        <ele>183.6</ele>
        <time>2024-09-18T12:21:44Z</time>
      </trkpt>
      <trkpt lat="46.6582" lon="4.95017">
        <ele>183.6</ele>
        <time>2024-09-18T12:21:45Z</time>
      </trkpt>
      <trkpt lat="46.6582" lon="4.95023">
        <ele>183.6</ele>
        <time>2024-09-18T12:21:46Z</time>
      </trkpt>
      <trkpt lat="46.6582" lon="4.95029">
        <ele>184</ele>
        <time>2024-09-18T12:21:47Z</time>
      </trkpt>
      <trkpt lat="46.6582" lon="4.95036">
        <ele>184.2</ele>
        <time>2024-09-18T12:21:48Z</time>
      </trkpt>
      <trkpt lat="46.6582" lon="4.95042">
        <ele>184.2</ele>
        <time>2024-09-18T12:21:49Z</time>
      </trkpt>
      <trkpt lat="46.6582" lon="4.95048">
        <ele>184.2</ele>
        <time>2024-09-18T12:21:50Z</time>
      </trkpt>
      <trkpt lat="46.65819" lon="4.95055">
        <ele>183.8</ele>
        <time>2024-09-18T12:21:51Z</time>
      </trkpt>
      <trkpt lat="46.65819" lon="4.95061">
        <ele>183.4</ele>
        <time>2024-09-18T12:21:52Z</time>
      </trkpt>
      <trkpt lat="46.65818" lon="4.95068">
        <ele>183.4</ele>
        <time>2024-09-18T12:21:53Z</time>
      </trkpt>
      <trkpt lat="46.65818" lon="4.95075">
        <ele>183.4</ele>
        <time>2024-09-18T12:21:54Z</time>
      </trkpt>
      <trkpt lat="46.65817" lon="4.95081">
        <ele>183.4</ele>
        <time>2024-09-18T12:21:55Z</time>
      </trkpt>
      <trkpt lat="46.65816" lon="4.95088">
        <ele>183.6</ele>
        <time>2024-09-18T12:21:56Z</time>
      </trkpt>
      <trkpt lat="46.65815" lon="4.95094">
        <ele>183.4</ele>
        <time>2024-09-18T12:21:57Z</time>
      </trkpt>
      <trkpt lat="46.65815" lon="4.95101">
        <ele>183.4</ele>
        <time>2024-09-18T12:21:58Z</time>
      </trkpt>
      <trkpt lat="46.65814" lon="4.95107">
        <ele>183.4</ele>
        <time>2024-09-18T12:21:59Z</time>
      </trkpt>
      <trkpt lat="46.65814" lon="4.95114">
        <ele>183.4</ele>
        <time>2024-09-18T12:22:00Z</time>
      </trkpt>
      <trkpt lat="46.65813" lon="4.9512">
        <ele>182.8</ele>
        <time>2024-09-18T12:22:01Z</time>
      </trkpt>
      <trkpt lat="46.65813" lon="4.95125">
        <ele>182.8</ele>
        <time>2024-09-18T12:22:02Z</time>
      </trkpt>
      <trkpt lat="46.65812" lon="4.95131">
        <ele>182.8</ele>
        <time>2024-09-18T12:22:03Z</time>
      </trkpt>
      <trkpt lat="46.65812" lon="4.95136">
        <ele>182.8</ele>
        <time>2024-09-18T12:22:04Z</time>
      </trkpt>
      <trkpt lat="46.65811" lon="4.95141">
        <ele>182.8</ele>
        <time>2024-09-18T12:22:05Z</time>
      </trkpt>
      <trkpt lat="46.65811" lon="4.95146">
        <ele>182.8</ele>
        <time>2024-09-18T12:22:06Z</time>
      </trkpt>
      <trkpt lat="46.6581" lon="4.95151">
        <ele>183</ele>
        <time>2024-09-18T12:22:07Z</time>
      </trkpt>
      <trkpt lat="46.65809" lon="4.95156">
        <ele>183</ele>
        <time>2024-09-18T12:22:08Z</time>
      </trkpt>
      <trkpt lat="46.65808" lon="4.9516">
        <ele>183</ele>
        <time>2024-09-18T12:22:09Z</time>
      </trkpt>
      <trkpt lat="46.65805" lon="4.95163">
        <ele>183.6</ele>
        <time>2024-09-18T12:22:10Z</time>
      </trkpt>
      <trkpt lat="46.65802" lon="4.95166">
        <ele>183.6</ele>
        <time>2024-09-18T12:22:11Z</time>
      </trkpt>
      <trkpt lat="46.65799" lon="4.95169">
        <ele>183.6</ele>
        <time>2024-09-18T12:22:12Z</time>
      </trkpt>
      <trkpt lat="46.65796" lon="4.95171">
        <ele>183.6</ele>
        <time>2024-09-18T12:22:13Z</time>
      </trkpt>
      <trkpt lat="46.65793" lon="4.95173">
        <ele>183.6</ele>
        <time>2024-09-18T12:22:14Z</time>
      </trkpt>
      <trkpt lat="46.65789" lon="4.95174">
        <ele>183.8</ele>
        <time>2024-09-18T12:22:15Z</time>
      </trkpt>
      <trkpt lat="46.65785" lon="4.95175">
        <ele>184</ele>
        <time>2024-09-18T12:22:16Z</time>
      </trkpt>
      <trkpt lat="46.65782" lon="4.95177">
        <ele>184</ele>
        <time>2024-09-18T12:22:17Z</time>
      </trkpt>
      <trkpt lat="46.65778" lon="4.95178">
        <ele>184</ele>
        <time>2024-09-18T12:22:18Z</time>
      </trkpt>
      <trkpt lat="46.65775" lon="4.95179">
        <ele>183.8</ele>
        <time>2024-09-18T12:22:19Z</time>
      </trkpt>
      <trkpt lat="46.65771" lon="4.95181">
        <ele>184.2</ele>
        <time>2024-09-18T12:22:20Z</time>
      </trkpt>
      <trkpt lat="46.65767" lon="4.95182">
        <ele>184.2</ele>
        <time>2024-09-18T12:22:21Z</time>
      </trkpt>
      <trkpt lat="46.65764" lon="4.95184">
        <ele>184.2</ele>
        <time>2024-09-18T12:22:22Z</time>
      </trkpt>
      <trkpt lat="46.65761" lon="4.95185">
        <ele>184.2</ele>
        <time>2024-09-18T12:22:23Z</time>
      </trkpt>
      <trkpt lat="46.65757" lon="4.95186">
        <ele>184.2</ele>
        <time>2024-09-18T12:22:24Z</time>
      </trkpt>
      <trkpt lat="46.65754" lon="4.95187">
        <ele>184</ele>
        <time>2024-09-18T12:22:25Z</time>
      </trkpt>
      <trkpt lat="46.65751" lon="4.95189">
        <ele>184</ele>
        <time>2024-09-18T12:22:26Z</time>
      </trkpt>
      <trkpt lat="46.65747" lon="4.9519">
        <ele>184</ele>
        <time>2024-09-18T12:22:27Z</time>
      </trkpt>
      <trkpt lat="46.65744" lon="4.95191">
        <ele>184.2</ele>
        <time>2024-09-18T12:22:28Z</time>
      </trkpt>
      <trkpt lat="46.65741" lon="4.95193">
        <ele>184.2</ele>
        <time>2024-09-18T12:22:29Z</time>
      </trkpt>
      <trkpt lat="46.65737" lon="4.95194">
        <ele>184.2</ele>
        <time>2024-09-18T12:22:30Z</time>
      </trkpt>
      <trkpt lat="46.65734" lon="4.95195">
        <ele>184.2</ele>
        <time>2024-09-18T12:22:31Z</time>
      </trkpt>
      <trkpt lat="46.65731" lon="4.95196">
        <ele>184.2</ele>
        <time>2024-09-18T12:22:32Z</time>
      </trkpt>
      <trkpt lat="46.65728" lon="4.95197">
        <ele>184.2</ele>
        <time>2024-09-18T12:22:33Z</time>
      </trkpt>
      <trkpt lat="46.65724" lon="4.95198">
        <ele>184</ele>
        <time>2024-09-18T12:22:34Z</time>
      </trkpt>
      <trkpt lat="46.65721" lon="4.95199">
        <ele>184</ele>
        <time>2024-09-18T12:22:35Z</time>
      </trkpt>
      <trkpt lat="46.65718" lon="4.952">
        <ele>184</ele>
        <time>2024-09-18T12:22:36Z</time>
      </trkpt>
      <trkpt lat="46.65714" lon="4.95201">
        <ele>184</ele>
        <time>2024-09-18T12:22:37Z</time>
      </trkpt>
      <trkpt lat="46.65711" lon="4.95202">
        <ele>184.4</ele>
        <time>2024-09-18T12:22:38Z</time>
      </trkpt>
      <trkpt lat="46.65708" lon="4.95203">
        <ele>184.4</ele>
        <time>2024-09-18T12:22:39Z</time>
      </trkpt>
      <trkpt lat="46.65704" lon="4.95204">
        <ele>184.4</ele>
        <time>2024-09-18T12:22:40Z</time>
      </trkpt>
      <trkpt lat="46.65701" lon="4.95206">
        <ele>184</ele>
        <time>2024-09-18T12:22:41Z</time>
      </trkpt>
      <trkpt lat="46.65698" lon="4.95208">
        <ele>184</ele>
        <time>2024-09-18T12:22:42Z</time>
      </trkpt>
      <trkpt lat="46.65694" lon="4.95209">
        <ele>184</ele>
        <time>2024-09-18T12:22:43Z</time>
      </trkpt>
      <trkpt lat="46.65691" lon="4.95211">
        <ele>184</ele>
        <time>2024-09-18T12:22:44Z</time>
      </trkpt>
      <trkpt lat="46.65687" lon="4.95213">
        <ele>184</ele>
        <time>2024-09-18T12:22:45Z</time>
      </trkpt>
      <trkpt lat="46.65683" lon="4.95214">
        <ele>184</ele>
        <time>2024-09-18T12:22:46Z</time>
      </trkpt>
      <trkpt lat="46.65679" lon="4.95216">
        <ele>184</ele>
        <time>2024-09-18T12:22:47Z</time>
      </trkpt>
      <trkpt lat="46.65675" lon="4.95217">
        <ele>184</ele>
        <time>2024-09-18T12:22:48Z</time>
      </trkpt>
      <trkpt lat="46.6567" lon="4.95218">
        <ele>184</ele>
        <time>2024-09-18T12:22:49Z</time>
      </trkpt>
      <trkpt lat="46.65666" lon="4.9522">
        <ele>184</ele>
        <time>2024-09-18T12:22:50Z</time>
      </trkpt>
      <trkpt lat="46.65661" lon="4.95221">
        <ele>184</ele>
        <time>2024-09-18T12:22:51Z</time>
      </trkpt>
      <trkpt lat="46.65657" lon="4.95222">
        <ele>184</ele>
        <time>2024-09-18T12:22:52Z</time>
      </trkpt>
      <trkpt lat="46.65652" lon="4.95223">
        <ele>183.8</ele>
        <time>2024-09-18T12:22:53Z</time>
      </trkpt>
      <trkpt lat="46.65648" lon="4.95225">
        <ele>183.8</ele>
        <time>2024-09-18T12:22:54Z</time>
      </trkpt>
      <trkpt lat="46.65644" lon="4.95226">
        <ele>183.8</ele>
        <time>2024-09-18T12:22:55Z</time>
      </trkpt>
      <trkpt lat="46.65639" lon="4.95227">
        <ele>183.8</ele>
        <time>2024-09-18T12:22:56Z</time>
      </trkpt>
      <trkpt lat="46.65635" lon="4.95229">
        <ele>184</ele>
        <time>2024-09-18T12:22:57Z</time>
      </trkpt>
      <trkpt lat="46.6563" lon="4.95231">
        <ele>184</ele>
        <time>2024-09-18T12:22:58Z</time>
      </trkpt>
      <trkpt lat="46.65626" lon="4.95232">
        <ele>184</ele>
        <time>2024-09-18T12:22:59Z</time>
      </trkpt>
      <trkpt lat="46.65621" lon="4.95234">
        <ele>184</ele>
        <time>2024-09-18T12:23:00Z</time>
      </trkpt>
      <trkpt lat="46.65617" lon="4.95235">
        <ele>183.8</ele>
        <time>2024-09-18T12:23:01Z</time>
      </trkpt>
      <trkpt lat="46.65612" lon="4.95236">
        <ele>183.8</ele>
        <time>2024-09-18T12:23:02Z</time>
      </trkpt>
      <trkpt lat="46.65608" lon="4.95237">
        <ele>183.8</ele>
        <time>2024-09-18T12:23:03Z</time>
      </trkpt>
      <trkpt lat="46.65603" lon="4.95239">
        <ele>184.2</ele>
        <time>2024-09-18T12:23:04Z</time>
      </trkpt>
      <trkpt lat="46.65599" lon="4.9524">
        <ele>184.2</ele>
        <time>2024-09-18T12:23:05Z</time>
      </trkpt>
      <trkpt lat="46.65594" lon="4.95241">
        <ele>184.4</ele>
        <time>2024-09-18T12:23:06Z</time>
      </trkpt>
      <trkpt lat="46.6559" lon="4.95242">
        <ele>184.4</ele>
        <time>2024-09-18T12:23:07Z</time>
      </trkpt>
      <trkpt lat="46.65585" lon="4.95243">
        <ele>184.4</ele>
        <time>2024-09-18T12:23:08Z</time>
      </trkpt>
      <trkpt lat="46.65581" lon="4.95244">
        <ele>184.2</ele>
        <time>2024-09-18T12:23:09Z</time>
      </trkpt>
      <trkpt lat="46.65577" lon="4.95244">
        <ele>184.2</ele>
        <time>2024-09-18T12:23:10Z</time>
      </trkpt>
      <trkpt lat="46.65573" lon="4.95245">
        <ele>184.2</ele>
        <time>2024-09-18T12:23:11Z</time>
      </trkpt>
      <trkpt lat="46.65569" lon="4.95245">
        <ele>184.2</ele>
        <time>2024-09-18T12:23:12Z</time>
      </trkpt>
      <trkpt lat="46.65564" lon="4.95246">
        <ele>184.4</ele>
        <time>2024-09-18T12:23:13Z</time>
      </trkpt>
      <trkpt lat="46.6556" lon="4.95246">
        <ele>184.4</ele>
        <time>2024-09-18T12:23:14Z</time>
      </trkpt>
      <trkpt lat="46.65556" lon="4.95247">
        <ele>184.4</ele>
        <time>2024-09-18T12:23:15Z</time>
      </trkpt>
      <trkpt lat="46.65552" lon="4.95247">
        <ele>184.4</ele>
        <time>2024-09-18T12:23:16Z</time>
      </trkpt>
      <trkpt lat="46.65548" lon="4.95248">
        <ele>184.2</ele>
        <time>2024-09-18T12:23:17Z</time>
      </trkpt>
      <trkpt lat="46.65544" lon="4.95248">
        <ele>184.2</ele>
        <time>2024-09-18T12:23:18Z</time>
      </trkpt>
      <trkpt lat="46.65539" lon="4.95248">
        <ele>184.4</ele>
        <time>2024-09-18T12:23:19Z</time>
      </trkpt>
      <trkpt lat="46.65535" lon="4.95249">
        <ele>184.4</ele>
        <time>2024-09-18T12:23:20Z</time>
      </trkpt>
      <trkpt lat="46.65531" lon="4.95249">
        <ele>184.4</ele>
        <time>2024-09-18T12:23:21Z</time>
      </trkpt>
      <trkpt lat="46.65526" lon="4.9525">
        <ele>184.4</ele>
        <time>2024-09-18T12:23:22Z</time>
      </trkpt>
      <trkpt lat="46.65522" lon="4.9525">
        <ele>184.4</ele>
        <time>2024-09-18T12:23:23Z</time>
      </trkpt>
      <trkpt lat="46.65518" lon="4.9525">
        <ele>184.4</ele>
        <time>2024-09-18T12:23:24Z</time>
      </trkpt>
      <trkpt lat="46.65513" lon="4.9525">
        <ele>184.4</ele>
        <time>2024-09-18T12:23:25Z</time>
      </trkpt>
      <trkpt lat="46.65509" lon="4.95251">
        <ele>184.8</ele>
        <time>2024-09-18T12:23:26Z</time>
      </trkpt>
      <trkpt lat="46.65505" lon="4.95251">
        <ele>184.4</ele>
        <time>2024-09-18T12:23:27Z</time>
      </trkpt>
      <trkpt lat="46.655" lon="4.95252">
        <ele>184.4</ele>
        <time>2024-09-18T12:23:28Z</time>
      </trkpt>
      <trkpt lat="46.65496" lon="4.95252">
        <ele>184.4</ele>
        <time>2024-09-18T12:23:29Z</time>
      </trkpt>
      <trkpt lat="46.65492" lon="4.95253">
        <ele>184.4</ele>
        <time>2024-09-18T12:23:30Z</time>
      </trkpt>
      <trkpt lat="46.65487" lon="4.95253">
        <ele>184.6</ele>
        <time>2024-09-18T12:23:31Z</time>
      </trkpt>
      <trkpt lat="46.65483" lon="4.95254">
        <ele>184.6</ele>
        <time>2024-09-18T12:23:32Z</time>
      </trkpt>
      <trkpt lat="46.65479" lon="4.95254">
        <ele>184.6</ele>
        <time>2024-09-18T12:23:33Z</time>
      </trkpt>
      <trkpt lat="46.65475" lon="4.95254">
        <ele>184.6</ele>
        <time>2024-09-18T12:23:34Z</time>
      </trkpt>
      <trkpt lat="46.6547" lon="4.95255">
        <ele>184.6</ele>
        <time>2024-09-18T12:23:35Z</time>
      </trkpt>
      <trkpt lat="46.65466" lon="4.95255">
        <ele>184.8</ele>
        <time>2024-09-18T12:23:36Z</time>
      </trkpt>
      <trkpt lat="46.65463" lon="4.95256">
        <ele>185</ele>
        <time>2024-09-18T12:23:37Z</time>
      </trkpt>
      <trkpt lat="46.65459" lon="4.95257">
        <ele>185</ele>
        <time>2024-09-18T12:23:38Z</time>
      </trkpt>
      <trkpt lat="46.65455" lon="4.95257">
        <ele>185</ele>
        <time>2024-09-18T12:23:39Z</time>
      </trkpt>
      <trkpt lat="46.65451" lon="4.95258">
        <ele>185</ele>
        <time>2024-09-18T12:23:40Z</time>
      </trkpt>
      <trkpt lat="46.65448" lon="4.9526">
        <ele>185</ele>
        <time>2024-09-18T12:23:41Z</time>
      </trkpt>
      <trkpt lat="46.65444" lon="4.95261">
        <ele>184.8</ele>
        <time>2024-09-18T12:23:42Z</time>
      </trkpt>
      <trkpt lat="46.65441" lon="4.95261">
        <ele>184.8</ele>
        <time>2024-09-18T12:23:43Z</time>
      </trkpt>
      <trkpt lat="46.65437" lon="4.95262">
        <ele>184.8</ele>
        <time>2024-09-18T12:23:44Z</time>
      </trkpt>
      <trkpt lat="46.65433" lon="4.95262">
        <ele>184.8</ele>
        <time>2024-09-18T12:23:45Z</time>
      </trkpt>
      <trkpt lat="46.65429" lon="4.95262">
        <ele>184.8</ele>
        <time>2024-09-18T12:23:46Z</time>
      </trkpt>
      <trkpt lat="46.65425" lon="4.95262">
        <ele>184.8</ele>
        <time>2024-09-18T12:23:47Z</time>
      </trkpt>
      <trkpt lat="46.65421" lon="4.95262">
        <ele>184.8</ele>
        <time>2024-09-18T12:23:48Z</time>
      </trkpt>
      <trkpt lat="46.65418" lon="4.95262">
        <ele>184.8</ele>
        <time>2024-09-18T12:23:49Z</time>
      </trkpt>
      <trkpt lat="46.65415" lon="4.95261">
        <ele>184.8</ele>
        <time>2024-09-18T12:23:50Z</time>
      </trkpt>
      <trkpt lat="46.65413" lon="4.95261">
        <ele>184.8</ele>
        <time>2024-09-18T12:23:51Z</time>
      </trkpt>
      <trkpt lat="46.65412" lon="4.9526">
        <ele>184.8</ele>
        <time>2024-09-18T12:23:52Z</time>
      </trkpt>
      <trkpt lat="46.6541" lon="4.9526">
        <ele>184.4</ele>
        <time>2024-09-18T12:23:53Z</time>
      </trkpt>
      <trkpt lat="46.65408" lon="4.95261">
        <ele>184.4</ele>
        <time>2024-09-18T12:23:54Z</time>
      </trkpt>
      <trkpt lat="46.65406" lon="4.95262">
        <ele>184.4</ele>
        <time>2024-09-18T12:23:55Z</time>
      </trkpt>
      <trkpt lat="46.65404" lon="4.95263">
        <ele>184.4</ele>
        <time>2024-09-18T12:23:56Z</time>
      </trkpt>
      <trkpt lat="46.65402" lon="4.95263">
        <ele>184.4</ele>
        <time>2024-09-18T12:23:57Z</time>
      </trkpt>
      <trkpt lat="46.65399" lon="4.95263">
        <ele>184.4</ele>
        <time>2024-09-18T12:23:58Z</time>
      </trkpt>
      <trkpt lat="46.65396" lon="4.95264">
        <ele>184.4</ele>
        <time>2024-09-18T12:23:59Z</time>
      </trkpt>
      <trkpt lat="46.65393" lon="4.95265">
        <ele>184.4</ele>
        <time>2024-09-18T12:24:00Z</time>
      </trkpt>
      <trkpt lat="46.6539" lon="4.95266">
        <ele>184.4</ele>
        <time>2024-09-18T12:24:01Z</time>
      </trkpt>
      <trkpt lat="46.65388" lon="4.95267">
        <ele>184.4</ele>
        <time>2024-09-18T12:24:02Z</time>
      </trkpt>
      <trkpt lat="46.65385" lon="4.95268">
        <ele>184</ele>
        <time>2024-09-18T12:24:03Z</time>
      </trkpt>
      <trkpt lat="46.65382" lon="4.95268">
        <ele>184</ele>
        <time>2024-09-18T12:24:04Z</time>
      </trkpt>
      <trkpt lat="46.6538" lon="4.95268">
        <ele>184</ele>
        <time>2024-09-18T12:24:05Z</time>
      </trkpt>
      <trkpt lat="46.65377" lon="4.95269">
        <ele>184</ele>
        <time>2024-09-18T12:24:06Z</time>
      </trkpt>
      <trkpt lat="46.65374" lon="4.9527">
        <ele>184</ele>
        <time>2024-09-18T12:24:07Z</time>
      </trkpt>
      <trkpt lat="46.65371" lon="4.95271">
        <ele>183.8</ele>
        <time>2024-09-18T12:24:08Z</time>
      </trkpt>
      <trkpt lat="46.65368" lon="4.95271">
        <ele>183.8</ele>
        <time>2024-09-18T12:24:09Z</time>
      </trkpt>
      <trkpt lat="46.65365" lon="4.95272">
        <ele>183.8</ele>
        <time>2024-09-18T12:24:10Z</time>
      </trkpt>
      <trkpt lat="46.65362" lon="4.95273">
        <ele>183.8</ele>
        <time>2024-09-18T12:24:11Z</time>
      </trkpt>
      <trkpt lat="46.65358" lon="4.95273">
        <ele>184</ele>
        <time>2024-09-18T12:24:12Z</time>
      </trkpt>
      <trkpt lat="46.65355" lon="4.95273">
        <ele>183.8</ele>
        <time>2024-09-18T12:24:13Z</time>
      </trkpt>
      <trkpt lat="46.65351" lon="4.95274">
        <ele>183.8</ele>
        <time>2024-09-18T12:24:14Z</time>
      </trkpt>
      <trkpt lat="46.65347" lon="4.95274">
        <ele>183.8</ele>
        <time>2024-09-18T12:24:15Z</time>
      </trkpt>
      <trkpt lat="46.65343" lon="4.95275">
        <ele>183.8</ele>
        <time>2024-09-18T12:24:16Z</time>
      </trkpt>
      <trkpt lat="46.6534" lon="4.95275">
        <ele>183.8</ele>
        <time>2024-09-18T12:24:17Z</time>
      </trkpt>
      <trkpt lat="46.65336" lon="4.95275">
        <ele>184.2</ele>
        <time>2024-09-18T12:24:18Z</time>
      </trkpt>
      <trkpt lat="46.65332" lon="4.95275">
        <ele>184.2</ele>
        <time>2024-09-18T12:24:19Z</time>
      </trkpt>
      <trkpt lat="46.65328" lon="4.95276">
        <ele>184.2</ele>
        <time>2024-09-18T12:24:20Z</time>
      </trkpt>
      <trkpt lat="46.65324" lon="4.95276">
        <ele>184.2</ele>
        <time>2024-09-18T12:24:21Z</time>
      </trkpt>
      <trkpt lat="46.65321" lon="4.95277">
        <ele>184.2</ele>
        <time>2024-09-18T12:24:22Z</time>
      </trkpt>
      <trkpt lat="46.65317" lon="4.95277">
        <ele>184.2</ele>
        <time>2024-09-18T12:24:23Z</time>
      </trkpt>
      <trkpt lat="46.65313" lon="4.95277">
        <ele>184.2</ele>
        <time>2024-09-18T12:24:24Z</time>
      </trkpt>
      <trkpt lat="46.65309" lon="4.95277">
        <ele>184.2</ele>
        <time>2024-09-18T12:24:25Z</time>
      </trkpt>
      <trkpt lat="46.65305" lon="4.95277">
        <ele>184.2</ele>
        <time>2024-09-18T12:24:26Z</time>
      </trkpt>
      <trkpt lat="46.653" lon="4.95277">
        <ele>184.4</ele>
        <time>2024-09-18T12:24:27Z</time>
      </trkpt>
      <trkpt lat="46.65296" lon="4.95277">
        <ele>184.4</ele>
        <time>2024-09-18T12:24:28Z</time>
      </trkpt>
      <trkpt lat="46.65292" lon="4.95278">
        <ele>184.4</ele>
        <time>2024-09-18T12:24:29Z</time>
      </trkpt>
      <trkpt lat="46.65288" lon="4.95278">
        <ele>184.4</ele>
        <time>2024-09-18T12:24:30Z</time>
      </trkpt>
      <trkpt lat="46.65284" lon="4.95278">
        <ele>184.4</ele>
        <time>2024-09-18T12:24:31Z</time>
      </trkpt>
      <trkpt lat="46.6528" lon="4.95278">
        <ele>184.4</ele>
        <time>2024-09-18T12:24:32Z</time>
      </trkpt>
      <trkpt lat="46.65275" lon="4.95278">
        <ele>184.4</ele>
        <time>2024-09-18T12:24:33Z</time>
      </trkpt>
      <trkpt lat="46.65271" lon="4.95278">
        <ele>184.4</ele>
        <time>2024-09-18T12:24:34Z</time>
      </trkpt>
      <trkpt lat="46.65266" lon="4.95279">
        <ele>184.2</ele>
        <time>2024-09-18T12:24:35Z</time>
      </trkpt>
      <trkpt lat="46.65262" lon="4.95279">
        <ele>184.2</ele>
        <time>2024-09-18T12:24:36Z</time>
      </trkpt>
      <trkpt lat="46.65258" lon="4.95279">
        <ele>184.2</ele>
        <time>2024-09-18T12:24:37Z</time>
      </trkpt>
      <trkpt lat="46.65253" lon="4.9528">
        <ele>184.2</ele>
        <time>2024-09-18T12:24:38Z</time>
      </trkpt>
      <trkpt lat="46.65249" lon="4.9528">
        <ele>184.6</ele>
        <time>2024-09-18T12:24:39Z</time>
      </trkpt>
      <trkpt lat="46.65245" lon="4.95281">
        <ele>184.6</ele>
        <time>2024-09-18T12:24:40Z</time>
      </trkpt>
      <trkpt lat="46.6524" lon="4.95281">
        <ele>184.6</ele>
        <time>2024-09-18T12:24:41Z</time>
      </trkpt>
      <trkpt lat="46.65236" lon="4.95281">
        <ele>184.6</ele>
        <time>2024-09-18T12:24:42Z</time>
      </trkpt>
      <trkpt lat="46.65232" lon="4.95281">
        <ele>184.4</ele>
        <time>2024-09-18T12:24:43Z</time>
      </trkpt>
      <trkpt lat="46.65227" lon="4.95281">
        <ele>184.4</ele>
        <time>2024-09-18T12:24:44Z</time>
      </trkpt>
      <trkpt lat="46.65223" lon="4.95281">
        <ele>184.4</ele>
        <time>2024-09-18T12:24:45Z</time>
      </trkpt>
      <trkpt lat="46.65219" lon="4.95282">
        <ele>184.4</ele>
        <time>2024-09-18T12:24:46Z</time>
      </trkpt>
      <trkpt lat="46.65215" lon="4.95282">
        <ele>184.4</ele>
        <time>2024-09-18T12:24:47Z</time>
      </trkpt>
      <trkpt lat="46.65212" lon="4.95283">
        <ele>184.4</ele>
        <time>2024-09-18T12:24:48Z</time>
      </trkpt>
      <trkpt lat="46.65208" lon="4.95283">
        <ele>184.4</ele>
        <time>2024-09-18T12:24:49Z</time>
      </trkpt>
      <trkpt lat="46.65204" lon="4.95283">
        <ele>184.4</ele>
        <time>2024-09-18T12:24:50Z</time>
      </trkpt>
      <trkpt lat="46.652" lon="4.95284">
        <ele>184.4</ele>
        <time>2024-09-18T12:24:51Z</time>
      </trkpt>
      <trkpt lat="46.65197" lon="4.95285">
        <ele>184.4</ele>
        <time>2024-09-18T12:24:52Z</time>
      </trkpt>
      <trkpt lat="46.65193" lon="4.95286">
        <ele>184.4</ele>
        <time>2024-09-18T12:24:53Z</time>
      </trkpt>
      <trkpt lat="46.65189" lon="4.95287">
        <ele>184.4</ele>
        <time>2024-09-18T12:24:54Z</time>
      </trkpt>
      <trkpt lat="46.65185" lon="4.95288">
        <ele>184.4</ele>
        <time>2024-09-18T12:24:55Z</time>
      </trkpt>
      <trkpt lat="46.65181" lon="4.95289">
        <ele>184.4</ele>
        <time>2024-09-18T12:24:56Z</time>
      </trkpt>
      <trkpt lat="46.65178" lon="4.9529">
        <ele>184.4</ele>
        <time>2024-09-18T12:24:57Z</time>
      </trkpt>
      <trkpt lat="46.65174" lon="4.9529">
        <ele>184.4</ele>
        <time>2024-09-18T12:24:58Z</time>
      </trkpt>
      <trkpt lat="46.65171" lon="4.9529">
        <ele>184.6</ele>
        <time>2024-09-18T12:24:59Z</time>
      </trkpt>
      <trkpt lat="46.65167" lon="4.95291">
        <ele>184.6</ele>
        <time>2024-09-18T12:25:00Z</time>
      </trkpt>
      <trkpt lat="46.65164" lon="4.95291">
        <ele>185</ele>
        <time>2024-09-18T12:25:01Z</time>
      </trkpt>
      <trkpt lat="46.65161" lon="4.95291">
        <ele>185.2</ele>
        <time>2024-09-18T12:25:02Z</time>
      </trkpt>
      <trkpt lat="46.65158" lon="4.95291">
        <ele>185.2</ele>
        <time>2024-09-18T12:25:03Z</time>
      </trkpt>
      <trkpt lat="46.65155" lon="4.95292">
        <ele>185.2</ele>
        <time>2024-09-18T12:25:04Z</time>
      </trkpt>
      <trkpt lat="46.65151" lon="4.95292">
        <ele>185.2</ele>
        <time>2024-09-18T12:25:05Z</time>
      </trkpt>
      <trkpt lat="46.65148" lon="4.95292">
        <ele>185.2</ele>
        <time>2024-09-18T12:25:06Z</time>
      </trkpt>
      <trkpt lat="46.65144" lon="4.95292">
        <ele>185.8</ele>
        <time>2024-09-18T12:25:07Z</time>
      </trkpt>
      <trkpt lat="46.6514" lon="4.95293">
        <ele>185.8</ele>
        <time>2024-09-18T12:25:08Z</time>
      </trkpt>
      <trkpt lat="46.65137" lon="4.95293">
        <ele>185.8</ele>
        <time>2024-09-18T12:25:09Z</time>
      </trkpt>
      <trkpt lat="46.65133" lon="4.95294">
        <ele>185.8</ele>
        <time>2024-09-18T12:25:10Z</time>
      </trkpt>
      <trkpt lat="46.65129" lon="4.95295">
        <ele>186</ele>
        <time>2024-09-18T12:25:11Z</time>
      </trkpt>
      <trkpt lat="46.65125" lon="4.95296">
        <ele>186</ele>
        <time>2024-09-18T12:25:12Z</time>
      </trkpt>
      <trkpt lat="46.65121" lon="4.95297">
        <ele>186</ele>
        <time>2024-09-18T12:25:13Z</time>
      </trkpt>
      <trkpt lat="46.65117" lon="4.95298">
        <ele>185.6</ele>
        <time>2024-09-18T12:25:14Z</time>
      </trkpt>
      <trkpt lat="46.65113" lon="4.95299">
        <ele>185.6</ele>
        <time>2024-09-18T12:25:15Z</time>
      </trkpt>
      <trkpt lat="46.6511" lon="4.95301">
        <ele>185.4</ele>
        <time>2024-09-18T12:25:16Z</time>
      </trkpt>
      <trkpt lat="46.65106" lon="4.95302">
        <ele>185.4</ele>
        <time>2024-09-18T12:25:17Z</time>
      </trkpt>
      <trkpt lat="46.65102" lon="4.95303">
        <ele>185.4</ele>
        <time>2024-09-18T12:25:18Z</time>
      </trkpt>
      <trkpt lat="46.65098" lon="4.95304">
        <ele>185.6</ele>
        <time>2024-09-18T12:25:19Z</time>
      </trkpt>
      <trkpt lat="46.65095" lon="4.95306">
        <ele>185.6</ele>
        <time>2024-09-18T12:25:20Z</time>
      </trkpt>
      <trkpt lat="46.65091" lon="4.95307">
        <ele>185.6</ele>
        <time>2024-09-18T12:25:21Z</time>
      </trkpt>
      <trkpt lat="46.65087" lon="4.95309">
        <ele>185.6</ele>
        <time>2024-09-18T12:25:22Z</time>
      </trkpt>
      <trkpt lat="46.65084" lon="4.95311">
        <ele>185.6</ele>
        <time>2024-09-18T12:25:23Z</time>
      </trkpt>
      <trkpt lat="46.6508" lon="4.95312">
        <ele>185.6</ele>
        <time>2024-09-18T12:25:24Z</time>
      </trkpt>
      <trkpt lat="46.65076" lon="4.95314">
        <ele>185.6</ele>
        <time>2024-09-18T12:25:25Z</time>
      </trkpt>
      <trkpt lat="46.65072" lon="4.95315">
        <ele>185.6</ele>
        <time>2024-09-18T12:25:26Z</time>
      </trkpt>
      <trkpt lat="46.65068" lon="4.95316">
        <ele>185.6</ele>
        <time>2024-09-18T12:25:27Z</time>
      </trkpt>
      <trkpt lat="46.65064" lon="4.95317">
        <ele>185.8</ele>
        <time>2024-09-18T12:25:28Z</time>
      </trkpt>
      <trkpt lat="46.6506" lon="4.95318">
        <ele>185.8</ele>
        <time>2024-09-18T12:25:29Z</time>
      </trkpt>
      <trkpt lat="46.65056" lon="4.95319">
        <ele>185.8</ele>
        <time>2024-09-18T12:25:30Z</time>
      </trkpt>
      <trkpt lat="46.65052" lon="4.9532">
        <ele>185.8</ele>
        <time>2024-09-18T12:25:31Z</time>
      </trkpt>
      <trkpt lat="46.65048" lon="4.9532">
        <ele>186</ele>
        <time>2024-09-18T12:25:32Z</time>
      </trkpt>
      <trkpt lat="46.65044" lon="4.9532">
        <ele>186.2</ele>
        <time>2024-09-18T12:25:33Z</time>
      </trkpt>
      <trkpt lat="46.6504" lon="4.9532">
        <ele>186.2</ele>
        <time>2024-09-18T12:25:34Z</time>
      </trkpt>
      <trkpt lat="46.65036" lon="4.95321">
        <ele>186.2</ele>
        <time>2024-09-18T12:25:35Z</time>
      </trkpt>
      <trkpt lat="46.65032" lon="4.95321">
        <ele>186.2</ele>
        <time>2024-09-18T12:25:36Z</time>
      </trkpt>
      <trkpt lat="46.65027" lon="4.95322">
        <ele>186.2</ele>
        <time>2024-09-18T12:25:37Z</time>
      </trkpt>
      <trkpt lat="46.65023" lon="4.95323">
        <ele>186.2</ele>
        <time>2024-09-18T12:25:38Z</time>
      </trkpt>
      <trkpt lat="46.65019" lon="4.95324">
        <ele>185.6</ele>
        <time>2024-09-18T12:25:39Z</time>
      </trkpt>
      <trkpt lat="46.65014" lon="4.95324">
        <ele>185.6</ele>
        <time>2024-09-18T12:25:40Z</time>
      </trkpt>
      <trkpt lat="46.6501" lon="4.95325">
        <ele>185.6</ele>
        <time>2024-09-18T12:25:41Z</time>
      </trkpt>
      <trkpt lat="46.65006" lon="4.95325">
        <ele>186.4</ele>
        <time>2024-09-18T12:25:42Z</time>
      </trkpt>
      <trkpt lat="46.65001" lon="4.95325">
        <ele>186.4</ele>
        <time>2024-09-18T12:25:43Z</time>
      </trkpt>
      <trkpt lat="46.64997" lon="4.95326">
        <ele>185.8</ele>
        <time>2024-09-18T12:25:44Z</time>
      </trkpt>
      <trkpt lat="46.64993" lon="4.95326">
        <ele>185.8</ele>
        <time>2024-09-18T12:25:45Z</time>
      </trkpt>
      <trkpt lat="46.64988" lon="4.95327">
        <ele>185.8</ele>
        <time>2024-09-18T12:25:46Z</time>
      </trkpt>
      <trkpt lat="46.64983" lon="4.95327">
        <ele>185.8</ele>
        <time>2024-09-18T12:25:47Z</time>
      </trkpt>
      <trkpt lat="46.64979" lon="4.95327">
        <ele>185.8</ele>
        <time>2024-09-18T12:25:48Z</time>
      </trkpt>
      <trkpt lat="46.64975" lon="4.95327">
        <ele>185.8</ele>
        <time>2024-09-18T12:25:49Z</time>
      </trkpt>
      <trkpt lat="46.6497" lon="4.95328">
        <ele>185.8</ele>
        <time>2024-09-18T12:25:50Z</time>
      </trkpt>
      <trkpt lat="46.64965" lon="4.95328">
        <ele>185.8</ele>
        <time>2024-09-18T12:25:51Z</time>
      </trkpt>
      <trkpt lat="46.64961" lon="4.95329">
        <ele>185.6</ele>
        <time>2024-09-18T12:25:52Z</time>
      </trkpt>
      <trkpt lat="46.64956" lon="4.95329">
        <ele>185.6</ele>
        <time>2024-09-18T12:25:53Z</time>
      </trkpt>
      <trkpt lat="46.64952" lon="4.95329">
        <ele>185.6</ele>
        <time>2024-09-18T12:25:54Z</time>
      </trkpt>
      <trkpt lat="46.64947" lon="4.9533">
        <ele>185.6</ele>
        <time>2024-09-18T12:25:55Z</time>
      </trkpt>
      <trkpt lat="46.64942" lon="4.9533">
        <ele>186.2</ele>
        <time>2024-09-18T12:25:56Z</time>
      </trkpt>
      <trkpt lat="46.64938" lon="4.95331">
        <ele>186.2</ele>
        <time>2024-09-18T12:25:57Z</time>
      </trkpt>
      <trkpt lat="46.64933" lon="4.95332">
        <ele>186.2</ele>
        <time>2024-09-18T12:25:58Z</time>
      </trkpt>
      <trkpt lat="46.64928" lon="4.95332">
        <ele>186.2</ele>
        <time>2024-09-18T12:25:59Z</time>
      </trkpt>
      <trkpt lat="46.64924" lon="4.95332">
        <ele>185.4</ele>
        <time>2024-09-18T12:26:00Z</time>
      </trkpt>
      <trkpt lat="46.6492" lon="4.95333">
        <ele>185.8</ele>
        <time>2024-09-18T12:26:01Z</time>
      </trkpt>
      <trkpt lat="46.64916" lon="4.95333">
        <ele>185.8</ele>
        <time>2024-09-18T12:26:02Z</time>
      </trkpt>
      <trkpt lat="46.64912" lon="4.95333">
        <ele>185.8</ele>
        <time>2024-09-18T12:26:03Z</time>
      </trkpt>
      <trkpt lat="46.64908" lon="4.95333">
        <ele>185.8</ele>
        <time>2024-09-18T12:26:04Z</time>
      </trkpt>
      <trkpt lat="46.64904" lon="4.95333">
        <ele>185.6</ele>
        <time>2024-09-18T12:26:05Z</time>
      </trkpt>
      <trkpt lat="46.649" lon="4.95333">
        <ele>185.6</ele>
        <time>2024-09-18T12:26:06Z</time>
      </trkpt>
      <trkpt lat="46.64896" lon="4.95334">
        <ele>185.6</ele>
        <time>2024-09-18T12:26:07Z</time>
      </trkpt>
      <trkpt lat="46.64891" lon="4.95334">
        <ele>185.6</ele>
        <time>2024-09-18T12:26:08Z</time>
      </trkpt>
      <trkpt lat="46.64887" lon="4.95335">
        <ele>185.8</ele>
        <time>2024-09-18T12:26:09Z</time>
      </trkpt>
      <trkpt lat="46.64883" lon="4.95335">
        <ele>185.6</ele>
        <time>2024-09-18T12:26:10Z</time>
      </trkpt>
      <trkpt lat="46.64879" lon="4.95336">
        <ele>185.6</ele>
        <time>2024-09-18T12:26:11Z</time>
      </trkpt>
      <trkpt lat="46.64874" lon="4.95336">
        <ele>185.6</ele>
        <time>2024-09-18T12:26:12Z</time>
      </trkpt>
      <trkpt lat="46.6487" lon="4.95336">
        <ele>185.6</ele>
        <time>2024-09-18T12:26:13Z</time>
      </trkpt>
      <trkpt lat="46.64865" lon="4.95337">
        <ele>185.6</ele>
        <time>2024-09-18T12:26:14Z</time>
      </trkpt>
      <trkpt lat="46.64861" lon="4.95337">
        <ele>185.6</ele>
        <time>2024-09-18T12:26:15Z</time>
      </trkpt>
      <trkpt lat="46.64856" lon="4.95338">
        <ele>185.6</ele>
        <time>2024-09-18T12:26:16Z</time>
      </trkpt>
      <trkpt lat="46.64852" lon="4.95338">
        <ele>185.6</ele>
        <time>2024-09-18T12:26:17Z</time>
      </trkpt>
      <trkpt lat="46.64847" lon="4.95338">
        <ele>185.4</ele>
        <time>2024-09-18T12:26:18Z</time>
      </trkpt>
      <trkpt lat="46.64843" lon="4.95338">
        <ele>185.4</ele>
        <time>2024-09-18T12:26:19Z</time>
      </trkpt>
      <trkpt lat="46.64839" lon="4.95339">
        <ele>185.4</ele>
        <time>2024-09-18T12:26:20Z</time>
      </trkpt>
      <trkpt lat="46.64834" lon="4.95339">
        <ele>185.4</ele>
        <time>2024-09-18T12:26:21Z</time>
      </trkpt>
      <trkpt lat="46.6483" lon="4.95339">
        <ele>185.4</ele>
        <time>2024-09-18T12:26:22Z</time>
      </trkpt>
      <trkpt lat="46.64825" lon="4.95339">
        <ele>185.4</ele>
        <time>2024-09-18T12:26:23Z</time>
      </trkpt>
      <trkpt lat="46.64821" lon="4.9534">
        <ele>185.2</ele>
        <time>2024-09-18T12:26:24Z</time>
      </trkpt>
      <trkpt lat="46.64816" lon="4.9534">
        <ele>185.2</ele>
        <time>2024-09-18T12:26:25Z</time>
      </trkpt>
      <trkpt lat="46.64811" lon="4.9534">
        <ele>185.2</ele>
        <time>2024-09-18T12:26:26Z</time>
      </trkpt>
      <trkpt lat="46.64807" lon="4.95341">
        <ele>185.4</ele>
        <time>2024-09-18T12:26:27Z</time>
      </trkpt>
      <trkpt lat="46.64802" lon="4.95341">
        <ele>185.4</ele>
        <time>2024-09-18T12:26:28Z</time>
      </trkpt>
      <trkpt lat="46.64797" lon="4.95342">
        <ele>185.4</ele>
        <time>2024-09-18T12:26:29Z</time>
      </trkpt>
      <trkpt lat="46.64792" lon="4.95343">
        <ele>185.4</ele>
        <time>2024-09-18T12:26:30Z</time>
      </trkpt>
      <trkpt lat="46.64787" lon="4.95344">
        <ele>185.4</ele>
        <time>2024-09-18T12:26:31Z</time>
      </trkpt>
      <trkpt lat="46.64782" lon="4.95344">
        <ele>185</ele>
        <time>2024-09-18T12:26:32Z</time>
      </trkpt>
      <trkpt lat="46.64776" lon="4.95345">
        <ele>185</ele>
        <time>2024-09-18T12:26:33Z</time>
      </trkpt>
      <trkpt lat="46.64771" lon="4.95345">
        <ele>185</ele>
        <time>2024-09-18T12:26:34Z</time>
      </trkpt>
      <trkpt lat="46.64766" lon="4.95346">
        <ele>185</ele>
        <time>2024-09-18T12:26:35Z</time>
      </trkpt>
      <trkpt lat="46.64761" lon="4.95346">
        <ele>184.6</ele>
        <time>2024-09-18T12:26:36Z</time>
      </trkpt>
      <trkpt lat="46.64756" lon="4.95347">
        <ele>184.8</ele>
        <time>2024-09-18T12:26:37Z</time>
      </trkpt>
      <trkpt lat="46.64751" lon="4.95347">
        <ele>184.8</ele>
        <time>2024-09-18T12:26:38Z</time>
      </trkpt>
      <trkpt lat="46.64747" lon="4.95348">
        <ele>184.8</ele>
        <time>2024-09-18T12:26:39Z</time>
      </trkpt>
      <trkpt lat="46.64742" lon="4.95348">
        <ele>184.8</ele>
        <time>2024-09-18T12:26:40Z</time>
      </trkpt>
      <trkpt lat="46.64738" lon="4.95349">
        <ele>184.8</ele>
        <time>2024-09-18T12:26:41Z</time>
      </trkpt>
      <trkpt lat="46.64733" lon="4.9535">
        <ele>184.6</ele>
        <time>2024-09-18T12:26:42Z</time>
      </trkpt>
      <trkpt lat="46.64728" lon="4.9535">
        <ele>184.6</ele>
        <time>2024-09-18T12:26:43Z</time>
      </trkpt>
      <trkpt lat="46.64724" lon="4.95351">
        <ele>184.6</ele>
        <time>2024-09-18T12:26:44Z</time>
      </trkpt>
      <trkpt lat="46.64719" lon="4.95351">
        <ele>184.6</ele>
        <time>2024-09-18T12:26:45Z</time>
      </trkpt>
      <trkpt lat="46.64715" lon="4.95352">
        <ele>184.6</ele>
        <time>2024-09-18T12:26:46Z</time>
      </trkpt>
      <trkpt lat="46.6471" lon="4.95353">
        <ele>184.6</ele>
        <time>2024-09-18T12:26:47Z</time>
      </trkpt>
      <trkpt lat="46.64706" lon="4.95353">
        <ele>184.6</ele>
        <time>2024-09-18T12:26:48Z</time>
      </trkpt>
      <trkpt lat="46.64701" lon="4.95354">
        <ele>184.6</ele>
        <time>2024-09-18T12:26:49Z</time>
      </trkpt>
      <trkpt lat="46.64697" lon="4.95355">
        <ele>184.6</ele>
        <time>2024-09-18T12:26:50Z</time>
      </trkpt>
      <trkpt lat="46.64693" lon="4.95356">
        <ele>184.4</ele>
        <time>2024-09-18T12:26:51Z</time>
      </trkpt>
      <trkpt lat="46.64688" lon="4.95357">
        <ele>184.4</ele>
        <time>2024-09-18T12:26:52Z</time>
      </trkpt>
      <trkpt lat="46.64684" lon="4.95358">
        <ele>184.4</ele>
        <time>2024-09-18T12:26:53Z</time>
      </trkpt>
      <trkpt lat="46.64679" lon="4.95358">
        <ele>184.4</ele>
        <time>2024-09-18T12:26:54Z</time>
      </trkpt>
      <trkpt lat="46.64674" lon="4.95359">
        <ele>184.2</ele>
        <time>2024-09-18T12:26:55Z</time>
      </trkpt>
      <trkpt lat="46.6467" lon="4.9536">
        <ele>184.2</ele>
        <time>2024-09-18T12:26:56Z</time>
      </trkpt>
      <trkpt lat="46.64665" lon="4.95361">
        <ele>184.2</ele>
        <time>2024-09-18T12:26:57Z</time>
      </trkpt>
      <trkpt lat="46.6466" lon="4.95362">
        <ele>184.8</ele>
        <time>2024-09-18T12:26:58Z</time>
      </trkpt>
      <trkpt lat="46.64655" lon="4.95362">
        <ele>184.4</ele>
        <time>2024-09-18T12:26:59Z</time>
      </trkpt>
      <trkpt lat="46.6465" lon="4.95362">
        <ele>184.4</ele>
        <time>2024-09-18T12:27:00Z</time>
      </trkpt>
      <trkpt lat="46.64646" lon="4.95363">
        <ele>184.4</ele>
        <time>2024-09-18T12:27:01Z</time>
      </trkpt>
      <trkpt lat="46.64641" lon="4.95364">
        <ele>184.4</ele>
        <time>2024-09-18T12:27:02Z</time>
      </trkpt>
      <trkpt lat="46.64636" lon="4.95364">
        <ele>184.4</ele>
        <time>2024-09-18T12:27:03Z</time>
      </trkpt>
      <trkpt lat="46.64632" lon="4.95364">
        <ele>184.4</ele>
        <time>2024-09-18T12:27:04Z</time>
      </trkpt>
      <trkpt lat="46.64627" lon="4.95365">
        <ele>184.6</ele>
        <time>2024-09-18T12:27:05Z</time>
      </trkpt>
      <trkpt lat="46.64623" lon="4.95365">
        <ele>184.6</ele>
        <time>2024-09-18T12:27:06Z</time>
      </trkpt>
      <trkpt lat="46.64619" lon="4.95365">
        <ele>184.6</ele>
        <time>2024-09-18T12:27:07Z</time>
      </trkpt>
      <trkpt lat="46.64615" lon="4.95365">
        <ele>184.6</ele>
        <time>2024-09-18T12:27:08Z</time>
      </trkpt>
      <trkpt lat="46.64612" lon="4.95365">
        <ele>184.6</ele>
        <time>2024-09-18T12:27:09Z</time>
      </trkpt>
      <trkpt lat="46.64609" lon="4.95365">
        <ele>185.2</ele>
        <time>2024-09-18T12:27:10Z</time>
      </trkpt>
      <trkpt lat="46.64606" lon="4.95364">
        <ele>185.2</ele>
        <time>2024-09-18T12:27:11Z</time>
      </trkpt>
      <trkpt lat="46.64603" lon="4.95364">
        <ele>186</ele>
        <time>2024-09-18T12:27:12Z</time>
      </trkpt>
      <trkpt lat="46.646" lon="4.95364">
        <ele>186</ele>
        <time>2024-09-18T12:27:13Z</time>
      </trkpt>
      <trkpt lat="46.64597" lon="4.95363">
        <ele>185.8</ele>
        <time>2024-09-18T12:27:14Z</time>
      </trkpt>
      <trkpt lat="46.64593" lon="4.95363">
        <ele>185.8</ele>
        <time>2024-09-18T12:27:15Z</time>
      </trkpt>
      <trkpt lat="46.64588" lon="4.95361">
        <ele>185.8</ele>
        <time>2024-09-18T12:27:16Z</time>
      </trkpt>
      <trkpt lat="46.64586" lon="4.95361">
        <ele>185.4</ele>
        <time>2024-09-18T12:27:17Z</time>
      </trkpt>
      <trkpt lat="46.64582" lon="4.9536">
        <ele>185.4</ele>
        <time>2024-09-18T12:27:18Z</time>
      </trkpt>
      <trkpt lat="46.64578" lon="4.95359">
        <ele>185.6</ele>
        <time>2024-09-18T12:27:19Z</time>
      </trkpt>
      <trkpt lat="46.64574" lon="4.95357">
        <ele>185.6</ele>
        <time>2024-09-18T12:27:20Z</time>
      </trkpt>
      <trkpt lat="46.6457" lon="4.95356">
        <ele>184.6</ele>
        <time>2024-09-18T12:27:21Z</time>
      </trkpt>
      <trkpt lat="46.64566" lon="4.95355">
        <ele>184.6</ele>
        <time>2024-09-18T12:27:22Z</time>
      </trkpt>
      <trkpt lat="46.64562" lon="4.95353">
        <ele>184.6</ele>
        <time>2024-09-18T12:27:23Z</time>
      </trkpt>
      <trkpt lat="46.64558" lon="4.95351">
        <ele>184.6</ele>
        <time>2024-09-18T12:27:24Z</time>
      </trkpt>
      <trkpt lat="46.64554" lon="4.9535">
        <ele>184.6</ele>
        <time>2024-09-18T12:27:25Z</time>
      </trkpt>
      <trkpt lat="46.6455" lon="4.95348">
        <ele>184.6</ele>
        <time>2024-09-18T12:27:26Z</time>
      </trkpt>
      <trkpt lat="46.64545" lon="4.95347">
        <ele>184.4</ele>
        <time>2024-09-18T12:27:27Z</time>
      </trkpt>
      <trkpt lat="46.64542" lon="4.95346">
        <ele>184.4</ele>
        <time>2024-09-18T12:27:28Z</time>
      </trkpt>
      <trkpt lat="46.64539" lon="4.95345">
        <ele>184.4</ele>
        <time>2024-09-18T12:27:29Z</time>
      </trkpt>
      <trkpt lat="46.64537" lon="4.95344">
        <ele>184.4</ele>
        <time>2024-09-18T12:27:30Z</time>
      </trkpt>
      <trkpt lat="46.64535" lon="4.95343">
        <ele>184.4</ele>
        <time>2024-09-18T12:27:31Z</time>
      </trkpt>
      <trkpt lat="46.64533" lon="4.95342">
        <ele>184.4</ele>
        <time>2024-09-18T12:27:32Z</time>
      </trkpt>
      <trkpt lat="46.64531" lon="4.95341">
        <ele>184.4</ele>
        <time>2024-09-18T12:27:33Z</time>
      </trkpt>
      <trkpt lat="46.64529" lon="4.9534">
        <ele>184</ele>
        <time>2024-09-18T12:27:34Z</time>
      </trkpt>
      <trkpt lat="46.64526" lon="4.95339">
        <ele>184.2</ele>
        <time>2024-09-18T12:27:35Z</time>
      </trkpt>
      <trkpt lat="46.64524" lon="4.95338">
        <ele>184.2</ele>
        <time>2024-09-18T12:27:36Z</time>
      </trkpt>
      <trkpt lat="46.64521" lon="4.95337">
        <ele>184.2</ele>
        <time>2024-09-18T12:27:37Z</time>
      </trkpt>
      <trkpt lat="46.64519" lon="4.95336">
        <ele>184.2</ele>
        <time>2024-09-18T12:27:38Z</time>
      </trkpt>
      <trkpt lat="46.64516" lon="4.95335">
        <ele>184</ele>
        <time>2024-09-18T12:27:39Z</time>
      </trkpt>
      <trkpt lat="46.64514" lon="4.95334">
        <ele>184</ele>
        <time>2024-09-18T12:27:40Z</time>
      </trkpt>
      <trkpt lat="46.64511" lon="4.95334">
        <ele>184</ele>
        <time>2024-09-18T12:27:41Z</time>
      </trkpt>
      <trkpt lat="46.64509" lon="4.95333">
        <ele>184</ele>
        <time>2024-09-18T12:27:42Z</time>
      </trkpt>
      <trkpt lat="46.64506" lon="4.95332">
        <ele>184</ele>
        <time>2024-09-18T12:27:43Z</time>
      </trkpt>
      <trkpt lat="46.64503" lon="4.95331">
        <ele>183.8</ele>
        <time>2024-09-18T12:27:44Z</time>
      </trkpt>
      <trkpt lat="46.64499" lon="4.9533">
        <ele>183.8</ele>
        <time>2024-09-18T12:27:45Z</time>
      </trkpt>
      <trkpt lat="46.64496" lon="4.95329">
        <ele>183.8</ele>
        <time>2024-09-18T12:27:46Z</time>
      </trkpt>
      <trkpt lat="46.64493" lon="4.95328">
        <ele>183.8</ele>
        <time>2024-09-18T12:27:47Z</time>
      </trkpt>
      <trkpt lat="46.64489" lon="4.95327">
        <ele>183.8</ele>
        <time>2024-09-18T12:27:48Z</time>
      </trkpt>
      <trkpt lat="46.64485" lon="4.95325">
        <ele>183.8</ele>
        <time>2024-09-18T12:27:49Z</time>
      </trkpt>
      <trkpt lat="46.64482" lon="4.95324">
        <ele>183.8</ele>
        <time>2024-09-18T12:27:50Z</time>
      </trkpt>
      <trkpt lat="46.64478" lon="4.95323">
        <ele>183.8</ele>
        <time>2024-09-18T12:27:51Z</time>
      </trkpt>
      <trkpt lat="46.64474" lon="4.95322">
        <ele>183.8</ele>
        <time>2024-09-18T12:27:52Z</time>
      </trkpt>
      <trkpt lat="46.6447" lon="4.95321">
        <ele>183.8</ele>
        <time>2024-09-18T12:27:53Z</time>
      </trkpt>
      <trkpt lat="46.64466" lon="4.9532">
        <ele>183.8</ele>
        <time>2024-09-18T12:27:54Z</time>
      </trkpt>
      <trkpt lat="46.64462" lon="4.9532">
        <ele>183.8</ele>
        <time>2024-09-18T12:27:55Z</time>
      </trkpt>
      <trkpt lat="46.64458" lon="4.9532">
        <ele>183.8</ele>
        <time>2024-09-18T12:27:56Z</time>
      </trkpt>
      <trkpt lat="46.64454" lon="4.95319">
        <ele>184.2</ele>
        <time>2024-09-18T12:27:57Z</time>
      </trkpt>
      <trkpt lat="46.6445" lon="4.95318">
        <ele>184.2</ele>
        <time>2024-09-18T12:27:58Z</time>
      </trkpt>
      <trkpt lat="46.64445" lon="4.95318">
        <ele>184.2</ele>
        <time>2024-09-18T12:27:59Z</time>
      </trkpt>
      <trkpt lat="46.64441" lon="4.95317">
        <ele>184.2</ele>
        <time>2024-09-18T12:28:00Z</time>
      </trkpt>
      <trkpt lat="46.64437" lon="4.95317">
        <ele>184.2</ele>
        <time>2024-09-18T12:28:01Z</time>
      </trkpt>
      <trkpt lat="46.64433" lon="4.95317">
        <ele>184.4</ele>
        <time>2024-09-18T12:28:02Z</time>
      </trkpt>
      <trkpt lat="46.64429" lon="4.95317">
        <ele>184.2</ele>
        <time>2024-09-18T12:28:03Z</time>
      </trkpt>
      <trkpt lat="46.64425" lon="4.95316">
        <ele>184.2</ele>
        <time>2024-09-18T12:28:04Z</time>
      </trkpt>
      <trkpt lat="46.64421" lon="4.95316">
        <ele>184.2</ele>
        <time>2024-09-18T12:28:05Z</time>
      </trkpt>
      <trkpt lat="46.64417" lon="4.95316">
        <ele>185</ele>
        <time>2024-09-18T12:28:06Z</time>
      </trkpt>
      <trkpt lat="46.64413" lon="4.95315">
        <ele>184.6</ele>
        <time>2024-09-18T12:28:07Z</time>
      </trkpt>
      <trkpt lat="46.64409" lon="4.95315">
        <ele>184.6</ele>
        <time>2024-09-18T12:28:08Z</time>
      </trkpt>
      <trkpt lat="46.64405" lon="4.95315">
        <ele>184.6</ele>
        <time>2024-09-18T12:28:09Z</time>
      </trkpt>
      <trkpt lat="46.64401" lon="4.95314">
        <ele>184.6</ele>
        <time>2024-09-18T12:28:10Z</time>
      </trkpt>
      <trkpt lat="46.64397" lon="4.95314">
        <ele>184.6</ele>
        <time>2024-09-18T12:28:11Z</time>
      </trkpt>
      <trkpt lat="46.64392" lon="4.95314">
        <ele>184.8</ele>
        <time>2024-09-18T12:28:12Z</time>
      </trkpt>
      <trkpt lat="46.64388" lon="4.95314">
        <ele>184.8</ele>
        <time>2024-09-18T12:28:13Z</time>
      </trkpt>
      <trkpt lat="46.64383" lon="4.95314">
        <ele>184.8</ele>
        <time>2024-09-18T12:28:14Z</time>
      </trkpt>
      <trkpt lat="46.64379" lon="4.95314">
        <ele>184.8</ele>
        <time>2024-09-18T12:28:15Z</time>
      </trkpt>
      <trkpt lat="46.64374" lon="4.95314">
        <ele>184.6</ele>
        <time>2024-09-18T12:28:16Z</time>
      </trkpt>
      <trkpt lat="46.6437" lon="4.95314">
        <ele>184.6</ele>
        <time>2024-09-18T12:28:17Z</time>
      </trkpt>
      <trkpt lat="46.64365" lon="4.95314">
        <ele>184.6</ele>
        <time>2024-09-18T12:28:18Z</time>
      </trkpt>
      <trkpt lat="46.64361" lon="4.95314">
        <ele>184.6</ele>
        <time>2024-09-18T12:28:19Z</time>
      </trkpt>
      <trkpt lat="46.64356" lon="4.95313">
        <ele>184.4</ele>
        <time>2024-09-18T12:28:20Z</time>
      </trkpt>
      <trkpt lat="46.64351" lon="4.95313">
        <ele>184.4</ele>
        <time>2024-09-18T12:28:21Z</time>
      </trkpt>
      <trkpt lat="46.64347" lon="4.95313">
        <ele>184.4</ele>
        <time>2024-09-18T12:28:22Z</time>
      </trkpt>
      <trkpt lat="46.64342" lon="4.95313">
        <ele>184.4</ele>
        <time>2024-09-18T12:28:23Z</time>
      </trkpt>
      <trkpt lat="46.64337" lon="4.95313">
        <ele>184.4</ele>
        <time>2024-09-18T12:28:24Z</time>
      </trkpt>
      <trkpt lat="46.64332" lon="4.95314">
        <ele>184.6</ele>
        <time>2024-09-18T12:28:25Z</time>
      </trkpt>
      <trkpt lat="46.64327" lon="4.95314">
        <ele>184.6</ele>
        <time>2024-09-18T12:28:26Z</time>
      </trkpt>
      <trkpt lat="46.64323" lon="4.95314">
        <ele>184.6</ele>
        <time>2024-09-18T12:28:27Z</time>
      </trkpt>
      <trkpt lat="46.64318" lon="4.95314">
        <ele>184.6</ele>
        <time>2024-09-18T12:28:28Z</time>
      </trkpt>
      <trkpt lat="46.64313" lon="4.95314">
        <ele>184.6</ele>
        <time>2024-09-18T12:28:29Z</time>
      </trkpt>
      <trkpt lat="46.64308" lon="4.95314">
        <ele>184.4</ele>
        <time>2024-09-18T12:28:30Z</time>
      </trkpt>
      <trkpt lat="46.64304" lon="4.95314">
        <ele>184.4</ele>
        <time>2024-09-18T12:28:31Z</time>
      </trkpt>
      <trkpt lat="46.64299" lon="4.95314">
        <ele>184.4</ele>
        <time>2024-09-18T12:28:32Z</time>
      </trkpt>
      <trkpt lat="46.64294" lon="4.95314">
        <ele>185</ele>
        <time>2024-09-18T12:28:33Z</time>
      </trkpt>
      <trkpt lat="46.64289" lon="4.95315">
        <ele>185</ele>
        <time>2024-09-18T12:28:34Z</time>
      </trkpt>
      <trkpt lat="46.64284" lon="4.95316">
        <ele>184.8</ele>
        <time>2024-09-18T12:28:35Z</time>
      </trkpt>
      <trkpt lat="46.6428" lon="4.95316">
        <ele>184.8</ele>
        <time>2024-09-18T12:28:36Z</time>
      </trkpt>
      <trkpt lat="46.64275" lon="4.95317">
        <ele>184.8</ele>
        <time>2024-09-18T12:28:37Z</time>
      </trkpt>
      <trkpt lat="46.6427" lon="4.95318">
        <ele>184</ele>
        <time>2024-09-18T12:28:38Z</time>
      </trkpt>
      <trkpt lat="46.64265" lon="4.95319">
        <ele>184</ele>
        <time>2024-09-18T12:28:39Z</time>
      </trkpt>
      <trkpt lat="46.6426" lon="4.9532">
        <ele>184.6</ele>
        <time>2024-09-18T12:28:40Z</time>
      </trkpt>
      <trkpt lat="46.64255" lon="4.95321">
        <ele>184.6</ele>
        <time>2024-09-18T12:28:41Z</time>
      </trkpt>
      <trkpt lat="46.64249" lon="4.95322">
        <ele>184.2</ele>
        <time>2024-09-18T12:28:42Z</time>
      </trkpt>
      <trkpt lat="46.64244" lon="4.95323">
        <ele>184</ele>
        <time>2024-09-18T12:28:43Z</time>
      </trkpt>
      <trkpt lat="46.64239" lon="4.95324">
        <ele>184</ele>
        <time>2024-09-18T12:28:44Z</time>
      </trkpt>
      <trkpt lat="46.64234" lon="4.95325">
        <ele>184</ele>
        <time>2024-09-18T12:28:45Z</time>
      </trkpt>
      <trkpt lat="46.64228" lon="4.95325">
        <ele>184</ele>
        <time>2024-09-18T12:28:46Z</time>
      </trkpt>
      <trkpt lat="46.64223" lon="4.95326">
        <ele>184</ele>
        <time>2024-09-18T12:28:47Z</time>
      </trkpt>
      <trkpt lat="46.64219" lon="4.95326">
        <ele>183</ele>
        <time>2024-09-18T12:28:48Z</time>
      </trkpt>
      <trkpt lat="46.64214" lon="4.95327">
        <ele>183</ele>
        <time>2024-09-18T12:28:49Z</time>
      </trkpt>
      <trkpt lat="46.64209" lon="4.95327">
        <ele>183</ele>
        <time>2024-09-18T12:28:50Z</time>
      </trkpt>
      <trkpt lat="46.64204" lon="4.95328">
        <ele>184</ele>
        <time>2024-09-18T12:28:51Z</time>
      </trkpt>
      <trkpt lat="46.64199" lon="4.95328">
        <ele>184.4</ele>
        <time>2024-09-18T12:28:52Z</time>
      </trkpt>
      <trkpt lat="46.64194" lon="4.95329">
        <ele>184.4</ele>
        <time>2024-09-18T12:28:53Z</time>
      </trkpt>
      <trkpt lat="46.6419" lon="4.95329">
        <ele>184.4</ele>
        <time>2024-09-18T12:28:54Z</time>
      </trkpt>
      <trkpt lat="46.64185" lon="4.9533">
        <ele>184.2</ele>
        <time>2024-09-18T12:28:55Z</time>
      </trkpt>
      <trkpt lat="46.6418" lon="4.9533">
        <ele>184.2</ele>
        <time>2024-09-18T12:28:56Z</time>
      </trkpt>
      <trkpt lat="46.64175" lon="4.95331">
        <ele>184.4</ele>
        <time>2024-09-18T12:28:57Z</time>
      </trkpt>
      <trkpt lat="46.6417" lon="4.95331">
        <ele>184.4</ele>
        <time>2024-09-18T12:28:58Z</time>
      </trkpt>
      <trkpt lat="46.64165" lon="4.95332">
        <ele>184.4</ele>
        <time>2024-09-18T12:28:59Z</time>
      </trkpt>
      <trkpt lat="46.6416" lon="4.95332">
        <ele>183.6</ele>
        <time>2024-09-18T12:29:00Z</time>
      </trkpt>
      <trkpt lat="46.64155" lon="4.95332">
        <ele>184</ele>
        <time>2024-09-18T12:29:01Z</time>
      </trkpt>
      <trkpt lat="46.6415" lon="4.95333">
        <ele>184</ele>
        <time>2024-09-18T12:29:02Z</time>
      </trkpt>
      <trkpt lat="46.64145" lon="4.95333">
        <ele>184</ele>
        <time>2024-09-18T12:29:03Z</time>
      </trkpt>
      <trkpt lat="46.64141" lon="4.95333">
        <ele>184</ele>
        <time>2024-09-18T12:29:04Z</time>
      </trkpt>
      <trkpt lat="46.64136" lon="4.95333">
        <ele>184</ele>
        <time>2024-09-18T12:29:05Z</time>
      </trkpt>
      <trkpt lat="46.64131" lon="4.95334">
        <ele>184</ele>
        <time>2024-09-18T12:29:06Z</time>
      </trkpt>
      <trkpt lat="46.64126" lon="4.95334">
        <ele>184</ele>
        <time>2024-09-18T12:29:07Z</time>
      </trkpt>
      <trkpt lat="46.64121" lon="4.95334">
        <ele>184</ele>
        <time>2024-09-18T12:29:08Z</time>
      </trkpt>
      <trkpt lat="46.64116" lon="4.95335">
        <ele>184</ele>
        <time>2024-09-18T12:29:09Z</time>
      </trkpt>
      <trkpt lat="46.64111" lon="4.95335">
        <ele>184.4</ele>
        <time>2024-09-18T12:29:10Z</time>
      </trkpt>
      <trkpt lat="46.64107" lon="4.95335">
        <ele>184.4</ele>
        <time>2024-09-18T12:29:11Z</time>
      </trkpt>
      <trkpt lat="46.64102" lon="4.95335">
        <ele>184.4</ele>
        <time>2024-09-18T12:29:12Z</time>
      </trkpt>
      <trkpt lat="46.64097" lon="4.95335">
        <ele>184.4</ele>
        <time>2024-09-18T12:29:13Z</time>
      </trkpt>
      <trkpt lat="46.64092" lon="4.95335">
        <ele>184.2</ele>
        <time>2024-09-18T12:29:14Z</time>
      </trkpt>
      <trkpt lat="46.64087" lon="4.95335">
        <ele>184.2</ele>
        <time>2024-09-18T12:29:15Z</time>
      </trkpt>
      <trkpt lat="46.64081" lon="4.95336">
        <ele>183.8</ele>
        <time>2024-09-18T12:29:16Z</time>
      </trkpt>
      <trkpt lat="46.64076" lon="4.95337">
        <ele>183.8</ele>
        <time>2024-09-18T12:29:17Z</time>
      </trkpt>
      <trkpt lat="46.64071" lon="4.95338">
        <ele>183.8</ele>
        <time>2024-09-18T12:29:18Z</time>
      </trkpt>
      <trkpt lat="46.64066" lon="4.95339">
        <ele>184.4</ele>
        <time>2024-09-18T12:29:19Z</time>
      </trkpt>
      <trkpt lat="46.64061" lon="4.95341">
        <ele>184.4</ele>
        <time>2024-09-18T12:29:20Z</time>
      </trkpt>
      <trkpt lat="46.64056" lon="4.95342">
        <ele>184.4</ele>
        <time>2024-09-18T12:29:21Z</time>
      </trkpt>
      <trkpt lat="46.64051" lon="4.95344">
        <ele>184.4</ele>
        <time>2024-09-18T12:29:22Z</time>
      </trkpt>
      <trkpt lat="46.64047" lon="4.95346">
        <ele>184.4</ele>
        <time>2024-09-18T12:29:23Z</time>
      </trkpt>
      <trkpt lat="46.64042" lon="4.95348">
        <ele>184.4</ele>
        <time>2024-09-18T12:29:24Z</time>
      </trkpt>
      <trkpt lat="46.64038" lon="4.9535">
        <ele>184.4</ele>
        <time>2024-09-18T12:29:25Z</time>
      </trkpt>
      <trkpt lat="46.64033" lon="4.95352">
        <ele>184.4</ele>
        <time>2024-09-18T12:29:26Z</time>
      </trkpt>
      <trkpt lat="46.64029" lon="4.95354">
        <ele>184.4</ele>
        <time>2024-09-18T12:29:27Z</time>
      </trkpt>
      <trkpt lat="46.64025" lon="4.95356">
        <ele>184.2</ele>
        <time>2024-09-18T12:29:28Z</time>
      </trkpt>
      <trkpt lat="46.6402" lon="4.95359">
        <ele>184.2</ele>
        <time>2024-09-18T12:29:29Z</time>
      </trkpt>
      <trkpt lat="46.64015" lon="4.95361">
        <ele>184.2</ele>
        <time>2024-09-18T12:29:30Z</time>
      </trkpt>
      <trkpt lat="46.64011" lon="4.95364">
        <ele>184.2</ele>
        <time>2024-09-18T12:29:31Z</time>
      </trkpt>
      <trkpt lat="46.64006" lon="4.95366">
        <ele>184.2</ele>
        <time>2024-09-18T12:29:32Z</time>
      </trkpt>
      <trkpt lat="46.64001" lon="4.95368">
        <ele>184</ele>
        <time>2024-09-18T12:29:33Z</time>
      </trkpt>
      <trkpt lat="46.63997" lon="4.95371">
        <ele>184</ele>
        <time>2024-09-18T12:29:34Z</time>
      </trkpt>
      <trkpt lat="46.63993" lon="4.95373">
        <ele>184</ele>
        <time>2024-09-18T12:29:35Z</time>
      </trkpt>
      <trkpt lat="46.63988" lon="4.95375">
        <ele>184</ele>
        <time>2024-09-18T12:29:36Z</time>
      </trkpt>
      <trkpt lat="46.63984" lon="4.95377">
        <ele>184.4</ele>
        <time>2024-09-18T12:29:37Z</time>
      </trkpt>
      <trkpt lat="46.63979" lon="4.95379">
        <ele>184.4</ele>
        <time>2024-09-18T12:29:38Z</time>
      </trkpt>
      <trkpt lat="46.63975" lon="4.95382">
        <ele>184.4</ele>
        <time>2024-09-18T12:29:39Z</time>
      </trkpt>
      <trkpt lat="46.6397" lon="4.95384">
        <ele>184.2</ele>
        <time>2024-09-18T12:29:40Z</time>
      </trkpt>
      <trkpt lat="46.63966" lon="4.95386">
        <ele>184.2</ele>
        <time>2024-09-18T12:29:41Z</time>
      </trkpt>
      <trkpt lat="46.63961" lon="4.95389">
        <ele>184</ele>
        <time>2024-09-18T12:29:42Z</time>
      </trkpt>
      <trkpt lat="46.63957" lon="4.95391">
        <ele>184</ele>
        <time>2024-09-18T12:29:43Z</time>
      </trkpt>
      <trkpt lat="46.63952" lon="4.95393">
        <ele>184</ele>
        <time>2024-09-18T12:29:44Z</time>
      </trkpt>
      <trkpt lat="46.63948" lon="4.95395">
        <ele>184.2</ele>
        <time>2024-09-18T12:29:45Z</time>
      </trkpt>
      <trkpt lat="46.63943" lon="4.95397">
        <ele>184.6</ele>
        <time>2024-09-18T12:29:46Z</time>
      </trkpt>
      <trkpt lat="46.63938" lon="4.95399">
        <ele>184.6</ele>
        <time>2024-09-18T12:29:47Z</time>
      </trkpt>
      <trkpt lat="46.63934" lon="4.95401">
        <ele>184.6</ele>
        <time>2024-09-18T12:29:48Z</time>
      </trkpt>
      <trkpt lat="46.63929" lon="4.95403">
        <ele>184.6</ele>
        <time>2024-09-18T12:29:49Z</time>
      </trkpt>
      <trkpt lat="46.63925" lon="4.95405">
        <ele>184.4</ele>
        <time>2024-09-18T12:29:50Z</time>
      </trkpt>
      <trkpt lat="46.6392" lon="4.95407">
        <ele>184.4</ele>
        <time>2024-09-18T12:29:51Z</time>
      </trkpt>
      <trkpt lat="46.63916" lon="4.95409">
        <ele>184.4</ele>
        <time>2024-09-18T12:29:52Z</time>
      </trkpt>
      <trkpt lat="46.63911" lon="4.9541">
        <ele>184.4</ele>
        <time>2024-09-18T12:29:53Z</time>
      </trkpt>
      <trkpt lat="46.63906" lon="4.95412">
        <ele>184.4</ele>
        <time>2024-09-18T12:29:54Z</time>
      </trkpt>
      <trkpt lat="46.63901" lon="4.95413">
        <ele>184.4</ele>
        <time>2024-09-18T12:29:55Z</time>
      </trkpt>
      <trkpt lat="46.63897" lon="4.95415">
        <ele>184.6</ele>
        <time>2024-09-18T12:29:56Z</time>
      </trkpt>
      <trkpt lat="46.63892" lon="4.95416">
        <ele>184.6</ele>
        <time>2024-09-18T12:29:57Z</time>
      </trkpt>
      <trkpt lat="46.63888" lon="4.95417">
        <ele>184.6</ele>
        <time>2024-09-18T12:29:58Z</time>
      </trkpt>
      <trkpt lat="46.63883" lon="4.95419">
        <ele>184.6</ele>
        <time>2024-09-18T12:29:59Z</time>
      </trkpt>
      <trkpt lat="46.63878" lon="4.9542">
        <ele>184.6</ele>
        <time>2024-09-18T12:30:00Z</time>
      </trkpt>
      <trkpt lat="46.63873" lon="4.95421">
        <ele>184.6</ele>
        <time>2024-09-18T12:30:01Z</time>
      </trkpt>
      <trkpt lat="46.63869" lon="4.95422">
        <ele>184.6</ele>
        <time>2024-09-18T12:30:02Z</time>
      </trkpt>
      <trkpt lat="46.63864" lon="4.95423">
        <ele>184.6</ele>
        <time>2024-09-18T12:30:03Z</time>
      </trkpt>
      <trkpt lat="46.63859" lon="4.95424">
        <ele>184.6</ele>
        <time>2024-09-18T12:30:04Z</time>
      </trkpt>
      <trkpt lat="46.63854" lon="4.95426">
        <ele>184.6</ele>
        <time>2024-09-18T12:30:05Z</time>
      </trkpt>
      <trkpt lat="46.63849" lon="4.95427">
        <ele>184.6</ele>
        <time>2024-09-18T12:30:06Z</time>
      </trkpt>
      <trkpt lat="46.63844" lon="4.95428">
        <ele>184.6</ele>
        <time>2024-09-18T12:30:07Z</time>
      </trkpt>
      <trkpt lat="46.63839" lon="4.95428">
        <ele>184.4</ele>
        <time>2024-09-18T12:30:08Z</time>
      </trkpt>
      <trkpt lat="46.63835" lon="4.95429">
        <ele>184.4</ele>
        <time>2024-09-18T12:30:09Z</time>
      </trkpt>
      <trkpt lat="46.6383" lon="4.9543">
        <ele>184.2</ele>
        <time>2024-09-18T12:30:10Z</time>
      </trkpt>
      <trkpt lat="46.63825" lon="4.95431">
        <ele>184.2</ele>
        <time>2024-09-18T12:30:11Z</time>
      </trkpt>
      <trkpt lat="46.6382" lon="4.95431">
        <ele>184</ele>
        <time>2024-09-18T12:30:12Z</time>
      </trkpt>
      <trkpt lat="46.63815" lon="4.95432">
        <ele>184</ele>
        <time>2024-09-18T12:30:13Z</time>
      </trkpt>
      <trkpt lat="46.63811" lon="4.95432">
        <ele>184.2</ele>
        <time>2024-09-18T12:30:14Z</time>
      </trkpt>
      <trkpt lat="46.63806" lon="4.95432">
        <ele>184.2</ele>
        <time>2024-09-18T12:30:15Z</time>
      </trkpt>
      <trkpt lat="46.63802" lon="4.95433">
        <ele>184.2</ele>
        <time>2024-09-18T12:30:16Z</time>
      </trkpt>
      <trkpt lat="46.63798" lon="4.95433">
        <ele>184.2</ele>
        <time>2024-09-18T12:30:17Z</time>
      </trkpt>
      <trkpt lat="46.63794" lon="4.95433">
        <ele>184.2</ele>
        <time>2024-09-18T12:30:18Z</time>
      </trkpt>
      <trkpt lat="46.6379" lon="4.95434">
        <ele>184.2</ele>
        <time>2024-09-18T12:30:19Z</time>
      </trkpt>
      <trkpt lat="46.63786" lon="4.95434">
        <ele>184.2</ele>
        <time>2024-09-18T12:30:20Z</time>
      </trkpt>
      <trkpt lat="46.63782" lon="4.95434">
        <ele>184.2</ele>
        <time>2024-09-18T12:30:21Z</time>
      </trkpt>
      <trkpt lat="46.63777" lon="4.95435">
        <ele>184.6</ele>
        <time>2024-09-18T12:30:22Z</time>
      </trkpt>
      <trkpt lat="46.63773" lon="4.95435">
        <ele>184.6</ele>
        <time>2024-09-18T12:30:23Z</time>
      </trkpt>
      <trkpt lat="46.63768" lon="4.95435">
        <ele>184.6</ele>
        <time>2024-09-18T12:30:24Z</time>
      </trkpt>
      <trkpt lat="46.63763" lon="4.95436">
        <ele>184.6</ele>
        <time>2024-09-18T12:30:25Z</time>
      </trkpt>
      <trkpt lat="46.63759" lon="4.95436">
        <ele>185</ele>
        <time>2024-09-18T12:30:26Z</time>
      </trkpt>
      <trkpt lat="46.63754" lon="4.95436">
        <ele>185</ele>
        <time>2024-09-18T12:30:27Z</time>
      </trkpt>
      <trkpt lat="46.6375" lon="4.95436">
        <ele>185</ele>
        <time>2024-09-18T12:30:28Z</time>
      </trkpt>
      <trkpt lat="46.63745" lon="4.95436">
        <ele>185</ele>
        <time>2024-09-18T12:30:29Z</time>
      </trkpt>
      <trkpt lat="46.63741" lon="4.95436">
        <ele>184.6</ele>
        <time>2024-09-18T12:30:30Z</time>
      </trkpt>
      <trkpt lat="46.63736" lon="4.95436">
        <ele>184.8</ele>
        <time>2024-09-18T12:30:31Z</time>
      </trkpt>
      <trkpt lat="46.63732" lon="4.95436">
        <ele>184.8</ele>
        <time>2024-09-18T12:30:32Z</time>
      </trkpt>
      <trkpt lat="46.63728" lon="4.95435">
        <ele>184.8</ele>
        <time>2024-09-18T12:30:33Z</time>
      </trkpt>
      <trkpt lat="46.63723" lon="4.95435">
        <ele>184.8</ele>
        <time>2024-09-18T12:30:34Z</time>
      </trkpt>
      <trkpt lat="46.63719" lon="4.95434">
        <ele>184.8</ele>
        <time>2024-09-18T12:30:35Z</time>
      </trkpt>
      <trkpt lat="46.63714" lon="4.95434">
        <ele>184.8</ele>
        <time>2024-09-18T12:30:36Z</time>
      </trkpt>
      <trkpt lat="46.63709" lon="4.95433">
        <ele>184.8</ele>
        <time>2024-09-18T12:30:37Z</time>
      </trkpt>
      <trkpt lat="46.63705" lon="4.95432">
        <ele>184.8</ele>
        <time>2024-09-18T12:30:38Z</time>
      </trkpt>
      <trkpt lat="46.637" lon="4.95432">
        <ele>184.8</ele>
        <time>2024-09-18T12:30:39Z</time>
      </trkpt>
      <trkpt lat="46.63695" lon="4.95431">
        <ele>184.8</ele>
        <time>2024-09-18T12:30:40Z</time>
      </trkpt>
      <trkpt lat="46.63691" lon="4.9543">
        <ele>184.8</ele>
        <time>2024-09-18T12:30:41Z</time>
      </trkpt>
      <trkpt lat="46.63687" lon="4.95429">
        <ele>184.8</ele>
        <time>2024-09-18T12:30:42Z</time>
      </trkpt>
      <trkpt lat="46.63682" lon="4.95428">
        <ele>184.8</ele>
        <time>2024-09-18T12:30:43Z</time>
      </trkpt>
      <trkpt lat="46.63677" lon="4.95427">
        <ele>185</ele>
        <time>2024-09-18T12:30:44Z</time>
      </trkpt>
      <trkpt lat="46.63673" lon="4.95426">
        <ele>185</ele>
        <time>2024-09-18T12:30:45Z</time>
      </trkpt>
      <trkpt lat="46.63668" lon="4.95425">
        <ele>185</ele>
        <time>2024-09-18T12:30:46Z</time>
      </trkpt>
      <trkpt lat="46.63663" lon="4.95424">
        <ele>185</ele>
        <time>2024-09-18T12:30:47Z</time>
      </trkpt>
      <trkpt lat="46.63658" lon="4.95422">
        <ele>184.8</ele>
        <time>2024-09-18T12:30:48Z</time>
      </trkpt>
      <trkpt lat="46.63654" lon="4.9542">
        <ele>184.8</ele>
        <time>2024-09-18T12:30:49Z</time>
      </trkpt>
      <trkpt lat="46.63649" lon="4.95419">
        <ele>185</ele>
        <time>2024-09-18T12:30:50Z</time>
      </trkpt>
      <trkpt lat="46.63645" lon="4.95417">
        <ele>185</ele>
        <time>2024-09-18T12:30:51Z</time>
      </trkpt>
      <trkpt lat="46.63641" lon="4.95415">
        <ele>185</ele>
        <time>2024-09-18T12:30:52Z</time>
      </trkpt>
      <trkpt lat="46.63637" lon="4.95413">
        <ele>185</ele>
        <time>2024-09-18T12:30:53Z</time>
      </trkpt>
      <trkpt lat="46.63632" lon="4.95412">
        <ele>184.8</ele>
        <time>2024-09-18T12:30:54Z</time>
      </trkpt>
      <trkpt lat="46.63628" lon="4.95411">
        <ele>184.8</ele>
        <time>2024-09-18T12:30:55Z</time>
      </trkpt>
      <trkpt lat="46.63624" lon="4.95411">
        <ele>184.8</ele>
        <time>2024-09-18T12:30:56Z</time>
      </trkpt>
      <trkpt lat="46.6362" lon="4.95412">
        <ele>184.8</ele>
        <time>2024-09-18T12:30:57Z</time>
      </trkpt>
      <trkpt lat="46.63617" lon="4.95413">
        <ele>184.8</ele>
        <time>2024-09-18T12:30:58Z</time>
      </trkpt>
      <trkpt lat="46.63613" lon="4.95415">
        <ele>184.6</ele>
        <time>2024-09-18T12:30:59Z</time>
      </trkpt>
      <trkpt lat="46.6361" lon="4.95417">
        <ele>184.6</ele>
        <time>2024-09-18T12:31:00Z</time>
      </trkpt>
      <trkpt lat="46.63606" lon="4.95418">
        <ele>184.6</ele>
        <time>2024-09-18T12:31:01Z</time>
      </trkpt>
      <trkpt lat="46.63602" lon="4.9542">
        <ele>184.6</ele>
        <time>2024-09-18T12:31:02Z</time>
      </trkpt>
      <trkpt lat="46.63598" lon="4.95422">
        <ele>184.6</ele>
        <time>2024-09-18T12:31:03Z</time>
      </trkpt>
      <trkpt lat="46.63594" lon="4.95424">
        <ele>184.6</ele>
        <time>2024-09-18T12:31:04Z</time>
      </trkpt>
      <trkpt lat="46.6359" lon="4.95425">
        <ele>184.6</ele>
        <time>2024-09-18T12:31:05Z</time>
      </trkpt>
      <trkpt lat="46.63585" lon="4.95426">
        <ele>184.6</ele>
        <time>2024-09-18T12:31:06Z</time>
      </trkpt>
      <trkpt lat="46.63581" lon="4.95426">
        <ele>184.6</ele>
        <time>2024-09-18T12:31:07Z</time>
      </trkpt>
      <trkpt lat="46.63576" lon="4.95426">
        <ele>184.8</ele>
        <time>2024-09-18T12:31:08Z</time>
      </trkpt>
      <trkpt lat="46.63572" lon="4.95426">
        <ele>184.8</ele>
        <time>2024-09-18T12:31:09Z</time>
      </trkpt>
      <trkpt lat="46.63567" lon="4.95426">
        <ele>184.8</ele>
        <time>2024-09-18T12:31:10Z</time>
      </trkpt>
      <trkpt lat="46.63562" lon="4.95426">
        <ele>184.8</ele>
        <time>2024-09-18T12:31:11Z</time>
      </trkpt>
      <trkpt lat="46.63558" lon="4.95426">
        <ele>184.8</ele>
        <time>2024-09-18T12:31:12Z</time>
      </trkpt>
      <trkpt lat="46.63553" lon="4.95425">
        <ele>184.8</ele>
        <time>2024-09-18T12:31:13Z</time>
      </trkpt>
      <trkpt lat="46.63548" lon="4.95425">
        <ele>184.8</ele>
        <time>2024-09-18T12:31:14Z</time>
      </trkpt>
      <trkpt lat="46.63543" lon="4.95425">
        <ele>184.8</ele>
        <time>2024-09-18T12:31:15Z</time>
      </trkpt>
      <trkpt lat="46.63539" lon="4.95425">
        <ele>185</ele>
        <time>2024-09-18T12:31:16Z</time>
      </trkpt>
      <trkpt lat="46.63534" lon="4.95425">
        <ele>185</ele>
        <time>2024-09-18T12:31:17Z</time>
      </trkpt>
      <trkpt lat="46.63529" lon="4.95425">
        <ele>185</ele>
        <time>2024-09-18T12:31:18Z</time>
      </trkpt>
      <trkpt lat="46.63524" lon="4.95425">
        <ele>185</ele>
        <time>2024-09-18T12:31:19Z</time>
      </trkpt>
      <trkpt lat="46.63519" lon="4.95425">
        <ele>184.6</ele>
        <time>2024-09-18T12:31:20Z</time>
      </trkpt>
      <trkpt lat="46.63515" lon="4.95424">
        <ele>184.6</ele>
        <time>2024-09-18T12:31:21Z</time>
      </trkpt>
      <trkpt lat="46.6351" lon="4.95424">
        <ele>184.2</ele>
        <time>2024-09-18T12:31:22Z</time>
      </trkpt>
      <trkpt lat="46.63505" lon="4.95424">
        <ele>184.2</ele>
        <time>2024-09-18T12:31:23Z</time>
      </trkpt>
      <trkpt lat="46.63501" lon="4.95424">
        <ele>184.2</ele>
        <time>2024-09-18T12:31:24Z</time>
      </trkpt>
      <trkpt lat="46.63496" lon="4.95424">
        <ele>185</ele>
        <time>2024-09-18T12:31:25Z</time>
      </trkpt>
      <trkpt lat="46.63491" lon="4.95424">
        <ele>184.8</ele>
        <time>2024-09-18T12:31:26Z</time>
      </trkpt>
      <trkpt lat="46.63486" lon="4.95424">
        <ele>184.8</ele>
        <time>2024-09-18T12:31:27Z</time>
      </trkpt>
      <trkpt lat="46.63481" lon="4.95423">
        <ele>184.8</ele>
        <time>2024-09-18T12:31:28Z</time>
      </trkpt>
      <trkpt lat="46.63477" lon="4.95423">
        <ele>185</ele>
        <time>2024-09-18T12:31:29Z</time>
      </trkpt>
      <trkpt lat="46.63472" lon="4.95422">
        <ele>185.2</ele>
        <time>2024-09-18T12:31:30Z</time>
      </trkpt>
      <trkpt lat="46.63467" lon="4.95422">
        <ele>185.2</ele>
        <time>2024-09-18T12:31:31Z</time>
      </trkpt>
      <trkpt lat="46.63462" lon="4.95422">
        <ele>185.2</ele>
        <time>2024-09-18T12:31:32Z</time>
      </trkpt>
      <trkpt lat="46.63457" lon="4.95422">
        <ele>185.2</ele>
        <time>2024-09-18T12:31:33Z</time>
      </trkpt>
      <trkpt lat="46.63453" lon="4.95422">
        <ele>185.2</ele>
        <time>2024-09-18T12:31:34Z</time>
      </trkpt>
      <trkpt lat="46.63448" lon="4.95421">
        <ele>185</ele>
        <time>2024-09-18T12:31:35Z</time>
      </trkpt>
      <trkpt lat="46.63443" lon="4.95421">
        <ele>185</ele>
        <time>2024-09-18T12:31:36Z</time>
      </trkpt>
      <trkpt lat="46.63438" lon="4.95421">
        <ele>185</ele>
        <time>2024-09-18T12:31:37Z</time>
      </trkpt>
      <trkpt lat="46.63433" lon="4.95421">
        <ele>185</ele>
        <time>2024-09-18T12:31:38Z</time>
      </trkpt>
      <trkpt lat="46.63428" lon="4.95421">
        <ele>185</ele>
        <time>2024-09-18T12:31:39Z</time>
      </trkpt>
      <trkpt lat="46.63423" lon="4.95421">
        <ele>185</ele>
        <time>2024-09-18T12:31:40Z</time>
      </trkpt>
      <trkpt lat="46.63418" lon="4.95421">
        <ele>185</ele>
        <time>2024-09-18T12:31:41Z</time>
      </trkpt>
      <trkpt lat="46.63413" lon="4.95422">
        <ele>185</ele>
        <time>2024-09-18T12:31:42Z</time>
      </trkpt>
      <trkpt lat="46.63408" lon="4.95422">
        <ele>185.4</ele>
        <time>2024-09-18T12:31:43Z</time>
      </trkpt>
      <trkpt lat="46.63403" lon="4.95422">
        <ele>184.6</ele>
        <time>2024-09-18T12:31:44Z</time>
      </trkpt>
      <trkpt lat="46.63398" lon="4.95422">
        <ele>184.6</ele>
        <time>2024-09-18T12:31:45Z</time>
      </trkpt>
      <trkpt lat="46.63393" lon="4.95422">
        <ele>184.6</ele>
        <time>2024-09-18T12:31:46Z</time>
      </trkpt>
      <trkpt lat="46.63388" lon="4.95423">
        <ele>185</ele>
        <time>2024-09-18T12:31:47Z</time>
      </trkpt>
      <trkpt lat="46.63383" lon="4.95423">
        <ele>185</ele>
        <time>2024-09-18T12:31:48Z</time>
      </trkpt>
      <trkpt lat="46.63378" lon="4.95423">
        <ele>185</ele>
        <time>2024-09-18T12:31:49Z</time>
      </trkpt>
      <trkpt lat="46.63373" lon="4.95424">
        <ele>185</ele>
        <time>2024-09-18T12:31:50Z</time>
      </trkpt>
      <trkpt lat="46.63369" lon="4.95424">
        <ele>185</ele>
        <time>2024-09-18T12:31:51Z</time>
      </trkpt>
      <trkpt lat="46.63364" lon="4.95424">
        <ele>185</ele>
        <time>2024-09-18T12:31:52Z</time>
      </trkpt>
      <trkpt lat="46.63359" lon="4.95424">
        <ele>185.2</ele>
        <time>2024-09-18T12:31:53Z</time>
      </trkpt>
      <trkpt lat="46.63354" lon="4.95424">
        <ele>185.2</ele>
        <time>2024-09-18T12:31:54Z</time>
      </trkpt>
      <trkpt lat="46.63349" lon="4.95423">
        <ele>185.2</ele>
        <time>2024-09-18T12:31:55Z</time>
      </trkpt>
      <trkpt lat="46.63344" lon="4.95423">
        <ele>185.2</ele>
        <time>2024-09-18T12:31:56Z</time>
      </trkpt>
      <trkpt lat="46.63339" lon="4.95422">
        <ele>185</ele>
        <time>2024-09-18T12:31:57Z</time>
      </trkpt>
      <trkpt lat="46.63334" lon="4.95422">
        <ele>185</ele>
        <time>2024-09-18T12:31:58Z</time>
      </trkpt>
      <trkpt lat="46.63328" lon="4.95421">
        <ele>185</ele>
        <time>2024-09-18T12:31:59Z</time>
      </trkpt>
      <trkpt lat="46.63323" lon="4.9542">
        <ele>185</ele>
        <time>2024-09-18T12:32:00Z</time>
      </trkpt>
      <trkpt lat="46.63318" lon="4.9542">
        <ele>185</ele>
        <time>2024-09-18T12:32:01Z</time>
      </trkpt>
      <trkpt lat="46.63313" lon="4.95419">
        <ele>185</ele>
        <time>2024-09-18T12:32:02Z</time>
      </trkpt>
      <trkpt lat="46.63308" lon="4.95419">
        <ele>184.6</ele>
        <time>2024-09-18T12:32:03Z</time>
      </trkpt>
      <trkpt lat="46.63304" lon="4.95419">
        <ele>184.6</ele>
        <time>2024-09-18T12:32:04Z</time>
      </trkpt>
      <trkpt lat="46.63299" lon="4.95418">
        <ele>184.6</ele>
        <time>2024-09-18T12:32:05Z</time>
      </trkpt>
      <trkpt lat="46.63294" lon="4.95418">
        <ele>184.6</ele>
        <time>2024-09-18T12:32:06Z</time>
      </trkpt>
      <trkpt lat="46.6329" lon="4.95417">
        <ele>185.4</ele>
        <time>2024-09-18T12:32:07Z</time>
      </trkpt>
      <trkpt lat="46.63286" lon="4.95417">
        <ele>185.4</ele>
        <time>2024-09-18T12:32:08Z</time>
      </trkpt>
      <trkpt lat="46.63282" lon="4.95417">
        <ele>185.4</ele>
        <time>2024-09-18T12:32:09Z</time>
      </trkpt>
      <trkpt lat="46.63277" lon="4.95416">
        <ele>185.4</ele>
        <time>2024-09-18T12:32:10Z</time>
      </trkpt>
      <trkpt lat="46.63273" lon="4.95416">
        <ele>185.4</ele>
        <time>2024-09-18T12:32:11Z</time>
      </trkpt>
      <trkpt lat="46.63269" lon="4.95415">
        <ele>186</ele>
        <time>2024-09-18T12:32:12Z</time>
      </trkpt>
      <trkpt lat="46.63265" lon="4.95413">
        <ele>186</ele>
        <time>2024-09-18T12:32:13Z</time>
      </trkpt>
      <trkpt lat="46.63261" lon="4.95412">
        <ele>186</ele>
        <time>2024-09-18T12:32:14Z</time>
      </trkpt>
      <trkpt lat="46.63257" lon="4.95411">
        <ele>186</ele>
        <time>2024-09-18T12:32:15Z</time>
      </trkpt>
      <trkpt lat="46.63252" lon="4.9541">
        <ele>185.4</ele>
        <time>2024-09-18T12:32:16Z</time>
      </trkpt>
      <trkpt lat="46.63248" lon="4.95409">
        <ele>185.4</ele>
        <time>2024-09-18T12:32:17Z</time>
      </trkpt>
      <trkpt lat="46.63243" lon="4.95407">
        <ele>185.4</ele>
        <time>2024-09-18T12:32:18Z</time>
      </trkpt>
      <trkpt lat="46.63239" lon="4.95406">
        <ele>185.4</ele>
        <time>2024-09-18T12:32:19Z</time>
      </trkpt>
      <trkpt lat="46.63234" lon="4.95405">
        <ele>185.4</ele>
        <time>2024-09-18T12:32:20Z</time>
      </trkpt>
      <trkpt lat="46.6323" lon="4.95403">
        <ele>185.4</ele>
        <time>2024-09-18T12:32:21Z</time>
      </trkpt>
      <trkpt lat="46.63225" lon="4.95402">
        <ele>185.4</ele>
        <time>2024-09-18T12:32:22Z</time>
      </trkpt>
      <trkpt lat="46.6322" lon="4.954">
        <ele>185.4</ele>
        <time>2024-09-18T12:32:23Z</time>
      </trkpt>
      <trkpt lat="46.63216" lon="4.95399">
        <ele>185.6</ele>
        <time>2024-09-18T12:32:24Z</time>
      </trkpt>
      <trkpt lat="46.63211" lon="4.95397">
        <ele>185.2</ele>
        <time>2024-09-18T12:32:25Z</time>
      </trkpt>
      <trkpt lat="46.63206" lon="4.95396">
        <ele>185.2</ele>
        <time>2024-09-18T12:32:26Z</time>
      </trkpt>
      <trkpt lat="46.63201" lon="4.95394">
        <ele>185.2</ele>
        <time>2024-09-18T12:32:27Z</time>
      </trkpt>
      <trkpt lat="46.63196" lon="4.95392">
        <ele>185.2</ele>
        <time>2024-09-18T12:32:28Z</time>
      </trkpt>
      <trkpt lat="46.63192" lon="4.95391">
        <ele>185.6</ele>
        <time>2024-09-18T12:32:29Z</time>
      </trkpt>
      <trkpt lat="46.63187" lon="4.95389">
        <ele>185.6</ele>
        <time>2024-09-18T12:32:30Z</time>
      </trkpt>
      <trkpt lat="46.63182" lon="4.95387">
        <ele>185.6</ele>
        <time>2024-09-18T12:32:31Z</time>
      </trkpt>
      <trkpt lat="46.63178" lon="4.95385">
        <ele>185.6</ele>
        <time>2024-09-18T12:32:32Z</time>
      </trkpt>
      <trkpt lat="46.63173" lon="4.95384">
        <ele>185.6</ele>
        <time>2024-09-18T12:32:33Z</time>
      </trkpt>
      <trkpt lat="46.63168" lon="4.95382">
        <ele>185.6</ele>
        <time>2024-09-18T12:32:34Z</time>
      </trkpt>
      <trkpt lat="46.63163" lon="4.9538">
        <ele>185.6</ele>
        <time>2024-09-18T12:32:35Z</time>
      </trkpt>
      <trkpt lat="46.63158" lon="4.95378">
        <ele>185.6</ele>
        <time>2024-09-18T12:32:36Z</time>
      </trkpt>
      <trkpt lat="46.63153" lon="4.95377">
        <ele>184.8</ele>
        <time>2024-09-18T12:32:37Z</time>
      </trkpt>
      <trkpt lat="46.63148" lon="4.95375">
        <ele>185.2</ele>
        <time>2024-09-18T12:32:38Z</time>
      </trkpt>
      <trkpt lat="46.63142" lon="4.95373">
        <ele>185.2</ele>
        <time>2024-09-18T12:32:39Z</time>
      </trkpt>
      <trkpt lat="46.63137" lon="4.9537">
        <ele>185.2</ele>
        <time>2024-09-18T12:32:40Z</time>
      </trkpt>
      <trkpt lat="46.63132" lon="4.95368">
        <ele>184.6</ele>
        <time>2024-09-18T12:32:41Z</time>
      </trkpt>
      <trkpt lat="46.63126" lon="4.95366">
        <ele>184.6</ele>
        <time>2024-09-18T12:32:42Z</time>
      </trkpt>
      <trkpt lat="46.63121" lon="4.95363">
        <ele>184.6</ele>
        <time>2024-09-18T12:32:43Z</time>
      </trkpt>
      <trkpt lat="46.63116" lon="4.95361">
        <ele>184.6</ele>
        <time>2024-09-18T12:32:44Z</time>
      </trkpt>
      <trkpt lat="46.63111" lon="4.95359">
        <ele>184.6</ele>
        <time>2024-09-18T12:32:45Z</time>
      </trkpt>
      <trkpt lat="46.63106" lon="4.95357">
        <ele>184.6</ele>
        <time>2024-09-18T12:32:46Z</time>
      </trkpt>
      <trkpt lat="46.63101" lon="4.95354">
        <ele>184.6</ele>
        <time>2024-09-18T12:32:47Z</time>
      </trkpt>
      <trkpt lat="46.63096" lon="4.95352">
        <ele>184.4</ele>
        <time>2024-09-18T12:32:48Z</time>
      </trkpt>
      <trkpt lat="46.63091" lon="4.9535">
        <ele>184.4</ele>
        <time>2024-09-18T12:32:49Z</time>
      </trkpt>
      <trkpt lat="46.63086" lon="4.95348">
        <ele>184.4</ele>
        <time>2024-09-18T12:32:50Z</time>
      </trkpt>
      <trkpt lat="46.63081" lon="4.95346">
        <ele>184.4</ele>
        <time>2024-09-18T12:32:51Z</time>
      </trkpt>
      <trkpt lat="46.63076" lon="4.95343">
        <ele>184.4</ele>
        <time>2024-09-18T12:32:52Z</time>
      </trkpt>
      <trkpt lat="46.63071" lon="4.9534">
        <ele>184.6</ele>
        <time>2024-09-18T12:32:53Z</time>
      </trkpt>
      <trkpt lat="46.63067" lon="4.95338">
        <ele>184.6</ele>
        <time>2024-09-18T12:32:54Z</time>
      </trkpt>
      <trkpt lat="46.63062" lon="4.95335">
        <ele>184.6</ele>
        <time>2024-09-18T12:32:55Z</time>
      </trkpt>
      <trkpt lat="46.63058" lon="4.95332">
        <ele>185</ele>
        <time>2024-09-18T12:32:56Z</time>
      </trkpt>
      <trkpt lat="46.63054" lon="4.95329">
        <ele>185</ele>
        <time>2024-09-18T12:32:57Z</time>
      </trkpt>
      <trkpt lat="46.63049" lon="4.95327">
        <ele>185</ele>
        <time>2024-09-18T12:32:58Z</time>
      </trkpt>
      <trkpt lat="46.63045" lon="4.95324">
        <ele>185</ele>
        <time>2024-09-18T12:32:59Z</time>
      </trkpt>
      <trkpt lat="46.6304" lon="4.95322">
        <ele>184.8</ele>
        <time>2024-09-18T12:33:00Z</time>
      </trkpt>
      <trkpt lat="46.63036" lon="4.9532">
        <ele>184.8</ele>
        <time>2024-09-18T12:33:01Z</time>
      </trkpt>
      <trkpt lat="46.63032" lon="4.95317">
        <ele>184.8</ele>
        <time>2024-09-18T12:33:02Z</time>
      </trkpt>
      <trkpt lat="46.63027" lon="4.95315">
        <ele>184.8</ele>
        <time>2024-09-18T12:33:03Z</time>
      </trkpt>
      <trkpt lat="46.63023" lon="4.95313">
        <ele>184.8</ele>
        <time>2024-09-18T12:33:04Z</time>
      </trkpt>
      <trkpt lat="46.63018" lon="4.9531">
        <ele>184.8</ele>
        <time>2024-09-18T12:33:05Z</time>
      </trkpt>
      <trkpt lat="46.63014" lon="4.95308">
        <ele>184.8</ele>
        <time>2024-09-18T12:33:06Z</time>
      </trkpt>
      <trkpt lat="46.63009" lon="4.95306">
        <ele>184.8</ele>
        <time>2024-09-18T12:33:07Z</time>
      </trkpt>
      <trkpt lat="46.63004" lon="4.95304">
        <ele>184.8</ele>
        <time>2024-09-18T12:33:08Z</time>
      </trkpt>
      <trkpt lat="46.63" lon="4.95301">
        <ele>184.8</ele>
        <time>2024-09-18T12:33:09Z</time>
      </trkpt>
      <trkpt lat="46.62995" lon="4.95298">
        <ele>184.8</ele>
        <time>2024-09-18T12:33:10Z</time>
      </trkpt>
      <trkpt lat="46.6299" lon="4.95296">
        <ele>184.8</ele>
        <time>2024-09-18T12:33:11Z</time>
      </trkpt>
      <trkpt lat="46.62985" lon="4.95294">
        <ele>184.8</ele>
        <time>2024-09-18T12:33:12Z</time>
      </trkpt>
      <trkpt lat="46.6298" lon="4.95291">
        <ele>184.8</ele>
        <time>2024-09-18T12:33:13Z</time>
      </trkpt>
      <trkpt lat="46.62975" lon="4.95289">
        <ele>184.6</ele>
        <time>2024-09-18T12:33:14Z</time>
      </trkpt>
      <trkpt lat="46.62971" lon="4.95287">
        <ele>184.6</ele>
        <time>2024-09-18T12:33:15Z</time>
      </trkpt>
      <trkpt lat="46.62966" lon="4.95285">
        <ele>184.6</ele>
        <time>2024-09-18T12:33:16Z</time>
      </trkpt>
      <trkpt lat="46.62961" lon="4.95283">
        <ele>184.6</ele>
        <time>2024-09-18T12:33:17Z</time>
      </trkpt>
      <trkpt lat="46.62956" lon="4.95282">
        <ele>184.6</ele>
        <time>2024-09-18T12:33:18Z</time>
      </trkpt>
      <trkpt lat="46.62952" lon="4.9528">
        <ele>184.6</ele>
        <time>2024-09-18T12:33:19Z</time>
      </trkpt>
      <trkpt lat="46.62947" lon="4.95278">
        <ele>184.6</ele>
        <time>2024-09-18T12:33:20Z</time>
      </trkpt>
      <trkpt lat="46.62942" lon="4.95277">
        <ele>184.6</ele>
        <time>2024-09-18T12:33:21Z</time>
      </trkpt>
      <trkpt lat="46.62937" lon="4.95275">
        <ele>184.6</ele>
        <time>2024-09-18T12:33:22Z</time>
      </trkpt>
      <trkpt lat="46.62932" lon="4.95274">
        <ele>184.8</ele>
        <time>2024-09-18T12:33:23Z</time>
      </trkpt>
      <trkpt lat="46.62928" lon="4.95272">
        <ele>184.8</ele>
        <time>2024-09-18T12:33:24Z</time>
      </trkpt>
      <trkpt lat="46.62923" lon="4.95271">
        <ele>184.8</ele>
        <time>2024-09-18T12:33:25Z</time>
      </trkpt>
      <trkpt lat="46.6292" lon="4.9527">
        <ele>184.8</ele>
        <time>2024-09-18T12:33:26Z</time>
      </trkpt>
      <trkpt lat="46.62916" lon="4.95269">
        <ele>184.8</ele>
        <time>2024-09-18T12:33:27Z</time>
      </trkpt>
      <trkpt lat="46.62912" lon="4.95267">
        <ele>184.8</ele>
        <time>2024-09-18T12:33:28Z</time>
      </trkpt>
      <trkpt lat="46.62909" lon="4.95265">
        <ele>184.8</ele>
        <time>2024-09-18T12:33:29Z</time>
      </trkpt>
      <trkpt lat="46.62905" lon="4.95263">
        <ele>184.8</ele>
        <time>2024-09-18T12:33:30Z</time>
      </trkpt>
      <trkpt lat="46.62902" lon="4.9526">
        <ele>184.8</ele>
        <time>2024-09-18T12:33:31Z</time>
      </trkpt>
      <trkpt lat="46.62898" lon="4.95257">
        <ele>184.6</ele>
        <time>2024-09-18T12:33:32Z</time>
      </trkpt>
      <trkpt lat="46.62894" lon="4.95256">
        <ele>184.8</ele>
        <time>2024-09-18T12:33:33Z</time>
      </trkpt>
      <trkpt lat="46.6289" lon="4.95254">
        <ele>184.8</ele>
        <time>2024-09-18T12:33:34Z</time>
      </trkpt>
      <trkpt lat="46.62886" lon="4.95252">
        <ele>184.8</ele>
        <time>2024-09-18T12:33:35Z</time>
      </trkpt>
      <trkpt lat="46.62882" lon="4.9525">
        <ele>184.8</ele>
        <time>2024-09-18T12:33:36Z</time>
      </trkpt>
      <trkpt lat="46.62878" lon="4.95247">
        <ele>185.2</ele>
        <time>2024-09-18T12:33:37Z</time>
      </trkpt>
      <trkpt lat="46.62874" lon="4.95245">
        <ele>185.2</ele>
        <time>2024-09-18T12:33:38Z</time>
      </trkpt>
      <trkpt lat="46.6287" lon="4.95243">
        <ele>185.2</ele>
        <time>2024-09-18T12:33:39Z</time>
      </trkpt>
      <trkpt lat="46.62866" lon="4.95241">
        <ele>185.2</ele>
        <time>2024-09-18T12:33:40Z</time>
      </trkpt>
      <trkpt lat="46.62863" lon="4.95239">
        <ele>185.2</ele>
        <time>2024-09-18T12:33:41Z</time>
      </trkpt>
      <trkpt lat="46.62859" lon="4.95238">
        <ele>184.8</ele>
        <time>2024-09-18T12:33:42Z</time>
      </trkpt>
      <trkpt lat="46.62855" lon="4.95236">
        <ele>184.8</ele>
        <time>2024-09-18T12:33:43Z</time>
      </trkpt>
      <trkpt lat="46.62852" lon="4.95233">
        <ele>184.8</ele>
        <time>2024-09-18T12:33:44Z</time>
      </trkpt>
      <trkpt lat="46.62848" lon="4.95231">
        <ele>185</ele>
        <time>2024-09-18T12:33:45Z</time>
      </trkpt>
      <trkpt lat="46.62844" lon="4.95229">
        <ele>185</ele>
        <time>2024-09-18T12:33:46Z</time>
      </trkpt>
      <trkpt lat="46.62841" lon="4.95226">
        <ele>185</ele>
        <time>2024-09-18T12:33:47Z</time>
      </trkpt>
      <trkpt lat="46.62837" lon="4.95224">
        <ele>185</ele>
        <time>2024-09-18T12:33:48Z</time>
      </trkpt>
      <trkpt lat="46.62834" lon="4.95222">
        <ele>185</ele>
        <time>2024-09-18T12:33:49Z</time>
      </trkpt>
      <trkpt lat="46.6283" lon="4.95219">
        <ele>185</ele>
        <time>2024-09-18T12:33:50Z</time>
      </trkpt>
      <trkpt lat="46.62826" lon="4.95217">
        <ele>185</ele>
        <time>2024-09-18T12:33:51Z</time>
      </trkpt>
      <trkpt lat="46.62822" lon="4.95214">
        <ele>184.8</ele>
        <time>2024-09-18T12:33:52Z</time>
      </trkpt>
      <trkpt lat="46.62818" lon="4.95211">
        <ele>184.8</ele>
        <time>2024-09-18T12:33:53Z</time>
      </trkpt>
      <trkpt lat="46.62814" lon="4.95208">
        <ele>184.8</ele>
        <time>2024-09-18T12:33:54Z</time>
      </trkpt>
      <trkpt lat="46.6281" lon="4.95205">
        <ele>185.2</ele>
        <time>2024-09-18T12:33:55Z</time>
      </trkpt>
      <trkpt lat="46.62805" lon="4.95202">
        <ele>185.2</ele>
        <time>2024-09-18T12:33:56Z</time>
      </trkpt>
      <trkpt lat="46.62801" lon="4.95198">
        <ele>185.2</ele>
        <time>2024-09-18T12:33:57Z</time>
      </trkpt>
      <trkpt lat="46.62797" lon="4.95195">
        <ele>185.2</ele>
        <time>2024-09-18T12:33:58Z</time>
      </trkpt>
      <trkpt lat="46.62793" lon="4.95191">
        <ele>185</ele>
        <time>2024-09-18T12:33:59Z</time>
      </trkpt>
      <trkpt lat="46.62789" lon="4.95188">
        <ele>185.2</ele>
        <time>2024-09-18T12:34:00Z</time>
      </trkpt>
      <trkpt lat="46.62785" lon="4.95184">
        <ele>185.2</ele>
        <time>2024-09-18T12:34:01Z</time>
      </trkpt>
      <trkpt lat="46.62782" lon="4.9518">
        <ele>185.2</ele>
        <time>2024-09-18T12:34:02Z</time>
      </trkpt>
      <trkpt lat="46.62778" lon="4.95176">
        <ele>185</ele>
        <time>2024-09-18T12:34:03Z</time>
      </trkpt>
      <trkpt lat="46.62774" lon="4.95173">
        <ele>185.6</ele>
        <time>2024-09-18T12:34:04Z</time>
      </trkpt>
      <trkpt lat="46.6277" lon="4.9517">
        <ele>185.6</ele>
        <time>2024-09-18T12:34:05Z</time>
      </trkpt>
      <trkpt lat="46.62766" lon="4.95167">
        <ele>185.6</ele>
        <time>2024-09-18T12:34:06Z</time>
      </trkpt>
      <trkpt lat="46.62762" lon="4.95163">
        <ele>185.2</ele>
        <time>2024-09-18T12:34:07Z</time>
      </trkpt>
      <trkpt lat="46.62757" lon="4.95158">
        <ele>185.2</ele>
        <time>2024-09-18T12:34:08Z</time>
      </trkpt>
      <trkpt lat="46.62755" lon="4.95156">
        <ele>185</ele>
        <time>2024-09-18T12:34:09Z</time>
      </trkpt>
      <trkpt lat="46.62751" lon="4.95152">
        <ele>185</ele>
        <time>2024-09-18T12:34:10Z</time>
      </trkpt>
      <trkpt lat="46.62748" lon="4.95148">
        <ele>185</ele>
        <time>2024-09-18T12:34:11Z</time>
      </trkpt>
      <trkpt lat="46.62744" lon="4.95144">
        <ele>185</ele>
        <time>2024-09-18T12:34:12Z</time>
      </trkpt>
      <trkpt lat="46.6274" lon="4.9514">
        <ele>185</ele>
        <time>2024-09-18T12:34:13Z</time>
      </trkpt>
      <trkpt lat="46.62736" lon="4.95137">
        <ele>185.2</ele>
        <time>2024-09-18T12:34:14Z</time>
      </trkpt>
      <trkpt lat="46.62732" lon="4.95134">
        <ele>185.2</ele>
        <time>2024-09-18T12:34:15Z</time>
      </trkpt>
      <trkpt lat="46.62726" lon="4.95129">
        <ele>185.2</ele>
        <time>2024-09-18T12:34:16Z</time>
      </trkpt>
      <trkpt lat="46.62725" lon="4.95127">
        <ele>185.2</ele>
        <time>2024-09-18T12:34:17Z</time>
      </trkpt>
      <trkpt lat="46.62721" lon="4.95123">
        <ele>185.2</ele>
        <time>2024-09-18T12:34:18Z</time>
      </trkpt>
      <trkpt lat="46.62717" lon="4.95119">
        <ele>185.2</ele>
        <time>2024-09-18T12:34:19Z</time>
      </trkpt>
      <trkpt lat="46.62713" lon="4.95116">
        <ele>185.2</ele>
        <time>2024-09-18T12:34:20Z</time>
      </trkpt>
      <trkpt lat="46.6271" lon="4.95112">
        <ele>185.2</ele>
        <time>2024-09-18T12:34:21Z</time>
      </trkpt>
      <trkpt lat="46.62706" lon="4.95108">
        <ele>185.2</ele>
        <time>2024-09-18T12:34:22Z</time>
      </trkpt>
      <trkpt lat="46.62702" lon="4.95105">
        <ele>185.2</ele>
        <time>2024-09-18T12:34:23Z</time>
      </trkpt>
      <trkpt lat="46.62698" lon="4.95101">
        <ele>185.2</ele>
        <time>2024-09-18T12:34:24Z</time>
      </trkpt>
      <trkpt lat="46.62694" lon="4.95097">
        <ele>185.2</ele>
        <time>2024-09-18T12:34:25Z</time>
      </trkpt>
      <trkpt lat="46.62691" lon="4.95093">
        <ele>185.6</ele>
        <time>2024-09-18T12:34:26Z</time>
      </trkpt>
      <trkpt lat="46.62687" lon="4.95089">
        <ele>185.4</ele>
        <time>2024-09-18T12:34:27Z</time>
      </trkpt>
      <trkpt lat="46.62684" lon="4.95086">
        <ele>185.4</ele>
        <time>2024-09-18T12:34:28Z</time>
      </trkpt>
      <trkpt lat="46.6268" lon="4.95082">
        <ele>185.4</ele>
        <time>2024-09-18T12:34:29Z</time>
      </trkpt>
      <trkpt lat="46.62676" lon="4.95077">
        <ele>185</ele>
        <time>2024-09-18T12:34:30Z</time>
      </trkpt>
      <trkpt lat="46.62672" lon="4.95073">
        <ele>185</ele>
        <time>2024-09-18T12:34:31Z</time>
      </trkpt>
      <trkpt lat="46.62669" lon="4.95068">
        <ele>185</ele>
        <time>2024-09-18T12:34:32Z</time>
      </trkpt>
      <trkpt lat="46.62665" lon="4.95063">
        <ele>185</ele>
        <time>2024-09-18T12:34:33Z</time>
      </trkpt>
      <trkpt lat="46.62661" lon="4.95059">
        <ele>185</ele>
        <time>2024-09-18T12:34:34Z</time>
      </trkpt>
      <trkpt lat="46.62658" lon="4.95055">
        <ele>184.8</ele>
        <time>2024-09-18T12:34:35Z</time>
      </trkpt>
      <trkpt lat="46.62654" lon="4.9505">
        <ele>184.6</ele>
        <time>2024-09-18T12:34:36Z</time>
      </trkpt>
      <trkpt lat="46.6265" lon="4.95045">
        <ele>184.6</ele>
        <time>2024-09-18T12:34:37Z</time>
      </trkpt>
      <trkpt lat="46.62646" lon="4.9504">
        <ele>184.6</ele>
        <time>2024-09-18T12:34:38Z</time>
      </trkpt>
      <trkpt lat="46.62642" lon="4.95036">
        <ele>185.2</ele>
        <time>2024-09-18T12:34:39Z</time>
      </trkpt>
      <trkpt lat="46.62639" lon="4.95032">
        <ele>184.8</ele>
        <time>2024-09-18T12:34:40Z</time>
      </trkpt>
      <trkpt lat="46.62635" lon="4.95028">
        <ele>184.8</ele>
        <time>2024-09-18T12:34:41Z</time>
      </trkpt>
      <trkpt lat="46.62632" lon="4.95024">
        <ele>184.8</ele>
        <time>2024-09-18T12:34:42Z</time>
      </trkpt>
      <trkpt lat="46.62628" lon="4.9502">
        <ele>185</ele>
        <time>2024-09-18T12:34:43Z</time>
      </trkpt>
      <trkpt lat="46.62625" lon="4.95015">
        <ele>185</ele>
        <time>2024-09-18T12:34:44Z</time>
      </trkpt>
      <trkpt lat="46.62621" lon="4.95011">
        <ele>185.4</ele>
        <time>2024-09-18T12:34:45Z</time>
      </trkpt>
      <trkpt lat="46.62618" lon="4.95007">
        <ele>185.4</ele>
        <time>2024-09-18T12:34:46Z</time>
      </trkpt>
      <trkpt lat="46.62615" lon="4.95001">
        <ele>185.4</ele>
        <time>2024-09-18T12:34:47Z</time>
      </trkpt>
      <trkpt lat="46.62612" lon="4.94997">
        <ele>185.2</ele>
        <time>2024-09-18T12:34:48Z</time>
      </trkpt>
      <trkpt lat="46.62608" lon="4.94992">
        <ele>184.8</ele>
        <time>2024-09-18T12:34:49Z</time>
      </trkpt>
      <trkpt lat="46.62605" lon="4.94987">
        <ele>184.8</ele>
        <time>2024-09-18T12:34:50Z</time>
      </trkpt>
      <trkpt lat="46.62602" lon="4.94982">
        <ele>184.8</ele>
        <time>2024-09-18T12:34:51Z</time>
      </trkpt>
      <trkpt lat="46.62599" lon="4.94977">
        <ele>184.8</ele>
        <time>2024-09-18T12:34:52Z</time>
      </trkpt>
      <trkpt lat="46.62595" lon="4.94972">
        <ele>185.2</ele>
        <time>2024-09-18T12:34:53Z</time>
      </trkpt>
      <trkpt lat="46.62592" lon="4.94967">
        <ele>185.2</ele>
        <time>2024-09-18T12:34:54Z</time>
      </trkpt>
      <trkpt lat="46.62589" lon="4.94962">
        <ele>185.2</ele>
        <time>2024-09-18T12:34:55Z</time>
      </trkpt>
      <trkpt lat="46.62585" lon="4.94957">
        <ele>185.2</ele>
        <time>2024-09-18T12:34:56Z</time>
      </trkpt>
      <trkpt lat="46.62582" lon="4.94952">
        <ele>185.2</ele>
        <time>2024-09-18T12:34:57Z</time>
      </trkpt>
      <trkpt lat="46.62579" lon="4.94947">
        <ele>185.2</ele>
        <time>2024-09-18T12:34:58Z</time>
      </trkpt>
      <trkpt lat="46.62576" lon="4.94942">
        <ele>185</ele>
        <time>2024-09-18T12:34:59Z</time>
      </trkpt>
      <trkpt lat="46.62573" lon="4.94937">
        <ele>185</ele>
        <time>2024-09-18T12:35:00Z</time>
      </trkpt>
      <trkpt lat="46.6257" lon="4.94932">
        <ele>185</ele>
        <time>2024-09-18T12:35:01Z</time>
      </trkpt>
      <trkpt lat="46.62567" lon="4.94927">
        <ele>185</ele>
        <time>2024-09-18T12:35:02Z</time>
      </trkpt>
      <trkpt lat="46.62564" lon="4.94922">
        <ele>184.2</ele>
        <time>2024-09-18T12:35:03Z</time>
      </trkpt>
      <trkpt lat="46.62561" lon="4.94918">
        <ele>184.2</ele>
        <time>2024-09-18T12:35:04Z</time>
      </trkpt>
      <trkpt lat="46.62558" lon="4.94913">
        <ele>184.2</ele>
        <time>2024-09-18T12:35:05Z</time>
      </trkpt>
      <trkpt lat="46.62555" lon="4.94908">
        <ele>184.2</ele>
        <time>2024-09-18T12:35:06Z</time>
      </trkpt>
      <trkpt lat="46.62552" lon="4.94903">
        <ele>185.2</ele>
        <time>2024-09-18T12:35:07Z</time>
      </trkpt>
      <trkpt lat="46.62548" lon="4.94898">
        <ele>185</ele>
        <time>2024-09-18T12:35:08Z</time>
      </trkpt>
      <trkpt lat="46.62545" lon="4.94892">
        <ele>185</ele>
        <time>2024-09-18T12:35:09Z</time>
      </trkpt>
      <trkpt lat="46.62543" lon="4.94887">
        <ele>185</ele>
        <time>2024-09-18T12:35:10Z</time>
      </trkpt>
      <trkpt lat="46.6254" lon="4.94881">
        <ele>185</ele>
        <time>2024-09-18T12:35:11Z</time>
      </trkpt>
      <trkpt lat="46.62537" lon="4.94876">
        <ele>184.6</ele>
        <time>2024-09-18T12:35:12Z</time>
      </trkpt>
      <trkpt lat="46.62534" lon="4.94871">
        <ele>184.6</ele>
        <time>2024-09-18T12:35:13Z</time>
      </trkpt>
      <trkpt lat="46.62531" lon="4.94866">
        <ele>184.6</ele>
        <time>2024-09-18T12:35:14Z</time>
      </trkpt>
      <trkpt lat="46.62528" lon="4.94861">
        <ele>184.6</ele>
        <time>2024-09-18T12:35:15Z</time>
      </trkpt>
      <trkpt lat="46.62525" lon="4.94855">
        <ele>184.8</ele>
        <time>2024-09-18T12:35:16Z</time>
      </trkpt>
      <trkpt lat="46.62522" lon="4.9485">
        <ele>184.6</ele>
        <time>2024-09-18T12:35:17Z</time>
      </trkpt>
      <trkpt lat="46.62519" lon="4.94844">
        <ele>184.6</ele>
        <time>2024-09-18T12:35:18Z</time>
      </trkpt>
      <trkpt lat="46.62516" lon="4.94839">
        <ele>184.6</ele>
        <time>2024-09-18T12:35:19Z</time>
      </trkpt>
      <trkpt lat="46.62514" lon="4.94834">
        <ele>185</ele>
        <time>2024-09-18T12:35:20Z</time>
      </trkpt>
      <trkpt lat="46.62511" lon="4.94828">
        <ele>184.6</ele>
        <time>2024-09-18T12:35:21Z</time>
      </trkpt>
      <trkpt lat="46.62508" lon="4.94823">
        <ele>184.6</ele>
        <time>2024-09-18T12:35:22Z</time>
      </trkpt>
      <trkpt lat="46.62506" lon="4.94818">
        <ele>184.6</ele>
        <time>2024-09-18T12:35:23Z</time>
      </trkpt>
      <trkpt lat="46.62503" lon="4.94813">
        <ele>184.6</ele>
        <time>2024-09-18T12:35:24Z</time>
      </trkpt>
      <trkpt lat="46.62499" lon="4.94808">
        <ele>184.6</ele>
        <time>2024-09-18T12:35:25Z</time>
      </trkpt>
      <trkpt lat="46.62496" lon="4.94802">
        <ele>184.6</ele>
        <time>2024-09-18T12:35:26Z</time>
      </trkpt>
      <trkpt lat="46.62493" lon="4.94798">
        <ele>184.6</ele>
        <time>2024-09-18T12:35:27Z</time>
      </trkpt>
      <trkpt lat="46.6249" lon="4.94794">
        <ele>184.6</ele>
        <time>2024-09-18T12:35:28Z</time>
      </trkpt>
      <trkpt lat="46.62488" lon="4.94789">
        <ele>185</ele>
        <time>2024-09-18T12:35:29Z</time>
      </trkpt>
      <trkpt lat="46.62485" lon="4.94784">
        <ele>184.4</ele>
        <time>2024-09-18T12:35:30Z</time>
      </trkpt>
      <trkpt lat="46.62482" lon="4.94779">
        <ele>184.4</ele>
        <time>2024-09-18T12:35:31Z</time>
      </trkpt>
      <trkpt lat="46.62479" lon="4.94775">
        <ele>184.4</ele>
        <time>2024-09-18T12:35:32Z</time>
      </trkpt>
      <trkpt lat="46.62476" lon="4.9477">
        <ele>185</ele>
        <time>2024-09-18T12:35:33Z</time>
      </trkpt>
      <trkpt lat="46.62473" lon="4.94766">
        <ele>184.8</ele>
        <time>2024-09-18T12:35:34Z</time>
      </trkpt>
      <trkpt lat="46.62469" lon="4.94761">
        <ele>184.8</ele>
        <time>2024-09-18T12:35:35Z</time>
      </trkpt>
      <trkpt lat="46.62466" lon="4.94757">
        <ele>184.8</ele>
        <time>2024-09-18T12:35:36Z</time>
      </trkpt>
      <trkpt lat="46.62463" lon="4.94753">
        <ele>184.8</ele>
        <time>2024-09-18T12:35:37Z</time>
      </trkpt>
      <trkpt lat="46.6246" lon="4.94748">
        <ele>184.8</ele>
        <time>2024-09-18T12:35:38Z</time>
      </trkpt>
      <trkpt lat="46.62457" lon="4.94743">
        <ele>185.2</ele>
        <time>2024-09-18T12:35:39Z</time>
      </trkpt>
      <trkpt lat="46.62454" lon="4.94739">
        <ele>185</ele>
        <time>2024-09-18T12:35:40Z</time>
      </trkpt>
      <trkpt lat="46.62451" lon="4.94734">
        <ele>185</ele>
        <time>2024-09-18T12:35:41Z</time>
      </trkpt>
      <trkpt lat="46.62446" lon="4.94727">
        <ele>185</ele>
        <time>2024-09-18T12:35:42Z</time>
      </trkpt>
      <trkpt lat="46.62445" lon="4.94724">
        <ele>185</ele>
        <time>2024-09-18T12:35:43Z</time>
      </trkpt>
      <trkpt lat="46.62442" lon="4.94719">
        <ele>185</ele>
        <time>2024-09-18T12:35:44Z</time>
      </trkpt>
      <trkpt lat="46.62439" lon="4.94714">
        <ele>184.6</ele>
        <time>2024-09-18T12:35:45Z</time>
      </trkpt>
      <trkpt lat="46.62435" lon="4.9471">
        <ele>184.6</ele>
        <time>2024-09-18T12:35:46Z</time>
      </trkpt>
      <trkpt lat="46.62432" lon="4.94706">
        <ele>184.6</ele>
        <time>2024-09-18T12:35:47Z</time>
      </trkpt>
      <trkpt lat="46.62428" lon="4.94701">
        <ele>184.6</ele>
        <time>2024-09-18T12:35:48Z</time>
      </trkpt>
      <trkpt lat="46.62425" lon="4.94697">
        <ele>185</ele>
        <time>2024-09-18T12:35:49Z</time>
      </trkpt>
      <trkpt lat="46.62421" lon="4.94692">
        <ele>185</ele>
        <time>2024-09-18T12:35:50Z</time>
      </trkpt>
      <trkpt lat="46.62418" lon="4.94688">
        <ele>185</ele>
        <time>2024-09-18T12:35:51Z</time>
      </trkpt>
      <trkpt lat="46.62414" lon="4.94684">
        <ele>185</ele>
        <time>2024-09-18T12:35:52Z</time>
      </trkpt>
      <trkpt lat="46.6241" lon="4.94679">
        <ele>184.6</ele>
        <time>2024-09-18T12:35:53Z</time>
      </trkpt>
      <trkpt lat="46.62406" lon="4.94674">
        <ele>184.6</ele>
        <time>2024-09-18T12:35:54Z</time>
      </trkpt>
      <trkpt lat="46.62403" lon="4.9467">
        <ele>184.6</ele>
        <time>2024-09-18T12:35:55Z</time>
      </trkpt>
      <trkpt lat="46.624" lon="4.94664">
        <ele>185</ele>
        <time>2024-09-18T12:35:56Z</time>
      </trkpt>
      <trkpt lat="46.62398" lon="4.94659">
        <ele>185.2</ele>
        <time>2024-09-18T12:35:57Z</time>
      </trkpt>
      <trkpt lat="46.62395" lon="4.94655">
        <ele>185.2</ele>
        <time>2024-09-18T12:35:58Z</time>
      </trkpt>
      <trkpt lat="46.62391" lon="4.94649">
        <ele>185.2</ele>
        <time>2024-09-18T12:35:59Z</time>
      </trkpt>
      <trkpt lat="46.62387" lon="4.94644">
        <ele>185.2</ele>
        <time>2024-09-18T12:36:00Z</time>
      </trkpt>
      <trkpt lat="46.62384" lon="4.94639">
        <ele>184.6</ele>
        <time>2024-09-18T12:36:01Z</time>
      </trkpt>
      <trkpt lat="46.62381" lon="4.94633">
        <ele>185.2</ele>
        <time>2024-09-18T12:36:02Z</time>
      </trkpt>
      <trkpt lat="46.62378" lon="4.94628">
        <ele>185.2</ele>
        <time>2024-09-18T12:36:03Z</time>
      </trkpt>
      <trkpt lat="46.62375" lon="4.94624">
        <ele>185.2</ele>
        <time>2024-09-18T12:36:04Z</time>
      </trkpt>
      <trkpt lat="46.62372" lon="4.94619">
        <ele>184.8</ele>
        <time>2024-09-18T12:36:05Z</time>
      </trkpt>
      <trkpt lat="46.62369" lon="4.94615">
        <ele>185</ele>
        <time>2024-09-18T12:36:06Z</time>
      </trkpt>
      <trkpt lat="46.62366" lon="4.94609">
        <ele>185</ele>
        <time>2024-09-18T12:36:07Z</time>
      </trkpt>
      <trkpt lat="46.62363" lon="4.94605">
        <ele>185</ele>
        <time>2024-09-18T12:36:08Z</time>
      </trkpt>
      <trkpt lat="46.6236" lon="4.946">
        <ele>185</ele>
        <time>2024-09-18T12:36:09Z</time>
      </trkpt>
      <trkpt lat="46.62357" lon="4.94594">
        <ele>185</ele>
        <time>2024-09-18T12:36:10Z</time>
      </trkpt>
      <trkpt lat="46.62353" lon="4.94589">
        <ele>185</ele>
        <time>2024-09-18T12:36:11Z</time>
      </trkpt>
      <trkpt lat="46.62349" lon="4.94584">
        <ele>185</ele>
        <time>2024-09-18T12:36:12Z</time>
      </trkpt>
      <trkpt lat="46.62346" lon="4.94579">
        <ele>185</ele>
        <time>2024-09-18T12:36:13Z</time>
      </trkpt>
      <trkpt lat="46.62343" lon="4.94574">
        <ele>185</ele>
        <time>2024-09-18T12:36:14Z</time>
      </trkpt>
      <trkpt lat="46.62339" lon="4.94569">
        <ele>185.2</ele>
        <time>2024-09-18T12:36:15Z</time>
      </trkpt>
      <trkpt lat="46.62336" lon="4.94565">
        <ele>185.2</ele>
        <time>2024-09-18T12:36:16Z</time>
      </trkpt>
      <trkpt lat="46.62332" lon="4.9456">
        <ele>185.2</ele>
        <time>2024-09-18T12:36:17Z</time>
      </trkpt>
      <trkpt lat="46.62328" lon="4.94556">
        <ele>185.4</ele>
        <time>2024-09-18T12:36:18Z</time>
      </trkpt>
      <trkpt lat="46.62324" lon="4.94552">
        <ele>185.4</ele>
        <time>2024-09-18T12:36:19Z</time>
      </trkpt>
      <trkpt lat="46.6232" lon="4.94548">
        <ele>185.2</ele>
        <time>2024-09-18T12:36:20Z</time>
      </trkpt>
      <trkpt lat="46.62316" lon="4.94544">
        <ele>185.2</ele>
        <time>2024-09-18T12:36:21Z</time>
      </trkpt>
      <trkpt lat="46.62312" lon="4.9454">
        <ele>185.2</ele>
        <time>2024-09-18T12:36:22Z</time>
      </trkpt>
      <trkpt lat="46.62308" lon="4.94537">
        <ele>185.2</ele>
        <time>2024-09-18T12:36:23Z</time>
      </trkpt>
      <trkpt lat="46.62304" lon="4.94533">
        <ele>185.2</ele>
        <time>2024-09-18T12:36:24Z</time>
      </trkpt>
      <trkpt lat="46.623" lon="4.94529">
        <ele>185.2</ele>
        <time>2024-09-18T12:36:25Z</time>
      </trkpt>
      <trkpt lat="46.62296" lon="4.94526">
        <ele>185.2</ele>
        <time>2024-09-18T12:36:26Z</time>
      </trkpt>
      <trkpt lat="46.62292" lon="4.94523">
        <ele>185.2</ele>
        <time>2024-09-18T12:36:27Z</time>
      </trkpt>
      <trkpt lat="46.62288" lon="4.94519">
        <ele>185.2</ele>
        <time>2024-09-18T12:36:28Z</time>
      </trkpt>
      <trkpt lat="46.62285" lon="4.94516">
        <ele>185.4</ele>
        <time>2024-09-18T12:36:29Z</time>
      </trkpt>
      <trkpt lat="46.62281" lon="4.94513">
        <ele>185.4</ele>
        <time>2024-09-18T12:36:30Z</time>
      </trkpt>
      <trkpt lat="46.62277" lon="4.94509">
        <ele>185.4</ele>
        <time>2024-09-18T12:36:31Z</time>
      </trkpt>
      <trkpt lat="46.62273" lon="4.94505">
        <ele>185.4</ele>
        <time>2024-09-18T12:36:32Z</time>
      </trkpt>
      <trkpt lat="46.62269" lon="4.94502">
        <ele>185.4</ele>
        <time>2024-09-18T12:36:33Z</time>
      </trkpt>
      <trkpt lat="46.62265" lon="4.94499">
        <ele>185.4</ele>
        <time>2024-09-18T12:36:34Z</time>
      </trkpt>
      <trkpt lat="46.62261" lon="4.94495">
        <ele>185.4</ele>
        <time>2024-09-18T12:36:35Z</time>
      </trkpt>
      <trkpt lat="46.62257" lon="4.94492">
        <ele>185.2</ele>
        <time>2024-09-18T12:36:36Z</time>
      </trkpt>
      <trkpt lat="46.62253" lon="4.94488">
        <ele>184.8</ele>
        <time>2024-09-18T12:36:37Z</time>
      </trkpt>
      <trkpt lat="46.62249" lon="4.94484">
        <ele>184.8</ele>
        <time>2024-09-18T12:36:38Z</time>
      </trkpt>
      <trkpt lat="46.62245" lon="4.9448">
        <ele>184.8</ele>
        <time>2024-09-18T12:36:39Z</time>
      </trkpt>
      <trkpt lat="46.62241" lon="4.94476">
        <ele>184.8</ele>
        <time>2024-09-18T12:36:40Z</time>
      </trkpt>
      <trkpt lat="46.62237" lon="4.94473">
        <ele>185</ele>
        <time>2024-09-18T12:36:41Z</time>
      </trkpt>
      <trkpt lat="46.62233" lon="4.94469">
        <ele>185.2</ele>
        <time>2024-09-18T12:36:42Z</time>
      </trkpt>
      <trkpt lat="46.62229" lon="4.94466">
        <ele>185.2</ele>
        <time>2024-09-18T12:36:43Z</time>
      </trkpt>
      <trkpt lat="46.62225" lon="4.94462">
        <ele>185.2</ele>
        <time>2024-09-18T12:36:44Z</time>
      </trkpt>
      <trkpt lat="46.62222" lon="4.94459">
        <ele>185.2</ele>
        <time>2024-09-18T12:36:45Z</time>
      </trkpt>
      <trkpt lat="46.62218" lon="4.94456">
        <ele>185</ele>
        <time>2024-09-18T12:36:46Z</time>
      </trkpt>
      <trkpt lat="46.62214" lon="4.94454">
        <ele>185</ele>
        <time>2024-09-18T12:36:47Z</time>
      </trkpt>
      <trkpt lat="46.62211" lon="4.94451">
        <ele>185</ele>
        <time>2024-09-18T12:36:48Z</time>
      </trkpt>
      <trkpt lat="46.62207" lon="4.94448">
        <ele>185</ele>
        <time>2024-09-18T12:36:49Z</time>
      </trkpt>
      <trkpt lat="46.62204" lon="4.94445">
        <ele>185</ele>
        <time>2024-09-18T12:36:50Z</time>
      </trkpt>
      <trkpt lat="46.62201" lon="4.94442">
        <ele>185.2</ele>
        <time>2024-09-18T12:36:51Z</time>
      </trkpt>
      <trkpt lat="46.62197" lon="4.94438">
        <ele>185.2</ele>
        <time>2024-09-18T12:36:52Z</time>
      </trkpt>
      <trkpt lat="46.62194" lon="4.94435">
        <ele>185.2</ele>
        <time>2024-09-18T12:36:53Z</time>
      </trkpt>
      <trkpt lat="46.6219" lon="4.94432">
        <ele>185.2</ele>
        <time>2024-09-18T12:36:54Z</time>
      </trkpt>
      <trkpt lat="46.62186" lon="4.94428">
        <ele>184.8</ele>
        <time>2024-09-18T12:36:55Z</time>
      </trkpt>
      <trkpt lat="46.62182" lon="4.94424">
        <ele>184.8</ele>
        <time>2024-09-18T12:36:56Z</time>
      </trkpt>
      <trkpt lat="46.62178" lon="4.94421">
        <ele>184.8</ele>
        <time>2024-09-18T12:36:57Z</time>
      </trkpt>
      <trkpt lat="46.62174" lon="4.94418">
        <ele>185.2</ele>
        <time>2024-09-18T12:36:58Z</time>
      </trkpt>
      <trkpt lat="46.6217" lon="4.94415">
        <ele>185.2</ele>
        <time>2024-09-18T12:36:59Z</time>
      </trkpt>
      <trkpt lat="46.62166" lon="4.94411">
        <ele>185.2</ele>
        <time>2024-09-18T12:37:00Z</time>
      </trkpt>
      <trkpt lat="46.62162" lon="4.94408">
        <ele>185.2</ele>
        <time>2024-09-18T12:37:01Z</time>
      </trkpt>
      <trkpt lat="46.62158" lon="4.94405">
        <ele>185.2</ele>
        <time>2024-09-18T12:37:02Z</time>
      </trkpt>
      <trkpt lat="46.62154" lon="4.94401">
        <ele>185.2</ele>
        <time>2024-09-18T12:37:03Z</time>
      </trkpt>
      <trkpt lat="46.6215" lon="4.94398">
        <ele>185.4</ele>
        <time>2024-09-18T12:37:04Z</time>
      </trkpt>
      <trkpt lat="46.62146" lon="4.94394">
        <ele>184.8</ele>
        <time>2024-09-18T12:37:05Z</time>
      </trkpt>
      <trkpt lat="46.62141" lon="4.94391">
        <ele>184.8</ele>
        <time>2024-09-18T12:37:06Z</time>
      </trkpt>
      <trkpt lat="46.62137" lon="4.94388">
        <ele>184.8</ele>
        <time>2024-09-18T12:37:07Z</time>
      </trkpt>
      <trkpt lat="46.62133" lon="4.94384">
        <ele>184.8</ele>
        <time>2024-09-18T12:37:08Z</time>
      </trkpt>
      <trkpt lat="46.62129" lon="4.9438">
        <ele>185.4</ele>
        <time>2024-09-18T12:37:09Z</time>
      </trkpt>
      <trkpt lat="46.62125" lon="4.94377">
        <ele>185.4</ele>
        <time>2024-09-18T12:37:10Z</time>
      </trkpt>
      <trkpt lat="46.62121" lon="4.94374">
        <ele>185.4</ele>
        <time>2024-09-18T12:37:11Z</time>
      </trkpt>
      <trkpt lat="46.62117" lon="4.94371">
        <ele>185.4</ele>
        <time>2024-09-18T12:37:12Z</time>
      </trkpt>
      <trkpt lat="46.62113" lon="4.94368">
        <ele>185.4</ele>
        <time>2024-09-18T12:37:13Z</time>
      </trkpt>
      <trkpt lat="46.62109" lon="4.94366">
        <ele>185.4</ele>
        <time>2024-09-18T12:37:14Z</time>
      </trkpt>
      <trkpt lat="46.62104" lon="4.94362">
        <ele>185.4</ele>
        <time>2024-09-18T12:37:15Z</time>
      </trkpt>
      <trkpt lat="46.62099" lon="4.94358">
        <ele>185.4</ele>
        <time>2024-09-18T12:37:16Z</time>
      </trkpt>
      <trkpt lat="46.62097" lon="4.94357">
        <ele>185.4</ele>
        <time>2024-09-18T12:37:17Z</time>
      </trkpt>
      <trkpt lat="46.62093" lon="4.94355">
        <ele>185.4</ele>
        <time>2024-09-18T12:37:18Z</time>
      </trkpt>
      <trkpt lat="46.62089" lon="4.94353">
        <ele>184.8</ele>
        <time>2024-09-18T12:37:19Z</time>
      </trkpt>
      <trkpt lat="46.62085" lon="4.94352">
        <ele>184.8</ele>
        <time>2024-09-18T12:37:20Z</time>
      </trkpt>
      <trkpt lat="46.6208" lon="4.9435">
        <ele>185.2</ele>
        <time>2024-09-18T12:37:21Z</time>
      </trkpt>
      <trkpt lat="46.62077" lon="4.94347">
        <ele>184.8</ele>
        <time>2024-09-18T12:37:22Z</time>
      </trkpt>
      <trkpt lat="46.62073" lon="4.94345">
        <ele>184.8</ele>
        <time>2024-09-18T12:37:23Z</time>
      </trkpt>
      <trkpt lat="46.62068" lon="4.94342">
        <ele>184.8</ele>
        <time>2024-09-18T12:37:24Z</time>
      </trkpt>
      <trkpt lat="46.62064" lon="4.9434">
        <ele>184.8</ele>
        <time>2024-09-18T12:37:25Z</time>
      </trkpt>
      <trkpt lat="46.6206" lon="4.94339">
        <ele>185.8</ele>
        <time>2024-09-18T12:37:26Z</time>
      </trkpt>
      <trkpt lat="46.62055" lon="4.94337">
        <ele>185</ele>
        <time>2024-09-18T12:37:27Z</time>
      </trkpt>
      <trkpt lat="46.62051" lon="4.94336">
        <ele>185</ele>
        <time>2024-09-18T12:37:28Z</time>
      </trkpt>
      <trkpt lat="46.62046" lon="4.94334">
        <ele>185</ele>
        <time>2024-09-18T12:37:29Z</time>
      </trkpt>
      <trkpt lat="46.62042" lon="4.94332">
        <ele>185.2</ele>
        <time>2024-09-18T12:37:30Z</time>
      </trkpt>
      <trkpt lat="46.62038" lon="4.9433">
        <ele>185.2</ele>
        <time>2024-09-18T12:37:31Z</time>
      </trkpt>
      <trkpt lat="46.62034" lon="4.94329">
        <ele>185.2</ele>
        <time>2024-09-18T12:37:32Z</time>
      </trkpt>
      <trkpt lat="46.62029" lon="4.94327">
        <ele>185.2</ele>
        <time>2024-09-18T12:37:33Z</time>
      </trkpt>
      <trkpt lat="46.62025" lon="4.94325">
        <ele>185.2</ele>
        <time>2024-09-18T12:37:34Z</time>
      </trkpt>
      <trkpt lat="46.6202" lon="4.94323">
        <ele>185.2</ele>
        <time>2024-09-18T12:37:35Z</time>
      </trkpt>
      <trkpt lat="46.62016" lon="4.94321">
        <ele>184.8</ele>
        <time>2024-09-18T12:37:36Z</time>
      </trkpt>
      <trkpt lat="46.62011" lon="4.94318">
        <ele>184.8</ele>
        <time>2024-09-18T12:37:37Z</time>
      </trkpt>
      <trkpt lat="46.62007" lon="4.94316">
        <ele>184.8</ele>
        <time>2024-09-18T12:37:38Z</time>
      </trkpt>
      <trkpt lat="46.62003" lon="4.94315">
        <ele>185.4</ele>
        <time>2024-09-18T12:37:39Z</time>
      </trkpt>
      <trkpt lat="46.61998" lon="4.94313">
        <ele>185</ele>
        <time>2024-09-18T12:37:40Z</time>
      </trkpt>
      <trkpt lat="46.61994" lon="4.9431">
        <ele>185</ele>
        <time>2024-09-18T12:37:41Z</time>
      </trkpt>
      <trkpt lat="46.61989" lon="4.94309">
        <ele>185</ele>
        <time>2024-09-18T12:37:42Z</time>
      </trkpt>
      <trkpt lat="46.61984" lon="4.94307">
        <ele>185</ele>
        <time>2024-09-18T12:37:43Z</time>
      </trkpt>
      <trkpt lat="46.6198" lon="4.94305">
        <ele>185.4</ele>
        <time>2024-09-18T12:37:44Z</time>
      </trkpt>
      <trkpt lat="46.61976" lon="4.94304">
        <ele>185.4</ele>
        <time>2024-09-18T12:37:45Z</time>
      </trkpt>
      <trkpt lat="46.61972" lon="4.94302">
        <ele>185.4</ele>
        <time>2024-09-18T12:37:46Z</time>
      </trkpt>
      <trkpt lat="46.61968" lon="4.943">
        <ele>185.4</ele>
        <time>2024-09-18T12:37:47Z</time>
      </trkpt>
      <trkpt lat="46.61963" lon="4.94298">
        <ele>185.4</ele>
        <time>2024-09-18T12:37:48Z</time>
      </trkpt>
      <trkpt lat="46.61959" lon="4.94296">
        <ele>185.4</ele>
        <time>2024-09-18T12:37:49Z</time>
      </trkpt>
      <trkpt lat="46.61955" lon="4.94295">
        <ele>185.4</ele>
        <time>2024-09-18T12:37:50Z</time>
      </trkpt>
      <trkpt lat="46.61951" lon="4.94293">
        <ele>185.6</ele>
        <time>2024-09-18T12:37:51Z</time>
      </trkpt>
      <trkpt lat="46.61946" lon="4.94291">
        <ele>185.6</ele>
        <time>2024-09-18T12:37:52Z</time>
      </trkpt>
      <trkpt lat="46.61942" lon="4.9429">
        <ele>185.6</ele>
        <time>2024-09-18T12:37:53Z</time>
      </trkpt>
      <trkpt lat="46.61938" lon="4.94288">
        <ele>185.2</ele>
        <time>2024-09-18T12:37:54Z</time>
      </trkpt>
      <trkpt lat="46.61933" lon="4.94286">
        <ele>185.2</ele>
        <time>2024-09-18T12:37:55Z</time>
      </trkpt>
      <trkpt lat="46.61929" lon="4.94284">
        <ele>185.2</ele>
        <time>2024-09-18T12:37:56Z</time>
      </trkpt>
      <trkpt lat="46.61925" lon="4.94283">
        <ele>185.2</ele>
        <time>2024-09-18T12:37:57Z</time>
      </trkpt>
      <trkpt lat="46.61921" lon="4.94281">
        <ele>185.4</ele>
        <time>2024-09-18T12:37:58Z</time>
      </trkpt>
      <trkpt lat="46.61916" lon="4.94279">
        <ele>186</ele>
        <time>2024-09-18T12:37:59Z</time>
      </trkpt>
      <trkpt lat="46.61912" lon="4.94278">
        <ele>186</ele>
        <time>2024-09-18T12:38:00Z</time>
      </trkpt>
      <trkpt lat="46.61908" lon="4.94276">
        <ele>186</ele>
        <time>2024-09-18T12:38:01Z</time>
      </trkpt>
      <trkpt lat="46.61904" lon="4.94274">
        <ele>186</ele>
        <time>2024-09-18T12:38:02Z</time>
      </trkpt>
      <trkpt lat="46.61899" lon="4.94272">
        <ele>185.6</ele>
        <time>2024-09-18T12:38:03Z</time>
      </trkpt>
      <trkpt lat="46.61895" lon="4.94271">
        <ele>185.6</ele>
        <time>2024-09-18T12:38:04Z</time>
      </trkpt>
      <trkpt lat="46.6189" lon="4.94269">
        <ele>185.6</ele>
        <time>2024-09-18T12:38:05Z</time>
      </trkpt>
      <trkpt lat="46.61886" lon="4.94268">
        <ele>185.6</ele>
        <time>2024-09-18T12:38:06Z</time>
      </trkpt>
      <trkpt lat="46.61881" lon="4.94267">
        <ele>185.8</ele>
        <time>2024-09-18T12:38:07Z</time>
      </trkpt>
      <trkpt lat="46.61877" lon="4.94265">
        <ele>185.6</ele>
        <time>2024-09-18T12:38:08Z</time>
      </trkpt>
      <trkpt lat="46.61872" lon="4.94264">
        <ele>185.6</ele>
        <time>2024-09-18T12:38:09Z</time>
      </trkpt>
      <trkpt lat="46.61868" lon="4.94262">
        <ele>185.6</ele>
        <time>2024-09-18T12:38:10Z</time>
      </trkpt>
      <trkpt lat="46.61863" lon="4.94261">
        <ele>185.6</ele>
        <time>2024-09-18T12:38:11Z</time>
      </trkpt>
      <trkpt lat="46.61859" lon="4.9426">
        <ele>186</ele>
        <time>2024-09-18T12:38:12Z</time>
      </trkpt>
      <trkpt lat="46.61854" lon="4.94258">
        <ele>186</ele>
        <time>2024-09-18T12:38:13Z</time>
      </trkpt>
      <trkpt lat="46.6185" lon="4.94256">
        <ele>186</ele>
        <time>2024-09-18T12:38:14Z</time>
      </trkpt>
      <trkpt lat="46.61845" lon="4.94255">
        <ele>186</ele>
        <time>2024-09-18T12:38:15Z</time>
      </trkpt>
      <trkpt lat="46.61841" lon="4.94253">
        <ele>186</ele>
        <time>2024-09-18T12:38:16Z</time>
      </trkpt>
      <trkpt lat="46.61837" lon="4.94252">
        <ele>186.6</ele>
        <time>2024-09-18T12:38:17Z</time>
      </trkpt>
      <trkpt lat="46.61832" lon="4.9425">
        <ele>186.6</ele>
        <time>2024-09-18T12:38:18Z</time>
      </trkpt>
      <trkpt lat="46.61828" lon="4.94248">
        <ele>186.6</ele>
        <time>2024-09-18T12:38:19Z</time>
      </trkpt>
      <trkpt lat="46.61823" lon="4.94246">
        <ele>186</ele>
        <time>2024-09-18T12:38:20Z</time>
      </trkpt>
      <trkpt lat="46.61819" lon="4.94244">
        <ele>185.6</ele>
        <time>2024-09-18T12:38:21Z</time>
      </trkpt>
      <trkpt lat="46.61815" lon="4.94243">
        <ele>185.6</ele>
        <time>2024-09-18T12:38:22Z</time>
      </trkpt>
      <trkpt lat="46.6181" lon="4.94241">
        <ele>185.6</ele>
        <time>2024-09-18T12:38:23Z</time>
      </trkpt>
      <trkpt lat="46.61805" lon="4.94239">
        <ele>186</ele>
        <time>2024-09-18T12:38:24Z</time>
      </trkpt>
      <trkpt lat="46.61801" lon="4.94238">
        <ele>185.4</ele>
        <time>2024-09-18T12:38:25Z</time>
      </trkpt>
      <trkpt lat="46.61796" lon="4.94237">
        <ele>185.4</ele>
        <time>2024-09-18T12:38:26Z</time>
      </trkpt>
      <trkpt lat="46.61791" lon="4.94235">
        <ele>185.4</ele>
        <time>2024-09-18T12:38:27Z</time>
      </trkpt>
      <trkpt lat="46.61787" lon="4.94233">
        <ele>185.6</ele>
        <time>2024-09-18T12:38:28Z</time>
      </trkpt>
      <trkpt lat="46.61783" lon="4.94231">
        <ele>185.6</ele>
        <time>2024-09-18T12:38:29Z</time>
      </trkpt>
      <trkpt lat="46.61778" lon="4.94229">
        <ele>186.4</ele>
        <time>2024-09-18T12:38:30Z</time>
      </trkpt>
      <trkpt lat="46.61773" lon="4.94228">
        <ele>186.4</ele>
        <time>2024-09-18T12:38:31Z</time>
      </trkpt>
      <trkpt lat="46.61768" lon="4.94226">
        <ele>186.4</ele>
        <time>2024-09-18T12:38:32Z</time>
      </trkpt>
      <trkpt lat="46.61764" lon="4.94224">
        <ele>186.4</ele>
        <time>2024-09-18T12:38:33Z</time>
      </trkpt>
      <trkpt lat="46.61759" lon="4.94223">
        <ele>185.8</ele>
        <time>2024-09-18T12:38:34Z</time>
      </trkpt>
      <trkpt lat="46.61754" lon="4.94221">
        <ele>185.8</ele>
        <time>2024-09-18T12:38:35Z</time>
      </trkpt>
      <trkpt lat="46.61749" lon="4.9422">
        <ele>186.2</ele>
        <time>2024-09-18T12:38:36Z</time>
      </trkpt>
      <trkpt lat="46.61745" lon="4.94219">
        <ele>186.2</ele>
        <time>2024-09-18T12:38:37Z</time>
      </trkpt>
      <trkpt lat="46.6174" lon="4.94217">
        <ele>186</ele>
        <time>2024-09-18T12:38:38Z</time>
      </trkpt>
      <trkpt lat="46.61736" lon="4.94215">
        <ele>186</ele>
        <time>2024-09-18T12:38:39Z</time>
      </trkpt>
      <trkpt lat="46.61731" lon="4.94214">
        <ele>186</ele>
        <time>2024-09-18T12:38:40Z</time>
      </trkpt>
      <trkpt lat="46.61726" lon="4.94213">
        <ele>186</ele>
        <time>2024-09-18T12:38:41Z</time>
      </trkpt>
      <trkpt lat="46.61722" lon="4.94211">
        <ele>186</ele>
        <time>2024-09-18T12:38:42Z</time>
      </trkpt>
      <trkpt lat="46.61717" lon="4.9421">
        <ele>186.2</ele>
        <time>2024-09-18T12:38:43Z</time>
      </trkpt>
      <trkpt lat="46.61712" lon="4.94209">
        <ele>186.2</ele>
        <time>2024-09-18T12:38:44Z</time>
      </trkpt>
      <trkpt lat="46.61707" lon="4.94207">
        <ele>186.2</ele>
        <time>2024-09-18T12:38:45Z</time>
      </trkpt>
      <trkpt lat="46.61703" lon="4.94205">
        <ele>186.2</ele>
        <time>2024-09-18T12:38:46Z</time>
      </trkpt>
      <trkpt lat="46.61698" lon="4.94204">
        <ele>186.2</ele>
        <time>2024-09-18T12:38:47Z</time>
      </trkpt>
      <trkpt lat="46.61694" lon="4.94203">
        <ele>186.2</ele>
        <time>2024-09-18T12:38:48Z</time>
      </trkpt>
      <trkpt lat="46.61689" lon="4.94202">
        <ele>186.2</ele>
        <time>2024-09-18T12:38:49Z</time>
      </trkpt>
      <trkpt lat="46.61685" lon="4.94201">
        <ele>186.2</ele>
        <time>2024-09-18T12:38:50Z</time>
      </trkpt>
      <trkpt lat="46.6168" lon="4.942">
        <ele>186.2</ele>
        <time>2024-09-18T12:38:51Z</time>
      </trkpt>
      <trkpt lat="46.61676" lon="4.94199">
        <ele>186.2</ele>
        <time>2024-09-18T12:38:52Z</time>
      </trkpt>
      <trkpt lat="46.61672" lon="4.94198">
        <ele>186</ele>
        <time>2024-09-18T12:38:53Z</time>
      </trkpt>
      <trkpt lat="46.61667" lon="4.94197">
        <ele>186</ele>
        <time>2024-09-18T12:38:54Z</time>
      </trkpt>
      <trkpt lat="46.61662" lon="4.94196">
        <ele>186</ele>
        <time>2024-09-18T12:38:55Z</time>
      </trkpt>
      <trkpt lat="46.61658" lon="4.94195">
        <ele>186</ele>
        <time>2024-09-18T12:38:56Z</time>
      </trkpt>
      <trkpt lat="46.61654" lon="4.94195">
        <ele>186</ele>
        <time>2024-09-18T12:38:57Z</time>
      </trkpt>
      <trkpt lat="46.61649" lon="4.94194">
        <ele>186</ele>
        <time>2024-09-18T12:38:58Z</time>
      </trkpt>
      <trkpt lat="46.61645" lon="4.94192">
        <ele>186</ele>
        <time>2024-09-18T12:38:59Z</time>
      </trkpt>
      <trkpt lat="46.6164" lon="4.94191">
        <ele>186</ele>
        <time>2024-09-18T12:39:00Z</time>
      </trkpt>
      <trkpt lat="46.61635" lon="4.9419">
        <ele>186</ele>
        <time>2024-09-18T12:39:01Z</time>
      </trkpt>
      <trkpt lat="46.6163" lon="4.94189">
        <ele>186</ele>
        <time>2024-09-18T12:39:02Z</time>
      </trkpt>
      <trkpt lat="46.61625" lon="4.94188">
        <ele>186</ele>
        <time>2024-09-18T12:39:03Z</time>
      </trkpt>
      <trkpt lat="46.6162" lon="4.94187">
        <ele>186</ele>
        <time>2024-09-18T12:39:04Z</time>
      </trkpt>
      <trkpt lat="46.61615" lon="4.94186">
        <ele>186</ele>
        <time>2024-09-18T12:39:05Z</time>
      </trkpt>
      <trkpt lat="46.6161" lon="4.94186">
        <ele>186.2</ele>
        <time>2024-09-18T12:39:06Z</time>
      </trkpt>
      <trkpt lat="46.61606" lon="4.94185">
        <ele>186.2</ele>
        <time>2024-09-18T12:39:07Z</time>
      </trkpt>
      <trkpt lat="46.61601" lon="4.94184">
        <ele>186.2</ele>
        <time>2024-09-18T12:39:08Z</time>
      </trkpt>
      <trkpt lat="46.61596" lon="4.94183">
        <ele>186.2</ele>
        <time>2024-09-18T12:39:09Z</time>
      </trkpt>
      <trkpt lat="46.61592" lon="4.94183">
        <ele>185.6</ele>
        <time>2024-09-18T12:39:10Z</time>
      </trkpt>
      <trkpt lat="46.61587" lon="4.94182">
        <ele>185.6</ele>
        <time>2024-09-18T12:39:11Z</time>
      </trkpt>
      <trkpt lat="46.61582" lon="4.94181">
        <ele>185.6</ele>
        <time>2024-09-18T12:39:12Z</time>
      </trkpt>
      <trkpt lat="46.61578" lon="4.9418">
        <ele>185.6</ele>
        <time>2024-09-18T12:39:13Z</time>
      </trkpt>
      <trkpt lat="46.61573" lon="4.94179">
        <ele>185.6</ele>
        <time>2024-09-18T12:39:14Z</time>
      </trkpt>
      <trkpt lat="46.61568" lon="4.94179">
        <ele>185.6</ele>
        <time>2024-09-18T12:39:15Z</time>
      </trkpt>
      <trkpt lat="46.61564" lon="4.94178">
        <ele>186</ele>
        <time>2024-09-18T12:39:16Z</time>
      </trkpt>
      <trkpt lat="46.61559" lon="4.94177">
        <ele>186</ele>
        <time>2024-09-18T12:39:17Z</time>
      </trkpt>
      <trkpt lat="46.61554" lon="4.94175">
        <ele>186</ele>
        <time>2024-09-18T12:39:18Z</time>
      </trkpt>
      <trkpt lat="46.6155" lon="4.94174">
        <ele>186</ele>
        <time>2024-09-18T12:39:19Z</time>
      </trkpt>
      <trkpt lat="46.61545" lon="4.94173">
        <ele>185.8</ele>
        <time>2024-09-18T12:39:20Z</time>
      </trkpt>
      <trkpt lat="46.6154" lon="4.94172">
        <ele>185.8</ele>
        <time>2024-09-18T12:39:21Z</time>
      </trkpt>
      <trkpt lat="46.61536" lon="4.94171">
        <ele>185.8</ele>
        <time>2024-09-18T12:39:22Z</time>
      </trkpt>
      <trkpt lat="46.61532" lon="4.9417">
        <ele>186.4</ele>
        <time>2024-09-18T12:39:23Z</time>
      </trkpt>
      <trkpt lat="46.61527" lon="4.94169">
        <ele>186.4</ele>
        <time>2024-09-18T12:39:24Z</time>
      </trkpt>
      <trkpt lat="46.61523" lon="4.94168">
        <ele>186.4</ele>
        <time>2024-09-18T12:39:25Z</time>
      </trkpt>
      <trkpt lat="46.61518" lon="4.94167">
        <ele>186.4</ele>
        <time>2024-09-18T12:39:26Z</time>
      </trkpt>
      <trkpt lat="46.61514" lon="4.94166">
        <ele>186.4</ele>
        <time>2024-09-18T12:39:27Z</time>
      </trkpt>
      <trkpt lat="46.61509" lon="4.94165">
        <ele>186.2</ele>
        <time>2024-09-18T12:39:28Z</time>
      </trkpt>
      <trkpt lat="46.61504" lon="4.94164">
        <ele>186.2</ele>
        <time>2024-09-18T12:39:29Z</time>
      </trkpt>
      <trkpt lat="46.615" lon="4.94163">
        <ele>186.2</ele>
        <time>2024-09-18T12:39:30Z</time>
      </trkpt>
      <trkpt lat="46.61495" lon="4.94162">
        <ele>186.2</ele>
        <time>2024-09-18T12:39:31Z</time>
      </trkpt>
      <trkpt lat="46.6149" lon="4.94161">
        <ele>186.2</ele>
        <time>2024-09-18T12:39:32Z</time>
      </trkpt>
      <trkpt lat="46.61486" lon="4.9416">
        <ele>186</ele>
        <time>2024-09-18T12:39:33Z</time>
      </trkpt>
      <trkpt lat="46.61481" lon="4.94159">
        <ele>186</ele>
        <time>2024-09-18T12:39:34Z</time>
      </trkpt>
      <trkpt lat="46.61477" lon="4.94158">
        <ele>186</ele>
        <time>2024-09-18T12:39:35Z</time>
      </trkpt>
      <trkpt lat="46.61472" lon="4.94157">
        <ele>186</ele>
        <time>2024-09-18T12:39:36Z</time>
      </trkpt>
      <trkpt lat="46.61468" lon="4.94157">
        <ele>185.8</ele>
        <time>2024-09-18T12:39:37Z</time>
      </trkpt>
      <trkpt lat="46.61464" lon="4.94157">
        <ele>185.8</ele>
        <time>2024-09-18T12:39:38Z</time>
      </trkpt>
      <trkpt lat="46.61459" lon="4.94157">
        <ele>185.8</ele>
        <time>2024-09-18T12:39:39Z</time>
      </trkpt>
      <trkpt lat="46.61455" lon="4.94157">
        <ele>185.8</ele>
        <time>2024-09-18T12:39:40Z</time>
      </trkpt>
      <trkpt lat="46.61451" lon="4.94156">
        <ele>185.8</ele>
        <time>2024-09-18T12:39:41Z</time>
      </trkpt>
      <trkpt lat="46.61446" lon="4.94155">
        <ele>185.6</ele>
        <time>2024-09-18T12:39:42Z</time>
      </trkpt>
      <trkpt lat="46.61442" lon="4.94154">
        <ele>185.6</ele>
        <time>2024-09-18T12:39:43Z</time>
      </trkpt>
      <trkpt lat="46.61439" lon="4.94153">
        <ele>185.6</ele>
        <time>2024-09-18T12:39:44Z</time>
      </trkpt>
      <trkpt lat="46.61436" lon="4.94153">
        <ele>185.6</ele>
        <time>2024-09-18T12:39:45Z</time>
      </trkpt>
      <trkpt lat="46.61434" lon="4.94152">
        <ele>185.6</ele>
        <time>2024-09-18T12:39:46Z</time>
      </trkpt>
      <trkpt lat="46.61431" lon="4.94151">
        <ele>185.6</ele>
        <time>2024-09-18T12:39:47Z</time>
      </trkpt>
      <trkpt lat="46.61428" lon="4.9415">
        <ele>185.6</ele>
        <time>2024-09-18T12:39:48Z</time>
      </trkpt>
      <trkpt lat="46.61424" lon="4.94148">
        <ele>185.6</ele>
        <time>2024-09-18T12:39:49Z</time>
      </trkpt>
      <trkpt lat="46.6142" lon="4.94147">
        <ele>185.6</ele>
        <time>2024-09-18T12:39:50Z</time>
      </trkpt>
      <trkpt lat="46.61416" lon="4.94146">
        <ele>185.4</ele>
        <time>2024-09-18T12:39:51Z</time>
      </trkpt>
      <trkpt lat="46.61412" lon="4.94145">
        <ele>185.4</ele>
        <time>2024-09-18T12:39:52Z</time>
      </trkpt>
      <trkpt lat="46.61407" lon="4.94145">
        <ele>185.4</ele>
        <time>2024-09-18T12:39:53Z</time>
      </trkpt>
      <trkpt lat="46.61403" lon="4.94144">
        <ele>185.4</ele>
        <time>2024-09-18T12:39:54Z</time>
      </trkpt>
      <trkpt lat="46.61398" lon="4.94143">
        <ele>185.4</ele>
        <time>2024-09-18T12:39:55Z</time>
      </trkpt>
      <trkpt lat="46.61394" lon="4.94142">
        <ele>185.6</ele>
        <time>2024-09-18T12:39:56Z</time>
      </trkpt>
      <trkpt lat="46.61389" lon="4.94141">
        <ele>185.6</ele>
        <time>2024-09-18T12:39:57Z</time>
      </trkpt>
      <trkpt lat="46.61385" lon="4.9414">
        <ele>185.6</ele>
        <time>2024-09-18T12:39:58Z</time>
      </trkpt>
      <trkpt lat="46.61381" lon="4.94139">
        <ele>185.6</ele>
        <time>2024-09-18T12:39:59Z</time>
      </trkpt>
      <trkpt lat="46.61376" lon="4.94138">
        <ele>185.6</ele>
        <time>2024-09-18T12:40:00Z</time>
      </trkpt>
      <trkpt lat="46.61372" lon="4.94137">
        <ele>185.4</ele>
        <time>2024-09-18T12:40:01Z</time>
      </trkpt>
      <trkpt lat="46.61367" lon="4.94136">
        <ele>185.4</ele>
        <time>2024-09-18T12:40:02Z</time>
      </trkpt>
      <trkpt lat="46.61363" lon="4.94135">
        <ele>185.4</ele>
        <time>2024-09-18T12:40:03Z</time>
      </trkpt>
      <trkpt lat="46.61359" lon="4.94133">
        <ele>186</ele>
        <time>2024-09-18T12:40:04Z</time>
      </trkpt>
      <trkpt lat="46.61354" lon="4.94132">
        <ele>186</ele>
        <time>2024-09-18T12:40:05Z</time>
      </trkpt>
      <trkpt lat="46.6135" lon="4.9413">
        <ele>185.4</ele>
        <time>2024-09-18T12:40:06Z</time>
      </trkpt>
      <trkpt lat="46.61346" lon="4.94128">
        <ele>185.4</ele>
        <time>2024-09-18T12:40:07Z</time>
      </trkpt>
      <trkpt lat="46.61342" lon="4.94126">
        <ele>185.4</ele>
        <time>2024-09-18T12:40:08Z</time>
      </trkpt>
      <trkpt lat="46.61337" lon="4.94123">
        <ele>185.8</ele>
        <time>2024-09-18T12:40:09Z</time>
      </trkpt>
      <trkpt lat="46.61333" lon="4.94121">
        <ele>185.8</ele>
        <time>2024-09-18T12:40:10Z</time>
      </trkpt>
      <trkpt lat="46.61329" lon="4.94118">
        <ele>185.8</ele>
        <time>2024-09-18T12:40:11Z</time>
      </trkpt>
      <trkpt lat="46.61325" lon="4.94116">
        <ele>185.8</ele>
        <time>2024-09-18T12:40:12Z</time>
      </trkpt>
      <trkpt lat="46.61321" lon="4.94113">
        <ele>185.8</ele>
        <time>2024-09-18T12:40:13Z</time>
      </trkpt>
      <trkpt lat="46.61318" lon="4.9411">
        <ele>186</ele>
        <time>2024-09-18T12:40:14Z</time>
      </trkpt>
      <trkpt lat="46.61314" lon="4.94108">
        <ele>186</ele>
        <time>2024-09-18T12:40:15Z</time>
      </trkpt>
      <trkpt lat="46.6131" lon="4.94107">
        <ele>186</ele>
        <time>2024-09-18T12:40:16Z</time>
      </trkpt>
      <trkpt lat="46.61307" lon="4.94105">
        <ele>186</ele>
        <time>2024-09-18T12:40:17Z</time>
      </trkpt>
      <trkpt lat="46.61303" lon="4.94104">
        <ele>186</ele>
        <time>2024-09-18T12:40:18Z</time>
      </trkpt>
      <trkpt lat="46.61299" lon="4.94102">
        <ele>186</ele>
        <time>2024-09-18T12:40:19Z</time>
      </trkpt>
      <trkpt lat="46.61295" lon="4.941">
        <ele>186</ele>
        <time>2024-09-18T12:40:20Z</time>
      </trkpt>
      <trkpt lat="46.61291" lon="4.94097">
        <ele>186</ele>
        <time>2024-09-18T12:40:21Z</time>
      </trkpt>
      <trkpt lat="46.61287" lon="4.94095">
        <ele>186</ele>
        <time>2024-09-18T12:40:22Z</time>
      </trkpt>
      <trkpt lat="46.61283" lon="4.94093">
        <ele>186.2</ele>
        <time>2024-09-18T12:40:23Z</time>
      </trkpt>
      <trkpt lat="46.61279" lon="4.94091">
        <ele>186.2</ele>
        <time>2024-09-18T12:40:24Z</time>
      </trkpt>
      <trkpt lat="46.61275" lon="4.94088">
        <ele>186.2</ele>
        <time>2024-09-18T12:40:25Z</time>
      </trkpt>
      <trkpt lat="46.6127" lon="4.94086">
        <ele>186.2</ele>
        <time>2024-09-18T12:40:26Z</time>
      </trkpt>
      <trkpt lat="46.61266" lon="4.94084">
        <ele>186.2</ele>
        <time>2024-09-18T12:40:27Z</time>
      </trkpt>
      <trkpt lat="46.61262" lon="4.94081">
        <ele>186.4</ele>
        <time>2024-09-18T12:40:28Z</time>
      </trkpt>
      <trkpt lat="46.61258" lon="4.94078">
        <ele>186.4</ele>
        <time>2024-09-18T12:40:29Z</time>
      </trkpt>
      <trkpt lat="46.61253" lon="4.94076">
        <ele>186.2</ele>
        <time>2024-09-18T12:40:30Z</time>
      </trkpt>
      <trkpt lat="46.61249" lon="4.94073">
        <ele>186.2</ele>
        <time>2024-09-18T12:40:31Z</time>
      </trkpt>
      <trkpt lat="46.61245" lon="4.9407">
        <ele>186.4</ele>
        <time>2024-09-18T12:40:32Z</time>
      </trkpt>
      <trkpt lat="46.61241" lon="4.94067">
        <ele>186.4</ele>
        <time>2024-09-18T12:40:33Z</time>
      </trkpt>
      <trkpt lat="46.61237" lon="4.94064">
        <ele>186.4</ele>
        <time>2024-09-18T12:40:34Z</time>
      </trkpt>
      <trkpt lat="46.61233" lon="4.94061">
        <ele>186.4</ele>
        <time>2024-09-18T12:40:35Z</time>
      </trkpt>
      <trkpt lat="46.61229" lon="4.94058">
        <ele>186.2</ele>
        <time>2024-09-18T12:40:36Z</time>
      </trkpt>
      <trkpt lat="46.61225" lon="4.94055">
        <ele>186.2</ele>
        <time>2024-09-18T12:40:37Z</time>
      </trkpt>
      <trkpt lat="46.61221" lon="4.94052">
        <ele>186.2</ele>
        <time>2024-09-18T12:40:38Z</time>
      </trkpt>
      <trkpt lat="46.61217" lon="4.94049">
        <ele>186.2</ele>
        <time>2024-09-18T12:40:39Z</time>
      </trkpt>
      <trkpt lat="46.61213" lon="4.94045">
        <ele>186.2</ele>
        <time>2024-09-18T12:40:40Z</time>
      </trkpt>
      <trkpt lat="46.61209" lon="4.94042">
        <ele>185.8</ele>
        <time>2024-09-18T12:40:41Z</time>
      </trkpt>
      <trkpt lat="46.61205" lon="4.94039">
        <ele>185.8</ele>
        <time>2024-09-18T12:40:42Z</time>
      </trkpt>
      <trkpt lat="46.61201" lon="4.94035">
        <ele>185.8</ele>
        <time>2024-09-18T12:40:43Z</time>
      </trkpt>
      <trkpt lat="46.61197" lon="4.94032">
        <ele>186.2</ele>
        <time>2024-09-18T12:40:44Z</time>
      </trkpt>
      <trkpt lat="46.61193" lon="4.94029">
        <ele>186.2</ele>
        <time>2024-09-18T12:40:45Z</time>
      </trkpt>
      <trkpt lat="46.61189" lon="4.94026">
        <ele>186.2</ele>
        <time>2024-09-18T12:40:46Z</time>
      </trkpt>
      <trkpt lat="46.61185" lon="4.94022">
        <ele>186.2</ele>
        <time>2024-09-18T12:40:47Z</time>
      </trkpt>
      <trkpt lat="46.61181" lon="4.94018">
        <ele>186.2</ele>
        <time>2024-09-18T12:40:48Z</time>
      </trkpt>
      <trkpt lat="46.61177" lon="4.94015">
        <ele>186</ele>
        <time>2024-09-18T12:40:49Z</time>
      </trkpt>
      <trkpt lat="46.61172" lon="4.94012">
        <ele>186.2</ele>
        <time>2024-09-18T12:40:50Z</time>
      </trkpt>
      <trkpt lat="46.61168" lon="4.94008">
        <ele>186.2</ele>
        <time>2024-09-18T12:40:51Z</time>
      </trkpt>
      <trkpt lat="46.61164" lon="4.94005">
        <ele>186.2</ele>
        <time>2024-09-18T12:40:52Z</time>
      </trkpt>
      <trkpt lat="46.6116" lon="4.94002">
        <ele>186.2</ele>
        <time>2024-09-18T12:40:53Z</time>
      </trkpt>
      <trkpt lat="46.61155" lon="4.93999">
        <ele>186.2</ele>
        <time>2024-09-18T12:40:54Z</time>
      </trkpt>
      <trkpt lat="46.61151" lon="4.93996">
        <ele>186.2</ele>
        <time>2024-09-18T12:40:55Z</time>
      </trkpt>
      <trkpt lat="46.61148" lon="4.93993">
        <ele>186.2</ele>
        <time>2024-09-18T12:40:56Z</time>
      </trkpt>
      <trkpt lat="46.61144" lon="4.9399">
        <ele>186.2</ele>
        <time>2024-09-18T12:40:57Z</time>
      </trkpt>
      <trkpt lat="46.61139" lon="4.93987">
        <ele>186.2</ele>
        <time>2024-09-18T12:40:58Z</time>
      </trkpt>
      <trkpt lat="46.61135" lon="4.93984">
        <ele>186.4</ele>
        <time>2024-09-18T12:40:59Z</time>
      </trkpt>
      <trkpt lat="46.61131" lon="4.9398">
        <ele>186.4</ele>
        <time>2024-09-18T12:41:00Z</time>
      </trkpt>
      <trkpt lat="46.61128" lon="4.93977">
        <ele>186.4</ele>
        <time>2024-09-18T12:41:01Z</time>
      </trkpt>
      <trkpt lat="46.61124" lon="4.93974">
        <ele>186.2</ele>
        <time>2024-09-18T12:41:02Z</time>
      </trkpt>
      <trkpt lat="46.6112" lon="4.93971">
        <ele>186.2</ele>
        <time>2024-09-18T12:41:03Z</time>
      </trkpt>
      <trkpt lat="46.61116" lon="4.93967">
        <ele>185.8</ele>
        <time>2024-09-18T12:41:04Z</time>
      </trkpt>
      <trkpt lat="46.61112" lon="4.93964">
        <ele>185.8</ele>
        <time>2024-09-18T12:41:05Z</time>
      </trkpt>
      <trkpt lat="46.61108" lon="4.93961">
        <ele>186.2</ele>
        <time>2024-09-18T12:41:06Z</time>
      </trkpt>
      <trkpt lat="46.61104" lon="4.93958">
        <ele>186.4</ele>
        <time>2024-09-18T12:41:07Z</time>
      </trkpt>
      <trkpt lat="46.611" lon="4.93955">
        <ele>186.4</ele>
        <time>2024-09-18T12:41:08Z</time>
      </trkpt>
      <trkpt lat="46.61096" lon="4.93952">
        <ele>186.4</ele>
        <time>2024-09-18T12:41:09Z</time>
      </trkpt>
      <trkpt lat="46.61092" lon="4.93949">
        <ele>186.4</ele>
        <time>2024-09-18T12:41:10Z</time>
      </trkpt>
      <trkpt lat="46.61088" lon="4.93946">
        <ele>186.4</ele>
        <time>2024-09-18T12:41:11Z</time>
      </trkpt>
      <trkpt lat="46.61084" lon="4.93942">
        <ele>186.4</ele>
        <time>2024-09-18T12:41:12Z</time>
      </trkpt>
      <trkpt lat="46.6108" lon="4.93939">
        <ele>186.4</ele>
        <time>2024-09-18T12:41:13Z</time>
      </trkpt>
      <trkpt lat="46.61076" lon="4.93936">
        <ele>186.4</ele>
        <time>2024-09-18T12:41:14Z</time>
      </trkpt>
      <trkpt lat="46.61073" lon="4.93932">
        <ele>186.4</ele>
        <time>2024-09-18T12:41:15Z</time>
      </trkpt>
      <trkpt lat="46.61069" lon="4.93929">
        <ele>186.6</ele>
        <time>2024-09-18T12:41:16Z</time>
      </trkpt>
      <trkpt lat="46.61065" lon="4.93925">
        <ele>186.6</ele>
        <time>2024-09-18T12:41:17Z</time>
      </trkpt>
      <trkpt lat="46.61061" lon="4.93922">
        <ele>186.6</ele>
        <time>2024-09-18T12:41:18Z</time>
      </trkpt>
      <trkpt lat="46.61057" lon="4.93919">
        <ele>186.6</ele>
        <time>2024-09-18T12:41:19Z</time>
      </trkpt>
      <trkpt lat="46.61053" lon="4.93916">
        <ele>186.6</ele>
        <time>2024-09-18T12:41:20Z</time>
      </trkpt>
      <trkpt lat="46.6105" lon="4.93912">
        <ele>186.4</ele>
        <time>2024-09-18T12:41:21Z</time>
      </trkpt>
      <trkpt lat="46.61046" lon="4.93909">
        <ele>186.4</ele>
        <time>2024-09-18T12:41:22Z</time>
      </trkpt>
      <trkpt lat="46.61042" lon="4.93906">
        <ele>186.4</ele>
        <time>2024-09-18T12:41:23Z</time>
      </trkpt>
      <trkpt lat="46.61038" lon="4.93903">
        <ele>186.4</ele>
        <time>2024-09-18T12:41:24Z</time>
      </trkpt>
      <trkpt lat="46.61034" lon="4.939">
        <ele>186</ele>
        <time>2024-09-18T12:41:25Z</time>
      </trkpt>
      <trkpt lat="46.6103" lon="4.93896">
        <ele>186</ele>
        <time>2024-09-18T12:41:26Z</time>
      </trkpt>
      <trkpt lat="46.61026" lon="4.93894">
        <ele>186.4</ele>
        <time>2024-09-18T12:41:27Z</time>
      </trkpt>
      <trkpt lat="46.61022" lon="4.93891">
        <ele>186.4</ele>
        <time>2024-09-18T12:41:28Z</time>
      </trkpt>
      <trkpt lat="46.61017" lon="4.93889">
        <ele>186</ele>
        <time>2024-09-18T12:41:29Z</time>
      </trkpt>
      <trkpt lat="46.61013" lon="4.93886">
        <ele>185.6</ele>
        <time>2024-09-18T12:41:30Z</time>
      </trkpt>
      <trkpt lat="46.61005" lon="4.93883">
        <ele>185.6</ele>
        <time>2024-09-18T12:41:31Z</time>
      </trkpt>
      <trkpt lat="46.61003" lon="4.93882">
        <ele>185.6</ele>
        <time>2024-09-18T12:41:32Z</time>
      </trkpt>
      <trkpt lat="46.60998" lon="4.9388">
        <ele>185.6</ele>
        <time>2024-09-18T12:41:33Z</time>
      </trkpt>
      <trkpt lat="46.60993" lon="4.93877">
        <ele>185.6</ele>
        <time>2024-09-18T12:41:34Z</time>
      </trkpt>
      <trkpt lat="46.60988" lon="4.93875">
        <ele>185.2</ele>
        <time>2024-09-18T12:41:35Z</time>
      </trkpt>
      <trkpt lat="46.60984" lon="4.93871">
        <ele>185.2</ele>
        <time>2024-09-18T12:41:36Z</time>
      </trkpt>
      <trkpt lat="46.60979" lon="4.93867">
        <ele>185.2</ele>
        <time>2024-09-18T12:41:37Z</time>
      </trkpt>
      <trkpt lat="46.60975" lon="4.93864">
        <ele>185.2</ele>
        <time>2024-09-18T12:41:38Z</time>
      </trkpt>
      <trkpt lat="46.60971" lon="4.9386">
        <ele>186</ele>
        <time>2024-09-18T12:41:39Z</time>
      </trkpt>
      <trkpt lat="46.60967" lon="4.93856">
        <ele>186</ele>
        <time>2024-09-18T12:41:40Z</time>
      </trkpt>
      <trkpt lat="46.60963" lon="4.93853">
        <ele>186</ele>
        <time>2024-09-18T12:41:41Z</time>
      </trkpt>
      <trkpt lat="46.60959" lon="4.9385">
        <ele>186</ele>
        <time>2024-09-18T12:41:42Z</time>
      </trkpt>
      <trkpt lat="46.60955" lon="4.93846">
        <ele>186</ele>
        <time>2024-09-18T12:41:43Z</time>
      </trkpt>
      <trkpt lat="46.60952" lon="4.93843">
        <ele>186.2</ele>
        <time>2024-09-18T12:41:44Z</time>
      </trkpt>
      <trkpt lat="46.60948" lon="4.93839">
        <ele>186.2</ele>
        <time>2024-09-18T12:41:45Z</time>
      </trkpt>
      <trkpt lat="46.60944" lon="4.93836">
        <ele>186.2</ele>
        <time>2024-09-18T12:41:46Z</time>
      </trkpt>
      <trkpt lat="46.6094" lon="4.93833">
        <ele>186.2</ele>
        <time>2024-09-18T12:41:47Z</time>
      </trkpt>
      <trkpt lat="46.60936" lon="4.9383">
        <ele>186.2</ele>
        <time>2024-09-18T12:41:48Z</time>
      </trkpt>
      <trkpt lat="46.60932" lon="4.93827">
        <ele>186.2</ele>
        <time>2024-09-18T12:41:49Z</time>
      </trkpt>
      <trkpt lat="46.60928" lon="4.93824">
        <ele>186.2</ele>
        <time>2024-09-18T12:41:50Z</time>
      </trkpt>
      <trkpt lat="46.60924" lon="4.93821">
        <ele>186.2</ele>
        <time>2024-09-18T12:41:51Z</time>
      </trkpt>
      <trkpt lat="46.6092" lon="4.93818">
        <ele>186.2</ele>
        <time>2024-09-18T12:41:52Z</time>
      </trkpt>
      <trkpt lat="46.60915" lon="4.93815">
        <ele>185.8</ele>
        <time>2024-09-18T12:41:53Z</time>
      </trkpt>
      <trkpt lat="46.60911" lon="4.93811">
        <ele>185.8</ele>
        <time>2024-09-18T12:41:54Z</time>
      </trkpt>
      <trkpt lat="46.60906" lon="4.93808">
        <ele>185.8</ele>
        <time>2024-09-18T12:41:55Z</time>
      </trkpt>
      <trkpt lat="46.60902" lon="4.93805">
        <ele>186.2</ele>
        <time>2024-09-18T12:41:56Z</time>
      </trkpt>
      <trkpt lat="46.60898" lon="4.938">
        <ele>186</ele>
        <time>2024-09-18T12:41:57Z</time>
      </trkpt>
      <trkpt lat="46.60894" lon="4.93796">
        <ele>186</ele>
        <time>2024-09-18T12:41:58Z</time>
      </trkpt>
      <trkpt lat="46.6089" lon="4.93792">
        <ele>186</ele>
        <time>2024-09-18T12:41:59Z</time>
      </trkpt>
      <trkpt lat="46.60886" lon="4.93789">
        <ele>186</ele>
        <time>2024-09-18T12:42:00Z</time>
      </trkpt>
      <trkpt lat="46.60882" lon="4.93785">
        <ele>186.2</ele>
        <time>2024-09-18T12:42:01Z</time>
      </trkpt>
      <trkpt lat="46.60877" lon="4.93781">
        <ele>186.2</ele>
        <time>2024-09-18T12:42:02Z</time>
      </trkpt>
      <trkpt lat="46.60873" lon="4.93777">
        <ele>186.2</ele>
        <time>2024-09-18T12:42:03Z</time>
      </trkpt>
      <trkpt lat="46.60869" lon="4.93774">
        <ele>185.8</ele>
        <time>2024-09-18T12:42:04Z</time>
      </trkpt>
      <trkpt lat="46.60865" lon="4.9377">
        <ele>185.8</ele>
        <time>2024-09-18T12:42:05Z</time>
      </trkpt>
      <trkpt lat="46.60862" lon="4.93765">
        <ele>186</ele>
        <time>2024-09-18T12:42:06Z</time>
      </trkpt>
      <trkpt lat="46.60858" lon="4.93762">
        <ele>186</ele>
        <time>2024-09-18T12:42:07Z</time>
      </trkpt>
      <trkpt lat="46.60854" lon="4.93758">
        <ele>186</ele>
        <time>2024-09-18T12:42:08Z</time>
      </trkpt>
      <trkpt lat="46.6085" lon="4.93754">
        <ele>186</ele>
        <time>2024-09-18T12:42:09Z</time>
      </trkpt>
      <trkpt lat="46.60846" lon="4.9375">
        <ele>186</ele>
        <time>2024-09-18T12:42:10Z</time>
      </trkpt>
      <trkpt lat="46.60842" lon="4.93745">
        <ele>185.8</ele>
        <time>2024-09-18T12:42:11Z</time>
      </trkpt>
      <trkpt lat="46.60839" lon="4.93741">
        <ele>185.8</ele>
        <time>2024-09-18T12:42:12Z</time>
      </trkpt>
      <trkpt lat="46.60835" lon="4.93737">
        <ele>185.8</ele>
        <time>2024-09-18T12:42:13Z</time>
      </trkpt>
      <trkpt lat="46.60831" lon="4.93733">
        <ele>186.4</ele>
        <time>2024-09-18T12:42:14Z</time>
      </trkpt>
      <trkpt lat="46.60827" lon="4.93729">
        <ele>186.4</ele>
        <time>2024-09-18T12:42:15Z</time>
      </trkpt>
      <trkpt lat="46.60823" lon="4.93725">
        <ele>186</ele>
        <time>2024-09-18T12:42:16Z</time>
      </trkpt>
      <trkpt lat="46.60819" lon="4.93722">
        <ele>186</ele>
        <time>2024-09-18T12:42:17Z</time>
      </trkpt>
      <trkpt lat="46.60815" lon="4.93718">
        <ele>186</ele>
        <time>2024-09-18T12:42:18Z</time>
      </trkpt>
      <trkpt lat="46.60811" lon="4.93714">
        <ele>186</ele>
        <time>2024-09-18T12:42:19Z</time>
      </trkpt>
      <trkpt lat="46.60808" lon="4.9371">
        <ele>186</ele>
        <time>2024-09-18T12:42:20Z</time>
      </trkpt>
      <trkpt lat="46.60804" lon="4.93705">
        <ele>186</ele>
        <time>2024-09-18T12:42:21Z</time>
      </trkpt>
      <trkpt lat="46.60799" lon="4.93701">
        <ele>186</ele>
        <time>2024-09-18T12:42:22Z</time>
      </trkpt>
      <trkpt lat="46.60795" lon="4.93697">
        <ele>186</ele>
        <time>2024-09-18T12:42:23Z</time>
      </trkpt>
      <trkpt lat="46.60791" lon="4.93693">
        <ele>186</ele>
        <time>2024-09-18T12:42:24Z</time>
      </trkpt>
      <trkpt lat="46.60787" lon="4.93689">
        <ele>186</ele>
        <time>2024-09-18T12:42:25Z</time>
      </trkpt>
      <trkpt lat="46.60782" lon="4.93685">
        <ele>186</ele>
        <time>2024-09-18T12:42:26Z</time>
      </trkpt>
      <trkpt lat="46.60778" lon="4.9368">
        <ele>185.8</ele>
        <time>2024-09-18T12:42:27Z</time>
      </trkpt>
      <trkpt lat="46.60774" lon="4.93676">
        <ele>186</ele>
        <time>2024-09-18T12:42:28Z</time>
      </trkpt>
      <trkpt lat="46.6077" lon="4.93671">
        <ele>186</ele>
        <time>2024-09-18T12:42:29Z</time>
      </trkpt>
      <trkpt lat="46.60767" lon="4.93665">
        <ele>186</ele>
        <time>2024-09-18T12:42:30Z</time>
      </trkpt>
      <trkpt lat="46.60763" lon="4.9366">
        <ele>186</ele>
        <time>2024-09-18T12:42:31Z</time>
      </trkpt>
      <trkpt lat="46.60759" lon="4.93655">
        <ele>186</ele>
        <time>2024-09-18T12:42:32Z</time>
      </trkpt>
      <trkpt lat="46.60755" lon="4.9365">
        <ele>186</ele>
        <time>2024-09-18T12:42:33Z</time>
      </trkpt>
      <trkpt lat="46.60751" lon="4.93645">
        <ele>186</ele>
        <time>2024-09-18T12:42:34Z</time>
      </trkpt>
      <trkpt lat="46.60747" lon="4.9364">
        <ele>186</ele>
        <time>2024-09-18T12:42:35Z</time>
      </trkpt>
      <trkpt lat="46.60743" lon="4.93635">
        <ele>186</ele>
        <time>2024-09-18T12:42:36Z</time>
      </trkpt>
      <trkpt lat="46.60739" lon="4.9363">
        <ele>186</ele>
        <time>2024-09-18T12:42:37Z</time>
      </trkpt>
      <trkpt lat="46.60735" lon="4.93626">
        <ele>186</ele>
        <time>2024-09-18T12:42:38Z</time>
      </trkpt>
      <trkpt lat="46.60731" lon="4.93621">
        <ele>186</ele>
        <time>2024-09-18T12:42:39Z</time>
      </trkpt>
      <trkpt lat="46.60727" lon="4.93617">
        <ele>186</ele>
        <time>2024-09-18T12:42:40Z</time>
      </trkpt>
      <trkpt lat="46.60723" lon="4.93613">
        <ele>186</ele>
        <time>2024-09-18T12:42:41Z</time>
      </trkpt>
      <trkpt lat="46.60719" lon="4.93608">
        <ele>185.6</ele>
        <time>2024-09-18T12:42:42Z</time>
      </trkpt>
      <trkpt lat="46.60715" lon="4.93604">
        <ele>185.6</ele>
        <time>2024-09-18T12:42:43Z</time>
      </trkpt>
      <trkpt lat="46.6071" lon="4.936">
        <ele>185.6</ele>
        <time>2024-09-18T12:42:44Z</time>
      </trkpt>
      <trkpt lat="46.60706" lon="4.93596">
        <ele>185.8</ele>
        <time>2024-09-18T12:42:45Z</time>
      </trkpt>
      <trkpt lat="46.60702" lon="4.93591">
        <ele>185.8</ele>
        <time>2024-09-18T12:42:46Z</time>
      </trkpt>
      <trkpt lat="46.60698" lon="4.93587">
        <ele>185.8</ele>
        <time>2024-09-18T12:42:47Z</time>
      </trkpt>
      <trkpt lat="46.60694" lon="4.93583">
        <ele>185.8</ele>
        <time>2024-09-18T12:42:48Z</time>
      </trkpt>
      <trkpt lat="46.6069" lon="4.93579">
        <ele>185.8</ele>
        <time>2024-09-18T12:42:49Z</time>
      </trkpt>
      <trkpt lat="46.60686" lon="4.93574">
        <ele>185.8</ele>
        <time>2024-09-18T12:42:50Z</time>
      </trkpt>
      <trkpt lat="46.60682" lon="4.9357">
        <ele>186</ele>
        <time>2024-09-18T12:42:51Z</time>
      </trkpt>
      <trkpt lat="46.60678" lon="4.93566">
        <ele>185.8</ele>
        <time>2024-09-18T12:42:52Z</time>
      </trkpt>
      <trkpt lat="46.60675" lon="4.93562">
        <ele>185.8</ele>
        <time>2024-09-18T12:42:53Z</time>
      </trkpt>
      <trkpt lat="46.60671" lon="4.93558">
        <ele>185.8</ele>
        <time>2024-09-18T12:42:54Z</time>
      </trkpt>
      <trkpt lat="46.60667" lon="4.93554">
        <ele>185.8</ele>
        <time>2024-09-18T12:42:55Z</time>
      </trkpt>
      <trkpt lat="46.60663" lon="4.9355">
        <ele>185.8</ele>
        <time>2024-09-18T12:42:56Z</time>
      </trkpt>
      <trkpt lat="46.60659" lon="4.93546">
        <ele>185.6</ele>
        <time>2024-09-18T12:42:57Z</time>
      </trkpt>
      <trkpt lat="46.60655" lon="4.93541">
        <ele>185.6</ele>
        <time>2024-09-18T12:42:58Z</time>
      </trkpt>
      <trkpt lat="46.60651" lon="4.93537">
        <ele>185.6</ele>
        <time>2024-09-18T12:42:59Z</time>
      </trkpt>
      <trkpt lat="46.60648" lon="4.93533">
        <ele>185.8</ele>
        <time>2024-09-18T12:43:00Z</time>
      </trkpt>
      <trkpt lat="46.60644" lon="4.93529">
        <ele>186</ele>
        <time>2024-09-18T12:43:01Z</time>
      </trkpt>
      <trkpt lat="46.6064" lon="4.93525">
        <ele>186</ele>
        <time>2024-09-18T12:43:02Z</time>
      </trkpt>
      <trkpt lat="46.60636" lon="4.93521">
        <ele>186</ele>
        <time>2024-09-18T12:43:03Z</time>
      </trkpt>
      <trkpt lat="46.60632" lon="4.93516">
        <ele>186</ele>
        <time>2024-09-18T12:43:04Z</time>
      </trkpt>
      <trkpt lat="46.60629" lon="4.93512">
        <ele>186</ele>
        <time>2024-09-18T12:43:05Z</time>
      </trkpt>
      <trkpt lat="46.60625" lon="4.93508">
        <ele>185.2</ele>
        <time>2024-09-18T12:43:06Z</time>
      </trkpt>
      <trkpt lat="46.60621" lon="4.93504">
        <ele>185.2</ele>
        <time>2024-09-18T12:43:07Z</time>
      </trkpt>
      <trkpt lat="46.60617" lon="4.935">
        <ele>185.2</ele>
        <time>2024-09-18T12:43:08Z</time>
      </trkpt>
      <trkpt lat="46.60613" lon="4.93495">
        <ele>185.6</ele>
        <time>2024-09-18T12:43:09Z</time>
      </trkpt>
      <trkpt lat="46.6061" lon="4.93491">
        <ele>185.6</ele>
        <time>2024-09-18T12:43:10Z</time>
      </trkpt>
      <trkpt lat="46.60606" lon="4.93487">
        <ele>185.6</ele>
        <time>2024-09-18T12:43:11Z</time>
      </trkpt>
      <trkpt lat="46.60602" lon="4.93482">
        <ele>185.6</ele>
        <time>2024-09-18T12:43:12Z</time>
      </trkpt>
      <trkpt lat="46.60598" lon="4.93478">
        <ele>185.6</ele>
        <time>2024-09-18T12:43:13Z</time>
      </trkpt>
      <trkpt lat="46.60594" lon="4.93474">
        <ele>185.8</ele>
        <time>2024-09-18T12:43:14Z</time>
      </trkpt>
      <trkpt lat="46.6059" lon="4.9347">
        <ele>185.8</ele>
        <time>2024-09-18T12:43:15Z</time>
      </trkpt>
      <trkpt lat="46.60587" lon="4.93466">
        <ele>185.8</ele>
        <time>2024-09-18T12:43:16Z</time>
      </trkpt>
      <trkpt lat="46.60583" lon="4.93462">
        <ele>185.6</ele>
        <time>2024-09-18T12:43:17Z</time>
      </trkpt>
      <trkpt lat="46.60579" lon="4.93457">
        <ele>185.6</ele>
        <time>2024-09-18T12:43:18Z</time>
      </trkpt>
      <trkpt lat="46.60575" lon="4.93453">
        <ele>185.6</ele>
        <time>2024-09-18T12:43:19Z</time>
      </trkpt>
      <trkpt lat="46.60571" lon="4.93449">
        <ele>185.6</ele>
        <time>2024-09-18T12:43:20Z</time>
      </trkpt>
      <trkpt lat="46.60567" lon="4.93445">
        <ele>185.6</ele>
        <time>2024-09-18T12:43:21Z</time>
      </trkpt>
      <trkpt lat="46.60563" lon="4.9344">
        <ele>186</ele>
        <time>2024-09-18T12:43:22Z</time>
      </trkpt>
      <trkpt lat="46.6056" lon="4.93435">
        <ele>185.8</ele>
        <time>2024-09-18T12:43:23Z</time>
      </trkpt>
      <trkpt lat="46.60556" lon="4.93431">
        <ele>185.8</ele>
        <time>2024-09-18T12:43:24Z</time>
      </trkpt>
      <trkpt lat="46.60551" lon="4.93428">
        <ele>185.8</ele>
        <time>2024-09-18T12:43:25Z</time>
      </trkpt>
      <trkpt lat="46.60547" lon="4.93424">
        <ele>185.8</ele>
        <time>2024-09-18T12:43:26Z</time>
      </trkpt>
      <trkpt lat="46.60544" lon="4.9342">
        <ele>185.6</ele>
        <time>2024-09-18T12:43:27Z</time>
      </trkpt>
      <trkpt lat="46.6054" lon="4.93416">
        <ele>185.6</ele>
        <time>2024-09-18T12:43:28Z</time>
      </trkpt>
      <trkpt lat="46.60536" lon="4.93411">
        <ele>185.6</ele>
        <time>2024-09-18T12:43:29Z</time>
      </trkpt>
      <trkpt lat="46.60532" lon="4.93407">
        <ele>185.2</ele>
        <time>2024-09-18T12:43:30Z</time>
      </trkpt>
      <trkpt lat="46.60528" lon="4.93403">
        <ele>185.4</ele>
        <time>2024-09-18T12:43:31Z</time>
      </trkpt>
      <trkpt lat="46.60524" lon="4.93399">
        <ele>185.4</ele>
        <time>2024-09-18T12:43:32Z</time>
      </trkpt>
      <trkpt lat="46.6052" lon="4.93395">
        <ele>185.4</ele>
        <time>2024-09-18T12:43:33Z</time>
      </trkpt>
      <trkpt lat="46.60516" lon="4.93391">
        <ele>185.4</ele>
        <time>2024-09-18T12:43:34Z</time>
      </trkpt>
      <trkpt lat="46.60512" lon="4.93387">
        <ele>185.4</ele>
        <time>2024-09-18T12:43:35Z</time>
      </trkpt>
      <trkpt lat="46.60508" lon="4.93383">
        <ele>185.6</ele>
        <time>2024-09-18T12:43:36Z</time>
      </trkpt>
      <trkpt lat="46.60504" lon="4.93378">
        <ele>185.4</ele>
        <time>2024-09-18T12:43:37Z</time>
      </trkpt>
      <trkpt lat="46.605" lon="4.93374">
        <ele>185.4</ele>
        <time>2024-09-18T12:43:38Z</time>
      </trkpt>
      <trkpt lat="46.60496" lon="4.9337">
        <ele>185.4</ele>
        <time>2024-09-18T12:43:39Z</time>
      </trkpt>
      <trkpt lat="46.60492" lon="4.93366">
        <ele>185.4</ele>
        <time>2024-09-18T12:43:40Z</time>
      </trkpt>
      <trkpt lat="46.60488" lon="4.93362">
        <ele>185.2</ele>
        <time>2024-09-18T12:43:41Z</time>
      </trkpt>
      <trkpt lat="46.60484" lon="4.93358">
        <ele>185.2</ele>
        <time>2024-09-18T12:43:42Z</time>
      </trkpt>
      <trkpt lat="46.6048" lon="4.93354">
        <ele>185.2</ele>
        <time>2024-09-18T12:43:43Z</time>
      </trkpt>
      <trkpt lat="46.60476" lon="4.9335">
        <ele>185.2</ele>
        <time>2024-09-18T12:43:44Z</time>
      </trkpt>
      <trkpt lat="46.60473" lon="4.93346">
        <ele>185.4</ele>
        <time>2024-09-18T12:43:45Z</time>
      </trkpt>
      <trkpt lat="46.60469" lon="4.93341">
        <ele>185.4</ele>
        <time>2024-09-18T12:43:46Z</time>
      </trkpt>
      <trkpt lat="46.60465" lon="4.93337">
        <ele>185.4</ele>
        <time>2024-09-18T12:43:47Z</time>
      </trkpt>
      <trkpt lat="46.60461" lon="4.93333">
        <ele>185.4</ele>
        <time>2024-09-18T12:43:48Z</time>
      </trkpt>
      <trkpt lat="46.60457" lon="4.93329">
        <ele>185.4</ele>
        <time>2024-09-18T12:43:49Z</time>
      </trkpt>
      <trkpt lat="46.60454" lon="4.93325">
        <ele>185.6</ele>
        <time>2024-09-18T12:43:50Z</time>
      </trkpt>
      <trkpt lat="46.6045" lon="4.93322">
        <ele>185.6</ele>
        <time>2024-09-18T12:43:51Z</time>
      </trkpt>
      <trkpt lat="46.60446" lon="4.93317">
        <ele>185.6</ele>
        <time>2024-09-18T12:43:52Z</time>
      </trkpt>
      <trkpt lat="46.60442" lon="4.93313">
        <ele>185.6</ele>
        <time>2024-09-18T12:43:53Z</time>
      </trkpt>
      <trkpt lat="46.60439" lon="4.93308">
        <ele>185.4</ele>
        <time>2024-09-18T12:43:54Z</time>
      </trkpt>
      <trkpt lat="46.60435" lon="4.93304">
        <ele>185.4</ele>
        <time>2024-09-18T12:43:55Z</time>
      </trkpt>
      <trkpt lat="46.60431" lon="4.93299">
        <ele>185.4</ele>
        <time>2024-09-18T12:43:56Z</time>
      </trkpt>
      <trkpt lat="46.60428" lon="4.93295">
        <ele>185.4</ele>
        <time>2024-09-18T12:43:57Z</time>
      </trkpt>
      <trkpt lat="46.60424" lon="4.9329">
        <ele>185.6</ele>
        <time>2024-09-18T12:43:58Z</time>
      </trkpt>
      <trkpt lat="46.6042" lon="4.93286">
        <ele>185.6</ele>
        <time>2024-09-18T12:43:59Z</time>
      </trkpt>
      <trkpt lat="46.60417" lon="4.93281">
        <ele>185.6</ele>
        <time>2024-09-18T12:44:00Z</time>
      </trkpt>
      <trkpt lat="46.60413" lon="4.93277">
        <ele>185.6</ele>
        <time>2024-09-18T12:44:01Z</time>
      </trkpt>
      <trkpt lat="46.6041" lon="4.93272">
        <ele>185.6</ele>
        <time>2024-09-18T12:44:02Z</time>
      </trkpt>
      <trkpt lat="46.60406" lon="4.93268">
        <ele>185.2</ele>
        <time>2024-09-18T12:44:03Z</time>
      </trkpt>
      <trkpt lat="46.60403" lon="4.93264">
        <ele>185.2</ele>
        <time>2024-09-18T12:44:04Z</time>
      </trkpt>
      <trkpt lat="46.60399" lon="4.93259">
        <ele>185.2</ele>
        <time>2024-09-18T12:44:05Z</time>
      </trkpt>
      <trkpt lat="46.60395" lon="4.93255">
        <ele>185.2</ele>
        <time>2024-09-18T12:44:06Z</time>
      </trkpt>
      <trkpt lat="46.60391" lon="4.93251">
        <ele>185.2</ele>
        <time>2024-09-18T12:44:07Z</time>
      </trkpt>
      <trkpt lat="46.60388" lon="4.93247">
        <ele>185.2</ele>
        <time>2024-09-18T12:44:08Z</time>
      </trkpt>
      <trkpt lat="46.60384" lon="4.93242">
        <ele>185.2</ele>
        <time>2024-09-18T12:44:09Z</time>
      </trkpt>
      <trkpt lat="46.6038" lon="4.93238">
        <ele>185.2</ele>
        <time>2024-09-18T12:44:10Z</time>
      </trkpt>
      <trkpt lat="46.60376" lon="4.93234">
        <ele>185.6</ele>
        <time>2024-09-18T12:44:11Z</time>
      </trkpt>
      <trkpt lat="46.60372" lon="4.93229">
        <ele>185.2</ele>
        <time>2024-09-18T12:44:12Z</time>
      </trkpt>
      <trkpt lat="46.60369" lon="4.93225">
        <ele>185.2</ele>
        <time>2024-09-18T12:44:13Z</time>
      </trkpt>
      <trkpt lat="46.60365" lon="4.93221">
        <ele>185.2</ele>
        <time>2024-09-18T12:44:14Z</time>
      </trkpt>
      <trkpt lat="46.60361" lon="4.93217">
        <ele>185.2</ele>
        <time>2024-09-18T12:44:15Z</time>
      </trkpt>
      <trkpt lat="46.60357" lon="4.93213">
        <ele>185.6</ele>
        <time>2024-09-18T12:44:16Z</time>
      </trkpt>
      <trkpt lat="46.60353" lon="4.93208">
        <ele>185.6</ele>
        <time>2024-09-18T12:44:17Z</time>
      </trkpt>
      <trkpt lat="46.60349" lon="4.93204">
        <ele>185.4</ele>
        <time>2024-09-18T12:44:18Z</time>
      </trkpt>
      <trkpt lat="46.60345" lon="4.932">
        <ele>185.4</ele>
        <time>2024-09-18T12:44:19Z</time>
      </trkpt>
      <trkpt lat="46.60341" lon="4.93196">
        <ele>185.4</ele>
        <time>2024-09-18T12:44:20Z</time>
      </trkpt>
      <trkpt lat="46.60337" lon="4.93191">
        <ele>185.2</ele>
        <time>2024-09-18T12:44:21Z</time>
      </trkpt>
      <trkpt lat="46.60333" lon="4.93187">
        <ele>185.6</ele>
        <time>2024-09-18T12:44:22Z</time>
      </trkpt>
      <trkpt lat="46.6033" lon="4.93182">
        <ele>185.6</ele>
        <time>2024-09-18T12:44:23Z</time>
      </trkpt>
      <trkpt lat="46.60326" lon="4.93178">
        <ele>185.6</ele>
        <time>2024-09-18T12:44:24Z</time>
      </trkpt>
      <trkpt lat="46.60323" lon="4.93174">
        <ele>185.4</ele>
        <time>2024-09-18T12:44:25Z</time>
      </trkpt>
      <trkpt lat="46.60319" lon="4.9317">
        <ele>185.2</ele>
        <time>2024-09-18T12:44:26Z</time>
      </trkpt>
      <trkpt lat="46.60315" lon="4.93167">
        <ele>185.2</ele>
        <time>2024-09-18T12:44:27Z</time>
      </trkpt>
      <trkpt lat="46.60312" lon="4.93163">
        <ele>185.2</ele>
        <time>2024-09-18T12:44:28Z</time>
      </trkpt>
      <trkpt lat="46.60309" lon="4.93159">
        <ele>185.2</ele>
        <time>2024-09-18T12:44:29Z</time>
      </trkpt>
      <trkpt lat="46.60305" lon="4.93156">
        <ele>186</ele>
        <time>2024-09-18T12:44:30Z</time>
      </trkpt>
      <trkpt lat="46.60302" lon="4.93152">
        <ele>186</ele>
        <time>2024-09-18T12:44:31Z</time>
      </trkpt>
      <trkpt lat="46.60299" lon="4.93149">
        <ele>186</ele>
        <time>2024-09-18T12:44:32Z</time>
      </trkpt>
      <trkpt lat="46.60295" lon="4.93146">
        <ele>186</ele>
        <time>2024-09-18T12:44:33Z</time>
      </trkpt>
      <trkpt lat="46.60292" lon="4.93143">
        <ele>186</ele>
        <time>2024-09-18T12:44:34Z</time>
      </trkpt>
      <trkpt lat="46.60288" lon="4.9314">
        <ele>186.2</ele>
        <time>2024-09-18T12:44:35Z</time>
      </trkpt>
      <trkpt lat="46.60285" lon="4.93137">
        <ele>186.2</ele>
        <time>2024-09-18T12:44:36Z</time>
      </trkpt>
      <trkpt lat="46.60281" lon="4.93134">
        <ele>186.2</ele>
        <time>2024-09-18T12:44:37Z</time>
      </trkpt>
      <trkpt lat="46.60278" lon="4.93131">
        <ele>186.2</ele>
        <time>2024-09-18T12:44:38Z</time>
      </trkpt>
      <trkpt lat="46.60275" lon="4.93128">
        <ele>186.4</ele>
        <time>2024-09-18T12:44:39Z</time>
      </trkpt>
      <trkpt lat="46.60271" lon="4.93125">
        <ele>186.4</ele>
        <time>2024-09-18T12:44:40Z</time>
      </trkpt>
      <trkpt lat="46.60267" lon="4.93122">
        <ele>186.4</ele>
        <time>2024-09-18T12:44:41Z</time>
      </trkpt>
      <trkpt lat="46.60264" lon="4.93118">
        <ele>186.4</ele>
        <time>2024-09-18T12:44:42Z</time>
      </trkpt>
      <trkpt lat="46.6026" lon="4.93114">
        <ele>186.4</ele>
        <time>2024-09-18T12:44:43Z</time>
      </trkpt>
      <trkpt lat="46.60256" lon="4.9311">
        <ele>185.8</ele>
        <time>2024-09-18T12:44:44Z</time>
      </trkpt>
      <trkpt lat="46.60252" lon="4.93106">
        <ele>185.8</ele>
        <time>2024-09-18T12:44:45Z</time>
      </trkpt>
      <trkpt lat="46.60247" lon="4.93102">
        <ele>185.8</ele>
        <time>2024-09-18T12:44:46Z</time>
      </trkpt>
      <trkpt lat="46.60243" lon="4.93098">
        <ele>186</ele>
        <time>2024-09-18T12:44:47Z</time>
      </trkpt>
      <trkpt lat="46.60239" lon="4.93094">
        <ele>185.6</ele>
        <time>2024-09-18T12:44:48Z</time>
      </trkpt>
      <trkpt lat="46.60235" lon="4.9309">
        <ele>185.6</ele>
        <time>2024-09-18T12:44:49Z</time>
      </trkpt>
      <trkpt lat="46.60231" lon="4.93086">
        <ele>185.6</ele>
        <time>2024-09-18T12:44:50Z</time>
      </trkpt>
      <trkpt lat="46.60227" lon="4.93082">
        <ele>185.8</ele>
        <time>2024-09-18T12:44:51Z</time>
      </trkpt>
      <trkpt lat="46.60223" lon="4.93078">
        <ele>185.8</ele>
        <time>2024-09-18T12:44:52Z</time>
      </trkpt>
      <trkpt lat="46.60219" lon="4.93074">
        <ele>186.4</ele>
        <time>2024-09-18T12:44:53Z</time>
      </trkpt>
      <trkpt lat="46.60215" lon="4.9307">
        <ele>186.4</ele>
        <time>2024-09-18T12:44:54Z</time>
      </trkpt>
      <trkpt lat="46.60211" lon="4.93067">
        <ele>186.4</ele>
        <time>2024-09-18T12:44:55Z</time>
      </trkpt>
      <trkpt lat="46.60207" lon="4.93064">
        <ele>186</ele>
        <time>2024-09-18T12:44:56Z</time>
      </trkpt>
      <trkpt lat="46.60203" lon="4.9306">
        <ele>186</ele>
        <time>2024-09-18T12:44:57Z</time>
      </trkpt>
      <trkpt lat="46.60198" lon="4.93057">
        <ele>185.8</ele>
        <time>2024-09-18T12:44:58Z</time>
      </trkpt>
      <trkpt lat="46.60194" lon="4.93054">
        <ele>185.8</ele>
        <time>2024-09-18T12:44:59Z</time>
      </trkpt>
      <trkpt lat="46.6019" lon="4.93051">
        <ele>185.8</ele>
        <time>2024-09-18T12:45:00Z</time>
      </trkpt>
      <trkpt lat="46.60186" lon="4.93048">
        <ele>185.8</ele>
        <time>2024-09-18T12:45:01Z</time>
      </trkpt>
      <trkpt lat="46.60182" lon="4.93045">
        <ele>185.8</ele>
        <time>2024-09-18T12:45:02Z</time>
      </trkpt>
      <trkpt lat="46.60178" lon="4.93041">
        <ele>185.8</ele>
        <time>2024-09-18T12:45:03Z</time>
      </trkpt>
      <trkpt lat="46.60173" lon="4.93039">
        <ele>185.8</ele>
        <time>2024-09-18T12:45:04Z</time>
      </trkpt>
      <trkpt lat="46.60169" lon="4.93036">
        <ele>185.8</ele>
        <time>2024-09-18T12:45:05Z</time>
      </trkpt>
      <trkpt lat="46.60164" lon="4.93033">
        <ele>185.8</ele>
        <time>2024-09-18T12:45:06Z</time>
      </trkpt>
      <trkpt lat="46.6016" lon="4.9303">
        <ele>185.8</ele>
        <time>2024-09-18T12:45:07Z</time>
      </trkpt>
      <trkpt lat="46.60156" lon="4.93027">
        <ele>185.8</ele>
        <time>2024-09-18T12:45:08Z</time>
      </trkpt>
      <trkpt lat="46.60151" lon="4.93024">
        <ele>185.8</ele>
        <time>2024-09-18T12:45:09Z</time>
      </trkpt>
      <trkpt lat="46.60147" lon="4.93021">
        <ele>185.8</ele>
        <time>2024-09-18T12:45:10Z</time>
      </trkpt>
      <trkpt lat="46.60143" lon="4.93019">
        <ele>185.8</ele>
        <time>2024-09-18T12:45:11Z</time>
      </trkpt>
      <trkpt lat="46.60138" lon="4.93016">
        <ele>185.8</ele>
        <time>2024-09-18T12:45:12Z</time>
      </trkpt>
      <trkpt lat="46.60134" lon="4.93013">
        <ele>185.8</ele>
        <time>2024-09-18T12:45:13Z</time>
      </trkpt>
      <trkpt lat="46.6013" lon="4.9301">
        <ele>185.8</ele>
        <time>2024-09-18T12:45:14Z</time>
      </trkpt>
      <trkpt lat="46.60126" lon="4.93007">
        <ele>185.8</ele>
        <time>2024-09-18T12:45:15Z</time>
      </trkpt>
      <trkpt lat="46.60122" lon="4.93004">
        <ele>185.8</ele>
        <time>2024-09-18T12:45:16Z</time>
      </trkpt>
      <trkpt lat="46.60118" lon="4.93001">
        <ele>185.8</ele>
        <time>2024-09-18T12:45:17Z</time>
      </trkpt>
      <trkpt lat="46.60114" lon="4.92997">
        <ele>185.8</ele>
        <time>2024-09-18T12:45:18Z</time>
      </trkpt>
      <trkpt lat="46.6011" lon="4.92994">
        <ele>185.8</ele>
        <time>2024-09-18T12:45:19Z</time>
      </trkpt>
      <trkpt lat="46.60106" lon="4.92991">
        <ele>185.6</ele>
        <time>2024-09-18T12:45:20Z</time>
      </trkpt>
      <trkpt lat="46.60102" lon="4.92988">
        <ele>185.6</ele>
        <time>2024-09-18T12:45:21Z</time>
      </trkpt>
      <trkpt lat="46.60098" lon="4.92985">
        <ele>185.6</ele>
        <time>2024-09-18T12:45:22Z</time>
      </trkpt>
      <trkpt lat="46.60094" lon="4.92982">
        <ele>185.6</ele>
        <time>2024-09-18T12:45:23Z</time>
      </trkpt>
      <trkpt lat="46.6009" lon="4.92979">
        <ele>185.6</ele>
        <time>2024-09-18T12:45:24Z</time>
      </trkpt>
      <trkpt lat="46.60086" lon="4.92976">
        <ele>186</ele>
        <time>2024-09-18T12:45:25Z</time>
      </trkpt>
      <trkpt lat="46.60083" lon="4.92973">
        <ele>186</ele>
        <time>2024-09-18T12:45:26Z</time>
      </trkpt>
      <trkpt lat="46.6008" lon="4.9297">
        <ele>186</ele>
        <time>2024-09-18T12:45:27Z</time>
      </trkpt>
      <trkpt lat="46.60077" lon="4.92967">
        <ele>186</ele>
        <time>2024-09-18T12:45:28Z</time>
      </trkpt>
      <trkpt lat="46.60074" lon="4.92965">
        <ele>185.6</ele>
        <time>2024-09-18T12:45:29Z</time>
      </trkpt>
      <trkpt lat="46.60071" lon="4.92962">
        <ele>185.6</ele>
        <time>2024-09-18T12:45:30Z</time>
      </trkpt>
      <trkpt lat="46.60069" lon="4.9296">
        <ele>185.6</ele>
        <time>2024-09-18T12:45:31Z</time>
      </trkpt>
      <trkpt lat="46.60066" lon="4.92958">
        <ele>185.4</ele>
        <time>2024-09-18T12:45:32Z</time>
      </trkpt>
      <trkpt lat="46.60063" lon="4.92956">
        <ele>185.2</ele>
        <time>2024-09-18T12:45:33Z</time>
      </trkpt>
      <trkpt lat="46.6006" lon="4.92954">
        <ele>185.2</ele>
        <time>2024-09-18T12:45:34Z</time>
      </trkpt>
      <trkpt lat="46.60057" lon="4.92952">
        <ele>185.2</ele>
        <time>2024-09-18T12:45:35Z</time>
      </trkpt>
      <trkpt lat="46.60054" lon="4.9295">
        <ele>185.2</ele>
        <time>2024-09-18T12:45:36Z</time>
      </trkpt>
      <trkpt lat="46.6005" lon="4.92948">
        <ele>185.2</ele>
        <time>2024-09-18T12:45:37Z</time>
      </trkpt>
      <trkpt lat="46.60046" lon="4.92945">
        <ele>185.2</ele>
        <time>2024-09-18T12:45:38Z</time>
      </trkpt>
      <trkpt lat="46.60043" lon="4.92942">
        <ele>185.2</ele>
        <time>2024-09-18T12:45:39Z</time>
      </trkpt>
      <trkpt lat="46.60039" lon="4.92939">
        <ele>185.2</ele>
        <time>2024-09-18T12:45:40Z</time>
      </trkpt>
      <trkpt lat="46.60035" lon="4.92935">
        <ele>185.2</ele>
        <time>2024-09-18T12:45:41Z</time>
      </trkpt>
      <trkpt lat="46.60032" lon="4.92932">
        <ele>185.2</ele>
        <time>2024-09-18T12:45:42Z</time>
      </trkpt>
      <trkpt lat="46.60028" lon="4.92928">
        <ele>185.2</ele>
        <time>2024-09-18T12:45:43Z</time>
      </trkpt>
      <trkpt lat="46.60024" lon="4.92925">
        <ele>185.2</ele>
        <time>2024-09-18T12:45:44Z</time>
      </trkpt>
      <trkpt lat="46.6002" lon="4.92922">
        <ele>185.2</ele>
        <time>2024-09-18T12:45:45Z</time>
      </trkpt>
      <trkpt lat="46.60016" lon="4.92919">
        <ele>185.4</ele>
        <time>2024-09-18T12:45:46Z</time>
      </trkpt>
      <trkpt lat="46.60013" lon="4.92915">
        <ele>185.2</ele>
        <time>2024-09-18T12:45:47Z</time>
      </trkpt>
      <trkpt lat="46.60009" lon="4.92912">
        <ele>185.2</ele>
        <time>2024-09-18T12:45:48Z</time>
      </trkpt>
      <trkpt lat="46.60006" lon="4.92908">
        <ele>185.2</ele>
        <time>2024-09-18T12:45:49Z</time>
      </trkpt>
      <trkpt lat="46.60002" lon="4.92905">
        <ele>185.2</ele>
        <time>2024-09-18T12:45:50Z</time>
      </trkpt>
      <trkpt lat="46.59999" lon="4.92901">
        <ele>185.2</ele>
        <time>2024-09-18T12:45:51Z</time>
      </trkpt>
      <trkpt lat="46.59995" lon="4.92898">
        <ele>185.6</ele>
        <time>2024-09-18T12:45:52Z</time>
      </trkpt>
      <trkpt lat="46.59991" lon="4.92895">
        <ele>185.6</ele>
        <time>2024-09-18T12:45:53Z</time>
      </trkpt>
      <trkpt lat="46.59987" lon="4.92891">
        <ele>185.6</ele>
        <time>2024-09-18T12:45:54Z</time>
      </trkpt>
      <trkpt lat="46.59984" lon="4.92887">
        <ele>185.6</ele>
        <time>2024-09-18T12:45:55Z</time>
      </trkpt>
      <trkpt lat="46.5998" lon="4.92883">
        <ele>185.6</ele>
        <time>2024-09-18T12:45:56Z</time>
      </trkpt>
      <trkpt lat="46.59976" lon="4.92879">
        <ele>185.6</ele>
        <time>2024-09-18T12:45:57Z</time>
      </trkpt>
      <trkpt lat="46.59972" lon="4.92875">
        <ele>185.6</ele>
        <time>2024-09-18T12:45:58Z</time>
      </trkpt>
      <trkpt lat="46.59968" lon="4.92872">
        <ele>185.6</ele>
        <time>2024-09-18T12:45:59Z</time>
      </trkpt>
      <trkpt lat="46.59965" lon="4.92869">
        <ele>185.2</ele>
        <time>2024-09-18T12:46:00Z</time>
      </trkpt>
      <trkpt lat="46.59961" lon="4.92865">
        <ele>185.2</ele>
        <time>2024-09-18T12:46:01Z</time>
      </trkpt>
      <trkpt lat="46.59958" lon="4.92861">
        <ele>185.2</ele>
        <time>2024-09-18T12:46:02Z</time>
      </trkpt>
      <trkpt lat="46.59954" lon="4.92858">
        <ele>185.2</ele>
        <time>2024-09-18T12:46:03Z</time>
      </trkpt>
      <trkpt lat="46.5995" lon="4.92854">
        <ele>185.2</ele>
        <time>2024-09-18T12:46:04Z</time>
      </trkpt>
      <trkpt lat="46.59947" lon="4.92851">
        <ele>185.4</ele>
        <time>2024-09-18T12:46:05Z</time>
      </trkpt>
      <trkpt lat="46.59943" lon="4.92848">
        <ele>185.4</ele>
        <time>2024-09-18T12:46:06Z</time>
      </trkpt>
      <trkpt lat="46.59939" lon="4.92845">
        <ele>185.4</ele>
        <time>2024-09-18T12:46:07Z</time>
      </trkpt>
      <trkpt lat="46.59935" lon="4.92841">
        <ele>185.6</ele>
        <time>2024-09-18T12:46:08Z</time>
      </trkpt>
      <trkpt lat="46.59931" lon="4.92839">
        <ele>185.8</ele>
        <time>2024-09-18T12:46:09Z</time>
      </trkpt>
      <trkpt lat="46.59927" lon="4.92836">
        <ele>185.8</ele>
        <time>2024-09-18T12:46:10Z</time>
      </trkpt>
      <trkpt lat="46.59923" lon="4.92835">
        <ele>185.8</ele>
        <time>2024-09-18T12:46:11Z</time>
      </trkpt>
      <trkpt lat="46.59919" lon="4.92834">
        <ele>185.8</ele>
        <time>2024-09-18T12:46:12Z</time>
      </trkpt>
      <trkpt lat="46.59915" lon="4.92834">
        <ele>185.8</ele>
        <time>2024-09-18T12:46:13Z</time>
      </trkpt>
      <trkpt lat="46.59911" lon="4.92834">
        <ele>186</ele>
        <time>2024-09-18T12:46:14Z</time>
      </trkpt>
      <trkpt lat="46.59907" lon="4.92834">
        <ele>186</ele>
        <time>2024-09-18T12:46:15Z</time>
      </trkpt>
      <trkpt lat="46.59903" lon="4.92834">
        <ele>186</ele>
        <time>2024-09-18T12:46:16Z</time>
      </trkpt>
      <trkpt lat="46.59899" lon="4.92834">
        <ele>185.6</ele>
        <time>2024-09-18T12:46:17Z</time>
      </trkpt>
      <trkpt lat="46.59894" lon="4.92834">
        <ele>186</ele>
        <time>2024-09-18T12:46:18Z</time>
      </trkpt>
      <trkpt lat="46.5989" lon="4.92834">
        <ele>186</ele>
        <time>2024-09-18T12:46:19Z</time>
      </trkpt>
      <trkpt lat="46.59886" lon="4.92833">
        <ele>186</ele>
        <time>2024-09-18T12:46:20Z</time>
      </trkpt>
      <trkpt lat="46.59882" lon="4.92832">
        <ele>185.8</ele>
        <time>2024-09-18T12:46:21Z</time>
      </trkpt>
      <trkpt lat="46.59878" lon="4.92831">
        <ele>185.8</ele>
        <time>2024-09-18T12:46:22Z</time>
      </trkpt>
      <trkpt lat="46.59873" lon="4.92829">
        <ele>185.6</ele>
        <time>2024-09-18T12:46:23Z</time>
      </trkpt>
      <trkpt lat="46.59869" lon="4.92828">
        <ele>185.6</ele>
        <time>2024-09-18T12:46:24Z</time>
      </trkpt>
      <trkpt lat="46.59865" lon="4.92827">
        <ele>185.6</ele>
        <time>2024-09-18T12:46:25Z</time>
      </trkpt>
      <trkpt lat="46.59861" lon="4.92826">
        <ele>185.6</ele>
        <time>2024-09-18T12:46:26Z</time>
      </trkpt>
      <trkpt lat="46.59857" lon="4.92825">
        <ele>185.8</ele>
        <time>2024-09-18T12:46:27Z</time>
      </trkpt>
      <trkpt lat="46.59853" lon="4.92824">
        <ele>185.8</ele>
        <time>2024-09-18T12:46:28Z</time>
      </trkpt>
      <trkpt lat="46.59849" lon="4.92823">
        <ele>185.4</ele>
        <time>2024-09-18T12:46:29Z</time>
      </trkpt>
      <trkpt lat="46.59845" lon="4.92822">
        <ele>185.4</ele>
        <time>2024-09-18T12:46:30Z</time>
      </trkpt>
      <trkpt lat="46.59841" lon="4.92821">
        <ele>185.8</ele>
        <time>2024-09-18T12:46:31Z</time>
      </trkpt>
      <trkpt lat="46.59837" lon="4.92819">
        <ele>185.8</ele>
        <time>2024-09-18T12:46:32Z</time>
      </trkpt>
      <trkpt lat="46.59833" lon="4.92818">
        <ele>185.8</ele>
        <time>2024-09-18T12:46:33Z</time>
      </trkpt>
      <trkpt lat="46.5983" lon="4.92817">
        <ele>185.8</ele>
        <time>2024-09-18T12:46:34Z</time>
      </trkpt>
      <trkpt lat="46.59826" lon="4.92815">
        <ele>185.8</ele>
        <time>2024-09-18T12:46:35Z</time>
      </trkpt>
      <trkpt lat="46.59822" lon="4.92814">
        <ele>185.8</ele>
        <time>2024-09-18T12:46:36Z</time>
      </trkpt>
      <trkpt lat="46.59818" lon="4.92813">
        <ele>185.8</ele>
        <time>2024-09-18T12:46:37Z</time>
      </trkpt>
      <trkpt lat="46.59814" lon="4.92811">
        <ele>185.8</ele>
        <time>2024-09-18T12:46:38Z</time>
      </trkpt>
      <trkpt lat="46.59811" lon="4.92808">
        <ele>185.8</ele>
        <time>2024-09-18T12:46:39Z</time>
      </trkpt>
      <trkpt lat="46.59807" lon="4.92806">
        <ele>185.8</ele>
        <time>2024-09-18T12:46:40Z</time>
      </trkpt>
      <trkpt lat="46.59804" lon="4.92804">
        <ele>185.6</ele>
        <time>2024-09-18T12:46:41Z</time>
      </trkpt>
      <trkpt lat="46.598" lon="4.92802">
        <ele>185.6</ele>
        <time>2024-09-18T12:46:42Z</time>
      </trkpt>
      <trkpt lat="46.59796" lon="4.928">
        <ele>185.6</ele>
        <time>2024-09-18T12:46:43Z</time>
      </trkpt>
      <trkpt lat="46.59792" lon="4.92797">
        <ele>185.6</ele>
        <time>2024-09-18T12:46:44Z</time>
      </trkpt>
      <trkpt lat="46.59788" lon="4.92794">
        <ele>186.2</ele>
        <time>2024-09-18T12:46:45Z</time>
      </trkpt>
      <trkpt lat="46.59784" lon="4.92791">
        <ele>186.2</ele>
        <time>2024-09-18T12:46:46Z</time>
      </trkpt>
      <trkpt lat="46.59779" lon="4.92788">
        <ele>186.2</ele>
        <time>2024-09-18T12:46:47Z</time>
      </trkpt>
      <trkpt lat="46.59775" lon="4.92785">
        <ele>186.2</ele>
        <time>2024-09-18T12:46:48Z</time>
      </trkpt>
      <trkpt lat="46.59771" lon="4.92782">
        <ele>186</ele>
        <time>2024-09-18T12:46:49Z</time>
      </trkpt>
      <trkpt lat="46.59767" lon="4.92779">
        <ele>185.8</ele>
        <time>2024-09-18T12:46:50Z</time>
      </trkpt>
      <trkpt lat="46.59763" lon="4.92776">
        <ele>185.8</ele>
        <time>2024-09-18T12:46:51Z</time>
      </trkpt>
      <trkpt lat="46.59759" lon="4.92773">
        <ele>185.8</ele>
        <time>2024-09-18T12:46:52Z</time>
      </trkpt>
      <trkpt lat="46.59755" lon="4.9277">
        <ele>185.8</ele>
        <time>2024-09-18T12:46:53Z</time>
      </trkpt>
      <trkpt lat="46.59751" lon="4.92767">
        <ele>185.8</ele>
        <time>2024-09-18T12:46:54Z</time>
      </trkpt>
      <trkpt lat="46.59747" lon="4.92764">
        <ele>186</ele>
        <time>2024-09-18T12:46:55Z</time>
      </trkpt>
      <trkpt lat="46.59743" lon="4.92761">
        <ele>186</ele>
        <time>2024-09-18T12:46:56Z</time>
      </trkpt>
      <trkpt lat="46.59739" lon="4.92758">
        <ele>186</ele>
        <time>2024-09-18T12:46:57Z</time>
      </trkpt>
      <trkpt lat="46.59734" lon="4.92755">
        <ele>185.6</ele>
        <time>2024-09-18T12:46:58Z</time>
      </trkpt>
      <trkpt lat="46.5973" lon="4.92753">
        <ele>185.8</ele>
        <time>2024-09-18T12:46:59Z</time>
      </trkpt>
      <trkpt lat="46.59726" lon="4.9275">
        <ele>185.8</ele>
        <time>2024-09-18T12:47:00Z</time>
      </trkpt>
      <trkpt lat="46.59722" lon="4.92747">
        <ele>185.8</ele>
        <time>2024-09-18T12:47:01Z</time>
      </trkpt>
      <trkpt lat="46.59717" lon="4.92744">
        <ele>185.8</ele>
        <time>2024-09-18T12:47:02Z</time>
      </trkpt>
      <trkpt lat="46.59713" lon="4.92741">
        <ele>185.6</ele>
        <time>2024-09-18T12:47:03Z</time>
      </trkpt>
      <trkpt lat="46.59709" lon="4.92739">
        <ele>185.6</ele>
        <time>2024-09-18T12:47:04Z</time>
      </trkpt>
      <trkpt lat="46.59705" lon="4.92736">
        <ele>185.6</ele>
        <time>2024-09-18T12:47:05Z</time>
      </trkpt>
      <trkpt lat="46.59701" lon="4.92733">
        <ele>185.6</ele>
        <time>2024-09-18T12:47:06Z</time>
      </trkpt>
      <trkpt lat="46.59697" lon="4.9273">
        <ele>185.6</ele>
        <time>2024-09-18T12:47:07Z</time>
      </trkpt>
      <trkpt lat="46.59693" lon="4.92728">
        <ele>185.6</ele>
        <time>2024-09-18T12:47:08Z</time>
      </trkpt>
      <trkpt lat="46.59689" lon="4.92725">
        <ele>186</ele>
        <time>2024-09-18T12:47:09Z</time>
      </trkpt>
      <trkpt lat="46.59685" lon="4.92723">
        <ele>186</ele>
        <time>2024-09-18T12:47:10Z</time>
      </trkpt>
      <trkpt lat="46.59681" lon="4.92721">
        <ele>186</ele>
        <time>2024-09-18T12:47:11Z</time>
      </trkpt>
      <trkpt lat="46.59677" lon="4.92719">
        <ele>186.2</ele>
        <time>2024-09-18T12:47:12Z</time>
      </trkpt>
      <trkpt lat="46.59673" lon="4.92717">
        <ele>186</ele>
        <time>2024-09-18T12:47:13Z</time>
      </trkpt>
      <trkpt lat="46.59669" lon="4.92714">
        <ele>186</ele>
        <time>2024-09-18T12:47:14Z</time>
      </trkpt>
      <trkpt lat="46.59664" lon="4.92712">
        <ele>186</ele>
        <time>2024-09-18T12:47:15Z</time>
      </trkpt>
      <trkpt lat="46.5966" lon="4.9271">
        <ele>185.6</ele>
        <time>2024-09-18T12:47:16Z</time>
      </trkpt>
      <trkpt lat="46.59656" lon="4.92708">
        <ele>185.6</ele>
        <time>2024-09-18T12:47:17Z</time>
      </trkpt>
      <trkpt lat="46.59652" lon="4.92705">
        <ele>185.6</ele>
        <time>2024-09-18T12:47:18Z</time>
      </trkpt>
      <trkpt lat="46.59648" lon="4.92703">
        <ele>185.6</ele>
        <time>2024-09-18T12:47:19Z</time>
      </trkpt>
      <trkpt lat="46.59644" lon="4.92701">
        <ele>185.6</ele>
        <time>2024-09-18T12:47:20Z</time>
      </trkpt>
      <trkpt lat="46.5964" lon="4.92698">
        <ele>185.8</ele>
        <time>2024-09-18T12:47:21Z</time>
      </trkpt>
      <trkpt lat="46.59635" lon="4.92696">
        <ele>185.8</ele>
        <time>2024-09-18T12:47:22Z</time>
      </trkpt>
      <trkpt lat="46.59631" lon="4.92694">
        <ele>185.8</ele>
        <time>2024-09-18T12:47:23Z</time>
      </trkpt>
      <trkpt lat="46.59627" lon="4.92691">
        <ele>185.8</ele>
        <time>2024-09-18T12:47:24Z</time>
      </trkpt>
      <trkpt lat="46.59623" lon="4.92689">
        <ele>185.8</ele>
        <time>2024-09-18T12:47:25Z</time>
      </trkpt>
      <trkpt lat="46.59618" lon="4.92686">
        <ele>185.8</ele>
        <time>2024-09-18T12:47:26Z</time>
      </trkpt>
      <trkpt lat="46.59614" lon="4.92683">
        <ele>185.8</ele>
        <time>2024-09-18T12:47:27Z</time>
      </trkpt>
      <trkpt lat="46.5961" lon="4.92681">
        <ele>185.8</ele>
        <time>2024-09-18T12:47:28Z</time>
      </trkpt>
      <trkpt lat="46.59606" lon="4.92678">
        <ele>185.8</ele>
        <time>2024-09-18T12:47:29Z</time>
      </trkpt>
      <trkpt lat="46.59602" lon="4.92675">
        <ele>185.8</ele>
        <time>2024-09-18T12:47:30Z</time>
      </trkpt>
      <trkpt lat="46.59598" lon="4.92672">
        <ele>186</ele>
        <time>2024-09-18T12:47:31Z</time>
      </trkpt>
      <trkpt lat="46.59594" lon="4.92669">
        <ele>186</ele>
        <time>2024-09-18T12:47:32Z</time>
      </trkpt>
      <trkpt lat="46.5959" lon="4.92666">
        <ele>186</ele>
        <time>2024-09-18T12:47:33Z</time>
      </trkpt>
      <trkpt lat="46.59586" lon="4.92664">
        <ele>186</ele>
        <time>2024-09-18T12:47:34Z</time>
      </trkpt>
      <trkpt lat="46.59582" lon="4.92661">
        <ele>185</ele>
        <time>2024-09-18T12:47:35Z</time>
      </trkpt>
      <trkpt lat="46.59578" lon="4.92658">
        <ele>185</ele>
        <time>2024-09-18T12:47:36Z</time>
      </trkpt>
      <trkpt lat="46.59574" lon="4.92656">
        <ele>185</ele>
        <time>2024-09-18T12:47:37Z</time>
      </trkpt>
      <trkpt lat="46.5957" lon="4.92653">
        <ele>186</ele>
        <time>2024-09-18T12:47:38Z</time>
      </trkpt>
      <trkpt lat="46.59566" lon="4.92649">
        <ele>185.8</ele>
        <time>2024-09-18T12:47:39Z</time>
      </trkpt>
      <trkpt lat="46.59562" lon="4.92645">
        <ele>185.8</ele>
        <time>2024-09-18T12:47:40Z</time>
      </trkpt>
      <trkpt lat="46.59558" lon="4.92641">
        <ele>185.8</ele>
        <time>2024-09-18T12:47:41Z</time>
      </trkpt>
      <trkpt lat="46.59554" lon="4.92637">
        <ele>185.8</ele>
        <time>2024-09-18T12:47:42Z</time>
      </trkpt>
      <trkpt lat="46.5955" lon="4.92634">
        <ele>185.8</ele>
        <time>2024-09-18T12:47:43Z</time>
      </trkpt>
      <trkpt lat="46.59546" lon="4.9263">
        <ele>185.6</ele>
        <time>2024-09-18T12:47:44Z</time>
      </trkpt>
      <trkpt lat="46.59543" lon="4.92627">
        <ele>185.6</ele>
        <time>2024-09-18T12:47:45Z</time>
      </trkpt>
      <trkpt lat="46.59539" lon="4.92623">
        <ele>185.6</ele>
        <time>2024-09-18T12:47:46Z</time>
      </trkpt>
      <trkpt lat="46.59535" lon="4.92619">
        <ele>185.6</ele>
        <time>2024-09-18T12:47:47Z</time>
      </trkpt>
      <trkpt lat="46.59531" lon="4.92615">
        <ele>185.8</ele>
        <time>2024-09-18T12:47:48Z</time>
      </trkpt>
      <trkpt lat="46.59528" lon="4.9261">
        <ele>185.8</ele>
        <time>2024-09-18T12:47:49Z</time>
      </trkpt>
      <trkpt lat="46.59524" lon="4.92607">
        <ele>185.8</ele>
        <time>2024-09-18T12:47:50Z</time>
      </trkpt>
      <trkpt lat="46.5952" lon="4.92603">
        <ele>185.8</ele>
        <time>2024-09-18T12:47:51Z</time>
      </trkpt>
      <trkpt lat="46.59517" lon="4.92599">
        <ele>185.6</ele>
        <time>2024-09-18T12:47:52Z</time>
      </trkpt>
      <trkpt lat="46.59513" lon="4.92595">
        <ele>185.6</ele>
        <time>2024-09-18T12:47:53Z</time>
      </trkpt>
      <trkpt lat="46.59509" lon="4.92591">
        <ele>185.8</ele>
        <time>2024-09-18T12:47:54Z</time>
      </trkpt>
      <trkpt lat="46.59506" lon="4.92587">
        <ele>185.8</ele>
        <time>2024-09-18T12:47:55Z</time>
      </trkpt>
      <trkpt lat="46.59502" lon="4.92583">
        <ele>185.8</ele>
        <time>2024-09-18T12:47:56Z</time>
      </trkpt>
      <trkpt lat="46.59499" lon="4.92579">
        <ele>185.8</ele>
        <time>2024-09-18T12:47:57Z</time>
      </trkpt>
      <trkpt lat="46.59495" lon="4.92575">
        <ele>185.8</ele>
        <time>2024-09-18T12:47:58Z</time>
      </trkpt>
      <trkpt lat="46.59492" lon="4.92572">
        <ele>185.8</ele>
        <time>2024-09-18T12:47:59Z</time>
      </trkpt>
      <trkpt lat="46.59488" lon="4.92568">
        <ele>185.8</ele>
        <time>2024-09-18T12:48:00Z</time>
      </trkpt>
      <trkpt lat="46.59485" lon="4.92564">
        <ele>185.8</ele>
        <time>2024-09-18T12:48:01Z</time>
      </trkpt>
      <trkpt lat="46.59481" lon="4.9256">
        <ele>185.8</ele>
        <time>2024-09-18T12:48:02Z</time>
      </trkpt>
      <trkpt lat="46.59478" lon="4.92556">
        <ele>186</ele>
        <time>2024-09-18T12:48:03Z</time>
      </trkpt>
      <trkpt lat="46.59474" lon="4.92552">
        <ele>186</ele>
        <time>2024-09-18T12:48:04Z</time>
      </trkpt>
      <trkpt lat="46.59471" lon="4.92548">
        <ele>186</ele>
        <time>2024-09-18T12:48:05Z</time>
      </trkpt>
      <trkpt lat="46.59468" lon="4.92544">
        <ele>186</ele>
        <time>2024-09-18T12:48:06Z</time>
      </trkpt>
      <trkpt lat="46.59464" lon="4.9254">
        <ele>185.8</ele>
        <time>2024-09-18T12:48:07Z</time>
      </trkpt>
      <trkpt lat="46.59461" lon="4.92536">
        <ele>185.8</ele>
        <time>2024-09-18T12:48:08Z</time>
      </trkpt>
      <trkpt lat="46.59457" lon="4.92531">
        <ele>185.8</ele>
        <time>2024-09-18T12:48:09Z</time>
      </trkpt>
      <trkpt lat="46.59453" lon="4.92527">
        <ele>185.6</ele>
        <time>2024-09-18T12:48:10Z</time>
      </trkpt>
      <trkpt lat="46.5945" lon="4.92522">
        <ele>185.6</ele>
        <time>2024-09-18T12:48:11Z</time>
      </trkpt>
      <trkpt lat="46.59446" lon="4.92518">
        <ele>186.2</ele>
        <time>2024-09-18T12:48:12Z</time>
      </trkpt>
      <trkpt lat="46.59443" lon="4.92513">
        <ele>186.2</ele>
        <time>2024-09-18T12:48:13Z</time>
      </trkpt>
      <trkpt lat="46.5944" lon="4.92509">
        <ele>186.2</ele>
        <time>2024-09-18T12:48:14Z</time>
      </trkpt>
      <trkpt lat="46.59436" lon="4.92504">
        <ele>185.4</ele>
        <time>2024-09-18T12:48:15Z</time>
      </trkpt>
      <trkpt lat="46.59433" lon="4.925">
        <ele>185.6</ele>
        <time>2024-09-18T12:48:16Z</time>
      </trkpt>
      <trkpt lat="46.5943" lon="4.92496">
        <ele>185.6</ele>
        <time>2024-09-18T12:48:17Z</time>
      </trkpt>
      <trkpt lat="46.59427" lon="4.92491">
        <ele>185.6</ele>
        <time>2024-09-18T12:48:18Z</time>
      </trkpt>
      <trkpt lat="46.59424" lon="4.92487">
        <ele>185.6</ele>
        <time>2024-09-18T12:48:19Z</time>
      </trkpt>
      <trkpt lat="46.59421" lon="4.92483">
        <ele>185.6</ele>
        <time>2024-09-18T12:48:20Z</time>
      </trkpt>
      <trkpt lat="46.59419" lon="4.92479">
        <ele>185.6</ele>
        <time>2024-09-18T12:48:21Z</time>
      </trkpt>
      <trkpt lat="46.59416" lon="4.92475">
        <ele>185.6</ele>
        <time>2024-09-18T12:48:22Z</time>
      </trkpt>
      <trkpt lat="46.59413" lon="4.92471">
        <ele>185.6</ele>
        <time>2024-09-18T12:48:23Z</time>
      </trkpt>
      <trkpt lat="46.59409" lon="4.92468">
        <ele>186.6</ele>
        <time>2024-09-18T12:48:24Z</time>
      </trkpt>
      <trkpt lat="46.59406" lon="4.92465">
        <ele>186</ele>
        <time>2024-09-18T12:48:25Z</time>
      </trkpt>
      <trkpt lat="46.59402" lon="4.92462">
        <ele>186</ele>
        <time>2024-09-18T12:48:26Z</time>
      </trkpt>
      <trkpt lat="46.59399" lon="4.92459">
        <ele>186</ele>
        <time>2024-09-18T12:48:27Z</time>
      </trkpt>
      <trkpt lat="46.59395" lon="4.92456">
        <ele>186</ele>
        <time>2024-09-18T12:48:28Z</time>
      </trkpt>
      <trkpt lat="46.59392" lon="4.92452">
        <ele>186.4</ele>
        <time>2024-09-18T12:48:29Z</time>
      </trkpt>
      <trkpt lat="46.59388" lon="4.92449">
        <ele>186.4</ele>
        <time>2024-09-18T12:48:30Z</time>
      </trkpt>
      <trkpt lat="46.59385" lon="4.92446">
        <ele>186.4</ele>
        <time>2024-09-18T12:48:31Z</time>
      </trkpt>
      <trkpt lat="46.59381" lon="4.92443">
        <ele>186.4</ele>
        <time>2024-09-18T12:48:32Z</time>
      </trkpt>
      <trkpt lat="46.59378" lon="4.9244">
        <ele>186.4</ele>
        <time>2024-09-18T12:48:33Z</time>
      </trkpt>
      <trkpt lat="46.59375" lon="4.92436">
        <ele>186.2</ele>
        <time>2024-09-18T12:48:34Z</time>
      </trkpt>
      <trkpt lat="46.59371" lon="4.92433">
        <ele>186.2</ele>
        <time>2024-09-18T12:48:35Z</time>
      </trkpt>
      <trkpt lat="46.59368" lon="4.9243">
        <ele>186.2</ele>
        <time>2024-09-18T12:48:36Z</time>
      </trkpt>
      <trkpt lat="46.59364" lon="4.92427">
        <ele>186.2</ele>
        <time>2024-09-18T12:48:37Z</time>
      </trkpt>
      <trkpt lat="46.59362" lon="4.92423">
        <ele>186.2</ele>
        <time>2024-09-18T12:48:38Z</time>
      </trkpt>
      <trkpt lat="46.59359" lon="4.92418">
        <ele>186.4</ele>
        <time>2024-09-18T12:48:39Z</time>
      </trkpt>
      <trkpt lat="46.59356" lon="4.92414">
        <ele>186.4</ele>
        <time>2024-09-18T12:48:40Z</time>
      </trkpt>
      <trkpt lat="46.59353" lon="4.92409">
        <ele>186.4</ele>
        <time>2024-09-18T12:48:41Z</time>
      </trkpt>
      <trkpt lat="46.5935" lon="4.92405">
        <ele>186.4</ele>
        <time>2024-09-18T12:48:42Z</time>
      </trkpt>
      <trkpt lat="46.59347" lon="4.92402">
        <ele>186.4</ele>
        <time>2024-09-18T12:48:43Z</time>
      </trkpt>
      <trkpt lat="46.59343" lon="4.92398">
        <ele>186.4</ele>
        <time>2024-09-18T12:48:44Z</time>
      </trkpt>
      <trkpt lat="46.5934" lon="4.92394">
        <ele>186.4</ele>
        <time>2024-09-18T12:48:45Z</time>
      </trkpt>
      <trkpt lat="46.59336" lon="4.92391">
        <ele>186.4</ele>
        <time>2024-09-18T12:48:46Z</time>
      </trkpt>
      <trkpt lat="46.59333" lon="4.92387">
        <ele>186.4</ele>
        <time>2024-09-18T12:48:47Z</time>
      </trkpt>
      <trkpt lat="46.59329" lon="4.92383">
        <ele>186.2</ele>
        <time>2024-09-18T12:48:48Z</time>
      </trkpt>
      <trkpt lat="46.59326" lon="4.9238">
        <ele>186.2</ele>
        <time>2024-09-18T12:48:49Z</time>
      </trkpt>
      <trkpt lat="46.59322" lon="4.92377">
        <ele>186.2</ele>
        <time>2024-09-18T12:48:50Z</time>
      </trkpt>
      <trkpt lat="46.59319" lon="4.92373">
        <ele>186.2</ele>
        <time>2024-09-18T12:48:51Z</time>
      </trkpt>
      <trkpt lat="46.59316" lon="4.9237">
        <ele>186.4</ele>
        <time>2024-09-18T12:48:52Z</time>
      </trkpt>
      <trkpt lat="46.59312" lon="4.92367">
        <ele>186.4</ele>
        <time>2024-09-18T12:48:53Z</time>
      </trkpt>
      <trkpt lat="46.59309" lon="4.92364">
        <ele>186.4</ele>
        <time>2024-09-18T12:48:54Z</time>
      </trkpt>
      <trkpt lat="46.59305" lon="4.9236">
        <ele>186.4</ele>
        <time>2024-09-18T12:48:55Z</time>
      </trkpt>
      <trkpt lat="46.59301" lon="4.92357">
        <ele>186.4</ele>
        <time>2024-09-18T12:48:56Z</time>
      </trkpt>
      <trkpt lat="46.59298" lon="4.92353">
        <ele>186.6</ele>
        <time>2024-09-18T12:48:57Z</time>
      </trkpt>
      <trkpt lat="46.59294" lon="4.9235">
        <ele>186.6</ele>
        <time>2024-09-18T12:48:58Z</time>
      </trkpt>
      <trkpt lat="46.5929" lon="4.92346">
        <ele>186.2</ele>
        <time>2024-09-18T12:48:59Z</time>
      </trkpt>
      <trkpt lat="46.59286" lon="4.92342">
        <ele>186.4</ele>
        <time>2024-09-18T12:49:00Z</time>
      </trkpt>
      <trkpt lat="46.59283" lon="4.92339">
        <ele>186.4</ele>
        <time>2024-09-18T12:49:01Z</time>
      </trkpt>
      <trkpt lat="46.59279" lon="4.92335">
        <ele>186.4</ele>
        <time>2024-09-18T12:49:02Z</time>
      </trkpt>
      <trkpt lat="46.59275" lon="4.92331">
        <ele>186.4</ele>
        <time>2024-09-18T12:49:03Z</time>
      </trkpt>
      <trkpt lat="46.59271" lon="4.92327">
        <ele>186.4</ele>
        <time>2024-09-18T12:49:04Z</time>
      </trkpt>
      <trkpt lat="46.59268" lon="4.92322">
        <ele>186.4</ele>
        <time>2024-09-18T12:49:05Z</time>
      </trkpt>
      <trkpt lat="46.59264" lon="4.92318">
        <ele>186.4</ele>
        <time>2024-09-18T12:49:06Z</time>
      </trkpt>
      <trkpt lat="46.5926" lon="4.92314">
        <ele>186.4</ele>
        <time>2024-09-18T12:49:07Z</time>
      </trkpt>
      <trkpt lat="46.59256" lon="4.9231">
        <ele>186.4</ele>
        <time>2024-09-18T12:49:08Z</time>
      </trkpt>
      <trkpt lat="46.59252" lon="4.92306">
        <ele>186.4</ele>
        <time>2024-09-18T12:49:09Z</time>
      </trkpt>
      <trkpt lat="46.59248" lon="4.92303">
        <ele>186.4</ele>
        <time>2024-09-18T12:49:10Z</time>
      </trkpt>
      <trkpt lat="46.59245" lon="4.92299">
        <ele>186.4</ele>
        <time>2024-09-18T12:49:11Z</time>
      </trkpt>
      <trkpt lat="46.59241" lon="4.92295">
        <ele>186.4</ele>
        <time>2024-09-18T12:49:12Z</time>
      </trkpt>
      <trkpt lat="46.59238" lon="4.92291">
        <ele>186.4</ele>
        <time>2024-09-18T12:49:13Z</time>
      </trkpt>
      <trkpt lat="46.59234" lon="4.92288">
        <ele>186.8</ele>
        <time>2024-09-18T12:49:14Z</time>
      </trkpt>
      <trkpt lat="46.5923" lon="4.92284">
        <ele>186.8</ele>
        <time>2024-09-18T12:49:15Z</time>
      </trkpt>
      <trkpt lat="46.59227" lon="4.9228">
        <ele>186.8</ele>
        <time>2024-09-18T12:49:16Z</time>
      </trkpt>
      <trkpt lat="46.59223" lon="4.92276">
        <ele>186.8</ele>
        <time>2024-09-18T12:49:17Z</time>
      </trkpt>
      <trkpt lat="46.5922" lon="4.92272">
        <ele>186.8</ele>
        <time>2024-09-18T12:49:18Z</time>
      </trkpt>
      <trkpt lat="46.59216" lon="4.92268">
        <ele>185.8</ele>
        <time>2024-09-18T12:49:19Z</time>
      </trkpt>
      <trkpt lat="46.59213" lon="4.92265">
        <ele>185.8</ele>
        <time>2024-09-18T12:49:20Z</time>
      </trkpt>
      <trkpt lat="46.59209" lon="4.92261">
        <ele>185.8</ele>
        <time>2024-09-18T12:49:21Z</time>
      </trkpt>
      <trkpt lat="46.59206" lon="4.92258">
        <ele>185.8</ele>
        <time>2024-09-18T12:49:22Z</time>
      </trkpt>
      <trkpt lat="46.59203" lon="4.92254">
        <ele>186</ele>
        <time>2024-09-18T12:49:23Z</time>
      </trkpt>
      <trkpt lat="46.59199" lon="4.92249">
        <ele>186.8</ele>
        <time>2024-09-18T12:49:24Z</time>
      </trkpt>
      <trkpt lat="46.59196" lon="4.92245">
        <ele>186.8</ele>
        <time>2024-09-18T12:49:25Z</time>
      </trkpt>
      <trkpt lat="46.59192" lon="4.92241">
        <ele>186.8</ele>
        <time>2024-09-18T12:49:26Z</time>
      </trkpt>
      <trkpt lat="46.59189" lon="4.92237">
        <ele>186</ele>
        <time>2024-09-18T12:49:27Z</time>
      </trkpt>
      <trkpt lat="46.59183" lon="4.9223">
        <ele>186.8</ele>
        <time>2024-09-18T12:49:28Z</time>
      </trkpt>
      <trkpt lat="46.59181" lon="4.92227">
        <ele>186.8</ele>
        <time>2024-09-18T12:49:29Z</time>
      </trkpt>
      <trkpt lat="46.59177" lon="4.92223">
        <ele>186.8</ele>
        <time>2024-09-18T12:49:30Z</time>
      </trkpt>
      <trkpt lat="46.59174" lon="4.92219">
        <ele>186.8</ele>
        <time>2024-09-18T12:49:31Z</time>
      </trkpt>
      <trkpt lat="46.59171" lon="4.92215">
        <ele>185.8</ele>
        <time>2024-09-18T12:49:32Z</time>
      </trkpt>
      <trkpt lat="46.59168" lon="4.92212">
        <ele>186</ele>
        <time>2024-09-18T12:49:33Z</time>
      </trkpt>
      <trkpt lat="46.59166" lon="4.92209">
        <ele>186</ele>
        <time>2024-09-18T12:49:34Z</time>
      </trkpt>
      <trkpt lat="46.59163" lon="4.92206">
        <ele>186</ele>
        <time>2024-09-18T12:49:35Z</time>
      </trkpt>
      <trkpt lat="46.5916" lon="4.92203">
        <ele>186.6</ele>
        <time>2024-09-18T12:49:36Z</time>
      </trkpt>
      <trkpt lat="46.59157" lon="4.92199">
        <ele>185.8</ele>
        <time>2024-09-18T12:49:37Z</time>
      </trkpt>
      <trkpt lat="46.59154" lon="4.92195">
        <ele>185.8</ele>
        <time>2024-09-18T12:49:38Z</time>
      </trkpt>
      <trkpt lat="46.5915" lon="4.92192">
        <ele>185.8</ele>
        <time>2024-09-18T12:49:39Z</time>
      </trkpt>
      <trkpt lat="46.59145" lon="4.92188">
        <ele>185.8</ele>
        <time>2024-09-18T12:49:40Z</time>
      </trkpt>
      <trkpt lat="46.59141" lon="4.92183">
        <ele>185.8</ele>
        <time>2024-09-18T12:49:41Z</time>
      </trkpt>
      <trkpt lat="46.59137" lon="4.92178">
        <ele>186</ele>
        <time>2024-09-18T12:49:42Z</time>
      </trkpt>
      <trkpt lat="46.59134" lon="4.92173">
        <ele>186</ele>
        <time>2024-09-18T12:49:43Z</time>
      </trkpt>
      <trkpt lat="46.5913" lon="4.92168">
        <ele>186</ele>
        <time>2024-09-18T12:49:44Z</time>
      </trkpt>
      <trkpt lat="46.59126" lon="4.92164">
        <ele>186</ele>
        <time>2024-09-18T12:49:45Z</time>
      </trkpt>
      <trkpt lat="46.59123" lon="4.92159">
        <ele>185.6</ele>
        <time>2024-09-18T12:49:46Z</time>
      </trkpt>
      <trkpt lat="46.59119" lon="4.92155">
        <ele>185.6</ele>
        <time>2024-09-18T12:49:47Z</time>
      </trkpt>
      <trkpt lat="46.59115" lon="4.92151">
        <ele>185.6</ele>
        <time>2024-09-18T12:49:48Z</time>
      </trkpt>
      <trkpt lat="46.59112" lon="4.92147">
        <ele>185.6</ele>
        <time>2024-09-18T12:49:49Z</time>
      </trkpt>
      <trkpt lat="46.59109" lon="4.92143">
        <ele>185.8</ele>
        <time>2024-09-18T12:49:50Z</time>
      </trkpt>
      <trkpt lat="46.59106" lon="4.92138">
        <ele>185.8</ele>
        <time>2024-09-18T12:49:51Z</time>
      </trkpt>
      <trkpt lat="46.59102" lon="4.92134">
        <ele>185.8</ele>
        <time>2024-09-18T12:49:52Z</time>
      </trkpt>
      <trkpt lat="46.59098" lon="4.92129">
        <ele>185.8</ele>
        <time>2024-09-18T12:49:53Z</time>
      </trkpt>
      <trkpt lat="46.59095" lon="4.92125">
        <ele>185.8</ele>
        <time>2024-09-18T12:49:54Z</time>
      </trkpt>
      <trkpt lat="46.59092" lon="4.92119">
        <ele>186.4</ele>
        <time>2024-09-18T12:49:55Z</time>
      </trkpt>
      <trkpt lat="46.59087" lon="4.92112">
        <ele>186.4</ele>
        <time>2024-09-18T12:49:56Z</time>
      </trkpt>
      <trkpt lat="46.59085" lon="4.92109">
        <ele>186.4</ele>
        <time>2024-09-18T12:49:57Z</time>
      </trkpt>
      <trkpt lat="46.59082" lon="4.92104">
        <ele>186.4</ele>
        <time>2024-09-18T12:49:58Z</time>
      </trkpt>
      <trkpt lat="46.59078" lon="4.92099">
        <ele>186</ele>
        <time>2024-09-18T12:49:59Z</time>
      </trkpt>
      <trkpt lat="46.59074" lon="4.92093">
        <ele>186</ele>
        <time>2024-09-18T12:50:00Z</time>
      </trkpt>
      <trkpt lat="46.59071" lon="4.92087">
        <ele>186</ele>
        <time>2024-09-18T12:50:01Z</time>
      </trkpt>
      <trkpt lat="46.59067" lon="4.92082">
        <ele>186</ele>
        <time>2024-09-18T12:50:02Z</time>
      </trkpt>
      <trkpt lat="46.59064" lon="4.92077">
        <ele>186</ele>
        <time>2024-09-18T12:50:03Z</time>
      </trkpt>
      <trkpt lat="46.59061" lon="4.92072">
        <ele>186</ele>
        <time>2024-09-18T12:50:04Z</time>
      </trkpt>
      <trkpt lat="46.59058" lon="4.92068">
        <ele>186.6</ele>
        <time>2024-09-18T12:50:05Z</time>
      </trkpt>
      <trkpt lat="46.59054" lon="4.92062">
        <ele>186.6</ele>
        <time>2024-09-18T12:50:06Z</time>
      </trkpt>
      <trkpt lat="46.59051" lon="4.92057">
        <ele>186.6</ele>
        <time>2024-09-18T12:50:07Z</time>
      </trkpt>
      <trkpt lat="46.59048" lon="4.92053">
        <ele>185.8</ele>
        <time>2024-09-18T12:50:08Z</time>
      </trkpt>
      <trkpt lat="46.59046" lon="4.92048">
        <ele>186</ele>
        <time>2024-09-18T12:50:09Z</time>
      </trkpt>
      <trkpt lat="46.59043" lon="4.92044">
        <ele>186</ele>
        <time>2024-09-18T12:50:10Z</time>
      </trkpt>
      <trkpt lat="46.5904" lon="4.92039">
        <ele>186</ele>
        <time>2024-09-18T12:50:11Z</time>
      </trkpt>
      <trkpt lat="46.59036" lon="4.92035">
        <ele>186</ele>
        <time>2024-09-18T12:50:12Z</time>
      </trkpt>
      <trkpt lat="46.59033" lon="4.92031">
        <ele>186</ele>
        <time>2024-09-18T12:50:13Z</time>
      </trkpt>
      <trkpt lat="46.5903" lon="4.92026">
        <ele>186</ele>
        <time>2024-09-18T12:50:14Z</time>
      </trkpt>
      <trkpt lat="46.59027" lon="4.92022">
        <ele>186</ele>
        <time>2024-09-18T12:50:15Z</time>
      </trkpt>
      <trkpt lat="46.59024" lon="4.92016">
        <ele>186</ele>
        <time>2024-09-18T12:50:16Z</time>
      </trkpt>
      <trkpt lat="46.59021" lon="4.92011">
        <ele>186</ele>
        <time>2024-09-18T12:50:17Z</time>
      </trkpt>
      <trkpt lat="46.59019" lon="4.92006">
        <ele>186.6</ele>
        <time>2024-09-18T12:50:18Z</time>
      </trkpt>
      <trkpt lat="46.59016" lon="4.92">
        <ele>186.6</ele>
        <time>2024-09-18T12:50:19Z</time>
      </trkpt>
      <trkpt lat="46.59013" lon="4.91994">
        <ele>186.6</ele>
        <time>2024-09-18T12:50:20Z</time>
      </trkpt>
      <trkpt lat="46.5901" lon="4.91988">
        <ele>186.2</ele>
        <time>2024-09-18T12:50:21Z</time>
      </trkpt>
      <trkpt lat="46.59007" lon="4.91983">
        <ele>186.2</ele>
        <time>2024-09-18T12:50:22Z</time>
      </trkpt>
      <trkpt lat="46.59005" lon="4.91977">
        <ele>186.2</ele>
        <time>2024-09-18T12:50:23Z</time>
      </trkpt>
      <trkpt lat="46.59002" lon="4.91972">
        <ele>186.2</ele>
        <time>2024-09-18T12:50:24Z</time>
      </trkpt>
      <trkpt lat="46.58999" lon="4.91966">
        <ele>186.2</ele>
        <time>2024-09-18T12:50:25Z</time>
      </trkpt>
      <trkpt lat="46.58996" lon="4.9196">
        <ele>186.2</ele>
        <time>2024-09-18T12:50:26Z</time>
      </trkpt>
      <trkpt lat="46.58993" lon="4.91954">
        <ele>186.2</ele>
        <time>2024-09-18T12:50:27Z</time>
      </trkpt>
      <trkpt lat="46.58991" lon="4.91948">
        <ele>186.2</ele>
        <time>2024-09-18T12:50:28Z</time>
      </trkpt>
      <trkpt lat="46.58988" lon="4.91942">
        <ele>186.2</ele>
        <time>2024-09-18T12:50:29Z</time>
      </trkpt>
      <trkpt lat="46.58985" lon="4.91936">
        <ele>186.2</ele>
        <time>2024-09-18T12:50:30Z</time>
      </trkpt>
      <trkpt lat="46.58982" lon="4.9193">
        <ele>185.8</ele>
        <time>2024-09-18T12:50:31Z</time>
      </trkpt>
      <trkpt lat="46.58979" lon="4.91924">
        <ele>185.8</ele>
        <time>2024-09-18T12:50:32Z</time>
      </trkpt>
      <trkpt lat="46.58975" lon="4.91919">
        <ele>185.8</ele>
        <time>2024-09-18T12:50:33Z</time>
      </trkpt>
      <trkpt lat="46.58972" lon="4.91913">
        <ele>186.2</ele>
        <time>2024-09-18T12:50:34Z</time>
      </trkpt>
      <trkpt lat="46.58969" lon="4.91908">
        <ele>186.6</ele>
        <time>2024-09-18T12:50:35Z</time>
      </trkpt>
      <trkpt lat="46.58965" lon="4.91903">
        <ele>186.6</ele>
        <time>2024-09-18T12:50:36Z</time>
      </trkpt>
      <trkpt lat="46.58962" lon="4.91899">
        <ele>186.6</ele>
        <time>2024-09-18T12:50:37Z</time>
      </trkpt>
      <trkpt lat="46.58959" lon="4.91895">
        <ele>186.6</ele>
        <time>2024-09-18T12:50:38Z</time>
      </trkpt>
      <trkpt lat="46.58956" lon="4.91891">
        <ele>186.4</ele>
        <time>2024-09-18T12:50:39Z</time>
      </trkpt>
      <trkpt lat="46.58953" lon="4.91887">
        <ele>186.4</ele>
        <time>2024-09-18T12:50:40Z</time>
      </trkpt>
      <trkpt lat="46.5895" lon="4.91883">
        <ele>185.8</ele>
        <time>2024-09-18T12:50:41Z</time>
      </trkpt>
      <trkpt lat="46.58947" lon="4.91879">
        <ele>185.8</ele>
        <time>2024-09-18T12:50:42Z</time>
      </trkpt>
      <trkpt lat="46.58943" lon="4.91876">
        <ele>185.8</ele>
        <time>2024-09-18T12:50:43Z</time>
      </trkpt>
      <trkpt lat="46.5894" lon="4.91873">
        <ele>186.6</ele>
        <time>2024-09-18T12:50:44Z</time>
      </trkpt>
      <trkpt lat="46.58937" lon="4.9187">
        <ele>186.6</ele>
        <time>2024-09-18T12:50:45Z</time>
      </trkpt>
      <trkpt lat="46.58934" lon="4.91867">
        <ele>186.6</ele>
        <time>2024-09-18T12:50:46Z</time>
      </trkpt>
      <trkpt lat="46.5893" lon="4.91864">
        <ele>186.6</ele>
        <time>2024-09-18T12:50:47Z</time>
      </trkpt>
      <trkpt lat="46.58927" lon="4.9186">
        <ele>186.6</ele>
        <time>2024-09-18T12:50:48Z</time>
      </trkpt>
      <trkpt lat="46.58923" lon="4.91857">
        <ele>186.2</ele>
        <time>2024-09-18T12:50:49Z</time>
      </trkpt>
      <trkpt lat="46.5892" lon="4.91853">
        <ele>186.2</ele>
        <time>2024-09-18T12:50:50Z</time>
      </trkpt>
      <trkpt lat="46.58916" lon="4.91849">
        <ele>186.2</ele>
        <time>2024-09-18T12:50:51Z</time>
      </trkpt>
      <trkpt lat="46.58912" lon="4.91845">
        <ele>186.2</ele>
        <time>2024-09-18T12:50:52Z</time>
      </trkpt>
      <trkpt lat="46.58908" lon="4.91841">
        <ele>186.2</ele>
        <time>2024-09-18T12:50:53Z</time>
      </trkpt>
      <trkpt lat="46.58904" lon="4.91837">
        <ele>186.2</ele>
        <time>2024-09-18T12:50:54Z</time>
      </trkpt>
      <trkpt lat="46.58901" lon="4.91833">
        <ele>186</ele>
        <time>2024-09-18T12:50:55Z</time>
      </trkpt>
      <trkpt lat="46.58898" lon="4.91829">
        <ele>186</ele>
        <time>2024-09-18T12:50:56Z</time>
      </trkpt>
      <trkpt lat="46.58894" lon="4.91824">
        <ele>186.2</ele>
        <time>2024-09-18T12:50:57Z</time>
      </trkpt>
      <trkpt lat="46.5889" lon="4.9182">
        <ele>186.2</ele>
        <time>2024-09-18T12:50:58Z</time>
      </trkpt>
      <trkpt lat="46.58886" lon="4.91817">
        <ele>186.2</ele>
        <time>2024-09-18T12:50:59Z</time>
      </trkpt>
      <trkpt lat="46.58882" lon="4.91813">
        <ele>186.2</ele>
        <time>2024-09-18T12:51:00Z</time>
      </trkpt>
      <trkpt lat="46.58878" lon="4.91808">
        <ele>186.2</ele>
        <time>2024-09-18T12:51:01Z</time>
      </trkpt>
      <trkpt lat="46.58874" lon="4.91804">
        <ele>186.2</ele>
        <time>2024-09-18T12:51:02Z</time>
      </trkpt>
      <trkpt lat="46.5887" lon="4.91801">
        <ele>186</ele>
        <time>2024-09-18T12:51:03Z</time>
      </trkpt>
      <trkpt lat="46.58866" lon="4.91797">
        <ele>186</ele>
        <time>2024-09-18T12:51:04Z</time>
      </trkpt>
      <trkpt lat="46.58862" lon="4.91793">
        <ele>186</ele>
        <time>2024-09-18T12:51:05Z</time>
      </trkpt>
      <trkpt lat="46.58859" lon="4.91789">
        <ele>186</ele>
        <time>2024-09-18T12:51:06Z</time>
      </trkpt>
      <trkpt lat="46.58855" lon="4.91785">
        <ele>186</ele>
        <time>2024-09-18T12:51:07Z</time>
      </trkpt>
      <trkpt lat="46.58852" lon="4.91781">
        <ele>186</ele>
        <time>2024-09-18T12:51:08Z</time>
      </trkpt>
      <trkpt lat="46.58848" lon="4.91777">
        <ele>186</ele>
        <time>2024-09-18T12:51:09Z</time>
      </trkpt>
      <trkpt lat="46.58845" lon="4.91773">
        <ele>186</ele>
        <time>2024-09-18T12:51:10Z</time>
      </trkpt>
      <trkpt lat="46.58841" lon="4.9177">
        <ele>186</ele>
        <time>2024-09-18T12:51:11Z</time>
      </trkpt>
      <trkpt lat="46.58837" lon="4.91766">
        <ele>186</ele>
        <time>2024-09-18T12:51:12Z</time>
      </trkpt>
      <trkpt lat="46.58834" lon="4.91762">
        <ele>186</ele>
        <time>2024-09-18T12:51:13Z</time>
      </trkpt>
      <trkpt lat="46.58831" lon="4.91759">
        <ele>186</ele>
        <time>2024-09-18T12:51:14Z</time>
      </trkpt>
      <trkpt lat="46.58828" lon="4.91756">
        <ele>186</ele>
        <time>2024-09-18T12:51:15Z</time>
      </trkpt>
      <trkpt lat="46.58824" lon="4.91753">
        <ele>186</ele>
        <time>2024-09-18T12:51:16Z</time>
      </trkpt>
      <trkpt lat="46.5882" lon="4.91749">
        <ele>185.8</ele>
        <time>2024-09-18T12:51:17Z</time>
      </trkpt>
      <trkpt lat="46.58817" lon="4.91745">
        <ele>185.8</ele>
        <time>2024-09-18T12:51:18Z</time>
      </trkpt>
      <trkpt lat="46.58813" lon="4.9174">
        <ele>185.8</ele>
        <time>2024-09-18T12:51:19Z</time>
      </trkpt>
      <trkpt lat="46.58809" lon="4.91736">
        <ele>186.2</ele>
        <time>2024-09-18T12:51:20Z</time>
      </trkpt>
      <trkpt lat="46.58805" lon="4.91732">
        <ele>186.2</ele>
        <time>2024-09-18T12:51:21Z</time>
      </trkpt>
      <trkpt lat="46.58802" lon="4.91728">
        <ele>186.2</ele>
        <time>2024-09-18T12:51:22Z</time>
      </trkpt>
      <trkpt lat="46.58798" lon="4.91724">
        <ele>186.2</ele>
        <time>2024-09-18T12:51:23Z</time>
      </trkpt>
      <trkpt lat="46.58795" lon="4.9172">
        <ele>186.2</ele>
        <time>2024-09-18T12:51:24Z</time>
      </trkpt>
      <trkpt lat="46.58791" lon="4.91716">
        <ele>186.2</ele>
        <time>2024-09-18T12:51:25Z</time>
      </trkpt>
      <trkpt lat="46.58788" lon="4.91712">
        <ele>186</ele>
        <time>2024-09-18T12:51:26Z</time>
      </trkpt>
      <trkpt lat="46.58784" lon="4.91708">
        <ele>186</ele>
        <time>2024-09-18T12:51:27Z</time>
      </trkpt>
      <trkpt lat="46.5878" lon="4.91704">
        <ele>186</ele>
        <time>2024-09-18T12:51:28Z</time>
      </trkpt>
      <trkpt lat="46.58777" lon="4.917">
        <ele>186</ele>
        <time>2024-09-18T12:51:29Z</time>
      </trkpt>
      <trkpt lat="46.58773" lon="4.91695">
        <ele>186</ele>
        <time>2024-09-18T12:51:30Z</time>
      </trkpt>
      <trkpt lat="46.58769" lon="4.91691">
        <ele>186</ele>
        <time>2024-09-18T12:51:31Z</time>
      </trkpt>
      <trkpt lat="46.58766" lon="4.91687">
        <ele>186</ele>
        <time>2024-09-18T12:51:32Z</time>
      </trkpt>
      <trkpt lat="46.58762" lon="4.91683">
        <ele>186</ele>
        <time>2024-09-18T12:51:33Z</time>
      </trkpt>
      <trkpt lat="46.58758" lon="4.91678">
        <ele>186</ele>
        <time>2024-09-18T12:51:34Z</time>
      </trkpt>
      <trkpt lat="46.58754" lon="4.91674">
        <ele>186.2</ele>
        <time>2024-09-18T12:51:35Z</time>
      </trkpt>
      <trkpt lat="46.58751" lon="4.9167">
        <ele>186.2</ele>
        <time>2024-09-18T12:51:36Z</time>
      </trkpt>
      <trkpt lat="46.58747" lon="4.91666">
        <ele>186.2</ele>
        <time>2024-09-18T12:51:37Z</time>
      </trkpt>
      <trkpt lat="46.58743" lon="4.91663">
        <ele>186.2</ele>
        <time>2024-09-18T12:51:38Z</time>
      </trkpt>
      <trkpt lat="46.5874" lon="4.91659">
        <ele>185.6</ele>
        <time>2024-09-18T12:51:39Z</time>
      </trkpt>
      <trkpt lat="46.58736" lon="4.91655">
        <ele>185.6</ele>
        <time>2024-09-18T12:51:40Z</time>
      </trkpt>
      <trkpt lat="46.58732" lon="4.91651">
        <ele>185.6</ele>
        <time>2024-09-18T12:51:41Z</time>
      </trkpt>
      <trkpt lat="46.58728" lon="4.91647">
        <ele>185.6</ele>
        <time>2024-09-18T12:51:42Z</time>
      </trkpt>
      <trkpt lat="46.58725" lon="4.91643">
        <ele>186</ele>
        <time>2024-09-18T12:51:43Z</time>
      </trkpt>
      <trkpt lat="46.58721" lon="4.91639">
        <ele>186</ele>
        <time>2024-09-18T12:51:44Z</time>
      </trkpt>
      <trkpt lat="46.58718" lon="4.91635">
        <ele>186</ele>
        <time>2024-09-18T12:51:45Z</time>
      </trkpt>
      <trkpt lat="46.58714" lon="4.91631">
        <ele>186</ele>
        <time>2024-09-18T12:51:46Z</time>
      </trkpt>
      <trkpt lat="46.5871" lon="4.91627">
        <ele>186</ele>
        <time>2024-09-18T12:51:47Z</time>
      </trkpt>
      <trkpt lat="46.58706" lon="4.91623">
        <ele>186.4</ele>
        <time>2024-09-18T12:51:48Z</time>
      </trkpt>
      <trkpt lat="46.58703" lon="4.91619">
        <ele>186.4</ele>
        <time>2024-09-18T12:51:49Z</time>
      </trkpt>
      <trkpt lat="46.58699" lon="4.91615">
        <ele>186.4</ele>
        <time>2024-09-18T12:51:50Z</time>
      </trkpt>
      <trkpt lat="46.58695" lon="4.91611">
        <ele>186.4</ele>
        <time>2024-09-18T12:51:51Z</time>
      </trkpt>
      <trkpt lat="46.58691" lon="4.91607">
        <ele>186.2</ele>
        <time>2024-09-18T12:51:52Z</time>
      </trkpt>
      <trkpt lat="46.58687" lon="4.91603">
        <ele>186.2</ele>
        <time>2024-09-18T12:51:53Z</time>
      </trkpt>
      <trkpt lat="46.58683" lon="4.916">
        <ele>186.2</ele>
        <time>2024-09-18T12:51:54Z</time>
      </trkpt>
      <trkpt lat="46.58679" lon="4.91596">
        <ele>186.2</ele>
        <time>2024-09-18T12:51:55Z</time>
      </trkpt>
      <trkpt lat="46.58675" lon="4.91592">
        <ele>185.8</ele>
        <time>2024-09-18T12:51:56Z</time>
      </trkpt>
      <trkpt lat="46.58671" lon="4.91588">
        <ele>185.8</ele>
        <time>2024-09-18T12:51:57Z</time>
      </trkpt>
      <trkpt lat="46.58667" lon="4.91584">
        <ele>185.8</ele>
        <time>2024-09-18T12:51:58Z</time>
      </trkpt>
      <trkpt lat="46.58663" lon="4.9158">
        <ele>185.8</ele>
        <time>2024-09-18T12:51:59Z</time>
      </trkpt>
      <trkpt lat="46.58659" lon="4.91577">
        <ele>185.8</ele>
        <time>2024-09-18T12:52:00Z</time>
      </trkpt>
      <trkpt lat="46.58655" lon="4.91573">
        <ele>186.2</ele>
        <time>2024-09-18T12:52:01Z</time>
      </trkpt>
      <trkpt lat="46.58651" lon="4.9157">
        <ele>186.2</ele>
        <time>2024-09-18T12:52:02Z</time>
      </trkpt>
      <trkpt lat="46.58647" lon="4.91566">
        <ele>186.2</ele>
        <time>2024-09-18T12:52:03Z</time>
      </trkpt>
      <trkpt lat="46.58643" lon="4.91563">
        <ele>186.2</ele>
        <time>2024-09-18T12:52:04Z</time>
      </trkpt>
      <trkpt lat="46.58639" lon="4.91559">
        <ele>186.2</ele>
        <time>2024-09-18T12:52:05Z</time>
      </trkpt>
      <trkpt lat="46.58634" lon="4.91556">
        <ele>186</ele>
        <time>2024-09-18T12:52:06Z</time>
      </trkpt>
      <trkpt lat="46.5863" lon="4.91552">
        <ele>186</ele>
        <time>2024-09-18T12:52:07Z</time>
      </trkpt>
      <trkpt lat="46.58626" lon="4.91549">
        <ele>186</ele>
        <time>2024-09-18T12:52:08Z</time>
      </trkpt>
      <trkpt lat="46.58622" lon="4.91547">
        <ele>186</ele>
        <time>2024-09-18T12:52:09Z</time>
      </trkpt>
      <trkpt lat="46.58618" lon="4.91544">
        <ele>186</ele>
        <time>2024-09-18T12:52:10Z</time>
      </trkpt>
      <trkpt lat="46.58615" lon="4.91542">
        <ele>186</ele>
        <time>2024-09-18T12:52:11Z</time>
      </trkpt>
      <trkpt lat="46.58611" lon="4.91539">
        <ele>186</ele>
        <time>2024-09-18T12:52:12Z</time>
      </trkpt>
      <trkpt lat="46.58607" lon="4.91536">
        <ele>186</ele>
        <time>2024-09-18T12:52:13Z</time>
      </trkpt>
      <trkpt lat="46.58604" lon="4.91534">
        <ele>186</ele>
        <time>2024-09-18T12:52:14Z</time>
      </trkpt>
      <trkpt lat="46.586" lon="4.91531">
        <ele>185.8</ele>
        <time>2024-09-18T12:52:15Z</time>
      </trkpt>
      <trkpt lat="46.58595" lon="4.91528">
        <ele>185.8</ele>
        <time>2024-09-18T12:52:16Z</time>
      </trkpt>
      <trkpt lat="46.58593" lon="4.91527">
        <ele>185.8</ele>
        <time>2024-09-18T12:52:17Z</time>
      </trkpt>
      <trkpt lat="46.58589" lon="4.91525">
        <ele>185.8</ele>
        <time>2024-09-18T12:52:18Z</time>
      </trkpt>
      <trkpt lat="46.58586" lon="4.91523">
        <ele>185.8</ele>
        <time>2024-09-18T12:52:19Z</time>
      </trkpt>
      <trkpt lat="46.58583" lon="4.91521">
        <ele>186</ele>
        <time>2024-09-18T12:52:20Z</time>
      </trkpt>
      <trkpt lat="46.5858" lon="4.9152">
        <ele>186</ele>
        <time>2024-09-18T12:52:21Z</time>
      </trkpt>
      <trkpt lat="46.58578" lon="4.9152">
        <ele>186</ele>
        <time>2024-09-18T12:52:22Z</time>
      </trkpt>
      <trkpt lat="46.58576" lon="4.91521">
        <ele>185.2</ele>
        <time>2024-09-18T12:52:23Z</time>
      </trkpt>
      <trkpt lat="46.58574" lon="4.91523">
        <ele>185.2</ele>
        <time>2024-09-18T12:52:24Z</time>
      </trkpt>
      <trkpt lat="46.58572" lon="4.91525">
        <ele>185.2</ele>
        <time>2024-09-18T12:52:25Z</time>
      </trkpt>
      <trkpt lat="46.58571" lon="4.91527">
        <ele>185.2</ele>
        <time>2024-09-18T12:52:26Z</time>
      </trkpt>
      <trkpt lat="46.5857" lon="4.91529">
        <ele>185.2</ele>
        <time>2024-09-18T12:52:27Z</time>
      </trkpt>
      <trkpt lat="46.58569" lon="4.91529">
        <ele>184.6</ele>
        <time>2024-09-18T12:52:28Z</time>
      </trkpt>
      <trkpt lat="46.58569" lon="4.9153">
        <ele>184.4</ele>
        <time>2024-09-18T12:52:29Z</time>
      </trkpt>
      <trkpt lat="46.58569" lon="4.9153">
        <ele>184.4</ele>
        <time>2024-09-18T12:52:30Z</time>
      </trkpt>
      <trkpt lat="46.58569" lon="4.9153">
        <ele>184.4</ele>
        <time>2024-09-18T12:52:31Z</time>
      </trkpt>
      <trkpt lat="46.58571" lon="4.91532">
        <ele>183.4</ele>
        <time>2024-09-18T12:52:45Z</time>
      </trkpt>
      <trkpt lat="46.58572" lon="4.91533">
        <ele>183.4</ele>
        <time>2024-09-18T12:52:46Z</time>
      </trkpt>
      <trkpt lat="46.58573" lon="4.91533">
        <ele>183.4</ele>
        <time>2024-09-18T12:52:47Z</time>
      </trkpt>
      <trkpt lat="46.58574" lon="4.91533">
        <ele>183.4</ele>
        <time>2024-09-18T12:52:48Z</time>
      </trkpt>
      <trkpt lat="46.58576" lon="4.91532">
        <ele>184</ele>
        <time>2024-09-18T12:52:49Z</time>
      </trkpt>
      <trkpt lat="46.58577" lon="4.91532">
        <ele>184</ele>
        <time>2024-09-18T12:52:50Z</time>
      </trkpt>
      <trkpt lat="46.58577" lon="4.91531">
        <ele>183.8</ele>
        <time>2024-09-18T12:52:51Z</time>
      </trkpt>
      <trkpt lat="46.58577" lon="4.9153">
        <ele>183.8</ele>
        <time>2024-09-18T12:52:52Z</time>
      </trkpt>
      <trkpt lat="46.58577" lon="4.91529">
        <ele>184.2</ele>
        <time>2024-09-18T12:52:53Z</time>
      </trkpt>
      <trkpt lat="46.58577" lon="4.91529">
        <ele>184.2</ele>
        <time>2024-09-18T12:52:54Z</time>
      </trkpt>
      <trkpt lat="46.58576" lon="4.91527">
        <ele>185</ele>
        <time>2024-09-18T12:55:05Z</time>
      </trkpt>
      <trkpt lat="46.58575" lon="4.91526">
        <ele>185</ele>
        <time>2024-09-18T12:55:06Z</time>
      </trkpt>
      <trkpt lat="46.58574" lon="4.91525">
        <ele>185</ele>
        <time>2024-09-18T12:55:07Z</time>
      </trkpt>
      <trkpt lat="46.58574" lon="4.91524">
        <ele>185</ele>
        <time>2024-09-18T12:55:08Z</time>
      </trkpt>
      <trkpt lat="46.58573" lon="4.91523">
        <ele>185</ele>
        <time>2024-09-18T12:55:09Z</time>
      </trkpt>
      <trkpt lat="46.58573" lon="4.91523">
        <ele>185</ele>
        <time>2024-09-18T12:55:10Z</time>
      </trkpt>
      <trkpt lat="46.58573" lon="4.91523">
        <ele>185</ele>
        <time>2024-09-18T12:55:11Z</time>
      </trkpt>
      <trkpt lat="46.58572" lon="4.91518">
        <ele>185.8</ele>
        <time>2024-09-18T12:59:07Z</time>
      </trkpt>
      <trkpt lat="46.58571" lon="4.91517">
        <ele>185.8</ele>
        <time>2024-09-18T12:59:08Z</time>
      </trkpt>
      <trkpt lat="46.5857" lon="4.91516">
        <ele>185.8</ele>
        <time>2024-09-18T12:59:09Z</time>
      </trkpt>
      <trkpt lat="46.58569" lon="4.91515">
        <ele>185.8</ele>
        <time>2024-09-18T12:59:10Z</time>
      </trkpt>
      <trkpt lat="46.58567" lon="4.91514">
        <ele>185.8</ele>
        <time>2024-09-18T12:59:11Z</time>
      </trkpt>
      <trkpt lat="46.58565" lon="4.91512">
        <ele>185.8</ele>
        <time>2024-09-18T12:59:12Z</time>
      </trkpt>
      <trkpt lat="46.58564" lon="4.91511">
        <ele>185.8</ele>
        <time>2024-09-18T12:59:13Z</time>
      </trkpt>
      <trkpt lat="46.58563" lon="4.91509">
        <ele>185.8</ele>
        <time>2024-09-18T12:59:14Z</time>
      </trkpt>
      <trkpt lat="46.58561" lon="4.91507">
        <ele>186</ele>
        <time>2024-09-18T12:59:15Z</time>
      </trkpt>
      <trkpt lat="46.5856" lon="4.91505">
        <ele>186</ele>
        <time>2024-09-18T12:59:16Z</time>
      </trkpt>
      <trkpt lat="46.58558" lon="4.91504">
        <ele>186</ele>
        <time>2024-09-18T12:59:17Z</time>
      </trkpt>
      <trkpt lat="46.58556" lon="4.91503">
        <ele>186</ele>
        <time>2024-09-18T12:59:18Z</time>
      </trkpt>
      <trkpt lat="46.58554" lon="4.91501">
        <ele>186</ele>
        <time>2024-09-18T12:59:19Z</time>
      </trkpt>
      <trkpt lat="46.58551" lon="4.915">
        <ele>186</ele>
        <time>2024-09-18T12:59:20Z</time>
      </trkpt>
      <trkpt lat="46.58549" lon="4.91498">
        <ele>186</ele>
        <time>2024-09-18T12:59:21Z</time>
      </trkpt>
      <trkpt lat="46.58547" lon="4.91497">
        <ele>186</ele>
        <time>2024-09-18T12:59:22Z</time>
      </trkpt>
      <trkpt lat="46.58545" lon="4.91495">
        <ele>186</ele>
        <time>2024-09-18T12:59:23Z</time>
      </trkpt>
      <trkpt lat="46.58543" lon="4.91494">
        <ele>186</ele>
        <time>2024-09-18T12:59:24Z</time>
      </trkpt>
      <trkpt lat="46.58541" lon="4.91492">
        <ele>186.2</ele>
        <time>2024-09-18T12:59:25Z</time>
      </trkpt>
      <trkpt lat="46.58538" lon="4.9149">
        <ele>186.2</ele>
        <time>2024-09-18T12:59:26Z</time>
      </trkpt>
      <trkpt lat="46.58536" lon="4.91488">
        <ele>186.2</ele>
        <time>2024-09-18T12:59:27Z</time>
      </trkpt>
      <trkpt lat="46.58533" lon="4.91486">
        <ele>186</ele>
        <time>2024-09-18T12:59:28Z</time>
      </trkpt>
      <trkpt lat="46.58531" lon="4.91483">
        <ele>186</ele>
        <time>2024-09-18T12:59:29Z</time>
      </trkpt>
      <trkpt lat="46.58529" lon="4.91481">
        <ele>186</ele>
        <time>2024-09-18T12:59:30Z</time>
      </trkpt>
      <trkpt lat="46.58526" lon="4.91478">
        <ele>186</ele>
        <time>2024-09-18T12:59:31Z</time>
      </trkpt>
      <trkpt lat="46.58524" lon="4.91476">
        <ele>186</ele>
        <time>2024-09-18T12:59:32Z</time>
      </trkpt>
      <trkpt lat="46.58522" lon="4.91473">
        <ele>186.2</ele>
        <time>2024-09-18T12:59:33Z</time>
      </trkpt>
      <trkpt lat="46.58519" lon="4.91472">
        <ele>186.2</ele>
        <time>2024-09-18T12:59:34Z</time>
      </trkpt>
      <trkpt lat="46.58517" lon="4.91471">
        <ele>186.2</ele>
        <time>2024-09-18T12:59:35Z</time>
      </trkpt>
      <trkpt lat="46.58515" lon="4.91471">
        <ele>186.2</ele>
        <time>2024-09-18T12:59:36Z</time>
      </trkpt>
      <trkpt lat="46.58512" lon="4.91469">
        <ele>186.2</ele>
        <time>2024-09-18T12:59:37Z</time>
      </trkpt>
      <trkpt lat="46.58509" lon="4.91468">
        <ele>186.2</ele>
        <time>2024-09-18T12:59:38Z</time>
      </trkpt>
      <trkpt lat="46.58505" lon="4.91467">
        <ele>186</ele>
        <time>2024-09-18T12:59:39Z</time>
      </trkpt>
      <trkpt lat="46.58502" lon="4.91465">
        <ele>186</ele>
        <time>2024-09-18T12:59:40Z</time>
      </trkpt>
      <trkpt lat="46.58499" lon="4.91463">
        <ele>186</ele>
        <time>2024-09-18T12:59:41Z</time>
      </trkpt>
      <trkpt lat="46.58495" lon="4.91462">
        <ele>186</ele>
        <time>2024-09-18T12:59:42Z</time>
      </trkpt>
      <trkpt lat="46.58492" lon="4.9146">
        <ele>185.8</ele>
        <time>2024-09-18T12:59:43Z</time>
      </trkpt>
      <trkpt lat="46.58488" lon="4.91458">
        <ele>185.8</ele>
        <time>2024-09-18T12:59:44Z</time>
      </trkpt>
      <trkpt lat="46.58485" lon="4.91455">
        <ele>185.8</ele>
        <time>2024-09-18T12:59:45Z</time>
      </trkpt>
      <trkpt lat="46.58479" lon="4.91451">
        <ele>186</ele>
        <time>2024-09-18T12:59:46Z</time>
      </trkpt>
      <trkpt lat="46.58477" lon="4.9145">
        <ele>186</ele>
        <time>2024-09-18T12:59:47Z</time>
      </trkpt>
      <trkpt lat="46.58473" lon="4.91447">
        <ele>186</ele>
        <time>2024-09-18T12:59:48Z</time>
      </trkpt>
      <trkpt lat="46.58469" lon="4.91445">
        <ele>186</ele>
        <time>2024-09-18T12:59:49Z</time>
      </trkpt>
      <trkpt lat="46.58465" lon="4.91442">
        <ele>186</ele>
        <time>2024-09-18T12:59:50Z</time>
      </trkpt>
      <trkpt lat="46.58461" lon="4.91439">
        <ele>186</ele>
        <time>2024-09-18T12:59:51Z</time>
      </trkpt>
      <trkpt lat="46.58456" lon="4.91437">
        <ele>186.2</ele>
        <time>2024-09-18T12:59:52Z</time>
      </trkpt>
      <trkpt lat="46.58452" lon="4.91434">
        <ele>186.2</ele>
        <time>2024-09-18T12:59:53Z</time>
      </trkpt>
      <trkpt lat="46.58448" lon="4.91431">
        <ele>186.2</ele>
        <time>2024-09-18T12:59:54Z</time>
      </trkpt>
      <trkpt lat="46.58444" lon="4.91428">
        <ele>186.2</ele>
        <time>2024-09-18T12:59:55Z</time>
      </trkpt>
      <trkpt lat="46.5844" lon="4.91426">
        <ele>186.2</ele>
        <time>2024-09-18T12:59:56Z</time>
      </trkpt>
      <trkpt lat="46.58436" lon="4.91423">
        <ele>186.2</ele>
        <time>2024-09-18T12:59:57Z</time>
      </trkpt>
      <trkpt lat="46.58432" lon="4.9142">
        <ele>186.2</ele>
        <time>2024-09-18T12:59:58Z</time>
      </trkpt>
      <trkpt lat="46.58427" lon="4.91417">
        <ele>186.2</ele>
        <time>2024-09-18T12:59:59Z</time>
      </trkpt>
      <trkpt lat="46.58423" lon="4.91414">
        <ele>186</ele>
        <time>2024-09-18T13:00:00Z</time>
      </trkpt>
      <trkpt lat="46.58419" lon="4.91411">
        <ele>186.2</ele>
        <time>2024-09-18T13:00:01Z</time>
      </trkpt>
      <trkpt lat="46.58415" lon="4.91408">
        <ele>186.2</ele>
        <time>2024-09-18T13:00:02Z</time>
      </trkpt>
      <trkpt lat="46.5841" lon="4.91405">
        <ele>186.2</ele>
        <time>2024-09-18T13:00:03Z</time>
      </trkpt>
      <trkpt lat="46.58406" lon="4.91401">
        <ele>186.2</ele>
        <time>2024-09-18T13:00:04Z</time>
      </trkpt>
      <trkpt lat="46.58402" lon="4.91398">
        <ele>186.2</ele>
        <time>2024-09-18T13:00:05Z</time>
      </trkpt>
      <trkpt lat="46.58398" lon="4.91395">
        <ele>186.2</ele>
        <time>2024-09-18T13:00:06Z</time>
      </trkpt>
      <trkpt lat="46.58393" lon="4.91392">
        <ele>186.2</ele>
        <time>2024-09-18T13:00:07Z</time>
      </trkpt>
      <trkpt lat="46.58389" lon="4.91389">
        <ele>186.2</ele>
        <time>2024-09-18T13:00:08Z</time>
      </trkpt>
      <trkpt lat="46.58385" lon="4.91386">
        <ele>186.2</ele>
        <time>2024-09-18T13:00:09Z</time>
      </trkpt>
      <trkpt lat="46.58381" lon="4.91383">
        <ele>186.2</ele>
        <time>2024-09-18T13:00:10Z</time>
      </trkpt>
      <trkpt lat="46.58377" lon="4.9138">
        <ele>186.2</ele>
        <time>2024-09-18T13:00:11Z</time>
      </trkpt>
      <trkpt lat="46.58373" lon="4.91377">
        <ele>186.2</ele>
        <time>2024-09-18T13:00:12Z</time>
      </trkpt>
      <trkpt lat="46.58369" lon="4.91374">
        <ele>186.4</ele>
        <time>2024-09-18T13:00:13Z</time>
      </trkpt>
      <trkpt lat="46.58365" lon="4.91371">
        <ele>186.2</ele>
        <time>2024-09-18T13:00:14Z</time>
      </trkpt>
      <trkpt lat="46.58361" lon="4.91368">
        <ele>186.2</ele>
        <time>2024-09-18T13:00:15Z</time>
      </trkpt>
      <trkpt lat="46.58356" lon="4.91365">
        <ele>186.2</ele>
        <time>2024-09-18T13:00:16Z</time>
      </trkpt>
      <trkpt lat="46.58352" lon="4.91362">
        <ele>186.2</ele>
        <time>2024-09-18T13:00:17Z</time>
      </trkpt>
      <trkpt lat="46.58348" lon="4.91359">
        <ele>186.2</ele>
        <time>2024-09-18T13:00:18Z</time>
      </trkpt>
      <trkpt lat="46.58344" lon="4.91356">
        <ele>186.4</ele>
        <time>2024-09-18T13:00:19Z</time>
      </trkpt>
      <trkpt lat="46.58339" lon="4.91353">
        <ele>186.4</ele>
        <time>2024-09-18T13:00:20Z</time>
      </trkpt>
      <trkpt lat="46.58335" lon="4.9135">
        <ele>186.4</ele>
        <time>2024-09-18T13:00:21Z</time>
      </trkpt>
      <trkpt lat="46.58331" lon="4.91347">
        <ele>186.4</ele>
        <time>2024-09-18T13:00:22Z</time>
      </trkpt>
      <trkpt lat="46.58326" lon="4.91344">
        <ele>186.4</ele>
        <time>2024-09-18T13:00:23Z</time>
      </trkpt>
      <trkpt lat="46.58322" lon="4.91341">
        <ele>186.2</ele>
        <time>2024-09-18T13:00:24Z</time>
      </trkpt>
      <trkpt lat="46.58318" lon="4.91338">
        <ele>186.2</ele>
        <time>2024-09-18T13:00:25Z</time>
      </trkpt>
      <trkpt lat="46.58313" lon="4.91335">
        <ele>186.2</ele>
        <time>2024-09-18T13:00:26Z</time>
      </trkpt>
      <trkpt lat="46.58309" lon="4.91333">
        <ele>186.4</ele>
        <time>2024-09-18T13:00:27Z</time>
      </trkpt>
      <trkpt lat="46.58305" lon="4.9133">
        <ele>186.6</ele>
        <time>2024-09-18T13:00:28Z</time>
      </trkpt>
      <trkpt lat="46.583" lon="4.91327">
        <ele>186.6</ele>
        <time>2024-09-18T13:00:29Z</time>
      </trkpt>
      <trkpt lat="46.58296" lon="4.91324">
        <ele>186.6</ele>
        <time>2024-09-18T13:00:30Z</time>
      </trkpt>
      <trkpt lat="46.58292" lon="4.91321">
        <ele>186.6</ele>
        <time>2024-09-18T13:00:31Z</time>
      </trkpt>
      <trkpt lat="46.58287" lon="4.91318">
        <ele>186.4</ele>
        <time>2024-09-18T13:00:32Z</time>
      </trkpt>
      <trkpt lat="46.58283" lon="4.91315">
        <ele>186.4</ele>
        <time>2024-09-18T13:00:33Z</time>
      </trkpt>
      <trkpt lat="46.58278" lon="4.91312">
        <ele>186.4</ele>
        <time>2024-09-18T13:00:34Z</time>
      </trkpt>
      <trkpt lat="46.58274" lon="4.9131">
        <ele>186.4</ele>
        <time>2024-09-18T13:00:35Z</time>
      </trkpt>
      <trkpt lat="46.58269" lon="4.91307">
        <ele>186.4</ele>
        <time>2024-09-18T13:00:36Z</time>
      </trkpt>
      <trkpt lat="46.58265" lon="4.91304">
        <ele>186.4</ele>
        <time>2024-09-18T13:00:37Z</time>
      </trkpt>
      <trkpt lat="46.5826" lon="4.91302">
        <ele>186.4</ele>
        <time>2024-09-18T13:00:38Z</time>
      </trkpt>
      <trkpt lat="46.58256" lon="4.91299">
        <ele>186.4</ele>
        <time>2024-09-18T13:00:39Z</time>
      </trkpt>
      <trkpt lat="46.58251" lon="4.91297">
        <ele>186.4</ele>
        <time>2024-09-18T13:00:40Z</time>
      </trkpt>
      <trkpt lat="46.58246" lon="4.91294">
        <ele>186.4</ele>
        <time>2024-09-18T13:00:41Z</time>
      </trkpt>
      <trkpt lat="46.58242" lon="4.91292">
        <ele>186.4</ele>
        <time>2024-09-18T13:00:42Z</time>
      </trkpt>
      <trkpt lat="46.58237" lon="4.91289">
        <ele>186.4</ele>
        <time>2024-09-18T13:00:43Z</time>
      </trkpt>
      <trkpt lat="46.58232" lon="4.91287">
        <ele>186.4</ele>
        <time>2024-09-18T13:00:44Z</time>
      </trkpt>
      <trkpt lat="46.58228" lon="4.91284">
        <ele>186.4</ele>
        <time>2024-09-18T13:00:45Z</time>
      </trkpt>
      <trkpt lat="46.58223" lon="4.91281">
        <ele>186.4</ele>
        <time>2024-09-18T13:00:46Z</time>
      </trkpt>
      <trkpt lat="46.58218" lon="4.91279">
        <ele>186.4</ele>
        <time>2024-09-18T13:00:47Z</time>
      </trkpt>
      <trkpt lat="46.58214" lon="4.91276">
        <ele>186.4</ele>
        <time>2024-09-18T13:00:48Z</time>
      </trkpt>
      <trkpt lat="46.58209" lon="4.91274">
        <ele>186.4</ele>
        <time>2024-09-18T13:00:49Z</time>
      </trkpt>
      <trkpt lat="46.58205" lon="4.91271">
        <ele>186.2</ele>
        <time>2024-09-18T13:00:50Z</time>
      </trkpt>
      <trkpt lat="46.582" lon="4.91269">
        <ele>186.2</ele>
        <time>2024-09-18T13:00:51Z</time>
      </trkpt>
      <trkpt lat="46.58196" lon="4.91267">
        <ele>186.2</ele>
        <time>2024-09-18T13:00:52Z</time>
      </trkpt>
      <trkpt lat="46.58191" lon="4.91264">
        <ele>186.2</ele>
        <time>2024-09-18T13:00:53Z</time>
      </trkpt>
      <trkpt lat="46.58187" lon="4.91262">
        <ele>186.6</ele>
        <time>2024-09-18T13:00:54Z</time>
      </trkpt>
      <trkpt lat="46.58182" lon="4.91259">
        <ele>186.6</ele>
        <time>2024-09-18T13:00:55Z</time>
      </trkpt>
      <trkpt lat="46.58178" lon="4.91257">
        <ele>186.6</ele>
        <time>2024-09-18T13:00:56Z</time>
      </trkpt>
      <trkpt lat="46.58173" lon="4.91254">
        <ele>186.6</ele>
        <time>2024-09-18T13:00:57Z</time>
      </trkpt>
      <trkpt lat="46.58169" lon="4.91252">
        <ele>186.4</ele>
        <time>2024-09-18T13:00:58Z</time>
      </trkpt>
      <trkpt lat="46.58164" lon="4.91249">
        <ele>186.4</ele>
        <time>2024-09-18T13:00:59Z</time>
      </trkpt>
      <trkpt lat="46.5816" lon="4.91247">
        <ele>186.4</ele>
        <time>2024-09-18T13:01:00Z</time>
      </trkpt>
      <trkpt lat="46.58155" lon="4.91245">
        <ele>186.4</ele>
        <time>2024-09-18T13:01:01Z</time>
      </trkpt>
      <trkpt lat="46.58151" lon="4.91242">
        <ele>186.4</ele>
        <time>2024-09-18T13:01:02Z</time>
      </trkpt>
      <trkpt lat="46.58146" lon="4.9124">
        <ele>186.6</ele>
        <time>2024-09-18T13:01:03Z</time>
      </trkpt>
      <trkpt lat="46.58142" lon="4.91238">
        <ele>186.6</ele>
        <time>2024-09-18T13:01:04Z</time>
      </trkpt>
      <trkpt lat="46.58137" lon="4.91235">
        <ele>186.6</ele>
        <time>2024-09-18T13:01:05Z</time>
      </trkpt>
      <trkpt lat="46.58133" lon="4.91233">
        <ele>186.6</ele>
        <time>2024-09-18T13:01:06Z</time>
      </trkpt>
      <trkpt lat="46.58129" lon="4.91231">
        <ele>186.6</ele>
        <time>2024-09-18T13:01:07Z</time>
      </trkpt>
      <trkpt lat="46.58124" lon="4.91229">
        <ele>186.6</ele>
        <time>2024-09-18T13:01:08Z</time>
      </trkpt>
      <trkpt lat="46.5812" lon="4.91227">
        <ele>186.8</ele>
        <time>2024-09-18T13:01:09Z</time>
      </trkpt>
      <trkpt lat="46.58115" lon="4.91225">
        <ele>186.8</ele>
        <time>2024-09-18T13:01:10Z</time>
      </trkpt>
      <trkpt lat="46.58111" lon="4.91222">
        <ele>186.8</ele>
        <time>2024-09-18T13:01:11Z</time>
      </trkpt>
      <trkpt lat="46.58107" lon="4.9122">
        <ele>187</ele>
        <time>2024-09-18T13:01:12Z</time>
      </trkpt>
      <trkpt lat="46.58102" lon="4.91219">
        <ele>187</ele>
        <time>2024-09-18T13:01:13Z</time>
      </trkpt>
      <trkpt lat="46.58098" lon="4.91217">
        <ele>187</ele>
        <time>2024-09-18T13:01:14Z</time>
      </trkpt>
      <trkpt lat="46.58093" lon="4.91215">
        <ele>187</ele>
        <time>2024-09-18T13:01:15Z</time>
      </trkpt>
      <trkpt lat="46.58089" lon="4.91214">
        <ele>187</ele>
        <time>2024-09-18T13:01:16Z</time>
      </trkpt>
      <trkpt lat="46.58085" lon="4.91213">
        <ele>187</ele>
        <time>2024-09-18T13:01:17Z</time>
      </trkpt>
      <trkpt lat="46.5808" lon="4.91211">
        <ele>187</ele>
        <time>2024-09-18T13:01:18Z</time>
      </trkpt>
      <trkpt lat="46.58076" lon="4.9121">
        <ele>187</ele>
        <time>2024-09-18T13:01:19Z</time>
      </trkpt>
      <trkpt lat="46.58071" lon="4.91209">
        <ele>187</ele>
        <time>2024-09-18T13:01:20Z</time>
      </trkpt>
      <trkpt lat="46.58066" lon="4.91208">
        <ele>187</ele>
        <time>2024-09-18T13:01:21Z</time>
      </trkpt>
      <trkpt lat="46.58061" lon="4.91206">
        <ele>186.8</ele>
        <time>2024-09-18T13:01:22Z</time>
      </trkpt>
      <trkpt lat="46.58056" lon="4.91205">
        <ele>186.8</ele>
        <time>2024-09-18T13:01:23Z</time>
      </trkpt>
      <trkpt lat="46.58052" lon="4.91204">
        <ele>186.8</ele>
        <time>2024-09-18T13:01:24Z</time>
      </trkpt>
      <trkpt lat="46.58047" lon="4.91202">
        <ele>186.8</ele>
        <time>2024-09-18T13:01:25Z</time>
      </trkpt>
      <trkpt lat="46.58042" lon="4.91201">
        <ele>187</ele>
        <time>2024-09-18T13:01:26Z</time>
      </trkpt>
      <trkpt lat="46.58037" lon="4.912">
        <ele>187</ele>
        <time>2024-09-18T13:01:27Z</time>
      </trkpt>
      <trkpt lat="46.58032" lon="4.91199">
        <ele>187</ele>
        <time>2024-09-18T13:01:28Z</time>
      </trkpt>
      <trkpt lat="46.58027" lon="4.91198">
        <ele>187</ele>
        <time>2024-09-18T13:01:29Z</time>
      </trkpt>
      <trkpt lat="46.58023" lon="4.91197">
        <ele>187</ele>
        <time>2024-09-18T13:01:30Z</time>
      </trkpt>
      <trkpt lat="46.58018" lon="4.91197">
        <ele>187</ele>
        <time>2024-09-18T13:01:31Z</time>
      </trkpt>
      <trkpt lat="46.58013" lon="4.91196">
        <ele>187</ele>
        <time>2024-09-18T13:01:32Z</time>
      </trkpt>
      <trkpt lat="46.58008" lon="4.91196">
        <ele>187</ele>
        <time>2024-09-18T13:01:33Z</time>
      </trkpt>
      <trkpt lat="46.58003" lon="4.91196">
        <ele>187</ele>
        <time>2024-09-18T13:01:34Z</time>
      </trkpt>
      <trkpt lat="46.57999" lon="4.91195">
        <ele>186.8</ele>
        <time>2024-09-18T13:01:35Z</time>
      </trkpt>
      <trkpt lat="46.57994" lon="4.91195">
        <ele>186.8</ele>
        <time>2024-09-18T13:01:36Z</time>
      </trkpt>
      <trkpt lat="46.57989" lon="4.91195">
        <ele>186.8</ele>
        <time>2024-09-18T13:01:37Z</time>
      </trkpt>
      <trkpt lat="46.57984" lon="4.91195">
        <ele>186.8</ele>
        <time>2024-09-18T13:01:38Z</time>
      </trkpt>
      <trkpt lat="46.5798" lon="4.91196">
        <ele>187</ele>
        <time>2024-09-18T13:01:39Z</time>
      </trkpt>
      <trkpt lat="46.57975" lon="4.91195">
        <ele>187</ele>
        <time>2024-09-18T13:01:40Z</time>
      </trkpt>
      <trkpt lat="46.5797" lon="4.91196">
        <ele>187</ele>
        <time>2024-09-18T13:01:41Z</time>
      </trkpt>
      <trkpt lat="46.57965" lon="4.91196">
        <ele>187</ele>
        <time>2024-09-18T13:01:42Z</time>
      </trkpt>
      <trkpt lat="46.5796" lon="4.91196">
        <ele>187</ele>
        <time>2024-09-18T13:01:43Z</time>
      </trkpt>
      <trkpt lat="46.57956" lon="4.91197">
        <ele>187.2</ele>
        <time>2024-09-18T13:01:44Z</time>
      </trkpt>
      <trkpt lat="46.57951" lon="4.91197">
        <ele>187</ele>
        <time>2024-09-18T13:01:45Z</time>
      </trkpt>
      <trkpt lat="46.57946" lon="4.91197">
        <ele>187</ele>
        <time>2024-09-18T13:01:46Z</time>
      </trkpt>
      <trkpt lat="46.57942" lon="4.91197">
        <ele>187</ele>
        <time>2024-09-18T13:01:47Z</time>
      </trkpt>
      <trkpt lat="46.57937" lon="4.91198">
        <ele>187</ele>
        <time>2024-09-18T13:01:48Z</time>
      </trkpt>
      <trkpt lat="46.57933" lon="4.91198">
        <ele>187</ele>
        <time>2024-09-18T13:01:49Z</time>
      </trkpt>
      <trkpt lat="46.57928" lon="4.91199">
        <ele>187</ele>
        <time>2024-09-18T13:01:50Z</time>
      </trkpt>
      <trkpt lat="46.57923" lon="4.91199">
        <ele>187</ele>
        <time>2024-09-18T13:01:51Z</time>
      </trkpt>
      <trkpt lat="46.57919" lon="4.91199">
        <ele>187</ele>
        <time>2024-09-18T13:01:52Z</time>
      </trkpt>
      <trkpt lat="46.57914" lon="4.912">
        <ele>187.2</ele>
        <time>2024-09-18T13:01:53Z</time>
      </trkpt>
      <trkpt lat="46.5791" lon="4.912">
        <ele>187</ele>
        <time>2024-09-18T13:01:54Z</time>
      </trkpt>
      <trkpt lat="46.57905" lon="4.91201">
        <ele>187</ele>
        <time>2024-09-18T13:01:55Z</time>
      </trkpt>
      <trkpt lat="46.579" lon="4.91201">
        <ele>187</ele>
        <time>2024-09-18T13:01:56Z</time>
      </trkpt>
      <trkpt lat="46.57893" lon="4.912">
        <ele>187</ele>
        <time>2024-09-18T13:01:57Z</time>
      </trkpt>
      <trkpt lat="46.57891" lon="4.912">
        <ele>187</ele>
        <time>2024-09-18T13:01:58Z</time>
      </trkpt>
      <trkpt lat="46.57887" lon="4.91199">
        <ele>187</ele>
        <time>2024-09-18T13:01:59Z</time>
      </trkpt>
      <trkpt lat="46.57883" lon="4.91199">
        <ele>187</ele>
        <time>2024-09-18T13:02:00Z</time>
      </trkpt>
      <trkpt lat="46.57878" lon="4.91198">
        <ele>187</ele>
        <time>2024-09-18T13:02:01Z</time>
      </trkpt>
      <trkpt lat="46.57873" lon="4.91197">
        <ele>187</ele>
        <time>2024-09-18T13:02:02Z</time>
      </trkpt>
      <trkpt lat="46.57868" lon="4.91197">
        <ele>187</ele>
        <time>2024-09-18T13:02:03Z</time>
      </trkpt>
      <trkpt lat="46.57863" lon="4.91196">
        <ele>187</ele>
        <time>2024-09-18T13:02:04Z</time>
      </trkpt>
      <trkpt lat="46.57858" lon="4.91194">
        <ele>187</ele>
        <time>2024-09-18T13:02:05Z</time>
      </trkpt>
      <trkpt lat="46.57854" lon="4.91193">
        <ele>186.8</ele>
        <time>2024-09-18T13:02:06Z</time>
      </trkpt>
      <trkpt lat="46.57849" lon="4.91192">
        <ele>186.8</ele>
        <time>2024-09-18T13:02:07Z</time>
      </trkpt>
      <trkpt lat="46.57844" lon="4.91192">
        <ele>186.8</ele>
        <time>2024-09-18T13:02:08Z</time>
      </trkpt>
      <trkpt lat="46.57839" lon="4.91191">
        <ele>186.8</ele>
        <time>2024-09-18T13:02:09Z</time>
      </trkpt>
      <trkpt lat="46.57835" lon="4.91191">
        <ele>186.8</ele>
        <time>2024-09-18T13:02:10Z</time>
      </trkpt>
      <trkpt lat="46.57831" lon="4.91191">
        <ele>186.8</ele>
        <time>2024-09-18T13:02:11Z</time>
      </trkpt>
      <trkpt lat="46.57827" lon="4.91191">
        <ele>187</ele>
        <time>2024-09-18T13:02:12Z</time>
      </trkpt>
      <trkpt lat="46.57822" lon="4.9119">
        <ele>187</ele>
        <time>2024-09-18T13:02:13Z</time>
      </trkpt>
      <trkpt lat="46.57818" lon="4.9119">
        <ele>187</ele>
        <time>2024-09-18T13:02:14Z</time>
      </trkpt>
      <trkpt lat="46.57813" lon="4.9119">
        <ele>187</ele>
        <time>2024-09-18T13:02:15Z</time>
      </trkpt>
      <trkpt lat="46.57808" lon="4.9119">
        <ele>187</ele>
        <time>2024-09-18T13:02:16Z</time>
      </trkpt>
      <trkpt lat="46.57803" lon="4.91189">
        <ele>187</ele>
        <time>2024-09-18T13:02:17Z</time>
      </trkpt>
      <trkpt lat="46.57798" lon="4.91189">
        <ele>187</ele>
        <time>2024-09-18T13:02:18Z</time>
      </trkpt>
      <trkpt lat="46.57793" lon="4.91189">
        <ele>186.8</ele>
        <time>2024-09-18T13:02:19Z</time>
      </trkpt>
      <trkpt lat="46.57788" lon="4.91188">
        <ele>186.8</ele>
        <time>2024-09-18T13:02:20Z</time>
      </trkpt>
      <trkpt lat="46.57783" lon="4.91188">
        <ele>186.8</ele>
        <time>2024-09-18T13:02:21Z</time>
      </trkpt>
      <trkpt lat="46.57778" lon="4.91188">
        <ele>186.8</ele>
        <time>2024-09-18T13:02:22Z</time>
      </trkpt>
      <trkpt lat="46.57774" lon="4.91188">
        <ele>186.8</ele>
        <time>2024-09-18T13:02:23Z</time>
      </trkpt>
      <trkpt lat="46.57769" lon="4.91188">
        <ele>187</ele>
        <time>2024-09-18T13:02:24Z</time>
      </trkpt>
      <trkpt lat="46.57764" lon="4.91188">
        <ele>187</ele>
        <time>2024-09-18T13:02:25Z</time>
      </trkpt>
      <trkpt lat="46.57759" lon="4.91188">
        <ele>187</ele>
        <time>2024-09-18T13:02:26Z</time>
      </trkpt>
      <trkpt lat="46.57754" lon="4.91188">
        <ele>187</ele>
        <time>2024-09-18T13:02:27Z</time>
      </trkpt>
      <trkpt lat="46.5775" lon="4.91188">
        <ele>187</ele>
        <time>2024-09-18T13:02:28Z</time>
      </trkpt>
      <trkpt lat="46.57745" lon="4.91189">
        <ele>187</ele>
        <time>2024-09-18T13:02:29Z</time>
      </trkpt>
      <trkpt lat="46.5774" lon="4.91188">
        <ele>187</ele>
        <time>2024-09-18T13:02:30Z</time>
      </trkpt>
      <trkpt lat="46.57735" lon="4.91188">
        <ele>187</ele>
        <time>2024-09-18T13:02:31Z</time>
      </trkpt>
      <trkpt lat="46.57731" lon="4.91187">
        <ele>187</ele>
        <time>2024-09-18T13:02:32Z</time>
      </trkpt>
      <trkpt lat="46.57726" lon="4.91187">
        <ele>186.8</ele>
        <time>2024-09-18T13:02:33Z</time>
      </trkpt>
      <trkpt lat="46.57721" lon="4.91187">
        <ele>187</ele>
        <time>2024-09-18T13:02:34Z</time>
      </trkpt>
      <trkpt lat="46.57716" lon="4.91186">
        <ele>187</ele>
        <time>2024-09-18T13:02:35Z</time>
      </trkpt>
      <trkpt lat="46.57712" lon="4.91186">
        <ele>187</ele>
        <time>2024-09-18T13:02:36Z</time>
      </trkpt>
      <trkpt lat="46.57707" lon="4.91186">
        <ele>187</ele>
        <time>2024-09-18T13:02:37Z</time>
      </trkpt>
      <trkpt lat="46.57702" lon="4.91185">
        <ele>186.8</ele>
        <time>2024-09-18T13:02:38Z</time>
      </trkpt>
      <trkpt lat="46.57697" lon="4.91185">
        <ele>186.6</ele>
        <time>2024-09-18T13:02:39Z</time>
      </trkpt>
      <trkpt lat="46.57692" lon="4.91185">
        <ele>186.6</ele>
        <time>2024-09-18T13:02:40Z</time>
      </trkpt>
      <trkpt lat="46.57688" lon="4.91184">
        <ele>186.6</ele>
        <time>2024-09-18T13:02:41Z</time>
      </trkpt>
      <trkpt lat="46.57683" lon="4.91184">
        <ele>186.6</ele>
        <time>2024-09-18T13:02:42Z</time>
      </trkpt>
      <trkpt lat="46.57678" lon="4.91183">
        <ele>186.8</ele>
        <time>2024-09-18T13:02:43Z</time>
      </trkpt>
      <trkpt lat="46.57674" lon="4.91183">
        <ele>186.8</ele>
        <time>2024-09-18T13:02:44Z</time>
      </trkpt>
      <trkpt lat="46.57669" lon="4.91183">
        <ele>186.8</ele>
        <time>2024-09-18T13:02:45Z</time>
      </trkpt>
      <trkpt lat="46.57665" lon="4.91183">
        <ele>186.8</ele>
        <time>2024-09-18T13:02:46Z</time>
      </trkpt>
      <trkpt lat="46.5766" lon="4.91182">
        <ele>187</ele>
        <time>2024-09-18T13:02:47Z</time>
      </trkpt>
      <trkpt lat="46.57656" lon="4.91182">
        <ele>187.2</ele>
        <time>2024-09-18T13:02:48Z</time>
      </trkpt>
      <trkpt lat="46.57651" lon="4.91181">
        <ele>187.2</ele>
        <time>2024-09-18T13:02:49Z</time>
      </trkpt>
      <trkpt lat="46.57646" lon="4.91181">
        <ele>187.2</ele>
        <time>2024-09-18T13:02:50Z</time>
      </trkpt>
      <trkpt lat="46.57642" lon="4.91181">
        <ele>187</ele>
        <time>2024-09-18T13:02:51Z</time>
      </trkpt>
      <trkpt lat="46.57637" lon="4.9118">
        <ele>187</ele>
        <time>2024-09-18T13:02:52Z</time>
      </trkpt>
      <trkpt lat="46.57633" lon="4.9118">
        <ele>187</ele>
        <time>2024-09-18T13:02:53Z</time>
      </trkpt>
      <trkpt lat="46.57628" lon="4.9118">
        <ele>187</ele>
        <time>2024-09-18T13:02:54Z</time>
      </trkpt>
      <trkpt lat="46.57624" lon="4.91181">
        <ele>187</ele>
        <time>2024-09-18T13:02:55Z</time>
      </trkpt>
      <trkpt lat="46.57619" lon="4.91181">
        <ele>187</ele>
        <time>2024-09-18T13:02:56Z</time>
      </trkpt>
      <trkpt lat="46.57615" lon="4.91181">
        <ele>187</ele>
        <time>2024-09-18T13:02:57Z</time>
      </trkpt>
      <trkpt lat="46.57611" lon="4.91182">
        <ele>187</ele>
        <time>2024-09-18T13:02:58Z</time>
      </trkpt>
      <trkpt lat="46.57607" lon="4.91183">
        <ele>187</ele>
        <time>2024-09-18T13:02:59Z</time>
      </trkpt>
      <trkpt lat="46.57603" lon="4.91184">
        <ele>187.2</ele>
        <time>2024-09-18T13:03:00Z</time>
      </trkpt>
      <trkpt lat="46.57599" lon="4.91184">
        <ele>187.2</ele>
        <time>2024-09-18T13:03:01Z</time>
      </trkpt>
      <trkpt lat="46.57595" lon="4.91185">
        <ele>187.2</ele>
        <time>2024-09-18T13:03:02Z</time>
      </trkpt>
      <trkpt lat="46.57591" lon="4.91186">
        <ele>187.2</ele>
        <time>2024-09-18T13:03:03Z</time>
      </trkpt>
      <trkpt lat="46.57587" lon="4.91187">
        <ele>187.2</ele>
        <time>2024-09-18T13:03:04Z</time>
      </trkpt>
      <trkpt lat="46.57582" lon="4.91189">
        <ele>187.2</ele>
        <time>2024-09-18T13:03:05Z</time>
      </trkpt>
      <trkpt lat="46.57578" lon="4.9119">
        <ele>187.2</ele>
        <time>2024-09-18T13:03:06Z</time>
      </trkpt>
      <trkpt lat="46.57574" lon="4.91191">
        <ele>187.2</ele>
        <time>2024-09-18T13:03:07Z</time>
      </trkpt>
      <trkpt lat="46.57569" lon="4.91193">
        <ele>187.2</ele>
        <time>2024-09-18T13:03:08Z</time>
      </trkpt>
      <trkpt lat="46.57565" lon="4.91194">
        <ele>187.2</ele>
        <time>2024-09-18T13:03:09Z</time>
      </trkpt>
      <trkpt lat="46.5756" lon="4.91195">
        <ele>187.2</ele>
        <time>2024-09-18T13:03:10Z</time>
      </trkpt>
      <trkpt lat="46.57556" lon="4.91197">
        <ele>187.2</ele>
        <time>2024-09-18T13:03:11Z</time>
      </trkpt>
      <trkpt lat="46.57551" lon="4.91198">
        <ele>187.2</ele>
        <time>2024-09-18T13:03:12Z</time>
      </trkpt>
      <trkpt lat="46.57547" lon="4.912">
        <ele>187.2</ele>
        <time>2024-09-18T13:03:13Z</time>
      </trkpt>
      <trkpt lat="46.57542" lon="4.91201">
        <ele>187</ele>
        <time>2024-09-18T13:03:14Z</time>
      </trkpt>
      <trkpt lat="46.57537" lon="4.91202">
        <ele>187</ele>
        <time>2024-09-18T13:03:15Z</time>
      </trkpt>
      <trkpt lat="46.57533" lon="4.91203">
        <ele>187</ele>
        <time>2024-09-18T13:03:16Z</time>
      </trkpt>
      <trkpt lat="46.57529" lon="4.91204">
        <ele>187</ele>
        <time>2024-09-18T13:03:17Z</time>
      </trkpt>
      <trkpt lat="46.57524" lon="4.91204">
        <ele>187</ele>
        <time>2024-09-18T13:03:18Z</time>
      </trkpt>
      <trkpt lat="46.5752" lon="4.91205">
        <ele>187</ele>
        <time>2024-09-18T13:03:19Z</time>
      </trkpt>
      <trkpt lat="46.57516" lon="4.91205">
        <ele>187</ele>
        <time>2024-09-18T13:03:20Z</time>
      </trkpt>
      <trkpt lat="46.57512" lon="4.91206">
        <ele>187</ele>
        <time>2024-09-18T13:03:21Z</time>
      </trkpt>
      <trkpt lat="46.57508" lon="4.91207">
        <ele>187</ele>
        <time>2024-09-18T13:03:22Z</time>
      </trkpt>
      <trkpt lat="46.57503" lon="4.91207">
        <ele>187</ele>
        <time>2024-09-18T13:03:23Z</time>
      </trkpt>
      <trkpt lat="46.57499" lon="4.91208">
        <ele>187</ele>
        <time>2024-09-18T13:03:24Z</time>
      </trkpt>
      <trkpt lat="46.57494" lon="4.91209">
        <ele>187</ele>
        <time>2024-09-18T13:03:25Z</time>
      </trkpt>
      <trkpt lat="46.5749" lon="4.9121">
        <ele>187</ele>
        <time>2024-09-18T13:03:26Z</time>
      </trkpt>
      <trkpt lat="46.57485" lon="4.91211">
        <ele>187</ele>
        <time>2024-09-18T13:03:27Z</time>
      </trkpt>
      <trkpt lat="46.57481" lon="4.91212">
        <ele>186.8</ele>
        <time>2024-09-18T13:03:28Z</time>
      </trkpt>
      <trkpt lat="46.57476" lon="4.91213">
        <ele>186.8</ele>
        <time>2024-09-18T13:03:29Z</time>
      </trkpt>
      <trkpt lat="46.57471" lon="4.91214">
        <ele>186.8</ele>
        <time>2024-09-18T13:03:30Z</time>
      </trkpt>
      <trkpt lat="46.57466" lon="4.91215">
        <ele>186.8</ele>
        <time>2024-09-18T13:03:31Z</time>
      </trkpt>
      <trkpt lat="46.57461" lon="4.91215">
        <ele>186.8</ele>
        <time>2024-09-18T13:03:32Z</time>
      </trkpt>
      <trkpt lat="46.57457" lon="4.91217">
        <ele>186.8</ele>
        <time>2024-09-18T13:03:33Z</time>
      </trkpt>
      <trkpt lat="46.57452" lon="4.91218">
        <ele>186.8</ele>
        <time>2024-09-18T13:03:34Z</time>
      </trkpt>
      <trkpt lat="46.57447" lon="4.91218">
        <ele>186.8</ele>
        <time>2024-09-18T13:03:35Z</time>
      </trkpt>
      <trkpt lat="46.57442" lon="4.91219">
        <ele>187</ele>
        <time>2024-09-18T13:03:36Z</time>
      </trkpt>
      <trkpt lat="46.57438" lon="4.9122">
        <ele>186.6</ele>
        <time>2024-09-18T13:03:37Z</time>
      </trkpt>
      <trkpt lat="46.57433" lon="4.91221">
        <ele>186.6</ele>
        <time>2024-09-18T13:03:38Z</time>
      </trkpt>
      <trkpt lat="46.57429" lon="4.91222">
        <ele>186.6</ele>
        <time>2024-09-18T13:03:39Z</time>
      </trkpt>
      <trkpt lat="46.57424" lon="4.91222">
        <ele>186.6</ele>
        <time>2024-09-18T13:03:40Z</time>
      </trkpt>
      <trkpt lat="46.5742" lon="4.91223">
        <ele>186.6</ele>
        <time>2024-09-18T13:03:41Z</time>
      </trkpt>
      <trkpt lat="46.57415" lon="4.91224">
        <ele>186.6</ele>
        <time>2024-09-18T13:03:42Z</time>
      </trkpt>
      <trkpt lat="46.57411" lon="4.91224">
        <ele>186.6</ele>
        <time>2024-09-18T13:03:43Z</time>
      </trkpt>
      <trkpt lat="46.57407" lon="4.91225">
        <ele>186.6</ele>
        <time>2024-09-18T13:03:44Z</time>
      </trkpt>
      <trkpt lat="46.57402" lon="4.91226">
        <ele>186.8</ele>
        <time>2024-09-18T13:03:45Z</time>
      </trkpt>
      <trkpt lat="46.57398" lon="4.91227">
        <ele>186.8</ele>
        <time>2024-09-18T13:03:46Z</time>
      </trkpt>
      <trkpt lat="46.57393" lon="4.91227">
        <ele>186.8</ele>
        <time>2024-09-18T13:03:47Z</time>
      </trkpt>
      <trkpt lat="46.57388" lon="4.91229">
        <ele>186.8</ele>
        <time>2024-09-18T13:03:48Z</time>
      </trkpt>
      <trkpt lat="46.57384" lon="4.9123">
        <ele>186.8</ele>
        <time>2024-09-18T13:03:49Z</time>
      </trkpt>
      <trkpt lat="46.57379" lon="4.91231">
        <ele>186.8</ele>
        <time>2024-09-18T13:03:50Z</time>
      </trkpt>
      <trkpt lat="46.57374" lon="4.91231">
        <ele>186.8</ele>
        <time>2024-09-18T13:03:51Z</time>
      </trkpt>
      <trkpt lat="46.57369" lon="4.91232">
        <ele>186.8</ele>
        <time>2024-09-18T13:03:52Z</time>
      </trkpt>
      <trkpt lat="46.57364" lon="4.91232">
        <ele>186.8</ele>
        <time>2024-09-18T13:03:53Z</time>
      </trkpt>
      <trkpt lat="46.57359" lon="4.91233">
        <ele>186.8</ele>
        <time>2024-09-18T13:03:54Z</time>
      </trkpt>
      <trkpt lat="46.57354" lon="4.91233">
        <ele>186.8</ele>
        <time>2024-09-18T13:03:55Z</time>
      </trkpt>
      <trkpt lat="46.5735" lon="4.91233">
        <ele>187</ele>
        <time>2024-09-18T13:03:56Z</time>
      </trkpt>
      <trkpt lat="46.57345" lon="4.91234">
        <ele>187</ele>
        <time>2024-09-18T13:03:57Z</time>
      </trkpt>
      <trkpt lat="46.5734" lon="4.91235">
        <ele>187</ele>
        <time>2024-09-18T13:03:58Z</time>
      </trkpt>
      <trkpt lat="46.57336" lon="4.91237">
        <ele>187</ele>
        <time>2024-09-18T13:03:59Z</time>
      </trkpt>
      <trkpt lat="46.57331" lon="4.91237">
        <ele>186.8</ele>
        <time>2024-09-18T13:04:00Z</time>
      </trkpt>
      <trkpt lat="46.57326" lon="4.91238">
        <ele>186.8</ele>
        <time>2024-09-18T13:04:01Z</time>
      </trkpt>
      <trkpt lat="46.57321" lon="4.91238">
        <ele>186.8</ele>
        <time>2024-09-18T13:04:02Z</time>
      </trkpt>
      <trkpt lat="46.57317" lon="4.91239">
        <ele>186.8</ele>
        <time>2024-09-18T13:04:03Z</time>
      </trkpt>
      <trkpt lat="46.57312" lon="4.91239">
        <ele>186.8</ele>
        <time>2024-09-18T13:04:04Z</time>
      </trkpt>
      <trkpt lat="46.57307" lon="4.9124">
        <ele>186.8</ele>
        <time>2024-09-18T13:04:05Z</time>
      </trkpt>
      <trkpt lat="46.57302" lon="4.9124">
        <ele>186.8</ele>
        <time>2024-09-18T13:04:06Z</time>
      </trkpt>
      <trkpt lat="46.57297" lon="4.91241">
        <ele>186.8</ele>
        <time>2024-09-18T13:04:07Z</time>
      </trkpt>
      <trkpt lat="46.57292" lon="4.91241">
        <ele>186.6</ele>
        <time>2024-09-18T13:04:08Z</time>
      </trkpt>
      <trkpt lat="46.57287" lon="4.91242">
        <ele>186.8</ele>
        <time>2024-09-18T13:04:09Z</time>
      </trkpt>
      <trkpt lat="46.57282" lon="4.91241">
        <ele>186.8</ele>
        <time>2024-09-18T13:04:10Z</time>
      </trkpt>
      <trkpt lat="46.57278" lon="4.91241">
        <ele>186.8</ele>
        <time>2024-09-18T13:04:11Z</time>
      </trkpt>
      <trkpt lat="46.57274" lon="4.9124">
        <ele>186.8</ele>
        <time>2024-09-18T13:04:12Z</time>
      </trkpt>
      <trkpt lat="46.57269" lon="4.91239">
        <ele>186.8</ele>
        <time>2024-09-18T13:04:13Z</time>
      </trkpt>
      <trkpt lat="46.57265" lon="4.91239">
        <ele>186.8</ele>
        <time>2024-09-18T13:04:14Z</time>
      </trkpt>
      <trkpt lat="46.5726" lon="4.91238">
        <ele>186.8</ele>
        <time>2024-09-18T13:04:15Z</time>
      </trkpt>
      <trkpt lat="46.57255" lon="4.91238">
        <ele>186.8</ele>
        <time>2024-09-18T13:04:16Z</time>
      </trkpt>
      <trkpt lat="46.57251" lon="4.91237">
        <ele>186.6</ele>
        <time>2024-09-18T13:04:17Z</time>
      </trkpt>
      <trkpt lat="46.57246" lon="4.91237">
        <ele>186.6</ele>
        <time>2024-09-18T13:04:18Z</time>
      </trkpt>
      <trkpt lat="46.57241" lon="4.91236">
        <ele>186.8</ele>
        <time>2024-09-18T13:04:19Z</time>
      </trkpt>
      <trkpt lat="46.57237" lon="4.91236">
        <ele>186.8</ele>
        <time>2024-09-18T13:04:20Z</time>
      </trkpt>
      <trkpt lat="46.57232" lon="4.91235">
        <ele>187</ele>
        <time>2024-09-18T13:04:21Z</time>
      </trkpt>
      <trkpt lat="46.57227" lon="4.91235">
        <ele>186.8</ele>
        <time>2024-09-18T13:04:22Z</time>
      </trkpt>
      <trkpt lat="46.57222" lon="4.91234">
        <ele>186.8</ele>
        <time>2024-09-18T13:04:23Z</time>
      </trkpt>
      <trkpt lat="46.57218" lon="4.91234">
        <ele>186.8</ele>
        <time>2024-09-18T13:04:24Z</time>
      </trkpt>
      <trkpt lat="46.57213" lon="4.91234">
        <ele>187</ele>
        <time>2024-09-18T13:04:25Z</time>
      </trkpt>
      <trkpt lat="46.57208" lon="4.91233">
        <ele>187</ele>
        <time>2024-09-18T13:04:26Z</time>
      </trkpt>
      <trkpt lat="46.57203" lon="4.91233">
        <ele>186.8</ele>
        <time>2024-09-18T13:04:27Z</time>
      </trkpt>
      <trkpt lat="46.57198" lon="4.91233">
        <ele>186.8</ele>
        <time>2024-09-18T13:04:28Z</time>
      </trkpt>
      <trkpt lat="46.57193" lon="4.91233">
        <ele>186.8</ele>
        <time>2024-09-18T13:04:29Z</time>
      </trkpt>
      <trkpt lat="46.57188" lon="4.91232">
        <ele>186.8</ele>
        <time>2024-09-18T13:04:30Z</time>
      </trkpt>
      <trkpt lat="46.57183" lon="4.91232">
        <ele>186.6</ele>
        <time>2024-09-18T13:04:31Z</time>
      </trkpt>
      <trkpt lat="46.57178" lon="4.91231">
        <ele>186.6</ele>
        <time>2024-09-18T13:04:32Z</time>
      </trkpt>
      <trkpt lat="46.57173" lon="4.9123">
        <ele>186.6</ele>
        <time>2024-09-18T13:04:33Z</time>
      </trkpt>
      <trkpt lat="46.57166" lon="4.91229">
        <ele>186.6</ele>
        <time>2024-09-18T13:04:34Z</time>
      </trkpt>
      <trkpt lat="46.57163" lon="4.91229">
        <ele>186.6</ele>
        <time>2024-09-18T13:04:35Z</time>
      </trkpt>
      <trkpt lat="46.57158" lon="4.91228">
        <ele>186.8</ele>
        <time>2024-09-18T13:04:36Z</time>
      </trkpt>
      <trkpt lat="46.57153" lon="4.91227">
        <ele>186.8</ele>
        <time>2024-09-18T13:04:37Z</time>
      </trkpt>
      <trkpt lat="46.57148" lon="4.91225">
        <ele>186.8</ele>
        <time>2024-09-18T13:04:38Z</time>
      </trkpt>
      <trkpt lat="46.57143" lon="4.91224">
        <ele>186.8</ele>
        <time>2024-09-18T13:04:39Z</time>
      </trkpt>
      <trkpt lat="46.57138" lon="4.91223">
        <ele>186.8</ele>
        <time>2024-09-18T13:04:40Z</time>
      </trkpt>
      <trkpt lat="46.57134" lon="4.91222">
        <ele>187</ele>
        <time>2024-09-18T13:04:41Z</time>
      </trkpt>
      <trkpt lat="46.57129" lon="4.91221">
        <ele>187</ele>
        <time>2024-09-18T13:04:42Z</time>
      </trkpt>
      <trkpt lat="46.57124" lon="4.9122">
        <ele>187</ele>
        <time>2024-09-18T13:04:43Z</time>
      </trkpt>
      <trkpt lat="46.57119" lon="4.91218">
        <ele>187</ele>
        <time>2024-09-18T13:04:44Z</time>
      </trkpt>
      <trkpt lat="46.57114" lon="4.91217">
        <ele>186.8</ele>
        <time>2024-09-18T13:04:45Z</time>
      </trkpt>
      <trkpt lat="46.57109" lon="4.91216">
        <ele>186.8</ele>
        <time>2024-09-18T13:04:46Z</time>
      </trkpt>
      <trkpt lat="46.57105" lon="4.91215">
        <ele>186.8</ele>
        <time>2024-09-18T13:04:47Z</time>
      </trkpt>
      <trkpt lat="46.57099" lon="4.91214">
        <ele>186.8</ele>
        <time>2024-09-18T13:04:48Z</time>
      </trkpt>
      <trkpt lat="46.57094" lon="4.91213">
        <ele>187</ele>
        <time>2024-09-18T13:04:49Z</time>
      </trkpt>
      <trkpt lat="46.57089" lon="4.91212">
        <ele>187</ele>
        <time>2024-09-18T13:04:50Z</time>
      </trkpt>
      <trkpt lat="46.57084" lon="4.91211">
        <ele>187</ele>
        <time>2024-09-18T13:04:51Z</time>
      </trkpt>
      <trkpt lat="46.57079" lon="4.91209">
        <ele>187</ele>
        <time>2024-09-18T13:04:52Z</time>
      </trkpt>
      <trkpt lat="46.57074" lon="4.91208">
        <ele>187</ele>
        <time>2024-09-18T13:04:53Z</time>
      </trkpt>
      <trkpt lat="46.57069" lon="4.91206">
        <ele>187</ele>
        <time>2024-09-18T13:04:54Z</time>
      </trkpt>
      <trkpt lat="46.57064" lon="4.91204">
        <ele>187</ele>
        <time>2024-09-18T13:04:55Z</time>
      </trkpt>
      <trkpt lat="46.57059" lon="4.91203">
        <ele>187</ele>
        <time>2024-09-18T13:04:56Z</time>
      </trkpt>
      <trkpt lat="46.57054" lon="4.91201">
        <ele>187</ele>
        <time>2024-09-18T13:04:57Z</time>
      </trkpt>
      <trkpt lat="46.57049" lon="4.912">
        <ele>187</ele>
        <time>2024-09-18T13:04:58Z</time>
      </trkpt>
      <trkpt lat="46.57044" lon="4.91198">
        <ele>186.8</ele>
        <time>2024-09-18T13:04:59Z</time>
      </trkpt>
      <trkpt lat="46.57039" lon="4.91197">
        <ele>186.8</ele>
        <time>2024-09-18T13:05:00Z</time>
      </trkpt>
      <trkpt lat="46.57035" lon="4.91195">
        <ele>186.8</ele>
        <time>2024-09-18T13:05:01Z</time>
      </trkpt>
      <trkpt lat="46.57031" lon="4.91193">
        <ele>186.8</ele>
        <time>2024-09-18T13:05:02Z</time>
      </trkpt>
      <trkpt lat="46.57026" lon="4.91192">
        <ele>186.8</ele>
        <time>2024-09-18T13:05:03Z</time>
      </trkpt>
      <trkpt lat="46.57022" lon="4.91191">
        <ele>186.8</ele>
        <time>2024-09-18T13:05:04Z</time>
      </trkpt>
      <trkpt lat="46.57018" lon="4.91191">
        <ele>186.8</ele>
        <time>2024-09-18T13:05:05Z</time>
      </trkpt>
      <trkpt lat="46.57013" lon="4.9119">
        <ele>186.8</ele>
        <time>2024-09-18T13:05:06Z</time>
      </trkpt>
      <trkpt lat="46.57009" lon="4.91189">
        <ele>187</ele>
        <time>2024-09-18T13:05:07Z</time>
      </trkpt>
      <trkpt lat="46.57005" lon="4.91188">
        <ele>187</ele>
        <time>2024-09-18T13:05:08Z</time>
      </trkpt>
      <trkpt lat="46.57001" lon="4.91187">
        <ele>187</ele>
        <time>2024-09-18T13:05:09Z</time>
      </trkpt>
      <trkpt lat="46.56998" lon="4.91185">
        <ele>187</ele>
        <time>2024-09-18T13:05:10Z</time>
      </trkpt>
      <trkpt lat="46.56994" lon="4.91184">
        <ele>187</ele>
        <time>2024-09-18T13:05:11Z</time>
      </trkpt>
      <trkpt lat="46.56991" lon="4.91183">
        <ele>187</ele>
        <time>2024-09-18T13:05:12Z</time>
      </trkpt>
      <trkpt lat="46.56988" lon="4.91182">
        <ele>187</ele>
        <time>2024-09-18T13:05:13Z</time>
      </trkpt>
      <trkpt lat="46.56984" lon="4.91181">
        <ele>187</ele>
        <time>2024-09-18T13:05:14Z</time>
      </trkpt>
      <trkpt lat="46.56981" lon="4.9118">
        <ele>187</ele>
        <time>2024-09-18T13:05:15Z</time>
      </trkpt>
      <trkpt lat="46.56978" lon="4.91179">
        <ele>187</ele>
        <time>2024-09-18T13:05:16Z</time>
      </trkpt>
      <trkpt lat="46.56975" lon="4.91178">
        <ele>187</ele>
        <time>2024-09-18T13:05:17Z</time>
      </trkpt>
      <trkpt lat="46.56972" lon="4.91177">
        <ele>187</ele>
        <time>2024-09-18T13:05:18Z</time>
      </trkpt>
      <trkpt lat="46.56969" lon="4.91176">
        <ele>187</ele>
        <time>2024-09-18T13:05:19Z</time>
      </trkpt>
      <trkpt lat="46.56965" lon="4.91175">
        <ele>187</ele>
        <time>2024-09-18T13:05:20Z</time>
      </trkpt>
      <trkpt lat="46.56962" lon="4.91174">
        <ele>187</ele>
        <time>2024-09-18T13:05:21Z</time>
      </trkpt>
      <trkpt lat="46.56958" lon="4.91172">
        <ele>187.2</ele>
        <time>2024-09-18T13:05:22Z</time>
      </trkpt>
      <trkpt lat="46.56955" lon="4.91171">
        <ele>187.2</ele>
        <time>2024-09-18T13:05:23Z</time>
      </trkpt>
      <trkpt lat="46.56951" lon="4.9117">
        <ele>187.2</ele>
        <time>2024-09-18T13:05:24Z</time>
      </trkpt>
      <trkpt lat="46.56948" lon="4.91169">
        <ele>187.2</ele>
        <time>2024-09-18T13:05:25Z</time>
      </trkpt>
      <trkpt lat="46.56945" lon="4.91168">
        <ele>187</ele>
        <time>2024-09-18T13:05:26Z</time>
      </trkpt>
      <trkpt lat="46.56941" lon="4.91167">
        <ele>187</ele>
        <time>2024-09-18T13:05:27Z</time>
      </trkpt>
      <trkpt lat="46.56938" lon="4.91165">
        <ele>187</ele>
        <time>2024-09-18T13:05:28Z</time>
      </trkpt>
      <trkpt lat="46.56934" lon="4.91164">
        <ele>187</ele>
        <time>2024-09-18T13:05:29Z</time>
      </trkpt>
      <trkpt lat="46.5693" lon="4.91163">
        <ele>187.2</ele>
        <time>2024-09-18T13:05:30Z</time>
      </trkpt>
      <trkpt lat="46.56927" lon="4.91162">
        <ele>187.2</ele>
        <time>2024-09-18T13:05:31Z</time>
      </trkpt>
      <trkpt lat="46.56922" lon="4.9116">
        <ele>187.2</ele>
        <time>2024-09-18T13:05:32Z</time>
      </trkpt>
      <trkpt lat="46.56918" lon="4.91158">
        <ele>187.2</ele>
        <time>2024-09-18T13:05:33Z</time>
      </trkpt>
      <trkpt lat="46.56914" lon="4.91157">
        <ele>187.2</ele>
        <time>2024-09-18T13:05:34Z</time>
      </trkpt>
      <trkpt lat="46.5691" lon="4.91156">
        <ele>187</ele>
        <time>2024-09-18T13:05:35Z</time>
      </trkpt>
      <trkpt lat="46.56906" lon="4.91155">
        <ele>187</ele>
        <time>2024-09-18T13:05:36Z</time>
      </trkpt>
      <trkpt lat="46.56902" lon="4.91154">
        <ele>187</ele>
        <time>2024-09-18T13:05:37Z</time>
      </trkpt>
      <trkpt lat="46.56897" lon="4.91153">
        <ele>187</ele>
        <time>2024-09-18T13:05:38Z</time>
      </trkpt>
      <trkpt lat="46.56893" lon="4.91152">
        <ele>187</ele>
        <time>2024-09-18T13:05:39Z</time>
      </trkpt>
      <trkpt lat="46.56889" lon="4.91151">
        <ele>187</ele>
        <time>2024-09-18T13:05:40Z</time>
      </trkpt>
      <trkpt lat="46.56885" lon="4.91149">
        <ele>187</ele>
        <time>2024-09-18T13:05:41Z</time>
      </trkpt>
      <trkpt lat="46.56881" lon="4.91148">
        <ele>187</ele>
        <time>2024-09-18T13:05:42Z</time>
      </trkpt>
      <trkpt lat="46.56877" lon="4.91147">
        <ele>187</ele>
        <time>2024-09-18T13:05:43Z</time>
      </trkpt>
      <trkpt lat="46.56873" lon="4.91145">
        <ele>187</ele>
        <time>2024-09-18T13:05:44Z</time>
      </trkpt>
      <trkpt lat="46.56869" lon="4.91144">
        <ele>187.2</ele>
        <time>2024-09-18T13:05:45Z</time>
      </trkpt>
      <trkpt lat="46.56864" lon="4.91142">
        <ele>187.2</ele>
        <time>2024-09-18T13:05:46Z</time>
      </trkpt>
      <trkpt lat="46.5686" lon="4.91141">
        <ele>187.2</ele>
        <time>2024-09-18T13:05:47Z</time>
      </trkpt>
      <trkpt lat="46.56855" lon="4.9114">
        <ele>187</ele>
        <time>2024-09-18T13:05:48Z</time>
      </trkpt>
      <trkpt lat="46.56851" lon="4.91138">
        <ele>187</ele>
        <time>2024-09-18T13:05:49Z</time>
      </trkpt>
      <trkpt lat="46.56847" lon="4.91137">
        <ele>187</ele>
        <time>2024-09-18T13:05:50Z</time>
      </trkpt>
      <trkpt lat="46.56842" lon="4.91136">
        <ele>187</ele>
        <time>2024-09-18T13:05:51Z</time>
      </trkpt>
      <trkpt lat="46.56838" lon="4.91135">
        <ele>187</ele>
        <time>2024-09-18T13:05:52Z</time>
      </trkpt>
      <trkpt lat="46.56833" lon="4.91133">
        <ele>187</ele>
        <time>2024-09-18T13:05:53Z</time>
      </trkpt>
      <trkpt lat="46.56829" lon="4.91132">
        <ele>187</ele>
        <time>2024-09-18T13:05:54Z</time>
      </trkpt>
      <trkpt lat="46.56825" lon="4.91131">
        <ele>187</ele>
        <time>2024-09-18T13:05:55Z</time>
      </trkpt>
      <trkpt lat="46.5682" lon="4.91129">
        <ele>187</ele>
        <time>2024-09-18T13:05:56Z</time>
      </trkpt>
      <trkpt lat="46.56816" lon="4.91128">
        <ele>187</ele>
        <time>2024-09-18T13:05:57Z</time>
      </trkpt>
      <trkpt lat="46.56812" lon="4.91127">
        <ele>187</ele>
        <time>2024-09-18T13:05:58Z</time>
      </trkpt>
      <trkpt lat="46.56807" lon="4.91125">
        <ele>187</ele>
        <time>2024-09-18T13:05:59Z</time>
      </trkpt>
      <trkpt lat="46.56803" lon="4.91125">
        <ele>187</ele>
        <time>2024-09-18T13:06:00Z</time>
      </trkpt>
      <trkpt lat="46.56799" lon="4.91124">
        <ele>187.2</ele>
        <time>2024-09-18T13:06:01Z</time>
      </trkpt>
      <trkpt lat="46.56795" lon="4.91122">
        <ele>187.2</ele>
        <time>2024-09-18T13:06:02Z</time>
      </trkpt>
      <trkpt lat="46.56791" lon="4.91121">
        <ele>187.8</ele>
        <time>2024-09-18T13:06:03Z</time>
      </trkpt>
      <trkpt lat="46.56788" lon="4.9112">
        <ele>187.8</ele>
        <time>2024-09-18T13:06:04Z</time>
      </trkpt>
      <trkpt lat="46.56784" lon="4.91119">
        <ele>187.8</ele>
        <time>2024-09-18T13:06:05Z</time>
      </trkpt>
      <trkpt lat="46.5678" lon="4.91118">
        <ele>187.4</ele>
        <time>2024-09-18T13:06:06Z</time>
      </trkpt>
      <trkpt lat="46.56776" lon="4.91116">
        <ele>187</ele>
        <time>2024-09-18T13:06:07Z</time>
      </trkpt>
      <trkpt lat="46.56773" lon="4.91115">
        <ele>187</ele>
        <time>2024-09-18T13:06:08Z</time>
      </trkpt>
      <trkpt lat="46.56769" lon="4.91114">
        <ele>187</ele>
        <time>2024-09-18T13:06:09Z</time>
      </trkpt>
      <trkpt lat="46.56765" lon="4.91112">
        <ele>187</ele>
        <time>2024-09-18T13:06:10Z</time>
      </trkpt>
      <trkpt lat="46.56761" lon="4.91112">
        <ele>188</ele>
        <time>2024-09-18T13:06:11Z</time>
      </trkpt>
      <trkpt lat="46.56757" lon="4.91112">
        <ele>188</ele>
        <time>2024-09-18T13:06:12Z</time>
      </trkpt>
      <trkpt lat="46.56753" lon="4.91112">
        <ele>188</ele>
        <time>2024-09-18T13:06:13Z</time>
      </trkpt>
      <trkpt lat="46.5675" lon="4.91111">
        <ele>188</ele>
        <time>2024-09-18T13:06:14Z</time>
      </trkpt>
      <trkpt lat="46.56746" lon="4.91111">
        <ele>188.2</ele>
        <time>2024-09-18T13:06:15Z</time>
      </trkpt>
      <trkpt lat="46.56742" lon="4.91111">
        <ele>188.2</ele>
        <time>2024-09-18T13:06:16Z</time>
      </trkpt>
      <trkpt lat="46.56738" lon="4.91111">
        <ele>188.2</ele>
        <time>2024-09-18T13:06:17Z</time>
      </trkpt>
      <trkpt lat="46.56735" lon="4.91111">
        <ele>188.2</ele>
        <time>2024-09-18T13:06:18Z</time>
      </trkpt>
      <trkpt lat="46.56731" lon="4.91111">
        <ele>188.2</ele>
        <time>2024-09-18T13:06:19Z</time>
      </trkpt>
      <trkpt lat="46.56728" lon="4.9111">
        <ele>188.2</ele>
        <time>2024-09-18T13:06:20Z</time>
      </trkpt>
      <trkpt lat="46.56724" lon="4.9111">
        <ele>188.2</ele>
        <time>2024-09-18T13:06:21Z</time>
      </trkpt>
      <trkpt lat="46.56721" lon="4.9111">
        <ele>188.2</ele>
        <time>2024-09-18T13:06:22Z</time>
      </trkpt>
      <trkpt lat="46.56718" lon="4.9111">
        <ele>188.2</ele>
        <time>2024-09-18T13:06:23Z</time>
      </trkpt>
      <trkpt lat="46.56715" lon="4.9111">
        <ele>188.4</ele>
        <time>2024-09-18T13:06:24Z</time>
      </trkpt>
      <trkpt lat="46.56712" lon="4.9111">
        <ele>188.4</ele>
        <time>2024-09-18T13:06:25Z</time>
      </trkpt>
      <trkpt lat="46.56709" lon="4.9111">
        <ele>188.4</ele>
        <time>2024-09-18T13:06:26Z</time>
      </trkpt>
      <trkpt lat="46.56706" lon="4.91109">
        <ele>188.4</ele>
        <time>2024-09-18T13:06:27Z</time>
      </trkpt>
      <trkpt lat="46.56703" lon="4.91109">
        <ele>188.2</ele>
        <time>2024-09-18T13:06:28Z</time>
      </trkpt>
      <trkpt lat="46.567" lon="4.91108">
        <ele>188.2</ele>
        <time>2024-09-18T13:06:29Z</time>
      </trkpt>
      <trkpt lat="46.56697" lon="4.91106">
        <ele>188.2</ele>
        <time>2024-09-18T13:06:30Z</time>
      </trkpt>
      <trkpt lat="46.56696" lon="4.91103">
        <ele>188.2</ele>
        <time>2024-09-18T13:06:31Z</time>
      </trkpt>
      <trkpt lat="46.56694" lon="4.911">
        <ele>188.2</ele>
        <time>2024-09-18T13:06:32Z</time>
      </trkpt>
      <trkpt lat="46.56693" lon="4.91097">
        <ele>188.4</ele>
        <time>2024-09-18T13:06:33Z</time>
      </trkpt>
      <trkpt lat="46.56692" lon="4.91095">
        <ele>188.4</ele>
        <time>2024-09-18T13:06:34Z</time>
      </trkpt>
      <trkpt lat="46.56691" lon="4.91093">
        <ele>188.4</ele>
        <time>2024-09-18T13:06:35Z</time>
      </trkpt>
      <trkpt lat="46.56689" lon="4.91091">
        <ele>188.4</ele>
        <time>2024-09-18T13:06:36Z</time>
      </trkpt>
      <trkpt lat="46.56688" lon="4.9109">
        <ele>188.4</ele>
        <time>2024-09-18T13:06:37Z</time>
      </trkpt>
      <trkpt lat="46.56686" lon="4.91089">
        <ele>188.4</ele>
        <time>2024-09-18T13:06:38Z</time>
      </trkpt>
      <trkpt lat="46.56684" lon="4.91089">
        <ele>188.4</ele>
        <time>2024-09-18T13:06:39Z</time>
      </trkpt>
      <trkpt lat="46.56681" lon="4.91089">
        <ele>188.4</ele>
        <time>2024-09-18T13:06:40Z</time>
      </trkpt>
      <trkpt lat="46.56679" lon="4.91089">
        <ele>188.4</ele>
        <time>2024-09-18T13:06:41Z</time>
      </trkpt>
      <trkpt lat="46.56677" lon="4.91089">
        <ele>188.6</ele>
        <time>2024-09-18T13:06:42Z</time>
      </trkpt>
      <trkpt lat="46.56675" lon="4.91088">
        <ele>188.6</ele>
        <time>2024-09-18T13:06:43Z</time>
      </trkpt>
      <trkpt lat="46.56674" lon="4.91088">
        <ele>188.6</ele>
        <time>2024-09-18T13:06:44Z</time>
      </trkpt>
      <trkpt lat="46.56673" lon="4.91086">
        <ele>188.6</ele>
        <time>2024-09-18T13:06:45Z</time>
      </trkpt>
      <trkpt lat="46.56672" lon="4.91083">
        <ele>188.6</ele>
        <time>2024-09-18T13:06:46Z</time>
      </trkpt>
      <trkpt lat="46.56671" lon="4.9108">
        <ele>188.6</ele>
        <time>2024-09-18T13:06:47Z</time>
      </trkpt>
      <trkpt lat="46.5667" lon="4.91078">
        <ele>188.6</ele>
        <time>2024-09-18T13:06:48Z</time>
      </trkpt>
      <trkpt lat="46.56669" lon="4.91076">
        <ele>188.8</ele>
        <time>2024-09-18T13:06:49Z</time>
      </trkpt>
      <trkpt lat="46.56667" lon="4.91075">
        <ele>188.8</ele>
        <time>2024-09-18T13:06:50Z</time>
      </trkpt>
      <trkpt lat="46.56665" lon="4.91076">
        <ele>188.8</ele>
        <time>2024-09-18T13:06:51Z</time>
      </trkpt>
      <trkpt lat="46.56663" lon="4.91076">
        <ele>189</ele>
        <time>2024-09-18T13:06:52Z</time>
      </trkpt>
      <trkpt lat="46.56661" lon="4.91077">
        <ele>189</ele>
        <time>2024-09-18T13:06:53Z</time>
      </trkpt>
      <trkpt lat="46.56659" lon="4.91078">
        <ele>189</ele>
        <time>2024-09-18T13:06:54Z</time>
      </trkpt>
      <trkpt lat="46.56657" lon="4.9108">
        <ele>189</ele>
        <time>2024-09-18T13:06:55Z</time>
      </trkpt>
      <trkpt lat="46.56655" lon="4.91081">
        <ele>189</ele>
        <time>2024-09-18T13:06:56Z</time>
      </trkpt>
      <trkpt lat="46.56654" lon="4.91083">
        <ele>188.6</ele>
        <time>2024-09-18T13:06:57Z</time>
      </trkpt>
      <trkpt lat="46.56652" lon="4.91083">
        <ele>188.6</ele>
        <time>2024-09-18T13:06:58Z</time>
      </trkpt>
      <trkpt lat="46.56651" lon="4.91084">
        <ele>188.6</ele>
        <time>2024-09-18T13:06:59Z</time>
      </trkpt>
      <trkpt lat="46.56649" lon="4.91084">
        <ele>188.6</ele>
        <time>2024-09-18T13:07:00Z</time>
      </trkpt>
      <trkpt lat="46.56647" lon="4.91084">
        <ele>188</ele>
        <time>2024-09-18T13:07:01Z</time>
      </trkpt>
      <trkpt lat="46.56646" lon="4.91084">
        <ele>188</ele>
        <time>2024-09-18T13:07:02Z</time>
      </trkpt>
      <trkpt lat="46.56644" lon="4.91084">
        <ele>188</ele>
        <time>2024-09-18T13:07:03Z</time>
      </trkpt>
      <trkpt lat="46.56643" lon="4.91084">
        <ele>188</ele>
        <time>2024-09-18T13:07:04Z</time>
      </trkpt>
      <trkpt lat="46.56641" lon="4.91085">
        <ele>189</ele>
        <time>2024-09-18T13:07:05Z</time>
      </trkpt>
      <trkpt lat="46.5664" lon="4.91087">
        <ele>189</ele>
        <time>2024-09-18T13:07:06Z</time>
      </trkpt>
      <trkpt lat="46.56638" lon="4.91089">
        <ele>189</ele>
        <time>2024-09-18T13:07:07Z</time>
      </trkpt>
      <trkpt lat="46.56637" lon="4.9109">
        <ele>189</ele>
        <time>2024-09-18T13:07:08Z</time>
      </trkpt>
      <trkpt lat="46.56635" lon="4.91091">
        <ele>189</ele>
        <time>2024-09-18T13:07:09Z</time>
      </trkpt>
      <trkpt lat="46.56634" lon="4.91093">
        <ele>189</ele>
        <time>2024-09-18T13:07:10Z</time>
      </trkpt>
      <trkpt lat="46.56632" lon="4.91094">
        <ele>189</ele>
        <time>2024-09-18T13:07:11Z</time>
      </trkpt>
      <trkpt lat="46.5663" lon="4.91096">
        <ele>189</ele>
        <time>2024-09-18T13:07:12Z</time>
      </trkpt>
      <trkpt lat="46.56628" lon="4.91097">
        <ele>188.8</ele>
        <time>2024-09-18T13:07:13Z</time>
      </trkpt>
      <trkpt lat="46.56625" lon="4.91098">
        <ele>188.6</ele>
        <time>2024-09-18T13:07:14Z</time>
      </trkpt>
      <trkpt lat="46.56623" lon="4.91099">
        <ele>188.6</ele>
        <time>2024-09-18T13:07:15Z</time>
      </trkpt>
      <trkpt lat="46.5662" lon="4.91101">
        <ele>188.6</ele>
        <time>2024-09-18T13:07:16Z</time>
      </trkpt>
      <trkpt lat="46.56618" lon="4.91102">
        <ele>188.6</ele>
        <time>2024-09-18T13:07:17Z</time>
      </trkpt>
      <trkpt lat="46.56615" lon="4.91104">
        <ele>189</ele>
        <time>2024-09-18T13:07:18Z</time>
      </trkpt>
      <trkpt lat="46.56613" lon="4.91105">
        <ele>189.2</ele>
        <time>2024-09-18T13:07:19Z</time>
      </trkpt>
      <trkpt lat="46.5661" lon="4.91106">
        <ele>189.2</ele>
        <time>2024-09-18T13:07:20Z</time>
      </trkpt>
      <trkpt lat="46.56608" lon="4.91107">
        <ele>189.2</ele>
        <time>2024-09-18T13:07:21Z</time>
      </trkpt>
      <trkpt lat="46.56605" lon="4.91108">
        <ele>189</ele>
        <time>2024-09-18T13:07:22Z</time>
      </trkpt>
      <trkpt lat="46.56603" lon="4.91109">
        <ele>189</ele>
        <time>2024-09-18T13:07:23Z</time>
      </trkpt>
      <trkpt lat="46.566" lon="4.9111">
        <ele>189</ele>
        <time>2024-09-18T13:07:24Z</time>
      </trkpt>
      <trkpt lat="46.56597" lon="4.9111">
        <ele>189</ele>
        <time>2024-09-18T13:07:25Z</time>
      </trkpt>
      <trkpt lat="46.56595" lon="4.91111">
        <ele>189</ele>
        <time>2024-09-18T13:07:26Z</time>
      </trkpt>
      <trkpt lat="46.56592" lon="4.91111">
        <ele>189</ele>
        <time>2024-09-18T13:07:27Z</time>
      </trkpt>
      <trkpt lat="46.5659" lon="4.91113">
        <ele>188.8</ele>
        <time>2024-09-18T13:07:28Z</time>
      </trkpt>
      <trkpt lat="46.56588" lon="4.91114">
        <ele>188.8</ele>
        <time>2024-09-18T13:07:29Z</time>
      </trkpt>
      <trkpt lat="46.56586" lon="4.91115">
        <ele>188.8</ele>
        <time>2024-09-18T13:07:30Z</time>
      </trkpt>
      <trkpt lat="46.56584" lon="4.91115">
        <ele>188.8</ele>
        <time>2024-09-18T13:07:31Z</time>
      </trkpt>
      <trkpt lat="46.56582" lon="4.91116">
        <ele>189</ele>
        <time>2024-09-18T13:07:32Z</time>
      </trkpt>
      <trkpt lat="46.5658" lon="4.91117">
        <ele>189</ele>
        <time>2024-09-18T13:07:33Z</time>
      </trkpt>
      <trkpt lat="46.56579" lon="4.91117">
        <ele>189</ele>
        <time>2024-09-18T13:07:34Z</time>
      </trkpt>
      <trkpt lat="46.56578" lon="4.91117">
        <ele>189</ele>
        <time>2024-09-18T13:07:35Z</time>
      </trkpt>
      <trkpt lat="46.56577" lon="4.91117">
        <ele>189</ele>
        <time>2024-09-18T13:07:36Z</time>
      </trkpt>
      <trkpt lat="46.56576" lon="4.91116">
        <ele>189</ele>
        <time>2024-09-18T13:07:37Z</time>
      </trkpt>
      <trkpt lat="46.56576" lon="4.91115">
        <ele>189</ele>
        <time>2024-09-18T13:07:38Z</time>
      </trkpt>
      <trkpt lat="46.56575" lon="4.91113">
        <ele>189</ele>
        <time>2024-09-18T13:07:39Z</time>
      </trkpt>
      <trkpt lat="46.56574" lon="4.91111">
        <ele>189</ele>
        <time>2024-09-18T13:07:40Z</time>
      </trkpt>
      <trkpt lat="46.56573" lon="4.91109">
        <ele>189</ele>
        <time>2024-09-18T13:07:41Z</time>
      </trkpt>
      <trkpt lat="46.56572" lon="4.91107">
        <ele>189.2</ele>
        <time>2024-09-18T13:07:42Z</time>
      </trkpt>
      <trkpt lat="46.56571" lon="4.91104">
        <ele>189.2</ele>
        <time>2024-09-18T13:07:43Z</time>
      </trkpt>
      <trkpt lat="46.5657" lon="4.91101">
        <ele>189.2</ele>
        <time>2024-09-18T13:07:44Z</time>
      </trkpt>
      <trkpt lat="46.56569" lon="4.91098">
        <ele>189.2</ele>
        <time>2024-09-18T13:07:45Z</time>
      </trkpt>
      <trkpt lat="46.56568" lon="4.91095">
        <ele>189.4</ele>
        <time>2024-09-18T13:07:46Z</time>
      </trkpt>
      <trkpt lat="46.56567" lon="4.91092">
        <ele>189.4</ele>
        <time>2024-09-18T13:07:47Z</time>
      </trkpt>
      <trkpt lat="46.56566" lon="4.91089">
        <ele>189.4</ele>
        <time>2024-09-18T13:07:48Z</time>
      </trkpt>
      <trkpt lat="46.56566" lon="4.91085">
        <ele>189.6</ele>
        <time>2024-09-18T13:07:49Z</time>
      </trkpt>
      <trkpt lat="46.56566" lon="4.91081">
        <ele>189.6</ele>
        <time>2024-09-18T13:07:50Z</time>
      </trkpt>
      <trkpt lat="46.56566" lon="4.91078">
        <ele>189.6</ele>
        <time>2024-09-18T13:07:51Z</time>
      </trkpt>
      <trkpt lat="46.56566" lon="4.91075">
        <ele>189.6</ele>
        <time>2024-09-18T13:07:52Z</time>
      </trkpt>
      <trkpt lat="46.56565" lon="4.91072">
        <ele>189.6</ele>
        <time>2024-09-18T13:07:53Z</time>
      </trkpt>
      <trkpt lat="46.56565" lon="4.91069">
        <ele>190.2</ele>
        <time>2024-09-18T13:07:54Z</time>
      </trkpt>
      <trkpt lat="46.56564" lon="4.91066">
        <ele>190.4</ele>
        <time>2024-09-18T13:07:55Z</time>
      </trkpt>
      <trkpt lat="46.56563" lon="4.91063">
        <ele>190.4</ele>
        <time>2024-09-18T13:07:56Z</time>
      </trkpt>
      <trkpt lat="46.56562" lon="4.9106">
        <ele>190.4</ele>
        <time>2024-09-18T13:07:57Z</time>
      </trkpt>
      <trkpt lat="46.56561" lon="4.91058">
        <ele>191</ele>
        <time>2024-09-18T13:07:58Z</time>
      </trkpt>
      <trkpt lat="46.5656" lon="4.91056">
        <ele>191</ele>
        <time>2024-09-18T13:07:59Z</time>
      </trkpt>
      <trkpt lat="46.56559" lon="4.91054">
        <ele>191</ele>
        <time>2024-09-18T13:08:00Z</time>
      </trkpt>
      <trkpt lat="46.56558" lon="4.91052">
        <ele>191</ele>
        <time>2024-09-18T13:08:01Z</time>
      </trkpt>
      <trkpt lat="46.56556" lon="4.91051">
        <ele>191</ele>
        <time>2024-09-18T13:08:02Z</time>
      </trkpt>
      <trkpt lat="46.56555" lon="4.91049">
        <ele>191.8</ele>
        <time>2024-09-18T13:08:03Z</time>
      </trkpt>
      <trkpt lat="46.56553" lon="4.91048">
        <ele>192</ele>
        <time>2024-09-18T13:08:04Z</time>
      </trkpt>
      <trkpt lat="46.5655" lon="4.91047">
        <ele>192</ele>
        <time>2024-09-18T13:08:05Z</time>
      </trkpt>
      <trkpt lat="46.56549" lon="4.91046">
        <ele>192</ele>
        <time>2024-09-18T13:08:06Z</time>
      </trkpt>
      <trkpt lat="46.56547" lon="4.91044">
        <ele>192.2</ele>
        <time>2024-09-18T13:08:07Z</time>
      </trkpt>
      <trkpt lat="46.56545" lon="4.91043">
        <ele>192.4</ele>
        <time>2024-09-18T13:08:08Z</time>
      </trkpt>
      <trkpt lat="46.56543" lon="4.91043">
        <ele>192.4</ele>
        <time>2024-09-18T13:08:09Z</time>
      </trkpt>
      <trkpt lat="46.56541" lon="4.91042">
        <ele>192.4</ele>
        <time>2024-09-18T13:08:10Z</time>
      </trkpt>
      <trkpt lat="46.56539" lon="4.91041">
        <ele>192.4</ele>
        <time>2024-09-18T13:08:11Z</time>
      </trkpt>
      <trkpt lat="46.56537" lon="4.9104">
        <ele>192.4</ele>
        <time>2024-09-18T13:08:12Z</time>
      </trkpt>
      <trkpt lat="46.56535" lon="4.91038">
        <ele>192.6</ele>
        <time>2024-09-18T13:08:13Z</time>
      </trkpt>
      <trkpt lat="46.56533" lon="4.91036">
        <ele>192.6</ele>
        <time>2024-09-18T13:08:14Z</time>
      </trkpt>
      <trkpt lat="46.56531" lon="4.91034">
        <ele>192.6</ele>
        <time>2024-09-18T13:08:15Z</time>
      </trkpt>
      <trkpt lat="46.56529" lon="4.91032">
        <ele>192.6</ele>
        <time>2024-09-18T13:08:16Z</time>
      </trkpt>
      <trkpt lat="46.56528" lon="4.91029">
        <ele>192.8</ele>
        <time>2024-09-18T13:08:17Z</time>
      </trkpt>
      <trkpt lat="46.56528" lon="4.91027">
        <ele>193.4</ele>
        <time>2024-09-18T13:08:18Z</time>
      </trkpt>
      <trkpt lat="46.56527" lon="4.91025">
        <ele>193.4</ele>
        <time>2024-09-18T13:08:19Z</time>
      </trkpt>
      <trkpt lat="46.56524" lon="4.91023">
        <ele>193.4</ele>
        <time>2024-09-18T13:08:20Z</time>
      </trkpt>
      <trkpt lat="46.56522" lon="4.91021">
        <ele>193.6</ele>
        <time>2024-09-18T13:08:21Z</time>
      </trkpt>
      <trkpt lat="46.5652" lon="4.9102">
        <ele>194</ele>
        <time>2024-09-18T13:08:22Z</time>
      </trkpt>
      <trkpt lat="46.56518" lon="4.91018">
        <ele>194</ele>
        <time>2024-09-18T13:08:23Z</time>
      </trkpt>
      <trkpt lat="46.56515" lon="4.91017">
        <ele>194</ele>
        <time>2024-09-18T13:08:24Z</time>
      </trkpt>
      <trkpt lat="46.56513" lon="4.91017">
        <ele>194</ele>
        <time>2024-09-18T13:08:25Z</time>
      </trkpt>
      <trkpt lat="46.56511" lon="4.91015">
        <ele>194</ele>
        <time>2024-09-18T13:08:26Z</time>
      </trkpt>
      <trkpt lat="46.56509" lon="4.91013">
        <ele>194.4</ele>
        <time>2024-09-18T13:08:27Z</time>
      </trkpt>
      <trkpt lat="46.56507" lon="4.91011">
        <ele>194.4</ele>
        <time>2024-09-18T13:08:28Z</time>
      </trkpt>
      <trkpt lat="46.56505" lon="4.91009">
        <ele>194.4</ele>
        <time>2024-09-18T13:08:29Z</time>
      </trkpt>
      <trkpt lat="46.56503" lon="4.91007">
        <ele>195.2</ele>
        <time>2024-09-18T13:08:30Z</time>
      </trkpt>
      <trkpt lat="46.56502" lon="4.91006">
        <ele>195.4</ele>
        <time>2024-09-18T13:08:31Z</time>
      </trkpt>
      <trkpt lat="46.565" lon="4.91005">
        <ele>195.4</ele>
        <time>2024-09-18T13:08:32Z</time>
      </trkpt>
      <trkpt lat="46.56498" lon="4.91003">
        <ele>195.4</ele>
        <time>2024-09-18T13:08:33Z</time>
      </trkpt>
      <trkpt lat="46.56496" lon="4.91001">
        <ele>195.4</ele>
        <time>2024-09-18T13:08:34Z</time>
      </trkpt>
      <trkpt lat="46.56494" lon="4.90998">
        <ele>196.2</ele>
        <time>2024-09-18T13:08:35Z</time>
      </trkpt>
      <trkpt lat="46.56492" lon="4.90997">
        <ele>196.2</ele>
        <time>2024-09-18T13:08:36Z</time>
      </trkpt>
      <trkpt lat="46.5649" lon="4.90996">
        <ele>196.2</ele>
        <time>2024-09-18T13:08:37Z</time>
      </trkpt>
      <trkpt lat="46.56488" lon="4.90995">
        <ele>196.2</ele>
        <time>2024-09-18T13:08:38Z</time>
      </trkpt>
      <trkpt lat="46.56487" lon="4.90993">
        <ele>196.6</ele>
        <time>2024-09-18T13:08:39Z</time>
      </trkpt>
      <trkpt lat="46.56485" lon="4.90992">
        <ele>197</ele>
        <time>2024-09-18T13:08:40Z</time>
      </trkpt>
      <trkpt lat="46.56483" lon="4.9099">
        <ele>197</ele>
        <time>2024-09-18T13:08:41Z</time>
      </trkpt>
      <trkpt lat="46.56482" lon="4.90988">
        <ele>197</ele>
        <time>2024-09-18T13:08:42Z</time>
      </trkpt>
      <trkpt lat="46.56481" lon="4.90986">
        <ele>197</ele>
        <time>2024-09-18T13:08:43Z</time>
      </trkpt>
      <trkpt lat="46.56479" lon="4.90984">
        <ele>197.6</ele>
        <time>2024-09-18T13:08:44Z</time>
      </trkpt>
      <trkpt lat="46.56478" lon="4.90983">
        <ele>197.6</ele>
        <time>2024-09-18T13:08:45Z</time>
      </trkpt>
      <trkpt lat="46.56477" lon="4.90981">
        <ele>197.6</ele>
        <time>2024-09-18T13:08:46Z</time>
      </trkpt>
      <trkpt lat="46.56476" lon="4.90978">
        <ele>198.2</ele>
        <time>2024-09-18T13:08:47Z</time>
      </trkpt>
      <trkpt lat="46.56475" lon="4.90976">
        <ele>198.4</ele>
        <time>2024-09-18T13:08:48Z</time>
      </trkpt>
      <trkpt lat="46.56474" lon="4.90974">
        <ele>198.4</ele>
        <time>2024-09-18T13:08:49Z</time>
      </trkpt>
      <trkpt lat="46.56473" lon="4.90972">
        <ele>198.4</ele>
        <time>2024-09-18T13:08:50Z</time>
      </trkpt>
      <trkpt lat="46.56471" lon="4.90971">
        <ele>198.4</ele>
        <time>2024-09-18T13:08:51Z</time>
      </trkpt>
      <trkpt lat="46.56469" lon="4.90969">
        <ele>198.4</ele>
        <time>2024-09-18T13:08:52Z</time>
      </trkpt>
      <trkpt lat="46.56468" lon="4.90968">
        <ele>198.8</ele>
        <time>2024-09-18T13:08:53Z</time>
      </trkpt>
      <trkpt lat="46.56467" lon="4.90966">
        <ele>199</ele>
        <time>2024-09-18T13:08:54Z</time>
      </trkpt>
      <trkpt lat="46.56467" lon="4.90964">
        <ele>199</ele>
        <time>2024-09-18T13:08:55Z</time>
      </trkpt>
      <trkpt lat="46.56467" lon="4.90962">
        <ele>199</ele>
        <time>2024-09-18T13:08:56Z</time>
      </trkpt>
      <trkpt lat="46.56466" lon="4.9096">
        <ele>199.6</ele>
        <time>2024-09-18T13:08:57Z</time>
      </trkpt>
      <trkpt lat="46.56466" lon="4.90958">
        <ele>199.6</ele>
        <time>2024-09-18T13:08:58Z</time>
      </trkpt>
      <trkpt lat="46.56466" lon="4.90957">
        <ele>199.6</ele>
        <time>2024-09-18T13:08:59Z</time>
      </trkpt>
      <trkpt lat="46.56466" lon="4.90955">
        <ele>199.6</ele>
        <time>2024-09-18T13:09:00Z</time>
      </trkpt>
      <trkpt lat="46.56466" lon="4.90953">
        <ele>199.6</ele>
        <time>2024-09-18T13:09:01Z</time>
      </trkpt>
      <trkpt lat="46.56466" lon="4.90953">
        <ele>199.8</ele>
        <time>2024-09-18T13:09:02Z</time>
      </trkpt>
      <trkpt lat="46.56466" lon="4.90953">
        <ele>200</ele>
        <time>2024-09-18T13:09:03Z</time>
      </trkpt>
      <trkpt lat="46.56466" lon="4.90953">
        <ele>200</ele>
        <time>2024-09-18T13:09:04Z</time>
      </trkpt>
      <trkpt lat="46.56466" lon="4.90953">
        <ele>200</ele>
        <time>2024-09-18T13:09:05Z</time>
      </trkpt>
      <trkpt lat="46.56466" lon="4.90953">
        <ele>200</ele>
        <time>2024-09-18T13:09:06Z</time>
      </trkpt>
      <trkpt lat="46.56466" lon="4.90953">
        <ele>200.2</ele>
        <time>2024-09-18T13:09:07Z</time>
      </trkpt>
      <trkpt lat="46.56468" lon="4.9095">
        <ele>199.8</ele>
        <time>2024-09-18T13:10:09Z</time>
      </trkpt>
      <trkpt lat="46.56469" lon="4.90948">
        <ele>199.8</ele>
        <time>2024-09-18T13:10:10Z</time>
      </trkpt>
      <trkpt lat="46.5647" lon="4.90945">
        <ele>200.2</ele>
        <time>2024-09-18T13:10:11Z</time>
      </trkpt>
      <trkpt lat="46.56471" lon="4.90943">
        <ele>200.2</ele>
        <time>2024-09-18T13:10:12Z</time>
      </trkpt>
      <trkpt lat="46.56472" lon="4.9094">
        <ele>200.2</ele>
        <time>2024-09-18T13:10:13Z</time>
      </trkpt>
      <trkpt lat="46.56473" lon="4.90937">
        <ele>200.2</ele>
        <time>2024-09-18T13:10:14Z</time>
      </trkpt>
      <trkpt lat="46.56473" lon="4.90934">
        <ele>199.8</ele>
        <time>2024-09-18T13:10:15Z</time>
      </trkpt>
      <trkpt lat="46.56474" lon="4.90931">
        <ele>199.8</ele>
        <time>2024-09-18T13:10:16Z</time>
      </trkpt>
      <trkpt lat="46.56476" lon="4.90928">
        <ele>199.8</ele>
        <time>2024-09-18T13:10:17Z</time>
      </trkpt>
      <trkpt lat="46.56477" lon="4.90924">
        <ele>200.2</ele>
        <time>2024-09-18T13:10:18Z</time>
      </trkpt>
      <trkpt lat="46.56478" lon="4.90921">
        <ele>200.2</ele>
        <time>2024-09-18T13:10:19Z</time>
      </trkpt>
      <trkpt lat="46.5648" lon="4.90917">
        <ele>200.2</ele>
        <time>2024-09-18T13:10:20Z</time>
      </trkpt>
      <trkpt lat="46.56481" lon="4.90914">
        <ele>200.2</ele>
        <time>2024-09-18T13:10:21Z</time>
      </trkpt>
      <trkpt lat="46.56482" lon="4.90911">
        <ele>200.2</ele>
        <time>2024-09-18T13:10:22Z</time>
      </trkpt>
      <trkpt lat="46.56482" lon="4.90908">
        <ele>200.2</ele>
        <time>2024-09-18T13:10:23Z</time>
      </trkpt>
      <trkpt lat="46.56484" lon="4.90905">
        <ele>200.4</ele>
        <time>2024-09-18T13:10:24Z</time>
      </trkpt>
      <trkpt lat="46.56486" lon="4.90903">
        <ele>200.4</ele>
        <time>2024-09-18T13:10:25Z</time>
      </trkpt>
      <trkpt lat="46.56488" lon="4.90901">
        <ele>200.4</ele>
        <time>2024-09-18T13:10:26Z</time>
      </trkpt>
      <trkpt lat="46.56491" lon="4.90901">
        <ele>200.4</ele>
        <time>2024-09-18T13:10:27Z</time>
      </trkpt>
      <trkpt lat="46.56493" lon="4.90902">
        <ele>200.4</ele>
        <time>2024-09-18T13:10:28Z</time>
      </trkpt>
      <trkpt lat="46.56495" lon="4.90903">
        <ele>200.6</ele>
        <time>2024-09-18T13:10:29Z</time>
      </trkpt>
      <trkpt lat="46.56497" lon="4.90905">
        <ele>200.6</ele>
        <time>2024-09-18T13:10:30Z</time>
      </trkpt>
      <trkpt lat="46.56499" lon="4.90906">
        <ele>200.6</ele>
        <time>2024-09-18T13:10:31Z</time>
      </trkpt>
      <trkpt lat="46.56502" lon="4.90907">
        <ele>200.6</ele>
        <time>2024-09-18T13:10:32Z</time>
      </trkpt>
      <trkpt lat="46.56504" lon="4.90907">
        <ele>200.6</ele>
        <time>2024-09-18T13:10:33Z</time>
      </trkpt>
      <trkpt lat="46.56506" lon="4.90907">
        <ele>201</ele>
        <time>2024-09-18T13:10:34Z</time>
      </trkpt>
      <trkpt lat="46.56509" lon="4.90908">
        <ele>201</ele>
        <time>2024-09-18T13:10:35Z</time>
      </trkpt>
      <trkpt lat="46.5651" lon="4.90909">
        <ele>201</ele>
        <time>2024-09-18T13:10:36Z</time>
      </trkpt>
      <trkpt lat="46.56514" lon="4.9091">
        <ele>201</ele>
        <time>2024-09-18T13:10:37Z</time>
      </trkpt>
      <trkpt lat="46.56515" lon="4.9091">
        <ele>201.2</ele>
        <time>2024-09-18T13:10:38Z</time>
      </trkpt>
      <trkpt lat="46.56517" lon="4.9091">
        <ele>201.2</ele>
        <time>2024-09-18T13:10:39Z</time>
      </trkpt>
      <trkpt lat="46.56518" lon="4.90909">
        <ele>201.2</ele>
        <time>2024-09-18T13:10:40Z</time>
      </trkpt>
      <trkpt lat="46.5652" lon="4.90907">
        <ele>201.4</ele>
        <time>2024-09-18T13:10:41Z</time>
      </trkpt>
      <trkpt lat="46.56521" lon="4.90905">
        <ele>201.8</ele>
        <time>2024-09-18T13:10:42Z</time>
      </trkpt>
      <trkpt lat="46.56521" lon="4.90902">
        <ele>201.8</ele>
        <time>2024-09-18T13:10:43Z</time>
      </trkpt>
      <trkpt lat="46.56521" lon="4.90899">
        <ele>201.8</ele>
        <time>2024-09-18T13:10:44Z</time>
      </trkpt>
      <trkpt lat="46.56521" lon="4.90896">
        <ele>201.8</ele>
        <time>2024-09-18T13:10:45Z</time>
      </trkpt>
      <trkpt lat="46.56522" lon="4.90894">
        <ele>202</ele>
        <time>2024-09-18T13:10:46Z</time>
      </trkpt>
      <trkpt lat="46.56523" lon="4.90892">
        <ele>202</ele>
        <time>2024-09-18T13:10:47Z</time>
      </trkpt>
      <trkpt lat="46.56524" lon="4.9089">
        <ele>202</ele>
        <time>2024-09-18T13:10:48Z</time>
      </trkpt>
      <trkpt lat="46.56525" lon="4.90888">
        <ele>202</ele>
        <time>2024-09-18T13:10:49Z</time>
      </trkpt>
      <trkpt lat="46.56527" lon="4.90885">
        <ele>202</ele>
        <time>2024-09-18T13:10:50Z</time>
      </trkpt>
      <trkpt lat="46.56528" lon="4.90883">
        <ele>202</ele>
        <time>2024-09-18T13:10:51Z</time>
      </trkpt>
      <trkpt lat="46.5653" lon="4.90881">
        <ele>202.2</ele>
        <time>2024-09-18T13:10:52Z</time>
      </trkpt>
      <trkpt lat="46.56532" lon="4.90879">
        <ele>202.2</ele>
        <time>2024-09-18T13:10:53Z</time>
      </trkpt>
      <trkpt lat="46.56533" lon="4.90878">
        <ele>202.2</ele>
        <time>2024-09-18T13:10:54Z</time>
      </trkpt>
      <trkpt lat="46.56534" lon="4.90876">
        <ele>202.2</ele>
        <time>2024-09-18T13:10:55Z</time>
      </trkpt>
      <trkpt lat="46.56536" lon="4.90875">
        <ele>202.4</ele>
        <time>2024-09-18T13:10:56Z</time>
      </trkpt>
      <trkpt lat="46.56538" lon="4.90873">
        <ele>202.4</ele>
        <time>2024-09-18T13:10:57Z</time>
      </trkpt>
      <trkpt lat="46.5654" lon="4.90872">
        <ele>202.4</ele>
        <time>2024-09-18T13:10:58Z</time>
      </trkpt>
      <trkpt lat="46.56542" lon="4.9087">
        <ele>202.4</ele>
        <time>2024-09-18T13:10:59Z</time>
      </trkpt>
      <trkpt lat="46.56544" lon="4.90868">
        <ele>202.6</ele>
        <time>2024-09-18T13:11:00Z</time>
      </trkpt>
      <trkpt lat="46.56545" lon="4.90867">
        <ele>202.6</ele>
        <time>2024-09-18T13:11:01Z</time>
      </trkpt>
      <trkpt lat="46.56547" lon="4.90866">
        <ele>202.6</ele>
        <time>2024-09-18T13:11:02Z</time>
      </trkpt>
      <trkpt lat="46.56549" lon="4.90864">
        <ele>202.8</ele>
        <time>2024-09-18T13:11:03Z</time>
      </trkpt>
      <trkpt lat="46.5655" lon="4.90862">
        <ele>202.8</ele>
        <time>2024-09-18T13:11:04Z</time>
      </trkpt>
      <trkpt lat="46.56552" lon="4.9086">
        <ele>203</ele>
        <time>2024-09-18T13:11:05Z</time>
      </trkpt>
      <trkpt lat="46.56553" lon="4.90859">
        <ele>203</ele>
        <time>2024-09-18T13:11:06Z</time>
      </trkpt>
      <trkpt lat="46.56555" lon="4.90857">
        <ele>203</ele>
        <time>2024-09-18T13:11:07Z</time>
      </trkpt>
      <trkpt lat="46.56556" lon="4.90855">
        <ele>203.2</ele>
        <time>2024-09-18T13:11:08Z</time>
      </trkpt>
      <trkpt lat="46.56558" lon="4.90854">
        <ele>203.2</ele>
        <time>2024-09-18T13:11:09Z</time>
      </trkpt>
      <trkpt lat="46.56559" lon="4.90852">
        <ele>203.2</ele>
        <time>2024-09-18T13:11:10Z</time>
      </trkpt>
      <trkpt lat="46.56561" lon="4.9085">
        <ele>203.2</ele>
        <time>2024-09-18T13:11:11Z</time>
      </trkpt>
      <trkpt lat="46.56562" lon="4.90849">
        <ele>203.2</ele>
        <time>2024-09-18T13:11:12Z</time>
      </trkpt>
      <trkpt lat="46.56564" lon="4.90847">
        <ele>203.6</ele>
        <time>2024-09-18T13:11:13Z</time>
      </trkpt>
      <trkpt lat="46.56566" lon="4.90846">
        <ele>203.8</ele>
        <time>2024-09-18T13:11:14Z</time>
      </trkpt>
      <trkpt lat="46.56567" lon="4.90844">
        <ele>203.8</ele>
        <time>2024-09-18T13:11:15Z</time>
      </trkpt>
      <trkpt lat="46.56568" lon="4.90843">
        <ele>203.8</ele>
        <time>2024-09-18T13:11:16Z</time>
      </trkpt>
      <trkpt lat="46.5657" lon="4.90842">
        <ele>203.8</ele>
        <time>2024-09-18T13:11:17Z</time>
      </trkpt>
      <trkpt lat="46.56571" lon="4.90842">
        <ele>204</ele>
        <time>2024-09-18T13:11:18Z</time>
      </trkpt>
      <trkpt lat="46.56572" lon="4.90841">
        <ele>204.2</ele>
        <time>2024-09-18T13:11:19Z</time>
      </trkpt>
      <trkpt lat="46.56573" lon="4.9084">
        <ele>204.2</ele>
        <time>2024-09-18T13:11:20Z</time>
      </trkpt>
      <trkpt lat="46.56574" lon="4.9084">
        <ele>204.2</ele>
        <time>2024-09-18T13:11:21Z</time>
      </trkpt>
      <trkpt lat="46.56575" lon="4.9084">
        <ele>204.2</ele>
        <time>2024-09-18T13:11:22Z</time>
      </trkpt>
      <trkpt lat="46.56576" lon="4.9084">
        <ele>204.4</ele>
        <time>2024-09-18T13:11:23Z</time>
      </trkpt>
      <trkpt lat="46.56578" lon="4.9084">
        <ele>204.4</ele>
        <time>2024-09-18T13:11:24Z</time>
      </trkpt>
      <trkpt lat="46.56579" lon="4.90841">
        <ele>204.4</ele>
        <time>2024-09-18T13:11:25Z</time>
      </trkpt>
      <trkpt lat="46.56581" lon="4.90842">
        <ele>204.4</ele>
        <time>2024-09-18T13:11:26Z</time>
      </trkpt>
      <trkpt lat="46.56582" lon="4.90843">
        <ele>204.4</ele>
        <time>2024-09-18T13:11:27Z</time>
      </trkpt>
      <trkpt lat="46.56583" lon="4.90845">
        <ele>204</ele>
        <time>2024-09-18T13:11:28Z</time>
      </trkpt>
      <trkpt lat="46.56583" lon="4.90846">
        <ele>204</ele>
        <time>2024-09-18T13:11:29Z</time>
      </trkpt>
      <trkpt lat="46.56584" lon="4.90848">
        <ele>204</ele>
        <time>2024-09-18T13:11:30Z</time>
      </trkpt>
      <trkpt lat="46.56585" lon="4.90849">
        <ele>204</ele>
        <time>2024-09-18T13:11:31Z</time>
      </trkpt>
      <trkpt lat="46.56585" lon="4.90851">
        <ele>204.4</ele>
        <time>2024-09-18T13:11:32Z</time>
      </trkpt>
      <trkpt lat="46.56586" lon="4.90852">
        <ele>204.4</ele>
        <time>2024-09-18T13:11:33Z</time>
      </trkpt>
      <trkpt lat="46.56587" lon="4.90854">
        <ele>204.4</ele>
        <time>2024-09-18T13:11:34Z</time>
      </trkpt>
      <trkpt lat="46.56587" lon="4.90855">
        <ele>204.4</ele>
        <time>2024-09-18T13:11:35Z</time>
      </trkpt>
      <trkpt lat="46.56588" lon="4.90856">
        <ele>204.4</ele>
        <time>2024-09-18T13:11:36Z</time>
      </trkpt>
      <trkpt lat="46.56589" lon="4.90857">
        <ele>204.6</ele>
        <time>2024-09-18T13:11:37Z</time>
      </trkpt>
      <trkpt lat="46.5659" lon="4.90858">
        <ele>204.6</ele>
        <time>2024-09-18T13:11:38Z</time>
      </trkpt>
      <trkpt lat="46.5659" lon="4.9086">
        <ele>204.6</ele>
        <time>2024-09-18T13:11:39Z</time>
      </trkpt>
      <trkpt lat="46.56591" lon="4.90862">
        <ele>204.6</ele>
        <time>2024-09-18T13:11:40Z</time>
      </trkpt>
      <trkpt lat="46.56592" lon="4.90865">
        <ele>204.8</ele>
        <time>2024-09-18T13:11:41Z</time>
      </trkpt>
      <trkpt lat="46.56593" lon="4.90867">
        <ele>204.8</ele>
        <time>2024-09-18T13:11:42Z</time>
      </trkpt>
      <trkpt lat="46.56593" lon="4.9087">
        <ele>204.8</ele>
        <time>2024-09-18T13:11:43Z</time>
      </trkpt>
      <trkpt lat="46.56595" lon="4.90873">
        <ele>204.8</ele>
        <time>2024-09-18T13:11:44Z</time>
      </trkpt>
      <trkpt lat="46.56596" lon="4.90875">
        <ele>204.8</ele>
        <time>2024-09-18T13:11:45Z</time>
      </trkpt>
      <trkpt lat="46.56598" lon="4.90878">
        <ele>204.8</ele>
        <time>2024-09-18T13:11:46Z</time>
      </trkpt>
      <trkpt lat="46.56599" lon="4.90881">
        <ele>204.8</ele>
        <time>2024-09-18T13:11:47Z</time>
      </trkpt>
      <trkpt lat="46.566" lon="4.90884">
        <ele>204.8</ele>
        <time>2024-09-18T13:11:48Z</time>
      </trkpt>
      <trkpt lat="46.56601" lon="4.90888">
        <ele>204.6</ele>
        <time>2024-09-18T13:11:49Z</time>
      </trkpt>
      <trkpt lat="46.56602" lon="4.90892">
        <ele>204.4</ele>
        <time>2024-09-18T13:11:50Z</time>
      </trkpt>
      <trkpt lat="46.56603" lon="4.90896">
        <ele>204.4</ele>
        <time>2024-09-18T13:11:51Z</time>
      </trkpt>
      <trkpt lat="46.56604" lon="4.90899">
        <ele>204.4</ele>
        <time>2024-09-18T13:11:52Z</time>
      </trkpt>
      <trkpt lat="46.56605" lon="4.90902">
        <ele>204.4</ele>
        <time>2024-09-18T13:11:53Z</time>
      </trkpt>
      <trkpt lat="46.56604" lon="4.90902">
        <ele>204.2</ele>
        <time>2024-09-18T13:11:54Z</time>
      </trkpt>
      <trkpt lat="46.56603" lon="4.90901">
        <ele>204.2</ele>
        <time>2024-09-18T13:11:55Z</time>
      </trkpt>
      <trkpt lat="46.56603" lon="4.90901">
        <ele>204.2</ele>
        <time>2024-09-18T13:11:56Z</time>
      </trkpt>
      <trkpt lat="46.56602" lon="4.909">
        <ele>204.2</ele>
        <time>2024-09-18T13:11:57Z</time>
      </trkpt>
      <trkpt lat="46.56601" lon="4.909">
        <ele>203.8</ele>
        <time>2024-09-18T13:14:14Z</time>
      </trkpt>
      <trkpt lat="46.56601" lon="4.90899">
        <ele>203.8</ele>
        <time>2024-09-18T13:14:15Z</time>
      </trkpt>
      <trkpt lat="46.566" lon="4.90899">
        <ele>203.8</ele>
        <time>2024-09-18T13:14:16Z</time>
      </trkpt>
      <trkpt lat="46.566" lon="4.90898">
        <ele>203.8</ele>
        <time>2024-09-18T13:14:17Z</time>
      </trkpt>
      <trkpt lat="46.56599" lon="4.90898">
        <ele>203.8</ele>
        <time>2024-09-18T13:14:22Z</time>
      </trkpt>
      <trkpt lat="46.56598" lon="4.90897">
        <ele>204.2</ele>
        <time>2024-09-18T13:14:23Z</time>
      </trkpt>
      <trkpt lat="46.56598" lon="4.90897">
        <ele>204.2</ele>
        <time>2024-09-18T13:14:24Z</time>
      </trkpt>
      <trkpt lat="46.56597" lon="4.90897">
        <ele>204.2</ele>
        <time>2024-09-18T13:14:25Z</time>
      </trkpt>
      <trkpt lat="46.56597" lon="4.90896">
        <ele>204.2</ele>
        <time>2024-09-18T13:14:26Z</time>
      </trkpt>
      <trkpt lat="46.56596" lon="4.90896">
        <ele>204.4</ele>
        <time>2024-09-18T13:14:27Z</time>
      </trkpt>
      <trkpt lat="46.56595" lon="4.90895">
        <ele>204.4</ele>
        <time>2024-09-18T13:14:28Z</time>
      </trkpt>
      <trkpt lat="46.56595" lon="4.90895">
        <ele>204.4</ele>
        <time>2024-09-18T13:14:29Z</time>
      </trkpt>
      <trkpt lat="46.56594" lon="4.90894">
        <ele>204.4</ele>
        <time>2024-09-18T13:14:30Z</time>
      </trkpt>
      <trkpt lat="46.56594" lon="4.90894">
        <ele>204.4</ele>
        <time>2024-09-18T13:14:31Z</time>
      </trkpt>
      <trkpt lat="46.56593" lon="4.90893">
        <ele>204.6</ele>
        <time>2024-09-18T13:14:32Z</time>
      </trkpt>
      <trkpt lat="46.56592" lon="4.90893">
        <ele>204.6</ele>
        <time>2024-09-18T13:14:33Z</time>
      </trkpt>
      <trkpt lat="46.56592" lon="4.90892">
        <ele>204.6</ele>
        <time>2024-09-18T13:14:34Z</time>
      </trkpt>
      <trkpt lat="46.56591" lon="4.90892">
        <ele>204.8</ele>
        <time>2024-09-18T13:14:35Z</time>
      </trkpt>
      <trkpt lat="46.5659" lon="4.90891">
        <ele>204.8</ele>
        <time>2024-09-18T13:14:36Z</time>
      </trkpt>
      <trkpt lat="46.5659" lon="4.90891">
        <ele>204.8</ele>
        <time>2024-09-18T13:14:37Z</time>
      </trkpt>
      <trkpt lat="46.56589" lon="4.9089">
        <ele>204.8</ele>
        <time>2024-09-18T13:14:38Z</time>
      </trkpt>
      <trkpt lat="46.56589" lon="4.9089">
        <ele>204.8</ele>
        <time>2024-09-18T13:14:39Z</time>
      </trkpt>
      <trkpt lat="46.56588" lon="4.90889">
        <ele>204.8</ele>
        <time>2024-09-18T13:14:40Z</time>
      </trkpt>
      <trkpt lat="46.56587" lon="4.90889">
        <ele>204.8</ele>
        <time>2024-09-18T13:14:41Z</time>
      </trkpt>
      <trkpt lat="46.56587" lon="4.90888">
        <ele>204.8</ele>
        <time>2024-09-18T13:14:42Z</time>
      </trkpt>
      <trkpt lat="46.56586" lon="4.90888">
        <ele>204.8</ele>
        <time>2024-09-18T13:14:43Z</time>
      </trkpt>
      <trkpt lat="46.56586" lon="4.90887">
        <ele>204.8</ele>
        <time>2024-09-18T13:14:44Z</time>
      </trkpt>
      <trkpt lat="46.56585" lon="4.90887">
        <ele>204.8</ele>
        <time>2024-09-18T13:14:45Z</time>
      </trkpt>
      <trkpt lat="46.56584" lon="4.90887">
        <ele>204.8</ele>
        <time>2024-09-18T13:14:46Z</time>
      </trkpt>
      <trkpt lat="46.56584" lon="4.90886">
        <ele>204.8</ele>
        <time>2024-09-18T13:14:47Z</time>
      </trkpt>
      <trkpt lat="46.56583" lon="4.90886">
        <ele>204.8</ele>
        <time>2024-09-18T13:14:48Z</time>
      </trkpt>
      <trkpt lat="46.56582" lon="4.90885">
        <ele>204.8</ele>
        <time>2024-09-18T13:14:49Z</time>
      </trkpt>
      <trkpt lat="46.56582" lon="4.90885">
        <ele>204.8</ele>
        <time>2024-09-18T13:14:50Z</time>
      </trkpt>
      <trkpt lat="46.56581" lon="4.90884">
        <ele>204.8</ele>
        <time>2024-09-18T13:14:51Z</time>
      </trkpt>
      <trkpt lat="46.56581" lon="4.90884">
        <ele>204.8</ele>
        <time>2024-09-18T13:14:52Z</time>
      </trkpt>
      <trkpt lat="46.5658" lon="4.90883">
        <ele>204.8</ele>
        <time>2024-09-18T13:14:53Z</time>
      </trkpt>
      <trkpt lat="46.56579" lon="4.90883">
        <ele>204.8</ele>
        <time>2024-09-18T13:14:54Z</time>
      </trkpt>
      <trkpt lat="46.56579" lon="4.90882">
        <ele>204.8</ele>
        <time>2024-09-18T13:14:55Z</time>
      </trkpt>
      <trkpt lat="46.56578" lon="4.90882">
        <ele>204.8</ele>
        <time>2024-09-18T13:14:56Z</time>
      </trkpt>
      <trkpt lat="46.56578" lon="4.90881">
        <ele>204.8</ele>
        <time>2024-09-18T13:14:57Z</time>
      </trkpt>
      <trkpt lat="46.56577" lon="4.90881">
        <ele>204.8</ele>
        <time>2024-09-18T13:14:58Z</time>
      </trkpt>
      <trkpt lat="46.56576" lon="4.9088">
        <ele>204.8</ele>
        <time>2024-09-18T13:14:59Z</time>
      </trkpt>
      <trkpt lat="46.56576" lon="4.9088">
        <ele>204.8</ele>
        <time>2024-09-18T13:15:00Z</time>
      </trkpt>
      <trkpt lat="46.56575" lon="4.90879">
        <ele>204.8</ele>
        <time>2024-09-18T13:15:01Z</time>
      </trkpt>
      <trkpt lat="46.56575" lon="4.90879">
        <ele>204.8</ele>
        <time>2024-09-18T13:15:02Z</time>
      </trkpt>
      <trkpt lat="46.56574" lon="4.90878">
        <ele>204.8</ele>
        <time>2024-09-18T13:15:03Z</time>
      </trkpt>
      <trkpt lat="46.56573" lon="4.90878">
        <ele>204.6</ele>
        <time>2024-09-18T13:15:04Z</time>
      </trkpt>
      <trkpt lat="46.56573" lon="4.90877">
        <ele>204.6</ele>
        <time>2024-09-18T13:15:05Z</time>
      </trkpt>
      <trkpt lat="46.56572" lon="4.90877">
        <ele>204.6</ele>
        <time>2024-09-18T13:15:06Z</time>
      </trkpt>
      <trkpt lat="46.56571" lon="4.90876">
        <ele>204.6</ele>
        <time>2024-09-18T13:15:07Z</time>
      </trkpt>
      <trkpt lat="46.56571" lon="4.90876">
        <ele>204.6</ele>
        <time>2024-09-18T13:15:08Z</time>
      </trkpt>
      <trkpt lat="46.5657" lon="4.90876">
        <ele>204.6</ele>
        <time>2024-09-18T13:15:09Z</time>
      </trkpt>
      <trkpt lat="46.5657" lon="4.90875">
        <ele>204.6</ele>
        <time>2024-09-18T13:15:10Z</time>
      </trkpt>
      <trkpt lat="46.56569" lon="4.90875">
        <ele>204.6</ele>
        <time>2024-09-18T13:15:11Z</time>
      </trkpt>
      <trkpt lat="46.56568" lon="4.90874">
        <ele>204.6</ele>
        <time>2024-09-18T13:15:12Z</time>
      </trkpt>
      <trkpt lat="46.56568" lon="4.90874">
        <ele>204.6</ele>
        <time>2024-09-18T13:15:13Z</time>
      </trkpt>
      <trkpt lat="46.56567" lon="4.90873">
        <ele>204.6</ele>
        <time>2024-09-18T13:15:14Z</time>
      </trkpt>
      <trkpt lat="46.56567" lon="4.90873">
        <ele>204.6</ele>
        <time>2024-09-18T13:15:15Z</time>
      </trkpt>
      <trkpt lat="46.56566" lon="4.90872">
        <ele>204.6</ele>
        <time>2024-09-18T13:15:16Z</time>
      </trkpt>
      <trkpt lat="46.56565" lon="4.90872">
        <ele>204.6</ele>
        <time>2024-09-18T13:15:17Z</time>
      </trkpt>
      <trkpt lat="46.56565" lon="4.90871">
        <ele>204.6</ele>
        <time>2024-09-18T13:15:18Z</time>
      </trkpt>
      <trkpt lat="46.56564" lon="4.90871">
        <ele>204.6</ele>
        <time>2024-09-18T13:15:19Z</time>
      </trkpt>
      <trkpt lat="46.56563" lon="4.9087">
        <ele>204.6</ele>
        <time>2024-09-18T13:15:20Z</time>
      </trkpt>
      <trkpt lat="46.56563" lon="4.9087">
        <ele>204.6</ele>
        <time>2024-09-18T13:15:21Z</time>
      </trkpt>
      <trkpt lat="46.56562" lon="4.90869">
        <ele>204.6</ele>
        <time>2024-09-18T13:15:22Z</time>
      </trkpt>
      <trkpt lat="46.56562" lon="4.90869">
        <ele>204.6</ele>
        <time>2024-09-18T13:15:23Z</time>
      </trkpt>
      <trkpt lat="46.56561" lon="4.90868">
        <ele>204.8</ele>
        <time>2024-09-18T13:15:24Z</time>
      </trkpt>
      <trkpt lat="46.5656" lon="4.90868">
        <ele>204.6</ele>
        <time>2024-09-18T13:15:25Z</time>
      </trkpt>
      <trkpt lat="46.5656" lon="4.90867">
        <ele>204.6</ele>
        <time>2024-09-18T13:15:26Z</time>
      </trkpt>
      <trkpt lat="46.56559" lon="4.90867">
        <ele>204.6</ele>
        <time>2024-09-18T13:15:27Z</time>
      </trkpt>
      <trkpt lat="46.56559" lon="4.90866">
        <ele>204.6</ele>
        <time>2024-09-18T13:15:28Z</time>
      </trkpt>
      <trkpt lat="46.56558" lon="4.90866">
        <ele>204.6</ele>
        <time>2024-09-18T13:15:29Z</time>
      </trkpt>
      <trkpt lat="46.56557" lon="4.90865">
        <ele>204.4</ele>
        <time>2024-09-18T13:15:30Z</time>
      </trkpt>
      <trkpt lat="46.56557" lon="4.90865">
        <ele>204.4</ele>
        <time>2024-09-18T13:15:31Z</time>
      </trkpt>
      <trkpt lat="46.56556" lon="4.90865">
        <ele>204.4</ele>
        <time>2024-09-18T13:15:32Z</time>
      </trkpt>
      <trkpt lat="46.56556" lon="4.90864">
        <ele>204.4</ele>
        <time>2024-09-18T13:15:33Z</time>
      </trkpt>
      <trkpt lat="46.56555" lon="4.90864">
        <ele>204.4</ele>
        <time>2024-09-18T13:15:34Z</time>
      </trkpt>
      <trkpt lat="46.56554" lon="4.90863">
        <ele>204.4</ele>
        <time>2024-09-18T13:15:35Z</time>
      </trkpt>
      <trkpt lat="46.56554" lon="4.90863">
        <ele>204.4</ele>
        <time>2024-09-18T13:15:36Z</time>
      </trkpt>
      <trkpt lat="46.56553" lon="4.90862">
        <ele>204.4</ele>
        <time>2024-09-18T13:15:37Z</time>
      </trkpt>
      <trkpt lat="46.56552" lon="4.90862">
        <ele>204.2</ele>
        <time>2024-09-18T13:15:38Z</time>
      </trkpt>
      <trkpt lat="46.56552" lon="4.90861">
        <ele>204.6</ele>
        <time>2024-09-18T13:18:45Z</time>
      </trkpt>
      <trkpt lat="46.56551" lon="4.90861">
        <ele>204.6</ele>
        <time>2024-09-18T13:18:46Z</time>
      </trkpt>
      <trkpt lat="46.56551" lon="4.9086">
        <ele>204.6</ele>
        <time>2024-09-18T13:18:47Z</time>
      </trkpt>
      <trkpt lat="46.5655" lon="4.9086">
        <ele>204.6</ele>
        <time>2024-09-18T13:18:48Z</time>
      </trkpt>
      <trkpt lat="46.56549" lon="4.90859">
        <ele>203.6</ele>
        <time>2024-09-18T13:18:49Z</time>
      </trkpt>
      <trkpt lat="46.56549" lon="4.90859">
        <ele>203.6</ele>
        <time>2024-09-18T13:18:50Z</time>
      </trkpt>
      <trkpt lat="46.56548" lon="4.90858">
        <ele>203.6</ele>
        <time>2024-09-18T13:18:51Z</time>
      </trkpt>
      <trkpt lat="46.56548" lon="4.90858">
        <ele>203.6</ele>
        <time>2024-09-18T13:18:52Z</time>
      </trkpt>
      <trkpt lat="46.56547" lon="4.90854">
        <ele>203.4</ele>
        <time>2024-09-18T13:18:53Z</time>
      </trkpt>
      <trkpt lat="46.56551" lon="4.90847">
        <ele>203</ele>
        <time>2024-09-18T13:18:54Z</time>
      </trkpt>
      <trkpt lat="46.56552" lon="4.90846">
        <ele>203</ele>
        <time>2024-09-18T13:18:55Z</time>
      </trkpt>
      <trkpt lat="46.56555" lon="4.9084">
        <ele>203</ele>
        <time>2024-09-18T13:18:56Z</time>
      </trkpt>
      <trkpt lat="46.56556" lon="4.90838">
        <ele>203.4</ele>
        <time>2024-09-18T13:18:57Z</time>
      </trkpt>
      <trkpt lat="46.56556" lon="4.90837">
        <ele>203.4</ele>
        <time>2024-09-18T13:18:58Z</time>
      </trkpt>
      <trkpt lat="46.56556" lon="4.90836">
        <ele>203.4</ele>
        <time>2024-09-18T13:18:59Z</time>
      </trkpt>
      <trkpt lat="46.56557" lon="4.90834">
        <ele>203.4</ele>
        <time>2024-09-18T13:19:00Z</time>
      </trkpt>
      <trkpt lat="46.56557" lon="4.90833">
        <ele>203.4</ele>
        <time>2024-09-18T13:19:01Z</time>
      </trkpt>
      <trkpt lat="46.56558" lon="4.90831">
        <ele>203.4</ele>
        <time>2024-09-18T13:19:02Z</time>
      </trkpt>
      <trkpt lat="46.56561" lon="4.90821">
        <ele>203.4</ele>
        <time>2024-09-18T13:19:03Z</time>
      </trkpt>
      <trkpt lat="46.56562" lon="4.90825">
        <ele>203.4</ele>
        <time>2024-09-18T13:19:04Z</time>
      </trkpt>
      <trkpt lat="46.56562" lon="4.90825">
        <ele>203.4</ele>
        <time>2024-09-18T13:19:05Z</time>
      </trkpt>
      <trkpt lat="46.56613" lon="4.9098">
        <ele>203.6</ele>
        <time>2024-09-18T13:23:19Z</time>
      </trkpt>
      <trkpt lat="46.56612" lon="4.90982">
        <ele>203.6</ele>
        <time>2024-09-18T13:23:20Z</time>
      </trkpt>
      <trkpt lat="46.56613" lon="4.90988">
        <ele>203.6</ele>
        <time>2024-09-18T13:23:21Z</time>
      </trkpt>
      <trkpt lat="46.56614" lon="4.90991">
        <ele>203.6</ele>
        <time>2024-09-18T13:23:22Z</time>
      </trkpt>
      <trkpt lat="46.56614" lon="4.90989">
        <ele>203.6</ele>
        <time>2024-09-18T13:23:23Z</time>
      </trkpt>
      <trkpt lat="46.56615" lon="4.90989">
        <ele>203.6</ele>
        <time>2024-09-18T13:23:24Z</time>
      </trkpt>
      <trkpt lat="46.56613" lon="4.90987">
        <ele>203.6</ele>
        <time>2024-09-18T13:23:25Z</time>
      </trkpt>
      <trkpt lat="46.56612" lon="4.90989">
        <ele>203.6</ele>
        <time>2024-09-18T13:23:26Z</time>
      </trkpt>
      <trkpt lat="46.5661" lon="4.90992">
        <ele>203.6</ele>
        <time>2024-09-18T13:23:27Z</time>
      </trkpt>
      <trkpt lat="46.56611" lon="4.90992">
        <ele>203.6</ele>
        <time>2024-09-18T13:23:28Z</time>
      </trkpt>
      <trkpt lat="46.5661" lon="4.90987">
        <ele>203.6</ele>
        <time>2024-09-18T13:23:29Z</time>
      </trkpt>
      <trkpt lat="46.5661" lon="4.90986">
        <ele>203.6</ele>
        <time>2024-09-18T13:23:30Z</time>
      </trkpt>
      <trkpt lat="46.5661" lon="4.90982">
        <ele>203.6</ele>
        <time>2024-09-18T13:23:31Z</time>
      </trkpt>
      <trkpt lat="46.56647" lon="4.90844">
        <ele>203.8</ele>
        <time>2024-09-18T13:24:28Z</time>
      </trkpt>
      <trkpt lat="46.56646" lon="4.90848">
        <ele>204</ele>
        <time>2024-09-18T13:24:29Z</time>
      </trkpt>
      <trkpt lat="46.56644" lon="4.90852">
        <ele>204</ele>
        <time>2024-09-18T13:24:30Z</time>
      </trkpt>
      <trkpt lat="46.56644" lon="4.90852">
        <ele>204</ele>
        <time>2024-09-18T13:24:31Z</time>
      </trkpt>
      <trkpt lat="46.56644" lon="4.90852">
        <ele>204</ele>
        <time>2024-09-18T13:24:32Z</time>
      </trkpt>
      <trkpt lat="46.56644" lon="4.90852">
        <ele>203.8</ele>
        <time>2024-09-18T13:24:33Z</time>
      </trkpt>
      <trkpt lat="46.56622" lon="4.90872">
        <ele>204</ele>
        <time>2024-09-18T13:24:37Z</time>
      </trkpt>
      <trkpt lat="46.56618" lon="4.90872">
        <ele>204</ele>
        <time>2024-09-18T13:24:38Z</time>
      </trkpt>
      <trkpt lat="46.56619" lon="4.90883">
        <ele>204</ele>
        <time>2024-09-18T13:24:39Z</time>
      </trkpt>
      <trkpt lat="46.56618" lon="4.9089">
        <ele>204</ele>
        <time>2024-09-18T13:24:40Z</time>
      </trkpt>
      <trkpt lat="46.56617" lon="4.90902">
        <ele>204</ele>
        <time>2024-09-18T13:24:41Z</time>
      </trkpt>
      <trkpt lat="46.56615" lon="4.9091">
        <ele>203.8</ele>
        <time>2024-09-18T13:24:42Z</time>
      </trkpt>
      <trkpt lat="46.56614" lon="4.90913">
        <ele>203.8</ele>
        <time>2024-09-18T13:24:43Z</time>
      </trkpt>
      <trkpt lat="46.56612" lon="4.9092">
        <ele>203.8</ele>
        <time>2024-09-18T13:24:44Z</time>
      </trkpt>
      <trkpt lat="46.56611" lon="4.90921">
        <ele>203.8</ele>
        <time>2024-09-18T13:24:45Z</time>
      </trkpt>
      <trkpt lat="46.56611" lon="4.90924">
        <ele>203.8</ele>
        <time>2024-09-18T13:24:46Z</time>
      </trkpt>
      <trkpt lat="46.5661" lon="4.90931">
        <ele>203.8</ele>
        <time>2024-09-18T13:24:47Z</time>
      </trkpt>
      <trkpt lat="46.5661" lon="4.90933">
        <ele>203.8</ele>
        <time>2024-09-18T13:24:48Z</time>
      </trkpt>
      <trkpt lat="46.5661" lon="4.90938">
        <ele>203.8</ele>
        <time>2024-09-18T13:24:49Z</time>
      </trkpt>
      <trkpt lat="46.5661" lon="4.90938">
        <ele>203.2</ele>
        <time>2024-09-18T13:24:50Z</time>
      </trkpt>
      <trkpt lat="46.5661" lon="4.90938">
        <ele>203.2</ele>
        <time>2024-09-18T13:24:51Z</time>
      </trkpt>
      <trkpt lat="46.5661" lon="4.90938">
        <ele>203.2</ele>
        <time>2024-09-18T13:24:52Z</time>
      </trkpt>
      <trkpt lat="46.5661" lon="4.90938">
        <ele>203.2</ele>
        <time>2024-09-18T13:24:53Z</time>
      </trkpt>
      <trkpt lat="46.5661" lon="4.90938">
        <ele>203.6</ele>
        <time>2024-09-18T13:24:54Z</time>
      </trkpt>
      <trkpt lat="46.5661" lon="4.90938">
        <ele>203.6</ele>
        <time>2024-09-18T13:24:55Z</time>
      </trkpt>
      <trkpt lat="46.5661" lon="4.90938">
        <ele>203.6</ele>
        <time>2024-09-18T13:24:56Z</time>
      </trkpt>
      <trkpt lat="46.5661" lon="4.90938">
        <ele>203.6</ele>
        <time>2024-09-18T13:24:57Z</time>
      </trkpt>
      <trkpt lat="46.5661" lon="4.90938">
        <ele>203.6</ele>
        <time>2024-09-18T13:24:58Z</time>
      </trkpt>
      <trkpt lat="46.5661" lon="4.90938">
        <ele>203.6</ele>
        <time>2024-09-18T13:24:59Z</time>
      </trkpt>
      <trkpt lat="46.5661" lon="4.90938">
        <ele>203.6</ele>
        <time>2024-09-18T13:25:00Z</time>
      </trkpt>
      <trkpt lat="46.5661" lon="4.90938">
        <ele>203.6</ele>
        <time>2024-09-18T13:25:01Z</time>
      </trkpt>
      <trkpt lat="46.5661" lon="4.90938">
        <ele>203.4</ele>
        <time>2024-09-18T13:25:02Z</time>
      </trkpt>
      <trkpt lat="46.5661" lon="4.90938">
        <ele>203.4</ele>
        <time>2024-09-18T13:25:03Z</time>
      </trkpt>
      <trkpt lat="46.5661" lon="4.90938">
        <ele>203.4</ele>
        <time>2024-09-18T13:25:04Z</time>
      </trkpt>
      <trkpt lat="46.5661" lon="4.90938">
        <ele>203.4</ele>
        <time>2024-09-18T13:25:05Z</time>
      </trkpt>
      <trkpt lat="46.5661" lon="4.90938">
        <ele>203.4</ele>
        <time>2024-09-18T13:25:06Z</time>
      </trkpt>
      <trkpt lat="46.5661" lon="4.90938">
        <ele>203.4</ele>
        <time>2024-09-18T13:25:07Z</time>
      </trkpt>
      <trkpt lat="46.5661" lon="4.90938">
        <ele>203.4</ele>
        <time>2024-09-18T13:25:08Z</time>
      </trkpt>
      <trkpt lat="46.5661" lon="4.90938">
        <ele>203.4</ele>
        <time>2024-09-18T13:25:09Z</time>
      </trkpt>
      <trkpt lat="46.5661" lon="4.90938">
        <ele>203.4</ele>
        <time>2024-09-18T13:25:10Z</time>
      </trkpt>
      <trkpt lat="46.5661" lon="4.90938">
        <ele>203.4</ele>
        <time>2024-09-18T13:25:11Z</time>
      </trkpt>
      <trkpt lat="46.5661" lon="4.90938">
        <ele>203.4</ele>
        <time>2024-09-18T13:25:12Z</time>
      </trkpt>
      <trkpt lat="46.5661" lon="4.90938">
        <ele>203</ele>
        <time>2024-09-18T13:25:13Z</time>
      </trkpt>
      <trkpt lat="46.5661" lon="4.90938">
        <ele>203</ele>
        <time>2024-09-18T13:25:14Z</time>
      </trkpt>
      <trkpt lat="46.5661" lon="4.90938">
        <ele>203</ele>
        <time>2024-09-18T13:25:15Z</time>
      </trkpt>
      <trkpt lat="46.5661" lon="4.90938">
        <ele>203</ele>
        <time>2024-09-18T13:25:16Z</time>
      </trkpt>
      <trkpt lat="46.5661" lon="4.90938">
        <ele>203.2</ele>
        <time>2024-09-18T13:25:17Z</time>
      </trkpt>
      <trkpt lat="46.5661" lon="4.90938">
        <ele>203.4</ele>
        <time>2024-09-18T13:25:18Z</time>
      </trkpt>
      <trkpt lat="46.5661" lon="4.90938">
        <ele>203.4</ele>
        <time>2024-09-18T13:25:19Z</time>
      </trkpt>
      <trkpt lat="46.5661" lon="4.90938">
        <ele>203.4</ele>
        <time>2024-09-18T13:25:20Z</time>
      </trkpt>
      <trkpt lat="46.5661" lon="4.90938">
        <ele>203.4</ele>
        <time>2024-09-18T13:25:21Z</time>
      </trkpt>
      <trkpt lat="46.5661" lon="4.90938">
        <ele>203.6</ele>
        <time>2024-09-18T13:25:22Z</time>
      </trkpt>
      <trkpt lat="46.5661" lon="4.90938">
        <ele>203.6</ele>
        <time>2024-09-18T13:25:23Z</time>
      </trkpt>
      <trkpt lat="46.5661" lon="4.90938">
        <ele>203.6</ele>
        <time>2024-09-18T13:25:24Z</time>
      </trkpt>
      <trkpt lat="46.5661" lon="4.90938">
        <ele>203.4</ele>
        <time>2024-09-18T13:25:25Z</time>
      </trkpt>
      <trkpt lat="46.5661" lon="4.90938">
        <ele>203.6</ele>
        <time>2024-09-18T13:25:26Z</time>
      </trkpt>
      <trkpt lat="46.5661" lon="4.90938">
        <ele>203.6</ele>
        <time>2024-09-18T13:25:27Z</time>
      </trkpt>
      <trkpt lat="46.5661" lon="4.90938">
        <ele>203.6</ele>
        <time>2024-09-18T13:25:28Z</time>
      </trkpt>
      <trkpt lat="46.5661" lon="4.90938">
        <ele>203.6</ele>
        <time>2024-09-18T13:25:29Z</time>
      </trkpt>
      <trkpt lat="46.5661" lon="4.90938">
        <ele>203.4</ele>
        <time>2024-09-18T13:25:30Z</time>
      </trkpt>
      <trkpt lat="46.5661" lon="4.90938">
        <ele>203</ele>
        <time>2024-09-18T13:25:31Z</time>
      </trkpt>
      <trkpt lat="46.5661" lon="4.90938">
        <ele>203</ele>
        <time>2024-09-18T13:25:32Z</time>
      </trkpt>
      <trkpt lat="46.5661" lon="4.90938">
        <ele>203</ele>
        <time>2024-09-18T13:25:33Z</time>
      </trkpt>
      <trkpt lat="46.5661" lon="4.90938">
        <ele>203.4</ele>
        <time>2024-09-18T13:25:34Z</time>
      </trkpt>
      <trkpt lat="46.5661" lon="4.90938">
        <ele>203.6</ele>
        <time>2024-09-18T13:25:35Z</time>
      </trkpt>
      <trkpt lat="46.5661" lon="4.90938">
        <ele>203.6</ele>
        <time>2024-09-18T13:25:36Z</time>
      </trkpt>
      <trkpt lat="46.5661" lon="4.90938">
        <ele>203.6</ele>
        <time>2024-09-18T13:25:37Z</time>
      </trkpt>
      <trkpt lat="46.5661" lon="4.90938">
        <ele>203.2</ele>
        <time>2024-09-18T13:25:38Z</time>
      </trkpt>
      <trkpt lat="46.5661" lon="4.90938">
        <ele>203.2</ele>
        <time>2024-09-18T13:25:39Z</time>
      </trkpt>
      <trkpt lat="46.5661" lon="4.90938">
        <ele>203.2</ele>
        <time>2024-09-18T13:25:40Z</time>
      </trkpt>
      <trkpt lat="46.5661" lon="4.90938">
        <ele>203.2</ele>
        <time>2024-09-18T13:25:41Z</time>
      </trkpt>
      <trkpt lat="46.5661" lon="4.90938">
        <ele>203.2</ele>
        <time>2024-09-18T13:25:42Z</time>
      </trkpt>
      <trkpt lat="46.5661" lon="4.90938">
        <ele>203.2</ele>
        <time>2024-09-18T13:25:43Z</time>
      </trkpt>
      <trkpt lat="46.5661" lon="4.90938">
        <ele>203</ele>
        <time>2024-09-18T13:25:44Z</time>
      </trkpt>
      <trkpt lat="46.5661" lon="4.90938">
        <ele>203</ele>
        <time>2024-09-18T13:25:45Z</time>
      </trkpt>
      <trkpt lat="46.5661" lon="4.90938">
        <ele>203</ele>
        <time>2024-09-18T13:25:46Z</time>
      </trkpt>
      <trkpt lat="46.5661" lon="4.90938">
        <ele>203.6</ele>
        <time>2024-09-18T13:25:47Z</time>
      </trkpt>
      <trkpt lat="46.5661" lon="4.90938">
        <ele>203.6</ele>
        <time>2024-09-18T13:25:48Z</time>
      </trkpt>
      <trkpt lat="46.5661" lon="4.90938">
        <ele>203.6</ele>
        <time>2024-09-18T13:25:49Z</time>
      </trkpt>
      <trkpt lat="46.5661" lon="4.90938">
        <ele>203</ele>
        <time>2024-09-18T13:25:50Z</time>
      </trkpt>
      <trkpt lat="46.5661" lon="4.90938">
        <ele>203</ele>
        <time>2024-09-18T13:25:51Z</time>
      </trkpt>
      <trkpt lat="46.5661" lon="4.90938">
        <ele>203</ele>
        <time>2024-09-18T13:25:52Z</time>
      </trkpt>
      <trkpt lat="46.5661" lon="4.90938">
        <ele>203</ele>
        <time>2024-09-18T13:25:53Z</time>
      </trkpt>
      <trkpt lat="46.5661" lon="4.90938">
        <ele>203.6</ele>
        <time>2024-09-18T13:25:54Z</time>
      </trkpt>
      <trkpt lat="46.5661" lon="4.90938">
        <ele>203.6</ele>
        <time>2024-09-18T13:25:55Z</time>
      </trkpt>
      <trkpt lat="46.5661" lon="4.90938">
        <ele>203.6</ele>
        <time>2024-09-18T13:25:56Z</time>
      </trkpt>
      <trkpt lat="46.5661" lon="4.90938">
        <ele>203.4</ele>
        <time>2024-09-18T13:25:57Z</time>
      </trkpt>
      <trkpt lat="46.5661" lon="4.90938">
        <ele>203.4</ele>
        <time>2024-09-18T13:25:58Z</time>
      </trkpt>
      <trkpt lat="46.5661" lon="4.90938">
        <ele>203.4</ele>
        <time>2024-09-18T13:25:59Z</time>
      </trkpt>
      <trkpt lat="46.5661" lon="4.90938">
        <ele>203.4</ele>
        <time>2024-09-18T13:26:00Z</time>
      </trkpt>
      <trkpt lat="46.5661" lon="4.90938">
        <ele>203.4</ele>
        <time>2024-09-18T13:26:01Z</time>
      </trkpt>
      <trkpt lat="46.5661" lon="4.90938">
        <ele>203.6</ele>
        <time>2024-09-18T13:26:02Z</time>
      </trkpt>
      <trkpt lat="46.5661" lon="4.90938">
        <ele>203.6</ele>
        <time>2024-09-18T13:26:03Z</time>
      </trkpt>
      <trkpt lat="46.5661" lon="4.90938">
        <ele>203.6</ele>
        <time>2024-09-18T13:26:04Z</time>
      </trkpt>
      <trkpt lat="46.5661" lon="4.90938">
        <ele>203.6</ele>
        <time>2024-09-18T13:26:05Z</time>
      </trkpt>
      <trkpt lat="46.5661" lon="4.90938">
        <ele>203.6</ele>
        <time>2024-09-18T13:26:06Z</time>
      </trkpt>
      <trkpt lat="46.5661" lon="4.90938">
        <ele>202.8</ele>
        <time>2024-09-18T13:26:07Z</time>
      </trkpt>
      <trkpt lat="46.5661" lon="4.90938">
        <ele>202.8</ele>
        <time>2024-09-18T13:26:08Z</time>
      </trkpt>
      <trkpt lat="46.5661" lon="4.90938">
        <ele>202.8</ele>
        <time>2024-09-18T13:26:09Z</time>
      </trkpt>
      <trkpt lat="46.5661" lon="4.90938">
        <ele>203.2</ele>
        <time>2024-09-18T13:26:10Z</time>
      </trkpt>
      <trkpt lat="46.5661" lon="4.90938">
        <ele>203.6</ele>
        <time>2024-09-18T13:26:11Z</time>
      </trkpt>
      <trkpt lat="46.5661" lon="4.90938">
        <ele>203.6</ele>
        <time>2024-09-18T13:26:12Z</time>
      </trkpt>
      <trkpt lat="46.5661" lon="4.90938">
        <ele>203.6</ele>
        <time>2024-09-18T13:26:13Z</time>
      </trkpt>
      <trkpt lat="46.5661" lon="4.90938">
        <ele>203.6</ele>
        <time>2024-09-18T13:26:14Z</time>
      </trkpt>
      <trkpt lat="46.5661" lon="4.90938">
        <ele>203.6</ele>
        <time>2024-09-18T13:26:15Z</time>
      </trkpt>
      <trkpt lat="46.5661" lon="4.90938">
        <ele>203.4</ele>
        <time>2024-09-18T13:26:16Z</time>
      </trkpt>
      <trkpt lat="46.5661" lon="4.90938">
        <ele>203.4</ele>
        <time>2024-09-18T13:26:17Z</time>
      </trkpt>
      <trkpt lat="46.5661" lon="4.90938">
        <ele>203.4</ele>
        <time>2024-09-18T13:26:18Z</time>
      </trkpt>
      <trkpt lat="46.5661" lon="4.90938">
        <ele>203.4</ele>
        <time>2024-09-18T13:26:19Z</time>
      </trkpt>
      <trkpt lat="46.5661" lon="4.90938">
        <ele>203.4</ele>
        <time>2024-09-18T13:26:20Z</time>
      </trkpt>
      <trkpt lat="46.5661" lon="4.90938">
        <ele>203.4</ele>
        <time>2024-09-18T13:26:21Z</time>
      </trkpt>
      <trkpt lat="46.5661" lon="4.90938">
        <ele>203.4</ele>
        <time>2024-09-18T13:26:22Z</time>
      </trkpt>
      <trkpt lat="46.5661" lon="4.90938">
        <ele>203.4</ele>
        <time>2024-09-18T13:26:23Z</time>
      </trkpt>
      <trkpt lat="46.5661" lon="4.90938">
        <ele>203.4</ele>
        <time>2024-09-18T13:26:24Z</time>
      </trkpt>
      <trkpt lat="46.5661" lon="4.90938">
        <ele>202.8</ele>
        <time>2024-09-18T13:26:25Z</time>
      </trkpt>
      <trkpt lat="46.5661" lon="4.90938">
        <ele>202.8</ele>
        <time>2024-09-18T13:26:26Z</time>
      </trkpt>
      <trkpt lat="46.5661" lon="4.90938">
        <ele>202.8</ele>
        <time>2024-09-18T13:26:27Z</time>
      </trkpt>
      <trkpt lat="46.5661" lon="4.90938">
        <ele>203.4</ele>
        <time>2024-09-18T13:26:28Z</time>
      </trkpt>
      <trkpt lat="46.5661" lon="4.90938">
        <ele>203.4</ele>
        <time>2024-09-18T13:26:29Z</time>
      </trkpt>
      <trkpt lat="46.5661" lon="4.90938">
        <ele>203</ele>
        <time>2024-09-18T13:26:30Z</time>
      </trkpt>
      <trkpt lat="46.5661" lon="4.90938">
        <ele>203</ele>
        <time>2024-09-18T13:26:31Z</time>
      </trkpt>
      <trkpt lat="46.5661" lon="4.90938">
        <ele>203</ele>
        <time>2024-09-18T13:26:32Z</time>
      </trkpt>
      <trkpt lat="46.5661" lon="4.90938">
        <ele>203.4</ele>
        <time>2024-09-18T13:26:33Z</time>
      </trkpt>
      <trkpt lat="46.5661" lon="4.90938">
        <ele>203</ele>
        <time>2024-09-18T13:26:34Z</time>
      </trkpt>
      <trkpt lat="46.5661" lon="4.90938">
        <ele>203</ele>
        <time>2024-09-18T13:26:35Z</time>
      </trkpt>
      <trkpt lat="46.5661" lon="4.90938">
        <ele>203</ele>
        <time>2024-09-18T13:26:36Z</time>
      </trkpt>
      <trkpt lat="46.5661" lon="4.90938">
        <ele>203</ele>
        <time>2024-09-18T13:26:37Z</time>
      </trkpt>
      <trkpt lat="46.5661" lon="4.90938">
        <ele>203.6</ele>
        <time>2024-09-18T13:26:38Z</time>
      </trkpt>
      <trkpt lat="46.5661" lon="4.90938">
        <ele>203.4</ele>
        <time>2024-09-18T13:26:39Z</time>
      </trkpt>
      <trkpt lat="46.5661" lon="4.90938">
        <ele>203.4</ele>
        <time>2024-09-18T13:26:40Z</time>
      </trkpt>
      <trkpt lat="46.5661" lon="4.90938">
        <ele>203.4</ele>
        <time>2024-09-18T13:26:41Z</time>
      </trkpt>
      <trkpt lat="46.5661" lon="4.90938">
        <ele>203.4</ele>
        <time>2024-09-18T13:26:42Z</time>
      </trkpt>
      <trkpt lat="46.5661" lon="4.90938">
        <ele>203.2</ele>
        <time>2024-09-18T13:26:43Z</time>
      </trkpt>
      <trkpt lat="46.5661" lon="4.90938">
        <ele>203.2</ele>
        <time>2024-09-18T13:26:44Z</time>
      </trkpt>
      <trkpt lat="46.5661" lon="4.90938">
        <ele>203.2</ele>
        <time>2024-09-18T13:26:45Z</time>
      </trkpt>
      <trkpt lat="46.5661" lon="4.90938">
        <ele>203.6</ele>
        <time>2024-09-18T13:26:46Z</time>
      </trkpt>
      <trkpt lat="46.5661" lon="4.90938">
        <ele>203.4</ele>
        <time>2024-09-18T13:26:47Z</time>
      </trkpt>
      <trkpt lat="46.5661" lon="4.90938">
        <ele>203.4</ele>
        <time>2024-09-18T13:26:48Z</time>
      </trkpt>
      <trkpt lat="46.5661" lon="4.90938">
        <ele>203.4</ele>
        <time>2024-09-18T13:26:49Z</time>
      </trkpt>
      <trkpt lat="46.5661" lon="4.90938">
        <ele>203.4</ele>
        <time>2024-09-18T13:26:50Z</time>
      </trkpt>
      <trkpt lat="46.5661" lon="4.90938">
        <ele>203.4</ele>
        <time>2024-09-18T13:26:51Z</time>
      </trkpt>
      <trkpt lat="46.5661" lon="4.90938">
        <ele>203.4</ele>
        <time>2024-09-18T13:26:52Z</time>
      </trkpt>
      <trkpt lat="46.5661" lon="4.90938">
        <ele>203.4</ele>
        <time>2024-09-18T13:26:53Z</time>
      </trkpt>
      <trkpt lat="46.5661" lon="4.90938">
        <ele>203.4</ele>
        <time>2024-09-18T13:26:54Z</time>
      </trkpt>
      <trkpt lat="46.5661" lon="4.90938">
        <ele>203.4</ele>
        <time>2024-09-18T13:26:55Z</time>
      </trkpt>
      <trkpt lat="46.5661" lon="4.90938">
        <ele>203.4</ele>
        <time>2024-09-18T13:26:56Z</time>
      </trkpt>
      <trkpt lat="46.5661" lon="4.90938">
        <ele>203.4</ele>
        <time>2024-09-18T13:26:57Z</time>
      </trkpt>
      <trkpt lat="46.5661" lon="4.90938">
        <ele>203.4</ele>
        <time>2024-09-18T13:26:58Z</time>
      </trkpt>
      <trkpt lat="46.5661" lon="4.90938">
        <ele>203.4</ele>
        <time>2024-09-18T13:26:59Z</time>
      </trkpt>
      <trkpt lat="46.5661" lon="4.90938">
        <ele>203.4</ele>
        <time>2024-09-18T13:27:00Z</time>
      </trkpt>
      <trkpt lat="46.5661" lon="4.90938">
        <ele>203.4</ele>
        <time>2024-09-18T13:27:01Z</time>
      </trkpt>
      <trkpt lat="46.5661" lon="4.90938">
        <ele>203.4</ele>
        <time>2024-09-18T13:27:02Z</time>
      </trkpt>
      <trkpt lat="46.5661" lon="4.90938">
        <ele>203.4</ele>
        <time>2024-09-18T13:27:03Z</time>
      </trkpt>
      <trkpt lat="46.5661" lon="4.90938">
        <ele>203.4</ele>
        <time>2024-09-18T13:27:04Z</time>
      </trkpt>
      <trkpt lat="46.5661" lon="4.90938">
        <ele>203.2</ele>
        <time>2024-09-18T13:27:05Z</time>
      </trkpt>
      <trkpt lat="46.5661" lon="4.90938">
        <ele>203.2</ele>
        <time>2024-09-18T13:27:06Z</time>
      </trkpt>
      <trkpt lat="46.5661" lon="4.90938">
        <ele>203.2</ele>
        <time>2024-09-18T13:27:07Z</time>
      </trkpt>
      <trkpt lat="46.5661" lon="4.90938">
        <ele>203.4</ele>
        <time>2024-09-18T13:27:08Z</time>
      </trkpt>
      <trkpt lat="46.5661" lon="4.90938">
        <ele>203.2</ele>
        <time>2024-09-18T13:27:09Z</time>
      </trkpt>
      <trkpt lat="46.5661" lon="4.90938">
        <ele>203.2</ele>
        <time>2024-09-18T13:27:10Z</time>
      </trkpt>
      <trkpt lat="46.5661" lon="4.90938">
        <ele>203.2</ele>
        <time>2024-09-18T13:27:11Z</time>
      </trkpt>
      <trkpt lat="46.5661" lon="4.90938">
        <ele>203.2</ele>
        <time>2024-09-18T13:27:12Z</time>
      </trkpt>
      <trkpt lat="46.5661" lon="4.90938">
        <ele>203.2</ele>
        <time>2024-09-18T13:27:13Z</time>
      </trkpt>
      <trkpt lat="46.5661" lon="4.90938">
        <ele>203.2</ele>
        <time>2024-09-18T13:27:14Z</time>
      </trkpt>
      <trkpt lat="46.5661" lon="4.90938">
        <ele>203.2</ele>
        <time>2024-09-18T13:27:15Z</time>
      </trkpt>
      <trkpt lat="46.5661" lon="4.90938">
        <ele>203.2</ele>
        <time>2024-09-18T13:27:16Z</time>
      </trkpt>
      <trkpt lat="46.5661" lon="4.90938">
        <ele>203.2</ele>
        <time>2024-09-18T13:27:17Z</time>
      </trkpt>
      <trkpt lat="46.5661" lon="4.90938">
        <ele>203.4</ele>
        <time>2024-09-18T13:27:18Z</time>
      </trkpt>
      <trkpt lat="46.5661" lon="4.90938">
        <ele>203.4</ele>
        <time>2024-09-18T13:27:19Z</time>
      </trkpt>
      <trkpt lat="46.5661" lon="4.90938">
        <ele>203.4</ele>
        <time>2024-09-18T13:27:20Z</time>
      </trkpt>
      <trkpt lat="46.5661" lon="4.90938">
        <ele>203.4</ele>
        <time>2024-09-18T13:27:21Z</time>
      </trkpt>
      <trkpt lat="46.5661" lon="4.90938">
        <ele>203.4</ele>
        <time>2024-09-18T13:27:22Z</time>
      </trkpt>
      <trkpt lat="46.5661" lon="4.90938">
        <ele>203.4</ele>
        <time>2024-09-18T13:27:23Z</time>
      </trkpt>
      <trkpt lat="46.5661" lon="4.90938">
        <ele>203.4</ele>
        <time>2024-09-18T13:27:24Z</time>
      </trkpt>
      <trkpt lat="46.5661" lon="4.90938">
        <ele>203.4</ele>
        <time>2024-09-18T13:27:25Z</time>
      </trkpt>
      <trkpt lat="46.5661" lon="4.90938">
        <ele>203.4</ele>
        <time>2024-09-18T13:27:26Z</time>
      </trkpt>
      <trkpt lat="46.5661" lon="4.90938">
        <ele>203.4</ele>
        <time>2024-09-18T13:27:27Z</time>
      </trkpt>
      <trkpt lat="46.5661" lon="4.90938">
        <ele>203.4</ele>
        <time>2024-09-18T13:27:28Z</time>
      </trkpt>
      <trkpt lat="46.5661" lon="4.90938">
        <ele>203.4</ele>
        <time>2024-09-18T13:27:29Z</time>
      </trkpt>
      <trkpt lat="46.5661" lon="4.90938">
        <ele>203.4</ele>
        <time>2024-09-18T13:27:30Z</time>
      </trkpt>
      <trkpt lat="46.5661" lon="4.90938">
        <ele>203.4</ele>
        <time>2024-09-18T13:27:31Z</time>
      </trkpt>
      <trkpt lat="46.5661" lon="4.90938">
        <ele>203.4</ele>
        <time>2024-09-18T13:27:32Z</time>
      </trkpt>
      <trkpt lat="46.5661" lon="4.90938">
        <ele>203.4</ele>
        <time>2024-09-18T13:27:33Z</time>
      </trkpt>
      <trkpt lat="46.5661" lon="4.90938">
        <ele>203.4</ele>
        <time>2024-09-18T13:27:34Z</time>
      </trkpt>
      <trkpt lat="46.5661" lon="4.90938">
        <ele>203.4</ele>
        <time>2024-09-18T13:27:35Z</time>
      </trkpt>
      <trkpt lat="46.5661" lon="4.90938">
        <ele>203.4</ele>
        <time>2024-09-18T13:27:36Z</time>
      </trkpt>
      <trkpt lat="46.5661" lon="4.90938">
        <ele>203.4</ele>
        <time>2024-09-18T13:27:37Z</time>
      </trkpt>
      <trkpt lat="46.5661" lon="4.90938">
        <ele>203.4</ele>
        <time>2024-09-18T13:27:38Z</time>
      </trkpt>
      <trkpt lat="46.5661" lon="4.90938">
        <ele>203.4</ele>
        <time>2024-09-18T13:27:39Z</time>
      </trkpt>
      <trkpt lat="46.5661" lon="4.90938">
        <ele>203.4</ele>
        <time>2024-09-18T13:27:40Z</time>
      </trkpt>
      <trkpt lat="46.5661" lon="4.90938">
        <ele>203.4</ele>
        <time>2024-09-18T13:27:41Z</time>
      </trkpt>
      <trkpt lat="46.5661" lon="4.90938">
        <ele>203.4</ele>
        <time>2024-09-18T13:27:42Z</time>
      </trkpt>
      <trkpt lat="46.5661" lon="4.90938">
        <ele>203.4</ele>
        <time>2024-09-18T13:27:43Z</time>
      </trkpt>
      <trkpt lat="46.5661" lon="4.90938">
        <ele>203</ele>
        <time>2024-09-18T13:27:44Z</time>
      </trkpt>
      <trkpt lat="46.5661" lon="4.90938">
        <ele>203.6</ele>
        <time>2024-09-18T13:27:45Z</time>
      </trkpt>
      <trkpt lat="46.5661" lon="4.90938">
        <ele>203.6</ele>
        <time>2024-09-18T13:27:46Z</time>
      </trkpt>
      <trkpt lat="46.5661" lon="4.90938">
        <ele>203.6</ele>
        <time>2024-09-18T13:27:47Z</time>
      </trkpt>
      <trkpt lat="46.5661" lon="4.90938">
        <ele>203.4</ele>
        <time>2024-09-18T13:27:48Z</time>
      </trkpt>
      <trkpt lat="46.5661" lon="4.90938">
        <ele>203.4</ele>
        <time>2024-09-18T13:27:49Z</time>
      </trkpt>
      <trkpt lat="46.5661" lon="4.90938">
        <ele>203.6</ele>
        <time>2024-09-18T13:27:50Z</time>
      </trkpt>
      <trkpt lat="46.5661" lon="4.90938">
        <ele>203.6</ele>
        <time>2024-09-18T13:27:51Z</time>
      </trkpt>
      <trkpt lat="46.5661" lon="4.90938">
        <ele>203.6</ele>
        <time>2024-09-18T13:27:52Z</time>
      </trkpt>
      <trkpt lat="46.5661" lon="4.90938">
        <ele>203.6</ele>
        <time>2024-09-18T13:27:53Z</time>
      </trkpt>
      <trkpt lat="46.5661" lon="4.90938">
        <ele>203.2</ele>
        <time>2024-09-18T13:27:54Z</time>
      </trkpt>
      <trkpt lat="46.5661" lon="4.90938">
        <ele>203.2</ele>
        <time>2024-09-18T13:27:55Z</time>
      </trkpt>
      <trkpt lat="46.5661" lon="4.90938">
        <ele>203.2</ele>
        <time>2024-09-18T13:27:56Z</time>
      </trkpt>
      <trkpt lat="46.5661" lon="4.90938">
        <ele>203.2</ele>
        <time>2024-09-18T13:27:57Z</time>
      </trkpt>
      <trkpt lat="46.5661" lon="4.90938">
        <ele>203.4</ele>
        <time>2024-09-18T13:27:58Z</time>
      </trkpt>
      <trkpt lat="46.5661" lon="4.90938">
        <ele>203.4</ele>
        <time>2024-09-18T13:27:59Z</time>
      </trkpt>
      <trkpt lat="46.5661" lon="4.90938">
        <ele>203.4</ele>
        <time>2024-09-18T13:28:00Z</time>
      </trkpt>
      <trkpt lat="46.5661" lon="4.90938">
        <ele>203.4</ele>
        <time>2024-09-18T13:28:01Z</time>
      </trkpt>
      <trkpt lat="46.5661" lon="4.90938">
        <ele>203.4</ele>
        <time>2024-09-18T13:28:02Z</time>
      </trkpt>
      <trkpt lat="46.5661" lon="4.90938">
        <ele>203.4</ele>
        <time>2024-09-18T13:28:03Z</time>
      </trkpt>
      <trkpt lat="46.5661" lon="4.90938">
        <ele>203.2</ele>
        <time>2024-09-18T13:28:04Z</time>
      </trkpt>
      <trkpt lat="46.5661" lon="4.90938">
        <ele>203.2</ele>
        <time>2024-09-18T13:28:05Z</time>
      </trkpt>
      <trkpt lat="46.5661" lon="4.90938">
        <ele>203.2</ele>
        <time>2024-09-18T13:28:06Z</time>
      </trkpt>
      <trkpt lat="46.5661" lon="4.90938">
        <ele>203.4</ele>
        <time>2024-09-18T13:28:07Z</time>
      </trkpt>
      <trkpt lat="46.5661" lon="4.90938">
        <ele>203.4</ele>
        <time>2024-09-18T13:28:08Z</time>
      </trkpt>
      <trkpt lat="46.5661" lon="4.90938">
        <ele>203.4</ele>
        <time>2024-09-18T13:28:09Z</time>
      </trkpt>
      <trkpt lat="46.5661" lon="4.90938">
        <ele>203.4</ele>
        <time>2024-09-18T13:28:10Z</time>
      </trkpt>
      <trkpt lat="46.5661" lon="4.90938">
        <ele>203.4</ele>
        <time>2024-09-18T13:28:11Z</time>
      </trkpt>
      <trkpt lat="46.5661" lon="4.90938">
        <ele>203.4</ele>
        <time>2024-09-18T13:28:12Z</time>
      </trkpt>
      <trkpt lat="46.5661" lon="4.90938">
        <ele>203.4</ele>
        <time>2024-09-18T13:28:13Z</time>
      </trkpt>
      <trkpt lat="46.5661" lon="4.90938">
        <ele>203.4</ele>
        <time>2024-09-18T13:28:14Z</time>
      </trkpt>
      <trkpt lat="46.5661" lon="4.90938">
        <ele>203.4</ele>
        <time>2024-09-18T13:28:15Z</time>
      </trkpt>
      <trkpt lat="46.5661" lon="4.90938">
        <ele>203.4</ele>
        <time>2024-09-18T13:28:16Z</time>
      </trkpt>
      <trkpt lat="46.5661" lon="4.90938">
        <ele>203.2</ele>
        <time>2024-09-18T13:28:17Z</time>
      </trkpt>
      <trkpt lat="46.5661" lon="4.90938">
        <ele>203.2</ele>
        <time>2024-09-18T13:28:18Z</time>
      </trkpt>
      <trkpt lat="46.5661" lon="4.90938">
        <ele>203.2</ele>
        <time>2024-09-18T13:28:19Z</time>
      </trkpt>
      <trkpt lat="46.5661" lon="4.90938">
        <ele>203.2</ele>
        <time>2024-09-18T13:28:20Z</time>
      </trkpt>
      <trkpt lat="46.5661" lon="4.90938">
        <ele>203</ele>
        <time>2024-09-18T13:28:21Z</time>
      </trkpt>
      <trkpt lat="46.5661" lon="4.90938">
        <ele>203</ele>
        <time>2024-09-18T13:28:22Z</time>
      </trkpt>
      <trkpt lat="46.5661" lon="4.90938">
        <ele>203</ele>
        <time>2024-09-18T13:28:23Z</time>
      </trkpt>
      <trkpt lat="46.5661" lon="4.90938">
        <ele>203.8</ele>
        <time>2024-09-18T13:28:24Z</time>
      </trkpt>
      <trkpt lat="46.5661" lon="4.90938">
        <ele>203.4</ele>
        <time>2024-09-18T13:28:25Z</time>
      </trkpt>
      <trkpt lat="46.5661" lon="4.90938">
        <ele>203.4</ele>
        <time>2024-09-18T13:28:26Z</time>
      </trkpt>
      <trkpt lat="46.5661" lon="4.90938">
        <ele>203.4</ele>
        <time>2024-09-18T13:28:27Z</time>
      </trkpt>
      <trkpt lat="46.5661" lon="4.90938">
        <ele>203.2</ele>
        <time>2024-09-18T13:28:28Z</time>
      </trkpt>
      <trkpt lat="46.5661" lon="4.90938">
        <ele>203.2</ele>
        <time>2024-09-18T13:28:29Z</time>
      </trkpt>
      <trkpt lat="46.5661" lon="4.90938">
        <ele>203</ele>
        <time>2024-09-18T13:28:30Z</time>
      </trkpt>
      <trkpt lat="46.5661" lon="4.90938">
        <ele>203</ele>
        <time>2024-09-18T13:28:31Z</time>
      </trkpt>
      <trkpt lat="46.5661" lon="4.90938">
        <ele>203</ele>
        <time>2024-09-18T13:28:32Z</time>
      </trkpt>
      <trkpt lat="46.5661" lon="4.90938">
        <ele>203.6</ele>
        <time>2024-09-18T13:28:33Z</time>
      </trkpt>
      <trkpt lat="46.5661" lon="4.90938">
        <ele>203.6</ele>
        <time>2024-09-18T13:28:34Z</time>
      </trkpt>
      <trkpt lat="46.5661" lon="4.90938">
        <ele>203.6</ele>
        <time>2024-09-18T13:28:35Z</time>
      </trkpt>
      <trkpt lat="46.5661" lon="4.90938">
        <ele>203.6</ele>
        <time>2024-09-18T13:28:36Z</time>
      </trkpt>
      <trkpt lat="46.5661" lon="4.90938">
        <ele>203.6</ele>
        <time>2024-09-18T13:28:37Z</time>
      </trkpt>
      <trkpt lat="46.5661" lon="4.90938">
        <ele>203.6</ele>
        <time>2024-09-18T13:28:38Z</time>
      </trkpt>
      <trkpt lat="46.5661" lon="4.90938">
        <ele>203.6</ele>
        <time>2024-09-18T13:28:39Z</time>
      </trkpt>
      <trkpt lat="46.5661" lon="4.90938">
        <ele>203.6</ele>
        <time>2024-09-18T13:28:40Z</time>
      </trkpt>
      <trkpt lat="46.5661" lon="4.90938">
        <ele>203.6</ele>
        <time>2024-09-18T13:28:41Z</time>
      </trkpt>
      <trkpt lat="46.5661" lon="4.90938">
        <ele>203.4</ele>
        <time>2024-09-18T13:28:42Z</time>
      </trkpt>
      <trkpt lat="46.5661" lon="4.90938">
        <ele>203.4</ele>
        <time>2024-09-18T13:28:43Z</time>
      </trkpt>
      <trkpt lat="46.5661" lon="4.90938">
        <ele>203.4</ele>
        <time>2024-09-18T13:28:44Z</time>
      </trkpt>
      <trkpt lat="46.5661" lon="4.90938">
        <ele>203.4</ele>
        <time>2024-09-18T13:28:45Z</time>
      </trkpt>
      <trkpt lat="46.5661" lon="4.90938">
        <ele>203.4</ele>
        <time>2024-09-18T13:28:46Z</time>
      </trkpt>
      <trkpt lat="46.5661" lon="4.90938">
        <ele>203.4</ele>
        <time>2024-09-18T13:28:47Z</time>
      </trkpt>
      <trkpt lat="46.5661" lon="4.90938">
        <ele>203.4</ele>
        <time>2024-09-18T13:28:48Z</time>
      </trkpt>
      <trkpt lat="46.5661" lon="4.90938">
        <ele>203.4</ele>
        <time>2024-09-18T13:28:49Z</time>
      </trkpt>
      <trkpt lat="46.5661" lon="4.90938">
        <ele>203.4</ele>
        <time>2024-09-18T13:28:50Z</time>
      </trkpt>
      <trkpt lat="46.5661" lon="4.90938">
        <ele>203.4</ele>
        <time>2024-09-18T13:28:51Z</time>
      </trkpt>
      <trkpt lat="46.5661" lon="4.90938">
        <ele>203.4</ele>
        <time>2024-09-18T13:28:52Z</time>
      </trkpt>
      <trkpt lat="46.5661" lon="4.90938">
        <ele>203.4</ele>
        <time>2024-09-18T13:28:53Z</time>
      </trkpt>
      <trkpt lat="46.5661" lon="4.90938">
        <ele>203.4</ele>
        <time>2024-09-18T13:28:54Z</time>
      </trkpt>
      <trkpt lat="46.5661" lon="4.90938">
        <ele>203.4</ele>
        <time>2024-09-18T13:28:55Z</time>
      </trkpt>
      <trkpt lat="46.5661" lon="4.90938">
        <ele>203.4</ele>
        <time>2024-09-18T13:28:56Z</time>
      </trkpt>
      <trkpt lat="46.5661" lon="4.90938">
        <ele>203.4</ele>
        <time>2024-09-18T13:28:57Z</time>
      </trkpt>
      <trkpt lat="46.5661" lon="4.90938">
        <ele>203.4</ele>
        <time>2024-09-18T13:28:58Z</time>
      </trkpt>
      <trkpt lat="46.5661" lon="4.90938">
        <ele>203.4</ele>
        <time>2024-09-18T13:28:59Z</time>
      </trkpt>
      <trkpt lat="46.5661" lon="4.90938">
        <ele>203.4</ele>
        <time>2024-09-18T13:29:00Z</time>
      </trkpt>
      <trkpt lat="46.5661" lon="4.90938">
        <ele>203.4</ele>
        <time>2024-09-18T13:29:01Z</time>
      </trkpt>
      <trkpt lat="46.5661" lon="4.90938">
        <ele>203.4</ele>
        <time>2024-09-18T13:29:02Z</time>
      </trkpt>
      <trkpt lat="46.5661" lon="4.90938">
        <ele>203.4</ele>
        <time>2024-09-18T13:29:03Z</time>
      </trkpt>
      <trkpt lat="46.5661" lon="4.90938">
        <ele>203.4</ele>
        <time>2024-09-18T13:29:04Z</time>
      </trkpt>
      <trkpt lat="46.5661" lon="4.90938">
        <ele>203.4</ele>
        <time>2024-09-18T13:29:05Z</time>
      </trkpt>
      <trkpt lat="46.5661" lon="4.90938">
        <ele>203.4</ele>
        <time>2024-09-18T13:29:06Z</time>
      </trkpt>
      <trkpt lat="46.5661" lon="4.90938">
        <ele>203.4</ele>
        <time>2024-09-18T13:29:07Z</time>
      </trkpt>
      <trkpt lat="46.5661" lon="4.90938">
        <ele>203.4</ele>
        <time>2024-09-18T13:29:08Z</time>
      </trkpt>
      <trkpt lat="46.5661" lon="4.90938">
        <ele>203.4</ele>
        <time>2024-09-18T13:29:09Z</time>
      </trkpt>
      <trkpt lat="46.5661" lon="4.90938">
        <ele>203.4</ele>
        <time>2024-09-18T13:29:10Z</time>
      </trkpt>
      <trkpt lat="46.5661" lon="4.90938">
        <ele>203.4</ele>
        <time>2024-09-18T13:29:11Z</time>
      </trkpt>
      <trkpt lat="46.5661" lon="4.90938">
        <ele>203.4</ele>
        <time>2024-09-18T13:29:12Z</time>
      </trkpt>
      <trkpt lat="46.5661" lon="4.90938">
        <ele>203.4</ele>
        <time>2024-09-18T13:29:13Z</time>
      </trkpt>
      <trkpt lat="46.5661" lon="4.90938">
        <ele>203.4</ele>
        <time>2024-09-18T13:29:14Z</time>
      </trkpt>
      <trkpt lat="46.5661" lon="4.90938">
        <ele>203.4</ele>
        <time>2024-09-18T13:29:15Z</time>
      </trkpt>
      <trkpt lat="46.5661" lon="4.90938">
        <ele>203.4</ele>
        <time>2024-09-18T13:29:16Z</time>
      </trkpt>
      <trkpt lat="46.5661" lon="4.90938">
        <ele>203.4</ele>
        <time>2024-09-18T13:29:17Z</time>
      </trkpt>
      <trkpt lat="46.5661" lon="4.90938">
        <ele>203.2</ele>
        <time>2024-09-18T13:29:18Z</time>
      </trkpt>
      <trkpt lat="46.5661" lon="4.90938">
        <ele>203.2</ele>
        <time>2024-09-18T13:29:19Z</time>
      </trkpt>
      <trkpt lat="46.5661" lon="4.90938">
        <ele>203.2</ele>
        <time>2024-09-18T13:29:20Z</time>
      </trkpt>
      <trkpt lat="46.5661" lon="4.90938">
        <ele>203.2</ele>
        <time>2024-09-18T13:29:21Z</time>
      </trkpt>
      <trkpt lat="46.5661" lon="4.90938">
        <ele>203.2</ele>
        <time>2024-09-18T13:29:22Z</time>
      </trkpt>
      <trkpt lat="46.5661" lon="4.90938">
        <ele>203.4</ele>
        <time>2024-09-18T13:29:23Z</time>
      </trkpt>
      <trkpt lat="46.5661" lon="4.90938">
        <ele>203.4</ele>
        <time>2024-09-18T13:29:24Z</time>
      </trkpt>
      <trkpt lat="46.5661" lon="4.90938">
        <ele>203.4</ele>
        <time>2024-09-18T13:29:25Z</time>
      </trkpt>
      <trkpt lat="46.5661" lon="4.90938">
        <ele>203.4</ele>
        <time>2024-09-18T13:29:26Z</time>
      </trkpt>
      <trkpt lat="46.5661" lon="4.90938">
        <ele>203.4</ele>
        <time>2024-09-18T13:29:27Z</time>
      </trkpt>
      <trkpt lat="46.5661" lon="4.90938">
        <ele>203.4</ele>
        <time>2024-09-18T13:29:28Z</time>
      </trkpt>
      <trkpt lat="46.5661" lon="4.90938">
        <ele>203.4</ele>
        <time>2024-09-18T13:29:29Z</time>
      </trkpt>
      <trkpt lat="46.5661" lon="4.90938">
        <ele>203.4</ele>
        <time>2024-09-18T13:29:30Z</time>
      </trkpt>
      <trkpt lat="46.5661" lon="4.90938">
        <ele>203.4</ele>
        <time>2024-09-18T13:29:31Z</time>
      </trkpt>
      <trkpt lat="46.5661" lon="4.90938">
        <ele>203.4</ele>
        <time>2024-09-18T13:29:32Z</time>
      </trkpt>
      <trkpt lat="46.5661" lon="4.90938">
        <ele>203.4</ele>
        <time>2024-09-18T13:29:33Z</time>
      </trkpt>
      <trkpt lat="46.5661" lon="4.90938">
        <ele>203.4</ele>
        <time>2024-09-18T13:29:34Z</time>
      </trkpt>
      <trkpt lat="46.5661" lon="4.90938">
        <ele>203.4</ele>
        <time>2024-09-18T13:29:35Z</time>
      </trkpt>
      <trkpt lat="46.5661" lon="4.90938">
        <ele>203.4</ele>
        <time>2024-09-18T13:29:36Z</time>
      </trkpt>
      <trkpt lat="46.5661" lon="4.90938">
        <ele>203.4</ele>
        <time>2024-09-18T13:29:37Z</time>
      </trkpt>
      <trkpt lat="46.5661" lon="4.90938">
        <ele>203.4</ele>
        <time>2024-09-18T13:29:38Z</time>
      </trkpt>
      <trkpt lat="46.5661" lon="4.90938">
        <ele>203.4</ele>
        <time>2024-09-18T13:29:39Z</time>
      </trkpt>
      <trkpt lat="46.5661" lon="4.90938">
        <ele>203.4</ele>
        <time>2024-09-18T13:29:40Z</time>
      </trkpt>
      <trkpt lat="46.5661" lon="4.90938">
        <ele>203.4</ele>
        <time>2024-09-18T13:29:41Z</time>
      </trkpt>
      <trkpt lat="46.5661" lon="4.90938">
        <ele>203.4</ele>
        <time>2024-09-18T13:29:42Z</time>
      </trkpt>
      <trkpt lat="46.5661" lon="4.90938">
        <ele>203.4</ele>
        <time>2024-09-18T13:29:43Z</time>
      </trkpt>
      <trkpt lat="46.5661" lon="4.90938">
        <ele>203.4</ele>
        <time>2024-09-18T13:29:44Z</time>
      </trkpt>
      <trkpt lat="46.5661" lon="4.90938">
        <ele>203.2</ele>
        <time>2024-09-18T13:29:45Z</time>
      </trkpt>
      <trkpt lat="46.5661" lon="4.90938">
        <ele>203.2</ele>
        <time>2024-09-18T13:29:46Z</time>
      </trkpt>
      <trkpt lat="46.5661" lon="4.90938">
        <ele>203.2</ele>
        <time>2024-09-18T13:29:47Z</time>
      </trkpt>
      <trkpt lat="46.5661" lon="4.90938">
        <ele>203.2</ele>
        <time>2024-09-18T13:29:48Z</time>
      </trkpt>
      <trkpt lat="46.5661" lon="4.90938">
        <ele>203.2</ele>
        <time>2024-09-18T13:29:49Z</time>
      </trkpt>
      <trkpt lat="46.5661" lon="4.90938">
        <ele>203.2</ele>
        <time>2024-09-18T13:29:50Z</time>
      </trkpt>
      <trkpt lat="46.5661" lon="4.90938">
        <ele>203.2</ele>
        <time>2024-09-18T13:29:51Z</time>
      </trkpt>
      <trkpt lat="46.5661" lon="4.90938">
        <ele>203.2</ele>
        <time>2024-09-18T13:29:52Z</time>
      </trkpt>
      <trkpt lat="46.5661" lon="4.90938">
        <ele>203.2</ele>
        <time>2024-09-18T13:29:53Z</time>
      </trkpt>
      <trkpt lat="46.5661" lon="4.90938">
        <ele>203.2</ele>
        <time>2024-09-18T13:29:54Z</time>
      </trkpt>
      <trkpt lat="46.5661" lon="4.90938">
        <ele>203.2</ele>
        <time>2024-09-18T13:29:55Z</time>
      </trkpt>
      <trkpt lat="46.5661" lon="4.90938">
        <ele>203.2</ele>
        <time>2024-09-18T13:29:56Z</time>
      </trkpt>
      <trkpt lat="46.5661" lon="4.90938">
        <ele>203.2</ele>
        <time>2024-09-18T13:29:57Z</time>
      </trkpt>
      <trkpt lat="46.5661" lon="4.90938">
        <ele>203.2</ele>
        <time>2024-09-18T13:29:58Z</time>
      </trkpt>
      <trkpt lat="46.5661" lon="4.90938">
        <ele>203.2</ele>
        <time>2024-09-18T13:29:59Z</time>
      </trkpt>
      <trkpt lat="46.5661" lon="4.90938">
        <ele>203.2</ele>
        <time>2024-09-18T13:30:00Z</time>
      </trkpt>
      <trkpt lat="46.5661" lon="4.90938">
        <ele>203.2</ele>
        <time>2024-09-18T13:30:01Z</time>
      </trkpt>
      <trkpt lat="46.5661" lon="4.90938">
        <ele>203.2</ele>
        <time>2024-09-18T13:30:02Z</time>
      </trkpt>
      <trkpt lat="46.5661" lon="4.90938">
        <ele>203.2</ele>
        <time>2024-09-18T13:30:03Z</time>
      </trkpt>
      <trkpt lat="46.5661" lon="4.90938">
        <ele>203.2</ele>
        <time>2024-09-18T13:30:04Z</time>
      </trkpt>
      <trkpt lat="46.5661" lon="4.90938">
        <ele>203.2</ele>
        <time>2024-09-18T13:30:05Z</time>
      </trkpt>
      <trkpt lat="46.5661" lon="4.90938">
        <ele>203.2</ele>
        <time>2024-09-18T13:30:06Z</time>
      </trkpt>
      <trkpt lat="46.5661" lon="4.90938">
        <ele>203.2</ele>
        <time>2024-09-18T13:30:07Z</time>
      </trkpt>
      <trkpt lat="46.5661" lon="4.90938">
        <ele>203.4</ele>
        <time>2024-09-18T13:30:08Z</time>
      </trkpt>
      <trkpt lat="46.5661" lon="4.90938">
        <ele>203.4</ele>
        <time>2024-09-18T13:30:09Z</time>
      </trkpt>
      <trkpt lat="46.5661" lon="4.90938">
        <ele>203.4</ele>
        <time>2024-09-18T13:30:10Z</time>
      </trkpt>
      <trkpt lat="46.5661" lon="4.90938">
        <ele>203.4</ele>
        <time>2024-09-18T13:30:11Z</time>
      </trkpt>
      <trkpt lat="46.5661" lon="4.90938">
        <ele>203.4</ele>
        <time>2024-09-18T13:30:12Z</time>
      </trkpt>
      <trkpt lat="46.5661" lon="4.90938">
        <ele>203.4</ele>
        <time>2024-09-18T13:30:13Z</time>
      </trkpt>
      <trkpt lat="46.5661" lon="4.90938">
        <ele>203.4</ele>
        <time>2024-09-18T13:30:14Z</time>
      </trkpt>
      <trkpt lat="46.5661" lon="4.90938">
        <ele>203.4</ele>
        <time>2024-09-18T13:30:15Z</time>
      </trkpt>
      <trkpt lat="46.5661" lon="4.90938">
        <ele>203.2</ele>
        <time>2024-09-18T13:30:16Z</time>
      </trkpt>
      <trkpt lat="46.5661" lon="4.90938">
        <ele>203.2</ele>
        <time>2024-09-18T13:30:17Z</time>
      </trkpt>
      <trkpt lat="46.5661" lon="4.90938">
        <ele>203.2</ele>
        <time>2024-09-18T13:30:18Z</time>
      </trkpt>
      <trkpt lat="46.5661" lon="4.90938">
        <ele>203.2</ele>
        <time>2024-09-18T13:30:19Z</time>
      </trkpt>
      <trkpt lat="46.5661" lon="4.90938">
        <ele>203.6</ele>
        <time>2024-09-18T13:30:20Z</time>
      </trkpt>
      <trkpt lat="46.5661" lon="4.90938">
        <ele>203.6</ele>
        <time>2024-09-18T13:30:21Z</time>
      </trkpt>
      <trkpt lat="46.5661" lon="4.90938">
        <ele>203</ele>
        <time>2024-09-18T13:30:22Z</time>
      </trkpt>
      <trkpt lat="46.5661" lon="4.90938">
        <ele>203</ele>
        <time>2024-09-18T13:30:23Z</time>
      </trkpt>
      <trkpt lat="46.5661" lon="4.90938">
        <ele>203</ele>
        <time>2024-09-18T13:30:24Z</time>
      </trkpt>
      <trkpt lat="46.5661" lon="4.90938">
        <ele>203</ele>
        <time>2024-09-18T13:30:25Z</time>
      </trkpt>
      <trkpt lat="46.5661" lon="4.90938">
        <ele>203.6</ele>
        <time>2024-09-18T13:30:26Z</time>
      </trkpt>
      <trkpt lat="46.5661" lon="4.90938">
        <ele>203.6</ele>
        <time>2024-09-18T13:30:27Z</time>
      </trkpt>
      <trkpt lat="46.5661" lon="4.90938">
        <ele>203.6</ele>
        <time>2024-09-18T13:30:28Z</time>
      </trkpt>
      <trkpt lat="46.5661" lon="4.90938">
        <ele>203.6</ele>
        <time>2024-09-18T13:30:29Z</time>
      </trkpt>
      <trkpt lat="46.5661" lon="4.90938">
        <ele>203</ele>
        <time>2024-09-18T13:30:30Z</time>
      </trkpt>
      <trkpt lat="46.5661" lon="4.90938">
        <ele>203</ele>
        <time>2024-09-18T13:30:31Z</time>
      </trkpt>
      <trkpt lat="46.5661" lon="4.90938">
        <ele>203</ele>
        <time>2024-09-18T13:30:32Z</time>
      </trkpt>
      <trkpt lat="46.5661" lon="4.90938">
        <ele>203</ele>
        <time>2024-09-18T13:30:33Z</time>
      </trkpt>
      <trkpt lat="46.5661" lon="4.90938">
        <ele>203</ele>
        <time>2024-09-18T13:30:34Z</time>
      </trkpt>
      <trkpt lat="46.5661" lon="4.90938">
        <ele>203.2</ele>
        <time>2024-09-18T13:30:35Z</time>
      </trkpt>
      <trkpt lat="46.5656" lon="4.90916">
        <ele>202.4</ele>
        <time>2024-09-18T13:31:49Z</time>
      </trkpt>
      <trkpt lat="46.56559" lon="4.90917">
        <ele>202.4</ele>
        <time>2024-09-18T13:31:50Z</time>
      </trkpt>
      <trkpt lat="46.56557" lon="4.90919">
        <ele>202.4</ele>
        <time>2024-09-18T13:31:51Z</time>
      </trkpt>
      <trkpt lat="46.56557" lon="4.90919">
        <ele>202.4</ele>
        <time>2024-09-18T13:31:52Z</time>
      </trkpt>
      <trkpt lat="46.56558" lon="4.90919">
        <ele>202.4</ele>
        <time>2024-09-18T13:31:53Z</time>
      </trkpt>
      <trkpt lat="46.56558" lon="4.90918">
        <ele>202.4</ele>
        <time>2024-09-18T13:31:54Z</time>
      </trkpt>
      <trkpt lat="46.56558" lon="4.90918">
        <ele>202.4</ele>
        <time>2024-09-18T13:31:55Z</time>
      </trkpt>
      <trkpt lat="46.56559" lon="4.90918">
        <ele>202.2</ele>
        <time>2024-09-18T13:31:56Z</time>
      </trkpt>
      <trkpt lat="46.56559" lon="4.90918">
        <ele>202.2</ele>
        <time>2024-09-18T13:31:57Z</time>
      </trkpt>
      <trkpt lat="46.5656" lon="4.90918">
        <ele>202.2</ele>
        <time>2024-09-18T13:31:58Z</time>
      </trkpt>
      <trkpt lat="46.5656" lon="4.90917">
        <ele>202.2</ele>
        <time>2024-09-18T13:31:59Z</time>
      </trkpt>
      <trkpt lat="46.5656" lon="4.90917">
        <ele>202.2</ele>
        <time>2024-09-18T13:32:00Z</time>
      </trkpt>
      <trkpt lat="46.56561" lon="4.90917">
        <ele>202.4</ele>
        <time>2024-09-18T13:32:01Z</time>
      </trkpt>
      <trkpt lat="46.56561" lon="4.90917">
        <ele>202.4</ele>
        <time>2024-09-18T13:32:02Z</time>
      </trkpt>
      <trkpt lat="46.56561" lon="4.90916">
        <ele>202.4</ele>
        <time>2024-09-18T13:32:03Z</time>
      </trkpt>
      <trkpt lat="46.56562" lon="4.90916">
        <ele>202.4</ele>
        <time>2024-09-18T13:32:44Z</time>
      </trkpt>
      <trkpt lat="46.56562" lon="4.90916">
        <ele>202.4</ele>
        <time>2024-09-18T13:32:45Z</time>
      </trkpt>
      <trkpt lat="46.56563" lon="4.90916">
        <ele>202.4</ele>
        <time>2024-09-18T13:32:46Z</time>
      </trkpt>
      <trkpt lat="46.56563" lon="4.90916">
        <ele>202.4</ele>
        <time>2024-09-18T13:32:47Z</time>
      </trkpt>
      <trkpt lat="46.56563" lon="4.90915">
        <ele>202.4</ele>
        <time>2024-09-18T13:32:48Z</time>
      </trkpt>
      <trkpt lat="46.56564" lon="4.90915">
        <ele>202.2</ele>
        <time>2024-09-18T13:32:49Z</time>
      </trkpt>
      <trkpt lat="46.56564" lon="4.90915">
        <ele>202.2</ele>
        <time>2024-09-18T13:32:50Z</time>
      </trkpt>
      <trkpt lat="46.56564" lon="4.90915">
        <ele>201.6</ele>
        <time>2024-09-18T13:33:10Z</time>
      </trkpt>
      <trkpt lat="46.56565" lon="4.90914">
        <ele>201.6</ele>
        <time>2024-09-18T13:33:11Z</time>
      </trkpt>
      <trkpt lat="46.56565" lon="4.90914">
        <ele>201.4</ele>
        <time>2024-09-18T13:33:12Z</time>
      </trkpt>
      <trkpt lat="46.56566" lon="4.90914">
        <ele>201.4</ele>
        <time>2024-09-18T13:33:13Z</time>
      </trkpt>
      <trkpt lat="46.56566" lon="4.90914">
        <ele>201.4</ele>
        <time>2024-09-18T13:33:14Z</time>
      </trkpt>
      <trkpt lat="46.56566" lon="4.90914">
        <ele>201.4</ele>
        <time>2024-09-18T13:33:15Z</time>
      </trkpt>
      <trkpt lat="46.56567" lon="4.90913">
        <ele>201.4</ele>
        <time>2024-09-18T13:33:16Z</time>
      </trkpt>
      <trkpt lat="46.56567" lon="4.90913">
        <ele>201.2</ele>
        <time>2024-09-18T13:33:25Z</time>
      </trkpt>
      <trkpt lat="46.56567" lon="4.90913">
        <ele>201.2</ele>
        <time>2024-09-18T13:33:26Z</time>
      </trkpt>
      <trkpt lat="46.56568" lon="4.90913">
        <ele>201.4</ele>
        <time>2024-09-18T13:33:27Z</time>
      </trkpt>
      <trkpt lat="46.56568" lon="4.90912">
        <ele>201.4</ele>
        <time>2024-09-18T13:33:28Z</time>
      </trkpt>
      <trkpt lat="46.56569" lon="4.90912">
        <ele>202.2</ele>
        <time>2024-09-18T13:34:15Z</time>
      </trkpt>
      <trkpt lat="46.56569" lon="4.90912">
        <ele>202</ele>
        <time>2024-09-18T13:34:16Z</time>
      </trkpt>
      <trkpt lat="46.56569" lon="4.90912">
        <ele>202</ele>
        <time>2024-09-18T13:34:17Z</time>
      </trkpt>
      <trkpt lat="46.5657" lon="4.90912">
        <ele>202.2</ele>
        <time>2024-09-18T13:34:18Z</time>
      </trkpt>
      <trkpt lat="46.5657" lon="4.90911">
        <ele>202.2</ele>
        <time>2024-09-18T13:34:19Z</time>
      </trkpt>
      <trkpt lat="46.5657" lon="4.90911">
        <ele>202.2</ele>
        <time>2024-09-18T13:34:20Z</time>
      </trkpt>
      <trkpt lat="46.56571" lon="4.90911">
        <ele>202.4</ele>
        <time>2024-09-18T13:34:21Z</time>
      </trkpt>
      <trkpt lat="46.56571" lon="4.90911">
        <ele>202.4</ele>
        <time>2024-09-18T13:34:22Z</time>
      </trkpt>
      <trkpt lat="46.56571" lon="4.90911">
        <ele>202.4</ele>
        <time>2024-09-18T13:34:23Z</time>
      </trkpt>
      <trkpt lat="46.56572" lon="4.9091">
        <ele>202.4</ele>
        <time>2024-09-18T13:34:24Z</time>
      </trkpt>
      <trkpt lat="46.56572" lon="4.9091">
        <ele>201.8</ele>
        <time>2024-09-18T13:34:28Z</time>
      </trkpt>
      <trkpt lat="46.56573" lon="4.9091">
        <ele>201.8</ele>
        <time>2024-09-18T13:34:29Z</time>
      </trkpt>
      <trkpt lat="46.56573" lon="4.9091">
        <ele>202.4</ele>
        <time>2024-09-18T13:34:30Z</time>
      </trkpt>
      <trkpt lat="46.56573" lon="4.90909">
        <ele>202.4</ele>
        <time>2024-09-18T13:34:31Z</time>
      </trkpt>
      <trkpt lat="46.56578" lon="4.90912">
        <ele>202.4</ele>
        <time>2024-09-18T13:34:32Z</time>
      </trkpt>
      <trkpt lat="46.56578" lon="4.90912">
        <ele>202.4</ele>
        <time>2024-09-18T13:34:33Z</time>
      </trkpt>
      <trkpt lat="46.56578" lon="4.90912">
        <ele>202.4</ele>
        <time>2024-09-18T13:34:34Z</time>
      </trkpt>
      <trkpt lat="46.56585" lon="4.90912">
        <ele>201.8</ele>
        <time>2024-09-18T13:34:35Z</time>
      </trkpt>
      <trkpt lat="46.56585" lon="4.90911">
        <ele>201.8</ele>
        <time>2024-09-18T13:34:36Z</time>
      </trkpt>
      <trkpt lat="46.56585" lon="4.90911">
        <ele>201.8</ele>
        <time>2024-09-18T13:34:37Z</time>
      </trkpt>
      <trkpt lat="46.56585" lon="4.9091">
        <ele>202.8</ele>
        <time>2024-09-18T13:34:38Z</time>
      </trkpt>
      <trkpt lat="46.56585" lon="4.9091">
        <ele>203.2</ele>
        <time>2024-09-18T13:34:39Z</time>
      </trkpt>
      <trkpt lat="46.56585" lon="4.90909">
        <ele>203.2</ele>
        <time>2024-09-18T13:34:40Z</time>
      </trkpt>
      <trkpt lat="46.56585" lon="4.90909">
        <ele>203.2</ele>
        <time>2024-09-18T13:34:41Z</time>
      </trkpt>
      <trkpt lat="46.56585" lon="4.90909">
        <ele>202.4</ele>
        <time>2024-09-18T13:34:42Z</time>
      </trkpt>
      <trkpt lat="46.56585" lon="4.90908">
        <ele>202.4</ele>
        <time>2024-09-18T13:34:43Z</time>
      </trkpt>
      <trkpt lat="46.56585" lon="4.90908">
        <ele>202.8</ele>
        <time>2024-09-18T13:34:44Z</time>
      </trkpt>
      <trkpt lat="46.56586" lon="4.90907">
        <ele>202.8</ele>
        <time>2024-09-18T13:34:45Z</time>
      </trkpt>
      <trkpt lat="46.56586" lon="4.90907">
        <ele>202.8</ele>
        <time>2024-09-18T13:34:46Z</time>
      </trkpt>
      <trkpt lat="46.56586" lon="4.90906">
        <ele>203</ele>
        <time>2024-09-18T13:34:47Z</time>
      </trkpt>
      <trkpt lat="46.56586" lon="4.90906">
        <ele>202.8</ele>
        <time>2024-09-18T13:34:48Z</time>
      </trkpt>
      <trkpt lat="46.56586" lon="4.90906">
        <ele>202.8</ele>
        <time>2024-09-18T13:34:49Z</time>
      </trkpt>
      <trkpt lat="46.56586" lon="4.90905">
        <ele>202.8</ele>
        <time>2024-09-18T13:34:50Z</time>
      </trkpt>
      <trkpt lat="46.56586" lon="4.90905">
        <ele>202.8</ele>
        <time>2024-09-18T13:34:51Z</time>
      </trkpt>
      <trkpt lat="46.56586" lon="4.90904">
        <ele>203</ele>
        <time>2024-09-18T13:34:52Z</time>
      </trkpt>
      <trkpt lat="46.56586" lon="4.90904">
        <ele>203</ele>
        <time>2024-09-18T13:34:53Z</time>
      </trkpt>
      <trkpt lat="46.56586" lon="4.90903">
        <ele>203</ele>
        <time>2024-09-18T13:34:54Z</time>
      </trkpt>
      <trkpt lat="46.56586" lon="4.90903">
        <ele>203</ele>
        <time>2024-09-18T13:34:55Z</time>
      </trkpt>
      <trkpt lat="46.56586" lon="4.90903">
        <ele>203</ele>
        <time>2024-09-18T13:34:56Z</time>
      </trkpt>
      <trkpt lat="46.56586" lon="4.90902">
        <ele>203</ele>
        <time>2024-09-18T13:34:57Z</time>
      </trkpt>
      <trkpt lat="46.56586" lon="4.90902">
        <ele>203</ele>
        <time>2024-09-18T13:34:58Z</time>
      </trkpt>
      <trkpt lat="46.56586" lon="4.90901">
        <ele>203</ele>
        <time>2024-09-18T13:34:59Z</time>
      </trkpt>
      <trkpt lat="46.56586" lon="4.90901">
        <ele>203</ele>
        <time>2024-09-18T13:35:00Z</time>
      </trkpt>
      <trkpt lat="46.56586" lon="4.909">
        <ele>203</ele>
        <time>2024-09-18T13:35:01Z</time>
      </trkpt>
      <trkpt lat="46.56586" lon="4.909">
        <ele>203</ele>
        <time>2024-09-18T13:35:02Z</time>
      </trkpt>
      <trkpt lat="46.56586" lon="4.909">
        <ele>203</ele>
        <time>2024-09-18T13:35:03Z</time>
      </trkpt>
      <trkpt lat="46.56587" lon="4.90899">
        <ele>203</ele>
        <time>2024-09-18T13:35:04Z</time>
      </trkpt>
      <trkpt lat="46.56587" lon="4.90899">
        <ele>203</ele>
        <time>2024-09-18T13:35:05Z</time>
      </trkpt>
      <trkpt lat="46.56587" lon="4.90898">
        <ele>203.2</ele>
        <time>2024-09-18T13:35:06Z</time>
      </trkpt>
      <trkpt lat="46.56587" lon="4.90898">
        <ele>203.2</ele>
        <time>2024-09-18T13:35:07Z</time>
      </trkpt>
      <trkpt lat="46.56587" lon="4.90898">
        <ele>203.2</ele>
        <time>2024-09-18T13:35:08Z</time>
      </trkpt>
      <trkpt lat="46.56587" lon="4.90897">
        <ele>203.2</ele>
        <time>2024-09-18T13:35:09Z</time>
      </trkpt>
      <trkpt lat="46.56587" lon="4.90897">
        <ele>202.4</ele>
        <time>2024-09-18T13:35:10Z</time>
      </trkpt>
      <trkpt lat="46.56587" lon="4.90896">
        <ele>203.2</ele>
        <time>2024-09-18T13:35:11Z</time>
      </trkpt>
      <trkpt lat="46.56587" lon="4.90896">
        <ele>203.2</ele>
        <time>2024-09-18T13:35:12Z</time>
      </trkpt>
      <trkpt lat="46.56587" lon="4.90895">
        <ele>203.2</ele>
        <time>2024-09-18T13:35:13Z</time>
      </trkpt>
      <trkpt lat="46.56587" lon="4.90895">
        <ele>203.8</ele>
        <time>2024-09-18T13:35:14Z</time>
      </trkpt>
      <trkpt lat="46.56587" lon="4.90895">
        <ele>203.4</ele>
        <time>2024-09-18T13:35:15Z</time>
      </trkpt>
      <trkpt lat="46.56587" lon="4.90894">
        <ele>203.4</ele>
        <time>2024-09-18T13:35:16Z</time>
      </trkpt>
      <trkpt lat="46.56587" lon="4.90894">
        <ele>203.4</ele>
        <time>2024-09-18T13:35:17Z</time>
      </trkpt>
      <trkpt lat="46.56587" lon="4.90893">
        <ele>203.4</ele>
        <time>2024-09-18T13:35:18Z</time>
      </trkpt>
      <trkpt lat="46.56587" lon="4.90893">
        <ele>203.4</ele>
        <time>2024-09-18T13:35:19Z</time>
      </trkpt>
      <trkpt lat="46.56587" lon="4.90892">
        <ele>203.8</ele>
        <time>2024-09-18T13:35:20Z</time>
      </trkpt>
      <trkpt lat="46.56587" lon="4.90892">
        <ele>203.8</ele>
        <time>2024-09-18T13:35:21Z</time>
      </trkpt>
      <trkpt lat="46.56588" lon="4.90892">
        <ele>203.8</ele>
        <time>2024-09-18T13:35:22Z</time>
      </trkpt>
      <trkpt lat="46.56588" lon="4.90891">
        <ele>203.8</ele>
        <time>2024-09-18T13:35:23Z</time>
      </trkpt>
      <trkpt lat="46.56588" lon="4.90891">
        <ele>204</ele>
        <time>2024-09-18T13:35:24Z</time>
      </trkpt>
      <trkpt lat="46.56588" lon="4.9089">
        <ele>204</ele>
        <time>2024-09-18T13:35:25Z</time>
      </trkpt>
      <trkpt lat="46.56588" lon="4.9089">
        <ele>204</ele>
        <time>2024-09-18T13:35:26Z</time>
      </trkpt>
      <trkpt lat="46.56588" lon="4.90889">
        <ele>204</ele>
        <time>2024-09-18T13:35:27Z</time>
      </trkpt>
      <trkpt lat="46.56588" lon="4.90889">
        <ele>204.8</ele>
        <time>2024-09-18T13:35:28Z</time>
      </trkpt>
      <trkpt lat="46.56588" lon="4.90889">
        <ele>204.8</ele>
        <time>2024-09-18T13:35:29Z</time>
      </trkpt>
      <trkpt lat="46.56588" lon="4.90888">
        <ele>204.8</ele>
        <time>2024-09-18T13:35:30Z</time>
      </trkpt>
      <trkpt lat="46.56588" lon="4.90888">
        <ele>204.8</ele>
        <time>2024-09-18T13:35:31Z</time>
      </trkpt>
      <trkpt lat="46.56588" lon="4.90887">
        <ele>205.8</ele>
        <time>2024-09-18T13:35:32Z</time>
      </trkpt>
      <trkpt lat="46.56588" lon="4.90887">
        <ele>205.6</ele>
        <time>2024-09-18T13:35:33Z</time>
      </trkpt>
      <trkpt lat="46.56588" lon="4.90886">
        <ele>205.6</ele>
        <time>2024-09-18T13:35:34Z</time>
      </trkpt>
      <trkpt lat="46.56588" lon="4.90886">
        <ele>205.6</ele>
        <time>2024-09-18T13:35:35Z</time>
      </trkpt>
      <trkpt lat="46.56588" lon="4.90886">
        <ele>205.6</ele>
        <time>2024-09-18T13:35:36Z</time>
      </trkpt>
      <trkpt lat="46.56588" lon="4.90885">
        <ele>206.6</ele>
        <time>2024-09-18T13:35:37Z</time>
      </trkpt>
      <trkpt lat="46.56588" lon="4.90885">
        <ele>206.4</ele>
        <time>2024-09-18T13:35:38Z</time>
      </trkpt>
      <trkpt lat="46.56588" lon="4.90884">
        <ele>206.4</ele>
        <time>2024-09-18T13:35:39Z</time>
      </trkpt>
      <trkpt lat="46.56588" lon="4.90884">
        <ele>206.4</ele>
        <time>2024-09-18T13:35:40Z</time>
      </trkpt>
      <trkpt lat="46.56589" lon="4.90883">
        <ele>207.4</ele>
        <time>2024-09-18T13:35:41Z</time>
      </trkpt>
      <trkpt lat="46.56589" lon="4.90883">
        <ele>207.4</ele>
        <time>2024-09-18T13:35:42Z</time>
      </trkpt>
      <trkpt lat="46.56589" lon="4.90883">
        <ele>208.6</ele>
        <time>2024-09-18T13:35:43Z</time>
      </trkpt>
      <trkpt lat="46.56589" lon="4.90882">
        <ele>208.6</ele>
        <time>2024-09-18T13:35:44Z</time>
      </trkpt>
      <trkpt lat="46.56589" lon="4.90882">
        <ele>208.6</ele>
        <time>2024-09-18T13:35:45Z</time>
      </trkpt>
      <trkpt lat="46.56589" lon="4.90881">
        <ele>209</ele>
        <time>2024-09-18T13:35:46Z</time>
      </trkpt>
      <trkpt lat="46.56589" lon="4.90881">
        <ele>209</ele>
        <time>2024-09-18T13:35:47Z</time>
      </trkpt>
      <trkpt lat="46.56589" lon="4.9088">
        <ele>209</ele>
        <time>2024-09-18T13:35:48Z</time>
      </trkpt>
      <trkpt lat="46.56589" lon="4.9088">
        <ele>209</ele>
        <time>2024-09-18T13:35:49Z</time>
      </trkpt>
      <trkpt lat="46.56589" lon="4.9088">
        <ele>209</ele>
        <time>2024-09-18T13:35:50Z</time>
      </trkpt>
      <trkpt lat="46.56593" lon="4.90847">
        <ele>210.8</ele>
        <time>2024-09-18T13:35:51Z</time>
      </trkpt>
      <trkpt lat="46.56592" lon="4.90848">
        <ele>210.8</ele>
        <time>2024-09-18T13:35:52Z</time>
      </trkpt>
      <trkpt lat="46.5659" lon="4.9085">
        <ele>210.8</ele>
        <time>2024-09-18T13:35:53Z</time>
      </trkpt>
      <trkpt lat="46.56585" lon="4.90854">
        <ele>210.8</ele>
        <time>2024-09-18T13:35:54Z</time>
      </trkpt>
      <trkpt lat="46.56582" lon="4.90857">
        <ele>211.6</ele>
        <time>2024-09-18T13:35:55Z</time>
      </trkpt>
      <trkpt lat="46.56576" lon="4.90862">
        <ele>211.6</ele>
        <time>2024-09-18T13:35:56Z</time>
      </trkpt>
      <trkpt lat="46.56576" lon="4.90862">
        <ele>211.6</ele>
        <time>2024-09-18T13:35:57Z</time>
      </trkpt>
      <trkpt lat="46.56572" lon="4.90866">
        <ele>211.6</ele>
        <time>2024-09-18T13:35:58Z</time>
      </trkpt>
      <trkpt lat="46.56569" lon="4.90866">
        <ele>211.6</ele>
        <time>2024-09-18T13:35:59Z</time>
      </trkpt>
      <trkpt lat="46.56563" lon="4.90866">
        <ele>211.2</ele>
        <time>2024-09-18T13:36:00Z</time>
      </trkpt>
      <trkpt lat="46.56558" lon="4.90867">
        <ele>211.2</ele>
        <time>2024-09-18T13:36:01Z</time>
      </trkpt>
      <trkpt lat="46.56554" lon="4.90866">
        <ele>211.2</ele>
        <time>2024-09-18T13:36:02Z</time>
      </trkpt>
      <trkpt lat="46.56555" lon="4.90858">
        <ele>211.6</ele>
        <time>2024-09-18T13:36:03Z</time>
      </trkpt>
      <trkpt lat="46.56556" lon="4.90854">
        <ele>211.4</ele>
        <time>2024-09-18T13:36:04Z</time>
      </trkpt>
      <trkpt lat="46.56557" lon="4.90852">
        <ele>211.4</ele>
        <time>2024-09-18T13:36:05Z</time>
      </trkpt>
      <trkpt lat="46.56556" lon="4.90847">
        <ele>211.4</ele>
        <time>2024-09-18T13:36:06Z</time>
      </trkpt>
      <trkpt lat="46.56552" lon="4.90844">
        <ele>211.4</ele>
        <time>2024-09-18T13:36:07Z</time>
      </trkpt>
      <trkpt lat="46.56552" lon="4.90844">
        <ele>211.6</ele>
        <time>2024-09-18T13:36:08Z</time>
      </trkpt>
      <trkpt lat="46.56552" lon="4.90844">
        <ele>211.6</ele>
        <time>2024-09-18T13:36:09Z</time>
      </trkpt>
      <trkpt lat="46.56552" lon="4.90844">
        <ele>211.6</ele>
        <time>2024-09-18T13:36:10Z</time>
      </trkpt>
      <trkpt lat="46.56552" lon="4.90844">
        <ele>211.6</ele>
        <time>2024-09-18T13:36:11Z</time>
      </trkpt>
      <trkpt lat="46.56552" lon="4.90844">
        <ele>211.4</ele>
        <time>2024-09-18T13:36:12Z</time>
      </trkpt>
      <trkpt lat="46.56551" lon="4.90844">
        <ele>211.4</ele>
        <time>2024-09-18T13:36:13Z</time>
      </trkpt>
      <trkpt lat="46.56551" lon="4.90845">
        <ele>211.4</ele>
        <time>2024-09-18T13:36:14Z</time>
      </trkpt>
      <trkpt lat="46.56551" lon="4.90845">
        <ele>211.4</ele>
        <time>2024-09-18T13:36:15Z</time>
      </trkpt>
      <trkpt lat="46.56551" lon="4.90845">
        <ele>211.4</ele>
        <time>2024-09-18T13:36:16Z</time>
      </trkpt>
      <trkpt lat="46.56551" lon="4.90845">
        <ele>211.6</ele>
        <time>2024-09-18T13:36:17Z</time>
      </trkpt>
      <trkpt lat="46.56551" lon="4.90845">
        <ele>211.6</ele>
        <time>2024-09-18T13:36:18Z</time>
      </trkpt>
      <trkpt lat="46.5655" lon="4.90845">
        <ele>211.6</ele>
        <time>2024-09-18T13:36:19Z</time>
      </trkpt>
      <trkpt lat="46.5655" lon="4.90845">
        <ele>211.6</ele>
        <time>2024-09-18T13:36:20Z</time>
      </trkpt>
      <trkpt lat="46.5655" lon="4.90845">
        <ele>211.6</ele>
        <time>2024-09-18T13:36:21Z</time>
      </trkpt>
      <trkpt lat="46.5655" lon="4.90845">
        <ele>211.6</ele>
        <time>2024-09-18T13:36:22Z</time>
      </trkpt>
      <trkpt lat="46.5655" lon="4.90845">
        <ele>211.6</ele>
        <time>2024-09-18T13:36:23Z</time>
      </trkpt>
      <trkpt lat="46.56549" lon="4.90845">
        <ele>211.6</ele>
        <time>2024-09-18T13:36:24Z</time>
      </trkpt>
      <trkpt lat="46.56549" lon="4.90845">
        <ele>211.6</ele>
        <time>2024-09-18T13:36:25Z</time>
      </trkpt>
      <trkpt lat="46.56549" lon="4.90845">
        <ele>211.4</ele>
        <time>2024-09-18T13:36:26Z</time>
      </trkpt>
      <trkpt lat="46.56549" lon="4.90845">
        <ele>211.4</ele>
        <time>2024-09-18T13:36:27Z</time>
      </trkpt>
      <trkpt lat="46.56549" lon="4.90845">
        <ele>211.4</ele>
        <time>2024-09-18T13:36:28Z</time>
      </trkpt>
      <trkpt lat="46.56549" lon="4.90846">
        <ele>211.4</ele>
        <time>2024-09-18T13:36:29Z</time>
      </trkpt>
      <trkpt lat="46.56548" lon="4.90846">
        <ele>211.4</ele>
        <time>2024-09-18T13:36:30Z</time>
      </trkpt>
      <trkpt lat="46.56548" lon="4.90846">
        <ele>211.6</ele>
        <time>2024-09-18T13:36:31Z</time>
      </trkpt>
      <trkpt lat="46.56548" lon="4.90846">
        <ele>211.6</ele>
        <time>2024-09-18T13:36:32Z</time>
      </trkpt>
      <trkpt lat="46.56548" lon="4.90846">
        <ele>211.6</ele>
        <time>2024-09-18T13:36:33Z</time>
      </trkpt>
      <trkpt lat="46.56548" lon="4.90846">
        <ele>211.6</ele>
        <time>2024-09-18T13:36:34Z</time>
      </trkpt>
      <trkpt lat="46.56548" lon="4.90846">
        <ele>211.6</ele>
        <time>2024-09-18T13:36:35Z</time>
      </trkpt>
      <trkpt lat="46.56547" lon="4.90846">
        <ele>211.2</ele>
        <time>2024-09-18T13:36:36Z</time>
      </trkpt>
      <trkpt lat="46.56547" lon="4.90846">
        <ele>211.2</ele>
        <time>2024-09-18T13:36:37Z</time>
      </trkpt>
      <trkpt lat="46.56547" lon="4.90846">
        <ele>211.2</ele>
        <time>2024-09-18T13:36:38Z</time>
      </trkpt>
      <trkpt lat="46.56547" lon="4.90846">
        <ele>211.2</ele>
        <time>2024-09-18T13:36:39Z</time>
      </trkpt>
      <trkpt lat="46.56547" lon="4.90846">
        <ele>211.6</ele>
        <time>2024-09-18T13:36:40Z</time>
      </trkpt>
      <trkpt lat="46.56546" lon="4.90846">
        <ele>211.6</ele>
        <time>2024-09-18T13:36:41Z</time>
      </trkpt>
      <trkpt lat="46.56546" lon="4.90846">
        <ele>211.6</ele>
        <time>2024-09-18T13:36:42Z</time>
      </trkpt>
      <trkpt lat="46.56546" lon="4.90847">
        <ele>211.4</ele>
        <time>2024-09-18T13:36:43Z</time>
      </trkpt>
      <trkpt lat="46.56546" lon="4.90847">
        <ele>211.4</ele>
        <time>2024-09-18T13:36:44Z</time>
      </trkpt>
      <trkpt lat="46.56546" lon="4.90847">
        <ele>211.4</ele>
        <time>2024-09-18T13:36:45Z</time>
      </trkpt>
      <trkpt lat="46.56546" lon="4.90847">
        <ele>211.4</ele>
        <time>2024-09-18T13:36:46Z</time>
      </trkpt>
      <trkpt lat="46.56545" lon="4.90847">
        <ele>211.4</ele>
        <time>2024-09-18T13:36:47Z</time>
      </trkpt>
      <trkpt lat="46.56545" lon="4.90847">
        <ele>211.4</ele>
        <time>2024-09-18T13:36:48Z</time>
      </trkpt>
      <trkpt lat="46.56545" lon="4.90847">
        <ele>211.4</ele>
        <time>2024-09-18T13:36:49Z</time>
      </trkpt>
      <trkpt lat="46.56545" lon="4.90847">
        <ele>211.4</ele>
        <time>2024-09-18T13:36:50Z</time>
      </trkpt>
      <trkpt lat="46.56545" lon="4.90847">
        <ele>211.4</ele>
        <time>2024-09-18T13:36:51Z</time>
      </trkpt>
      <trkpt lat="46.56544" lon="4.90847">
        <ele>211.4</ele>
        <time>2024-09-18T13:36:52Z</time>
      </trkpt>
      <trkpt lat="46.56544" lon="4.90847">
        <ele>211.4</ele>
        <time>2024-09-18T13:36:53Z</time>
      </trkpt>
      <trkpt lat="46.56544" lon="4.90847">
        <ele>211.4</ele>
        <time>2024-09-18T13:36:54Z</time>
      </trkpt>
      <trkpt lat="46.56544" lon="4.90847">
        <ele>211.4</ele>
        <time>2024-09-18T13:36:55Z</time>
      </trkpt>
      <trkpt lat="46.56544" lon="4.90847">
        <ele>211.4</ele>
        <time>2024-09-18T13:36:56Z</time>
      </trkpt>
      <trkpt lat="46.56544" lon="4.90848">
        <ele>211.4</ele>
        <time>2024-09-18T13:36:57Z</time>
      </trkpt>
      <trkpt lat="46.56543" lon="4.90848">
        <ele>211.6</ele>
        <time>2024-09-18T13:36:58Z</time>
      </trkpt>
      <trkpt lat="46.56543" lon="4.90848">
        <ele>211.6</ele>
        <time>2024-09-18T13:36:59Z</time>
      </trkpt>
      <trkpt lat="46.56543" lon="4.90848">
        <ele>211.6</ele>
        <time>2024-09-18T13:37:00Z</time>
      </trkpt>
      <trkpt lat="46.56543" lon="4.90848">
        <ele>211.4</ele>
        <time>2024-09-18T13:37:01Z</time>
      </trkpt>
      <trkpt lat="46.56543" lon="4.90848">
        <ele>211.4</ele>
        <time>2024-09-18T13:37:02Z</time>
      </trkpt>
      <trkpt lat="46.56543" lon="4.90848">
        <ele>211.6</ele>
        <time>2024-09-18T13:37:03Z</time>
      </trkpt>
      <trkpt lat="46.56542" lon="4.90848">
        <ele>211.6</ele>
        <time>2024-09-18T13:37:04Z</time>
      </trkpt>
      <trkpt lat="46.56542" lon="4.90848">
        <ele>211.6</ele>
        <time>2024-09-18T13:37:05Z</time>
      </trkpt>
      <trkpt lat="46.56542" lon="4.90848">
        <ele>211.4</ele>
        <time>2024-09-18T13:37:06Z</time>
      </trkpt>
      <trkpt lat="46.56542" lon="4.90848">
        <ele>211.4</ele>
        <time>2024-09-18T13:37:07Z</time>
      </trkpt>
      <trkpt lat="46.56542" lon="4.90848">
        <ele>211.6</ele>
        <time>2024-09-18T13:37:08Z</time>
      </trkpt>
      <trkpt lat="46.56541" lon="4.90848">
        <ele>211.6</ele>
        <time>2024-09-18T13:37:09Z</time>
      </trkpt>
      <trkpt lat="46.56541" lon="4.90848">
        <ele>211.6</ele>
        <time>2024-09-18T13:37:10Z</time>
      </trkpt>
      <trkpt lat="46.56541" lon="4.90849">
        <ele>211.6</ele>
        <time>2024-09-18T13:37:11Z</time>
      </trkpt>
      <trkpt lat="46.56541" lon="4.90849">
        <ele>211.6</ele>
        <time>2024-09-18T13:37:12Z</time>
      </trkpt>
      <trkpt lat="46.56541" lon="4.90849">
        <ele>211.6</ele>
        <time>2024-09-18T13:37:13Z</time>
      </trkpt>
      <trkpt lat="46.56541" lon="4.90849">
        <ele>211.6</ele>
        <time>2024-09-18T13:37:14Z</time>
      </trkpt>
      <trkpt lat="46.5654" lon="4.90849">
        <ele>211.4</ele>
        <time>2024-09-18T13:37:15Z</time>
      </trkpt>
      <trkpt lat="46.5654" lon="4.90849">
        <ele>211.4</ele>
        <time>2024-09-18T13:37:16Z</time>
      </trkpt>
      <trkpt lat="46.5654" lon="4.90849">
        <ele>211.4</ele>
        <time>2024-09-18T13:37:17Z</time>
      </trkpt>
      <trkpt lat="46.5654" lon="4.90849">
        <ele>211.4</ele>
        <time>2024-09-18T13:37:18Z</time>
      </trkpt>
      <trkpt lat="46.5654" lon="4.90849">
        <ele>211.4</ele>
        <time>2024-09-18T13:37:19Z</time>
      </trkpt>
      <trkpt lat="46.5654" lon="4.90849">
        <ele>211.4</ele>
        <time>2024-09-18T13:37:20Z</time>
      </trkpt>
      <trkpt lat="46.56539" lon="4.90849">
        <ele>211.4</ele>
        <time>2024-09-18T13:37:21Z</time>
      </trkpt>
      <trkpt lat="46.56539" lon="4.90849">
        <ele>211.4</ele>
        <time>2024-09-18T13:37:22Z</time>
      </trkpt>
      <trkpt lat="46.56539" lon="4.90849">
        <ele>211.4</ele>
        <time>2024-09-18T13:37:23Z</time>
      </trkpt>
      <trkpt lat="46.56539" lon="4.90849">
        <ele>211.4</ele>
        <time>2024-09-18T13:37:24Z</time>
      </trkpt>
      <trkpt lat="46.56539" lon="4.9085">
        <ele>211.2</ele>
        <time>2024-09-18T13:37:25Z</time>
      </trkpt>
      <trkpt lat="46.56538" lon="4.9085">
        <ele>211.2</ele>
        <time>2024-09-18T13:37:26Z</time>
      </trkpt>
      <trkpt lat="46.56538" lon="4.9085">
        <ele>211.2</ele>
        <time>2024-09-18T13:37:27Z</time>
      </trkpt>
      <trkpt lat="46.56538" lon="4.9085">
        <ele>211.4</ele>
        <time>2024-09-18T13:37:28Z</time>
      </trkpt>
      <trkpt lat="46.56538" lon="4.9085">
        <ele>211.6</ele>
        <time>2024-09-18T13:37:29Z</time>
      </trkpt>
      <trkpt lat="46.56538" lon="4.9085">
        <ele>211.6</ele>
        <time>2024-09-18T13:37:30Z</time>
      </trkpt>
      <trkpt lat="46.56538" lon="4.9085">
        <ele>211.6</ele>
        <time>2024-09-18T13:37:31Z</time>
      </trkpt>
      <trkpt lat="46.56537" lon="4.9085">
        <ele>211.4</ele>
        <time>2024-09-18T13:37:32Z</time>
      </trkpt>
      <trkpt lat="46.56537" lon="4.9085">
        <ele>211.4</ele>
        <time>2024-09-18T13:37:33Z</time>
      </trkpt>
      <trkpt lat="46.56537" lon="4.9085">
        <ele>211.4</ele>
        <time>2024-09-18T13:37:34Z</time>
      </trkpt>
      <trkpt lat="46.56537" lon="4.9085">
        <ele>211.4</ele>
        <time>2024-09-18T13:37:35Z</time>
      </trkpt>
      <trkpt lat="46.56537" lon="4.9085">
        <ele>211.4</ele>
        <time>2024-09-18T13:37:36Z</time>
      </trkpt>
      <trkpt lat="46.56537" lon="4.9085">
        <ele>211.2</ele>
        <time>2024-09-18T13:37:37Z</time>
      </trkpt>
      <trkpt lat="46.56536" lon="4.9085">
        <ele>211.2</ele>
        <time>2024-09-18T13:37:38Z</time>
      </trkpt>
      <trkpt lat="46.56536" lon="4.9085">
        <ele>211.2</ele>
        <time>2024-09-18T13:37:39Z</time>
      </trkpt>
      <trkpt lat="46.56536" lon="4.90851">
        <ele>211.2</ele>
        <time>2024-09-18T13:37:40Z</time>
      </trkpt>
      <trkpt lat="46.56536" lon="4.90851">
        <ele>211.2</ele>
        <time>2024-09-18T13:37:41Z</time>
      </trkpt>
      <trkpt lat="46.56536" lon="4.90851">
        <ele>211.2</ele>
        <time>2024-09-18T13:37:42Z</time>
      </trkpt>
      <trkpt lat="46.56535" lon="4.90851">
        <ele>211.2</ele>
        <time>2024-09-18T13:37:43Z</time>
      </trkpt>
      <trkpt lat="46.56535" lon="4.90851">
        <ele>211.2</ele>
        <time>2024-09-18T13:37:44Z</time>
      </trkpt>
      <trkpt lat="46.56535" lon="4.90851">
        <ele>211.2</ele>
        <time>2024-09-18T13:37:45Z</time>
      </trkpt>
      <trkpt lat="46.56535" lon="4.90851">
        <ele>211.4</ele>
        <time>2024-09-18T13:37:46Z</time>
      </trkpt>
      <trkpt lat="46.56535" lon="4.90851">
        <ele>211.6</ele>
        <time>2024-09-18T13:37:47Z</time>
      </trkpt>
      <trkpt lat="46.56535" lon="4.90851">
        <ele>211.6</ele>
        <time>2024-09-18T13:37:48Z</time>
      </trkpt>
      <trkpt lat="46.56534" lon="4.90851">
        <ele>211.6</ele>
        <time>2024-09-18T13:37:49Z</time>
      </trkpt>
      <trkpt lat="46.56534" lon="4.90851">
        <ele>211.6</ele>
        <time>2024-09-18T13:37:50Z</time>
      </trkpt>
      <trkpt lat="46.56534" lon="4.90851">
        <ele>211.4</ele>
        <time>2024-09-18T13:37:51Z</time>
      </trkpt>
      <trkpt lat="46.56534" lon="4.90851">
        <ele>211.4</ele>
        <time>2024-09-18T13:37:52Z</time>
      </trkpt>
      <trkpt lat="46.56534" lon="4.90851">
        <ele>211.4</ele>
        <time>2024-09-18T13:37:53Z</time>
      </trkpt>
      <trkpt lat="46.56534" lon="4.90852">
        <ele>211.4</ele>
        <time>2024-09-18T13:37:54Z</time>
      </trkpt>
      <trkpt lat="46.56533" lon="4.90852">
        <ele>211.4</ele>
        <time>2024-09-18T13:37:55Z</time>
      </trkpt>
      <trkpt lat="46.56533" lon="4.90852">
        <ele>211.4</ele>
        <time>2024-09-18T13:37:56Z</time>
      </trkpt>
      <trkpt lat="46.56533" lon="4.90852">
        <ele>211.4</ele>
        <time>2024-09-18T13:37:57Z</time>
      </trkpt>
      <trkpt lat="46.56533" lon="4.90852">
        <ele>211.4</ele>
        <time>2024-09-18T13:37:58Z</time>
      </trkpt>
      <trkpt lat="46.56533" lon="4.90852">
        <ele>211</ele>
        <time>2024-09-18T13:37:59Z</time>
      </trkpt>
      <trkpt lat="46.56532" lon="4.90852">
        <ele>211</ele>
        <time>2024-09-18T13:38:00Z</time>
      </trkpt>
      <trkpt lat="46.56532" lon="4.90852">
        <ele>211</ele>
        <time>2024-09-18T13:38:01Z</time>
      </trkpt>
      <trkpt lat="46.56532" lon="4.90852">
        <ele>211</ele>
        <time>2024-09-18T13:38:02Z</time>
      </trkpt>
      <trkpt lat="46.56532" lon="4.90852">
        <ele>211</ele>
        <time>2024-09-18T13:38:03Z</time>
      </trkpt>
      <trkpt lat="46.56532" lon="4.90852">
        <ele>211.4</ele>
        <time>2024-09-18T13:38:04Z</time>
      </trkpt>
      <trkpt lat="46.56532" lon="4.90852">
        <ele>211.6</ele>
        <time>2024-09-18T13:38:05Z</time>
      </trkpt>
      <trkpt lat="46.56531" lon="4.90852">
        <ele>211.6</ele>
        <time>2024-09-18T13:38:06Z</time>
      </trkpt>
      <trkpt lat="46.56531" lon="4.90852">
        <ele>211.6</ele>
        <time>2024-09-18T13:38:07Z</time>
      </trkpt>
      <trkpt lat="46.56531" lon="4.90853">
        <ele>211.6</ele>
        <time>2024-09-18T13:38:08Z</time>
      </trkpt>
      <trkpt lat="46.56531" lon="4.90853">
        <ele>211.6</ele>
        <time>2024-09-18T13:38:09Z</time>
      </trkpt>
      <trkpt lat="46.56531" lon="4.90853">
        <ele>211.6</ele>
        <time>2024-09-18T13:38:10Z</time>
      </trkpt>
      <trkpt lat="46.5653" lon="4.90853">
        <ele>211.6</ele>
        <time>2024-09-18T13:38:11Z</time>
      </trkpt>
      <trkpt lat="46.5653" lon="4.90853">
        <ele>211.6</ele>
        <time>2024-09-18T13:38:12Z</time>
      </trkpt>
      <trkpt lat="46.5653" lon="4.90853">
        <ele>211.6</ele>
        <time>2024-09-18T13:38:13Z</time>
      </trkpt>
      <trkpt lat="46.5653" lon="4.90853">
        <ele>211.6</ele>
        <time>2024-09-18T13:38:14Z</time>
      </trkpt>
      <trkpt lat="46.5653" lon="4.90853">
        <ele>211.6</ele>
        <time>2024-09-18T13:38:15Z</time>
      </trkpt>
      <trkpt lat="46.5653" lon="4.90853">
        <ele>211.6</ele>
        <time>2024-09-18T13:38:16Z</time>
      </trkpt>
      <trkpt lat="46.56529" lon="4.90853">
        <ele>211.4</ele>
        <time>2024-09-18T13:38:17Z</time>
      </trkpt>
      <trkpt lat="46.56529" lon="4.90853">
        <ele>211.6</ele>
        <time>2024-09-18T13:38:18Z</time>
      </trkpt>
      <trkpt lat="46.56529" lon="4.90853">
        <ele>211.6</ele>
        <time>2024-09-18T13:38:19Z</time>
      </trkpt>
      <trkpt lat="46.56529" lon="4.90853">
        <ele>211.6</ele>
        <time>2024-09-18T13:38:20Z</time>
      </trkpt>
      <trkpt lat="46.56529" lon="4.90853">
        <ele>211.6</ele>
        <time>2024-09-18T13:38:21Z</time>
      </trkpt>
      <trkpt lat="46.56529" lon="4.90854">
        <ele>211.6</ele>
        <time>2024-09-18T13:38:22Z</time>
      </trkpt>
      <trkpt lat="46.56528" lon="4.90854">
        <ele>211.6</ele>
        <time>2024-09-18T13:38:23Z</time>
      </trkpt>
      <trkpt lat="46.56528" lon="4.90854">
        <ele>211.6</ele>
        <time>2024-09-18T13:38:24Z</time>
      </trkpt>
      <trkpt lat="46.56528" lon="4.90854">
        <ele>211.6</ele>
        <time>2024-09-18T13:38:25Z</time>
      </trkpt>
      <trkpt lat="46.56528" lon="4.90854">
        <ele>211.6</ele>
        <time>2024-09-18T13:38:26Z</time>
      </trkpt>
      <trkpt lat="46.56528" lon="4.90854">
        <ele>211.4</ele>
        <time>2024-09-18T13:38:27Z</time>
      </trkpt>
      <trkpt lat="46.56527" lon="4.90854">
        <ele>211.4</ele>
        <time>2024-09-18T13:38:28Z</time>
      </trkpt>
      <trkpt lat="46.56527" lon="4.90854">
        <ele>211.4</ele>
        <time>2024-09-18T13:38:29Z</time>
      </trkpt>
      <trkpt lat="46.56527" lon="4.90854">
        <ele>211.4</ele>
        <time>2024-09-18T13:38:30Z</time>
      </trkpt>
      <trkpt lat="46.56527" lon="4.90854">
        <ele>211.4</ele>
        <time>2024-09-18T13:38:31Z</time>
      </trkpt>
      <trkpt lat="46.56527" lon="4.90854">
        <ele>211.4</ele>
        <time>2024-09-18T13:38:32Z</time>
      </trkpt>
      <trkpt lat="46.56527" lon="4.90854">
        <ele>211.4</ele>
        <time>2024-09-18T13:38:33Z</time>
      </trkpt>
      <trkpt lat="46.56526" lon="4.90854">
        <ele>211.4</ele>
        <time>2024-09-18T13:38:34Z</time>
      </trkpt>
      <trkpt lat="46.56526" lon="4.90854">
        <ele>211.4</ele>
        <time>2024-09-18T13:38:35Z</time>
      </trkpt>
      <trkpt lat="46.56526" lon="4.90854">
        <ele>211.4</ele>
        <time>2024-09-18T13:38:36Z</time>
      </trkpt>
      <trkpt lat="46.56526" lon="4.90855">
        <ele>211.4</ele>
        <time>2024-09-18T13:38:37Z</time>
      </trkpt>
      <trkpt lat="46.56526" lon="4.90855">
        <ele>211.4</ele>
        <time>2024-09-18T13:38:38Z</time>
      </trkpt>
      <trkpt lat="46.56526" lon="4.90855">
        <ele>211.4</ele>
        <time>2024-09-18T13:38:39Z</time>
      </trkpt>
      <trkpt lat="46.56525" lon="4.90855">
        <ele>211.4</ele>
        <time>2024-09-18T13:38:40Z</time>
      </trkpt>
      <trkpt lat="46.56525" lon="4.90855">
        <ele>211.4</ele>
        <time>2024-09-18T13:38:41Z</time>
      </trkpt>
      <trkpt lat="46.56525" lon="4.90855">
        <ele>211.4</ele>
        <time>2024-09-18T13:38:42Z</time>
      </trkpt>
      <trkpt lat="46.56525" lon="4.90855">
        <ele>211.4</ele>
        <time>2024-09-18T13:38:43Z</time>
      </trkpt>
      <trkpt lat="46.56525" lon="4.90855">
        <ele>211.4</ele>
        <time>2024-09-18T13:38:44Z</time>
      </trkpt>
      <trkpt lat="46.56524" lon="4.90855">
        <ele>211.2</ele>
        <time>2024-09-18T13:38:45Z</time>
      </trkpt>
      <trkpt lat="46.56524" lon="4.90855">
        <ele>211.2</ele>
        <time>2024-09-18T13:38:46Z</time>
      </trkpt>
      <trkpt lat="46.56524" lon="4.90855">
        <ele>211.2</ele>
        <time>2024-09-18T13:38:47Z</time>
      </trkpt>
      <trkpt lat="46.56524" lon="4.90855">
        <ele>211.4</ele>
        <time>2024-09-18T13:38:48Z</time>
      </trkpt>
      <trkpt lat="46.56524" lon="4.90855">
        <ele>211.6</ele>
        <time>2024-09-18T13:38:49Z</time>
      </trkpt>
      <trkpt lat="46.56524" lon="4.90855">
        <ele>211.6</ele>
        <time>2024-09-18T13:38:50Z</time>
      </trkpt>
      <trkpt lat="46.56523" lon="4.90856">
        <ele>211.6</ele>
        <time>2024-09-18T13:38:51Z</time>
      </trkpt>
      <trkpt lat="46.56523" lon="4.90856">
        <ele>211.6</ele>
        <time>2024-09-18T13:38:52Z</time>
      </trkpt>
      <trkpt lat="46.56523" lon="4.90856">
        <ele>211.6</ele>
        <time>2024-09-18T13:38:53Z</time>
      </trkpt>
      <trkpt lat="46.56523" lon="4.90856">
        <ele>211.2</ele>
        <time>2024-09-18T13:38:54Z</time>
      </trkpt>
      <trkpt lat="46.56523" lon="4.90856">
        <ele>211.2</ele>
        <time>2024-09-18T13:38:55Z</time>
      </trkpt>
      <trkpt lat="46.56523" lon="4.90856">
        <ele>211.2</ele>
        <time>2024-09-18T13:38:56Z</time>
      </trkpt>
      <trkpt lat="46.56522" lon="4.90856">
        <ele>211.6</ele>
        <time>2024-09-18T13:38:57Z</time>
      </trkpt>
      <trkpt lat="46.56522" lon="4.90856">
        <ele>211.6</ele>
        <time>2024-09-18T13:38:58Z</time>
      </trkpt>
      <trkpt lat="46.56522" lon="4.90856">
        <ele>211.6</ele>
        <time>2024-09-18T13:38:59Z</time>
      </trkpt>
      <trkpt lat="46.56522" lon="4.90856">
        <ele>211.6</ele>
        <time>2024-09-18T13:39:00Z</time>
      </trkpt>
      <trkpt lat="46.56522" lon="4.90856">
        <ele>211.6</ele>
        <time>2024-09-18T13:39:01Z</time>
      </trkpt>
      <trkpt lat="46.56521" lon="4.90856">
        <ele>211.8</ele>
        <time>2024-09-18T13:39:02Z</time>
      </trkpt>
      <trkpt lat="46.56521" lon="4.90856">
        <ele>211.8</ele>
        <time>2024-09-18T13:39:03Z</time>
      </trkpt>
      <trkpt lat="46.56521" lon="4.90856">
        <ele>211.8</ele>
        <time>2024-09-18T13:39:04Z</time>
      </trkpt>
      <trkpt lat="46.56521" lon="4.90857">
        <ele>211.8</ele>
        <time>2024-09-18T13:39:05Z</time>
      </trkpt>
      <trkpt lat="46.56521" lon="4.90857">
        <ele>211.8</ele>
        <time>2024-09-18T13:39:06Z</time>
      </trkpt>
      <trkpt lat="46.56521" lon="4.90857">
        <ele>211.8</ele>
        <time>2024-09-18T13:39:07Z</time>
      </trkpt>
      <trkpt lat="46.5652" lon="4.90857">
        <ele>211.8</ele>
        <time>2024-09-18T13:39:08Z</time>
      </trkpt>
      <trkpt lat="46.5652" lon="4.90857">
        <ele>211.8</ele>
        <time>2024-09-18T13:39:09Z</time>
      </trkpt>
      <trkpt lat="46.5652" lon="4.90857">
        <ele>211.8</ele>
        <time>2024-09-18T13:39:10Z</time>
      </trkpt>
      <trkpt lat="46.5652" lon="4.90857">
        <ele>211.8</ele>
        <time>2024-09-18T13:39:11Z</time>
      </trkpt>
      <trkpt lat="46.5652" lon="4.90857">
        <ele>211.8</ele>
        <time>2024-09-18T13:39:12Z</time>
      </trkpt>
      <trkpt lat="46.5652" lon="4.90857">
        <ele>211.4</ele>
        <time>2024-09-18T13:39:13Z</time>
      </trkpt>
      <trkpt lat="46.56519" lon="4.90857">
        <ele>211.4</ele>
        <time>2024-09-18T13:39:14Z</time>
      </trkpt>
      <trkpt lat="46.56519" lon="4.90857">
        <ele>211.4</ele>
        <time>2024-09-18T13:39:15Z</time>
      </trkpt>
      <trkpt lat="46.56519" lon="4.90857">
        <ele>211.4</ele>
        <time>2024-09-18T13:39:16Z</time>
      </trkpt>
      <trkpt lat="46.56519" lon="4.90857">
        <ele>211.8</ele>
        <time>2024-09-18T13:39:17Z</time>
      </trkpt>
      <trkpt lat="46.56519" lon="4.90857">
        <ele>211.8</ele>
        <time>2024-09-18T13:39:18Z</time>
      </trkpt>
      <trkpt lat="46.56518" lon="4.90858">
        <ele>211.8</ele>
        <time>2024-09-18T13:39:19Z</time>
      </trkpt>
      <trkpt lat="46.56518" lon="4.90858">
        <ele>211.8</ele>
        <time>2024-09-18T13:39:20Z</time>
      </trkpt>
      <trkpt lat="46.56518" lon="4.90858">
        <ele>211.2</ele>
        <time>2024-09-18T13:39:21Z</time>
      </trkpt>
      <trkpt lat="46.56518" lon="4.90858">
        <ele>211.2</ele>
        <time>2024-09-18T13:39:22Z</time>
      </trkpt>
      <trkpt lat="46.56518" lon="4.90858">
        <ele>211.2</ele>
        <time>2024-09-18T13:39:23Z</time>
      </trkpt>
      <trkpt lat="46.56518" lon="4.90858">
        <ele>211.2</ele>
        <time>2024-09-18T13:39:24Z</time>
      </trkpt>
      <trkpt lat="46.56517" lon="4.90858">
        <ele>211.6</ele>
        <time>2024-09-18T13:39:25Z</time>
      </trkpt>
      <trkpt lat="46.56517" lon="4.90858">
        <ele>211.6</ele>
        <time>2024-09-18T13:39:26Z</time>
      </trkpt>
      <trkpt lat="46.56517" lon="4.90858">
        <ele>211.6</ele>
        <time>2024-09-18T13:39:27Z</time>
      </trkpt>
      <trkpt lat="46.56517" lon="4.90858">
        <ele>211.6</ele>
        <time>2024-09-18T13:39:28Z</time>
      </trkpt>
      <trkpt lat="46.56517" lon="4.90858">
        <ele>211.4</ele>
        <time>2024-09-18T13:39:29Z</time>
      </trkpt>
      <trkpt lat="46.56516" lon="4.90858">
        <ele>211.2</ele>
        <time>2024-09-18T13:39:30Z</time>
      </trkpt>
      <trkpt lat="46.5648" lon="4.90873">
        <ele>211.2</ele>
        <time>2024-09-18T13:39:31Z</time>
      </trkpt>
      <trkpt lat="46.56566" lon="4.90863">
        <ele>203.8</ele>
        <time>2024-09-18T13:40:18Z</time>
      </trkpt>
      <trkpt lat="46.56565" lon="4.90861">
        <ele>203.8</ele>
        <time>2024-09-18T13:40:19Z</time>
      </trkpt>
      <trkpt lat="46.56565" lon="4.90859">
        <ele>203.8</ele>
        <time>2024-09-18T13:40:20Z</time>
      </trkpt>
      <trkpt lat="46.56563" lon="4.90854">
        <ele>203.8</ele>
        <time>2024-09-18T13:40:21Z</time>
      </trkpt>
      <trkpt lat="46.56561" lon="4.90852">
        <ele>203.6</ele>
        <time>2024-09-18T13:40:22Z</time>
      </trkpt>
      <trkpt lat="46.5656" lon="4.90851">
        <ele>203.6</ele>
        <time>2024-09-18T13:40:23Z</time>
      </trkpt>
      <trkpt lat="46.5656" lon="4.9085">
        <ele>203.6</ele>
        <time>2024-09-18T13:40:24Z</time>
      </trkpt>
      <trkpt lat="46.56558" lon="4.90845">
        <ele>203.8</ele>
        <time>2024-09-18T13:40:25Z</time>
      </trkpt>
      <trkpt lat="46.56558" lon="4.90845">
        <ele>203.8</ele>
        <time>2024-09-18T13:40:26Z</time>
      </trkpt>
      <trkpt lat="46.56558" lon="4.90844">
        <ele>203.8</ele>
        <time>2024-09-18T13:40:27Z</time>
      </trkpt>
      <trkpt lat="46.56558" lon="4.90844">
        <ele>203.8</ele>
        <time>2024-09-18T13:40:28Z</time>
      </trkpt>
      <trkpt lat="46.56558" lon="4.90844">
        <ele>203.8</ele>
        <time>2024-09-18T13:40:29Z</time>
      </trkpt>
      <trkpt lat="46.56558" lon="4.90844">
        <ele>203.8</ele>
        <time>2024-09-18T13:40:30Z</time>
      </trkpt>
      <trkpt lat="46.5655" lon="4.90836">
        <ele>203</ele>
        <time>2024-09-18T13:45:18Z</time>
      </trkpt>
      <trkpt lat="46.5655" lon="4.90837">
        <ele>202</ele>
        <time>2024-09-18T13:45:19Z</time>
      </trkpt>
      <trkpt lat="46.5655" lon="4.90838">
        <ele>202.8</ele>
        <time>2024-09-18T13:45:20Z</time>
      </trkpt>
      <trkpt lat="46.56546" lon="4.90842">
        <ele>203.2</ele>
        <time>2024-09-18T13:45:25Z</time>
      </trkpt>
      <trkpt lat="46.56544" lon="4.90843">
        <ele>203.2</ele>
        <time>2024-09-18T13:45:26Z</time>
      </trkpt>
      <trkpt lat="46.56542" lon="4.90845">
        <ele>203.2</ele>
        <time>2024-09-18T13:45:27Z</time>
      </trkpt>
      <trkpt lat="46.56541" lon="4.90846">
        <ele>202.8</ele>
        <time>2024-09-18T13:45:28Z</time>
      </trkpt>
      <trkpt lat="46.5654" lon="4.90849">
        <ele>202.6</ele>
        <time>2024-09-18T13:45:29Z</time>
      </trkpt>
      <trkpt lat="46.56539" lon="4.90851">
        <ele>202.6</ele>
        <time>2024-09-18T13:45:30Z</time>
      </trkpt>
      <trkpt lat="46.56537" lon="4.90854">
        <ele>202.6</ele>
        <time>2024-09-18T13:45:31Z</time>
      </trkpt>
      <trkpt lat="46.56535" lon="4.90857">
        <ele>201.6</ele>
        <time>2024-09-18T13:45:32Z</time>
      </trkpt>
      <trkpt lat="46.56533" lon="4.90859">
        <ele>201.8</ele>
        <time>2024-09-18T13:45:33Z</time>
      </trkpt>
      <trkpt lat="46.56532" lon="4.90861">
        <ele>201.8</ele>
        <time>2024-09-18T13:45:34Z</time>
      </trkpt>
      <trkpt lat="46.5653" lon="4.90863">
        <ele>201.8</ele>
        <time>2024-09-18T13:45:35Z</time>
      </trkpt>
      <trkpt lat="46.56528" lon="4.90865">
        <ele>201.6</ele>
        <time>2024-09-18T13:45:36Z</time>
      </trkpt>
      <trkpt lat="46.56526" lon="4.90866">
        <ele>201.6</ele>
        <time>2024-09-18T13:45:37Z</time>
      </trkpt>
      <trkpt lat="46.56524" lon="4.90868">
        <ele>201.6</ele>
        <time>2024-09-18T13:45:38Z</time>
      </trkpt>
      <trkpt lat="46.56523" lon="4.9087">
        <ele>201.6</ele>
        <time>2024-09-18T13:45:39Z</time>
      </trkpt>
      <trkpt lat="46.56521" lon="4.90874">
        <ele>201.6</ele>
        <time>2024-09-18T13:45:40Z</time>
      </trkpt>
      <trkpt lat="46.5652" lon="4.90877">
        <ele>201.4</ele>
        <time>2024-09-18T13:45:41Z</time>
      </trkpt>
      <trkpt lat="46.56519" lon="4.9088">
        <ele>201.4</ele>
        <time>2024-09-18T13:45:42Z</time>
      </trkpt>
      <trkpt lat="46.56518" lon="4.90883">
        <ele>201.4</ele>
        <time>2024-09-18T13:45:43Z</time>
      </trkpt>
      <trkpt lat="46.56517" lon="4.90886">
        <ele>201.4</ele>
        <time>2024-09-18T13:45:44Z</time>
      </trkpt>
      <trkpt lat="46.56517" lon="4.90889">
        <ele>201.4</ele>
        <time>2024-09-18T13:45:45Z</time>
      </trkpt>
      <trkpt lat="46.56516" lon="4.90892">
        <ele>201.4</ele>
        <time>2024-09-18T13:45:46Z</time>
      </trkpt>
      <trkpt lat="46.56515" lon="4.90896">
        <ele>201.4</ele>
        <time>2024-09-18T13:45:47Z</time>
      </trkpt>
      <trkpt lat="46.56515" lon="4.909">
        <ele>200.8</ele>
        <time>2024-09-18T13:45:48Z</time>
      </trkpt>
      <trkpt lat="46.56514" lon="4.90903">
        <ele>200.8</ele>
        <time>2024-09-18T13:45:49Z</time>
      </trkpt>
      <trkpt lat="46.56514" lon="4.90906">
        <ele>200.8</ele>
        <time>2024-09-18T13:45:50Z</time>
      </trkpt>
      <trkpt lat="46.56514" lon="4.90909">
        <ele>200.4</ele>
        <time>2024-09-18T13:45:51Z</time>
      </trkpt>
      <trkpt lat="46.56514" lon="4.90912">
        <ele>200.4</ele>
        <time>2024-09-18T13:45:52Z</time>
      </trkpt>
      <trkpt lat="46.56515" lon="4.90915">
        <ele>200.4</ele>
        <time>2024-09-18T13:45:53Z</time>
      </trkpt>
      <trkpt lat="46.56516" lon="4.9092">
        <ele>200.4</ele>
        <time>2024-09-18T13:45:54Z</time>
      </trkpt>
      <trkpt lat="46.56516" lon="4.90922">
        <ele>199.8</ele>
        <time>2024-09-18T13:45:55Z</time>
      </trkpt>
      <trkpt lat="46.56517" lon="4.90925">
        <ele>199.2</ele>
        <time>2024-09-18T13:45:56Z</time>
      </trkpt>
      <trkpt lat="46.56518" lon="4.90928">
        <ele>199.2</ele>
        <time>2024-09-18T13:45:57Z</time>
      </trkpt>
      <trkpt lat="46.56519" lon="4.9093">
        <ele>199.2</ele>
        <time>2024-09-18T13:45:58Z</time>
      </trkpt>
      <trkpt lat="46.5652" lon="4.90932">
        <ele>199.2</ele>
        <time>2024-09-18T13:45:59Z</time>
      </trkpt>
      <trkpt lat="46.5652" lon="4.90934">
        <ele>200.2</ele>
        <time>2024-09-18T13:46:00Z</time>
      </trkpt>
      <trkpt lat="46.56521" lon="4.90935">
        <ele>200.4</ele>
        <time>2024-09-18T13:46:01Z</time>
      </trkpt>
      <trkpt lat="46.56521" lon="4.90935">
        <ele>200.4</ele>
        <time>2024-09-18T13:46:02Z</time>
      </trkpt>
      <trkpt lat="46.56521" lon="4.90935">
        <ele>200.4</ele>
        <time>2024-09-18T13:46:03Z</time>
      </trkpt>
      <trkpt lat="46.56522" lon="4.90941">
        <ele>199.2</ele>
        <time>2024-09-18T13:46:07Z</time>
      </trkpt>
      <trkpt lat="46.56523" lon="4.90943">
        <ele>199.2</ele>
        <time>2024-09-18T13:46:08Z</time>
      </trkpt>
      <trkpt lat="46.56523" lon="4.90946">
        <ele>199</ele>
        <time>2024-09-18T13:46:09Z</time>
      </trkpt>
      <trkpt lat="46.56524" lon="4.90948">
        <ele>199</ele>
        <time>2024-09-18T13:46:10Z</time>
      </trkpt>
      <trkpt lat="46.56524" lon="4.9095">
        <ele>199</ele>
        <time>2024-09-18T13:46:11Z</time>
      </trkpt>
      <trkpt lat="46.56525" lon="4.90952">
        <ele>199</ele>
        <time>2024-09-18T13:46:12Z</time>
      </trkpt>
      <trkpt lat="46.56526" lon="4.90954">
        <ele>198.2</ele>
        <time>2024-09-18T13:46:13Z</time>
      </trkpt>
      <trkpt lat="46.56526" lon="4.90957">
        <ele>198.4</ele>
        <time>2024-09-18T13:46:14Z</time>
      </trkpt>
      <trkpt lat="46.56527" lon="4.9096">
        <ele>198.4</ele>
        <time>2024-09-18T13:46:15Z</time>
      </trkpt>
      <trkpt lat="46.56528" lon="4.90962">
        <ele>198.4</ele>
        <time>2024-09-18T13:46:16Z</time>
      </trkpt>
      <trkpt lat="46.56528" lon="4.90965">
        <ele>198.4</ele>
        <time>2024-09-18T13:46:17Z</time>
      </trkpt>
      <trkpt lat="46.56529" lon="4.90968">
        <ele>198</ele>
        <time>2024-09-18T13:46:18Z</time>
      </trkpt>
      <trkpt lat="46.5653" lon="4.9097">
        <ele>198</ele>
        <time>2024-09-18T13:46:19Z</time>
      </trkpt>
      <trkpt lat="46.5653" lon="4.90971">
        <ele>198</ele>
        <time>2024-09-18T13:46:20Z</time>
      </trkpt>
      <trkpt lat="46.5653" lon="4.90973">
        <ele>198</ele>
        <time>2024-09-18T13:46:21Z</time>
      </trkpt>
      <trkpt lat="46.5653" lon="4.90976">
        <ele>197.4</ele>
        <time>2024-09-18T13:46:22Z</time>
      </trkpt>
      <trkpt lat="46.5653" lon="4.90978">
        <ele>197</ele>
        <time>2024-09-18T13:46:23Z</time>
      </trkpt>
      <trkpt lat="46.5653" lon="4.9098">
        <ele>197</ele>
        <time>2024-09-18T13:46:24Z</time>
      </trkpt>
      <trkpt lat="46.56529" lon="4.90981">
        <ele>197</ele>
        <time>2024-09-18T13:46:25Z</time>
      </trkpt>
      <trkpt lat="46.56528" lon="4.90983">
        <ele>197</ele>
        <time>2024-09-18T13:46:26Z</time>
      </trkpt>
      <trkpt lat="46.56528" lon="4.90985">
        <ele>196.4</ele>
        <time>2024-09-18T13:46:27Z</time>
      </trkpt>
      <trkpt lat="46.56527" lon="4.90988">
        <ele>196.4</ele>
        <time>2024-09-18T13:46:28Z</time>
      </trkpt>
      <trkpt lat="46.56527" lon="4.90991">
        <ele>196.4</ele>
        <time>2024-09-18T13:46:29Z</time>
      </trkpt>
      <trkpt lat="46.56527" lon="4.90995">
        <ele>196.4</ele>
        <time>2024-09-18T13:46:30Z</time>
      </trkpt>
      <trkpt lat="46.56527" lon="4.90997">
        <ele>195.6</ele>
        <time>2024-09-18T13:46:31Z</time>
      </trkpt>
      <trkpt lat="46.56528" lon="4.91001">
        <ele>195</ele>
        <time>2024-09-18T13:46:32Z</time>
      </trkpt>
      <trkpt lat="46.56528" lon="4.91005">
        <ele>195</ele>
        <time>2024-09-18T13:46:33Z</time>
      </trkpt>
      <trkpt lat="46.56528" lon="4.91008">
        <ele>195</ele>
        <time>2024-09-18T13:46:34Z</time>
      </trkpt>
      <trkpt lat="46.56529" lon="4.91011">
        <ele>194</ele>
        <time>2024-09-18T13:46:35Z</time>
      </trkpt>
      <trkpt lat="46.5653" lon="4.91015">
        <ele>194</ele>
        <time>2024-09-18T13:46:36Z</time>
      </trkpt>
      <trkpt lat="46.5653" lon="4.91018">
        <ele>193.8</ele>
        <time>2024-09-18T13:46:37Z</time>
      </trkpt>
      <trkpt lat="46.5653" lon="4.91021">
        <ele>193.8</ele>
        <time>2024-09-18T13:46:38Z</time>
      </trkpt>
      <trkpt lat="46.56529" lon="4.91024">
        <ele>193.8</ele>
        <time>2024-09-18T13:46:39Z</time>
      </trkpt>
      <trkpt lat="46.56529" lon="4.91028">
        <ele>192.8</ele>
        <time>2024-09-18T13:46:40Z</time>
      </trkpt>
      <trkpt lat="46.56528" lon="4.91031">
        <ele>192.6</ele>
        <time>2024-09-18T13:46:41Z</time>
      </trkpt>
      <trkpt lat="46.56528" lon="4.91034">
        <ele>192.6</ele>
        <time>2024-09-18T13:46:42Z</time>
      </trkpt>
      <trkpt lat="46.56528" lon="4.91038">
        <ele>192.6</ele>
        <time>2024-09-18T13:46:43Z</time>
      </trkpt>
      <trkpt lat="46.56528" lon="4.91041">
        <ele>192.2</ele>
        <time>2024-09-18T13:46:44Z</time>
      </trkpt>
      <trkpt lat="46.56528" lon="4.91044">
        <ele>192.2</ele>
        <time>2024-09-18T13:46:45Z</time>
      </trkpt>
      <trkpt lat="46.56528" lon="4.91047">
        <ele>191.6</ele>
        <time>2024-09-18T13:46:46Z</time>
      </trkpt>
      <trkpt lat="46.56528" lon="4.9105">
        <ele>191.6</ele>
        <time>2024-09-18T13:46:47Z</time>
      </trkpt>
      <trkpt lat="46.56528" lon="4.91054">
        <ele>191.6</ele>
        <time>2024-09-18T13:46:48Z</time>
      </trkpt>
      <trkpt lat="46.56528" lon="4.91058">
        <ele>190.8</ele>
        <time>2024-09-18T13:46:49Z</time>
      </trkpt>
      <trkpt lat="46.5653" lon="4.91063">
        <ele>190.6</ele>
        <time>2024-09-18T13:46:50Z</time>
      </trkpt>
      <trkpt lat="46.5653" lon="4.91066">
        <ele>190.6</ele>
        <time>2024-09-18T13:46:51Z</time>
      </trkpt>
      <trkpt lat="46.5653" lon="4.9107">
        <ele>190.6</ele>
        <time>2024-09-18T13:46:52Z</time>
      </trkpt>
      <trkpt lat="46.5653" lon="4.91074">
        <ele>190</ele>
        <time>2024-09-18T13:46:53Z</time>
      </trkpt>
      <trkpt lat="46.56531" lon="4.91078">
        <ele>189.8</ele>
        <time>2024-09-18T13:46:54Z</time>
      </trkpt>
      <trkpt lat="46.56531" lon="4.91082">
        <ele>189.8</ele>
        <time>2024-09-18T13:46:55Z</time>
      </trkpt>
      <trkpt lat="46.56531" lon="4.91086">
        <ele>189.8</ele>
        <time>2024-09-18T13:46:56Z</time>
      </trkpt>
      <trkpt lat="46.56531" lon="4.9109">
        <ele>189.8</ele>
        <time>2024-09-18T13:46:57Z</time>
      </trkpt>
      <trkpt lat="46.56533" lon="4.91093">
        <ele>188.8</ele>
        <time>2024-09-18T13:46:58Z</time>
      </trkpt>
      <trkpt lat="46.56536" lon="4.91095">
        <ele>189.2</ele>
        <time>2024-09-18T13:46:59Z</time>
      </trkpt>
      <trkpt lat="46.56538" lon="4.91097">
        <ele>189.2</ele>
        <time>2024-09-18T13:47:00Z</time>
      </trkpt>
      <trkpt lat="46.56539" lon="4.91101">
        <ele>189.2</ele>
        <time>2024-09-18T13:47:01Z</time>
      </trkpt>
      <trkpt lat="46.56541" lon="4.91104">
        <ele>189.2</ele>
        <time>2024-09-18T13:47:02Z</time>
      </trkpt>
      <trkpt lat="46.56543" lon="4.91109">
        <ele>188.8</ele>
        <time>2024-09-18T13:47:03Z</time>
      </trkpt>
      <trkpt lat="46.56544" lon="4.91111">
        <ele>188.8</ele>
        <time>2024-09-18T13:47:04Z</time>
      </trkpt>
      <trkpt lat="46.56545" lon="4.91115">
        <ele>188.8</ele>
        <time>2024-09-18T13:47:05Z</time>
      </trkpt>
      <trkpt lat="46.56546" lon="4.9112">
        <ele>188.4</ele>
        <time>2024-09-18T13:47:06Z</time>
      </trkpt>
      <trkpt lat="46.56548" lon="4.91124">
        <ele>188.4</ele>
        <time>2024-09-18T13:47:07Z</time>
      </trkpt>
      <trkpt lat="46.56548" lon="4.91127">
        <ele>188.4</ele>
        <time>2024-09-18T13:47:08Z</time>
      </trkpt>
      <trkpt lat="46.56548" lon="4.91129">
        <ele>188.4</ele>
        <time>2024-09-18T13:47:09Z</time>
      </trkpt>
      <trkpt lat="46.56546" lon="4.91131">
        <ele>188.4</ele>
        <time>2024-09-18T13:47:10Z</time>
      </trkpt>
      <trkpt lat="46.56544" lon="4.91132">
        <ele>188.4</ele>
        <time>2024-09-18T13:47:11Z</time>
      </trkpt>
      <trkpt lat="46.56541" lon="4.91133">
        <ele>188.4</ele>
        <time>2024-09-18T13:47:12Z</time>
      </trkpt>
      <trkpt lat="46.56539" lon="4.91135">
        <ele>189.4</ele>
        <time>2024-09-18T13:47:13Z</time>
      </trkpt>
      <trkpt lat="46.56537" lon="4.91136">
        <ele>189.4</ele>
        <time>2024-09-18T13:47:14Z</time>
      </trkpt>
      <trkpt lat="46.56534" lon="4.91137">
        <ele>189.4</ele>
        <time>2024-09-18T13:47:15Z</time>
      </trkpt>
      <trkpt lat="46.56531" lon="4.91139">
        <ele>188.4</ele>
        <time>2024-09-18T13:47:16Z</time>
      </trkpt>
      <trkpt lat="46.56528" lon="4.9114">
        <ele>187</ele>
        <time>2024-09-18T13:47:17Z</time>
      </trkpt>
      <trkpt lat="46.56525" lon="4.91141">
        <ele>187</ele>
        <time>2024-09-18T13:47:18Z</time>
      </trkpt>
      <trkpt lat="46.56522" lon="4.91143">
        <ele>187</ele>
        <time>2024-09-18T13:47:19Z</time>
      </trkpt>
      <trkpt lat="46.56519" lon="4.91145">
        <ele>187</ele>
        <time>2024-09-18T13:47:20Z</time>
      </trkpt>
      <trkpt lat="46.56516" lon="4.91146">
        <ele>188</ele>
        <time>2024-09-18T13:47:21Z</time>
      </trkpt>
      <trkpt lat="46.56513" lon="4.91148">
        <ele>188.8</ele>
        <time>2024-09-18T13:47:22Z</time>
      </trkpt>
      <trkpt lat="46.56509" lon="4.91149">
        <ele>188.8</ele>
        <time>2024-09-18T13:47:23Z</time>
      </trkpt>
      <trkpt lat="46.56506" lon="4.91151">
        <ele>188.8</ele>
        <time>2024-09-18T13:47:24Z</time>
      </trkpt>
      <trkpt lat="46.56503" lon="4.91153">
        <ele>188</ele>
        <time>2024-09-18T13:47:25Z</time>
      </trkpt>
      <trkpt lat="46.565" lon="4.91155">
        <ele>186.2</ele>
        <time>2024-09-18T13:47:26Z</time>
      </trkpt>
      <trkpt lat="46.56498" lon="4.91157">
        <ele>186.2</ele>
        <time>2024-09-18T13:47:27Z</time>
      </trkpt>
      <trkpt lat="46.56495" lon="4.91159">
        <ele>186.2</ele>
        <time>2024-09-18T13:47:28Z</time>
      </trkpt>
      <trkpt lat="46.56492" lon="4.9116">
        <ele>187.2</ele>
        <time>2024-09-18T13:47:29Z</time>
      </trkpt>
      <trkpt lat="46.56488" lon="4.91162">
        <ele>188.8</ele>
        <time>2024-09-18T13:47:30Z</time>
      </trkpt>
      <trkpt lat="46.56485" lon="4.91165">
        <ele>188.8</ele>
        <time>2024-09-18T13:47:31Z</time>
      </trkpt>
      <trkpt lat="46.56481" lon="4.91167">
        <ele>188.8</ele>
        <time>2024-09-18T13:47:32Z</time>
      </trkpt>
      <trkpt lat="46.56478" lon="4.91168">
        <ele>188.8</ele>
        <time>2024-09-18T13:47:33Z</time>
      </trkpt>
      <trkpt lat="46.56475" lon="4.9117">
        <ele>189.2</ele>
        <time>2024-09-18T13:47:34Z</time>
      </trkpt>
      <trkpt lat="46.56471" lon="4.91172">
        <ele>189.4</ele>
        <time>2024-09-18T13:47:35Z</time>
      </trkpt>
      <trkpt lat="46.56468" lon="4.91174">
        <ele>189.4</ele>
        <time>2024-09-18T13:47:36Z</time>
      </trkpt>
      <trkpt lat="46.56465" lon="4.91175">
        <ele>189.4</ele>
        <time>2024-09-18T13:47:37Z</time>
      </trkpt>
      <trkpt lat="46.56462" lon="4.91176">
        <ele>190</ele>
        <time>2024-09-18T13:47:38Z</time>
      </trkpt>
      <trkpt lat="46.56458" lon="4.91177">
        <ele>189.6</ele>
        <time>2024-09-18T13:47:39Z</time>
      </trkpt>
      <trkpt lat="46.56455" lon="4.91173">
        <ele>189.6</ele>
        <time>2024-09-18T13:47:40Z</time>
      </trkpt>
      <trkpt lat="46.56454" lon="4.91172">
        <ele>189.6</ele>
        <time>2024-09-18T13:47:41Z</time>
      </trkpt>
      <trkpt lat="46.56452" lon="4.91172">
        <ele>189.6</ele>
        <time>2024-09-18T13:47:42Z</time>
      </trkpt>
      <trkpt lat="46.5645" lon="4.91173">
        <ele>190.6</ele>
        <time>2024-09-18T13:47:43Z</time>
      </trkpt>
      <trkpt lat="46.56448" lon="4.91174">
        <ele>190.6</ele>
        <time>2024-09-18T13:47:44Z</time>
      </trkpt>
      <trkpt lat="46.56447" lon="4.91174">
        <ele>190.6</ele>
        <time>2024-09-18T13:47:45Z</time>
      </trkpt>
      <trkpt lat="46.56444" lon="4.91175">
        <ele>190.6</ele>
        <time>2024-09-18T13:47:46Z</time>
      </trkpt>
      <trkpt lat="46.56441" lon="4.91175">
        <ele>190.8</ele>
        <time>2024-09-18T13:47:47Z</time>
      </trkpt>
      <trkpt lat="46.56439" lon="4.91177">
        <ele>190.6</ele>
        <time>2024-09-18T13:47:48Z</time>
      </trkpt>
      <trkpt lat="46.56435" lon="4.91179">
        <ele>190.6</ele>
        <time>2024-09-18T13:47:49Z</time>
      </trkpt>
      <trkpt lat="46.56432" lon="4.91181">
        <ele>190.6</ele>
        <time>2024-09-18T13:47:50Z</time>
      </trkpt>
      <trkpt lat="46.56429" lon="4.91184">
        <ele>189.6</ele>
        <time>2024-09-18T13:47:51Z</time>
      </trkpt>
      <trkpt lat="46.56426" lon="4.91187">
        <ele>190.6</ele>
        <time>2024-09-18T13:47:52Z</time>
      </trkpt>
      <trkpt lat="46.56423" lon="4.91189">
        <ele>190.6</ele>
        <time>2024-09-18T13:47:53Z</time>
      </trkpt>
      <trkpt lat="46.5642" lon="4.9119">
        <ele>190.6</ele>
        <time>2024-09-18T13:47:54Z</time>
      </trkpt>
      <trkpt lat="46.56418" lon="4.91192">
        <ele>190.6</ele>
        <time>2024-09-18T13:47:55Z</time>
      </trkpt>
      <trkpt lat="46.56415" lon="4.91193">
        <ele>190.6</ele>
        <time>2024-09-18T13:47:56Z</time>
      </trkpt>
      <trkpt lat="46.56413" lon="4.91194">
        <ele>191.6</ele>
        <time>2024-09-18T13:47:57Z</time>
      </trkpt>
      <trkpt lat="46.5641" lon="4.91195">
        <ele>192.2</ele>
        <time>2024-09-18T13:47:58Z</time>
      </trkpt>
      <trkpt lat="46.56408" lon="4.91197">
        <ele>192.2</ele>
        <time>2024-09-18T13:47:59Z</time>
      </trkpt>
      <trkpt lat="46.56406" lon="4.91199">
        <ele>192.2</ele>
        <time>2024-09-18T13:48:00Z</time>
      </trkpt>
      <trkpt lat="46.56405" lon="4.91201">
        <ele>192.2</ele>
        <time>2024-09-18T13:48:01Z</time>
      </trkpt>
      <trkpt lat="46.56403" lon="4.91201">
        <ele>192.4</ele>
        <time>2024-09-18T13:48:02Z</time>
      </trkpt>
      <trkpt lat="46.56402" lon="4.91202">
        <ele>192.4</ele>
        <time>2024-09-18T13:48:03Z</time>
      </trkpt>
      <trkpt lat="46.564" lon="4.91205">
        <ele>192.4</ele>
        <time>2024-09-18T13:48:04Z</time>
      </trkpt>
      <trkpt lat="46.56398" lon="4.91207">
        <ele>192.4</ele>
        <time>2024-09-18T13:48:05Z</time>
      </trkpt>
      <trkpt lat="46.56395" lon="4.91208">
        <ele>192.6</ele>
        <time>2024-09-18T13:48:06Z</time>
      </trkpt>
      <trkpt lat="46.56392" lon="4.9121">
        <ele>192.6</ele>
        <time>2024-09-18T13:48:07Z</time>
      </trkpt>
      <trkpt lat="46.56389" lon="4.91211">
        <ele>192.6</ele>
        <time>2024-09-18T13:48:08Z</time>
      </trkpt>
      <trkpt lat="46.56386" lon="4.91212">
        <ele>192.6</ele>
        <time>2024-09-18T13:48:09Z</time>
      </trkpt>
      <trkpt lat="46.56383" lon="4.91213">
        <ele>192.2</ele>
        <time>2024-09-18T13:48:10Z</time>
      </trkpt>
      <trkpt lat="46.56381" lon="4.91214">
        <ele>192</ele>
        <time>2024-09-18T13:48:11Z</time>
      </trkpt>
      <trkpt lat="46.56379" lon="4.91215">
        <ele>192</ele>
        <time>2024-09-18T13:48:12Z</time>
      </trkpt>
      <trkpt lat="46.56377" lon="4.91216">
        <ele>192</ele>
        <time>2024-09-18T13:48:13Z</time>
      </trkpt>
      <trkpt lat="46.56375" lon="4.91217">
        <ele>191.4</ele>
        <time>2024-09-18T13:48:14Z</time>
      </trkpt>
      <trkpt lat="46.56373" lon="4.91218">
        <ele>191.2</ele>
        <time>2024-09-18T13:48:15Z</time>
      </trkpt>
      <trkpt lat="46.56371" lon="4.91219">
        <ele>191.2</ele>
        <time>2024-09-18T13:48:16Z</time>
      </trkpt>
      <trkpt lat="46.56369" lon="4.91218">
        <ele>191.2</ele>
        <time>2024-09-18T13:48:17Z</time>
      </trkpt>
      <trkpt lat="46.56368" lon="4.91219">
        <ele>191.2</ele>
        <time>2024-09-18T13:48:18Z</time>
      </trkpt>
      <trkpt lat="46.56367" lon="4.91219">
        <ele>191.6</ele>
        <time>2024-09-18T13:48:19Z</time>
      </trkpt>
      <trkpt lat="46.56367" lon="4.91219">
        <ele>191</ele>
        <time>2024-09-18T13:48:20Z</time>
      </trkpt>
      <trkpt lat="46.56359" lon="4.91228">
        <ele>190.2</ele>
        <time>2024-09-18T13:49:25Z</time>
      </trkpt>
      <trkpt lat="46.56356" lon="4.91228">
        <ele>190.2</ele>
        <time>2024-09-18T13:49:26Z</time>
      </trkpt>
      <trkpt lat="46.56353" lon="4.91229">
        <ele>190.2</ele>
        <time>2024-09-18T13:49:27Z</time>
      </trkpt>
      <trkpt lat="46.5635" lon="4.9123">
        <ele>190.2</ele>
        <time>2024-09-18T13:49:28Z</time>
      </trkpt>
      <trkpt lat="46.56347" lon="4.91231">
        <ele>190.2</ele>
        <time>2024-09-18T13:49:29Z</time>
      </trkpt>
      <trkpt lat="46.56343" lon="4.91232">
        <ele>190.2</ele>
        <time>2024-09-18T13:49:30Z</time>
      </trkpt>
      <trkpt lat="46.56339" lon="4.91235">
        <ele>189.6</ele>
        <time>2024-09-18T13:49:31Z</time>
      </trkpt>
      <trkpt lat="46.56334" lon="4.91237">
        <ele>189.2</ele>
        <time>2024-09-18T13:49:32Z</time>
      </trkpt>
      <trkpt lat="46.5633" lon="4.9124">
        <ele>189.2</ele>
        <time>2024-09-18T13:49:33Z</time>
      </trkpt>
      <trkpt lat="46.56325" lon="4.91241">
        <ele>189.2</ele>
        <time>2024-09-18T13:49:34Z</time>
      </trkpt>
      <trkpt lat="46.5632" lon="4.91242">
        <ele>188.6</ele>
        <time>2024-09-18T13:49:35Z</time>
      </trkpt>
      <trkpt lat="46.56315" lon="4.91244">
        <ele>188.6</ele>
        <time>2024-09-18T13:49:36Z</time>
      </trkpt>
      <trkpt lat="46.5631" lon="4.91247">
        <ele>188.4</ele>
        <time>2024-09-18T13:49:37Z</time>
      </trkpt>
      <trkpt lat="46.56305" lon="4.91249">
        <ele>188.4</ele>
        <time>2024-09-18T13:49:38Z</time>
      </trkpt>
      <trkpt lat="46.56301" lon="4.91252">
        <ele>188.4</ele>
        <time>2024-09-18T13:49:39Z</time>
      </trkpt>
      <trkpt lat="46.56296" lon="4.91255">
        <ele>188.6</ele>
        <time>2024-09-18T13:49:40Z</time>
      </trkpt>
      <trkpt lat="46.56292" lon="4.91258">
        <ele>188.4</ele>
        <time>2024-09-18T13:49:41Z</time>
      </trkpt>
      <trkpt lat="46.56288" lon="4.9126">
        <ele>188.4</ele>
        <time>2024-09-18T13:49:42Z</time>
      </trkpt>
      <trkpt lat="46.56286" lon="4.91262">
        <ele>188.4</ele>
        <time>2024-09-18T13:49:43Z</time>
      </trkpt>
      <trkpt lat="46.56283" lon="4.91266">
        <ele>188.4</ele>
        <time>2024-09-18T13:49:44Z</time>
      </trkpt>
      <trkpt lat="46.56279" lon="4.9127">
        <ele>188</ele>
        <time>2024-09-18T13:49:45Z</time>
      </trkpt>
      <trkpt lat="46.56275" lon="4.91273">
        <ele>188</ele>
        <time>2024-09-18T13:49:46Z</time>
      </trkpt>
      <trkpt lat="46.56271" lon="4.91276">
        <ele>188</ele>
        <time>2024-09-18T13:49:47Z</time>
      </trkpt>
      <trkpt lat="46.56267" lon="4.9128">
        <ele>188</ele>
        <time>2024-09-18T13:49:48Z</time>
      </trkpt>
      <trkpt lat="46.56263" lon="4.91284">
        <ele>188.8</ele>
        <time>2024-09-18T13:49:49Z</time>
      </trkpt>
      <trkpt lat="46.56259" lon="4.91288">
        <ele>188</ele>
        <time>2024-09-18T13:49:50Z</time>
      </trkpt>
      <trkpt lat="46.56255" lon="4.91292">
        <ele>188</ele>
        <time>2024-09-18T13:49:51Z</time>
      </trkpt>
      <trkpt lat="46.56251" lon="4.91295">
        <ele>188</ele>
        <time>2024-09-18T13:49:52Z</time>
      </trkpt>
      <trkpt lat="46.56247" lon="4.91298">
        <ele>189</ele>
        <time>2024-09-18T13:49:53Z</time>
      </trkpt>
      <trkpt lat="46.56243" lon="4.91302">
        <ele>188.8</ele>
        <time>2024-09-18T13:49:54Z</time>
      </trkpt>
      <trkpt lat="46.56239" lon="4.91305">
        <ele>188.8</ele>
        <time>2024-09-18T13:49:55Z</time>
      </trkpt>
      <trkpt lat="46.56235" lon="4.91309">
        <ele>188.8</ele>
        <time>2024-09-18T13:49:56Z</time>
      </trkpt>
      <trkpt lat="46.56231" lon="4.91311">
        <ele>188.8</ele>
        <time>2024-09-18T13:49:57Z</time>
      </trkpt>
      <trkpt lat="46.56228" lon="4.91315">
        <ele>188.8</ele>
        <time>2024-09-18T13:49:58Z</time>
      </trkpt>
      <trkpt lat="46.56224" lon="4.91318">
        <ele>188.6</ele>
        <time>2024-09-18T13:49:59Z</time>
      </trkpt>
      <trkpt lat="46.56221" lon="4.91321">
        <ele>188.6</ele>
        <time>2024-09-18T13:50:00Z</time>
      </trkpt>
      <trkpt lat="46.56218" lon="4.91324">
        <ele>188.6</ele>
        <time>2024-09-18T13:50:01Z</time>
      </trkpt>
      <trkpt lat="46.56215" lon="4.91326">
        <ele>188.6</ele>
        <time>2024-09-18T13:50:02Z</time>
      </trkpt>
      <trkpt lat="46.56212" lon="4.91329">
        <ele>188.6</ele>
        <time>2024-09-18T13:50:03Z</time>
      </trkpt>
      <trkpt lat="46.56209" lon="4.91331">
        <ele>188</ele>
        <time>2024-09-18T13:50:04Z</time>
      </trkpt>
      <trkpt lat="46.56205" lon="4.91334">
        <ele>188</ele>
        <time>2024-09-18T13:50:05Z</time>
      </trkpt>
      <trkpt lat="46.56203" lon="4.91335">
        <ele>188</ele>
        <time>2024-09-18T13:50:06Z</time>
      </trkpt>
      <trkpt lat="46.562" lon="4.91337">
        <ele>188.2</ele>
        <time>2024-09-18T13:50:07Z</time>
      </trkpt>
      <trkpt lat="46.56198" lon="4.91341">
        <ele>188.4</ele>
        <time>2024-09-18T13:50:08Z</time>
      </trkpt>
      <trkpt lat="46.56198" lon="4.91343">
        <ele>188.4</ele>
        <time>2024-09-18T13:50:09Z</time>
      </trkpt>
      <trkpt lat="46.56197" lon="4.91345">
        <ele>188.4</ele>
        <time>2024-09-18T13:50:10Z</time>
      </trkpt>
      <trkpt lat="46.56198" lon="4.91348">
        <ele>188.4</ele>
        <time>2024-09-18T13:50:11Z</time>
      </trkpt>
      <trkpt lat="46.56199" lon="4.9135">
        <ele>188.4</ele>
        <time>2024-09-18T13:50:12Z</time>
      </trkpt>
      <trkpt lat="46.562" lon="4.91353">
        <ele>188.2</ele>
        <time>2024-09-18T13:50:13Z</time>
      </trkpt>
      <trkpt lat="46.562" lon="4.91356">
        <ele>188.2</ele>
        <time>2024-09-18T13:50:14Z</time>
      </trkpt>
      <trkpt lat="46.562" lon="4.91359">
        <ele>188.2</ele>
        <time>2024-09-18T13:50:15Z</time>
      </trkpt>
      <trkpt lat="46.56198" lon="4.91363">
        <ele>188.2</ele>
        <time>2024-09-18T13:50:16Z</time>
      </trkpt>
      <trkpt lat="46.56196" lon="4.91366">
        <ele>188.4</ele>
        <time>2024-09-18T13:50:17Z</time>
      </trkpt>
      <trkpt lat="46.56194" lon="4.91369">
        <ele>188.4</ele>
        <time>2024-09-18T13:50:18Z</time>
      </trkpt>
      <trkpt lat="46.56191" lon="4.91372">
        <ele>188.4</ele>
        <time>2024-09-18T13:50:19Z</time>
      </trkpt>
      <trkpt lat="46.56188" lon="4.91375">
        <ele>187.8</ele>
        <time>2024-09-18T13:50:20Z</time>
      </trkpt>
      <trkpt lat="46.56185" lon="4.91377">
        <ele>187.8</ele>
        <time>2024-09-18T13:50:21Z</time>
      </trkpt>
      <trkpt lat="46.56182" lon="4.91379">
        <ele>188.6</ele>
        <time>2024-09-18T13:50:22Z</time>
      </trkpt>
      <trkpt lat="46.56179" lon="4.91381">
        <ele>188.6</ele>
        <time>2024-09-18T13:50:23Z</time>
      </trkpt>
      <trkpt lat="46.56177" lon="4.91383">
        <ele>188.6</ele>
        <time>2024-09-18T13:50:24Z</time>
      </trkpt>
      <trkpt lat="46.56176" lon="4.91384">
        <ele>188.4</ele>
        <time>2024-09-18T13:50:25Z</time>
      </trkpt>
      <trkpt lat="46.56175" lon="4.91386">
        <ele>188.4</ele>
        <time>2024-09-18T13:50:26Z</time>
      </trkpt>
      <trkpt lat="46.56174" lon="4.91387">
        <ele>188.4</ele>
        <time>2024-09-18T13:50:27Z</time>
      </trkpt>
      <trkpt lat="46.56173" lon="4.91388">
        <ele>188.4</ele>
        <time>2024-09-18T13:50:28Z</time>
      </trkpt>
      <trkpt lat="46.56172" lon="4.91389">
        <ele>188.4</ele>
        <time>2024-09-18T13:50:29Z</time>
      </trkpt>
      <trkpt lat="46.5617" lon="4.91391">
        <ele>187.4</ele>
        <time>2024-09-18T13:50:30Z</time>
      </trkpt>
      <trkpt lat="46.56169" lon="4.91392">
        <ele>187.4</ele>
        <time>2024-09-18T13:50:31Z</time>
      </trkpt>
      <trkpt lat="46.56167" lon="4.91393">
        <ele>187.4</ele>
        <time>2024-09-18T13:50:32Z</time>
      </trkpt>
      <trkpt lat="46.56164" lon="4.91397">
        <ele>187.4</ele>
        <time>2024-09-18T13:50:33Z</time>
      </trkpt>
      <trkpt lat="46.56163" lon="4.91398">
        <ele>187.4</ele>
        <time>2024-09-18T13:50:34Z</time>
      </trkpt>
      <trkpt lat="46.56161" lon="4.914">
        <ele>188.2</ele>
        <time>2024-09-18T13:50:35Z</time>
      </trkpt>
      <trkpt lat="46.56158" lon="4.91402">
        <ele>188.2</ele>
        <time>2024-09-18T13:50:36Z</time>
      </trkpt>
      <trkpt lat="46.56156" lon="4.91404">
        <ele>188.2</ele>
        <time>2024-09-18T13:50:37Z</time>
      </trkpt>
      <trkpt lat="46.56154" lon="4.91406">
        <ele>188.2</ele>
        <time>2024-09-18T13:50:38Z</time>
      </trkpt>
      <trkpt lat="46.56152" lon="4.91407">
        <ele>188.6</ele>
        <time>2024-09-18T13:50:39Z</time>
      </trkpt>
      <trkpt lat="46.5615" lon="4.91409">
        <ele>188.6</ele>
        <time>2024-09-18T13:50:40Z</time>
      </trkpt>
      <trkpt lat="46.56148" lon="4.91411">
        <ele>188.6</ele>
        <time>2024-09-18T13:50:41Z</time>
      </trkpt>
      <trkpt lat="46.56146" lon="4.91413">
        <ele>188.6</ele>
        <time>2024-09-18T13:50:42Z</time>
      </trkpt>
      <trkpt lat="46.56144" lon="4.91415">
        <ele>188.2</ele>
        <time>2024-09-18T13:50:43Z</time>
      </trkpt>
      <trkpt lat="46.56143" lon="4.91418">
        <ele>188.2</ele>
        <time>2024-09-18T13:50:44Z</time>
      </trkpt>
      <trkpt lat="46.56139" lon="4.91421">
        <ele>188.2</ele>
        <time>2024-09-18T13:50:45Z</time>
      </trkpt>
      <trkpt lat="46.56138" lon="4.91422">
        <ele>188.2</ele>
        <time>2024-09-18T13:50:46Z</time>
      </trkpt>
      <trkpt lat="46.56136" lon="4.91425">
        <ele>188.2</ele>
        <time>2024-09-18T13:50:47Z</time>
      </trkpt>
      <trkpt lat="46.56133" lon="4.91427">
        <ele>188.2</ele>
        <time>2024-09-18T13:50:48Z</time>
      </trkpt>
      <trkpt lat="46.56131" lon="4.91429">
        <ele>188.4</ele>
        <time>2024-09-18T13:50:49Z</time>
      </trkpt>
      <trkpt lat="46.56128" lon="4.91431">
        <ele>188.4</ele>
        <time>2024-09-18T13:50:50Z</time>
      </trkpt>
      <trkpt lat="46.56126" lon="4.91433">
        <ele>188.4</ele>
        <time>2024-09-18T13:50:51Z</time>
      </trkpt>
      <trkpt lat="46.56124" lon="4.91436">
        <ele>187.6</ele>
        <time>2024-09-18T13:50:52Z</time>
      </trkpt>
      <trkpt lat="46.56122" lon="4.91438">
        <ele>188.4</ele>
        <time>2024-09-18T13:50:53Z</time>
      </trkpt>
      <trkpt lat="46.5612" lon="4.9144">
        <ele>188.4</ele>
        <time>2024-09-18T13:50:54Z</time>
      </trkpt>
      <trkpt lat="46.56117" lon="4.91442">
        <ele>188.4</ele>
        <time>2024-09-18T13:50:55Z</time>
      </trkpt>
      <trkpt lat="46.56115" lon="4.91444">
        <ele>188</ele>
        <time>2024-09-18T13:50:56Z</time>
      </trkpt>
      <trkpt lat="46.56113" lon="4.91447">
        <ele>188</ele>
        <time>2024-09-18T13:50:57Z</time>
      </trkpt>
      <trkpt lat="46.56112" lon="4.91449">
        <ele>187.2</ele>
        <time>2024-09-18T13:50:58Z</time>
      </trkpt>
      <trkpt lat="46.5611" lon="4.91451">
        <ele>187.2</ele>
        <time>2024-09-18T13:50:59Z</time>
      </trkpt>
      <trkpt lat="46.56108" lon="4.91453">
        <ele>187.2</ele>
        <time>2024-09-18T13:51:00Z</time>
      </trkpt>
      <trkpt lat="46.56106" lon="4.91455">
        <ele>188.2</ele>
        <time>2024-09-18T13:51:01Z</time>
      </trkpt>
      <trkpt lat="46.56104" lon="4.91458">
        <ele>188.2</ele>
        <time>2024-09-18T13:51:02Z</time>
      </trkpt>
      <trkpt lat="46.56102" lon="4.9146">
        <ele>188.2</ele>
        <time>2024-09-18T13:51:03Z</time>
      </trkpt>
      <trkpt lat="46.561" lon="4.91462">
        <ele>188.2</ele>
        <time>2024-09-18T13:51:04Z</time>
      </trkpt>
      <trkpt lat="46.56098" lon="4.91464">
        <ele>188.2</ele>
        <time>2024-09-18T13:51:05Z</time>
      </trkpt>
      <trkpt lat="46.56095" lon="4.91467">
        <ele>188</ele>
        <time>2024-09-18T13:51:06Z</time>
      </trkpt>
      <trkpt lat="46.56093" lon="4.91469">
        <ele>188</ele>
        <time>2024-09-18T13:51:07Z</time>
      </trkpt>
      <trkpt lat="46.56091" lon="4.91471">
        <ele>188</ele>
        <time>2024-09-18T13:51:08Z</time>
      </trkpt>
      <trkpt lat="46.56089" lon="4.91472">
        <ele>188</ele>
        <time>2024-09-18T13:51:09Z</time>
      </trkpt>
      <trkpt lat="46.56087" lon="4.91474">
        <ele>188</ele>
        <time>2024-09-18T13:51:10Z</time>
      </trkpt>
      <trkpt lat="46.56084" lon="4.91476">
        <ele>188</ele>
        <time>2024-09-18T13:51:11Z</time>
      </trkpt>
      <trkpt lat="46.56082" lon="4.91478">
        <ele>188</ele>
        <time>2024-09-18T13:51:12Z</time>
      </trkpt>
      <trkpt lat="46.5608" lon="4.91481">
        <ele>188</ele>
        <time>2024-09-18T13:51:13Z</time>
      </trkpt>
      <trkpt lat="46.56078" lon="4.91484">
        <ele>188</ele>
        <time>2024-09-18T13:51:14Z</time>
      </trkpt>
      <trkpt lat="46.56075" lon="4.91487">
        <ele>188.2</ele>
        <time>2024-09-18T13:51:15Z</time>
      </trkpt>
      <trkpt lat="46.56073" lon="4.91489">
        <ele>188.2</ele>
        <time>2024-09-18T13:51:16Z</time>
      </trkpt>
      <trkpt lat="46.56071" lon="4.91491">
        <ele>188.2</ele>
        <time>2024-09-18T13:51:17Z</time>
      </trkpt>
      <trkpt lat="46.56068" lon="4.91494">
        <ele>188.2</ele>
        <time>2024-09-18T13:51:18Z</time>
      </trkpt>
      <trkpt lat="46.56066" lon="4.91496">
        <ele>187.6</ele>
        <time>2024-09-18T13:51:19Z</time>
      </trkpt>
      <trkpt lat="46.56064" lon="4.91499">
        <ele>187.6</ele>
        <time>2024-09-18T13:51:20Z</time>
      </trkpt>
      <trkpt lat="46.56062" lon="4.91501">
        <ele>187.6</ele>
        <time>2024-09-18T13:51:21Z</time>
      </trkpt>
      <trkpt lat="46.56059" lon="4.91504">
        <ele>187.6</ele>
        <time>2024-09-18T13:51:22Z</time>
      </trkpt>
      <trkpt lat="46.56057" lon="4.91506">
        <ele>188</ele>
        <time>2024-09-18T13:51:23Z</time>
      </trkpt>
      <trkpt lat="46.56055" lon="4.91508">
        <ele>187.8</ele>
        <time>2024-09-18T13:51:24Z</time>
      </trkpt>
      <trkpt lat="46.56053" lon="4.91508">
        <ele>187.8</ele>
        <time>2024-09-18T13:51:25Z</time>
      </trkpt>
      <trkpt lat="46.56051" lon="4.91509">
        <ele>187.8</ele>
        <time>2024-09-18T13:51:26Z</time>
      </trkpt>
      <trkpt lat="46.56049" lon="4.91511">
        <ele>188.6</ele>
        <time>2024-09-18T13:51:27Z</time>
      </trkpt>
      <trkpt lat="46.56048" lon="4.91513">
        <ele>188.4</ele>
        <time>2024-09-18T13:51:28Z</time>
      </trkpt>
      <trkpt lat="46.56046" lon="4.91515">
        <ele>188.4</ele>
        <time>2024-09-18T13:51:29Z</time>
      </trkpt>
      <trkpt lat="46.56044" lon="4.91516">
        <ele>188.4</ele>
        <time>2024-09-18T13:51:30Z</time>
      </trkpt>
      <trkpt lat="46.56042" lon="4.91518">
        <ele>188.4</ele>
        <time>2024-09-18T13:51:31Z</time>
      </trkpt>
      <trkpt lat="46.56041" lon="4.9152">
        <ele>188.4</ele>
        <time>2024-09-18T13:51:32Z</time>
      </trkpt>
      <trkpt lat="46.56039" lon="4.91521">
        <ele>187.8</ele>
        <time>2024-09-18T13:51:33Z</time>
      </trkpt>
      <trkpt lat="46.56037" lon="4.91523">
        <ele>187.8</ele>
        <time>2024-09-18T13:51:34Z</time>
      </trkpt>
      <trkpt lat="46.56034" lon="4.91525">
        <ele>187.8</ele>
        <time>2024-09-18T13:51:35Z</time>
      </trkpt>
      <trkpt lat="46.56032" lon="4.91527">
        <ele>188.4</ele>
        <time>2024-09-18T13:51:36Z</time>
      </trkpt>
      <trkpt lat="46.5603" lon="4.9153">
        <ele>188.4</ele>
        <time>2024-09-18T13:51:37Z</time>
      </trkpt>
      <trkpt lat="46.56029" lon="4.91531">
        <ele>188.4</ele>
        <time>2024-09-18T13:51:38Z</time>
      </trkpt>
      <trkpt lat="46.56027" lon="4.91533">
        <ele>188.4</ele>
        <time>2024-09-18T13:51:39Z</time>
      </trkpt>
      <trkpt lat="46.56025" lon="4.91534">
        <ele>188.4</ele>
        <time>2024-09-18T13:51:40Z</time>
      </trkpt>
      <trkpt lat="46.56024" lon="4.91535">
        <ele>187.6</ele>
        <time>2024-09-18T13:51:41Z</time>
      </trkpt>
      <trkpt lat="46.56022" lon="4.91535">
        <ele>188.4</ele>
        <time>2024-09-18T13:51:42Z</time>
      </trkpt>
      <trkpt lat="46.56021" lon="4.91536">
        <ele>188.4</ele>
        <time>2024-09-18T13:51:43Z</time>
      </trkpt>
      <trkpt lat="46.5602" lon="4.91536">
        <ele>188.4</ele>
        <time>2024-09-18T13:51:44Z</time>
      </trkpt>
      <trkpt lat="46.56019" lon="4.91536">
        <ele>188.4</ele>
        <time>2024-09-18T13:51:45Z</time>
      </trkpt>
      <trkpt lat="46.56018" lon="4.91536">
        <ele>188.4</ele>
        <time>2024-09-18T13:51:46Z</time>
      </trkpt>
      <trkpt lat="46.56018" lon="4.91536">
        <ele>188.4</ele>
        <time>2024-09-18T13:51:47Z</time>
      </trkpt>
      <trkpt lat="46.56014" lon="4.91537">
        <ele>188.4</ele>
        <time>2024-09-18T13:51:57Z</time>
      </trkpt>
      <trkpt lat="46.56011" lon="4.91538">
        <ele>188.4</ele>
        <time>2024-09-18T13:51:58Z</time>
      </trkpt>
      <trkpt lat="46.56009" lon="4.91539">
        <ele>188.4</ele>
        <time>2024-09-18T13:51:59Z</time>
      </trkpt>
      <trkpt lat="46.56006" lon="4.91541">
        <ele>188.4</ele>
        <time>2024-09-18T13:52:00Z</time>
      </trkpt>
      <trkpt lat="46.56003" lon="4.91542">
        <ele>188.4</ele>
        <time>2024-09-18T13:52:01Z</time>
      </trkpt>
      <trkpt lat="46.56" lon="4.91544">
        <ele>188.4</ele>
        <time>2024-09-18T13:52:02Z</time>
      </trkpt>
      <trkpt lat="46.55996" lon="4.91547">
        <ele>188.4</ele>
        <time>2024-09-18T13:52:03Z</time>
      </trkpt>
      <trkpt lat="46.55993" lon="4.91548">
        <ele>188.4</ele>
        <time>2024-09-18T13:52:04Z</time>
      </trkpt>
      <trkpt lat="46.55989" lon="4.91551">
        <ele>188.4</ele>
        <time>2024-09-18T13:52:05Z</time>
      </trkpt>
      <trkpt lat="46.55985" lon="4.91553">
        <ele>188.4</ele>
        <time>2024-09-18T13:52:06Z</time>
      </trkpt>
      <trkpt lat="46.55982" lon="4.91555">
        <ele>188.2</ele>
        <time>2024-09-18T13:52:07Z</time>
      </trkpt>
      <trkpt lat="46.55978" lon="4.91557">
        <ele>188.2</ele>
        <time>2024-09-18T13:52:08Z</time>
      </trkpt>
      <trkpt lat="46.55975" lon="4.9156">
        <ele>187.8</ele>
        <time>2024-09-18T13:52:09Z</time>
      </trkpt>
      <trkpt lat="46.55972" lon="4.91563">
        <ele>187.8</ele>
        <time>2024-09-18T13:52:10Z</time>
      </trkpt>
      <trkpt lat="46.55968" lon="4.91565">
        <ele>187.8</ele>
        <time>2024-09-18T13:52:11Z</time>
      </trkpt>
      <trkpt lat="46.55964" lon="4.91567">
        <ele>187.8</ele>
        <time>2024-09-18T13:52:12Z</time>
      </trkpt>
      <trkpt lat="46.5596" lon="4.9157">
        <ele>187.8</ele>
        <time>2024-09-18T13:52:13Z</time>
      </trkpt>
      <trkpt lat="46.55956" lon="4.91572">
        <ele>188.6</ele>
        <time>2024-09-18T13:52:14Z</time>
      </trkpt>
      <trkpt lat="46.55952" lon="4.91574">
        <ele>188.6</ele>
        <time>2024-09-18T13:52:15Z</time>
      </trkpt>
      <trkpt lat="46.55949" lon="4.91577">
        <ele>188.6</ele>
        <time>2024-09-18T13:52:16Z</time>
      </trkpt>
      <trkpt lat="46.55945" lon="4.91579">
        <ele>188.6</ele>
        <time>2024-09-18T13:52:17Z</time>
      </trkpt>
      <trkpt lat="46.55941" lon="4.91582">
        <ele>188.4</ele>
        <time>2024-09-18T13:52:18Z</time>
      </trkpt>
      <trkpt lat="46.55937" lon="4.91585">
        <ele>188.4</ele>
        <time>2024-09-18T13:52:19Z</time>
      </trkpt>
      <trkpt lat="46.55933" lon="4.91587">
        <ele>188.4</ele>
        <time>2024-09-18T13:52:20Z</time>
      </trkpt>
      <trkpt lat="46.55929" lon="4.91589">
        <ele>188.4</ele>
        <time>2024-09-18T13:52:21Z</time>
      </trkpt>
      <trkpt lat="46.55925" lon="4.91593">
        <ele>188.4</ele>
        <time>2024-09-18T13:52:22Z</time>
      </trkpt>
      <trkpt lat="46.55921" lon="4.91596">
        <ele>188.6</ele>
        <time>2024-09-18T13:52:23Z</time>
      </trkpt>
      <trkpt lat="46.55917" lon="4.91598">
        <ele>188.6</ele>
        <time>2024-09-18T13:52:24Z</time>
      </trkpt>
      <trkpt lat="46.55913" lon="4.91601">
        <ele>188.6</ele>
        <time>2024-09-18T13:52:25Z</time>
      </trkpt>
      <trkpt lat="46.55909" lon="4.91603">
        <ele>188.6</ele>
        <time>2024-09-18T13:52:26Z</time>
      </trkpt>
      <trkpt lat="46.55905" lon="4.91605">
        <ele>188.6</ele>
        <time>2024-09-18T13:52:27Z</time>
      </trkpt>
      <trkpt lat="46.55901" lon="4.91608">
        <ele>188.6</ele>
        <time>2024-09-18T13:52:28Z</time>
      </trkpt>
      <trkpt lat="46.55897" lon="4.9161">
        <ele>188.6</ele>
        <time>2024-09-18T13:52:29Z</time>
      </trkpt>
      <trkpt lat="46.55893" lon="4.91612">
        <ele>188.6</ele>
        <time>2024-09-18T13:52:30Z</time>
      </trkpt>
      <trkpt lat="46.55889" lon="4.91615">
        <ele>188.6</ele>
        <time>2024-09-18T13:52:31Z</time>
      </trkpt>
      <trkpt lat="46.55885" lon="4.91618">
        <ele>188.6</ele>
        <time>2024-09-18T13:52:32Z</time>
      </trkpt>
      <trkpt lat="46.55881" lon="4.9162">
        <ele>188.6</ele>
        <time>2024-09-18T13:52:33Z</time>
      </trkpt>
      <trkpt lat="46.55877" lon="4.91622">
        <ele>188.6</ele>
        <time>2024-09-18T13:52:34Z</time>
      </trkpt>
      <trkpt lat="46.55873" lon="4.91625">
        <ele>188.8</ele>
        <time>2024-09-18T13:52:35Z</time>
      </trkpt>
      <trkpt lat="46.55869" lon="4.91627">
        <ele>188.6</ele>
        <time>2024-09-18T13:52:36Z</time>
      </trkpt>
      <trkpt lat="46.55865" lon="4.9163">
        <ele>188.6</ele>
        <time>2024-09-18T13:52:37Z</time>
      </trkpt>
      <trkpt lat="46.55861" lon="4.91633">
        <ele>188.6</ele>
        <time>2024-09-18T13:52:38Z</time>
      </trkpt>
      <trkpt lat="46.55857" lon="4.91635">
        <ele>188.2</ele>
        <time>2024-09-18T13:52:39Z</time>
      </trkpt>
      <trkpt lat="46.55853" lon="4.91637">
        <ele>188.2</ele>
        <time>2024-09-18T13:52:40Z</time>
      </trkpt>
      <trkpt lat="46.55849" lon="4.91639">
        <ele>188.2</ele>
        <time>2024-09-18T13:52:41Z</time>
      </trkpt>
      <trkpt lat="46.55845" lon="4.91641">
        <ele>188.2</ele>
        <time>2024-09-18T13:52:42Z</time>
      </trkpt>
      <trkpt lat="46.55841" lon="4.91644">
        <ele>188.6</ele>
        <time>2024-09-18T13:52:43Z</time>
      </trkpt>
      <trkpt lat="46.55837" lon="4.91646">
        <ele>188.6</ele>
        <time>2024-09-18T13:52:44Z</time>
      </trkpt>
      <trkpt lat="46.55833" lon="4.91648">
        <ele>188.6</ele>
        <time>2024-09-18T13:52:45Z</time>
      </trkpt>
      <trkpt lat="46.55829" lon="4.91651">
        <ele>188.6</ele>
        <time>2024-09-18T13:52:46Z</time>
      </trkpt>
      <trkpt lat="46.55825" lon="4.91654">
        <ele>188.6</ele>
        <time>2024-09-18T13:52:47Z</time>
      </trkpt>
      <trkpt lat="46.55821" lon="4.91657">
        <ele>188.6</ele>
        <time>2024-09-18T13:52:48Z</time>
      </trkpt>
      <trkpt lat="46.55817" lon="4.9166">
        <ele>189</ele>
        <time>2024-09-18T13:52:49Z</time>
      </trkpt>
      <trkpt lat="46.55813" lon="4.91663">
        <ele>189</ele>
        <time>2024-09-18T13:52:50Z</time>
      </trkpt>
      <trkpt lat="46.5581" lon="4.91667">
        <ele>189</ele>
        <time>2024-09-18T13:52:51Z</time>
      </trkpt>
      <trkpt lat="46.55806" lon="4.9167">
        <ele>189</ele>
        <time>2024-09-18T13:52:52Z</time>
      </trkpt>
      <trkpt lat="46.55802" lon="4.91672">
        <ele>188.4</ele>
        <time>2024-09-18T13:52:53Z</time>
      </trkpt>
      <trkpt lat="46.55798" lon="4.91675">
        <ele>188.4</ele>
        <time>2024-09-18T13:52:54Z</time>
      </trkpt>
      <trkpt lat="46.55794" lon="4.91677">
        <ele>188.4</ele>
        <time>2024-09-18T13:52:55Z</time>
      </trkpt>
      <trkpt lat="46.55789" lon="4.91679">
        <ele>188.4</ele>
        <time>2024-09-18T13:52:56Z</time>
      </trkpt>
      <trkpt lat="46.55785" lon="4.91681">
        <ele>188.4</ele>
        <time>2024-09-18T13:52:57Z</time>
      </trkpt>
      <trkpt lat="46.55782" lon="4.91684">
        <ele>188.4</ele>
        <time>2024-09-18T13:52:58Z</time>
      </trkpt>
      <trkpt lat="46.55778" lon="4.91686">
        <ele>188.2</ele>
        <time>2024-09-18T13:52:59Z</time>
      </trkpt>
      <trkpt lat="46.55774" lon="4.91689">
        <ele>188.2</ele>
        <time>2024-09-18T13:53:00Z</time>
      </trkpt>
      <trkpt lat="46.55769" lon="4.91692">
        <ele>188.2</ele>
        <time>2024-09-18T13:53:01Z</time>
      </trkpt>
      <trkpt lat="46.55765" lon="4.91694">
        <ele>188.4</ele>
        <time>2024-09-18T13:53:02Z</time>
      </trkpt>
      <trkpt lat="46.55761" lon="4.91696">
        <ele>188.6</ele>
        <time>2024-09-18T13:53:03Z</time>
      </trkpt>
      <trkpt lat="46.55757" lon="4.91698">
        <ele>188.6</ele>
        <time>2024-09-18T13:53:04Z</time>
      </trkpt>
      <trkpt lat="46.55753" lon="4.917">
        <ele>188.6</ele>
        <time>2024-09-18T13:53:05Z</time>
      </trkpt>
      <trkpt lat="46.55748" lon="4.91702">
        <ele>189.6</ele>
        <time>2024-09-18T13:53:06Z</time>
      </trkpt>
      <trkpt lat="46.55744" lon="4.91704">
        <ele>189.6</ele>
        <time>2024-09-18T13:53:07Z</time>
      </trkpt>
      <trkpt lat="46.55739" lon="4.91706">
        <ele>189.6</ele>
        <time>2024-09-18T13:53:08Z</time>
      </trkpt>
      <trkpt lat="46.55735" lon="4.91708">
        <ele>189.6</ele>
        <time>2024-09-18T13:53:09Z</time>
      </trkpt>
      <trkpt lat="46.5573" lon="4.9171">
        <ele>189.6</ele>
        <time>2024-09-18T13:53:10Z</time>
      </trkpt>
      <trkpt lat="46.55726" lon="4.91713">
        <ele>189.2</ele>
        <time>2024-09-18T13:53:11Z</time>
      </trkpt>
      <trkpt lat="46.55721" lon="4.91715">
        <ele>189.4</ele>
        <time>2024-09-18T13:53:12Z</time>
      </trkpt>
      <trkpt lat="46.55717" lon="4.91717">
        <ele>189.4</ele>
        <time>2024-09-18T13:53:13Z</time>
      </trkpt>
      <trkpt lat="46.55713" lon="4.91719">
        <ele>189.4</ele>
        <time>2024-09-18T13:53:14Z</time>
      </trkpt>
      <trkpt lat="46.55708" lon="4.91722">
        <ele>189</ele>
        <time>2024-09-18T13:53:15Z</time>
      </trkpt>
      <trkpt lat="46.55704" lon="4.91724">
        <ele>189</ele>
        <time>2024-09-18T13:53:16Z</time>
      </trkpt>
      <trkpt lat="46.55699" lon="4.91726">
        <ele>189.4</ele>
        <time>2024-09-18T13:53:17Z</time>
      </trkpt>
      <trkpt lat="46.55695" lon="4.91728">
        <ele>189.4</ele>
        <time>2024-09-18T13:53:18Z</time>
      </trkpt>
      <trkpt lat="46.55691" lon="4.9173">
        <ele>189.4</ele>
        <time>2024-09-18T13:53:19Z</time>
      </trkpt>
      <trkpt lat="46.55687" lon="4.91732">
        <ele>188.8</ele>
        <time>2024-09-18T13:53:20Z</time>
      </trkpt>
      <trkpt lat="46.55682" lon="4.91733">
        <ele>188.8</ele>
        <time>2024-09-18T13:53:21Z</time>
      </trkpt>
      <trkpt lat="46.55677" lon="4.91735">
        <ele>188.8</ele>
        <time>2024-09-18T13:53:22Z</time>
      </trkpt>
      <trkpt lat="46.55673" lon="4.91736">
        <ele>188.8</ele>
        <time>2024-09-18T13:53:23Z</time>
      </trkpt>
      <trkpt lat="46.55668" lon="4.91737">
        <ele>189</ele>
        <time>2024-09-18T13:53:24Z</time>
      </trkpt>
      <trkpt lat="46.55664" lon="4.91738">
        <ele>189</ele>
        <time>2024-09-18T13:53:25Z</time>
      </trkpt>
      <trkpt lat="46.5566" lon="4.91739">
        <ele>189</ele>
        <time>2024-09-18T13:53:26Z</time>
      </trkpt>
      <trkpt lat="46.55655" lon="4.9174">
        <ele>189</ele>
        <time>2024-09-18T13:53:27Z</time>
      </trkpt>
      <trkpt lat="46.5565" lon="4.91742">
        <ele>189.4</ele>
        <time>2024-09-18T13:53:28Z</time>
      </trkpt>
      <trkpt lat="46.55645" lon="4.91744">
        <ele>189.4</ele>
        <time>2024-09-18T13:53:29Z</time>
      </trkpt>
      <trkpt lat="46.5564" lon="4.91745">
        <ele>189</ele>
        <time>2024-09-18T13:53:30Z</time>
      </trkpt>
      <trkpt lat="46.55635" lon="4.91747">
        <ele>189</ele>
        <time>2024-09-18T13:53:31Z</time>
      </trkpt>
      <trkpt lat="46.5563" lon="4.91749">
        <ele>189</ele>
        <time>2024-09-18T13:53:32Z</time>
      </trkpt>
      <trkpt lat="46.55625" lon="4.91751">
        <ele>189</ele>
        <time>2024-09-18T13:53:33Z</time>
      </trkpt>
      <trkpt lat="46.5562" lon="4.91751">
        <ele>188.8</ele>
        <time>2024-09-18T13:53:34Z</time>
      </trkpt>
      <trkpt lat="46.55615" lon="4.91752">
        <ele>188.8</ele>
        <time>2024-09-18T13:53:35Z</time>
      </trkpt>
      <trkpt lat="46.55611" lon="4.91753">
        <ele>188.8</ele>
        <time>2024-09-18T13:53:36Z</time>
      </trkpt>
      <trkpt lat="46.55604" lon="4.91755">
        <ele>188.8</ele>
        <time>2024-09-18T13:53:37Z</time>
      </trkpt>
      <trkpt lat="46.55602" lon="4.91756">
        <ele>188.8</ele>
        <time>2024-09-18T13:53:38Z</time>
      </trkpt>
      <trkpt lat="46.55598" lon="4.91757">
        <ele>189</ele>
        <time>2024-09-18T13:53:39Z</time>
      </trkpt>
      <trkpt lat="46.55594" lon="4.91758">
        <ele>189</ele>
        <time>2024-09-18T13:53:40Z</time>
      </trkpt>
      <trkpt lat="46.55589" lon="4.91759">
        <ele>189</ele>
        <time>2024-09-18T13:53:41Z</time>
      </trkpt>
      <trkpt lat="46.55585" lon="4.9176">
        <ele>189</ele>
        <time>2024-09-18T13:53:42Z</time>
      </trkpt>
      <trkpt lat="46.55582" lon="4.91761">
        <ele>189</ele>
        <time>2024-09-18T13:53:43Z</time>
      </trkpt>
      <trkpt lat="46.55578" lon="4.91762">
        <ele>188.8</ele>
        <time>2024-09-18T13:53:44Z</time>
      </trkpt>
      <trkpt lat="46.55575" lon="4.91763">
        <ele>188.8</ele>
        <time>2024-09-18T13:53:45Z</time>
      </trkpt>
      <trkpt lat="46.55572" lon="4.91764">
        <ele>188.8</ele>
        <time>2024-09-18T13:53:46Z</time>
      </trkpt>
      <trkpt lat="46.55568" lon="4.91766">
        <ele>189.8</ele>
        <time>2024-09-18T13:53:47Z</time>
      </trkpt>
      <trkpt lat="46.55565" lon="4.91769">
        <ele>189.4</ele>
        <time>2024-09-18T13:53:48Z</time>
      </trkpt>
      <trkpt lat="46.55561" lon="4.91771">
        <ele>189.4</ele>
        <time>2024-09-18T13:53:49Z</time>
      </trkpt>
      <trkpt lat="46.55557" lon="4.91773">
        <ele>189.4</ele>
        <time>2024-09-18T13:53:50Z</time>
      </trkpt>
      <trkpt lat="46.55552" lon="4.91774">
        <ele>189.4</ele>
        <time>2024-09-18T13:53:51Z</time>
      </trkpt>
      <trkpt lat="46.55547" lon="4.91776">
        <ele>188.8</ele>
        <time>2024-09-18T13:53:52Z</time>
      </trkpt>
      <trkpt lat="46.55542" lon="4.91778">
        <ele>188.8</ele>
        <time>2024-09-18T13:53:53Z</time>
      </trkpt>
      <trkpt lat="46.55537" lon="4.91779">
        <ele>188.8</ele>
        <time>2024-09-18T13:53:54Z</time>
      </trkpt>
      <trkpt lat="46.55533" lon="4.91781">
        <ele>189</ele>
        <time>2024-09-18T13:53:55Z</time>
      </trkpt>
      <trkpt lat="46.55528" lon="4.91784">
        <ele>189</ele>
        <time>2024-09-18T13:53:56Z</time>
      </trkpt>
      <trkpt lat="46.55524" lon="4.91786">
        <ele>189.6</ele>
        <time>2024-09-18T13:53:57Z</time>
      </trkpt>
      <trkpt lat="46.55521" lon="4.91788">
        <ele>189.6</ele>
        <time>2024-09-18T13:53:58Z</time>
      </trkpt>
      <trkpt lat="46.55517" lon="4.91789">
        <ele>189.6</ele>
        <time>2024-09-18T13:53:59Z</time>
      </trkpt>
      <trkpt lat="46.55513" lon="4.9179">
        <ele>189.2</ele>
        <time>2024-09-18T13:54:00Z</time>
      </trkpt>
      <trkpt lat="46.55508" lon="4.91792">
        <ele>189.2</ele>
        <time>2024-09-18T13:54:01Z</time>
      </trkpt>
      <trkpt lat="46.55504" lon="4.91794">
        <ele>189.2</ele>
        <time>2024-09-18T13:54:02Z</time>
      </trkpt>
      <trkpt lat="46.555" lon="4.91796">
        <ele>189.2</ele>
        <time>2024-09-18T13:54:03Z</time>
      </trkpt>
      <trkpt lat="46.55496" lon="4.91799">
        <ele>188.6</ele>
        <time>2024-09-18T13:54:04Z</time>
      </trkpt>
      <trkpt lat="46.55492" lon="4.91801">
        <ele>188.6</ele>
        <time>2024-09-18T13:54:05Z</time>
      </trkpt>
      <trkpt lat="46.55488" lon="4.91803">
        <ele>188.6</ele>
        <time>2024-09-18T13:54:06Z</time>
      </trkpt>
      <trkpt lat="46.55483" lon="4.91806">
        <ele>188.6</ele>
        <time>2024-09-18T13:54:07Z</time>
      </trkpt>
      <trkpt lat="46.55479" lon="4.91809">
        <ele>188.6</ele>
        <time>2024-09-18T13:54:08Z</time>
      </trkpt>
      <trkpt lat="46.55474" lon="4.91811">
        <ele>188.6</ele>
        <time>2024-09-18T13:54:09Z</time>
      </trkpt>
      <trkpt lat="46.55469" lon="4.91814">
        <ele>189</ele>
        <time>2024-09-18T13:54:10Z</time>
      </trkpt>
      <trkpt lat="46.55465" lon="4.91817">
        <ele>189</ele>
        <time>2024-09-18T13:54:11Z</time>
      </trkpt>
      <trkpt lat="46.5546" lon="4.91819">
        <ele>189</ele>
        <time>2024-09-18T13:54:12Z</time>
      </trkpt>
      <trkpt lat="46.55455" lon="4.91822">
        <ele>189</ele>
        <time>2024-09-18T13:54:13Z</time>
      </trkpt>
      <trkpt lat="46.55451" lon="4.91824">
        <ele>188.6</ele>
        <time>2024-09-18T13:54:14Z</time>
      </trkpt>
      <trkpt lat="46.55446" lon="4.91826">
        <ele>188.6</ele>
        <time>2024-09-18T13:54:15Z</time>
      </trkpt>
      <trkpt lat="46.55442" lon="4.91829">
        <ele>188.6</ele>
        <time>2024-09-18T13:54:16Z</time>
      </trkpt>
      <trkpt lat="46.55438" lon="4.91831">
        <ele>188.6</ele>
        <time>2024-09-18T13:54:17Z</time>
      </trkpt>
      <trkpt lat="46.55433" lon="4.91834">
        <ele>188.4</ele>
        <time>2024-09-18T13:54:18Z</time>
      </trkpt>
      <trkpt lat="46.55429" lon="4.91837">
        <ele>188.4</ele>
        <time>2024-09-18T13:54:19Z</time>
      </trkpt>
      <trkpt lat="46.55425" lon="4.9184">
        <ele>188.4</ele>
        <time>2024-09-18T13:54:20Z</time>
      </trkpt>
      <trkpt lat="46.5542" lon="4.91842">
        <ele>188.4</ele>
        <time>2024-09-18T13:54:21Z</time>
      </trkpt>
      <trkpt lat="46.55416" lon="4.91843">
        <ele>188.4</ele>
        <time>2024-09-18T13:54:22Z</time>
      </trkpt>
      <trkpt lat="46.55412" lon="4.91845">
        <ele>188.4</ele>
        <time>2024-09-18T13:54:23Z</time>
      </trkpt>
      <trkpt lat="46.55407" lon="4.91848">
        <ele>188.2</ele>
        <time>2024-09-18T13:54:24Z</time>
      </trkpt>
      <trkpt lat="46.55404" lon="4.91851">
        <ele>188.2</ele>
        <time>2024-09-18T13:54:25Z</time>
      </trkpt>
      <trkpt lat="46.554" lon="4.91853">
        <ele>188.2</ele>
        <time>2024-09-18T13:54:26Z</time>
      </trkpt>
      <trkpt lat="46.55396" lon="4.91856">
        <ele>188.6</ele>
        <time>2024-09-18T13:54:27Z</time>
      </trkpt>
      <trkpt lat="46.55392" lon="4.91858">
        <ele>188.2</ele>
        <time>2024-09-18T13:54:28Z</time>
      </trkpt>
      <trkpt lat="46.55388" lon="4.9186">
        <ele>188.2</ele>
        <time>2024-09-18T13:54:29Z</time>
      </trkpt>
      <trkpt lat="46.55384" lon="4.91863">
        <ele>188.2</ele>
        <time>2024-09-18T13:54:30Z</time>
      </trkpt>
      <trkpt lat="46.5538" lon="4.91865">
        <ele>188.2</ele>
        <time>2024-09-18T13:54:31Z</time>
      </trkpt>
      <trkpt lat="46.55376" lon="4.91868">
        <ele>188.2</ele>
        <time>2024-09-18T13:54:32Z</time>
      </trkpt>
      <trkpt lat="46.55372" lon="4.91871">
        <ele>188</ele>
        <time>2024-09-18T13:54:33Z</time>
      </trkpt>
      <trkpt lat="46.55368" lon="4.91873">
        <ele>188</ele>
        <time>2024-09-18T13:54:34Z</time>
      </trkpt>
      <trkpt lat="46.55364" lon="4.91875">
        <ele>188</ele>
        <time>2024-09-18T13:54:35Z</time>
      </trkpt>
      <trkpt lat="46.5536" lon="4.91877">
        <ele>188</ele>
        <time>2024-09-18T13:54:36Z</time>
      </trkpt>
      <trkpt lat="46.55356" lon="4.91879">
        <ele>188</ele>
        <time>2024-09-18T13:54:37Z</time>
      </trkpt>
      <trkpt lat="46.55352" lon="4.91881">
        <ele>188</ele>
        <time>2024-09-18T13:54:38Z</time>
      </trkpt>
      <trkpt lat="46.55347" lon="4.91883">
        <ele>188</ele>
        <time>2024-09-18T13:54:39Z</time>
      </trkpt>
      <trkpt lat="46.55343" lon="4.91885">
        <ele>188</ele>
        <time>2024-09-18T13:54:40Z</time>
      </trkpt>
      <trkpt lat="46.55339" lon="4.91887">
        <ele>188</ele>
        <time>2024-09-18T13:54:41Z</time>
      </trkpt>
      <trkpt lat="46.55335" lon="4.91889">
        <ele>187.6</ele>
        <time>2024-09-18T13:54:42Z</time>
      </trkpt>
      <trkpt lat="46.55331" lon="4.91891">
        <ele>187.6</ele>
        <time>2024-09-18T13:54:43Z</time>
      </trkpt>
      <trkpt lat="46.55327" lon="4.91893">
        <ele>187.6</ele>
        <time>2024-09-18T13:54:44Z</time>
      </trkpt>
      <trkpt lat="46.55323" lon="4.91895">
        <ele>187.6</ele>
        <time>2024-09-18T13:54:45Z</time>
      </trkpt>
      <trkpt lat="46.55319" lon="4.91897">
        <ele>187.2</ele>
        <time>2024-09-18T13:54:46Z</time>
      </trkpt>
      <trkpt lat="46.55315" lon="4.91899">
        <ele>187.2</ele>
        <time>2024-09-18T13:54:47Z</time>
      </trkpt>
      <trkpt lat="46.55311" lon="4.91901">
        <ele>187.2</ele>
        <time>2024-09-18T13:54:48Z</time>
      </trkpt>
      <trkpt lat="46.55308" lon="4.91904">
        <ele>187.6</ele>
        <time>2024-09-18T13:54:49Z</time>
      </trkpt>
      <trkpt lat="46.55304" lon="4.91906">
        <ele>187.4</ele>
        <time>2024-09-18T13:54:50Z</time>
      </trkpt>
      <trkpt lat="46.55301" lon="4.91908">
        <ele>187.4</ele>
        <time>2024-09-18T13:54:51Z</time>
      </trkpt>
      <trkpt lat="46.55298" lon="4.91911">
        <ele>187.4</ele>
        <time>2024-09-18T13:54:52Z</time>
      </trkpt>
      <trkpt lat="46.55294" lon="4.91913">
        <ele>188</ele>
        <time>2024-09-18T13:54:53Z</time>
      </trkpt>
      <trkpt lat="46.5529" lon="4.91915">
        <ele>188</ele>
        <time>2024-09-18T13:54:54Z</time>
      </trkpt>
      <trkpt lat="46.55286" lon="4.91917">
        <ele>187.6</ele>
        <time>2024-09-18T13:54:55Z</time>
      </trkpt>
      <trkpt lat="46.55283" lon="4.91919">
        <ele>187.6</ele>
        <time>2024-09-18T13:54:56Z</time>
      </trkpt>
      <trkpt lat="46.55279" lon="4.91921">
        <ele>187.6</ele>
        <time>2024-09-18T13:54:57Z</time>
      </trkpt>
      <trkpt lat="46.55275" lon="4.91923">
        <ele>187.6</ele>
        <time>2024-09-18T13:54:58Z</time>
      </trkpt>
      <trkpt lat="46.55271" lon="4.91925">
        <ele>187.8</ele>
        <time>2024-09-18T13:54:59Z</time>
      </trkpt>
      <trkpt lat="46.55267" lon="4.91926">
        <ele>187.8</ele>
        <time>2024-09-18T13:55:00Z</time>
      </trkpt>
      <trkpt lat="46.55263" lon="4.91928">
        <ele>187.8</ele>
        <time>2024-09-18T13:55:01Z</time>
      </trkpt>
      <trkpt lat="46.55259" lon="4.9193">
        <ele>187.6</ele>
        <time>2024-09-18T13:55:02Z</time>
      </trkpt>
      <trkpt lat="46.55255" lon="4.91931">
        <ele>187.6</ele>
        <time>2024-09-18T13:55:03Z</time>
      </trkpt>
      <trkpt lat="46.5525" lon="4.91933">
        <ele>187.6</ele>
        <time>2024-09-18T13:55:04Z</time>
      </trkpt>
      <trkpt lat="46.55246" lon="4.91934">
        <ele>187.6</ele>
        <time>2024-09-18T13:55:05Z</time>
      </trkpt>
      <trkpt lat="46.55242" lon="4.91936">
        <ele>187.6</ele>
        <time>2024-09-18T13:55:06Z</time>
      </trkpt>
      <trkpt lat="46.55237" lon="4.91938">
        <ele>187.6</ele>
        <time>2024-09-18T13:55:07Z</time>
      </trkpt>
      <trkpt lat="46.55233" lon="4.9194">
        <ele>188</ele>
        <time>2024-09-18T13:55:08Z</time>
      </trkpt>
      <trkpt lat="46.55229" lon="4.91943">
        <ele>188</ele>
        <time>2024-09-18T13:55:09Z</time>
      </trkpt>
      <trkpt lat="46.55225" lon="4.91945">
        <ele>188</ele>
        <time>2024-09-18T13:55:10Z</time>
      </trkpt>
      <trkpt lat="46.55221" lon="4.91947">
        <ele>188</ele>
        <time>2024-09-18T13:55:11Z</time>
      </trkpt>
      <trkpt lat="46.55217" lon="4.91949">
        <ele>187.6</ele>
        <time>2024-09-18T13:55:12Z</time>
      </trkpt>
      <trkpt lat="46.55213" lon="4.91951">
        <ele>188.2</ele>
        <time>2024-09-18T13:55:13Z</time>
      </trkpt>
      <trkpt lat="46.55209" lon="4.91953">
        <ele>188.2</ele>
        <time>2024-09-18T13:55:14Z</time>
      </trkpt>
      <trkpt lat="46.55205" lon="4.91955">
        <ele>188.2</ele>
        <time>2024-09-18T13:55:15Z</time>
      </trkpt>
      <trkpt lat="46.55201" lon="4.91956">
        <ele>188.2</ele>
        <time>2024-09-18T13:55:16Z</time>
      </trkpt>
      <trkpt lat="46.55197" lon="4.91958">
        <ele>188</ele>
        <time>2024-09-18T13:55:17Z</time>
      </trkpt>
      <trkpt lat="46.55193" lon="4.9196">
        <ele>188</ele>
        <time>2024-09-18T13:55:18Z</time>
      </trkpt>
      <trkpt lat="46.55189" lon="4.91962">
        <ele>188</ele>
        <time>2024-09-18T13:55:19Z</time>
      </trkpt>
      <trkpt lat="46.55185" lon="4.91963">
        <ele>188</ele>
        <time>2024-09-18T13:55:20Z</time>
      </trkpt>
      <trkpt lat="46.55181" lon="4.91965">
        <ele>188</ele>
        <time>2024-09-18T13:55:21Z</time>
      </trkpt>
      <trkpt lat="46.55177" lon="4.91967">
        <ele>188</ele>
        <time>2024-09-18T13:55:22Z</time>
      </trkpt>
      <trkpt lat="46.55173" lon="4.91969">
        <ele>188</ele>
        <time>2024-09-18T13:55:23Z</time>
      </trkpt>
      <trkpt lat="46.55169" lon="4.9197">
        <ele>188</ele>
        <time>2024-09-18T13:55:24Z</time>
      </trkpt>
      <trkpt lat="46.55165" lon="4.91972">
        <ele>187.8</ele>
        <time>2024-09-18T13:55:25Z</time>
      </trkpt>
      <trkpt lat="46.55161" lon="4.91975">
        <ele>187.2</ele>
        <time>2024-09-18T13:55:26Z</time>
      </trkpt>
      <trkpt lat="46.55155" lon="4.91978">
        <ele>187.2</ele>
        <time>2024-09-18T13:55:27Z</time>
      </trkpt>
      <trkpt lat="46.55153" lon="4.91978">
        <ele>187.2</ele>
        <time>2024-09-18T13:55:28Z</time>
      </trkpt>
      <trkpt lat="46.55149" lon="4.9198">
        <ele>188</ele>
        <time>2024-09-18T13:55:29Z</time>
      </trkpt>
      <trkpt lat="46.55145" lon="4.91982">
        <ele>188</ele>
        <time>2024-09-18T13:55:30Z</time>
      </trkpt>
      <trkpt lat="46.5514" lon="4.91984">
        <ele>187.6</ele>
        <time>2024-09-18T13:55:31Z</time>
      </trkpt>
      <trkpt lat="46.55136" lon="4.91986">
        <ele>187.6</ele>
        <time>2024-09-18T13:55:32Z</time>
      </trkpt>
      <trkpt lat="46.5513" lon="4.91989">
        <ele>187.6</ele>
        <time>2024-09-18T13:55:33Z</time>
      </trkpt>
      <trkpt lat="46.55128" lon="4.9199">
        <ele>187.8</ele>
        <time>2024-09-18T13:55:34Z</time>
      </trkpt>
      <trkpt lat="46.55124" lon="4.91991">
        <ele>188.4</ele>
        <time>2024-09-18T13:55:35Z</time>
      </trkpt>
      <trkpt lat="46.5512" lon="4.91992">
        <ele>188.4</ele>
        <time>2024-09-18T13:55:36Z</time>
      </trkpt>
      <trkpt lat="46.55117" lon="4.91994">
        <ele>188.4</ele>
        <time>2024-09-18T13:55:37Z</time>
      </trkpt>
      <trkpt lat="46.55113" lon="4.91996">
        <ele>188.4</ele>
        <time>2024-09-18T13:55:38Z</time>
      </trkpt>
      <trkpt lat="46.55109" lon="4.91997">
        <ele>188.4</ele>
        <time>2024-09-18T13:55:39Z</time>
      </trkpt>
      <trkpt lat="46.55105" lon="4.91999">
        <ele>188.4</ele>
        <time>2024-09-18T13:55:40Z</time>
      </trkpt>
      <trkpt lat="46.55101" lon="4.92">
        <ele>188.4</ele>
        <time>2024-09-18T13:55:41Z</time>
      </trkpt>
      <trkpt lat="46.55097" lon="4.92001">
        <ele>188.4</ele>
        <time>2024-09-18T13:55:42Z</time>
      </trkpt>
      <trkpt lat="46.55093" lon="4.92002">
        <ele>188.4</ele>
        <time>2024-09-18T13:55:43Z</time>
      </trkpt>
      <trkpt lat="46.55089" lon="4.92003">
        <ele>188.6</ele>
        <time>2024-09-18T13:55:44Z</time>
      </trkpt>
      <trkpt lat="46.55085" lon="4.92004">
        <ele>188.6</ele>
        <time>2024-09-18T13:55:45Z</time>
      </trkpt>
      <trkpt lat="46.55081" lon="4.92005">
        <ele>188.6</ele>
        <time>2024-09-18T13:55:46Z</time>
      </trkpt>
      <trkpt lat="46.55077" lon="4.92006">
        <ele>188.6</ele>
        <time>2024-09-18T13:55:47Z</time>
      </trkpt>
      <trkpt lat="46.55074" lon="4.92007">
        <ele>189.2</ele>
        <time>2024-09-18T13:55:48Z</time>
      </trkpt>
      <trkpt lat="46.5507" lon="4.92008">
        <ele>189.4</ele>
        <time>2024-09-18T13:55:49Z</time>
      </trkpt>
      <trkpt lat="46.55067" lon="4.92009">
        <ele>189.4</ele>
        <time>2024-09-18T13:55:50Z</time>
      </trkpt>
      <trkpt lat="46.55063" lon="4.92011">
        <ele>189.4</ele>
        <time>2024-09-18T13:55:51Z</time>
      </trkpt>
      <trkpt lat="46.55059" lon="4.92013">
        <ele>189.4</ele>
        <time>2024-09-18T13:55:52Z</time>
      </trkpt>
      <trkpt lat="46.55056" lon="4.92015">
        <ele>189.4</ele>
        <time>2024-09-18T13:55:53Z</time>
      </trkpt>
      <trkpt lat="46.55051" lon="4.92017">
        <ele>188.8</ele>
        <time>2024-09-18T13:55:54Z</time>
      </trkpt>
      <trkpt lat="46.55047" lon="4.92018">
        <ele>188.8</ele>
        <time>2024-09-18T13:55:55Z</time>
      </trkpt>
      <trkpt lat="46.55043" lon="4.9202">
        <ele>188.8</ele>
        <time>2024-09-18T13:55:56Z</time>
      </trkpt>
      <trkpt lat="46.55038" lon="4.92021">
        <ele>188.8</ele>
        <time>2024-09-18T13:55:57Z</time>
      </trkpt>
      <trkpt lat="46.55034" lon="4.92023">
        <ele>188.6</ele>
        <time>2024-09-18T13:55:58Z</time>
      </trkpt>
      <trkpt lat="46.5503" lon="4.92025">
        <ele>188.6</ele>
        <time>2024-09-18T13:55:59Z</time>
      </trkpt>
      <trkpt lat="46.55025" lon="4.92026">
        <ele>188.6</ele>
        <time>2024-09-18T13:56:00Z</time>
      </trkpt>
      <trkpt lat="46.55021" lon="4.92028">
        <ele>188.6</ele>
        <time>2024-09-18T13:56:01Z</time>
      </trkpt>
      <trkpt lat="46.55017" lon="4.9203">
        <ele>188.2</ele>
        <time>2024-09-18T13:56:02Z</time>
      </trkpt>
      <trkpt lat="46.55012" lon="4.92031">
        <ele>188.2</ele>
        <time>2024-09-18T13:56:03Z</time>
      </trkpt>
      <trkpt lat="46.55008" lon="4.92033">
        <ele>188.2</ele>
        <time>2024-09-18T13:56:04Z</time>
      </trkpt>
      <trkpt lat="46.55004" lon="4.92035">
        <ele>188.2</ele>
        <time>2024-09-18T13:56:05Z</time>
      </trkpt>
      <trkpt lat="46.54999" lon="4.92037">
        <ele>188.2</ele>
        <time>2024-09-18T13:56:06Z</time>
      </trkpt>
      <trkpt lat="46.54995" lon="4.92039">
        <ele>188.4</ele>
        <time>2024-09-18T13:56:07Z</time>
      </trkpt>
      <trkpt lat="46.54991" lon="4.9204">
        <ele>188.4</ele>
        <time>2024-09-18T13:56:08Z</time>
      </trkpt>
      <trkpt lat="46.54987" lon="4.92042">
        <ele>188.4</ele>
        <time>2024-09-18T13:56:09Z</time>
      </trkpt>
      <trkpt lat="46.54982" lon="4.92043">
        <ele>188.4</ele>
        <time>2024-09-18T13:56:10Z</time>
      </trkpt>
      <trkpt lat="46.54978" lon="4.92045">
        <ele>188.6</ele>
        <time>2024-09-18T13:56:11Z</time>
      </trkpt>
      <trkpt lat="46.54974" lon="4.92046">
        <ele>188.6</ele>
        <time>2024-09-18T13:56:12Z</time>
      </trkpt>
      <trkpt lat="46.5497" lon="4.92048">
        <ele>188.6</ele>
        <time>2024-09-18T13:56:13Z</time>
      </trkpt>
      <trkpt lat="46.54965" lon="4.92049">
        <ele>188.6</ele>
        <time>2024-09-18T13:56:14Z</time>
      </trkpt>
      <trkpt lat="46.54961" lon="4.92051">
        <ele>188.4</ele>
        <time>2024-09-18T13:56:15Z</time>
      </trkpt>
      <trkpt lat="46.54957" lon="4.92053">
        <ele>188.2</ele>
        <time>2024-09-18T13:56:16Z</time>
      </trkpt>
      <trkpt lat="46.54953" lon="4.92054">
        <ele>188.2</ele>
        <time>2024-09-18T13:56:17Z</time>
      </trkpt>
      <trkpt lat="46.54948" lon="4.92056">
        <ele>188.2</ele>
        <time>2024-09-18T13:56:18Z</time>
      </trkpt>
      <trkpt lat="46.54944" lon="4.92059">
        <ele>188.2</ele>
        <time>2024-09-18T13:56:19Z</time>
      </trkpt>
      <trkpt lat="46.5494" lon="4.9206">
        <ele>188.2</ele>
        <time>2024-09-18T13:56:20Z</time>
      </trkpt>
      <trkpt lat="46.54936" lon="4.92062">
        <ele>188.2</ele>
        <time>2024-09-18T13:56:21Z</time>
      </trkpt>
      <trkpt lat="46.54932" lon="4.92065">
        <ele>188.2</ele>
        <time>2024-09-18T13:56:22Z</time>
      </trkpt>
      <trkpt lat="46.54927" lon="4.92067">
        <ele>188.2</ele>
        <time>2024-09-18T13:56:23Z</time>
      </trkpt>
      <trkpt lat="46.54922" lon="4.9207">
        <ele>188.2</ele>
        <time>2024-09-18T13:56:24Z</time>
      </trkpt>
      <trkpt lat="46.54918" lon="4.92072">
        <ele>188.2</ele>
        <time>2024-09-18T13:56:25Z</time>
      </trkpt>
      <trkpt lat="46.54913" lon="4.92074">
        <ele>188.2</ele>
        <time>2024-09-18T13:56:26Z</time>
      </trkpt>
      <trkpt lat="46.54909" lon="4.92077">
        <ele>188.2</ele>
        <time>2024-09-18T13:56:27Z</time>
      </trkpt>
      <trkpt lat="46.54904" lon="4.92079">
        <ele>188.2</ele>
        <time>2024-09-18T13:56:28Z</time>
      </trkpt>
      <trkpt lat="46.54899" lon="4.92082">
        <ele>188</ele>
        <time>2024-09-18T13:56:29Z</time>
      </trkpt>
      <trkpt lat="46.54895" lon="4.92084">
        <ele>188</ele>
        <time>2024-09-18T13:56:30Z</time>
      </trkpt>
      <trkpt lat="46.5489" lon="4.92087">
        <ele>188</ele>
        <time>2024-09-18T13:56:31Z</time>
      </trkpt>
      <trkpt lat="46.54885" lon="4.9209">
        <ele>188</ele>
        <time>2024-09-18T13:56:32Z</time>
      </trkpt>
      <trkpt lat="46.5488" lon="4.92092">
        <ele>188</ele>
        <time>2024-09-18T13:56:33Z</time>
      </trkpt>
      <trkpt lat="46.54875" lon="4.92095">
        <ele>188</ele>
        <time>2024-09-18T13:56:34Z</time>
      </trkpt>
      <trkpt lat="46.54871" lon="4.92099">
        <ele>188</ele>
        <time>2024-09-18T13:56:35Z</time>
      </trkpt>
      <trkpt lat="46.54866" lon="4.92102">
        <ele>188</ele>
        <time>2024-09-18T13:56:36Z</time>
      </trkpt>
      <trkpt lat="46.54861" lon="4.92105">
        <ele>187.6</ele>
        <time>2024-09-18T13:56:37Z</time>
      </trkpt>
      <trkpt lat="46.54856" lon="4.92108">
        <ele>187.6</ele>
        <time>2024-09-18T13:56:38Z</time>
      </trkpt>
      <trkpt lat="46.54852" lon="4.92111">
        <ele>187.6</ele>
        <time>2024-09-18T13:56:39Z</time>
      </trkpt>
      <trkpt lat="46.54847" lon="4.92115">
        <ele>187.6</ele>
        <time>2024-09-18T13:56:40Z</time>
      </trkpt>
      <trkpt lat="46.54843" lon="4.92118">
        <ele>187.6</ele>
        <time>2024-09-18T13:56:41Z</time>
      </trkpt>
      <trkpt lat="46.54838" lon="4.92122">
        <ele>187.6</ele>
        <time>2024-09-18T13:56:42Z</time>
      </trkpt>
      <trkpt lat="46.54834" lon="4.92126">
        <ele>187.4</ele>
        <time>2024-09-18T13:56:43Z</time>
      </trkpt>
      <trkpt lat="46.5483" lon="4.9213">
        <ele>187.4</ele>
        <time>2024-09-18T13:56:44Z</time>
      </trkpt>
      <trkpt lat="46.54826" lon="4.92134">
        <ele>187.4</ele>
        <time>2024-09-18T13:56:45Z</time>
      </trkpt>
      <trkpt lat="46.54822" lon="4.92138">
        <ele>187.6</ele>
        <time>2024-09-18T13:56:46Z</time>
      </trkpt>
      <trkpt lat="46.54818" lon="4.92142">
        <ele>187.2</ele>
        <time>2024-09-18T13:56:47Z</time>
      </trkpt>
      <trkpt lat="46.54814" lon="4.92147">
        <ele>187.2</ele>
        <time>2024-09-18T13:56:48Z</time>
      </trkpt>
      <trkpt lat="46.54811" lon="4.92151">
        <ele>187.2</ele>
        <time>2024-09-18T13:56:49Z</time>
      </trkpt>
      <trkpt lat="46.54807" lon="4.92155">
        <ele>187.2</ele>
        <time>2024-09-18T13:56:50Z</time>
      </trkpt>
      <trkpt lat="46.54803" lon="4.9216">
        <ele>187.6</ele>
        <time>2024-09-18T13:56:51Z</time>
      </trkpt>
      <trkpt lat="46.54799" lon="4.92164">
        <ele>187.6</ele>
        <time>2024-09-18T13:56:52Z</time>
      </trkpt>
      <trkpt lat="46.54796" lon="4.92168">
        <ele>187.6</ele>
        <time>2024-09-18T13:56:53Z</time>
      </trkpt>
      <trkpt lat="46.54792" lon="4.92172">
        <ele>187.6</ele>
        <time>2024-09-18T13:56:54Z</time>
      </trkpt>
      <trkpt lat="46.54789" lon="4.92176">
        <ele>187.6</ele>
        <time>2024-09-18T13:56:55Z</time>
      </trkpt>
      <trkpt lat="46.54785" lon="4.9218">
        <ele>187.6</ele>
        <time>2024-09-18T13:56:56Z</time>
      </trkpt>
      <trkpt lat="46.54781" lon="4.92184">
        <ele>187.6</ele>
        <time>2024-09-18T13:56:57Z</time>
      </trkpt>
      <trkpt lat="46.54778" lon="4.92187">
        <ele>187.6</ele>
        <time>2024-09-18T13:56:58Z</time>
      </trkpt>
      <trkpt lat="46.54772" lon="4.92192">
        <ele>187.6</ele>
        <time>2024-09-18T13:56:59Z</time>
      </trkpt>
      <trkpt lat="46.5477" lon="4.92193">
        <ele>187.8</ele>
        <time>2024-09-18T13:57:00Z</time>
      </trkpt>
      <trkpt lat="46.54766" lon="4.92196">
        <ele>187.8</ele>
        <time>2024-09-18T13:57:01Z</time>
      </trkpt>
      <trkpt lat="46.54762" lon="4.922">
        <ele>187.8</ele>
        <time>2024-09-18T13:57:02Z</time>
      </trkpt>
      <trkpt lat="46.54758" lon="4.92203">
        <ele>187.8</ele>
        <time>2024-09-18T13:57:03Z</time>
      </trkpt>
      <trkpt lat="46.54755" lon="4.92207">
        <ele>187.8</ele>
        <time>2024-09-18T13:57:04Z</time>
      </trkpt>
      <trkpt lat="46.54751" lon="4.9221">
        <ele>187.8</ele>
        <time>2024-09-18T13:57:05Z</time>
      </trkpt>
      <trkpt lat="46.54747" lon="4.92214">
        <ele>187.8</ele>
        <time>2024-09-18T13:57:06Z</time>
      </trkpt>
      <trkpt lat="46.54743" lon="4.92217">
        <ele>187.8</ele>
        <time>2024-09-18T13:57:07Z</time>
      </trkpt>
      <trkpt lat="46.54739" lon="4.92221">
        <ele>187.8</ele>
        <time>2024-09-18T13:57:08Z</time>
      </trkpt>
      <trkpt lat="46.54735" lon="4.92225">
        <ele>187.8</ele>
        <time>2024-09-18T13:57:09Z</time>
      </trkpt>
      <trkpt lat="46.54731" lon="4.92228">
        <ele>187.8</ele>
        <time>2024-09-18T13:57:10Z</time>
      </trkpt>
      <trkpt lat="46.54727" lon="4.92232">
        <ele>187.8</ele>
        <time>2024-09-18T13:57:11Z</time>
      </trkpt>
      <trkpt lat="46.54723" lon="4.92235">
        <ele>187.8</ele>
        <time>2024-09-18T13:57:12Z</time>
      </trkpt>
      <trkpt lat="46.54717" lon="4.9224">
        <ele>187.8</ele>
        <time>2024-09-18T13:57:13Z</time>
      </trkpt>
      <trkpt lat="46.54715" lon="4.92242">
        <ele>187.8</ele>
        <time>2024-09-18T13:57:14Z</time>
      </trkpt>
      <trkpt lat="46.5471" lon="4.92245">
        <ele>187.8</ele>
        <time>2024-09-18T13:57:15Z</time>
      </trkpt>
      <trkpt lat="46.54706" lon="4.92248">
        <ele>187.8</ele>
        <time>2024-09-18T13:57:16Z</time>
      </trkpt>
      <trkpt lat="46.54702" lon="4.92251">
        <ele>187.8</ele>
        <time>2024-09-18T13:57:17Z</time>
      </trkpt>
      <trkpt lat="46.54697" lon="4.92254">
        <ele>187.8</ele>
        <time>2024-09-18T13:57:18Z</time>
      </trkpt>
      <trkpt lat="46.54693" lon="4.92257">
        <ele>187.6</ele>
        <time>2024-09-18T13:57:19Z</time>
      </trkpt>
      <trkpt lat="46.54688" lon="4.9226">
        <ele>187.6</ele>
        <time>2024-09-18T13:57:20Z</time>
      </trkpt>
      <trkpt lat="46.54684" lon="4.92263">
        <ele>187.6</ele>
        <time>2024-09-18T13:57:21Z</time>
      </trkpt>
      <trkpt lat="46.5468" lon="4.92266">
        <ele>187.6</ele>
        <time>2024-09-18T13:57:22Z</time>
      </trkpt>
      <trkpt lat="46.54675" lon="4.92269">
        <ele>187.6</ele>
        <time>2024-09-18T13:57:23Z</time>
      </trkpt>
      <trkpt lat="46.54671" lon="4.92271">
        <ele>187.6</ele>
        <time>2024-09-18T13:57:24Z</time>
      </trkpt>
      <trkpt lat="46.54667" lon="4.92274">
        <ele>187.6</ele>
        <time>2024-09-18T13:57:25Z</time>
      </trkpt>
      <trkpt lat="46.54663" lon="4.92277">
        <ele>187.6</ele>
        <time>2024-09-18T13:57:26Z</time>
      </trkpt>
      <trkpt lat="46.54659" lon="4.9228">
        <ele>187.8</ele>
        <time>2024-09-18T13:57:27Z</time>
      </trkpt>
      <trkpt lat="46.54654" lon="4.92283">
        <ele>187.8</ele>
        <time>2024-09-18T13:57:28Z</time>
      </trkpt>
      <trkpt lat="46.5465" lon="4.92285">
        <ele>187.8</ele>
        <time>2024-09-18T13:57:29Z</time>
      </trkpt>
      <trkpt lat="46.54646" lon="4.92288">
        <ele>187.8</ele>
        <time>2024-09-18T13:57:30Z</time>
      </trkpt>
      <trkpt lat="46.54642" lon="4.92291">
        <ele>187.8</ele>
        <time>2024-09-18T13:57:31Z</time>
      </trkpt>
      <trkpt lat="46.54638" lon="4.92293">
        <ele>187.8</ele>
        <time>2024-09-18T13:57:32Z</time>
      </trkpt>
      <trkpt lat="46.54634" lon="4.92296">
        <ele>187.8</ele>
        <time>2024-09-18T13:57:33Z</time>
      </trkpt>
      <trkpt lat="46.5463" lon="4.92298">
        <ele>187.8</ele>
        <time>2024-09-18T13:57:34Z</time>
      </trkpt>
      <trkpt lat="46.54625" lon="4.92301">
        <ele>187.8</ele>
        <time>2024-09-18T13:57:35Z</time>
      </trkpt>
      <trkpt lat="46.54621" lon="4.92303">
        <ele>187.6</ele>
        <time>2024-09-18T13:57:36Z</time>
      </trkpt>
      <trkpt lat="46.54614" lon="4.92307">
        <ele>187.6</ele>
        <time>2024-09-18T13:57:37Z</time>
      </trkpt>
      <trkpt lat="46.54612" lon="4.92308">
        <ele>187.6</ele>
        <time>2024-09-18T13:57:38Z</time>
      </trkpt>
      <trkpt lat="46.54608" lon="4.92311">
        <ele>187.6</ele>
        <time>2024-09-18T13:57:39Z</time>
      </trkpt>
      <trkpt lat="46.54603" lon="4.92313">
        <ele>187.6</ele>
        <time>2024-09-18T13:57:40Z</time>
      </trkpt>
      <trkpt lat="46.54599" lon="4.92316">
        <ele>188</ele>
        <time>2024-09-18T13:57:41Z</time>
      </trkpt>
      <trkpt lat="46.54594" lon="4.92318">
        <ele>188</ele>
        <time>2024-09-18T13:57:42Z</time>
      </trkpt>
      <trkpt lat="46.5459" lon="4.92321">
        <ele>188</ele>
        <time>2024-09-18T13:57:43Z</time>
      </trkpt>
      <trkpt lat="46.54586" lon="4.92323">
        <ele>187.6</ele>
        <time>2024-09-18T13:57:44Z</time>
      </trkpt>
      <trkpt lat="46.54581" lon="4.92326">
        <ele>187.8</ele>
        <time>2024-09-18T13:57:45Z</time>
      </trkpt>
      <trkpt lat="46.54577" lon="4.92329">
        <ele>187.8</ele>
        <time>2024-09-18T13:57:46Z</time>
      </trkpt>
      <trkpt lat="46.54573" lon="4.92332">
        <ele>187.8</ele>
        <time>2024-09-18T13:57:47Z</time>
      </trkpt>
      <trkpt lat="46.54569" lon="4.92334">
        <ele>187.2</ele>
        <time>2024-09-18T13:57:48Z</time>
      </trkpt>
      <trkpt lat="46.54565" lon="4.92337">
        <ele>188</ele>
        <time>2024-09-18T13:57:49Z</time>
      </trkpt>
      <trkpt lat="46.54561" lon="4.9234">
        <ele>188</ele>
        <time>2024-09-18T13:57:50Z</time>
      </trkpt>
      <trkpt lat="46.54557" lon="4.92343">
        <ele>188</ele>
        <time>2024-09-18T13:57:51Z</time>
      </trkpt>
      <trkpt lat="46.54553" lon="4.92347">
        <ele>188</ele>
        <time>2024-09-18T13:57:52Z</time>
      </trkpt>
      <trkpt lat="46.54548" lon="4.9235">
        <ele>187</ele>
        <time>2024-09-18T13:57:53Z</time>
      </trkpt>
      <trkpt lat="46.54544" lon="4.92353">
        <ele>187.8</ele>
        <time>2024-09-18T13:57:54Z</time>
      </trkpt>
      <trkpt lat="46.5454" lon="4.92356">
        <ele>187.8</ele>
        <time>2024-09-18T13:57:55Z</time>
      </trkpt>
      <trkpt lat="46.54534" lon="4.9236">
        <ele>187.8</ele>
        <time>2024-09-18T13:57:56Z</time>
      </trkpt>
      <trkpt lat="46.54532" lon="4.92362">
        <ele>187.8</ele>
        <time>2024-09-18T13:57:57Z</time>
      </trkpt>
      <trkpt lat="46.54528" lon="4.92365">
        <ele>187.8</ele>
        <time>2024-09-18T13:57:58Z</time>
      </trkpt>
      <trkpt lat="46.54524" lon="4.92368">
        <ele>187.8</ele>
        <time>2024-09-18T13:57:59Z</time>
      </trkpt>
      <trkpt lat="46.5452" lon="4.92371">
        <ele>187.8</ele>
        <time>2024-09-18T13:58:00Z</time>
      </trkpt>
      <trkpt lat="46.54516" lon="4.92374">
        <ele>187.8</ele>
        <time>2024-09-18T13:58:01Z</time>
      </trkpt>
      <trkpt lat="46.54512" lon="4.92378">
        <ele>187.8</ele>
        <time>2024-09-18T13:58:02Z</time>
      </trkpt>
      <trkpt lat="46.54508" lon="4.92381">
        <ele>187.6</ele>
        <time>2024-09-18T13:58:03Z</time>
      </trkpt>
      <trkpt lat="46.54504" lon="4.92384">
        <ele>187.6</ele>
        <time>2024-09-18T13:58:04Z</time>
      </trkpt>
      <trkpt lat="46.545" lon="4.92387">
        <ele>187.6</ele>
        <time>2024-09-18T13:58:05Z</time>
      </trkpt>
      <trkpt lat="46.54496" lon="4.92391">
        <ele>187.6</ele>
        <time>2024-09-18T13:58:06Z</time>
      </trkpt>
      <trkpt lat="46.54492" lon="4.92394">
        <ele>187.6</ele>
        <time>2024-09-18T13:58:07Z</time>
      </trkpt>
      <trkpt lat="46.54487" lon="4.92397">
        <ele>187.4</ele>
        <time>2024-09-18T13:58:08Z</time>
      </trkpt>
      <trkpt lat="46.54483" lon="4.92401">
        <ele>187.4</ele>
        <time>2024-09-18T13:58:09Z</time>
      </trkpt>
      <trkpt lat="46.54479" lon="4.92405">
        <ele>187.4</ele>
        <time>2024-09-18T13:58:10Z</time>
      </trkpt>
      <trkpt lat="46.54476" lon="4.92409">
        <ele>187.4</ele>
        <time>2024-09-18T13:58:11Z</time>
      </trkpt>
      <trkpt lat="46.54472" lon="4.92412">
        <ele>187.8</ele>
        <time>2024-09-18T13:58:12Z</time>
      </trkpt>
      <trkpt lat="46.54468" lon="4.92415">
        <ele>187.8</ele>
        <time>2024-09-18T13:58:13Z</time>
      </trkpt>
      <trkpt lat="46.54465" lon="4.92418">
        <ele>187.8</ele>
        <time>2024-09-18T13:58:14Z</time>
      </trkpt>
      <trkpt lat="46.54461" lon="4.92421">
        <ele>187.8</ele>
        <time>2024-09-18T13:58:15Z</time>
      </trkpt>
      <trkpt lat="46.54458" lon="4.92424">
        <ele>187.8</ele>
        <time>2024-09-18T13:58:16Z</time>
      </trkpt>
      <trkpt lat="46.54455" lon="4.92427">
        <ele>187.4</ele>
        <time>2024-09-18T13:58:17Z</time>
      </trkpt>
      <trkpt lat="46.54451" lon="4.92429">
        <ele>187.4</ele>
        <time>2024-09-18T13:58:18Z</time>
      </trkpt>
      <trkpt lat="46.54448" lon="4.92432">
        <ele>187.4</ele>
        <time>2024-09-18T13:58:19Z</time>
      </trkpt>
      <trkpt lat="46.54445" lon="4.92434">
        <ele>187.8</ele>
        <time>2024-09-18T13:58:20Z</time>
      </trkpt>
      <trkpt lat="46.54441" lon="4.92437">
        <ele>187.8</ele>
        <time>2024-09-18T13:58:21Z</time>
      </trkpt>
      <trkpt lat="46.54437" lon="4.92439">
        <ele>187.8</ele>
        <time>2024-09-18T13:58:22Z</time>
      </trkpt>
      <trkpt lat="46.54434" lon="4.92441">
        <ele>187.8</ele>
        <time>2024-09-18T13:58:23Z</time>
      </trkpt>
      <trkpt lat="46.54428" lon="4.92444">
        <ele>187.8</ele>
        <time>2024-09-18T13:58:24Z</time>
      </trkpt>
      <trkpt lat="46.54426" lon="4.92445">
        <ele>188.6</ele>
        <time>2024-09-18T13:58:25Z</time>
      </trkpt>
      <trkpt lat="46.54423" lon="4.92448">
        <ele>188.4</ele>
        <time>2024-09-18T13:58:26Z</time>
      </trkpt>
      <trkpt lat="46.54419" lon="4.92449">
        <ele>188.4</ele>
        <time>2024-09-18T13:58:27Z</time>
      </trkpt>
      <trkpt lat="46.54415" lon="4.92451">
        <ele>188.4</ele>
        <time>2024-09-18T13:58:28Z</time>
      </trkpt>
      <trkpt lat="46.54412" lon="4.92453">
        <ele>188.4</ele>
        <time>2024-09-18T13:58:29Z</time>
      </trkpt>
      <trkpt lat="46.54408" lon="4.92455">
        <ele>189</ele>
        <time>2024-09-18T13:58:30Z</time>
      </trkpt>
      <trkpt lat="46.54404" lon="4.92457">
        <ele>189</ele>
        <time>2024-09-18T13:58:31Z</time>
      </trkpt>
      <trkpt lat="46.54401" lon="4.92458">
        <ele>189</ele>
        <time>2024-09-18T13:58:32Z</time>
      </trkpt>
      <trkpt lat="46.54397" lon="4.9246">
        <ele>189</ele>
        <time>2024-09-18T13:58:33Z</time>
      </trkpt>
      <trkpt lat="46.54393" lon="4.92461">
        <ele>189</ele>
        <time>2024-09-18T13:58:34Z</time>
      </trkpt>
      <trkpt lat="46.54389" lon="4.92463">
        <ele>188.4</ele>
        <time>2024-09-18T13:58:35Z</time>
      </trkpt>
      <trkpt lat="46.54385" lon="4.92464">
        <ele>188.4</ele>
        <time>2024-09-18T13:58:36Z</time>
      </trkpt>
      <trkpt lat="46.54381" lon="4.92465">
        <ele>188.4</ele>
        <time>2024-09-18T13:58:37Z</time>
      </trkpt>
      <trkpt lat="46.54378" lon="4.92465">
        <ele>188.4</ele>
        <time>2024-09-18T13:58:38Z</time>
      </trkpt>
      <trkpt lat="46.54372" lon="4.92465">
        <ele>188.4</ele>
        <time>2024-09-18T13:58:39Z</time>
      </trkpt>
      <trkpt lat="46.5437" lon="4.92465">
        <ele>189.2</ele>
        <time>2024-09-18T13:58:40Z</time>
      </trkpt>
      <trkpt lat="46.54365" lon="4.92467">
        <ele>189.2</ele>
        <time>2024-09-18T13:58:41Z</time>
      </trkpt>
      <trkpt lat="46.54362" lon="4.92469">
        <ele>189.2</ele>
        <time>2024-09-18T13:58:42Z</time>
      </trkpt>
      <trkpt lat="46.54358" lon="4.92471">
        <ele>188.8</ele>
        <time>2024-09-18T13:58:43Z</time>
      </trkpt>
      <trkpt lat="46.54354" lon="4.92473">
        <ele>188.4</ele>
        <time>2024-09-18T13:58:44Z</time>
      </trkpt>
      <trkpt lat="46.5435" lon="4.92475">
        <ele>188.4</ele>
        <time>2024-09-18T13:58:45Z</time>
      </trkpt>
      <trkpt lat="46.54346" lon="4.92477">
        <ele>188.4</ele>
        <time>2024-09-18T13:58:46Z</time>
      </trkpt>
      <trkpt lat="46.54342" lon="4.92479">
        <ele>188.4</ele>
        <time>2024-09-18T13:58:47Z</time>
      </trkpt>
      <trkpt lat="46.54339" lon="4.92481">
        <ele>188.4</ele>
        <time>2024-09-18T13:58:48Z</time>
      </trkpt>
      <trkpt lat="46.54335" lon="4.92483">
        <ele>189.2</ele>
        <time>2024-09-18T13:58:49Z</time>
      </trkpt>
      <trkpt lat="46.54332" lon="4.92486">
        <ele>189.2</ele>
        <time>2024-09-18T13:58:50Z</time>
      </trkpt>
      <trkpt lat="46.54329" lon="4.92487">
        <ele>189.2</ele>
        <time>2024-09-18T13:58:51Z</time>
      </trkpt>
      <trkpt lat="46.54325" lon="4.92489">
        <ele>188.6</ele>
        <time>2024-09-18T13:58:52Z</time>
      </trkpt>
      <trkpt lat="46.54321" lon="4.92492">
        <ele>189</ele>
        <time>2024-09-18T13:58:53Z</time>
      </trkpt>
      <trkpt lat="46.54318" lon="4.92495">
        <ele>189</ele>
        <time>2024-09-18T13:58:54Z</time>
      </trkpt>
      <trkpt lat="46.54315" lon="4.92497">
        <ele>189</ele>
        <time>2024-09-18T13:58:55Z</time>
      </trkpt>
      <trkpt lat="46.54311" lon="4.92499">
        <ele>189.2</ele>
        <time>2024-09-18T13:58:56Z</time>
      </trkpt>
      <trkpt lat="46.54307" lon="4.92501">
        <ele>189</ele>
        <time>2024-09-18T13:58:57Z</time>
      </trkpt>
      <trkpt lat="46.54304" lon="4.92503">
        <ele>189</ele>
        <time>2024-09-18T13:58:58Z</time>
      </trkpt>
      <trkpt lat="46.543" lon="4.92505">
        <ele>189</ele>
        <time>2024-09-18T13:58:59Z</time>
      </trkpt>
      <trkpt lat="46.54296" lon="4.92507">
        <ele>189</ele>
        <time>2024-09-18T13:59:00Z</time>
      </trkpt>
      <trkpt lat="46.54293" lon="4.92509">
        <ele>189</ele>
        <time>2024-09-18T13:59:01Z</time>
      </trkpt>
      <trkpt lat="46.54287" lon="4.92513">
        <ele>189</ele>
        <time>2024-09-18T13:59:02Z</time>
      </trkpt>
      <trkpt lat="46.54285" lon="4.92515">
        <ele>189</ele>
        <time>2024-09-18T13:59:03Z</time>
      </trkpt>
      <trkpt lat="46.54281" lon="4.92517">
        <ele>189</ele>
        <time>2024-09-18T13:59:04Z</time>
      </trkpt>
      <trkpt lat="46.54277" lon="4.9252">
        <ele>189</ele>
        <time>2024-09-18T13:59:05Z</time>
      </trkpt>
      <trkpt lat="46.54271" lon="4.92523">
        <ele>189</ele>
        <time>2024-09-18T13:59:06Z</time>
      </trkpt>
      <trkpt lat="46.54269" lon="4.92525">
        <ele>189</ele>
        <time>2024-09-18T13:59:07Z</time>
      </trkpt>
      <trkpt lat="46.54265" lon="4.92527">
        <ele>189</ele>
        <time>2024-09-18T13:59:08Z</time>
      </trkpt>
      <trkpt lat="46.54261" lon="4.92529">
        <ele>189</ele>
        <time>2024-09-18T13:59:09Z</time>
      </trkpt>
      <trkpt lat="46.54256" lon="4.92531">
        <ele>188.8</ele>
        <time>2024-09-18T13:59:10Z</time>
      </trkpt>
      <trkpt lat="46.54252" lon="4.92534">
        <ele>188.8</ele>
        <time>2024-09-18T13:59:11Z</time>
      </trkpt>
      <trkpt lat="46.54248" lon="4.92536">
        <ele>188.8</ele>
        <time>2024-09-18T13:59:12Z</time>
      </trkpt>
      <trkpt lat="46.54244" lon="4.92538">
        <ele>188.8</ele>
        <time>2024-09-18T13:59:13Z</time>
      </trkpt>
      <trkpt lat="46.5424" lon="4.9254">
        <ele>188.6</ele>
        <time>2024-09-18T13:59:14Z</time>
      </trkpt>
      <trkpt lat="46.54235" lon="4.92542">
        <ele>188.4</ele>
        <time>2024-09-18T13:59:15Z</time>
      </trkpt>
      <trkpt lat="46.54231" lon="4.92544">
        <ele>188.4</ele>
        <time>2024-09-18T13:59:16Z</time>
      </trkpt>
      <trkpt lat="46.54227" lon="4.92546">
        <ele>188.4</ele>
        <time>2024-09-18T13:59:17Z</time>
      </trkpt>
      <trkpt lat="46.54222" lon="4.92548">
        <ele>188.4</ele>
        <time>2024-09-18T13:59:18Z</time>
      </trkpt>
      <trkpt lat="46.54218" lon="4.9255">
        <ele>188.6</ele>
        <time>2024-09-18T13:59:19Z</time>
      </trkpt>
      <trkpt lat="46.54214" lon="4.92552">
        <ele>188.6</ele>
        <time>2024-09-18T13:59:20Z</time>
      </trkpt>
      <trkpt lat="46.5421" lon="4.92554">
        <ele>188.6</ele>
        <time>2024-09-18T13:59:21Z</time>
      </trkpt>
      <trkpt lat="46.54206" lon="4.92556">
        <ele>188.6</ele>
        <time>2024-09-18T13:59:22Z</time>
      </trkpt>
      <trkpt lat="46.54202" lon="4.92558">
        <ele>188.6</ele>
        <time>2024-09-18T13:59:23Z</time>
      </trkpt>
      <trkpt lat="46.54198" lon="4.9256">
        <ele>189.2</ele>
        <time>2024-09-18T13:59:24Z</time>
      </trkpt>
      <trkpt lat="46.54194" lon="4.92562">
        <ele>189.2</ele>
        <time>2024-09-18T13:59:25Z</time>
      </trkpt>
      <trkpt lat="46.5419" lon="4.92564">
        <ele>189.2</ele>
        <time>2024-09-18T13:59:26Z</time>
      </trkpt>
      <trkpt lat="46.54186" lon="4.92566">
        <ele>189.2</ele>
        <time>2024-09-18T13:59:27Z</time>
      </trkpt>
      <trkpt lat="46.54182" lon="4.92568">
        <ele>188.8</ele>
        <time>2024-09-18T13:59:28Z</time>
      </trkpt>
      <trkpt lat="46.54178" lon="4.9257">
        <ele>189</ele>
        <time>2024-09-18T13:59:29Z</time>
      </trkpt>
      <trkpt lat="46.54173" lon="4.92573">
        <ele>189</ele>
        <time>2024-09-18T13:59:30Z</time>
      </trkpt>
      <trkpt lat="46.54169" lon="4.92575">
        <ele>189</ele>
        <time>2024-09-18T13:59:31Z</time>
      </trkpt>
      <trkpt lat="46.54165" lon="4.92578">
        <ele>188.8</ele>
        <time>2024-09-18T13:59:32Z</time>
      </trkpt>
      <trkpt lat="46.54161" lon="4.9258">
        <ele>188.4</ele>
        <time>2024-09-18T13:59:33Z</time>
      </trkpt>
      <trkpt lat="46.54157" lon="4.92583">
        <ele>188.4</ele>
        <time>2024-09-18T13:59:34Z</time>
      </trkpt>
      <trkpt lat="46.54153" lon="4.92585">
        <ele>188.4</ele>
        <time>2024-09-18T13:59:35Z</time>
      </trkpt>
      <trkpt lat="46.54149" lon="4.92588">
        <ele>188.4</ele>
        <time>2024-09-18T13:59:36Z</time>
      </trkpt>
      <trkpt lat="46.54145" lon="4.9259">
        <ele>188.4</ele>
        <time>2024-09-18T13:59:37Z</time>
      </trkpt>
      <trkpt lat="46.5414" lon="4.92593">
        <ele>188.4</ele>
        <time>2024-09-18T13:59:38Z</time>
      </trkpt>
      <trkpt lat="46.54136" lon="4.92595">
        <ele>188.4</ele>
        <time>2024-09-18T13:59:39Z</time>
      </trkpt>
      <trkpt lat="46.54131" lon="4.92598">
        <ele>188.4</ele>
        <time>2024-09-18T13:59:40Z</time>
      </trkpt>
      <trkpt lat="46.54126" lon="4.926">
        <ele>188.6</ele>
        <time>2024-09-18T13:59:41Z</time>
      </trkpt>
      <trkpt lat="46.54122" lon="4.92602">
        <ele>188.6</ele>
        <time>2024-09-18T13:59:42Z</time>
      </trkpt>
      <trkpt lat="46.54117" lon="4.92604">
        <ele>188.6</ele>
        <time>2024-09-18T13:59:43Z</time>
      </trkpt>
      <trkpt lat="46.54113" lon="4.92606">
        <ele>188.6</ele>
        <time>2024-09-18T13:59:44Z</time>
      </trkpt>
      <trkpt lat="46.54108" lon="4.92608">
        <ele>188.6</ele>
        <time>2024-09-18T13:59:45Z</time>
      </trkpt>
      <trkpt lat="46.54103" lon="4.9261">
        <ele>188.6</ele>
        <time>2024-09-18T13:59:46Z</time>
      </trkpt>
      <trkpt lat="46.54099" lon="4.92612">
        <ele>188.6</ele>
        <time>2024-09-18T13:59:47Z</time>
      </trkpt>
      <trkpt lat="46.54094" lon="4.92614">
        <ele>188.6</ele>
        <time>2024-09-18T13:59:48Z</time>
      </trkpt>
      <trkpt lat="46.5409" lon="4.92617">
        <ele>188.6</ele>
        <time>2024-09-18T13:59:49Z</time>
      </trkpt>
      <trkpt lat="46.54086" lon="4.92619">
        <ele>188.6</ele>
        <time>2024-09-18T13:59:50Z</time>
      </trkpt>
      <trkpt lat="46.54081" lon="4.92621">
        <ele>188.4</ele>
        <time>2024-09-18T13:59:51Z</time>
      </trkpt>
      <trkpt lat="46.54077" lon="4.92624">
        <ele>188.4</ele>
        <time>2024-09-18T13:59:52Z</time>
      </trkpt>
      <trkpt lat="46.54073" lon="4.92626">
        <ele>188.4</ele>
        <time>2024-09-18T13:59:53Z</time>
      </trkpt>
      <trkpt lat="46.54068" lon="4.92628">
        <ele>188.4</ele>
        <time>2024-09-18T13:59:54Z</time>
      </trkpt>
      <trkpt lat="46.54064" lon="4.92629">
        <ele>188.4</ele>
        <time>2024-09-18T13:59:55Z</time>
      </trkpt>
      <trkpt lat="46.54059" lon="4.92631">
        <ele>188.4</ele>
        <time>2024-09-18T13:59:56Z</time>
      </trkpt>
      <trkpt lat="46.54055" lon="4.92633">
        <ele>188.4</ele>
        <time>2024-09-18T13:59:57Z</time>
      </trkpt>
      <trkpt lat="46.5405" lon="4.92634">
        <ele>188.4</ele>
        <time>2024-09-18T13:59:58Z</time>
      </trkpt>
      <trkpt lat="46.54045" lon="4.92636">
        <ele>188.4</ele>
        <time>2024-09-18T13:59:59Z</time>
      </trkpt>
      <trkpt lat="46.5404" lon="4.92637">
        <ele>188.2</ele>
        <time>2024-09-18T14:00:00Z</time>
      </trkpt>
      <trkpt lat="46.54036" lon="4.92639">
        <ele>188.2</ele>
        <time>2024-09-18T14:00:01Z</time>
      </trkpt>
      <trkpt lat="46.54031" lon="4.9264">
        <ele>188.2</ele>
        <time>2024-09-18T14:00:02Z</time>
      </trkpt>
      <trkpt lat="46.54027" lon="4.92641">
        <ele>188</ele>
        <time>2024-09-18T14:00:03Z</time>
      </trkpt>
      <trkpt lat="46.54022" lon="4.92643">
        <ele>188</ele>
        <time>2024-09-18T14:00:04Z</time>
      </trkpt>
      <trkpt lat="46.54018" lon="4.92644">
        <ele>188</ele>
        <time>2024-09-18T14:00:05Z</time>
      </trkpt>
      <trkpt lat="46.54014" lon="4.92645">
        <ele>188</ele>
        <time>2024-09-18T14:00:06Z</time>
      </trkpt>
      <trkpt lat="46.54009" lon="4.92647">
        <ele>188</ele>
        <time>2024-09-18T14:00:07Z</time>
      </trkpt>
      <trkpt lat="46.54005" lon="4.92649">
        <ele>187.8</ele>
        <time>2024-09-18T14:00:08Z</time>
      </trkpt>
      <trkpt lat="46.54" lon="4.92651">
        <ele>187.8</ele>
        <time>2024-09-18T14:00:09Z</time>
      </trkpt>
      <trkpt lat="46.53996" lon="4.92653">
        <ele>187.8</ele>
        <time>2024-09-18T14:00:10Z</time>
      </trkpt>
      <trkpt lat="46.53991" lon="4.92655">
        <ele>187.8</ele>
        <time>2024-09-18T14:00:11Z</time>
      </trkpt>
      <trkpt lat="46.53987" lon="4.92657">
        <ele>187.8</ele>
        <time>2024-09-18T14:00:12Z</time>
      </trkpt>
      <trkpt lat="46.53982" lon="4.92659">
        <ele>188</ele>
        <time>2024-09-18T14:00:13Z</time>
      </trkpt>
      <trkpt lat="46.53978" lon="4.92661">
        <ele>187.8</ele>
        <time>2024-09-18T14:00:14Z</time>
      </trkpt>
      <trkpt lat="46.53973" lon="4.92663">
        <ele>187.8</ele>
        <time>2024-09-18T14:00:15Z</time>
      </trkpt>
      <trkpt lat="46.53969" lon="4.92665">
        <ele>187.8</ele>
        <time>2024-09-18T14:00:16Z</time>
      </trkpt>
      <trkpt lat="46.53964" lon="4.92667">
        <ele>187.8</ele>
        <time>2024-09-18T14:00:17Z</time>
      </trkpt>
      <trkpt lat="46.53959" lon="4.92668">
        <ele>188.6</ele>
        <time>2024-09-18T14:00:18Z</time>
      </trkpt>
      <trkpt lat="46.53955" lon="4.9267">
        <ele>188.6</ele>
        <time>2024-09-18T14:00:19Z</time>
      </trkpt>
      <trkpt lat="46.5395" lon="4.92672">
        <ele>188.6</ele>
        <time>2024-09-18T14:00:20Z</time>
      </trkpt>
      <trkpt lat="46.53946" lon="4.92674">
        <ele>188.6</ele>
        <time>2024-09-18T14:00:21Z</time>
      </trkpt>
      <trkpt lat="46.53941" lon="4.92676">
        <ele>188.2</ele>
        <time>2024-09-18T14:00:22Z</time>
      </trkpt>
      <trkpt lat="46.53936" lon="4.92678">
        <ele>188.2</ele>
        <time>2024-09-18T14:00:23Z</time>
      </trkpt>
      <trkpt lat="46.53932" lon="4.9268">
        <ele>188.2</ele>
        <time>2024-09-18T14:00:24Z</time>
      </trkpt>
      <trkpt lat="46.53927" lon="4.92682">
        <ele>188.2</ele>
        <time>2024-09-18T14:00:25Z</time>
      </trkpt>
      <trkpt lat="46.53923" lon="4.92684">
        <ele>188</ele>
        <time>2024-09-18T14:00:26Z</time>
      </trkpt>
      <trkpt lat="46.53918" lon="4.92686">
        <ele>187.8</ele>
        <time>2024-09-18T14:00:27Z</time>
      </trkpt>
      <trkpt lat="46.53914" lon="4.92688">
        <ele>187.8</ele>
        <time>2024-09-18T14:00:28Z</time>
      </trkpt>
      <trkpt lat="46.5391" lon="4.9269">
        <ele>187.8</ele>
        <time>2024-09-18T14:00:29Z</time>
      </trkpt>
      <trkpt lat="46.53905" lon="4.92692">
        <ele>187.8</ele>
        <time>2024-09-18T14:00:30Z</time>
      </trkpt>
      <trkpt lat="46.53901" lon="4.92694">
        <ele>188</ele>
        <time>2024-09-18T14:00:31Z</time>
      </trkpt>
      <trkpt lat="46.53897" lon="4.92696">
        <ele>188</ele>
        <time>2024-09-18T14:00:32Z</time>
      </trkpt>
      <trkpt lat="46.53893" lon="4.92698">
        <ele>188</ele>
        <time>2024-09-18T14:00:33Z</time>
      </trkpt>
      <trkpt lat="46.53888" lon="4.927">
        <ele>187.6</ele>
        <time>2024-09-18T14:00:34Z</time>
      </trkpt>
      <trkpt lat="46.53884" lon="4.92702">
        <ele>187.4</ele>
        <time>2024-09-18T14:00:35Z</time>
      </trkpt>
      <trkpt lat="46.5388" lon="4.92705">
        <ele>187.4</ele>
        <time>2024-09-18T14:00:36Z</time>
      </trkpt>
      <trkpt lat="46.53875" lon="4.92707">
        <ele>187.4</ele>
        <time>2024-09-18T14:00:37Z</time>
      </trkpt>
      <trkpt lat="46.53871" lon="4.9271">
        <ele>187.4</ele>
        <time>2024-09-18T14:00:38Z</time>
      </trkpt>
      <trkpt lat="46.53867" lon="4.92712">
        <ele>187.8</ele>
        <time>2024-09-18T14:00:39Z</time>
      </trkpt>
      <trkpt lat="46.53862" lon="4.92715">
        <ele>187.6</ele>
        <time>2024-09-18T14:00:40Z</time>
      </trkpt>
      <trkpt lat="46.53858" lon="4.92717">
        <ele>187.6</ele>
        <time>2024-09-18T14:00:41Z</time>
      </trkpt>
      <trkpt lat="46.53854" lon="4.9272">
        <ele>187.6</ele>
        <time>2024-09-18T14:00:42Z</time>
      </trkpt>
      <trkpt lat="46.53849" lon="4.92723">
        <ele>187.6</ele>
        <time>2024-09-18T14:00:43Z</time>
      </trkpt>
      <trkpt lat="46.53845" lon="4.92725">
        <ele>187.6</ele>
        <time>2024-09-18T14:00:44Z</time>
      </trkpt>
      <trkpt lat="46.53841" lon="4.92728">
        <ele>188</ele>
        <time>2024-09-18T14:00:45Z</time>
      </trkpt>
      <trkpt lat="46.53837" lon="4.92731">
        <ele>188</ele>
        <time>2024-09-18T14:00:46Z</time>
      </trkpt>
      <trkpt lat="46.53832" lon="4.92734">
        <ele>188</ele>
        <time>2024-09-18T14:00:47Z</time>
      </trkpt>
      <trkpt lat="46.53828" lon="4.92736">
        <ele>188</ele>
        <time>2024-09-18T14:00:48Z</time>
      </trkpt>
      <trkpt lat="46.53823" lon="4.92738">
        <ele>188</ele>
        <time>2024-09-18T14:00:49Z</time>
      </trkpt>
      <trkpt lat="46.53819" lon="4.92741">
        <ele>188.2</ele>
        <time>2024-09-18T14:00:50Z</time>
      </trkpt>
      <trkpt lat="46.53814" lon="4.92744">
        <ele>188.2</ele>
        <time>2024-09-18T14:00:51Z</time>
      </trkpt>
      <trkpt lat="46.5381" lon="4.92746">
        <ele>188.2</ele>
        <time>2024-09-18T14:00:52Z</time>
      </trkpt>
      <trkpt lat="46.53806" lon="4.92749">
        <ele>188</ele>
        <time>2024-09-18T14:00:53Z</time>
      </trkpt>
      <trkpt lat="46.53802" lon="4.92751">
        <ele>187.8</ele>
        <time>2024-09-18T14:00:54Z</time>
      </trkpt>
      <trkpt lat="46.53798" lon="4.92754">
        <ele>187.8</ele>
        <time>2024-09-18T14:00:55Z</time>
      </trkpt>
      <trkpt lat="46.53794" lon="4.92756">
        <ele>187.8</ele>
        <time>2024-09-18T14:00:56Z</time>
      </trkpt>
      <trkpt lat="46.5379" lon="4.92758">
        <ele>188</ele>
        <time>2024-09-18T14:00:57Z</time>
      </trkpt>
      <trkpt lat="46.53786" lon="4.92761">
        <ele>187.6</ele>
        <time>2024-09-18T14:00:58Z</time>
      </trkpt>
      <trkpt lat="46.53782" lon="4.92763">
        <ele>187.6</ele>
        <time>2024-09-18T14:00:59Z</time>
      </trkpt>
      <trkpt lat="46.53778" lon="4.92766">
        <ele>187.6</ele>
        <time>2024-09-18T14:01:00Z</time>
      </trkpt>
      <trkpt lat="46.53774" lon="4.92768">
        <ele>187.6</ele>
        <time>2024-09-18T14:01:01Z</time>
      </trkpt>
      <trkpt lat="46.53769" lon="4.92771">
        <ele>188.2</ele>
        <time>2024-09-18T14:01:02Z</time>
      </trkpt>
      <trkpt lat="46.53765" lon="4.92773">
        <ele>187.8</ele>
        <time>2024-09-18T14:01:03Z</time>
      </trkpt>
      <trkpt lat="46.53761" lon="4.92776">
        <ele>187.8</ele>
        <time>2024-09-18T14:01:04Z</time>
      </trkpt>
      <trkpt lat="46.53756" lon="4.92778">
        <ele>187.8</ele>
        <time>2024-09-18T14:01:05Z</time>
      </trkpt>
      <trkpt lat="46.53752" lon="4.9278">
        <ele>188.2</ele>
        <time>2024-09-18T14:01:06Z</time>
      </trkpt>
      <trkpt lat="46.53747" lon="4.92783">
        <ele>188</ele>
        <time>2024-09-18T14:01:07Z</time>
      </trkpt>
      <trkpt lat="46.53742" lon="4.92785">
        <ele>188</ele>
        <time>2024-09-18T14:01:08Z</time>
      </trkpt>
      <trkpt lat="46.53738" lon="4.92788">
        <ele>188</ele>
        <time>2024-09-18T14:01:09Z</time>
      </trkpt>
      <trkpt lat="46.53734" lon="4.92791">
        <ele>188</ele>
        <time>2024-09-18T14:01:10Z</time>
      </trkpt>
      <trkpt lat="46.53729" lon="4.92793">
        <ele>188</ele>
        <time>2024-09-18T14:01:11Z</time>
      </trkpt>
      <trkpt lat="46.53725" lon="4.92795">
        <ele>188</ele>
        <time>2024-09-18T14:01:12Z</time>
      </trkpt>
      <trkpt lat="46.53721" lon="4.92797">
        <ele>188</ele>
        <time>2024-09-18T14:01:13Z</time>
      </trkpt>
      <trkpt lat="46.53716" lon="4.92799">
        <ele>188</ele>
        <time>2024-09-18T14:01:14Z</time>
      </trkpt>
      <trkpt lat="46.53712" lon="4.92802">
        <ele>188</ele>
        <time>2024-09-18T14:01:15Z</time>
      </trkpt>
      <trkpt lat="46.53707" lon="4.92804">
        <ele>187.8</ele>
        <time>2024-09-18T14:01:16Z</time>
      </trkpt>
      <trkpt lat="46.53703" lon="4.92807">
        <ele>187.8</ele>
        <time>2024-09-18T14:01:17Z</time>
      </trkpt>
      <trkpt lat="46.53698" lon="4.92809">
        <ele>187.8</ele>
        <time>2024-09-18T14:01:18Z</time>
      </trkpt>
      <trkpt lat="46.53694" lon="4.92812">
        <ele>187.8</ele>
        <time>2024-09-18T14:01:19Z</time>
      </trkpt>
      <trkpt lat="46.53689" lon="4.92815">
        <ele>188.2</ele>
        <time>2024-09-18T14:01:20Z</time>
      </trkpt>
      <trkpt lat="46.53685" lon="4.92817">
        <ele>188.2</ele>
        <time>2024-09-18T14:01:21Z</time>
      </trkpt>
      <trkpt lat="46.5368" lon="4.9282">
        <ele>188.2</ele>
        <time>2024-09-18T14:01:22Z</time>
      </trkpt>
      <trkpt lat="46.53676" lon="4.92822">
        <ele>188.2</ele>
        <time>2024-09-18T14:01:23Z</time>
      </trkpt>
      <trkpt lat="46.53672" lon="4.92824">
        <ele>187.4</ele>
        <time>2024-09-18T14:01:24Z</time>
      </trkpt>
      <trkpt lat="46.53668" lon="4.92827">
        <ele>188.2</ele>
        <time>2024-09-18T14:01:25Z</time>
      </trkpt>
      <trkpt lat="46.53663" lon="4.92829">
        <ele>188.2</ele>
        <time>2024-09-18T14:01:26Z</time>
      </trkpt>
      <trkpt lat="46.53659" lon="4.92832">
        <ele>188.2</ele>
        <time>2024-09-18T14:01:27Z</time>
      </trkpt>
      <trkpt lat="46.53655" lon="4.92834">
        <ele>188</ele>
        <time>2024-09-18T14:01:28Z</time>
      </trkpt>
      <trkpt lat="46.53651" lon="4.92836">
        <ele>187.6</ele>
        <time>2024-09-18T14:01:29Z</time>
      </trkpt>
      <trkpt lat="46.53647" lon="4.92838">
        <ele>187.6</ele>
        <time>2024-09-18T14:01:30Z</time>
      </trkpt>
      <trkpt lat="46.53643" lon="4.9284">
        <ele>187.6</ele>
        <time>2024-09-18T14:01:31Z</time>
      </trkpt>
      <trkpt lat="46.53639" lon="4.92843">
        <ele>187.6</ele>
        <time>2024-09-18T14:01:32Z</time>
      </trkpt>
      <trkpt lat="46.53635" lon="4.92845">
        <ele>188</ele>
        <time>2024-09-18T14:01:33Z</time>
      </trkpt>
      <trkpt lat="46.53631" lon="4.92848">
        <ele>188</ele>
        <time>2024-09-18T14:01:34Z</time>
      </trkpt>
      <trkpt lat="46.53627" lon="4.9285">
        <ele>188</ele>
        <time>2024-09-18T14:01:35Z</time>
      </trkpt>
      <trkpt lat="46.53623" lon="4.92853">
        <ele>188</ele>
        <time>2024-09-18T14:01:36Z</time>
      </trkpt>
      <trkpt lat="46.53619" lon="4.92855">
        <ele>188</ele>
        <time>2024-09-18T14:01:37Z</time>
      </trkpt>
      <trkpt lat="46.53615" lon="4.92857">
        <ele>187.8</ele>
        <time>2024-09-18T14:01:38Z</time>
      </trkpt>
      <trkpt lat="46.53611" lon="4.9286">
        <ele>188</ele>
        <time>2024-09-18T14:01:39Z</time>
      </trkpt>
      <trkpt lat="46.53606" lon="4.92862">
        <ele>188</ele>
        <time>2024-09-18T14:01:40Z</time>
      </trkpt>
      <trkpt lat="46.53603" lon="4.92864">
        <ele>188</ele>
        <time>2024-09-18T14:01:41Z</time>
      </trkpt>
      <trkpt lat="46.53599" lon="4.92865">
        <ele>188</ele>
        <time>2024-09-18T14:01:42Z</time>
      </trkpt>
      <trkpt lat="46.53595" lon="4.92867">
        <ele>187.8</ele>
        <time>2024-09-18T14:01:43Z</time>
      </trkpt>
      <trkpt lat="46.53591" lon="4.92869">
        <ele>187.8</ele>
        <time>2024-09-18T14:01:44Z</time>
      </trkpt>
      <trkpt lat="46.53588" lon="4.92871">
        <ele>187.8</ele>
        <time>2024-09-18T14:01:45Z</time>
      </trkpt>
      <trkpt lat="46.53584" lon="4.92873">
        <ele>187.8</ele>
        <time>2024-09-18T14:01:46Z</time>
      </trkpt>
      <trkpt lat="46.53581" lon="4.92874">
        <ele>188.6</ele>
        <time>2024-09-18T14:01:47Z</time>
      </trkpt>
      <trkpt lat="46.53578" lon="4.92875">
        <ele>188.6</ele>
        <time>2024-09-18T14:01:48Z</time>
      </trkpt>
      <trkpt lat="46.53575" lon="4.92876">
        <ele>188.6</ele>
        <time>2024-09-18T14:01:49Z</time>
      </trkpt>
      <trkpt lat="46.53572" lon="4.92878">
        <ele>188.6</ele>
        <time>2024-09-18T14:01:50Z</time>
      </trkpt>
      <trkpt lat="46.53568" lon="4.92879">
        <ele>188.6</ele>
        <time>2024-09-18T14:01:51Z</time>
      </trkpt>
      <trkpt lat="46.53565" lon="4.92881">
        <ele>189.6</ele>
        <time>2024-09-18T14:01:52Z</time>
      </trkpt>
      <trkpt lat="46.53563" lon="4.92882">
        <ele>189.6</ele>
        <time>2024-09-18T14:01:53Z</time>
      </trkpt>
      <trkpt lat="46.5356" lon="4.92883">
        <ele>189.6</ele>
        <time>2024-09-18T14:01:54Z</time>
      </trkpt>
      <trkpt lat="46.53557" lon="4.92885">
        <ele>189.6</ele>
        <time>2024-09-18T14:01:55Z</time>
      </trkpt>
      <trkpt lat="46.53554" lon="4.92887">
        <ele>189.6</ele>
        <time>2024-09-18T14:01:56Z</time>
      </trkpt>
      <trkpt lat="46.5355" lon="4.92889">
        <ele>189.4</ele>
        <time>2024-09-18T14:01:57Z</time>
      </trkpt>
      <trkpt lat="46.53548" lon="4.9289">
        <ele>189.4</ele>
        <time>2024-09-18T14:01:58Z</time>
      </trkpt>
      <trkpt lat="46.53544" lon="4.92893">
        <ele>189.4</ele>
        <time>2024-09-18T14:01:59Z</time>
      </trkpt>
      <trkpt lat="46.53543" lon="4.92894">
        <ele>189.4</ele>
        <time>2024-09-18T14:02:00Z</time>
      </trkpt>
      <trkpt lat="46.5354" lon="4.92896">
        <ele>190.4</ele>
        <time>2024-09-18T14:02:01Z</time>
      </trkpt>
      <trkpt lat="46.53537" lon="4.92898">
        <ele>190.4</ele>
        <time>2024-09-18T14:02:02Z</time>
      </trkpt>
      <trkpt lat="46.53534" lon="4.92901">
        <ele>190.4</ele>
        <time>2024-09-18T14:02:03Z</time>
      </trkpt>
      <trkpt lat="46.53531" lon="4.92902">
        <ele>190.6</ele>
        <time>2024-09-18T14:02:04Z</time>
      </trkpt>
      <trkpt lat="46.53528" lon="4.92905">
        <ele>190.6</ele>
        <time>2024-09-18T14:02:05Z</time>
      </trkpt>
      <trkpt lat="46.53525" lon="4.92907">
        <ele>190.6</ele>
        <time>2024-09-18T14:02:06Z</time>
      </trkpt>
      <trkpt lat="46.53522" lon="4.92909">
        <ele>190.6</ele>
        <time>2024-09-18T14:02:07Z</time>
      </trkpt>
      <trkpt lat="46.53519" lon="4.92911">
        <ele>190.6</ele>
        <time>2024-09-18T14:02:08Z</time>
      </trkpt>
      <trkpt lat="46.53514" lon="4.92914">
        <ele>190.6</ele>
        <time>2024-09-18T14:02:09Z</time>
      </trkpt>
      <trkpt lat="46.53513" lon="4.92915">
        <ele>190.8</ele>
        <time>2024-09-18T14:02:10Z</time>
      </trkpt>
      <trkpt lat="46.53509" lon="4.92917">
        <ele>190.8</ele>
        <time>2024-09-18T14:02:11Z</time>
      </trkpt>
      <trkpt lat="46.53506" lon="4.92919">
        <ele>190.8</ele>
        <time>2024-09-18T14:02:12Z</time>
      </trkpt>
      <trkpt lat="46.53502" lon="4.92921">
        <ele>190.8</ele>
        <time>2024-09-18T14:02:13Z</time>
      </trkpt>
      <trkpt lat="46.53499" lon="4.92924">
        <ele>190.8</ele>
        <time>2024-09-18T14:02:14Z</time>
      </trkpt>
      <trkpt lat="46.53494" lon="4.92927">
        <ele>190.4</ele>
        <time>2024-09-18T14:02:15Z</time>
      </trkpt>
      <trkpt lat="46.53492" lon="4.92928">
        <ele>190.4</ele>
        <time>2024-09-18T14:02:16Z</time>
      </trkpt>
      <trkpt lat="46.53489" lon="4.9293">
        <ele>190.4</ele>
        <time>2024-09-18T14:02:17Z</time>
      </trkpt>
      <trkpt lat="46.53485" lon="4.92932">
        <ele>190.4</ele>
        <time>2024-09-18T14:02:18Z</time>
      </trkpt>
      <trkpt lat="46.53481" lon="4.92935">
        <ele>189.8</ele>
        <time>2024-09-18T14:02:19Z</time>
      </trkpt>
      <trkpt lat="46.53477" lon="4.92937">
        <ele>189.8</ele>
        <time>2024-09-18T14:02:20Z</time>
      </trkpt>
      <trkpt lat="46.53473" lon="4.9294">
        <ele>189.8</ele>
        <time>2024-09-18T14:02:21Z</time>
      </trkpt>
      <trkpt lat="46.53469" lon="4.92943">
        <ele>189.8</ele>
        <time>2024-09-18T14:02:22Z</time>
      </trkpt>
      <trkpt lat="46.53464" lon="4.92945">
        <ele>189.8</ele>
        <time>2024-09-18T14:02:23Z</time>
      </trkpt>
      <trkpt lat="46.5346" lon="4.92949">
        <ele>189.6</ele>
        <time>2024-09-18T14:02:24Z</time>
      </trkpt>
      <trkpt lat="46.53455" lon="4.92952">
        <ele>189.6</ele>
        <time>2024-09-18T14:02:25Z</time>
      </trkpt>
      <trkpt lat="46.5345" lon="4.92955">
        <ele>189.6</ele>
        <time>2024-09-18T14:02:26Z</time>
      </trkpt>
      <trkpt lat="46.53446" lon="4.92959">
        <ele>188.8</ele>
        <time>2024-09-18T14:02:27Z</time>
      </trkpt>
      <trkpt lat="46.53442" lon="4.92963">
        <ele>189.2</ele>
        <time>2024-09-18T14:02:28Z</time>
      </trkpt>
      <trkpt lat="46.53437" lon="4.92966">
        <ele>189.2</ele>
        <time>2024-09-18T14:02:29Z</time>
      </trkpt>
      <trkpt lat="46.53433" lon="4.9297">
        <ele>189.2</ele>
        <time>2024-09-18T14:02:30Z</time>
      </trkpt>
      <trkpt lat="46.53429" lon="4.92973">
        <ele>189.2</ele>
        <time>2024-09-18T14:02:31Z</time>
      </trkpt>
      <trkpt lat="46.53425" lon="4.92976">
        <ele>189.2</ele>
        <time>2024-09-18T14:02:32Z</time>
      </trkpt>
      <trkpt lat="46.5342" lon="4.9298">
        <ele>189.2</ele>
        <time>2024-09-18T14:02:33Z</time>
      </trkpt>
      <trkpt lat="46.53416" lon="4.92983">
        <ele>189.2</ele>
        <time>2024-09-18T14:02:34Z</time>
      </trkpt>
      <trkpt lat="46.53411" lon="4.92987">
        <ele>189.2</ele>
        <time>2024-09-18T14:02:35Z</time>
      </trkpt>
      <trkpt lat="46.53406" lon="4.9299">
        <ele>188.4</ele>
        <time>2024-09-18T14:02:36Z</time>
      </trkpt>
      <trkpt lat="46.53402" lon="4.92994">
        <ele>188.6</ele>
        <time>2024-09-18T14:02:37Z</time>
      </trkpt>
      <trkpt lat="46.53397" lon="4.92997">
        <ele>188.6</ele>
        <time>2024-09-18T14:02:38Z</time>
      </trkpt>
      <trkpt lat="46.53392" lon="4.93001">
        <ele>188.6</ele>
        <time>2024-09-18T14:02:39Z</time>
      </trkpt>
      <trkpt lat="46.53387" lon="4.93004">
        <ele>188.6</ele>
        <time>2024-09-18T14:02:40Z</time>
      </trkpt>
      <trkpt lat="46.53383" lon="4.93008">
        <ele>188.4</ele>
        <time>2024-09-18T14:02:41Z</time>
      </trkpt>
      <trkpt lat="46.53378" lon="4.93011">
        <ele>188.4</ele>
        <time>2024-09-18T14:02:42Z</time>
      </trkpt>
      <trkpt lat="46.53373" lon="4.93014">
        <ele>188.4</ele>
        <time>2024-09-18T14:02:43Z</time>
      </trkpt>
      <trkpt lat="46.53369" lon="4.93018">
        <ele>188.4</ele>
        <time>2024-09-18T14:02:44Z</time>
      </trkpt>
      <trkpt lat="46.53364" lon="4.93021">
        <ele>188.4</ele>
        <time>2024-09-18T14:02:45Z</time>
      </trkpt>
      <trkpt lat="46.5336" lon="4.93024">
        <ele>188.2</ele>
        <time>2024-09-18T14:02:46Z</time>
      </trkpt>
      <trkpt lat="46.53355" lon="4.93028">
        <ele>188.2</ele>
        <time>2024-09-18T14:02:47Z</time>
      </trkpt>
      <trkpt lat="46.5335" lon="4.93031">
        <ele>188.2</ele>
        <time>2024-09-18T14:02:48Z</time>
      </trkpt>
      <trkpt lat="46.53346" lon="4.93035">
        <ele>188</ele>
        <time>2024-09-18T14:02:49Z</time>
      </trkpt>
      <trkpt lat="46.53341" lon="4.93038">
        <ele>188</ele>
        <time>2024-09-18T14:02:50Z</time>
      </trkpt>
      <trkpt lat="46.53336" lon="4.93042">
        <ele>188</ele>
        <time>2024-09-18T14:02:51Z</time>
      </trkpt>
      <trkpt lat="46.53331" lon="4.93045">
        <ele>188</ele>
        <time>2024-09-18T14:02:52Z</time>
      </trkpt>
      <trkpt lat="46.53327" lon="4.93048">
        <ele>188.2</ele>
        <time>2024-09-18T14:02:53Z</time>
      </trkpt>
      <trkpt lat="46.53322" lon="4.93052">
        <ele>188</ele>
        <time>2024-09-18T14:02:54Z</time>
      </trkpt>
      <trkpt lat="46.53317" lon="4.93056">
        <ele>188</ele>
        <time>2024-09-18T14:02:55Z</time>
      </trkpt>
      <trkpt lat="46.53313" lon="4.9306">
        <ele>188</ele>
        <time>2024-09-18T14:02:56Z</time>
      </trkpt>
      <trkpt lat="46.53308" lon="4.93063">
        <ele>188</ele>
        <time>2024-09-18T14:02:57Z</time>
      </trkpt>
      <trkpt lat="46.53304" lon="4.93067">
        <ele>188</ele>
        <time>2024-09-18T14:02:58Z</time>
      </trkpt>
      <trkpt lat="46.533" lon="4.93071">
        <ele>188.2</ele>
        <time>2024-09-18T14:02:59Z</time>
      </trkpt>
      <trkpt lat="46.53296" lon="4.93075">
        <ele>188.2</ele>
        <time>2024-09-18T14:03:00Z</time>
      </trkpt>
      <trkpt lat="46.53292" lon="4.93079">
        <ele>188.2</ele>
        <time>2024-09-18T14:03:01Z</time>
      </trkpt>
      <trkpt lat="46.53288" lon="4.93083">
        <ele>188.2</ele>
        <time>2024-09-18T14:03:02Z</time>
      </trkpt>
      <trkpt lat="46.53284" lon="4.93086">
        <ele>188</ele>
        <time>2024-09-18T14:03:03Z</time>
      </trkpt>
      <trkpt lat="46.5328" lon="4.9309">
        <ele>188</ele>
        <time>2024-09-18T14:03:04Z</time>
      </trkpt>
      <trkpt lat="46.53276" lon="4.93094">
        <ele>188</ele>
        <time>2024-09-18T14:03:05Z</time>
      </trkpt>
      <trkpt lat="46.53272" lon="4.93097">
        <ele>188</ele>
        <time>2024-09-18T14:03:06Z</time>
      </trkpt>
      <trkpt lat="46.53268" lon="4.931">
        <ele>188.6</ele>
        <time>2024-09-18T14:03:07Z</time>
      </trkpt>
      <trkpt lat="46.53264" lon="4.93104">
        <ele>188.4</ele>
        <time>2024-09-18T14:03:08Z</time>
      </trkpt>
      <trkpt lat="46.5326" lon="4.93107">
        <ele>188.4</ele>
        <time>2024-09-18T14:03:09Z</time>
      </trkpt>
      <trkpt lat="46.53256" lon="4.9311">
        <ele>188.4</ele>
        <time>2024-09-18T14:03:10Z</time>
      </trkpt>
      <trkpt lat="46.53251" lon="4.93113">
        <ele>188.4</ele>
        <time>2024-09-18T14:03:11Z</time>
      </trkpt>
      <trkpt lat="46.53247" lon="4.93115">
        <ele>188.4</ele>
        <time>2024-09-18T14:03:12Z</time>
      </trkpt>
      <trkpt lat="46.53243" lon="4.93118">
        <ele>188.8</ele>
        <time>2024-09-18T14:03:13Z</time>
      </trkpt>
      <trkpt lat="46.53239" lon="4.9312">
        <ele>188.8</ele>
        <time>2024-09-18T14:03:14Z</time>
      </trkpt>
      <trkpt lat="46.53235" lon="4.93123">
        <ele>188.8</ele>
        <time>2024-09-18T14:03:15Z</time>
      </trkpt>
      <trkpt lat="46.53231" lon="4.93126">
        <ele>188.8</ele>
        <time>2024-09-18T14:03:16Z</time>
      </trkpt>
      <trkpt lat="46.53227" lon="4.93129">
        <ele>189</ele>
        <time>2024-09-18T14:03:17Z</time>
      </trkpt>
      <trkpt lat="46.53223" lon="4.93132">
        <ele>189</ele>
        <time>2024-09-18T14:03:18Z</time>
      </trkpt>
      <trkpt lat="46.53219" lon="4.93135">
        <ele>189</ele>
        <time>2024-09-18T14:03:19Z</time>
      </trkpt>
      <trkpt lat="46.53215" lon="4.93138">
        <ele>188.6</ele>
        <time>2024-09-18T14:03:20Z</time>
      </trkpt>
      <trkpt lat="46.53211" lon="4.93141">
        <ele>188.4</ele>
        <time>2024-09-18T14:03:21Z</time>
      </trkpt>
      <trkpt lat="46.53207" lon="4.93144">
        <ele>188.4</ele>
        <time>2024-09-18T14:03:22Z</time>
      </trkpt>
      <trkpt lat="46.53203" lon="4.93147">
        <ele>188.4</ele>
        <time>2024-09-18T14:03:23Z</time>
      </trkpt>
      <trkpt lat="46.53199" lon="4.9315">
        <ele>188.4</ele>
        <time>2024-09-18T14:03:24Z</time>
      </trkpt>
      <trkpt lat="46.53196" lon="4.93153">
        <ele>188</ele>
        <time>2024-09-18T14:03:25Z</time>
      </trkpt>
      <trkpt lat="46.53192" lon="4.93156">
        <ele>188.2</ele>
        <time>2024-09-18T14:03:26Z</time>
      </trkpt>
      <trkpt lat="46.53188" lon="4.93159">
        <ele>188.2</ele>
        <time>2024-09-18T14:03:27Z</time>
      </trkpt>
      <trkpt lat="46.53182" lon="4.93163">
        <ele>188.2</ele>
        <time>2024-09-18T14:03:28Z</time>
      </trkpt>
      <trkpt lat="46.5318" lon="4.93164">
        <ele>188.4</ele>
        <time>2024-09-18T14:03:29Z</time>
      </trkpt>
      <trkpt lat="46.53176" lon="4.93167">
        <ele>188.4</ele>
        <time>2024-09-18T14:03:30Z</time>
      </trkpt>
      <trkpt lat="46.53171" lon="4.93169">
        <ele>188.4</ele>
        <time>2024-09-18T14:03:31Z</time>
      </trkpt>
      <trkpt lat="46.53167" lon="4.93172">
        <ele>188.4</ele>
        <time>2024-09-18T14:03:32Z</time>
      </trkpt>
      <trkpt lat="46.53163" lon="4.93175">
        <ele>188.2</ele>
        <time>2024-09-18T14:03:33Z</time>
      </trkpt>
      <trkpt lat="46.53159" lon="4.93178">
        <ele>188.2</ele>
        <time>2024-09-18T14:03:34Z</time>
      </trkpt>
      <trkpt lat="46.53155" lon="4.93181">
        <ele>188.4</ele>
        <time>2024-09-18T14:03:35Z</time>
      </trkpt>
      <trkpt lat="46.53151" lon="4.93184">
        <ele>188.4</ele>
        <time>2024-09-18T14:03:36Z</time>
      </trkpt>
      <trkpt lat="46.53147" lon="4.93187">
        <ele>188.4</ele>
        <time>2024-09-18T14:03:37Z</time>
      </trkpt>
      <trkpt lat="46.53143" lon="4.93189">
        <ele>188.4</ele>
        <time>2024-09-18T14:03:38Z</time>
      </trkpt>
      <trkpt lat="46.53138" lon="4.93194">
        <ele>188.8</ele>
        <time>2024-09-18T14:03:39Z</time>
      </trkpt>
      <trkpt lat="46.53136" lon="4.93196">
        <ele>188.8</ele>
        <time>2024-09-18T14:03:40Z</time>
      </trkpt>
      <trkpt lat="46.53132" lon="4.93199">
        <ele>188.8</ele>
        <time>2024-09-18T14:03:41Z</time>
      </trkpt>
      <trkpt lat="46.53128" lon="4.93202">
        <ele>188.8</ele>
        <time>2024-09-18T14:03:42Z</time>
      </trkpt>
      <trkpt lat="46.53124" lon="4.93206">
        <ele>188.8</ele>
        <time>2024-09-18T14:03:43Z</time>
      </trkpt>
      <trkpt lat="46.5312" lon="4.93208">
        <ele>189</ele>
        <time>2024-09-18T14:03:44Z</time>
      </trkpt>
      <trkpt lat="46.53116" lon="4.93211">
        <ele>189</ele>
        <time>2024-09-18T14:03:45Z</time>
      </trkpt>
      <trkpt lat="46.53112" lon="4.93214">
        <ele>189</ele>
        <time>2024-09-18T14:03:46Z</time>
      </trkpt>
      <trkpt lat="46.53108" lon="4.93217">
        <ele>189.4</ele>
        <time>2024-09-18T14:03:47Z</time>
      </trkpt>
      <trkpt lat="46.53104" lon="4.9322">
        <ele>189.4</ele>
        <time>2024-09-18T14:03:48Z</time>
      </trkpt>
      <trkpt lat="46.531" lon="4.93223">
        <ele>189.4</ele>
        <time>2024-09-18T14:03:49Z</time>
      </trkpt>
      <trkpt lat="46.53097" lon="4.93226">
        <ele>189.4</ele>
        <time>2024-09-18T14:03:50Z</time>
      </trkpt>
      <trkpt lat="46.53093" lon="4.93228">
        <ele>189.4</ele>
        <time>2024-09-18T14:03:51Z</time>
      </trkpt>
      <trkpt lat="46.5309" lon="4.93231">
        <ele>189.4</ele>
        <time>2024-09-18T14:03:52Z</time>
      </trkpt>
      <trkpt lat="46.53086" lon="4.93234">
        <ele>189.2</ele>
        <time>2024-09-18T14:03:53Z</time>
      </trkpt>
      <trkpt lat="46.53083" lon="4.93236">
        <ele>189.2</ele>
        <time>2024-09-18T14:03:54Z</time>
      </trkpt>
      <trkpt lat="46.5308" lon="4.93239">
        <ele>189.2</ele>
        <time>2024-09-18T14:03:55Z</time>
      </trkpt>
      <trkpt lat="46.53076" lon="4.93242">
        <ele>189.8</ele>
        <time>2024-09-18T14:03:56Z</time>
      </trkpt>
      <trkpt lat="46.53073" lon="4.93246">
        <ele>189.8</ele>
        <time>2024-09-18T14:03:57Z</time>
      </trkpt>
      <trkpt lat="46.5307" lon="4.93249">
        <ele>189.8</ele>
        <time>2024-09-18T14:03:58Z</time>
      </trkpt>
      <trkpt lat="46.53067" lon="4.93251">
        <ele>189.8</ele>
        <time>2024-09-18T14:03:59Z</time>
      </trkpt>
      <trkpt lat="46.53064" lon="4.93253">
        <ele>190</ele>
        <time>2024-09-18T14:04:00Z</time>
      </trkpt>
      <trkpt lat="46.53061" lon="4.93256">
        <ele>190</ele>
        <time>2024-09-18T14:04:01Z</time>
      </trkpt>
      <trkpt lat="46.53058" lon="4.93259">
        <ele>190</ele>
        <time>2024-09-18T14:04:02Z</time>
      </trkpt>
      <trkpt lat="46.53055" lon="4.93262">
        <ele>190</ele>
        <time>2024-09-18T14:04:03Z</time>
      </trkpt>
      <trkpt lat="46.5305" lon="4.93267">
        <ele>190</ele>
        <time>2024-09-18T14:04:04Z</time>
      </trkpt>
      <trkpt lat="46.53048" lon="4.93268">
        <ele>189.4</ele>
        <time>2024-09-18T14:04:05Z</time>
      </trkpt>
      <trkpt lat="46.53044" lon="4.93272">
        <ele>189.6</ele>
        <time>2024-09-18T14:04:06Z</time>
      </trkpt>
      <trkpt lat="46.5304" lon="4.93275">
        <ele>189.6</ele>
        <time>2024-09-18T14:04:07Z</time>
      </trkpt>
      <trkpt lat="46.53034" lon="4.93281">
        <ele>189.6</ele>
        <time>2024-09-18T14:04:08Z</time>
      </trkpt>
      <trkpt lat="46.53032" lon="4.93283">
        <ele>189.4</ele>
        <time>2024-09-18T14:04:09Z</time>
      </trkpt>
      <trkpt lat="46.53028" lon="4.93287">
        <ele>189.4</ele>
        <time>2024-09-18T14:04:10Z</time>
      </trkpt>
      <trkpt lat="46.53024" lon="4.93292">
        <ele>189.4</ele>
        <time>2024-09-18T14:04:11Z</time>
      </trkpt>
      <trkpt lat="46.5302" lon="4.93296">
        <ele>189.4</ele>
        <time>2024-09-18T14:04:12Z</time>
      </trkpt>
      <trkpt lat="46.53016" lon="4.933">
        <ele>189.4</ele>
        <time>2024-09-18T14:04:13Z</time>
      </trkpt>
      <trkpt lat="46.53012" lon="4.93304">
        <ele>189.8</ele>
        <time>2024-09-18T14:04:14Z</time>
      </trkpt>
      <trkpt lat="46.53005" lon="4.93309">
        <ele>189.8</ele>
        <time>2024-09-18T14:04:15Z</time>
      </trkpt>
      <trkpt lat="46.53003" lon="4.93311">
        <ele>189.8</ele>
        <time>2024-09-18T14:04:16Z</time>
      </trkpt>
      <trkpt lat="46.52999" lon="4.93316">
        <ele>189.8</ele>
        <time>2024-09-18T14:04:17Z</time>
      </trkpt>
      <trkpt lat="46.52994" lon="4.9332">
        <ele>189.8</ele>
        <time>2024-09-18T14:04:18Z</time>
      </trkpt>
      <trkpt lat="46.5299" lon="4.93324">
        <ele>189.8</ele>
        <time>2024-09-18T14:04:19Z</time>
      </trkpt>
      <trkpt lat="46.52986" lon="4.93328">
        <ele>189.4</ele>
        <time>2024-09-18T14:04:20Z</time>
      </trkpt>
      <trkpt lat="46.52981" lon="4.93332">
        <ele>189.4</ele>
        <time>2024-09-18T14:04:21Z</time>
      </trkpt>
      <trkpt lat="46.52977" lon="4.93336">
        <ele>189.4</ele>
        <time>2024-09-18T14:04:22Z</time>
      </trkpt>
      <trkpt lat="46.52973" lon="4.9334">
        <ele>189.2</ele>
        <time>2024-09-18T14:04:23Z</time>
      </trkpt>
      <trkpt lat="46.52969" lon="4.93344">
        <ele>189.4</ele>
        <time>2024-09-18T14:04:24Z</time>
      </trkpt>
      <trkpt lat="46.52965" lon="4.93348">
        <ele>189.4</ele>
        <time>2024-09-18T14:04:25Z</time>
      </trkpt>
      <trkpt lat="46.5296" lon="4.93352">
        <ele>189.4</ele>
        <time>2024-09-18T14:04:26Z</time>
      </trkpt>
      <trkpt lat="46.52956" lon="4.93357">
        <ele>189.4</ele>
        <time>2024-09-18T14:04:27Z</time>
      </trkpt>
      <trkpt lat="46.52952" lon="4.93361">
        <ele>189.4</ele>
        <time>2024-09-18T14:04:28Z</time>
      </trkpt>
      <trkpt lat="46.52948" lon="4.93365">
        <ele>189.6</ele>
        <time>2024-09-18T14:04:29Z</time>
      </trkpt>
      <trkpt lat="46.52944" lon="4.9337">
        <ele>189.6</ele>
        <time>2024-09-18T14:04:30Z</time>
      </trkpt>
      <trkpt lat="46.5294" lon="4.93374">
        <ele>189.6</ele>
        <time>2024-09-18T14:04:31Z</time>
      </trkpt>
      <trkpt lat="46.52936" lon="4.93378">
        <ele>189.2</ele>
        <time>2024-09-18T14:04:32Z</time>
      </trkpt>
      <trkpt lat="46.52932" lon="4.93382">
        <ele>189.4</ele>
        <time>2024-09-18T14:04:33Z</time>
      </trkpt>
      <trkpt lat="46.52927" lon="4.93386">
        <ele>189.4</ele>
        <time>2024-09-18T14:04:34Z</time>
      </trkpt>
      <trkpt lat="46.52923" lon="4.9339">
        <ele>189.4</ele>
        <time>2024-09-18T14:04:35Z</time>
      </trkpt>
      <trkpt lat="46.52919" lon="4.93394">
        <ele>189.2</ele>
        <time>2024-09-18T14:04:36Z</time>
      </trkpt>
      <trkpt lat="46.52914" lon="4.93397">
        <ele>189</ele>
        <time>2024-09-18T14:04:37Z</time>
      </trkpt>
      <trkpt lat="46.5291" lon="4.93401">
        <ele>189</ele>
        <time>2024-09-18T14:04:38Z</time>
      </trkpt>
      <trkpt lat="46.52905" lon="4.93404">
        <ele>189</ele>
        <time>2024-09-18T14:04:39Z</time>
      </trkpt>
      <trkpt lat="46.52901" lon="4.93407">
        <ele>189</ele>
        <time>2024-09-18T14:04:40Z</time>
      </trkpt>
      <trkpt lat="46.52897" lon="4.93411">
        <ele>189</ele>
        <time>2024-09-18T14:04:41Z</time>
      </trkpt>
      <trkpt lat="46.52893" lon="4.93414">
        <ele>188.8</ele>
        <time>2024-09-18T14:04:42Z</time>
      </trkpt>
      <trkpt lat="46.52888" lon="4.93417">
        <ele>188.8</ele>
        <time>2024-09-18T14:04:43Z</time>
      </trkpt>
      <trkpt lat="46.52884" lon="4.93421">
        <ele>188.8</ele>
        <time>2024-09-18T14:04:44Z</time>
      </trkpt>
      <trkpt lat="46.5288" lon="4.93426">
        <ele>188.8</ele>
        <time>2024-09-18T14:04:45Z</time>
      </trkpt>
      <trkpt lat="46.52873" lon="4.93431">
        <ele>188.4</ele>
        <time>2024-09-18T14:04:46Z</time>
      </trkpt>
      <trkpt lat="46.52871" lon="4.93432">
        <ele>188.4</ele>
        <time>2024-09-18T14:04:47Z</time>
      </trkpt>
      <trkpt lat="46.52865" lon="4.93437">
        <ele>188.4</ele>
        <time>2024-09-18T14:04:48Z</time>
      </trkpt>
      <trkpt lat="46.52863" lon="4.93438">
        <ele>188.6</ele>
        <time>2024-09-18T14:04:49Z</time>
      </trkpt>
      <trkpt lat="46.52856" lon="4.93444">
        <ele>189</ele>
        <time>2024-09-18T14:04:50Z</time>
      </trkpt>
      <trkpt lat="46.52854" lon="4.93446">
        <ele>189</ele>
        <time>2024-09-18T14:04:51Z</time>
      </trkpt>
      <trkpt lat="46.52849" lon="4.9345">
        <ele>189</ele>
        <time>2024-09-18T14:04:52Z</time>
      </trkpt>
      <trkpt lat="46.52845" lon="4.93454">
        <ele>188.6</ele>
        <time>2024-09-18T14:04:53Z</time>
      </trkpt>
      <trkpt lat="46.5284" lon="4.93457">
        <ele>188.6</ele>
        <time>2024-09-18T14:04:54Z</time>
      </trkpt>
      <trkpt lat="46.52836" lon="4.9346">
        <ele>188.8</ele>
        <time>2024-09-18T14:04:55Z</time>
      </trkpt>
      <trkpt lat="46.52831" lon="4.93463">
        <ele>188.8</ele>
        <time>2024-09-18T14:04:56Z</time>
      </trkpt>
      <trkpt lat="46.52827" lon="4.93466">
        <ele>188.8</ele>
        <time>2024-09-18T14:04:57Z</time>
      </trkpt>
      <trkpt lat="46.52822" lon="4.93469">
        <ele>188.8</ele>
        <time>2024-09-18T14:04:58Z</time>
      </trkpt>
      <trkpt lat="46.52818" lon="4.93472">
        <ele>189</ele>
        <time>2024-09-18T14:04:59Z</time>
      </trkpt>
      <trkpt lat="46.52813" lon="4.93475">
        <ele>188.8</ele>
        <time>2024-09-18T14:05:00Z</time>
      </trkpt>
      <trkpt lat="46.52808" lon="4.93477">
        <ele>188.8</ele>
        <time>2024-09-18T14:05:01Z</time>
      </trkpt>
      <trkpt lat="46.52804" lon="4.9348">
        <ele>188.8</ele>
        <time>2024-09-18T14:05:02Z</time>
      </trkpt>
      <trkpt lat="46.52799" lon="4.93483">
        <ele>188.8</ele>
        <time>2024-09-18T14:05:03Z</time>
      </trkpt>
      <trkpt lat="46.52795" lon="4.93486">
        <ele>189</ele>
        <time>2024-09-18T14:05:04Z</time>
      </trkpt>
      <trkpt lat="46.52789" lon="4.93491">
        <ele>189</ele>
        <time>2024-09-18T14:05:05Z</time>
      </trkpt>
      <trkpt lat="46.52787" lon="4.93493">
        <ele>189</ele>
        <time>2024-09-18T14:05:06Z</time>
      </trkpt>
      <trkpt lat="46.52784" lon="4.93497">
        <ele>189</ele>
        <time>2024-09-18T14:05:07Z</time>
      </trkpt>
      <trkpt lat="46.5278" lon="4.93501">
        <ele>189</ele>
        <time>2024-09-18T14:05:08Z</time>
      </trkpt>
      <trkpt lat="46.52775" lon="4.93505">
        <ele>188.8</ele>
        <time>2024-09-18T14:05:09Z</time>
      </trkpt>
      <trkpt lat="46.52771" lon="4.93509">
        <ele>188.8</ele>
        <time>2024-09-18T14:05:10Z</time>
      </trkpt>
      <trkpt lat="46.52766" lon="4.93512">
        <ele>188.8</ele>
        <time>2024-09-18T14:05:11Z</time>
      </trkpt>
      <trkpt lat="46.52762" lon="4.93515">
        <ele>188.6</ele>
        <time>2024-09-18T14:05:12Z</time>
      </trkpt>
      <trkpt lat="46.52757" lon="4.93517">
        <ele>188.4</ele>
        <time>2024-09-18T14:05:13Z</time>
      </trkpt>
      <trkpt lat="46.52752" lon="4.9352">
        <ele>188.4</ele>
        <time>2024-09-18T14:05:14Z</time>
      </trkpt>
      <trkpt lat="46.52747" lon="4.93523">
        <ele>188.4</ele>
        <time>2024-09-18T14:05:15Z</time>
      </trkpt>
      <trkpt lat="46.52742" lon="4.93526">
        <ele>188</ele>
        <time>2024-09-18T14:05:16Z</time>
      </trkpt>
      <trkpt lat="46.52738" lon="4.93528">
        <ele>187.6</ele>
        <time>2024-09-18T14:05:17Z</time>
      </trkpt>
      <trkpt lat="46.52732" lon="4.9353">
        <ele>187.6</ele>
        <time>2024-09-18T14:05:18Z</time>
      </trkpt>
      <trkpt lat="46.52728" lon="4.93532">
        <ele>187.6</ele>
        <time>2024-09-18T14:05:19Z</time>
      </trkpt>
      <trkpt lat="46.52723" lon="4.93535">
        <ele>187.6</ele>
        <time>2024-09-18T14:05:20Z</time>
      </trkpt>
      <trkpt lat="46.52718" lon="4.93537">
        <ele>187.6</ele>
        <time>2024-09-18T14:05:21Z</time>
      </trkpt>
      <trkpt lat="46.52713" lon="4.93539">
        <ele>187.6</ele>
        <time>2024-09-18T14:05:22Z</time>
      </trkpt>
      <trkpt lat="46.52708" lon="4.93541">
        <ele>187.6</ele>
        <time>2024-09-18T14:05:23Z</time>
      </trkpt>
      <trkpt lat="46.52703" lon="4.93543">
        <ele>187.6</ele>
        <time>2024-09-18T14:05:24Z</time>
      </trkpt>
      <trkpt lat="46.52698" lon="4.93545">
        <ele>187.6</ele>
        <time>2024-09-18T14:05:25Z</time>
      </trkpt>
      <trkpt lat="46.52693" lon="4.93547">
        <ele>187.4</ele>
        <time>2024-09-18T14:05:26Z</time>
      </trkpt>
      <trkpt lat="46.52688" lon="4.93549">
        <ele>187.4</ele>
        <time>2024-09-18T14:05:27Z</time>
      </trkpt>
      <trkpt lat="46.52684" lon="4.9355">
        <ele>187.4</ele>
        <time>2024-09-18T14:05:28Z</time>
      </trkpt>
      <trkpt lat="46.52679" lon="4.93552">
        <ele>187.4</ele>
        <time>2024-09-18T14:05:29Z</time>
      </trkpt>
      <trkpt lat="46.52675" lon="4.93554">
        <ele>187.4</ele>
        <time>2024-09-18T14:05:30Z</time>
      </trkpt>
      <trkpt lat="46.5267" lon="4.93556">
        <ele>187.4</ele>
        <time>2024-09-18T14:05:31Z</time>
      </trkpt>
      <trkpt lat="46.52663" lon="4.93559">
        <ele>187.4</ele>
        <time>2024-09-18T14:05:32Z</time>
      </trkpt>
      <trkpt lat="46.52661" lon="4.9356">
        <ele>187.4</ele>
        <time>2024-09-18T14:05:33Z</time>
      </trkpt>
      <trkpt lat="46.52656" lon="4.93562">
        <ele>187.4</ele>
        <time>2024-09-18T14:05:34Z</time>
      </trkpt>
      <trkpt lat="46.52651" lon="4.93564">
        <ele>187.6</ele>
        <time>2024-09-18T14:05:35Z</time>
      </trkpt>
      <trkpt lat="46.52644" lon="4.93568">
        <ele>187.6</ele>
        <time>2024-09-18T14:05:36Z</time>
      </trkpt>
      <trkpt lat="46.52641" lon="4.93569">
        <ele>187.6</ele>
        <time>2024-09-18T14:05:37Z</time>
      </trkpt>
      <trkpt lat="46.52636" lon="4.93571">
        <ele>186.8</ele>
        <time>2024-09-18T14:05:38Z</time>
      </trkpt>
      <trkpt lat="46.52631" lon="4.93574">
        <ele>186.8</ele>
        <time>2024-09-18T14:05:39Z</time>
      </trkpt>
      <trkpt lat="46.52627" lon="4.93576">
        <ele>186.8</ele>
        <time>2024-09-18T14:05:40Z</time>
      </trkpt>
      <trkpt lat="46.52622" lon="4.93578">
        <ele>186.8</ele>
        <time>2024-09-18T14:05:41Z</time>
      </trkpt>
      <trkpt lat="46.52614" lon="4.9358">
        <ele>186.8</ele>
        <time>2024-09-18T14:05:42Z</time>
      </trkpt>
      <trkpt lat="46.52612" lon="4.93581">
        <ele>187.2</ele>
        <time>2024-09-18T14:05:43Z</time>
      </trkpt>
      <trkpt lat="46.52607" lon="4.93583">
        <ele>187.4</ele>
        <time>2024-09-18T14:05:44Z</time>
      </trkpt>
      <trkpt lat="46.52602" lon="4.93584">
        <ele>187.4</ele>
        <time>2024-09-18T14:05:45Z</time>
      </trkpt>
      <trkpt lat="46.52597" lon="4.93586">
        <ele>187.4</ele>
        <time>2024-09-18T14:05:46Z</time>
      </trkpt>
      <trkpt lat="46.52592" lon="4.93587">
        <ele>187.4</ele>
        <time>2024-09-18T14:05:47Z</time>
      </trkpt>
      <trkpt lat="46.52588" lon="4.93589">
        <ele>187.6</ele>
        <time>2024-09-18T14:05:48Z</time>
      </trkpt>
      <trkpt lat="46.52583" lon="4.9359">
        <ele>187.4</ele>
        <time>2024-09-18T14:05:49Z</time>
      </trkpt>
      <trkpt lat="46.52578" lon="4.93592">
        <ele>187.4</ele>
        <time>2024-09-18T14:05:50Z</time>
      </trkpt>
      <trkpt lat="46.52574" lon="4.93593">
        <ele>187.4</ele>
        <time>2024-09-18T14:05:51Z</time>
      </trkpt>
      <trkpt lat="46.52569" lon="4.93595">
        <ele>187.4</ele>
        <time>2024-09-18T14:05:52Z</time>
      </trkpt>
      <trkpt lat="46.52564" lon="4.93595">
        <ele>187.4</ele>
        <time>2024-09-18T14:05:53Z</time>
      </trkpt>
      <trkpt lat="46.5256" lon="4.93596">
        <ele>187.6</ele>
        <time>2024-09-18T14:05:54Z</time>
      </trkpt>
      <trkpt lat="46.52555" lon="4.93596">
        <ele>187.6</ele>
        <time>2024-09-18T14:05:55Z</time>
      </trkpt>
      <trkpt lat="46.52551" lon="4.93596">
        <ele>187.6</ele>
        <time>2024-09-18T14:05:56Z</time>
      </trkpt>
      <trkpt lat="46.52546" lon="4.93596">
        <ele>188.2</ele>
        <time>2024-09-18T14:05:57Z</time>
      </trkpt>
      <trkpt lat="46.52542" lon="4.93596">
        <ele>188.2</ele>
        <time>2024-09-18T14:05:58Z</time>
      </trkpt>
      <trkpt lat="46.52538" lon="4.93596">
        <ele>188.2</ele>
        <time>2024-09-18T14:05:59Z</time>
      </trkpt>
      <trkpt lat="46.52534" lon="4.93596">
        <ele>188.2</ele>
        <time>2024-09-18T14:06:00Z</time>
      </trkpt>
      <trkpt lat="46.5253" lon="4.93597">
        <ele>188.2</ele>
        <time>2024-09-18T14:06:01Z</time>
      </trkpt>
      <trkpt lat="46.52525" lon="4.93598">
        <ele>188</ele>
        <time>2024-09-18T14:06:02Z</time>
      </trkpt>
      <trkpt lat="46.52521" lon="4.93599">
        <ele>188</ele>
        <time>2024-09-18T14:06:03Z</time>
      </trkpt>
      <trkpt lat="46.52517" lon="4.936">
        <ele>188</ele>
        <time>2024-09-18T14:06:04Z</time>
      </trkpt>
      <trkpt lat="46.52512" lon="4.93602">
        <ele>188</ele>
        <time>2024-09-18T14:06:05Z</time>
      </trkpt>
      <trkpt lat="46.52508" lon="4.93604">
        <ele>187.6</ele>
        <time>2024-09-18T14:06:06Z</time>
      </trkpt>
      <trkpt lat="46.52504" lon="4.93605">
        <ele>187.8</ele>
        <time>2024-09-18T14:06:07Z</time>
      </trkpt>
      <trkpt lat="46.52499" lon="4.93607">
        <ele>187.8</ele>
        <time>2024-09-18T14:06:08Z</time>
      </trkpt>
      <trkpt lat="46.52495" lon="4.93609">
        <ele>187.8</ele>
        <time>2024-09-18T14:06:09Z</time>
      </trkpt>
      <trkpt lat="46.52491" lon="4.93611">
        <ele>187.6</ele>
        <time>2024-09-18T14:06:10Z</time>
      </trkpt>
      <trkpt lat="46.52487" lon="4.93613">
        <ele>187.8</ele>
        <time>2024-09-18T14:06:11Z</time>
      </trkpt>
      <trkpt lat="46.52482" lon="4.93615">
        <ele>187.8</ele>
        <time>2024-09-18T14:06:12Z</time>
      </trkpt>
      <trkpt lat="46.52477" lon="4.93617">
        <ele>187.8</ele>
        <time>2024-09-18T14:06:13Z</time>
      </trkpt>
      <trkpt lat="46.52469" lon="4.93619">
        <ele>187.8</ele>
        <time>2024-09-18T14:06:14Z</time>
      </trkpt>
      <trkpt lat="46.52467" lon="4.93619">
        <ele>187.8</ele>
        <time>2024-09-18T14:06:15Z</time>
      </trkpt>
      <trkpt lat="46.52459" lon="4.93621">
        <ele>187.8</ele>
        <time>2024-09-18T14:06:16Z</time>
      </trkpt>
      <trkpt lat="46.52457" lon="4.93621">
        <ele>187.8</ele>
        <time>2024-09-18T14:06:17Z</time>
      </trkpt>
      <trkpt lat="46.52449" lon="4.93623">
        <ele>187.8</ele>
        <time>2024-09-18T14:06:18Z</time>
      </trkpt>
      <trkpt lat="46.52447" lon="4.93623">
        <ele>188.2</ele>
        <time>2024-09-18T14:06:19Z</time>
      </trkpt>
      <trkpt lat="46.52439" lon="4.93624">
        <ele>188.2</ele>
        <time>2024-09-18T14:06:20Z</time>
      </trkpt>
      <trkpt lat="46.52437" lon="4.93625">
        <ele>188.2</ele>
        <time>2024-09-18T14:06:21Z</time>
      </trkpt>
      <trkpt lat="46.52433" lon="4.93626">
        <ele>188.2</ele>
        <time>2024-09-18T14:06:22Z</time>
      </trkpt>
      <trkpt lat="46.52428" lon="4.93626">
        <ele>188.2</ele>
        <time>2024-09-18T14:06:23Z</time>
      </trkpt>
      <trkpt lat="46.52424" lon="4.93627">
        <ele>188</ele>
        <time>2024-09-18T14:06:24Z</time>
      </trkpt>
      <trkpt lat="46.5242" lon="4.93628">
        <ele>188</ele>
        <time>2024-09-18T14:06:25Z</time>
      </trkpt>
      <trkpt lat="46.52416" lon="4.93628">
        <ele>188</ele>
        <time>2024-09-18T14:06:26Z</time>
      </trkpt>
      <trkpt lat="46.52412" lon="4.93629">
        <ele>188</ele>
        <time>2024-09-18T14:06:27Z</time>
      </trkpt>
      <trkpt lat="46.52408" lon="4.9363">
        <ele>188</ele>
        <time>2024-09-18T14:06:28Z</time>
      </trkpt>
      <trkpt lat="46.52404" lon="4.9363">
        <ele>189</ele>
        <time>2024-09-18T14:06:29Z</time>
      </trkpt>
      <trkpt lat="46.524" lon="4.93631">
        <ele>189.2</ele>
        <time>2024-09-18T14:06:30Z</time>
      </trkpt>
      <trkpt lat="46.52396" lon="4.93632">
        <ele>189.2</ele>
        <time>2024-09-18T14:06:31Z</time>
      </trkpt>
      <trkpt lat="46.52391" lon="4.93633">
        <ele>189.2</ele>
        <time>2024-09-18T14:06:32Z</time>
      </trkpt>
      <trkpt lat="46.52387" lon="4.93634">
        <ele>189.2</ele>
        <time>2024-09-18T14:06:33Z</time>
      </trkpt>
      <trkpt lat="46.52383" lon="4.93636">
        <ele>189</ele>
        <time>2024-09-18T14:06:34Z</time>
      </trkpt>
      <trkpt lat="46.52379" lon="4.93637">
        <ele>189</ele>
        <time>2024-09-18T14:06:35Z</time>
      </trkpt>
      <trkpt lat="46.52374" lon="4.93638">
        <ele>189</ele>
        <time>2024-09-18T14:06:36Z</time>
      </trkpt>
      <trkpt lat="46.52369" lon="4.93639">
        <ele>189</ele>
        <time>2024-09-18T14:06:37Z</time>
      </trkpt>
      <trkpt lat="46.52365" lon="4.93641">
        <ele>189</ele>
        <time>2024-09-18T14:06:38Z</time>
      </trkpt>
      <trkpt lat="46.5236" lon="4.93643">
        <ele>189</ele>
        <time>2024-09-18T14:06:39Z</time>
      </trkpt>
      <trkpt lat="46.52356" lon="4.93646">
        <ele>189</ele>
        <time>2024-09-18T14:06:40Z</time>
      </trkpt>
      <trkpt lat="46.52352" lon="4.93649">
        <ele>189</ele>
        <time>2024-09-18T14:06:41Z</time>
      </trkpt>
      <trkpt lat="46.52348" lon="4.93652">
        <ele>188.8</ele>
        <time>2024-09-18T14:06:42Z</time>
      </trkpt>
      <trkpt lat="46.52344" lon="4.93655">
        <ele>188.6</ele>
        <time>2024-09-18T14:06:43Z</time>
      </trkpt>
      <trkpt lat="46.52339" lon="4.93658">
        <ele>188.6</ele>
        <time>2024-09-18T14:06:44Z</time>
      </trkpt>
      <trkpt lat="46.52335" lon="4.9366">
        <ele>188.6</ele>
        <time>2024-09-18T14:06:45Z</time>
      </trkpt>
      <trkpt lat="46.5233" lon="4.93662">
        <ele>188.2</ele>
        <time>2024-09-18T14:06:46Z</time>
      </trkpt>
      <trkpt lat="46.52326" lon="4.93664">
        <ele>188.2</ele>
        <time>2024-09-18T14:06:47Z</time>
      </trkpt>
      <trkpt lat="46.52321" lon="4.93666">
        <ele>187.8</ele>
        <time>2024-09-18T14:06:48Z</time>
      </trkpt>
      <trkpt lat="46.52317" lon="4.93667">
        <ele>187.8</ele>
        <time>2024-09-18T14:06:49Z</time>
      </trkpt>
      <trkpt lat="46.52313" lon="4.93668">
        <ele>187.8</ele>
        <time>2024-09-18T14:06:50Z</time>
      </trkpt>
      <trkpt lat="46.52309" lon="4.9367">
        <ele>188.6</ele>
        <time>2024-09-18T14:06:51Z</time>
      </trkpt>
      <trkpt lat="46.52304" lon="4.93671">
        <ele>188.8</ele>
        <time>2024-09-18T14:06:52Z</time>
      </trkpt>
      <trkpt lat="46.52299" lon="4.93672">
        <ele>188.8</ele>
        <time>2024-09-18T14:06:53Z</time>
      </trkpt>
      <trkpt lat="46.52295" lon="4.93673">
        <ele>188.8</ele>
        <time>2024-09-18T14:06:54Z</time>
      </trkpt>
      <trkpt lat="46.5229" lon="4.93674">
        <ele>188.8</ele>
        <time>2024-09-18T14:06:55Z</time>
      </trkpt>
      <trkpt lat="46.52285" lon="4.93675">
        <ele>188.8</ele>
        <time>2024-09-18T14:06:56Z</time>
      </trkpt>
      <trkpt lat="46.5228" lon="4.93676">
        <ele>188.8</ele>
        <time>2024-09-18T14:06:57Z</time>
      </trkpt>
      <trkpt lat="46.52276" lon="4.93677">
        <ele>188.8</ele>
        <time>2024-09-18T14:06:58Z</time>
      </trkpt>
      <trkpt lat="46.52271" lon="4.93678">
        <ele>188.8</ele>
        <time>2024-09-18T14:06:59Z</time>
      </trkpt>
      <trkpt lat="46.52266" lon="4.93679">
        <ele>188.2</ele>
        <time>2024-09-18T14:07:00Z</time>
      </trkpt>
      <trkpt lat="46.52261" lon="4.93681">
        <ele>188</ele>
        <time>2024-09-18T14:07:01Z</time>
      </trkpt>
      <trkpt lat="46.52257" lon="4.93682">
        <ele>188</ele>
        <time>2024-09-18T14:07:02Z</time>
      </trkpt>
      <trkpt lat="46.52252" lon="4.93683">
        <ele>188</ele>
        <time>2024-09-18T14:07:03Z</time>
      </trkpt>
      <trkpt lat="46.52248" lon="4.93685">
        <ele>188</ele>
        <time>2024-09-18T14:07:04Z</time>
      </trkpt>
      <trkpt lat="46.52243" lon="4.93685">
        <ele>188.8</ele>
        <time>2024-09-18T14:07:05Z</time>
      </trkpt>
      <trkpt lat="46.52239" lon="4.93686">
        <ele>188.8</ele>
        <time>2024-09-18T14:07:06Z</time>
      </trkpt>
      <trkpt lat="46.52234" lon="4.93687">
        <ele>188.8</ele>
        <time>2024-09-18T14:07:07Z</time>
      </trkpt>
      <trkpt lat="46.5223" lon="4.93687">
        <ele>188.4</ele>
        <time>2024-09-18T14:07:08Z</time>
      </trkpt>
      <trkpt lat="46.52226" lon="4.93688">
        <ele>188.4</ele>
        <time>2024-09-18T14:07:09Z</time>
      </trkpt>
      <trkpt lat="46.52219" lon="4.93689">
        <ele>187.8</ele>
        <time>2024-09-18T14:07:10Z</time>
      </trkpt>
      <trkpt lat="46.52217" lon="4.93689">
        <ele>187.8</ele>
        <time>2024-09-18T14:07:11Z</time>
      </trkpt>
      <trkpt lat="46.52213" lon="4.93689">
        <ele>187.8</ele>
        <time>2024-09-18T14:07:12Z</time>
      </trkpt>
      <trkpt lat="46.52208" lon="4.93689">
        <ele>187.8</ele>
        <time>2024-09-18T14:07:13Z</time>
      </trkpt>
      <trkpt lat="46.52204" lon="4.93689">
        <ele>187.8</ele>
        <time>2024-09-18T14:07:14Z</time>
      </trkpt>
      <trkpt lat="46.522" lon="4.93689">
        <ele>188.8</ele>
        <time>2024-09-18T14:07:15Z</time>
      </trkpt>
      <trkpt lat="46.52195" lon="4.93689">
        <ele>188.8</ele>
        <time>2024-09-18T14:07:16Z</time>
      </trkpt>
      <trkpt lat="46.52191" lon="4.93689">
        <ele>188.8</ele>
        <time>2024-09-18T14:07:17Z</time>
      </trkpt>
      <trkpt lat="46.52187" lon="4.93689">
        <ele>188.8</ele>
        <time>2024-09-18T14:07:18Z</time>
      </trkpt>
      <trkpt lat="46.52183" lon="4.93689">
        <ele>189</ele>
        <time>2024-09-18T14:07:19Z</time>
      </trkpt>
      <trkpt lat="46.52178" lon="4.93689">
        <ele>189</ele>
        <time>2024-09-18T14:07:20Z</time>
      </trkpt>
      <trkpt lat="46.52174" lon="4.9369">
        <ele>189</ele>
        <time>2024-09-18T14:07:21Z</time>
      </trkpt>
      <trkpt lat="46.52169" lon="4.9369">
        <ele>189</ele>
        <time>2024-09-18T14:07:22Z</time>
      </trkpt>
      <trkpt lat="46.52165" lon="4.9369">
        <ele>189.4</ele>
        <time>2024-09-18T14:07:23Z</time>
      </trkpt>
      <trkpt lat="46.5216" lon="4.9369">
        <ele>189.4</ele>
        <time>2024-09-18T14:07:24Z</time>
      </trkpt>
      <trkpt lat="46.52156" lon="4.93691">
        <ele>189.4</ele>
        <time>2024-09-18T14:07:25Z</time>
      </trkpt>
      <trkpt lat="46.52151" lon="4.93691">
        <ele>189.4</ele>
        <time>2024-09-18T14:07:26Z</time>
      </trkpt>
      <trkpt lat="46.52147" lon="4.93691">
        <ele>188.4</ele>
        <time>2024-09-18T14:07:27Z</time>
      </trkpt>
      <trkpt lat="46.52142" lon="4.93691">
        <ele>188.2</ele>
        <time>2024-09-18T14:07:28Z</time>
      </trkpt>
      <trkpt lat="46.52137" lon="4.93692">
        <ele>188.2</ele>
        <time>2024-09-18T14:07:29Z</time>
      </trkpt>
      <trkpt lat="46.52133" lon="4.93693">
        <ele>188.2</ele>
        <time>2024-09-18T14:07:30Z</time>
      </trkpt>
      <trkpt lat="46.52128" lon="4.93693">
        <ele>188.6</ele>
        <time>2024-09-18T14:07:31Z</time>
      </trkpt>
      <trkpt lat="46.52124" lon="4.93694">
        <ele>188.8</ele>
        <time>2024-09-18T14:07:32Z</time>
      </trkpt>
      <trkpt lat="46.5212" lon="4.93694">
        <ele>188.8</ele>
        <time>2024-09-18T14:07:33Z</time>
      </trkpt>
      <trkpt lat="46.52116" lon="4.93695">
        <ele>188.8</ele>
        <time>2024-09-18T14:07:34Z</time>
      </trkpt>
      <trkpt lat="46.52112" lon="4.93696">
        <ele>189.4</ele>
        <time>2024-09-18T14:07:35Z</time>
      </trkpt>
      <trkpt lat="46.52108" lon="4.93697">
        <ele>189.4</ele>
        <time>2024-09-18T14:07:36Z</time>
      </trkpt>
      <trkpt lat="46.52103" lon="4.93698">
        <ele>189.4</ele>
        <time>2024-09-18T14:07:37Z</time>
      </trkpt>
      <trkpt lat="46.52097" lon="4.93699">
        <ele>189.4</ele>
        <time>2024-09-18T14:07:38Z</time>
      </trkpt>
      <trkpt lat="46.52095" lon="4.93699">
        <ele>189.4</ele>
        <time>2024-09-18T14:07:39Z</time>
      </trkpt>
      <trkpt lat="46.52088" lon="4.937">
        <ele>189.4</ele>
        <time>2024-09-18T14:07:40Z</time>
      </trkpt>
      <trkpt lat="46.52086" lon="4.93701">
        <ele>189</ele>
        <time>2024-09-18T14:07:41Z</time>
      </trkpt>
      <trkpt lat="46.52079" lon="4.93702">
        <ele>189</ele>
        <time>2024-09-18T14:07:42Z</time>
      </trkpt>
      <trkpt lat="46.52077" lon="4.93702">
        <ele>189</ele>
        <time>2024-09-18T14:07:43Z</time>
      </trkpt>
      <trkpt lat="46.52072" lon="4.93703">
        <ele>188.4</ele>
        <time>2024-09-18T14:07:44Z</time>
      </trkpt>
      <trkpt lat="46.52068" lon="4.93704">
        <ele>188.4</ele>
        <time>2024-09-18T14:07:45Z</time>
      </trkpt>
      <trkpt lat="46.52063" lon="4.93705">
        <ele>188.4</ele>
        <time>2024-09-18T14:07:46Z</time>
      </trkpt>
      <trkpt lat="46.52059" lon="4.93705">
        <ele>188.4</ele>
        <time>2024-09-18T14:07:47Z</time>
      </trkpt>
      <trkpt lat="46.52054" lon="4.93706">
        <ele>188.4</ele>
        <time>2024-09-18T14:07:48Z</time>
      </trkpt>
      <trkpt lat="46.5205" lon="4.93706">
        <ele>189</ele>
        <time>2024-09-18T14:07:49Z</time>
      </trkpt>
      <trkpt lat="46.52045" lon="4.93706">
        <ele>189</ele>
        <time>2024-09-18T14:07:50Z</time>
      </trkpt>
      <trkpt lat="46.5204" lon="4.93706">
        <ele>189</ele>
        <time>2024-09-18T14:07:51Z</time>
      </trkpt>
      <trkpt lat="46.52035" lon="4.93706">
        <ele>189</ele>
        <time>2024-09-18T14:07:52Z</time>
      </trkpt>
      <trkpt lat="46.52031" lon="4.93706">
        <ele>189</ele>
        <time>2024-09-18T14:07:53Z</time>
      </trkpt>
      <trkpt lat="46.52027" lon="4.93706">
        <ele>188.8</ele>
        <time>2024-09-18T14:07:54Z</time>
      </trkpt>
      <trkpt lat="46.52023" lon="4.93705">
        <ele>188.8</ele>
        <time>2024-09-18T14:07:55Z</time>
      </trkpt>
      <trkpt lat="46.52018" lon="4.93705">
        <ele>188.8</ele>
        <time>2024-09-18T14:07:56Z</time>
      </trkpt>
      <trkpt lat="46.52014" lon="4.93705">
        <ele>188.8</ele>
        <time>2024-09-18T14:07:57Z</time>
      </trkpt>
      <trkpt lat="46.52011" lon="4.93705">
        <ele>189.4</ele>
        <time>2024-09-18T14:07:58Z</time>
      </trkpt>
      <trkpt lat="46.52007" lon="4.93705">
        <ele>188.4</ele>
        <time>2024-09-18T14:07:59Z</time>
      </trkpt>
      <trkpt lat="46.52002" lon="4.93704">
        <ele>188.4</ele>
        <time>2024-09-18T14:08:00Z</time>
      </trkpt>
      <trkpt lat="46.51998" lon="4.93702">
        <ele>188.4</ele>
        <time>2024-09-18T14:08:01Z</time>
      </trkpt>
      <trkpt lat="46.51994" lon="4.937">
        <ele>188.4</ele>
        <time>2024-09-18T14:08:02Z</time>
      </trkpt>
      <trkpt lat="46.51989" lon="4.93699">
        <ele>188.4</ele>
        <time>2024-09-18T14:08:03Z</time>
      </trkpt>
      <trkpt lat="46.51985" lon="4.93697">
        <ele>188.8</ele>
        <time>2024-09-18T14:08:04Z</time>
      </trkpt>
      <trkpt lat="46.5198" lon="4.93696">
        <ele>188.8</ele>
        <time>2024-09-18T14:08:05Z</time>
      </trkpt>
      <trkpt lat="46.51973" lon="4.93693">
        <ele>188.8</ele>
        <time>2024-09-18T14:08:06Z</time>
      </trkpt>
      <trkpt lat="46.5197" lon="4.93692">
        <ele>188.8</ele>
        <time>2024-09-18T14:08:07Z</time>
      </trkpt>
      <trkpt lat="46.51965" lon="4.93691">
        <ele>188.6</ele>
        <time>2024-09-18T14:08:08Z</time>
      </trkpt>
      <trkpt lat="46.5196" lon="4.93689">
        <ele>188.6</ele>
        <time>2024-09-18T14:08:09Z</time>
      </trkpt>
      <trkpt lat="46.51955" lon="4.93688">
        <ele>188.6</ele>
        <time>2024-09-18T14:08:10Z</time>
      </trkpt>
      <trkpt lat="46.51949" lon="4.93687">
        <ele>189.2</ele>
        <time>2024-09-18T14:08:11Z</time>
      </trkpt>
      <trkpt lat="46.51945" lon="4.93686">
        <ele>189.2</ele>
        <time>2024-09-18T14:08:12Z</time>
      </trkpt>
      <trkpt lat="46.5194" lon="4.93684">
        <ele>188.6</ele>
        <time>2024-09-18T14:08:13Z</time>
      </trkpt>
      <trkpt lat="46.51935" lon="4.93683">
        <ele>188.6</ele>
        <time>2024-09-18T14:08:14Z</time>
      </trkpt>
      <trkpt lat="46.51931" lon="4.93682">
        <ele>188.6</ele>
        <time>2024-09-18T14:08:15Z</time>
      </trkpt>
      <trkpt lat="46.51926" lon="4.93681">
        <ele>188.6</ele>
        <time>2024-09-18T14:08:16Z</time>
      </trkpt>
      <trkpt lat="46.51922" lon="4.9368">
        <ele>189</ele>
        <time>2024-09-18T14:08:17Z</time>
      </trkpt>
      <trkpt lat="46.51917" lon="4.93678">
        <ele>189</ele>
        <time>2024-09-18T14:08:18Z</time>
      </trkpt>
      <trkpt lat="46.51913" lon="4.93677">
        <ele>189</ele>
        <time>2024-09-18T14:08:19Z</time>
      </trkpt>
      <trkpt lat="46.51908" lon="4.93676">
        <ele>189</ele>
        <time>2024-09-18T14:08:20Z</time>
      </trkpt>
      <trkpt lat="46.51904" lon="4.93674">
        <ele>188.8</ele>
        <time>2024-09-18T14:08:21Z</time>
      </trkpt>
      <trkpt lat="46.51898" lon="4.93672">
        <ele>188.8</ele>
        <time>2024-09-18T14:08:22Z</time>
      </trkpt>
      <trkpt lat="46.51896" lon="4.93672">
        <ele>188.8</ele>
        <time>2024-09-18T14:08:23Z</time>
      </trkpt>
      <trkpt lat="46.51889" lon="4.93669">
        <ele>188.8</ele>
        <time>2024-09-18T14:08:24Z</time>
      </trkpt>
      <trkpt lat="46.51886" lon="4.93668">
        <ele>189.2</ele>
        <time>2024-09-18T14:08:25Z</time>
      </trkpt>
      <trkpt lat="46.51879" lon="4.93666">
        <ele>189.2</ele>
        <time>2024-09-18T14:08:26Z</time>
      </trkpt>
      <trkpt lat="46.51877" lon="4.93666">
        <ele>189.2</ele>
        <time>2024-09-18T14:08:27Z</time>
      </trkpt>
      <trkpt lat="46.51873" lon="4.93664">
        <ele>189.2</ele>
        <time>2024-09-18T14:08:28Z</time>
      </trkpt>
      <trkpt lat="46.51869" lon="4.93662">
        <ele>189.8</ele>
        <time>2024-09-18T14:08:29Z</time>
      </trkpt>
      <trkpt lat="46.51864" lon="4.9366">
        <ele>189.6</ele>
        <time>2024-09-18T14:08:30Z</time>
      </trkpt>
      <trkpt lat="46.5186" lon="4.93659">
        <ele>189.6</ele>
        <time>2024-09-18T14:08:31Z</time>
      </trkpt>
      <trkpt lat="46.51855" lon="4.93658">
        <ele>189.6</ele>
        <time>2024-09-18T14:08:32Z</time>
      </trkpt>
      <trkpt lat="46.51851" lon="4.93656">
        <ele>189.6</ele>
        <time>2024-09-18T14:08:33Z</time>
      </trkpt>
      <trkpt lat="46.51846" lon="4.93655">
        <ele>189</ele>
        <time>2024-09-18T14:08:34Z</time>
      </trkpt>
      <trkpt lat="46.51842" lon="4.93653">
        <ele>188.8</ele>
        <time>2024-09-18T14:08:35Z</time>
      </trkpt>
      <trkpt lat="46.51837" lon="4.93651">
        <ele>188.8</ele>
        <time>2024-09-18T14:08:36Z</time>
      </trkpt>
      <trkpt lat="46.5183" lon="4.93649">
        <ele>188.8</ele>
        <time>2024-09-18T14:08:37Z</time>
      </trkpt>
      <trkpt lat="46.51828" lon="4.93648">
        <ele>189.2</ele>
        <time>2024-09-18T14:08:38Z</time>
      </trkpt>
      <trkpt lat="46.51824" lon="4.93647">
        <ele>189.2</ele>
        <time>2024-09-18T14:08:39Z</time>
      </trkpt>
      <trkpt lat="46.51819" lon="4.93646">
        <ele>188.8</ele>
        <time>2024-09-18T14:08:40Z</time>
      </trkpt>
      <trkpt lat="46.51815" lon="4.93644">
        <ele>188.8</ele>
        <time>2024-09-18T14:08:41Z</time>
      </trkpt>
      <trkpt lat="46.51811" lon="4.93642">
        <ele>188.8</ele>
        <time>2024-09-18T14:08:42Z</time>
      </trkpt>
      <trkpt lat="46.51806" lon="4.9364">
        <ele>188.8</ele>
        <time>2024-09-18T14:08:43Z</time>
      </trkpt>
      <trkpt lat="46.51802" lon="4.93639">
        <ele>189.2</ele>
        <time>2024-09-18T14:08:44Z</time>
      </trkpt>
      <trkpt lat="46.51798" lon="4.93637">
        <ele>189.2</ele>
        <time>2024-09-18T14:08:45Z</time>
      </trkpt>
      <trkpt lat="46.51793" lon="4.93635">
        <ele>189.2</ele>
        <time>2024-09-18T14:08:46Z</time>
      </trkpt>
      <trkpt lat="46.51789" lon="4.93634">
        <ele>188.6</ele>
        <time>2024-09-18T14:08:47Z</time>
      </trkpt>
      <trkpt lat="46.51785" lon="4.93632">
        <ele>188.8</ele>
        <time>2024-09-18T14:08:48Z</time>
      </trkpt>
      <trkpt lat="46.51781" lon="4.9363">
        <ele>188.8</ele>
        <time>2024-09-18T14:08:49Z</time>
      </trkpt>
      <trkpt lat="46.51775" lon="4.93627">
        <ele>188.8</ele>
        <time>2024-09-18T14:08:50Z</time>
      </trkpt>
      <trkpt lat="46.51773" lon="4.93626">
        <ele>188.8</ele>
        <time>2024-09-18T14:08:51Z</time>
      </trkpt>
      <trkpt lat="46.51769" lon="4.93624">
        <ele>189.2</ele>
        <time>2024-09-18T14:08:52Z</time>
      </trkpt>
      <trkpt lat="46.51765" lon="4.93621">
        <ele>189.6</ele>
        <time>2024-09-18T14:08:53Z</time>
      </trkpt>
      <trkpt lat="46.51761" lon="4.93618">
        <ele>189.6</ele>
        <time>2024-09-18T14:08:54Z</time>
      </trkpt>
      <trkpt lat="46.51756" lon="4.93616">
        <ele>189.6</ele>
        <time>2024-09-18T14:08:55Z</time>
      </trkpt>
      <trkpt lat="46.51752" lon="4.93614">
        <ele>188.6</ele>
        <time>2024-09-18T14:08:56Z</time>
      </trkpt>
      <trkpt lat="46.51747" lon="4.93611">
        <ele>189</ele>
        <time>2024-09-18T14:08:57Z</time>
      </trkpt>
      <trkpt lat="46.51743" lon="4.93608">
        <ele>189</ele>
        <time>2024-09-18T14:08:58Z</time>
      </trkpt>
      <trkpt lat="46.51738" lon="4.93606">
        <ele>189</ele>
        <time>2024-09-18T14:08:59Z</time>
      </trkpt>
      <trkpt lat="46.51733" lon="4.93604">
        <ele>189</ele>
        <time>2024-09-18T14:09:00Z</time>
      </trkpt>
      <trkpt lat="46.51729" lon="4.93601">
        <ele>189</ele>
        <time>2024-09-18T14:09:01Z</time>
      </trkpt>
      <trkpt lat="46.51724" lon="4.93598">
        <ele>189.4</ele>
        <time>2024-09-18T14:09:02Z</time>
      </trkpt>
      <trkpt lat="46.51717" lon="4.93594">
        <ele>189.4</ele>
        <time>2024-09-18T14:09:03Z</time>
      </trkpt>
      <trkpt lat="46.51715" lon="4.93593">
        <ele>189.4</ele>
        <time>2024-09-18T14:09:04Z</time>
      </trkpt>
      <trkpt lat="46.51709" lon="4.93589">
        <ele>188.8</ele>
        <time>2024-09-18T14:09:05Z</time>
      </trkpt>
      <trkpt lat="46.51706" lon="4.93588">
        <ele>188.4</ele>
        <time>2024-09-18T14:09:06Z</time>
      </trkpt>
      <trkpt lat="46.517" lon="4.93583">
        <ele>188.4</ele>
        <time>2024-09-18T14:09:07Z</time>
      </trkpt>
      <trkpt lat="46.51698" lon="4.93582">
        <ele>188.4</ele>
        <time>2024-09-18T14:09:08Z</time>
      </trkpt>
      <trkpt lat="46.51694" lon="4.93579">
        <ele>188.4</ele>
        <time>2024-09-18T14:09:09Z</time>
      </trkpt>
      <trkpt lat="46.51689" lon="4.93576">
        <ele>188.6</ele>
        <time>2024-09-18T14:09:10Z</time>
      </trkpt>
      <trkpt lat="46.51685" lon="4.93574">
        <ele>188.6</ele>
        <time>2024-09-18T14:09:11Z</time>
      </trkpt>
      <trkpt lat="46.51681" lon="4.93571">
        <ele>188.6</ele>
        <time>2024-09-18T14:09:12Z</time>
      </trkpt>
      <trkpt lat="46.51676" lon="4.93569">
        <ele>188.6</ele>
        <time>2024-09-18T14:09:13Z</time>
      </trkpt>
      <trkpt lat="46.51672" lon="4.93566">
        <ele>188.6</ele>
        <time>2024-09-18T14:09:14Z</time>
      </trkpt>
      <trkpt lat="46.51667" lon="4.93563">
        <ele>189.2</ele>
        <time>2024-09-18T14:09:15Z</time>
      </trkpt>
      <trkpt lat="46.51663" lon="4.9356">
        <ele>189.2</ele>
        <time>2024-09-18T14:09:16Z</time>
      </trkpt>
      <trkpt lat="46.51658" lon="4.93557">
        <ele>189.2</ele>
        <time>2024-09-18T14:09:17Z</time>
      </trkpt>
      <trkpt lat="46.51654" lon="4.93554">
        <ele>189.2</ele>
        <time>2024-09-18T14:09:18Z</time>
      </trkpt>
      <trkpt lat="46.51649" lon="4.93551">
        <ele>189.2</ele>
        <time>2024-09-18T14:09:19Z</time>
      </trkpt>
      <trkpt lat="46.51645" lon="4.93547">
        <ele>188.6</ele>
        <time>2024-09-18T14:09:20Z</time>
      </trkpt>
      <trkpt lat="46.51641" lon="4.93544">
        <ele>188.6</ele>
        <time>2024-09-18T14:09:21Z</time>
      </trkpt>
      <trkpt lat="46.51637" lon="4.93541">
        <ele>188.6</ele>
        <time>2024-09-18T14:09:22Z</time>
      </trkpt>
      <trkpt lat="46.51633" lon="4.93538">
        <ele>188.6</ele>
        <time>2024-09-18T14:09:23Z</time>
      </trkpt>
      <trkpt lat="46.51629" lon="4.93534">
        <ele>189.4</ele>
        <time>2024-09-18T14:09:24Z</time>
      </trkpt>
      <trkpt lat="46.51625" lon="4.93531">
        <ele>189.4</ele>
        <time>2024-09-18T14:09:25Z</time>
      </trkpt>
      <trkpt lat="46.5162" lon="4.93527">
        <ele>189.4</ele>
        <time>2024-09-18T14:09:26Z</time>
      </trkpt>
      <trkpt lat="46.51616" lon="4.93524">
        <ele>189.4</ele>
        <time>2024-09-18T14:09:27Z</time>
      </trkpt>
      <trkpt lat="46.51612" lon="4.9352">
        <ele>189.4</ele>
        <time>2024-09-18T14:09:28Z</time>
      </trkpt>
      <trkpt lat="46.51608" lon="4.93517">
        <ele>188.6</ele>
        <time>2024-09-18T14:09:29Z</time>
      </trkpt>
      <trkpt lat="46.51604" lon="4.93513">
        <ele>188.6</ele>
        <time>2024-09-18T14:09:30Z</time>
      </trkpt>
      <trkpt lat="46.516" lon="4.93509">
        <ele>188.6</ele>
        <time>2024-09-18T14:09:31Z</time>
      </trkpt>
      <trkpt lat="46.51596" lon="4.93505">
        <ele>188.6</ele>
        <time>2024-09-18T14:09:32Z</time>
      </trkpt>
      <trkpt lat="46.51591" lon="4.93501">
        <ele>189.2</ele>
        <time>2024-09-18T14:09:33Z</time>
      </trkpt>
      <trkpt lat="46.51587" lon="4.93498">
        <ele>189.2</ele>
        <time>2024-09-18T14:09:34Z</time>
      </trkpt>
      <trkpt lat="46.51583" lon="4.93494">
        <ele>189.2</ele>
        <time>2024-09-18T14:09:35Z</time>
      </trkpt>
      <trkpt lat="46.51579" lon="4.9349">
        <ele>189.2</ele>
        <time>2024-09-18T14:09:36Z</time>
      </trkpt>
      <trkpt lat="46.51575" lon="4.93487">
        <ele>189.2</ele>
        <time>2024-09-18T14:09:37Z</time>
      </trkpt>
      <trkpt lat="46.51571" lon="4.93483">
        <ele>188.4</ele>
        <time>2024-09-18T14:09:38Z</time>
      </trkpt>
      <trkpt lat="46.51567" lon="4.93479">
        <ele>188.4</ele>
        <time>2024-09-18T14:09:39Z</time>
      </trkpt>
      <trkpt lat="46.51563" lon="4.93476">
        <ele>188.4</ele>
        <time>2024-09-18T14:09:40Z</time>
      </trkpt>
      <trkpt lat="46.51559" lon="4.93472">
        <ele>188.6</ele>
        <time>2024-09-18T14:09:41Z</time>
      </trkpt>
      <trkpt lat="46.51556" lon="4.93468">
        <ele>188.8</ele>
        <time>2024-09-18T14:09:42Z</time>
      </trkpt>
      <trkpt lat="46.51552" lon="4.93463">
        <ele>188.8</ele>
        <time>2024-09-18T14:09:43Z</time>
      </trkpt>
      <trkpt lat="46.51548" lon="4.93459">
        <ele>188.8</ele>
        <time>2024-09-18T14:09:44Z</time>
      </trkpt>
      <trkpt lat="46.51544" lon="4.93455">
        <ele>188.8</ele>
        <time>2024-09-18T14:09:45Z</time>
      </trkpt>
      <trkpt lat="46.51539" lon="4.93448">
        <ele>189</ele>
        <time>2024-09-18T14:09:46Z</time>
      </trkpt>
      <trkpt lat="46.51537" lon="4.93446">
        <ele>189</ele>
        <time>2024-09-18T14:09:47Z</time>
      </trkpt>
      <trkpt lat="46.51532" lon="4.9344">
        <ele>189</ele>
        <time>2024-09-18T14:09:48Z</time>
      </trkpt>
      <trkpt lat="46.5153" lon="4.93438">
        <ele>189</ele>
        <time>2024-09-18T14:09:49Z</time>
      </trkpt>
      <trkpt lat="46.51525" lon="4.93432">
        <ele>189</ele>
        <time>2024-09-18T14:09:50Z</time>
      </trkpt>
      <trkpt lat="46.51523" lon="4.9343">
        <ele>189.2</ele>
        <time>2024-09-18T14:09:51Z</time>
      </trkpt>
      <trkpt lat="46.51519" lon="4.93425">
        <ele>189.2</ele>
        <time>2024-09-18T14:09:52Z</time>
      </trkpt>
      <trkpt lat="46.51515" lon="4.93421">
        <ele>189.2</ele>
        <time>2024-09-18T14:09:53Z</time>
      </trkpt>
      <trkpt lat="46.51511" lon="4.93416">
        <ele>189</ele>
        <time>2024-09-18T14:09:54Z</time>
      </trkpt>
      <trkpt lat="46.51508" lon="4.93412">
        <ele>185.8</ele>
        <time>2024-09-18T14:09:55Z</time>
      </trkpt>
      <trkpt lat="46.51502" lon="4.93405">
        <ele>185.8</ele>
        <time>2024-09-18T14:09:56Z</time>
      </trkpt>
      <trkpt lat="46.515" lon="4.93403">
        <ele>185.8</ele>
        <time>2024-09-18T14:09:57Z</time>
      </trkpt>
      <trkpt lat="46.51496" lon="4.93398">
        <ele>185.8</ele>
        <time>2024-09-18T14:09:58Z</time>
      </trkpt>
      <trkpt lat="46.51491" lon="4.93393">
        <ele>185.8</ele>
        <time>2024-09-18T14:09:59Z</time>
      </trkpt>
      <trkpt lat="46.51489" lon="4.93391">
        <ele>185.8</ele>
        <time>2024-09-18T14:10:00Z</time>
      </trkpt>
      <trkpt lat="46.51485" lon="4.93388">
        <ele>192.6</ele>
        <time>2024-09-18T14:10:01Z</time>
      </trkpt>
      <trkpt lat="46.51481" lon="4.93384">
        <ele>192.6</ele>
        <time>2024-09-18T14:10:02Z</time>
      </trkpt>
      <trkpt lat="46.51476" lon="4.9338">
        <ele>192.6</ele>
        <time>2024-09-18T14:10:03Z</time>
      </trkpt>
      <trkpt lat="46.51472" lon="4.93376">
        <ele>191.6</ele>
        <time>2024-09-18T14:10:04Z</time>
      </trkpt>
      <trkpt lat="46.51467" lon="4.93371">
        <ele>189.2</ele>
        <time>2024-09-18T14:10:05Z</time>
      </trkpt>
      <trkpt lat="46.51463" lon="4.93367">
        <ele>189.2</ele>
        <time>2024-09-18T14:10:06Z</time>
      </trkpt>
      <trkpt lat="46.51459" lon="4.93362">
        <ele>189.2</ele>
        <time>2024-09-18T14:10:07Z</time>
      </trkpt>
      <trkpt lat="46.51454" lon="4.93358">
        <ele>189.2</ele>
        <time>2024-09-18T14:10:08Z</time>
      </trkpt>
      <trkpt lat="46.5145" lon="4.93353">
        <ele>188.6</ele>
        <time>2024-09-18T14:10:09Z</time>
      </trkpt>
      <trkpt lat="46.51444" lon="4.93346">
        <ele>188.4</ele>
        <time>2024-09-18T14:10:10Z</time>
      </trkpt>
      <trkpt lat="46.51442" lon="4.93344">
        <ele>188.4</ele>
        <time>2024-09-18T14:10:11Z</time>
      </trkpt>
      <trkpt lat="46.51439" lon="4.93339">
        <ele>188.4</ele>
        <time>2024-09-18T14:10:12Z</time>
      </trkpt>
      <trkpt lat="46.51435" lon="4.93334">
        <ele>188.4</ele>
        <time>2024-09-18T14:10:13Z</time>
      </trkpt>
      <trkpt lat="46.51431" lon="4.9333">
        <ele>190</ele>
        <time>2024-09-18T14:10:14Z</time>
      </trkpt>
      <trkpt lat="46.51427" lon="4.93326">
        <ele>190</ele>
        <time>2024-09-18T14:10:15Z</time>
      </trkpt>
      <trkpt lat="46.51423" lon="4.93321">
        <ele>190</ele>
        <time>2024-09-18T14:10:16Z</time>
      </trkpt>
      <trkpt lat="46.51419" lon="4.93317">
        <ele>189.6</ele>
        <time>2024-09-18T14:10:17Z</time>
      </trkpt>
      <trkpt lat="46.51415" lon="4.93312">
        <ele>189.6</ele>
        <time>2024-09-18T14:10:18Z</time>
      </trkpt>
      <trkpt lat="46.51411" lon="4.93308">
        <ele>189.6</ele>
        <time>2024-09-18T14:10:19Z</time>
      </trkpt>
      <trkpt lat="46.51407" lon="4.93304">
        <ele>189.6</ele>
        <time>2024-09-18T14:10:20Z</time>
      </trkpt>
      <trkpt lat="46.51403" lon="4.933">
        <ele>189.6</ele>
        <time>2024-09-18T14:10:21Z</time>
      </trkpt>
      <trkpt lat="46.51399" lon="4.93296">
        <ele>189.8</ele>
        <time>2024-09-18T14:10:22Z</time>
      </trkpt>
      <trkpt lat="46.51396" lon="4.93293">
        <ele>189.6</ele>
        <time>2024-09-18T14:10:23Z</time>
      </trkpt>
      <trkpt lat="46.51392" lon="4.93289">
        <ele>189.6</ele>
        <time>2024-09-18T14:10:24Z</time>
      </trkpt>
      <trkpt lat="46.51388" lon="4.93285">
        <ele>189.6</ele>
        <time>2024-09-18T14:10:25Z</time>
      </trkpt>
      <trkpt lat="46.51384" lon="4.93281">
        <ele>189.6</ele>
        <time>2024-09-18T14:10:26Z</time>
      </trkpt>
      <trkpt lat="46.51381" lon="4.93277">
        <ele>190</ele>
        <time>2024-09-18T14:10:27Z</time>
      </trkpt>
      <trkpt lat="46.51375" lon="4.93271">
        <ele>190</ele>
        <time>2024-09-18T14:10:28Z</time>
      </trkpt>
      <trkpt lat="46.51373" lon="4.93269">
        <ele>190</ele>
        <time>2024-09-18T14:10:29Z</time>
      </trkpt>
      <trkpt lat="46.51367" lon="4.93263">
        <ele>190</ele>
        <time>2024-09-18T14:10:30Z</time>
      </trkpt>
      <trkpt lat="46.51365" lon="4.93261">
        <ele>189.8</ele>
        <time>2024-09-18T14:10:31Z</time>
      </trkpt>
      <trkpt lat="46.51359" lon="4.93255">
        <ele>189.8</ele>
        <time>2024-09-18T14:10:32Z</time>
      </trkpt>
      <trkpt lat="46.51357" lon="4.93253">
        <ele>189.8</ele>
        <time>2024-09-18T14:10:33Z</time>
      </trkpt>
      <trkpt lat="46.51353" lon="4.93249">
        <ele>189.8</ele>
        <time>2024-09-18T14:10:34Z</time>
      </trkpt>
      <trkpt lat="46.5135" lon="4.93245">
        <ele>189.8</ele>
        <time>2024-09-18T14:10:35Z</time>
      </trkpt>
      <trkpt lat="46.51345" lon="4.93241">
        <ele>189.8</ele>
        <time>2024-09-18T14:10:36Z</time>
      </trkpt>
      <trkpt lat="46.51341" lon="4.93237">
        <ele>189.4</ele>
        <time>2024-09-18T14:10:37Z</time>
      </trkpt>
      <trkpt lat="46.51337" lon="4.93233">
        <ele>189.4</ele>
        <time>2024-09-18T14:10:38Z</time>
      </trkpt>
      <trkpt lat="46.51333" lon="4.9323">
        <ele>189.4</ele>
        <time>2024-09-18T14:10:39Z</time>
      </trkpt>
      <trkpt lat="46.51329" lon="4.93226">
        <ele>189.8</ele>
        <time>2024-09-18T14:10:40Z</time>
      </trkpt>
      <trkpt lat="46.51325" lon="4.93222">
        <ele>189.8</ele>
        <time>2024-09-18T14:10:41Z</time>
      </trkpt>
      <trkpt lat="46.51321" lon="4.93218">
        <ele>189.8</ele>
        <time>2024-09-18T14:10:42Z</time>
      </trkpt>
      <trkpt lat="46.51316" lon="4.93214">
        <ele>189.8</ele>
        <time>2024-09-18T14:10:43Z</time>
      </trkpt>
      <trkpt lat="46.51312" lon="4.93211">
        <ele>189.8</ele>
        <time>2024-09-18T14:10:44Z</time>
      </trkpt>
      <trkpt lat="46.51308" lon="4.93207">
        <ele>189.8</ele>
        <time>2024-09-18T14:10:45Z</time>
      </trkpt>
      <trkpt lat="46.51304" lon="4.93203">
        <ele>189.8</ele>
        <time>2024-09-18T14:10:46Z</time>
      </trkpt>
      <trkpt lat="46.513" lon="4.932">
        <ele>189.8</ele>
        <time>2024-09-18T14:10:47Z</time>
      </trkpt>
      <trkpt lat="46.51296" lon="4.93197">
        <ele>189.8</ele>
        <time>2024-09-18T14:10:48Z</time>
      </trkpt>
      <trkpt lat="46.51292" lon="4.93193">
        <ele>190</ele>
        <time>2024-09-18T14:10:49Z</time>
      </trkpt>
      <trkpt lat="46.51288" lon="4.93189">
        <ele>190</ele>
        <time>2024-09-18T14:10:50Z</time>
      </trkpt>
      <trkpt lat="46.51284" lon="4.93185">
        <ele>190</ele>
        <time>2024-09-18T14:10:51Z</time>
      </trkpt>
      <trkpt lat="46.5128" lon="4.93182">
        <ele>190</ele>
        <time>2024-09-18T14:10:52Z</time>
      </trkpt>
      <trkpt lat="46.51276" lon="4.93178">
        <ele>190</ele>
        <time>2024-09-18T14:10:53Z</time>
      </trkpt>
      <trkpt lat="46.51272" lon="4.93174">
        <ele>190</ele>
        <time>2024-09-18T14:10:54Z</time>
      </trkpt>
      <trkpt lat="46.51266" lon="4.93169">
        <ele>190</ele>
        <time>2024-09-18T14:10:55Z</time>
      </trkpt>
      <trkpt lat="46.51264" lon="4.93167">
        <ele>190</ele>
        <time>2024-09-18T14:10:56Z</time>
      </trkpt>
      <trkpt lat="46.5126" lon="4.93163">
        <ele>190</ele>
        <time>2024-09-18T14:10:57Z</time>
      </trkpt>
      <trkpt lat="46.51256" lon="4.93159">
        <ele>190</ele>
        <time>2024-09-18T14:10:58Z</time>
      </trkpt>
      <trkpt lat="46.51252" lon="4.93156">
        <ele>190</ele>
        <time>2024-09-18T14:10:59Z</time>
      </trkpt>
      <trkpt lat="46.51248" lon="4.93152">
        <ele>190</ele>
        <time>2024-09-18T14:11:00Z</time>
      </trkpt>
      <trkpt lat="46.51244" lon="4.93147">
        <ele>190</ele>
        <time>2024-09-18T14:11:01Z</time>
      </trkpt>
      <trkpt lat="46.5124" lon="4.93143">
        <ele>190</ele>
        <time>2024-09-18T14:11:02Z</time>
      </trkpt>
      <trkpt lat="46.51236" lon="4.93139">
        <ele>189.6</ele>
        <time>2024-09-18T14:11:03Z</time>
      </trkpt>
      <trkpt lat="46.5123" lon="4.93133">
        <ele>189.6</ele>
        <time>2024-09-18T14:11:04Z</time>
      </trkpt>
      <trkpt lat="46.51228" lon="4.9313">
        <ele>189.6</ele>
        <time>2024-09-18T14:11:05Z</time>
      </trkpt>
      <trkpt lat="46.51222" lon="4.93124">
        <ele>189.6</ele>
        <time>2024-09-18T14:11:06Z</time>
      </trkpt>
      <trkpt lat="46.5122" lon="4.93122">
        <ele>190</ele>
        <time>2024-09-18T14:11:07Z</time>
      </trkpt>
      <trkpt lat="46.51214" lon="4.93116">
        <ele>189.8</ele>
        <time>2024-09-18T14:11:08Z</time>
      </trkpt>
      <trkpt lat="46.51212" lon="4.93114">
        <ele>189.8</ele>
        <time>2024-09-18T14:11:09Z</time>
      </trkpt>
      <trkpt lat="46.51206" lon="4.93108">
        <ele>189.8</ele>
        <time>2024-09-18T14:11:10Z</time>
      </trkpt>
      <trkpt lat="46.51204" lon="4.93107">
        <ele>189.8</ele>
        <time>2024-09-18T14:11:11Z</time>
      </trkpt>
      <trkpt lat="46.51197" lon="4.93101">
        <ele>189.8</ele>
        <time>2024-09-18T14:11:12Z</time>
      </trkpt>
      <trkpt lat="46.51195" lon="4.93099">
        <ele>189.8</ele>
        <time>2024-09-18T14:11:13Z</time>
      </trkpt>
      <trkpt lat="46.51188" lon="4.93094">
        <ele>189.8</ele>
        <time>2024-09-18T14:11:14Z</time>
      </trkpt>
      <trkpt lat="46.51186" lon="4.93092">
        <ele>189.8</ele>
        <time>2024-09-18T14:11:15Z</time>
      </trkpt>
      <trkpt lat="46.51181" lon="4.93089">
        <ele>189.6</ele>
        <time>2024-09-18T14:11:16Z</time>
      </trkpt>
      <trkpt lat="46.51177" lon="4.93085">
        <ele>189.6</ele>
        <time>2024-09-18T14:11:17Z</time>
      </trkpt>
      <trkpt lat="46.5117" lon="4.93081">
        <ele>189.8</ele>
        <time>2024-09-18T14:11:18Z</time>
      </trkpt>
      <trkpt lat="46.51168" lon="4.93079">
        <ele>189.8</ele>
        <time>2024-09-18T14:11:19Z</time>
      </trkpt>
      <trkpt lat="46.51163" lon="4.93076">
        <ele>189.8</ele>
        <time>2024-09-18T14:11:20Z</time>
      </trkpt>
      <trkpt lat="46.51159" lon="4.93073">
        <ele>189.6</ele>
        <time>2024-09-18T14:11:21Z</time>
      </trkpt>
      <trkpt lat="46.51154" lon="4.93069">
        <ele>189.4</ele>
        <time>2024-09-18T14:11:22Z</time>
      </trkpt>
      <trkpt lat="46.5115" lon="4.93065">
        <ele>189.4</ele>
        <time>2024-09-18T14:11:23Z</time>
      </trkpt>
      <trkpt lat="46.51146" lon="4.93061">
        <ele>189.4</ele>
        <time>2024-09-18T14:11:24Z</time>
      </trkpt>
      <trkpt lat="46.51142" lon="4.93058">
        <ele>189.6</ele>
        <time>2024-09-18T14:11:25Z</time>
      </trkpt>
      <trkpt lat="46.51138" lon="4.93054">
        <ele>189.6</ele>
        <time>2024-09-18T14:11:26Z</time>
      </trkpt>
      <trkpt lat="46.51134" lon="4.9305">
        <ele>189.6</ele>
        <time>2024-09-18T14:11:27Z</time>
      </trkpt>
      <trkpt lat="46.51129" lon="4.93047">
        <ele>189.6</ele>
        <time>2024-09-18T14:11:28Z</time>
      </trkpt>
      <trkpt lat="46.51125" lon="4.93043">
        <ele>189.6</ele>
        <time>2024-09-18T14:11:29Z</time>
      </trkpt>
      <trkpt lat="46.51121" lon="4.93039">
        <ele>189.6</ele>
        <time>2024-09-18T14:11:30Z</time>
      </trkpt>
      <trkpt lat="46.51116" lon="4.93036">
        <ele>189.8</ele>
        <time>2024-09-18T14:11:31Z</time>
      </trkpt>
      <trkpt lat="46.51112" lon="4.93032">
        <ele>189.8</ele>
        <time>2024-09-18T14:11:32Z</time>
      </trkpt>
      <trkpt lat="46.51108" lon="4.93029">
        <ele>189.8</ele>
        <time>2024-09-18T14:11:33Z</time>
      </trkpt>
      <trkpt lat="46.51103" lon="4.93025">
        <ele>189.8</ele>
        <time>2024-09-18T14:11:34Z</time>
      </trkpt>
      <trkpt lat="46.51099" lon="4.93022">
        <ele>189.6</ele>
        <time>2024-09-18T14:11:35Z</time>
      </trkpt>
      <trkpt lat="46.51095" lon="4.93019">
        <ele>189.6</ele>
        <time>2024-09-18T14:11:36Z</time>
      </trkpt>
      <trkpt lat="46.51091" lon="4.93017">
        <ele>189.6</ele>
        <time>2024-09-18T14:11:37Z</time>
      </trkpt>
      <trkpt lat="46.51086" lon="4.93014">
        <ele>189.6</ele>
        <time>2024-09-18T14:11:38Z</time>
      </trkpt>
      <trkpt lat="46.51081" lon="4.93011">
        <ele>190.2</ele>
        <time>2024-09-18T14:11:39Z</time>
      </trkpt>
      <trkpt lat="46.51077" lon="4.93009">
        <ele>190.2</ele>
        <time>2024-09-18T14:11:40Z</time>
      </trkpt>
      <trkpt lat="46.51073" lon="4.93007">
        <ele>190.2</ele>
        <time>2024-09-18T14:11:41Z</time>
      </trkpt>
      <trkpt lat="46.51069" lon="4.93004">
        <ele>190.2</ele>
        <time>2024-09-18T14:11:42Z</time>
      </trkpt>
      <trkpt lat="46.51065" lon="4.93002">
        <ele>189.8</ele>
        <time>2024-09-18T14:11:43Z</time>
      </trkpt>
      <trkpt lat="46.51061" lon="4.93">
        <ele>189.8</ele>
        <time>2024-09-18T14:11:44Z</time>
      </trkpt>
      <trkpt lat="46.51057" lon="4.92997">
        <ele>189.8</ele>
        <time>2024-09-18T14:11:45Z</time>
      </trkpt>
      <trkpt lat="46.51053" lon="4.92995">
        <ele>189.8</ele>
        <time>2024-09-18T14:11:46Z</time>
      </trkpt>
      <trkpt lat="46.5105" lon="4.92993">
        <ele>189.8</ele>
        <time>2024-09-18T14:11:47Z</time>
      </trkpt>
      <trkpt lat="46.51046" lon="4.9299">
        <ele>189.6</ele>
        <time>2024-09-18T14:11:48Z</time>
      </trkpt>
      <trkpt lat="46.51042" lon="4.92988">
        <ele>189.6</ele>
        <time>2024-09-18T14:11:49Z</time>
      </trkpt>
      <trkpt lat="46.51036" lon="4.92984">
        <ele>189.6</ele>
        <time>2024-09-18T14:11:50Z</time>
      </trkpt>
      <trkpt lat="46.51035" lon="4.92983">
        <ele>190</ele>
        <time>2024-09-18T14:11:51Z</time>
      </trkpt>
      <trkpt lat="46.51029" lon="4.92978">
        <ele>190</ele>
        <time>2024-09-18T14:11:52Z</time>
      </trkpt>
      <trkpt lat="46.51027" lon="4.92977">
        <ele>189.8</ele>
        <time>2024-09-18T14:11:53Z</time>
      </trkpt>
      <trkpt lat="46.5102" lon="4.92974">
        <ele>189.8</ele>
        <time>2024-09-18T14:11:54Z</time>
      </trkpt>
      <trkpt lat="46.51018" lon="4.92972">
        <ele>189.8</ele>
        <time>2024-09-18T14:11:55Z</time>
      </trkpt>
      <trkpt lat="46.51012" lon="4.92969">
        <ele>189.8</ele>
        <time>2024-09-18T14:11:56Z</time>
      </trkpt>
      <trkpt lat="46.5101" lon="4.92968">
        <ele>189.4</ele>
        <time>2024-09-18T14:11:57Z</time>
      </trkpt>
      <trkpt lat="46.51004" lon="4.92965">
        <ele>189.4</ele>
        <time>2024-09-18T14:11:58Z</time>
      </trkpt>
      <trkpt lat="46.51002" lon="4.92964">
        <ele>189.4</ele>
        <time>2024-09-18T14:11:59Z</time>
      </trkpt>
      <trkpt lat="46.50998" lon="4.92962">
        <ele>189.4</ele>
        <time>2024-09-18T14:12:00Z</time>
      </trkpt>
      <trkpt lat="46.50994" lon="4.9296">
        <ele>189.4</ele>
        <time>2024-09-18T14:12:01Z</time>
      </trkpt>
      <trkpt lat="46.50991" lon="4.92958">
        <ele>189.6</ele>
        <time>2024-09-18T14:12:02Z</time>
      </trkpt>
      <trkpt lat="46.50987" lon="4.92956">
        <ele>189.6</ele>
        <time>2024-09-18T14:12:03Z</time>
      </trkpt>
      <trkpt lat="46.50986" lon="4.92956">
        <ele>189.6</ele>
        <time>2024-09-18T14:12:04Z</time>
      </trkpt>
      <trkpt lat="46.50985" lon="4.92955">
        <ele>189.6</ele>
        <time>2024-09-18T14:12:05Z</time>
      </trkpt>
      <trkpt lat="46.50983" lon="4.92955">
        <ele>189.6</ele>
        <time>2024-09-18T14:12:06Z</time>
      </trkpt>
      <trkpt lat="46.50982" lon="4.92955">
        <ele>189.4</ele>
        <time>2024-09-18T14:12:07Z</time>
      </trkpt>
      <trkpt lat="46.50982" lon="4.92955">
        <ele>189.4</ele>
        <time>2024-09-18T14:12:08Z</time>
      </trkpt>
      <trkpt lat="46.50978" lon="4.92953">
        <ele>189</ele>
        <time>2024-09-18T14:14:14Z</time>
      </trkpt>
      <trkpt lat="46.50977" lon="4.92952">
        <ele>189</ele>
        <time>2024-09-18T14:14:15Z</time>
      </trkpt>
      <trkpt lat="46.50976" lon="4.92952">
        <ele>189</ele>
        <time>2024-09-18T14:14:16Z</time>
      </trkpt>
      <trkpt lat="46.50974" lon="4.92951">
        <ele>189.2</ele>
        <time>2024-09-18T14:14:17Z</time>
      </trkpt>
      <trkpt lat="46.50973" lon="4.9295">
        <ele>189.2</ele>
        <time>2024-09-18T14:14:18Z</time>
      </trkpt>
      <trkpt lat="46.50971" lon="4.9295">
        <ele>189.2</ele>
        <time>2024-09-18T14:14:19Z</time>
      </trkpt>
      <trkpt lat="46.50969" lon="4.92948">
        <ele>189.2</ele>
        <time>2024-09-18T14:14:20Z</time>
      </trkpt>
      <trkpt lat="46.50967" lon="4.92947">
        <ele>189.2</ele>
        <time>2024-09-18T14:14:21Z</time>
      </trkpt>
      <trkpt lat="46.50965" lon="4.92946">
        <ele>189.4</ele>
        <time>2024-09-18T14:14:22Z</time>
      </trkpt>
      <trkpt lat="46.50963" lon="4.92944">
        <ele>189.4</ele>
        <time>2024-09-18T14:14:23Z</time>
      </trkpt>
      <trkpt lat="46.5096" lon="4.92943">
        <ele>189.4</ele>
        <time>2024-09-18T14:14:24Z</time>
      </trkpt>
      <trkpt lat="46.50958" lon="4.92941">
        <ele>189.4</ele>
        <time>2024-09-18T14:14:25Z</time>
      </trkpt>
      <trkpt lat="46.50956" lon="4.92939">
        <ele>189.4</ele>
        <time>2024-09-18T14:14:26Z</time>
      </trkpt>
      <trkpt lat="46.50953" lon="4.92937">
        <ele>189.4</ele>
        <time>2024-09-18T14:14:27Z</time>
      </trkpt>
      <trkpt lat="46.5095" lon="4.92935">
        <ele>189.4</ele>
        <time>2024-09-18T14:14:28Z</time>
      </trkpt>
      <trkpt lat="46.50947" lon="4.92934">
        <ele>189.6</ele>
        <time>2024-09-18T14:14:29Z</time>
      </trkpt>
      <trkpt lat="46.50944" lon="4.92933">
        <ele>189.6</ele>
        <time>2024-09-18T14:14:30Z</time>
      </trkpt>
      <trkpt lat="46.50941" lon="4.92932">
        <ele>189.6</ele>
        <time>2024-09-18T14:14:31Z</time>
      </trkpt>
      <trkpt lat="46.50938" lon="4.9293">
        <ele>189.6</ele>
        <time>2024-09-18T14:14:32Z</time>
      </trkpt>
      <trkpt lat="46.50935" lon="4.92929">
        <ele>189.6</ele>
        <time>2024-09-18T14:14:33Z</time>
      </trkpt>
      <trkpt lat="46.50932" lon="4.92929">
        <ele>190</ele>
        <time>2024-09-18T14:14:34Z</time>
      </trkpt>
      <trkpt lat="46.50929" lon="4.92928">
        <ele>189.8</ele>
        <time>2024-09-18T14:14:35Z</time>
      </trkpt>
      <trkpt lat="46.50923" lon="4.92926">
        <ele>189.8</ele>
        <time>2024-09-18T14:14:36Z</time>
      </trkpt>
      <trkpt lat="46.50921" lon="4.92925">
        <ele>189.8</ele>
        <time>2024-09-18T14:14:37Z</time>
      </trkpt>
      <trkpt lat="46.50916" lon="4.92923">
        <ele>190</ele>
        <time>2024-09-18T14:14:38Z</time>
      </trkpt>
      <trkpt lat="46.50914" lon="4.92923">
        <ele>190</ele>
        <time>2024-09-18T14:14:39Z</time>
      </trkpt>
      <trkpt lat="46.50908" lon="4.9292">
        <ele>190</ele>
        <time>2024-09-18T14:14:40Z</time>
      </trkpt>
      <trkpt lat="46.50906" lon="4.92919">
        <ele>190</ele>
        <time>2024-09-18T14:14:41Z</time>
      </trkpt>
      <trkpt lat="46.509" lon="4.92917">
        <ele>190.2</ele>
        <time>2024-09-18T14:14:42Z</time>
      </trkpt>
      <trkpt lat="46.50898" lon="4.92916">
        <ele>190</ele>
        <time>2024-09-18T14:14:43Z</time>
      </trkpt>
      <trkpt lat="46.50892" lon="4.92913">
        <ele>190</ele>
        <time>2024-09-18T14:14:44Z</time>
      </trkpt>
      <trkpt lat="46.5089" lon="4.92912">
        <ele>190</ele>
        <time>2024-09-18T14:14:45Z</time>
      </trkpt>
      <trkpt lat="46.50883" lon="4.92908">
        <ele>190</ele>
        <time>2024-09-18T14:14:46Z</time>
      </trkpt>
      <trkpt lat="46.50881" lon="4.92907">
        <ele>190</ele>
        <time>2024-09-18T14:14:47Z</time>
      </trkpt>
      <trkpt lat="46.50874" lon="4.92905">
        <ele>190</ele>
        <time>2024-09-18T14:14:48Z</time>
      </trkpt>
      <trkpt lat="46.50872" lon="4.92904">
        <ele>189.8</ele>
        <time>2024-09-18T14:14:49Z</time>
      </trkpt>
      <trkpt lat="46.50865" lon="4.92903">
        <ele>189.8</ele>
        <time>2024-09-18T14:14:50Z</time>
      </trkpt>
      <trkpt lat="46.50863" lon="4.92902">
        <ele>189.8</ele>
        <time>2024-09-18T14:14:51Z</time>
      </trkpt>
      <trkpt lat="46.50856" lon="4.92901">
        <ele>190</ele>
        <time>2024-09-18T14:14:52Z</time>
      </trkpt>
      <trkpt lat="46.50854" lon="4.929">
        <ele>189.8</ele>
        <time>2024-09-18T14:14:53Z</time>
      </trkpt>
      <trkpt lat="46.5085" lon="4.929">
        <ele>189.8</ele>
        <time>2024-09-18T14:14:54Z</time>
      </trkpt>
      <trkpt lat="46.50845" lon="4.92899">
        <ele>189.8</ele>
        <time>2024-09-18T14:14:55Z</time>
      </trkpt>
      <trkpt lat="46.50841" lon="4.92899">
        <ele>189.8</ele>
        <time>2024-09-18T14:14:56Z</time>
      </trkpt>
      <trkpt lat="46.50836" lon="4.92898">
        <ele>189.8</ele>
        <time>2024-09-18T14:14:57Z</time>
      </trkpt>
      <trkpt lat="46.50832" lon="4.92898">
        <ele>190</ele>
        <time>2024-09-18T14:14:58Z</time>
      </trkpt>
      <trkpt lat="46.50827" lon="4.92897">
        <ele>190</ele>
        <time>2024-09-18T14:14:59Z</time>
      </trkpt>
      <trkpt lat="46.50823" lon="4.92896">
        <ele>190</ele>
        <time>2024-09-18T14:15:00Z</time>
      </trkpt>
      <trkpt lat="46.50819" lon="4.92895">
        <ele>190</ele>
        <time>2024-09-18T14:15:01Z</time>
      </trkpt>
      <trkpt lat="46.50814" lon="4.92894">
        <ele>190</ele>
        <time>2024-09-18T14:15:02Z</time>
      </trkpt>
      <trkpt lat="46.5081" lon="4.92893">
        <ele>190</ele>
        <time>2024-09-18T14:15:03Z</time>
      </trkpt>
      <trkpt lat="46.50806" lon="4.92892">
        <ele>190</ele>
        <time>2024-09-18T14:15:04Z</time>
      </trkpt>
      <trkpt lat="46.50802" lon="4.9289">
        <ele>190</ele>
        <time>2024-09-18T14:15:05Z</time>
      </trkpt>
      <trkpt lat="46.50798" lon="4.92888">
        <ele>190</ele>
        <time>2024-09-18T14:15:06Z</time>
      </trkpt>
      <trkpt lat="46.50795" lon="4.92887">
        <ele>190.2</ele>
        <time>2024-09-18T14:15:07Z</time>
      </trkpt>
      <trkpt lat="46.50792" lon="4.92885">
        <ele>190.2</ele>
        <time>2024-09-18T14:15:08Z</time>
      </trkpt>
      <trkpt lat="46.50789" lon="4.92884">
        <ele>190.2</ele>
        <time>2024-09-18T14:15:09Z</time>
      </trkpt>
      <trkpt lat="46.50787" lon="4.92882">
        <ele>190.2</ele>
        <time>2024-09-18T14:15:10Z</time>
      </trkpt>
      <trkpt lat="46.50784" lon="4.92882">
        <ele>190.6</ele>
        <time>2024-09-18T14:15:11Z</time>
      </trkpt>
      <trkpt lat="46.50782" lon="4.92881">
        <ele>190.6</ele>
        <time>2024-09-18T14:15:12Z</time>
      </trkpt>
      <trkpt lat="46.50779" lon="4.92881">
        <ele>190.6</ele>
        <time>2024-09-18T14:15:13Z</time>
      </trkpt>
      <trkpt lat="46.50776" lon="4.92881">
        <ele>190.2</ele>
        <time>2024-09-18T14:15:14Z</time>
      </trkpt>
      <trkpt lat="46.50772" lon="4.9288">
        <ele>190</ele>
        <time>2024-09-18T14:15:15Z</time>
      </trkpt>
      <trkpt lat="46.50769" lon="4.9288">
        <ele>190</ele>
        <time>2024-09-18T14:15:16Z</time>
      </trkpt>
      <trkpt lat="46.50765" lon="4.92879">
        <ele>190</ele>
        <time>2024-09-18T14:15:17Z</time>
      </trkpt>
      <trkpt lat="46.50761" lon="4.92878">
        <ele>190</ele>
        <time>2024-09-18T14:15:18Z</time>
      </trkpt>
      <trkpt lat="46.50758" lon="4.92876">
        <ele>190</ele>
        <time>2024-09-18T14:15:19Z</time>
      </trkpt>
      <trkpt lat="46.50754" lon="4.92876">
        <ele>189.8</ele>
        <time>2024-09-18T14:15:20Z</time>
      </trkpt>
      <trkpt lat="46.5075" lon="4.92875">
        <ele>189.8</ele>
        <time>2024-09-18T14:15:21Z</time>
      </trkpt>
      <trkpt lat="46.50743" lon="4.92874">
        <ele>189.8</ele>
        <time>2024-09-18T14:15:22Z</time>
      </trkpt>
      <trkpt lat="46.50741" lon="4.92874">
        <ele>189.8</ele>
        <time>2024-09-18T14:15:23Z</time>
      </trkpt>
      <trkpt lat="46.50736" lon="4.92872">
        <ele>189.8</ele>
        <time>2024-09-18T14:15:24Z</time>
      </trkpt>
      <trkpt lat="46.50734" lon="4.92872">
        <ele>189.8</ele>
        <time>2024-09-18T14:15:25Z</time>
      </trkpt>
      <trkpt lat="46.50728" lon="4.9287">
        <ele>189.8</ele>
        <time>2024-09-18T14:15:26Z</time>
      </trkpt>
      <trkpt lat="46.50726" lon="4.9287">
        <ele>189.8</ele>
        <time>2024-09-18T14:15:27Z</time>
      </trkpt>
      <trkpt lat="46.50721" lon="4.92868">
        <ele>189.8</ele>
        <time>2024-09-18T14:15:28Z</time>
      </trkpt>
      <trkpt lat="46.5072" lon="4.92868">
        <ele>189.8</ele>
        <time>2024-09-18T14:15:29Z</time>
      </trkpt>
      <trkpt lat="46.50714" lon="4.92866">
        <ele>189.8</ele>
        <time>2024-09-18T14:15:30Z</time>
      </trkpt>
      <trkpt lat="46.50712" lon="4.92866">
        <ele>189.8</ele>
        <time>2024-09-18T14:15:31Z</time>
      </trkpt>
      <trkpt lat="46.50709" lon="4.92864">
        <ele>189.8</ele>
        <time>2024-09-18T14:15:32Z</time>
      </trkpt>
      <trkpt lat="46.50703" lon="4.92863">
        <ele>189.6</ele>
        <time>2024-09-18T14:15:33Z</time>
      </trkpt>
      <trkpt lat="46.50701" lon="4.92862">
        <ele>189.6</ele>
        <time>2024-09-18T14:15:34Z</time>
      </trkpt>
      <trkpt lat="46.50697" lon="4.92861">
        <ele>189.6</ele>
        <time>2024-09-18T14:15:35Z</time>
      </trkpt>
      <trkpt lat="46.50693" lon="4.92859">
        <ele>189.6</ele>
        <time>2024-09-18T14:15:36Z</time>
      </trkpt>
      <trkpt lat="46.50689" lon="4.92858">
        <ele>190</ele>
        <time>2024-09-18T14:15:37Z</time>
      </trkpt>
      <trkpt lat="46.50685" lon="4.92856">
        <ele>189.8</ele>
        <time>2024-09-18T14:15:38Z</time>
      </trkpt>
      <trkpt lat="46.50681" lon="4.92855">
        <ele>189.8</ele>
        <time>2024-09-18T14:15:39Z</time>
      </trkpt>
      <trkpt lat="46.50677" lon="4.92853">
        <ele>189.8</ele>
        <time>2024-09-18T14:15:40Z</time>
      </trkpt>
      <trkpt lat="46.50673" lon="4.92852">
        <ele>189.8</ele>
        <time>2024-09-18T14:15:41Z</time>
      </trkpt>
      <trkpt lat="46.50669" lon="4.9285">
        <ele>189.8</ele>
        <time>2024-09-18T14:15:42Z</time>
      </trkpt>
      <trkpt lat="46.50664" lon="4.92849">
        <ele>190</ele>
        <time>2024-09-18T14:15:43Z</time>
      </trkpt>
      <trkpt lat="46.5066" lon="4.92847">
        <ele>190</ele>
        <time>2024-09-18T14:15:44Z</time>
      </trkpt>
      <trkpt lat="46.50656" lon="4.92845">
        <ele>190</ele>
        <time>2024-09-18T14:15:45Z</time>
      </trkpt>
      <trkpt lat="46.50652" lon="4.92843">
        <ele>189.8</ele>
        <time>2024-09-18T14:15:46Z</time>
      </trkpt>
      <trkpt lat="46.50648" lon="4.92841">
        <ele>190</ele>
        <time>2024-09-18T14:15:47Z</time>
      </trkpt>
      <trkpt lat="46.50643" lon="4.9284">
        <ele>190</ele>
        <time>2024-09-18T14:15:48Z</time>
      </trkpt>
      <trkpt lat="46.50639" lon="4.92838">
        <ele>190</ele>
        <time>2024-09-18T14:15:49Z</time>
      </trkpt>
      <trkpt lat="46.50635" lon="4.92837">
        <ele>190</ele>
        <time>2024-09-18T14:15:50Z</time>
      </trkpt>
      <trkpt lat="46.5063" lon="4.92835">
        <ele>190</ele>
        <time>2024-09-18T14:15:51Z</time>
      </trkpt>
      <trkpt lat="46.50626" lon="4.92834">
        <ele>189.8</ele>
        <time>2024-09-18T14:15:52Z</time>
      </trkpt>
      <trkpt lat="46.50622" lon="4.92832">
        <ele>189.8</ele>
        <time>2024-09-18T14:15:53Z</time>
      </trkpt>
      <trkpt lat="46.50618" lon="4.9283">
        <ele>189.8</ele>
        <time>2024-09-18T14:15:54Z</time>
      </trkpt>
      <trkpt lat="46.50613" lon="4.92828">
        <ele>189.8</ele>
        <time>2024-09-18T14:15:55Z</time>
      </trkpt>
      <trkpt lat="46.50609" lon="4.92827">
        <ele>189.6</ele>
        <time>2024-09-18T14:15:56Z</time>
      </trkpt>
      <trkpt lat="46.50605" lon="4.92825">
        <ele>189.6</ele>
        <time>2024-09-18T14:15:57Z</time>
      </trkpt>
      <trkpt lat="46.506" lon="4.92824">
        <ele>189.6</ele>
        <time>2024-09-18T14:15:58Z</time>
      </trkpt>
      <trkpt lat="46.50596" lon="4.92822">
        <ele>190</ele>
        <time>2024-09-18T14:15:59Z</time>
      </trkpt>
      <trkpt lat="46.50589" lon="4.9282">
        <ele>190</ele>
        <time>2024-09-18T14:16:00Z</time>
      </trkpt>
      <trkpt lat="46.50587" lon="4.92819">
        <ele>190</ele>
        <time>2024-09-18T14:16:01Z</time>
      </trkpt>
      <trkpt lat="46.50581" lon="4.92816">
        <ele>190</ele>
        <time>2024-09-18T14:16:02Z</time>
      </trkpt>
      <trkpt lat="46.50578" lon="4.92816">
        <ele>190</ele>
        <time>2024-09-18T14:16:03Z</time>
      </trkpt>
      <trkpt lat="46.50572" lon="4.92813">
        <ele>190</ele>
        <time>2024-09-18T14:16:04Z</time>
      </trkpt>
      <trkpt lat="46.5057" lon="4.92812">
        <ele>189.8</ele>
        <time>2024-09-18T14:16:05Z</time>
      </trkpt>
      <trkpt lat="46.50563" lon="4.92809">
        <ele>189.8</ele>
        <time>2024-09-18T14:16:06Z</time>
      </trkpt>
      <trkpt lat="46.50561" lon="4.92808">
        <ele>189.8</ele>
        <time>2024-09-18T14:16:07Z</time>
      </trkpt>
      <trkpt lat="46.50555" lon="4.92806">
        <ele>189.8</ele>
        <time>2024-09-18T14:16:08Z</time>
      </trkpt>
      <trkpt lat="46.50553" lon="4.92805">
        <ele>190.4</ele>
        <time>2024-09-18T14:16:09Z</time>
      </trkpt>
      <trkpt lat="46.50547" lon="4.92802">
        <ele>190.4</ele>
        <time>2024-09-18T14:16:10Z</time>
      </trkpt>
      <trkpt lat="46.50545" lon="4.92802">
        <ele>190.4</ele>
        <time>2024-09-18T14:16:11Z</time>
      </trkpt>
      <trkpt lat="46.50539" lon="4.928">
        <ele>190.4</ele>
        <time>2024-09-18T14:16:12Z</time>
      </trkpt>
      <trkpt lat="46.50538" lon="4.928">
        <ele>190.4</ele>
        <time>2024-09-18T14:16:13Z</time>
      </trkpt>
      <trkpt lat="46.50533" lon="4.92798">
        <ele>190.4</ele>
        <time>2024-09-18T14:16:14Z</time>
      </trkpt>
      <trkpt lat="46.50531" lon="4.92797">
        <ele>190.6</ele>
        <time>2024-09-18T14:16:15Z</time>
      </trkpt>
      <trkpt lat="46.50525" lon="4.92795">
        <ele>190.6</ele>
        <time>2024-09-18T14:16:16Z</time>
      </trkpt>
      <trkpt lat="46.50523" lon="4.92795">
        <ele>190.6</ele>
        <time>2024-09-18T14:16:17Z</time>
      </trkpt>
      <trkpt lat="46.50519" lon="4.92793">
        <ele>191</ele>
        <time>2024-09-18T14:16:18Z</time>
      </trkpt>
      <trkpt lat="46.50515" lon="4.92792">
        <ele>191</ele>
        <time>2024-09-18T14:16:19Z</time>
      </trkpt>
      <trkpt lat="46.50512" lon="4.92791">
        <ele>191</ele>
        <time>2024-09-18T14:16:20Z</time>
      </trkpt>
      <trkpt lat="46.50508" lon="4.92789">
        <ele>191</ele>
        <time>2024-09-18T14:16:21Z</time>
      </trkpt>
      <trkpt lat="46.50505" lon="4.92788">
        <ele>191.6</ele>
        <time>2024-09-18T14:16:22Z</time>
      </trkpt>
      <trkpt lat="46.50502" lon="4.92787">
        <ele>191.6</ele>
        <time>2024-09-18T14:16:23Z</time>
      </trkpt>
      <trkpt lat="46.50499" lon="4.92785">
        <ele>191.6</ele>
        <time>2024-09-18T14:16:24Z</time>
      </trkpt>
      <trkpt lat="46.50496" lon="4.92784">
        <ele>191.6</ele>
        <time>2024-09-18T14:16:25Z</time>
      </trkpt>
      <trkpt lat="46.50493" lon="4.92782">
        <ele>191.6</ele>
        <time>2024-09-18T14:16:26Z</time>
      </trkpt>
      <trkpt lat="46.50489" lon="4.9278">
        <ele>191.6</ele>
        <time>2024-09-18T14:16:27Z</time>
      </trkpt>
      <trkpt lat="46.50487" lon="4.92776">
        <ele>191.2</ele>
        <time>2024-09-18T14:16:28Z</time>
      </trkpt>
      <trkpt lat="46.50484" lon="4.92773">
        <ele>191.2</ele>
        <time>2024-09-18T14:16:29Z</time>
      </trkpt>
      <trkpt lat="46.50481" lon="4.92769">
        <ele>191.2</ele>
        <time>2024-09-18T14:16:30Z</time>
      </trkpt>
      <trkpt lat="46.50478" lon="4.92765">
        <ele>191</ele>
        <time>2024-09-18T14:16:31Z</time>
      </trkpt>
      <trkpt lat="46.50476" lon="4.92762">
        <ele>190.8</ele>
        <time>2024-09-18T14:16:32Z</time>
      </trkpt>
      <trkpt lat="46.50473" lon="4.92759">
        <ele>190.8</ele>
        <time>2024-09-18T14:16:33Z</time>
      </trkpt>
      <trkpt lat="46.50469" lon="4.92756">
        <ele>190.8</ele>
        <time>2024-09-18T14:16:34Z</time>
      </trkpt>
      <trkpt lat="46.50466" lon="4.92753">
        <ele>190.8</ele>
        <time>2024-09-18T14:16:35Z</time>
      </trkpt>
      <trkpt lat="46.50462" lon="4.92751">
        <ele>190.8</ele>
        <time>2024-09-18T14:16:36Z</time>
      </trkpt>
      <trkpt lat="46.50459" lon="4.92748">
        <ele>191</ele>
        <time>2024-09-18T14:16:37Z</time>
      </trkpt>
      <trkpt lat="46.50455" lon="4.92745">
        <ele>191</ele>
        <time>2024-09-18T14:16:38Z</time>
      </trkpt>
      <trkpt lat="46.50451" lon="4.92743">
        <ele>191</ele>
        <time>2024-09-18T14:16:39Z</time>
      </trkpt>
      <trkpt lat="46.50447" lon="4.9274">
        <ele>191</ele>
        <time>2024-09-18T14:16:40Z</time>
      </trkpt>
      <trkpt lat="46.50443" lon="4.92737">
        <ele>190.8</ele>
        <time>2024-09-18T14:16:41Z</time>
      </trkpt>
      <trkpt lat="46.50437" lon="4.92733">
        <ele>190.8</ele>
        <time>2024-09-18T14:16:42Z</time>
      </trkpt>
      <trkpt lat="46.50435" lon="4.92732">
        <ele>190.8</ele>
        <time>2024-09-18T14:16:43Z</time>
      </trkpt>
      <trkpt lat="46.50429" lon="4.92728">
        <ele>190.8</ele>
        <time>2024-09-18T14:16:44Z</time>
      </trkpt>
      <trkpt lat="46.50427" lon="4.92727">
        <ele>191</ele>
        <time>2024-09-18T14:16:45Z</time>
      </trkpt>
      <trkpt lat="46.50424" lon="4.92724">
        <ele>191</ele>
        <time>2024-09-18T14:16:46Z</time>
      </trkpt>
      <trkpt lat="46.5042" lon="4.92722">
        <ele>191</ele>
        <time>2024-09-18T14:16:47Z</time>
      </trkpt>
      <trkpt lat="46.50415" lon="4.92719">
        <ele>191</ele>
        <time>2024-09-18T14:16:48Z</time>
      </trkpt>
      <trkpt lat="46.50414" lon="4.92719">
        <ele>191</ele>
        <time>2024-09-18T14:16:49Z</time>
      </trkpt>
      <trkpt lat="46.50408" lon="4.92718">
        <ele>190.8</ele>
        <time>2024-09-18T14:16:50Z</time>
      </trkpt>
      <trkpt lat="46.50406" lon="4.92719">
        <ele>190.8</ele>
        <time>2024-09-18T14:16:51Z</time>
      </trkpt>
      <trkpt lat="46.504" lon="4.92717">
        <ele>190.8</ele>
        <time>2024-09-18T14:16:52Z</time>
      </trkpt>
      <trkpt lat="46.50398" lon="4.92716">
        <ele>190.4</ele>
        <time>2024-09-18T14:16:53Z</time>
      </trkpt>
      <trkpt lat="46.50392" lon="4.92711">
        <ele>190.4</ele>
        <time>2024-09-18T14:16:54Z</time>
      </trkpt>
      <trkpt lat="46.5039" lon="4.92709">
        <ele>190.6</ele>
        <time>2024-09-18T14:16:55Z</time>
      </trkpt>
      <trkpt lat="46.50385" lon="4.92705">
        <ele>190.6</ele>
        <time>2024-09-18T14:16:56Z</time>
      </trkpt>
      <trkpt lat="46.50383" lon="4.92703">
        <ele>190.6</ele>
        <time>2024-09-18T14:16:57Z</time>
      </trkpt>
      <trkpt lat="46.50378" lon="4.92699">
        <ele>190.8</ele>
        <time>2024-09-18T14:16:58Z</time>
      </trkpt>
      <trkpt lat="46.50377" lon="4.92697">
        <ele>190.6</ele>
        <time>2024-09-18T14:16:59Z</time>
      </trkpt>
      <trkpt lat="46.50373" lon="4.92694">
        <ele>190.6</ele>
        <time>2024-09-18T14:17:00Z</time>
      </trkpt>
      <trkpt lat="46.50369" lon="4.92692">
        <ele>190.6</ele>
        <time>2024-09-18T14:17:01Z</time>
      </trkpt>
      <trkpt lat="46.50365" lon="4.9269">
        <ele>190.6</ele>
        <time>2024-09-18T14:17:02Z</time>
      </trkpt>
      <trkpt lat="46.50361" lon="4.92688">
        <ele>190.6</ele>
        <time>2024-09-18T14:17:03Z</time>
      </trkpt>
      <trkpt lat="46.50356" lon="4.92687">
        <ele>190.8</ele>
        <time>2024-09-18T14:17:04Z</time>
      </trkpt>
      <trkpt lat="46.50352" lon="4.92685">
        <ele>190.8</ele>
        <time>2024-09-18T14:17:05Z</time>
      </trkpt>
      <trkpt lat="46.50347" lon="4.92684">
        <ele>190.8</ele>
        <time>2024-09-18T14:17:06Z</time>
      </trkpt>
      <trkpt lat="46.50342" lon="4.92682">
        <ele>190.4</ele>
        <time>2024-09-18T14:17:07Z</time>
      </trkpt>
      <trkpt lat="46.50337" lon="4.9268">
        <ele>190.2</ele>
        <time>2024-09-18T14:17:08Z</time>
      </trkpt>
      <trkpt lat="46.50333" lon="4.92678">
        <ele>190.2</ele>
        <time>2024-09-18T14:17:09Z</time>
      </trkpt>
      <trkpt lat="46.50328" lon="4.92675">
        <ele>190.2</ele>
        <time>2024-09-18T14:17:10Z</time>
      </trkpt>
      <trkpt lat="46.50323" lon="4.92672">
        <ele>190.2</ele>
        <time>2024-09-18T14:17:11Z</time>
      </trkpt>
      <trkpt lat="46.50319" lon="4.9267">
        <ele>190.2</ele>
        <time>2024-09-18T14:17:12Z</time>
      </trkpt>
      <trkpt lat="46.50314" lon="4.92667">
        <ele>189.6</ele>
        <time>2024-09-18T14:17:13Z</time>
      </trkpt>
      <trkpt lat="46.50309" lon="4.92664">
        <ele>189.6</ele>
        <time>2024-09-18T14:17:14Z</time>
      </trkpt>
      <trkpt lat="46.50304" lon="4.92661">
        <ele>189.6</ele>
        <time>2024-09-18T14:17:15Z</time>
      </trkpt>
      <trkpt lat="46.503" lon="4.92658">
        <ele>190.2</ele>
        <time>2024-09-18T14:17:16Z</time>
      </trkpt>
      <trkpt lat="46.50295" lon="4.92655">
        <ele>190.2</ele>
        <time>2024-09-18T14:17:17Z</time>
      </trkpt>
      <trkpt lat="46.5029" lon="4.92652">
        <ele>190.2</ele>
        <time>2024-09-18T14:17:18Z</time>
      </trkpt>
      <trkpt lat="46.50285" lon="4.92649">
        <ele>190.2</ele>
        <time>2024-09-18T14:17:19Z</time>
      </trkpt>
      <trkpt lat="46.5028" lon="4.92646">
        <ele>189.8</ele>
        <time>2024-09-18T14:17:20Z</time>
      </trkpt>
      <trkpt lat="46.50275" lon="4.92644">
        <ele>189.8</ele>
        <time>2024-09-18T14:17:21Z</time>
      </trkpt>
      <trkpt lat="46.5027" lon="4.92641">
        <ele>189.8</ele>
        <time>2024-09-18T14:17:22Z</time>
      </trkpt>
      <trkpt lat="46.50265" lon="4.92638">
        <ele>189.8</ele>
        <time>2024-09-18T14:17:23Z</time>
      </trkpt>
      <trkpt lat="46.5026" lon="4.92635">
        <ele>189.8</ele>
        <time>2024-09-18T14:17:24Z</time>
      </trkpt>
      <trkpt lat="46.50252" lon="4.92631">
        <ele>189.8</ele>
        <time>2024-09-18T14:17:25Z</time>
      </trkpt>
      <trkpt lat="46.5025" lon="4.9263">
        <ele>189.4</ele>
        <time>2024-09-18T14:17:26Z</time>
      </trkpt>
      <trkpt lat="46.50243" lon="4.92626">
        <ele>189.4</ele>
        <time>2024-09-18T14:17:27Z</time>
      </trkpt>
      <trkpt lat="46.5024" lon="4.92625">
        <ele>189.4</ele>
        <time>2024-09-18T14:17:28Z</time>
      </trkpt>
      <trkpt lat="46.50233" lon="4.92622">
        <ele>189.4</ele>
        <time>2024-09-18T14:17:29Z</time>
      </trkpt>
      <trkpt lat="46.5023" lon="4.92621">
        <ele>189.2</ele>
        <time>2024-09-18T14:17:30Z</time>
      </trkpt>
      <trkpt lat="46.50225" lon="4.92619">
        <ele>189.2</ele>
        <time>2024-09-18T14:17:31Z</time>
      </trkpt>
      <trkpt lat="46.50219" lon="4.92618">
        <ele>189.2</ele>
        <time>2024-09-18T14:17:32Z</time>
      </trkpt>
      <trkpt lat="46.50213" lon="4.92617">
        <ele>189.2</ele>
        <time>2024-09-18T14:17:33Z</time>
      </trkpt>
      <trkpt lat="46.50208" lon="4.92617">
        <ele>189</ele>
        <time>2024-09-18T14:17:34Z</time>
      </trkpt>
      <trkpt lat="46.50203" lon="4.92616">
        <ele>189</ele>
        <time>2024-09-18T14:17:35Z</time>
      </trkpt>
      <trkpt lat="46.50197" lon="4.92616">
        <ele>189</ele>
        <time>2024-09-18T14:17:36Z</time>
      </trkpt>
      <trkpt lat="46.50192" lon="4.92614">
        <ele>189</ele>
        <time>2024-09-18T14:17:37Z</time>
      </trkpt>
      <trkpt lat="46.50187" lon="4.92613">
        <ele>189</ele>
        <time>2024-09-18T14:17:38Z</time>
      </trkpt>
      <trkpt lat="46.5018" lon="4.92612">
        <ele>189</ele>
        <time>2024-09-18T14:17:39Z</time>
      </trkpt>
      <trkpt lat="46.50178" lon="4.92612">
        <ele>188.4</ele>
        <time>2024-09-18T14:17:40Z</time>
      </trkpt>
      <trkpt lat="46.50172" lon="4.92611">
        <ele>188.4</ele>
        <time>2024-09-18T14:17:41Z</time>
      </trkpt>
      <trkpt lat="46.5017" lon="4.92611">
        <ele>188.4</ele>
        <time>2024-09-18T14:17:42Z</time>
      </trkpt>
      <trkpt lat="46.50165" lon="4.92611">
        <ele>188.6</ele>
        <time>2024-09-18T14:17:43Z</time>
      </trkpt>
      <trkpt lat="46.50161" lon="4.92611">
        <ele>189</ele>
        <time>2024-09-18T14:17:44Z</time>
      </trkpt>
      <trkpt lat="46.50157" lon="4.92611">
        <ele>189</ele>
        <time>2024-09-18T14:17:45Z</time>
      </trkpt>
      <trkpt lat="46.50153" lon="4.92611">
        <ele>189</ele>
        <time>2024-09-18T14:17:46Z</time>
      </trkpt>
      <trkpt lat="46.50149" lon="4.92611">
        <ele>189</ele>
        <time>2024-09-18T14:17:47Z</time>
      </trkpt>
      <trkpt lat="46.50145" lon="4.92611">
        <ele>188.4</ele>
        <time>2024-09-18T14:17:48Z</time>
      </trkpt>
      <trkpt lat="46.50141" lon="4.92611">
        <ele>188.6</ele>
        <time>2024-09-18T14:17:49Z</time>
      </trkpt>
      <trkpt lat="46.50137" lon="4.92611">
        <ele>188.6</ele>
        <time>2024-09-18T14:17:50Z</time>
      </trkpt>
      <trkpt lat="46.50133" lon="4.92611">
        <ele>188.6</ele>
        <time>2024-09-18T14:17:51Z</time>
      </trkpt>
      <trkpt lat="46.5013" lon="4.92611">
        <ele>189.6</ele>
        <time>2024-09-18T14:17:52Z</time>
      </trkpt>
      <trkpt lat="46.50126" lon="4.92611">
        <ele>188.2</ele>
        <time>2024-09-18T14:17:53Z</time>
      </trkpt>
      <trkpt lat="46.50123" lon="4.9261">
        <ele>188.2</ele>
        <time>2024-09-18T14:17:54Z</time>
      </trkpt>
      <trkpt lat="46.50119" lon="4.9261">
        <ele>188.2</ele>
        <time>2024-09-18T14:17:55Z</time>
      </trkpt>
      <trkpt lat="46.50115" lon="4.92611">
        <ele>188.2</ele>
        <time>2024-09-18T14:17:56Z</time>
      </trkpt>
      <trkpt lat="46.50112" lon="4.92612">
        <ele>188.2</ele>
        <time>2024-09-18T14:17:57Z</time>
      </trkpt>
      <trkpt lat="46.50108" lon="4.92614">
        <ele>187.8</ele>
        <time>2024-09-18T14:17:58Z</time>
      </trkpt>
      <trkpt lat="46.50105" lon="4.92614">
        <ele>187.8</ele>
        <time>2024-09-18T14:17:59Z</time>
      </trkpt>
      <trkpt lat="46.50102" lon="4.92614">
        <ele>187.8</ele>
        <time>2024-09-18T14:18:00Z</time>
      </trkpt>
      <trkpt lat="46.50098" lon="4.92613">
        <ele>188</ele>
        <time>2024-09-18T14:18:01Z</time>
      </trkpt>
      <trkpt lat="46.50096" lon="4.92613">
        <ele>188.2</ele>
        <time>2024-09-18T14:18:02Z</time>
      </trkpt>
      <trkpt lat="46.50093" lon="4.92612">
        <ele>188.2</ele>
        <time>2024-09-18T14:18:03Z</time>
      </trkpt>
      <trkpt lat="46.50091" lon="4.92611">
        <ele>188.2</ele>
        <time>2024-09-18T14:18:04Z</time>
      </trkpt>
      <trkpt lat="46.50089" lon="4.92611">
        <ele>188.2</ele>
        <time>2024-09-18T14:18:05Z</time>
      </trkpt>
      <trkpt lat="46.50087" lon="4.9261">
        <ele>188.4</ele>
        <time>2024-09-18T14:18:06Z</time>
      </trkpt>
      <trkpt lat="46.50084" lon="4.9261">
        <ele>188.4</ele>
        <time>2024-09-18T14:18:07Z</time>
      </trkpt>
      <trkpt lat="46.50081" lon="4.9261">
        <ele>188.4</ele>
        <time>2024-09-18T14:18:08Z</time>
      </trkpt>
      <trkpt lat="46.50078" lon="4.9261">
        <ele>188.4</ele>
        <time>2024-09-18T14:18:09Z</time>
      </trkpt>
      <trkpt lat="46.50075" lon="4.92609">
        <ele>188.4</ele>
        <time>2024-09-18T14:18:10Z</time>
      </trkpt>
      <trkpt lat="46.50072" lon="4.92608">
        <ele>188.2</ele>
        <time>2024-09-18T14:18:11Z</time>
      </trkpt>
      <trkpt lat="46.50068" lon="4.92607">
        <ele>188.2</ele>
        <time>2024-09-18T14:18:12Z</time>
      </trkpt>
      <trkpt lat="46.50064" lon="4.92607">
        <ele>188.2</ele>
        <time>2024-09-18T14:18:13Z</time>
      </trkpt>
      <trkpt lat="46.50057" lon="4.92605">
        <ele>188.4</ele>
        <time>2024-09-18T14:18:14Z</time>
      </trkpt>
      <trkpt lat="46.50055" lon="4.92605">
        <ele>188.6</ele>
        <time>2024-09-18T14:18:15Z</time>
      </trkpt>
      <trkpt lat="46.50048" lon="4.92604">
        <ele>188.6</ele>
        <time>2024-09-18T14:18:16Z</time>
      </trkpt>
      <trkpt lat="46.50046" lon="4.92603">
        <ele>188.6</ele>
        <time>2024-09-18T14:18:17Z</time>
      </trkpt>
      <trkpt lat="46.50039" lon="4.92601">
        <ele>188.6</ele>
        <time>2024-09-18T14:18:18Z</time>
      </trkpt>
      <trkpt lat="46.50037" lon="4.926">
        <ele>188.6</ele>
        <time>2024-09-18T14:18:19Z</time>
      </trkpt>
      <trkpt lat="46.5003" lon="4.92598">
        <ele>188.6</ele>
        <time>2024-09-18T14:18:20Z</time>
      </trkpt>
      <trkpt lat="46.50027" lon="4.92597">
        <ele>188.6</ele>
        <time>2024-09-18T14:18:21Z</time>
      </trkpt>
      <trkpt lat="46.50021" lon="4.92595">
        <ele>188.6</ele>
        <time>2024-09-18T14:18:22Z</time>
      </trkpt>
      <trkpt lat="46.50018" lon="4.92594">
        <ele>188.6</ele>
        <time>2024-09-18T14:18:23Z</time>
      </trkpt>
      <trkpt lat="46.50012" lon="4.92591">
        <ele>188.8</ele>
        <time>2024-09-18T14:18:24Z</time>
      </trkpt>
      <trkpt lat="46.5001" lon="4.9259">
        <ele>189</ele>
        <time>2024-09-18T14:18:25Z</time>
      </trkpt>
      <trkpt lat="46.50006" lon="4.92589">
        <ele>189</ele>
        <time>2024-09-18T14:18:26Z</time>
      </trkpt>
      <trkpt lat="46.50002" lon="4.92587">
        <ele>189</ele>
        <time>2024-09-18T14:18:27Z</time>
      </trkpt>
      <trkpt lat="46.49998" lon="4.92585">
        <ele>189</ele>
        <time>2024-09-18T14:18:28Z</time>
      </trkpt>
      <trkpt lat="46.49994" lon="4.92582">
        <ele>189.2</ele>
        <time>2024-09-18T14:18:29Z</time>
      </trkpt>
      <trkpt lat="46.4999" lon="4.9258">
        <ele>189.2</ele>
        <time>2024-09-18T14:18:30Z</time>
      </trkpt>
      <trkpt lat="46.49985" lon="4.92578">
        <ele>189.2</ele>
        <time>2024-09-18T14:18:31Z</time>
      </trkpt>
      <trkpt lat="46.49981" lon="4.92575">
        <ele>189.2</ele>
        <time>2024-09-18T14:18:32Z</time>
      </trkpt>
      <trkpt lat="46.49977" lon="4.92573">
        <ele>189.2</ele>
        <time>2024-09-18T14:18:33Z</time>
      </trkpt>
      <trkpt lat="46.49973" lon="4.9257">
        <ele>189</ele>
        <time>2024-09-18T14:18:34Z</time>
      </trkpt>
      <trkpt lat="46.49969" lon="4.92568">
        <ele>189</ele>
        <time>2024-09-18T14:18:35Z</time>
      </trkpt>
      <trkpt lat="46.49965" lon="4.92565">
        <ele>189</ele>
        <time>2024-09-18T14:18:36Z</time>
      </trkpt>
      <trkpt lat="46.49961" lon="4.92563">
        <ele>189</ele>
        <time>2024-09-18T14:18:37Z</time>
      </trkpt>
      <trkpt lat="46.49957" lon="4.9256">
        <ele>189.4</ele>
        <time>2024-09-18T14:18:38Z</time>
      </trkpt>
      <trkpt lat="46.49952" lon="4.92558">
        <ele>189.4</ele>
        <time>2024-09-18T14:18:39Z</time>
      </trkpt>
      <trkpt lat="46.49948" lon="4.92556">
        <ele>189.4</ele>
        <time>2024-09-18T14:18:40Z</time>
      </trkpt>
      <trkpt lat="46.49942" lon="4.92552">
        <ele>189.4</ele>
        <time>2024-09-18T14:18:41Z</time>
      </trkpt>
      <trkpt lat="46.4994" lon="4.92551">
        <ele>189.4</ele>
        <time>2024-09-18T14:18:42Z</time>
      </trkpt>
      <trkpt lat="46.49936" lon="4.92548">
        <ele>189.2</ele>
        <time>2024-09-18T14:18:43Z</time>
      </trkpt>
      <trkpt lat="46.49932" lon="4.92546">
        <ele>189.2</ele>
        <time>2024-09-18T14:18:44Z</time>
      </trkpt>
      <trkpt lat="46.49928" lon="4.92544">
        <ele>189.2</ele>
        <time>2024-09-18T14:18:45Z</time>
      </trkpt>
      <trkpt lat="46.49924" lon="4.92541">
        <ele>189.2</ele>
        <time>2024-09-18T14:18:46Z</time>
      </trkpt>
      <trkpt lat="46.4992" lon="4.92539">
        <ele>189.4</ele>
        <time>2024-09-18T14:18:47Z</time>
      </trkpt>
      <trkpt lat="46.49915" lon="4.92536">
        <ele>189.4</ele>
        <time>2024-09-18T14:18:48Z</time>
      </trkpt>
      <trkpt lat="46.49911" lon="4.92534">
        <ele>189.4</ele>
        <time>2024-09-18T14:18:49Z</time>
      </trkpt>
      <trkpt lat="46.49907" lon="4.92531">
        <ele>189.4</ele>
        <time>2024-09-18T14:18:50Z</time>
      </trkpt>
      <trkpt lat="46.499" lon="4.92527">
        <ele>189.6</ele>
        <time>2024-09-18T14:18:51Z</time>
      </trkpt>
      <trkpt lat="46.49898" lon="4.92526">
        <ele>189.6</ele>
        <time>2024-09-18T14:18:52Z</time>
      </trkpt>
      <trkpt lat="46.49891" lon="4.92522">
        <ele>189.6</ele>
        <time>2024-09-18T14:18:53Z</time>
      </trkpt>
      <trkpt lat="46.49889" lon="4.92521">
        <ele>189.6</ele>
        <time>2024-09-18T14:18:54Z</time>
      </trkpt>
      <trkpt lat="46.49883" lon="4.92517">
        <ele>189.6</ele>
        <time>2024-09-18T14:18:55Z</time>
      </trkpt>
      <trkpt lat="46.4988" lon="4.92516">
        <ele>189.8</ele>
        <time>2024-09-18T14:18:56Z</time>
      </trkpt>
      <trkpt lat="46.49874" lon="4.92512">
        <ele>189.8</ele>
        <time>2024-09-18T14:18:57Z</time>
      </trkpt>
      <trkpt lat="46.49872" lon="4.92511">
        <ele>189.8</ele>
        <time>2024-09-18T14:18:58Z</time>
      </trkpt>
      <trkpt lat="46.49865" lon="4.92507">
        <ele>189.8</ele>
        <time>2024-09-18T14:18:59Z</time>
      </trkpt>
      <trkpt lat="46.49863" lon="4.92506">
        <ele>189.6</ele>
        <time>2024-09-18T14:19:00Z</time>
      </trkpt>
      <trkpt lat="46.49857" lon="4.92503">
        <ele>189.6</ele>
        <time>2024-09-18T14:19:01Z</time>
      </trkpt>
      <trkpt lat="46.49855" lon="4.92502">
        <ele>189.6</ele>
        <time>2024-09-18T14:19:02Z</time>
      </trkpt>
      <trkpt lat="46.4985" lon="4.92499">
        <ele>189.6</ele>
        <time>2024-09-18T14:19:03Z</time>
      </trkpt>
      <trkpt lat="46.49846" lon="4.92497">
        <ele>189.6</ele>
        <time>2024-09-18T14:19:04Z</time>
      </trkpt>
      <trkpt lat="46.49839" lon="4.92493">
        <ele>189.8</ele>
        <time>2024-09-18T14:19:05Z</time>
      </trkpt>
      <trkpt lat="46.49837" lon="4.92492">
        <ele>189.8</ele>
        <time>2024-09-18T14:19:06Z</time>
      </trkpt>
      <trkpt lat="46.49831" lon="4.92489">
        <ele>189.8</ele>
        <time>2024-09-18T14:19:07Z</time>
      </trkpt>
      <trkpt lat="46.49829" lon="4.92488">
        <ele>189.8</ele>
        <time>2024-09-18T14:19:08Z</time>
      </trkpt>
      <trkpt lat="46.49824" lon="4.92485">
        <ele>189.8</ele>
        <time>2024-09-18T14:19:09Z</time>
      </trkpt>
      <trkpt lat="46.4982" lon="4.92483">
        <ele>189.8</ele>
        <time>2024-09-18T14:19:10Z</time>
      </trkpt>
      <trkpt lat="46.49816" lon="4.92481">
        <ele>189.8</ele>
        <time>2024-09-18T14:19:11Z</time>
      </trkpt>
      <trkpt lat="46.49812" lon="4.92479">
        <ele>189.8</ele>
        <time>2024-09-18T14:19:12Z</time>
      </trkpt>
      <trkpt lat="46.49807" lon="4.92476">
        <ele>189.8</ele>
        <time>2024-09-18T14:19:13Z</time>
      </trkpt>
      <trkpt lat="46.49803" lon="4.92474">
        <ele>190.2</ele>
        <time>2024-09-18T14:19:14Z</time>
      </trkpt>
      <trkpt lat="46.49799" lon="4.92472">
        <ele>190.2</ele>
        <time>2024-09-18T14:19:15Z</time>
      </trkpt>
      <trkpt lat="46.49795" lon="4.9247">
        <ele>190.2</ele>
        <time>2024-09-18T14:19:16Z</time>
      </trkpt>
      <trkpt lat="46.49791" lon="4.92467">
        <ele>190.2</ele>
        <time>2024-09-18T14:19:17Z</time>
      </trkpt>
      <trkpt lat="46.49786" lon="4.92465">
        <ele>190</ele>
        <time>2024-09-18T14:19:18Z</time>
      </trkpt>
      <trkpt lat="46.49782" lon="4.92463">
        <ele>190</ele>
        <time>2024-09-18T14:19:19Z</time>
      </trkpt>
      <trkpt lat="46.49778" lon="4.9246">
        <ele>190</ele>
        <time>2024-09-18T14:19:20Z</time>
      </trkpt>
      <trkpt lat="46.49774" lon="4.92458">
        <ele>190</ele>
        <time>2024-09-18T14:19:21Z</time>
      </trkpt>
      <trkpt lat="46.49769" lon="4.92455">
        <ele>190</ele>
        <time>2024-09-18T14:19:22Z</time>
      </trkpt>
      <trkpt lat="46.49765" lon="4.92453">
        <ele>189.8</ele>
        <time>2024-09-18T14:19:23Z</time>
      </trkpt>
      <trkpt lat="46.49761" lon="4.9245">
        <ele>189.8</ele>
        <time>2024-09-18T14:19:24Z</time>
      </trkpt>
      <trkpt lat="46.49757" lon="4.92447">
        <ele>189.8</ele>
        <time>2024-09-18T14:19:25Z</time>
      </trkpt>
      <trkpt lat="46.49752" lon="4.92444">
        <ele>189.8</ele>
        <time>2024-09-18T14:19:26Z</time>
      </trkpt>
      <trkpt lat="46.49748" lon="4.92441">
        <ele>189.8</ele>
        <time>2024-09-18T14:19:27Z</time>
      </trkpt>
      <trkpt lat="46.49744" lon="4.92438">
        <ele>189.8</ele>
        <time>2024-09-18T14:19:28Z</time>
      </trkpt>
      <trkpt lat="46.4974" lon="4.92435">
        <ele>189.8</ele>
        <time>2024-09-18T14:19:29Z</time>
      </trkpt>
      <trkpt lat="46.49736" lon="4.92432">
        <ele>189.8</ele>
        <time>2024-09-18T14:19:30Z</time>
      </trkpt>
      <trkpt lat="46.49732" lon="4.92429">
        <ele>189.8</ele>
        <time>2024-09-18T14:19:31Z</time>
      </trkpt>
      <trkpt lat="46.49727" lon="4.92426">
        <ele>190</ele>
        <time>2024-09-18T14:19:32Z</time>
      </trkpt>
      <trkpt lat="46.49723" lon="4.92423">
        <ele>190</ele>
        <time>2024-09-18T14:19:33Z</time>
      </trkpt>
      <trkpt lat="46.49717" lon="4.92418">
        <ele>190</ele>
        <time>2024-09-18T14:19:34Z</time>
      </trkpt>
      <trkpt lat="46.49715" lon="4.92416">
        <ele>189.8</ele>
        <time>2024-09-18T14:19:35Z</time>
      </trkpt>
      <trkpt lat="46.49709" lon="4.9241">
        <ele>189.8</ele>
        <time>2024-09-18T14:19:36Z</time>
      </trkpt>
      <trkpt lat="46.49707" lon="4.92408">
        <ele>189.8</ele>
        <time>2024-09-18T14:19:37Z</time>
      </trkpt>
      <trkpt lat="46.49701" lon="4.92403">
        <ele>189.8</ele>
        <time>2024-09-18T14:19:38Z</time>
      </trkpt>
      <trkpt lat="46.49699" lon="4.92401">
        <ele>189.8</ele>
        <time>2024-09-18T14:19:39Z</time>
      </trkpt>
      <trkpt lat="46.49692" lon="4.92396">
        <ele>190</ele>
        <time>2024-09-18T14:19:40Z</time>
      </trkpt>
      <trkpt lat="46.49691" lon="4.92394">
        <ele>189.8</ele>
        <time>2024-09-18T14:19:41Z</time>
      </trkpt>
      <trkpt lat="46.49687" lon="4.92391">
        <ele>189.8</ele>
        <time>2024-09-18T14:19:42Z</time>
      </trkpt>
      <trkpt lat="46.49683" lon="4.92387">
        <ele>189.8</ele>
        <time>2024-09-18T14:19:43Z</time>
      </trkpt>
      <trkpt lat="46.49677" lon="4.92381">
        <ele>189.4</ele>
        <time>2024-09-18T14:19:44Z</time>
      </trkpt>
      <trkpt lat="46.49675" lon="4.92379">
        <ele>189.4</ele>
        <time>2024-09-18T14:19:45Z</time>
      </trkpt>
      <trkpt lat="46.49669" lon="4.92372">
        <ele>189.8</ele>
        <time>2024-09-18T14:19:46Z</time>
      </trkpt>
      <trkpt lat="46.49667" lon="4.9237">
        <ele>189.8</ele>
        <time>2024-09-18T14:19:47Z</time>
      </trkpt>
      <trkpt lat="46.49662" lon="4.92364">
        <ele>189.8</ele>
        <time>2024-09-18T14:19:48Z</time>
      </trkpt>
      <trkpt lat="46.4966" lon="4.92361">
        <ele>189.8</ele>
        <time>2024-09-18T14:19:49Z</time>
      </trkpt>
      <trkpt lat="46.49656" lon="4.92357">
        <ele>189.4</ele>
        <time>2024-09-18T14:19:50Z</time>
      </trkpt>
      <trkpt lat="46.49653" lon="4.92353">
        <ele>189.4</ele>
        <time>2024-09-18T14:19:51Z</time>
      </trkpt>
      <trkpt lat="46.49649" lon="4.92348">
        <ele>189.4</ele>
        <time>2024-09-18T14:19:52Z</time>
      </trkpt>
      <trkpt lat="46.49645" lon="4.92344">
        <ele>189.4</ele>
        <time>2024-09-18T14:19:53Z</time>
      </trkpt>
      <trkpt lat="46.49642" lon="4.92339">
        <ele>189.4</ele>
        <time>2024-09-18T14:19:54Z</time>
      </trkpt>
      <trkpt lat="46.49638" lon="4.92334">
        <ele>189.6</ele>
        <time>2024-09-18T14:19:55Z</time>
      </trkpt>
      <trkpt lat="46.49634" lon="4.9233">
        <ele>189.6</ele>
        <time>2024-09-18T14:19:56Z</time>
      </trkpt>
      <trkpt lat="46.49631" lon="4.92326">
        <ele>189.6</ele>
        <time>2024-09-18T14:19:57Z</time>
      </trkpt>
      <trkpt lat="46.49628" lon="4.92322">
        <ele>189.8</ele>
        <time>2024-09-18T14:19:58Z</time>
      </trkpt>
      <trkpt lat="46.49624" lon="4.92317">
        <ele>189.8</ele>
        <time>2024-09-18T14:19:59Z</time>
      </trkpt>
      <trkpt lat="46.49621" lon="4.92313">
        <ele>189.8</ele>
        <time>2024-09-18T14:20:00Z</time>
      </trkpt>
      <trkpt lat="46.49617" lon="4.92308">
        <ele>189.8</ele>
        <time>2024-09-18T14:20:01Z</time>
      </trkpt>
      <trkpt lat="46.49614" lon="4.92304">
        <ele>189.8</ele>
        <time>2024-09-18T14:20:02Z</time>
      </trkpt>
      <trkpt lat="46.49611" lon="4.92299">
        <ele>189.8</ele>
        <time>2024-09-18T14:20:03Z</time>
      </trkpt>
      <trkpt lat="46.49608" lon="4.92294">
        <ele>190</ele>
        <time>2024-09-18T14:20:04Z</time>
      </trkpt>
      <trkpt lat="46.49605" lon="4.9229">
        <ele>190</ele>
        <time>2024-09-18T14:20:05Z</time>
      </trkpt>
      <trkpt lat="46.49602" lon="4.92286">
        <ele>190</ele>
        <time>2024-09-18T14:20:06Z</time>
      </trkpt>
      <trkpt lat="46.49598" lon="4.9228">
        <ele>190</ele>
        <time>2024-09-18T14:20:07Z</time>
      </trkpt>
      <trkpt lat="46.49597" lon="4.92278">
        <ele>190.2</ele>
        <time>2024-09-18T14:20:08Z</time>
      </trkpt>
      <trkpt lat="46.49594" lon="4.92274">
        <ele>190.2</ele>
        <time>2024-09-18T14:20:09Z</time>
      </trkpt>
      <trkpt lat="46.49592" lon="4.9227">
        <ele>190.2</ele>
        <time>2024-09-18T14:20:10Z</time>
      </trkpt>
      <trkpt lat="46.49589" lon="4.92266">
        <ele>190</ele>
        <time>2024-09-18T14:20:11Z</time>
      </trkpt>
      <trkpt lat="46.49586" lon="4.92261">
        <ele>189.6</ele>
        <time>2024-09-18T14:20:12Z</time>
      </trkpt>
      <trkpt lat="46.49583" lon="4.92256">
        <ele>189.6</ele>
        <time>2024-09-18T14:20:13Z</time>
      </trkpt>
      <trkpt lat="46.4958" lon="4.92252">
        <ele>189.6</ele>
        <time>2024-09-18T14:20:14Z</time>
      </trkpt>
      <trkpt lat="46.49577" lon="4.92247">
        <ele>189.6</ele>
        <time>2024-09-18T14:20:15Z</time>
      </trkpt>
      <trkpt lat="46.49575" lon="4.92242">
        <ele>189.6</ele>
        <time>2024-09-18T14:20:16Z</time>
      </trkpt>
      <trkpt lat="46.49571" lon="4.92235">
        <ele>190</ele>
        <time>2024-09-18T14:20:17Z</time>
      </trkpt>
      <trkpt lat="46.49569" lon="4.92232">
        <ele>190</ele>
        <time>2024-09-18T14:20:18Z</time>
      </trkpt>
      <trkpt lat="46.49565" lon="4.92225">
        <ele>190</ele>
        <time>2024-09-18T14:20:19Z</time>
      </trkpt>
      <trkpt lat="46.49563" lon="4.92222">
        <ele>190</ele>
        <time>2024-09-18T14:20:20Z</time>
      </trkpt>
      <trkpt lat="46.49559" lon="4.92214">
        <ele>190</ele>
        <time>2024-09-18T14:20:21Z</time>
      </trkpt>
      <trkpt lat="46.49557" lon="4.92212">
        <ele>190</ele>
        <time>2024-09-18T14:20:22Z</time>
      </trkpt>
      <trkpt lat="46.49553" lon="4.92204">
        <ele>190</ele>
        <time>2024-09-18T14:20:23Z</time>
      </trkpt>
      <trkpt lat="46.49551" lon="4.92201">
        <ele>189.6</ele>
        <time>2024-09-18T14:20:24Z</time>
      </trkpt>
      <trkpt lat="46.49547" lon="4.92193">
        <ele>189.6</ele>
        <time>2024-09-18T14:20:25Z</time>
      </trkpt>
      <trkpt lat="46.49545" lon="4.9219">
        <ele>189.6</ele>
        <time>2024-09-18T14:20:26Z</time>
      </trkpt>
      <trkpt lat="46.49541" lon="4.92182">
        <ele>189.6</ele>
        <time>2024-09-18T14:20:27Z</time>
      </trkpt>
      <trkpt lat="46.4954" lon="4.9218">
        <ele>189.6</ele>
        <time>2024-09-18T14:20:28Z</time>
      </trkpt>
      <trkpt lat="46.49537" lon="4.92174">
        <ele>189.6</ele>
        <time>2024-09-18T14:20:29Z</time>
      </trkpt>
      <trkpt lat="46.49534" lon="4.92169">
        <ele>189.6</ele>
        <time>2024-09-18T14:20:30Z</time>
      </trkpt>
      <trkpt lat="46.4953" lon="4.92161">
        <ele>189.8</ele>
        <time>2024-09-18T14:20:31Z</time>
      </trkpt>
      <trkpt lat="46.49528" lon="4.92159">
        <ele>189.8</ele>
        <time>2024-09-18T14:20:32Z</time>
      </trkpt>
      <trkpt lat="46.49525" lon="4.92154">
        <ele>189.8</ele>
        <time>2024-09-18T14:20:33Z</time>
      </trkpt>
      <trkpt lat="46.49522" lon="4.92149">
        <ele>189.8</ele>
        <time>2024-09-18T14:20:34Z</time>
      </trkpt>
      <trkpt lat="46.4952" lon="4.92144">
        <ele>189.8</ele>
        <time>2024-09-18T14:20:35Z</time>
      </trkpt>
      <trkpt lat="46.49517" lon="4.92139">
        <ele>190.2</ele>
        <time>2024-09-18T14:20:36Z</time>
      </trkpt>
      <trkpt lat="46.49514" lon="4.92135">
        <ele>190.2</ele>
        <time>2024-09-18T14:20:37Z</time>
      </trkpt>
      <trkpt lat="46.49511" lon="4.9213">
        <ele>190.2</ele>
        <time>2024-09-18T14:20:38Z</time>
      </trkpt>
      <trkpt lat="46.49509" lon="4.92126">
        <ele>190.2</ele>
        <time>2024-09-18T14:20:39Z</time>
      </trkpt>
      <trkpt lat="46.49506" lon="4.92121">
        <ele>189.8</ele>
        <time>2024-09-18T14:20:40Z</time>
      </trkpt>
      <trkpt lat="46.49503" lon="4.92116">
        <ele>189.8</ele>
        <time>2024-09-18T14:20:41Z</time>
      </trkpt>
      <trkpt lat="46.495" lon="4.92111">
        <ele>189.8</ele>
        <time>2024-09-18T14:20:42Z</time>
      </trkpt>
      <trkpt lat="46.49497" lon="4.92106">
        <ele>190</ele>
        <time>2024-09-18T14:20:43Z</time>
      </trkpt>
      <trkpt lat="46.49494" lon="4.92102">
        <ele>190.2</ele>
        <time>2024-09-18T14:20:44Z</time>
      </trkpt>
      <trkpt lat="46.49491" lon="4.92097">
        <ele>190.2</ele>
        <time>2024-09-18T14:20:45Z</time>
      </trkpt>
      <trkpt lat="46.49488" lon="4.92093">
        <ele>190.2</ele>
        <time>2024-09-18T14:20:46Z</time>
      </trkpt>
      <trkpt lat="46.49485" lon="4.92088">
        <ele>190.2</ele>
        <time>2024-09-18T14:20:47Z</time>
      </trkpt>
      <trkpt lat="46.49482" lon="4.92083">
        <ele>190.2</ele>
        <time>2024-09-18T14:20:48Z</time>
      </trkpt>
      <trkpt lat="46.49479" lon="4.92078">
        <ele>190.2</ele>
        <time>2024-09-18T14:20:49Z</time>
      </trkpt>
      <trkpt lat="46.49476" lon="4.92073">
        <ele>190.2</ele>
        <time>2024-09-18T14:20:50Z</time>
      </trkpt>
      <trkpt lat="46.49473" lon="4.92068">
        <ele>190.2</ele>
        <time>2024-09-18T14:20:51Z</time>
      </trkpt>
      <trkpt lat="46.4947" lon="4.92063">
        <ele>190.2</ele>
        <time>2024-09-18T14:20:52Z</time>
      </trkpt>
      <trkpt lat="46.49467" lon="4.92059">
        <ele>190.2</ele>
        <time>2024-09-18T14:20:53Z</time>
      </trkpt>
      <trkpt lat="46.49463" lon="4.92054">
        <ele>190.2</ele>
        <time>2024-09-18T14:20:54Z</time>
      </trkpt>
      <trkpt lat="46.4946" lon="4.92049">
        <ele>190.2</ele>
        <time>2024-09-18T14:20:55Z</time>
      </trkpt>
      <trkpt lat="46.49457" lon="4.92044">
        <ele>190.2</ele>
        <time>2024-09-18T14:20:56Z</time>
      </trkpt>
      <trkpt lat="46.49454" lon="4.9204">
        <ele>190.2</ele>
        <time>2024-09-18T14:20:57Z</time>
      </trkpt>
      <trkpt lat="46.49451" lon="4.92035">
        <ele>190.2</ele>
        <time>2024-09-18T14:20:58Z</time>
      </trkpt>
      <trkpt lat="46.49446" lon="4.92028">
        <ele>190.2</ele>
        <time>2024-09-18T14:20:59Z</time>
      </trkpt>
      <trkpt lat="46.49445" lon="4.92026">
        <ele>190.2</ele>
        <time>2024-09-18T14:21:00Z</time>
      </trkpt>
      <trkpt lat="46.4944" lon="4.92018">
        <ele>190.2</ele>
        <time>2024-09-18T14:21:01Z</time>
      </trkpt>
      <trkpt lat="46.49438" lon="4.92016">
        <ele>190.4</ele>
        <time>2024-09-18T14:21:02Z</time>
      </trkpt>
      <trkpt lat="46.49434" lon="4.92008">
        <ele>190.4</ele>
        <time>2024-09-18T14:21:03Z</time>
      </trkpt>
      <trkpt lat="46.49432" lon="4.92006">
        <ele>190.4</ele>
        <time>2024-09-18T14:21:04Z</time>
      </trkpt>
      <trkpt lat="46.49428" lon="4.91998">
        <ele>189.8</ele>
        <time>2024-09-18T14:21:05Z</time>
      </trkpt>
      <trkpt lat="46.49426" lon="4.91996">
        <ele>189.8</ele>
        <time>2024-09-18T14:21:06Z</time>
      </trkpt>
      <trkpt lat="46.49422" lon="4.91988">
        <ele>189.8</ele>
        <time>2024-09-18T14:21:07Z</time>
      </trkpt>
      <trkpt lat="46.4942" lon="4.91985">
        <ele>189.8</ele>
        <time>2024-09-18T14:21:08Z</time>
      </trkpt>
      <trkpt lat="46.49416" lon="4.91977">
        <ele>189.8</ele>
        <time>2024-09-18T14:21:09Z</time>
      </trkpt>
      <trkpt lat="46.49414" lon="4.91975">
        <ele>189.8</ele>
        <time>2024-09-18T14:21:10Z</time>
      </trkpt>
      <trkpt lat="46.49411" lon="4.91969">
        <ele>189.8</ele>
        <time>2024-09-18T14:21:11Z</time>
      </trkpt>
      <trkpt lat="46.49407" lon="4.91961">
        <ele>189.2</ele>
        <time>2024-09-18T14:21:12Z</time>
      </trkpt>
      <trkpt lat="46.49405" lon="4.91959">
        <ele>189.2</ele>
        <time>2024-09-18T14:21:13Z</time>
      </trkpt>
      <trkpt lat="46.49402" lon="4.91953">
        <ele>189.2</ele>
        <time>2024-09-18T14:21:14Z</time>
      </trkpt>
      <trkpt lat="46.49399" lon="4.91948">
        <ele>189.6</ele>
        <time>2024-09-18T14:21:15Z</time>
      </trkpt>
      <trkpt lat="46.49396" lon="4.91943">
        <ele>189.8</ele>
        <time>2024-09-18T14:21:16Z</time>
      </trkpt>
      <trkpt lat="46.49392" lon="4.91938">
        <ele>189.8</ele>
        <time>2024-09-18T14:21:17Z</time>
      </trkpt>
      <trkpt lat="46.49389" lon="4.91932">
        <ele>189.8</ele>
        <time>2024-09-18T14:21:18Z</time>
      </trkpt>
      <trkpt lat="46.49385" lon="4.91928">
        <ele>190.2</ele>
        <time>2024-09-18T14:21:19Z</time>
      </trkpt>
      <trkpt lat="46.49382" lon="4.91924">
        <ele>190</ele>
        <time>2024-09-18T14:21:20Z</time>
      </trkpt>
      <trkpt lat="46.49378" lon="4.9192">
        <ele>190</ele>
        <time>2024-09-18T14:21:21Z</time>
      </trkpt>
      <trkpt lat="46.49375" lon="4.91916">
        <ele>190</ele>
        <time>2024-09-18T14:21:22Z</time>
      </trkpt>
      <trkpt lat="46.49372" lon="4.91912">
        <ele>190</ele>
        <time>2024-09-18T14:21:23Z</time>
      </trkpt>
      <trkpt lat="46.49369" lon="4.91907">
        <ele>190</ele>
        <time>2024-09-18T14:21:24Z</time>
      </trkpt>
      <trkpt lat="46.49366" lon="4.91904">
        <ele>189.6</ele>
        <time>2024-09-18T14:21:25Z</time>
      </trkpt>
      <trkpt lat="46.49362" lon="4.919">
        <ele>189.6</ele>
        <time>2024-09-18T14:21:26Z</time>
      </trkpt>
      <trkpt lat="46.49359" lon="4.91895">
        <ele>189.6</ele>
        <time>2024-09-18T14:21:27Z</time>
      </trkpt>
      <trkpt lat="46.49355" lon="4.91892">
        <ele>190</ele>
        <time>2024-09-18T14:21:28Z</time>
      </trkpt>
      <trkpt lat="46.4935" lon="4.91885">
        <ele>190.2</ele>
        <time>2024-09-18T14:21:29Z</time>
      </trkpt>
      <trkpt lat="46.49348" lon="4.91883">
        <ele>190.2</ele>
        <time>2024-09-18T14:21:30Z</time>
      </trkpt>
      <trkpt lat="46.49343" lon="4.91877">
        <ele>190.2</ele>
        <time>2024-09-18T14:21:31Z</time>
      </trkpt>
      <trkpt lat="46.49341" lon="4.91875">
        <ele>189.6</ele>
        <time>2024-09-18T14:21:32Z</time>
      </trkpt>
      <trkpt lat="46.49338" lon="4.91871">
        <ele>189.8</ele>
        <time>2024-09-18T14:21:33Z</time>
      </trkpt>
      <trkpt lat="46.49334" lon="4.91866">
        <ele>189.8</ele>
        <time>2024-09-18T14:21:34Z</time>
      </trkpt>
      <trkpt lat="46.4933" lon="4.91862">
        <ele>189.8</ele>
        <time>2024-09-18T14:21:35Z</time>
      </trkpt>
      <trkpt lat="46.49327" lon="4.91857">
        <ele>189.8</ele>
        <time>2024-09-18T14:21:36Z</time>
      </trkpt>
      <trkpt lat="46.49324" lon="4.91853">
        <ele>190</ele>
        <time>2024-09-18T14:21:37Z</time>
      </trkpt>
      <trkpt lat="46.49321" lon="4.91849">
        <ele>190.2</ele>
        <time>2024-09-18T14:21:38Z</time>
      </trkpt>
      <trkpt lat="46.49318" lon="4.91844">
        <ele>190.2</ele>
        <time>2024-09-18T14:21:39Z</time>
      </trkpt>
      <trkpt lat="46.49314" lon="4.9184">
        <ele>190.2</ele>
        <time>2024-09-18T14:21:40Z</time>
      </trkpt>
      <trkpt lat="46.49309" lon="4.91834">
        <ele>190.2</ele>
        <time>2024-09-18T14:21:41Z</time>
      </trkpt>
      <trkpt lat="46.49307" lon="4.91832">
        <ele>190</ele>
        <time>2024-09-18T14:21:42Z</time>
      </trkpt>
      <trkpt lat="46.49302" lon="4.91825">
        <ele>190</ele>
        <time>2024-09-18T14:21:43Z</time>
      </trkpt>
      <trkpt lat="46.49301" lon="4.91823">
        <ele>190</ele>
        <time>2024-09-18T14:21:44Z</time>
      </trkpt>
      <trkpt lat="46.49296" lon="4.91817">
        <ele>190</ele>
        <time>2024-09-18T14:21:45Z</time>
      </trkpt>
      <trkpt lat="46.49294" lon="4.91814">
        <ele>190.4</ele>
        <time>2024-09-18T14:21:46Z</time>
      </trkpt>
      <trkpt lat="46.49289" lon="4.91807">
        <ele>190.4</ele>
        <time>2024-09-18T14:21:47Z</time>
      </trkpt>
      <trkpt lat="46.49288" lon="4.91805">
        <ele>190.4</ele>
        <time>2024-09-18T14:21:48Z</time>
      </trkpt>
      <trkpt lat="46.49283" lon="4.91799">
        <ele>190.4</ele>
        <time>2024-09-18T14:21:49Z</time>
      </trkpt>
      <trkpt lat="46.49281" lon="4.91797">
        <ele>190</ele>
        <time>2024-09-18T14:21:50Z</time>
      </trkpt>
      <trkpt lat="46.49276" lon="4.9179">
        <ele>190.2</ele>
        <time>2024-09-18T14:21:51Z</time>
      </trkpt>
      <trkpt lat="46.49274" lon="4.91788">
        <ele>190.2</ele>
        <time>2024-09-18T14:21:52Z</time>
      </trkpt>
      <trkpt lat="46.49268" lon="4.91781">
        <ele>190.2</ele>
        <time>2024-09-18T14:21:53Z</time>
      </trkpt>
      <trkpt lat="46.49267" lon="4.91778">
        <ele>190.2</ele>
        <time>2024-09-18T14:21:54Z</time>
      </trkpt>
      <trkpt lat="46.49261" lon="4.91771">
        <ele>189.8</ele>
        <time>2024-09-18T14:21:55Z</time>
      </trkpt>
      <trkpt lat="46.49259" lon="4.91768">
        <ele>189.8</ele>
        <time>2024-09-18T14:21:56Z</time>
      </trkpt>
      <trkpt lat="46.49256" lon="4.91763">
        <ele>189.8</ele>
        <time>2024-09-18T14:21:57Z</time>
      </trkpt>
      <trkpt lat="46.49252" lon="4.91758">
        <ele>189.8</ele>
        <time>2024-09-18T14:21:58Z</time>
      </trkpt>
      <trkpt lat="46.49249" lon="4.91753">
        <ele>189.8</ele>
        <time>2024-09-18T14:21:59Z</time>
      </trkpt>
      <trkpt lat="46.49245" lon="4.91749">
        <ele>189.8</ele>
        <time>2024-09-18T14:22:00Z</time>
      </trkpt>
      <trkpt lat="46.49242" lon="4.91744">
        <ele>189.8</ele>
        <time>2024-09-18T14:22:01Z</time>
      </trkpt>
      <trkpt lat="46.49238" lon="4.9174">
        <ele>189.8</ele>
        <time>2024-09-18T14:22:02Z</time>
      </trkpt>
      <trkpt lat="46.49235" lon="4.91735">
        <ele>189.8</ele>
        <time>2024-09-18T14:22:03Z</time>
      </trkpt>
      <trkpt lat="46.49232" lon="4.91731">
        <ele>189.2</ele>
        <time>2024-09-18T14:22:04Z</time>
      </trkpt>
      <trkpt lat="46.49229" lon="4.91726">
        <ele>189.6</ele>
        <time>2024-09-18T14:22:05Z</time>
      </trkpt>
      <trkpt lat="46.49226" lon="4.91722">
        <ele>189.6</ele>
        <time>2024-09-18T14:22:06Z</time>
      </trkpt>
      <trkpt lat="46.49224" lon="4.91717">
        <ele>189.6</ele>
        <time>2024-09-18T14:22:07Z</time>
      </trkpt>
      <trkpt lat="46.49221" lon="4.91712">
        <ele>189.4</ele>
        <time>2024-09-18T14:22:08Z</time>
      </trkpt>
      <trkpt lat="46.49218" lon="4.91708">
        <ele>189.2</ele>
        <time>2024-09-18T14:22:09Z</time>
      </trkpt>
      <trkpt lat="46.49215" lon="4.91703">
        <ele>189.2</ele>
        <time>2024-09-18T14:22:10Z</time>
      </trkpt>
      <trkpt lat="46.49212" lon="4.91698">
        <ele>189.2</ele>
        <time>2024-09-18T14:22:11Z</time>
      </trkpt>
      <trkpt lat="46.49208" lon="4.91693">
        <ele>189.2</ele>
        <time>2024-09-18T14:22:12Z</time>
      </trkpt>
      <trkpt lat="46.49205" lon="4.91688">
        <ele>189.2</ele>
        <time>2024-09-18T14:22:13Z</time>
      </trkpt>
      <trkpt lat="46.49202" lon="4.91683">
        <ele>189</ele>
        <time>2024-09-18T14:22:14Z</time>
      </trkpt>
      <trkpt lat="46.49199" lon="4.91677">
        <ele>189</ele>
        <time>2024-09-18T14:22:15Z</time>
      </trkpt>
      <trkpt lat="46.49197" lon="4.91672">
        <ele>189</ele>
        <time>2024-09-18T14:22:16Z</time>
      </trkpt>
      <trkpt lat="46.49194" lon="4.91667">
        <ele>189</ele>
        <time>2024-09-18T14:22:17Z</time>
      </trkpt>
      <trkpt lat="46.49191" lon="4.91661">
        <ele>189</ele>
        <time>2024-09-18T14:22:18Z</time>
      </trkpt>
      <trkpt lat="46.49188" lon="4.91655">
        <ele>189</ele>
        <time>2024-09-18T14:22:19Z</time>
      </trkpt>
      <trkpt lat="46.49185" lon="4.9165">
        <ele>189</ele>
        <time>2024-09-18T14:22:20Z</time>
      </trkpt>
      <trkpt lat="46.49183" lon="4.91644">
        <ele>189</ele>
        <time>2024-09-18T14:22:21Z</time>
      </trkpt>
      <trkpt lat="46.4918" lon="4.91638">
        <ele>188.8</ele>
        <time>2024-09-18T14:22:22Z</time>
      </trkpt>
      <trkpt lat="46.49177" lon="4.91633">
        <ele>188.8</ele>
        <time>2024-09-18T14:22:23Z</time>
      </trkpt>
      <trkpt lat="46.49173" lon="4.91624">
        <ele>188.8</ele>
        <time>2024-09-18T14:22:24Z</time>
      </trkpt>
      <trkpt lat="46.49172" lon="4.91621">
        <ele>188.8</ele>
        <time>2024-09-18T14:22:25Z</time>
      </trkpt>
      <trkpt lat="46.49168" lon="4.91613">
        <ele>189</ele>
        <time>2024-09-18T14:22:26Z</time>
      </trkpt>
      <trkpt lat="46.49167" lon="4.9161">
        <ele>189.2</ele>
        <time>2024-09-18T14:22:27Z</time>
      </trkpt>
      <trkpt lat="46.49164" lon="4.91605">
        <ele>189.2</ele>
        <time>2024-09-18T14:22:28Z</time>
      </trkpt>
      <trkpt lat="46.49162" lon="4.91599">
        <ele>189.2</ele>
        <time>2024-09-18T14:22:29Z</time>
      </trkpt>
      <trkpt lat="46.49158" lon="4.91591">
        <ele>189.2</ele>
        <time>2024-09-18T14:22:30Z</time>
      </trkpt>
      <trkpt lat="46.49157" lon="4.91588">
        <ele>189.4</ele>
        <time>2024-09-18T14:22:31Z</time>
      </trkpt>
      <trkpt lat="46.49154" lon="4.9158">
        <ele>189.4</ele>
        <time>2024-09-18T14:22:32Z</time>
      </trkpt>
      <trkpt lat="46.49153" lon="4.91577">
        <ele>189.4</ele>
        <time>2024-09-18T14:22:33Z</time>
      </trkpt>
      <trkpt lat="46.49149" lon="4.91569">
        <ele>189.4</ele>
        <time>2024-09-18T14:22:34Z</time>
      </trkpt>
      <trkpt lat="46.49148" lon="4.91567">
        <ele>189.2</ele>
        <time>2024-09-18T14:22:35Z</time>
      </trkpt>
      <trkpt lat="46.49144" lon="4.91559">
        <ele>189.2</ele>
        <time>2024-09-18T14:22:36Z</time>
      </trkpt>
      <trkpt lat="46.49143" lon="4.91556">
        <ele>189.2</ele>
        <time>2024-09-18T14:22:37Z</time>
      </trkpt>
      <trkpt lat="46.49139" lon="4.91548">
        <ele>189.2</ele>
        <time>2024-09-18T14:22:38Z</time>
      </trkpt>
      <trkpt lat="46.49138" lon="4.91545">
        <ele>189.2</ele>
        <time>2024-09-18T14:22:39Z</time>
      </trkpt>
      <trkpt lat="46.49135" lon="4.91539">
        <ele>189</ele>
        <time>2024-09-18T14:22:40Z</time>
      </trkpt>
      <trkpt lat="46.49133" lon="4.91533">
        <ele>189.2</ele>
        <time>2024-09-18T14:22:41Z</time>
      </trkpt>
      <trkpt lat="46.4913" lon="4.91528">
        <ele>189.2</ele>
        <time>2024-09-18T14:22:42Z</time>
      </trkpt>
      <trkpt lat="46.49127" lon="4.91522">
        <ele>189.2</ele>
        <time>2024-09-18T14:22:43Z</time>
      </trkpt>
      <trkpt lat="46.49125" lon="4.91516">
        <ele>189.2</ele>
        <time>2024-09-18T14:22:44Z</time>
      </trkpt>
      <trkpt lat="46.49122" lon="4.91511">
        <ele>189.2</ele>
        <time>2024-09-18T14:22:45Z</time>
      </trkpt>
      <trkpt lat="46.49119" lon="4.91505">
        <ele>189.2</ele>
        <time>2024-09-18T14:22:46Z</time>
      </trkpt>
      <trkpt lat="46.49117" lon="4.91499">
        <ele>189.2</ele>
        <time>2024-09-18T14:22:47Z</time>
      </trkpt>
      <trkpt lat="46.49114" lon="4.91494">
        <ele>188.8</ele>
        <time>2024-09-18T14:22:48Z</time>
      </trkpt>
      <trkpt lat="46.49111" lon="4.91488">
        <ele>188.8</ele>
        <time>2024-09-18T14:22:49Z</time>
      </trkpt>
      <trkpt lat="46.49109" lon="4.91482">
        <ele>189.2</ele>
        <time>2024-09-18T14:22:50Z</time>
      </trkpt>
      <trkpt lat="46.49106" lon="4.91477">
        <ele>189.2</ele>
        <time>2024-09-18T14:22:51Z</time>
      </trkpt>
      <trkpt lat="46.49104" lon="4.91472">
        <ele>189.2</ele>
        <time>2024-09-18T14:22:52Z</time>
      </trkpt>
      <trkpt lat="46.49102" lon="4.91467">
        <ele>189.2</ele>
        <time>2024-09-18T14:22:53Z</time>
      </trkpt>
      <trkpt lat="46.49099" lon="4.91462">
        <ele>189</ele>
        <time>2024-09-18T14:22:54Z</time>
      </trkpt>
      <trkpt lat="46.49097" lon="4.91457">
        <ele>189</ele>
        <time>2024-09-18T14:22:55Z</time>
      </trkpt>
      <trkpt lat="46.49095" lon="4.91453">
        <ele>189</ele>
        <time>2024-09-18T14:22:56Z</time>
      </trkpt>
      <trkpt lat="46.49093" lon="4.91448">
        <ele>189</ele>
        <time>2024-09-18T14:22:57Z</time>
      </trkpt>
      <trkpt lat="46.49091" lon="4.91444">
        <ele>188.8</ele>
        <time>2024-09-18T14:22:58Z</time>
      </trkpt>
      <trkpt lat="46.49089" lon="4.9144">
        <ele>188.8</ele>
        <time>2024-09-18T14:22:59Z</time>
      </trkpt>
      <trkpt lat="46.49086" lon="4.91436">
        <ele>188.8</ele>
        <time>2024-09-18T14:23:00Z</time>
      </trkpt>
      <trkpt lat="46.49083" lon="4.91434">
        <ele>188.8</ele>
        <time>2024-09-18T14:23:01Z</time>
      </trkpt>
      <trkpt lat="46.4908" lon="4.91431">
        <ele>188.8</ele>
        <time>2024-09-18T14:23:02Z</time>
      </trkpt>
      <trkpt lat="46.49077" lon="4.91427">
        <ele>189</ele>
        <time>2024-09-18T14:23:03Z</time>
      </trkpt>
      <trkpt lat="46.49073" lon="4.91422">
        <ele>189</ele>
        <time>2024-09-18T14:23:04Z</time>
      </trkpt>
      <trkpt lat="46.49071" lon="4.91421">
        <ele>189</ele>
        <time>2024-09-18T14:23:05Z</time>
      </trkpt>
      <trkpt lat="46.49068" lon="4.91417">
        <ele>188.8</ele>
        <time>2024-09-18T14:23:06Z</time>
      </trkpt>
      <trkpt lat="46.49065" lon="4.91413">
        <ele>189</ele>
        <time>2024-09-18T14:23:07Z</time>
      </trkpt>
      <trkpt lat="46.4906" lon="4.91408">
        <ele>189</ele>
        <time>2024-09-18T14:23:08Z</time>
      </trkpt>
      <trkpt lat="46.49058" lon="4.91406">
        <ele>189</ele>
        <time>2024-09-18T14:23:09Z</time>
      </trkpt>
      <trkpt lat="46.49053" lon="4.914">
        <ele>189</ele>
        <time>2024-09-18T14:23:10Z</time>
      </trkpt>
      <trkpt lat="46.49051" lon="4.91398">
        <ele>189</ele>
        <time>2024-09-18T14:23:11Z</time>
      </trkpt>
      <trkpt lat="46.49045" lon="4.91392">
        <ele>189</ele>
        <time>2024-09-18T14:23:12Z</time>
      </trkpt>
      <trkpt lat="46.49043" lon="4.91391">
        <ele>189</ele>
        <time>2024-09-18T14:23:13Z</time>
      </trkpt>
      <trkpt lat="46.49038" lon="4.91385">
        <ele>189</ele>
        <time>2024-09-18T14:23:14Z</time>
      </trkpt>
      <trkpt lat="46.49036" lon="4.91383">
        <ele>189</ele>
        <time>2024-09-18T14:23:15Z</time>
      </trkpt>
      <trkpt lat="46.4903" lon="4.91378">
        <ele>189</ele>
        <time>2024-09-18T14:23:16Z</time>
      </trkpt>
      <trkpt lat="46.49028" lon="4.91377">
        <ele>189.2</ele>
        <time>2024-09-18T14:23:17Z</time>
      </trkpt>
      <trkpt lat="46.49024" lon="4.91373">
        <ele>189.2</ele>
        <time>2024-09-18T14:23:18Z</time>
      </trkpt>
      <trkpt lat="46.49021" lon="4.9137">
        <ele>189.2</ele>
        <time>2024-09-18T14:23:19Z</time>
      </trkpt>
      <trkpt lat="46.49015" lon="4.91365">
        <ele>189.2</ele>
        <time>2024-09-18T14:23:20Z</time>
      </trkpt>
      <trkpt lat="46.49013" lon="4.91363">
        <ele>189</ele>
        <time>2024-09-18T14:23:21Z</time>
      </trkpt>
      <trkpt lat="46.49008" lon="4.9136">
        <ele>189</ele>
        <time>2024-09-18T14:23:22Z</time>
      </trkpt>
      <trkpt lat="46.49004" lon="4.91357">
        <ele>189</ele>
        <time>2024-09-18T14:23:23Z</time>
      </trkpt>
      <trkpt lat="46.49" lon="4.91353">
        <ele>189</ele>
        <time>2024-09-18T14:23:24Z</time>
      </trkpt>
      <trkpt lat="46.48996" lon="4.9135">
        <ele>189</ele>
        <time>2024-09-18T14:23:25Z</time>
      </trkpt>
      <trkpt lat="46.48992" lon="4.91347">
        <ele>189</ele>
        <time>2024-09-18T14:23:26Z</time>
      </trkpt>
      <trkpt lat="46.48988" lon="4.91344">
        <ele>189</ele>
        <time>2024-09-18T14:23:27Z</time>
      </trkpt>
      <trkpt lat="46.48984" lon="4.9134">
        <ele>189</ele>
        <time>2024-09-18T14:23:28Z</time>
      </trkpt>
      <trkpt lat="46.4898" lon="4.91337">
        <ele>189</ele>
        <time>2024-09-18T14:23:29Z</time>
      </trkpt>
      <trkpt lat="46.48976" lon="4.91334">
        <ele>189</ele>
        <time>2024-09-18T14:23:30Z</time>
      </trkpt>
      <trkpt lat="46.48972" lon="4.91331">
        <ele>189</ele>
        <time>2024-09-18T14:23:31Z</time>
      </trkpt>
      <trkpt lat="46.48968" lon="4.91329">
        <ele>189</ele>
        <time>2024-09-18T14:23:32Z</time>
      </trkpt>
      <trkpt lat="46.48964" lon="4.91327">
        <ele>189</ele>
        <time>2024-09-18T14:23:33Z</time>
      </trkpt>
      <trkpt lat="46.4896" lon="4.91324">
        <ele>189</ele>
        <time>2024-09-18T14:23:34Z</time>
      </trkpt>
      <trkpt lat="46.48955" lon="4.91321">
        <ele>189</ele>
        <time>2024-09-18T14:23:35Z</time>
      </trkpt>
      <trkpt lat="46.48951" lon="4.91319">
        <ele>189</ele>
        <time>2024-09-18T14:23:36Z</time>
      </trkpt>
      <trkpt lat="46.48947" lon="4.91317">
        <ele>189</ele>
        <time>2024-09-18T14:23:37Z</time>
      </trkpt>
      <trkpt lat="46.48942" lon="4.91315">
        <ele>189</ele>
        <time>2024-09-18T14:23:38Z</time>
      </trkpt>
      <trkpt lat="46.48938" lon="4.91312">
        <ele>189.2</ele>
        <time>2024-09-18T14:23:39Z</time>
      </trkpt>
      <trkpt lat="46.48934" lon="4.9131">
        <ele>189.2</ele>
        <time>2024-09-18T14:23:40Z</time>
      </trkpt>
      <trkpt lat="46.48929" lon="4.91308">
        <ele>189.2</ele>
        <time>2024-09-18T14:23:41Z</time>
      </trkpt>
      <trkpt lat="46.48925" lon="4.91306">
        <ele>189.2</ele>
        <time>2024-09-18T14:23:42Z</time>
      </trkpt>
      <trkpt lat="46.48921" lon="4.91304">
        <ele>189.4</ele>
        <time>2024-09-18T14:23:43Z</time>
      </trkpt>
      <trkpt lat="46.48917" lon="4.91303">
        <ele>189.4</ele>
        <time>2024-09-18T14:23:44Z</time>
      </trkpt>
      <trkpt lat="46.48912" lon="4.91301">
        <ele>189.4</ele>
        <time>2024-09-18T14:23:45Z</time>
      </trkpt>
      <trkpt lat="46.48908" lon="4.91299">
        <ele>189.4</ele>
        <time>2024-09-18T14:23:46Z</time>
      </trkpt>
      <trkpt lat="46.48904" lon="4.91297">
        <ele>189.4</ele>
        <time>2024-09-18T14:23:47Z</time>
      </trkpt>
      <trkpt lat="46.48897" lon="4.91294">
        <ele>189.4</ele>
        <time>2024-09-18T14:23:48Z</time>
      </trkpt>
      <trkpt lat="46.48895" lon="4.91293">
        <ele>189.4</ele>
        <time>2024-09-18T14:23:49Z</time>
      </trkpt>
      <trkpt lat="46.48889" lon="4.91289">
        <ele>189.4</ele>
        <time>2024-09-18T14:23:50Z</time>
      </trkpt>
      <trkpt lat="46.48887" lon="4.91288">
        <ele>189.4</ele>
        <time>2024-09-18T14:23:51Z</time>
      </trkpt>
      <trkpt lat="46.4888" lon="4.91285">
        <ele>189.2</ele>
        <time>2024-09-18T14:23:52Z</time>
      </trkpt>
      <trkpt lat="46.48879" lon="4.91284">
        <ele>189.2</ele>
        <time>2024-09-18T14:23:53Z</time>
      </trkpt>
      <trkpt lat="46.48872" lon="4.91281">
        <ele>189.2</ele>
        <time>2024-09-18T14:23:54Z</time>
      </trkpt>
      <trkpt lat="46.4887" lon="4.9128">
        <ele>189.4</ele>
        <time>2024-09-18T14:23:55Z</time>
      </trkpt>
      <trkpt lat="46.48864" lon="4.91277">
        <ele>189.4</ele>
        <time>2024-09-18T14:23:56Z</time>
      </trkpt>
      <trkpt lat="46.48862" lon="4.91276">
        <ele>189.4</ele>
        <time>2024-09-18T14:23:57Z</time>
      </trkpt>
      <trkpt lat="46.48857" lon="4.91274">
        <ele>189.4</ele>
        <time>2024-09-18T14:23:58Z</time>
      </trkpt>
      <trkpt lat="46.48853" lon="4.91272">
        <ele>189.4</ele>
        <time>2024-09-18T14:23:59Z</time>
      </trkpt>
      <trkpt lat="46.48849" lon="4.9127">
        <ele>189.4</ele>
        <time>2024-09-18T14:24:00Z</time>
      </trkpt>
      <trkpt lat="46.48845" lon="4.91268">
        <ele>189.4</ele>
        <time>2024-09-18T14:24:01Z</time>
      </trkpt>
      <trkpt lat="46.48841" lon="4.91266">
        <ele>189.6</ele>
        <time>2024-09-18T14:24:02Z</time>
      </trkpt>
      <trkpt lat="46.48836" lon="4.91265">
        <ele>189.6</ele>
        <time>2024-09-18T14:24:03Z</time>
      </trkpt>
      <trkpt lat="46.48832" lon="4.91263">
        <ele>189.6</ele>
        <time>2024-09-18T14:24:04Z</time>
      </trkpt>
      <trkpt lat="46.48827" lon="4.91261">
        <ele>189.6</ele>
        <time>2024-09-18T14:24:05Z</time>
      </trkpt>
      <trkpt lat="46.48822" lon="4.91259">
        <ele>189.6</ele>
        <time>2024-09-18T14:24:06Z</time>
      </trkpt>
      <trkpt lat="46.48817" lon="4.91258">
        <ele>189.6</ele>
        <time>2024-09-18T14:24:07Z</time>
      </trkpt>
      <trkpt lat="46.48812" lon="4.91257">
        <ele>189.6</ele>
        <time>2024-09-18T14:24:08Z</time>
      </trkpt>
      <trkpt lat="46.48807" lon="4.91255">
        <ele>189.8</ele>
        <time>2024-09-18T14:24:09Z</time>
      </trkpt>
      <trkpt lat="46.48802" lon="4.91254">
        <ele>189.8</ele>
        <time>2024-09-18T14:24:10Z</time>
      </trkpt>
      <trkpt lat="46.48797" lon="4.91252">
        <ele>189.8</ele>
        <time>2024-09-18T14:24:11Z</time>
      </trkpt>
      <trkpt lat="46.48793" lon="4.9125">
        <ele>189.8</ele>
        <time>2024-09-18T14:24:12Z</time>
      </trkpt>
      <trkpt lat="46.48788" lon="4.91249">
        <ele>189.8</ele>
        <time>2024-09-18T14:24:13Z</time>
      </trkpt>
      <trkpt lat="46.48783" lon="4.91247">
        <ele>189.8</ele>
        <time>2024-09-18T14:24:14Z</time>
      </trkpt>
      <trkpt lat="46.48779" lon="4.91246">
        <ele>190</ele>
        <time>2024-09-18T14:24:15Z</time>
      </trkpt>
      <trkpt lat="46.48776" lon="4.91246">
        <ele>190</ele>
        <time>2024-09-18T14:24:16Z</time>
      </trkpt>
      <trkpt lat="46.48772" lon="4.91247">
        <ele>190</ele>
        <time>2024-09-18T14:24:17Z</time>
      </trkpt>
      <trkpt lat="46.4877" lon="4.91248">
        <ele>189.8</ele>
        <time>2024-09-18T14:24:18Z</time>
      </trkpt>
      <trkpt lat="46.48767" lon="4.91249">
        <ele>189.8</ele>
        <time>2024-09-18T14:24:19Z</time>
      </trkpt>
      <trkpt lat="46.48765" lon="4.91251">
        <ele>189.8</ele>
        <time>2024-09-18T14:24:20Z</time>
      </trkpt>
      <trkpt lat="46.48762" lon="4.91251">
        <ele>189.8</ele>
        <time>2024-09-18T14:24:21Z</time>
      </trkpt>
      <trkpt lat="46.48758" lon="4.91252">
        <ele>189.4</ele>
        <time>2024-09-18T14:24:22Z</time>
      </trkpt>
      <trkpt lat="46.48755" lon="4.91252">
        <ele>189.4</ele>
        <time>2024-09-18T14:24:23Z</time>
      </trkpt>
      <trkpt lat="46.48752" lon="4.91252">
        <ele>189.8</ele>
        <time>2024-09-18T14:24:24Z</time>
      </trkpt>
      <trkpt lat="46.48748" lon="4.91251">
        <ele>189.8</ele>
        <time>2024-09-18T14:24:25Z</time>
      </trkpt>
      <trkpt lat="46.48745" lon="4.91251">
        <ele>189.8</ele>
        <time>2024-09-18T14:24:26Z</time>
      </trkpt>
      <trkpt lat="46.48741" lon="4.9125">
        <ele>189.8</ele>
        <time>2024-09-18T14:24:27Z</time>
      </trkpt>
      <trkpt lat="46.48735" lon="4.91249">
        <ele>189.4</ele>
        <time>2024-09-18T14:24:28Z</time>
      </trkpt>
      <trkpt lat="46.48733" lon="4.91249">
        <ele>189.4</ele>
        <time>2024-09-18T14:24:29Z</time>
      </trkpt>
      <trkpt lat="46.48727" lon="4.91248">
        <ele>189.4</ele>
        <time>2024-09-18T14:24:30Z</time>
      </trkpt>
      <trkpt lat="46.48724" lon="4.91247">
        <ele>189.4</ele>
        <time>2024-09-18T14:24:31Z</time>
      </trkpt>
      <trkpt lat="46.48717" lon="4.91247">
        <ele>188.6</ele>
        <time>2024-09-18T14:24:32Z</time>
      </trkpt>
      <trkpt lat="46.48715" lon="4.91246">
        <ele>188.6</ele>
        <time>2024-09-18T14:24:33Z</time>
      </trkpt>
      <trkpt lat="46.48707" lon="4.91245">
        <ele>188.6</ele>
        <time>2024-09-18T14:24:34Z</time>
      </trkpt>
      <trkpt lat="46.48705" lon="4.91245">
        <ele>189.4</ele>
        <time>2024-09-18T14:24:35Z</time>
      </trkpt>
      <trkpt lat="46.48698" lon="4.91243">
        <ele>189.4</ele>
        <time>2024-09-18T14:24:36Z</time>
      </trkpt>
      <trkpt lat="46.48696" lon="4.91242">
        <ele>188.8</ele>
        <time>2024-09-18T14:24:37Z</time>
      </trkpt>
      <trkpt lat="46.48691" lon="4.91241">
        <ele>188.8</ele>
        <time>2024-09-18T14:24:38Z</time>
      </trkpt>
      <trkpt lat="46.48686" lon="4.9124">
        <ele>188.8</ele>
        <time>2024-09-18T14:24:39Z</time>
      </trkpt>
      <trkpt lat="46.4868" lon="4.91238">
        <ele>189.6</ele>
        <time>2024-09-18T14:24:40Z</time>
      </trkpt>
      <trkpt lat="46.48677" lon="4.91237">
        <ele>189.6</ele>
        <time>2024-09-18T14:24:41Z</time>
      </trkpt>
      <trkpt lat="46.48671" lon="4.91235">
        <ele>189.8</ele>
        <time>2024-09-18T14:24:42Z</time>
      </trkpt>
      <trkpt lat="46.48669" lon="4.91235">
        <ele>189.8</ele>
        <time>2024-09-18T14:24:43Z</time>
      </trkpt>
      <trkpt lat="46.48662" lon="4.91233">
        <ele>189.8</ele>
        <time>2024-09-18T14:24:44Z</time>
      </trkpt>
      <trkpt lat="46.4866" lon="4.91233">
        <ele>189.6</ele>
        <time>2024-09-18T14:24:45Z</time>
      </trkpt>
      <trkpt lat="46.48655" lon="4.91233">
        <ele>189.6</ele>
        <time>2024-09-18T14:24:46Z</time>
      </trkpt>
      <trkpt lat="46.4865" lon="4.91232">
        <ele>189.6</ele>
        <time>2024-09-18T14:24:47Z</time>
      </trkpt>
      <trkpt lat="46.48646" lon="4.91232">
        <ele>189.6</ele>
        <time>2024-09-18T14:24:48Z</time>
      </trkpt>
      <trkpt lat="46.48641" lon="4.91231">
        <ele>189.6</ele>
        <time>2024-09-18T14:24:49Z</time>
      </trkpt>
      <trkpt lat="46.48637" lon="4.9123">
        <ele>189.6</ele>
        <time>2024-09-18T14:24:50Z</time>
      </trkpt>
      <trkpt lat="46.48632" lon="4.91229">
        <ele>189.2</ele>
        <time>2024-09-18T14:24:51Z</time>
      </trkpt>
      <trkpt lat="46.48627" lon="4.91228">
        <ele>189.2</ele>
        <time>2024-09-18T14:24:52Z</time>
      </trkpt>
      <trkpt lat="46.48622" lon="4.91227">
        <ele>189.2</ele>
        <time>2024-09-18T14:24:53Z</time>
      </trkpt>
      <trkpt lat="46.48617" lon="4.91226">
        <ele>189.2</ele>
        <time>2024-09-18T14:24:54Z</time>
      </trkpt>
      <trkpt lat="46.48612" lon="4.91226">
        <ele>189.6</ele>
        <time>2024-09-18T14:24:55Z</time>
      </trkpt>
      <trkpt lat="46.48607" lon="4.91225">
        <ele>189.6</ele>
        <time>2024-09-18T14:24:56Z</time>
      </trkpt>
      <trkpt lat="46.48602" lon="4.91225">
        <ele>189.6</ele>
        <time>2024-09-18T14:24:57Z</time>
      </trkpt>
      <trkpt lat="46.48597" lon="4.91226">
        <ele>189.6</ele>
        <time>2024-09-18T14:24:58Z</time>
      </trkpt>
      <trkpt lat="46.48592" lon="4.91226">
        <ele>189.6</ele>
        <time>2024-09-18T14:24:59Z</time>
      </trkpt>
      <trkpt lat="46.48588" lon="4.91227">
        <ele>189.6</ele>
        <time>2024-09-18T14:25:00Z</time>
      </trkpt>
      <trkpt lat="46.48583" lon="4.91228">
        <ele>189.6</ele>
        <time>2024-09-18T14:25:01Z</time>
      </trkpt>
      <trkpt lat="46.48579" lon="4.91229">
        <ele>189.6</ele>
        <time>2024-09-18T14:25:02Z</time>
      </trkpt>
      <trkpt lat="46.48574" lon="4.9123">
        <ele>189.8</ele>
        <time>2024-09-18T14:25:03Z</time>
      </trkpt>
      <trkpt lat="46.4857" lon="4.9123">
        <ele>189.8</ele>
        <time>2024-09-18T14:25:04Z</time>
      </trkpt>
      <trkpt lat="46.48566" lon="4.91231">
        <ele>189.4</ele>
        <time>2024-09-18T14:25:05Z</time>
      </trkpt>
      <trkpt lat="46.48562" lon="4.91232">
        <ele>189.4</ele>
        <time>2024-09-18T14:25:06Z</time>
      </trkpt>
      <trkpt lat="46.48557" lon="4.91233">
        <ele>189.4</ele>
        <time>2024-09-18T14:25:07Z</time>
      </trkpt>
      <trkpt lat="46.48553" lon="4.91234">
        <ele>190</ele>
        <time>2024-09-18T14:25:08Z</time>
      </trkpt>
      <trkpt lat="46.48549" lon="4.91234">
        <ele>189.6</ele>
        <time>2024-09-18T14:25:09Z</time>
      </trkpt>
      <trkpt lat="46.48544" lon="4.91235">
        <ele>189.6</ele>
        <time>2024-09-18T14:25:10Z</time>
      </trkpt>
      <trkpt lat="46.4854" lon="4.91237">
        <ele>189.6</ele>
        <time>2024-09-18T14:25:11Z</time>
      </trkpt>
      <trkpt lat="46.48533" lon="4.91238">
        <ele>189.4</ele>
        <time>2024-09-18T14:25:12Z</time>
      </trkpt>
      <trkpt lat="46.48531" lon="4.91239">
        <ele>189.4</ele>
        <time>2024-09-18T14:25:13Z</time>
      </trkpt>
      <trkpt lat="46.48524" lon="4.91241">
        <ele>189.4</ele>
        <time>2024-09-18T14:25:14Z</time>
      </trkpt>
      <trkpt lat="46.48522" lon="4.91241">
        <ele>189.4</ele>
        <time>2024-09-18T14:25:15Z</time>
      </trkpt>
      <trkpt lat="46.48515" lon="4.91243">
        <ele>189.4</ele>
        <time>2024-09-18T14:25:16Z</time>
      </trkpt>
      <trkpt lat="46.48512" lon="4.91243">
        <ele>189.4</ele>
        <time>2024-09-18T14:25:17Z</time>
      </trkpt>
      <trkpt lat="46.48506" lon="4.91246">
        <ele>189</ele>
        <time>2024-09-18T14:25:18Z</time>
      </trkpt>
      <trkpt lat="46.48503" lon="4.91246">
        <ele>189</ele>
        <time>2024-09-18T14:25:19Z</time>
      </trkpt>
      <trkpt lat="46.48499" lon="4.91248">
        <ele>189</ele>
        <time>2024-09-18T14:25:20Z</time>
      </trkpt>
      <trkpt lat="46.48495" lon="4.91249">
        <ele>189</ele>
        <time>2024-09-18T14:25:21Z</time>
      </trkpt>
      <trkpt lat="46.48489" lon="4.91251">
        <ele>189</ele>
        <time>2024-09-18T14:25:22Z</time>
      </trkpt>
      <trkpt lat="46.48486" lon="4.91251">
        <ele>189</ele>
        <time>2024-09-18T14:25:23Z</time>
      </trkpt>
      <trkpt lat="46.4848" lon="4.91253">
        <ele>189</ele>
        <time>2024-09-18T14:25:24Z</time>
      </trkpt>
      <trkpt lat="46.48478" lon="4.91254">
        <ele>189</ele>
        <time>2024-09-18T14:25:25Z</time>
      </trkpt>
      <trkpt lat="46.48471" lon="4.91254">
        <ele>189</ele>
        <time>2024-09-18T14:25:26Z</time>
      </trkpt>
      <trkpt lat="46.48469" lon="4.91254">
        <ele>189.2</ele>
        <time>2024-09-18T14:25:27Z</time>
      </trkpt>
      <trkpt lat="46.48464" lon="4.91255">
        <ele>189.2</ele>
        <time>2024-09-18T14:25:28Z</time>
      </trkpt>
      <trkpt lat="46.4846" lon="4.91255">
        <ele>189.2</ele>
        <time>2024-09-18T14:25:29Z</time>
      </trkpt>
      <trkpt lat="46.48455" lon="4.91255">
        <ele>189.2</ele>
        <time>2024-09-18T14:25:30Z</time>
      </trkpt>
      <trkpt lat="46.48451" lon="4.91255">
        <ele>189.2</ele>
        <time>2024-09-18T14:25:31Z</time>
      </trkpt>
      <trkpt lat="46.48447" lon="4.91255">
        <ele>189</ele>
        <time>2024-09-18T14:25:32Z</time>
      </trkpt>
      <trkpt lat="46.48442" lon="4.91255">
        <ele>189</ele>
        <time>2024-09-18T14:25:33Z</time>
      </trkpt>
      <trkpt lat="46.48438" lon="4.91255">
        <ele>189</ele>
        <time>2024-09-18T14:25:34Z</time>
      </trkpt>
      <trkpt lat="46.48433" lon="4.91255">
        <ele>189.2</ele>
        <time>2024-09-18T14:25:35Z</time>
      </trkpt>
      <trkpt lat="46.48429" lon="4.91255">
        <ele>189.2</ele>
        <time>2024-09-18T14:25:36Z</time>
      </trkpt>
      <trkpt lat="46.48424" lon="4.91255">
        <ele>189.2</ele>
        <time>2024-09-18T14:25:37Z</time>
      </trkpt>
      <trkpt lat="46.48419" lon="4.91255">
        <ele>189.2</ele>
        <time>2024-09-18T14:25:38Z</time>
      </trkpt>
      <trkpt lat="46.48414" lon="4.91255">
        <ele>189.2</ele>
        <time>2024-09-18T14:25:39Z</time>
      </trkpt>
      <trkpt lat="46.48409" lon="4.91255">
        <ele>189.2</ele>
        <time>2024-09-18T14:25:40Z</time>
      </trkpt>
      <trkpt lat="46.48405" lon="4.91255">
        <ele>189.2</ele>
        <time>2024-09-18T14:25:41Z</time>
      </trkpt>
      <trkpt lat="46.484" lon="4.91255">
        <ele>189.2</ele>
        <time>2024-09-18T14:25:42Z</time>
      </trkpt>
      <trkpt lat="46.48395" lon="4.91255">
        <ele>189.2</ele>
        <time>2024-09-18T14:25:43Z</time>
      </trkpt>
      <trkpt lat="46.4839" lon="4.91255">
        <ele>189.2</ele>
        <time>2024-09-18T14:25:44Z</time>
      </trkpt>
      <trkpt lat="46.48385" lon="4.91255">
        <ele>189.2</ele>
        <time>2024-09-18T14:25:45Z</time>
      </trkpt>
      <trkpt lat="46.4838" lon="4.91255">
        <ele>189.2</ele>
        <time>2024-09-18T14:25:46Z</time>
      </trkpt>
      <trkpt lat="46.48376" lon="4.91256">
        <ele>189.2</ele>
        <time>2024-09-18T14:25:47Z</time>
      </trkpt>
      <trkpt lat="46.48371" lon="4.91256">
        <ele>189.2</ele>
        <time>2024-09-18T14:25:48Z</time>
      </trkpt>
      <trkpt lat="46.48367" lon="4.91256">
        <ele>189.2</ele>
        <time>2024-09-18T14:25:49Z</time>
      </trkpt>
      <trkpt lat="46.48362" lon="4.91255">
        <ele>189.2</ele>
        <time>2024-09-18T14:25:50Z</time>
      </trkpt>
      <trkpt lat="46.48357" lon="4.91255">
        <ele>189.2</ele>
        <time>2024-09-18T14:25:51Z</time>
      </trkpt>
      <trkpt lat="46.48352" lon="4.91255">
        <ele>189.2</ele>
        <time>2024-09-18T14:25:52Z</time>
      </trkpt>
      <trkpt lat="46.48348" lon="4.91256">
        <ele>189.4</ele>
        <time>2024-09-18T14:25:53Z</time>
      </trkpt>
      <trkpt lat="46.48344" lon="4.91256">
        <ele>189.4</ele>
        <time>2024-09-18T14:25:54Z</time>
      </trkpt>
      <trkpt lat="46.48338" lon="4.91256">
        <ele>189.4</ele>
        <time>2024-09-18T14:25:55Z</time>
      </trkpt>
      <trkpt lat="46.48336" lon="4.91257">
        <ele>189.4</ele>
        <time>2024-09-18T14:25:56Z</time>
      </trkpt>
      <trkpt lat="46.48329" lon="4.91256">
        <ele>189.6</ele>
        <time>2024-09-18T14:25:57Z</time>
      </trkpt>
      <trkpt lat="46.48327" lon="4.91257">
        <ele>189.4</ele>
        <time>2024-09-18T14:25:58Z</time>
      </trkpt>
      <trkpt lat="46.4832" lon="4.91257">
        <ele>189.4</ele>
        <time>2024-09-18T14:25:59Z</time>
      </trkpt>
      <trkpt lat="46.48318" lon="4.91257">
        <ele>189.4</ele>
        <time>2024-09-18T14:26:00Z</time>
      </trkpt>
      <trkpt lat="46.4831" lon="4.91257">
        <ele>189.6</ele>
        <time>2024-09-18T14:26:01Z</time>
      </trkpt>
      <trkpt lat="46.48308" lon="4.91257">
        <ele>189.6</ele>
        <time>2024-09-18T14:26:02Z</time>
      </trkpt>
      <trkpt lat="46.48301" lon="4.91257">
        <ele>189.6</ele>
        <time>2024-09-18T14:26:03Z</time>
      </trkpt>
      <trkpt lat="46.48298" lon="4.91258">
        <ele>189.6</ele>
        <time>2024-09-18T14:26:04Z</time>
      </trkpt>
      <trkpt lat="46.48293" lon="4.91258">
        <ele>189.6</ele>
        <time>2024-09-18T14:26:05Z</time>
      </trkpt>
      <trkpt lat="46.48288" lon="4.91259">
        <ele>189.6</ele>
        <time>2024-09-18T14:26:06Z</time>
      </trkpt>
      <trkpt lat="46.48281" lon="4.91261">
        <ele>189.6</ele>
        <time>2024-09-18T14:26:07Z</time>
      </trkpt>
      <trkpt lat="46.48278" lon="4.91261">
        <ele>189.8</ele>
        <time>2024-09-18T14:26:08Z</time>
      </trkpt>
      <trkpt lat="46.48271" lon="4.91262">
        <ele>189.8</ele>
        <time>2024-09-18T14:26:09Z</time>
      </trkpt>
      <trkpt lat="46.48269" lon="4.91262">
        <ele>189.8</ele>
        <time>2024-09-18T14:26:10Z</time>
      </trkpt>
      <trkpt lat="46.48261" lon="4.91263">
        <ele>189.8</ele>
        <time>2024-09-18T14:26:11Z</time>
      </trkpt>
      <trkpt lat="46.48259" lon="4.91263">
        <ele>189.2</ele>
        <time>2024-09-18T14:26:12Z</time>
      </trkpt>
      <trkpt lat="46.48251" lon="4.91263">
        <ele>189.2</ele>
        <time>2024-09-18T14:26:13Z</time>
      </trkpt>
      <trkpt lat="46.48249" lon="4.91262">
        <ele>189.2</ele>
        <time>2024-09-18T14:26:14Z</time>
      </trkpt>
      <trkpt lat="46.48244" lon="4.91262">
        <ele>189.6</ele>
        <time>2024-09-18T14:26:15Z</time>
      </trkpt>
      <trkpt lat="46.48239" lon="4.91261">
        <ele>189.6</ele>
        <time>2024-09-18T14:26:16Z</time>
      </trkpt>
      <trkpt lat="46.48234" lon="4.91261">
        <ele>189.6</ele>
        <time>2024-09-18T14:26:17Z</time>
      </trkpt>
      <trkpt lat="46.48229" lon="4.9126">
        <ele>189.6</ele>
        <time>2024-09-18T14:26:18Z</time>
      </trkpt>
      <trkpt lat="46.48225" lon="4.91259">
        <ele>189.6</ele>
        <time>2024-09-18T14:26:19Z</time>
      </trkpt>
      <trkpt lat="46.4822" lon="4.91259">
        <ele>189.8</ele>
        <time>2024-09-18T14:26:20Z</time>
      </trkpt>
      <trkpt lat="46.48215" lon="4.91258">
        <ele>189.8</ele>
        <time>2024-09-18T14:26:21Z</time>
      </trkpt>
      <trkpt lat="46.4821" lon="4.91258">
        <ele>189.8</ele>
        <time>2024-09-18T14:26:22Z</time>
      </trkpt>
      <trkpt lat="46.48205" lon="4.91257">
        <ele>189.8</ele>
        <time>2024-09-18T14:26:23Z</time>
      </trkpt>
      <trkpt lat="46.482" lon="4.91257">
        <ele>189.2</ele>
        <time>2024-09-18T14:26:24Z</time>
      </trkpt>
      <trkpt lat="46.48196" lon="4.91256">
        <ele>190</ele>
        <time>2024-09-18T14:26:25Z</time>
      </trkpt>
      <trkpt lat="46.48189" lon="4.91256">
        <ele>190</ele>
        <time>2024-09-18T14:26:26Z</time>
      </trkpt>
      <trkpt lat="46.48186" lon="4.91255">
        <ele>190</ele>
        <time>2024-09-18T14:26:27Z</time>
      </trkpt>
      <trkpt lat="46.48182" lon="4.91255">
        <ele>190</ele>
        <time>2024-09-18T14:26:28Z</time>
      </trkpt>
      <trkpt lat="46.48177" lon="4.91255">
        <ele>189.8</ele>
        <time>2024-09-18T14:26:29Z</time>
      </trkpt>
      <trkpt lat="46.48173" lon="4.91254">
        <ele>189.8</ele>
        <time>2024-09-18T14:26:30Z</time>
      </trkpt>
      <trkpt lat="46.48168" lon="4.91254">
        <ele>189.8</ele>
        <time>2024-09-18T14:26:31Z</time>
      </trkpt>
      <trkpt lat="46.48165" lon="4.91253">
        <ele>189.8</ele>
        <time>2024-09-18T14:26:32Z</time>
      </trkpt>
      <trkpt lat="46.4816" lon="4.91253">
        <ele>190</ele>
        <time>2024-09-18T14:26:33Z</time>
      </trkpt>
      <trkpt lat="46.48156" lon="4.91252">
        <ele>190</ele>
        <time>2024-09-18T14:26:34Z</time>
      </trkpt>
      <trkpt lat="46.48152" lon="4.91253">
        <ele>190</ele>
        <time>2024-09-18T14:26:35Z</time>
      </trkpt>
      <trkpt lat="46.48148" lon="4.91252">
        <ele>190.2</ele>
        <time>2024-09-18T14:26:36Z</time>
      </trkpt>
      <trkpt lat="46.48145" lon="4.91252">
        <ele>190.2</ele>
        <time>2024-09-18T14:26:37Z</time>
      </trkpt>
      <trkpt lat="46.4814" lon="4.91252">
        <ele>190</ele>
        <time>2024-09-18T14:26:38Z</time>
      </trkpt>
      <trkpt lat="46.48139" lon="4.91252">
        <ele>190</ele>
        <time>2024-09-18T14:26:39Z</time>
      </trkpt>
      <trkpt lat="46.48133" lon="4.91251">
        <ele>190</ele>
        <time>2024-09-18T14:26:40Z</time>
      </trkpt>
      <trkpt lat="46.48131" lon="4.91251">
        <ele>190.2</ele>
        <time>2024-09-18T14:26:41Z</time>
      </trkpt>
      <trkpt lat="46.48125" lon="4.91252">
        <ele>190.4</ele>
        <time>2024-09-18T14:26:42Z</time>
      </trkpt>
      <trkpt lat="46.48123" lon="4.91252">
        <ele>190.4</ele>
        <time>2024-09-18T14:26:43Z</time>
      </trkpt>
      <trkpt lat="46.48118" lon="4.91252">
        <ele>190.4</ele>
        <time>2024-09-18T14:26:44Z</time>
      </trkpt>
      <trkpt lat="46.48116" lon="4.91253">
        <ele>189.8</ele>
        <time>2024-09-18T14:26:45Z</time>
      </trkpt>
      <trkpt lat="46.4811" lon="4.91252">
        <ele>189.8</ele>
        <time>2024-09-18T14:26:46Z</time>
      </trkpt>
      <trkpt lat="46.48108" lon="4.91252">
        <ele>189.8</ele>
        <time>2024-09-18T14:26:47Z</time>
      </trkpt>
      <trkpt lat="46.48102" lon="4.91253">
        <ele>189.8</ele>
        <time>2024-09-18T14:26:48Z</time>
      </trkpt>
      <trkpt lat="46.481" lon="4.91253">
        <ele>189.8</ele>
        <time>2024-09-18T14:26:49Z</time>
      </trkpt>
      <trkpt lat="46.48094" lon="4.91254">
        <ele>189.8</ele>
        <time>2024-09-18T14:26:50Z</time>
      </trkpt>
      <trkpt lat="46.48092" lon="4.91255">
        <ele>189.8</ele>
        <time>2024-09-18T14:26:51Z</time>
      </trkpt>
      <trkpt lat="46.48086" lon="4.91256">
        <ele>189.2</ele>
        <time>2024-09-18T14:26:52Z</time>
      </trkpt>
      <trkpt lat="46.48084" lon="4.91256">
        <ele>189.2</ele>
        <time>2024-09-18T14:26:53Z</time>
      </trkpt>
      <trkpt lat="46.48078" lon="4.91257">
        <ele>189.2</ele>
        <time>2024-09-18T14:26:54Z</time>
      </trkpt>
      <trkpt lat="46.48076" lon="4.91258">
        <ele>189.2</ele>
        <time>2024-09-18T14:26:55Z</time>
      </trkpt>
      <trkpt lat="46.48072" lon="4.91258">
        <ele>189.6</ele>
        <time>2024-09-18T14:26:56Z</time>
      </trkpt>
      <trkpt lat="46.48068" lon="4.91259">
        <ele>189.6</ele>
        <time>2024-09-18T14:26:57Z</time>
      </trkpt>
      <trkpt lat="46.48064" lon="4.91259">
        <ele>189.6</ele>
        <time>2024-09-18T14:26:58Z</time>
      </trkpt>
      <trkpt lat="46.4806" lon="4.91259">
        <ele>189.4</ele>
        <time>2024-09-18T14:26:59Z</time>
      </trkpt>
      <trkpt lat="46.48056" lon="4.91259">
        <ele>189.4</ele>
        <time>2024-09-18T14:27:00Z</time>
      </trkpt>
      <trkpt lat="46.48051" lon="4.91259">
        <ele>189.2</ele>
        <time>2024-09-18T14:27:01Z</time>
      </trkpt>
      <trkpt lat="46.48046" lon="4.9126">
        <ele>189.2</ele>
        <time>2024-09-18T14:27:02Z</time>
      </trkpt>
      <trkpt lat="46.48041" lon="4.91259">
        <ele>189.2</ele>
        <time>2024-09-18T14:27:03Z</time>
      </trkpt>
      <trkpt lat="46.48036" lon="4.91259">
        <ele>189.6</ele>
        <time>2024-09-18T14:27:04Z</time>
      </trkpt>
      <trkpt lat="46.48031" lon="4.91259">
        <ele>189.6</ele>
        <time>2024-09-18T14:27:05Z</time>
      </trkpt>
      <trkpt lat="46.48026" lon="4.9126">
        <ele>189.6</ele>
        <time>2024-09-18T14:27:06Z</time>
      </trkpt>
      <trkpt lat="46.48022" lon="4.9126">
        <ele>189.6</ele>
        <time>2024-09-18T14:27:07Z</time>
      </trkpt>
      <trkpt lat="46.48017" lon="4.91261">
        <ele>189.6</ele>
        <time>2024-09-18T14:27:08Z</time>
      </trkpt>
      <trkpt lat="46.48012" lon="4.91262">
        <ele>189.6</ele>
        <time>2024-09-18T14:27:09Z</time>
      </trkpt>
      <trkpt lat="46.48007" lon="4.91263">
        <ele>189.6</ele>
        <time>2024-09-18T14:27:10Z</time>
      </trkpt>
      <trkpt lat="46.48002" lon="4.91264">
        <ele>189.6</ele>
        <time>2024-09-18T14:27:11Z</time>
      </trkpt>
      <trkpt lat="46.47997" lon="4.91264">
        <ele>189.6</ele>
        <time>2024-09-18T14:27:12Z</time>
      </trkpt>
      <trkpt lat="46.47993" lon="4.91265">
        <ele>189.2</ele>
        <time>2024-09-18T14:27:13Z</time>
      </trkpt>
      <trkpt lat="46.47988" lon="4.91265">
        <ele>189.2</ele>
        <time>2024-09-18T14:27:14Z</time>
      </trkpt>
      <trkpt lat="46.47983" lon="4.91266">
        <ele>189.2</ele>
        <time>2024-09-18T14:27:15Z</time>
      </trkpt>
      <trkpt lat="46.47979" lon="4.91266">
        <ele>189.2</ele>
        <time>2024-09-18T14:27:16Z</time>
      </trkpt>
      <trkpt lat="46.47974" lon="4.91267">
        <ele>189.6</ele>
        <time>2024-09-18T14:27:17Z</time>
      </trkpt>
      <trkpt lat="46.4797" lon="4.91268">
        <ele>189.4</ele>
        <time>2024-09-18T14:27:18Z</time>
      </trkpt>
      <trkpt lat="46.47964" lon="4.91268">
        <ele>189.4</ele>
        <time>2024-09-18T14:27:19Z</time>
      </trkpt>
      <trkpt lat="46.47962" lon="4.91269">
        <ele>189.4</ele>
        <time>2024-09-18T14:27:20Z</time>
      </trkpt>
      <trkpt lat="46.47955" lon="4.9127">
        <ele>189.4</ele>
        <time>2024-09-18T14:27:21Z</time>
      </trkpt>
      <trkpt lat="46.47952" lon="4.91271">
        <ele>189.4</ele>
        <time>2024-09-18T14:27:22Z</time>
      </trkpt>
      <trkpt lat="46.47945" lon="4.91272">
        <ele>189.4</ele>
        <time>2024-09-18T14:27:23Z</time>
      </trkpt>
      <trkpt lat="46.47942" lon="4.91273">
        <ele>189.4</ele>
        <time>2024-09-18T14:27:24Z</time>
      </trkpt>
      <trkpt lat="46.47935" lon="4.91274">
        <ele>189.4</ele>
        <time>2024-09-18T14:27:25Z</time>
      </trkpt>
      <trkpt lat="46.47933" lon="4.91274">
        <ele>189.6</ele>
        <time>2024-09-18T14:27:26Z</time>
      </trkpt>
      <trkpt lat="46.47928" lon="4.91275">
        <ele>189.6</ele>
        <time>2024-09-18T14:27:27Z</time>
      </trkpt>
      <trkpt lat="46.47923" lon="4.91276">
        <ele>189.6</ele>
        <time>2024-09-18T14:27:28Z</time>
      </trkpt>
      <trkpt lat="46.47916" lon="4.91277">
        <ele>189.6</ele>
        <time>2024-09-18T14:27:29Z</time>
      </trkpt>
      <trkpt lat="46.47913" lon="4.91277">
        <ele>189.6</ele>
        <time>2024-09-18T14:27:30Z</time>
      </trkpt>
      <trkpt lat="46.47906" lon="4.91278">
        <ele>189.6</ele>
        <time>2024-09-18T14:27:31Z</time>
      </trkpt>
      <trkpt lat="46.47904" lon="4.91278">
        <ele>189.6</ele>
        <time>2024-09-18T14:27:32Z</time>
      </trkpt>
      <trkpt lat="46.47897" lon="4.91279">
        <ele>189.2</ele>
        <time>2024-09-18T14:27:33Z</time>
      </trkpt>
      <trkpt lat="46.47895" lon="4.91279">
        <ele>189.2</ele>
        <time>2024-09-18T14:27:34Z</time>
      </trkpt>
      <trkpt lat="46.47889" lon="4.9128">
        <ele>189.2</ele>
        <time>2024-09-18T14:27:35Z</time>
      </trkpt>
      <trkpt lat="46.47886" lon="4.9128">
        <ele>189.6</ele>
        <time>2024-09-18T14:27:36Z</time>
      </trkpt>
      <trkpt lat="46.47882" lon="4.9128">
        <ele>189.6</ele>
        <time>2024-09-18T14:27:37Z</time>
      </trkpt>
      <trkpt lat="46.47878" lon="4.91281">
        <ele>189.6</ele>
        <time>2024-09-18T14:27:38Z</time>
      </trkpt>
      <trkpt lat="46.47873" lon="4.91281">
        <ele>189.6</ele>
        <time>2024-09-18T14:27:39Z</time>
      </trkpt>
      <trkpt lat="46.47869" lon="4.91281">
        <ele>189.6</ele>
        <time>2024-09-18T14:27:40Z</time>
      </trkpt>
      <trkpt lat="46.47864" lon="4.91282">
        <ele>189.6</ele>
        <time>2024-09-18T14:27:41Z</time>
      </trkpt>
      <trkpt lat="46.4786" lon="4.91282">
        <ele>189.6</ele>
        <time>2024-09-18T14:27:42Z</time>
      </trkpt>
      <trkpt lat="46.47855" lon="4.91283">
        <ele>189.6</ele>
        <time>2024-09-18T14:27:43Z</time>
      </trkpt>
      <trkpt lat="46.47851" lon="4.91283">
        <ele>189.6</ele>
        <time>2024-09-18T14:27:44Z</time>
      </trkpt>
      <trkpt lat="46.47846" lon="4.91284">
        <ele>189.6</ele>
        <time>2024-09-18T14:27:45Z</time>
      </trkpt>
      <trkpt lat="46.47841" lon="4.91285">
        <ele>189.8</ele>
        <time>2024-09-18T14:27:46Z</time>
      </trkpt>
      <trkpt lat="46.47837" lon="4.91285">
        <ele>189.8</ele>
        <time>2024-09-18T14:27:47Z</time>
      </trkpt>
      <trkpt lat="46.47832" lon="4.91286">
        <ele>189.8</ele>
        <time>2024-09-18T14:27:48Z</time>
      </trkpt>
      <trkpt lat="46.47827" lon="4.91287">
        <ele>189.8</ele>
        <time>2024-09-18T14:27:49Z</time>
      </trkpt>
      <trkpt lat="46.47822" lon="4.91288">
        <ele>189.6</ele>
        <time>2024-09-18T14:27:50Z</time>
      </trkpt>
      <trkpt lat="46.47818" lon="4.91288">
        <ele>189.6</ele>
        <time>2024-09-18T14:27:51Z</time>
      </trkpt>
      <trkpt lat="46.47813" lon="4.91289">
        <ele>189.6</ele>
        <time>2024-09-18T14:27:52Z</time>
      </trkpt>
      <trkpt lat="46.47806" lon="4.91291">
        <ele>189.6</ele>
        <time>2024-09-18T14:27:53Z</time>
      </trkpt>
      <trkpt lat="46.47803" lon="4.91291">
        <ele>189.4</ele>
        <time>2024-09-18T14:27:54Z</time>
      </trkpt>
      <trkpt lat="46.47799" lon="4.91293">
        <ele>189.4</ele>
        <time>2024-09-18T14:27:55Z</time>
      </trkpt>
      <trkpt lat="46.47795" lon="4.91294">
        <ele>189.4</ele>
        <time>2024-09-18T14:27:56Z</time>
      </trkpt>
      <trkpt lat="46.47791" lon="4.91296">
        <ele>189.4</ele>
        <time>2024-09-18T14:27:57Z</time>
      </trkpt>
      <trkpt lat="46.47787" lon="4.91298">
        <ele>189.4</ele>
        <time>2024-09-18T14:27:58Z</time>
      </trkpt>
      <trkpt lat="46.47783" lon="4.913">
        <ele>189.4</ele>
        <time>2024-09-18T14:27:59Z</time>
      </trkpt>
      <trkpt lat="46.47778" lon="4.91302">
        <ele>189.4</ele>
        <time>2024-09-18T14:28:00Z</time>
      </trkpt>
      <trkpt lat="46.47774" lon="4.91304">
        <ele>189.4</ele>
        <time>2024-09-18T14:28:01Z</time>
      </trkpt>
      <trkpt lat="46.4777" lon="4.91306">
        <ele>189.2</ele>
        <time>2024-09-18T14:28:02Z</time>
      </trkpt>
      <trkpt lat="46.47763" lon="4.91309">
        <ele>189.2</ele>
        <time>2024-09-18T14:28:03Z</time>
      </trkpt>
      <trkpt lat="46.47761" lon="4.9131">
        <ele>189.2</ele>
        <time>2024-09-18T14:28:04Z</time>
      </trkpt>
      <trkpt lat="46.47754" lon="4.91314">
        <ele>189.2</ele>
        <time>2024-09-18T14:28:05Z</time>
      </trkpt>
      <trkpt lat="46.47751" lon="4.91314">
        <ele>189.2</ele>
        <time>2024-09-18T14:28:06Z</time>
      </trkpt>
      <trkpt lat="46.47744" lon="4.91317">
        <ele>189.2</ele>
        <time>2024-09-18T14:28:07Z</time>
      </trkpt>
      <trkpt lat="46.47741" lon="4.91317">
        <ele>188.6</ele>
        <time>2024-09-18T14:28:08Z</time>
      </trkpt>
      <trkpt lat="46.47734" lon="4.91319">
        <ele>188.6</ele>
        <time>2024-09-18T14:28:09Z</time>
      </trkpt>
      <trkpt lat="46.47731" lon="4.9132">
        <ele>188.6</ele>
        <time>2024-09-18T14:28:10Z</time>
      </trkpt>
      <trkpt lat="46.47724" lon="4.91321">
        <ele>189</ele>
        <time>2024-09-18T14:28:11Z</time>
      </trkpt>
      <trkpt lat="46.47721" lon="4.91322">
        <ele>188.8</ele>
        <time>2024-09-18T14:28:12Z</time>
      </trkpt>
      <trkpt lat="46.47714" lon="4.91323">
        <ele>188.8</ele>
        <time>2024-09-18T14:28:13Z</time>
      </trkpt>
      <trkpt lat="46.47712" lon="4.91324">
        <ele>188.8</ele>
        <time>2024-09-18T14:28:14Z</time>
      </trkpt>
      <trkpt lat="46.47704" lon="4.91325">
        <ele>188.8</ele>
        <time>2024-09-18T14:28:15Z</time>
      </trkpt>
      <trkpt lat="46.47702" lon="4.91326">
        <ele>188.8</ele>
        <time>2024-09-18T14:28:16Z</time>
      </trkpt>
      <trkpt lat="46.47694" lon="4.91327">
        <ele>188.8</ele>
        <time>2024-09-18T14:28:17Z</time>
      </trkpt>
      <trkpt lat="46.47692" lon="4.91328">
        <ele>188.6</ele>
        <time>2024-09-18T14:28:18Z</time>
      </trkpt>
      <trkpt lat="46.47685" lon="4.91329">
        <ele>188.6</ele>
        <time>2024-09-18T14:28:19Z</time>
      </trkpt>
      <trkpt lat="46.47682" lon="4.91329">
        <ele>188.6</ele>
        <time>2024-09-18T14:28:20Z</time>
      </trkpt>
      <trkpt lat="46.47677" lon="4.91329">
        <ele>189.2</ele>
        <time>2024-09-18T14:28:21Z</time>
      </trkpt>
      <trkpt lat="46.47672" lon="4.91329">
        <ele>188.8</ele>
        <time>2024-09-18T14:28:22Z</time>
      </trkpt>
      <trkpt lat="46.47667" lon="4.91329">
        <ele>188.8</ele>
        <time>2024-09-18T14:28:23Z</time>
      </trkpt>
      <trkpt lat="46.47663" lon="4.91329">
        <ele>188.8</ele>
        <time>2024-09-18T14:28:24Z</time>
      </trkpt>
      <trkpt lat="46.47659" lon="4.9133">
        <ele>189.6</ele>
        <time>2024-09-18T14:28:25Z</time>
      </trkpt>
      <trkpt lat="46.47655" lon="4.9133">
        <ele>190</ele>
        <time>2024-09-18T14:28:26Z</time>
      </trkpt>
      <trkpt lat="46.47652" lon="4.9133">
        <ele>190</ele>
        <time>2024-09-18T14:28:27Z</time>
      </trkpt>
      <trkpt lat="46.47649" lon="4.91331">
        <ele>190</ele>
        <time>2024-09-18T14:28:28Z</time>
      </trkpt>
      <trkpt lat="46.47646" lon="4.91332">
        <ele>190.6</ele>
        <time>2024-09-18T14:28:29Z</time>
      </trkpt>
      <trkpt lat="46.47642" lon="4.91333">
        <ele>190.6</ele>
        <time>2024-09-18T14:28:30Z</time>
      </trkpt>
      <trkpt lat="46.47638" lon="4.91334">
        <ele>190.8</ele>
        <time>2024-09-18T14:28:31Z</time>
      </trkpt>
      <trkpt lat="46.47635" lon="4.91335">
        <ele>190.8</ele>
        <time>2024-09-18T14:28:32Z</time>
      </trkpt>
      <trkpt lat="46.47631" lon="4.91337">
        <ele>190.8</ele>
        <time>2024-09-18T14:28:33Z</time>
      </trkpt>
      <trkpt lat="46.47627" lon="4.91338">
        <ele>190.4</ele>
        <time>2024-09-18T14:28:34Z</time>
      </trkpt>
      <trkpt lat="46.47623" lon="4.9134">
        <ele>190.2</ele>
        <time>2024-09-18T14:28:35Z</time>
      </trkpt>
      <trkpt lat="46.47619" lon="4.91342">
        <ele>190.2</ele>
        <time>2024-09-18T14:28:36Z</time>
      </trkpt>
      <trkpt lat="46.47615" lon="4.91344">
        <ele>190.2</ele>
        <time>2024-09-18T14:28:37Z</time>
      </trkpt>
      <trkpt lat="46.4761" lon="4.91347">
        <ele>190.2</ele>
        <time>2024-09-18T14:28:38Z</time>
      </trkpt>
      <trkpt lat="46.47606" lon="4.91349">
        <ele>189.8</ele>
        <time>2024-09-18T14:28:39Z</time>
      </trkpt>
      <trkpt lat="46.47602" lon="4.91352">
        <ele>189.8</ele>
        <time>2024-09-18T14:28:40Z</time>
      </trkpt>
      <trkpt lat="46.47598" lon="4.91354">
        <ele>189.8</ele>
        <time>2024-09-18T14:28:41Z</time>
      </trkpt>
      <trkpt lat="46.47594" lon="4.91356">
        <ele>189.8</ele>
        <time>2024-09-18T14:28:42Z</time>
      </trkpt>
      <trkpt lat="46.47589" lon="4.91358">
        <ele>189.6</ele>
        <time>2024-09-18T14:28:43Z</time>
      </trkpt>
      <trkpt lat="46.47585" lon="4.9136">
        <ele>189.6</ele>
        <time>2024-09-18T14:28:44Z</time>
      </trkpt>
      <trkpt lat="46.47579" lon="4.91362">
        <ele>189.6</ele>
        <time>2024-09-18T14:28:45Z</time>
      </trkpt>
      <trkpt lat="46.47576" lon="4.91363">
        <ele>189.6</ele>
        <time>2024-09-18T14:28:46Z</time>
      </trkpt>
      <trkpt lat="46.4757" lon="4.91366">
        <ele>189.6</ele>
        <time>2024-09-18T14:28:47Z</time>
      </trkpt>
      <trkpt lat="46.47568" lon="4.91367">
        <ele>189.6</ele>
        <time>2024-09-18T14:28:48Z</time>
      </trkpt>
      <trkpt lat="46.47562" lon="4.91369">
        <ele>189.6</ele>
        <time>2024-09-18T14:28:49Z</time>
      </trkpt>
      <trkpt lat="46.4756" lon="4.9137">
        <ele>189.6</ele>
        <time>2024-09-18T14:28:50Z</time>
      </trkpt>
      <trkpt lat="46.47553" lon="4.91372">
        <ele>189.6</ele>
        <time>2024-09-18T14:28:51Z</time>
      </trkpt>
      <trkpt lat="46.47551" lon="4.91373">
        <ele>189.4</ele>
        <time>2024-09-18T14:28:52Z</time>
      </trkpt>
      <trkpt lat="46.47544" lon="4.91375">
        <ele>189.4</ele>
        <time>2024-09-18T14:28:53Z</time>
      </trkpt>
      <trkpt lat="46.47542" lon="4.91375">
        <ele>189.4</ele>
        <time>2024-09-18T14:28:54Z</time>
      </trkpt>
      <trkpt lat="46.47535" lon="4.91377">
        <ele>189.4</ele>
        <time>2024-09-18T14:28:55Z</time>
      </trkpt>
      <trkpt lat="46.47532" lon="4.91378">
        <ele>189.6</ele>
        <time>2024-09-18T14:28:56Z</time>
      </trkpt>
      <trkpt lat="46.47525" lon="4.91379">
        <ele>189.6</ele>
        <time>2024-09-18T14:28:57Z</time>
      </trkpt>
      <trkpt lat="46.47523" lon="4.9138">
        <ele>189.6</ele>
        <time>2024-09-18T14:28:58Z</time>
      </trkpt>
      <trkpt lat="46.47516" lon="4.91382">
        <ele>189.6</ele>
        <time>2024-09-18T14:28:59Z</time>
      </trkpt>
      <trkpt lat="46.47514" lon="4.91382">
        <ele>189.6</ele>
        <time>2024-09-18T14:29:00Z</time>
      </trkpt>
      <trkpt lat="46.47507" lon="4.91384">
        <ele>189.6</ele>
        <time>2024-09-18T14:29:01Z</time>
      </trkpt>
      <trkpt lat="46.47504" lon="4.91384">
        <ele>189.6</ele>
        <time>2024-09-18T14:29:02Z</time>
      </trkpt>
      <trkpt lat="46.47499" lon="4.91385">
        <ele>189.6</ele>
        <time>2024-09-18T14:29:03Z</time>
      </trkpt>
      <trkpt lat="46.47495" lon="4.91387">
        <ele>189.6</ele>
        <time>2024-09-18T14:29:04Z</time>
      </trkpt>
      <trkpt lat="46.4749" lon="4.91388">
        <ele>189.6</ele>
        <time>2024-09-18T14:29:05Z</time>
      </trkpt>
      <trkpt lat="46.47485" lon="4.91389">
        <ele>189.6</ele>
        <time>2024-09-18T14:29:06Z</time>
      </trkpt>
      <trkpt lat="46.4748" lon="4.91389">
        <ele>189.6</ele>
        <time>2024-09-18T14:29:07Z</time>
      </trkpt>
      <trkpt lat="46.47475" lon="4.9139">
        <ele>189.6</ele>
        <time>2024-09-18T14:29:08Z</time>
      </trkpt>
      <trkpt lat="46.47471" lon="4.91391">
        <ele>189.6</ele>
        <time>2024-09-18T14:29:09Z</time>
      </trkpt>
      <trkpt lat="46.47466" lon="4.91392">
        <ele>189.6</ele>
        <time>2024-09-18T14:29:10Z</time>
      </trkpt>
      <trkpt lat="46.47461" lon="4.91393">
        <ele>189.6</ele>
        <time>2024-09-18T14:29:11Z</time>
      </trkpt>
      <trkpt lat="46.47456" lon="4.91394">
        <ele>189.6</ele>
        <time>2024-09-18T14:29:12Z</time>
      </trkpt>
      <trkpt lat="46.47451" lon="4.91395">
        <ele>189.6</ele>
        <time>2024-09-18T14:29:13Z</time>
      </trkpt>
      <trkpt lat="46.47447" lon="4.91396">
        <ele>189.6</ele>
        <time>2024-09-18T14:29:14Z</time>
      </trkpt>
      <trkpt lat="46.47442" lon="4.91397">
        <ele>189.4</ele>
        <time>2024-09-18T14:29:15Z</time>
      </trkpt>
      <trkpt lat="46.47438" lon="4.91398">
        <ele>189.4</ele>
        <time>2024-09-18T14:29:16Z</time>
      </trkpt>
      <trkpt lat="46.47434" lon="4.91399">
        <ele>189.4</ele>
        <time>2024-09-18T14:29:17Z</time>
      </trkpt>
      <trkpt lat="46.47429" lon="4.91399">
        <ele>189.4</ele>
        <time>2024-09-18T14:29:18Z</time>
      </trkpt>
      <trkpt lat="46.47425" lon="4.914">
        <ele>189.4</ele>
        <time>2024-09-18T14:29:19Z</time>
      </trkpt>
      <trkpt lat="46.47421" lon="4.91401">
        <ele>189.4</ele>
        <time>2024-09-18T14:29:20Z</time>
      </trkpt>
      <trkpt lat="46.47416" lon="4.91402">
        <ele>189.4</ele>
        <time>2024-09-18T14:29:21Z</time>
      </trkpt>
      <trkpt lat="46.47412" lon="4.91402">
        <ele>189.4</ele>
        <time>2024-09-18T14:29:22Z</time>
      </trkpt>
      <trkpt lat="46.47407" lon="4.91403">
        <ele>189.6</ele>
        <time>2024-09-18T14:29:23Z</time>
      </trkpt>
      <trkpt lat="46.47403" lon="4.91404">
        <ele>189.6</ele>
        <time>2024-09-18T14:29:24Z</time>
      </trkpt>
      <trkpt lat="46.47398" lon="4.91404">
        <ele>189.6</ele>
        <time>2024-09-18T14:29:25Z</time>
      </trkpt>
      <trkpt lat="46.47394" lon="4.91405">
        <ele>189.6</ele>
        <time>2024-09-18T14:29:26Z</time>
      </trkpt>
      <trkpt lat="46.47389" lon="4.91405">
        <ele>189.6</ele>
        <time>2024-09-18T14:29:27Z</time>
      </trkpt>
      <trkpt lat="46.47382" lon="4.91407">
        <ele>189.4</ele>
        <time>2024-09-18T14:29:28Z</time>
      </trkpt>
      <trkpt lat="46.47379" lon="4.91407">
        <ele>189.4</ele>
        <time>2024-09-18T14:29:29Z</time>
      </trkpt>
      <trkpt lat="46.47372" lon="4.91408">
        <ele>189.4</ele>
        <time>2024-09-18T14:29:30Z</time>
      </trkpt>
      <trkpt lat="46.47369" lon="4.91409">
        <ele>189.4</ele>
        <time>2024-09-18T14:29:31Z</time>
      </trkpt>
      <trkpt lat="46.47362" lon="4.91409">
        <ele>189.6</ele>
        <time>2024-09-18T14:29:32Z</time>
      </trkpt>
      <trkpt lat="46.47359" lon="4.91409">
        <ele>189.6</ele>
        <time>2024-09-18T14:29:33Z</time>
      </trkpt>
      <trkpt lat="46.47351" lon="4.9141">
        <ele>189.6</ele>
        <time>2024-09-18T14:29:34Z</time>
      </trkpt>
      <trkpt lat="46.47349" lon="4.9141">
        <ele>189.6</ele>
        <time>2024-09-18T14:29:35Z</time>
      </trkpt>
      <trkpt lat="46.47341" lon="4.91411">
        <ele>189.6</ele>
        <time>2024-09-18T14:29:36Z</time>
      </trkpt>
      <trkpt lat="46.47338" lon="4.91411">
        <ele>189.4</ele>
        <time>2024-09-18T14:29:37Z</time>
      </trkpt>
      <trkpt lat="46.4733" lon="4.91412">
        <ele>189.4</ele>
        <time>2024-09-18T14:29:38Z</time>
      </trkpt>
      <trkpt lat="46.47328" lon="4.91412">
        <ele>189.4</ele>
        <time>2024-09-18T14:29:39Z</time>
      </trkpt>
      <trkpt lat="46.4732" lon="4.91412">
        <ele>189.4</ele>
        <time>2024-09-18T14:29:40Z</time>
      </trkpt>
      <trkpt lat="46.47317" lon="4.91412">
        <ele>189.4</ele>
        <time>2024-09-18T14:29:41Z</time>
      </trkpt>
      <trkpt lat="46.47309" lon="4.91413">
        <ele>189.4</ele>
        <time>2024-09-18T14:29:42Z</time>
      </trkpt>
      <trkpt lat="46.47307" lon="4.91413">
        <ele>189.4</ele>
        <time>2024-09-18T14:29:43Z</time>
      </trkpt>
      <trkpt lat="46.47299" lon="4.91413">
        <ele>189.4</ele>
        <time>2024-09-18T14:29:44Z</time>
      </trkpt>
      <trkpt lat="46.47296" lon="4.91413">
        <ele>189.4</ele>
        <time>2024-09-18T14:29:45Z</time>
      </trkpt>
      <trkpt lat="46.47291" lon="4.91413">
        <ele>189.4</ele>
        <time>2024-09-18T14:29:46Z</time>
      </trkpt>
      <trkpt lat="46.47286" lon="4.91413">
        <ele>189.4</ele>
        <time>2024-09-18T14:29:47Z</time>
      </trkpt>
      <trkpt lat="46.47281" lon="4.91413">
        <ele>189.4</ele>
        <time>2024-09-18T14:29:48Z</time>
      </trkpt>
      <trkpt lat="46.47276" lon="4.91413">
        <ele>189.4</ele>
        <time>2024-09-18T14:29:49Z</time>
      </trkpt>
      <trkpt lat="46.47271" lon="4.91413">
        <ele>189.4</ele>
        <time>2024-09-18T14:29:50Z</time>
      </trkpt>
      <trkpt lat="46.47266" lon="4.91413">
        <ele>189.4</ele>
        <time>2024-09-18T14:29:51Z</time>
      </trkpt>
      <trkpt lat="46.4726" lon="4.91413">
        <ele>189.4</ele>
        <time>2024-09-18T14:29:52Z</time>
      </trkpt>
      <trkpt lat="46.47255" lon="4.91412">
        <ele>189.4</ele>
        <time>2024-09-18T14:29:53Z</time>
      </trkpt>
      <trkpt lat="46.4725" lon="4.91412">
        <ele>189.4</ele>
        <time>2024-09-18T14:29:54Z</time>
      </trkpt>
      <trkpt lat="46.47245" lon="4.91412">
        <ele>189.4</ele>
        <time>2024-09-18T14:29:55Z</time>
      </trkpt>
      <trkpt lat="46.4724" lon="4.91412">
        <ele>189.4</ele>
        <time>2024-09-18T14:29:56Z</time>
      </trkpt>
      <trkpt lat="46.47235" lon="4.91412">
        <ele>189.4</ele>
        <time>2024-09-18T14:29:57Z</time>
      </trkpt>
      <trkpt lat="46.4723" lon="4.91412">
        <ele>189.4</ele>
        <time>2024-09-18T14:29:58Z</time>
      </trkpt>
      <trkpt lat="46.47225" lon="4.91411">
        <ele>189.4</ele>
        <time>2024-09-18T14:29:59Z</time>
      </trkpt>
      <trkpt lat="46.4722" lon="4.91411">
        <ele>189.6</ele>
        <time>2024-09-18T14:30:00Z</time>
      </trkpt>
      <trkpt lat="46.47216" lon="4.91411">
        <ele>189.6</ele>
        <time>2024-09-18T14:30:01Z</time>
      </trkpt>
      <trkpt lat="46.47211" lon="4.91411">
        <ele>189.6</ele>
        <time>2024-09-18T14:30:02Z</time>
      </trkpt>
      <trkpt lat="46.47206" lon="4.91411">
        <ele>189.6</ele>
        <time>2024-09-18T14:30:03Z</time>
      </trkpt>
      <trkpt lat="46.47201" lon="4.91411">
        <ele>189.6</ele>
        <time>2024-09-18T14:30:04Z</time>
      </trkpt>
      <trkpt lat="46.47196" lon="4.91411">
        <ele>189.6</ele>
        <time>2024-09-18T14:30:05Z</time>
      </trkpt>
      <trkpt lat="46.47191" lon="4.9141">
        <ele>189.6</ele>
        <time>2024-09-18T14:30:06Z</time>
      </trkpt>
      <trkpt lat="46.47186" lon="4.9141">
        <ele>189.6</ele>
        <time>2024-09-18T14:30:07Z</time>
      </trkpt>
      <trkpt lat="46.47181" lon="4.9141">
        <ele>189.4</ele>
        <time>2024-09-18T14:30:08Z</time>
      </trkpt>
      <trkpt lat="46.47176" lon="4.9141">
        <ele>189.4</ele>
        <time>2024-09-18T14:30:09Z</time>
      </trkpt>
      <trkpt lat="46.47171" lon="4.9141">
        <ele>189.4</ele>
        <time>2024-09-18T14:30:10Z</time>
      </trkpt>
      <trkpt lat="46.47164" lon="4.9141">
        <ele>189.4</ele>
        <time>2024-09-18T14:30:11Z</time>
      </trkpt>
      <trkpt lat="46.47161" lon="4.9141">
        <ele>189.2</ele>
        <time>2024-09-18T14:30:12Z</time>
      </trkpt>
      <trkpt lat="46.47153" lon="4.9141">
        <ele>189.4</ele>
        <time>2024-09-18T14:30:13Z</time>
      </trkpt>
      <trkpt lat="46.47151" lon="4.9141">
        <ele>189.4</ele>
        <time>2024-09-18T14:30:14Z</time>
      </trkpt>
      <trkpt lat="46.47143" lon="4.91409">
        <ele>189.4</ele>
        <time>2024-09-18T14:30:15Z</time>
      </trkpt>
      <trkpt lat="46.4714" lon="4.91409">
        <ele>189.4</ele>
        <time>2024-09-18T14:30:16Z</time>
      </trkpt>
      <trkpt lat="46.47133" lon="4.91409">
        <ele>189.2</ele>
        <time>2024-09-18T14:30:17Z</time>
      </trkpt>
      <trkpt lat="46.4713" lon="4.91409">
        <ele>189.2</ele>
        <time>2024-09-18T14:30:18Z</time>
      </trkpt>
      <trkpt lat="46.47123" lon="4.91408">
        <ele>189.2</ele>
        <time>2024-09-18T14:30:19Z</time>
      </trkpt>
      <trkpt lat="46.4712" lon="4.91408">
        <ele>189.2</ele>
        <time>2024-09-18T14:30:20Z</time>
      </trkpt>
      <trkpt lat="46.47113" lon="4.91408">
        <ele>189.4</ele>
        <time>2024-09-18T14:30:21Z</time>
      </trkpt>
      <trkpt lat="46.4711" lon="4.91408">
        <ele>189.4</ele>
        <time>2024-09-18T14:30:22Z</time>
      </trkpt>
      <trkpt lat="46.47102" lon="4.91408">
        <ele>189.4</ele>
        <time>2024-09-18T14:30:23Z</time>
      </trkpt>
      <trkpt lat="46.471" lon="4.91407">
        <ele>189.4</ele>
        <time>2024-09-18T14:30:24Z</time>
      </trkpt>
      <trkpt lat="46.47092" lon="4.91407">
        <ele>189.4</ele>
        <time>2024-09-18T14:30:25Z</time>
      </trkpt>
      <trkpt lat="46.47089" lon="4.91407">
        <ele>189.4</ele>
        <time>2024-09-18T14:30:26Z</time>
      </trkpt>
      <trkpt lat="46.47081" lon="4.91406">
        <ele>189.4</ele>
        <time>2024-09-18T14:30:27Z</time>
      </trkpt>
      <trkpt lat="46.47079" lon="4.91406">
        <ele>189.4</ele>
        <time>2024-09-18T14:30:28Z</time>
      </trkpt>
      <trkpt lat="46.47074" lon="4.91407">
        <ele>189.4</ele>
        <time>2024-09-18T14:30:29Z</time>
      </trkpt>
      <trkpt lat="46.47069" lon="4.91407">
        <ele>189.4</ele>
        <time>2024-09-18T14:30:30Z</time>
      </trkpt>
      <trkpt lat="46.47064" lon="4.91407">
        <ele>189.4</ele>
        <time>2024-09-18T14:30:31Z</time>
      </trkpt>
      <trkpt lat="46.47059" lon="4.91407">
        <ele>189.6</ele>
        <time>2024-09-18T14:30:32Z</time>
      </trkpt>
      <trkpt lat="46.47054" lon="4.91408">
        <ele>189.6</ele>
        <time>2024-09-18T14:30:33Z</time>
      </trkpt>
      <trkpt lat="46.47049" lon="4.91408">
        <ele>189.6</ele>
        <time>2024-09-18T14:30:34Z</time>
      </trkpt>
      <trkpt lat="46.47044" lon="4.91409">
        <ele>189.6</ele>
        <time>2024-09-18T14:30:35Z</time>
      </trkpt>
      <trkpt lat="46.47039" lon="4.91409">
        <ele>189.2</ele>
        <time>2024-09-18T14:30:36Z</time>
      </trkpt>
      <trkpt lat="46.47034" lon="4.9141">
        <ele>189.2</ele>
        <time>2024-09-18T14:30:37Z</time>
      </trkpt>
      <trkpt lat="46.47028" lon="4.9141">
        <ele>189.2</ele>
        <time>2024-09-18T14:30:38Z</time>
      </trkpt>
      <trkpt lat="46.47023" lon="4.9141">
        <ele>189.2</ele>
        <time>2024-09-18T14:30:39Z</time>
      </trkpt>
      <trkpt lat="46.47018" lon="4.91411">
        <ele>188.8</ele>
        <time>2024-09-18T14:30:40Z</time>
      </trkpt>
      <trkpt lat="46.47013" lon="4.91411">
        <ele>189.2</ele>
        <time>2024-09-18T14:30:41Z</time>
      </trkpt>
      <trkpt lat="46.47007" lon="4.91412">
        <ele>189.2</ele>
        <time>2024-09-18T14:30:42Z</time>
      </trkpt>
      <trkpt lat="46.47002" lon="4.91412">
        <ele>189.2</ele>
        <time>2024-09-18T14:30:43Z</time>
      </trkpt>
      <trkpt lat="46.46997" lon="4.91412">
        <ele>189.2</ele>
        <time>2024-09-18T14:30:44Z</time>
      </trkpt>
      <trkpt lat="46.46991" lon="4.91412">
        <ele>189.4</ele>
        <time>2024-09-18T14:30:45Z</time>
      </trkpt>
      <trkpt lat="46.46986" lon="4.91412">
        <ele>189.4</ele>
        <time>2024-09-18T14:30:46Z</time>
      </trkpt>
      <trkpt lat="46.46981" lon="4.91412">
        <ele>189.4</ele>
        <time>2024-09-18T14:30:47Z</time>
      </trkpt>
      <trkpt lat="46.46976" lon="4.91413">
        <ele>189.4</ele>
        <time>2024-09-18T14:30:48Z</time>
      </trkpt>
      <trkpt lat="46.46972" lon="4.91413">
        <ele>189.4</ele>
        <time>2024-09-18T14:30:49Z</time>
      </trkpt>
      <trkpt lat="46.46967" lon="4.91413">
        <ele>189.2</ele>
        <time>2024-09-18T14:30:50Z</time>
      </trkpt>
      <trkpt lat="46.46963" lon="4.91413">
        <ele>189.2</ele>
        <time>2024-09-18T14:30:51Z</time>
      </trkpt>
      <trkpt lat="46.46959" lon="4.91413">
        <ele>189.2</ele>
        <time>2024-09-18T14:30:52Z</time>
      </trkpt>
      <trkpt lat="46.46954" lon="4.91413">
        <ele>189.4</ele>
        <time>2024-09-18T14:30:53Z</time>
      </trkpt>
      <trkpt lat="46.46947" lon="4.91413">
        <ele>189.6</ele>
        <time>2024-09-18T14:30:54Z</time>
      </trkpt>
      <trkpt lat="46.46945" lon="4.91412">
        <ele>189.6</ele>
        <time>2024-09-18T14:30:55Z</time>
      </trkpt>
      <trkpt lat="46.46938" lon="4.91412">
        <ele>189.6</ele>
        <time>2024-09-18T14:30:56Z</time>
      </trkpt>
      <trkpt lat="46.46935" lon="4.91412">
        <ele>189.6</ele>
        <time>2024-09-18T14:30:57Z</time>
      </trkpt>
      <trkpt lat="46.46928" lon="4.91412">
        <ele>189.8</ele>
        <time>2024-09-18T14:30:58Z</time>
      </trkpt>
      <trkpt lat="46.46926" lon="4.91412">
        <ele>189.8</ele>
        <time>2024-09-18T14:30:59Z</time>
      </trkpt>
      <trkpt lat="46.46918" lon="4.91411">
        <ele>189.8</ele>
        <time>2024-09-18T14:31:00Z</time>
      </trkpt>
      <trkpt lat="46.46916" lon="4.91411">
        <ele>189.8</ele>
        <time>2024-09-18T14:31:01Z</time>
      </trkpt>
      <trkpt lat="46.46908" lon="4.91412">
        <ele>189.8</ele>
        <time>2024-09-18T14:31:02Z</time>
      </trkpt>
      <trkpt lat="46.46906" lon="4.91412">
        <ele>189.4</ele>
        <time>2024-09-18T14:31:03Z</time>
      </trkpt>
      <trkpt lat="46.46898" lon="4.91412">
        <ele>189.4</ele>
        <time>2024-09-18T14:31:04Z</time>
      </trkpt>
      <trkpt lat="46.46896" lon="4.91412">
        <ele>189.4</ele>
        <time>2024-09-18T14:31:05Z</time>
      </trkpt>
      <trkpt lat="46.46888" lon="4.91413">
        <ele>189.4</ele>
        <time>2024-09-18T14:31:06Z</time>
      </trkpt>
      <trkpt lat="46.46886" lon="4.91413">
        <ele>189.8</ele>
        <time>2024-09-18T14:31:07Z</time>
      </trkpt>
      <trkpt lat="46.46878" lon="4.91414">
        <ele>189.6</ele>
        <time>2024-09-18T14:31:08Z</time>
      </trkpt>
      <trkpt lat="46.46876" lon="4.91414">
        <ele>189.6</ele>
        <time>2024-09-18T14:31:09Z</time>
      </trkpt>
      <trkpt lat="46.46871" lon="4.91415">
        <ele>189.6</ele>
        <time>2024-09-18T14:31:10Z</time>
      </trkpt>
      <trkpt lat="46.46866" lon="4.91416">
        <ele>189.6</ele>
        <time>2024-09-18T14:31:11Z</time>
      </trkpt>
      <trkpt lat="46.46861" lon="4.91417">
        <ele>189.6</ele>
        <time>2024-09-18T14:31:12Z</time>
      </trkpt>
      <trkpt lat="46.46857" lon="4.91418">
        <ele>189.6</ele>
        <time>2024-09-18T14:31:13Z</time>
      </trkpt>
      <trkpt lat="46.46852" lon="4.91418">
        <ele>189.6</ele>
        <time>2024-09-18T14:31:14Z</time>
      </trkpt>
      <trkpt lat="46.46847" lon="4.91418">
        <ele>189.6</ele>
        <time>2024-09-18T14:31:15Z</time>
      </trkpt>
      <trkpt lat="46.46842" lon="4.91418">
        <ele>189.6</ele>
        <time>2024-09-18T14:31:16Z</time>
      </trkpt>
      <trkpt lat="46.46837" lon="4.91417">
        <ele>189.8</ele>
        <time>2024-09-18T14:31:17Z</time>
      </trkpt>
      <trkpt lat="46.46832" lon="4.91417">
        <ele>189.8</ele>
        <time>2024-09-18T14:31:18Z</time>
      </trkpt>
      <trkpt lat="46.46827" lon="4.91417">
        <ele>189.8</ele>
        <time>2024-09-18T14:31:19Z</time>
      </trkpt>
      <trkpt lat="46.46822" lon="4.91417">
        <ele>189.4</ele>
        <time>2024-09-18T14:31:20Z</time>
      </trkpt>
      <trkpt lat="46.46817" lon="4.91417">
        <ele>189.4</ele>
        <time>2024-09-18T14:31:21Z</time>
      </trkpt>
      <trkpt lat="46.46812" lon="4.91417">
        <ele>190</ele>
        <time>2024-09-18T14:31:22Z</time>
      </trkpt>
      <trkpt lat="46.46806" lon="4.91416">
        <ele>190</ele>
        <time>2024-09-18T14:31:23Z</time>
      </trkpt>
      <trkpt lat="46.46804" lon="4.91416">
        <ele>190</ele>
        <time>2024-09-18T14:31:24Z</time>
      </trkpt>
      <trkpt lat="46.468" lon="4.91415">
        <ele>189.8</ele>
        <time>2024-09-18T14:31:25Z</time>
      </trkpt>
      <trkpt lat="46.46794" lon="4.91414">
        <ele>190</ele>
        <time>2024-09-18T14:31:26Z</time>
      </trkpt>
      <trkpt lat="46.46792" lon="4.91413">
        <ele>190</ele>
        <time>2024-09-18T14:31:27Z</time>
      </trkpt>
      <trkpt lat="46.46786" lon="4.91411">
        <ele>190</ele>
        <time>2024-09-18T14:31:28Z</time>
      </trkpt>
      <trkpt lat="46.46784" lon="4.91411">
        <ele>190</ele>
        <time>2024-09-18T14:31:29Z</time>
      </trkpt>
      <trkpt lat="46.46778" lon="4.91408">
        <ele>190</ele>
        <time>2024-09-18T14:31:30Z</time>
      </trkpt>
      <trkpt lat="46.46775" lon="4.91407">
        <ele>190</ele>
        <time>2024-09-18T14:31:31Z</time>
      </trkpt>
      <trkpt lat="46.46768" lon="4.91405">
        <ele>190</ele>
        <time>2024-09-18T14:31:32Z</time>
      </trkpt>
      <trkpt lat="46.46766" lon="4.91404">
        <ele>189.6</ele>
        <time>2024-09-18T14:31:33Z</time>
      </trkpt>
      <trkpt lat="46.46759" lon="4.914">
        <ele>189.4</ele>
        <time>2024-09-18T14:31:34Z</time>
      </trkpt>
      <trkpt lat="46.46757" lon="4.91399">
        <ele>189.4</ele>
        <time>2024-09-18T14:31:35Z</time>
      </trkpt>
      <trkpt lat="46.4675" lon="4.91395">
        <ele>189.4</ele>
        <time>2024-09-18T14:31:36Z</time>
      </trkpt>
      <trkpt lat="46.46747" lon="4.91394">
        <ele>189.4</ele>
        <time>2024-09-18T14:31:37Z</time>
      </trkpt>
      <trkpt lat="46.46741" lon="4.91388">
        <ele>189.8</ele>
        <time>2024-09-18T14:31:38Z</time>
      </trkpt>
      <trkpt lat="46.46739" lon="4.91386">
        <ele>189.6</ele>
        <time>2024-09-18T14:31:39Z</time>
      </trkpt>
      <trkpt lat="46.46733" lon="4.91381">
        <ele>189.6</ele>
        <time>2024-09-18T14:31:40Z</time>
      </trkpt>
      <trkpt lat="46.46731" lon="4.9138">
        <ele>189.6</ele>
        <time>2024-09-18T14:31:41Z</time>
      </trkpt>
      <trkpt lat="46.46725" lon="4.91375">
        <ele>189.8</ele>
        <time>2024-09-18T14:31:42Z</time>
      </trkpt>
      <trkpt lat="46.46723" lon="4.91374">
        <ele>189.6</ele>
        <time>2024-09-18T14:31:43Z</time>
      </trkpt>
      <trkpt lat="46.46718" lon="4.91372">
        <ele>189.6</ele>
        <time>2024-09-18T14:31:44Z</time>
      </trkpt>
      <trkpt lat="46.46714" lon="4.91371">
        <ele>189.6</ele>
        <time>2024-09-18T14:31:45Z</time>
      </trkpt>
      <trkpt lat="46.46709" lon="4.9137">
        <ele>189.6</ele>
        <time>2024-09-18T14:31:46Z</time>
      </trkpt>
      <trkpt lat="46.46705" lon="4.91369">
        <ele>189.6</ele>
        <time>2024-09-18T14:31:47Z</time>
      </trkpt>
      <trkpt lat="46.467" lon="4.91368">
        <ele>189.6</ele>
        <time>2024-09-18T14:31:48Z</time>
      </trkpt>
      <trkpt lat="46.46696" lon="4.91368">
        <ele>190</ele>
        <time>2024-09-18T14:31:49Z</time>
      </trkpt>
      <trkpt lat="46.46691" lon="4.91368">
        <ele>190</ele>
        <time>2024-09-18T14:31:50Z</time>
      </trkpt>
      <trkpt lat="46.46686" lon="4.91368">
        <ele>190</ele>
        <time>2024-09-18T14:31:51Z</time>
      </trkpt>
      <trkpt lat="46.46681" lon="4.91369">
        <ele>189.8</ele>
        <time>2024-09-18T14:31:52Z</time>
      </trkpt>
      <trkpt lat="46.46677" lon="4.91371">
        <ele>189.6</ele>
        <time>2024-09-18T14:31:53Z</time>
      </trkpt>
      <trkpt lat="46.46672" lon="4.91372">
        <ele>189.6</ele>
        <time>2024-09-18T14:31:54Z</time>
      </trkpt>
      <trkpt lat="46.46668" lon="4.91373">
        <ele>189.6</ele>
        <time>2024-09-18T14:31:55Z</time>
      </trkpt>
      <trkpt lat="46.46663" lon="4.91373">
        <ele>189.6</ele>
        <time>2024-09-18T14:31:56Z</time>
      </trkpt>
      <trkpt lat="46.46658" lon="4.91373">
        <ele>189.6</ele>
        <time>2024-09-18T14:31:57Z</time>
      </trkpt>
      <trkpt lat="46.46654" lon="4.91373">
        <ele>189.6</ele>
        <time>2024-09-18T14:31:58Z</time>
      </trkpt>
      <trkpt lat="46.46649" lon="4.91372">
        <ele>189.6</ele>
        <time>2024-09-18T14:31:59Z</time>
      </trkpt>
      <trkpt lat="46.46645" lon="4.9137">
        <ele>189.6</ele>
        <time>2024-09-18T14:32:00Z</time>
      </trkpt>
      <trkpt lat="46.4664" lon="4.91368">
        <ele>189.6</ele>
        <time>2024-09-18T14:32:01Z</time>
      </trkpt>
      <trkpt lat="46.46636" lon="4.91366">
        <ele>189.6</ele>
        <time>2024-09-18T14:32:02Z</time>
      </trkpt>
      <trkpt lat="46.46631" lon="4.91363">
        <ele>189.6</ele>
        <time>2024-09-18T14:32:03Z</time>
      </trkpt>
      <trkpt lat="46.46627" lon="4.9136">
        <ele>189.6</ele>
        <time>2024-09-18T14:32:04Z</time>
      </trkpt>
      <trkpt lat="46.46622" lon="4.91358">
        <ele>190</ele>
        <time>2024-09-18T14:32:05Z</time>
      </trkpt>
      <trkpt lat="46.46618" lon="4.91355">
        <ele>189.4</ele>
        <time>2024-09-18T14:32:06Z</time>
      </trkpt>
      <trkpt lat="46.46613" lon="4.91353">
        <ele>189.4</ele>
        <time>2024-09-18T14:32:07Z</time>
      </trkpt>
      <trkpt lat="46.46609" lon="4.9135">
        <ele>189.4</ele>
        <time>2024-09-18T14:32:08Z</time>
      </trkpt>
      <trkpt lat="46.46602" lon="4.91347">
        <ele>189.8</ele>
        <time>2024-09-18T14:32:09Z</time>
      </trkpt>
      <trkpt lat="46.46599" lon="4.91346">
        <ele>189.8</ele>
        <time>2024-09-18T14:32:10Z</time>
      </trkpt>
      <trkpt lat="46.46593" lon="4.91343">
        <ele>189.4</ele>
        <time>2024-09-18T14:32:11Z</time>
      </trkpt>
      <trkpt lat="46.46591" lon="4.91341">
        <ele>189.4</ele>
        <time>2024-09-18T14:32:12Z</time>
      </trkpt>
      <trkpt lat="46.46584" lon="4.91338">
        <ele>189.4</ele>
        <time>2024-09-18T14:32:13Z</time>
      </trkpt>
      <trkpt lat="46.46582" lon="4.91337">
        <ele>189.4</ele>
        <time>2024-09-18T14:32:14Z</time>
      </trkpt>
      <trkpt lat="46.46575" lon="4.91335">
        <ele>189.6</ele>
        <time>2024-09-18T14:32:15Z</time>
      </trkpt>
      <trkpt lat="46.46572" lon="4.91334">
        <ele>189.6</ele>
        <time>2024-09-18T14:32:16Z</time>
      </trkpt>
      <trkpt lat="46.46565" lon="4.91331">
        <ele>189.6</ele>
        <time>2024-09-18T14:32:17Z</time>
      </trkpt>
      <trkpt lat="46.46563" lon="4.91331">
        <ele>189.6</ele>
        <time>2024-09-18T14:32:18Z</time>
      </trkpt>
      <trkpt lat="46.46555" lon="4.91329">
        <ele>189.4</ele>
        <time>2024-09-18T14:32:19Z</time>
      </trkpt>
      <trkpt lat="46.46553" lon="4.91329">
        <ele>189.4</ele>
        <time>2024-09-18T14:32:20Z</time>
      </trkpt>
      <trkpt lat="46.46545" lon="4.91328">
        <ele>189.4</ele>
        <time>2024-09-18T14:32:21Z</time>
      </trkpt>
      <trkpt lat="46.46543" lon="4.91328">
        <ele>189.4</ele>
        <time>2024-09-18T14:32:22Z</time>
      </trkpt>
      <trkpt lat="46.46536" lon="4.91328">
        <ele>189.4</ele>
        <time>2024-09-18T14:32:23Z</time>
      </trkpt>
      <trkpt lat="46.46534" lon="4.91327">
        <ele>189.6</ele>
        <time>2024-09-18T14:32:24Z</time>
      </trkpt>
      <trkpt lat="46.46526" lon="4.91326">
        <ele>189.6</ele>
        <time>2024-09-18T14:32:25Z</time>
      </trkpt>
      <trkpt lat="46.46524" lon="4.91325">
        <ele>189.6</ele>
        <time>2024-09-18T14:32:26Z</time>
      </trkpt>
      <trkpt lat="46.4652" lon="4.91323">
        <ele>189.6</ele>
        <time>2024-09-18T14:32:27Z</time>
      </trkpt>
      <trkpt lat="46.46515" lon="4.91322">
        <ele>189.4</ele>
        <time>2024-09-18T14:32:28Z</time>
      </trkpt>
      <trkpt lat="46.4651" lon="4.9132">
        <ele>189.4</ele>
        <time>2024-09-18T14:32:29Z</time>
      </trkpt>
      <trkpt lat="46.46505" lon="4.91319">
        <ele>189.4</ele>
        <time>2024-09-18T14:32:30Z</time>
      </trkpt>
      <trkpt lat="46.46501" lon="4.91317">
        <ele>189.6</ele>
        <time>2024-09-18T14:32:31Z</time>
      </trkpt>
      <trkpt lat="46.46496" lon="4.91315">
        <ele>189.6</ele>
        <time>2024-09-18T14:32:32Z</time>
      </trkpt>
      <trkpt lat="46.46492" lon="4.91314">
        <ele>189.6</ele>
        <time>2024-09-18T14:32:33Z</time>
      </trkpt>
      <trkpt lat="46.46487" lon="4.91312">
        <ele>189.6</ele>
        <time>2024-09-18T14:32:34Z</time>
      </trkpt>
      <trkpt lat="46.46482" lon="4.91311">
        <ele>189.6</ele>
        <time>2024-09-18T14:32:35Z</time>
      </trkpt>
      <trkpt lat="46.46478" lon="4.91309">
        <ele>189.6</ele>
        <time>2024-09-18T14:32:36Z</time>
      </trkpt>
      <trkpt lat="46.46473" lon="4.91308">
        <ele>190</ele>
        <time>2024-09-18T14:32:37Z</time>
      </trkpt>
      <trkpt lat="46.46469" lon="4.91306">
        <ele>189.8</ele>
        <time>2024-09-18T14:32:38Z</time>
      </trkpt>
      <trkpt lat="46.46464" lon="4.91305">
        <ele>189.8</ele>
        <time>2024-09-18T14:32:39Z</time>
      </trkpt>
      <trkpt lat="46.46459" lon="4.91304">
        <ele>189.8</ele>
        <time>2024-09-18T14:32:40Z</time>
      </trkpt>
      <trkpt lat="46.46454" lon="4.91303">
        <ele>189.8</ele>
        <time>2024-09-18T14:32:41Z</time>
      </trkpt>
      <trkpt lat="46.46449" lon="4.91303">
        <ele>189.8</ele>
        <time>2024-09-18T14:32:42Z</time>
      </trkpt>
      <trkpt lat="46.46444" lon="4.91303">
        <ele>189.6</ele>
        <time>2024-09-18T14:32:43Z</time>
      </trkpt>
      <trkpt lat="46.4644" lon="4.91303">
        <ele>189.6</ele>
        <time>2024-09-18T14:32:44Z</time>
      </trkpt>
      <trkpt lat="46.46435" lon="4.91303">
        <ele>189.6</ele>
        <time>2024-09-18T14:32:45Z</time>
      </trkpt>
      <trkpt lat="46.4643" lon="4.91302">
        <ele>189.6</ele>
        <time>2024-09-18T14:32:46Z</time>
      </trkpt>
      <trkpt lat="46.46425" lon="4.91302">
        <ele>189.8</ele>
        <time>2024-09-18T14:32:47Z</time>
      </trkpt>
      <trkpt lat="46.46421" lon="4.91302">
        <ele>189.8</ele>
        <time>2024-09-18T14:32:48Z</time>
      </trkpt>
      <trkpt lat="46.46416" lon="4.91301">
        <ele>189.8</ele>
        <time>2024-09-18T14:32:49Z</time>
      </trkpt>
      <trkpt lat="46.46411" lon="4.91301">
        <ele>189.8</ele>
        <time>2024-09-18T14:32:50Z</time>
      </trkpt>
      <trkpt lat="46.46406" lon="4.91301">
        <ele>189.6</ele>
        <time>2024-09-18T14:32:51Z</time>
      </trkpt>
      <trkpt lat="46.46398" lon="4.91301">
        <ele>189.6</ele>
        <time>2024-09-18T14:32:52Z</time>
      </trkpt>
      <trkpt lat="46.46396" lon="4.91301">
        <ele>189.6</ele>
        <time>2024-09-18T14:32:53Z</time>
      </trkpt>
      <trkpt lat="46.46388" lon="4.913">
        <ele>189.6</ele>
        <time>2024-09-18T14:32:54Z</time>
      </trkpt>
      <trkpt lat="46.46386" lon="4.913">
        <ele>189.2</ele>
        <time>2024-09-18T14:32:55Z</time>
      </trkpt>
      <trkpt lat="46.46378" lon="4.91299">
        <ele>189.2</ele>
        <time>2024-09-18T14:32:56Z</time>
      </trkpt>
      <trkpt lat="46.46376" lon="4.91298">
        <ele>189.2</ele>
        <time>2024-09-18T14:32:57Z</time>
      </trkpt>
      <trkpt lat="46.46368" lon="4.91297">
        <ele>189.2</ele>
        <time>2024-09-18T14:32:58Z</time>
      </trkpt>
      <trkpt lat="46.46366" lon="4.91297">
        <ele>189.4</ele>
        <time>2024-09-18T14:32:59Z</time>
      </trkpt>
      <trkpt lat="46.46359" lon="4.91295">
        <ele>189.4</ele>
        <time>2024-09-18T14:33:00Z</time>
      </trkpt>
      <trkpt lat="46.46356" lon="4.91295">
        <ele>189.4</ele>
        <time>2024-09-18T14:33:01Z</time>
      </trkpt>
      <trkpt lat="46.46349" lon="4.91294">
        <ele>189.4</ele>
        <time>2024-09-18T14:33:02Z</time>
      </trkpt>
      <trkpt lat="46.46347" lon="4.91293">
        <ele>189.8</ele>
        <time>2024-09-18T14:33:03Z</time>
      </trkpt>
      <trkpt lat="46.4634" lon="4.91292">
        <ele>189.8</ele>
        <time>2024-09-18T14:33:04Z</time>
      </trkpt>
      <trkpt lat="46.46338" lon="4.91292">
        <ele>189.8</ele>
        <time>2024-09-18T14:33:05Z</time>
      </trkpt>
      <trkpt lat="46.46331" lon="4.9129">
        <ele>189.8</ele>
        <time>2024-09-18T14:33:06Z</time>
      </trkpt>
      <trkpt lat="46.46328" lon="4.91289">
        <ele>189.8</ele>
        <time>2024-09-18T14:33:07Z</time>
      </trkpt>
      <trkpt lat="46.46321" lon="4.91287">
        <ele>189.8</ele>
        <time>2024-09-18T14:33:08Z</time>
      </trkpt>
      <trkpt lat="46.46319" lon="4.91287">
        <ele>189.8</ele>
        <time>2024-09-18T14:33:09Z</time>
      </trkpt>
      <trkpt lat="46.46314" lon="4.91285">
        <ele>189.8</ele>
        <time>2024-09-18T14:33:10Z</time>
      </trkpt>
      <trkpt lat="46.46309" lon="4.91283">
        <ele>189.8</ele>
        <time>2024-09-18T14:33:11Z</time>
      </trkpt>
      <trkpt lat="46.46304" lon="4.91281">
        <ele>189.8</ele>
        <time>2024-09-18T14:33:12Z</time>
      </trkpt>
      <trkpt lat="46.46299" lon="4.91279">
        <ele>189.8</ele>
        <time>2024-09-18T14:33:13Z</time>
      </trkpt>
      <trkpt lat="46.46295" lon="4.91277">
        <ele>189.8</ele>
        <time>2024-09-18T14:33:14Z</time>
      </trkpt>
      <trkpt lat="46.4629" lon="4.91275">
        <ele>189.8</ele>
        <time>2024-09-18T14:33:15Z</time>
      </trkpt>
      <trkpt lat="46.46286" lon="4.91274">
        <ele>189.8</ele>
        <time>2024-09-18T14:33:16Z</time>
      </trkpt>
      <trkpt lat="46.46281" lon="4.91271">
        <ele>189.8</ele>
        <time>2024-09-18T14:33:17Z</time>
      </trkpt>
      <trkpt lat="46.46276" lon="4.91269">
        <ele>190.2</ele>
        <time>2024-09-18T14:33:18Z</time>
      </trkpt>
      <trkpt lat="46.46272" lon="4.91267">
        <ele>190.2</ele>
        <time>2024-09-18T14:33:19Z</time>
      </trkpt>
      <trkpt lat="46.46264" lon="4.91264">
        <ele>190.2</ele>
        <time>2024-09-18T14:33:20Z</time>
      </trkpt>
      <trkpt lat="46.46262" lon="4.91263">
        <ele>190.2</ele>
        <time>2024-09-18T14:33:21Z</time>
      </trkpt>
      <trkpt lat="46.46258" lon="4.91261">
        <ele>190</ele>
        <time>2024-09-18T14:33:22Z</time>
      </trkpt>
      <trkpt lat="46.46253" lon="4.9126">
        <ele>190</ele>
        <time>2024-09-18T14:33:23Z</time>
      </trkpt>
      <trkpt lat="46.46249" lon="4.91258">
        <ele>190</ele>
        <time>2024-09-18T14:33:24Z</time>
      </trkpt>
      <trkpt lat="46.46244" lon="4.91256">
        <ele>190</ele>
        <time>2024-09-18T14:33:25Z</time>
      </trkpt>
      <trkpt lat="46.4624" lon="4.91253">
        <ele>190</ele>
        <time>2024-09-18T14:33:26Z</time>
      </trkpt>
      <trkpt lat="46.46235" lon="4.91251">
        <ele>189.4</ele>
        <time>2024-09-18T14:33:27Z</time>
      </trkpt>
      <trkpt lat="46.4623" lon="4.91249">
        <ele>189.4</ele>
        <time>2024-09-18T14:33:28Z</time>
      </trkpt>
      <trkpt lat="46.46225" lon="4.91247">
        <ele>189.4</ele>
        <time>2024-09-18T14:33:29Z</time>
      </trkpt>
      <trkpt lat="46.46221" lon="4.91245">
        <ele>189.4</ele>
        <time>2024-09-18T14:33:30Z</time>
      </trkpt>
      <trkpt lat="46.46216" lon="4.91242">
        <ele>189.4</ele>
        <time>2024-09-18T14:33:31Z</time>
      </trkpt>
      <trkpt lat="46.46212" lon="4.91239">
        <ele>189.4</ele>
        <time>2024-09-18T14:33:32Z</time>
      </trkpt>
      <trkpt lat="46.46207" lon="4.91237">
        <ele>189.4</ele>
        <time>2024-09-18T14:33:33Z</time>
      </trkpt>
      <trkpt lat="46.46203" lon="4.91235">
        <ele>189.4</ele>
        <time>2024-09-18T14:33:34Z</time>
      </trkpt>
      <trkpt lat="46.46197" lon="4.91232">
        <ele>190</ele>
        <time>2024-09-18T14:33:35Z</time>
      </trkpt>
      <trkpt lat="46.46195" lon="4.91231">
        <ele>189.8</ele>
        <time>2024-09-18T14:33:36Z</time>
      </trkpt>
      <trkpt lat="46.46189" lon="4.91228">
        <ele>189.8</ele>
        <time>2024-09-18T14:33:37Z</time>
      </trkpt>
      <trkpt lat="46.46187" lon="4.91227">
        <ele>189.8</ele>
        <time>2024-09-18T14:33:38Z</time>
      </trkpt>
      <trkpt lat="46.46181" lon="4.91224">
        <ele>190</ele>
        <time>2024-09-18T14:33:39Z</time>
      </trkpt>
      <trkpt lat="46.4618" lon="4.91223">
        <ele>190.2</ele>
        <time>2024-09-18T14:33:40Z</time>
      </trkpt>
      <trkpt lat="46.46174" lon="4.9122">
        <ele>190.2</ele>
        <time>2024-09-18T14:33:41Z</time>
      </trkpt>
      <trkpt lat="46.46172" lon="4.91219">
        <ele>190.2</ele>
        <time>2024-09-18T14:33:42Z</time>
      </trkpt>
      <trkpt lat="46.46166" lon="4.91215">
        <ele>190.2</ele>
        <time>2024-09-18T14:33:43Z</time>
      </trkpt>
      <trkpt lat="46.46164" lon="4.91214">
        <ele>190.2</ele>
        <time>2024-09-18T14:33:44Z</time>
      </trkpt>
      <trkpt lat="46.46157" lon="4.9121">
        <ele>190</ele>
        <time>2024-09-18T14:33:45Z</time>
      </trkpt>
      <trkpt lat="46.46155" lon="4.91208">
        <ele>190</ele>
        <time>2024-09-18T14:33:46Z</time>
      </trkpt>
      <trkpt lat="46.46148" lon="4.91204">
        <ele>190</ele>
        <time>2024-09-18T14:33:47Z</time>
      </trkpt>
      <trkpt lat="46.46146" lon="4.91203">
        <ele>190</ele>
        <time>2024-09-18T14:33:48Z</time>
      </trkpt>
      <trkpt lat="46.46139" lon="4.91199">
        <ele>189.6</ele>
        <time>2024-09-18T14:33:49Z</time>
      </trkpt>
      <trkpt lat="46.46137" lon="4.91197">
        <ele>189.6</ele>
        <time>2024-09-18T14:33:50Z</time>
      </trkpt>
      <trkpt lat="46.4613" lon="4.91192">
        <ele>189.6</ele>
        <time>2024-09-18T14:33:51Z</time>
      </trkpt>
      <trkpt lat="46.46128" lon="4.91191">
        <ele>189.6</ele>
        <time>2024-09-18T14:33:52Z</time>
      </trkpt>
      <trkpt lat="46.46124" lon="4.91188">
        <ele>190</ele>
        <time>2024-09-18T14:33:53Z</time>
      </trkpt>
      <trkpt lat="46.4612" lon="4.91185">
        <ele>190</ele>
        <time>2024-09-18T14:33:54Z</time>
      </trkpt>
      <trkpt lat="46.46115" lon="4.91183">
        <ele>190</ele>
        <time>2024-09-18T14:33:55Z</time>
      </trkpt>
      <trkpt lat="46.46111" lon="4.9118">
        <ele>190</ele>
        <time>2024-09-18T14:33:56Z</time>
      </trkpt>
      <trkpt lat="46.46107" lon="4.91177">
        <ele>190</ele>
        <time>2024-09-18T14:33:57Z</time>
      </trkpt>
      <trkpt lat="46.46103" lon="4.91174">
        <ele>190</ele>
        <time>2024-09-18T14:33:58Z</time>
      </trkpt>
      <trkpt lat="46.46099" lon="4.91171">
        <ele>189.8</ele>
        <time>2024-09-18T14:33:59Z</time>
      </trkpt>
      <trkpt lat="46.46094" lon="4.91169">
        <ele>189.8</ele>
        <time>2024-09-18T14:34:00Z</time>
      </trkpt>
      <trkpt lat="46.4609" lon="4.91166">
        <ele>189.8</ele>
        <time>2024-09-18T14:34:01Z</time>
      </trkpt>
      <trkpt lat="46.46086" lon="4.91163">
        <ele>190</ele>
        <time>2024-09-18T14:34:02Z</time>
      </trkpt>
      <trkpt lat="46.46081" lon="4.9116">
        <ele>189.4</ele>
        <time>2024-09-18T14:34:03Z</time>
      </trkpt>
      <trkpt lat="46.46077" lon="4.91157">
        <ele>189.4</ele>
        <time>2024-09-18T14:34:04Z</time>
      </trkpt>
      <trkpt lat="46.46073" lon="4.91154">
        <ele>189.4</ele>
        <time>2024-09-18T14:34:05Z</time>
      </trkpt>
      <trkpt lat="46.46069" lon="4.91151">
        <ele>189.8</ele>
        <time>2024-09-18T14:34:06Z</time>
      </trkpt>
      <trkpt lat="46.46065" lon="4.91148">
        <ele>189.8</ele>
        <time>2024-09-18T14:34:07Z</time>
      </trkpt>
      <trkpt lat="46.46061" lon="4.91145">
        <ele>190</ele>
        <time>2024-09-18T14:34:08Z</time>
      </trkpt>
      <trkpt lat="46.46056" lon="4.91142">
        <ele>190</ele>
        <time>2024-09-18T14:34:09Z</time>
      </trkpt>
      <trkpt lat="46.46052" lon="4.91138">
        <ele>190</ele>
        <time>2024-09-18T14:34:10Z</time>
      </trkpt>
      <trkpt lat="46.46048" lon="4.91135">
        <ele>189.8</ele>
        <time>2024-09-18T14:34:11Z</time>
      </trkpt>
      <trkpt lat="46.46044" lon="4.91132">
        <ele>189.4</ele>
        <time>2024-09-18T14:34:12Z</time>
      </trkpt>
      <trkpt lat="46.4604" lon="4.91128">
        <ele>189.4</ele>
        <time>2024-09-18T14:34:13Z</time>
      </trkpt>
      <trkpt lat="46.46036" lon="4.91125">
        <ele>189.4</ele>
        <time>2024-09-18T14:34:14Z</time>
      </trkpt>
      <trkpt lat="46.46032" lon="4.91121">
        <ele>189.6</ele>
        <time>2024-09-18T14:34:15Z</time>
      </trkpt>
      <trkpt lat="46.46027" lon="4.91118">
        <ele>189.6</ele>
        <time>2024-09-18T14:34:16Z</time>
      </trkpt>
      <trkpt lat="46.46021" lon="4.91113">
        <ele>189.4</ele>
        <time>2024-09-18T14:34:17Z</time>
      </trkpt>
      <trkpt lat="46.46019" lon="4.91111">
        <ele>189.4</ele>
        <time>2024-09-18T14:34:18Z</time>
      </trkpt>
      <trkpt lat="46.46013" lon="4.91106">
        <ele>189.4</ele>
        <time>2024-09-18T14:34:19Z</time>
      </trkpt>
      <trkpt lat="46.46011" lon="4.91104">
        <ele>189.8</ele>
        <time>2024-09-18T14:34:20Z</time>
      </trkpt>
      <trkpt lat="46.46006" lon="4.91099">
        <ele>189.6</ele>
        <time>2024-09-18T14:34:21Z</time>
      </trkpt>
      <trkpt lat="46.46004" lon="4.91097">
        <ele>189.6</ele>
        <time>2024-09-18T14:34:22Z</time>
      </trkpt>
      <trkpt lat="46.45999" lon="4.91092">
        <ele>189.6</ele>
        <time>2024-09-18T14:34:23Z</time>
      </trkpt>
      <trkpt lat="46.45997" lon="4.9109">
        <ele>189.6</ele>
        <time>2024-09-18T14:34:24Z</time>
      </trkpt>
      <trkpt lat="46.45992" lon="4.91085">
        <ele>189.4</ele>
        <time>2024-09-18T14:34:25Z</time>
      </trkpt>
      <trkpt lat="46.4599" lon="4.91083">
        <ele>189.4</ele>
        <time>2024-09-18T14:34:26Z</time>
      </trkpt>
      <trkpt lat="46.45985" lon="4.91077">
        <ele>189.4</ele>
        <time>2024-09-18T14:34:27Z</time>
      </trkpt>
      <trkpt lat="46.45983" lon="4.91075">
        <ele>189.4</ele>
        <time>2024-09-18T14:34:28Z</time>
      </trkpt>
      <trkpt lat="46.45978" lon="4.9107">
        <ele>189.4</ele>
        <time>2024-09-18T14:34:29Z</time>
      </trkpt>
      <trkpt lat="46.45976" lon="4.91068">
        <ele>189.6</ele>
        <time>2024-09-18T14:34:30Z</time>
      </trkpt>
      <trkpt lat="46.4597" lon="4.91062">
        <ele>189.6</ele>
        <time>2024-09-18T14:34:31Z</time>
      </trkpt>
      <trkpt lat="46.45969" lon="4.9106">
        <ele>189.6</ele>
        <time>2024-09-18T14:34:32Z</time>
      </trkpt>
      <trkpt lat="46.45965" lon="4.91057">
        <ele>189.4</ele>
        <time>2024-09-18T14:34:33Z</time>
      </trkpt>
      <trkpt lat="46.4596" lon="4.91051">
        <ele>189.6</ele>
        <time>2024-09-18T14:34:34Z</time>
      </trkpt>
      <trkpt lat="46.45958" lon="4.9105">
        <ele>189.6</ele>
        <time>2024-09-18T14:34:35Z</time>
      </trkpt>
      <trkpt lat="46.45955" lon="4.91047">
        <ele>189.6</ele>
        <time>2024-09-18T14:34:36Z</time>
      </trkpt>
      <trkpt lat="46.45951" lon="4.91045">
        <ele>189.6</ele>
        <time>2024-09-18T14:34:37Z</time>
      </trkpt>
      <trkpt lat="46.45948" lon="4.91042">
        <ele>189.6</ele>
        <time>2024-09-18T14:34:38Z</time>
      </trkpt>
      <trkpt lat="46.45945" lon="4.91038">
        <ele>189.6</ele>
        <time>2024-09-18T14:34:39Z</time>
      </trkpt>
      <trkpt lat="46.45942" lon="4.91035">
        <ele>189.6</ele>
        <time>2024-09-18T14:34:40Z</time>
      </trkpt>
      <trkpt lat="46.45939" lon="4.91032">
        <ele>189.6</ele>
        <time>2024-09-18T14:34:41Z</time>
      </trkpt>
      <trkpt lat="46.45935" lon="4.91029">
        <ele>189.6</ele>
        <time>2024-09-18T14:34:42Z</time>
      </trkpt>
      <trkpt lat="46.45932" lon="4.91025">
        <ele>189.6</ele>
        <time>2024-09-18T14:34:43Z</time>
      </trkpt>
      <trkpt lat="46.45929" lon="4.91021">
        <ele>189.6</ele>
        <time>2024-09-18T14:34:44Z</time>
      </trkpt>
      <trkpt lat="46.45926" lon="4.91016">
        <ele>189.6</ele>
        <time>2024-09-18T14:34:45Z</time>
      </trkpt>
      <trkpt lat="46.45922" lon="4.91012">
        <ele>189.6</ele>
        <time>2024-09-18T14:34:46Z</time>
      </trkpt>
      <trkpt lat="46.45919" lon="4.91008">
        <ele>189.4</ele>
        <time>2024-09-18T14:34:47Z</time>
      </trkpt>
      <trkpt lat="46.45916" lon="4.91004">
        <ele>189.8</ele>
        <time>2024-09-18T14:34:48Z</time>
      </trkpt>
      <trkpt lat="46.45914" lon="4.91">
        <ele>189.8</ele>
        <time>2024-09-18T14:34:49Z</time>
      </trkpt>
      <trkpt lat="46.45912" lon="4.90997">
        <ele>189.8</ele>
        <time>2024-09-18T14:34:50Z</time>
      </trkpt>
      <trkpt lat="46.45909" lon="4.90993">
        <ele>189.8</ele>
        <time>2024-09-18T14:34:51Z</time>
      </trkpt>
      <trkpt lat="46.45907" lon="4.90989">
        <ele>189.8</ele>
        <time>2024-09-18T14:34:52Z</time>
      </trkpt>
      <trkpt lat="46.45904" lon="4.90984">
        <ele>190</ele>
        <time>2024-09-18T14:34:53Z</time>
      </trkpt>
      <trkpt lat="46.459" lon="4.90979">
        <ele>190</ele>
        <time>2024-09-18T14:34:54Z</time>
      </trkpt>
      <trkpt lat="46.45897" lon="4.90974">
        <ele>190</ele>
        <time>2024-09-18T14:34:55Z</time>
      </trkpt>
      <trkpt lat="46.45893" lon="4.90969">
        <ele>189.6</ele>
        <time>2024-09-18T14:34:56Z</time>
      </trkpt>
      <trkpt lat="46.4589" lon="4.90964">
        <ele>189.8</ele>
        <time>2024-09-18T14:34:57Z</time>
      </trkpt>
      <trkpt lat="46.45886" lon="4.90958">
        <ele>189.8</ele>
        <time>2024-09-18T14:34:58Z</time>
      </trkpt>
      <trkpt lat="46.45883" lon="4.90952">
        <ele>189.8</ele>
        <time>2024-09-18T14:34:59Z</time>
      </trkpt>
      <trkpt lat="46.45879" lon="4.90947">
        <ele>190.4</ele>
        <time>2024-09-18T14:35:00Z</time>
      </trkpt>
      <trkpt lat="46.45876" lon="4.90942">
        <ele>189.4</ele>
        <time>2024-09-18T14:35:01Z</time>
      </trkpt>
      <trkpt lat="46.45871" lon="4.90933">
        <ele>189.4</ele>
        <time>2024-09-18T14:35:02Z</time>
      </trkpt>
      <trkpt lat="46.45869" lon="4.90931">
        <ele>189.4</ele>
        <time>2024-09-18T14:35:03Z</time>
      </trkpt>
      <trkpt lat="46.45864" lon="4.90923">
        <ele>189.4</ele>
        <time>2024-09-18T14:35:04Z</time>
      </trkpt>
      <trkpt lat="46.45862" lon="4.9092">
        <ele>189.4</ele>
        <time>2024-09-18T14:35:05Z</time>
      </trkpt>
      <trkpt lat="46.45857" lon="4.90912">
        <ele>189.8</ele>
        <time>2024-09-18T14:35:06Z</time>
      </trkpt>
      <trkpt lat="46.45855" lon="4.9091">
        <ele>189.8</ele>
        <time>2024-09-18T14:35:07Z</time>
      </trkpt>
      <trkpt lat="46.4585" lon="4.90903">
        <ele>189.8</ele>
        <time>2024-09-18T14:35:08Z</time>
      </trkpt>
      <trkpt lat="46.45849" lon="4.909">
        <ele>189.4</ele>
        <time>2024-09-18T14:35:09Z</time>
      </trkpt>
      <trkpt lat="46.45844" lon="4.90894">
        <ele>190</ele>
        <time>2024-09-18T14:35:10Z</time>
      </trkpt>
      <trkpt lat="46.45842" lon="4.90892">
        <ele>190</ele>
        <time>2024-09-18T14:35:11Z</time>
      </trkpt>
      <trkpt lat="46.45836" lon="4.90886">
        <ele>190</ele>
        <time>2024-09-18T14:35:12Z</time>
      </trkpt>
      <trkpt lat="46.45834" lon="4.90884">
        <ele>190</ele>
        <time>2024-09-18T14:35:13Z</time>
      </trkpt>
      <trkpt lat="46.45829" lon="4.90877">
        <ele>190.2</ele>
        <time>2024-09-18T14:35:14Z</time>
      </trkpt>
      <trkpt lat="46.45827" lon="4.90875">
        <ele>190.2</ele>
        <time>2024-09-18T14:35:15Z</time>
      </trkpt>
      <trkpt lat="46.45822" lon="4.90869">
        <ele>190.2</ele>
        <time>2024-09-18T14:35:16Z</time>
      </trkpt>
      <trkpt lat="46.4582" lon="4.90867">
        <ele>190.2</ele>
        <time>2024-09-18T14:35:17Z</time>
      </trkpt>
      <trkpt lat="46.45815" lon="4.9086">
        <ele>190.2</ele>
        <time>2024-09-18T14:35:18Z</time>
      </trkpt>
      <trkpt lat="46.45813" lon="4.90858">
        <ele>190</ele>
        <time>2024-09-18T14:35:19Z</time>
      </trkpt>
      <trkpt lat="46.45809" lon="4.90853">
        <ele>190</ele>
        <time>2024-09-18T14:35:20Z</time>
      </trkpt>
      <trkpt lat="46.45806" lon="4.90849">
        <ele>190</ele>
        <time>2024-09-18T14:35:21Z</time>
      </trkpt>
      <trkpt lat="46.45802" lon="4.90845">
        <ele>190</ele>
        <time>2024-09-18T14:35:22Z</time>
      </trkpt>
      <trkpt lat="46.45799" lon="4.90841">
        <ele>190.2</ele>
        <time>2024-09-18T14:35:23Z</time>
      </trkpt>
      <trkpt lat="46.45795" lon="4.90836">
        <ele>190.2</ele>
        <time>2024-09-18T14:35:24Z</time>
      </trkpt>
      <trkpt lat="46.45791" lon="4.90832">
        <ele>190.2</ele>
        <time>2024-09-18T14:35:25Z</time>
      </trkpt>
      <trkpt lat="46.45788" lon="4.90828">
        <ele>190.2</ele>
        <time>2024-09-18T14:35:26Z</time>
      </trkpt>
      <trkpt lat="46.45784" lon="4.90824">
        <ele>190.2</ele>
        <time>2024-09-18T14:35:27Z</time>
      </trkpt>
      <trkpt lat="46.4578" lon="4.9082">
        <ele>189.2</ele>
        <time>2024-09-18T14:35:28Z</time>
      </trkpt>
      <trkpt lat="46.45776" lon="4.90815">
        <ele>189.2</ele>
        <time>2024-09-18T14:35:29Z</time>
      </trkpt>
      <trkpt lat="46.45773" lon="4.90811">
        <ele>189.2</ele>
        <time>2024-09-18T14:35:30Z</time>
      </trkpt>
      <trkpt lat="46.45769" lon="4.90807">
        <ele>189.2</ele>
        <time>2024-09-18T14:35:31Z</time>
      </trkpt>
      <trkpt lat="46.45765" lon="4.90803">
        <ele>190.2</ele>
        <time>2024-09-18T14:35:32Z</time>
      </trkpt>
      <trkpt lat="46.45762" lon="4.90798">
        <ele>190.6</ele>
        <time>2024-09-18T14:35:33Z</time>
      </trkpt>
      <trkpt lat="46.45758" lon="4.90794">
        <ele>190.6</ele>
        <time>2024-09-18T14:35:34Z</time>
      </trkpt>
      <trkpt lat="46.45755" lon="4.90789">
        <ele>190.6</ele>
        <time>2024-09-18T14:35:35Z</time>
      </trkpt>
      <trkpt lat="46.45751" lon="4.90785">
        <ele>190.6</ele>
        <time>2024-09-18T14:35:36Z</time>
      </trkpt>
      <trkpt lat="46.45748" lon="4.9078">
        <ele>190.6</ele>
        <time>2024-09-18T14:35:37Z</time>
      </trkpt>
      <trkpt lat="46.45745" lon="4.90775">
        <ele>190.2</ele>
        <time>2024-09-18T14:35:38Z</time>
      </trkpt>
      <trkpt lat="46.45741" lon="4.90769">
        <ele>190.2</ele>
        <time>2024-09-18T14:35:39Z</time>
      </trkpt>
      <trkpt lat="46.45738" lon="4.90764">
        <ele>190.2</ele>
        <time>2024-09-18T14:35:40Z</time>
      </trkpt>
      <trkpt lat="46.45734" lon="4.90759">
        <ele>190</ele>
        <time>2024-09-18T14:35:41Z</time>
      </trkpt>
      <trkpt lat="46.45731" lon="4.90755">
        <ele>190.6</ele>
        <time>2024-09-18T14:35:42Z</time>
      </trkpt>
      <trkpt lat="46.45728" lon="4.9075">
        <ele>190.6</ele>
        <time>2024-09-18T14:35:43Z</time>
      </trkpt>
      <trkpt lat="46.45723" lon="4.90742">
        <ele>190.6</ele>
        <time>2024-09-18T14:35:44Z</time>
      </trkpt>
      <trkpt lat="46.45721" lon="4.9074">
        <ele>190.6</ele>
        <time>2024-09-18T14:35:45Z</time>
      </trkpt>
      <trkpt lat="46.45716" lon="4.90733">
        <ele>189.8</ele>
        <time>2024-09-18T14:35:46Z</time>
      </trkpt>
      <trkpt lat="46.45714" lon="4.90731">
        <ele>189.8</ele>
        <time>2024-09-18T14:35:47Z</time>
      </trkpt>
      <trkpt lat="46.45709" lon="4.90723">
        <ele>189.8</ele>
        <time>2024-09-18T14:35:48Z</time>
      </trkpt>
      <trkpt lat="46.45708" lon="4.90721">
        <ele>189.8</ele>
        <time>2024-09-18T14:35:49Z</time>
      </trkpt>
      <trkpt lat="46.45704" lon="4.90716">
        <ele>190.4</ele>
        <time>2024-09-18T14:35:50Z</time>
      </trkpt>
      <trkpt lat="46.45701" lon="4.90711">
        <ele>190.4</ele>
        <time>2024-09-18T14:35:51Z</time>
      </trkpt>
      <trkpt lat="46.45696" lon="4.90703">
        <ele>190.4</ele>
        <time>2024-09-18T14:35:52Z</time>
      </trkpt>
      <trkpt lat="46.45695" lon="4.907">
        <ele>190.4</ele>
        <time>2024-09-18T14:35:53Z</time>
      </trkpt>
      <trkpt lat="46.4569" lon="4.90692">
        <ele>190.4</ele>
        <time>2024-09-18T14:35:54Z</time>
      </trkpt>
      <trkpt lat="46.45689" lon="4.90689">
        <ele>190.4</ele>
        <time>2024-09-18T14:35:55Z</time>
      </trkpt>
      <trkpt lat="46.45684" lon="4.9068">
        <ele>190.4</ele>
        <time>2024-09-18T14:35:56Z</time>
      </trkpt>
      <trkpt lat="46.45683" lon="4.90677">
        <ele>190.4</ele>
        <time>2024-09-18T14:35:57Z</time>
      </trkpt>
      <trkpt lat="46.45678" lon="4.90669">
        <ele>190.4</ele>
        <time>2024-09-18T14:35:58Z</time>
      </trkpt>
      <trkpt lat="46.45677" lon="4.90666">
        <ele>190.2</ele>
        <time>2024-09-18T14:35:59Z</time>
      </trkpt>
      <trkpt lat="46.45672" lon="4.90657">
        <ele>190.4</ele>
        <time>2024-09-18T14:36:00Z</time>
      </trkpt>
      <trkpt lat="46.45671" lon="4.90654">
        <ele>190.4</ele>
        <time>2024-09-18T14:36:01Z</time>
      </trkpt>
      <trkpt lat="46.45667" lon="4.90648">
        <ele>190.4</ele>
        <time>2024-09-18T14:36:02Z</time>
      </trkpt>
      <trkpt lat="46.45664" lon="4.90642">
        <ele>190.4</ele>
        <time>2024-09-18T14:36:03Z</time>
      </trkpt>
      <trkpt lat="46.45661" lon="4.90636">
        <ele>190</ele>
        <time>2024-09-18T14:36:04Z</time>
      </trkpt>
      <trkpt lat="46.45658" lon="4.9063">
        <ele>190</ele>
        <time>2024-09-18T14:36:05Z</time>
      </trkpt>
      <trkpt lat="46.45655" lon="4.90624">
        <ele>190</ele>
        <time>2024-09-18T14:36:06Z</time>
      </trkpt>
      <trkpt lat="46.45651" lon="4.90617">
        <ele>190</ele>
        <time>2024-09-18T14:36:07Z</time>
      </trkpt>
      <trkpt lat="46.45649" lon="4.90611">
        <ele>190</ele>
        <time>2024-09-18T14:36:08Z</time>
      </trkpt>
      <trkpt lat="46.45646" lon="4.90605">
        <ele>190.4</ele>
        <time>2024-09-18T14:36:09Z</time>
      </trkpt>
      <trkpt lat="46.45643" lon="4.90599">
        <ele>190.4</ele>
        <time>2024-09-18T14:36:10Z</time>
      </trkpt>
      <trkpt lat="46.4564" lon="4.90593">
        <ele>190.4</ele>
        <time>2024-09-18T14:36:11Z</time>
      </trkpt>
      <trkpt lat="46.45637" lon="4.90588">
        <ele>190.4</ele>
        <time>2024-09-18T14:36:12Z</time>
      </trkpt>
      <trkpt lat="46.45634" lon="4.90582">
        <ele>190.4</ele>
        <time>2024-09-18T14:36:13Z</time>
      </trkpt>
      <trkpt lat="46.45631" lon="4.90577">
        <ele>190.2</ele>
        <time>2024-09-18T14:36:14Z</time>
      </trkpt>
      <trkpt lat="46.45628" lon="4.90571">
        <ele>190.2</ele>
        <time>2024-09-18T14:36:15Z</time>
      </trkpt>
      <trkpt lat="46.45625" lon="4.90565">
        <ele>190.2</ele>
        <time>2024-09-18T14:36:16Z</time>
      </trkpt>
      <trkpt lat="46.45622" lon="4.9056">
        <ele>190.2</ele>
        <time>2024-09-18T14:36:17Z</time>
      </trkpt>
      <trkpt lat="46.4562" lon="4.90554">
        <ele>190</ele>
        <time>2024-09-18T14:36:18Z</time>
      </trkpt>
      <trkpt lat="46.45617" lon="4.90549">
        <ele>190</ele>
        <time>2024-09-18T14:36:19Z</time>
      </trkpt>
      <trkpt lat="46.45612" lon="4.90541">
        <ele>190</ele>
        <time>2024-09-18T14:36:20Z</time>
      </trkpt>
      <trkpt lat="46.4561" lon="4.90539">
        <ele>190</ele>
        <time>2024-09-18T14:36:21Z</time>
      </trkpt>
      <trkpt lat="46.45607" lon="4.90533">
        <ele>190</ele>
        <time>2024-09-18T14:36:22Z</time>
      </trkpt>
      <trkpt lat="46.45604" lon="4.90528">
        <ele>190.2</ele>
        <time>2024-09-18T14:36:23Z</time>
      </trkpt>
      <trkpt lat="46.45599" lon="4.90519">
        <ele>190.2</ele>
        <time>2024-09-18T14:36:24Z</time>
      </trkpt>
      <trkpt lat="46.45598" lon="4.90517">
        <ele>190.2</ele>
        <time>2024-09-18T14:36:25Z</time>
      </trkpt>
      <trkpt lat="46.45595" lon="4.90511">
        <ele>190</ele>
        <time>2024-09-18T14:36:26Z</time>
      </trkpt>
      <trkpt lat="46.45592" lon="4.90506">
        <ele>191.2</ele>
        <time>2024-09-18T14:36:27Z</time>
      </trkpt>
      <trkpt lat="46.45589" lon="4.905">
        <ele>191.2</ele>
        <time>2024-09-18T14:36:28Z</time>
      </trkpt>
      <trkpt lat="46.45586" lon="4.90495">
        <ele>191.2</ele>
        <time>2024-09-18T14:36:29Z</time>
      </trkpt>
      <trkpt lat="46.45582" lon="4.90487">
        <ele>190.4</ele>
        <time>2024-09-18T14:36:30Z</time>
      </trkpt>
      <trkpt lat="46.45581" lon="4.90485">
        <ele>190.4</ele>
        <time>2024-09-18T14:36:31Z</time>
      </trkpt>
      <trkpt lat="46.45577" lon="4.90476">
        <ele>190.2</ele>
        <time>2024-09-18T14:36:32Z</time>
      </trkpt>
      <trkpt lat="46.45576" lon="4.90474">
        <ele>190.2</ele>
        <time>2024-09-18T14:36:33Z</time>
      </trkpt>
      <trkpt lat="46.45573" lon="4.90468">
        <ele>190.2</ele>
        <time>2024-09-18T14:36:34Z</time>
      </trkpt>
      <trkpt lat="46.4557" lon="4.90463">
        <ele>189.8</ele>
        <time>2024-09-18T14:36:35Z</time>
      </trkpt>
      <trkpt lat="46.45566" lon="4.90455">
        <ele>190.4</ele>
        <time>2024-09-18T14:36:36Z</time>
      </trkpt>
      <trkpt lat="46.45565" lon="4.90453">
        <ele>190.4</ele>
        <time>2024-09-18T14:36:37Z</time>
      </trkpt>
      <trkpt lat="46.45561" lon="4.90445">
        <ele>190.4</ele>
        <time>2024-09-18T14:36:38Z</time>
      </trkpt>
      <trkpt lat="46.4556" lon="4.90442">
        <ele>190</ele>
        <time>2024-09-18T14:36:39Z</time>
      </trkpt>
      <trkpt lat="46.45555" lon="4.90435">
        <ele>190</ele>
        <time>2024-09-18T14:36:40Z</time>
      </trkpt>
      <trkpt lat="46.45554" lon="4.90432">
        <ele>190</ele>
        <time>2024-09-18T14:36:41Z</time>
      </trkpt>
      <trkpt lat="46.4555" lon="4.90424">
        <ele>190</ele>
        <time>2024-09-18T14:36:42Z</time>
      </trkpt>
      <trkpt lat="46.45548" lon="4.90422">
        <ele>190</ele>
        <time>2024-09-18T14:36:43Z</time>
      </trkpt>
      <trkpt lat="46.45545" lon="4.90416">
        <ele>190</ele>
        <time>2024-09-18T14:36:44Z</time>
      </trkpt>
      <trkpt lat="46.45542" lon="4.9041">
        <ele>190</ele>
        <time>2024-09-18T14:36:45Z</time>
      </trkpt>
      <trkpt lat="46.45539" lon="4.90404">
        <ele>190.4</ele>
        <time>2024-09-18T14:36:46Z</time>
      </trkpt>
      <trkpt lat="46.45536" lon="4.90398">
        <ele>190.4</ele>
        <time>2024-09-18T14:36:47Z</time>
      </trkpt>
      <trkpt lat="46.45533" lon="4.90392">
        <ele>190.2</ele>
        <time>2024-09-18T14:36:48Z</time>
      </trkpt>
      <trkpt lat="46.45531" lon="4.90387">
        <ele>190.2</ele>
        <time>2024-09-18T14:36:49Z</time>
      </trkpt>
      <trkpt lat="46.45528" lon="4.90381">
        <ele>190.2</ele>
        <time>2024-09-18T14:36:50Z</time>
      </trkpt>
      <trkpt lat="46.45525" lon="4.90375">
        <ele>190.2</ele>
        <time>2024-09-18T14:36:51Z</time>
      </trkpt>
      <trkpt lat="46.45522" lon="4.9037">
        <ele>190.2</ele>
        <time>2024-09-18T14:36:52Z</time>
      </trkpt>
      <trkpt lat="46.45519" lon="4.90364">
        <ele>190.2</ele>
        <time>2024-09-18T14:36:53Z</time>
      </trkpt>
      <trkpt lat="46.45516" lon="4.90358">
        <ele>190.4</ele>
        <time>2024-09-18T14:36:54Z</time>
      </trkpt>
      <trkpt lat="46.45513" lon="4.90353">
        <ele>190.4</ele>
        <time>2024-09-18T14:36:55Z</time>
      </trkpt>
      <trkpt lat="46.4551" lon="4.90347">
        <ele>190.4</ele>
        <time>2024-09-18T14:36:56Z</time>
      </trkpt>
      <trkpt lat="46.45507" lon="4.90341">
        <ele>190.4</ele>
        <time>2024-09-18T14:36:57Z</time>
      </trkpt>
      <trkpt lat="46.45503" lon="4.90335">
        <ele>190.4</ele>
        <time>2024-09-18T14:36:58Z</time>
      </trkpt>
      <trkpt lat="46.455" lon="4.90329">
        <ele>189.2</ele>
        <time>2024-09-18T14:36:59Z</time>
      </trkpt>
      <trkpt lat="46.45498" lon="4.90323">
        <ele>189.2</ele>
        <time>2024-09-18T14:37:00Z</time>
      </trkpt>
      <trkpt lat="46.45494" lon="4.90317">
        <ele>189.2</ele>
        <time>2024-09-18T14:37:01Z</time>
      </trkpt>
      <trkpt lat="46.45489" lon="4.9031">
        <ele>190.2</ele>
        <time>2024-09-18T14:37:02Z</time>
      </trkpt>
      <trkpt lat="46.45487" lon="4.90308">
        <ele>190</ele>
        <time>2024-09-18T14:37:03Z</time>
      </trkpt>
      <trkpt lat="46.45482" lon="4.903">
        <ele>190</ele>
        <time>2024-09-18T14:37:04Z</time>
      </trkpt>
      <trkpt lat="46.4548" lon="4.90298">
        <ele>190</ele>
        <time>2024-09-18T14:37:05Z</time>
      </trkpt>
      <trkpt lat="46.45475" lon="4.9029">
        <ele>190</ele>
        <time>2024-09-18T14:37:06Z</time>
      </trkpt>
      <trkpt lat="46.45473" lon="4.90288">
        <ele>190.2</ele>
        <time>2024-09-18T14:37:07Z</time>
      </trkpt>
      <trkpt lat="46.45468" lon="4.90281">
        <ele>190.2</ele>
        <time>2024-09-18T14:37:08Z</time>
      </trkpt>
      <trkpt lat="46.45466" lon="4.90279">
        <ele>190.2</ele>
        <time>2024-09-18T14:37:09Z</time>
      </trkpt>
      <trkpt lat="46.4546" lon="4.90272">
        <ele>190.2</ele>
        <time>2024-09-18T14:37:10Z</time>
      </trkpt>
      <trkpt lat="46.45459" lon="4.9027">
        <ele>190.2</ele>
        <time>2024-09-18T14:37:11Z</time>
      </trkpt>
      <trkpt lat="46.45453" lon="4.90262">
        <ele>189.8</ele>
        <time>2024-09-18T14:37:12Z</time>
      </trkpt>
      <trkpt lat="46.45452" lon="4.9026">
        <ele>189.8</ele>
        <time>2024-09-18T14:37:13Z</time>
      </trkpt>
      <trkpt lat="46.45446" lon="4.90253">
        <ele>189.8</ele>
        <time>2024-09-18T14:37:14Z</time>
      </trkpt>
      <trkpt lat="46.45445" lon="4.9025">
        <ele>189.8</ele>
        <time>2024-09-18T14:37:15Z</time>
      </trkpt>
      <trkpt lat="46.45439" lon="4.90244">
        <ele>190</ele>
        <time>2024-09-18T14:37:16Z</time>
      </trkpt>
      <trkpt lat="46.45437" lon="4.90241">
        <ele>190</ele>
        <time>2024-09-18T14:37:17Z</time>
      </trkpt>
      <trkpt lat="46.45432" lon="4.90234">
        <ele>190</ele>
        <time>2024-09-18T14:37:18Z</time>
      </trkpt>
      <trkpt lat="46.4543" lon="4.90232">
        <ele>190</ele>
        <time>2024-09-18T14:37:19Z</time>
      </trkpt>
      <trkpt lat="46.45426" lon="4.90227">
        <ele>190</ele>
        <time>2024-09-18T14:37:20Z</time>
      </trkpt>
      <trkpt lat="46.45422" lon="4.90223">
        <ele>190</ele>
        <time>2024-09-18T14:37:21Z</time>
      </trkpt>
      <trkpt lat="46.45419" lon="4.90218">
        <ele>190</ele>
        <time>2024-09-18T14:37:22Z</time>
      </trkpt>
      <trkpt lat="46.45415" lon="4.90213">
        <ele>190</ele>
        <time>2024-09-18T14:37:23Z</time>
      </trkpt>
      <trkpt lat="46.45411" lon="4.90208">
        <ele>190</ele>
        <time>2024-09-18T14:37:24Z</time>
      </trkpt>
      <trkpt lat="46.45408" lon="4.90204">
        <ele>190</ele>
        <time>2024-09-18T14:37:25Z</time>
      </trkpt>
      <trkpt lat="46.45404" lon="4.90199">
        <ele>190</ele>
        <time>2024-09-18T14:37:26Z</time>
      </trkpt>
      <trkpt lat="46.454" lon="4.90194">
        <ele>190</ele>
        <time>2024-09-18T14:37:27Z</time>
      </trkpt>
      <trkpt lat="46.45397" lon="4.90188">
        <ele>190</ele>
        <time>2024-09-18T14:37:28Z</time>
      </trkpt>
      <trkpt lat="46.45394" lon="4.90183">
        <ele>190</ele>
        <time>2024-09-18T14:37:29Z</time>
      </trkpt>
      <trkpt lat="46.4539" lon="4.90178">
        <ele>190</ele>
        <time>2024-09-18T14:37:30Z</time>
      </trkpt>
      <trkpt lat="46.45387" lon="4.90173">
        <ele>190</ele>
        <time>2024-09-18T14:37:31Z</time>
      </trkpt>
      <trkpt lat="46.45383" lon="4.90168">
        <ele>190</ele>
        <time>2024-09-18T14:37:32Z</time>
      </trkpt>
      <trkpt lat="46.4538" lon="4.90163">
        <ele>190</ele>
        <time>2024-09-18T14:37:33Z</time>
      </trkpt>
      <trkpt lat="46.45377" lon="4.90158">
        <ele>189.8</ele>
        <time>2024-09-18T14:37:34Z</time>
      </trkpt>
      <trkpt lat="46.45373" lon="4.90153">
        <ele>190</ele>
        <time>2024-09-18T14:37:35Z</time>
      </trkpt>
      <trkpt lat="46.4537" lon="4.90147">
        <ele>190</ele>
        <time>2024-09-18T14:37:36Z</time>
      </trkpt>
      <trkpt lat="46.45366" lon="4.90142">
        <ele>190</ele>
        <time>2024-09-18T14:37:37Z</time>
      </trkpt>
      <trkpt lat="46.45363" lon="4.90137">
        <ele>189.8</ele>
        <time>2024-09-18T14:37:38Z</time>
      </trkpt>
      <trkpt lat="46.45359" lon="4.90132">
        <ele>190.4</ele>
        <time>2024-09-18T14:37:39Z</time>
      </trkpt>
      <trkpt lat="46.45356" lon="4.90126">
        <ele>190.4</ele>
        <time>2024-09-18T14:37:40Z</time>
      </trkpt>
      <trkpt lat="46.45352" lon="4.90121">
        <ele>190.4</ele>
        <time>2024-09-18T14:37:41Z</time>
      </trkpt>
      <trkpt lat="46.45349" lon="4.90116">
        <ele>190.4</ele>
        <time>2024-09-18T14:37:42Z</time>
      </trkpt>
      <trkpt lat="46.45345" lon="4.90111">
        <ele>189.4</ele>
        <time>2024-09-18T14:37:43Z</time>
      </trkpt>
      <trkpt lat="46.45341" lon="4.90106">
        <ele>190.4</ele>
        <time>2024-09-18T14:37:44Z</time>
      </trkpt>
      <trkpt lat="46.45336" lon="4.90099">
        <ele>190.4</ele>
        <time>2024-09-18T14:37:45Z</time>
      </trkpt>
      <trkpt lat="46.45334" lon="4.90096">
        <ele>190.4</ele>
        <time>2024-09-18T14:37:46Z</time>
      </trkpt>
      <trkpt lat="46.45328" lon="4.90089">
        <ele>189.4</ele>
        <time>2024-09-18T14:37:47Z</time>
      </trkpt>
      <trkpt lat="46.45326" lon="4.90087">
        <ele>189.8</ele>
        <time>2024-09-18T14:37:48Z</time>
      </trkpt>
      <trkpt lat="46.4532" lon="4.90079">
        <ele>189.8</ele>
        <time>2024-09-18T14:37:49Z</time>
      </trkpt>
      <trkpt lat="46.45319" lon="4.90077">
        <ele>189.8</ele>
        <time>2024-09-18T14:37:50Z</time>
      </trkpt>
      <trkpt lat="46.45313" lon="4.9007">
        <ele>189.4</ele>
        <time>2024-09-18T14:37:51Z</time>
      </trkpt>
      <trkpt lat="46.45311" lon="4.90067">
        <ele>189.4</ele>
        <time>2024-09-18T14:37:52Z</time>
      </trkpt>
      <trkpt lat="46.45306" lon="4.90059">
        <ele>190</ele>
        <time>2024-09-18T14:37:53Z</time>
      </trkpt>
      <trkpt lat="46.45304" lon="4.90057">
        <ele>190</ele>
        <time>2024-09-18T14:37:54Z</time>
      </trkpt>
      <trkpt lat="46.45298" lon="4.90049">
        <ele>190</ele>
        <time>2024-09-18T14:37:55Z</time>
      </trkpt>
      <trkpt lat="46.45297" lon="4.90046">
        <ele>189.6</ele>
        <time>2024-09-18T14:37:56Z</time>
      </trkpt>
      <trkpt lat="46.45291" lon="4.90039">
        <ele>189.2</ele>
        <time>2024-09-18T14:37:57Z</time>
      </trkpt>
      <trkpt lat="46.45289" lon="4.90037">
        <ele>189.2</ele>
        <time>2024-09-18T14:37:58Z</time>
      </trkpt>
      <trkpt lat="46.45284" lon="4.90029">
        <ele>189.2</ele>
        <time>2024-09-18T14:37:59Z</time>
      </trkpt>
      <trkpt lat="46.45282" lon="4.90027">
        <ele>189.4</ele>
        <time>2024-09-18T14:38:00Z</time>
      </trkpt>
      <trkpt lat="46.45276" lon="4.90019">
        <ele>189.8</ele>
        <time>2024-09-18T14:38:01Z</time>
      </trkpt>
      <trkpt lat="46.45274" lon="4.90016">
        <ele>189.8</ele>
        <time>2024-09-18T14:38:02Z</time>
      </trkpt>
      <trkpt lat="46.45271" lon="4.90011">
        <ele>189.8</ele>
        <time>2024-09-18T14:38:03Z</time>
      </trkpt>
      <trkpt lat="46.45267" lon="4.90005">
        <ele>189.8</ele>
        <time>2024-09-18T14:38:04Z</time>
      </trkpt>
      <trkpt lat="46.45264" lon="4.9">
        <ele>189.8</ele>
        <time>2024-09-18T14:38:05Z</time>
      </trkpt>
      <trkpt lat="46.4526" lon="4.89995">
        <ele>189.4</ele>
        <time>2024-09-18T14:38:06Z</time>
      </trkpt>
      <trkpt lat="46.45257" lon="4.8999">
        <ele>189.4</ele>
        <time>2024-09-18T14:38:07Z</time>
      </trkpt>
      <trkpt lat="46.45253" lon="4.89986">
        <ele>189.4</ele>
        <time>2024-09-18T14:38:08Z</time>
      </trkpt>
      <trkpt lat="46.4525" lon="4.89982">
        <ele>189.4</ele>
        <time>2024-09-18T14:38:09Z</time>
      </trkpt>
      <trkpt lat="46.45248" lon="4.89977">
        <ele>189.4</ele>
        <time>2024-09-18T14:38:10Z</time>
      </trkpt>
      <trkpt lat="46.45245" lon="4.89973">
        <ele>189.4</ele>
        <time>2024-09-18T14:38:11Z</time>
      </trkpt>
      <trkpt lat="46.45242" lon="4.89969">
        <ele>189.4</ele>
        <time>2024-09-18T14:38:12Z</time>
      </trkpt>
      <trkpt lat="46.45239" lon="4.89965">
        <ele>189.4</ele>
        <time>2024-09-18T14:38:13Z</time>
      </trkpt>
      <trkpt lat="46.45236" lon="4.89961">
        <ele>189.6</ele>
        <time>2024-09-18T14:38:14Z</time>
      </trkpt>
      <trkpt lat="46.45234" lon="4.89957">
        <ele>189.6</ele>
        <time>2024-09-18T14:38:15Z</time>
      </trkpt>
      <trkpt lat="46.45231" lon="4.89954">
        <ele>189.8</ele>
        <time>2024-09-18T14:38:16Z</time>
      </trkpt>
      <trkpt lat="46.45229" lon="4.8995">
        <ele>189.8</ele>
        <time>2024-09-18T14:38:17Z</time>
      </trkpt>
      <trkpt lat="46.45227" lon="4.89946">
        <ele>189.8</ele>
        <time>2024-09-18T14:38:18Z</time>
      </trkpt>
      <trkpt lat="46.45225" lon="4.89943">
        <ele>189.8</ele>
        <time>2024-09-18T14:38:19Z</time>
      </trkpt>
      <trkpt lat="46.45222" lon="4.89939">
        <ele>189.8</ele>
        <time>2024-09-18T14:38:20Z</time>
      </trkpt>
      <trkpt lat="46.4522" lon="4.89935">
        <ele>189.8</ele>
        <time>2024-09-18T14:38:21Z</time>
      </trkpt>
      <trkpt lat="46.45218" lon="4.89932">
        <ele>189.8</ele>
        <time>2024-09-18T14:38:22Z</time>
      </trkpt>
      <trkpt lat="46.45217" lon="4.89928">
        <ele>189.4</ele>
        <time>2024-09-18T14:38:23Z</time>
      </trkpt>
      <trkpt lat="46.45215" lon="4.89925">
        <ele>189.4</ele>
        <time>2024-09-18T14:38:24Z</time>
      </trkpt>
      <trkpt lat="46.45213" lon="4.89922">
        <ele>189.2</ele>
        <time>2024-09-18T14:38:25Z</time>
      </trkpt>
      <trkpt lat="46.4521" lon="4.89918">
        <ele>189.2</ele>
        <time>2024-09-18T14:38:26Z</time>
      </trkpt>
      <trkpt lat="46.4521" lon="4.89916">
        <ele>189.4</ele>
        <time>2024-09-18T14:38:27Z</time>
      </trkpt>
      <trkpt lat="46.45207" lon="4.89912">
        <ele>189.4</ele>
        <time>2024-09-18T14:38:28Z</time>
      </trkpt>
      <trkpt lat="46.45206" lon="4.8991">
        <ele>189.4</ele>
        <time>2024-09-18T14:38:29Z</time>
      </trkpt>
      <trkpt lat="46.45204" lon="4.89905">
        <ele>189.4</ele>
        <time>2024-09-18T14:38:30Z</time>
      </trkpt>
      <trkpt lat="46.45203" lon="4.89904">
        <ele>189.4</ele>
        <time>2024-09-18T14:38:31Z</time>
      </trkpt>
      <trkpt lat="46.452" lon="4.899">
        <ele>189.4</ele>
        <time>2024-09-18T14:38:32Z</time>
      </trkpt>
      <trkpt lat="46.45199" lon="4.89899">
        <ele>189.4</ele>
        <time>2024-09-18T14:38:33Z</time>
      </trkpt>
      <trkpt lat="46.45197" lon="4.89894">
        <ele>189.4</ele>
        <time>2024-09-18T14:38:34Z</time>
      </trkpt>
      <trkpt lat="46.45196" lon="4.89892">
        <ele>189.4</ele>
        <time>2024-09-18T14:38:35Z</time>
      </trkpt>
      <trkpt lat="46.45192" lon="4.89886">
        <ele>189.4</ele>
        <time>2024-09-18T14:38:36Z</time>
      </trkpt>
      <trkpt lat="46.45191" lon="4.89884">
        <ele>189.4</ele>
        <time>2024-09-18T14:38:37Z</time>
      </trkpt>
      <trkpt lat="46.45187" lon="4.89877">
        <ele>189.2</ele>
        <time>2024-09-18T14:38:38Z</time>
      </trkpt>
      <trkpt lat="46.45186" lon="4.89874">
        <ele>189.2</ele>
        <time>2024-09-18T14:38:39Z</time>
      </trkpt>
      <trkpt lat="46.45182" lon="4.89867">
        <ele>189.2</ele>
        <time>2024-09-18T14:38:40Z</time>
      </trkpt>
      <trkpt lat="46.4518" lon="4.89864">
        <ele>189.2</ele>
        <time>2024-09-18T14:38:41Z</time>
      </trkpt>
      <trkpt lat="46.45176" lon="4.89856">
        <ele>189.2</ele>
        <time>2024-09-18T14:38:42Z</time>
      </trkpt>
      <trkpt lat="46.45174" lon="4.89854">
        <ele>189.2</ele>
        <time>2024-09-18T14:38:43Z</time>
      </trkpt>
      <trkpt lat="46.4517" lon="4.89846">
        <ele>189.2</ele>
        <time>2024-09-18T14:38:44Z</time>
      </trkpt>
      <trkpt lat="46.45168" lon="4.89843">
        <ele>189.2</ele>
        <time>2024-09-18T14:38:45Z</time>
      </trkpt>
      <trkpt lat="46.45165" lon="4.89839">
        <ele>190.2</ele>
        <time>2024-09-18T14:38:46Z</time>
      </trkpt>
      <trkpt lat="46.45162" lon="4.89834">
        <ele>190.2</ele>
        <time>2024-09-18T14:38:47Z</time>
      </trkpt>
      <trkpt lat="46.45159" lon="4.8983">
        <ele>190.2</ele>
        <time>2024-09-18T14:38:48Z</time>
      </trkpt>
      <trkpt lat="46.45156" lon="4.89825">
        <ele>189.2</ele>
        <time>2024-09-18T14:38:49Z</time>
      </trkpt>
      <trkpt lat="46.45153" lon="4.89821">
        <ele>189.2</ele>
        <time>2024-09-18T14:38:50Z</time>
      </trkpt>
      <trkpt lat="46.45151" lon="4.89816">
        <ele>188.8</ele>
        <time>2024-09-18T14:38:51Z</time>
      </trkpt>
      <trkpt lat="46.45148" lon="4.89811">
        <ele>188.8</ele>
        <time>2024-09-18T14:38:52Z</time>
      </trkpt>
      <trkpt lat="46.45145" lon="4.89806">
        <ele>188.8</ele>
        <time>2024-09-18T14:38:53Z</time>
      </trkpt>
      <trkpt lat="46.45142" lon="4.89801">
        <ele>188.8</ele>
        <time>2024-09-18T14:38:54Z</time>
      </trkpt>
      <trkpt lat="46.45139" lon="4.89795">
        <ele>189.6</ele>
        <time>2024-09-18T14:38:55Z</time>
      </trkpt>
      <trkpt lat="46.45136" lon="4.8979">
        <ele>189.6</ele>
        <time>2024-09-18T14:38:56Z</time>
      </trkpt>
      <trkpt lat="46.45133" lon="4.89786">
        <ele>189.6</ele>
        <time>2024-09-18T14:38:57Z</time>
      </trkpt>
      <trkpt lat="46.45129" lon="4.89781">
        <ele>189.6</ele>
        <time>2024-09-18T14:38:58Z</time>
      </trkpt>
      <trkpt lat="46.45126" lon="4.89777">
        <ele>189.6</ele>
        <time>2024-09-18T14:38:59Z</time>
      </trkpt>
      <trkpt lat="46.45123" lon="4.89773">
        <ele>189.8</ele>
        <time>2024-09-18T14:39:00Z</time>
      </trkpt>
      <trkpt lat="46.45119" lon="4.89768">
        <ele>189.8</ele>
        <time>2024-09-18T14:39:01Z</time>
      </trkpt>
      <trkpt lat="46.45116" lon="4.89764">
        <ele>189.8</ele>
        <time>2024-09-18T14:39:02Z</time>
      </trkpt>
      <trkpt lat="46.45113" lon="4.8976">
        <ele>189.8</ele>
        <time>2024-09-18T14:39:03Z</time>
      </trkpt>
      <trkpt lat="46.45109" lon="4.89756">
        <ele>189.2</ele>
        <time>2024-09-18T14:39:04Z</time>
      </trkpt>
      <trkpt lat="46.45106" lon="4.89752">
        <ele>189.2</ele>
        <time>2024-09-18T14:39:05Z</time>
      </trkpt>
      <trkpt lat="46.45102" lon="4.89748">
        <ele>189.4</ele>
        <time>2024-09-18T14:39:06Z</time>
      </trkpt>
      <trkpt lat="46.45099" lon="4.89744">
        <ele>189.4</ele>
        <time>2024-09-18T14:39:07Z</time>
      </trkpt>
      <trkpt lat="46.45096" lon="4.8974">
        <ele>189.4</ele>
        <time>2024-09-18T14:39:08Z</time>
      </trkpt>
      <trkpt lat="46.45091" lon="4.89734">
        <ele>189.4</ele>
        <time>2024-09-18T14:39:09Z</time>
      </trkpt>
      <trkpt lat="46.45089" lon="4.89732">
        <ele>189</ele>
        <time>2024-09-18T14:39:10Z</time>
      </trkpt>
      <trkpt lat="46.45084" lon="4.89726">
        <ele>189</ele>
        <time>2024-09-18T14:39:11Z</time>
      </trkpt>
      <trkpt lat="46.45082" lon="4.89724">
        <ele>189</ele>
        <time>2024-09-18T14:39:12Z</time>
      </trkpt>
      <trkpt lat="46.45077" lon="4.89718">
        <ele>189</ele>
        <time>2024-09-18T14:39:13Z</time>
      </trkpt>
      <trkpt lat="46.45075" lon="4.89717">
        <ele>189.6</ele>
        <time>2024-09-18T14:39:14Z</time>
      </trkpt>
      <trkpt lat="46.45072" lon="4.89712">
        <ele>189.6</ele>
        <time>2024-09-18T14:39:15Z</time>
      </trkpt>
      <trkpt lat="46.45069" lon="4.89708">
        <ele>189.6</ele>
        <time>2024-09-18T14:39:16Z</time>
      </trkpt>
      <trkpt lat="46.45064" lon="4.89702">
        <ele>189.6</ele>
        <time>2024-09-18T14:39:17Z</time>
      </trkpt>
      <trkpt lat="46.45063" lon="4.897">
        <ele>189.6</ele>
        <time>2024-09-18T14:39:18Z</time>
      </trkpt>
      <trkpt lat="46.45058" lon="4.89694">
        <ele>189.8</ele>
        <time>2024-09-18T14:39:19Z</time>
      </trkpt>
      <trkpt lat="46.45057" lon="4.89692">
        <ele>189.8</ele>
        <time>2024-09-18T14:39:20Z</time>
      </trkpt>
      <trkpt lat="46.45052" lon="4.89687">
        <ele>189.8</ele>
        <time>2024-09-18T14:39:21Z</time>
      </trkpt>
      <trkpt lat="46.45051" lon="4.89685">
        <ele>189.8</ele>
        <time>2024-09-18T14:39:22Z</time>
      </trkpt>
      <trkpt lat="46.45046" lon="4.89681">
        <ele>189.4</ele>
        <time>2024-09-18T14:39:23Z</time>
      </trkpt>
      <trkpt lat="46.45045" lon="4.8968">
        <ele>189.4</ele>
        <time>2024-09-18T14:39:24Z</time>
      </trkpt>
      <trkpt lat="46.4504" lon="4.89675">
        <ele>189.4</ele>
        <time>2024-09-18T14:39:25Z</time>
      </trkpt>
      <trkpt lat="46.45038" lon="4.89673">
        <ele>189.8</ele>
        <time>2024-09-18T14:39:26Z</time>
      </trkpt>
      <trkpt lat="46.45035" lon="4.8967">
        <ele>189.8</ele>
        <time>2024-09-18T14:39:27Z</time>
      </trkpt>
      <trkpt lat="46.45032" lon="4.89666">
        <ele>189.8</ele>
        <time>2024-09-18T14:39:28Z</time>
      </trkpt>
      <trkpt lat="46.45028" lon="4.89663">
        <ele>189.8</ele>
        <time>2024-09-18T14:39:29Z</time>
      </trkpt>
      <trkpt lat="46.45024" lon="4.8966">
        <ele>189.8</ele>
        <time>2024-09-18T14:39:30Z</time>
      </trkpt>
      <trkpt lat="46.4502" lon="4.89657">
        <ele>189.8</ele>
        <time>2024-09-18T14:39:31Z</time>
      </trkpt>
      <trkpt lat="46.45017" lon="4.89653">
        <ele>190</ele>
        <time>2024-09-18T14:39:32Z</time>
      </trkpt>
      <trkpt lat="46.45014" lon="4.89649">
        <ele>190</ele>
        <time>2024-09-18T14:39:33Z</time>
      </trkpt>
      <trkpt lat="46.4501" lon="4.89644">
        <ele>190</ele>
        <time>2024-09-18T14:39:34Z</time>
      </trkpt>
      <trkpt lat="46.45007" lon="4.89639">
        <ele>189.8</ele>
        <time>2024-09-18T14:39:35Z</time>
      </trkpt>
      <trkpt lat="46.45003" lon="4.89635">
        <ele>189.8</ele>
        <time>2024-09-18T14:39:36Z</time>
      </trkpt>
      <trkpt lat="46.44999" lon="4.8963">
        <ele>189.6</ele>
        <time>2024-09-18T14:39:37Z</time>
      </trkpt>
      <trkpt lat="46.44995" lon="4.89626">
        <ele>189.6</ele>
        <time>2024-09-18T14:39:38Z</time>
      </trkpt>
      <trkpt lat="46.44991" lon="4.89622">
        <ele>189.6</ele>
        <time>2024-09-18T14:39:39Z</time>
      </trkpt>
      <trkpt lat="46.44984" lon="4.89616">
        <ele>189.6</ele>
        <time>2024-09-18T14:39:40Z</time>
      </trkpt>
      <trkpt lat="46.44982" lon="4.89614">
        <ele>189.8</ele>
        <time>2024-09-18T14:39:41Z</time>
      </trkpt>
      <trkpt lat="46.44978" lon="4.89609">
        <ele>189.8</ele>
        <time>2024-09-18T14:39:42Z</time>
      </trkpt>
      <trkpt lat="46.44974" lon="4.89605">
        <ele>189.8</ele>
        <time>2024-09-18T14:39:43Z</time>
      </trkpt>
      <trkpt lat="46.44969" lon="4.89601">
        <ele>189.8</ele>
        <time>2024-09-18T14:39:44Z</time>
      </trkpt>
      <trkpt lat="46.44964" lon="4.89597">
        <ele>189.8</ele>
        <time>2024-09-18T14:39:45Z</time>
      </trkpt>
      <trkpt lat="46.4496" lon="4.89593">
        <ele>189.6</ele>
        <time>2024-09-18T14:39:46Z</time>
      </trkpt>
      <trkpt lat="46.44955" lon="4.89589">
        <ele>189.6</ele>
        <time>2024-09-18T14:39:47Z</time>
      </trkpt>
      <trkpt lat="46.44951" lon="4.89585">
        <ele>189.6</ele>
        <time>2024-09-18T14:39:48Z</time>
      </trkpt>
      <trkpt lat="46.44946" lon="4.89581">
        <ele>189.8</ele>
        <time>2024-09-18T14:39:49Z</time>
      </trkpt>
      <trkpt lat="46.44939" lon="4.89575">
        <ele>189.8</ele>
        <time>2024-09-18T14:39:50Z</time>
      </trkpt>
      <trkpt lat="46.44937" lon="4.89573">
        <ele>189.6</ele>
        <time>2024-09-18T14:39:51Z</time>
      </trkpt>
      <trkpt lat="46.4493" lon="4.89567">
        <ele>189.6</ele>
        <time>2024-09-18T14:39:52Z</time>
      </trkpt>
      <trkpt lat="46.44928" lon="4.89565">
        <ele>189.8</ele>
        <time>2024-09-18T14:39:53Z</time>
      </trkpt>
      <trkpt lat="46.44921" lon="4.89559">
        <ele>189.8</ele>
        <time>2024-09-18T14:39:54Z</time>
      </trkpt>
      <trkpt lat="46.44919" lon="4.89557">
        <ele>189.8</ele>
        <time>2024-09-18T14:39:55Z</time>
      </trkpt>
      <trkpt lat="46.44914" lon="4.89553">
        <ele>189.8</ele>
        <time>2024-09-18T14:39:56Z</time>
      </trkpt>
      <trkpt lat="46.44909" lon="4.89549">
        <ele>189.6</ele>
        <time>2024-09-18T14:39:57Z</time>
      </trkpt>
      <trkpt lat="46.44905" lon="4.89545">
        <ele>189.8</ele>
        <time>2024-09-18T14:39:58Z</time>
      </trkpt>
      <trkpt lat="46.449" lon="4.89541">
        <ele>189.8</ele>
        <time>2024-09-18T14:39:59Z</time>
      </trkpt>
      <trkpt lat="46.44894" lon="4.89536">
        <ele>189.8</ele>
        <time>2024-09-18T14:40:00Z</time>
      </trkpt>
      <trkpt lat="46.44891" lon="4.89534">
        <ele>189.8</ele>
        <time>2024-09-18T14:40:01Z</time>
      </trkpt>
      <trkpt lat="46.44885" lon="4.89528">
        <ele>189.6</ele>
        <time>2024-09-18T14:40:02Z</time>
      </trkpt>
      <trkpt lat="46.44882" lon="4.89526">
        <ele>189.6</ele>
        <time>2024-09-18T14:40:03Z</time>
      </trkpt>
      <trkpt lat="46.44876" lon="4.8952">
        <ele>189.8</ele>
        <time>2024-09-18T14:40:04Z</time>
      </trkpt>
      <trkpt lat="46.44874" lon="4.89518">
        <ele>189.8</ele>
        <time>2024-09-18T14:40:05Z</time>
      </trkpt>
      <trkpt lat="46.44867" lon="4.89512">
        <ele>189.8</ele>
        <time>2024-09-18T14:40:06Z</time>
      </trkpt>
      <trkpt lat="46.44865" lon="4.8951">
        <ele>189.6</ele>
        <time>2024-09-18T14:40:07Z</time>
      </trkpt>
      <trkpt lat="46.44858" lon="4.89504">
        <ele>189.6</ele>
        <time>2024-09-18T14:40:08Z</time>
      </trkpt>
      <trkpt lat="46.44856" lon="4.89503">
        <ele>189.6</ele>
        <time>2024-09-18T14:40:09Z</time>
      </trkpt>
      <trkpt lat="46.44852" lon="4.89499">
        <ele>189.6</ele>
        <time>2024-09-18T14:40:10Z</time>
      </trkpt>
      <trkpt lat="46.44848" lon="4.89496">
        <ele>189.6</ele>
        <time>2024-09-18T14:40:11Z</time>
      </trkpt>
      <trkpt lat="46.44843" lon="4.89492">
        <ele>189.6</ele>
        <time>2024-09-18T14:40:12Z</time>
      </trkpt>
      <trkpt lat="46.44839" lon="4.89489">
        <ele>189.8</ele>
        <time>2024-09-18T14:40:13Z</time>
      </trkpt>
      <trkpt lat="46.44835" lon="4.89487">
        <ele>189.8</ele>
        <time>2024-09-18T14:40:14Z</time>
      </trkpt>
      <trkpt lat="46.44831" lon="4.89484">
        <ele>189.8</ele>
        <time>2024-09-18T14:40:15Z</time>
      </trkpt>
      <trkpt lat="46.44828" lon="4.89482">
        <ele>190.6</ele>
        <time>2024-09-18T14:40:16Z</time>
      </trkpt>
      <trkpt lat="46.44824" lon="4.8948">
        <ele>190.6</ele>
        <time>2024-09-18T14:40:17Z</time>
      </trkpt>
      <trkpt lat="46.44821" lon="4.8948">
        <ele>190.6</ele>
        <time>2024-09-18T14:40:18Z</time>
      </trkpt>
      <trkpt lat="46.44819" lon="4.89479">
        <ele>190.6</ele>
        <time>2024-09-18T14:40:19Z</time>
      </trkpt>
      <trkpt lat="46.44816" lon="4.89478">
        <ele>190.6</ele>
        <time>2024-09-18T14:40:20Z</time>
      </trkpt>
      <trkpt lat="46.44813" lon="4.89477">
        <ele>190.6</ele>
        <time>2024-09-18T14:40:21Z</time>
      </trkpt>
      <trkpt lat="46.44811" lon="4.89476">
        <ele>192</ele>
        <time>2024-09-18T14:40:22Z</time>
      </trkpt>
      <trkpt lat="46.44808" lon="4.89474">
        <ele>192</ele>
        <time>2024-09-18T14:40:23Z</time>
      </trkpt>
      <trkpt lat="46.44806" lon="4.89473">
        <ele>192</ele>
        <time>2024-09-18T14:40:24Z</time>
      </trkpt>
      <trkpt lat="46.44805" lon="4.89471">
        <ele>192.8</ele>
        <time>2024-09-18T14:40:25Z</time>
      </trkpt>
      <trkpt lat="46.44804" lon="4.89469">
        <ele>193</ele>
        <time>2024-09-18T14:40:26Z</time>
      </trkpt>
      <trkpt lat="46.44803" lon="4.89468">
        <ele>193</ele>
        <time>2024-09-18T14:40:27Z</time>
      </trkpt>
      <trkpt lat="46.44802" lon="4.89467">
        <ele>193</ele>
        <time>2024-09-18T14:40:28Z</time>
      </trkpt>
      <trkpt lat="46.44802" lon="4.89467">
        <ele>193.4</ele>
        <time>2024-09-18T14:40:29Z</time>
      </trkpt>
      <trkpt lat="46.44796" lon="4.89466">
        <ele>193.8</ele>
        <time>2024-09-18T14:40:37Z</time>
      </trkpt>
      <trkpt lat="46.44795" lon="4.89467">
        <ele>193.8</ele>
        <time>2024-09-18T14:40:38Z</time>
      </trkpt>
      <trkpt lat="46.44794" lon="4.89469">
        <ele>193.2</ele>
        <time>2024-09-18T14:40:39Z</time>
      </trkpt>
      <trkpt lat="46.44793" lon="4.89473">
        <ele>193.2</ele>
        <time>2024-09-18T14:40:40Z</time>
      </trkpt>
      <trkpt lat="46.44793" lon="4.89475">
        <ele>193.2</ele>
        <time>2024-09-18T14:40:41Z</time>
      </trkpt>
      <trkpt lat="46.44793" lon="4.89477">
        <ele>193.2</ele>
        <time>2024-09-18T14:40:42Z</time>
      </trkpt>
      <trkpt lat="46.44793" lon="4.89479">
        <ele>193.4</ele>
        <time>2024-09-18T14:40:43Z</time>
      </trkpt>
      <trkpt lat="46.44793" lon="4.89481">
        <ele>193.4</ele>
        <time>2024-09-18T14:40:44Z</time>
      </trkpt>
      <trkpt lat="46.44792" lon="4.89482">
        <ele>193.4</ele>
        <time>2024-09-18T14:40:45Z</time>
      </trkpt>
      <trkpt lat="46.44792" lon="4.89484">
        <ele>193.6</ele>
        <time>2024-09-18T14:41:03Z</time>
      </trkpt>
      <trkpt lat="46.44792" lon="4.89486">
        <ele>193.6</ele>
        <time>2024-09-18T14:41:04Z</time>
      </trkpt>
      <trkpt lat="46.44792" lon="4.89488">
        <ele>193.6</ele>
        <time>2024-09-18T14:41:05Z</time>
      </trkpt>
      <trkpt lat="46.44791" lon="4.89493">
        <ele>193.6</ele>
        <time>2024-09-18T14:41:06Z</time>
      </trkpt>
      <trkpt lat="46.44791" lon="4.89495">
        <ele>193.6</ele>
        <time>2024-09-18T14:41:07Z</time>
      </trkpt>
      <trkpt lat="46.4479" lon="4.89498">
        <ele>194</ele>
        <time>2024-09-18T14:41:08Z</time>
      </trkpt>
      <trkpt lat="46.4479" lon="4.89501">
        <ele>194.2</ele>
        <time>2024-09-18T14:41:09Z</time>
      </trkpt>
      <trkpt lat="46.44789" lon="4.89504">
        <ele>194.2</ele>
        <time>2024-09-18T14:41:10Z</time>
      </trkpt>
      <trkpt lat="46.44789" lon="4.89507">
        <ele>194.2</ele>
        <time>2024-09-18T14:41:11Z</time>
      </trkpt>
      <trkpt lat="46.44788" lon="4.89511">
        <ele>194.6</ele>
        <time>2024-09-18T14:41:12Z</time>
      </trkpt>
      <trkpt lat="46.44787" lon="4.89515">
        <ele>194.8</ele>
        <time>2024-09-18T14:41:13Z</time>
      </trkpt>
      <trkpt lat="46.44787" lon="4.89519">
        <ele>194.8</ele>
        <time>2024-09-18T14:41:14Z</time>
      </trkpt>
      <trkpt lat="46.44786" lon="4.89523">
        <ele>194.8</ele>
        <time>2024-09-18T14:41:15Z</time>
      </trkpt>
      <trkpt lat="46.44786" lon="4.89526">
        <ele>195.2</ele>
        <time>2024-09-18T14:41:16Z</time>
      </trkpt>
      <trkpt lat="46.44786" lon="4.8953">
        <ele>195.2</ele>
        <time>2024-09-18T14:41:17Z</time>
      </trkpt>
      <trkpt lat="46.44785" lon="4.89534">
        <ele>195.2</ele>
        <time>2024-09-18T14:41:18Z</time>
      </trkpt>
      <trkpt lat="46.44784" lon="4.89538">
        <ele>195.2</ele>
        <time>2024-09-18T14:41:19Z</time>
      </trkpt>
      <trkpt lat="46.44785" lon="4.89542">
        <ele>195.2</ele>
        <time>2024-09-18T14:41:20Z</time>
      </trkpt>
      <trkpt lat="46.44784" lon="4.89546">
        <ele>195.2</ele>
        <time>2024-09-18T14:41:21Z</time>
      </trkpt>
      <trkpt lat="46.44784" lon="4.8955">
        <ele>195.8</ele>
        <time>2024-09-18T14:41:22Z</time>
      </trkpt>
      <trkpt lat="46.44783" lon="4.89554">
        <ele>196.2</ele>
        <time>2024-09-18T14:41:23Z</time>
      </trkpt>
      <trkpt lat="46.44783" lon="4.89559">
        <ele>196.2</ele>
        <time>2024-09-18T14:41:24Z</time>
      </trkpt>
      <trkpt lat="46.44782" lon="4.89565">
        <ele>196.2</ele>
        <time>2024-09-18T14:41:25Z</time>
      </trkpt>
      <trkpt lat="46.44782" lon="4.89567">
        <ele>196.2</ele>
        <time>2024-09-18T14:41:26Z</time>
      </trkpt>
      <trkpt lat="46.44781" lon="4.89571">
        <ele>196.2</ele>
        <time>2024-09-18T14:41:27Z</time>
      </trkpt>
      <trkpt lat="46.44781" lon="4.89576">
        <ele>196.2</ele>
        <time>2024-09-18T14:41:28Z</time>
      </trkpt>
      <trkpt lat="46.4478" lon="4.8958">
        <ele>196.2</ele>
        <time>2024-09-18T14:41:29Z</time>
      </trkpt>
      <trkpt lat="46.4478" lon="4.89585">
        <ele>196.2</ele>
        <time>2024-09-18T14:41:30Z</time>
      </trkpt>
      <trkpt lat="46.44779" lon="4.8959">
        <ele>196.6</ele>
        <time>2024-09-18T14:41:31Z</time>
      </trkpt>
      <trkpt lat="46.44779" lon="4.89595">
        <ele>196.6</ele>
        <time>2024-09-18T14:41:32Z</time>
      </trkpt>
      <trkpt lat="46.44778" lon="4.89602">
        <ele>196.6</ele>
        <time>2024-09-18T14:41:33Z</time>
      </trkpt>
      <trkpt lat="46.44777" lon="4.89604">
        <ele>196.6</ele>
        <time>2024-09-18T14:41:34Z</time>
      </trkpt>
      <trkpt lat="46.44777" lon="4.89612">
        <ele>196.6</ele>
        <time>2024-09-18T14:41:35Z</time>
      </trkpt>
      <trkpt lat="46.44777" lon="4.89615">
        <ele>196.4</ele>
        <time>2024-09-18T14:41:36Z</time>
      </trkpt>
      <trkpt lat="46.44775" lon="4.89623">
        <ele>196.4</ele>
        <time>2024-09-18T14:41:37Z</time>
      </trkpt>
      <trkpt lat="46.44775" lon="4.89626">
        <ele>196.4</ele>
        <time>2024-09-18T14:41:38Z</time>
      </trkpt>
      <trkpt lat="46.44773" lon="4.89636">
        <ele>196.4</ele>
        <time>2024-09-18T14:41:39Z</time>
      </trkpt>
      <trkpt lat="46.44772" lon="4.89639">
        <ele>196.4</ele>
        <time>2024-09-18T14:41:40Z</time>
      </trkpt>
      <trkpt lat="46.4477" lon="4.89649">
        <ele>196.2</ele>
        <time>2024-09-18T14:41:41Z</time>
      </trkpt>
      <trkpt lat="46.4477" lon="4.89652">
        <ele>196.2</ele>
        <time>2024-09-18T14:41:42Z</time>
      </trkpt>
      <trkpt lat="46.44769" lon="4.89662">
        <ele>196.2</ele>
        <time>2024-09-18T14:41:43Z</time>
      </trkpt>
      <trkpt lat="46.44768" lon="4.89665">
        <ele>196.2</ele>
        <time>2024-09-18T14:41:44Z</time>
      </trkpt>
      <trkpt lat="46.44767" lon="4.89676">
        <ele>195.8</ele>
        <time>2024-09-18T14:41:45Z</time>
      </trkpt>
      <trkpt lat="46.44766" lon="4.8968">
        <ele>195.8</ele>
        <time>2024-09-18T14:41:46Z</time>
      </trkpt>
      <trkpt lat="46.44765" lon="4.89692">
        <ele>195.8</ele>
        <time>2024-09-18T14:41:47Z</time>
      </trkpt>
      <trkpt lat="46.44764" lon="4.89696">
        <ele>194.8</ele>
        <time>2024-09-18T14:41:48Z</time>
      </trkpt>
      <trkpt lat="46.44761" lon="4.89708">
        <ele>194.4</ele>
        <time>2024-09-18T14:41:49Z</time>
      </trkpt>
      <trkpt lat="46.44761" lon="4.89713">
        <ele>194.4</ele>
        <time>2024-09-18T14:41:50Z</time>
      </trkpt>
      <trkpt lat="46.44759" lon="4.89721">
        <ele>194.4</ele>
        <time>2024-09-18T14:41:51Z</time>
      </trkpt>
      <trkpt lat="46.44758" lon="4.8973">
        <ele>194.4</ele>
        <time>2024-09-18T14:41:52Z</time>
      </trkpt>
      <trkpt lat="46.44756" lon="4.8974">
        <ele>194.4</ele>
        <time>2024-09-18T14:41:53Z</time>
      </trkpt>
      <trkpt lat="46.44754" lon="4.89749">
        <ele>193.6</ele>
        <time>2024-09-18T14:41:54Z</time>
      </trkpt>
      <trkpt lat="46.44753" lon="4.89758">
        <ele>193.6</ele>
        <time>2024-09-18T14:41:55Z</time>
      </trkpt>
      <trkpt lat="46.44751" lon="4.89767">
        <ele>193.6</ele>
        <time>2024-09-18T14:41:56Z</time>
      </trkpt>
      <trkpt lat="46.4475" lon="4.89777">
        <ele>193.6</ele>
        <time>2024-09-18T14:41:57Z</time>
      </trkpt>
      <trkpt lat="46.44748" lon="4.89786">
        <ele>192.6</ele>
        <time>2024-09-18T14:41:58Z</time>
      </trkpt>
      <trkpt lat="46.44746" lon="4.89795">
        <ele>192.6</ele>
        <time>2024-09-18T14:41:59Z</time>
      </trkpt>
      <trkpt lat="46.44745" lon="4.89804">
        <ele>192.6</ele>
        <time>2024-09-18T14:42:00Z</time>
      </trkpt>
      <trkpt lat="46.44744" lon="4.89813">
        <ele>192.6</ele>
        <time>2024-09-18T14:42:01Z</time>
      </trkpt>
      <trkpt lat="46.44742" lon="4.89821">
        <ele>192.6</ele>
        <time>2024-09-18T14:42:02Z</time>
      </trkpt>
      <trkpt lat="46.4474" lon="4.8983">
        <ele>192.6</ele>
        <time>2024-09-18T14:42:03Z</time>
      </trkpt>
      <trkpt lat="46.44739" lon="4.89838">
        <ele>192.6</ele>
        <time>2024-09-18T14:42:04Z</time>
      </trkpt>
      <trkpt lat="46.44738" lon="4.89847">
        <ele>192.6</ele>
        <time>2024-09-18T14:42:05Z</time>
      </trkpt>
      <trkpt lat="46.44736" lon="4.89855">
        <ele>192.6</ele>
        <time>2024-09-18T14:42:06Z</time>
      </trkpt>
      <trkpt lat="46.44735" lon="4.89863">
        <ele>192.6</ele>
        <time>2024-09-18T14:42:07Z</time>
      </trkpt>
      <trkpt lat="46.44734" lon="4.89871">
        <ele>192.6</ele>
        <time>2024-09-18T14:42:08Z</time>
      </trkpt>
      <trkpt lat="46.44733" lon="4.89878">
        <ele>192.4</ele>
        <time>2024-09-18T14:42:09Z</time>
      </trkpt>
      <trkpt lat="46.44732" lon="4.89884">
        <ele>192.4</ele>
        <time>2024-09-18T14:42:10Z</time>
      </trkpt>
      <trkpt lat="46.4473" lon="4.89888">
        <ele>192.4</ele>
        <time>2024-09-18T14:42:11Z</time>
      </trkpt>
      <trkpt lat="46.44727" lon="4.89889">
        <ele>192.2</ele>
        <time>2024-09-18T14:42:12Z</time>
      </trkpt>
      <trkpt lat="46.44724" lon="4.8989">
        <ele>192.2</ele>
        <time>2024-09-18T14:42:13Z</time>
      </trkpt>
      <trkpt lat="46.44721" lon="4.8989">
        <ele>192.2</ele>
        <time>2024-09-18T14:42:14Z</time>
      </trkpt>
      <trkpt lat="46.44718" lon="4.8989">
        <ele>192.2</ele>
        <time>2024-09-18T14:42:15Z</time>
      </trkpt>
      <trkpt lat="46.44717" lon="4.8989">
        <ele>192.2</ele>
        <time>2024-09-18T14:42:16Z</time>
      </trkpt>
      <trkpt lat="46.44713" lon="4.89891">
        <ele>192.2</ele>
        <time>2024-09-18T14:42:17Z</time>
      </trkpt>
      <trkpt lat="46.44712" lon="4.89891">
        <ele>192.2</ele>
        <time>2024-09-18T14:42:18Z</time>
      </trkpt>
      <trkpt lat="46.44711" lon="4.89892">
        <ele>192.2</ele>
        <time>2024-09-18T14:42:19Z</time>
      </trkpt>
      <trkpt lat="46.44709" lon="4.89892">
        <ele>192.4</ele>
        <time>2024-09-18T14:42:20Z</time>
      </trkpt>
      <trkpt lat="46.44707" lon="4.89893">
        <ele>192.4</ele>
        <time>2024-09-18T14:42:21Z</time>
      </trkpt>
      <trkpt lat="46.44706" lon="4.89893">
        <ele>192.4</ele>
        <time>2024-09-18T14:42:22Z</time>
      </trkpt>
      <trkpt lat="46.44704" lon="4.89893">
        <ele>192.4</ele>
        <time>2024-09-18T14:42:23Z</time>
      </trkpt>
      <trkpt lat="46.44702" lon="4.89894">
        <ele>192.4</ele>
        <time>2024-09-18T14:42:24Z</time>
      </trkpt>
      <trkpt lat="46.44701" lon="4.89894">
        <ele>192</ele>
        <time>2024-09-18T14:42:25Z</time>
      </trkpt>
      <trkpt lat="46.44699" lon="4.89895">
        <ele>192</ele>
        <time>2024-09-18T14:42:26Z</time>
      </trkpt>
      <trkpt lat="46.44697" lon="4.89897">
        <ele>192</ele>
        <time>2024-09-18T14:42:27Z</time>
      </trkpt>
      <trkpt lat="46.44696" lon="4.89898">
        <ele>192</ele>
        <time>2024-09-18T14:42:28Z</time>
      </trkpt>
      <trkpt lat="46.44695" lon="4.899">
        <ele>191.6</ele>
        <time>2024-09-18T14:42:39Z</time>
      </trkpt>
      <trkpt lat="46.44694" lon="4.89902">
        <ele>191.6</ele>
        <time>2024-09-18T14:42:40Z</time>
      </trkpt>
      <trkpt lat="46.44693" lon="4.89903">
        <ele>191.4</ele>
        <time>2024-09-18T14:42:41Z</time>
      </trkpt>
      <trkpt lat="46.44692" lon="4.89906">
        <ele>191.4</ele>
        <time>2024-09-18T14:42:42Z</time>
      </trkpt>
      <trkpt lat="46.44692" lon="4.8991">
        <ele>191.4</ele>
        <time>2024-09-18T14:42:43Z</time>
      </trkpt>
      <trkpt lat="46.44691" lon="4.89914">
        <ele>191.4</ele>
        <time>2024-09-18T14:42:44Z</time>
      </trkpt>
      <trkpt lat="46.44691" lon="4.89919">
        <ele>191.4</ele>
        <time>2024-09-18T14:42:45Z</time>
      </trkpt>
      <trkpt lat="46.4469" lon="4.89923">
        <ele>191.4</ele>
        <time>2024-09-18T14:42:46Z</time>
      </trkpt>
      <trkpt lat="46.44689" lon="4.89927">
        <ele>191</ele>
        <time>2024-09-18T14:42:47Z</time>
      </trkpt>
      <trkpt lat="46.44688" lon="4.89931">
        <ele>191</ele>
        <time>2024-09-18T14:42:48Z</time>
      </trkpt>
      <trkpt lat="46.44687" lon="4.89936">
        <ele>191</ele>
        <time>2024-09-18T14:42:49Z</time>
      </trkpt>
      <trkpt lat="46.44687" lon="4.8994">
        <ele>191</ele>
        <time>2024-09-18T14:42:50Z</time>
      </trkpt>
      <trkpt lat="46.44686" lon="4.89945">
        <ele>191.2</ele>
        <time>2024-09-18T14:42:51Z</time>
      </trkpt>
      <trkpt lat="46.44685" lon="4.89949">
        <ele>191.2</ele>
        <time>2024-09-18T14:42:52Z</time>
      </trkpt>
      <trkpt lat="46.44685" lon="4.89954">
        <ele>191.2</ele>
        <time>2024-09-18T14:42:53Z</time>
      </trkpt>
      <trkpt lat="46.44684" lon="4.89958">
        <ele>191.2</ele>
        <time>2024-09-18T14:42:54Z</time>
      </trkpt>
      <trkpt lat="46.44684" lon="4.89963">
        <ele>191.2</ele>
        <time>2024-09-18T14:42:55Z</time>
      </trkpt>
      <trkpt lat="46.44683" lon="4.89968">
        <ele>191.2</ele>
        <time>2024-09-18T14:42:56Z</time>
      </trkpt>
      <trkpt lat="46.44682" lon="4.89973">
        <ele>191.4</ele>
        <time>2024-09-18T14:42:57Z</time>
      </trkpt>
      <trkpt lat="46.44681" lon="4.89978">
        <ele>191.4</ele>
        <time>2024-09-18T14:42:58Z</time>
      </trkpt>
      <trkpt lat="46.44681" lon="4.89984">
        <ele>191.4</ele>
        <time>2024-09-18T14:42:59Z</time>
      </trkpt>
      <trkpt lat="46.4468" lon="4.89989">
        <ele>191</ele>
        <time>2024-09-18T14:43:00Z</time>
      </trkpt>
      <trkpt lat="46.44679" lon="4.89995">
        <ele>191.2</ele>
        <time>2024-09-18T14:43:01Z</time>
      </trkpt>
      <trkpt lat="46.44678" lon="4.90001">
        <ele>191.2</ele>
        <time>2024-09-18T14:43:02Z</time>
      </trkpt>
      <trkpt lat="46.44678" lon="4.90007">
        <ele>191.2</ele>
        <time>2024-09-18T14:43:03Z</time>
      </trkpt>
      <trkpt lat="46.44677" lon="4.90013">
        <ele>191.2</ele>
        <time>2024-09-18T14:43:04Z</time>
      </trkpt>
      <trkpt lat="46.44676" lon="4.90019">
        <ele>191</ele>
        <time>2024-09-18T14:43:05Z</time>
      </trkpt>
      <trkpt lat="46.44675" lon="4.90025">
        <ele>191</ele>
        <time>2024-09-18T14:43:06Z</time>
      </trkpt>
      <trkpt lat="46.44674" lon="4.90034">
        <ele>191</ele>
        <time>2024-09-18T14:43:07Z</time>
      </trkpt>
      <trkpt lat="46.44674" lon="4.90038">
        <ele>191</ele>
        <time>2024-09-18T14:43:08Z</time>
      </trkpt>
      <trkpt lat="46.44672" lon="4.90047">
        <ele>191</ele>
        <time>2024-09-18T14:43:09Z</time>
      </trkpt>
      <trkpt lat="46.44672" lon="4.9005">
        <ele>191.2</ele>
        <time>2024-09-18T14:43:10Z</time>
      </trkpt>
      <trkpt lat="46.4467" lon="4.90059">
        <ele>191.2</ele>
        <time>2024-09-18T14:43:11Z</time>
      </trkpt>
      <trkpt lat="46.44669" lon="4.90062">
        <ele>191.2</ele>
        <time>2024-09-18T14:43:12Z</time>
      </trkpt>
      <trkpt lat="46.44668" lon="4.90072">
        <ele>191.2</ele>
        <time>2024-09-18T14:43:13Z</time>
      </trkpt>
      <trkpt lat="46.44667" lon="4.90075">
        <ele>191.2</ele>
        <time>2024-09-18T14:43:14Z</time>
      </trkpt>
      <trkpt lat="46.44666" lon="4.90081">
        <ele>191</ele>
        <time>2024-09-18T14:43:15Z</time>
      </trkpt>
      <trkpt lat="46.44665" lon="4.90087">
        <ele>191</ele>
        <time>2024-09-18T14:43:16Z</time>
      </trkpt>
      <trkpt lat="46.44664" lon="4.90096">
        <ele>191.2</ele>
        <time>2024-09-18T14:43:17Z</time>
      </trkpt>
      <trkpt lat="46.44664" lon="4.90099">
        <ele>191.2</ele>
        <time>2024-09-18T14:43:18Z</time>
      </trkpt>
      <trkpt lat="46.44663" lon="4.90106">
        <ele>191.2</ele>
        <time>2024-09-18T14:43:19Z</time>
      </trkpt>
      <trkpt lat="46.44662" lon="4.90109">
        <ele>191.2</ele>
        <time>2024-09-18T14:43:20Z</time>
      </trkpt>
      <trkpt lat="46.44661" lon="4.90118">
        <ele>191.2</ele>
        <time>2024-09-18T14:43:21Z</time>
      </trkpt>
      <trkpt lat="46.44661" lon="4.9012">
        <ele>190.8</ele>
        <time>2024-09-18T14:43:22Z</time>
      </trkpt>
      <trkpt lat="46.44659" lon="4.90129">
        <ele>190.8</ele>
        <time>2024-09-18T14:43:23Z</time>
      </trkpt>
      <trkpt lat="46.44659" lon="4.90133">
        <ele>190.8</ele>
        <time>2024-09-18T14:43:24Z</time>
      </trkpt>
      <trkpt lat="46.44658" lon="4.90139">
        <ele>190.8</ele>
        <time>2024-09-18T14:43:25Z</time>
      </trkpt>
      <trkpt lat="46.44657" lon="4.90145">
        <ele>190.8</ele>
        <time>2024-09-18T14:43:26Z</time>
      </trkpt>
      <trkpt lat="46.44656" lon="4.90151">
        <ele>190.8</ele>
        <time>2024-09-18T14:43:27Z</time>
      </trkpt>
      <trkpt lat="46.44655" lon="4.90157">
        <ele>190.8</ele>
        <time>2024-09-18T14:43:28Z</time>
      </trkpt>
      <trkpt lat="46.44654" lon="4.90163">
        <ele>190.8</ele>
        <time>2024-09-18T14:43:29Z</time>
      </trkpt>
      <trkpt lat="46.44654" lon="4.90169">
        <ele>190.8</ele>
        <time>2024-09-18T14:43:30Z</time>
      </trkpt>
      <trkpt lat="46.44652" lon="4.90175">
        <ele>191</ele>
        <time>2024-09-18T14:43:31Z</time>
      </trkpt>
      <trkpt lat="46.44651" lon="4.90181">
        <ele>191</ele>
        <time>2024-09-18T14:43:32Z</time>
      </trkpt>
      <trkpt lat="46.4465" lon="4.90188">
        <ele>191</ele>
        <time>2024-09-18T14:43:33Z</time>
      </trkpt>
      <trkpt lat="46.44649" lon="4.90194">
        <ele>191</ele>
        <time>2024-09-18T14:43:34Z</time>
      </trkpt>
      <trkpt lat="46.44648" lon="4.902">
        <ele>191</ele>
        <time>2024-09-18T14:43:35Z</time>
      </trkpt>
      <trkpt lat="46.44647" lon="4.90206">
        <ele>191</ele>
        <time>2024-09-18T14:43:36Z</time>
      </trkpt>
      <trkpt lat="46.44646" lon="4.90212">
        <ele>190.8</ele>
        <time>2024-09-18T14:43:37Z</time>
      </trkpt>
      <trkpt lat="46.44646" lon="4.90219">
        <ele>190.8</ele>
        <time>2024-09-18T14:43:38Z</time>
      </trkpt>
      <trkpt lat="46.44645" lon="4.90225">
        <ele>190.8</ele>
        <time>2024-09-18T14:43:39Z</time>
      </trkpt>
      <trkpt lat="46.44643" lon="4.90231">
        <ele>191.4</ele>
        <time>2024-09-18T14:43:40Z</time>
      </trkpt>
      <trkpt lat="46.44643" lon="4.90238">
        <ele>191.4</ele>
        <time>2024-09-18T14:43:41Z</time>
      </trkpt>
      <trkpt lat="46.44642" lon="4.90245">
        <ele>191.4</ele>
        <time>2024-09-18T14:43:42Z</time>
      </trkpt>
      <trkpt lat="46.44641" lon="4.90251">
        <ele>191.4</ele>
        <time>2024-09-18T14:43:43Z</time>
      </trkpt>
      <trkpt lat="46.4464" lon="4.90257">
        <ele>191.4</ele>
        <time>2024-09-18T14:43:44Z</time>
      </trkpt>
      <trkpt lat="46.44639" lon="4.90263">
        <ele>191.4</ele>
        <time>2024-09-18T14:43:45Z</time>
      </trkpt>
      <trkpt lat="46.44638" lon="4.90269">
        <ele>191.6</ele>
        <time>2024-09-18T14:43:46Z</time>
      </trkpt>
      <trkpt lat="46.44637" lon="4.90275">
        <ele>191.6</ele>
        <time>2024-09-18T14:43:47Z</time>
      </trkpt>
      <trkpt lat="46.44636" lon="4.90281">
        <ele>191.6</ele>
        <time>2024-09-18T14:43:48Z</time>
      </trkpt>
      <trkpt lat="46.44635" lon="4.9029">
        <ele>191.6</ele>
        <time>2024-09-18T14:43:49Z</time>
      </trkpt>
      <trkpt lat="46.44635" lon="4.90293">
        <ele>191.4</ele>
        <time>2024-09-18T14:43:50Z</time>
      </trkpt>
      <trkpt lat="46.44633" lon="4.90302">
        <ele>191.4</ele>
        <time>2024-09-18T14:43:51Z</time>
      </trkpt>
      <trkpt lat="46.44633" lon="4.90305">
        <ele>191.4</ele>
        <time>2024-09-18T14:43:52Z</time>
      </trkpt>
      <trkpt lat="46.44632" lon="4.90314">
        <ele>191.4</ele>
        <time>2024-09-18T14:43:53Z</time>
      </trkpt>
      <trkpt lat="46.44631" lon="4.90317">
        <ele>191.4</ele>
        <time>2024-09-18T14:43:54Z</time>
      </trkpt>
      <trkpt lat="46.4463" lon="4.90326">
        <ele>191.6</ele>
        <time>2024-09-18T14:43:55Z</time>
      </trkpt>
      <trkpt lat="46.44629" lon="4.90329">
        <ele>191.6</ele>
        <time>2024-09-18T14:43:56Z</time>
      </trkpt>
      <trkpt lat="46.44628" lon="4.90338">
        <ele>191.6</ele>
        <time>2024-09-18T14:43:57Z</time>
      </trkpt>
      <trkpt lat="46.44627" lon="4.90341">
        <ele>191.6</ele>
        <time>2024-09-18T14:43:58Z</time>
      </trkpt>
      <trkpt lat="46.44626" lon="4.9035">
        <ele>191.4</ele>
        <time>2024-09-18T14:43:59Z</time>
      </trkpt>
      <trkpt lat="46.44625" lon="4.90353">
        <ele>191.4</ele>
        <time>2024-09-18T14:44:00Z</time>
      </trkpt>
      <trkpt lat="46.44624" lon="4.90362">
        <ele>191.4</ele>
        <time>2024-09-18T14:44:01Z</time>
      </trkpt>
      <trkpt lat="46.44623" lon="4.90365">
        <ele>191.4</ele>
        <time>2024-09-18T14:44:02Z</time>
      </trkpt>
      <trkpt lat="46.44622" lon="4.90375">
        <ele>191.2</ele>
        <time>2024-09-18T14:44:03Z</time>
      </trkpt>
      <trkpt lat="46.44622" lon="4.90379">
        <ele>191.2</ele>
        <time>2024-09-18T14:44:04Z</time>
      </trkpt>
      <trkpt lat="46.44621" lon="4.90388">
        <ele>191.2</ele>
        <time>2024-09-18T14:44:05Z</time>
      </trkpt>
      <trkpt lat="46.4462" lon="4.90391">
        <ele>191.2</ele>
        <time>2024-09-18T14:44:06Z</time>
      </trkpt>
      <trkpt lat="46.44619" lon="4.90398">
        <ele>191.2</ele>
        <time>2024-09-18T14:44:07Z</time>
      </trkpt>
      <trkpt lat="46.44618" lon="4.90404">
        <ele>191.2</ele>
        <time>2024-09-18T14:44:08Z</time>
      </trkpt>
      <trkpt lat="46.44617" lon="4.9041">
        <ele>191.2</ele>
        <time>2024-09-18T14:44:09Z</time>
      </trkpt>
      <trkpt lat="46.44616" lon="4.90416">
        <ele>191.2</ele>
        <time>2024-09-18T14:44:10Z</time>
      </trkpt>
      <trkpt lat="46.44615" lon="4.90422">
        <ele>191.6</ele>
        <time>2024-09-18T14:44:11Z</time>
      </trkpt>
      <trkpt lat="46.44614" lon="4.90428">
        <ele>191.4</ele>
        <time>2024-09-18T14:44:12Z</time>
      </trkpt>
      <trkpt lat="46.44614" lon="4.90435">
        <ele>191.4</ele>
        <time>2024-09-18T14:44:13Z</time>
      </trkpt>
      <trkpt lat="46.44613" lon="4.90441">
        <ele>191.4</ele>
        <time>2024-09-18T14:44:14Z</time>
      </trkpt>
      <trkpt lat="46.44612" lon="4.90447">
        <ele>191.4</ele>
        <time>2024-09-18T14:44:15Z</time>
      </trkpt>
      <trkpt lat="46.44611" lon="4.90453">
        <ele>191.4</ele>
        <time>2024-09-18T14:44:16Z</time>
      </trkpt>
      <trkpt lat="46.4461" lon="4.90459">
        <ele>191.6</ele>
        <time>2024-09-18T14:44:17Z</time>
      </trkpt>
      <trkpt lat="46.44609" lon="4.90465">
        <ele>191.6</ele>
        <time>2024-09-18T14:44:18Z</time>
      </trkpt>
      <trkpt lat="46.44608" lon="4.9047">
        <ele>191.6</ele>
        <time>2024-09-18T14:44:19Z</time>
      </trkpt>
      <trkpt lat="46.44607" lon="4.90476">
        <ele>191.6</ele>
        <time>2024-09-18T14:44:20Z</time>
      </trkpt>
      <trkpt lat="46.44606" lon="4.90481">
        <ele>191.4</ele>
        <time>2024-09-18T14:44:21Z</time>
      </trkpt>
      <trkpt lat="46.44606" lon="4.90487">
        <ele>191.4</ele>
        <time>2024-09-18T14:44:22Z</time>
      </trkpt>
      <trkpt lat="46.44604" lon="4.90493">
        <ele>191.2</ele>
        <time>2024-09-18T14:44:23Z</time>
      </trkpt>
      <trkpt lat="46.44603" lon="4.90498">
        <ele>191.2</ele>
        <time>2024-09-18T14:44:24Z</time>
      </trkpt>
      <trkpt lat="46.44602" lon="4.90504">
        <ele>191.2</ele>
        <time>2024-09-18T14:44:25Z</time>
      </trkpt>
      <trkpt lat="46.44602" lon="4.9051">
        <ele>191.4</ele>
        <time>2024-09-18T14:44:26Z</time>
      </trkpt>
      <trkpt lat="46.44601" lon="4.90516">
        <ele>191.4</ele>
        <time>2024-09-18T14:44:27Z</time>
      </trkpt>
      <trkpt lat="46.446" lon="4.90523">
        <ele>191.4</ele>
        <time>2024-09-18T14:44:28Z</time>
      </trkpt>
      <trkpt lat="46.44599" lon="4.90529">
        <ele>191.4</ele>
        <time>2024-09-18T14:44:29Z</time>
      </trkpt>
      <trkpt lat="46.44597" lon="4.90538">
        <ele>190.8</ele>
        <time>2024-09-18T14:44:30Z</time>
      </trkpt>
      <trkpt lat="46.44597" lon="4.90541">
        <ele>191.4</ele>
        <time>2024-09-18T14:44:31Z</time>
      </trkpt>
      <trkpt lat="46.44595" lon="4.9055">
        <ele>191.4</ele>
        <time>2024-09-18T14:44:32Z</time>
      </trkpt>
      <trkpt lat="46.44595" lon="4.90554">
        <ele>191.4</ele>
        <time>2024-09-18T14:44:33Z</time>
      </trkpt>
      <trkpt lat="46.44594" lon="4.90563">
        <ele>191</ele>
        <time>2024-09-18T14:44:34Z</time>
      </trkpt>
      <trkpt lat="46.44593" lon="4.90566">
        <ele>190.8</ele>
        <time>2024-09-18T14:44:35Z</time>
      </trkpt>
      <trkpt lat="46.44592" lon="4.90575">
        <ele>190.8</ele>
        <time>2024-09-18T14:44:36Z</time>
      </trkpt>
      <trkpt lat="46.44591" lon="4.90578">
        <ele>190.8</ele>
        <time>2024-09-18T14:44:37Z</time>
      </trkpt>
      <trkpt lat="46.4459" lon="4.90588">
        <ele>190.8</ele>
        <time>2024-09-18T14:44:38Z</time>
      </trkpt>
      <trkpt lat="46.4459" lon="4.90592">
        <ele>190.8</ele>
        <time>2024-09-18T14:44:39Z</time>
      </trkpt>
      <trkpt lat="46.44588" lon="4.90601">
        <ele>190.8</ele>
        <time>2024-09-18T14:44:40Z</time>
      </trkpt>
      <trkpt lat="46.44587" lon="4.90604">
        <ele>190.8</ele>
        <time>2024-09-18T14:44:41Z</time>
      </trkpt>
      <trkpt lat="46.44586" lon="4.90614">
        <ele>190.8</ele>
        <time>2024-09-18T14:44:42Z</time>
      </trkpt>
      <trkpt lat="46.44585" lon="4.90618">
        <ele>190.2</ele>
        <time>2024-09-18T14:44:43Z</time>
      </trkpt>
      <trkpt lat="46.44584" lon="4.90628">
        <ele>190.6</ele>
        <time>2024-09-18T14:44:44Z</time>
      </trkpt>
      <trkpt lat="46.44583" lon="4.90632">
        <ele>190.6</ele>
        <time>2024-09-18T14:44:45Z</time>
      </trkpt>
      <trkpt lat="46.44582" lon="4.90642">
        <ele>190.6</ele>
        <time>2024-09-18T14:44:46Z</time>
      </trkpt>
      <trkpt lat="46.44581" lon="4.90646">
        <ele>190.2</ele>
        <time>2024-09-18T14:44:47Z</time>
      </trkpt>
      <trkpt lat="46.4458" lon="4.90653">
        <ele>190.4</ele>
        <time>2024-09-18T14:44:48Z</time>
      </trkpt>
      <trkpt lat="46.44579" lon="4.9066">
        <ele>190.4</ele>
        <time>2024-09-18T14:44:49Z</time>
      </trkpt>
      <trkpt lat="46.44578" lon="4.90668">
        <ele>190.4</ele>
        <time>2024-09-18T14:44:50Z</time>
      </trkpt>
      <trkpt lat="46.44577" lon="4.90675">
        <ele>190.4</ele>
        <time>2024-09-18T14:44:51Z</time>
      </trkpt>
      <trkpt lat="46.44576" lon="4.90683">
        <ele>190.4</ele>
        <time>2024-09-18T14:44:52Z</time>
      </trkpt>
      <trkpt lat="46.44574" lon="4.9069">
        <ele>190.2</ele>
        <time>2024-09-18T14:44:53Z</time>
      </trkpt>
      <trkpt lat="46.44573" lon="4.90697">
        <ele>190.2</ele>
        <time>2024-09-18T14:44:54Z</time>
      </trkpt>
      <trkpt lat="46.44572" lon="4.90704">
        <ele>190.2</ele>
        <time>2024-09-18T14:44:55Z</time>
      </trkpt>
      <trkpt lat="46.44571" lon="4.90711">
        <ele>190.2</ele>
        <time>2024-09-18T14:44:56Z</time>
      </trkpt>
      <trkpt lat="46.4457" lon="4.90719">
        <ele>190</ele>
        <time>2024-09-18T14:44:57Z</time>
      </trkpt>
      <trkpt lat="46.44569" lon="4.90726">
        <ele>190</ele>
        <time>2024-09-18T14:44:58Z</time>
      </trkpt>
      <trkpt lat="46.44567" lon="4.90733">
        <ele>190</ele>
        <time>2024-09-18T14:44:59Z</time>
      </trkpt>
      <trkpt lat="46.44566" lon="4.90741">
        <ele>190</ele>
        <time>2024-09-18T14:45:00Z</time>
      </trkpt>
      <trkpt lat="46.44565" lon="4.90748">
        <ele>190</ele>
        <time>2024-09-18T14:45:01Z</time>
      </trkpt>
      <trkpt lat="46.44564" lon="4.90756">
        <ele>190.4</ele>
        <time>2024-09-18T14:45:02Z</time>
      </trkpt>
      <trkpt lat="46.44563" lon="4.90763">
        <ele>190.4</ele>
        <time>2024-09-18T14:45:03Z</time>
      </trkpt>
      <trkpt lat="46.44562" lon="4.9077">
        <ele>190.4</ele>
        <time>2024-09-18T14:45:04Z</time>
      </trkpt>
      <trkpt lat="46.44561" lon="4.90777">
        <ele>190.4</ele>
        <time>2024-09-18T14:45:05Z</time>
      </trkpt>
      <trkpt lat="46.44559" lon="4.90784">
        <ele>190.2</ele>
        <time>2024-09-18T14:45:06Z</time>
      </trkpt>
      <trkpt lat="46.44558" lon="4.90792">
        <ele>190.2</ele>
        <time>2024-09-18T14:45:07Z</time>
      </trkpt>
      <trkpt lat="46.44557" lon="4.90799">
        <ele>190.2</ele>
        <time>2024-09-18T14:45:08Z</time>
      </trkpt>
      <trkpt lat="46.44555" lon="4.90806">
        <ele>190.2</ele>
        <time>2024-09-18T14:45:09Z</time>
      </trkpt>
      <trkpt lat="46.44554" lon="4.90814">
        <ele>190.2</ele>
        <time>2024-09-18T14:45:10Z</time>
      </trkpt>
      <trkpt lat="46.44553" lon="4.90821">
        <ele>190</ele>
        <time>2024-09-18T14:45:11Z</time>
      </trkpt>
      <trkpt lat="46.44552" lon="4.90828">
        <ele>190</ele>
        <time>2024-09-18T14:45:12Z</time>
      </trkpt>
      <trkpt lat="46.44551" lon="4.90836">
        <ele>190</ele>
        <time>2024-09-18T14:45:13Z</time>
      </trkpt>
      <trkpt lat="46.4455" lon="4.90843">
        <ele>190</ele>
        <time>2024-09-18T14:45:14Z</time>
      </trkpt>
      <trkpt lat="46.44548" lon="4.90854">
        <ele>190</ele>
        <time>2024-09-18T14:45:15Z</time>
      </trkpt>
      <trkpt lat="46.44547" lon="4.90858">
        <ele>190</ele>
        <time>2024-09-18T14:45:16Z</time>
      </trkpt>
      <trkpt lat="46.44546" lon="4.90869">
        <ele>190</ele>
        <time>2024-09-18T14:45:17Z</time>
      </trkpt>
      <trkpt lat="46.44545" lon="4.90873">
        <ele>190</ele>
        <time>2024-09-18T14:45:18Z</time>
      </trkpt>
      <trkpt lat="46.44543" lon="4.90884">
        <ele>190</ele>
        <time>2024-09-18T14:45:19Z</time>
      </trkpt>
      <trkpt lat="46.44543" lon="4.90887">
        <ele>190</ele>
        <time>2024-09-18T14:45:20Z</time>
      </trkpt>
      <trkpt lat="46.44541" lon="4.90898">
        <ele>190.4</ele>
        <time>2024-09-18T14:45:21Z</time>
      </trkpt>
      <trkpt lat="46.44541" lon="4.90902">
        <ele>190.4</ele>
        <time>2024-09-18T14:45:22Z</time>
      </trkpt>
      <trkpt lat="46.44539" lon="4.90912">
        <ele>190.4</ele>
        <time>2024-09-18T14:45:23Z</time>
      </trkpt>
      <trkpt lat="46.44539" lon="4.90916">
        <ele>190.4</ele>
        <time>2024-09-18T14:45:24Z</time>
      </trkpt>
      <trkpt lat="46.44537" lon="4.90926">
        <ele>190.4</ele>
        <time>2024-09-18T14:45:25Z</time>
      </trkpt>
      <trkpt lat="46.44536" lon="4.9093">
        <ele>190.4</ele>
        <time>2024-09-18T14:45:26Z</time>
      </trkpt>
      <trkpt lat="46.44535" lon="4.9094">
        <ele>190.4</ele>
        <time>2024-09-18T14:45:27Z</time>
      </trkpt>
      <trkpt lat="46.44534" lon="4.90943">
        <ele>190.4</ele>
        <time>2024-09-18T14:45:28Z</time>
      </trkpt>
      <trkpt lat="46.44533" lon="4.90953">
        <ele>190.4</ele>
        <time>2024-09-18T14:45:29Z</time>
      </trkpt>
      <trkpt lat="46.44532" lon="4.90957">
        <ele>190.4</ele>
        <time>2024-09-18T14:45:30Z</time>
      </trkpt>
      <trkpt lat="46.44531" lon="4.90964">
        <ele>190.4</ele>
        <time>2024-09-18T14:45:31Z</time>
      </trkpt>
      <trkpt lat="46.4453" lon="4.90971">
        <ele>190.4</ele>
        <time>2024-09-18T14:45:32Z</time>
      </trkpt>
      <trkpt lat="46.44529" lon="4.90978">
        <ele>190.4</ele>
        <time>2024-09-18T14:45:33Z</time>
      </trkpt>
      <trkpt lat="46.44528" lon="4.90985">
        <ele>190.2</ele>
        <time>2024-09-18T14:45:34Z</time>
      </trkpt>
      <trkpt lat="46.44527" lon="4.90992">
        <ele>190.2</ele>
        <time>2024-09-18T14:45:35Z</time>
      </trkpt>
      <trkpt lat="46.44526" lon="4.90999">
        <ele>190.2</ele>
        <time>2024-09-18T14:45:36Z</time>
      </trkpt>
      <trkpt lat="46.44525" lon="4.91006">
        <ele>190.6</ele>
        <time>2024-09-18T14:45:37Z</time>
      </trkpt>
      <trkpt lat="46.44524" lon="4.91013">
        <ele>190.4</ele>
        <time>2024-09-18T14:45:38Z</time>
      </trkpt>
      <trkpt lat="46.44523" lon="4.91019">
        <ele>190.4</ele>
        <time>2024-09-18T14:45:39Z</time>
      </trkpt>
      <trkpt lat="46.44522" lon="4.91026">
        <ele>190.4</ele>
        <time>2024-09-18T14:45:40Z</time>
      </trkpt>
      <trkpt lat="46.44521" lon="4.91033">
        <ele>190.4</ele>
        <time>2024-09-18T14:45:41Z</time>
      </trkpt>
      <trkpt lat="46.4452" lon="4.9104">
        <ele>190.4</ele>
        <time>2024-09-18T14:45:42Z</time>
      </trkpt>
      <trkpt lat="46.44519" lon="4.91046">
        <ele>190.6</ele>
        <time>2024-09-18T14:45:43Z</time>
      </trkpt>
      <trkpt lat="46.44518" lon="4.91053">
        <ele>190.2</ele>
        <time>2024-09-18T14:45:44Z</time>
      </trkpt>
      <trkpt lat="46.44516" lon="4.9106">
        <ele>190.2</ele>
        <time>2024-09-18T14:45:45Z</time>
      </trkpt>
      <trkpt lat="46.44515" lon="4.91067">
        <ele>190.2</ele>
        <time>2024-09-18T14:45:46Z</time>
      </trkpt>
      <trkpt lat="46.44513" lon="4.91073">
        <ele>190.2</ele>
        <time>2024-09-18T14:45:47Z</time>
      </trkpt>
      <trkpt lat="46.44512" lon="4.9108">
        <ele>190.2</ele>
        <time>2024-09-18T14:45:48Z</time>
      </trkpt>
      <trkpt lat="46.44511" lon="4.91087">
        <ele>190.8</ele>
        <time>2024-09-18T14:45:49Z</time>
      </trkpt>
      <trkpt lat="46.4451" lon="4.91094">
        <ele>190.8</ele>
        <time>2024-09-18T14:45:50Z</time>
      </trkpt>
      <trkpt lat="46.44509" lon="4.91101">
        <ele>190.8</ele>
        <time>2024-09-18T14:45:51Z</time>
      </trkpt>
      <trkpt lat="46.44508" lon="4.91108">
        <ele>190.8</ele>
        <time>2024-09-18T14:45:52Z</time>
      </trkpt>
      <trkpt lat="46.44507" lon="4.91114">
        <ele>190.8</ele>
        <time>2024-09-18T14:45:53Z</time>
      </trkpt>
      <trkpt lat="46.44506" lon="4.91121">
        <ele>190.8</ele>
        <time>2024-09-18T14:45:54Z</time>
      </trkpt>
      <trkpt lat="46.44505" lon="4.91128">
        <ele>190.8</ele>
        <time>2024-09-18T14:45:55Z</time>
      </trkpt>
      <trkpt lat="46.44504" lon="4.91138">
        <ele>190.8</ele>
        <time>2024-09-18T14:45:56Z</time>
      </trkpt>
      <trkpt lat="46.44504" lon="4.91142">
        <ele>190.8</ele>
        <time>2024-09-18T14:45:57Z</time>
      </trkpt>
      <trkpt lat="46.44502" lon="4.91152">
        <ele>190.8</ele>
        <time>2024-09-18T14:45:58Z</time>
      </trkpt>
      <trkpt lat="46.44501" lon="4.91155">
        <ele>190.8</ele>
        <time>2024-09-18T14:45:59Z</time>
      </trkpt>
      <trkpt lat="46.44501" lon="4.91165">
        <ele>190.8</ele>
        <time>2024-09-18T14:46:00Z</time>
      </trkpt>
      <trkpt lat="46.445" lon="4.91169">
        <ele>191.2</ele>
        <time>2024-09-18T14:46:01Z</time>
      </trkpt>
      <trkpt lat="46.44499" lon="4.91179">
        <ele>191.2</ele>
        <time>2024-09-18T14:46:02Z</time>
      </trkpt>
      <trkpt lat="46.44498" lon="4.91182">
        <ele>191.2</ele>
        <time>2024-09-18T14:46:03Z</time>
      </trkpt>
      <trkpt lat="46.44496" lon="4.91193">
        <ele>191.2</ele>
        <time>2024-09-18T14:46:04Z</time>
      </trkpt>
      <trkpt lat="46.44496" lon="4.91196">
        <ele>191.2</ele>
        <time>2024-09-18T14:46:05Z</time>
      </trkpt>
      <trkpt lat="46.44494" lon="4.91207">
        <ele>190.4</ele>
        <time>2024-09-18T14:46:06Z</time>
      </trkpt>
      <trkpt lat="46.44494" lon="4.9121">
        <ele>190.4</ele>
        <time>2024-09-18T14:46:07Z</time>
      </trkpt>
      <trkpt lat="46.44493" lon="4.91221">
        <ele>190.4</ele>
        <time>2024-09-18T14:46:08Z</time>
      </trkpt>
      <trkpt lat="46.44492" lon="4.91224">
        <ele>190.8</ele>
        <time>2024-09-18T14:46:09Z</time>
      </trkpt>
      <trkpt lat="46.44491" lon="4.91234">
        <ele>190.6</ele>
        <time>2024-09-18T14:46:10Z</time>
      </trkpt>
      <trkpt lat="46.4449" lon="4.91238">
        <ele>190.6</ele>
        <time>2024-09-18T14:46:11Z</time>
      </trkpt>
      <trkpt lat="46.44488" lon="4.91248">
        <ele>190.6</ele>
        <time>2024-09-18T14:46:12Z</time>
      </trkpt>
      <trkpt lat="46.44488" lon="4.91252">
        <ele>190.8</ele>
        <time>2024-09-18T14:46:13Z</time>
      </trkpt>
      <trkpt lat="46.44487" lon="4.91259">
        <ele>190.8</ele>
        <time>2024-09-18T14:46:14Z</time>
      </trkpt>
      <trkpt lat="46.44486" lon="4.91266">
        <ele>190.6</ele>
        <time>2024-09-18T14:46:15Z</time>
      </trkpt>
      <trkpt lat="46.44485" lon="4.91273">
        <ele>190.6</ele>
        <time>2024-09-18T14:46:16Z</time>
      </trkpt>
      <trkpt lat="46.44484" lon="4.9128">
        <ele>190.6</ele>
        <time>2024-09-18T14:46:17Z</time>
      </trkpt>
      <trkpt lat="46.44483" lon="4.91287">
        <ele>190.4</ele>
        <time>2024-09-18T14:46:18Z</time>
      </trkpt>
      <trkpt lat="46.44481" lon="4.91294">
        <ele>191</ele>
        <time>2024-09-18T14:46:19Z</time>
      </trkpt>
      <trkpt lat="46.44481" lon="4.91301">
        <ele>191</ele>
        <time>2024-09-18T14:46:20Z</time>
      </trkpt>
      <trkpt lat="46.4448" lon="4.91309">
        <ele>191</ele>
        <time>2024-09-18T14:46:21Z</time>
      </trkpt>
      <trkpt lat="46.44479" lon="4.91315">
        <ele>190</ele>
        <time>2024-09-18T14:46:22Z</time>
      </trkpt>
      <trkpt lat="46.44478" lon="4.91322">
        <ele>190.4</ele>
        <time>2024-09-18T14:46:23Z</time>
      </trkpt>
      <trkpt lat="46.44477" lon="4.91328">
        <ele>190.4</ele>
        <time>2024-09-18T14:46:24Z</time>
      </trkpt>
      <trkpt lat="46.44476" lon="4.91334">
        <ele>190.4</ele>
        <time>2024-09-18T14:46:25Z</time>
      </trkpt>
      <trkpt lat="46.44475" lon="4.91341">
        <ele>190.4</ele>
        <time>2024-09-18T14:46:26Z</time>
      </trkpt>
      <trkpt lat="46.44474" lon="4.91347">
        <ele>190.4</ele>
        <time>2024-09-18T14:46:27Z</time>
      </trkpt>
      <trkpt lat="46.44473" lon="4.91353">
        <ele>190.2</ele>
        <time>2024-09-18T14:46:28Z</time>
      </trkpt>
      <trkpt lat="46.44472" lon="4.91359">
        <ele>190.2</ele>
        <time>2024-09-18T14:46:29Z</time>
      </trkpt>
      <trkpt lat="46.44471" lon="4.91365">
        <ele>190.2</ele>
        <time>2024-09-18T14:46:30Z</time>
      </trkpt>
      <trkpt lat="46.4447" lon="4.91371">
        <ele>190.2</ele>
        <time>2024-09-18T14:46:31Z</time>
      </trkpt>
      <trkpt lat="46.44469" lon="4.91377">
        <ele>190.2</ele>
        <time>2024-09-18T14:46:32Z</time>
      </trkpt>
      <trkpt lat="46.44468" lon="4.91383">
        <ele>190.4</ele>
        <time>2024-09-18T14:46:33Z</time>
      </trkpt>
      <trkpt lat="46.44468" lon="4.91389">
        <ele>190.4</ele>
        <time>2024-09-18T14:46:34Z</time>
      </trkpt>
      <trkpt lat="46.44467" lon="4.91394">
        <ele>190.4</ele>
        <time>2024-09-18T14:46:35Z</time>
      </trkpt>
      <trkpt lat="46.44466" lon="4.91399">
        <ele>190.4</ele>
        <time>2024-09-18T14:46:36Z</time>
      </trkpt>
      <trkpt lat="46.44465" lon="4.91405">
        <ele>190.4</ele>
        <time>2024-09-18T14:46:37Z</time>
      </trkpt>
      <trkpt lat="46.44464" lon="4.9141">
        <ele>190.4</ele>
        <time>2024-09-18T14:46:38Z</time>
      </trkpt>
      <trkpt lat="46.44463" lon="4.91417">
        <ele>190.4</ele>
        <time>2024-09-18T14:46:39Z</time>
      </trkpt>
      <trkpt lat="46.44463" lon="4.91419">
        <ele>190.4</ele>
        <time>2024-09-18T14:46:40Z</time>
      </trkpt>
      <trkpt lat="46.44462" lon="4.91424">
        <ele>190.6</ele>
        <time>2024-09-18T14:46:41Z</time>
      </trkpt>
      <trkpt lat="46.44461" lon="4.9143">
        <ele>190.6</ele>
        <time>2024-09-18T14:46:42Z</time>
      </trkpt>
      <trkpt lat="46.4446" lon="4.91438">
        <ele>190.6</ele>
        <time>2024-09-18T14:46:43Z</time>
      </trkpt>
      <trkpt lat="46.4446" lon="4.91441">
        <ele>190.6</ele>
        <time>2024-09-18T14:46:44Z</time>
      </trkpt>
      <trkpt lat="46.44459" lon="4.91449">
        <ele>190.6</ele>
        <time>2024-09-18T14:46:45Z</time>
      </trkpt>
      <trkpt lat="46.44458" lon="4.91452">
        <ele>190</ele>
        <time>2024-09-18T14:46:46Z</time>
      </trkpt>
      <trkpt lat="46.44457" lon="4.91461">
        <ele>190</ele>
        <time>2024-09-18T14:46:47Z</time>
      </trkpt>
      <trkpt lat="46.44457" lon="4.91464">
        <ele>190</ele>
        <time>2024-09-18T14:46:48Z</time>
      </trkpt>
      <trkpt lat="46.44456" lon="4.91472">
        <ele>190</ele>
        <time>2024-09-18T14:46:49Z</time>
      </trkpt>
      <trkpt lat="46.44455" lon="4.91474">
        <ele>190.2</ele>
        <time>2024-09-18T14:46:50Z</time>
      </trkpt>
      <trkpt lat="46.44454" lon="4.91482">
        <ele>190.8</ele>
        <time>2024-09-18T14:46:51Z</time>
      </trkpt>
      <trkpt lat="46.44454" lon="4.91485">
        <ele>190.8</ele>
        <time>2024-09-18T14:46:52Z</time>
      </trkpt>
      <trkpt lat="46.44453" lon="4.91494">
        <ele>190.8</ele>
        <time>2024-09-18T14:46:53Z</time>
      </trkpt>
      <trkpt lat="46.44452" lon="4.91497">
        <ele>190.4</ele>
        <time>2024-09-18T14:46:54Z</time>
      </trkpt>
      <trkpt lat="46.44451" lon="4.91506">
        <ele>190.2</ele>
        <time>2024-09-18T14:46:55Z</time>
      </trkpt>
      <trkpt lat="46.44451" lon="4.91509">
        <ele>190.2</ele>
        <time>2024-09-18T14:46:56Z</time>
      </trkpt>
      <trkpt lat="46.4445" lon="4.91516">
        <ele>190.2</ele>
        <time>2024-09-18T14:46:57Z</time>
      </trkpt>
      <trkpt lat="46.44449" lon="4.91522">
        <ele>190.2</ele>
        <time>2024-09-18T14:46:58Z</time>
      </trkpt>
      <trkpt lat="46.44448" lon="4.91528">
        <ele>190.6</ele>
        <time>2024-09-18T14:46:59Z</time>
      </trkpt>
      <trkpt lat="46.44447" lon="4.91534">
        <ele>190.6</ele>
        <time>2024-09-18T14:47:00Z</time>
      </trkpt>
      <trkpt lat="46.44446" lon="4.91541">
        <ele>190.6</ele>
        <time>2024-09-18T14:47:01Z</time>
      </trkpt>
      <trkpt lat="46.44445" lon="4.91547">
        <ele>190.6</ele>
        <time>2024-09-18T14:47:02Z</time>
      </trkpt>
      <trkpt lat="46.44444" lon="4.91553">
        <ele>190.4</ele>
        <time>2024-09-18T14:47:03Z</time>
      </trkpt>
      <trkpt lat="46.44443" lon="4.91559">
        <ele>190.6</ele>
        <time>2024-09-18T14:47:04Z</time>
      </trkpt>
      <trkpt lat="46.44442" lon="4.91565">
        <ele>190.6</ele>
        <time>2024-09-18T14:47:05Z</time>
      </trkpt>
      <trkpt lat="46.44441" lon="4.91571">
        <ele>190.6</ele>
        <time>2024-09-18T14:47:06Z</time>
      </trkpt>
      <trkpt lat="46.44441" lon="4.91577">
        <ele>190.6</ele>
        <time>2024-09-18T14:47:07Z</time>
      </trkpt>
      <trkpt lat="46.4444" lon="4.91583">
        <ele>190.4</ele>
        <time>2024-09-18T14:47:08Z</time>
      </trkpt>
      <trkpt lat="46.44439" lon="4.91589">
        <ele>190.2</ele>
        <time>2024-09-18T14:47:09Z</time>
      </trkpt>
      <trkpt lat="46.44438" lon="4.91595">
        <ele>190.2</ele>
        <time>2024-09-18T14:47:10Z</time>
      </trkpt>
      <trkpt lat="46.44437" lon="4.91602">
        <ele>190.2</ele>
        <time>2024-09-18T14:47:11Z</time>
      </trkpt>
      <trkpt lat="46.44436" lon="4.91608">
        <ele>190.2</ele>
        <time>2024-09-18T14:47:12Z</time>
      </trkpt>
      <trkpt lat="46.44435" lon="4.91615">
        <ele>190.2</ele>
        <time>2024-09-18T14:47:13Z</time>
      </trkpt>
      <trkpt lat="46.44434" lon="4.91621">
        <ele>190.8</ele>
        <time>2024-09-18T14:47:14Z</time>
      </trkpt>
      <trkpt lat="46.44432" lon="4.91628">
        <ele>190.8</ele>
        <time>2024-09-18T14:47:15Z</time>
      </trkpt>
      <trkpt lat="46.44431" lon="4.91635">
        <ele>190.8</ele>
        <time>2024-09-18T14:47:16Z</time>
      </trkpt>
      <trkpt lat="46.4443" lon="4.91642">
        <ele>190.4</ele>
        <time>2024-09-18T14:47:17Z</time>
      </trkpt>
      <trkpt lat="46.44429" lon="4.91649">
        <ele>190.4</ele>
        <time>2024-09-18T14:47:18Z</time>
      </trkpt>
      <trkpt lat="46.44427" lon="4.91656">
        <ele>190.4</ele>
        <time>2024-09-18T14:47:19Z</time>
      </trkpt>
      <trkpt lat="46.44425" lon="4.91667">
        <ele>190.4</ele>
        <time>2024-09-18T14:47:20Z</time>
      </trkpt>
      <trkpt lat="46.44425" lon="4.9167">
        <ele>190.6</ele>
        <time>2024-09-18T14:47:21Z</time>
      </trkpt>
      <trkpt lat="46.44423" lon="4.91678">
        <ele>190.6</ele>
        <time>2024-09-18T14:47:22Z</time>
      </trkpt>
      <trkpt lat="46.44422" lon="4.91685">
        <ele>190.6</ele>
        <time>2024-09-18T14:47:23Z</time>
      </trkpt>
      <trkpt lat="46.44421" lon="4.91692">
        <ele>190.6</ele>
        <time>2024-09-18T14:47:24Z</time>
      </trkpt>
      <trkpt lat="46.4442" lon="4.91703">
        <ele>190.6</ele>
        <time>2024-09-18T14:47:25Z</time>
      </trkpt>
      <trkpt lat="46.44419" lon="4.91707">
        <ele>190.6</ele>
        <time>2024-09-18T14:47:26Z</time>
      </trkpt>
      <trkpt lat="46.44418" lon="4.91717">
        <ele>190.6</ele>
        <time>2024-09-18T14:47:27Z</time>
      </trkpt>
      <trkpt lat="46.44417" lon="4.91721">
        <ele>190.6</ele>
        <time>2024-09-18T14:47:28Z</time>
      </trkpt>
      <trkpt lat="46.44416" lon="4.91731">
        <ele>190.6</ele>
        <time>2024-09-18T14:47:29Z</time>
      </trkpt>
      <trkpt lat="46.44415" lon="4.91735">
        <ele>190.6</ele>
        <time>2024-09-18T14:47:30Z</time>
      </trkpt>
      <trkpt lat="46.44413" lon="4.91745">
        <ele>191</ele>
        <time>2024-09-18T14:47:31Z</time>
      </trkpt>
      <trkpt lat="46.44413" lon="4.91749">
        <ele>191</ele>
        <time>2024-09-18T14:47:32Z</time>
      </trkpt>
      <trkpt lat="46.44411" lon="4.9176">
        <ele>191</ele>
        <time>2024-09-18T14:47:33Z</time>
      </trkpt>
      <trkpt lat="46.44411" lon="4.91764">
        <ele>191</ele>
        <time>2024-09-18T14:47:34Z</time>
      </trkpt>
      <trkpt lat="46.4441" lon="4.91775">
        <ele>190.8</ele>
        <time>2024-09-18T14:47:35Z</time>
      </trkpt>
      <trkpt lat="46.44409" lon="4.91778">
        <ele>190.8</ele>
        <time>2024-09-18T14:47:36Z</time>
      </trkpt>
      <trkpt lat="46.44408" lon="4.91789">
        <ele>190.8</ele>
        <time>2024-09-18T14:47:37Z</time>
      </trkpt>
      <trkpt lat="46.44407" lon="4.91793">
        <ele>190.8</ele>
        <time>2024-09-18T14:47:38Z</time>
      </trkpt>
      <trkpt lat="46.44406" lon="4.918">
        <ele>191.2</ele>
        <time>2024-09-18T14:47:39Z</time>
      </trkpt>
      <trkpt lat="46.44405" lon="4.91807">
        <ele>190.8</ele>
        <time>2024-09-18T14:47:40Z</time>
      </trkpt>
      <trkpt lat="46.44404" lon="4.91814">
        <ele>190.8</ele>
        <time>2024-09-18T14:47:41Z</time>
      </trkpt>
      <trkpt lat="46.44403" lon="4.91821">
        <ele>190.8</ele>
        <time>2024-09-18T14:47:42Z</time>
      </trkpt>
      <trkpt lat="46.44402" lon="4.91827">
        <ele>191.4</ele>
        <time>2024-09-18T14:47:43Z</time>
      </trkpt>
      <trkpt lat="46.44401" lon="4.91834">
        <ele>191.6</ele>
        <time>2024-09-18T14:47:44Z</time>
      </trkpt>
      <trkpt lat="46.444" lon="4.91841">
        <ele>191.6</ele>
        <time>2024-09-18T14:47:45Z</time>
      </trkpt>
      <trkpt lat="46.44399" lon="4.91848">
        <ele>191.6</ele>
        <time>2024-09-18T14:47:46Z</time>
      </trkpt>
      <trkpt lat="46.44398" lon="4.91855">
        <ele>191.6</ele>
        <time>2024-09-18T14:47:47Z</time>
      </trkpt>
      <trkpt lat="46.44397" lon="4.91862">
        <ele>191.8</ele>
        <time>2024-09-18T14:47:48Z</time>
      </trkpt>
      <trkpt lat="46.44396" lon="4.91869">
        <ele>191.8</ele>
        <time>2024-09-18T14:47:49Z</time>
      </trkpt>
      <trkpt lat="46.44395" lon="4.91875">
        <ele>191.8</ele>
        <time>2024-09-18T14:47:50Z</time>
      </trkpt>
      <trkpt lat="46.44394" lon="4.91882">
        <ele>191.8</ele>
        <time>2024-09-18T14:47:51Z</time>
      </trkpt>
      <trkpt lat="46.44392" lon="4.91889">
        <ele>191.8</ele>
        <time>2024-09-18T14:47:52Z</time>
      </trkpt>
      <trkpt lat="46.44391" lon="4.91896">
        <ele>191.4</ele>
        <time>2024-09-18T14:47:53Z</time>
      </trkpt>
      <trkpt lat="46.4439" lon="4.91903">
        <ele>191.6</ele>
        <time>2024-09-18T14:47:54Z</time>
      </trkpt>
      <trkpt lat="46.44388" lon="4.9191">
        <ele>191.6</ele>
        <time>2024-09-18T14:47:55Z</time>
      </trkpt>
      <trkpt lat="46.44387" lon="4.91917">
        <ele>191.6</ele>
        <time>2024-09-18T14:47:56Z</time>
      </trkpt>
      <trkpt lat="46.44386" lon="4.91924">
        <ele>191.6</ele>
        <time>2024-09-18T14:47:57Z</time>
      </trkpt>
      <trkpt lat="46.44384" lon="4.91931">
        <ele>191.6</ele>
        <time>2024-09-18T14:47:58Z</time>
      </trkpt>
      <trkpt lat="46.44383" lon="4.91938">
        <ele>191.6</ele>
        <time>2024-09-18T14:47:59Z</time>
      </trkpt>
      <trkpt lat="46.44382" lon="4.91945">
        <ele>191.6</ele>
        <time>2024-09-18T14:48:00Z</time>
      </trkpt>
      <trkpt lat="46.44381" lon="4.91951">
        <ele>192</ele>
        <time>2024-09-18T14:48:01Z</time>
      </trkpt>
      <trkpt lat="46.4438" lon="4.91957">
        <ele>192</ele>
        <time>2024-09-18T14:48:02Z</time>
      </trkpt>
      <trkpt lat="46.44379" lon="4.91964">
        <ele>192.2</ele>
        <time>2024-09-18T14:48:03Z</time>
      </trkpt>
      <trkpt lat="46.44378" lon="4.91972">
        <ele>192.2</ele>
        <time>2024-09-18T14:48:04Z</time>
      </trkpt>
      <trkpt lat="46.44378" lon="4.91975">
        <ele>192.2</ele>
        <time>2024-09-18T14:48:05Z</time>
      </trkpt>
      <trkpt lat="46.44377" lon="4.91983">
        <ele>192.2</ele>
        <time>2024-09-18T14:48:06Z</time>
      </trkpt>
      <trkpt lat="46.44376" lon="4.91985">
        <ele>191.8</ele>
        <time>2024-09-18T14:48:07Z</time>
      </trkpt>
      <trkpt lat="46.44375" lon="4.91991">
        <ele>191.8</ele>
        <time>2024-09-18T14:48:08Z</time>
      </trkpt>
      <trkpt lat="46.44375" lon="4.91993">
        <ele>191.8</ele>
        <time>2024-09-18T14:48:09Z</time>
      </trkpt>
      <trkpt lat="46.44374" lon="4.91997">
        <ele>191.8</ele>
        <time>2024-09-18T14:48:10Z</time>
      </trkpt>
      <trkpt lat="46.44374" lon="4.91999">
        <ele>191.8</ele>
        <time>2024-09-18T14:48:11Z</time>
      </trkpt>
      <trkpt lat="46.44373" lon="4.92003">
        <ele>191.8</ele>
        <time>2024-09-18T14:48:12Z</time>
      </trkpt>
      <trkpt lat="46.44373" lon="4.92005">
        <ele>191.8</ele>
        <time>2024-09-18T14:48:13Z</time>
      </trkpt>
      <trkpt lat="46.44373" lon="4.92008">
        <ele>191.8</ele>
        <time>2024-09-18T14:48:14Z</time>
      </trkpt>
      <trkpt lat="46.44373" lon="4.9201">
        <ele>191.6</ele>
        <time>2024-09-18T14:48:15Z</time>
      </trkpt>
      <trkpt lat="46.44373" lon="4.92013">
        <ele>191.6</ele>
        <time>2024-09-18T14:48:16Z</time>
      </trkpt>
      <trkpt lat="46.44373" lon="4.92015">
        <ele>191.6</ele>
        <time>2024-09-18T14:48:17Z</time>
      </trkpt>
      <trkpt lat="46.44372" lon="4.92018">
        <ele>191.6</ele>
        <time>2024-09-18T14:48:18Z</time>
      </trkpt>
      <trkpt lat="46.4437" lon="4.92021">
        <ele>191.6</ele>
        <time>2024-09-18T14:48:19Z</time>
      </trkpt>
      <trkpt lat="46.4437" lon="4.92023">
        <ele>191.4</ele>
        <time>2024-09-18T14:48:20Z</time>
      </trkpt>
      <trkpt lat="46.4437" lon="4.92025">
        <ele>191.4</ele>
        <time>2024-09-18T14:48:21Z</time>
      </trkpt>
      <trkpt lat="46.44369" lon="4.92028">
        <ele>191.4</ele>
        <time>2024-09-18T14:48:22Z</time>
      </trkpt>
      <trkpt lat="46.44369" lon="4.92031">
        <ele>191.6</ele>
        <time>2024-09-18T14:48:23Z</time>
      </trkpt>
      <trkpt lat="46.44368" lon="4.92034">
        <ele>191.6</ele>
        <time>2024-09-18T14:48:24Z</time>
      </trkpt>
      <trkpt lat="46.44368" lon="4.92037">
        <ele>191.6</ele>
        <time>2024-09-18T14:48:25Z</time>
      </trkpt>
      <trkpt lat="46.44367" lon="4.92039">
        <ele>191.6</ele>
        <time>2024-09-18T14:48:26Z</time>
      </trkpt>
      <trkpt lat="46.44367" lon="4.92042">
        <ele>191.6</ele>
        <time>2024-09-18T14:48:27Z</time>
      </trkpt>
      <trkpt lat="46.44367" lon="4.92044">
        <ele>191.4</ele>
        <time>2024-09-18T14:48:28Z</time>
      </trkpt>
      <trkpt lat="46.44367" lon="4.92047">
        <ele>191.6</ele>
        <time>2024-09-18T14:48:29Z</time>
      </trkpt>
      <trkpt lat="46.44366" lon="4.92049">
        <ele>191.6</ele>
        <time>2024-09-18T14:48:30Z</time>
      </trkpt>
      <trkpt lat="46.44366" lon="4.9205">
        <ele>191.6</ele>
        <time>2024-09-18T14:48:31Z</time>
      </trkpt>
      <trkpt lat="46.44366" lon="4.9205">
        <ele>191.6</ele>
        <time>2024-09-18T14:48:32Z</time>
      </trkpt>
      <trkpt lat="46.44365" lon="4.92059">
        <ele>191.4</ele>
        <time>2024-09-18T14:48:42Z</time>
      </trkpt>
      <trkpt lat="46.44365" lon="4.92062">
        <ele>191.4</ele>
        <time>2024-09-18T14:48:43Z</time>
      </trkpt>
      <trkpt lat="46.44365" lon="4.92065">
        <ele>191.4</ele>
        <time>2024-09-18T14:48:44Z</time>
      </trkpt>
      <trkpt lat="46.44364" lon="4.92069">
        <ele>191.4</ele>
        <time>2024-09-18T14:48:45Z</time>
      </trkpt>
      <trkpt lat="46.44364" lon="4.92073">
        <ele>191.4</ele>
        <time>2024-09-18T14:48:46Z</time>
      </trkpt>
      <trkpt lat="46.44363" lon="4.92077">
        <ele>191.4</ele>
        <time>2024-09-18T14:48:47Z</time>
      </trkpt>
      <trkpt lat="46.44362" lon="4.92082">
        <ele>191.6</ele>
        <time>2024-09-18T14:48:48Z</time>
      </trkpt>
      <trkpt lat="46.44361" lon="4.92087">
        <ele>191.6</ele>
        <time>2024-09-18T14:48:49Z</time>
      </trkpt>
      <trkpt lat="46.4436" lon="4.92092">
        <ele>191.6</ele>
        <time>2024-09-18T14:48:50Z</time>
      </trkpt>
      <trkpt lat="46.44359" lon="4.92097">
        <ele>191.6</ele>
        <time>2024-09-18T14:48:51Z</time>
      </trkpt>
      <trkpt lat="46.44358" lon="4.92105">
        <ele>191.6</ele>
        <time>2024-09-18T14:48:52Z</time>
      </trkpt>
      <trkpt lat="46.44357" lon="4.92107">
        <ele>192</ele>
        <time>2024-09-18T14:48:53Z</time>
      </trkpt>
      <trkpt lat="46.44356" lon="4.92115">
        <ele>192</ele>
        <time>2024-09-18T14:48:54Z</time>
      </trkpt>
      <trkpt lat="46.44356" lon="4.92118">
        <ele>191.2</ele>
        <time>2024-09-18T14:48:55Z</time>
      </trkpt>
      <trkpt lat="46.44355" lon="4.92126">
        <ele>191.4</ele>
        <time>2024-09-18T14:48:56Z</time>
      </trkpt>
      <trkpt lat="46.44354" lon="4.92129">
        <ele>191.4</ele>
        <time>2024-09-18T14:48:57Z</time>
      </trkpt>
      <trkpt lat="46.44353" lon="4.92137">
        <ele>191.4</ele>
        <time>2024-09-18T14:48:58Z</time>
      </trkpt>
      <trkpt lat="46.44353" lon="4.9214">
        <ele>191.4</ele>
        <time>2024-09-18T14:48:59Z</time>
      </trkpt>
      <trkpt lat="46.44351" lon="4.92148">
        <ele>191.2</ele>
        <time>2024-09-18T14:49:00Z</time>
      </trkpt>
      <trkpt lat="46.44351" lon="4.9215">
        <ele>191.2</ele>
        <time>2024-09-18T14:49:01Z</time>
      </trkpt>
      <trkpt lat="46.4435" lon="4.92159">
        <ele>191</ele>
        <time>2024-09-18T14:49:02Z</time>
      </trkpt>
      <trkpt lat="46.44349" lon="4.92162">
        <ele>191</ele>
        <time>2024-09-18T14:49:03Z</time>
      </trkpt>
      <trkpt lat="46.44348" lon="4.9217">
        <ele>191</ele>
        <time>2024-09-18T14:49:04Z</time>
      </trkpt>
      <trkpt lat="46.44347" lon="4.92173">
        <ele>191.2</ele>
        <time>2024-09-18T14:49:05Z</time>
      </trkpt>
      <trkpt lat="46.44346" lon="4.92181">
        <ele>191.2</ele>
        <time>2024-09-18T14:49:06Z</time>
      </trkpt>
      <trkpt lat="46.44346" lon="4.92184">
        <ele>191.2</ele>
        <time>2024-09-18T14:49:07Z</time>
      </trkpt>
      <trkpt lat="46.44345" lon="4.9219">
        <ele>191.2</ele>
        <time>2024-09-18T14:49:08Z</time>
      </trkpt>
      <trkpt lat="46.44344" lon="4.92195">
        <ele>191.4</ele>
        <time>2024-09-18T14:49:09Z</time>
      </trkpt>
      <trkpt lat="46.44344" lon="4.92201">
        <ele>191.4</ele>
        <time>2024-09-18T14:49:10Z</time>
      </trkpt>
      <trkpt lat="46.44343" lon="4.92207">
        <ele>191.4</ele>
        <time>2024-09-18T14:49:11Z</time>
      </trkpt>
      <trkpt lat="46.44342" lon="4.92212">
        <ele>191.4</ele>
        <time>2024-09-18T14:49:12Z</time>
      </trkpt>
      <trkpt lat="46.44341" lon="4.92218">
        <ele>191.4</ele>
        <time>2024-09-18T14:49:13Z</time>
      </trkpt>
      <trkpt lat="46.4434" lon="4.92223">
        <ele>191.2</ele>
        <time>2024-09-18T14:49:14Z</time>
      </trkpt>
      <trkpt lat="46.44339" lon="4.92229">
        <ele>191.2</ele>
        <time>2024-09-18T14:49:15Z</time>
      </trkpt>
      <trkpt lat="46.44338" lon="4.92235">
        <ele>191.2</ele>
        <time>2024-09-18T14:49:16Z</time>
      </trkpt>
      <trkpt lat="46.44337" lon="4.92241">
        <ele>191</ele>
        <time>2024-09-18T14:49:17Z</time>
      </trkpt>
      <trkpt lat="46.44336" lon="4.92248">
        <ele>190.8</ele>
        <time>2024-09-18T14:49:18Z</time>
      </trkpt>
      <trkpt lat="46.44335" lon="4.92254">
        <ele>190.8</ele>
        <time>2024-09-18T14:49:19Z</time>
      </trkpt>
      <trkpt lat="46.44334" lon="4.9226">
        <ele>190.8</ele>
        <time>2024-09-18T14:49:20Z</time>
      </trkpt>
      <trkpt lat="46.44333" lon="4.92267">
        <ele>190.8</ele>
        <time>2024-09-18T14:49:21Z</time>
      </trkpt>
      <trkpt lat="46.44332" lon="4.92273">
        <ele>190.8</ele>
        <time>2024-09-18T14:49:22Z</time>
      </trkpt>
      <trkpt lat="46.44331" lon="4.9228">
        <ele>190.8</ele>
        <time>2024-09-18T14:49:23Z</time>
      </trkpt>
      <trkpt lat="46.44331" lon="4.92286">
        <ele>191.2</ele>
        <time>2024-09-18T14:49:24Z</time>
      </trkpt>
      <trkpt lat="46.44329" lon="4.92293">
        <ele>191.2</ele>
        <time>2024-09-18T14:49:25Z</time>
      </trkpt>
      <trkpt lat="46.44329" lon="4.92299">
        <ele>191.2</ele>
        <time>2024-09-18T14:49:26Z</time>
      </trkpt>
      <trkpt lat="46.44328" lon="4.92305">
        <ele>191</ele>
        <time>2024-09-18T14:49:27Z</time>
      </trkpt>
      <trkpt lat="46.44327" lon="4.92312">
        <ele>190.6</ele>
        <time>2024-09-18T14:49:28Z</time>
      </trkpt>
      <trkpt lat="46.44325" lon="4.92318">
        <ele>190.6</ele>
        <time>2024-09-18T14:49:29Z</time>
      </trkpt>
      <trkpt lat="46.44324" lon="4.92324">
        <ele>190.6</ele>
        <time>2024-09-18T14:49:30Z</time>
      </trkpt>
      <trkpt lat="46.44323" lon="4.9233">
        <ele>190.6</ele>
        <time>2024-09-18T14:49:31Z</time>
      </trkpt>
      <trkpt lat="46.44322" lon="4.92337">
        <ele>190.6</ele>
        <time>2024-09-18T14:49:32Z</time>
      </trkpt>
      <trkpt lat="46.4432" lon="4.92346">
        <ele>190.6</ele>
        <time>2024-09-18T14:49:33Z</time>
      </trkpt>
      <trkpt lat="46.4432" lon="4.92349">
        <ele>190.6</ele>
        <time>2024-09-18T14:49:34Z</time>
      </trkpt>
      <trkpt lat="46.44318" lon="4.92358">
        <ele>190.6</ele>
        <time>2024-09-18T14:49:35Z</time>
      </trkpt>
      <trkpt lat="46.44317" lon="4.92362">
        <ele>190.6</ele>
        <time>2024-09-18T14:49:36Z</time>
      </trkpt>
      <trkpt lat="46.44314" lon="4.92371">
        <ele>191.2</ele>
        <time>2024-09-18T14:49:37Z</time>
      </trkpt>
      <trkpt lat="46.44313" lon="4.92374">
        <ele>191.2</ele>
        <time>2024-09-18T14:49:38Z</time>
      </trkpt>
      <trkpt lat="46.44311" lon="4.92382">
        <ele>191.2</ele>
        <time>2024-09-18T14:49:39Z</time>
      </trkpt>
      <trkpt lat="46.4431" lon="4.92385">
        <ele>191.6</ele>
        <time>2024-09-18T14:49:40Z</time>
      </trkpt>
      <trkpt lat="46.44307" lon="4.92393">
        <ele>191.4</ele>
        <time>2024-09-18T14:49:41Z</time>
      </trkpt>
      <trkpt lat="46.44306" lon="4.92395">
        <ele>191.4</ele>
        <time>2024-09-18T14:49:42Z</time>
      </trkpt>
      <trkpt lat="46.44303" lon="4.92404">
        <ele>191.4</ele>
        <time>2024-09-18T14:49:43Z</time>
      </trkpt>
      <trkpt lat="46.44302" lon="4.92406">
        <ele>191.4</ele>
        <time>2024-09-18T14:49:44Z</time>
      </trkpt>
      <trkpt lat="46.44299" lon="4.92414">
        <ele>191.8</ele>
        <time>2024-09-18T14:49:45Z</time>
      </trkpt>
      <trkpt lat="46.44299" lon="4.92417">
        <ele>191.8</ele>
        <time>2024-09-18T14:49:46Z</time>
      </trkpt>
      <trkpt lat="46.44296" lon="4.92424">
        <ele>191.8</ele>
        <time>2024-09-18T14:49:47Z</time>
      </trkpt>
      <trkpt lat="46.44295" lon="4.92427">
        <ele>191.8</ele>
        <time>2024-09-18T14:49:48Z</time>
      </trkpt>
      <trkpt lat="46.44292" lon="4.92434">
        <ele>191.8</ele>
        <time>2024-09-18T14:49:49Z</time>
      </trkpt>
      <trkpt lat="46.44292" lon="4.92437">
        <ele>191.8</ele>
        <time>2024-09-18T14:49:50Z</time>
      </trkpt>
      <trkpt lat="46.4429" lon="4.92441">
        <ele>191.8</ele>
        <time>2024-09-18T14:49:51Z</time>
      </trkpt>
      <trkpt lat="46.44289" lon="4.92444">
        <ele>191.8</ele>
        <time>2024-09-18T14:49:52Z</time>
      </trkpt>
      <trkpt lat="46.44288" lon="4.92447">
        <ele>191.8</ele>
        <time>2024-09-18T14:49:53Z</time>
      </trkpt>
      <trkpt lat="46.44287" lon="4.92448">
        <ele>191.8</ele>
        <time>2024-09-18T14:49:54Z</time>
      </trkpt>
      <trkpt lat="46.44286" lon="4.9245">
        <ele>191.8</ele>
        <time>2024-09-18T14:49:55Z</time>
      </trkpt>
      <trkpt lat="46.44286" lon="4.9245">
        <ele>191.8</ele>
        <time>2024-09-18T14:49:56Z</time>
      </trkpt>
      <trkpt lat="46.44286" lon="4.92451">
        <ele>191.8</ele>
        <time>2024-09-18T14:49:57Z</time>
      </trkpt>
      <trkpt lat="46.44285" lon="4.92451">
        <ele>192</ele>
        <time>2024-09-18T14:49:58Z</time>
      </trkpt>
      <trkpt lat="46.44285" lon="4.9245">
        <ele>192</ele>
        <time>2024-09-18T14:49:59Z</time>
      </trkpt>
      <trkpt lat="46.44284" lon="4.92448">
        <ele>192</ele>
        <time>2024-09-18T14:50:00Z</time>
      </trkpt>
      <trkpt lat="46.44283" lon="4.92447">
        <ele>192</ele>
        <time>2024-09-18T14:50:01Z</time>
      </trkpt>
      <trkpt lat="46.44282" lon="4.92446">
        <ele>192</ele>
        <time>2024-09-18T14:50:02Z</time>
      </trkpt>
      <trkpt lat="46.44281" lon="4.92445">
        <ele>192</ele>
        <time>2024-09-18T14:50:03Z</time>
      </trkpt>
      <trkpt lat="46.44281" lon="4.92445">
        <ele>192</ele>
        <time>2024-09-18T14:50:04Z</time>
      </trkpt>
      <trkpt lat="46.44277" lon="4.92445">
        <ele>191.4</ele>
        <time>2024-09-18T14:51:25Z</time>
      </trkpt>
      <trkpt lat="46.44276" lon="4.92447">
        <ele>191.4</ele>
        <time>2024-09-18T14:51:26Z</time>
      </trkpt>
      <trkpt lat="46.44276" lon="4.9245">
        <ele>191.4</ele>
        <time>2024-09-18T14:51:27Z</time>
      </trkpt>
      <trkpt lat="46.44277" lon="4.92452">
        <ele>191.4</ele>
        <time>2024-09-18T14:51:28Z</time>
      </trkpt>
      <trkpt lat="46.44278" lon="4.92453">
        <ele>191.4</ele>
        <time>2024-09-18T14:51:29Z</time>
      </trkpt>
      <trkpt lat="46.4428" lon="4.92455">
        <ele>191.4</ele>
        <time>2024-09-18T14:51:30Z</time>
      </trkpt>
      <trkpt lat="46.44282" lon="4.92457">
        <ele>191.4</ele>
        <time>2024-09-18T14:51:31Z</time>
      </trkpt>
      <trkpt lat="46.44283" lon="4.92458">
        <ele>191.6</ele>
        <time>2024-09-18T14:51:32Z</time>
      </trkpt>
      <trkpt lat="46.44283" lon="4.9246">
        <ele>191.6</ele>
        <time>2024-09-18T14:51:33Z</time>
      </trkpt>
      <trkpt lat="46.44283" lon="4.92461">
        <ele>191.6</ele>
        <time>2024-09-18T14:51:34Z</time>
      </trkpt>
      <trkpt lat="46.44284" lon="4.92462">
        <ele>191.6</ele>
        <time>2024-09-18T14:51:35Z</time>
      </trkpt>
      <trkpt lat="46.44283" lon="4.92463">
        <ele>191.8</ele>
        <time>2024-09-18T14:51:36Z</time>
      </trkpt>
      <trkpt lat="46.44283" lon="4.92465">
        <ele>191.8</ele>
        <time>2024-09-18T14:51:37Z</time>
      </trkpt>
      <trkpt lat="46.44282" lon="4.92466">
        <ele>191.8</ele>
        <time>2024-09-18T14:51:38Z</time>
      </trkpt>
      <trkpt lat="46.44282" lon="4.92466">
        <ele>191.6</ele>
        <time>2024-09-18T14:51:39Z</time>
      </trkpt>
      <trkpt lat="46.44281" lon="4.92466">
        <ele>191.8</ele>
        <time>2024-09-18T14:51:40Z</time>
      </trkpt>
      <trkpt lat="46.44281" lon="4.92466">
        <ele>191.8</ele>
        <time>2024-09-18T14:51:41Z</time>
      </trkpt>
      <trkpt lat="46.44279" lon="4.92474">
        <ele>192</ele>
        <time>2024-09-18T14:52:44Z</time>
      </trkpt>
      <trkpt lat="46.44278" lon="4.92477">
        <ele>192</ele>
        <time>2024-09-18T14:52:45Z</time>
      </trkpt>
      <trkpt lat="46.44277" lon="4.9248">
        <ele>192</ele>
        <time>2024-09-18T14:52:46Z</time>
      </trkpt>
      <trkpt lat="46.44277" lon="4.92483">
        <ele>192</ele>
        <time>2024-09-18T14:52:47Z</time>
      </trkpt>
      <trkpt lat="46.44276" lon="4.92487">
        <ele>192</ele>
        <time>2024-09-18T14:52:48Z</time>
      </trkpt>
      <trkpt lat="46.44275" lon="4.9249">
        <ele>192</ele>
        <time>2024-09-18T14:52:49Z</time>
      </trkpt>
      <trkpt lat="46.44274" lon="4.92494">
        <ele>191.8</ele>
        <time>2024-09-18T14:52:50Z</time>
      </trkpt>
      <trkpt lat="46.44273" lon="4.92498">
        <ele>191.8</ele>
        <time>2024-09-18T14:52:51Z</time>
      </trkpt>
      <trkpt lat="46.44271" lon="4.92502">
        <ele>191.8</ele>
        <time>2024-09-18T14:52:52Z</time>
      </trkpt>
      <trkpt lat="46.4427" lon="4.92505">
        <ele>191.4</ele>
        <time>2024-09-18T14:52:53Z</time>
      </trkpt>
      <trkpt lat="46.44269" lon="4.9251">
        <ele>191.6</ele>
        <time>2024-09-18T14:52:54Z</time>
      </trkpt>
      <trkpt lat="46.44267" lon="4.92514">
        <ele>191.6</ele>
        <time>2024-09-18T14:52:55Z</time>
      </trkpt>
      <trkpt lat="46.44266" lon="4.92518">
        <ele>191.6</ele>
        <time>2024-09-18T14:52:56Z</time>
      </trkpt>
      <trkpt lat="46.44264" lon="4.92522">
        <ele>191.6</ele>
        <time>2024-09-18T14:52:57Z</time>
      </trkpt>
      <trkpt lat="46.44262" lon="4.92525">
        <ele>191.6</ele>
        <time>2024-09-18T14:52:58Z</time>
      </trkpt>
      <trkpt lat="46.44261" lon="4.92529">
        <ele>191.8</ele>
        <time>2024-09-18T14:52:59Z</time>
      </trkpt>
      <trkpt lat="46.44259" lon="4.92533">
        <ele>191.8</ele>
        <time>2024-09-18T14:53:00Z</time>
      </trkpt>
      <trkpt lat="46.44257" lon="4.92538">
        <ele>191.8</ele>
        <time>2024-09-18T14:53:01Z</time>
      </trkpt>
      <trkpt lat="46.44256" lon="4.92542">
        <ele>191.8</ele>
        <time>2024-09-18T14:53:02Z</time>
      </trkpt>
      <trkpt lat="46.44254" lon="4.92546">
        <ele>191</ele>
        <time>2024-09-18T14:53:03Z</time>
      </trkpt>
      <trkpt lat="46.44252" lon="4.9255">
        <ele>191.6</ele>
        <time>2024-09-18T14:53:04Z</time>
      </trkpt>
      <trkpt lat="46.4425" lon="4.92554">
        <ele>191.6</ele>
        <time>2024-09-18T14:53:05Z</time>
      </trkpt>
      <trkpt lat="46.44248" lon="4.92558">
        <ele>191.6</ele>
        <time>2024-09-18T14:53:06Z</time>
      </trkpt>
      <trkpt lat="46.44246" lon="4.92562">
        <ele>191.2</ele>
        <time>2024-09-18T14:53:07Z</time>
      </trkpt>
      <trkpt lat="46.44244" lon="4.92565">
        <ele>190.6</ele>
        <time>2024-09-18T14:53:08Z</time>
      </trkpt>
      <trkpt lat="46.44242" lon="4.92568">
        <ele>190.6</ele>
        <time>2024-09-18T14:53:09Z</time>
      </trkpt>
      <trkpt lat="46.44241" lon="4.92572">
        <ele>190.6</ele>
        <time>2024-09-18T14:53:10Z</time>
      </trkpt>
      <trkpt lat="46.44239" lon="4.92576">
        <ele>190.6</ele>
        <time>2024-09-18T14:53:11Z</time>
      </trkpt>
      <trkpt lat="46.44236" lon="4.92582">
        <ele>191.2</ele>
        <time>2024-09-18T14:53:12Z</time>
      </trkpt>
      <trkpt lat="46.44235" lon="4.92584">
        <ele>190.8</ele>
        <time>2024-09-18T14:53:13Z</time>
      </trkpt>
      <trkpt lat="46.44232" lon="4.92589">
        <ele>190.8</ele>
        <time>2024-09-18T14:53:14Z</time>
      </trkpt>
      <trkpt lat="46.44231" lon="4.9259">
        <ele>190.8</ele>
        <time>2024-09-18T14:53:15Z</time>
      </trkpt>
      <trkpt lat="46.44228" lon="4.92595">
        <ele>191</ele>
        <time>2024-09-18T14:53:16Z</time>
      </trkpt>
      <trkpt lat="46.44227" lon="4.92597">
        <ele>191.2</ele>
        <time>2024-09-18T14:53:17Z</time>
      </trkpt>
      <trkpt lat="46.44224" lon="4.92602">
        <ele>191.2</ele>
        <time>2024-09-18T14:53:18Z</time>
      </trkpt>
      <trkpt lat="46.44223" lon="4.92604">
        <ele>191.2</ele>
        <time>2024-09-18T14:53:19Z</time>
      </trkpt>
      <trkpt lat="46.4422" lon="4.9261">
        <ele>191.2</ele>
        <time>2024-09-18T14:53:20Z</time>
      </trkpt>
      <trkpt lat="46.44219" lon="4.92612">
        <ele>191.2</ele>
        <time>2024-09-18T14:53:21Z</time>
      </trkpt>
      <trkpt lat="46.44216" lon="4.92619">
        <ele>191</ele>
        <time>2024-09-18T14:53:22Z</time>
      </trkpt>
      <trkpt lat="46.44214" lon="4.92621">
        <ele>191</ele>
        <time>2024-09-18T14:53:23Z</time>
      </trkpt>
      <trkpt lat="46.4421" lon="4.92626">
        <ele>191</ele>
        <time>2024-09-18T14:53:24Z</time>
      </trkpt>
      <trkpt lat="46.44209" lon="4.92628">
        <ele>191</ele>
        <time>2024-09-18T14:53:25Z</time>
      </trkpt>
      <trkpt lat="46.44205" lon="4.92634">
        <ele>191</ele>
        <time>2024-09-18T14:53:26Z</time>
      </trkpt>
      <trkpt lat="46.44204" lon="4.92637">
        <ele>191</ele>
        <time>2024-09-18T14:53:27Z</time>
      </trkpt>
      <trkpt lat="46.44201" lon="4.92644">
        <ele>191</ele>
        <time>2024-09-18T14:53:28Z</time>
      </trkpt>
      <trkpt lat="46.442" lon="4.92646">
        <ele>191</ele>
        <time>2024-09-18T14:53:29Z</time>
      </trkpt>
      <trkpt lat="46.44197" lon="4.9265">
        <ele>191</ele>
        <time>2024-09-18T14:53:30Z</time>
      </trkpt>
      <trkpt lat="46.44195" lon="4.92654">
        <ele>191.2</ele>
        <time>2024-09-18T14:53:31Z</time>
      </trkpt>
      <trkpt lat="46.44193" lon="4.92658">
        <ele>191.2</ele>
        <time>2024-09-18T14:53:32Z</time>
      </trkpt>
      <trkpt lat="46.4419" lon="4.92662">
        <ele>191.2</ele>
        <time>2024-09-18T14:53:33Z</time>
      </trkpt>
      <trkpt lat="46.44188" lon="4.92667">
        <ele>191.2</ele>
        <time>2024-09-18T14:53:34Z</time>
      </trkpt>
      <trkpt lat="46.44186" lon="4.9267">
        <ele>191</ele>
        <time>2024-09-18T14:53:35Z</time>
      </trkpt>
      <trkpt lat="46.44183" lon="4.92674">
        <ele>191</ele>
        <time>2024-09-18T14:53:36Z</time>
      </trkpt>
      <trkpt lat="46.44181" lon="4.92678">
        <ele>191</ele>
        <time>2024-09-18T14:53:37Z</time>
      </trkpt>
      <trkpt lat="46.44179" lon="4.92682">
        <ele>191</ele>
        <time>2024-09-18T14:53:38Z</time>
      </trkpt>
      <trkpt lat="46.44176" lon="4.92686">
        <ele>191</ele>
        <time>2024-09-18T14:53:39Z</time>
      </trkpt>
      <trkpt lat="46.44174" lon="4.92689">
        <ele>191.2</ele>
        <time>2024-09-18T14:53:40Z</time>
      </trkpt>
      <trkpt lat="46.44172" lon="4.92693">
        <ele>191.2</ele>
        <time>2024-09-18T14:53:41Z</time>
      </trkpt>
      <trkpt lat="46.4417" lon="4.92697">
        <ele>191.2</ele>
        <time>2024-09-18T14:53:42Z</time>
      </trkpt>
      <trkpt lat="46.44168" lon="4.92701">
        <ele>191.2</ele>
        <time>2024-09-18T14:53:43Z</time>
      </trkpt>
      <trkpt lat="46.44166" lon="4.92704">
        <ele>191.2</ele>
        <time>2024-09-18T14:53:44Z</time>
      </trkpt>
      <trkpt lat="46.44164" lon="4.92708">
        <ele>191.4</ele>
        <time>2024-09-18T14:53:45Z</time>
      </trkpt>
      <trkpt lat="46.44161" lon="4.92712">
        <ele>191.4</ele>
        <time>2024-09-18T14:53:46Z</time>
      </trkpt>
      <trkpt lat="46.44159" lon="4.92716">
        <ele>191.4</ele>
        <time>2024-09-18T14:53:47Z</time>
      </trkpt>
      <trkpt lat="46.44156" lon="4.9272">
        <ele>191.2</ele>
        <time>2024-09-18T14:53:48Z</time>
      </trkpt>
      <trkpt lat="46.44153" lon="4.92725">
        <ele>191.4</ele>
        <time>2024-09-18T14:53:49Z</time>
      </trkpt>
      <trkpt lat="46.4415" lon="4.92729">
        <ele>191.4</ele>
        <time>2024-09-18T14:53:50Z</time>
      </trkpt>
      <trkpt lat="46.44147" lon="4.92734">
        <ele>191.4</ele>
        <time>2024-09-18T14:53:51Z</time>
      </trkpt>
      <trkpt lat="46.44144" lon="4.92738">
        <ele>191</ele>
        <time>2024-09-18T14:53:52Z</time>
      </trkpt>
      <trkpt lat="46.4414" lon="4.92744">
        <ele>191</ele>
        <time>2024-09-18T14:53:53Z</time>
      </trkpt>
      <trkpt lat="46.44138" lon="4.92746">
        <ele>191</ele>
        <time>2024-09-18T14:53:54Z</time>
      </trkpt>
      <trkpt lat="46.44134" lon="4.92752">
        <ele>191</ele>
        <time>2024-09-18T14:53:55Z</time>
      </trkpt>
      <trkpt lat="46.44133" lon="4.92754">
        <ele>191</ele>
        <time>2024-09-18T14:53:56Z</time>
      </trkpt>
      <trkpt lat="46.44129" lon="4.9276">
        <ele>191</ele>
        <time>2024-09-18T14:53:57Z</time>
      </trkpt>
      <trkpt lat="46.44127" lon="4.92761">
        <ele>191.2</ele>
        <time>2024-09-18T14:53:58Z</time>
      </trkpt>
      <trkpt lat="46.44122" lon="4.92767">
        <ele>191.2</ele>
        <time>2024-09-18T14:53:59Z</time>
      </trkpt>
      <trkpt lat="46.44121" lon="4.9277">
        <ele>191.2</ele>
        <time>2024-09-18T14:54:00Z</time>
      </trkpt>
      <trkpt lat="46.44116" lon="4.92776">
        <ele>191.2</ele>
        <time>2024-09-18T14:54:01Z</time>
      </trkpt>
      <trkpt lat="46.44115" lon="4.92778">
        <ele>191.2</ele>
        <time>2024-09-18T14:54:02Z</time>
      </trkpt>
      <trkpt lat="46.44111" lon="4.92784">
        <ele>191.2</ele>
        <time>2024-09-18T14:54:03Z</time>
      </trkpt>
      <trkpt lat="46.44109" lon="4.92787">
        <ele>191.2</ele>
        <time>2024-09-18T14:54:04Z</time>
      </trkpt>
      <trkpt lat="46.44104" lon="4.92792">
        <ele>191.2</ele>
        <time>2024-09-18T14:54:05Z</time>
      </trkpt>
      <trkpt lat="46.44103" lon="4.92794">
        <ele>191.2</ele>
        <time>2024-09-18T14:54:06Z</time>
      </trkpt>
      <trkpt lat="46.44098" lon="4.928">
        <ele>191.2</ele>
        <time>2024-09-18T14:54:07Z</time>
      </trkpt>
      <trkpt lat="46.44096" lon="4.92802">
        <ele>191.2</ele>
        <time>2024-09-18T14:54:08Z</time>
      </trkpt>
      <trkpt lat="46.44091" lon="4.92808">
        <ele>191.2</ele>
        <time>2024-09-18T14:54:09Z</time>
      </trkpt>
      <trkpt lat="46.44089" lon="4.9281">
        <ele>191.2</ele>
        <time>2024-09-18T14:54:10Z</time>
      </trkpt>
      <trkpt lat="46.44086" lon="4.92814">
        <ele>191</ele>
        <time>2024-09-18T14:54:11Z</time>
      </trkpt>
      <trkpt lat="46.44083" lon="4.92818">
        <ele>191</ele>
        <time>2024-09-18T14:54:12Z</time>
      </trkpt>
      <trkpt lat="46.44079" lon="4.92822">
        <ele>191</ele>
        <time>2024-09-18T14:54:13Z</time>
      </trkpt>
      <trkpt lat="46.44076" lon="4.92825">
        <ele>191.4</ele>
        <time>2024-09-18T14:54:14Z</time>
      </trkpt>
      <trkpt lat="46.44072" lon="4.92829">
        <ele>191.4</ele>
        <time>2024-09-18T14:54:15Z</time>
      </trkpt>
      <trkpt lat="46.44069" lon="4.92832">
        <ele>190.8</ele>
        <time>2024-09-18T14:54:16Z</time>
      </trkpt>
      <trkpt lat="46.44066" lon="4.92835">
        <ele>190.8</ele>
        <time>2024-09-18T14:54:17Z</time>
      </trkpt>
      <trkpt lat="46.44062" lon="4.92838">
        <ele>190.8</ele>
        <time>2024-09-18T14:54:18Z</time>
      </trkpt>
      <trkpt lat="46.44057" lon="4.92842">
        <ele>190.8</ele>
        <time>2024-09-18T14:54:19Z</time>
      </trkpt>
      <trkpt lat="46.44056" lon="4.92844">
        <ele>190.8</ele>
        <time>2024-09-18T14:54:20Z</time>
      </trkpt>
      <trkpt lat="46.44053" lon="4.92847">
        <ele>191.4</ele>
        <time>2024-09-18T14:54:21Z</time>
      </trkpt>
      <trkpt lat="46.4405" lon="4.9285">
        <ele>191.4</ele>
        <time>2024-09-18T14:54:22Z</time>
      </trkpt>
      <trkpt lat="46.44046" lon="4.92853">
        <ele>191.4</ele>
        <time>2024-09-18T14:54:23Z</time>
      </trkpt>
      <trkpt lat="46.44043" lon="4.92856">
        <ele>191.2</ele>
        <time>2024-09-18T14:54:24Z</time>
      </trkpt>
      <trkpt lat="46.4404" lon="4.92859">
        <ele>191.2</ele>
        <time>2024-09-18T14:54:25Z</time>
      </trkpt>
      <trkpt lat="46.44036" lon="4.92862">
        <ele>191.2</ele>
        <time>2024-09-18T14:54:26Z</time>
      </trkpt>
      <trkpt lat="46.44032" lon="4.92865">
        <ele>191.2</ele>
        <time>2024-09-18T14:54:27Z</time>
      </trkpt>
      <trkpt lat="46.44029" lon="4.92867">
        <ele>191.2</ele>
        <time>2024-09-18T14:54:28Z</time>
      </trkpt>
      <trkpt lat="46.44025" lon="4.9287">
        <ele>191.2</ele>
        <time>2024-09-18T14:54:29Z</time>
      </trkpt>
      <trkpt lat="46.44022" lon="4.92873">
        <ele>191</ele>
        <time>2024-09-18T14:54:30Z</time>
      </trkpt>
      <trkpt lat="46.44018" lon="4.92876">
        <ele>191</ele>
        <time>2024-09-18T14:54:31Z</time>
      </trkpt>
      <trkpt lat="46.44015" lon="4.92878">
        <ele>191</ele>
        <time>2024-09-18T14:54:32Z</time>
      </trkpt>
      <trkpt lat="46.44011" lon="4.9288">
        <ele>191</ele>
        <time>2024-09-18T14:54:33Z</time>
      </trkpt>
      <trkpt lat="46.44007" lon="4.92883">
        <ele>191</ele>
        <time>2024-09-18T14:54:34Z</time>
      </trkpt>
      <trkpt lat="46.44004" lon="4.92885">
        <ele>191</ele>
        <time>2024-09-18T14:54:35Z</time>
      </trkpt>
      <trkpt lat="46.44" lon="4.92888">
        <ele>191</ele>
        <time>2024-09-18T14:54:36Z</time>
      </trkpt>
      <trkpt lat="46.43997" lon="4.92892">
        <ele>191</ele>
        <time>2024-09-18T14:54:37Z</time>
      </trkpt>
      <trkpt lat="46.43993" lon="4.92894">
        <ele>191</ele>
        <time>2024-09-18T14:54:38Z</time>
      </trkpt>
      <trkpt lat="46.43987" lon="4.92899">
        <ele>191</ele>
        <time>2024-09-18T14:54:39Z</time>
      </trkpt>
      <trkpt lat="46.43986" lon="4.929">
        <ele>191</ele>
        <time>2024-09-18T14:54:40Z</time>
      </trkpt>
      <trkpt lat="46.4398" lon="4.92905">
        <ele>191</ele>
        <time>2024-09-18T14:54:41Z</time>
      </trkpt>
      <trkpt lat="46.43978" lon="4.92906">
        <ele>191</ele>
        <time>2024-09-18T14:54:42Z</time>
      </trkpt>
      <trkpt lat="46.43972" lon="4.9291">
        <ele>191.2</ele>
        <time>2024-09-18T14:54:43Z</time>
      </trkpt>
      <trkpt lat="46.4397" lon="4.92912">
        <ele>191.2</ele>
        <time>2024-09-18T14:54:44Z</time>
      </trkpt>
      <trkpt lat="46.43964" lon="4.92916">
        <ele>191.2</ele>
        <time>2024-09-18T14:54:45Z</time>
      </trkpt>
      <trkpt lat="46.43962" lon="4.92918">
        <ele>191.2</ele>
        <time>2024-09-18T14:54:46Z</time>
      </trkpt>
      <trkpt lat="46.43958" lon="4.9292">
        <ele>191.6</ele>
        <time>2024-09-18T14:54:47Z</time>
      </trkpt>
      <trkpt lat="46.43954" lon="4.92923">
        <ele>191.6</ele>
        <time>2024-09-18T14:54:48Z</time>
      </trkpt>
      <trkpt lat="46.43948" lon="4.92927">
        <ele>191.6</ele>
        <time>2024-09-18T14:54:49Z</time>
      </trkpt>
      <trkpt lat="46.43946" lon="4.92929">
        <ele>191.2</ele>
        <time>2024-09-18T14:54:50Z</time>
      </trkpt>
      <trkpt lat="46.43941" lon="4.92933">
        <ele>191</ele>
        <time>2024-09-18T14:54:51Z</time>
      </trkpt>
      <trkpt lat="46.43939" lon="4.92934">
        <ele>191</ele>
        <time>2024-09-18T14:54:52Z</time>
      </trkpt>
      <trkpt lat="46.43933" lon="4.92938">
        <ele>191</ele>
        <time>2024-09-18T14:54:53Z</time>
      </trkpt>
      <trkpt lat="46.43931" lon="4.9294">
        <ele>191</ele>
        <time>2024-09-18T14:54:54Z</time>
      </trkpt>
      <trkpt lat="46.43927" lon="4.92943">
        <ele>191</ele>
        <time>2024-09-18T14:54:55Z</time>
      </trkpt>
      <trkpt lat="46.43923" lon="4.92945">
        <ele>191</ele>
        <time>2024-09-18T14:54:56Z</time>
      </trkpt>
      <trkpt lat="46.4392" lon="4.92948">
        <ele>191</ele>
        <time>2024-09-18T14:54:57Z</time>
      </trkpt>
      <trkpt lat="46.43916" lon="4.92951">
        <ele>191</ele>
        <time>2024-09-18T14:54:58Z</time>
      </trkpt>
      <trkpt lat="46.43912" lon="4.92953">
        <ele>191</ele>
        <time>2024-09-18T14:54:59Z</time>
      </trkpt>
      <trkpt lat="46.43908" lon="4.92956">
        <ele>190.8</ele>
        <time>2024-09-18T14:55:00Z</time>
      </trkpt>
      <trkpt lat="46.43905" lon="4.92958">
        <ele>190.8</ele>
        <time>2024-09-18T14:55:01Z</time>
      </trkpt>
      <trkpt lat="46.43902" lon="4.9296">
        <ele>190.8</ele>
        <time>2024-09-18T14:55:02Z</time>
      </trkpt>
      <trkpt lat="46.43898" lon="4.92962">
        <ele>190.6</ele>
        <time>2024-09-18T14:55:03Z</time>
      </trkpt>
      <trkpt lat="46.43895" lon="4.92965">
        <ele>190.8</ele>
        <time>2024-09-18T14:55:04Z</time>
      </trkpt>
      <trkpt lat="46.43891" lon="4.92969">
        <ele>190.8</ele>
        <time>2024-09-18T14:55:05Z</time>
      </trkpt>
      <trkpt lat="46.43887" lon="4.92971">
        <ele>190.8</ele>
        <time>2024-09-18T14:55:06Z</time>
      </trkpt>
      <trkpt lat="46.43883" lon="4.92974">
        <ele>190.8</ele>
        <time>2024-09-18T14:55:07Z</time>
      </trkpt>
      <trkpt lat="46.43879" lon="4.92977">
        <ele>191.2</ele>
        <time>2024-09-18T14:55:08Z</time>
      </trkpt>
      <trkpt lat="46.43875" lon="4.9298">
        <ele>191.2</ele>
        <time>2024-09-18T14:55:09Z</time>
      </trkpt>
      <trkpt lat="46.43872" lon="4.92983">
        <ele>191.2</ele>
        <time>2024-09-18T14:55:10Z</time>
      </trkpt>
      <trkpt lat="46.43868" lon="4.92985">
        <ele>191.2</ele>
        <time>2024-09-18T14:55:11Z</time>
      </trkpt>
      <trkpt lat="46.43864" lon="4.92988">
        <ele>191.2</ele>
        <time>2024-09-18T14:55:12Z</time>
      </trkpt>
      <trkpt lat="46.4386" lon="4.92991">
        <ele>191.2</ele>
        <time>2024-09-18T14:55:13Z</time>
      </trkpt>
      <trkpt lat="46.43856" lon="4.92994">
        <ele>190.8</ele>
        <time>2024-09-18T14:55:14Z</time>
      </trkpt>
      <trkpt lat="46.43852" lon="4.92996">
        <ele>190.8</ele>
        <time>2024-09-18T14:55:15Z</time>
      </trkpt>
      <trkpt lat="46.43848" lon="4.93">
        <ele>190.8</ele>
        <time>2024-09-18T14:55:16Z</time>
      </trkpt>
      <trkpt lat="46.43844" lon="4.93002">
        <ele>190.8</ele>
        <time>2024-09-18T14:55:17Z</time>
      </trkpt>
      <trkpt lat="46.43841" lon="4.93005">
        <ele>191</ele>
        <time>2024-09-18T14:55:18Z</time>
      </trkpt>
      <trkpt lat="46.43835" lon="4.9301">
        <ele>191</ele>
        <time>2024-09-18T14:55:19Z</time>
      </trkpt>
      <trkpt lat="46.43833" lon="4.93012">
        <ele>191</ele>
        <time>2024-09-18T14:55:20Z</time>
      </trkpt>
      <trkpt lat="46.43827" lon="4.93017">
        <ele>190.6</ele>
        <time>2024-09-18T14:55:21Z</time>
      </trkpt>
      <trkpt lat="46.43825" lon="4.93019">
        <ele>190.8</ele>
        <time>2024-09-18T14:55:22Z</time>
      </trkpt>
      <trkpt lat="46.43819" lon="4.93023">
        <ele>190.8</ele>
        <time>2024-09-18T14:55:23Z</time>
      </trkpt>
      <trkpt lat="46.43817" lon="4.93024">
        <ele>190.8</ele>
        <time>2024-09-18T14:55:24Z</time>
      </trkpt>
      <trkpt lat="46.43811" lon="4.93028">
        <ele>190.8</ele>
        <time>2024-09-18T14:55:25Z</time>
      </trkpt>
      <trkpt lat="46.43809" lon="4.93029">
        <ele>190.8</ele>
        <time>2024-09-18T14:55:26Z</time>
      </trkpt>
      <trkpt lat="46.43803" lon="4.93033">
        <ele>190.8</ele>
        <time>2024-09-18T14:55:27Z</time>
      </trkpt>
      <trkpt lat="46.43801" lon="4.93035">
        <ele>190.8</ele>
        <time>2024-09-18T14:55:28Z</time>
      </trkpt>
      <trkpt lat="46.43795" lon="4.93039">
        <ele>190.8</ele>
        <time>2024-09-18T14:55:29Z</time>
      </trkpt>
      <trkpt lat="46.43793" lon="4.9304">
        <ele>190.8</ele>
        <time>2024-09-18T14:55:30Z</time>
      </trkpt>
      <trkpt lat="46.43787" lon="4.93044">
        <ele>190.8</ele>
        <time>2024-09-18T14:55:31Z</time>
      </trkpt>
      <trkpt lat="46.43785" lon="4.93046">
        <ele>190.8</ele>
        <time>2024-09-18T14:55:32Z</time>
      </trkpt>
      <trkpt lat="46.43779" lon="4.93049">
        <ele>190.8</ele>
        <time>2024-09-18T14:55:33Z</time>
      </trkpt>
      <trkpt lat="46.43777" lon="4.93051">
        <ele>190.8</ele>
        <time>2024-09-18T14:55:34Z</time>
      </trkpt>
      <trkpt lat="46.43771" lon="4.93055">
        <ele>190.6</ele>
        <time>2024-09-18T14:55:35Z</time>
      </trkpt>
      <trkpt lat="46.43769" lon="4.93057">
        <ele>190.6</ele>
        <time>2024-09-18T14:55:36Z</time>
      </trkpt>
      <trkpt lat="46.43765" lon="4.9306">
        <ele>190.6</ele>
        <time>2024-09-18T14:55:37Z</time>
      </trkpt>
      <trkpt lat="46.43761" lon="4.93063">
        <ele>190.6</ele>
        <time>2024-09-18T14:55:38Z</time>
      </trkpt>
      <trkpt lat="46.43757" lon="4.93066">
        <ele>190.4</ele>
        <time>2024-09-18T14:55:39Z</time>
      </trkpt>
      <trkpt lat="46.43753" lon="4.93069">
        <ele>190.6</ele>
        <time>2024-09-18T14:55:40Z</time>
      </trkpt>
      <trkpt lat="46.43749" lon="4.93072">
        <ele>190.6</ele>
        <time>2024-09-18T14:55:41Z</time>
      </trkpt>
      <trkpt lat="46.43745" lon="4.93075">
        <ele>190.6</ele>
        <time>2024-09-18T14:55:42Z</time>
      </trkpt>
      <trkpt lat="46.43741" lon="4.93079">
        <ele>190.6</ele>
        <time>2024-09-18T14:55:43Z</time>
      </trkpt>
      <trkpt lat="46.43737" lon="4.93082">
        <ele>190.6</ele>
        <time>2024-09-18T14:55:44Z</time>
      </trkpt>
      <trkpt lat="46.43733" lon="4.93085">
        <ele>190.6</ele>
        <time>2024-09-18T14:55:45Z</time>
      </trkpt>
      <trkpt lat="46.43729" lon="4.93088">
        <ele>190.6</ele>
        <time>2024-09-18T14:55:46Z</time>
      </trkpt>
      <trkpt lat="46.43724" lon="4.93091">
        <ele>190.6</ele>
        <time>2024-09-18T14:55:47Z</time>
      </trkpt>
      <trkpt lat="46.4372" lon="4.93094">
        <ele>190.6</ele>
        <time>2024-09-18T14:55:48Z</time>
      </trkpt>
      <trkpt lat="46.43716" lon="4.93097">
        <ele>190.8</ele>
        <time>2024-09-18T14:55:49Z</time>
      </trkpt>
      <trkpt lat="46.43712" lon="4.93101">
        <ele>190.8</ele>
        <time>2024-09-18T14:55:50Z</time>
      </trkpt>
      <trkpt lat="46.43708" lon="4.93104">
        <ele>190.8</ele>
        <time>2024-09-18T14:55:51Z</time>
      </trkpt>
      <trkpt lat="46.43704" lon="4.93107">
        <ele>190.8</ele>
        <time>2024-09-18T14:55:52Z</time>
      </trkpt>
      <trkpt lat="46.437" lon="4.9311">
        <ele>190.6</ele>
        <time>2024-09-18T14:55:53Z</time>
      </trkpt>
      <trkpt lat="46.43696" lon="4.93113">
        <ele>190.6</ele>
        <time>2024-09-18T14:55:54Z</time>
      </trkpt>
      <trkpt lat="46.43692" lon="4.93116">
        <ele>190.6</ele>
        <time>2024-09-18T14:55:55Z</time>
      </trkpt>
      <trkpt lat="46.43689" lon="4.93118">
        <ele>190.6</ele>
        <time>2024-09-18T14:55:56Z</time>
      </trkpt>
      <trkpt lat="46.43685" lon="4.93121">
        <ele>190.6</ele>
        <time>2024-09-18T14:55:57Z</time>
      </trkpt>
      <trkpt lat="46.43681" lon="4.93124">
        <ele>190.8</ele>
        <time>2024-09-18T14:55:58Z</time>
      </trkpt>
      <trkpt lat="46.43677" lon="4.93127">
        <ele>190.8</ele>
        <time>2024-09-18T14:55:59Z</time>
      </trkpt>
      <trkpt lat="46.43673" lon="4.9313">
        <ele>190.8</ele>
        <time>2024-09-18T14:56:00Z</time>
      </trkpt>
      <trkpt lat="46.43669" lon="4.93133">
        <ele>190.8</ele>
        <time>2024-09-18T14:56:01Z</time>
      </trkpt>
      <trkpt lat="46.43665" lon="4.93136">
        <ele>190.8</ele>
        <time>2024-09-18T14:56:02Z</time>
      </trkpt>
      <trkpt lat="46.43661" lon="4.93139">
        <ele>190.8</ele>
        <time>2024-09-18T14:56:03Z</time>
      </trkpt>
      <trkpt lat="46.43657" lon="4.93142">
        <ele>190.8</ele>
        <time>2024-09-18T14:56:04Z</time>
      </trkpt>
      <trkpt lat="46.43651" lon="4.93146">
        <ele>190.8</ele>
        <time>2024-09-18T14:56:05Z</time>
      </trkpt>
      <trkpt lat="46.43649" lon="4.93148">
        <ele>190.8</ele>
        <time>2024-09-18T14:56:06Z</time>
      </trkpt>
      <trkpt lat="46.43643" lon="4.93152">
        <ele>190.6</ele>
        <time>2024-09-18T14:56:07Z</time>
      </trkpt>
      <trkpt lat="46.43641" lon="4.93154">
        <ele>190.6</ele>
        <time>2024-09-18T14:56:08Z</time>
      </trkpt>
      <trkpt lat="46.43636" lon="4.93158">
        <ele>190.6</ele>
        <time>2024-09-18T14:56:09Z</time>
      </trkpt>
      <trkpt lat="46.43634" lon="4.93159">
        <ele>190.6</ele>
        <time>2024-09-18T14:56:10Z</time>
      </trkpt>
      <trkpt lat="46.43629" lon="4.93162">
        <ele>190.6</ele>
        <time>2024-09-18T14:56:11Z</time>
      </trkpt>
      <trkpt lat="46.43627" lon="4.93163">
        <ele>191</ele>
        <time>2024-09-18T14:56:12Z</time>
      </trkpt>
      <trkpt lat="46.43622" lon="4.93167">
        <ele>191</ele>
        <time>2024-09-18T14:56:13Z</time>
      </trkpt>
      <trkpt lat="46.4362" lon="4.93168">
        <ele>191</ele>
        <time>2024-09-18T14:56:14Z</time>
      </trkpt>
      <trkpt lat="46.43615" lon="4.93172">
        <ele>191.2</ele>
        <time>2024-09-18T14:56:15Z</time>
      </trkpt>
      <trkpt lat="46.43614" lon="4.93173">
        <ele>191.4</ele>
        <time>2024-09-18T14:56:16Z</time>
      </trkpt>
      <trkpt lat="46.4361" lon="4.93177">
        <ele>191.4</ele>
        <time>2024-09-18T14:56:17Z</time>
      </trkpt>
      <trkpt lat="46.43609" lon="4.93179">
        <ele>191.4</ele>
        <time>2024-09-18T14:56:18Z</time>
      </trkpt>
      <trkpt lat="46.43607" lon="4.93183">
        <ele>191.6</ele>
        <time>2024-09-18T14:56:19Z</time>
      </trkpt>
      <trkpt lat="46.43606" lon="4.93187">
        <ele>191.6</ele>
        <time>2024-09-18T14:56:20Z</time>
      </trkpt>
      <trkpt lat="46.43606" lon="4.93192">
        <ele>191.6</ele>
        <time>2024-09-18T14:56:21Z</time>
      </trkpt>
      <trkpt lat="46.43607" lon="4.93198">
        <ele>191.6</ele>
        <time>2024-09-18T14:56:22Z</time>
      </trkpt>
      <trkpt lat="46.43607" lon="4.93203">
        <ele>191.6</ele>
        <time>2024-09-18T14:56:23Z</time>
      </trkpt>
      <trkpt lat="46.43608" lon="4.93208">
        <ele>192</ele>
        <time>2024-09-18T14:56:24Z</time>
      </trkpt>
      <trkpt lat="46.43609" lon="4.93212">
        <ele>192</ele>
        <time>2024-09-18T14:56:25Z</time>
      </trkpt>
      <trkpt lat="46.4361" lon="4.93217">
        <ele>192.2</ele>
        <time>2024-09-18T14:56:26Z</time>
      </trkpt>
      <trkpt lat="46.43611" lon="4.93221">
        <ele>192.2</ele>
        <time>2024-09-18T14:56:27Z</time>
      </trkpt>
      <trkpt lat="46.43611" lon="4.93225">
        <ele>192.2</ele>
        <time>2024-09-18T14:56:28Z</time>
      </trkpt>
      <trkpt lat="46.43612" lon="4.9323">
        <ele>192.2</ele>
        <time>2024-09-18T14:56:29Z</time>
      </trkpt>
      <trkpt lat="46.43611" lon="4.93233">
        <ele>192.2</ele>
        <time>2024-09-18T14:56:30Z</time>
      </trkpt>
      <trkpt lat="46.43611" lon="4.93236">
        <ele>192.2</ele>
        <time>2024-09-18T14:56:31Z</time>
      </trkpt>
      <trkpt lat="46.4361" lon="4.93238">
        <ele>192.2</ele>
        <time>2024-09-18T14:56:32Z</time>
      </trkpt>
      <trkpt lat="46.4361" lon="4.93239">
        <ele>192.2</ele>
        <time>2024-09-18T14:56:33Z</time>
      </trkpt>
      <trkpt lat="46.4361" lon="4.93239">
        <ele>192</ele>
        <time>2024-09-18T14:56:34Z</time>
      </trkpt>
      <trkpt lat="46.4361" lon="4.93239">
        <ele>192</ele>
        <time>2024-09-18T14:56:35Z</time>
      </trkpt>
      <trkpt lat="46.43606" lon="4.93243">
        <ele>192</ele>
        <time>2024-09-18T14:56:42Z</time>
      </trkpt>
      <trkpt lat="46.43605" lon="4.93245">
        <ele>192.2</ele>
        <time>2024-09-18T14:56:43Z</time>
      </trkpt>
      <trkpt lat="46.43603" lon="4.93246">
        <ele>192.2</ele>
        <time>2024-09-18T14:56:44Z</time>
      </trkpt>
      <trkpt lat="46.43601" lon="4.93248">
        <ele>192.2</ele>
        <time>2024-09-18T14:56:45Z</time>
      </trkpt>
      <trkpt lat="46.43599" lon="4.9325">
        <ele>192.2</ele>
        <time>2024-09-18T14:56:46Z</time>
      </trkpt>
      <trkpt lat="46.43596" lon="4.93252">
        <ele>192</ele>
        <time>2024-09-18T14:56:47Z</time>
      </trkpt>
      <trkpt lat="46.43593" lon="4.93255">
        <ele>192</ele>
        <time>2024-09-18T14:56:48Z</time>
      </trkpt>
      <trkpt lat="46.4359" lon="4.93257">
        <ele>192</ele>
        <time>2024-09-18T14:56:49Z</time>
      </trkpt>
      <trkpt lat="46.43585" lon="4.93262">
        <ele>192</ele>
        <time>2024-09-18T14:56:50Z</time>
      </trkpt>
      <trkpt lat="46.43583" lon="4.93263">
        <ele>192</ele>
        <time>2024-09-18T14:56:51Z</time>
      </trkpt>
      <trkpt lat="46.43578" lon="4.93268">
        <ele>192</ele>
        <time>2024-09-18T14:56:52Z</time>
      </trkpt>
      <trkpt lat="46.43576" lon="4.9327">
        <ele>192</ele>
        <time>2024-09-18T14:56:53Z</time>
      </trkpt>
      <trkpt lat="46.4357" lon="4.93275">
        <ele>192</ele>
        <time>2024-09-18T14:56:54Z</time>
      </trkpt>
      <trkpt lat="46.43568" lon="4.93277">
        <ele>192</ele>
        <time>2024-09-18T14:56:55Z</time>
      </trkpt>
      <trkpt lat="46.43563" lon="4.93283">
        <ele>191.6</ele>
        <time>2024-09-18T14:56:56Z</time>
      </trkpt>
      <trkpt lat="46.43561" lon="4.93285">
        <ele>191.6</ele>
        <time>2024-09-18T14:56:57Z</time>
      </trkpt>
      <trkpt lat="46.43555" lon="4.93291">
        <ele>191.6</ele>
        <time>2024-09-18T14:56:58Z</time>
      </trkpt>
      <trkpt lat="46.43554" lon="4.93293">
        <ele>191.6</ele>
        <time>2024-09-18T14:56:59Z</time>
      </trkpt>
      <trkpt lat="46.43548" lon="4.933">
        <ele>191.6</ele>
        <time>2024-09-18T14:57:00Z</time>
      </trkpt>
      <trkpt lat="46.43547" lon="4.93302">
        <ele>191.4</ele>
        <time>2024-09-18T14:57:01Z</time>
      </trkpt>
      <trkpt lat="46.43542" lon="4.93309">
        <ele>191.4</ele>
        <time>2024-09-18T14:57:02Z</time>
      </trkpt>
      <trkpt lat="46.4354" lon="4.93311">
        <ele>191.4</ele>
        <time>2024-09-18T14:57:03Z</time>
      </trkpt>
      <trkpt lat="46.43535" lon="4.93317">
        <ele>191.4</ele>
        <time>2024-09-18T14:57:04Z</time>
      </trkpt>
      <trkpt lat="46.43534" lon="4.9332">
        <ele>191.2</ele>
        <time>2024-09-18T14:57:05Z</time>
      </trkpt>
      <trkpt lat="46.43531" lon="4.93324">
        <ele>191.2</ele>
        <time>2024-09-18T14:57:06Z</time>
      </trkpt>
      <trkpt lat="46.43528" lon="4.93328">
        <ele>191.2</ele>
        <time>2024-09-18T14:57:07Z</time>
      </trkpt>
      <trkpt lat="46.43525" lon="4.93333">
        <ele>191.2</ele>
        <time>2024-09-18T14:57:08Z</time>
      </trkpt>
      <trkpt lat="46.43522" lon="4.93337">
        <ele>191</ele>
        <time>2024-09-18T14:57:09Z</time>
      </trkpt>
      <trkpt lat="46.4352" lon="4.93341">
        <ele>191</ele>
        <time>2024-09-18T14:57:10Z</time>
      </trkpt>
      <trkpt lat="46.43517" lon="4.93346">
        <ele>191</ele>
        <time>2024-09-18T14:57:11Z</time>
      </trkpt>
      <trkpt lat="46.43514" lon="4.93351">
        <ele>191</ele>
        <time>2024-09-18T14:57:12Z</time>
      </trkpt>
      <trkpt lat="46.43511" lon="4.93356">
        <ele>191</ele>
        <time>2024-09-18T14:57:13Z</time>
      </trkpt>
      <trkpt lat="46.43508" lon="4.93361">
        <ele>191.2</ele>
        <time>2024-09-18T14:57:14Z</time>
      </trkpt>
      <trkpt lat="46.43506" lon="4.93366">
        <ele>191.2</ele>
        <time>2024-09-18T14:57:15Z</time>
      </trkpt>
      <trkpt lat="46.43503" lon="4.93371">
        <ele>191.2</ele>
        <time>2024-09-18T14:57:16Z</time>
      </trkpt>
      <trkpt lat="46.435" lon="4.93376">
        <ele>191.2</ele>
        <time>2024-09-18T14:57:17Z</time>
      </trkpt>
      <trkpt lat="46.43497" lon="4.9338">
        <ele>191.2</ele>
        <time>2024-09-18T14:57:18Z</time>
      </trkpt>
      <trkpt lat="46.43494" lon="4.93385">
        <ele>191.2</ele>
        <time>2024-09-18T14:57:19Z</time>
      </trkpt>
      <trkpt lat="46.43492" lon="4.9339">
        <ele>191.2</ele>
        <time>2024-09-18T14:57:20Z</time>
      </trkpt>
      <trkpt lat="46.43489" lon="4.93395">
        <ele>191.2</ele>
        <time>2024-09-18T14:57:21Z</time>
      </trkpt>
      <trkpt lat="46.43486" lon="4.934">
        <ele>191.2</ele>
        <time>2024-09-18T14:57:22Z</time>
      </trkpt>
      <trkpt lat="46.43484" lon="4.93405">
        <ele>191.2</ele>
        <time>2024-09-18T14:57:23Z</time>
      </trkpt>
      <trkpt lat="46.43481" lon="4.9341">
        <ele>191.2</ele>
        <time>2024-09-18T14:57:24Z</time>
      </trkpt>
      <trkpt lat="46.43479" lon="4.93415">
        <ele>191.2</ele>
        <time>2024-09-18T14:57:25Z</time>
      </trkpt>
      <trkpt lat="46.43476" lon="4.9342">
        <ele>191.2</ele>
        <time>2024-09-18T14:57:26Z</time>
      </trkpt>
      <trkpt lat="46.43474" lon="4.93426">
        <ele>191.2</ele>
        <time>2024-09-18T14:57:27Z</time>
      </trkpt>
      <trkpt lat="46.43471" lon="4.93431">
        <ele>191.2</ele>
        <time>2024-09-18T14:57:28Z</time>
      </trkpt>
      <trkpt lat="46.43469" lon="4.93437">
        <ele>191.2</ele>
        <time>2024-09-18T14:57:29Z</time>
      </trkpt>
      <trkpt lat="46.43467" lon="4.93442">
        <ele>191.2</ele>
        <time>2024-09-18T14:57:30Z</time>
      </trkpt>
      <trkpt lat="46.43464" lon="4.93448">
        <ele>191.4</ele>
        <time>2024-09-18T14:57:31Z</time>
      </trkpt>
      <trkpt lat="46.43461" lon="4.93457">
        <ele>191.4</ele>
        <time>2024-09-18T14:57:32Z</time>
      </trkpt>
      <trkpt lat="46.4346" lon="4.9346">
        <ele>191.2</ele>
        <time>2024-09-18T14:57:33Z</time>
      </trkpt>
      <trkpt lat="46.43457" lon="4.93468">
        <ele>191.2</ele>
        <time>2024-09-18T14:57:34Z</time>
      </trkpt>
      <trkpt lat="46.43455" lon="4.93471">
        <ele>191.2</ele>
        <time>2024-09-18T14:57:35Z</time>
      </trkpt>
      <trkpt lat="46.43451" lon="4.9348">
        <ele>191.4</ele>
        <time>2024-09-18T14:57:36Z</time>
      </trkpt>
      <trkpt lat="46.4345" lon="4.93483">
        <ele>191.4</ele>
        <time>2024-09-18T14:57:37Z</time>
      </trkpt>
      <trkpt lat="46.43447" lon="4.93492">
        <ele>191.4</ele>
        <time>2024-09-18T14:57:38Z</time>
      </trkpt>
      <trkpt lat="46.43446" lon="4.93495">
        <ele>191.4</ele>
        <time>2024-09-18T14:57:39Z</time>
      </trkpt>
      <trkpt lat="46.43442" lon="4.93503">
        <ele>191.4</ele>
        <time>2024-09-18T14:57:40Z</time>
      </trkpt>
      <trkpt lat="46.43441" lon="4.93506">
        <ele>191.4</ele>
        <time>2024-09-18T14:57:41Z</time>
      </trkpt>
      <trkpt lat="46.43438" lon="4.93514">
        <ele>191.2</ele>
        <time>2024-09-18T14:57:42Z</time>
      </trkpt>
      <trkpt lat="46.43437" lon="4.93517">
        <ele>191.2</ele>
        <time>2024-09-18T14:57:43Z</time>
      </trkpt>
      <trkpt lat="46.43434" lon="4.93525">
        <ele>190.8</ele>
        <time>2024-09-18T14:57:44Z</time>
      </trkpt>
      <trkpt lat="46.43433" lon="4.93527">
        <ele>191</ele>
        <time>2024-09-18T14:57:45Z</time>
      </trkpt>
      <trkpt lat="46.43429" lon="4.93535">
        <ele>191</ele>
        <time>2024-09-18T14:57:46Z</time>
      </trkpt>
      <trkpt lat="46.43428" lon="4.93537">
        <ele>191</ele>
        <time>2024-09-18T14:57:47Z</time>
      </trkpt>
      <trkpt lat="46.43425" lon="4.93545">
        <ele>190.6</ele>
        <time>2024-09-18T14:57:48Z</time>
      </trkpt>
      <trkpt lat="46.43424" lon="4.93547">
        <ele>190.6</ele>
        <time>2024-09-18T14:57:49Z</time>
      </trkpt>
      <trkpt lat="46.43421" lon="4.93551">
        <ele>190.6</ele>
        <time>2024-09-18T14:57:50Z</time>
      </trkpt>
      <trkpt lat="46.43419" lon="4.93554">
        <ele>190.6</ele>
        <time>2024-09-18T14:57:51Z</time>
      </trkpt>
      <trkpt lat="46.43416" lon="4.93557">
        <ele>190.6</ele>
        <time>2024-09-18T14:57:52Z</time>
      </trkpt>
      <trkpt lat="46.43414" lon="4.9356">
        <ele>190.4</ele>
        <time>2024-09-18T14:57:53Z</time>
      </trkpt>
      <trkpt lat="46.43412" lon="4.93562">
        <ele>190.2</ele>
        <time>2024-09-18T14:57:54Z</time>
      </trkpt>
      <trkpt lat="46.4341" lon="4.93565">
        <ele>190.2</ele>
        <time>2024-09-18T14:57:55Z</time>
      </trkpt>
      <trkpt lat="46.43409" lon="4.93567">
        <ele>190.2</ele>
        <time>2024-09-18T14:57:56Z</time>
      </trkpt>
      <trkpt lat="46.43408" lon="4.93568">
        <ele>190.2</ele>
        <time>2024-09-18T14:57:57Z</time>
      </trkpt>
      <trkpt lat="46.43407" lon="4.93569">
        <ele>190.4</ele>
        <time>2024-09-18T14:57:58Z</time>
      </trkpt>
      <trkpt lat="46.43407" lon="4.9357">
        <ele>190.4</ele>
        <time>2024-09-18T14:57:59Z</time>
      </trkpt>
      <trkpt lat="46.43407" lon="4.9357">
        <ele>190.4</ele>
        <time>2024-09-18T14:58:00Z</time>
      </trkpt>
      <trkpt lat="46.43404" lon="4.93566">
        <ele>190.4</ele>
        <time>2024-09-18T14:58:40Z</time>
      </trkpt>
      <trkpt lat="46.43403" lon="4.93564">
        <ele>190.2</ele>
        <time>2024-09-18T14:58:41Z</time>
      </trkpt>
      <trkpt lat="46.43401" lon="4.93561">
        <ele>190.2</ele>
        <time>2024-09-18T14:58:42Z</time>
      </trkpt>
      <trkpt lat="46.43398" lon="4.93558">
        <ele>190.2</ele>
        <time>2024-09-18T14:58:43Z</time>
      </trkpt>
      <trkpt lat="46.43397" lon="4.93556">
        <ele>190.2</ele>
        <time>2024-09-18T14:58:44Z</time>
      </trkpt>
      <trkpt lat="46.43395" lon="4.93553">
        <ele>190.2</ele>
        <time>2024-09-18T14:58:45Z</time>
      </trkpt>
      <trkpt lat="46.43392" lon="4.93551">
        <ele>190.2</ele>
        <time>2024-09-18T14:58:46Z</time>
      </trkpt>
      <trkpt lat="46.4339" lon="4.93549">
        <ele>190.2</ele>
        <time>2024-09-18T14:58:47Z</time>
      </trkpt>
      <trkpt lat="46.43388" lon="4.93547">
        <ele>190.2</ele>
        <time>2024-09-18T14:58:48Z</time>
      </trkpt>
      <trkpt lat="46.43386" lon="4.93545">
        <ele>190.2</ele>
        <time>2024-09-18T14:58:49Z</time>
      </trkpt>
      <trkpt lat="46.43383" lon="4.93544">
        <ele>190</ele>
        <time>2024-09-18T14:58:50Z</time>
      </trkpt>
      <trkpt lat="46.4338" lon="4.93544">
        <ele>190</ele>
        <time>2024-09-18T14:58:51Z</time>
      </trkpt>
      <trkpt lat="46.43378" lon="4.93546">
        <ele>190</ele>
        <time>2024-09-18T14:58:52Z</time>
      </trkpt>
      <trkpt lat="46.43376" lon="4.93547">
        <ele>189.6</ele>
        <time>2024-09-18T14:58:53Z</time>
      </trkpt>
      <trkpt lat="46.43374" lon="4.9355">
        <ele>189.6</ele>
        <time>2024-09-18T14:58:54Z</time>
      </trkpt>
      <trkpt lat="46.43373" lon="4.93552">
        <ele>189.6</ele>
        <time>2024-09-18T14:58:55Z</time>
      </trkpt>
      <trkpt lat="46.43372" lon="4.93553">
        <ele>189.6</ele>
        <time>2024-09-18T14:58:56Z</time>
      </trkpt>
      <trkpt lat="46.43371" lon="4.93555">
        <ele>189.8</ele>
        <time>2024-09-18T14:58:57Z</time>
      </trkpt>
      <trkpt lat="46.4337" lon="4.93556">
        <ele>189.6</ele>
        <time>2024-09-18T14:58:58Z</time>
      </trkpt>
      <trkpt lat="46.43369" lon="4.93557">
        <ele>189.6</ele>
        <time>2024-09-18T14:58:59Z</time>
      </trkpt>
      <trkpt lat="46.43368" lon="4.93559">
        <ele>189.4</ele>
        <time>2024-09-18T14:59:06Z</time>
      </trkpt>
      <trkpt lat="46.43367" lon="4.9356">
        <ele>189.6</ele>
        <time>2024-09-18T14:59:07Z</time>
      </trkpt>
      <trkpt lat="46.43366" lon="4.93561">
        <ele>189.6</ele>
        <time>2024-09-18T14:59:08Z</time>
      </trkpt>
      <trkpt lat="46.43365" lon="4.93563">
        <ele>189.6</ele>
        <time>2024-09-18T14:59:09Z</time>
      </trkpt>
      <trkpt lat="46.43363" lon="4.93565">
        <ele>189.6</ele>
        <time>2024-09-18T14:59:10Z</time>
      </trkpt>
      <trkpt lat="46.43362" lon="4.93566">
        <ele>189.6</ele>
        <time>2024-09-18T14:59:11Z</time>
      </trkpt>
      <trkpt lat="46.4336" lon="4.93568">
        <ele>189.6</ele>
        <time>2024-09-18T14:59:12Z</time>
      </trkpt>
      <trkpt lat="46.43359" lon="4.93571">
        <ele>189.6</ele>
        <time>2024-09-18T14:59:13Z</time>
      </trkpt>
      <trkpt lat="46.43358" lon="4.93573">
        <ele>189.6</ele>
        <time>2024-09-18T14:59:14Z</time>
      </trkpt>
      <trkpt lat="46.43356" lon="4.93575">
        <ele>190</ele>
        <time>2024-09-18T14:59:15Z</time>
      </trkpt>
      <trkpt lat="46.43355" lon="4.93576">
        <ele>190</ele>
        <time>2024-09-18T14:59:16Z</time>
      </trkpt>
      <trkpt lat="46.43354" lon="4.93576">
        <ele>190</ele>
        <time>2024-09-18T14:59:17Z</time>
      </trkpt>
      <trkpt lat="46.43353" lon="4.93574">
        <ele>190</ele>
        <time>2024-09-18T14:59:18Z</time>
      </trkpt>
      <trkpt lat="46.43353" lon="4.93572">
        <ele>189.8</ele>
        <time>2024-09-18T14:59:19Z</time>
      </trkpt>
      <trkpt lat="46.43354" lon="4.93571">
        <ele>189.8</ele>
        <time>2024-09-18T14:59:20Z</time>
      </trkpt>
      <trkpt lat="46.43354" lon="4.93571">
        <ele>189.8</ele>
        <time>2024-09-18T14:59:21Z</time>
      </trkpt>
      <trkpt lat="46.43354" lon="4.93571">
        <ele>189.8</ele>
        <time>2024-09-18T14:59:22Z</time>
      </trkpt>
      <trkpt lat="46.4336" lon="4.93566">
        <ele>189.8</ele>
        <time>2024-09-18T15:00:15Z</time>
      </trkpt>
      <trkpt lat="46.43362" lon="4.93563">
        <ele>190</ele>
        <time>2024-09-18T15:00:16Z</time>
      </trkpt>
      <trkpt lat="46.43364" lon="4.93561">
        <ele>190</ele>
        <time>2024-09-18T15:00:17Z</time>
      </trkpt>
      <trkpt lat="46.43365" lon="4.93559">
        <ele>190</ele>
        <time>2024-09-18T15:00:18Z</time>
      </trkpt>
      <trkpt lat="46.43367" lon="4.93557">
        <ele>190.4</ele>
        <time>2024-09-18T15:00:19Z</time>
      </trkpt>
      <trkpt lat="46.43367" lon="4.93555">
        <ele>190.6</ele>
        <time>2024-09-18T15:00:20Z</time>
      </trkpt>
      <trkpt lat="46.43367" lon="4.93552">
        <ele>190.6</ele>
        <time>2024-09-18T15:00:21Z</time>
      </trkpt>
      <trkpt lat="46.43366" lon="4.9355">
        <ele>190.6</ele>
        <time>2024-09-18T15:00:22Z</time>
      </trkpt>
      <trkpt lat="46.43365" lon="4.93547">
        <ele>190.6</ele>
        <time>2024-09-18T15:00:23Z</time>
      </trkpt>
      <trkpt lat="46.43363" lon="4.93545">
        <ele>190.6</ele>
        <time>2024-09-18T15:00:24Z</time>
      </trkpt>
      <trkpt lat="46.43362" lon="4.93542">
        <ele>190.6</ele>
        <time>2024-09-18T15:00:25Z</time>
      </trkpt>
      <trkpt lat="46.43361" lon="4.9354">
        <ele>190.6</ele>
        <time>2024-09-18T15:00:26Z</time>
      </trkpt>
      <trkpt lat="46.4336" lon="4.93537">
        <ele>191.2</ele>
        <time>2024-09-18T15:00:27Z</time>
      </trkpt>
      <trkpt lat="46.43358" lon="4.93534">
        <ele>191.2</ele>
        <time>2024-09-18T15:00:28Z</time>
      </trkpt>
      <trkpt lat="46.43357" lon="4.9353">
        <ele>191.4</ele>
        <time>2024-09-18T15:00:29Z</time>
      </trkpt>
      <trkpt lat="46.43357" lon="4.93528">
        <ele>191.4</ele>
        <time>2024-09-18T15:00:30Z</time>
      </trkpt>
      <trkpt lat="46.43356" lon="4.93524">
        <ele>191.4</ele>
        <time>2024-09-18T15:00:31Z</time>
      </trkpt>
      <trkpt lat="46.43355" lon="4.93522">
        <ele>191.4</ele>
        <time>2024-09-18T15:00:32Z</time>
      </trkpt>
      <trkpt lat="46.43354" lon="4.93517">
        <ele>191.8</ele>
        <time>2024-09-18T15:00:33Z</time>
      </trkpt>
      <trkpt lat="46.43353" lon="4.93515">
        <ele>191.8</ele>
        <time>2024-09-18T15:00:34Z</time>
      </trkpt>
      <trkpt lat="46.43352" lon="4.93511">
        <ele>191.8</ele>
        <time>2024-09-18T15:00:35Z</time>
      </trkpt>
      <trkpt lat="46.43351" lon="4.93509">
        <ele>191.8</ele>
        <time>2024-09-18T15:00:36Z</time>
      </trkpt>
      <trkpt lat="46.43349" lon="4.93504">
        <ele>192</ele>
        <time>2024-09-18T15:00:37Z</time>
      </trkpt>
      <trkpt lat="46.43349" lon="4.93503">
        <ele>192</ele>
        <time>2024-09-18T15:00:38Z</time>
      </trkpt>
      <trkpt lat="46.43347" lon="4.93497">
        <ele>192</ele>
        <time>2024-09-18T15:00:39Z</time>
      </trkpt>
      <trkpt lat="46.43346" lon="4.93495">
        <ele>192</ele>
        <time>2024-09-18T15:00:40Z</time>
      </trkpt>
      <trkpt lat="46.43344" lon="4.93489">
        <ele>192</ele>
        <time>2024-09-18T15:00:41Z</time>
      </trkpt>
      <trkpt lat="46.43343" lon="4.93487">
        <ele>192</ele>
        <time>2024-09-18T15:00:42Z</time>
      </trkpt>
      <trkpt lat="46.43344" lon="4.93484">
        <ele>192</ele>
        <time>2024-09-18T15:00:43Z</time>
      </trkpt>
      <trkpt lat="46.43345" lon="4.9348">
        <ele>192</ele>
        <time>2024-09-18T15:00:44Z</time>
      </trkpt>
      <trkpt lat="46.43347" lon="4.93477">
        <ele>191.6</ele>
        <time>2024-09-18T15:00:45Z</time>
      </trkpt>
      <trkpt lat="46.43349" lon="4.93474">
        <ele>191.6</ele>
        <time>2024-09-18T15:00:46Z</time>
      </trkpt>
      <trkpt lat="46.43351" lon="4.93471">
        <ele>191.8</ele>
        <time>2024-09-18T15:00:47Z</time>
      </trkpt>
      <trkpt lat="46.43354" lon="4.93468">
        <ele>191.8</ele>
        <time>2024-09-18T15:00:48Z</time>
      </trkpt>
      <trkpt lat="46.43355" lon="4.93464">
        <ele>191.6</ele>
        <time>2024-09-18T15:00:49Z</time>
      </trkpt>
      <trkpt lat="46.43357" lon="4.9346">
        <ele>191.2</ele>
        <time>2024-09-18T15:00:50Z</time>
      </trkpt>
      <trkpt lat="46.43357" lon="4.93456">
        <ele>191.2</ele>
        <time>2024-09-18T15:00:51Z</time>
      </trkpt>
      <trkpt lat="46.43357" lon="4.93452">
        <ele>191.2</ele>
        <time>2024-09-18T15:00:52Z</time>
      </trkpt>
      <trkpt lat="46.43356" lon="4.93448">
        <ele>191.2</ele>
        <time>2024-09-18T15:00:53Z</time>
      </trkpt>
      <trkpt lat="46.43354" lon="4.93444">
        <ele>191.2</ele>
        <time>2024-09-18T15:00:54Z</time>
      </trkpt>
      <trkpt lat="46.43352" lon="4.9344">
        <ele>190.2</ele>
        <time>2024-09-18T15:00:55Z</time>
      </trkpt>
      <trkpt lat="46.4335" lon="4.93435">
        <ele>189.8</ele>
        <time>2024-09-18T15:00:56Z</time>
      </trkpt>
      <trkpt lat="46.43349" lon="4.93431">
        <ele>189.8</ele>
        <time>2024-09-18T15:00:57Z</time>
      </trkpt>
      <trkpt lat="46.43347" lon="4.93426">
        <ele>189.8</ele>
        <time>2024-09-18T15:00:58Z</time>
      </trkpt>
      <trkpt lat="46.43345" lon="4.93423">
        <ele>189.8</ele>
        <time>2024-09-18T15:00:59Z</time>
      </trkpt>
      <trkpt lat="46.43343" lon="4.93419">
        <ele>189.6</ele>
        <time>2024-09-18T15:01:00Z</time>
      </trkpt>
      <trkpt lat="46.43341" lon="4.93416">
        <ele>189.6</ele>
        <time>2024-09-18T15:01:01Z</time>
      </trkpt>
      <trkpt lat="46.43339" lon="4.93412">
        <ele>189.6</ele>
        <time>2024-09-18T15:01:02Z</time>
      </trkpt>
      <trkpt lat="46.43336" lon="4.93409">
        <ele>189.6</ele>
        <time>2024-09-18T15:01:03Z</time>
      </trkpt>
      <trkpt lat="46.43334" lon="4.93406">
        <ele>189.6</ele>
        <time>2024-09-18T15:01:04Z</time>
      </trkpt>
      <trkpt lat="46.43332" lon="4.93403">
        <ele>189.4</ele>
        <time>2024-09-18T15:01:05Z</time>
      </trkpt>
      <trkpt lat="46.4333" lon="4.93401">
        <ele>189.4</ele>
        <time>2024-09-18T15:01:06Z</time>
      </trkpt>
      <trkpt lat="46.43327" lon="4.93399">
        <ele>189.4</ele>
        <time>2024-09-18T15:01:07Z</time>
      </trkpt>
      <trkpt lat="46.43325" lon="4.93395">
        <ele>189.6</ele>
        <time>2024-09-18T15:01:08Z</time>
      </trkpt>
      <trkpt lat="46.43324" lon="4.93393">
        <ele>189.6</ele>
        <time>2024-09-18T15:01:09Z</time>
      </trkpt>
      <trkpt lat="46.43322" lon="4.93389">
        <ele>189.6</ele>
        <time>2024-09-18T15:01:10Z</time>
      </trkpt>
      <trkpt lat="46.43321" lon="4.93388">
        <ele>189.6</ele>
        <time>2024-09-18T15:01:11Z</time>
      </trkpt>
      <trkpt lat="46.4332" lon="4.93386">
        <ele>189.6</ele>
        <time>2024-09-18T15:01:12Z</time>
      </trkpt>
      <trkpt lat="46.43318" lon="4.93384">
        <ele>189.4</ele>
        <time>2024-09-18T15:01:13Z</time>
      </trkpt>
      <trkpt lat="46.43316" lon="4.93382">
        <ele>189.4</ele>
        <time>2024-09-18T15:01:14Z</time>
      </trkpt>
      <trkpt lat="46.43315" lon="4.9338">
        <ele>189.4</ele>
        <time>2024-09-18T15:01:15Z</time>
      </trkpt>
      <trkpt lat="46.43313" lon="4.93378">
        <ele>189.4</ele>
        <time>2024-09-18T15:01:16Z</time>
      </trkpt>
      <trkpt lat="46.43312" lon="4.93376">
        <ele>189.4</ele>
        <time>2024-09-18T15:01:17Z</time>
      </trkpt>
      <trkpt lat="46.43311" lon="4.93375">
        <ele>189.2</ele>
        <time>2024-09-18T15:01:57Z</time>
      </trkpt>
      <trkpt lat="46.4331" lon="4.93373">
        <ele>189.2</ele>
        <time>2024-09-18T15:01:58Z</time>
      </trkpt>
      <trkpt lat="46.43308" lon="4.93371">
        <ele>189.2</ele>
        <time>2024-09-18T15:01:59Z</time>
      </trkpt>
      <trkpt lat="46.43306" lon="4.93364">
        <ele>189.2</ele>
        <time>2024-09-18T15:02:00Z</time>
      </trkpt>
      <trkpt lat="46.43305" lon="4.93362">
        <ele>189.2</ele>
        <time>2024-09-18T15:02:01Z</time>
      </trkpt>
      <trkpt lat="46.43304" lon="4.93357">
        <ele>189.2</ele>
        <time>2024-09-18T15:02:02Z</time>
      </trkpt>
      <trkpt lat="46.43302" lon="4.93352">
        <ele>189.2</ele>
        <time>2024-09-18T15:02:03Z</time>
      </trkpt>
      <trkpt lat="46.43301" lon="4.93347">
        <ele>189.2</ele>
        <time>2024-09-18T15:02:04Z</time>
      </trkpt>
      <trkpt lat="46.43299" lon="4.93343">
        <ele>189.4</ele>
        <time>2024-09-18T15:02:05Z</time>
      </trkpt>
      <trkpt lat="46.43297" lon="4.93339">
        <ele>189.4</ele>
        <time>2024-09-18T15:02:06Z</time>
      </trkpt>
      <trkpt lat="46.43296" lon="4.93334">
        <ele>189.4</ele>
        <time>2024-09-18T15:02:07Z</time>
      </trkpt>
      <trkpt lat="46.43296" lon="4.93329">
        <ele>189.4</ele>
        <time>2024-09-18T15:02:08Z</time>
      </trkpt>
      <trkpt lat="46.43295" lon="4.93324">
        <ele>189.4</ele>
        <time>2024-09-18T15:02:09Z</time>
      </trkpt>
      <trkpt lat="46.43296" lon="4.93319">
        <ele>189.4</ele>
        <time>2024-09-18T15:02:10Z</time>
      </trkpt>
      <trkpt lat="46.43295" lon="4.93313">
        <ele>189.4</ele>
        <time>2024-09-18T15:02:11Z</time>
      </trkpt>
      <trkpt lat="46.43295" lon="4.93308">
        <ele>189.4</ele>
        <time>2024-09-18T15:02:12Z</time>
      </trkpt>
      <trkpt lat="46.43295" lon="4.93302">
        <ele>189.4</ele>
        <time>2024-09-18T15:02:13Z</time>
      </trkpt>
      <trkpt lat="46.43294" lon="4.93297">
        <ele>189.4</ele>
        <time>2024-09-18T15:02:14Z</time>
      </trkpt>
      <trkpt lat="46.43293" lon="4.93292">
        <ele>189.6</ele>
        <time>2024-09-18T15:02:15Z</time>
      </trkpt>
      <trkpt lat="46.43292" lon="4.93287">
        <ele>189.6</ele>
        <time>2024-09-18T15:02:16Z</time>
      </trkpt>
      <trkpt lat="46.43291" lon="4.93284">
        <ele>189.6</ele>
        <time>2024-09-18T15:02:17Z</time>
      </trkpt>
      <trkpt lat="46.43289" lon="4.93281">
        <ele>189.6</ele>
        <time>2024-09-18T15:02:18Z</time>
      </trkpt>
      <trkpt lat="46.43288" lon="4.93281">
        <ele>189.2</ele>
        <time>2024-09-18T15:02:19Z</time>
      </trkpt>
      <trkpt lat="46.43287" lon="4.93281">
        <ele>189.2</ele>
        <time>2024-09-18T15:02:20Z</time>
      </trkpt>
      <trkpt lat="46.43285" lon="4.9328">
        <ele>189.2</ele>
        <time>2024-09-18T15:02:21Z</time>
      </trkpt>
      <trkpt lat="46.43284" lon="4.9328">
        <ele>189.2</ele>
        <time>2024-09-18T15:02:22Z</time>
      </trkpt>
      <trkpt lat="46.43283" lon="4.9328">
        <ele>188.8</ele>
        <time>2024-09-18T15:02:23Z</time>
      </trkpt>
      <trkpt lat="46.43282" lon="4.9328">
        <ele>188.8</ele>
        <time>2024-09-18T15:02:24Z</time>
      </trkpt>
      <trkpt lat="46.43281" lon="4.9328">
        <ele>189</ele>
        <time>2024-09-18T15:02:42Z</time>
      </trkpt>
      <trkpt lat="46.43279" lon="4.9328">
        <ele>189</ele>
        <time>2024-09-18T15:02:43Z</time>
      </trkpt>
      <trkpt lat="46.43278" lon="4.9328">
        <ele>188.8</ele>
        <time>2024-09-18T15:02:44Z</time>
      </trkpt>
      <trkpt lat="46.43274" lon="4.9328">
        <ele>188.8</ele>
        <time>2024-09-18T15:02:45Z</time>
      </trkpt>
      <trkpt lat="46.43272" lon="4.93281">
        <ele>188.8</ele>
        <time>2024-09-18T15:02:46Z</time>
      </trkpt>
      <trkpt lat="46.43268" lon="4.93283">
        <ele>188.8</ele>
        <time>2024-09-18T15:02:47Z</time>
      </trkpt>
      <trkpt lat="46.43266" lon="4.93284">
        <ele>188.8</ele>
        <time>2024-09-18T15:02:48Z</time>
      </trkpt>
      <trkpt lat="46.43263" lon="4.93286">
        <ele>188.8</ele>
        <time>2024-09-18T15:02:49Z</time>
      </trkpt>
      <trkpt lat="46.43259" lon="4.93288">
        <ele>189</ele>
        <time>2024-09-18T15:02:50Z</time>
      </trkpt>
      <trkpt lat="46.43257" lon="4.93289">
        <ele>189</ele>
        <time>2024-09-18T15:02:51Z</time>
      </trkpt>
      <trkpt lat="46.43254" lon="4.9329">
        <ele>189</ele>
        <time>2024-09-18T15:02:52Z</time>
      </trkpt>
      <trkpt lat="46.43251" lon="4.93292">
        <ele>189</ele>
        <time>2024-09-18T15:02:53Z</time>
      </trkpt>
      <trkpt lat="46.43246" lon="4.93294">
        <ele>189</ele>
        <time>2024-09-18T15:02:54Z</time>
      </trkpt>
      <trkpt lat="46.43244" lon="4.93295">
        <ele>189</ele>
        <time>2024-09-18T15:02:55Z</time>
      </trkpt>
      <trkpt lat="46.43238" lon="4.93298">
        <ele>189</ele>
        <time>2024-09-18T15:02:56Z</time>
      </trkpt>
      <trkpt lat="46.43236" lon="4.93299">
        <ele>189</ele>
        <time>2024-09-18T15:02:57Z</time>
      </trkpt>
      <trkpt lat="46.4323" lon="4.93303">
        <ele>189</ele>
        <time>2024-09-18T15:02:58Z</time>
      </trkpt>
      <trkpt lat="46.43228" lon="4.93304">
        <ele>188.8</ele>
        <time>2024-09-18T15:02:59Z</time>
      </trkpt>
      <trkpt lat="46.43225" lon="4.93306">
        <ele>188.8</ele>
        <time>2024-09-18T15:03:00Z</time>
      </trkpt>
      <trkpt lat="46.43221" lon="4.93308">
        <ele>188.8</ele>
        <time>2024-09-18T15:03:01Z</time>
      </trkpt>
      <trkpt lat="46.43217" lon="4.93309">
        <ele>189</ele>
        <time>2024-09-18T15:03:02Z</time>
      </trkpt>
      <trkpt lat="46.43214" lon="4.93309">
        <ele>189</ele>
        <time>2024-09-18T15:03:03Z</time>
      </trkpt>
      <trkpt lat="46.4321" lon="4.93309">
        <ele>189.2</ele>
        <time>2024-09-18T15:03:04Z</time>
      </trkpt>
      <trkpt lat="46.43207" lon="4.93306">
        <ele>189.2</ele>
        <time>2024-09-18T15:03:05Z</time>
      </trkpt>
      <trkpt lat="46.43205" lon="4.93302">
        <ele>189.2</ele>
        <time>2024-09-18T15:03:06Z</time>
      </trkpt>
      <trkpt lat="46.43203" lon="4.93298">
        <ele>189.2</ele>
        <time>2024-09-18T15:03:07Z</time>
      </trkpt>
      <trkpt lat="46.43201" lon="4.93294">
        <ele>189.2</ele>
        <time>2024-09-18T15:03:08Z</time>
      </trkpt>
      <trkpt lat="46.432" lon="4.93289">
        <ele>189.2</ele>
        <time>2024-09-18T15:03:09Z</time>
      </trkpt>
      <trkpt lat="46.43199" lon="4.93284">
        <ele>189.2</ele>
        <time>2024-09-18T15:03:10Z</time>
      </trkpt>
      <trkpt lat="46.43197" lon="4.93278">
        <ele>189.2</ele>
        <time>2024-09-18T15:03:11Z</time>
      </trkpt>
      <trkpt lat="46.43196" lon="4.93273">
        <ele>189.2</ele>
        <time>2024-09-18T15:03:12Z</time>
      </trkpt>
      <trkpt lat="46.43195" lon="4.93268">
        <ele>189.2</ele>
        <time>2024-09-18T15:03:13Z</time>
      </trkpt>
      <trkpt lat="46.43194" lon="4.93263">
        <ele>189.6</ele>
        <time>2024-09-18T15:03:14Z</time>
      </trkpt>
      <trkpt lat="46.43192" lon="4.93258">
        <ele>189.6</ele>
        <time>2024-09-18T15:03:15Z</time>
      </trkpt>
      <trkpt lat="46.43191" lon="4.93252">
        <ele>189.6</ele>
        <time>2024-09-18T15:03:16Z</time>
      </trkpt>
      <trkpt lat="46.43189" lon="4.93247">
        <ele>189.6</ele>
        <time>2024-09-18T15:03:17Z</time>
      </trkpt>
      <trkpt lat="46.43187" lon="4.93242">
        <ele>189.4</ele>
        <time>2024-09-18T15:03:18Z</time>
      </trkpt>
      <trkpt lat="46.43185" lon="4.93237">
        <ele>189.4</ele>
        <time>2024-09-18T15:03:19Z</time>
      </trkpt>
      <trkpt lat="46.43182" lon="4.93233">
        <ele>189.4</ele>
        <time>2024-09-18T15:03:20Z</time>
      </trkpt>
      <trkpt lat="46.43179" lon="4.93229">
        <ele>190</ele>
        <time>2024-09-18T15:03:21Z</time>
      </trkpt>
      <trkpt lat="46.43176" lon="4.93226">
        <ele>190.2</ele>
        <time>2024-09-18T15:03:22Z</time>
      </trkpt>
      <trkpt lat="46.43173" lon="4.93222">
        <ele>190.2</ele>
        <time>2024-09-18T15:03:23Z</time>
      </trkpt>
      <trkpt lat="46.4317" lon="4.93219">
        <ele>190.2</ele>
        <time>2024-09-18T15:03:24Z</time>
      </trkpt>
      <trkpt lat="46.43169" lon="4.93218">
        <ele>190.2</ele>
        <time>2024-09-18T15:03:25Z</time>
      </trkpt>
      <trkpt lat="46.43167" lon="4.93214">
        <ele>190.2</ele>
        <time>2024-09-18T15:03:26Z</time>
      </trkpt>
      <trkpt lat="46.43166" lon="4.93213">
        <ele>190.2</ele>
        <time>2024-09-18T15:03:27Z</time>
      </trkpt>
      <trkpt lat="46.43162" lon="4.93209">
        <ele>190.2</ele>
        <time>2024-09-18T15:03:28Z</time>
      </trkpt>
      <trkpt lat="46.43161" lon="4.93208">
        <ele>190.2</ele>
        <time>2024-09-18T15:03:29Z</time>
      </trkpt>
      <trkpt lat="46.43158" lon="4.93203">
        <ele>190.4</ele>
        <time>2024-09-18T15:03:30Z</time>
      </trkpt>
      <trkpt lat="46.43157" lon="4.93201">
        <ele>190.4</ele>
        <time>2024-09-18T15:03:31Z</time>
      </trkpt>
      <trkpt lat="46.43154" lon="4.93194">
        <ele>190.4</ele>
        <time>2024-09-18T15:03:32Z</time>
      </trkpt>
      <trkpt lat="46.43153" lon="4.93192">
        <ele>190.4</ele>
        <time>2024-09-18T15:03:33Z</time>
      </trkpt>
      <trkpt lat="46.43151" lon="4.93185">
        <ele>190.4</ele>
        <time>2024-09-18T15:03:34Z</time>
      </trkpt>
      <trkpt lat="46.4315" lon="4.93183">
        <ele>190.4</ele>
        <time>2024-09-18T15:03:35Z</time>
      </trkpt>
      <trkpt lat="46.43148" lon="4.93175">
        <ele>190.4</ele>
        <time>2024-09-18T15:03:36Z</time>
      </trkpt>
      <trkpt lat="46.43147" lon="4.93173">
        <ele>190.4</ele>
        <time>2024-09-18T15:03:37Z</time>
      </trkpt>
      <trkpt lat="46.43146" lon="4.93167">
        <ele>190.6</ele>
        <time>2024-09-18T15:03:38Z</time>
      </trkpt>
      <trkpt lat="46.43146" lon="4.93165">
        <ele>190.8</ele>
        <time>2024-09-18T15:03:39Z</time>
      </trkpt>
      <trkpt lat="46.43145" lon="4.93163">
        <ele>190.8</ele>
        <time>2024-09-18T15:03:40Z</time>
      </trkpt>
      <trkpt lat="46.43143" lon="4.93161">
        <ele>190.8</ele>
        <time>2024-09-18T15:03:41Z</time>
      </trkpt>
      <trkpt lat="46.43142" lon="4.93162">
        <ele>190.8</ele>
        <time>2024-09-18T15:03:42Z</time>
      </trkpt>
      <trkpt lat="46.43141" lon="4.93164">
        <ele>190.6</ele>
        <time>2024-09-18T15:03:43Z</time>
      </trkpt>
      <trkpt lat="46.43141" lon="4.93167">
        <ele>190.6</ele>
        <time>2024-09-18T15:03:44Z</time>
      </trkpt>
      <trkpt lat="46.43142" lon="4.9317">
        <ele>190.8</ele>
        <time>2024-09-18T15:03:45Z</time>
      </trkpt>
      <trkpt lat="46.43143" lon="4.93172">
        <ele>190.8</ele>
        <time>2024-09-18T15:03:46Z</time>
      </trkpt>
      <trkpt lat="46.43145" lon="4.93176">
        <ele>190.6</ele>
        <time>2024-09-18T15:03:47Z</time>
      </trkpt>
      <trkpt lat="46.43147" lon="4.93179">
        <ele>190.6</ele>
        <time>2024-09-18T15:03:48Z</time>
      </trkpt>
      <trkpt lat="46.43148" lon="4.93183">
        <ele>190.6</ele>
        <time>2024-09-18T15:03:49Z</time>
      </trkpt>
      <trkpt lat="46.4315" lon="4.93188">
        <ele>190.6</ele>
        <time>2024-09-18T15:03:50Z</time>
      </trkpt>
      <trkpt lat="46.43151" lon="4.93192">
        <ele>190.6</ele>
        <time>2024-09-18T15:03:51Z</time>
      </trkpt>
      <trkpt lat="46.43154" lon="4.93196">
        <ele>190.6</ele>
        <time>2024-09-18T15:03:52Z</time>
      </trkpt>
      <trkpt lat="46.43156" lon="4.93201">
        <ele>190.6</ele>
        <time>2024-09-18T15:03:53Z</time>
      </trkpt>
      <trkpt lat="46.43158" lon="4.93206">
        <ele>190.4</ele>
        <time>2024-09-18T15:03:54Z</time>
      </trkpt>
      <trkpt lat="46.43161" lon="4.9321">
        <ele>190.4</ele>
        <time>2024-09-18T15:03:55Z</time>
      </trkpt>
      <trkpt lat="46.43164" lon="4.93214">
        <ele>190.4</ele>
        <time>2024-09-18T15:03:56Z</time>
      </trkpt>
      <trkpt lat="46.43167" lon="4.93217">
        <ele>190.4</ele>
        <time>2024-09-18T15:03:57Z</time>
      </trkpt>
      <trkpt lat="46.4317" lon="4.93221">
        <ele>190.2</ele>
        <time>2024-09-18T15:03:58Z</time>
      </trkpt>
      <trkpt lat="46.43173" lon="4.93225">
        <ele>190.2</ele>
        <time>2024-09-18T15:03:59Z</time>
      </trkpt>
      <trkpt lat="46.43176" lon="4.93229">
        <ele>190.2</ele>
        <time>2024-09-18T15:04:00Z</time>
      </trkpt>
      <trkpt lat="46.43178" lon="4.93233">
        <ele>190.2</ele>
        <time>2024-09-18T15:04:01Z</time>
      </trkpt>
      <trkpt lat="46.43181" lon="4.93238">
        <ele>190</ele>
        <time>2024-09-18T15:04:02Z</time>
      </trkpt>
      <trkpt lat="46.43184" lon="4.93242">
        <ele>190</ele>
        <time>2024-09-18T15:04:03Z</time>
      </trkpt>
      <trkpt lat="46.43186" lon="4.93249">
        <ele>190</ele>
        <time>2024-09-18T15:04:04Z</time>
      </trkpt>
      <trkpt lat="46.43187" lon="4.93252">
        <ele>190</ele>
        <time>2024-09-18T15:04:05Z</time>
      </trkpt>
      <trkpt lat="46.43189" lon="4.9326">
        <ele>189.6</ele>
        <time>2024-09-18T15:04:06Z</time>
      </trkpt>
      <trkpt lat="46.43189" lon="4.93262">
        <ele>189.6</ele>
        <time>2024-09-18T15:04:07Z</time>
      </trkpt>
      <trkpt lat="46.43192" lon="4.93271">
        <ele>189.6</ele>
        <time>2024-09-18T15:04:08Z</time>
      </trkpt>
      <trkpt lat="46.43192" lon="4.93274">
        <ele>189.6</ele>
        <time>2024-09-18T15:04:09Z</time>
      </trkpt>
      <trkpt lat="46.43195" lon="4.93283">
        <ele>189.6</ele>
        <time>2024-09-18T15:04:10Z</time>
      </trkpt>
      <trkpt lat="46.43195" lon="4.93286">
        <ele>189.4</ele>
        <time>2024-09-18T15:04:11Z</time>
      </trkpt>
      <trkpt lat="46.43198" lon="4.93295">
        <ele>189.4</ele>
        <time>2024-09-18T15:04:12Z</time>
      </trkpt>
      <trkpt lat="46.43199" lon="4.93298">
        <ele>189.4</ele>
        <time>2024-09-18T15:04:13Z</time>
      </trkpt>
      <trkpt lat="46.432" lon="4.93305">
        <ele>189.4</ele>
        <time>2024-09-18T15:04:14Z</time>
      </trkpt>
      <trkpt lat="46.43201" lon="4.93307">
        <ele>189.4</ele>
        <time>2024-09-18T15:04:15Z</time>
      </trkpt>
      <trkpt lat="46.43201" lon="4.9331">
        <ele>189.2</ele>
        <time>2024-09-18T15:04:16Z</time>
      </trkpt>
      <trkpt lat="46.43201" lon="4.93313">
        <ele>189.2</ele>
        <time>2024-09-18T15:04:17Z</time>
      </trkpt>
      <trkpt lat="46.43199" lon="4.93316">
        <ele>189.2</ele>
        <time>2024-09-18T15:04:18Z</time>
      </trkpt>
      <trkpt lat="46.43199" lon="4.93317">
        <ele>188.8</ele>
        <time>2024-09-18T15:04:19Z</time>
      </trkpt>
      <trkpt lat="46.43197" lon="4.93321">
        <ele>189.2</ele>
        <time>2024-09-18T15:04:20Z</time>
      </trkpt>
      <trkpt lat="46.43196" lon="4.93323">
        <ele>189.2</ele>
        <time>2024-09-18T15:04:21Z</time>
      </trkpt>
      <trkpt lat="46.43196" lon="4.93326">
        <ele>189.2</ele>
        <time>2024-09-18T15:04:22Z</time>
      </trkpt>
      <trkpt lat="46.43195" lon="4.93329">
        <ele>188.8</ele>
        <time>2024-09-18T15:04:23Z</time>
      </trkpt>
      <trkpt lat="46.43195" lon="4.93332">
        <ele>188.8</ele>
        <time>2024-09-18T15:04:24Z</time>
      </trkpt>
      <trkpt lat="46.43195" lon="4.93335">
        <ele>188.8</ele>
        <time>2024-09-18T15:04:25Z</time>
      </trkpt>
      <trkpt lat="46.43195" lon="4.93338">
        <ele>188.8</ele>
        <time>2024-09-18T15:04:26Z</time>
      </trkpt>
      <trkpt lat="46.43195" lon="4.9334">
        <ele>188.8</ele>
        <time>2024-09-18T15:04:27Z</time>
      </trkpt>
      <trkpt lat="46.43195" lon="4.93341">
        <ele>189.4</ele>
        <time>2024-09-18T15:04:28Z</time>
      </trkpt>
      <trkpt lat="46.43196" lon="4.93342">
        <ele>189.8</ele>
        <time>2024-09-18T15:04:29Z</time>
      </trkpt>
      <trkpt lat="46.43193" lon="4.93342">
        <ele>189.6</ele>
        <time>2024-09-18T15:04:47Z</time>
      </trkpt>
      <trkpt lat="46.43191" lon="4.93342">
        <ele>189.6</ele>
        <time>2024-09-18T15:04:48Z</time>
      </trkpt>
      <trkpt lat="46.43189" lon="4.93343">
        <ele>189.6</ele>
        <time>2024-09-18T15:04:49Z</time>
      </trkpt>
      <trkpt lat="46.43187" lon="4.93345">
        <ele>188.6</ele>
        <time>2024-09-18T15:04:50Z</time>
      </trkpt>
      <trkpt lat="46.43185" lon="4.93347">
        <ele>188.8</ele>
        <time>2024-09-18T15:04:51Z</time>
      </trkpt>
      <trkpt lat="46.43183" lon="4.93348">
        <ele>188.8</ele>
        <time>2024-09-18T15:04:52Z</time>
      </trkpt>
      <trkpt lat="46.4318" lon="4.9335">
        <ele>188.8</ele>
        <time>2024-09-18T15:04:53Z</time>
      </trkpt>
      <trkpt lat="46.43178" lon="4.9335">
        <ele>188.8</ele>
        <time>2024-09-18T15:04:54Z</time>
      </trkpt>
      <trkpt lat="46.43176" lon="4.93351">
        <ele>188.8</ele>
        <time>2024-09-18T15:04:55Z</time>
      </trkpt>
      <trkpt lat="46.43173" lon="4.93351">
        <ele>188.8</ele>
        <time>2024-09-18T15:04:56Z</time>
      </trkpt>
      <trkpt lat="46.43171" lon="4.9335">
        <ele>188.8</ele>
        <time>2024-09-18T15:04:57Z</time>
      </trkpt>
      <trkpt lat="46.43169" lon="4.9335">
        <ele>188.8</ele>
        <time>2024-09-18T15:04:58Z</time>
      </trkpt>
      <trkpt lat="46.43166" lon="4.93349">
        <ele>188.8</ele>
        <time>2024-09-18T15:04:59Z</time>
      </trkpt>
      <trkpt lat="46.43164" lon="4.93348">
        <ele>188.8</ele>
        <time>2024-09-18T15:05:00Z</time>
      </trkpt>
      <trkpt lat="46.4316" lon="4.93346">
        <ele>188.8</ele>
        <time>2024-09-18T15:05:01Z</time>
      </trkpt>
      <trkpt lat="46.43159" lon="4.93346">
        <ele>188.8</ele>
        <time>2024-09-18T15:05:02Z</time>
      </trkpt>
      <trkpt lat="46.43156" lon="4.93345">
        <ele>188.8</ele>
        <time>2024-09-18T15:05:03Z</time>
      </trkpt>
      <trkpt lat="46.43155" lon="4.93344">
        <ele>189.2</ele>
        <time>2024-09-18T15:05:04Z</time>
      </trkpt>
      <trkpt lat="46.43153" lon="4.93344">
        <ele>189.2</ele>
        <time>2024-09-18T15:05:05Z</time>
      </trkpt>
      <trkpt lat="46.43151" lon="4.93343">
        <ele>189.2</ele>
        <time>2024-09-18T15:05:06Z</time>
      </trkpt>
      <trkpt lat="46.43149" lon="4.93343">
        <ele>189.2</ele>
        <time>2024-09-18T15:05:07Z</time>
      </trkpt>
      <trkpt lat="46.43148" lon="4.93343">
        <ele>189.2</ele>
        <time>2024-09-18T15:05:08Z</time>
      </trkpt>
      <trkpt lat="46.43145" lon="4.93344">
        <ele>189.2</ele>
        <time>2024-09-18T15:05:09Z</time>
      </trkpt>
      <trkpt lat="46.43144" lon="4.93344">
        <ele>189.2</ele>
        <time>2024-09-18T15:05:10Z</time>
      </trkpt>
      <trkpt lat="46.43142" lon="4.93344">
        <ele>189.2</ele>
        <time>2024-09-18T15:05:11Z</time>
      </trkpt>
      <trkpt lat="46.43139" lon="4.93344">
        <ele>189.2</ele>
        <time>2024-09-18T15:05:12Z</time>
      </trkpt>
      <trkpt lat="46.43136" lon="4.93345">
        <ele>189.4</ele>
        <time>2024-09-18T15:05:13Z</time>
      </trkpt>
      <trkpt lat="46.43134" lon="4.93345">
        <ele>189.4</ele>
        <time>2024-09-18T15:05:14Z</time>
      </trkpt>
      <trkpt lat="46.43131" lon="4.93346">
        <ele>189.4</ele>
        <time>2024-09-18T15:05:15Z</time>
      </trkpt>
      <trkpt lat="46.43129" lon="4.93346">
        <ele>189.4</ele>
        <time>2024-09-18T15:05:16Z</time>
      </trkpt>
      <trkpt lat="46.43125" lon="4.93348">
        <ele>189.4</ele>
        <time>2024-09-18T15:05:17Z</time>
      </trkpt>
      <trkpt lat="46.43124" lon="4.93348">
        <ele>189.4</ele>
        <time>2024-09-18T15:05:18Z</time>
      </trkpt>
      <trkpt lat="46.4312" lon="4.9335">
        <ele>189.4</ele>
        <time>2024-09-18T15:05:19Z</time>
      </trkpt>
      <trkpt lat="46.43118" lon="4.9335">
        <ele>189.4</ele>
        <time>2024-09-18T15:05:20Z</time>
      </trkpt>
      <trkpt lat="46.43115" lon="4.93351">
        <ele>189.4</ele>
        <time>2024-09-18T15:05:21Z</time>
      </trkpt>
      <trkpt lat="46.43112" lon="4.93353">
        <ele>189.4</ele>
        <time>2024-09-18T15:05:22Z</time>
      </trkpt>
      <trkpt lat="46.43109" lon="4.93354">
        <ele>190.2</ele>
        <time>2024-09-18T15:05:23Z</time>
      </trkpt>
      <trkpt lat="46.43105" lon="4.93355">
        <ele>190.2</ele>
        <time>2024-09-18T15:05:24Z</time>
      </trkpt>
      <trkpt lat="46.43102" lon="4.93356">
        <ele>189.2</ele>
        <time>2024-09-18T15:05:25Z</time>
      </trkpt>
      <trkpt lat="46.43098" lon="4.93357">
        <ele>189.6</ele>
        <time>2024-09-18T15:05:26Z</time>
      </trkpt>
      <trkpt lat="46.43094" lon="4.93357">
        <ele>189.6</ele>
        <time>2024-09-18T15:05:27Z</time>
      </trkpt>
      <trkpt lat="46.43092" lon="4.93358">
        <ele>189.6</ele>
        <time>2024-09-18T15:05:28Z</time>
      </trkpt>
      <trkpt lat="46.4309" lon="4.93357">
        <ele>189.6</ele>
        <time>2024-09-18T15:05:29Z</time>
      </trkpt>
      <trkpt lat="46.43087" lon="4.93356">
        <ele>189.6</ele>
        <time>2024-09-18T15:05:30Z</time>
      </trkpt>
      <trkpt lat="46.43086" lon="4.93354">
        <ele>189.6</ele>
        <time>2024-09-18T15:05:31Z</time>
      </trkpt>
      <trkpt lat="46.43084" lon="4.93353">
        <ele>189.8</ele>
        <time>2024-09-18T15:05:32Z</time>
      </trkpt>
      <trkpt lat="46.43082" lon="4.9335">
        <ele>189.8</ele>
        <time>2024-09-18T15:05:33Z</time>
      </trkpt>
      <trkpt lat="46.43079" lon="4.93348">
        <ele>189.8</ele>
        <time>2024-09-18T15:05:34Z</time>
      </trkpt>
      <trkpt lat="46.43077" lon="4.93346">
        <ele>189.2</ele>
        <time>2024-09-18T15:05:35Z</time>
      </trkpt>
      <trkpt lat="46.43074" lon="4.93345">
        <ele>189.8</ele>
        <time>2024-09-18T15:05:36Z</time>
      </trkpt>
      <trkpt lat="46.43071" lon="4.93345">
        <ele>189.8</ele>
        <time>2024-09-18T15:05:37Z</time>
      </trkpt>
      <trkpt lat="46.43068" lon="4.93345">
        <ele>189.8</ele>
        <time>2024-09-18T15:05:38Z</time>
      </trkpt>
      <trkpt lat="46.43065" lon="4.93347">
        <ele>189.8</ele>
        <time>2024-09-18T15:05:39Z</time>
      </trkpt>
      <trkpt lat="46.43063" lon="4.93349">
        <ele>189.2</ele>
        <time>2024-09-18T15:05:40Z</time>
      </trkpt>
      <trkpt lat="46.4306" lon="4.93351">
        <ele>189.2</ele>
        <time>2024-09-18T15:05:41Z</time>
      </trkpt>
      <trkpt lat="46.43057" lon="4.93353">
        <ele>189.2</ele>
        <time>2024-09-18T15:05:42Z</time>
      </trkpt>
      <trkpt lat="46.43054" lon="4.93354">
        <ele>189.2</ele>
        <time>2024-09-18T15:05:43Z</time>
      </trkpt>
      <trkpt lat="46.4305" lon="4.93356">
        <ele>189.6</ele>
        <time>2024-09-18T15:05:44Z</time>
      </trkpt>
      <trkpt lat="46.43046" lon="4.93358">
        <ele>190.2</ele>
        <time>2024-09-18T15:05:45Z</time>
      </trkpt>
      <trkpt lat="46.43045" lon="4.93358">
        <ele>190.2</ele>
        <time>2024-09-18T15:05:46Z</time>
      </trkpt>
      <trkpt lat="46.4304" lon="4.9336">
        <ele>190.2</ele>
        <time>2024-09-18T15:05:47Z</time>
      </trkpt>
      <trkpt lat="46.43039" lon="4.9336">
        <ele>190.2</ele>
        <time>2024-09-18T15:05:48Z</time>
      </trkpt>
      <trkpt lat="46.43034" lon="4.93361">
        <ele>190.8</ele>
        <time>2024-09-18T15:05:49Z</time>
      </trkpt>
      <trkpt lat="46.43032" lon="4.93361">
        <ele>190.8</ele>
        <time>2024-09-18T15:05:50Z</time>
      </trkpt>
      <trkpt lat="46.43028" lon="4.93363">
        <ele>190.8</ele>
        <time>2024-09-18T15:05:51Z</time>
      </trkpt>
      <trkpt lat="46.43027" lon="4.93364">
        <ele>190.8</ele>
        <time>2024-09-18T15:05:52Z</time>
      </trkpt>
      <trkpt lat="46.43024" lon="4.93369">
        <ele>190.2</ele>
        <time>2024-09-18T15:05:53Z</time>
      </trkpt>
      <trkpt lat="46.43023" lon="4.9337">
        <ele>190.2</ele>
        <time>2024-09-18T15:05:54Z</time>
      </trkpt>
      <trkpt lat="46.43019" lon="4.93375">
        <ele>190.2</ele>
        <time>2024-09-18T15:05:55Z</time>
      </trkpt>
      <trkpt lat="46.43017" lon="4.93376">
        <ele>190.2</ele>
        <time>2024-09-18T15:05:56Z</time>
      </trkpt>
      <trkpt lat="46.43013" lon="4.93378">
        <ele>190.2</ele>
        <time>2024-09-18T15:05:57Z</time>
      </trkpt>
      <trkpt lat="46.43011" lon="4.93379">
        <ele>190.2</ele>
        <time>2024-09-18T15:05:58Z</time>
      </trkpt>
      <trkpt lat="46.43006" lon="4.9338">
        <ele>190.2</ele>
        <time>2024-09-18T15:05:59Z</time>
      </trkpt>
      <trkpt lat="46.43005" lon="4.9338">
        <ele>190.2</ele>
        <time>2024-09-18T15:06:00Z</time>
      </trkpt>
      <trkpt lat="46.43002" lon="4.9338">
        <ele>190.2</ele>
        <time>2024-09-18T15:06:01Z</time>
      </trkpt>
      <trkpt lat="46.43" lon="4.93379">
        <ele>190.8</ele>
        <time>2024-09-18T15:06:02Z</time>
      </trkpt>
      <trkpt lat="46.42998" lon="4.93378">
        <ele>190.8</ele>
        <time>2024-09-18T15:06:03Z</time>
      </trkpt>
      <trkpt lat="46.42995" lon="4.93378">
        <ele>190.8</ele>
        <time>2024-09-18T15:06:04Z</time>
      </trkpt>
      <trkpt lat="46.42993" lon="4.93377">
        <ele>190.8</ele>
        <time>2024-09-18T15:06:05Z</time>
      </trkpt>
      <trkpt lat="46.42991" lon="4.93376">
        <ele>190.8</ele>
        <time>2024-09-18T15:06:06Z</time>
      </trkpt>
      <trkpt lat="46.42988" lon="4.93375">
        <ele>191.2</ele>
        <time>2024-09-18T15:06:07Z</time>
      </trkpt>
      <trkpt lat="46.42985" lon="4.93375">
        <ele>191.2</ele>
        <time>2024-09-18T15:06:08Z</time>
      </trkpt>
      <trkpt lat="46.42983" lon="4.93374">
        <ele>191.2</ele>
        <time>2024-09-18T15:06:09Z</time>
      </trkpt>
      <trkpt lat="46.4298" lon="4.93374">
        <ele>191.2</ele>
        <time>2024-09-18T15:06:10Z</time>
      </trkpt>
      <trkpt lat="46.42977" lon="4.93373">
        <ele>191.2</ele>
        <time>2024-09-18T15:06:11Z</time>
      </trkpt>
      <trkpt lat="46.42974" lon="4.93373">
        <ele>191.2</ele>
        <time>2024-09-18T15:06:12Z</time>
      </trkpt>
      <trkpt lat="46.42971" lon="4.93372">
        <ele>191.2</ele>
        <time>2024-09-18T15:06:13Z</time>
      </trkpt>
      <trkpt lat="46.42969" lon="4.93372">
        <ele>191.2</ele>
        <time>2024-09-18T15:06:14Z</time>
      </trkpt>
      <trkpt lat="46.42966" lon="4.93371">
        <ele>191.2</ele>
        <time>2024-09-18T15:06:15Z</time>
      </trkpt>
      <trkpt lat="46.42964" lon="4.9337">
        <ele>191</ele>
        <time>2024-09-18T15:06:16Z</time>
      </trkpt>
      <trkpt lat="46.42963" lon="4.93367">
        <ele>191</ele>
        <time>2024-09-18T15:06:17Z</time>
      </trkpt>
      <trkpt lat="46.42962" lon="4.93365">
        <ele>191</ele>
        <time>2024-09-18T15:06:18Z</time>
      </trkpt>
      <trkpt lat="46.42961" lon="4.93363">
        <ele>191</ele>
        <time>2024-09-18T15:06:19Z</time>
      </trkpt>
      <trkpt lat="46.42959" lon="4.93361">
        <ele>191.4</ele>
        <time>2024-09-18T15:06:20Z</time>
      </trkpt>
      <trkpt lat="46.42957" lon="4.93359">
        <ele>191.2</ele>
        <time>2024-09-18T15:06:21Z</time>
      </trkpt>
      <trkpt lat="46.42955" lon="4.93357">
        <ele>191.2</ele>
        <time>2024-09-18T15:06:22Z</time>
      </trkpt>
      <trkpt lat="46.42954" lon="4.93354">
        <ele>191.2</ele>
        <time>2024-09-18T15:06:23Z</time>
      </trkpt>
      <trkpt lat="46.42953" lon="4.93351">
        <ele>191.2</ele>
        <time>2024-09-18T15:06:24Z</time>
      </trkpt>
      <trkpt lat="46.42952" lon="4.93348">
        <ele>191.6</ele>
        <time>2024-09-18T15:06:25Z</time>
      </trkpt>
      <trkpt lat="46.42951" lon="4.93345">
        <ele>191.6</ele>
        <time>2024-09-18T15:06:26Z</time>
      </trkpt>
      <trkpt lat="46.4295" lon="4.93343">
        <ele>191.6</ele>
        <time>2024-09-18T15:06:27Z</time>
      </trkpt>
      <trkpt lat="46.4295" lon="4.93341">
        <ele>191.6</ele>
        <time>2024-09-18T15:06:28Z</time>
      </trkpt>
      <trkpt lat="46.4295" lon="4.93338">
        <ele>191.6</ele>
        <time>2024-09-18T15:06:29Z</time>
      </trkpt>
      <trkpt lat="46.4295" lon="4.93336">
        <ele>191.6</ele>
        <time>2024-09-18T15:06:30Z</time>
      </trkpt>
      <trkpt lat="46.4295" lon="4.93334">
        <ele>191.6</ele>
        <time>2024-09-18T15:06:31Z</time>
      </trkpt>
      <trkpt lat="46.42951" lon="4.93333">
        <ele>191.6</ele>
        <time>2024-09-18T15:06:32Z</time>
      </trkpt>
      <trkpt lat="46.42951" lon="4.93331">
        <ele>191.6</ele>
        <time>2024-09-18T15:06:33Z</time>
      </trkpt>
      <trkpt lat="46.42952" lon="4.93329">
        <ele>191.6</ele>
        <time>2024-09-18T15:06:34Z</time>
      </trkpt>
      <trkpt lat="46.42953" lon="4.93328">
        <ele>191.4</ele>
        <time>2024-09-18T15:06:35Z</time>
      </trkpt>
      <trkpt lat="46.42953" lon="4.93328">
        <ele>191.4</ele>
        <time>2024-09-18T15:06:36Z</time>
      </trkpt>
      <trkpt lat="46.42953" lon="4.93328">
        <ele>191.4</ele>
        <time>2024-09-18T15:06:37Z</time>
      </trkpt>
      <trkpt lat="46.42954" lon="4.93318">
        <ele>190.6</ele>
        <time>2024-09-18T15:08:46Z</time>
      </trkpt>
      <trkpt lat="46.42953" lon="4.93315">
        <ele>190.6</ele>
        <time>2024-09-18T15:08:47Z</time>
      </trkpt>
      <trkpt lat="46.42951" lon="4.93313">
        <ele>190.6</ele>
        <time>2024-09-18T15:08:48Z</time>
      </trkpt>
      <trkpt lat="46.42949" lon="4.93311">
        <ele>190.6</ele>
        <time>2024-09-18T15:08:49Z</time>
      </trkpt>
      <trkpt lat="46.42946" lon="4.93311">
        <ele>190.6</ele>
        <time>2024-09-18T15:08:50Z</time>
      </trkpt>
      <trkpt lat="46.42945" lon="4.93308">
        <ele>190.6</ele>
        <time>2024-09-18T15:08:51Z</time>
      </trkpt>
      <trkpt lat="46.42944" lon="4.93305">
        <ele>191.2</ele>
        <time>2024-09-18T15:08:52Z</time>
      </trkpt>
      <trkpt lat="46.42943" lon="4.93303">
        <ele>191.2</ele>
        <time>2024-09-18T15:08:53Z</time>
      </trkpt>
      <trkpt lat="46.42942" lon="4.933">
        <ele>191.2</ele>
        <time>2024-09-18T15:08:54Z</time>
      </trkpt>
      <trkpt lat="46.42941" lon="4.93298">
        <ele>191.2</ele>
        <time>2024-09-18T15:08:55Z</time>
      </trkpt>
      <trkpt lat="46.4294" lon="4.93296">
        <ele>191.2</ele>
        <time>2024-09-18T15:08:56Z</time>
      </trkpt>
      <trkpt lat="46.42939" lon="4.93294">
        <ele>191.2</ele>
        <time>2024-09-18T15:08:57Z</time>
      </trkpt>
      <trkpt lat="46.42939" lon="4.93293">
        <ele>191.2</ele>
        <time>2024-09-18T15:08:58Z</time>
      </trkpt>
      <trkpt lat="46.42938" lon="4.93292">
        <ele>191.2</ele>
        <time>2024-09-18T15:08:59Z</time>
      </trkpt>
      <trkpt lat="46.42937" lon="4.9329">
        <ele>191.4</ele>
        <time>2024-09-18T15:09:00Z</time>
      </trkpt>
      <trkpt lat="46.42937" lon="4.93289">
        <ele>191.2</ele>
        <time>2024-09-18T15:09:01Z</time>
      </trkpt>
      <trkpt lat="46.42936" lon="4.93288">
        <ele>191.2</ele>
        <time>2024-09-18T15:09:02Z</time>
      </trkpt>
      <trkpt lat="46.42936" lon="4.93288">
        <ele>191.2</ele>
        <time>2024-09-18T15:09:03Z</time>
      </trkpt>
      <trkpt lat="46.42943" lon="4.93303">
        <ele>191.8</ele>
        <time>2024-09-18T15:17:13Z</time>
      </trkpt>
      <trkpt lat="46.42944" lon="4.93304">
        <ele>191.6</ele>
        <time>2024-09-18T15:17:14Z</time>
      </trkpt>
      <trkpt lat="46.42945" lon="4.93305">
        <ele>191.6</ele>
        <time>2024-09-18T15:17:15Z</time>
      </trkpt>
      <trkpt lat="46.42945" lon="4.93306">
        <ele>191.6</ele>
        <time>2024-09-18T15:17:16Z</time>
      </trkpt>
      <trkpt lat="46.42946" lon="4.93307">
        <ele>191.8</ele>
        <time>2024-09-18T15:17:17Z</time>
      </trkpt>
      <trkpt lat="46.42947" lon="4.93307">
        <ele>191.6</ele>
        <time>2024-09-18T15:17:18Z</time>
      </trkpt>
      <trkpt lat="46.42948" lon="4.93308">
        <ele>191.6</ele>
        <time>2024-09-18T15:17:19Z</time>
      </trkpt>
      <trkpt lat="46.42949" lon="4.93309">
        <ele>191.6</ele>
        <time>2024-09-18T15:17:20Z</time>
      </trkpt>
      <trkpt lat="46.4295" lon="4.93311">
        <ele>191.4</ele>
        <time>2024-09-18T15:17:21Z</time>
      </trkpt>
      <trkpt lat="46.42951" lon="4.93312">
        <ele>191.4</ele>
        <time>2024-09-18T15:17:22Z</time>
      </trkpt>
      <trkpt lat="46.42952" lon="4.93313">
        <ele>191.4</ele>
        <time>2024-09-18T15:17:23Z</time>
      </trkpt>
      <trkpt lat="46.42954" lon="4.93315">
        <ele>191.4</ele>
        <time>2024-09-18T15:17:24Z</time>
      </trkpt>
      <trkpt lat="46.42955" lon="4.93316">
        <ele>191.4</ele>
        <time>2024-09-18T15:17:25Z</time>
      </trkpt>
      <trkpt lat="46.42956" lon="4.93317">
        <ele>191.4</ele>
        <time>2024-09-18T15:17:26Z</time>
      </trkpt>
      <trkpt lat="46.42957" lon="4.93318">
        <ele>191.6</ele>
        <time>2024-09-18T15:17:27Z</time>
      </trkpt>
      <trkpt lat="46.42958" lon="4.93319">
        <ele>191.6</ele>
        <time>2024-09-18T15:17:28Z</time>
      </trkpt>
      <trkpt lat="46.42959" lon="4.93318">
        <ele>191.6</ele>
        <time>2024-09-18T15:17:29Z</time>
      </trkpt>
      <trkpt lat="46.4296" lon="4.93317">
        <ele>191.6</ele>
        <time>2024-09-18T15:17:30Z</time>
      </trkpt>
      <trkpt lat="46.42961" lon="4.93316">
        <ele>191.6</ele>
        <time>2024-09-18T15:17:31Z</time>
      </trkpt>
      <trkpt lat="46.42962" lon="4.93315">
        <ele>191.4</ele>
        <time>2024-09-18T15:17:32Z</time>
      </trkpt>
      <trkpt lat="46.42963" lon="4.93313">
        <ele>191.4</ele>
        <time>2024-09-18T15:17:33Z</time>
      </trkpt>
      <trkpt lat="46.42963" lon="4.93313">
        <ele>191.4</ele>
        <time>2024-09-18T15:17:34Z</time>
      </trkpt>
      <trkpt lat="46.42964" lon="4.93312">
        <ele>191.4</ele>
        <time>2024-09-18T15:17:35Z</time>
      </trkpt>
      <trkpt lat="46.42965" lon="4.93312">
        <ele>191.4</ele>
        <time>2024-09-18T15:17:36Z</time>
      </trkpt>
      <trkpt lat="46.42966" lon="4.93311">
        <ele>191.4</ele>
        <time>2024-09-18T15:17:37Z</time>
      </trkpt>
      <trkpt lat="46.42967" lon="4.93311">
        <ele>191.4</ele>
        <time>2024-09-18T15:17:38Z</time>
      </trkpt>
      <trkpt lat="46.42968" lon="4.93311">
        <ele>191.4</ele>
        <time>2024-09-18T15:17:39Z</time>
      </trkpt>
      <trkpt lat="46.42969" lon="4.93311">
        <ele>191.4</ele>
        <time>2024-09-18T15:17:40Z</time>
      </trkpt>
      <trkpt lat="46.4297" lon="4.9331">
        <ele>191.2</ele>
        <time>2024-09-18T15:17:41Z</time>
      </trkpt>
      <trkpt lat="46.42971" lon="4.9331">
        <ele>191.2</ele>
        <time>2024-09-18T15:17:42Z</time>
      </trkpt>
      <trkpt lat="46.42972" lon="4.93309">
        <ele>191.2</ele>
        <time>2024-09-18T15:17:43Z</time>
      </trkpt>
      <trkpt lat="46.42973" lon="4.93309">
        <ele>191.2</ele>
        <time>2024-09-18T15:17:44Z</time>
      </trkpt>
      <trkpt lat="46.42973" lon="4.93309">
        <ele>191.2</ele>
        <time>2024-09-18T15:17:45Z</time>
      </trkpt>
      <trkpt lat="46.42973" lon="4.93309">
        <ele>191.2</ele>
        <time>2024-09-18T15:17:46Z</time>
      </trkpt>
      <trkpt lat="46.42973" lon="4.9331">
        <ele>191.2</ele>
        <time>2024-09-18T15:17:47Z</time>
      </trkpt>
      <trkpt lat="46.42973" lon="4.9331">
        <ele>191.2</ele>
        <time>2024-09-18T15:17:48Z</time>
      </trkpt>
      <trkpt lat="46.42974" lon="4.9331">
        <ele>191.2</ele>
        <time>2024-09-18T15:17:49Z</time>
      </trkpt>
      <trkpt lat="46.42975" lon="4.93309">
        <ele>191</ele>
        <time>2024-09-18T15:17:50Z</time>
      </trkpt>
      <trkpt lat="46.42976" lon="4.93307">
        <ele>191</ele>
        <time>2024-09-18T15:17:51Z</time>
      </trkpt>
      <trkpt lat="46.42977" lon="4.93307">
        <ele>191</ele>
        <time>2024-09-18T15:17:52Z</time>
      </trkpt>
      <trkpt lat="46.42979" lon="4.93303">
        <ele>191</ele>
        <time>2024-09-18T15:17:53Z</time>
      </trkpt>
      <trkpt lat="46.4298" lon="4.93302">
        <ele>191</ele>
        <time>2024-09-18T15:17:54Z</time>
      </trkpt>
      <trkpt lat="46.42983" lon="4.93299">
        <ele>191</ele>
        <time>2024-09-18T15:17:55Z</time>
      </trkpt>
      <trkpt lat="46.42985" lon="4.93298">
        <ele>191</ele>
        <time>2024-09-18T15:17:56Z</time>
      </trkpt>
      <trkpt lat="46.42988" lon="4.93294">
        <ele>191</ele>
        <time>2024-09-18T15:17:57Z</time>
      </trkpt>
      <trkpt lat="46.42989" lon="4.93292">
        <ele>191</ele>
        <time>2024-09-18T15:17:58Z</time>
      </trkpt>
      <trkpt lat="46.42993" lon="4.93288">
        <ele>191</ele>
        <time>2024-09-18T15:17:59Z</time>
      </trkpt>
      <trkpt lat="46.42994" lon="4.93286">
        <ele>191</ele>
        <time>2024-09-18T15:18:00Z</time>
      </trkpt>
      <trkpt lat="46.42997" lon="4.93281">
        <ele>191</ele>
        <time>2024-09-18T15:18:01Z</time>
      </trkpt>
      <trkpt lat="46.42998" lon="4.93279">
        <ele>191</ele>
        <time>2024-09-18T15:18:02Z</time>
      </trkpt>
      <trkpt lat="46.42999" lon="4.93275">
        <ele>191</ele>
        <time>2024-09-18T15:18:03Z</time>
      </trkpt>
      <trkpt lat="46.43" lon="4.93271">
        <ele>191</ele>
        <time>2024-09-18T15:18:04Z</time>
      </trkpt>
      <trkpt lat="46.43002" lon="4.93268">
        <ele>191</ele>
        <time>2024-09-18T15:18:05Z</time>
      </trkpt>
      <trkpt lat="46.43003" lon="4.93264">
        <ele>191</ele>
        <time>2024-09-18T15:18:06Z</time>
      </trkpt>
      <trkpt lat="46.43004" lon="4.9326">
        <ele>191</ele>
        <time>2024-09-18T15:18:07Z</time>
      </trkpt>
      <trkpt lat="46.43005" lon="4.93257">
        <ele>191</ele>
        <time>2024-09-18T15:18:08Z</time>
      </trkpt>
      <trkpt lat="46.43006" lon="4.93254">
        <ele>191</ele>
        <time>2024-09-18T15:18:09Z</time>
      </trkpt>
      <trkpt lat="46.43007" lon="4.93251">
        <ele>191</ele>
        <time>2024-09-18T15:18:10Z</time>
      </trkpt>
      <trkpt lat="46.43008" lon="4.93248">
        <ele>191</ele>
        <time>2024-09-18T15:18:11Z</time>
      </trkpt>
      <trkpt lat="46.43008" lon="4.93244">
        <ele>191</ele>
        <time>2024-09-18T15:18:12Z</time>
      </trkpt>
      <trkpt lat="46.43009" lon="4.93241">
        <ele>191</ele>
        <time>2024-09-18T15:18:13Z</time>
      </trkpt>
      <trkpt lat="46.43009" lon="4.93237">
        <ele>191</ele>
        <time>2024-09-18T15:18:14Z</time>
      </trkpt>
      <trkpt lat="46.43008" lon="4.93235">
        <ele>191</ele>
        <time>2024-09-18T15:18:15Z</time>
      </trkpt>
      <trkpt lat="46.43007" lon="4.93232">
        <ele>191</ele>
        <time>2024-09-18T15:18:16Z</time>
      </trkpt>
      <trkpt lat="46.43006" lon="4.93229">
        <ele>191</ele>
        <time>2024-09-18T15:18:17Z</time>
      </trkpt>
      <trkpt lat="46.43004" lon="4.93227">
        <ele>191</ele>
        <time>2024-09-18T15:18:18Z</time>
      </trkpt>
      <trkpt lat="46.43002" lon="4.93225">
        <ele>191</ele>
        <time>2024-09-18T15:18:19Z</time>
      </trkpt>
      <trkpt lat="46.43" lon="4.93222">
        <ele>191</ele>
        <time>2024-09-18T15:18:20Z</time>
      </trkpt>
      <trkpt lat="46.42999" lon="4.93218">
        <ele>191</ele>
        <time>2024-09-18T15:18:21Z</time>
      </trkpt>
      <trkpt lat="46.42998" lon="4.93215">
        <ele>191</ele>
        <time>2024-09-18T15:18:22Z</time>
      </trkpt>
      <trkpt lat="46.42997" lon="4.93212">
        <ele>191</ele>
        <time>2024-09-18T15:18:23Z</time>
      </trkpt>
      <trkpt lat="46.42996" lon="4.93209">
        <ele>191</ele>
        <time>2024-09-18T15:18:24Z</time>
      </trkpt>
      <trkpt lat="46.42995" lon="4.93206">
        <ele>191</ele>
        <time>2024-09-18T15:18:25Z</time>
      </trkpt>
      <trkpt lat="46.42995" lon="4.93202">
        <ele>191</ele>
        <time>2024-09-18T15:18:26Z</time>
      </trkpt>
      <trkpt lat="46.42995" lon="4.93198">
        <ele>191</ele>
        <time>2024-09-18T15:18:27Z</time>
      </trkpt>
      <trkpt lat="46.42995" lon="4.93194">
        <ele>191</ele>
        <time>2024-09-18T15:18:28Z</time>
      </trkpt>
      <trkpt lat="46.42996" lon="4.93189">
        <ele>191</ele>
        <time>2024-09-18T15:18:29Z</time>
      </trkpt>
      <trkpt lat="46.42996" lon="4.93188">
        <ele>191.2</ele>
        <time>2024-09-18T15:18:30Z</time>
      </trkpt>
      <trkpt lat="46.42996" lon="4.93183">
        <ele>191.2</ele>
        <time>2024-09-18T15:18:31Z</time>
      </trkpt>
      <trkpt lat="46.42996" lon="4.93182">
        <ele>191.2</ele>
        <time>2024-09-18T15:18:32Z</time>
      </trkpt>
      <trkpt lat="46.42997" lon="4.93177">
        <ele>191.2</ele>
        <time>2024-09-18T15:18:33Z</time>
      </trkpt>
      <trkpt lat="46.42997" lon="4.93176">
        <ele>191.2</ele>
        <time>2024-09-18T15:18:34Z</time>
      </trkpt>
      <trkpt lat="46.42998" lon="4.93172">
        <ele>191.2</ele>
        <time>2024-09-18T15:18:35Z</time>
      </trkpt>
      <trkpt lat="46.42999" lon="4.9317">
        <ele>191.2</ele>
        <time>2024-09-18T15:18:36Z</time>
      </trkpt>
      <trkpt lat="46.43" lon="4.93167">
        <ele>191.2</ele>
        <time>2024-09-18T15:18:37Z</time>
      </trkpt>
      <trkpt lat="46.43001" lon="4.93166">
        <ele>191.2</ele>
        <time>2024-09-18T15:18:38Z</time>
      </trkpt>
      <trkpt lat="46.43002" lon="4.93163">
        <ele>191</ele>
        <time>2024-09-18T15:18:39Z</time>
      </trkpt>
      <trkpt lat="46.43003" lon="4.93161">
        <ele>191</ele>
        <time>2024-09-18T15:18:40Z</time>
      </trkpt>
      <trkpt lat="46.43003" lon="4.93159">
        <ele>191</ele>
        <time>2024-09-18T15:18:41Z</time>
      </trkpt>
      <trkpt lat="46.43004" lon="4.93157">
        <ele>191</ele>
        <time>2024-09-18T15:18:42Z</time>
      </trkpt>
      <trkpt lat="46.43005" lon="4.93156">
        <ele>191</ele>
        <time>2024-09-18T15:18:43Z</time>
      </trkpt>
      <trkpt lat="46.43007" lon="4.93154">
        <ele>191</ele>
        <time>2024-09-18T15:18:44Z</time>
      </trkpt>
      <trkpt lat="46.43008" lon="4.93152">
        <ele>191</ele>
        <time>2024-09-18T15:18:45Z</time>
      </trkpt>
      <trkpt lat="46.43009" lon="4.93151">
        <ele>191</ele>
        <time>2024-09-18T15:18:46Z</time>
      </trkpt>
      <trkpt lat="46.43011" lon="4.9315">
        <ele>191</ele>
        <time>2024-09-18T15:18:47Z</time>
      </trkpt>
      <trkpt lat="46.43012" lon="4.93148">
        <ele>190.8</ele>
        <time>2024-09-18T15:18:48Z</time>
      </trkpt>
      <trkpt lat="46.43013" lon="4.93146">
        <ele>190.8</ele>
        <time>2024-09-18T15:18:49Z</time>
      </trkpt>
      <trkpt lat="46.43015" lon="4.93144">
        <ele>190.8</ele>
        <time>2024-09-18T15:18:50Z</time>
      </trkpt>
      <trkpt lat="46.43016" lon="4.93142">
        <ele>190.8</ele>
        <time>2024-09-18T15:18:51Z</time>
      </trkpt>
      <trkpt lat="46.43018" lon="4.93141">
        <ele>191.2</ele>
        <time>2024-09-18T15:18:52Z</time>
      </trkpt>
      <trkpt lat="46.43019" lon="4.93139">
        <ele>191.2</ele>
        <time>2024-09-18T15:18:53Z</time>
      </trkpt>
      <trkpt lat="46.43021" lon="4.93137">
        <ele>191.2</ele>
        <time>2024-09-18T15:18:54Z</time>
      </trkpt>
      <trkpt lat="46.43023" lon="4.93135">
        <ele>191.4</ele>
        <time>2024-09-18T15:18:55Z</time>
      </trkpt>
      <trkpt lat="46.43024" lon="4.93134">
        <ele>191.4</ele>
        <time>2024-09-18T15:18:56Z</time>
      </trkpt>
      <trkpt lat="46.43025" lon="4.93133">
        <ele>191</ele>
        <time>2024-09-18T15:18:57Z</time>
      </trkpt>
      <trkpt lat="46.43027" lon="4.93132">
        <ele>191</ele>
        <time>2024-09-18T15:18:58Z</time>
      </trkpt>
      <trkpt lat="46.43029" lon="4.93131">
        <ele>191</ele>
        <time>2024-09-18T15:18:59Z</time>
      </trkpt>
      <trkpt lat="46.4303" lon="4.93129">
        <ele>191</ele>
        <time>2024-09-18T15:19:00Z</time>
      </trkpt>
      <trkpt lat="46.43032" lon="4.93128">
        <ele>191</ele>
        <time>2024-09-18T15:19:01Z</time>
      </trkpt>
      <trkpt lat="46.43034" lon="4.93126">
        <ele>191.4</ele>
        <time>2024-09-18T15:19:02Z</time>
      </trkpt>
      <trkpt lat="46.43036" lon="4.93125">
        <ele>191.4</ele>
        <time>2024-09-18T15:19:03Z</time>
      </trkpt>
      <trkpt lat="46.43038" lon="4.93124">
        <ele>191.4</ele>
        <time>2024-09-18T15:19:04Z</time>
      </trkpt>
      <trkpt lat="46.4304" lon="4.93123">
        <ele>191.4</ele>
        <time>2024-09-18T15:19:05Z</time>
      </trkpt>
      <trkpt lat="46.43041" lon="4.93122">
        <ele>191.2</ele>
        <time>2024-09-18T15:19:06Z</time>
      </trkpt>
      <trkpt lat="46.43043" lon="4.9312">
        <ele>191.2</ele>
        <time>2024-09-18T15:19:07Z</time>
      </trkpt>
      <trkpt lat="46.43044" lon="4.93118">
        <ele>191.2</ele>
        <time>2024-09-18T15:19:08Z</time>
      </trkpt>
      <trkpt lat="46.43044" lon="4.93117">
        <ele>191.6</ele>
        <time>2024-09-18T15:19:09Z</time>
      </trkpt>
      <trkpt lat="46.43044" lon="4.93117">
        <ele>191.6</ele>
        <time>2024-09-18T15:19:10Z</time>
      </trkpt>
      <trkpt lat="46.43044" lon="4.93117">
        <ele>191.4</ele>
        <time>2024-09-18T15:19:11Z</time>
      </trkpt>
      <trkpt lat="46.43045" lon="4.93113">
        <ele>191.2</ele>
        <time>2024-09-18T15:19:22Z</time>
      </trkpt>
      <trkpt lat="46.43045" lon="4.93112">
        <ele>191.4</ele>
        <time>2024-09-18T15:19:23Z</time>
      </trkpt>
      <trkpt lat="46.43044" lon="4.93111">
        <ele>191.4</ele>
        <time>2024-09-18T15:19:24Z</time>
      </trkpt>
      <trkpt lat="46.43044" lon="4.93109">
        <ele>191.4</ele>
        <time>2024-09-18T15:19:25Z</time>
      </trkpt>
      <trkpt lat="46.43044" lon="4.93108">
        <ele>191.4</ele>
        <time>2024-09-18T15:19:26Z</time>
      </trkpt>
      <trkpt lat="46.43044" lon="4.93106">
        <ele>191.4</ele>
        <time>2024-09-18T15:19:27Z</time>
      </trkpt>
      <trkpt lat="46.43043" lon="4.93105">
        <ele>191.6</ele>
        <time>2024-09-18T15:19:28Z</time>
      </trkpt>
      <trkpt lat="46.43043" lon="4.93103">
        <ele>191.6</ele>
        <time>2024-09-18T15:19:29Z</time>
      </trkpt>
      <trkpt lat="46.43043" lon="4.93102">
        <ele>191.6</ele>
        <time>2024-09-18T15:19:30Z</time>
      </trkpt>
      <trkpt lat="46.43043" lon="4.93101">
        <ele>191.6</ele>
        <time>2024-09-18T15:19:31Z</time>
      </trkpt>
      <trkpt lat="46.43043" lon="4.931">
        <ele>191.6</ele>
        <time>2024-09-18T15:19:32Z</time>
      </trkpt>
      <trkpt lat="46.43043" lon="4.931">
        <ele>191.6</ele>
        <time>2024-09-18T15:19:33Z</time>
      </trkpt>
      <trkpt lat="46.43044" lon="4.93102">
        <ele>191.6</ele>
        <time>2024-09-18T15:19:57Z</time>
      </trkpt>
      <trkpt lat="46.43045" lon="4.93104">
        <ele>191.4</ele>
        <time>2024-09-18T15:19:58Z</time>
      </trkpt>
      <trkpt lat="46.43046" lon="4.93105">
        <ele>191.4</ele>
        <time>2024-09-18T15:19:59Z</time>
      </trkpt>
      <trkpt lat="46.43047" lon="4.93106">
        <ele>191.4</ele>
        <time>2024-09-18T15:20:00Z</time>
      </trkpt>
      <trkpt lat="46.43048" lon="4.93107">
        <ele>191.6</ele>
        <time>2024-09-18T15:20:01Z</time>
      </trkpt>
      <trkpt lat="46.43048" lon="4.93107">
        <ele>191.6</ele>
        <time>2024-09-18T15:20:02Z</time>
      </trkpt>
      <trkpt lat="46.43049" lon="4.93108">
        <ele>191.4</ele>
        <time>2024-09-18T15:20:03Z</time>
      </trkpt>
      <trkpt lat="46.43051" lon="4.93109">
        <ele>191.4</ele>
        <time>2024-09-18T15:20:04Z</time>
      </trkpt>
      <trkpt lat="46.43052" lon="4.93109">
        <ele>191.4</ele>
        <time>2024-09-18T15:20:05Z</time>
      </trkpt>
      <trkpt lat="46.43053" lon="4.9311">
        <ele>191.4</ele>
        <time>2024-09-18T15:20:06Z</time>
      </trkpt>
      <trkpt lat="46.43054" lon="4.9311">
        <ele>191.4</ele>
        <time>2024-09-18T15:20:07Z</time>
      </trkpt>
      <trkpt lat="46.43055" lon="4.9311">
        <ele>191.2</ele>
        <time>2024-09-18T15:20:08Z</time>
      </trkpt>
      <trkpt lat="46.43055" lon="4.9311">
        <ele>191.2</ele>
        <time>2024-09-18T15:20:09Z</time>
      </trkpt>
      <trkpt lat="46.43056" lon="4.9311">
        <ele>191.2</ele>
        <time>2024-09-18T15:20:10Z</time>
      </trkpt>
      <trkpt lat="46.43057" lon="4.9311">
        <ele>191.4</ele>
        <time>2024-09-18T15:20:11Z</time>
      </trkpt>
      <trkpt lat="46.43057" lon="4.9311">
        <ele>191.2</ele>
        <time>2024-09-18T15:20:12Z</time>
      </trkpt>
      <trkpt lat="46.4306" lon="4.93112">
        <ele>191.2</ele>
        <time>2024-09-18T15:20:26Z</time>
      </trkpt>
      <trkpt lat="46.4306" lon="4.93112">
        <ele>191.2</ele>
        <time>2024-09-18T15:20:27Z</time>
      </trkpt>
      <trkpt lat="46.4306" lon="4.93114">
        <ele>190.8</ele>
        <time>2024-09-18T15:20:51Z</time>
      </trkpt>
      <trkpt lat="46.4306" lon="4.93115">
        <ele>190.8</ele>
        <time>2024-09-18T15:20:52Z</time>
      </trkpt>
      <trkpt lat="46.4306" lon="4.93116">
        <ele>190.8</ele>
        <time>2024-09-18T15:20:53Z</time>
      </trkpt>
      <trkpt lat="46.4306" lon="4.93117">
        <ele>190.8</ele>
        <time>2024-09-18T15:20:54Z</time>
      </trkpt>
      <trkpt lat="46.4306" lon="4.93118">
        <ele>191</ele>
        <time>2024-09-18T15:20:55Z</time>
      </trkpt>
      <trkpt lat="46.4306" lon="4.93119">
        <ele>191</ele>
        <time>2024-09-18T15:20:56Z</time>
      </trkpt>
      <trkpt lat="46.4306" lon="4.93119">
        <ele>191</ele>
        <time>2024-09-18T15:20:57Z</time>
      </trkpt>
      <trkpt lat="46.4306" lon="4.93119">
        <ele>191</ele>
        <time>2024-09-18T15:21:02Z</time>
      </trkpt>
      <trkpt lat="46.4306" lon="4.93119">
        <ele>191</ele>
        <time>2024-09-18T15:21:03Z</time>
      </trkpt>
      <trkpt lat="46.4306" lon="4.93119">
        <ele>191</ele>
        <time>2024-09-18T15:21:06Z</time>
      </trkpt>
      <trkpt lat="46.4306" lon="4.93119">
        <ele>191</ele>
        <time>2024-09-18T15:21:08Z</time>
      </trkpt>
      <trkpt lat="46.4306" lon="4.93119">
        <ele>191</ele>
        <time>2024-09-18T15:21:09Z</time>
      </trkpt>
      <trkpt lat="46.4306" lon="4.93119">
        <ele>191</ele>
        <time>2024-09-18T15:21:10Z</time>
      </trkpt>
      <trkpt lat="46.4306" lon="4.93119">
        <ele>190.8</ele>
        <time>2024-09-18T15:21:16Z</time>
      </trkpt>
    </trkseg>
  </trk>
</gpx>